<?xml version="1.0" encoding="UTF-8"?>
<TrainingCenterDatabase xmlns="http://www.garmin.com/xmlschemas/TrainingCenterDatabase/v2" xmlns:xsi="http://www.w3.org/2001/XMLSchema-instance" xsi:schemaLocation="http://www.garmin.com/xmlschemas/TrainingCenterDatabase/v2 http://www.garmin.com/xmlschemas/TrainingCenterDatabasev2.xsd">
  <Activities>
    <Activity Sport="Other">
      <Id>2021-08-01T09:52:33.000Z</Id>
      <Lap StartTime="2021-08-01T09:52:33.000Z">
        <TotalTimeSeconds>187914</TotalTimeSeconds>
        <DistanceMeters>59550</DistanceMeters>
        <Track>
          <Trackpoint>
            <Time>2021-08-01T09:52:33.000Z</Time>
            <Position>
              <LatitudeDegrees>-15.46341500245034694671630859375</LatitudeDegrees>
              <LongitudeDegrees>36.99083813466131687164306640625</LongitudeDegrees>
            </Position>
            <AltitudeMeters>708.79998779296875</AltitudeMeters>
            <DistanceMeters>0</DistanceMeters>
          </Trackpoint>
          <Trackpoint>
            <Time>2021-08-01T09:52:34.000Z</Time>
            <Position>
              <LatitudeDegrees>-15.4634137451648712158203125</LatitudeDegrees>
              <LongitudeDegrees>36.99084014631807804107666015625</LongitudeDegrees>
            </Position>
            <AltitudeMeters>708.79998779296875</AltitudeMeters>
            <DistanceMeters>0.26877613649957</DistanceMeters>
          </Trackpoint>
          <Trackpoint>
            <Time>2021-08-01T09:52:44.000Z</Time>
            <Position>
              <LatitudeDegrees>-15.4634189419448375701904296875</LatitudeDegrees>
              <LongitudeDegrees>36.9908472709357738494873046875</LongitudeDegrees>
            </Position>
            <AltitudeMeters>708.79998779296875</AltitudeMeters>
            <DistanceMeters>1.2331919564275</DistanceMeters>
          </Trackpoint>
          <Trackpoint>
            <Time>2021-08-01T09:52:51.000Z</Time>
            <Position>
              <LatitudeDegrees>-15.463431179523468017578125</LatitudeDegrees>
              <LongitudeDegrees>36.99081919156014919281005859375</LongitudeDegrees>
            </Position>
            <AltitudeMeters>708.5999755859375</AltitudeMeters>
            <DistanceMeters>4.5400670029978</DistanceMeters>
          </Trackpoint>
          <Trackpoint>
            <Time>2021-08-01T09:52:52.000Z</Time>
            <Position>
              <LatitudeDegrees>-15.4634217917919158935546875</LatitudeDegrees>
              <LongitudeDegrees>36.990820951759815216064453125</LongitudeDegrees>
            </Position>
            <AltitudeMeters>708.5999755859375</AltitudeMeters>
            <DistanceMeters>5.6024979680464</DistanceMeters>
          </Trackpoint>
          <Trackpoint>
            <Time>2021-08-01T09:52:57.000Z</Time>
            <Position>
              <LatitudeDegrees>-15.4634092189371585845947265625</LatitudeDegrees>
              <LongitudeDegrees>36.990834362804889678955078125</LongitudeDegrees>
            </Position>
            <AltitudeMeters>708.79998779296875</AltitudeMeters>
            <DistanceMeters>7.6093397889191</DistanceMeters>
          </Trackpoint>
          <Trackpoint>
            <Time>2021-08-01T09:53:01.000Z</Time>
            <Position>
              <LatitudeDegrees>-15.46343646012246608734130859375</LatitudeDegrees>
              <LongitudeDegrees>36.9908331893384456634521484375</LongitudeDegrees>
            </Position>
            <AltitudeMeters>708.79998779296875</AltitudeMeters>
            <DistanceMeters>10.644249667784</DistanceMeters>
          </Trackpoint>
          <Trackpoint>
            <Time>2021-08-01T09:53:03.000Z</Time>
            <Position>
              <LatitudeDegrees>-15.46345707960426807403564453125</LatitudeDegrees>
              <LongitudeDegrees>36.9908284954726696014404296875</LongitudeDegrees>
            </Position>
            <AltitudeMeters>708.79998779296875</AltitudeMeters>
            <DistanceMeters>12.993159352565</DistanceMeters>
          </Trackpoint>
          <Trackpoint>
            <Time>2021-08-01T09:53:04.000Z</Time>
            <Position>
              <LatitudeDegrees>-15.463468395173549652099609375</LatitudeDegrees>
              <LongitudeDegrees>36.9908214546740055084228515625</LongitudeDegrees>
            </Position>
            <AltitudeMeters>708.79998779296875</AltitudeMeters>
            <DistanceMeters>14.462236705908</DistanceMeters>
          </Trackpoint>
          <Trackpoint>
            <Time>2021-08-01T09:53:08.000Z</Time>
            <Position>
              <LatitudeDegrees>-15.46351407654583454132080078125</LatitudeDegrees>
              <LongitudeDegrees>36.99077594093978404998779296875</LongitudeDegrees>
            </Position>
            <AltitudeMeters>708.79998779296875</AltitudeMeters>
            <DistanceMeters>21.511528207264</DistanceMeters>
          </Trackpoint>
          <Trackpoint>
            <Time>2021-08-01T09:53:13.000Z</Time>
            <Position>
              <LatitudeDegrees>-15.46354852616786956787109375</LatitudeDegrees>
              <LongitudeDegrees>36.99073520489037036895751953125</LongitudeDegrees>
            </Position>
            <AltitudeMeters>708.79998779296875</AltitudeMeters>
            <DistanceMeters>27.325268494697</DistanceMeters>
          </Trackpoint>
          <Trackpoint>
            <Time>2021-08-01T09:53:15.000Z</Time>
            <Position>
              <LatitudeDegrees>-15.46355925500392913818359375</LatitudeDegrees>
              <LongitudeDegrees>36.99072900228202342987060546875</LongitudeDegrees>
            </Position>
            <AltitudeMeters>708.79998779296875</AltitudeMeters>
            <DistanceMeters>28.695763259496</DistanceMeters>
          </Trackpoint>
          <Trackpoint>
            <Time>2021-08-01T09:53:19.000Z</Time>
            <Position>
              <LatitudeDegrees>-15.4635902680456638336181640625</LatitudeDegrees>
              <LongitudeDegrees>36.9907440058887004852294921875</LongitudeDegrees>
            </Position>
            <AltitudeMeters>708.4000244140625</AltitudeMeters>
            <DistanceMeters>32.505137597289</DistanceMeters>
          </Trackpoint>
          <Trackpoint>
            <Time>2021-08-01T09:53:26.000Z</Time>
            <Position>
              <LatitudeDegrees>-15.46368707902729511260986328125</LatitudeDegrees>
              <LongitudeDegrees>36.9907600991427898406982421875</LongitudeDegrees>
            </Position>
            <AltitudeMeters>708.5999755859375</AltitudeMeters>
            <DistanceMeters>43.417912136465</DistanceMeters>
          </Trackpoint>
          <Trackpoint>
            <Time>2021-08-01T09:53:30.000Z</Time>
            <Position>
              <LatitudeDegrees>-15.46374273486435413360595703125</LatitudeDegrees>
              <LongitudeDegrees>36.99075029231607913970947265625</LongitudeDegrees>
            </Position>
            <AltitudeMeters>708.5999755859375</AltitudeMeters>
            <DistanceMeters>49.70190165662</DistanceMeters>
          </Trackpoint>
          <Trackpoint>
            <Time>2021-08-01T09:53:38.000Z</Time>
            <Position>
              <LatitudeDegrees>-15.46385371126234531402587890625</LatitudeDegrees>
              <LongitudeDegrees>36.99072766117751598358154296875</LongitudeDegrees>
            </Position>
            <AltitudeMeters>708.79998779296875</AltitudeMeters>
            <DistanceMeters>62.289982584171</DistanceMeters>
          </Trackpoint>
          <Trackpoint>
            <Time>2021-08-01T09:53:42.000Z</Time>
            <Position>
              <LatitudeDegrees>-15.46389427967369556427001953125</LatitudeDegrees>
              <LongitudeDegrees>36.99070553295314311981201171875</LongitudeDegrees>
            </Position>
            <AltitudeMeters>708.4000244140625</AltitudeMeters>
            <DistanceMeters>67.39142162737</DistanceMeters>
          </Trackpoint>
          <Trackpoint>
            <Time>2021-08-01T09:53:46.000Z</Time>
            <Position>
              <LatitudeDegrees>-15.46393811702728271484375</LatitudeDegrees>
              <LongitudeDegrees>36.99068776331841945648193359375</LongitudeDegrees>
            </Position>
            <AltitudeMeters>707.79998779296875</AltitudeMeters>
            <DistanceMeters>72.629109307705</DistanceMeters>
          </Trackpoint>
          <Trackpoint>
            <Time>2021-08-01T09:53:49.000Z</Time>
            <Position>
              <LatitudeDegrees>-15.4639674536883831024169921875</LatitudeDegrees>
              <LongitudeDegrees>36.99067644774913787841796875</LongitudeDegrees>
            </Position>
            <AltitudeMeters>707.79998779296875</AltitudeMeters>
            <DistanceMeters>76.112846200852</DistanceMeters>
          </Trackpoint>
          <Trackpoint>
            <Time>2021-08-01T09:53:52.000Z</Time>
            <Position>
              <LatitudeDegrees>-15.46399368904531002044677734375</LatitudeDegrees>
              <LongitudeDegrees>36.9906803034245967864990234375</LongitudeDegrees>
            </Position>
            <AltitudeMeters>707.79998779296875</AltitudeMeters>
            <DistanceMeters>79.061738130973</DistanceMeters>
          </Trackpoint>
          <Trackpoint>
            <Time>2021-08-01T09:53:53.000Z</Time>
            <Position>
              <LatitudeDegrees>-15.46400207094848155975341796875</LatitudeDegrees>
              <LongitudeDegrees>36.99068122543394565582275390625</LongitudeDegrees>
            </Position>
            <AltitudeMeters>707.79998779296875</AltitudeMeters>
            <DistanceMeters>79.992805979531</DistanceMeters>
          </Trackpoint>
          <Trackpoint>
            <Time>2021-08-01T09:53:55.000Z</Time>
            <Position>
              <LatitudeDegrees>-15.4640207625925540924072265625</LatitudeDegrees>
              <LongitudeDegrees>36.99068072251975536346435546875</LongitudeDegrees>
            </Position>
            <AltitudeMeters>707.5999755859375</AltitudeMeters>
            <DistanceMeters>82.072567171749</DistanceMeters>
          </Trackpoint>
          <Trackpoint>
            <Time>2021-08-01T09:53:59.000Z</Time>
            <Position>
              <LatitudeDegrees>-15.464062504470348358154296875</LatitudeDegrees>
              <LongitudeDegrees>36.99069119989871978759765625</LongitudeDegrees>
            </Position>
            <AltitudeMeters>707.4000244140625</AltitudeMeters>
            <DistanceMeters>86.853270412868</DistanceMeters>
          </Trackpoint>
          <Trackpoint>
            <Time>2021-08-01T09:54:00.000Z</Time>
            <Position>
              <LatitudeDegrees>-15.46407365240156650543212890625</LatitudeDegrees>
              <LongitudeDegrees>36.990698240697383880615234375</LongitudeDegrees>
            </Position>
            <AltitudeMeters>707.4000244140625</AltitudeMeters>
            <DistanceMeters>88.306899625524</DistanceMeters>
          </Trackpoint>
          <Trackpoint>
            <Time>2021-08-01T09:54:11.000Z</Time>
            <Position>
              <LatitudeDegrees>-15.46419627964496612548828125</LatitudeDegrees>
              <LongitudeDegrees>36.99076923541724681854248046875</LongitudeDegrees>
            </Position>
            <AltitudeMeters>707.20001220703125</AltitudeMeters>
            <DistanceMeters>103.93641106901</DistanceMeters>
          </Trackpoint>
          <Trackpoint>
            <Time>2021-08-01T09:54:19.000Z</Time>
            <Position>
              <LatitudeDegrees>-15.4642782546579837799072265625</LatitudeDegrees>
              <LongitudeDegrees>36.990822963416576385498046875</LongitudeDegrees>
            </Position>
            <AltitudeMeters>707.20001220703125</AltitudeMeters>
            <DistanceMeters>114.72811602688</DistanceMeters>
          </Trackpoint>
          <Trackpoint>
            <Time>2021-08-01T09:54:22.000Z</Time>
            <Position>
              <LatitudeDegrees>-15.46431018970906734466552734375</LatitudeDegrees>
              <LongitudeDegrees>36.9908402301371097564697265625</LongitudeDegrees>
            </Position>
            <AltitudeMeters>706.79998779296875</AltitudeMeters>
            <DistanceMeters>118.73617116544</DistanceMeters>
          </Trackpoint>
          <Trackpoint>
            <Time>2021-08-01T09:54:30.000Z</Time>
            <Position>
              <LatitudeDegrees>-15.464408509433269500732421875</LatitudeDegrees>
              <LongitudeDegrees>36.99088775552809238433837890625</LongitudeDegrees>
            </Position>
            <AltitudeMeters>706.79998779296875</AltitudeMeters>
            <DistanceMeters>130.80905250678</DistanceMeters>
          </Trackpoint>
          <Trackpoint>
            <Time>2021-08-01T09:54:34.000Z</Time>
            <Position>
              <LatitudeDegrees>-15.46444631181657314300537109375</LatitudeDegrees>
              <LongitudeDegrees>36.99091382324695587158203125</LongitudeDegrees>
            </Position>
            <AltitudeMeters>706.5999755859375</AltitudeMeters>
            <DistanceMeters>135.86157921201</DistanceMeters>
          </Trackpoint>
          <Trackpoint>
            <Time>2021-08-01T09:54:36.000Z</Time>
            <Position>
              <LatitudeDegrees>-15.46446592546999454498291015625</LatitudeDegrees>
              <LongitudeDegrees>36.990922875702381134033203125</LongitudeDegrees>
            </Position>
            <AltitudeMeters>706.5999755859375</AltitudeMeters>
            <DistanceMeters>138.25051376795</DistanceMeters>
          </Trackpoint>
          <Trackpoint>
            <Time>2021-08-01T09:54:44.000Z</Time>
            <Position>
              <LatitudeDegrees>-15.46455075033009052276611328125</LatitudeDegrees>
              <LongitudeDegrees>36.99096302501857280731201171875</LongitudeDegrees>
            </Position>
            <AltitudeMeters>706.4000244140625</AltitudeMeters>
            <DistanceMeters>148.62758761341</DistanceMeters>
          </Trackpoint>
          <Trackpoint>
            <Time>2021-08-01T09:54:57.000Z</Time>
            <Position>
              <LatitudeDegrees>-15.46468435786664485931396484375</LatitudeDegrees>
              <LongitudeDegrees>36.99104650877416133880615234375</LongitudeDegrees>
            </Position>
            <AltitudeMeters>706.20001220703125</AltitudeMeters>
            <DistanceMeters>165.98655218319</DistanceMeters>
          </Trackpoint>
          <Trackpoint>
            <Time>2021-08-01T09:55:05.000Z</Time>
            <Position>
              <LatitudeDegrees>-15.46475996263325214385986328125</LatitudeDegrees>
              <LongitudeDegrees>36.99111741967499256134033203125</LongitudeDegrees>
            </Position>
            <AltitudeMeters>705.79998779296875</AltitudeMeters>
            <DistanceMeters>177.32981270431</DistanceMeters>
          </Trackpoint>
          <Trackpoint>
            <Time>2021-08-01T09:55:06.000Z</Time>
            <Position>
              <LatitudeDegrees>-15.4647709429264068603515625</LatitudeDegrees>
              <LongitudeDegrees>36.991125382483005523681640625</LongitudeDegrees>
            </Position>
            <AltitudeMeters>705.5999755859375</AltitudeMeters>
            <DistanceMeters>178.82024848126</DistanceMeters>
          </Trackpoint>
          <Trackpoint>
            <Time>2021-08-01T09:55:08.000Z</Time>
            <Position>
              <LatitudeDegrees>-15.4647905565798282623291015625</LatitudeDegrees>
              <LongitudeDegrees>36.99113703332841396331787109375</LongitudeDegrees>
            </Position>
            <AltitudeMeters>705.79998779296875</AltitudeMeters>
            <DistanceMeters>181.33621421776</DistanceMeters>
          </Trackpoint>
          <Trackpoint>
            <Time>2021-08-01T09:55:19.000Z</Time>
            <Position>
              <LatitudeDegrees>-15.46491385437548160552978515625</LatitudeDegrees>
              <LongitudeDegrees>36.9911979697644710540771484375</LongitudeDegrees>
            </Position>
            <AltitudeMeters>705.20001220703125</AltitudeMeters>
            <DistanceMeters>196.53722162268</DistanceMeters>
          </Trackpoint>
          <Trackpoint>
            <Time>2021-08-01T09:55:28.000Z</Time>
            <Position>
              <LatitudeDegrees>-15.4650071449577808380126953125</LatitudeDegrees>
              <LongitudeDegrees>36.99125303886830806732177734375</LongitudeDegrees>
            </Position>
            <AltitudeMeters>704.79998779296875</AltitudeMeters>
            <DistanceMeters>208.48340629061</DistanceMeters>
          </Trackpoint>
          <Trackpoint>
            <Time>2021-08-01T09:55:34.000Z</Time>
            <Position>
              <LatitudeDegrees>-15.46505198813974857330322265625</LatitudeDegrees>
              <LongitudeDegrees>36.9912851415574550628662109375</LongitudeDegrees>
            </Position>
            <AltitudeMeters>705.4000244140625</AltitudeMeters>
            <DistanceMeters>214.54727232473</DistanceMeters>
          </Trackpoint>
          <Trackpoint>
            <Time>2021-08-01T09:55:35.000Z</Time>
            <Position>
              <LatitudeDegrees>-15.4650493897497653961181640625</LatitudeDegrees>
              <LongitudeDegrees>36.99128740467131137847900390625</LongitudeDegrees>
            </Position>
            <AltitudeMeters>705.4000244140625</AltitudeMeters>
            <DistanceMeters>214.93907750533</DistanceMeters>
          </Trackpoint>
          <Trackpoint>
            <Time>2021-08-01T09:55:39.000Z</Time>
            <Position>
              <LatitudeDegrees>-15.4650510661303997039794921875</LatitudeDegrees>
              <LongitudeDegrees>36.99129494838416576385498046875</LongitudeDegrees>
            </Position>
            <AltitudeMeters>705.20001220703125</AltitudeMeters>
            <DistanceMeters>215.76750119508</DistanceMeters>
          </Trackpoint>
          <Trackpoint>
            <Time>2021-08-01T09:55:44.000Z</Time>
            <Position>
              <LatitudeDegrees>-15.46505819074809551239013671875</LatitudeDegrees>
              <LongitudeDegrees>36.99129142798483371734619140625</LongitudeDegrees>
            </Position>
            <AltitudeMeters>705</AltitudeMeters>
            <DistanceMeters>216.64360421285</DistanceMeters>
          </Trackpoint>
          <Trackpoint>
            <Time>2021-08-01T09:55:51.000Z</Time>
            <Position>
              <LatitudeDegrees>-15.46505819074809551239013671875</LatitudeDegrees>
              <LongitudeDegrees>36.99129142798483371734619140625</LongitudeDegrees>
            </Position>
            <AltitudeMeters>704.5999755859375</AltitudeMeters>
            <DistanceMeters>216.64360421285</DistanceMeters>
          </Trackpoint>
          <Trackpoint>
            <Time>2021-08-01T09:55:54.000Z</Time>
            <Position>
              <LatitudeDegrees>-15.465055592358112335205078125</LatitudeDegrees>
              <LongitudeDegrees>36.99129142798483371734619140625</LongitudeDegrees>
            </Position>
            <AltitudeMeters>704.5999755859375</AltitudeMeters>
            <DistanceMeters>216.92868435596</DistanceMeters>
          </Trackpoint>
          <Trackpoint>
            <Time>2021-08-01T09:56:01.000Z</Time>
            <Position>
              <LatitudeDegrees>-15.46505081467330455780029296875</LatitudeDegrees>
              <LongitudeDegrees>36.99129142798483371734619140625</LongitudeDegrees>
            </Position>
            <AltitudeMeters>704.79998779296875</AltitudeMeters>
            <DistanceMeters>217.45777070974</DistanceMeters>
          </Trackpoint>
          <Trackpoint>
            <Time>2021-08-01T09:56:39.000Z</Time>
            <Position>
              <LatitudeDegrees>-15.465022064745426177978515625</LatitudeDegrees>
              <LongitudeDegrees>36.9913213513791561126708984375</LongitudeDegrees>
            </Position>
            <AltitudeMeters>705.79998779296875</AltitudeMeters>
            <DistanceMeters>221.99025611071</DistanceMeters>
          </Trackpoint>
          <Trackpoint>
            <Time>2021-08-01T09:56:49.000Z</Time>
            <Position>
              <LatitudeDegrees>-15.4650245793163776397705078125</LatitudeDegrees>
              <LongitudeDegrees>36.99132026173174381256103515625</LongitudeDegrees>
            </Position>
            <AltitudeMeters>705.79998779296875</AltitudeMeters>
            <DistanceMeters>222.29075696668</DistanceMeters>
          </Trackpoint>
          <Trackpoint>
            <Time>2021-08-01T09:57:03.000Z</Time>
            <Position>
              <LatitudeDegrees>-15.46502684243023395538330078125</LatitudeDegrees>
              <LongitudeDegrees>36.99131674133241176605224609375</LongitudeDegrees>
            </Position>
            <AltitudeMeters>706</AltitudeMeters>
            <DistanceMeters>222.75629089096</DistanceMeters>
          </Trackpoint>
          <Trackpoint>
            <Time>2021-08-01T09:57:05.000Z</Time>
            <Position>
              <LatitudeDegrees>-15.46502768062055110931396484375</LatitudeDegrees>
              <LongitudeDegrees>36.99131573550403118133544921875</LongitudeDegrees>
            </Position>
            <AltitudeMeters>706</AltitudeMeters>
            <DistanceMeters>222.89067895921</DistanceMeters>
          </Trackpoint>
          <Trackpoint>
            <Time>2021-08-01T09:57:11.000Z</Time>
            <Position>
              <LatitudeDegrees>-15.46502835117280483245849609375</LatitudeDegrees>
              <LongitudeDegrees>36.991317160427570343017578125</LongitudeDegrees>
            </Position>
            <AltitudeMeters>706</AltitudeMeters>
            <DistanceMeters>223.08073238795</DistanceMeters>
          </Trackpoint>
          <Trackpoint>
            <Time>2021-08-01T09:57:17.000Z</Time>
            <Position>
              <LatitudeDegrees>-15.465029440820217132568359375</LatitudeDegrees>
              <LongitudeDegrees>36.99131757952272891998291015625</LongitudeDegrees>
            </Position>
            <AltitudeMeters>706</AltitudeMeters>
            <DistanceMeters>223.2151204562</DistanceMeters>
          </Trackpoint>
          <Trackpoint>
            <Time>2021-08-01T09:57:20.000Z</Time>
            <Position>
              <LatitudeDegrees>-15.465029776096343994140625</LatitudeDegrees>
              <LongitudeDegrees>36.9913223572075366973876953125</LongitudeDegrees>
            </Position>
            <AltitudeMeters>706.20001220703125</AltitudeMeters>
            <DistanceMeters>223.73560320646</DistanceMeters>
          </Trackpoint>
          <Trackpoint>
            <Time>2021-08-01T09:57:24.000Z</Time>
            <Position>
              <LatitudeDegrees>-15.46503120101988315582275390625</LatitudeDegrees>
              <LongitudeDegrees>36.99133132584393024444580078125</LongitudeDegrees>
            </Position>
            <AltitudeMeters>706</AltitudeMeters>
            <DistanceMeters>224.70933727006</DistanceMeters>
          </Trackpoint>
          <Trackpoint>
            <Time>2021-08-01T09:57:30.000Z</Time>
            <Position>
              <LatitudeDegrees>-15.46509406529366970062255859375</LatitudeDegrees>
              <LongitudeDegrees>36.99136904440820217132568359375</LongitudeDegrees>
            </Position>
            <AltitudeMeters>705.5999755859375</AltitudeMeters>
            <DistanceMeters>232.79219586539</DistanceMeters>
          </Trackpoint>
          <Trackpoint>
            <Time>2021-08-01T09:57:40.000Z</Time>
            <Position>
              <LatitudeDegrees>-15.4652076400816440582275390625</LatitudeDegrees>
              <LongitudeDegrees>36.99146099388599395751953125</LongitudeDegrees>
            </Position>
            <AltitudeMeters>705.20001220703125</AltitudeMeters>
            <DistanceMeters>248.82610606719</DistanceMeters>
          </Trackpoint>
          <Trackpoint>
            <Time>2021-08-01T09:57:48.000Z</Time>
            <Position>
              <LatitudeDegrees>-15.46528567560017108917236328125</LatitudeDegrees>
              <LongitudeDegrees>36.99154690839350223541259765625</LongitudeDegrees>
            </Position>
            <AltitudeMeters>704.79998779296875</AltitudeMeters>
            <DistanceMeters>261.489997951</DistanceMeters>
          </Trackpoint>
          <Trackpoint>
            <Time>2021-08-01T09:57:58.000Z</Time>
            <Position>
              <LatitudeDegrees>-15.465363375842571258544921875</LatitudeDegrees>
              <LongitudeDegrees>36.99163961224257946014404296875</LongitudeDegrees>
            </Position>
            <AltitudeMeters>704.79998779296875</AltitudeMeters>
            <DistanceMeters>274.66893911951</DistanceMeters>
          </Trackpoint>
          <Trackpoint>
            <Time>2021-08-01T09:58:01.000Z</Time>
            <Position>
              <LatitudeDegrees>-15.4653866775333881378173828125</LatitudeDegrees>
              <LongitudeDegrees>36.99166760779917240142822265625</LongitudeDegrees>
            </Position>
            <AltitudeMeters>704.5999755859375</AltitudeMeters>
            <DistanceMeters>278.63737121774</DistanceMeters>
          </Trackpoint>
          <Trackpoint>
            <Time>2021-08-01T09:58:04.000Z</Time>
            <Position>
              <LatitudeDegrees>-15.4654066264629364013671875</LatitudeDegrees>
              <LongitudeDegrees>36.9916914962232112884521484375</LongitudeDegrees>
            </Position>
            <AltitudeMeters>704.4000244140625</AltitudeMeters>
            <DistanceMeters>282.02784129033</DistanceMeters>
          </Trackpoint>
          <Trackpoint>
            <Time>2021-08-01T09:58:05.000Z</Time>
            <Position>
              <LatitudeDegrees>-15.4654114879667758941650390625</LatitudeDegrees>
              <LongitudeDegrees>36.9917070865631103515625</LongitudeDegrees>
            </Position>
            <AltitudeMeters>704.4000244140625</AltitudeMeters>
            <DistanceMeters>283.78262220754</DistanceMeters>
          </Trackpoint>
          <Trackpoint>
            <Time>2021-08-01T09:58:14.000Z</Time>
            <Position>
              <LatitudeDegrees>-15.46546270139515399932861328125</LatitudeDegrees>
              <LongitudeDegrees>36.99181160889565944671630859375</LongitudeDegrees>
            </Position>
            <AltitudeMeters>704.20001220703125</AltitudeMeters>
            <DistanceMeters>296.36065620726</DistanceMeters>
          </Trackpoint>
          <Trackpoint>
            <Time>2021-08-01T09:58:20.000Z</Time>
            <Position>
              <LatitudeDegrees>-15.46550653874874114990234375</LatitudeDegrees>
              <LongitudeDegrees>36.99187966994941234588623046875</LongitudeDegrees>
            </Position>
            <AltitudeMeters>704.79998779296875</AltitudeMeters>
            <DistanceMeters>305.14227637847</DistanceMeters>
          </Trackpoint>
          <Trackpoint>
            <Time>2021-08-01T09:58:22.000Z</Time>
            <Position>
              <LatitudeDegrees>-15.46552120707929134368896484375</LatitudeDegrees>
              <LongitudeDegrees>36.9919074140489101409912109375</LongitudeDegrees>
            </Position>
            <AltitudeMeters>704.79998779296875</AltitudeMeters>
            <DistanceMeters>308.53673915518</DistanceMeters>
          </Trackpoint>
          <Trackpoint>
            <Time>2021-08-01T09:58:24.000Z</Time>
            <Position>
              <LatitudeDegrees>-15.46553470194339752197265625</LatitudeDegrees>
              <LongitudeDegrees>36.99192878790199756622314453125</LongitudeDegrees>
            </Position>
            <AltitudeMeters>704.5999755859375</AltitudeMeters>
            <DistanceMeters>311.27772868478</DistanceMeters>
          </Trackpoint>
          <Trackpoint>
            <Time>2021-08-01T09:58:32.000Z</Time>
            <Position>
              <LatitudeDegrees>-15.46558641828596591949462890625</LatitudeDegrees>
              <LongitudeDegrees>36.99201076291501522064208984375</LongitudeDegrees>
            </Position>
            <AltitudeMeters>704</AltitudeMeters>
            <DistanceMeters>321.78709902681</DistanceMeters>
          </Trackpoint>
          <Trackpoint>
            <Time>2021-08-01T09:58:35.000Z</Time>
            <Position>
              <LatitudeDegrees>-15.465610809624195098876953125</LatitudeDegrees>
              <LongitudeDegrees>36.99203523807227611541748046875</LongitudeDegrees>
            </Position>
            <AltitudeMeters>704</AltitudeMeters>
            <DistanceMeters>325.56433621574</DistanceMeters>
          </Trackpoint>
          <Trackpoint>
            <Time>2021-08-01T09:58:42.000Z</Time>
            <Position>
              <LatitudeDegrees>-15.465641655027866363525390625</LatitudeDegrees>
              <LongitudeDegrees>36.99213464744389057159423828125</LongitudeDegrees>
            </Position>
            <AltitudeMeters>703.5999755859375</AltitudeMeters>
            <DistanceMeters>336.76661153559</DistanceMeters>
          </Trackpoint>
          <Trackpoint>
            <Time>2021-08-01T09:58:51.000Z</Time>
            <Position>
              <LatitudeDegrees>-15.4656954668462276458740234375</LatitudeDegrees>
              <LongitudeDegrees>36.99222466908395290374755859375</LongitudeDegrees>
            </Position>
            <AltitudeMeters>704</AltitudeMeters>
            <DistanceMeters>348.12975648196</DistanceMeters>
          </Trackpoint>
          <Trackpoint>
            <Time>2021-08-01T09:58:56.000Z</Time>
            <Position>
              <LatitudeDegrees>-15.4657320119440555572509765625</LatitudeDegrees>
              <LongitudeDegrees>36.99229759164154529571533203125</LongitudeDegrees>
            </Position>
            <AltitudeMeters>703.5999755859375</AltitudeMeters>
            <DistanceMeters>356.94575715988</DistanceMeters>
          </Trackpoint>
          <Trackpoint>
            <Time>2021-08-01T09:59:00.000Z</Time>
            <Position>
              <LatitudeDegrees>-15.4657501168549060821533203125</LatitudeDegrees>
              <LongitudeDegrees>36.99234302155673503875732421875</LongitudeDegrees>
            </Position>
            <AltitudeMeters>703.5999755859375</AltitudeMeters>
            <DistanceMeters>362.21866957817</DistanceMeters>
          </Trackpoint>
          <Trackpoint>
            <Time>2021-08-01T09:59:10.000Z</Time>
            <Position>
              <LatitudeDegrees>-15.4658064432442188262939453125</LatitudeDegrees>
              <LongitudeDegrees>36.99247763492166996002197265625</LongitudeDegrees>
            </Position>
            <AltitudeMeters>703.79998779296875</AltitudeMeters>
            <DistanceMeters>377.9604406912</DistanceMeters>
          </Trackpoint>
          <Trackpoint>
            <Time>2021-08-01T09:59:23.000Z</Time>
            <Position>
              <LatitudeDegrees>-15.46588380821049213409423828125</LatitudeDegrees>
              <LongitudeDegrees>36.9926580972969532012939453125</LongitudeDegrees>
            </Position>
            <AltitudeMeters>703.4000244140625</AltitudeMeters>
            <DistanceMeters>399.14734938571</DistanceMeters>
          </Trackpoint>
          <Trackpoint>
            <Time>2021-08-01T09:59:31.000Z</Time>
            <Position>
              <LatitudeDegrees>-15.46592940576374530792236328125</LatitudeDegrees>
              <LongitudeDegrees>36.9927553273737430572509765625</LongitudeDegrees>
            </Position>
            <AltitudeMeters>704</AltitudeMeters>
            <DistanceMeters>410.74605960978</DistanceMeters>
          </Trackpoint>
          <Trackpoint>
            <Time>2021-08-01T09:59:34.000Z</Time>
            <Position>
              <LatitudeDegrees>-15.46594834886491298675537109375</LatitudeDegrees>
              <LongitudeDegrees>36.9927938841283321380615234375</LongitudeDegrees>
            </Position>
            <AltitudeMeters>703.79998779296875</AltitudeMeters>
            <DistanceMeters>415.38780092046</DistanceMeters>
          </Trackpoint>
          <Trackpoint>
            <Time>2021-08-01T09:59:41.000Z</Time>
            <Position>
              <LatitudeDegrees>-15.4659824632108211517333984375</LatitudeDegrees>
              <LongitudeDegrees>36.99287996627390384674072265625</LongitudeDegrees>
            </Position>
            <AltitudeMeters>703.4000244140625</AltitudeMeters>
            <DistanceMeters>425.37193903373</DistanceMeters>
          </Trackpoint>
          <Trackpoint>
            <Time>2021-08-01T09:59:44.000Z</Time>
            <Position>
              <LatitudeDegrees>-15.4659965448081493377685546875</LatitudeDegrees>
              <LongitudeDegrees>36.9929216243326663970947265625</LongitudeDegrees>
            </Position>
            <AltitudeMeters>702.5999755859375</AltitudeMeters>
            <DistanceMeters>430.10804607293</DistanceMeters>
          </Trackpoint>
          <Trackpoint>
            <Time>2021-08-01T09:59:48.000Z</Time>
            <Position>
              <LatitudeDegrees>-15.46601875685155391693115234375</LatitudeDegrees>
              <LongitudeDegrees>36.99296847917139530181884765625</LongitudeDegrees>
            </Position>
            <AltitudeMeters>702.5999755859375</AltitudeMeters>
            <DistanceMeters>435.71059421813</DistanceMeters>
          </Trackpoint>
          <Trackpoint>
            <Time>2021-08-01T09:59:51.000Z</Time>
            <Position>
              <LatitudeDegrees>-15.46602814458310604095458984375</LatitudeDegrees>
              <LongitudeDegrees>36.99300594627857208251953125</LongitudeDegrees>
            </Position>
            <AltitudeMeters>703.20001220703125</AltitudeMeters>
            <DistanceMeters>439.86359867369</DistanceMeters>
          </Trackpoint>
          <Trackpoint>
            <Time>2021-08-01T09:59:53.000Z</Time>
            <Position>
              <LatitudeDegrees>-15.466036610305309295654296875</LatitudeDegrees>
              <LongitudeDegrees>36.99302799068391323089599609375</LongitudeDegrees>
            </Position>
            <AltitudeMeters>703.79998779296875</AltitudeMeters>
            <DistanceMeters>442.41166165627</DistanceMeters>
          </Trackpoint>
          <Trackpoint>
            <Time>2021-08-01T10:00:01.000Z</Time>
            <Position>
              <LatitudeDegrees>-15.46607608906924724578857421875</LatitudeDegrees>
              <LongitudeDegrees>36.99313226155936717987060546875</LongitudeDegrees>
            </Position>
            <AltitudeMeters>702.79998779296875</AltitudeMeters>
            <DistanceMeters>454.42906622499</DistanceMeters>
          </Trackpoint>
          <Trackpoint>
            <Time>2021-08-01T10:00:02.000Z</Time>
            <Position>
              <LatitudeDegrees>-15.4660790227353572845458984375</LatitudeDegrees>
              <LongitudeDegrees>36.9931434094905853271484375</LongitudeDegrees>
            </Position>
            <AltitudeMeters>702.5999755859375</AltitudeMeters>
            <DistanceMeters>455.6644135118</DistanceMeters>
          </Trackpoint>
          <Trackpoint>
            <Time>2021-08-01T10:00:06.000Z</Time>
            <Position>
              <LatitudeDegrees>-15.4660951159894466400146484375</LatitudeDegrees>
              <LongitudeDegrees>36.993188671767711639404296875</LongitudeDegrees>
            </Position>
            <AltitudeMeters>702.5999755859375</AltitudeMeters>
            <DistanceMeters>460.84053530415</DistanceMeters>
          </Trackpoint>
          <Trackpoint>
            <Time>2021-08-01T10:00:10.000Z</Time>
            <Position>
              <LatitudeDegrees>-15.46610391698777675628662109375</LatitudeDegrees>
              <LongitudeDegrees>36.99324466288089752197265625</LongitudeDegrees>
            </Position>
            <AltitudeMeters>702.79998779296875</AltitudeMeters>
            <DistanceMeters>466.92669777101</DistanceMeters>
          </Trackpoint>
          <Trackpoint>
            <Time>2021-08-01T10:00:11.000Z</Time>
            <Position>
              <LatitudeDegrees>-15.4661071859300136566162109375</LatitudeDegrees>
              <LongitudeDegrees>36.99325899593532085418701171875</LongitudeDegrees>
            </Position>
            <AltitudeMeters>702.79998779296875</AltitudeMeters>
            <DistanceMeters>468.50825749957</DistanceMeters>
          </Trackpoint>
          <Trackpoint>
            <Time>2021-08-01T10:00:15.000Z</Time>
            <Position>
              <LatitudeDegrees>-15.4661075212061405181884765625</LatitudeDegrees>
              <LongitudeDegrees>36.993308030068874359130859375</LongitudeDegrees>
            </Position>
            <AltitudeMeters>702.4000244140625</AltitudeMeters>
            <DistanceMeters>473.76745174848</DistanceMeters>
          </Trackpoint>
          <Trackpoint>
            <Time>2021-08-01T10:00:16.000Z</Time>
            <Position>
              <LatitudeDegrees>-15.4661008156836032867431640625</LatitudeDegrees>
              <LongitudeDegrees>36.99331196956336498260498046875</LongitudeDegrees>
            </Position>
            <AltitudeMeters>702.4000244140625</AltitudeMeters>
            <DistanceMeters>474.62795524551</DistanceMeters>
          </Trackpoint>
          <Trackpoint>
            <Time>2021-08-01T10:00:18.000Z</Time>
            <Position>
              <LatitudeDegrees>-15.4660877399146556854248046875</LatitudeDegrees>
              <LongitudeDegrees>36.99332110583782196044921875</LongitudeDegrees>
            </Position>
            <AltitudeMeters>702.4000244140625</AltitudeMeters>
            <DistanceMeters>476.38530727167</DistanceMeters>
          </Trackpoint>
          <Trackpoint>
            <Time>2021-08-01T10:00:25.000Z</Time>
            <Position>
              <LatitudeDegrees>-15.46603283844888210296630859375</LatitudeDegrees>
              <LongitudeDegrees>36.99334784410893917083740234375</LongitudeDegrees>
            </Position>
            <AltitudeMeters>702.79998779296875</AltitudeMeters>
            <DistanceMeters>483.13554917372</DistanceMeters>
          </Trackpoint>
          <Trackpoint>
            <Time>2021-08-01T10:00:34.000Z</Time>
            <Position>
              <LatitudeDegrees>-15.4659335128962993621826171875</LatitudeDegrees>
              <LongitudeDegrees>36.99342713691294193267822265625</LongitudeDegrees>
            </Position>
            <AltitudeMeters>703</AltitudeMeters>
            <DistanceMeters>497.08409845533</DistanceMeters>
          </Trackpoint>
          <Trackpoint>
            <Time>2021-08-01T10:00:42.000Z</Time>
            <Position>
              <LatitudeDegrees>-15.465887747704982757568359375</LatitudeDegrees>
              <LongitudeDegrees>36.993511877954006195068359375</LongitudeDegrees>
            </Position>
            <AltitudeMeters>702.79998779296875</AltitudeMeters>
            <DistanceMeters>507.50415791592</DistanceMeters>
          </Trackpoint>
          <Trackpoint>
            <Time>2021-08-01T10:00:44.000Z</Time>
            <Position>
              <LatitudeDegrees>-15.46586637385189533233642578125</LatitudeDegrees>
              <LongitudeDegrees>36.99352202005684375762939453125</LongitudeDegrees>
            </Position>
            <AltitudeMeters>702.79998779296875</AltitudeMeters>
            <DistanceMeters>510.12041439121</DistanceMeters>
          </Trackpoint>
          <Trackpoint>
            <Time>2021-08-01T10:00:47.000Z</Time>
            <Position>
              <LatitudeDegrees>-15.4658268950879573822021484375</LatitudeDegrees>
              <LongitudeDegrees>36.99352051131427288055419921875</LongitudeDegrees>
            </Position>
            <AltitudeMeters>702.5999755859375</AltitudeMeters>
            <DistanceMeters>514.51841663575</DistanceMeters>
          </Trackpoint>
          <Trackpoint>
            <Time>2021-08-01T10:00:49.000Z</Time>
            <Position>
              <LatitudeDegrees>-15.46580267138779163360595703125</LatitudeDegrees>
              <LongitudeDegrees>36.993520595133304595947265625</LongitudeDegrees>
            </Position>
            <AltitudeMeters>702</AltitudeMeters>
            <DistanceMeters>517.21456417203</DistanceMeters>
          </Trackpoint>
          <Trackpoint>
            <Time>2021-08-01T10:00:50.000Z</Time>
            <Position>
              <LatitudeDegrees>-15.465788505971431732177734375</LatitudeDegrees>
              <LongitudeDegrees>36.993527971208095550537109375</LongitudeDegrees>
            </Position>
            <AltitudeMeters>702</AltitudeMeters>
            <DistanceMeters>518.98216323562</DistanceMeters>
          </Trackpoint>
          <Trackpoint>
            <Time>2021-08-01T10:00:55.000Z</Time>
            <Position>
              <LatitudeDegrees>-15.465720109641551971435546875</LatitudeDegrees>
              <LongitudeDegrees>36.993560492992401123046875</LongitudeDegrees>
            </Position>
            <AltitudeMeters>701.5999755859375</AltitudeMeters>
            <DistanceMeters>527.35638401511</DistanceMeters>
          </Trackpoint>
          <Trackpoint>
            <Time>2021-08-01T10:01:01.000Z</Time>
            <Position>
              <LatitudeDegrees>-15.4656507074832916259765625</LatitudeDegrees>
              <LongitudeDegrees>36.99358890764415264129638671875</LongitudeDegrees>
            </Position>
            <AltitudeMeters>700.5999755859375</AltitudeMeters>
            <DistanceMeters>535.66076200522</DistanceMeters>
          </Trackpoint>
          <Trackpoint>
            <Time>2021-08-01T10:01:02.000Z</Time>
            <Position>
              <LatitudeDegrees>-15.46563972719013690948486328125</LatitudeDegrees>
              <LongitudeDegrees>36.993595026433467864990234375</LongitudeDegrees>
            </Position>
            <AltitudeMeters>700.5999755859375</AltitudeMeters>
            <DistanceMeters>537.04437185128</DistanceMeters>
          </Trackpoint>
          <Trackpoint>
            <Time>2021-08-01T10:01:11.000Z</Time>
            <Position>
              <LatitudeDegrees>-15.46554434113204479217529296875</LatitudeDegrees>
              <LongitudeDegrees>36.9936518557369709014892578125</LongitudeDegrees>
            </Position>
            <AltitudeMeters>700.20001220703125</AltitudeMeters>
            <DistanceMeters>549.28696997491</DistanceMeters>
          </Trackpoint>
          <Trackpoint>
            <Time>2021-08-01T10:01:22.000Z</Time>
            <Position>
              <LatitudeDegrees>-15.4654198698699474334716796875</LatitudeDegrees>
              <LongitudeDegrees>36.99372880160808563232421875</LongitudeDegrees>
            </Position>
            <AltitudeMeters>700</AltitudeMeters>
            <DistanceMeters>565.41325818732</DistanceMeters>
          </Trackpoint>
          <Trackpoint>
            <Time>2021-08-01T10:01:30.000Z</Time>
            <Position>
              <LatitudeDegrees>-15.46532213687896728515625</LatitudeDegrees>
              <LongitudeDegrees>36.99378755874931812286376953125</LongitudeDegrees>
            </Position>
            <AltitudeMeters>699.79998779296875</AltitudeMeters>
            <DistanceMeters>577.98518834933</DistanceMeters>
          </Trackpoint>
          <Trackpoint>
            <Time>2021-08-01T10:01:32.000Z</Time>
            <Position>
              <LatitudeDegrees>-15.46529741026461124420166015625</LatitudeDegrees>
              <LongitudeDegrees>36.99380767531692981719970703125</LongitudeDegrees>
            </Position>
            <AltitudeMeters>699.5999755859375</AltitudeMeters>
            <DistanceMeters>581.4818615547</DistanceMeters>
          </Trackpoint>
          <Trackpoint>
            <Time>2021-08-01T10:01:33.000Z</Time>
            <Position>
              <LatitudeDegrees>-15.46528584323823451995849609375</LatitudeDegrees>
              <LongitudeDegrees>36.99381622485816478729248046875</LongitudeDegrees>
            </Position>
            <AltitudeMeters>699.5999755859375</AltitudeMeters>
            <DistanceMeters>583.0605639011</DistanceMeters>
          </Trackpoint>
          <Trackpoint>
            <Time>2021-08-01T10:01:37.000Z</Time>
            <Position>
              <LatitudeDegrees>-15.46524024568498134613037109375</LatitudeDegrees>
              <LongitudeDegrees>36.9938439689576625823974609375</LongitudeDegrees>
            </Position>
            <AltitudeMeters>699.5999755859375</AltitudeMeters>
            <DistanceMeters>588.94378436354</DistanceMeters>
          </Trackpoint>
          <Trackpoint>
            <Time>2021-08-01T10:01:45.000Z</Time>
            <Position>
              <LatitudeDegrees>-15.46516715548932552337646484375</LatitudeDegrees>
              <LongitudeDegrees>36.99389937333762645721435546875</LongitudeDegrees>
            </Position>
            <AltitudeMeters>699.5999755859375</AltitudeMeters>
            <DistanceMeters>599.01930516313</DistanceMeters>
          </Trackpoint>
          <Trackpoint>
            <Time>2021-08-01T10:01:48.000Z</Time>
            <Position>
              <LatitudeDegrees>-15.46514636836946010589599609375</LatitudeDegrees>
              <LongitudeDegrees>36.99392728507518768310546875</LongitudeDegrees>
            </Position>
            <AltitudeMeters>699.79998779296875</AltitudeMeters>
            <DistanceMeters>602.80370752547</DistanceMeters>
          </Trackpoint>
          <Trackpoint>
            <Time>2021-08-01T10:01:50.000Z</Time>
            <Position>
              <LatitudeDegrees>-15.46513513661921024322509765625</LatitudeDegrees>
              <LongitudeDegrees>36.9939561188220977783203125</LongitudeDegrees>
            </Position>
            <AltitudeMeters>699.79998779296875</AltitudeMeters>
            <DistanceMeters>606.13913166326</DistanceMeters>
          </Trackpoint>
          <Trackpoint>
            <Time>2021-08-01T10:01:53.000Z</Time>
            <Position>
              <LatitudeDegrees>-15.4651291854679584503173828125</LatitudeDegrees>
              <LongitudeDegrees>36.993998028337955474853515625</LongitudeDegrees>
            </Position>
            <AltitudeMeters>699.79998779296875</AltitudeMeters>
            <DistanceMeters>610.68355515005</DistanceMeters>
          </Trackpoint>
          <Trackpoint>
            <Time>2021-08-01T10:01:57.000Z</Time>
            <Position>
              <LatitudeDegrees>-15.46514754183590412139892578125</LatitudeDegrees>
              <LongitudeDegrees>36.99404454790055751800537109375</LongitudeDegrees>
            </Position>
            <AltitudeMeters>700.5999755859375</AltitudeMeters>
            <DistanceMeters>616.07585022261</DistanceMeters>
          </Trackpoint>
          <Trackpoint>
            <Time>2021-08-01T10:02:01.000Z</Time>
            <Position>
              <LatitudeDegrees>-15.46517352573573589324951171875</LatitudeDegrees>
              <LongitudeDegrees>36.99408679269254207611083984375</LongitudeDegrees>
            </Position>
            <AltitudeMeters>700.79998779296875</AltitudeMeters>
            <DistanceMeters>621.4513729526</DistanceMeters>
          </Trackpoint>
          <Trackpoint>
            <Time>2021-08-01T10:02:04.000Z</Time>
            <Position>
              <LatitudeDegrees>-15.46519406139850616455078125</LatitudeDegrees>
              <LongitudeDegrees>36.99412115849554538726806640625</LongitudeDegrees>
            </Position>
            <AltitudeMeters>700.79998779296875</AltitudeMeters>
            <DistanceMeters>625.78838220239</DistanceMeters>
          </Trackpoint>
          <Trackpoint>
            <Time>2021-08-01T10:02:06.000Z</Time>
            <Position>
              <LatitudeDegrees>-15.4652083106338977813720703125</LatitudeDegrees>
              <LongitudeDegrees>36.9941426999866962432861328125</LongitudeDegrees>
            </Position>
            <AltitudeMeters>700.5999755859375</AltitudeMeters>
            <DistanceMeters>628.59126759182</DistanceMeters>
          </Trackpoint>
          <Trackpoint>
            <Time>2021-08-01T10:02:13.000Z</Time>
            <Position>
              <LatitudeDegrees>-15.4652559198439121246337890625</LatitudeDegrees>
              <LongitudeDegrees>36.99422693811357021331787109375</LongitudeDegrees>
            </Position>
            <AltitudeMeters>701.20001220703125</AltitudeMeters>
            <DistanceMeters>639.06664295249</DistanceMeters>
          </Trackpoint>
          <Trackpoint>
            <Time>2021-08-01T10:02:24.000Z</Time>
            <Position>
              <LatitudeDegrees>-15.46533848159015178680419921875</LatitudeDegrees>
              <LongitudeDegrees>36.99435551650822162628173828125</LongitudeDegrees>
            </Position>
            <AltitudeMeters>701</AltitudeMeters>
            <DistanceMeters>655.6400211619</DistanceMeters>
          </Trackpoint>
          <Trackpoint>
            <Time>2021-08-01T10:02:34.000Z</Time>
            <Position>
              <LatitudeDegrees>-15.4654077999293804168701171875</LatitudeDegrees>
              <LongitudeDegrees>36.99447177350521087646484375</LongitudeDegrees>
            </Position>
            <AltitudeMeters>700.79998779296875</AltitudeMeters>
            <DistanceMeters>670.30495554939</DistanceMeters>
          </Trackpoint>
          <Trackpoint>
            <Time>2021-08-01T10:02:42.000Z</Time>
            <Position>
              <LatitudeDegrees>-15.46546823345124721527099609375</LatitudeDegrees>
              <LongitudeDegrees>36.99456338770687580108642578125</LongitudeDegrees>
            </Position>
            <AltitudeMeters>700.20001220703125</AltitudeMeters>
            <DistanceMeters>682.21366457062</DistanceMeters>
          </Trackpoint>
          <Trackpoint>
            <Time>2021-08-01T10:02:43.000Z</Time>
            <Position>
              <LatitudeDegrees>-15.465475358068943023681640625</LatitudeDegrees>
              <LongitudeDegrees>36.99457210488617420196533203125</LongitudeDegrees>
            </Position>
            <AltitudeMeters>699.5999755859375</AltitudeMeters>
            <DistanceMeters>683.44168035478</DistanceMeters>
          </Trackpoint>
          <Trackpoint>
            <Time>2021-08-01T10:02:51.000Z</Time>
            <Position>
              <LatitudeDegrees>-15.4655300080776214599609375</LatitudeDegrees>
              <LongitudeDegrees>36.99465676210820674896240234375</LongitudeDegrees>
            </Position>
            <AltitudeMeters>699.5999755859375</AltitudeMeters>
            <DistanceMeters>694.37181811025</DistanceMeters>
          </Trackpoint>
          <Trackpoint>
            <Time>2021-08-01T10:02:53.000Z</Time>
            <Position>
              <LatitudeDegrees>-15.46554517932236194610595703125</LatitudeDegrees>
              <LongitudeDegrees>36.994675956666469573974609375</LongitudeDegrees>
            </Position>
            <AltitudeMeters>699.79998779296875</AltitudeMeters>
            <DistanceMeters>697.03256611261</DistanceMeters>
          </Trackpoint>
          <Trackpoint>
            <Time>2021-08-01T10:03:04.000Z</Time>
            <Position>
              <LatitudeDegrees>-15.4656183533370494842529296875</LatitudeDegrees>
              <LongitudeDegrees>36.994795314967632293701171875</LongitudeDegrees>
            </Position>
            <AltitudeMeters>700.20001220703125</AltitudeMeters>
            <DistanceMeters>712.20681796384</DistanceMeters>
          </Trackpoint>
          <Trackpoint>
            <Time>2021-08-01T10:03:06.000Z</Time>
            <Position>
              <LatitudeDegrees>-15.46563587151467800140380859375</LatitudeDegrees>
              <LongitudeDegrees>36.9948172755539417266845703125</LongitudeDegrees>
            </Position>
            <AltitudeMeters>700.20001220703125</AltitudeMeters>
            <DistanceMeters>715.26396191195</DistanceMeters>
          </Trackpoint>
          <Trackpoint>
            <Time>2021-08-01T10:03:15.000Z</Time>
            <Position>
              <LatitudeDegrees>-15.46570091508328914642333984375</LatitudeDegrees>
              <LongitudeDegrees>36.994910649955272674560546875</LongitudeDegrees>
            </Position>
            <AltitudeMeters>700.4000244140625</AltitudeMeters>
            <DistanceMeters>727.62255054387</DistanceMeters>
          </Trackpoint>
          <Trackpoint>
            <Time>2021-08-01T10:03:17.000Z</Time>
            <Position>
              <LatitudeDegrees>-15.4657162539660930633544921875</LatitudeDegrees>
              <LongitudeDegrees>36.99493688531219959259033203125</LongitudeDegrees>
            </Position>
            <AltitudeMeters>700</AltitudeMeters>
            <DistanceMeters>730.91437249118</DistanceMeters>
          </Trackpoint>
          <Trackpoint>
            <Time>2021-08-01T10:03:21.000Z</Time>
            <Position>
              <LatitudeDegrees>-15.4657450877130031585693359375</LatitudeDegrees>
              <LongitudeDegrees>36.99498348869383335113525390625</LongitudeDegrees>
            </Position>
            <AltitudeMeters>699.5999755859375</AltitudeMeters>
            <DistanceMeters>736.8556323592</DistanceMeters>
          </Trackpoint>
          <Trackpoint>
            <Time>2021-08-01T10:03:29.000Z</Time>
            <Position>
              <LatitudeDegrees>-15.4658030904829502105712890625</LatitudeDegrees>
              <LongitudeDegrees>36.99506864883005619049072265625</LongitudeDegrees>
            </Position>
            <AltitudeMeters>699.79998779296875</AltitudeMeters>
            <DistanceMeters>748.04177420007</DistanceMeters>
          </Trackpoint>
          <Trackpoint>
            <Time>2021-08-01T10:03:32.000Z</Time>
            <Position>
              <LatitudeDegrees>-15.46582999639213085174560546875</LatitudeDegrees>
              <LongitudeDegrees>36.99510217644274234771728515625</LongitudeDegrees>
            </Position>
            <AltitudeMeters>698.5999755859375</AltitudeMeters>
            <DistanceMeters>752.72226193673</DistanceMeters>
          </Trackpoint>
          <Trackpoint>
            <Time>2021-08-01T10:03:33.000Z</Time>
            <Position>
              <LatitudeDegrees>-15.46583645045757293701171875</LatitudeDegrees>
              <LongitudeDegrees>36.99511189945042133331298828125</LongitudeDegrees>
            </Position>
            <AltitudeMeters>698.5999755859375</AltitudeMeters>
            <DistanceMeters>753.99363272586</DistanceMeters>
          </Trackpoint>
          <Trackpoint>
            <Time>2021-08-01T10:03:39.000Z</Time>
            <Position>
              <LatitudeDegrees>-15.4658731631934642791748046875</LatitudeDegrees>
              <LongitudeDegrees>36.9951733388006687164306640625</LongitudeDegrees>
            </Position>
            <AltitudeMeters>699.20001220703125</AltitudeMeters>
            <DistanceMeters>761.74923323086</DistanceMeters>
          </Trackpoint>
          <Trackpoint>
            <Time>2021-08-01T10:03:43.000Z</Time>
            <Position>
              <LatitudeDegrees>-15.465908534824848175048828125</LatitudeDegrees>
              <LongitudeDegrees>36.995226480066776275634765625</LongitudeDegrees>
            </Position>
            <AltitudeMeters>697.79998779296875</AltitudeMeters>
            <DistanceMeters>768.6777169305</DistanceMeters>
          </Trackpoint>
          <Trackpoint>
            <Time>2021-08-01T10:03:44.000Z</Time>
            <Position>
              <LatitudeDegrees>-15.4659174196422100067138671875</LatitudeDegrees>
              <LongitudeDegrees>36.99523813091218471527099609375</LongitudeDegrees>
            </Position>
            <AltitudeMeters>697.4000244140625</AltitudeMeters>
            <DistanceMeters>770.27348682531</DistanceMeters>
          </Trackpoint>
          <Trackpoint>
            <Time>2021-08-01T10:03:53.000Z</Time>
            <Position>
              <LatitudeDegrees>-15.4659707285463809967041015625</LatitudeDegrees>
              <LongitudeDegrees>36.9953258894383907318115234375</LongitudeDegrees>
            </Position>
            <AltitudeMeters>697.5999755859375</AltitudeMeters>
            <DistanceMeters>781.40176020227</DistanceMeters>
          </Trackpoint>
          <Trackpoint>
            <Time>2021-08-01T10:03:56.000Z</Time>
            <Position>
              <LatitudeDegrees>-15.46599612571299076080322265625</LatitudeDegrees>
              <LongitudeDegrees>36.99535690248012542724609375</LongitudeDegrees>
            </Position>
            <AltitudeMeters>696.4000244140625</AltitudeMeters>
            <DistanceMeters>785.7667872694</DistanceMeters>
          </Trackpoint>
          <Trackpoint>
            <Time>2021-08-01T10:04:00.000Z</Time>
            <Position>
              <LatitudeDegrees>-15.46603091061115264892578125</LatitudeDegrees>
              <LongitudeDegrees>36.995408199727535247802734375</LongitudeDegrees>
            </Position>
            <AltitudeMeters>695.20001220703125</AltitudeMeters>
            <DistanceMeters>792.4949202358</DistanceMeters>
          </Trackpoint>
          <Trackpoint>
            <Time>2021-08-01T10:04:05.000Z</Time>
            <Position>
              <LatitudeDegrees>-15.466068796813488006591796875</LatitudeDegrees>
              <LongitudeDegrees>36.99546259827911853790283203125</LongitudeDegrees>
            </Position>
            <AltitudeMeters>694.5999755859375</AltitudeMeters>
            <DistanceMeters>799.69440902239</DistanceMeters>
          </Trackpoint>
          <Trackpoint>
            <Time>2021-08-01T10:04:10.000Z</Time>
            <Position>
              <LatitudeDegrees>-15.4660977981984615325927734375</LatitudeDegrees>
              <LongitudeDegrees>36.99550920166075229644775390625</LongitudeDegrees>
            </Position>
            <AltitudeMeters>693.5999755859375</AltitudeMeters>
            <DistanceMeters>805.64553999165</DistanceMeters>
          </Trackpoint>
          <Trackpoint>
            <Time>2021-08-01T10:04:12.000Z</Time>
            <Position>
              <LatitudeDegrees>-15.46611405909061431884765625</LatitudeDegrees>
              <LongitudeDegrees>36.9955305755138397216796875</LongitudeDegrees>
            </Position>
            <AltitudeMeters>693.4000244140625</AltitudeMeters>
            <DistanceMeters>808.56674218245</DistanceMeters>
          </Trackpoint>
          <Trackpoint>
            <Time>2021-08-01T10:04:18.000Z</Time>
            <Position>
              <LatitudeDegrees>-15.46616191975772380828857421875</LatitudeDegrees>
              <LongitudeDegrees>36.99561347253620624542236328125</LongitudeDegrees>
            </Position>
            <AltitudeMeters>692.4000244140625</AltitudeMeters>
            <DistanceMeters>818.93293288507</DistanceMeters>
          </Trackpoint>
          <Trackpoint>
            <Time>2021-08-01T10:04:21.000Z</Time>
            <Position>
              <LatitudeDegrees>-15.4661853052675724029541015625</LatitudeDegrees>
              <LongitudeDegrees>36.9956547953188419342041015625</LongitudeDegrees>
            </Position>
            <AltitudeMeters>691.20001220703125</AltitudeMeters>
            <DistanceMeters>824.07316670027</DistanceMeters>
          </Trackpoint>
          <Trackpoint>
            <Time>2021-08-01T10:04:24.000Z</Time>
            <Position>
              <LatitudeDegrees>-15.46620533801615238189697265625</LatitudeDegrees>
              <LongitudeDegrees>36.99568413197994232177734375</LongitudeDegrees>
            </Position>
            <AltitudeMeters>691</AltitudeMeters>
            <DistanceMeters>827.93082997999</DistanceMeters>
          </Trackpoint>
          <Trackpoint>
            <Time>2021-08-01T10:04:28.000Z</Time>
            <Position>
              <LatitudeDegrees>-15.46622193418443202972412109375</LatitudeDegrees>
              <LongitudeDegrees>36.99572528712451457977294921875</LongitudeDegrees>
            </Position>
            <AltitudeMeters>691</AltitudeMeters>
            <DistanceMeters>832.71719644509</DistanceMeters>
          </Trackpoint>
          <Trackpoint>
            <Time>2021-08-01T10:04:31.000Z</Time>
            <Position>
              <LatitudeDegrees>-15.46623853035271167755126953125</LatitudeDegrees>
              <LongitudeDegrees>36.99575789272785186767578125</LongitudeDegrees>
            </Position>
            <AltitudeMeters>690.5999755859375</AltitudeMeters>
            <DistanceMeters>836.67081027607</DistanceMeters>
          </Trackpoint>
          <Trackpoint>
            <Time>2021-08-01T10:04:32.000Z</Time>
            <Position>
              <LatitudeDegrees>-15.466246493160724639892578125</LatitudeDegrees>
              <LongitudeDegrees>36.99576987884938716888427734375</LongitudeDegrees>
            </Position>
            <AltitudeMeters>690.20001220703125</AltitudeMeters>
            <DistanceMeters>838.23225852685</DistanceMeters>
          </Trackpoint>
          <Trackpoint>
            <Time>2021-08-01T10:04:34.000Z</Time>
            <Position>
              <LatitudeDegrees>-15.46626250259578227996826171875</LatitudeDegrees>
              <LongitudeDegrees>36.99579200707376003265380859375</LongitudeDegrees>
            </Position>
            <AltitudeMeters>690</AltitudeMeters>
            <DistanceMeters>841.20098798729</DistanceMeters>
          </Trackpoint>
          <Trackpoint>
            <Time>2021-08-01T10:04:37.000Z</Time>
            <Position>
              <LatitudeDegrees>-15.4662771709263324737548828125</LatitudeDegrees>
              <LongitudeDegrees>36.9958170689642429351806640625</LongitudeDegrees>
            </Position>
            <AltitudeMeters>689.5999755859375</AltitudeMeters>
            <DistanceMeters>844.3483668744</DistanceMeters>
          </Trackpoint>
          <Trackpoint>
            <Time>2021-08-01T10:04:38.000Z</Time>
            <Position>
              <LatitudeDegrees>-15.46628060750663280487060546875</LatitudeDegrees>
              <LongitudeDegrees>36.99582494795322418212890625</LongitudeDegrees>
            </Position>
            <AltitudeMeters>689</AltitudeMeters>
            <DistanceMeters>845.27943472296</DistanceMeters>
          </Trackpoint>
          <Trackpoint>
            <Time>2021-08-01T10:04:41.000Z</Time>
            <Position>
              <LatitudeDegrees>-15.466278009116649627685546875</LatitudeDegrees>
              <LongitudeDegrees>36.995831988751888275146484375</LongitudeDegrees>
            </Position>
            <AltitudeMeters>689</AltitudeMeters>
            <DistanceMeters>846.09134332644</DistanceMeters>
          </Trackpoint>
          <Trackpoint>
            <Time>2021-08-01T10:04:45.000Z</Time>
            <Position>
              <LatitudeDegrees>-15.4662728123366832733154296875</LatitudeDegrees>
              <LongitudeDegrees>36.995840370655059814453125</LongitudeDegrees>
            </Position>
            <AltitudeMeters>689</AltitudeMeters>
            <DistanceMeters>847.15801554973</DistanceMeters>
          </Trackpoint>
          <Trackpoint>
            <Time>2021-08-01T10:04:48.000Z</Time>
            <Position>
              <LatitudeDegrees>-15.4662694595754146575927734375</LatitudeDegrees>
              <LongitudeDegrees>36.99584045447409152984619140625</LongitudeDegrees>
            </Position>
            <AltitudeMeters>688.79998779296875</AltitudeMeters>
            <DistanceMeters>847.52605243193</DistanceMeters>
          </Trackpoint>
          <Trackpoint>
            <Time>2021-08-01T10:04:56.000Z</Time>
            <Position>
              <LatitudeDegrees>-15.46626535244286060333251953125</LatitudeDegrees>
              <LongitudeDegrees>36.99583978392183780670166015625</LongitudeDegrees>
            </Position>
            <AltitudeMeters>688.79998779296875</AltitudeMeters>
            <DistanceMeters>847.99158635621</DistanceMeters>
          </Trackpoint>
          <Trackpoint>
            <Time>2021-08-01T10:05:04.000Z</Time>
            <Position>
              <LatitudeDegrees>-15.46626937575638294219970703125</LatitudeDegrees>
              <LongitudeDegrees>36.9958390295505523681640625</LongitudeDegrees>
            </Position>
            <AltitudeMeters>688.79998779296875</AltitudeMeters>
            <DistanceMeters>848.44731846855</DistanceMeters>
          </Trackpoint>
          <Trackpoint>
            <Time>2021-08-01T10:05:11.000Z</Time>
            <Position>
              <LatitudeDegrees>-15.46627038158476352691650390625</LatitudeDegrees>
              <LongitudeDegrees>36.9958371855318546295166015625</LongitudeDegrees>
            </Position>
            <AltitudeMeters>688.4000244140625</AltitudeMeters>
            <DistanceMeters>848.68008543068</DistanceMeters>
          </Trackpoint>
          <Trackpoint>
            <Time>2021-08-01T10:05:12.000Z</Time>
            <Position>
              <LatitudeDegrees>-15.4662731476128101348876953125</LatitudeDegrees>
              <LongitudeDegrees>36.99583970010280609130859375</LongitudeDegrees>
            </Position>
            <AltitudeMeters>688.4000244140625</AltitudeMeters>
            <DistanceMeters>849.09429727556</DistanceMeters>
          </Trackpoint>
          <Trackpoint>
            <Time>2021-08-01T10:05:14.000Z</Time>
            <Position>
              <LatitudeDegrees>-15.4662875644862651824951171875</LatitudeDegrees>
              <LongitudeDegrees>36.995862163603305816650390625</LongitudeDegrees>
            </Position>
            <AltitudeMeters>688.4000244140625</AltitudeMeters>
            <DistanceMeters>851.98910485811</DistanceMeters>
          </Trackpoint>
          <Trackpoint>
            <Time>2021-08-01T10:05:15.000Z</Time>
            <Position>
              <LatitudeDegrees>-15.46629267744719982147216796875</LatitudeDegrees>
              <LongitudeDegrees>36.99586710892617702484130859375</LongitudeDegrees>
            </Position>
            <AltitudeMeters>688.4000244140625</AltitudeMeters>
            <DistanceMeters>852.76693203798</DistanceMeters>
          </Trackpoint>
          <Trackpoint>
            <Time>2021-08-01T10:05:20.000Z</Time>
            <Position>
              <LatitudeDegrees>-15.466311872005462646484375</LatitudeDegrees>
              <LongitudeDegrees>36.9958844594657421112060546875</LongitudeDegrees>
            </Position>
            <AltitudeMeters>688.20001220703125</AltitudeMeters>
            <DistanceMeters>855.60025834441</DistanceMeters>
          </Trackpoint>
          <Trackpoint>
            <Time>2021-08-01T10:05:29.000Z</Time>
            <Position>
              <LatitudeDegrees>-15.46633643098175525665283203125</LatitudeDegrees>
              <LongitudeDegrees>36.99590298347175121307373046875</LongitudeDegrees>
            </Position>
            <AltitudeMeters>688.5999755859375</AltitudeMeters>
            <DistanceMeters>858.98139377175</DistanceMeters>
          </Trackpoint>
          <Trackpoint>
            <Time>2021-08-01T10:05:32.000Z</Time>
            <Position>
              <LatitudeDegrees>-15.466351769864559173583984375</LatitudeDegrees>
              <LongitudeDegrees>36.99593952856957912445068359375</LongitudeDegrees>
            </Position>
            <AltitudeMeters>688</AltitudeMeters>
            <DistanceMeters>863.2575959184</DistanceMeters>
          </Trackpoint>
          <Trackpoint>
            <Time>2021-08-01T10:05:41.000Z</Time>
            <Position>
              <LatitudeDegrees>-15.4664169810712337493896484375</LatitudeDegrees>
              <LongitudeDegrees>36.99603374116122722625732421875</LongitudeDegrees>
            </Position>
            <AltitudeMeters>687.5999755859375</AltitudeMeters>
            <DistanceMeters>875.70029098947</DistanceMeters>
          </Trackpoint>
          <Trackpoint>
            <Time>2021-08-01T10:05:45.000Z</Time>
            <Position>
              <LatitudeDegrees>-15.46644791029393672943115234375</LatitudeDegrees>
              <LongitudeDegrees>36.99607866816222667694091796875</LongitudeDegrees>
            </Position>
            <AltitudeMeters>687</AltitudeMeters>
            <DistanceMeters>881.62328406601</DistanceMeters>
          </Trackpoint>
          <Trackpoint>
            <Time>2021-08-01T10:05:48.000Z</Time>
            <Position>
              <LatitudeDegrees>-15.4664714634418487548828125</LatitudeDegrees>
              <LongitudeDegrees>36.996113955974578857421875</LongitudeDegrees>
            </Position>
            <AltitudeMeters>686.79998779296875</AltitudeMeters>
            <DistanceMeters>886.22889472768</DistanceMeters>
          </Trackpoint>
          <Trackpoint>
            <Time>2021-08-01T10:05:51.000Z</Time>
            <Position>
              <LatitudeDegrees>-15.466494262218475341796875</LatitudeDegrees>
              <LongitudeDegrees>36.9961463101208209991455078125</LongitudeDegrees>
            </Position>
            <AltitudeMeters>686.4000244140625</AltitudeMeters>
            <DistanceMeters>890.52931291167</DistanceMeters>
          </Trackpoint>
          <Trackpoint>
            <Time>2021-08-01T10:05:57.000Z</Time>
            <Position>
              <LatitudeDegrees>-15.466540865600109100341796875</LatitudeDegrees>
              <LongitudeDegrees>36.996212191879749298095703125</LongitudeDegrees>
            </Position>
            <AltitudeMeters>685.79998779296875</AltitudeMeters>
            <DistanceMeters>899.29652516477</DistanceMeters>
          </Trackpoint>
          <Trackpoint>
            <Time>2021-08-01T10:06:01.000Z</Time>
            <Position>
              <LatitudeDegrees>-15.4665641672909259796142578125</LatitudeDegrees>
              <LongitudeDegrees>36.996258795261383056640625</LongitudeDegrees>
            </Position>
            <AltitudeMeters>685.4000244140625</AltitudeMeters>
            <DistanceMeters>904.92881231544</DistanceMeters>
          </Trackpoint>
          <Trackpoint>
            <Time>2021-08-01T10:06:11.000Z</Time>
            <Position>
              <LatitudeDegrees>-15.46662711538374423980712890625</LatitudeDegrees>
              <LongitudeDegrees>36.99637672863900661468505859375</LongitudeDegrees>
            </Position>
            <AltitudeMeters>684.79998779296875</AltitudeMeters>
            <DistanceMeters>919.39005501328</DistanceMeters>
          </Trackpoint>
          <Trackpoint>
            <Time>2021-08-01T10:06:12.000Z</Time>
            <Position>
              <LatitudeDegrees>-15.46663231216371059417724609375</LatitudeDegrees>
              <LongitudeDegrees>36.99638661928474903106689453125</LongitudeDegrees>
            </Position>
            <AltitudeMeters>684.4000244140625</AltitudeMeters>
            <DistanceMeters>920.59580884698</DistanceMeters>
          </Trackpoint>
          <Trackpoint>
            <Time>2021-08-01T10:06:22.000Z</Time>
            <Position>
              <LatitudeDegrees>-15.4666724614799022674560546875</LatitudeDegrees>
              <LongitudeDegrees>36.99646105058491230010986328125</LongitudeDegrees>
            </Position>
            <AltitudeMeters>683.5999755859375</AltitudeMeters>
            <DistanceMeters>929.74555412823</DistanceMeters>
          </Trackpoint>
          <Trackpoint>
            <Time>2021-08-01T10:06:28.000Z</Time>
            <Position>
              <LatitudeDegrees>-15.4666793346405029296875</LatitudeDegrees>
              <LongitudeDegrees>36.99646792374551296234130859375</LongitudeDegrees>
            </Position>
            <AltitudeMeters>683.5999755859375</AltitudeMeters>
            <DistanceMeters>930.80798509328</DistanceMeters>
          </Trackpoint>
          <Trackpoint>
            <Time>2021-08-01T10:06:29.000Z</Time>
            <Position>
              <LatitudeDegrees>-15.46668997965753078460693359375</LatitudeDegrees>
              <LongitudeDegrees>36.99647529982030391693115234375</LongitudeDegrees>
            </Position>
            <AltitudeMeters>683.4000244140625</AltitudeMeters>
            <DistanceMeters>932.23654985427</DistanceMeters>
          </Trackpoint>
          <Trackpoint>
            <Time>2021-08-01T10:06:32.000Z</Time>
            <Position>
              <LatitudeDegrees>-15.46671210788190364837646484375</LatitudeDegrees>
              <LongitudeDegrees>36.99650513939559459686279296875</LongitudeDegrees>
            </Position>
            <AltitudeMeters>683</AltitudeMeters>
            <DistanceMeters>936.27602359898</DistanceMeters>
          </Trackpoint>
          <Trackpoint>
            <Time>2021-08-01T10:06:36.000Z</Time>
            <Position>
              <LatitudeDegrees>-15.46674043871462345123291015625</LatitudeDegrees>
              <LongitudeDegrees>36.9965489767491817474365234375</LongitudeDegrees>
            </Position>
            <AltitudeMeters>682.20001220703125</AltitudeMeters>
            <DistanceMeters>941.93789355299</DistanceMeters>
          </Trackpoint>
          <Trackpoint>
            <Time>2021-08-01T10:06:39.000Z</Time>
            <Position>
              <LatitudeDegrees>-15.466754436492919921875</LatitudeDegrees>
              <LongitudeDegrees>36.99658577330410480499267578125</LongitudeDegrees>
            </Position>
            <AltitudeMeters>682</AltitudeMeters>
            <DistanceMeters>946.18123803927</DistanceMeters>
          </Trackpoint>
          <Trackpoint>
            <Time>2021-08-01T10:06:40.000Z</Time>
            <Position>
              <LatitudeDegrees>-15.46676122583448886871337890625</LatitudeDegrees>
              <LongitudeDegrees>36.99659666977822780609130859375</LongitudeDegrees>
            </Position>
            <AltitudeMeters>681.4000244140625</AltitudeMeters>
            <DistanceMeters>947.57460318719</DistanceMeters>
          </Trackpoint>
          <Trackpoint>
            <Time>2021-08-01T10:06:45.000Z</Time>
            <Position>
              <LatitudeDegrees>-15.46679609455168247222900390625</LatitudeDegrees>
              <LongitudeDegrees>36.9966472126543521881103515625</LongitudeDegrees>
            </Position>
            <AltitudeMeters>681</AltitudeMeters>
            <DistanceMeters>954.24274358838</DistanceMeters>
          </Trackpoint>
          <Trackpoint>
            <Time>2021-08-01T10:06:49.000Z</Time>
            <Position>
              <LatitudeDegrees>-15.4668276943266391754150390625</LatitudeDegrees>
              <LongitudeDegrees>36.99669054709374904632568359375</LongitudeDegrees>
            </Position>
            <AltitudeMeters>680</AltitudeMeters>
            <DistanceMeters>960.07122088371</DistanceMeters>
          </Trackpoint>
          <Trackpoint>
            <Time>2021-08-01T10:06:53.000Z</Time>
            <Position>
              <LatitudeDegrees>-15.46685979701578617095947265625</LatitudeDegrees>
              <LongitudeDegrees>36.99672910384833812713623046875</LongitudeDegrees>
            </Position>
            <AltitudeMeters>679</AltitudeMeters>
            <DistanceMeters>965.53587666429</DistanceMeters>
          </Trackpoint>
          <Trackpoint>
            <Time>2021-08-01T10:06:54.000Z</Time>
            <Position>
              <LatitudeDegrees>-15.46686817891895771026611328125</LatitudeDegrees>
              <LongitudeDegrees>36.99673580937087535858154296875</LongitudeDegrees>
            </Position>
            <AltitudeMeters>679</AltitudeMeters>
            <DistanceMeters>966.71894971732</DistanceMeters>
          </Trackpoint>
          <Trackpoint>
            <Time>2021-08-01T10:07:01.000Z</Time>
            <Position>
              <LatitudeDegrees>-15.466924421489238739013671875</LatitudeDegrees>
              <LongitudeDegrees>36.99680328369140625</LongitudeDegrees>
            </Position>
            <AltitudeMeters>677.79998779296875</AltitudeMeters>
            <DistanceMeters>976.2893240763</DistanceMeters>
          </Trackpoint>
          <Trackpoint>
            <Time>2021-08-01T10:07:03.000Z</Time>
            <Position>
              <LatitudeDegrees>-15.46693188138306140899658203125</LatitudeDegrees>
              <LongitudeDegrees>36.99682566337287425994873046875</LongitudeDegrees>
            </Position>
            <AltitudeMeters>677.5999755859375</AltitudeMeters>
            <DistanceMeters>978.82851185608</DistanceMeters>
          </Trackpoint>
          <Trackpoint>
            <Time>2021-08-01T10:07:05.000Z</Time>
            <Position>
              <LatitudeDegrees>-15.4669328033924102783203125</LatitudeDegrees>
              <LongitudeDegrees>36.996844522655010223388671875</LongitudeDegrees>
            </Position>
            <AltitudeMeters>676.4000244140625</AltitudeMeters>
            <DistanceMeters>980.8555009488</DistanceMeters>
          </Trackpoint>
          <Trackpoint>
            <Time>2021-08-01T10:07:11.000Z</Time>
            <Position>
              <LatitudeDegrees>-15.46696909703314304351806640625</LatitudeDegrees>
              <LongitudeDegrees>36.996912918984889984130859375</LongitudeDegrees>
            </Position>
            <AltitudeMeters>675.79998779296875</AltitudeMeters>
            <DistanceMeters>989.23133904973</DistanceMeters>
          </Trackpoint>
          <Trackpoint>
            <Time>2021-08-01T10:07:13.000Z</Time>
            <Position>
              <LatitudeDegrees>-15.46698451973497867584228515625</LatitudeDegrees>
              <LongitudeDegrees>36.99693295173346996307373046875</LongitudeDegrees>
            </Position>
            <AltitudeMeters>675.20001220703125</AltitudeMeters>
            <DistanceMeters>991.98219420042</DistanceMeters>
          </Trackpoint>
          <Trackpoint>
            <Time>2021-08-01T10:07:18.000Z</Time>
            <Position>
              <LatitudeDegrees>-15.46702978201210498809814453125</LatitudeDegrees>
              <LongitudeDegrees>36.9969902001321315765380859375</LongitudeDegrees>
            </Position>
            <AltitudeMeters>675</AltitudeMeters>
            <DistanceMeters>999.92474505247</DistanceMeters>
          </Trackpoint>
          <Trackpoint>
            <Time>2021-08-01T10:07:20.000Z</Time>
            <Position>
              <LatitudeDegrees>-15.4670486412942409515380859375</LatitudeDegrees>
              <LongitudeDegrees>36.9970086403191089630126953125</LongitudeDegrees>
            </Position>
            <AltitudeMeters>674.4000244140625</AltitudeMeters>
            <DistanceMeters>1002.8086140517</DistanceMeters>
          </Trackpoint>
          <Trackpoint>
            <Time>2021-08-01T10:07:25.000Z</Time>
            <Position>
              <LatitudeDegrees>-15.46707789413630962371826171875</LatitudeDegrees>
              <LongitudeDegrees>36.99705180712044239044189453125</LongitudeDegrees>
            </Position>
            <AltitudeMeters>674.4000244140625</AltitudeMeters>
            <DistanceMeters>1008.4688888881</DistanceMeters>
          </Trackpoint>
          <Trackpoint>
            <Time>2021-08-01T10:07:27.000Z</Time>
            <Position>
              <LatitudeDegrees>-15.4670932330191135406494140625</LatitudeDegrees>
              <LongitudeDegrees>36.99706957675516605377197265625</LongitudeDegrees>
            </Position>
            <AltitudeMeters>674</AltitudeMeters>
            <DistanceMeters>1011.0275614779</DistanceMeters>
          </Trackpoint>
          <Trackpoint>
            <Time>2021-08-01T10:07:29.000Z</Time>
            <Position>
              <LatitudeDegrees>-15.467104129493236541748046875</LatitudeDegrees>
              <LongitudeDegrees>36.99707594700157642364501953125</LongitudeDegrees>
            </Position>
            <AltitudeMeters>673.5999755859375</AltitudeMeters>
            <DistanceMeters>1012.4209266258</DistanceMeters>
          </Trackpoint>
          <Trackpoint>
            <Time>2021-08-01T10:07:33.000Z</Time>
            <Position>
              <LatitudeDegrees>-15.46711645089089870452880859375</LatitudeDegrees>
              <LongitudeDegrees>36.99708851985633373260498046875</LongitudeDegrees>
            </Position>
            <AltitudeMeters>673.4000244140625</AltitudeMeters>
            <DistanceMeters>1014.3450709401</DistanceMeters>
          </Trackpoint>
          <Trackpoint>
            <Time>2021-08-01T10:07:34.000Z</Time>
            <Position>
              <LatitudeDegrees>-15.46711695380508899688720703125</LatitudeDegrees>
              <LongitudeDegrees>36.997090280055999755859375</LongitudeDegrees>
            </Position>
            <AltitudeMeters>673.4000244140625</AltitudeMeters>
            <DistanceMeters>1014.5575571331</DistanceMeters>
          </Trackpoint>
          <Trackpoint>
            <Time>2021-08-01T10:07:36.000Z</Time>
            <Position>
              <LatitudeDegrees>-15.4671156965196132659912109375</LatitudeDegrees>
              <LongitudeDegrees>36.9970916211605072021484375</LongitudeDegrees>
            </Position>
            <AltitudeMeters>673.4000244140625</AltitudeMeters>
            <DistanceMeters>1014.7476105618</DistanceMeters>
          </Trackpoint>
          <Trackpoint>
            <Time>2021-08-01T10:07:37.000Z</Time>
            <Position>
              <LatitudeDegrees>-15.46711527742445468902587890625</LatitudeDegrees>
              <LongitudeDegrees>36.99709438718855381011962890625</LongitudeDegrees>
            </Position>
            <AltitudeMeters>673.4000244140625</AltitudeMeters>
            <DistanceMeters>1015.0326907049</DistanceMeters>
          </Trackpoint>
          <Trackpoint>
            <Time>2021-08-01T10:07:39.000Z</Time>
            <Position>
              <LatitudeDegrees>-15.46711854636669158935546875</LatitudeDegrees>
              <LongitudeDegrees>36.99710209853947162628173828125</LongitudeDegrees>
            </Position>
            <AltitudeMeters>673.20001220703125</AltitudeMeters>
            <DistanceMeters>1015.9341932728</DistanceMeters>
          </Trackpoint>
          <Trackpoint>
            <Time>2021-08-01T10:07:41.000Z</Time>
            <Position>
              <LatitudeDegrees>-15.46713086776435375213623046875</LatitudeDegrees>
              <LongitudeDegrees>36.99711433611810207366943359375</LongitudeDegrees>
            </Position>
            <AltitudeMeters>673</AltitudeMeters>
            <DistanceMeters>1017.8299702705</DistanceMeters>
          </Trackpoint>
          <Trackpoint>
            <Time>2021-08-01T10:07:42.000Z</Time>
            <Position>
              <LatitudeDegrees>-15.4671388305723667144775390625</LatitudeDegrees>
              <LongitudeDegrees>36.99712439440190792083740234375</LongitudeDegrees>
            </Position>
            <AltitudeMeters>672.79998779296875</AltitudeMeters>
            <DistanceMeters>1019.2233354184</DistanceMeters>
          </Trackpoint>
          <Trackpoint>
            <Time>2021-08-01T10:07:43.000Z</Time>
            <Position>
              <LatitudeDegrees>-15.4671425186097621917724609375</LatitudeDegrees>
              <LongitudeDegrees>36.9971343688666820526123046875</LongitudeDegrees>
            </Position>
            <AltitudeMeters>672.79998779296875</AltitudeMeters>
            <DistanceMeters>1020.3636559908</DistanceMeters>
          </Trackpoint>
          <Trackpoint>
            <Time>2021-08-01T10:07:51.000Z</Time>
            <Position>
              <LatitudeDegrees>-15.467180572450160980224609375</LatitudeDegrees>
              <LongitudeDegrees>36.997218690812587738037109375</LongitudeDegrees>
            </Position>
            <AltitudeMeters>672.5999755859375</AltitudeMeters>
            <DistanceMeters>1030.3509591503</DistanceMeters>
          </Trackpoint>
          <Trackpoint>
            <Time>2021-08-01T10:08:00.000Z</Time>
            <Position>
              <LatitudeDegrees>-15.46723782084882259368896484375</LatitudeDegrees>
              <LongitudeDegrees>36.99731214903295040130615234375</LongitudeDegrees>
            </Position>
            <AltitudeMeters>673</AltitudeMeters>
            <DistanceMeters>1042.2304387124</DistanceMeters>
          </Trackpoint>
          <Trackpoint>
            <Time>2021-08-01T10:08:07.000Z</Time>
            <Position>
              <LatitudeDegrees>-15.467280484735965728759765625</LatitudeDegrees>
              <LongitudeDegrees>36.99737987481057643890380859375</LongitudeDegrees>
            </Position>
            <AltitudeMeters>673.4000244140625</AltitudeMeters>
            <DistanceMeters>1050.9091406672</DistanceMeters>
          </Trackpoint>
          <Trackpoint>
            <Time>2021-08-01T10:08:12.000Z</Time>
            <Position>
              <LatitudeDegrees>-15.46730889938771724700927734375</LatitudeDegrees>
              <LongitudeDegrees>36.99742916040122509002685546875</LongitudeDegrees>
            </Position>
            <AltitudeMeters>674</AltitudeMeters>
            <DistanceMeters>1057.0697746681</DistanceMeters>
          </Trackpoint>
          <Trackpoint>
            <Time>2021-08-01T10:08:16.000Z</Time>
            <Position>
              <LatitudeDegrees>-15.46733018942177295684814453125</LatitudeDegrees>
              <LongitudeDegrees>36.9974709860980510711669921875</LongitudeDegrees>
            </Position>
            <AltitudeMeters>674.4000244140625</AltitudeMeters>
            <DistanceMeters>1062.1428129949</DistanceMeters>
          </Trackpoint>
          <Trackpoint>
            <Time>2021-08-01T10:08:22.000Z</Time>
            <Position>
              <LatitudeDegrees>-15.4673591069877147674560546875</LatitudeDegrees>
              <LongitudeDegrees>36.99752387590706348419189453125</LongitudeDegrees>
            </Position>
            <AltitudeMeters>675.4000244140625</AltitudeMeters>
            <DistanceMeters>1068.6651354438</DistanceMeters>
          </Trackpoint>
          <Trackpoint>
            <Time>2021-08-01T10:08:25.000Z</Time>
            <Position>
              <LatitudeDegrees>-15.46737411059439182281494140625</LatitudeDegrees>
              <LongitudeDegrees>36.997551284730434417724609375</LongitudeDegrees>
            </Position>
            <AltitudeMeters>675.5999755859375</AltitudeMeters>
            <DistanceMeters>1072.0476059691</DistanceMeters>
          </Trackpoint>
          <Trackpoint>
            <Time>2021-08-01T10:08:27.000Z</Time>
            <Position>
              <LatitudeDegrees>-15.46738400124013423919677734375</LatitudeDegrees>
              <LongitudeDegrees>36.99756829999387264251708984375</LongitudeDegrees>
            </Position>
            <AltitudeMeters>675.79998779296875</AltitudeMeters>
            <DistanceMeters>1074.1788329517</DistanceMeters>
          </Trackpoint>
          <Trackpoint>
            <Time>2021-08-01T10:08:30.000Z</Time>
            <Position>
              <LatitudeDegrees>-15.467399843037128448486328125</LatitudeDegrees>
              <LongitudeDegrees>36.99759118258953094482421875</LongitudeDegrees>
            </Position>
            <AltitudeMeters>676.5999755859375</AltitudeMeters>
            <DistanceMeters>1077.2018177948</DistanceMeters>
          </Trackpoint>
          <Trackpoint>
            <Time>2021-08-01T10:08:32.000Z</Time>
            <Position>
              <LatitudeDegrees>-15.46741283498704433441162109375</LatitudeDegrees>
              <LongitudeDegrees>36.99761071242392063140869140625</LongitudeDegrees>
            </Position>
            <AltitudeMeters>677</AltitudeMeters>
            <DistanceMeters>1079.7481082116</DistanceMeters>
          </Trackpoint>
          <Trackpoint>
            <Time>2021-08-01T10:08:35.000Z</Time>
            <Position>
              <LatitudeDegrees>-15.46742892824113368988037109375</LatitudeDegrees>
              <LongitudeDegrees>36.9976396299898624420166015625</LongitudeDegrees>
            </Position>
            <AltitudeMeters>677.4000244140625</AltitudeMeters>
            <DistanceMeters>1083.32772809</DistanceMeters>
          </Trackpoint>
          <Trackpoint>
            <Time>2021-08-01T10:08:37.000Z</Time>
            <Position>
              <LatitudeDegrees>-15.46743932180106639862060546875</LatitudeDegrees>
              <LongitudeDegrees>36.99765379540622234344482421875</LongitudeDegrees>
            </Position>
            <AltitudeMeters>677.5999755859375</AltitudeMeters>
            <DistanceMeters>1085.2353760677</DistanceMeters>
          </Trackpoint>
          <Trackpoint>
            <Time>2021-08-01T10:08:39.000Z</Time>
            <Position>
              <LatitudeDegrees>-15.4674506373703479766845703125</LatitudeDegrees>
              <LongitudeDegrees>36.9976709783077239990234375</LongitudeDegrees>
            </Position>
            <AltitudeMeters>677.5999755859375</AltitudeMeters>
            <DistanceMeters>1087.467998337</DistanceMeters>
          </Trackpoint>
          <Trackpoint>
            <Time>2021-08-01T10:08:42.000Z</Time>
            <Position>
              <LatitudeDegrees>-15.46746564097702503204345703125</LatitudeDegrees>
              <LongitudeDegrees>36.99769469909369945526123046875</LongitudeDegrees>
            </Position>
            <AltitudeMeters>678</AltitudeMeters>
            <DistanceMeters>1090.5103376269</DistanceMeters>
          </Trackpoint>
          <Trackpoint>
            <Time>2021-08-01T10:08:44.000Z</Time>
            <Position>
              <LatitudeDegrees>-15.46747368760406970977783203125</LatitudeDegrees>
              <LongitudeDegrees>36.99771146290004253387451171875</LongitudeDegrees>
            </Position>
            <AltitudeMeters>678.79998779296875</AltitudeMeters>
            <DistanceMeters>1092.5194280107</DistanceMeters>
          </Trackpoint>
          <Trackpoint>
            <Time>2021-08-01T10:08:48.000Z</Time>
            <Position>
              <LatitudeDegrees>-15.46749900095164775848388671875</LatitudeDegrees>
              <LongitudeDegrees>36.99774499051272869110107421875</LongitudeDegrees>
            </Position>
            <AltitudeMeters>679.4000244140625</AltitudeMeters>
            <DistanceMeters>1097.0866456085</DistanceMeters>
          </Trackpoint>
          <Trackpoint>
            <Time>2021-08-01T10:08:52.000Z</Time>
            <Position>
              <LatitudeDegrees>-15.4675210453569889068603515625</LatitudeDegrees>
              <LongitudeDegrees>36.9977801106870174407958984375</LongitudeDegrees>
            </Position>
            <AltitudeMeters>680</AltitudeMeters>
            <DistanceMeters>1101.5831265835</DistanceMeters>
          </Trackpoint>
          <Trackpoint>
            <Time>2021-08-01T10:08:57.000Z</Time>
            <Position>
              <LatitudeDegrees>-15.46755214221775531768798828125</LatitudeDegrees>
              <LongitudeDegrees>36.997835598886013031005859375</LongitudeDegrees>
            </Position>
            <AltitudeMeters>680</AltitudeMeters>
            <DistanceMeters>1108.4691218933</DistanceMeters>
          </Trackpoint>
          <Trackpoint>
            <Time>2021-08-01T10:09:00.000Z</Time>
            <Position>
              <LatitudeDegrees>-15.4675505496561527252197265625</LatitudeDegrees>
              <LongitudeDegrees>36.997836269438266754150390625</LongitudeDegrees>
            </Position>
            <AltitudeMeters>680.20001220703125</AltitudeMeters>
            <DistanceMeters>1108.659175322</DistanceMeters>
          </Trackpoint>
          <Trackpoint>
            <Time>2021-08-01T10:09:02.000Z</Time>
            <Position>
              <LatitudeDegrees>-15.4675324447453022003173828125</LatitudeDegrees>
              <LongitudeDegrees>36.99782855808734893798828125</LongitudeDegrees>
            </Position>
            <AltitudeMeters>680.4000244140625</AltitudeMeters>
            <DistanceMeters>1110.8385835467</DistanceMeters>
          </Trackpoint>
          <Trackpoint>
            <Time>2021-08-01T10:09:05.000Z</Time>
            <Position>
              <LatitudeDegrees>-15.46751710586249828338623046875</LatitudeDegrees>
              <LongitudeDegrees>36.9978407956659793853759765625</LongitudeDegrees>
            </Position>
            <AltitudeMeters>680.79998779296875</AltitudeMeters>
            <DistanceMeters>1112.9929881726</DistanceMeters>
          </Trackpoint>
          <Trackpoint>
            <Time>2021-08-01T10:09:11.000Z</Time>
            <Position>
              <LatitudeDegrees>-15.46751459129154682159423828125</LatitudeDegrees>
              <LongitudeDegrees>36.99788178317248821258544921875</LongitudeDegrees>
            </Position>
            <AltitudeMeters>681.4000244140625</AltitudeMeters>
            <DistanceMeters>1117.3991956523</DistanceMeters>
          </Trackpoint>
          <Trackpoint>
            <Time>2021-08-01T10:09:14.000Z</Time>
            <Position>
              <LatitudeDegrees>-15.4675032757222652435302734375</LatitudeDegrees>
              <LongitudeDegrees>36.9978971220552921295166015625</LongitudeDegrees>
            </Position>
            <AltitudeMeters>681.4000244140625</AltitudeMeters>
            <DistanceMeters>1119.4702548767</DistanceMeters>
          </Trackpoint>
          <Trackpoint>
            <Time>2021-08-01T10:09:21.000Z</Time>
            <Position>
              <LatitudeDegrees>-15.467456169426441192626953125</LatitudeDegrees>
              <LongitudeDegrees>36.99796258471906185150146484375</LongitudeDegrees>
            </Position>
            <AltitudeMeters>682.20001220703125</AltitudeMeters>
            <DistanceMeters>1128.2343766372</DistanceMeters>
          </Trackpoint>
          <Trackpoint>
            <Time>2021-08-01T10:09:23.000Z</Time>
            <Position>
              <LatitudeDegrees>-15.46744979918003082275390625</LatitudeDegrees>
              <LongitudeDegrees>36.99798219837248325347900390625</LongitudeDegrees>
            </Position>
            <AltitudeMeters>682.4000244140625</AltitudeMeters>
            <DistanceMeters>1130.454831937</DistanceMeters>
          </Trackpoint>
          <Trackpoint>
            <Time>2021-08-01T10:09:24.000Z</Time>
            <Position>
              <LatitudeDegrees>-15.46744435094296932220458984375</LatitudeDegrees>
              <LongitudeDegrees>36.99799309484660625457763671875</LongitudeDegrees>
            </Position>
            <AltitudeMeters>682.5999755859375</AltitudeMeters>
            <DistanceMeters>1131.7715607159</DistanceMeters>
          </Trackpoint>
          <Trackpoint>
            <Time>2021-08-01T10:09:31.000Z</Time>
            <Position>
              <LatitudeDegrees>-15.46740042977035045623779296875</LatitudeDegrees>
              <LongitudeDegrees>36.99805847369134426116943359375</LongitudeDegrees>
            </Position>
            <AltitudeMeters>682.79998779296875</AltitudeMeters>
            <DistanceMeters>1140.3197405563</DistanceMeters>
          </Trackpoint>
          <Trackpoint>
            <Time>2021-08-01T10:09:32.000Z</Time>
            <Position>
              <LatitudeDegrees>-15.46739975921809673309326171875</LatitudeDegrees>
              <LongitudeDegrees>36.99807037599384784698486328125</LongitudeDegrees>
            </Position>
            <AltitudeMeters>683</AltitudeMeters>
            <DistanceMeters>1141.5981942459</DistanceMeters>
          </Trackpoint>
          <Trackpoint>
            <Time>2021-08-01T10:09:35.000Z</Time>
            <Position>
              <LatitudeDegrees>-15.46740227378904819488525390625</LatitudeDegrees>
              <LongitudeDegrees>36.99810172431170940399169921875</LongitudeDegrees>
            </Position>
            <AltitudeMeters>683.20001220703125</AltitudeMeters>
            <DistanceMeters>1144.97264626</DistanceMeters>
          </Trackpoint>
          <Trackpoint>
            <Time>2021-08-01T10:09:37.000Z</Time>
            <Position>
              <LatitudeDegrees>-15.46739858575165271759033203125</LatitudeDegrees>
              <LongitudeDegrees>36.9981215894222259521484375</LongitudeDegrees>
            </Position>
            <AltitudeMeters>683.4000244140625</AltitudeMeters>
            <DistanceMeters>1147.1437519469</DistanceMeters>
          </Trackpoint>
          <Trackpoint>
            <Time>2021-08-01T10:09:38.000Z</Time>
            <Position>
              <LatitudeDegrees>-15.46739657409489154815673828125</LatitudeDegrees>
              <LongitudeDegrees>36.9981314800679683685302734375</LongitudeDegrees>
            </Position>
            <AltitudeMeters>683.4000244140625</AltitudeMeters>
            <DistanceMeters>1148.2230479496</DistanceMeters>
          </Trackpoint>
          <Trackpoint>
            <Time>2021-08-01T10:09:44.000Z</Time>
            <Position>
              <LatitudeDegrees>-15.46741065569221973419189453125</LatitudeDegrees>
              <LongitudeDegrees>36.9981918297708034515380859375</LongitudeDegrees>
            </Position>
            <AltitudeMeters>683.4000244140625</AltitudeMeters>
            <DistanceMeters>1154.8837360198</DistanceMeters>
          </Trackpoint>
          <Trackpoint>
            <Time>2021-08-01T10:09:47.000Z</Time>
            <Position>
              <LatitudeDegrees>-15.467411912977695465087890625</LatitudeDegrees>
              <LongitudeDegrees>36.99821739457547664642333984375</LongitudeDegrees>
            </Position>
            <AltitudeMeters>683.20001220703125</AltitudeMeters>
            <DistanceMeters>1157.6296627906</DistanceMeters>
          </Trackpoint>
          <Trackpoint>
            <Time>2021-08-01T10:09:50.000Z</Time>
            <Position>
              <LatitudeDegrees>-15.467407219111919403076171875</LatitudeDegrees>
              <LongitudeDegrees>36.9982498325407505035400390625</LongitudeDegrees>
            </Position>
            <AltitudeMeters>683.4000244140625</AltitudeMeters>
            <DistanceMeters>1161.1495015485</DistanceMeters>
          </Trackpoint>
          <Trackpoint>
            <Time>2021-08-01T10:09:53.000Z</Time>
            <Position>
              <LatitudeDegrees>-15.4674060456454753875732421875</LatitudeDegrees>
              <LongitudeDegrees>36.9982826896011829376220703125</LongitudeDegrees>
            </Position>
            <AltitudeMeters>683.5999755859375</AltitudeMeters>
            <DistanceMeters>1164.6770283506</DistanceMeters>
          </Trackpoint>
          <Trackpoint>
            <Time>2021-08-01T10:10:00.000Z</Time>
            <Position>
              <LatitudeDegrees>-15.4674164392054080963134765625</LatitudeDegrees>
              <LongitudeDegrees>36.9983618147671222686767578125</LongitudeDegrees>
            </Position>
            <AltitudeMeters>684.4000244140625</AltitudeMeters>
            <DistanceMeters>1173.2431477277</DistanceMeters>
          </Trackpoint>
          <Trackpoint>
            <Time>2021-08-01T10:10:04.000Z</Time>
            <Position>
              <LatitudeDegrees>-15.46742490492761135101318359375</LatitudeDegrees>
              <LongitudeDegrees>36.99840120971202850341796875</LongitudeDegrees>
            </Position>
            <AltitudeMeters>684.20001220703125</AltitudeMeters>
            <DistanceMeters>1177.5739061803</DistanceMeters>
          </Trackpoint>
          <Trackpoint>
            <Time>2021-08-01T10:10:06.000Z</Time>
            <Position>
              <LatitudeDegrees>-15.46741962432861328125</LatitudeDegrees>
              <LongitudeDegrees>36.99843029491603374481201171875</LongitudeDegrees>
            </Position>
            <AltitudeMeters>684.5999755859375</AltitudeMeters>
            <DistanceMeters>1180.748424303</DistanceMeters>
          </Trackpoint>
          <Trackpoint>
            <Time>2021-08-01T10:10:07.000Z</Time>
            <Position>
              <LatitudeDegrees>-15.4674191214144229888916015625</LatitudeDegrees>
              <LongitudeDegrees>36.99844370596110820770263671875</LongitudeDegrees>
            </Position>
            <AltitudeMeters>684.5999755859375</AltitudeMeters>
            <DistanceMeters>1182.1895757808</DistanceMeters>
          </Trackpoint>
          <Trackpoint>
            <Time>2021-08-01T10:10:15.000Z</Time>
            <Position>
              <LatitudeDegrees>-15.4673943109810352325439453125</LatitudeDegrees>
              <LongitudeDegrees>36.99854764156043529510498046875</LongitudeDegrees>
            </Position>
            <AltitudeMeters>684.4000244140625</AltitudeMeters>
            <DistanceMeters>1193.6760220077</DistanceMeters>
          </Trackpoint>
          <Trackpoint>
            <Time>2021-08-01T10:10:17.000Z</Time>
            <Position>
              <LatitudeDegrees>-15.4673874378204345703125</LatitudeDegrees>
              <LongitudeDegrees>36.99857060797512531280517578125</LongitudeDegrees>
            </Position>
            <AltitudeMeters>684.4000244140625</AltitudeMeters>
            <DistanceMeters>1196.2575324988</DistanceMeters>
          </Trackpoint>
          <Trackpoint>
            <Time>2021-08-01T10:10:19.000Z</Time>
            <Position>
              <LatitudeDegrees>-15.46737880446016788482666015625</LatitudeDegrees>
              <LongitudeDegrees>36.99859675951302051544189453125</LongitudeDegrees>
            </Position>
            <AltitudeMeters>684.4000244140625</AltitudeMeters>
            <DistanceMeters>1199.2232186684</DistanceMeters>
          </Trackpoint>
          <Trackpoint>
            <Time>2021-08-01T10:10:28.000Z</Time>
            <Position>
              <LatitudeDegrees>-15.46732616610825061798095703125</LatitudeDegrees>
              <LongitudeDegrees>36.998706646263599395751953125</LongitudeDegrees>
            </Position>
            <AltitudeMeters>684.20001220703125</AltitudeMeters>
            <DistanceMeters>1212.3867340379</DistanceMeters>
          </Trackpoint>
          <Trackpoint>
            <Time>2021-08-01T10:10:33.000Z</Time>
            <Position>
              <LatitudeDegrees>-15.46731610782444477081298828125</LatitudeDegrees>
              <LongitudeDegrees>36.99877135455608367919921875</LongitudeDegrees>
            </Position>
            <AltitudeMeters>683.5999755859375</AltitudeMeters>
            <DistanceMeters>1219.4174266392</DistanceMeters>
          </Trackpoint>
          <Trackpoint>
            <Time>2021-08-01T10:10:36.000Z</Time>
            <Position>
              <LatitudeDegrees>-15.46729414723813533782958984375</LatitudeDegrees>
              <LongitudeDegrees>36.99880580417811870574951171875</LongitudeDegrees>
            </Position>
            <AltitudeMeters>683.5999755859375</AltitudeMeters>
            <DistanceMeters>1223.8481586542</DistanceMeters>
          </Trackpoint>
          <Trackpoint>
            <Time>2021-08-01T10:10:40.000Z</Time>
            <Position>
              <LatitudeDegrees>-15.46725776977837085723876953125</LatitudeDegrees>
              <LongitudeDegrees>36.998838745057582855224609375</LongitudeDegrees>
            </Position>
            <AltitudeMeters>683.5999755859375</AltitudeMeters>
            <DistanceMeters>1229.2228413932</DistanceMeters>
          </Trackpoint>
          <Trackpoint>
            <Time>2021-08-01T10:10:43.000Z</Time>
            <Position>
              <LatitudeDegrees>-15.467250980436801910400390625</LatitudeDegrees>
              <LongitudeDegrees>36.9988814927637577056884765625</LongitudeDegrees>
            </Position>
            <AltitudeMeters>683</AltitudeMeters>
            <DistanceMeters>1233.8704152607</DistanceMeters>
          </Trackpoint>
          <Trackpoint>
            <Time>2021-08-01T10:10:52.000Z</Time>
            <Position>
              <LatitudeDegrees>-15.46725458465516567230224609375</LatitudeDegrees>
              <LongitudeDegrees>36.99899640865623950958251953125</LongitudeDegrees>
            </Position>
            <AltitudeMeters>682.5999755859375</AltitudeMeters>
            <DistanceMeters>1246.2037699421</DistanceMeters>
          </Trackpoint>
          <Trackpoint>
            <Time>2021-08-01T10:11:01.000Z</Time>
            <Position>
              <LatitudeDegrees>-15.46725827269256114959716796875</LatitudeDegrees>
              <LongitudeDegrees>36.999107636511325836181640625</LongitudeDegrees>
            </Position>
            <AltitudeMeters>681.4000244140625</AltitudeMeters>
            <DistanceMeters>1258.1420150609</DistanceMeters>
          </Trackpoint>
          <Trackpoint>
            <Time>2021-08-01T10:11:04.000Z</Time>
            <Position>
              <LatitudeDegrees>-15.467252992093563079833984375</LatitudeDegrees>
              <LongitudeDegrees>36.9991460256278514862060546875</LongitudeDegrees>
            </Position>
            <AltitudeMeters>680.20001220703125</AltitudeMeters>
            <DistanceMeters>1262.3026227741</DistanceMeters>
          </Trackpoint>
          <Trackpoint>
            <Time>2021-08-01T10:11:07.000Z</Time>
            <Position>
              <LatitudeDegrees>-15.4672353900969028472900390625</LatitudeDegrees>
              <LongitudeDegrees>36.9991825707256793975830078125</LongitudeDegrees>
            </Position>
            <AltitudeMeters>680</AltitudeMeters>
            <DistanceMeters>1266.6851987969</DistanceMeters>
          </Trackpoint>
          <Trackpoint>
            <Time>2021-08-01T10:11:12.000Z</Time>
            <Position>
              <LatitudeDegrees>-15.4672290198504924774169921875</LatitudeDegrees>
              <LongitudeDegrees>36.999256499111652374267578125</LongitudeDegrees>
            </Position>
            <AltitudeMeters>679.79998779296875</AltitudeMeters>
            <DistanceMeters>1274.6476209606</DistanceMeters>
          </Trackpoint>
          <Trackpoint>
            <Time>2021-08-01T10:11:13.000Z</Time>
            <Position>
              <LatitudeDegrees>-15.46723078005015850067138671875</LatitudeDegrees>
              <LongitudeDegrees>36.99926747940480709075927734375</LongitudeDegrees>
            </Position>
            <AltitudeMeters>679.4000244140625</AltitudeMeters>
            <DistanceMeters>1275.8383022789</DistanceMeters>
          </Trackpoint>
          <Trackpoint>
            <Time>2021-08-01T10:11:14.000Z</Time>
            <Position>
              <LatitudeDegrees>-15.4672305285930633544921875</LatitudeDegrees>
              <LongitudeDegrees>36.9992787949740886688232421875</LongitudeDegrees>
            </Position>
            <AltitudeMeters>678.20001220703125</AltitudeMeters>
            <DistanceMeters>1277.0552379949</DistanceMeters>
          </Trackpoint>
          <Trackpoint>
            <Time>2021-08-01T10:11:19.000Z</Time>
            <Position>
              <LatitudeDegrees>-15.46721041202545166015625</LatitudeDegrees>
              <LongitudeDegrees>36.99933503754436969757080078125</LongitudeDegrees>
            </Position>
            <AltitudeMeters>677.5999755859375</AltitudeMeters>
            <DistanceMeters>1283.4911497911</DistanceMeters>
          </Trackpoint>
          <Trackpoint>
            <Time>2021-08-01T10:11:20.000Z</Time>
            <Position>
              <LatitudeDegrees>-15.46720571815967559814453125</LatitudeDegrees>
              <LongitudeDegrees>36.999347694218158721923828125</LongitudeDegrees>
            </Position>
            <AltitudeMeters>677.20001220703125</AltitudeMeters>
            <DistanceMeters>1284.9447790037</DistanceMeters>
          </Trackpoint>
          <Trackpoint>
            <Time>2021-08-01T10:11:26.000Z</Time>
            <Position>
              <LatitudeDegrees>-15.46714805066585540771484375</LatitudeDegrees>
              <LongitudeDegrees>36.99938918463885784149169921875</LongitudeDegrees>
            </Position>
            <AltitudeMeters>677</AltitudeMeters>
            <DistanceMeters>1292.7554893719</DistanceMeters>
          </Trackpoint>
          <Trackpoint>
            <Time>2021-08-01T10:11:36.000Z</Time>
            <Position>
              <LatitudeDegrees>-15.4670137725770473480224609375</LatitudeDegrees>
              <LongitudeDegrees>36.99947115965187549591064453125</LongitudeDegrees>
            </Position>
            <AltitudeMeters>675.79998779296875</AltitudeMeters>
            <DistanceMeters>1310.0959771248</DistanceMeters>
          </Trackpoint>
          <Trackpoint>
            <Time>2021-08-01T10:11:37.000Z</Time>
            <Position>
              <LatitudeDegrees>-15.46700094826519489288330078125</LatitudeDegrees>
              <LongitudeDegrees>36.99948021210730075836181640625</LongitudeDegrees>
            </Position>
            <AltitudeMeters>675.5999755859375</AltitudeMeters>
            <DistanceMeters>1311.8196056085</DistanceMeters>
          </Trackpoint>
          <Trackpoint>
            <Time>2021-08-01T10:11:40.000Z</Time>
            <Position>
              <LatitudeDegrees>-15.46696054749190807342529296875</LatitudeDegrees>
              <LongitudeDegrees>36.9995017535984516143798828125</LongitudeDegrees>
            </Position>
            <AltitudeMeters>674.5999755859375</AltitudeMeters>
            <DistanceMeters>1316.8748124625</DistanceMeters>
          </Trackpoint>
          <Trackpoint>
            <Time>2021-08-01T10:11:46.000Z</Time>
            <Position>
              <LatitudeDegrees>-15.46689583919942378997802734375</LatitudeDegrees>
              <LongitudeDegrees>36.999540813267230987548828125</LongitudeDegrees>
            </Position>
            <AltitudeMeters>673.5999755859375</AltitudeMeters>
            <DistanceMeters>1325.206872694</DistanceMeters>
          </Trackpoint>
          <Trackpoint>
            <Time>2021-08-01T10:11:52.000Z</Time>
            <Position>
              <LatitudeDegrees>-15.466840602457523345947265625</LatitudeDegrees>
              <LongitudeDegrees>36.999575681984424591064453125</LongitudeDegrees>
            </Position>
            <AltitudeMeters>672.4000244140625</AltitudeMeters>
            <DistanceMeters>1332.4032251316</DistanceMeters>
          </Trackpoint>
          <Trackpoint>
            <Time>2021-08-01T10:11:54.000Z</Time>
            <Position>
              <LatitudeDegrees>-15.46681671403348445892333984375</LatitudeDegrees>
              <LongitudeDegrees>36.99959320016205310821533203125</LongitudeDegrees>
            </Position>
            <AltitudeMeters>671.4000244140625</AltitudeMeters>
            <DistanceMeters>1335.6591903871</DistanceMeters>
          </Trackpoint>
          <Trackpoint>
            <Time>2021-08-01T10:11:59.000Z</Time>
            <Position>
              <LatitudeDegrees>-15.4667673446238040924072265625</LatitudeDegrees>
              <LongitudeDegrees>36.99962890706956386566162109375</LongitudeDegrees>
            </Position>
            <AltitudeMeters>670.79998779296875</AltitudeMeters>
            <DistanceMeters>1342.3577312618</DistanceMeters>
          </Trackpoint>
          <Trackpoint>
            <Time>2021-08-01T10:12:01.000Z</Time>
            <Position>
              <LatitudeDegrees>-15.4667468927800655364990234375</LatitudeDegrees>
              <LongitudeDegrees>36.9996412284672260284423828125</LongitudeDegrees>
            </Position>
            <AltitudeMeters>670.4000244140625</AltitudeMeters>
            <DistanceMeters>1344.9894737706</DistanceMeters>
          </Trackpoint>
          <Trackpoint>
            <Time>2021-08-01T10:12:03.000Z</Time>
            <Position>
              <LatitudeDegrees>-15.46672157943248748779296875</LatitudeDegrees>
              <LongitudeDegrees>36.9996477663516998291015625</LongitudeDegrees>
            </Position>
            <AltitudeMeters>669.79998779296875</AltitudeMeters>
            <DistanceMeters>1347.8936244896</DistanceMeters>
          </Trackpoint>
          <Trackpoint>
            <Time>2021-08-01T10:12:04.000Z</Time>
            <Position>
              <LatitudeDegrees>-15.46670841984450817108154296875</LatitudeDegrees>
              <LongitudeDegrees>36.9996489398181438446044921875</LongitudeDegrees>
            </Position>
            <AltitudeMeters>668.79998779296875</AltitudeMeters>
            <DistanceMeters>1349.3657720184</DistanceMeters>
          </Trackpoint>
          <Trackpoint>
            <Time>2021-08-01T10:12:08.000Z</Time>
            <Position>
              <LatitudeDegrees>-15.46667195856571197509765625</LatitudeDegrees>
              <LongitudeDegrees>36.9996714033186435699462890625</LongitudeDegrees>
            </Position>
            <AltitudeMeters>667.79998779296875</AltitudeMeters>
            <DistanceMeters>1354.0856447484</DistanceMeters>
          </Trackpoint>
          <Trackpoint>
            <Time>2021-08-01T10:12:09.000Z</Time>
            <Position>
              <LatitudeDegrees>-15.46666399575769901275634765625</LatitudeDegrees>
              <LongitudeDegrees>36.99967567808926105499267578125</LongitudeDegrees>
            </Position>
            <AltitudeMeters>667.4000244140625</AltitudeMeters>
            <DistanceMeters>1355.0822933368</DistanceMeters>
          </Trackpoint>
          <Trackpoint>
            <Time>2021-08-01T10:12:10.000Z</Time>
            <Position>
              <LatitudeDegrees>-15.4666538536548614501953125</LatitudeDegrees>
              <LongitudeDegrees>36.99968053959310054779052734375</LongitudeDegrees>
            </Position>
            <AltitudeMeters>667.20001220703125</AltitudeMeters>
            <DistanceMeters>1356.3285570121</DistanceMeters>
          </Trackpoint>
          <Trackpoint>
            <Time>2021-08-01T10:12:12.000Z</Time>
            <Position>
              <LatitudeDegrees>-15.46663532964885234832763671875</LatitudeDegrees>
              <LongitudeDegrees>36.9996879994869232177734375</LongitudeDegrees>
            </Position>
            <AltitudeMeters>666.5999755859375</AltitudeMeters>
            <DistanceMeters>1358.5408638246</DistanceMeters>
          </Trackpoint>
          <Trackpoint>
            <Time>2021-08-01T10:12:15.000Z</Time>
            <Position>
              <LatitudeDegrees>-15.46660565771162509918212890625</LatitudeDegrees>
              <LongitudeDegrees>36.9997113011777400970458984375</LongitudeDegrees>
            </Position>
            <AltitudeMeters>665.5999755859375</AltitudeMeters>
            <DistanceMeters>1362.6829822734</DistanceMeters>
          </Trackpoint>
          <Trackpoint>
            <Time>2021-08-01T10:12:18.000Z</Time>
            <Position>
              <LatitudeDegrees>-15.466580092906951904296875</LatitudeDegrees>
              <LongitudeDegrees>36.999737285077571868896484375</LongitudeDegrees>
            </Position>
            <AltitudeMeters>664.20001220703125</AltitudeMeters>
            <DistanceMeters>1366.6650438293</DistanceMeters>
          </Trackpoint>
          <Trackpoint>
            <Time>2021-08-01T10:12:19.000Z</Time>
            <Position>
              <LatitudeDegrees>-15.46656810678541660308837890625</LatitudeDegrees>
              <LongitudeDegrees>36.999743990600109100341796875</LongitudeDegrees>
            </Position>
            <AltitudeMeters>664</AltitudeMeters>
            <DistanceMeters>1368.1824987688</DistanceMeters>
          </Trackpoint>
          <Trackpoint>
            <Time>2021-08-01T10:12:22.000Z</Time>
            <Position>
              <LatitudeDegrees>-15.4665356688201427459716796875</LatitudeDegrees>
              <LongitudeDegrees>36.99976687319576740264892578125</LongitudeDegrees>
            </Position>
            <AltitudeMeters>663.20001220703125</AltitudeMeters>
            <DistanceMeters>1372.5475258359</DistanceMeters>
          </Trackpoint>
          <Trackpoint>
            <Time>2021-08-01T10:12:25.000Z</Time>
            <Position>
              <LatitudeDegrees>-15.4665443859994411468505859375</LatitudeDegrees>
              <LongitudeDegrees>36.99980056844651699066162109375</LongitudeDegrees>
            </Position>
            <AltitudeMeters>662.20001220703125</AltitudeMeters>
            <DistanceMeters>1376.2899379677</DistanceMeters>
          </Trackpoint>
          <Trackpoint>
            <Time>2021-08-01T10:12:30.000Z</Time>
            <Position>
              <LatitudeDegrees>-15.46658017672598361968994140625</LatitudeDegrees>
              <LongitudeDegrees>36.999855302274227142333984375</LongitudeDegrees>
            </Position>
            <AltitudeMeters>660.5999755859375</AltitudeMeters>
            <DistanceMeters>1383.3845588948</DistanceMeters>
          </Trackpoint>
          <Trackpoint>
            <Time>2021-08-01T10:12:34.000Z</Time>
            <Position>
              <LatitudeDegrees>-15.466613285243511199951171875</LatitudeDegrees>
              <LongitudeDegrees>36.999906934797763824462890625</LongitudeDegrees>
            </Position>
            <AltitudeMeters>659.5999755859375</AltitudeMeters>
            <DistanceMeters>1390.0364289007</DistanceMeters>
          </Trackpoint>
          <Trackpoint>
            <Time>2021-08-01T10:12:35.000Z</Time>
            <Position>
              <LatitudeDegrees>-15.46662225387990474700927734375</LatitudeDegrees>
              <LongitudeDegrees>36.9999228604137897491455078125</LongitudeDegrees>
            </Position>
            <AltitudeMeters>659.4000244140625</AltitudeMeters>
            <DistanceMeters>1392.0138067352</DistanceMeters>
          </Trackpoint>
          <Trackpoint>
            <Time>2021-08-01T10:12:39.000Z</Time>
            <Position>
              <LatitudeDegrees>-15.46664387919008731842041015625</LatitudeDegrees>
              <LongitudeDegrees>36.999978683888912200927734375</LongitudeDegrees>
            </Position>
            <AltitudeMeters>658.20001220703125</AltitudeMeters>
            <DistanceMeters>1398.4672331552</DistanceMeters>
          </Trackpoint>
          <Trackpoint>
            <Time>2021-08-01T10:12:44.000Z</Time>
            <Position>
              <LatitudeDegrees>-15.466674976050853729248046875</LatitudeDegrees>
              <LongitudeDegrees>37.0000405423343181610107421875</LongitudeDegrees>
            </Position>
            <AltitudeMeters>657.5999755859375</AltitudeMeters>
            <DistanceMeters>1405.9508508703</DistanceMeters>
          </Trackpoint>
          <Trackpoint>
            <Time>2021-08-01T10:12:46.000Z</Time>
            <Position>
              <LatitudeDegrees>-15.46668679453432559967041015625</LatitudeDegrees>
              <LongitudeDegrees>37.0000586472451686859130859375</LongitudeDegrees>
            </Position>
            <AltitudeMeters>657.20001220703125</AltitudeMeters>
            <DistanceMeters>1408.2978375833</DistanceMeters>
          </Trackpoint>
          <Trackpoint>
            <Time>2021-08-01T10:12:50.000Z</Time>
            <Position>
              <LatitudeDegrees>-15.46672099269926548004150390625</LatitudeDegrees>
              <LongitudeDegrees>37.0000961981713771820068359375</LongitudeDegrees>
            </Position>
            <AltitudeMeters>656.79998779296875</AltitudeMeters>
            <DistanceMeters>1413.8387995855</DistanceMeters>
          </Trackpoint>
          <Trackpoint>
            <Time>2021-08-01T10:12:51.000Z</Time>
            <Position>
              <LatitudeDegrees>-15.4667254351079463958740234375</LatitudeDegrees>
              <LongitudeDegrees>37.0001064240932464599609375</LongitudeDegrees>
            </Position>
            <AltitudeMeters>656.5999755859375</AltitudeMeters>
            <DistanceMeters>1415.0408030093</DistanceMeters>
          </Trackpoint>
          <Trackpoint>
            <Time>2021-08-01T10:12:57.000Z</Time>
            <Position>
              <LatitudeDegrees>-15.46674328856170177459716796875</LatitudeDegrees>
              <LongitudeDegrees>37.00017406605184078216552734375</LongitudeDegrees>
            </Position>
            <AltitudeMeters>656.20001220703125</AltitudeMeters>
            <DistanceMeters>1422.5641346617</DistanceMeters>
          </Trackpoint>
          <Trackpoint>
            <Time>2021-08-01T10:13:01.000Z</Time>
            <Position>
              <LatitudeDegrees>-15.4667745530605316162109375</LatitudeDegrees>
              <LongitudeDegrees>37.00021128170192241668701171875</LongitudeDegrees>
            </Position>
            <AltitudeMeters>656</AltitudeMeters>
            <DistanceMeters>1427.8601159149</DistanceMeters>
          </Trackpoint>
          <Trackpoint>
            <Time>2021-08-01T10:13:11.000Z</Time>
            <Position>
              <LatitudeDegrees>-15.4668521694839000701904296875</LatitudeDegrees>
              <LongitudeDegrees>37.0002914965152740478515625</LongitudeDegrees>
            </Position>
            <AltitudeMeters>655.5999755859375</AltitudeMeters>
            <DistanceMeters>1440.0531950409</DistanceMeters>
          </Trackpoint>
          <Trackpoint>
            <Time>2021-08-01T10:13:12.000Z</Time>
            <Position>
              <LatitudeDegrees>-15.46686231158673763275146484375</LatitudeDegrees>
              <LongitudeDegrees>37.0003000460565090179443359375</LongitudeDegrees>
            </Position>
            <AltitudeMeters>655.5999755859375</AltitudeMeters>
            <DistanceMeters>1441.5099269876</DistanceMeters>
          </Trackpoint>
          <Trackpoint>
            <Time>2021-08-01T10:13:16.000Z</Time>
            <Position>
              <LatitudeDegrees>-15.4669051431119441986083984375</LatitudeDegrees>
              <LongitudeDegrees>37.00032091699540615081787109375</LongitudeDegrees>
            </Position>
            <AltitudeMeters>655.20001220703125</AltitudeMeters>
            <DistanceMeters>1446.7768421032</DistanceMeters>
          </Trackpoint>
          <Trackpoint>
            <Time>2021-08-01T10:13:17.000Z</Time>
            <Position>
              <LatitudeDegrees>-15.46691176481544971466064453125</LatitudeDegrees>
              <LongitudeDegrees>37.000320665538311004638671875</LongitudeDegrees>
            </Position>
            <AltitudeMeters>655.20001220703125</AltitudeMeters>
            <DistanceMeters>1447.5129158676</DistanceMeters>
          </Trackpoint>
          <Trackpoint>
            <Time>2021-08-01T10:13:25.000Z</Time>
            <Position>
              <LatitudeDegrees>-15.46691260300576686859130859375</LatitudeDegrees>
              <LongitudeDegrees>37.0003023929893970489501953125</LongitudeDegrees>
            </Position>
            <AltitudeMeters>655.4000244140625</AltitudeMeters>
            <DistanceMeters>1449.4742451529</DistanceMeters>
          </Trackpoint>
          <Trackpoint>
            <Time>2021-08-01T10:13:41.000Z</Time>
            <Position>
              <LatitudeDegrees>-15.466907322406768798828125</LatitudeDegrees>
              <LongitudeDegrees>37.00028521008789539337158203125</LongitudeDegrees>
            </Position>
            <AltitudeMeters>655.20001220703125</AltitudeMeters>
            <DistanceMeters>1451.4077527551</DistanceMeters>
          </Trackpoint>
          <Trackpoint>
            <Time>2021-08-01T10:13:43.000Z</Time>
            <Position>
              <LatitudeDegrees>-15.4669078253209590911865234375</LatitudeDegrees>
              <LongitudeDegrees>37.00029057450592517852783203125</LongitudeDegrees>
            </Position>
            <AltitudeMeters>655</AltitudeMeters>
            <DistanceMeters>1451.9779130413</DistanceMeters>
          </Trackpoint>
          <Trackpoint>
            <Time>2021-08-01T10:13:46.000Z</Time>
            <Position>
              <LatitudeDegrees>-15.4669462144374847412109375</LatitudeDegrees>
              <LongitudeDegrees>37.0003174804151058197021484375</LongitudeDegrees>
            </Position>
            <AltitudeMeters>655.20001220703125</AltitudeMeters>
            <DistanceMeters>1457.1339333139</DistanceMeters>
          </Trackpoint>
          <Trackpoint>
            <Time>2021-08-01T10:13:48.000Z</Time>
            <Position>
              <LatitudeDegrees>-15.46695769764482975006103515625</LatitudeDegrees>
              <LongitudeDegrees>37.00034002773463726043701171875</LongitudeDegrees>
            </Position>
            <AltitudeMeters>655.20001220703125</AltitudeMeters>
            <DistanceMeters>1459.8683259879</DistanceMeters>
          </Trackpoint>
          <Trackpoint>
            <Time>2021-08-01T10:13:51.000Z</Time>
            <Position>
              <LatitudeDegrees>-15.46694596298038959503173828125</LatitudeDegrees>
              <LongitudeDegrees>37.0003607310354709625244140625</LongitudeDegrees>
            </Position>
            <AltitudeMeters>655.20001220703125</AltitudeMeters>
            <DistanceMeters>1462.4428310102</DistanceMeters>
          </Trackpoint>
          <Trackpoint>
            <Time>2021-08-01T10:13:55.000Z</Time>
            <Position>
              <LatitudeDegrees>-15.4669172130525112152099609375</LatitudeDegrees>
              <LongitudeDegrees>37.00038998387753963470458984375</LongitudeDegrees>
            </Position>
            <AltitudeMeters>655</AltitudeMeters>
            <DistanceMeters>1466.9252321622</DistanceMeters>
          </Trackpoint>
          <Trackpoint>
            <Time>2021-08-01T10:13:57.000Z</Time>
            <Position>
              <LatitudeDegrees>-15.46692551113665103912353515625</LatitudeDegrees>
              <LongitudeDegrees>37.0004106871783733367919921875</LongitudeDegrees>
            </Position>
            <AltitudeMeters>654.4000244140625</AltitudeMeters>
            <DistanceMeters>1469.32923901</DistanceMeters>
          </Trackpoint>
          <Trackpoint>
            <Time>2021-08-01T10:13:58.000Z</Time>
            <Position>
              <LatitudeDegrees>-15.4669349826872348785400390625</LatitudeDegrees>
              <LongitudeDegrees>37.0004200749099254608154296875</LongitudeDegrees>
            </Position>
            <AltitudeMeters>654.4000244140625</AltitudeMeters>
            <DistanceMeters>1470.7859709566</DistanceMeters>
          </Trackpoint>
          <Trackpoint>
            <Time>2021-08-01T10:14:01.000Z</Time>
            <Position>
              <LatitudeDegrees>-15.46694998629391193389892578125</LatitudeDegrees>
              <LongitudeDegrees>37.000454775989055633544921875</LongitudeDegrees>
            </Position>
            <AltitudeMeters>654.5999755859375</AltitudeMeters>
            <DistanceMeters>1474.8665911255</DistanceMeters>
          </Trackpoint>
          <Trackpoint>
            <Time>2021-08-01T10:14:04.000Z</Time>
            <Position>
              <LatitudeDegrees>-15.46696272678673267364501953125</LatitudeDegrees>
              <LongitudeDegrees>37.00049341656267642974853515625</LongitudeDegrees>
            </Position>
            <AltitudeMeters>654.79998779296875</AltitudeMeters>
            <DistanceMeters>1479.2460753836</DistanceMeters>
          </Trackpoint>
          <Trackpoint>
            <Time>2021-08-01T10:14:09.000Z</Time>
            <Position>
              <LatitudeDegrees>-15.46699114143848419189453125</LatitudeDegrees>
              <LongitudeDegrees>37.00055100023746490478515625</LongitudeDegrees>
            </Position>
            <AltitudeMeters>655.20001220703125</AltitudeMeters>
            <DistanceMeters>1486.1856285159</DistanceMeters>
          </Trackpoint>
          <Trackpoint>
            <Time>2021-08-01T10:14:14.000Z</Time>
            <Position>
              <LatitudeDegrees>-15.467016287147998809814453125</LatitudeDegrees>
              <LongitudeDegrees>37.000613026320934295654296875</LongitudeDegrees>
            </Position>
            <AltitudeMeters>655.20001220703125</AltitudeMeters>
            <DistanceMeters>1493.4045322524</DistanceMeters>
          </Trackpoint>
          <Trackpoint>
            <Time>2021-08-01T10:14:19.000Z</Time>
            <Position>
              <LatitudeDegrees>-15.46705945394933223724365234375</LatitudeDegrees>
              <LongitudeDegrees>37.00069852173328399658203125</LongitudeDegrees>
            </Position>
            <AltitudeMeters>655.5999755859375</AltitudeMeters>
            <DistanceMeters>1503.7585202543</DistanceMeters>
          </Trackpoint>
          <Trackpoint>
            <Time>2021-08-01T10:14:22.000Z</Time>
            <Position>
              <LatitudeDegrees>-15.467087365686893463134765625</LatitudeDegrees>
              <LongitudeDegrees>37.00073012150824069976806640625</LongitudeDegrees>
            </Position>
            <AltitudeMeters>656</AltitudeMeters>
            <DistanceMeters>1508.3572634556</DistanceMeters>
          </Trackpoint>
          <Trackpoint>
            <Time>2021-08-01T10:14:26.000Z</Time>
            <Position>
              <LatitudeDegrees>-15.467124916613101959228515625</LatitudeDegrees>
              <LongitudeDegrees>37.0007662475109100341796875</LongitudeDegrees>
            </Position>
            <AltitudeMeters>656.20001220703125</AltitudeMeters>
            <DistanceMeters>1514.0572823192</DistanceMeters>
          </Trackpoint>
          <Trackpoint>
            <Time>2021-08-01T10:14:27.000Z</Time>
            <Position>
              <LatitudeDegrees>-15.467135645449161529541015625</LatitudeDegrees>
              <LongitudeDegrees>37.0007731206715106964111328125</LongitudeDegrees>
            </Position>
            <AltitudeMeters>656.20001220703125</AltitudeMeters>
            <DistanceMeters>1515.4571132334</DistanceMeters>
          </Trackpoint>
          <Trackpoint>
            <Time>2021-08-01T10:14:30.000Z</Time>
            <Position>
              <LatitudeDegrees>-15.4671643115580081939697265625</LatitudeDegrees>
              <LongitudeDegrees>37.000790722668170928955078125</LongitudeDegrees>
            </Position>
            <AltitudeMeters>656.4000244140625</AltitudeMeters>
            <DistanceMeters>1519.1643731849</DistanceMeters>
          </Trackpoint>
          <Trackpoint>
            <Time>2021-08-01T10:14:32.000Z</Time>
            <Position>
              <LatitudeDegrees>-15.46717981807887554168701171875</LatitudeDegrees>
              <LongitudeDegrees>37.00080388225615024566650390625</LongitudeDegrees>
            </Position>
            <AltitudeMeters>656.5999755859375</AltitudeMeters>
            <DistanceMeters>1521.3929471783</DistanceMeters>
          </Trackpoint>
          <Trackpoint>
            <Time>2021-08-01T10:14:33.000Z</Time>
            <Position>
              <LatitudeDegrees>-15.46718535013496875762939453125</LatitudeDegrees>
              <LongitudeDegrees>37.000812180340290069580078125</LongitudeDegrees>
            </Position>
            <AltitudeMeters>656.79998779296875</AltitudeMeters>
            <DistanceMeters>1522.4722431809</DistanceMeters>
          </Trackpoint>
          <Trackpoint>
            <Time>2021-08-01T10:14:36.000Z</Time>
            <Position>
              <LatitudeDegrees>-15.4672005213797092437744140625</LatitudeDegrees>
              <LongitudeDegrees>37.00083933770656585693359375</LongitudeDegrees>
            </Position>
            <AltitudeMeters>657.20001220703125</AltitudeMeters>
            <DistanceMeters>1525.8386575846</DistanceMeters>
          </Trackpoint>
          <Trackpoint>
            <Time>2021-08-01T10:14:37.000Z</Time>
            <Position>
              <LatitudeDegrees>-15.46720303595066070556640625</LatitudeDegrees>
              <LongitudeDegrees>37.000845037400722503662109375</LongitudeDegrees>
            </Position>
            <AltitudeMeters>657.20001220703125</AltitudeMeters>
            <DistanceMeters>1526.5105979258</DistanceMeters>
          </Trackpoint>
          <Trackpoint>
            <Time>2021-08-01T10:14:41.000Z</Time>
            <Position>
              <LatitudeDegrees>-15.46721778810024261474609375</LatitudeDegrees>
              <LongitudeDegrees>37.000876553356647491455078125</LongitudeDegrees>
            </Position>
            <AltitudeMeters>657.79998779296875</AltitudeMeters>
            <DistanceMeters>1530.2686611981</DistanceMeters>
          </Trackpoint>
          <Trackpoint>
            <Time>2021-08-01T10:14:43.000Z</Time>
            <Position>
              <LatitudeDegrees>-15.46722742728888988494873046875</LatitudeDegrees>
              <LongitudeDegrees>37.00089407153427600860595703125</LongitudeDegrees>
            </Position>
            <AltitudeMeters>658.4000244140625</AltitudeMeters>
            <DistanceMeters>1532.4314324754</DistanceMeters>
          </Trackpoint>
          <Trackpoint>
            <Time>2021-08-01T10:14:47.000Z</Time>
            <Position>
              <LatitudeDegrees>-15.46724167652428150177001953125</LatitudeDegrees>
              <LongitudeDegrees>37.00091938488185405731201171875</LongitudeDegrees>
            </Position>
            <AltitudeMeters>659.20001220703125</AltitudeMeters>
            <DistanceMeters>1535.5745047987</DistanceMeters>
          </Trackpoint>
          <Trackpoint>
            <Time>2021-08-01T10:14:49.000Z</Time>
            <Position>
              <LatitudeDegrees>-15.46724486164748668670654296875</LatitudeDegrees>
              <LongitudeDegrees>37.00093229301273822784423828125</LongitudeDegrees>
            </Position>
            <AltitudeMeters>659.5999755859375</AltitudeMeters>
            <DistanceMeters>1537.0030695597</DistanceMeters>
          </Trackpoint>
          <Trackpoint>
            <Time>2021-08-01T10:14:52.000Z</Time>
            <Position>
              <LatitudeDegrees>-15.46725726686418056488037109375</LatitudeDegrees>
              <LongitudeDegrees>37.0009541697800159454345703125</LongitudeDegrees>
            </Position>
            <AltitudeMeters>660.20001220703125</AltitudeMeters>
            <DistanceMeters>1539.7258792777</DistanceMeters>
          </Trackpoint>
          <Trackpoint>
            <Time>2021-08-01T10:14:54.000Z</Time>
            <Position>
              <LatitudeDegrees>-15.46725668013095855712890625</LatitudeDegrees>
              <LongitudeDegrees>37.0009742863476276397705078125</LongitudeDegrees>
            </Position>
            <AltitudeMeters>660.4000244140625</AltitudeMeters>
            <DistanceMeters>1541.884471283</DistanceMeters>
          </Trackpoint>
          <Trackpoint>
            <Time>2021-08-01T10:14:56.000Z</Time>
            <Position>
              <LatitudeDegrees>-15.46726246364414691925048828125</LatitudeDegrees>
              <LongitudeDegrees>37.00099582783877849578857421875</LongitudeDegrees>
            </Position>
            <AltitudeMeters>661</AltitudeMeters>
            <DistanceMeters>1544.2847189309</DistanceMeters>
          </Trackpoint>
          <Trackpoint>
            <Time>2021-08-01T10:14:58.000Z</Time>
            <Position>
              <LatitudeDegrees>-15.4672705940902233123779296875</LatitudeDegrees>
              <LongitudeDegrees>37.0010125078260898590087890625</LongitudeDegrees>
            </Position>
            <AltitudeMeters>661.20001220703125</AltitudeMeters>
            <DistanceMeters>1546.2915607517</DistanceMeters>
          </Trackpoint>
          <Trackpoint>
            <Time>2021-08-01T10:15:01.000Z</Time>
            <Position>
              <LatitudeDegrees>-15.46727905981242656707763671875</LatitudeDegrees>
              <LongitudeDegrees>37.0010389946401119232177734375</LongitudeDegrees>
            </Position>
            <AltitudeMeters>662</AltitudeMeters>
            <DistanceMeters>1549.2845251405</DistanceMeters>
          </Trackpoint>
          <Trackpoint>
            <Time>2021-08-01T10:15:08.000Z</Time>
            <Position>
              <LatitudeDegrees>-15.467316024005413055419921875</LatitudeDegrees>
              <LongitudeDegrees>37.00111091136932373046875</LongitudeDegrees>
            </Position>
            <AltitudeMeters>662.79998779296875</AltitudeMeters>
            <DistanceMeters>1558.0269828625</DistanceMeters>
          </Trackpoint>
          <Trackpoint>
            <Time>2021-08-01T10:15:09.000Z</Time>
            <Position>
              <LatitudeDegrees>-15.46732130460441112518310546875</LatitudeDegrees>
              <LongitudeDegrees>37.001117952167987823486328125</LongitudeDegrees>
            </Position>
            <AltitudeMeters>663.20001220703125</AltitudeMeters>
            <DistanceMeters>1558.9867056336</DistanceMeters>
          </Trackpoint>
          <Trackpoint>
            <Time>2021-08-01T10:15:17.000Z</Time>
            <Position>
              <LatitudeDegrees>-15.46736975200474262237548828125</LatitudeDegrees>
              <LongitudeDegrees>37.00119531713426113128662109375</LongitudeDegrees>
            </Position>
            <AltitudeMeters>663.5999755859375</AltitudeMeters>
            <DistanceMeters>1568.8836364299</DistanceMeters>
          </Trackpoint>
          <Trackpoint>
            <Time>2021-08-01T10:15:19.000Z</Time>
            <Position>
              <LatitudeDegrees>-15.4673842526972293853759765625</LatitudeDegrees>
              <LongitudeDegrees>37.00121442787349224090576171875</LongitudeDegrees>
            </Position>
            <AltitudeMeters>663.79998779296875</AltitudeMeters>
            <DistanceMeters>1571.4912498143</DistanceMeters>
          </Trackpoint>
          <Trackpoint>
            <Time>2021-08-01T10:15:23.000Z</Time>
            <Position>
              <LatitudeDegrees>-15.467407219111919403076171875</LatitudeDegrees>
              <LongitudeDegrees>37.00125281699001789093017578125</LongitudeDegrees>
            </Position>
            <AltitudeMeters>664.20001220703125</AltitudeMeters>
            <DistanceMeters>1576.3376122472</DistanceMeters>
          </Trackpoint>
          <Trackpoint>
            <Time>2021-08-01T10:15:26.000Z</Time>
            <Position>
              <LatitudeDegrees>-15.46742389909923076629638671875</LatitudeDegrees>
              <LongitudeDegrees>37.001282237470149993896484375</LongitudeDegrees>
            </Position>
            <AltitudeMeters>664.4000244140625</AltitudeMeters>
            <DistanceMeters>1579.999532989</DistanceMeters>
          </Trackpoint>
          <Trackpoint>
            <Time>2021-08-01T10:15:33.000Z</Time>
            <Position>
              <LatitudeDegrees>-15.467470586299896240234375</LatitudeDegrees>
              <LongitudeDegrees>37.00134468264877796173095703125</LongitudeDegrees>
            </Position>
            <AltitudeMeters>665</AltitudeMeters>
            <DistanceMeters>1588.4771728974</DistanceMeters>
          </Trackpoint>
          <Trackpoint>
            <Time>2021-08-01T10:15:35.000Z</Time>
            <Position>
              <LatitudeDegrees>-15.46746748499572277069091796875</LatitudeDegrees>
              <LongitudeDegrees>37.0013591833412647247314453125</LongitudeDegrees>
            </Position>
            <AltitudeMeters>665</AltitudeMeters>
            <DistanceMeters>1590.0701109002</DistanceMeters>
          </Trackpoint>
          <Trackpoint>
            <Time>2021-08-01T10:15:37.000Z</Time>
            <Position>
              <LatitudeDegrees>-15.4674611985683441162109375</LatitudeDegrees>
              <LongitudeDegrees>37.00137519277632236480712890625</LongitudeDegrees>
            </Position>
            <AltitudeMeters>665</AltitudeMeters>
            <DistanceMeters>1591.924958367</DistanceMeters>
          </Trackpoint>
          <Trackpoint>
            <Time>2021-08-01T10:15:38.000Z</Time>
            <Position>
              <LatitudeDegrees>-15.4674560017883777618408203125</LatitudeDegrees>
              <LongitudeDegrees>37.0013816468417644500732421875</LongitudeDegrees>
            </Position>
            <AltitudeMeters>665.4000244140625</AltitudeMeters>
            <DistanceMeters>1592.826460935</DistanceMeters>
          </Trackpoint>
          <Trackpoint>
            <Time>2021-08-01T10:15:42.000Z</Time>
            <Position>
              <LatitudeDegrees>-15.46743161045014858245849609375</LatitudeDegrees>
              <LongitudeDegrees>37.00140662491321563720703125</LongitudeDegrees>
            </Position>
            <AltitudeMeters>666.20001220703125</AltitudeMeters>
            <DistanceMeters>1596.6417568904</DistanceMeters>
          </Trackpoint>
          <Trackpoint>
            <Time>2021-08-01T10:15:43.000Z</Time>
            <Position>
              <LatitudeDegrees>-15.46742423437535762786865234375</LatitudeDegrees>
              <LongitudeDegrees>37.0014128275215625762939453125</LongitudeDegrees>
            </Position>
            <AltitudeMeters>666.4000244140625</AltitudeMeters>
            <DistanceMeters>1597.6956541352</DistanceMeters>
          </Trackpoint>
          <Trackpoint>
            <Time>2021-08-01T10:15:44.000Z</Time>
            <Position>
              <LatitudeDegrees>-15.46742054633796215057373046875</LatitudeDegrees>
              <LongitudeDegrees>37.00142095796763896942138671875</LongitudeDegrees>
            </Position>
            <AltitudeMeters>666.5999755859375</AltitudeMeters>
            <DistanceMeters>1598.664740277</DistanceMeters>
          </Trackpoint>
          <Trackpoint>
            <Time>2021-08-01T10:15:47.000Z</Time>
            <Position>
              <LatitudeDegrees>-15.46740059740841388702392578125</LatitudeDegrees>
              <LongitudeDegrees>37.00144375674426555633544921875</LongitudeDegrees>
            </Position>
            <AltitudeMeters>667.4000244140625</AltitudeMeters>
            <DistanceMeters>1601.9675167369</DistanceMeters>
          </Trackpoint>
          <Trackpoint>
            <Time>2021-08-01T10:15:49.000Z</Time>
            <Position>
              <LatitudeDegrees>-15.46739615499973297119140625</LatitudeDegrees>
              <LongitudeDegrees>37.00146269984543323516845703125</LongitudeDegrees>
            </Position>
            <AltitudeMeters>667.79998779296875</AltitudeMeters>
            <DistanceMeters>1604.0581044531</DistanceMeters>
          </Trackpoint>
          <Trackpoint>
            <Time>2021-08-01T10:15:55.000Z</Time>
            <Position>
              <LatitudeDegrees>-15.46738685108721256256103515625</LatitudeDegrees>
              <LongitudeDegrees>37.00150930322706699371337890625</LongitudeDegrees>
            </Position>
            <AltitudeMeters>668.5999755859375</AltitudeMeters>
            <DistanceMeters>1609.1630824762</DistanceMeters>
          </Trackpoint>
          <Trackpoint>
            <Time>2021-08-01T10:15:56.000Z</Time>
            <Position>
              <LatitudeDegrees>-15.4673835821449756622314453125</LatitudeDegrees>
              <LongitudeDegrees>37.00151634402573108673095703125</LongitudeDegrees>
            </Position>
            <AltitudeMeters>668.5999755859375</AltitudeMeters>
            <DistanceMeters>1609.9969385107</DistanceMeters>
          </Trackpoint>
          <Trackpoint>
            <Time>2021-08-01T10:15:57.000Z</Time>
            <Position>
              <LatitudeDegrees>-15.4673825763165950775146484375</LatitudeDegrees>
              <LongitudeDegrees>37.00152355246245861053466796875</LongitudeDegrees>
            </Position>
            <AltitudeMeters>668.5999755859375</AltitudeMeters>
            <DistanceMeters>1610.7689391877</DistanceMeters>
          </Trackpoint>
          <Trackpoint>
            <Time>2021-08-01T10:16:02.000Z</Time>
            <Position>
              <LatitudeDegrees>-15.46737696044147014617919921875</LatitudeDegrees>
              <LongitudeDegrees>37.00156445614993572235107421875</LongitudeDegrees>
            </Position>
            <AltitudeMeters>669.79998779296875</AltitudeMeters>
            <DistanceMeters>1615.2006901132</DistanceMeters>
          </Trackpoint>
          <Trackpoint>
            <Time>2021-08-01T10:16:03.000Z</Time>
            <Position>
              <LatitudeDegrees>-15.46737335622310638427734375</LatitudeDegrees>
              <LongitudeDegrees>37.0015740953385829925537109375</LongitudeDegrees>
            </Position>
            <AltitudeMeters>670</AltitudeMeters>
            <DistanceMeters>1616.3088825136</DistanceMeters>
          </Trackpoint>
          <Trackpoint>
            <Time>2021-08-01T10:16:06.000Z</Time>
            <Position>
              <LatitudeDegrees>-15.4673738591372966766357421875</LatitudeDegrees>
              <LongitudeDegrees>37.00160720385611057281494140625</LongitudeDegrees>
            </Position>
            <AltitudeMeters>670.20001220703125</AltitudeMeters>
            <DistanceMeters>1619.8606450046</DistanceMeters>
          </Trackpoint>
          <Trackpoint>
            <Time>2021-08-01T10:16:10.000Z</Time>
            <Position>
              <LatitudeDegrees>-15.4673933051526546478271484375</LatitudeDegrees>
              <LongitudeDegrees>37.001652382314205169677734375</LongitudeDegrees>
            </Position>
            <AltitudeMeters>670.79998779296875</AltitudeMeters>
            <DistanceMeters>1625.1685484047</DistanceMeters>
          </Trackpoint>
          <Trackpoint>
            <Time>2021-08-01T10:16:13.000Z</Time>
            <Position>
              <LatitudeDegrees>-15.4674241505563259124755859375</LatitudeDegrees>
              <LongitudeDegrees>37.00167392380535602569580078125</LongitudeDegrees>
            </Position>
            <AltitudeMeters>671</AltitudeMeters>
            <DistanceMeters>1629.3073954681</DistanceMeters>
          </Trackpoint>
          <Trackpoint>
            <Time>2021-08-01T10:16:19.000Z</Time>
            <Position>
              <LatitudeDegrees>-15.467464216053485870361328125</LatitudeDegrees>
              <LongitudeDegrees>37.001690603792667388916015625</LongitudeDegrees>
            </Position>
            <AltitudeMeters>671</AltitudeMeters>
            <DistanceMeters>1634.1125911423</DistanceMeters>
          </Trackpoint>
          <Trackpoint>
            <Time>2021-08-01T10:16:25.000Z</Time>
            <Position>
              <LatitudeDegrees>-15.467478297650814056396484375</LatitudeDegrees>
              <LongitudeDegrees>37.0016864128410816192626953125</LongitudeDegrees>
            </Position>
            <AltitudeMeters>671.20001220703125</AltitudeMeters>
            <DistanceMeters>1635.7447285602</DistanceMeters>
          </Trackpoint>
          <Trackpoint>
            <Time>2021-08-01T10:16:28.000Z</Time>
            <Position>
              <LatitudeDegrees>-15.4674794711172580718994140625</LatitudeDegrees>
              <LongitudeDegrees>37.0016835629940032958984375</LongitudeDegrees>
            </Position>
            <AltitudeMeters>671.20001220703125</AltitudeMeters>
            <DistanceMeters>1636.0739107549</DistanceMeters>
          </Trackpoint>
          <Trackpoint>
            <Time>2021-08-01T10:16:31.000Z</Time>
            <Position>
              <LatitudeDegrees>-15.46747888438403606414794921875</LatitudeDegrees>
              <LongitudeDegrees>37.00168398208916187286376953125</LongitudeDegrees>
            </Position>
            <AltitudeMeters>671.20001220703125</AltitudeMeters>
            <DistanceMeters>1636.1689374693</DistanceMeters>
          </Trackpoint>
          <Trackpoint>
            <Time>2021-08-01T10:16:37.000Z</Time>
            <Position>
              <LatitudeDegrees>-15.46747854910790920257568359375</LatitudeDegrees>
              <LongitudeDegrees>37.0016877539455890655517578125</LongitudeDegrees>
            </Position>
            <AltitudeMeters>671.20001220703125</AltitudeMeters>
            <DistanceMeters>1636.5831493142</DistanceMeters>
          </Trackpoint>
          <Trackpoint>
            <Time>2021-08-01T10:16:41.000Z</Time>
            <Position>
              <LatitudeDegrees>-15.467518530786037445068359375</LatitudeDegrees>
              <LongitudeDegrees>37.001742236316204071044921875</LongitudeDegrees>
            </Position>
            <AltitudeMeters>671.4000244140625</AltitudeMeters>
            <DistanceMeters>1643.9285360809</DistanceMeters>
          </Trackpoint>
          <Trackpoint>
            <Time>2021-08-01T10:16:47.000Z</Time>
            <Position>
              <LatitudeDegrees>-15.4675666429102420806884765625</LatitudeDegrees>
              <LongitudeDegrees>37.00181323103606700897216796875</LongitudeDegrees>
            </Position>
            <AltitudeMeters>671.79998779296875</AltitudeMeters>
            <DistanceMeters>1653.2387296227</DistanceMeters>
          </Trackpoint>
          <Trackpoint>
            <Time>2021-08-01T10:16:50.000Z</Time>
            <Position>
              <LatitudeDegrees>-15.467581562697887420654296875</LatitudeDegrees>
              <LongitudeDegrees>37.0018473453819751739501953125</LongitudeDegrees>
            </Position>
            <AltitudeMeters>671.79998779296875</AltitudeMeters>
            <DistanceMeters>1657.2569103904</DistanceMeters>
          </Trackpoint>
          <Trackpoint>
            <Time>2021-08-01T10:16:53.000Z</Time>
            <Position>
              <LatitudeDegrees>-15.46759690158069133758544921875</LatitudeDegrees>
              <LongitudeDegrees>37.0018798671662807464599609375</LongitudeDegrees>
            </Position>
            <AltitudeMeters>671.79998779296875</AltitudeMeters>
            <DistanceMeters>1661.140237271</DistanceMeters>
          </Trackpoint>
          <Trackpoint>
            <Time>2021-08-01T10:16:54.000Z</Time>
            <Position>
              <LatitudeDegrees>-15.4676006734371185302734375</LatitudeDegrees>
              <LongitudeDegrees>37.0018899254500865936279296875</LongitudeDegrees>
            </Position>
            <AltitudeMeters>672</AltitudeMeters>
            <DistanceMeters>1662.3001861449</DistanceMeters>
          </Trackpoint>
          <Trackpoint>
            <Time>2021-08-01T10:17:00.000Z</Time>
            <Position>
              <LatitudeDegrees>-15.467619784176349639892578125</LatitudeDegrees>
              <LongitudeDegrees>37.001944743096828460693359375</LongitudeDegrees>
            </Position>
            <AltitudeMeters>672</AltitudeMeters>
            <DistanceMeters>1668.5532038965</DistanceMeters>
          </Trackpoint>
          <Trackpoint>
            <Time>2021-08-01T10:17:09.000Z</Time>
            <Position>
              <LatitudeDegrees>-15.46763244085013866424560546875</LatitudeDegrees>
              <LongitudeDegrees>37.00205395929515361785888671875</LongitudeDegrees>
            </Position>
            <AltitudeMeters>672.5999755859375</AltitudeMeters>
            <DistanceMeters>1680.3529813813</DistanceMeters>
          </Trackpoint>
          <Trackpoint>
            <Time>2021-08-01T10:17:16.000Z</Time>
            <Position>
              <LatitudeDegrees>-15.46764115802943706512451171875</LatitudeDegrees>
              <LongitudeDegrees>37.0021427236497402191162109375</LongitudeDegrees>
            </Position>
            <AltitudeMeters>673.20001220703125</AltitudeMeters>
            <DistanceMeters>1689.923827501</DistanceMeters>
          </Trackpoint>
          <Trackpoint>
            <Time>2021-08-01T10:17:20.000Z</Time>
            <Position>
              <LatitudeDegrees>-15.46764937229454517364501953125</LatitudeDegrees>
              <LongitudeDegrees>37.002189494669437408447265625</LongitudeDegrees>
            </Position>
            <AltitudeMeters>673.4000244140625</AltitudeMeters>
            <DistanceMeters>1695.0243814155</DistanceMeters>
          </Trackpoint>
          <Trackpoint>
            <Time>2021-08-01T10:17:30.000Z</Time>
            <Position>
              <LatitudeDegrees>-15.4676467739045619964599609375</LatitudeDegrees>
              <LongitudeDegrees>37.002306170761585235595703125</LongitudeDegrees>
            </Position>
            <AltitudeMeters>673.4000244140625</AltitudeMeters>
            <DistanceMeters>1707.5441284942</DistanceMeters>
          </Trackpoint>
          <Trackpoint>
            <Time>2021-08-01T10:17:31.000Z</Time>
            <Position>
              <LatitudeDegrees>-15.467645265161991119384765625</LatitudeDegrees>
              <LongitudeDegrees>37.0023187436163425445556640625</LongitudeDegrees>
            </Position>
            <AltitudeMeters>673.4000244140625</AltitudeMeters>
            <DistanceMeters>1708.9047039868</DistanceMeters>
          </Trackpoint>
          <Trackpoint>
            <Time>2021-08-01T10:17:41.000Z</Time>
            <Position>
              <LatitudeDegrees>-15.4676474444568157196044921875</LatitudeDegrees>
              <LongitudeDegrees>37.00244304724037647247314453125</LongitudeDegrees>
            </Position>
            <AltitudeMeters>674.20001220703125</AltitudeMeters>
            <DistanceMeters>1722.2409847892</DistanceMeters>
          </Trackpoint>
          <Trackpoint>
            <Time>2021-08-01T10:17:42.000Z</Time>
            <Position>
              <LatitudeDegrees>-15.46764786355197429656982421875</LatitudeDegrees>
              <LongitudeDegrees>37.0024560391902923583984375</LongitudeDegrees>
            </Position>
            <AltitudeMeters>674.20001220703125</AltitudeMeters>
            <DistanceMeters>1723.637586562</DistanceMeters>
          </Trackpoint>
          <Trackpoint>
            <Time>2021-08-01T10:17:48.000Z</Time>
            <Position>
              <LatitudeDegrees>-15.46765574254095554351806640625</LatitudeDegrees>
              <LongitudeDegrees>37.0025311410427093505859375</LongitudeDegrees>
            </Position>
            <AltitudeMeters>674.4000244140625</AltitudeMeters>
            <DistanceMeters>1731.7416439395</DistanceMeters>
          </Trackpoint>
          <Trackpoint>
            <Time>2021-08-01T10:17:52.000Z</Time>
            <Position>
              <LatitudeDegrees>-15.4676578380167484283447265625</LatitudeDegrees>
              <LongitudeDegrees>37.002579756081104278564453125</LongitudeDegrees>
            </Position>
            <AltitudeMeters>674.5999755859375</AltitudeMeters>
            <DistanceMeters>1736.9603325252</DistanceMeters>
          </Trackpoint>
          <Trackpoint>
            <Time>2021-08-01T10:17:56.000Z</Time>
            <Position>
              <LatitudeDegrees>-15.46765909530222415924072265625</LatitudeDegrees>
              <LongitudeDegrees>37.002628035843372344970703125</LongitudeDegrees>
            </Position>
            <AltitudeMeters>675</AltitudeMeters>
            <DistanceMeters>1742.1416853667</DistanceMeters>
          </Trackpoint>
          <Trackpoint>
            <Time>2021-08-01T10:18:00.000Z</Time>
            <Position>
              <LatitudeDegrees>-15.4676575027406215667724609375</LatitudeDegrees>
              <LongitudeDegrees>37.00267706997692584991455078125</LongitudeDegrees>
            </Position>
            <AltitudeMeters>675.20001220703125</AltitudeMeters>
            <DistanceMeters>1747.4034544967</DistanceMeters>
          </Trackpoint>
          <Trackpoint>
            <Time>2021-08-01T10:18:03.000Z</Time>
            <Position>
              <LatitudeDegrees>-15.467662028968334197998046875</LatitudeDegrees>
              <LongitudeDegrees>37.0027103461325168609619140625</LongitudeDegrees>
            </Position>
            <AltitudeMeters>675.4000244140625</AltitudeMeters>
            <DistanceMeters>1751.008212464</DistanceMeters>
          </Trackpoint>
          <Trackpoint>
            <Time>2021-08-01T10:18:15.000Z</Time>
            <Position>
              <LatitudeDegrees>-15.4676833190023899078369140625</LatitudeDegrees>
              <LongitudeDegrees>37.0028528384864330291748046875</LongitudeDegrees>
            </Position>
            <AltitudeMeters>675.79998779296875</AltitudeMeters>
            <DistanceMeters>1766.4759813846</DistanceMeters>
          </Trackpoint>
          <Trackpoint>
            <Time>2021-08-01T10:18:26.000Z</Time>
            <Position>
              <LatitudeDegrees>-15.4676967300474643707275390625</LatitudeDegrees>
              <LongitudeDegrees>37.002970017492771148681640625</LongitudeDegrees>
            </Position>
            <AltitudeMeters>676.20001220703125</AltitudeMeters>
            <DistanceMeters>1779.133810833</DistanceMeters>
          </Trackpoint>
          <Trackpoint>
            <Time>2021-08-01T10:18:28.000Z</Time>
            <Position>
              <LatitudeDegrees>-15.46769765205681324005126953125</LatitudeDegrees>
              <LongitudeDegrees>37.00299189426004886627197265625</LongitudeDegrees>
            </Position>
            <AltitudeMeters>676.4000244140625</AltitudeMeters>
            <DistanceMeters>1781.4827205178</DistanceMeters>
          </Trackpoint>
          <Trackpoint>
            <Time>2021-08-01T10:18:30.000Z</Time>
            <Position>
              <LatitudeDegrees>-15.467699579894542694091796875</LatitudeDegrees>
              <LongitudeDegrees>37.0030144415795803070068359375</LongitudeDegrees>
            </Position>
            <AltitudeMeters>676.4000244140625</AltitudeMeters>
            <DistanceMeters>1783.9091602639</DistanceMeters>
          </Trackpoint>
          <Trackpoint>
            <Time>2021-08-01T10:18:35.000Z</Time>
            <Position>
              <LatitudeDegrees>-15.467715673148632049560546875</LatitudeDegrees>
              <LongitudeDegrees>37.00307428836822509765625</LongitudeDegrees>
            </Position>
            <AltitudeMeters>676.4000244140625</AltitudeMeters>
            <DistanceMeters>1790.573914275</DistanceMeters>
          </Trackpoint>
          <Trackpoint>
            <Time>2021-08-01T10:18:37.000Z</Time>
            <Position>
              <LatitudeDegrees>-15.46771609224379062652587890625</LatitudeDegrees>
              <LongitudeDegrees>37.00309063307940959930419921875</LongitudeDegrees>
            </Position>
            <AltitudeMeters>676.4000244140625</AltitudeMeters>
            <DistanceMeters>1792.3286951922</DistanceMeters>
          </Trackpoint>
          <Trackpoint>
            <Time>2021-08-01T10:18:41.000Z</Time>
            <Position>
              <LatitudeDegrees>-15.46772263012826442718505859375</LatitudeDegrees>
              <LongitudeDegrees>37.00313338078558444976806640625</LongitudeDegrees>
            </Position>
            <AltitudeMeters>676.5999755859375</AltitudeMeters>
            <DistanceMeters>1796.9723815024</DistanceMeters>
          </Trackpoint>
          <Trackpoint>
            <Time>2021-08-01T10:18:49.000Z</Time>
            <Position>
              <LatitudeDegrees>-15.4677597619593143463134765625</LatitudeDegrees>
              <LongitudeDegrees>37.0032347179949283599853515625</LongitudeDegrees>
            </Position>
            <AltitudeMeters>677.20001220703125</AltitudeMeters>
            <DistanceMeters>1808.6018034529</DistanceMeters>
          </Trackpoint>
          <Trackpoint>
            <Time>2021-08-01T10:19:00.000Z</Time>
            <Position>
              <LatitudeDegrees>-15.46782522462308406829833984375</LatitudeDegrees>
              <LongitudeDegrees>37.0033617876470088958740234375</LongitudeDegrees>
            </Position>
            <AltitudeMeters>677.4000244140625</AltitudeMeters>
            <DistanceMeters>1824.0573077207</DistanceMeters>
          </Trackpoint>
          <Trackpoint>
            <Time>2021-08-01T10:19:02.000Z</Time>
            <Position>
              <LatitudeDegrees>-15.467845760285854339599609375</LatitudeDegrees>
              <LongitudeDegrees>37.00337796472012996673583984375</LongitudeDegrees>
            </Position>
            <AltitudeMeters>677.5999755859375</AltitudeMeters>
            <DistanceMeters>1826.9254778064</DistanceMeters>
          </Trackpoint>
          <Trackpoint>
            <Time>2021-08-01T10:19:10.000Z</Time>
            <Position>
              <LatitudeDegrees>-15.467907451093196868896484375</LatitudeDegrees>
              <LongitudeDegrees>37.0034667290747165679931640625</LongitudeDegrees>
            </Position>
            <AltitudeMeters>677.5999755859375</AltitudeMeters>
            <DistanceMeters>1838.6646428794</DistanceMeters>
          </Trackpoint>
          <Trackpoint>
            <Time>2021-08-01T10:19:20.000Z</Time>
            <Position>
              <LatitudeDegrees>-15.4679773561656475067138671875</LatitudeDegrees>
              <LongitudeDegrees>37.00356706045567989349365234375</LongitudeDegrees>
            </Position>
            <AltitudeMeters>678.20001220703125</AltitudeMeters>
            <DistanceMeters>1851.9449449477</DistanceMeters>
          </Trackpoint>
          <Trackpoint>
            <Time>2021-08-01T10:19:26.000Z</Time>
            <Position>
              <LatitudeDegrees>-15.46801750548183917999267578125</LatitudeDegrees>
              <LongitudeDegrees>37.0036316849291324615478515625</LongitudeDegrees>
            </Position>
            <AltitudeMeters>678.4000244140625</AltitudeMeters>
            <DistanceMeters>1860.1925849649</DistanceMeters>
          </Trackpoint>
          <Trackpoint>
            <Time>2021-08-01T10:19:28.000Z</Time>
            <Position>
              <LatitudeDegrees>-15.468028485774993896484375</LatitudeDegrees>
              <LongitudeDegrees>37.00365875847637653350830078125</LongitudeDegrees>
            </Position>
            <AltitudeMeters>678.5999755859375</AltitudeMeters>
            <DistanceMeters>1863.3428316238</DistanceMeters>
          </Trackpoint>
          <Trackpoint>
            <Time>2021-08-01T10:19:29.000Z</Time>
            <Position>
              <LatitudeDegrees>-15.468033850193023681640625</LatitudeDegrees>
              <LongitudeDegrees>37.0036729238927364349365234375</LongitudeDegrees>
            </Position>
            <AltitudeMeters>678.5999755859375</AltitudeMeters>
            <DistanceMeters>1864.9749690417</DistanceMeters>
          </Trackpoint>
          <Trackpoint>
            <Time>2021-08-01T10:19:34.000Z</Time>
            <Position>
              <LatitudeDegrees>-15.4680571518838405609130859375</LatitudeDegrees>
              <LongitudeDegrees>37.00373268686234951019287109375</LongitudeDegrees>
            </Position>
            <AltitudeMeters>678.79998779296875</AltitudeMeters>
            <DistanceMeters>1871.8904071946</DistanceMeters>
          </Trackpoint>
          <Trackpoint>
            <Time>2021-08-01T10:19:39.000Z</Time>
            <Position>
              <LatitudeDegrees>-15.46808640472590923309326171875</LatitudeDegrees>
              <LongitudeDegrees>37.00379370711743831634521484375</LongitudeDegrees>
            </Position>
            <AltitudeMeters>679</AltitudeMeters>
            <DistanceMeters>1879.2006734275</DistanceMeters>
          </Trackpoint>
          <Trackpoint>
            <Time>2021-08-01T10:19:46.000Z</Time>
            <Position>
              <LatitudeDegrees>-15.46812035143375396728515625</LatitudeDegrees>
              <LongitudeDegrees>37.0038677193224430084228515625</LongitudeDegrees>
            </Position>
            <AltitudeMeters>679.20001220703125</AltitudeMeters>
            <DistanceMeters>1887.9930840433</DistanceMeters>
          </Trackpoint>
          <Trackpoint>
            <Time>2021-08-01T10:19:51.000Z</Time>
            <Position>
              <LatitudeDegrees>-15.46813552267849445343017578125</LatitudeDegrees>
              <LongitudeDegrees>37.00392412953078746795654296875</LongitudeDegrees>
            </Position>
            <AltitudeMeters>679</AltitudeMeters>
            <DistanceMeters>1894.2756364017</DistanceMeters>
          </Trackpoint>
          <Trackpoint>
            <Time>2021-08-01T10:20:03.000Z</Time>
            <Position>
              <LatitudeDegrees>-15.4681493528187274932861328125</LatitudeDegrees>
              <LongitudeDegrees>37.0040675438940525054931640625</LongitudeDegrees>
            </Position>
            <AltitudeMeters>679.4000244140625</AltitudeMeters>
            <DistanceMeters>1909.73669017</DistanceMeters>
          </Trackpoint>
          <Trackpoint>
            <Time>2021-08-01T10:20:16.000Z</Time>
            <Position>
              <LatitudeDegrees>-15.4681376181542873382568359375</LatitudeDegrees>
              <LongitudeDegrees>37.00421481393277645111083984375</LongitudeDegrees>
            </Position>
            <AltitudeMeters>679.20001220703125</AltitudeMeters>
            <DistanceMeters>1925.5885019657</DistanceMeters>
          </Trackpoint>
          <Trackpoint>
            <Time>2021-08-01T10:20:24.000Z</Time>
            <Position>
              <LatitudeDegrees>-15.46814759261906147003173828125</LatitudeDegrees>
              <LongitudeDegrees>37.00423895381391048431396484375</LongitudeDegrees>
            </Position>
            <AltitudeMeters>679.4000244140625</AltitudeMeters>
            <DistanceMeters>1928.404244695</DistanceMeters>
          </Trackpoint>
          <Trackpoint>
            <Time>2021-08-01T10:20:32.000Z</Time>
            <Position>
              <LatitudeDegrees>-15.46811121515929698944091796875</LatitudeDegrees>
              <LongitudeDegrees>37.00431690551340579986572265625</LongitudeDegrees>
            </Position>
            <AltitudeMeters>679.79998779296875</AltitudeMeters>
            <DistanceMeters>1937.6950197287</DistanceMeters>
          </Trackpoint>
          <Trackpoint>
            <Time>2021-08-01T10:20:33.000Z</Time>
            <Position>
              <LatitudeDegrees>-15.46811289153993129730224609375</LatitudeDegrees>
              <LongitudeDegrees>37.00432981364428997039794921875</LongitudeDegrees>
            </Position>
            <AltitudeMeters>679.79998779296875</AltitudeMeters>
            <DistanceMeters>1939.0948506429</DistanceMeters>
          </Trackpoint>
          <Trackpoint>
            <Time>2021-08-01T10:20:44.000Z</Time>
            <Position>
              <LatitudeDegrees>-15.4680906794965267181396484375</LatitudeDegrees>
              <LongitudeDegrees>37.00445906259119510650634765625</LongitudeDegrees>
            </Position>
            <AltitudeMeters>680.20001220703125</AltitudeMeters>
            <DistanceMeters>1953.1783739625</DistanceMeters>
          </Trackpoint>
          <Trackpoint>
            <Time>2021-08-01T10:20:47.000Z</Time>
            <Position>
              <LatitudeDegrees>-15.46807743608951568603515625</LatitudeDegrees>
              <LongitudeDegrees>37.0044923387467861175537109375</LongitudeDegrees>
            </Position>
            <AltitudeMeters>680.20001220703125</AltitudeMeters>
            <DistanceMeters>1957.0395468683</DistanceMeters>
          </Trackpoint>
          <Trackpoint>
            <Time>2021-08-01T10:20:53.000Z</Time>
            <Position>
              <LatitudeDegrees>-15.46803426928818225860595703125</LatitudeDegrees>
              <LongitudeDegrees>37.00455612502992153167724609375</LongitudeDegrees>
            </Position>
            <AltitudeMeters>680.4000244140625</AltitudeMeters>
            <DistanceMeters>1965.4002778024</DistanceMeters>
          </Trackpoint>
          <Trackpoint>
            <Time>2021-08-01T10:21:01.000Z</Time>
            <Position>
              <LatitudeDegrees>-15.467997975647449493408203125</LatitudeDegrees>
              <LongitudeDegrees>37.00464832596480846405029296875</LongitudeDegrees>
            </Position>
            <AltitudeMeters>680.20001220703125</AltitudeMeters>
            <DistanceMeters>1976.0834953035</DistanceMeters>
          </Trackpoint>
          <Trackpoint>
            <Time>2021-08-01T10:21:13.000Z</Time>
            <Position>
              <LatitudeDegrees>-15.4679518751800060272216796875</LatitudeDegrees>
              <LongitudeDegrees>37.00478998012840747833251953125</LongitudeDegrees>
            </Position>
            <AltitudeMeters>680.4000244140625</AltitudeMeters>
            <DistanceMeters>1992.1219103618</DistanceMeters>
          </Trackpoint>
          <Trackpoint>
            <Time>2021-08-01T10:21:20.000Z</Time>
            <Position>
              <LatitudeDegrees>-15.4679203592240810394287109375</LatitudeDegrees>
              <LongitudeDegrees>37.004873715341091156005859375</LongitudeDegrees>
            </Position>
            <AltitudeMeters>679.4000244140625</AltitudeMeters>
            <DistanceMeters>2001.7646639697</DistanceMeters>
          </Trackpoint>
          <Trackpoint>
            <Time>2021-08-01T10:21:24.000Z</Time>
            <Position>
              <LatitudeDegrees>-15.4679237119853496551513671875</LatitudeDegrees>
              <LongitudeDegrees>37.00491822324693202972412109375</LongitudeDegrees>
            </Position>
            <AltitudeMeters>678.79998779296875</AltitudeMeters>
            <DistanceMeters>2006.5538595356</DistanceMeters>
          </Trackpoint>
          <Trackpoint>
            <Time>2021-08-01T10:21:26.000Z</Time>
            <Position>
              <LatitudeDegrees>-15.46792530454695224761962890625</LatitudeDegrees>
              <LongitudeDegrees>37.00494286604225635528564453125</LongitudeDegrees>
            </Position>
            <AltitudeMeters>678.5999755859375</AltitudeMeters>
            <DistanceMeters>2009.2044065496</DistanceMeters>
          </Trackpoint>
          <Trackpoint>
            <Time>2021-08-01T10:21:33.000Z</Time>
            <Position>
              <LatitudeDegrees>-15.467903427779674530029296875</LatitudeDegrees>
              <LongitudeDegrees>37.00503339059650897979736328125</LongitudeDegrees>
            </Position>
            <AltitudeMeters>677.79998779296875</AltitudeMeters>
            <DistanceMeters>2019.2156411613</DistanceMeters>
          </Trackpoint>
          <Trackpoint>
            <Time>2021-08-01T10:21:37.000Z</Time>
            <Position>
              <LatitudeDegrees>-15.46789127402007579803466796875</LatitudeDegrees>
              <LongitudeDegrees>37.00507513247430324554443359375</LongitudeDegrees>
            </Position>
            <AltitudeMeters>677.4000244140625</AltitudeMeters>
            <DistanceMeters>2023.8932340491</DistanceMeters>
          </Trackpoint>
          <Trackpoint>
            <Time>2021-08-01T10:21:44.000Z</Time>
            <Position>
              <LatitudeDegrees>-15.46787132509052753448486328125</LatitudeDegrees>
              <LongitudeDegrees>37.0051581971347332000732421875</LongitudeDegrees>
            </Position>
            <AltitudeMeters>676.5999755859375</AltitudeMeters>
            <DistanceMeters>2033.0764733419</DistanceMeters>
          </Trackpoint>
          <Trackpoint>
            <Time>2021-08-01T10:21:46.000Z</Time>
            <Position>
              <LatitudeDegrees>-15.467862524092197418212890625</LatitudeDegrees>
              <LongitudeDegrees>37.0051826722919940948486328125</LongitudeDegrees>
            </Position>
            <AltitudeMeters>676.5999755859375</AltitudeMeters>
            <DistanceMeters>2035.8793587314</DistanceMeters>
          </Trackpoint>
          <Trackpoint>
            <Time>2021-08-01T10:21:47.000Z</Time>
            <Position>
              <LatitudeDegrees>-15.46785674057900905609130859375</LatitudeDegrees>
              <LongitudeDegrees>37.005196250975131988525390625</LongitudeDegrees>
            </Position>
            <AltitudeMeters>676.5999755859375</AltitudeMeters>
            <DistanceMeters>2037.4694597987</DistanceMeters>
          </Trackpoint>
          <Trackpoint>
            <Time>2021-08-01T10:21:49.000Z</Time>
            <Position>
              <LatitudeDegrees>-15.467847771942615509033203125</LatitudeDegrees>
              <LongitudeDegrees>37.00522298924624919891357421875</LongitudeDegrees>
            </Position>
            <AltitudeMeters>676.20001220703125</AltitudeMeters>
            <DistanceMeters>2040.505857014</DistanceMeters>
          </Trackpoint>
          <Trackpoint>
            <Time>2021-08-01T10:21:56.000Z</Time>
            <Position>
              <LatitudeDegrees>-15.46781483106315135955810546875</LatitudeDegrees>
              <LongitudeDegrees>37.00530496425926685333251953125</LongitudeDegrees>
            </Position>
            <AltitudeMeters>675</AltitudeMeters>
            <DistanceMeters>2050.033203361</DistanceMeters>
          </Trackpoint>
          <Trackpoint>
            <Time>2021-08-01T10:21:57.000Z</Time>
            <Position>
              <LatitudeDegrees>-15.46780862845480442047119140625</LatitudeDegrees>
              <LongitudeDegrees>37.0053164474666118621826171875</LongitudeDegrees>
            </Position>
            <AltitudeMeters>675</AltitudeMeters>
            <DistanceMeters>2051.4458770296</DistanceMeters>
          </Trackpoint>
          <Trackpoint>
            <Time>2021-08-01T10:22:03.000Z</Time>
            <Position>
              <LatitudeDegrees>-15.46777577139437198638916015625</LatitudeDegrees>
              <LongitudeDegrees>37.00538610108196735382080078125</LongitudeDegrees>
            </Position>
            <AltitudeMeters>674.5999755859375</AltitudeMeters>
            <DistanceMeters>2059.7643790456</DistanceMeters>
          </Trackpoint>
          <Trackpoint>
            <Time>2021-08-01T10:22:08.000Z</Time>
            <Position>
              <LatitudeDegrees>-15.467741489410400390625</LatitudeDegrees>
              <LongitudeDegrees>37.00543555431067943572998046875</LongitudeDegrees>
            </Position>
            <AltitudeMeters>674</AltitudeMeters>
            <DistanceMeters>2066.2984590441</DistanceMeters>
          </Trackpoint>
          <Trackpoint>
            <Time>2021-08-01T10:22:14.000Z</Time>
            <Position>
              <LatitudeDegrees>-15.46771793626248836517333984375</LatitudeDegrees>
              <LongitudeDegrees>37.00550143606960773468017578125</LongitudeDegrees>
            </Position>
            <AltitudeMeters>673</AltitudeMeters>
            <DistanceMeters>2073.8367792192</DistanceMeters>
          </Trackpoint>
          <Trackpoint>
            <Time>2021-08-01T10:22:15.000Z</Time>
            <Position>
              <LatitudeDegrees>-15.4677134938538074493408203125</LatitudeDegrees>
              <LongitudeDegrees>37.0055030286312103271484375</LongitudeDegrees>
            </Position>
            <AltitudeMeters>672.79998779296875</AltitudeMeters>
            <DistanceMeters>2074.365865573</DistanceMeters>
          </Trackpoint>
          <Trackpoint>
            <Time>2021-08-01T10:22:22.000Z</Time>
            <Position>
              <LatitudeDegrees>-15.46768574975430965423583984375</LatitudeDegrees>
              <LongitudeDegrees>37.0055263303220272064208984375</LongitudeDegrees>
            </Position>
            <AltitudeMeters>672.79998779296875</AltitudeMeters>
            <DistanceMeters>2078.338846019</DistanceMeters>
          </Trackpoint>
          <Trackpoint>
            <Time>2021-08-01T10:22:23.000Z</Time>
            <Position>
              <LatitudeDegrees>-15.4676829837262630462646484375</LatitudeDegrees>
              <LongitudeDegrees>37.0055378973484039306640625</LongitudeDegrees>
            </Position>
            <AltitudeMeters>672.5999755859375</AltitudeMeters>
            <DistanceMeters>2079.6172997085</DistanceMeters>
          </Trackpoint>
          <Trackpoint>
            <Time>2021-08-01T10:22:31.000Z</Time>
            <Position>
              <LatitudeDegrees>-15.46763713471591472625732421875</LatitudeDegrees>
              <LongitudeDegrees>37.00563915073871612548828125</LongitudeDegrees>
            </Position>
            <AltitudeMeters>671.79998779296875</AltitudeMeters>
            <DistanceMeters>2091.6177854957</DistanceMeters>
          </Trackpoint>
          <Trackpoint>
            <Time>2021-08-01T10:22:37.000Z</Time>
            <Position>
              <LatitudeDegrees>-15.46759824268519878387451171875</LatitudeDegrees>
              <LongitudeDegrees>37.005697153508663177490234375</LongitudeDegrees>
            </Position>
            <AltitudeMeters>671.4000244140625</AltitudeMeters>
            <DistanceMeters>2099.1973202002</DistanceMeters>
          </Trackpoint>
          <Trackpoint>
            <Time>2021-08-01T10:22:41.000Z</Time>
            <Position>
              <LatitudeDegrees>-15.4675763659179210662841796875</LatitudeDegrees>
              <LongitudeDegrees>37.00573596172034740447998046875</LongitudeDegrees>
            </Position>
            <AltitudeMeters>670.79998779296875</AltitudeMeters>
            <DistanceMeters>2104.020335535</DistanceMeters>
          </Trackpoint>
          <Trackpoint>
            <Time>2021-08-01T10:22:54.000Z</Time>
            <Position>
              <LatitudeDegrees>-15.467494390904903411865234375</LatitudeDegrees>
              <LongitudeDegrees>37.0058914460241794586181640625</LongitudeDegrees>
            </Position>
            <AltitudeMeters>669.79998779296875</AltitudeMeters>
            <DistanceMeters>2123.031854142</DistanceMeters>
          </Trackpoint>
          <Trackpoint>
            <Time>2021-08-01T10:23:04.000Z</Time>
            <Position>
              <LatitudeDegrees>-15.467415936291217803955078125</LatitudeDegrees>
              <LongitudeDegrees>37.00600418262183666229248046875</LongitudeDegrees>
            </Position>
            <AltitudeMeters>668.5999755859375</AltitudeMeters>
            <DistanceMeters>2137.9483243538</DistanceMeters>
          </Trackpoint>
          <Trackpoint>
            <Time>2021-08-01T10:23:08.000Z</Time>
            <Position>
              <LatitudeDegrees>-15.4673906229436397552490234375</LatitudeDegrees>
              <LongitudeDegrees>37.0060448348522186279296875</LongitudeDegrees>
            </Position>
            <AltitudeMeters>668.5999755859375</AltitudeMeters>
            <DistanceMeters>2143.1401234818</DistanceMeters>
          </Trackpoint>
          <Trackpoint>
            <Time>2021-08-01T10:23:15.000Z</Time>
            <Position>
              <LatitudeDegrees>-15.467327423393726348876953125</LatitudeDegrees>
              <LongitudeDegrees>37.00612186454236507415771484375</LongitudeDegrees>
            </Position>
            <AltitudeMeters>668</AltitudeMeters>
            <DistanceMeters>2153.991907985</DistanceMeters>
          </Trackpoint>
          <Trackpoint>
            <Time>2021-08-01T10:23:19.000Z</Time>
            <Position>
              <LatitudeDegrees>-15.467299930751323699951171875</LatitudeDegrees>
              <LongitudeDegrees>37.00615623034536838531494140625</LongitudeDegrees>
            </Position>
            <AltitudeMeters>667.20001220703125</AltitudeMeters>
            <DistanceMeters>2158.7829886899</DistanceMeters>
          </Trackpoint>
          <Trackpoint>
            <Time>2021-08-01T10:23:23.000Z</Time>
            <Position>
              <LatitudeDegrees>-15.46727352775633335113525390625</LatitudeDegrees>
              <LongitudeDegrees>37.0061925239861011505126953125</LongitudeDegrees>
            </Position>
            <AltitudeMeters>667</AltitudeMeters>
            <DistanceMeters>2163.6609238504</DistanceMeters>
          </Trackpoint>
          <Trackpoint>
            <Time>2021-08-01T10:23:27.000Z</Time>
            <Position>
              <LatitudeDegrees>-15.4672305285930633544921875</LatitudeDegrees>
              <LongitudeDegrees>37.00623787008225917816162109375</LongitudeDegrees>
            </Position>
            <AltitudeMeters>666.5999755859375</AltitudeMeters>
            <DistanceMeters>2170.4850065156</DistanceMeters>
          </Trackpoint>
          <Trackpoint>
            <Time>2021-08-01T10:23:32.000Z</Time>
            <Position>
              <LatitudeDegrees>-15.46719121746718883514404296875</LatitudeDegrees>
              <LongitudeDegrees>37.00628128834068775177001953125</LongitudeDegrees>
            </Position>
            <AltitudeMeters>666</AltitudeMeters>
            <DistanceMeters>2176.8751556281</DistanceMeters>
          </Trackpoint>
          <Trackpoint>
            <Time>2021-08-01T10:23:34.000Z</Time>
            <Position>
              <LatitudeDegrees>-15.46717596240341663360595703125</LatitudeDegrees>
              <LongitudeDegrees>37.00629763305187225341796875</LongitudeDegrees>
            </Position>
            <AltitudeMeters>666</AltitudeMeters>
            <DistanceMeters>2179.3145859666</DistanceMeters>
          </Trackpoint>
          <Trackpoint>
            <Time>2021-08-01T10:23:40.000Z</Time>
            <Position>
              <LatitudeDegrees>-15.46711628325283527374267578125</LatitudeDegrees>
              <LongitudeDegrees>37.00635253451764583587646484375</LongitudeDegrees>
            </Position>
            <AltitudeMeters>664.79998779296875</AltitudeMeters>
            <DistanceMeters>2188.1923394664</DistanceMeters>
          </Trackpoint>
          <Trackpoint>
            <Time>2021-08-01T10:23:46.000Z</Time>
            <Position>
              <LatitudeDegrees>-15.46706280671060085296630859375</LatitudeDegrees>
              <LongitudeDegrees>37.00640383176505565643310546875</LongitudeDegrees>
            </Position>
            <AltitudeMeters>664.20001220703125</AltitudeMeters>
            <DistanceMeters>2196.2980680707</DistanceMeters>
          </Trackpoint>
          <Trackpoint>
            <Time>2021-08-01T10:23:51.000Z</Time>
            <Position>
              <LatitudeDegrees>-15.46701662242412567138671875</LatitudeDegrees>
              <LongitudeDegrees>37.00645764358341693878173828125</LongitudeDegrees>
            </Position>
            <AltitudeMeters>663.4000244140625</AltitudeMeters>
            <DistanceMeters>2204.0274267603</DistanceMeters>
          </Trackpoint>
          <Trackpoint>
            <Time>2021-08-01T10:23:54.000Z</Time>
            <Position>
              <LatitudeDegrees>-15.466993488371372222900390625</LatitudeDegrees>
              <LongitudeDegrees>37.0064848847687244415283203125</LongitudeDegrees>
            </Position>
            <AltitudeMeters>663.20001220703125</AltitudeMeters>
            <DistanceMeters>2207.9223630147</DistanceMeters>
          </Trackpoint>
          <Trackpoint>
            <Time>2021-08-01T10:23:57.000Z</Time>
            <Position>
              <LatitudeDegrees>-15.4669685102999210357666015625</LatitudeDegrees>
              <LongitudeDegrees>37.00651128776371479034423828125</LongitudeDegrees>
            </Position>
            <AltitudeMeters>662.79998779296875</AltitudeMeters>
            <DistanceMeters>2211.8907951129</DistanceMeters>
          </Trackpoint>
          <Trackpoint>
            <Time>2021-08-01T10:23:58.000Z</Time>
            <Position>
              <LatitudeDegrees>-15.46696390025317668914794921875</LatitudeDegrees>
              <LongitudeDegrees>37.006517909467220306396484375</LongitudeDegrees>
            </Position>
            <AltitudeMeters>662.4000244140625</AltitudeMeters>
            <DistanceMeters>2212.7668981307</DistanceMeters>
          </Trackpoint>
          <Trackpoint>
            <Time>2021-08-01T10:24:03.000Z</Time>
            <Position>
              <LatitudeDegrees>-15.466957278549671173095703125</LatitudeDegrees>
              <LongitudeDegrees>37.0065204240381717681884765625</LongitudeDegrees>
            </Position>
            <AltitudeMeters>662</AltitudeMeters>
            <DistanceMeters>2213.5505084919</DistanceMeters>
          </Trackpoint>
          <Trackpoint>
            <Time>2021-08-01T10:24:10.000Z</Time>
            <Position>
              <LatitudeDegrees>-15.46695853583514690399169921875</LatitudeDegrees>
              <LongitudeDegrees>37.0065204240381717681884765625</LongitudeDegrees>
            </Position>
            <AltitudeMeters>661.79998779296875</AltitudeMeters>
            <DistanceMeters>2213.6848965601</DistanceMeters>
          </Trackpoint>
          <Trackpoint>
            <Time>2021-08-01T10:24:18.000Z</Time>
            <Position>
              <LatitudeDegrees>-15.46695627272129058837890625</LatitudeDegrees>
              <LongitudeDegrees>37.00652168132364749908447265625</LongitudeDegrees>
            </Position>
            <AltitudeMeters>662</AltitudeMeters>
            <DistanceMeters>2213.9699767033</DistanceMeters>
          </Trackpoint>
          <Trackpoint>
            <Time>2021-08-01T10:24:30.000Z</Time>
            <Position>
              <LatitudeDegrees>-15.4669540934264659881591796875</LatitudeDegrees>
              <LongitudeDegrees>37.0065224356949329376220703125</LongitudeDegrees>
            </Position>
            <AltitudeMeters>662.20001220703125</AltitudeMeters>
            <DistanceMeters>2214.2213937574</DistanceMeters>
          </Trackpoint>
          <Trackpoint>
            <Time>2021-08-01T10:24:33.000Z</Time>
            <Position>
              <LatitudeDegrees>-15.46692064963281154632568359375</LatitudeDegrees>
              <LongitudeDegrees>37.006564848124980926513671875</LongitudeDegrees>
            </Position>
            <AltitudeMeters>661.5999755859375</AltitudeMeters>
            <DistanceMeters>2220.0992396617</DistanceMeters>
          </Trackpoint>
          <Trackpoint>
            <Time>2021-08-01T10:24:36.000Z</Time>
            <Position>
              <LatitudeDegrees>-15.4668813385069370269775390625</LatitudeDegrees>
              <LongitudeDegrees>37.00660147704184055328369140625</LongitudeDegrees>
            </Position>
            <AltitudeMeters>661.4000244140625</AltitudeMeters>
            <DistanceMeters>2225.9809250372</DistanceMeters>
          </Trackpoint>
          <Trackpoint>
            <Time>2021-08-01T10:24:41.000Z</Time>
            <Position>
              <LatitudeDegrees>-15.46684403903782367706298828125</LatitudeDegrees>
              <LongitudeDegrees>37.00664673931896686553955078125</LongitudeDegrees>
            </Position>
            <AltitudeMeters>661</AltitudeMeters>
            <DistanceMeters>2232.3696608689</DistanceMeters>
          </Trackpoint>
          <Trackpoint>
            <Time>2021-08-01T10:24:43.000Z</Time>
            <Position>
              <LatitudeDegrees>-15.4668246768414974212646484375</LatitudeDegrees>
              <LongitudeDegrees>37.00666383840143680572509765625</LongitudeDegrees>
            </Position>
            <AltitudeMeters>660.5999755859375</AltitudeMeters>
            <DistanceMeters>2235.199798287</DistanceMeters>
          </Trackpoint>
          <Trackpoint>
            <Time>2021-08-01T10:24:46.000Z</Time>
            <Position>
              <LatitudeDegrees>-15.46679056249558925628662109375</LatitudeDegrees>
              <LongitudeDegrees>37.0066937617957592010498046875</LongitudeDegrees>
            </Position>
            <AltitudeMeters>660.20001220703125</AltitudeMeters>
            <DistanceMeters>2240.1721568123</DistanceMeters>
          </Trackpoint>
          <Trackpoint>
            <Time>2021-08-01T10:24:48.000Z</Time>
            <Position>
              <LatitudeDegrees>-15.46676910482347011566162109375</LatitudeDegrees>
              <LongitudeDegrees>37.00671337544918060302734375</LongitudeDegrees>
            </Position>
            <AltitudeMeters>659.79998779296875</AltitudeMeters>
            <DistanceMeters>2243.3537783633</DistanceMeters>
          </Trackpoint>
          <Trackpoint>
            <Time>2021-08-01T10:24:51.000Z</Time>
            <Position>
              <LatitudeDegrees>-15.46674865297973155975341796875</LatitudeDegrees>
              <LongitudeDegrees>37.00673910789191722869873046875</LongitudeDegrees>
            </Position>
            <AltitudeMeters>659.5999755859375</AltitudeMeters>
            <DistanceMeters>2246.9308747166</DistanceMeters>
          </Trackpoint>
          <Trackpoint>
            <Time>2021-08-01T10:24:53.000Z</Time>
            <Position>
              <LatitudeDegrees>-15.46673390083014965057373046875</LatitudeDegrees>
              <LongitudeDegrees>37.006756626069545745849609375</LongitudeDegrees>
            </Position>
            <AltitudeMeters>659.20001220703125</AltitudeMeters>
            <DistanceMeters>2249.4252128392</DistanceMeters>
          </Trackpoint>
          <Trackpoint>
            <Time>2021-08-01T10:25:00.000Z</Time>
            <Position>
              <LatitudeDegrees>-15.46667656861245632171630859375</LatitudeDegrees>
              <LongitudeDegrees>37.00681068934500217437744140625</LongitudeDegrees>
            </Position>
            <AltitudeMeters>658</AltitudeMeters>
            <DistanceMeters>2258.048069062</DistanceMeters>
          </Trackpoint>
          <Trackpoint>
            <Time>2021-08-01T10:25:03.000Z</Time>
            <Position>
              <LatitudeDegrees>-15.46664035879075527191162109375</LatitudeDegrees>
              <LongitudeDegrees>37.0068369247019290924072265625</LongitudeDegrees>
            </Position>
            <AltitudeMeters>658</AltitudeMeters>
            <DistanceMeters>2262.9628889456</DistanceMeters>
          </Trackpoint>
          <Trackpoint>
            <Time>2021-08-01T10:25:09.000Z</Time>
            <Position>
              <LatitudeDegrees>-15.4665943421423435211181640625</LatitudeDegrees>
              <LongitudeDegrees>37.00687238015234470367431640625</LongitudeDegrees>
            </Position>
            <AltitudeMeters>657.5999755859375</AltitudeMeters>
            <DistanceMeters>2269.3424308204</DistanceMeters>
          </Trackpoint>
          <Trackpoint>
            <Time>2021-08-01T10:25:10.000Z</Time>
            <Position>
              <LatitudeDegrees>-15.466585792601108551025390625</LatitudeDegrees>
              <LongitudeDegrees>37.0068801753222942352294921875</LongitudeDegrees>
            </Position>
            <AltitudeMeters>656.79998779296875</AltitudeMeters>
            <DistanceMeters>2270.6102453207</DistanceMeters>
          </Trackpoint>
          <Trackpoint>
            <Time>2021-08-01T10:25:13.000Z</Time>
            <Position>
              <LatitudeDegrees>-15.46654983423650264739990234375</LatitudeDegrees>
              <LongitudeDegrees>37.00690858997404575347900390625</LongitudeDegrees>
            </Position>
            <AltitudeMeters>656.5999755859375</AltitudeMeters>
            <DistanceMeters>2275.6412794363</DistanceMeters>
          </Trackpoint>
          <Trackpoint>
            <Time>2021-08-01T10:25:20.000Z</Time>
            <Position>
              <LatitudeDegrees>-15.46649761497974395751953125</LatitudeDegrees>
              <LongitudeDegrees>37.00697958469390869140625</LongitudeDegrees>
            </Position>
            <AltitudeMeters>655.79998779296875</AltitudeMeters>
            <DistanceMeters>2285.2215558924</DistanceMeters>
          </Trackpoint>
          <Trackpoint>
            <Time>2021-08-01T10:25:21.000Z</Time>
            <Position>
              <LatitudeDegrees>-15.4664900712668895721435546875</LatitudeDegrees>
              <LongitudeDegrees>37.00698838569223880767822265625</LongitudeDegrees>
            </Position>
            <AltitudeMeters>655.79998779296875</AltitudeMeters>
            <DistanceMeters>2286.4822277189</DistanceMeters>
          </Trackpoint>
          <Trackpoint>
            <Time>2021-08-01T10:25:26.000Z</Time>
            <Position>
              <LatitudeDegrees>-15.4664330743253231048583984375</LatitudeDegrees>
              <LongitudeDegrees>37.00703884474933147430419921875</LongitudeDegrees>
            </Position>
            <AltitudeMeters>655.20001220703125</AltitudeMeters>
            <DistanceMeters>2294.8213295108</DistanceMeters>
          </Trackpoint>
          <Trackpoint>
            <Time>2021-08-01T10:25:30.000Z</Time>
            <Position>
              <LatitudeDegrees>-15.4663935117423534393310546875</LatitudeDegrees>
              <LongitudeDegrees>37.00707052834331989288330078125</LongitudeDegrees>
            </Position>
            <AltitudeMeters>654.79998779296875</AltitudeMeters>
            <DistanceMeters>2300.3834371956</DistanceMeters>
          </Trackpoint>
          <Trackpoint>
            <Time>2021-08-01T10:25:31.000Z</Time>
            <Position>
              <LatitudeDegrees>-15.46638362109661102294921875</LatitudeDegrees>
              <LongitudeDegrees>37.0070786587893962860107421875</LongitudeDegrees>
            </Position>
            <AltitudeMeters>654.79998779296875</AltitudeMeters>
            <DistanceMeters>2301.7897041479</DistanceMeters>
          </Trackpoint>
          <Trackpoint>
            <Time>2021-08-01T10:25:38.000Z</Time>
            <Position>
              <LatitudeDegrees>-15.46634565107524394989013671875</LatitudeDegrees>
              <LongitudeDegrees>37.0071564428508281707763671875</LongitudeDegrees>
            </Position>
            <AltitudeMeters>654.79998779296875</AltitudeMeters>
            <DistanceMeters>2311.1429592278</DistanceMeters>
          </Trackpoint>
          <Trackpoint>
            <Time>2021-08-01T10:25:46.000Z</Time>
            <Position>
              <LatitudeDegrees>-15.46628982760012149810791015625</LatitudeDegrees>
              <LongitudeDegrees>37.00725057162344455718994140625</LongitudeDegrees>
            </Position>
            <AltitudeMeters>654.79998779296875</AltitudeMeters>
            <DistanceMeters>2322.9988510089</DistanceMeters>
          </Trackpoint>
          <Trackpoint>
            <Time>2021-08-01T10:25:49.000Z</Time>
            <Position>
              <LatitudeDegrees>-15.46626568771898746490478515625</LatitudeDegrees>
              <LongitudeDegrees>37.00728527270257472991943359375</LongitudeDegrees>
            </Position>
            <AltitudeMeters>654.79998779296875</AltitudeMeters>
            <DistanceMeters>2327.589733105</DistanceMeters>
          </Trackpoint>
          <Trackpoint>
            <Time>2021-08-01T10:25:57.000Z</Time>
            <Position>
              <LatitudeDegrees>-15.466215647757053375244140625</LatitudeDegrees>
              <LongitudeDegrees>37.007376216351985931396484375</LongitudeDegrees>
            </Position>
            <AltitudeMeters>655</AltitudeMeters>
            <DistanceMeters>2338.8230001377</DistanceMeters>
          </Trackpoint>
          <Trackpoint>
            <Time>2021-08-01T10:26:04.000Z</Time>
            <Position>
              <LatitudeDegrees>-15.46628706157207489013671875</LatitudeDegrees>
              <LongitudeDegrees>37.00743178837001323699951171875</LongitudeDegrees>
            </Position>
            <AltitudeMeters>655.20001220703125</AltitudeMeters>
            <DistanceMeters>2348.758632764</DistanceMeters>
          </Trackpoint>
          <Trackpoint>
            <Time>2021-08-01T10:26:11.000Z</Time>
            <Position>
              <LatitudeDegrees>-15.46636241488158702850341796875</LatitudeDegrees>
              <LongitudeDegrees>37.00748660601675510406494140625</LongitudeDegrees>
            </Position>
            <AltitudeMeters>655</AltitudeMeters>
            <DistanceMeters>2359.0017015524</DistanceMeters>
          </Trackpoint>
          <Trackpoint>
            <Time>2021-08-01T10:26:13.000Z</Time>
            <Position>
              <LatitudeDegrees>-15.4663609899580478668212890625</LatitudeDegrees>
              <LongitudeDegrees>37.00750320218503475189208984375</LongitudeDegrees>
            </Position>
            <AltitudeMeters>654.79998779296875</AltitudeMeters>
            <DistanceMeters>2360.7896185138</DistanceMeters>
          </Trackpoint>
          <Trackpoint>
            <Time>2021-08-01T10:26:20.000Z</Time>
            <Position>
              <LatitudeDegrees>-15.46631983481347560882568359375</LatitudeDegrees>
              <LongitudeDegrees>37.00758014805614948272705078125</LongitudeDegrees>
            </Position>
            <AltitudeMeters>654.20001220703125</AltitudeMeters>
            <DistanceMeters>2370.2293639738</DistanceMeters>
          </Trackpoint>
          <Trackpoint>
            <Time>2021-08-01T10:26:21.000Z</Time>
            <Position>
              <LatitudeDegrees>-15.46630994416773319244384765625</LatitudeDegrees>
              <LongitudeDegrees>37.007586769759654998779296875</LongitudeDegrees>
            </Position>
            <AltitudeMeters>654.4000244140625</AltitudeMeters>
            <DistanceMeters>2371.5392168374</DistanceMeters>
          </Trackpoint>
          <Trackpoint>
            <Time>2021-08-01T10:26:28.000Z</Time>
            <Position>
              <LatitudeDegrees>-15.46624138019979000091552734375</LatitudeDegrees>
              <LongitudeDegrees>37.00764276087284088134765625</LongitudeDegrees>
            </Position>
            <AltitudeMeters>654.5999755859375</AltitudeMeters>
            <DistanceMeters>2381.250091582</DistanceMeters>
          </Trackpoint>
          <Trackpoint>
            <Time>2021-08-01T10:26:31.000Z</Time>
            <Position>
              <LatitudeDegrees>-15.46620969660580158233642578125</LatitudeDegrees>
              <LongitudeDegrees>37.00766379944980144500732421875</LongitudeDegrees>
            </Position>
            <AltitudeMeters>654.5999755859375</AltitudeMeters>
            <DistanceMeters>2385.4366627778</DistanceMeters>
          </Trackpoint>
          <Trackpoint>
            <Time>2021-08-01T10:26:41.000Z</Time>
            <Position>
              <LatitudeDegrees>-15.466084219515323638916015625</LatitudeDegrees>
              <LongitudeDegrees>37.0077119953930377960205078125</LongitudeDegrees>
            </Position>
            <AltitudeMeters>654.5999755859375</AltitudeMeters>
            <DistanceMeters>2400.3288982535</DistanceMeters>
          </Trackpoint>
          <Trackpoint>
            <Time>2021-08-01T10:26:46.000Z</Time>
            <Position>
              <LatitudeDegrees>-15.4660223610699176788330078125</LatitudeDegrees>
              <LongitudeDegrees>37.0077448524534702301025390625</LongitudeDegrees>
            </Position>
            <AltitudeMeters>654.5999755859375</AltitudeMeters>
            <DistanceMeters>2408.0640961513</DistanceMeters>
          </Trackpoint>
          <Trackpoint>
            <Time>2021-08-01T10:26:51.000Z</Time>
            <Position>
              <LatitudeDegrees>-15.4659750871360301971435546875</LatitudeDegrees>
              <LongitudeDegrees>37.00778265483677387237548828125</LongitudeDegrees>
            </Position>
            <AltitudeMeters>654.5999755859375</AltitudeMeters>
            <DistanceMeters>2414.7071363876</DistanceMeters>
          </Trackpoint>
          <Trackpoint>
            <Time>2021-08-01T10:27:01.000Z</Time>
            <Position>
              <LatitudeDegrees>-15.46589151956140995025634765625</LatitudeDegrees>
              <LongitudeDegrees>37.0078809745609760284423828125</LongitudeDegrees>
            </Position>
            <AltitudeMeters>654.79998779296875</AltitudeMeters>
            <DistanceMeters>2428.7698059109</DistanceMeters>
          </Trackpoint>
          <Trackpoint>
            <Time>2021-08-01T10:27:11.000Z</Time>
            <Position>
              <LatitudeDegrees>-15.465807616710662841796875</LatitudeDegrees>
              <LongitudeDegrees>37.00798465870320796966552734375</LongitudeDegrees>
            </Position>
            <AltitudeMeters>655</AltitudeMeters>
            <DistanceMeters>2443.2924250076</DistanceMeters>
          </Trackpoint>
          <Trackpoint>
            <Time>2021-08-01T10:27:20.000Z</Time>
            <Position>
              <LatitudeDegrees>-15.4657434113323688507080078125</LatitudeDegrees>
              <LongitudeDegrees>37.0080710761249065399169921875</LongitudeDegrees>
            </Position>
            <AltitudeMeters>655.79998779296875</AltitudeMeters>
            <DistanceMeters>2454.9969237038</DistanceMeters>
          </Trackpoint>
          <Trackpoint>
            <Time>2021-08-01T10:27:21.000Z</Time>
            <Position>
              <LatitudeDegrees>-15.46573561616241931915283203125</LatitudeDegrees>
              <LongitudeDegrees>37.00807970948517322540283203125</LongitudeDegrees>
            </Position>
            <AltitudeMeters>655.79998779296875</AltitudeMeters>
            <DistanceMeters>2456.2647382041</DistanceMeters>
          </Trackpoint>
          <Trackpoint>
            <Time>2021-08-01T10:27:25.000Z</Time>
            <Position>
              <LatitudeDegrees>-15.465710051357746124267578125</LatitudeDegrees>
              <LongitudeDegrees>37.008109129965305328369140625</LongitudeDegrees>
            </Position>
            <AltitudeMeters>656.20001220703125</AltitudeMeters>
            <DistanceMeters>2460.5133995005</DistanceMeters>
          </Trackpoint>
          <Trackpoint>
            <Time>2021-08-01T10:27:28.000Z</Time>
            <Position>
              <LatitudeDegrees>-15.4656844027340412139892578125</LatitudeDegrees>
              <LongitudeDegrees>37.0081377960741519927978515625</LongitudeDegrees>
            </Position>
            <AltitudeMeters>656.4000244140625</AltitudeMeters>
            <DistanceMeters>2464.708589483</DistanceMeters>
          </Trackpoint>
          <Trackpoint>
            <Time>2021-08-01T10:27:36.000Z</Time>
            <Position>
              <LatitudeDegrees>-15.46562061645090579986572265625</LatitudeDegrees>
              <LongitudeDegrees>37.00820409692823886871337890625</LongitudeDegrees>
            </Position>
            <AltitudeMeters>656.5999755859375</AltitudeMeters>
            <DistanceMeters>2474.7576364464</DistanceMeters>
          </Trackpoint>
          <Trackpoint>
            <Time>2021-08-01T10:27:43.000Z</Time>
            <Position>
              <LatitudeDegrees>-15.4655533097684383392333984375</LatitudeDegrees>
              <LongitudeDegrees>37.008271403610706329345703125</LongitudeDegrees>
            </Position>
            <AltitudeMeters>656.20001220703125</AltitudeMeters>
            <DistanceMeters>2485.1620853222</DistanceMeters>
          </Trackpoint>
          <Trackpoint>
            <Time>2021-08-01T10:27:45.000Z</Time>
            <Position>
              <LatitudeDegrees>-15.465539060533046722412109375</LatitudeDegrees>
              <LongitudeDegrees>37.00828623957931995391845703125</LongitudeDegrees>
            </Position>
            <AltitudeMeters>656</AltitudeMeters>
            <DistanceMeters>2487.4108278172</DistanceMeters>
          </Trackpoint>
          <Trackpoint>
            <Time>2021-08-01T10:27:53.000Z</Time>
            <Position>
              <LatitudeDegrees>-15.4654862545430660247802734375</LatitudeDegrees>
              <LongitudeDegrees>37.00834558345377445220947265625</LongitudeDegrees>
            </Position>
            <AltitudeMeters>656.79998779296875</AltitudeMeters>
            <DistanceMeters>2496.0749507087</DistanceMeters>
          </Trackpoint>
          <Trackpoint>
            <Time>2021-08-01T10:27:54.000Z</Time>
            <Position>
              <LatitudeDegrees>-15.46547996811568737030029296875</LatitudeDegrees>
              <LongitudeDegrees>37.00835329480469226837158203125</LongitudeDegrees>
            </Position>
            <AltitudeMeters>656.79998779296875</AltitudeMeters>
            <DistanceMeters>2497.1625811671</DistanceMeters>
          </Trackpoint>
          <Trackpoint>
            <Time>2021-08-01T10:28:02.000Z</Time>
            <Position>
              <LatitudeDegrees>-15.465413667261600494384765625</LatitudeDegrees>
              <LongitudeDegrees>37.0084190927445888519287109375</LongitudeDegrees>
            </Position>
            <AltitudeMeters>657.20001220703125</AltitudeMeters>
            <DistanceMeters>2507.3743059369</DistanceMeters>
          </Trackpoint>
          <Trackpoint>
            <Time>2021-08-01T10:28:11.000Z</Time>
            <Position>
              <LatitudeDegrees>-15.46534200198948383331298828125</LatitudeDegrees>
              <LongitudeDegrees>37.00849226675927639007568359375</LongitudeDegrees>
            </Position>
            <AltitudeMeters>657.79998779296875</AltitudeMeters>
            <DistanceMeters>2518.5652902637</DistanceMeters>
          </Trackpoint>
          <Trackpoint>
            <Time>2021-08-01T10:28:13.000Z</Time>
            <Position>
              <LatitudeDegrees>-15.46532792039215564727783203125</LatitudeDegrees>
              <LongitudeDegrees>37.0085065998136997222900390625</LongitudeDegrees>
            </Position>
            <AltitudeMeters>658</AltitudeMeters>
            <DistanceMeters>2520.7591523251</DistanceMeters>
          </Trackpoint>
          <Trackpoint>
            <Time>2021-08-01T10:28:18.000Z</Time>
            <Position>
              <LatitudeDegrees>-15.46531417407095432281494140625</LatitudeDegrees>
              <LongitudeDegrees>37.0085525326430797576904296875</LongitudeDegrees>
            </Position>
            <AltitudeMeters>659.20001220703125</AltitudeMeters>
            <DistanceMeters>2525.9177989771</DistanceMeters>
          </Trackpoint>
          <Trackpoint>
            <Time>2021-08-01T10:28:19.000Z</Time>
            <Position>
              <LatitudeDegrees>-15.4653132520616054534912109375</LatitudeDegrees>
              <LongitudeDegrees>37.00856016017496585845947265625</LongitudeDegrees>
            </Position>
            <AltitudeMeters>659.4000244140625</AltitudeMeters>
            <DistanceMeters>2526.740754464</DistanceMeters>
          </Trackpoint>
          <Trackpoint>
            <Time>2021-08-01T10:28:22.000Z</Time>
            <Position>
              <LatitudeDegrees>-15.46531207859516143798828125</LatitudeDegrees>
              <LongitudeDegrees>37.00858312658965587615966796875</LongitudeDegrees>
            </Position>
            <AltitudeMeters>660.20001220703125</AltitudeMeters>
            <DistanceMeters>2529.2096209244</DistanceMeters>
          </Trackpoint>
          <Trackpoint>
            <Time>2021-08-01T10:28:27.000Z</Time>
            <Position>
              <LatitudeDegrees>-15.46529925428330898284912109375</LatitudeDegrees>
              <LongitudeDegrees>37.00862118043005466461181640625</LongitudeDegrees>
            </Position>
            <AltitudeMeters>661.20001220703125</AltitudeMeters>
            <DistanceMeters>2533.5351634791</DistanceMeters>
          </Trackpoint>
          <Trackpoint>
            <Time>2021-08-01T10:28:28.000Z</Time>
            <Position>
              <LatitudeDegrees>-15.46529271639883518218994140625</LatitudeDegrees>
              <LongitudeDegrees>37.008628807961940765380859375</LongitudeDegrees>
            </Position>
            <AltitudeMeters>661.20001220703125</AltitudeMeters>
            <DistanceMeters>2534.6310650107</DistanceMeters>
          </Trackpoint>
          <Trackpoint>
            <Time>2021-08-01T10:28:31.000Z</Time>
            <Position>
              <LatitudeDegrees>-15.46526773832738399505615234375</LatitudeDegrees>
              <LongitudeDegrees>37.00864448212087154388427734375</LongitudeDegrees>
            </Position>
            <AltitudeMeters>661.5999755859375</AltitudeMeters>
            <DistanceMeters>2537.8800893816</DistanceMeters>
          </Trackpoint>
          <Trackpoint>
            <Time>2021-08-01T10:28:34.000Z</Time>
            <Position>
              <LatitudeDegrees>-15.4652381502091884613037109375</LatitudeDegrees>
              <LongitudeDegrees>37.0086651854217052459716796875</LongitudeDegrees>
            </Position>
            <AltitudeMeters>661.79998779296875</AltitudeMeters>
            <DistanceMeters>2541.851933229</DistanceMeters>
          </Trackpoint>
          <Trackpoint>
            <Time>2021-08-01T10:28:36.000Z</Time>
            <Position>
              <LatitudeDegrees>-15.46521962620317935943603515625</LatitudeDegrees>
              <LongitudeDegrees>37.00868002139031887054443359375</LongitudeDegrees>
            </Position>
            <AltitudeMeters>661.79998779296875</AltitudeMeters>
            <DistanceMeters>2544.4578145551</DistanceMeters>
          </Trackpoint>
          <Trackpoint>
            <Time>2021-08-01T10:28:39.000Z</Time>
            <Position>
              <LatitudeDegrees>-15.4651987552642822265625</LatitudeDegrees>
              <LongitudeDegrees>37.0086970366537570953369140625</LongitudeDegrees>
            </Position>
            <AltitudeMeters>662.4000244140625</AltitudeMeters>
            <DistanceMeters>2547.40976709</DistanceMeters>
          </Trackpoint>
          <Trackpoint>
            <Time>2021-08-01T10:28:43.000Z</Time>
            <Position>
              <LatitudeDegrees>-15.465163886547088623046875</LatitudeDegrees>
              <LongitudeDegrees>37.00872980989515781402587890625</LongitudeDegrees>
            </Position>
            <AltitudeMeters>662.5999755859375</AltitudeMeters>
            <DistanceMeters>2552.6465926705</DistanceMeters>
          </Trackpoint>
          <Trackpoint>
            <Time>2021-08-01T10:28:47.000Z</Time>
            <Position>
              <LatitudeDegrees>-15.46513245441019535064697265625</LatitudeDegrees>
              <LongitudeDegrees>37.0087647624313831329345703125</LongitudeDegrees>
            </Position>
            <AltitudeMeters>663.4000244140625</AltitudeMeters>
            <DistanceMeters>2557.7753949362</DistanceMeters>
          </Trackpoint>
          <Trackpoint>
            <Time>2021-08-01T10:28:51.000Z</Time>
            <Position>
              <LatitudeDegrees>-15.46510429121553897857666015625</LatitudeDegrees>
              <LongitudeDegrees>37.008798457682132720947265625</LongitudeDegrees>
            </Position>
            <AltitudeMeters>663.5999755859375</AltitudeMeters>
            <DistanceMeters>2562.5608179961</DistanceMeters>
          </Trackpoint>
          <Trackpoint>
            <Time>2021-08-01T10:28:53.000Z</Time>
            <Position>
              <LatitudeDegrees>-15.46509171836078166961669921875</LatitudeDegrees>
              <LongitudeDegrees>37.008811533451080322265625</LongitudeDegrees>
            </Position>
            <AltitudeMeters>663.79998779296875</AltitudeMeters>
            <DistanceMeters>2564.5427572619</DistanceMeters>
          </Trackpoint>
          <Trackpoint>
            <Time>2021-08-01T10:28:54.000Z</Time>
            <Position>
              <LatitudeDegrees>-15.46508551575243473052978515625</LatitudeDegrees>
              <LongitudeDegrees>37.00881849043071269989013671875</LongitudeDegrees>
            </Position>
            <AltitudeMeters>664.4000244140625</AltitudeMeters>
            <DistanceMeters>2565.5573649272</DistanceMeters>
          </Trackpoint>
          <Trackpoint>
            <Time>2021-08-01T10:29:00.000Z</Time>
            <Position>
              <LatitudeDegrees>-15.46504788100719451904296875</LatitudeDegrees>
              <LongitudeDegrees>37.00884698890149593353271484375</LongitudeDegrees>
            </Position>
            <AltitudeMeters>665.5999755859375</AltitudeMeters>
            <DistanceMeters>2570.7430729454</DistanceMeters>
          </Trackpoint>
          <Trackpoint>
            <Time>2021-08-01T10:29:01.000Z</Time>
            <Position>
              <LatitudeDegrees>-15.46504109166562557220458984375</LatitudeDegrees>
              <LongitudeDegrees>37.0088502578437328338623046875</LongitudeDegrees>
            </Position>
            <AltitudeMeters>665.79998779296875</AltitudeMeters>
            <DistanceMeters>2571.5823261627</DistanceMeters>
          </Trackpoint>
          <Trackpoint>
            <Time>2021-08-01T10:29:08.000Z</Time>
            <Position>
              <LatitudeDegrees>-15.46499281190335750579833984375</LatitudeDegrees>
              <LongitudeDegrees>37.00888437218964099884033203125</LongitudeDegrees>
            </Position>
            <AltitudeMeters>666.5999755859375</AltitudeMeters>
            <DistanceMeters>2578.0838481256</DistanceMeters>
          </Trackpoint>
          <Trackpoint>
            <Time>2021-08-01T10:29:11.000Z</Time>
            <Position>
              <LatitudeDegrees>-15.464981161057949066162109375</LatitudeDegrees>
              <LongitudeDegrees>37.00890532694756984710693359375</LongitudeDegrees>
            </Position>
            <AltitudeMeters>667.79998779296875</AltitudeMeters>
            <DistanceMeters>2580.6775726581</DistanceMeters>
          </Trackpoint>
          <Trackpoint>
            <Time>2021-08-01T10:29:12.000Z</Time>
            <Position>
              <LatitudeDegrees>-15.46497403644025325775146484375</LatitudeDegrees>
              <LongitudeDegrees>37.008911110460758209228515625</LongitudeDegrees>
            </Position>
            <AltitudeMeters>667.79998779296875</AltitudeMeters>
            <DistanceMeters>2581.687720488</DistanceMeters>
          </Trackpoint>
          <Trackpoint>
            <Time>2021-08-01T10:29:17.000Z</Time>
            <Position>
              <LatitudeDegrees>-15.46493967063724994659423828125</LatitudeDegrees>
              <LongitudeDegrees>37.0089397765696048736572265625</LongitudeDegrees>
            </Position>
            <AltitudeMeters>668.5999755859375</AltitudeMeters>
            <DistanceMeters>2586.5961055536</DistanceMeters>
          </Trackpoint>
          <Trackpoint>
            <Time>2021-08-01T10:29:18.000Z</Time>
            <Position>
              <LatitudeDegrees>-15.464939586818218231201171875</LatitudeDegrees>
              <LongitudeDegrees>37.00894455425441265106201171875</LongitudeDegrees>
            </Position>
            <AltitudeMeters>669</AltitudeMeters>
            <DistanceMeters>2587.1078400716</DistanceMeters>
          </Trackpoint>
          <Trackpoint>
            <Time>2021-08-01T10:29:20.000Z</Time>
            <Position>
              <LatitudeDegrees>-15.46494520269334316253662109375</LatitudeDegrees>
              <LongitudeDegrees>37.00896651484072208404541015625</LongitudeDegrees>
            </Position>
            <AltitudeMeters>669.4000244140625</AltitudeMeters>
            <DistanceMeters>2589.5454188498</DistanceMeters>
          </Trackpoint>
          <Trackpoint>
            <Time>2021-08-01T10:29:23.000Z</Time>
            <Position>
              <LatitudeDegrees>-15.46492408029735088348388671875</LatitudeDegrees>
              <LongitudeDegrees>37.0089796744287014007568359375</LongitudeDegrees>
            </Position>
            <AltitudeMeters>670</AltitudeMeters>
            <DistanceMeters>2592.288055114</DistanceMeters>
          </Trackpoint>
          <Trackpoint>
            <Time>2021-08-01T10:29:26.000Z</Time>
            <Position>
              <LatitudeDegrees>-15.46490396372973918914794921875</LatitudeDegrees>
              <LongitudeDegrees>37.0089934207499027252197265625</LongitudeDegrees>
            </Position>
            <AltitudeMeters>670.4000244140625</AltitudeMeters>
            <DistanceMeters>2594.9690886553</DistanceMeters>
          </Trackpoint>
          <Trackpoint>
            <Time>2021-08-01T10:29:29.000Z</Time>
            <Position>
              <LatitudeDegrees>-15.46487999148666858673095703125</LatitudeDegrees>
              <LongitudeDegrees>37.00900691561400890350341796875</LongitudeDegrees>
            </Position>
            <AltitudeMeters>670.79998779296875</AltitudeMeters>
            <DistanceMeters>2598.0039985342</DistanceMeters>
          </Trackpoint>
          <Trackpoint>
            <Time>2021-08-01T10:29:31.000Z</Time>
            <Position>
              <LatitudeDegrees>-15.46487211249768733978271484375</LatitudeDegrees>
              <LongitudeDegrees>37.00902284123003482818603515625</LongitudeDegrees>
            </Position>
            <AltitudeMeters>671.20001220703125</AltitudeMeters>
            <DistanceMeters>2599.9234440763</DistanceMeters>
          </Trackpoint>
          <Trackpoint>
            <Time>2021-08-01T10:29:36.000Z</Time>
            <Position>
              <LatitudeDegrees>-15.4648696817457675933837890625</LatitudeDegrees>
              <LongitudeDegrees>37.009053267538547515869140625</LongitudeDegrees>
            </Position>
            <AltitudeMeters>672</AltitudeMeters>
            <DistanceMeters>2603.198765559</DistanceMeters>
          </Trackpoint>
          <Trackpoint>
            <Time>2021-08-01T10:29:39.000Z</Time>
            <Position>
              <LatitudeDegrees>-15.46486389823257923126220703125</LatitudeDegrees>
              <LongitudeDegrees>37.00906927697360515594482421875</LongitudeDegrees>
            </Position>
            <AltitudeMeters>672.5999755859375</AltitudeMeters>
            <DistanceMeters>2605.0315744517</DistanceMeters>
          </Trackpoint>
          <Trackpoint>
            <Time>2021-08-01T10:29:45.000Z</Time>
            <Position>
              <LatitudeDegrees>-15.46485048718750476837158203125</LatitudeDegrees>
              <LongitudeDegrees>37.009093500673770904541015625</LongitudeDegrees>
            </Position>
            <AltitudeMeters>673.79998779296875</AltitudeMeters>
            <DistanceMeters>2608.0275544225</DistanceMeters>
          </Trackpoint>
          <Trackpoint>
            <Time>2021-08-01T10:29:47.000Z</Time>
            <Position>
              <LatitudeDegrees>-15.4648468829691410064697265625</LatitudeDegrees>
              <LongitudeDegrees>37.009105570614337921142578125</LongitudeDegrees>
            </Position>
            <AltitudeMeters>673.79998779296875</AltitudeMeters>
            <DistanceMeters>2609.3814766943</DistanceMeters>
          </Trackpoint>
          <Trackpoint>
            <Time>2021-08-01T10:29:52.000Z</Time>
            <Position>
              <LatitudeDegrees>-15.4648499004542827606201171875</LatitudeDegrees>
              <LongitudeDegrees>37.009143121540546417236328125</LongitudeDegrees>
            </Position>
            <AltitudeMeters>674.79998779296875</AltitudeMeters>
            <DistanceMeters>2613.4220680137</DistanceMeters>
          </Trackpoint>
          <Trackpoint>
            <Time>2021-08-01T10:29:57.000Z</Time>
            <Position>
              <LatitudeDegrees>-15.46484646387398242950439453125</LatitudeDegrees>
              <LongitudeDegrees>37.009171284735202789306640625</LongitudeDegrees>
            </Position>
            <AltitudeMeters>675.5999755859375</AltitudeMeters>
            <DistanceMeters>2616.4673739931</DistanceMeters>
          </Trackpoint>
          <Trackpoint>
            <Time>2021-08-01T10:29:58.000Z</Time>
            <Position>
              <LatitudeDegrees>-15.46484361402690410614013671875</LatitudeDegrees>
              <LongitudeDegrees>37.00917790643870830535888671875</LongitudeDegrees>
            </Position>
            <AltitudeMeters>675.79998779296875</AltitudeMeters>
            <DistanceMeters>2617.245201173</DistanceMeters>
          </Trackpoint>
          <Trackpoint>
            <Time>2021-08-01T10:29:59.000Z</Time>
            <Position>
              <LatitudeDegrees>-15.4648408479988574981689453125</LatitudeDegrees>
              <LongitudeDegrees>37.00918234884738922119140625</LongitudeDegrees>
            </Position>
            <AltitudeMeters>676.20001220703125</AltitudeMeters>
            <DistanceMeters>2617.8153614592</DistanceMeters>
          </Trackpoint>
          <Trackpoint>
            <Time>2021-08-01T10:30:06.000Z</Time>
            <Position>
              <LatitudeDegrees>-15.46482182107865810394287109375</LatitudeDegrees>
              <LongitudeDegrees>37.00922635383903980255126953125</LongitudeDegrees>
            </Position>
            <AltitudeMeters>677.4000244140625</AltitudeMeters>
            <DistanceMeters>2622.9888657435</DistanceMeters>
          </Trackpoint>
          <Trackpoint>
            <Time>2021-08-01T10:30:12.000Z</Time>
            <Position>
              <LatitudeDegrees>-15.464814193546772003173828125</LatitudeDegrees>
              <LongitudeDegrees>37.0092592947185039520263671875</LongitudeDegrees>
            </Position>
            <AltitudeMeters>678.4000244140625</AltitudeMeters>
            <DistanceMeters>2626.6235599311</DistanceMeters>
          </Trackpoint>
          <Trackpoint>
            <Time>2021-08-01T10:30:16.000Z</Time>
            <Position>
              <LatitudeDegrees>-15.46480103395879268646240234375</LatitudeDegrees>
              <LongitudeDegrees>37.00928293168544769287109375</LongitudeDegrees>
            </Position>
            <AltitudeMeters>679.5999755859375</AltitudeMeters>
            <DistanceMeters>2629.550938032</DistanceMeters>
          </Trackpoint>
          <Trackpoint>
            <Time>2021-08-01T10:30:20.000Z</Time>
            <Position>
              <LatitudeDegrees>-15.4647912271320819854736328125</LatitudeDegrees>
              <LongitudeDegrees>37.00930966995656490325927734375</LongitudeDegrees>
            </Position>
            <AltitudeMeters>680</AltitudeMeters>
            <DistanceMeters>2632.619874286</DistanceMeters>
          </Trackpoint>
          <Trackpoint>
            <Time>2021-08-01T10:30:24.000Z</Time>
            <Position>
              <LatitudeDegrees>-15.4647952504456043243408203125</LatitudeDegrees>
              <LongitudeDegrees>37.009330205619335174560546875</LongitudeDegrees>
            </Position>
            <AltitudeMeters>680.5999755859375</AltitudeMeters>
            <DistanceMeters>2634.8686167809</DistanceMeters>
          </Trackpoint>
          <Trackpoint>
            <Time>2021-08-01T10:30:28.000Z</Time>
            <Position>
              <LatitudeDegrees>-15.46479516662657260894775390625</LatitudeDegrees>
              <LongitudeDegrees>37.0093531720340251922607421875</LongitudeDegrees>
            </Position>
            <AltitudeMeters>681.79998779296875</AltitudeMeters>
            <DistanceMeters>2637.3338229481</DistanceMeters>
          </Trackpoint>
          <Trackpoint>
            <Time>2021-08-01T10:30:31.000Z</Time>
            <Position>
              <LatitudeDegrees>-15.46479466371238231658935546875</LatitudeDegrees>
              <LongitudeDegrees>37.00937546789646148681640625</LongitudeDegrees>
            </Position>
            <AltitudeMeters>682</AltitudeMeters>
            <DistanceMeters>2639.728420731</DistanceMeters>
          </Trackpoint>
          <Trackpoint>
            <Time>2021-08-01T10:30:34.000Z</Time>
            <Position>
              <LatitudeDegrees>-15.46478770673274993896484375</LatitudeDegrees>
              <LongitudeDegrees>37.009391225874423980712890625</LongitudeDegrees>
            </Position>
            <AltitudeMeters>682.79998779296875</AltitudeMeters>
            <DistanceMeters>2641.5881301917</DistanceMeters>
          </Trackpoint>
          <Trackpoint>
            <Time>2021-08-01T10:30:40.000Z</Time>
            <Position>
              <LatitudeDegrees>-15.4647721163928508758544921875</LatitudeDegrees>
              <LongitudeDegrees>37.0094312913715839385986328125</LongitudeDegrees>
            </Position>
            <AltitudeMeters>683.20001220703125</AltitudeMeters>
            <DistanceMeters>2646.2220833403</DistanceMeters>
          </Trackpoint>
          <Trackpoint>
            <Time>2021-08-01T10:30:42.000Z</Time>
            <Position>
              <LatitudeDegrees>-15.4647694341838359832763671875</LatitudeDegrees>
              <LongitudeDegrees>37.00944411568343639373779296875</LongitudeDegrees>
            </Position>
            <AltitudeMeters>684</AltitudeMeters>
            <DistanceMeters>2647.631557291</DistanceMeters>
          </Trackpoint>
          <Trackpoint>
            <Time>2021-08-01T10:30:49.000Z</Time>
            <Position>
              <LatitudeDegrees>-15.46478695236146450042724609375</LatitudeDegrees>
              <LongitudeDegrees>37.00948820449411869049072265625</LongitudeDegrees>
            </Position>
            <AltitudeMeters>685</AltitudeMeters>
            <DistanceMeters>2652.7480200937</DistanceMeters>
          </Trackpoint>
          <Trackpoint>
            <Time>2021-08-01T10:30:50.000Z</Time>
            <Position>
              <LatitudeDegrees>-15.4647895507514476776123046875</LatitudeDegrees>
              <LongitudeDegrees>37.00949608348309993743896484375</LongitudeDegrees>
            </Position>
            <AltitudeMeters>685.4000244140625</AltitudeMeters>
            <DistanceMeters>2653.6445003241</DistanceMeters>
          </Trackpoint>
          <Trackpoint>
            <Time>2021-08-01T10:30:53.000Z</Time>
            <Position>
              <LatitudeDegrees>-15.46478728763759136199951171875</LatitudeDegrees>
              <LongitudeDegrees>37.0095156133174896240234375</LongitudeDegrees>
            </Position>
            <AltitudeMeters>686</AltitudeMeters>
            <DistanceMeters>2655.7565746039</DistanceMeters>
          </Trackpoint>
          <Trackpoint>
            <Time>2021-08-01T10:30:56.000Z</Time>
            <Position>
              <LatitudeDegrees>-15.46478209085762500762939453125</LatitudeDegrees>
              <LongitudeDegrees>37.00954050756990909576416015625</LongitudeDegrees>
            </Position>
            <AltitudeMeters>686.5999755859375</AltitudeMeters>
            <DistanceMeters>2658.4893155757</DistanceMeters>
          </Trackpoint>
          <Trackpoint>
            <Time>2021-08-01T10:30:59.000Z</Time>
            <Position>
              <LatitudeDegrees>-15.4647821746766567230224609375</LatitudeDegrees>
              <LongitudeDegrees>37.00957126915454864501953125</LongitudeDegrees>
            </Position>
            <AltitudeMeters>687</AltitudeMeters>
            <DistanceMeters>2661.7907247094</DistanceMeters>
          </Trackpoint>
          <Trackpoint>
            <Time>2021-08-01T10:31:01.000Z</Time>
            <Position>
              <LatitudeDegrees>-15.4647804982960224151611328125</LatitudeDegrees>
              <LongitudeDegrees>37.009590379893779754638671875</LongitudeDegrees>
            </Position>
            <AltitudeMeters>687.4000244140625</AltitudeMeters>
            <DistanceMeters>2663.8486619903</DistanceMeters>
          </Trackpoint>
          <Trackpoint>
            <Time>2021-08-01T10:31:06.000Z</Time>
            <Position>
              <LatitudeDegrees>-15.4647841863334178924560546875</LatitudeDegrees>
              <LongitudeDegrees>37.0096411742269992828369140625</LongitudeDegrees>
            </Position>
            <AltitudeMeters>688.4000244140625</AltitudeMeters>
            <DistanceMeters>2669.3124914828</DistanceMeters>
          </Trackpoint>
          <Trackpoint>
            <Time>2021-08-01T10:31:11.000Z</Time>
            <Position>
              <LatitudeDegrees>-15.4647778160870075225830078125</LatitudeDegrees>
              <LongitudeDegrees>37.009683586657047271728515625</LongitudeDegrees>
            </Position>
            <AltitudeMeters>689.4000244140625</AltitudeMeters>
            <DistanceMeters>2673.9171217058</DistanceMeters>
          </Trackpoint>
          <Trackpoint>
            <Time>2021-08-01T10:31:12.000Z</Time>
            <Position>
              <LatitudeDegrees>-15.4647771455347537994384765625</LatitudeDegrees>
              <LongitudeDegrees>37.00969305820763111114501953125</LongitudeDegrees>
            </Position>
            <AltitudeMeters>689.4000244140625</AltitudeMeters>
            <DistanceMeters>2674.9317293712</DistanceMeters>
          </Trackpoint>
          <Trackpoint>
            <Time>2021-08-01T10:31:18.000Z</Time>
            <Position>
              <LatitudeDegrees>-15.46478343196213245391845703125</LatitudeDegrees>
              <LongitudeDegrees>37.00975525192916393280029296875</LongitudeDegrees>
            </Position>
            <AltitudeMeters>690.79998779296875</AltitudeMeters>
            <DistanceMeters>2681.6397000718</DistanceMeters>
          </Trackpoint>
          <Trackpoint>
            <Time>2021-08-01T10:31:22.000Z</Time>
            <Position>
              <LatitudeDegrees>-15.464787371456623077392578125</LatitudeDegrees>
              <LongitudeDegrees>37.0097856782376766204833984375</LongitudeDegrees>
            </Position>
            <AltitudeMeters>691.5999755859375</AltitudeMeters>
            <DistanceMeters>2684.934264062</DistanceMeters>
          </Trackpoint>
          <Trackpoint>
            <Time>2021-08-01T10:31:23.000Z</Time>
            <Position>
              <LatitudeDegrees>-15.4647875390946865081787109375</LatitudeDegrees>
              <LongitudeDegrees>37.0097957365214824676513671875</LongitudeDegrees>
            </Position>
            <AltitudeMeters>691.79998779296875</AltitudeMeters>
            <DistanceMeters>2686.0135600646</DistanceMeters>
          </Trackpoint>
          <Trackpoint>
            <Time>2021-08-01T10:31:34.000Z</Time>
            <Position>
              <LatitudeDegrees>-15.464792735874652862548828125</LatitudeDegrees>
              <LongitudeDegrees>37.0099083893001079559326171875</LongitudeDegrees>
            </Position>
            <AltitudeMeters>692.79998779296875</AltitudeMeters>
            <DistanceMeters>2698.1118454423</DistanceMeters>
          </Trackpoint>
          <Trackpoint>
            <Time>2021-08-01T10:31:35.000Z</Time>
            <Position>
              <LatitudeDegrees>-15.4647915624082088470458984375</LatitudeDegrees>
              <LongitudeDegrees>37.0099179446697235107421875</LongitudeDegrees>
            </Position>
            <AltitudeMeters>692.79998779296875</AltitudeMeters>
            <DistanceMeters>2699.1440997813</DistanceMeters>
          </Trackpoint>
          <Trackpoint>
            <Time>2021-08-01T10:31:44.000Z</Time>
            <Position>
              <LatitudeDegrees>-15.46477002091705799102783203125</LatitudeDegrees>
              <LongitudeDegrees>37.009998746216297149658203125</LongitudeDegrees>
            </Position>
            <AltitudeMeters>693.20001220703125</AltitudeMeters>
            <DistanceMeters>2708.1370617312</DistanceMeters>
          </Trackpoint>
          <Trackpoint>
            <Time>2021-08-01T10:31:51.000Z</Time>
            <Position>
              <LatitudeDegrees>-15.46471084468066692352294921875</LatitudeDegrees>
              <LongitudeDegrees>37.01001944951713085174560546875</LongitudeDegrees>
            </Position>
            <AltitudeMeters>693.20001220703125</AltitudeMeters>
            <DistanceMeters>2715.0870170475</DistanceMeters>
          </Trackpoint>
          <Trackpoint>
            <Time>2021-08-01T10:31:55.000Z</Time>
            <Position>
              <LatitudeDegrees>-15.46468016691505908966064453125</LatitudeDegrees>
              <LongitudeDegrees>37.0100347883999347686767578125</LongitudeDegrees>
            </Position>
            <AltitudeMeters>693.20001220703125</AltitudeMeters>
            <DistanceMeters>2718.8761886649</DistanceMeters>
          </Trackpoint>
          <Trackpoint>
            <Time>2021-08-01T10:31:57.000Z</Time>
            <Position>
              <LatitudeDegrees>-15.46466038562357425689697265625</LatitudeDegrees>
              <LongitudeDegrees>37.010046355426311492919921875</LongitudeDegrees>
            </Position>
            <AltitudeMeters>693.20001220703125</AltitudeMeters>
            <DistanceMeters>2721.4028987879</DistanceMeters>
          </Trackpoint>
          <Trackpoint>
            <Time>2021-08-01T10:31:59.000Z</Time>
            <Position>
              <LatitudeDegrees>-15.4646390117704868316650390625</LatitudeDegrees>
              <LongitudeDegrees>37.0100555755198001861572265625</LongitudeDegrees>
            </Position>
            <AltitudeMeters>693.4000244140625</AltitudeMeters>
            <DistanceMeters>2723.9809089242</DistanceMeters>
          </Trackpoint>
          <Trackpoint>
            <Time>2021-08-01T10:32:05.000Z</Time>
            <Position>
              <LatitudeDegrees>-15.46457656659185886383056640625</LatitudeDegrees>
              <LongitudeDegrees>37.01008231379091739654541015625</LongitudeDegrees>
            </Position>
            <AltitudeMeters>693.4000244140625</AltitudeMeters>
            <DistanceMeters>2731.4994379385</DistanceMeters>
          </Trackpoint>
          <Trackpoint>
            <Time>2021-08-01T10:32:10.000Z</Time>
            <Position>
              <LatitudeDegrees>-15.4645241796970367431640625</LatitudeDegrees>
              <LongitudeDegrees>37.01011148281395435333251953125</LongitudeDegrees>
            </Position>
            <AltitudeMeters>693.4000244140625</AltitudeMeters>
            <DistanceMeters>2738.115918166</DistanceMeters>
          </Trackpoint>
          <Trackpoint>
            <Time>2021-08-01T10:32:11.000Z</Time>
            <Position>
              <LatitudeDegrees>-15.46451554633677005767822265625</LatitudeDegrees>
              <LongitudeDegrees>37.0101192779839038848876953125</LongitudeDegrees>
            </Position>
            <AltitudeMeters>693.4000244140625</AltitudeMeters>
            <DistanceMeters>2739.3837326662</DistanceMeters>
          </Trackpoint>
          <Trackpoint>
            <Time>2021-08-01T10:32:14.000Z</Time>
            <Position>
              <LatitudeDegrees>-15.46449040062725543975830078125</LatitudeDegrees>
              <LongitudeDegrees>37.01013780198991298675537109375</LongitudeDegrees>
            </Position>
            <AltitudeMeters>693.20001220703125</AltitudeMeters>
            <DistanceMeters>2742.816552172</DistanceMeters>
          </Trackpoint>
          <Trackpoint>
            <Time>2021-08-01T10:32:22.000Z</Time>
            <Position>
              <LatitudeDegrees>-15.46441881917417049407958984375</LatitudeDegrees>
              <LongitudeDegrees>37.010203264653682708740234375</LongitudeDegrees>
            </Position>
            <AltitudeMeters>693</AltitudeMeters>
            <DistanceMeters>2753.4370363823</DistanceMeters>
          </Trackpoint>
          <Trackpoint>
            <Time>2021-08-01T10:32:27.000Z</Time>
            <Position>
              <LatitudeDegrees>-15.46437355689704418182373046875</LatitudeDegrees>
              <LongitudeDegrees>37.01024861074984073638916015625</LongitudeDegrees>
            </Position>
            <AltitudeMeters>693</AltitudeMeters>
            <DistanceMeters>2760.4394156273</DistanceMeters>
          </Trackpoint>
          <Trackpoint>
            <Time>2021-08-01T10:32:28.000Z</Time>
            <Position>
              <LatitudeDegrees>-15.4643630795180797576904296875</LatitudeDegrees>
              <LongitudeDegrees>37.0102564059197902679443359375</LongitudeDegrees>
            </Position>
            <AltitudeMeters>692.79998779296875</AltitudeMeters>
            <DistanceMeters>2761.8711374413</DistanceMeters>
          </Trackpoint>
          <Trackpoint>
            <Time>2021-08-01T10:32:32.000Z</Time>
            <Position>
              <LatitudeDegrees>-15.4643332399427890777587890625</LatitudeDegrees>
              <LongitudeDegrees>37.01029605232179164886474609375</LongitudeDegrees>
            </Position>
            <AltitudeMeters>692.5999755859375</AltitudeMeters>
            <DistanceMeters>2767.2676174544</DistanceMeters>
          </Trackpoint>
          <Trackpoint>
            <Time>2021-08-01T10:32:43.000Z</Time>
            <Position>
              <LatitudeDegrees>-15.4642490856349468231201171875</LatitudeDegrees>
              <LongitudeDegrees>37.01041574589908123016357421875</LongitudeDegrees>
            </Position>
            <AltitudeMeters>691.5999755859375</AltitudeMeters>
            <DistanceMeters>2783.1609597199</DistanceMeters>
          </Trackpoint>
          <Trackpoint>
            <Time>2021-08-01T10:32:51.000Z</Time>
            <Position>
              <LatitudeDegrees>-15.464193932712078094482421875</LatitudeDegrees>
              <LongitudeDegrees>37.01050870120525360107421875</LongitudeDegrees>
            </Position>
            <AltitudeMeters>691</AltitudeMeters>
            <DistanceMeters>2794.8704721233</DistanceMeters>
          </Trackpoint>
          <Trackpoint>
            <Time>2021-08-01T10:33:02.000Z</Time>
            <Position>
              <LatitudeDegrees>-15.46412645839154720306396484375</LatitudeDegrees>
              <LongitudeDegrees>37.0106221921741962432861328125</LongitudeDegrees>
            </Position>
            <AltitudeMeters>691</AltitudeMeters>
            <DistanceMeters>2809.1747547737</DistanceMeters>
          </Trackpoint>
          <Trackpoint>
            <Time>2021-08-01T10:33:09.000Z</Time>
            <Position>
              <LatitudeDegrees>-15.4640787653625011444091796875</LatitudeDegrees>
              <LongitudeDegrees>37.01069201342761516571044921875</LongitudeDegrees>
            </Position>
            <AltitudeMeters>691</AltitudeMeters>
            <DistanceMeters>2818.3550436282</DistanceMeters>
          </Trackpoint>
          <Trackpoint>
            <Time>2021-08-01T10:33:19.000Z</Time>
            <Position>
              <LatitudeDegrees>-15.4639966227114200592041015625</LatitudeDegrees>
              <LongitudeDegrees>37.0108052529394626617431640625</LongitudeDegrees>
            </Position>
            <AltitudeMeters>691.20001220703125</AltitudeMeters>
            <DistanceMeters>2833.5584270258</DistanceMeters>
          </Trackpoint>
          <Trackpoint>
            <Time>2021-08-01T10:33:27.000Z</Time>
            <Position>
              <LatitudeDegrees>-15.46394146978855133056640625</LatitudeDegrees>
              <LongitudeDegrees>37.0109078474342823028564453125</LongitudeDegrees>
            </Position>
            <AltitudeMeters>690.5999755859375</AltitudeMeters>
            <DistanceMeters>2846.1601302577</DistanceMeters>
          </Trackpoint>
          <Trackpoint>
            <Time>2021-08-01T10:33:35.000Z</Time>
            <Position>
              <LatitudeDegrees>-15.46389520168304443359375</LatitudeDegrees>
              <LongitudeDegrees>37.010993845760822296142578125</LongitudeDegrees>
            </Position>
            <AltitudeMeters>690.5999755859375</AltitudeMeters>
            <DistanceMeters>2856.7252036092</DistanceMeters>
          </Trackpoint>
          <Trackpoint>
            <Time>2021-08-01T10:33:38.000Z</Time>
            <Position>
              <LatitudeDegrees>-15.46387550421059131622314453125</LatitudeDegrees>
              <LongitudeDegrees>37.0110318996012210845947265625</LongitudeDegrees>
            </Position>
            <AltitudeMeters>690.4000244140625</AltitudeMeters>
            <DistanceMeters>2861.3581823171</DistanceMeters>
          </Trackpoint>
          <Trackpoint>
            <Time>2021-08-01T10:33:42.000Z</Time>
            <Position>
              <LatitudeDegrees>-15.46384356915950775146484375</LatitudeDegrees>
              <LongitudeDegrees>37.0110771618783473968505859375</LongitudeDegrees>
            </Position>
            <AltitudeMeters>690.5999755859375</AltitudeMeters>
            <DistanceMeters>2867.3757072684</DistanceMeters>
          </Trackpoint>
          <Trackpoint>
            <Time>2021-08-01T10:33:46.000Z</Time>
            <Position>
              <LatitudeDegrees>-15.46382303349673748016357421875</LatitudeDegrees>
              <LongitudeDegrees>37.01112016104161739349365234375</LongitudeDegrees>
            </Position>
            <AltitudeMeters>690.5999755859375</AltitudeMeters>
            <DistanceMeters>2872.5238403634</DistanceMeters>
          </Trackpoint>
          <Trackpoint>
            <Time>2021-08-01T10:33:57.000Z</Time>
            <Position>
              <LatitudeDegrees>-15.46375463716685771942138671875</LatitudeDegrees>
              <LongitudeDegrees>37.01124505139887332916259765625</LongitudeDegrees>
            </Position>
            <AltitudeMeters>690.79998779296875</AltitudeMeters>
            <DistanceMeters>2887.9331187402</DistanceMeters>
          </Trackpoint>
          <Trackpoint>
            <Time>2021-08-01T10:34:08.000Z</Time>
            <Position>
              <LatitudeDegrees>-15.46369462274014949798583984375</LatitudeDegrees>
              <LongitudeDegrees>37.01136105693876743316650390625</LongitudeDegrees>
            </Position>
            <AltitudeMeters>691.4000244140625</AltitudeMeters>
            <DistanceMeters>2902.056978649</DistanceMeters>
          </Trackpoint>
          <Trackpoint>
            <Time>2021-08-01T10:34:11.000Z</Time>
            <Position>
              <LatitudeDegrees>-15.46367433853447437286376953125</LatitudeDegrees>
              <LongitudeDegrees>37.01138687320053577423095703125</LongitudeDegrees>
            </Position>
            <AltitudeMeters>691.5999755859375</AltitudeMeters>
            <DistanceMeters>2905.6302863732</DistanceMeters>
          </Trackpoint>
          <Trackpoint>
            <Time>2021-08-01T10:34:17.000Z</Time>
            <Position>
              <LatitudeDegrees>-15.46362899243831634521484375</LatitudeDegrees>
              <LongitudeDegrees>37.0114575326442718505859375</LongitudeDegrees>
            </Position>
            <AltitudeMeters>692</AltitudeMeters>
            <DistanceMeters>2914.7365035891</DistanceMeters>
          </Trackpoint>
          <Trackpoint>
            <Time>2021-08-01T10:34:30.000Z</Time>
            <Position>
              <LatitudeDegrees>-15.46355917118489742279052734375</LatitudeDegrees>
              <LongitudeDegrees>37.01161402277648448944091796875</LongitudeDegrees>
            </Position>
            <AltitudeMeters>692.20001220703125</AltitudeMeters>
            <DistanceMeters>2933.2352542745</DistanceMeters>
          </Trackpoint>
          <Trackpoint>
            <Time>2021-08-01T10:34:41.000Z</Time>
            <Position>
              <LatitudeDegrees>-15.4635143280029296875</LatitudeDegrees>
              <LongitudeDegrees>37.01174746267497539520263671875</LongitudeDegrees>
            </Position>
            <AltitudeMeters>692.5999755859375</AltitudeMeters>
            <DistanceMeters>2948.3949193598</DistanceMeters>
          </Trackpoint>
          <Trackpoint>
            <Time>2021-08-01T10:34:42.000Z</Time>
            <Position>
              <LatitudeDegrees>-15.4635121487081050872802734375</LatitudeDegrees>
              <LongitudeDegrees>37.011760286986827850341796875</LongitudeDegrees>
            </Position>
            <AltitudeMeters>692.5999755859375</AltitudeMeters>
            <DistanceMeters>2949.7979719835</DistanceMeters>
          </Trackpoint>
          <Trackpoint>
            <Time>2021-08-01T10:34:51.000Z</Time>
            <Position>
              <LatitudeDegrees>-15.4634994082152843475341796875</LatitudeDegrees>
              <LongitudeDegrees>37.0118772983551025390625</LongitudeDegrees>
            </Position>
            <AltitudeMeters>692.79998779296875</AltitudeMeters>
            <DistanceMeters>2962.4300929789</DistanceMeters>
          </Trackpoint>
          <Trackpoint>
            <Time>2021-08-01T10:35:00.000Z</Time>
            <Position>
              <LatitudeDegrees>-15.463505946099758148193359375</LatitudeDegrees>
              <LongitudeDegrees>37.0119953155517578125</LongitudeDegrees>
            </Position>
            <AltitudeMeters>693</AltitudeMeters>
            <DistanceMeters>2975.1110866826</DistanceMeters>
          </Trackpoint>
          <Trackpoint>
            <Time>2021-08-01T10:35:07.000Z</Time>
            <Position>
              <LatitudeDegrees>-15.463508628308773040771484375</LatitudeDegrees>
              <LongitudeDegrees>37.0120816491544246673583984375</LongitudeDegrees>
            </Position>
            <AltitudeMeters>693.5999755859375</AltitudeMeters>
            <DistanceMeters>2984.3765568138</DistanceMeters>
          </Trackpoint>
          <Trackpoint>
            <Time>2021-08-01T10:35:14.000Z</Time>
            <Position>
              <LatitudeDegrees>-15.4635171778500080108642578125</LatitudeDegrees>
              <LongitudeDegrees>37.01216655783355236053466796875</LongitudeDegrees>
            </Position>
            <AltitudeMeters>694</AltitudeMeters>
            <DistanceMeters>2993.5341940601</DistanceMeters>
          </Trackpoint>
          <Trackpoint>
            <Time>2021-08-01T10:35:23.000Z</Time>
            <Position>
              <LatitudeDegrees>-15.46352648176252841949462890625</LatitudeDegrees>
              <LongitudeDegrees>37.01228038407862186431884765625</LongitudeDegrees>
            </Position>
            <AltitudeMeters>694.5999755859375</AltitudeMeters>
            <DistanceMeters>3005.7882195696</DistanceMeters>
          </Trackpoint>
          <Trackpoint>
            <Time>2021-08-01T10:35:25.000Z</Time>
            <Position>
              <LatitudeDegrees>-15.46352706849575042724609375</LatitudeDegrees>
              <LongitudeDegrees>37.012307457625865936279296875</LongitudeDegrees>
            </Position>
            <AltitudeMeters>694.79998779296875</AltitudeMeters>
            <DistanceMeters>3008.6939245572</DistanceMeters>
          </Trackpoint>
          <Trackpoint>
            <Time>2021-08-01T10:35:33.000Z</Time>
            <Position>
              <LatitudeDegrees>-15.463530756533145904541015625</LatitudeDegrees>
              <LongitudeDegrees>37.012400329113006591796875</LongitudeDegrees>
            </Position>
            <AltitudeMeters>695.5999755859375</AltitudeMeters>
            <DistanceMeters>3018.6653924394</DistanceMeters>
          </Trackpoint>
          <Trackpoint>
            <Time>2021-08-01T10:35:38.000Z</Time>
            <Position>
              <LatitudeDegrees>-15.46353721059858798980712890625</LatitudeDegrees>
              <LongitudeDegrees>37.012459337711334228515625</LongitudeDegrees>
            </Position>
            <AltitudeMeters>695.79998779296875</AltitudeMeters>
            <DistanceMeters>3025.0357270883</DistanceMeters>
          </Trackpoint>
          <Trackpoint>
            <Time>2021-08-01T10:35:44.000Z</Time>
            <Position>
              <LatitudeDegrees>-15.463542155921459197998046875</LatitudeDegrees>
              <LongitudeDegrees>37.01252547092735767364501953125</LongitudeDegrees>
            </Position>
            <AltitudeMeters>696.4000244140625</AltitudeMeters>
            <DistanceMeters>3032.1513183231</DistanceMeters>
          </Trackpoint>
          <Trackpoint>
            <Time>2021-08-01T10:35:50.000Z</Time>
            <Position>
              <LatitudeDegrees>-15.46354257501661777496337890625</LatitudeDegrees>
              <LongitudeDegrees>37.01259286142885684967041015625</LongitudeDegrees>
            </Position>
            <AltitudeMeters>697</AltitudeMeters>
            <DistanceMeters>3039.3808468318</DistanceMeters>
          </Trackpoint>
          <Trackpoint>
            <Time>2021-08-01T10:35:52.000Z</Time>
            <Position>
              <LatitudeDegrees>-15.46354182064533233642578125</LatitudeDegrees>
              <LongitudeDegrees>37.012617923319339752197265625</LongitudeDegrees>
            </Position>
            <AltitudeMeters>697.20001220703125</AltitudeMeters>
            <DistanceMeters>3042.070287523</DistanceMeters>
          </Trackpoint>
          <Trackpoint>
            <Time>2021-08-01T10:35:58.000Z</Time>
            <Position>
              <LatitudeDegrees>-15.46354928053915500640869140625</LatitudeDegrees>
              <LongitudeDegrees>37.0126848109066486358642578125</LongitudeDegrees>
            </Position>
            <AltitudeMeters>697.79998779296875</AltitudeMeters>
            <DistanceMeters>3049.2929429638</DistanceMeters>
          </Trackpoint>
          <Trackpoint>
            <Time>2021-08-01T10:35:59.000Z</Time>
            <Position>
              <LatitudeDegrees>-15.46354844234883785247802734375</LatitudeDegrees>
              <LongitudeDegrees>37.0126965455710887908935546875</LongitudeDegrees>
            </Position>
            <AltitudeMeters>698.20001220703125</AltitudeMeters>
            <DistanceMeters>3050.5571911715</DistanceMeters>
          </Trackpoint>
          <Trackpoint>
            <Time>2021-08-01T10:36:02.000Z</Time>
            <Position>
              <LatitudeDegrees>-15.46354944817721843719482421875</LatitudeDegrees>
              <LongitudeDegrees>37.01272957026958465576171875</LongitudeDegrees>
            </Position>
            <AltitudeMeters>698.4000244140625</AltitudeMeters>
            <DistanceMeters>3054.100044013</DistanceMeters>
          </Trackpoint>
          <Trackpoint>
            <Time>2021-08-01T10:36:03.000Z</Time>
            <Position>
              <LatitudeDegrees>-15.46354844234883785247802734375</LatitudeDegrees>
              <LongitudeDegrees>37.01274239458143711090087890625</LongitudeDegrees>
            </Position>
            <AltitudeMeters>698.4000244140625</AltitudeMeters>
            <DistanceMeters>3055.4771119319</DistanceMeters>
          </Trackpoint>
          <Trackpoint>
            <Time>2021-08-01T10:36:13.000Z</Time>
            <Position>
              <LatitudeDegrees>-15.463541485369205474853515625</LatitudeDegrees>
              <LongitudeDegrees>37.0128708891570568084716796875</LongitudeDegrees>
            </Position>
            <AltitudeMeters>699</AltitudeMeters>
            <DistanceMeters>3069.2828289906</DistanceMeters>
          </Trackpoint>
          <Trackpoint>
            <Time>2021-08-01T10:36:15.000Z</Time>
            <Position>
              <LatitudeDegrees>-15.46353503130376338958740234375</LatitudeDegrees>
              <LongitudeDegrees>37.0129017345607280731201171875</LongitudeDegrees>
            </Position>
            <AltitudeMeters>699.5999755859375</AltitudeMeters>
            <DistanceMeters>3072.666634087</DistanceMeters>
          </Trackpoint>
          <Trackpoint>
            <Time>2021-08-01T10:36:22.000Z</Time>
            <Position>
              <LatitudeDegrees>-15.4635553993284702301025390625</LatitudeDegrees>
              <LongitudeDegrees>37.01297457329928874969482421875</LongitudeDegrees>
            </Position>
            <AltitudeMeters>700.4000244140625</AltitudeMeters>
            <DistanceMeters>3080.8023860704</DistanceMeters>
          </Trackpoint>
          <Trackpoint>
            <Time>2021-08-01T10:36:24.000Z</Time>
            <Position>
              <LatitudeDegrees>-15.46355414204299449920654296875</LatitudeDegrees>
              <LongitudeDegrees>37.01300122775137424468994140625</LongitudeDegrees>
            </Position>
            <AltitudeMeters>700.5999755859375</AltitudeMeters>
            <DistanceMeters>3083.6658296984</DistanceMeters>
          </Trackpoint>
          <Trackpoint>
            <Time>2021-08-01T10:36:29.000Z</Time>
            <Position>
              <LatitudeDegrees>-15.4635439999401569366455078125</LatitudeDegrees>
              <LongitudeDegrees>37.01306157745420932769775390625</LongitudeDegrees>
            </Position>
            <AltitudeMeters>701</AltitudeMeters>
            <DistanceMeters>3090.2371176662</DistanceMeters>
          </Trackpoint>
          <Trackpoint>
            <Time>2021-08-01T10:36:34.000Z</Time>
            <Position>
              <LatitudeDegrees>-15.463538467884063720703125</LatitudeDegrees>
              <LongitudeDegrees>37.0131233520805835723876953125</LongitudeDegrees>
            </Position>
            <AltitudeMeters>701.79998779296875</AltitudeMeters>
            <DistanceMeters>3096.892380618</DistanceMeters>
          </Trackpoint>
          <Trackpoint>
            <Time>2021-08-01T10:36:44.000Z</Time>
            <Position>
              <LatitudeDegrees>-15.46349848620593547821044921875</LatitudeDegrees>
              <LongitudeDegrees>37.0132282935082912445068359375</LongitudeDegrees>
            </Position>
            <AltitudeMeters>702.4000244140625</AltitudeMeters>
            <DistanceMeters>3108.9977546532</DistanceMeters>
          </Trackpoint>
          <Trackpoint>
            <Time>2021-08-01T10:36:50.000Z</Time>
            <Position>
              <LatitudeDegrees>-15.46346579678356647491455078125</LatitudeDegrees>
              <LongitudeDegrees>37.01329342089593410491943359375</LongitudeDegrees>
            </Position>
            <AltitudeMeters>702.79998779296875</AltitudeMeters>
            <DistanceMeters>3116.8740878844</DistanceMeters>
          </Trackpoint>
          <Trackpoint>
            <Time>2021-08-01T10:36:57.000Z</Time>
            <Position>
              <LatitudeDegrees>-15.46342254616320133209228515625</LatitudeDegrees>
              <LongitudeDegrees>37.01336097903549671173095703125</LongitudeDegrees>
            </Position>
            <AltitudeMeters>703.20001220703125</AltitudeMeters>
            <DistanceMeters>3125.5740936749</DistanceMeters>
          </Trackpoint>
          <Trackpoint>
            <Time>2021-08-01T10:36:58.000Z</Time>
            <Position>
              <LatitudeDegrees>-15.463416762650012969970703125</LatitudeDegrees>
              <LongitudeDegrees>37.01336927711963653564453125</LongitudeDegrees>
            </Position>
            <AltitudeMeters>703.20001220703125</AltitudeMeters>
            <DistanceMeters>3126.6699952065</DistanceMeters>
          </Trackpoint>
          <Trackpoint>
            <Time>2021-08-01T10:37:03.000Z</Time>
            <Position>
              <LatitudeDegrees>-15.463379211723804473876953125</LatitudeDegrees>
              <LongitudeDegrees>37.01341780833899974822998046875</LongitudeDegrees>
            </Position>
            <AltitudeMeters>703.20001220703125</AltitudeMeters>
            <DistanceMeters>3133.3462559359</DistanceMeters>
          </Trackpoint>
          <Trackpoint>
            <Time>2021-08-01T10:37:09.000Z</Time>
            <Position>
              <LatitudeDegrees>-15.46334727667272090911865234375</LatitudeDegrees>
              <LongitudeDegrees>37.013483941555023193359375</LongitudeDegrees>
            </Position>
            <AltitudeMeters>703.20001220703125</AltitudeMeters>
            <DistanceMeters>3141.280844329</DistanceMeters>
          </Trackpoint>
          <Trackpoint>
            <Time>2021-08-01T10:37:12.000Z</Time>
            <Position>
              <LatitudeDegrees>-15.46332967467606067657470703125</LatitudeDegrees>
              <LongitudeDegrees>37.0135112665593624114990234375</LongitudeDegrees>
            </Position>
            <AltitudeMeters>703.20001220703125</AltitudeMeters>
            <DistanceMeters>3144.8058103128</DistanceMeters>
          </Trackpoint>
          <Trackpoint>
            <Time>2021-08-01T10:37:18.000Z</Time>
            <Position>
              <LatitudeDegrees>-15.463283993303775787353515625</LatitudeDegrees>
              <LongitudeDegrees>37.01357739977538585662841796875</LongitudeDegrees>
            </Position>
            <AltitudeMeters>703.20001220703125</AltitudeMeters>
            <DistanceMeters>3153.5337954687</DistanceMeters>
          </Trackpoint>
          <Trackpoint>
            <Time>2021-08-01T10:37:25.000Z</Time>
            <Position>
              <LatitudeDegrees>-15.46323562972247600555419921875</LatitudeDegrees>
              <LongitudeDegrees>37.0136524178087711334228515625</LongitudeDegrees>
            </Position>
            <AltitudeMeters>703</AltitudeMeters>
            <DistanceMeters>3163.2153342662</DistanceMeters>
          </Trackpoint>
          <Trackpoint>
            <Time>2021-08-01T10:37:30.000Z</Time>
            <Position>
              <LatitudeDegrees>-15.46319807879626750946044921875</LatitudeDegrees>
              <LongitudeDegrees>37.01371528208255767822265625</LongitudeDegrees>
            </Position>
            <AltitudeMeters>702.79998779296875</AltitudeMeters>
            <DistanceMeters>3171.1499226593</DistanceMeters>
          </Trackpoint>
          <Trackpoint>
            <Time>2021-08-01T10:37:35.000Z</Time>
            <Position>
              <LatitudeDegrees>-15.4631562530994415283203125</LatitudeDegrees>
              <LongitudeDegrees>37.0137670822441577911376953125</LongitudeDegrees>
            </Position>
            <AltitudeMeters>702.5999755859375</AltitudeMeters>
            <DistanceMeters>3178.3994084965</DistanceMeters>
          </Trackpoint>
          <Trackpoint>
            <Time>2021-08-01T10:37:40.000Z</Time>
            <Position>
              <LatitudeDegrees>-15.4631148464977741241455078125</LatitudeDegrees>
              <LongitudeDegrees>37.01381594873964786529541015625</LongitudeDegrees>
            </Position>
            <AltitudeMeters>702.5999755859375</AltitudeMeters>
            <DistanceMeters>3185.3791837375</DistanceMeters>
          </Trackpoint>
          <Trackpoint>
            <Time>2021-08-01T10:37:48.000Z</Time>
            <Position>
              <LatitudeDegrees>-15.4630575142800807952880859375</LatitudeDegrees>
              <LongitudeDegrees>37.0139065571129322052001953125</LongitudeDegrees>
            </Position>
            <AltitudeMeters>702.4000244140625</AltitudeMeters>
            <DistanceMeters>3197.0062759983</DistanceMeters>
          </Trackpoint>
          <Trackpoint>
            <Time>2021-08-01T10:37:51.000Z</Time>
            <Position>
              <LatitudeDegrees>-15.4630373977124691009521484375</LatitudeDegrees>
              <LongitudeDegrees>37.01393933035433292388916015625</LongitudeDegrees>
            </Position>
            <AltitudeMeters>702.20001220703125</AltitudeMeters>
            <DistanceMeters>3201.1755561706</DistanceMeters>
          </Trackpoint>
          <Trackpoint>
            <Time>2021-08-01T10:37:56.000Z</Time>
            <Position>
              <LatitudeDegrees>-15.46300143934786319732666015625</LatitudeDegrees>
              <LongitudeDegrees>37.01399699784815311431884765625</LongitudeDegrees>
            </Position>
            <AltitudeMeters>701.79998779296875</AltitudeMeters>
            <DistanceMeters>3208.5436508755</DistanceMeters>
          </Trackpoint>
          <Trackpoint>
            <Time>2021-08-01T10:37:58.000Z</Time>
            <Position>
              <LatitudeDegrees>-15.46298752538859844207763671875</LatitudeDegrees>
              <LongitudeDegrees>37.01402105391025543212890625</LongitudeDegrees>
            </Position>
            <AltitudeMeters>701.79998779296875</AltitudeMeters>
            <DistanceMeters>3211.5531635725</DistanceMeters>
          </Trackpoint>
          <Trackpoint>
            <Time>2021-08-01T10:38:09.000Z</Time>
            <Position>
              <LatitudeDegrees>-15.46290840022265911102294921875</LatitudeDegrees>
              <LongitudeDegrees>37.0141298510134220123291015625</LongitudeDegrees>
            </Position>
            <AltitudeMeters>701</AltitudeMeters>
            <DistanceMeters>3226.174313655</DistanceMeters>
          </Trackpoint>
          <Trackpoint>
            <Time>2021-08-01T10:38:13.000Z</Time>
            <Position>
              <LatitudeDegrees>-15.46288040466606616973876953125</LatitudeDegrees>
              <LongitudeDegrees>37.0141670666635036468505859375</LongitudeDegrees>
            </Position>
            <AltitudeMeters>701</AltitudeMeters>
            <DistanceMeters>3231.2384440937</DistanceMeters>
          </Trackpoint>
          <Trackpoint>
            <Time>2021-08-01T10:38:22.000Z</Time>
            <Position>
              <LatitudeDegrees>-15.46280664391815662384033203125</LatitudeDegrees>
              <LongitudeDegrees>37.01426086015999317169189453125</LongitudeDegrees>
            </Position>
            <AltitudeMeters>701</AltitudeMeters>
            <DistanceMeters>3244.2244626364</DistanceMeters>
          </Trackpoint>
          <Trackpoint>
            <Time>2021-08-01T10:38:32.000Z</Time>
            <Position>
              <LatitudeDegrees>-15.46273539774119853973388671875</LatitudeDegrees>
              <LongitudeDegrees>37.01437116600573062896728515625</LongitudeDegrees>
            </Position>
            <AltitudeMeters>700.79998779296875</AltitudeMeters>
            <DistanceMeters>3258.4686469802</DistanceMeters>
          </Trackpoint>
          <Trackpoint>
            <Time>2021-08-01T10:38:35.000Z</Time>
            <Position>
              <LatitudeDegrees>-15.46271511353552341461181640625</LatitudeDegrees>
              <LongitudeDegrees>37.01440460979938507080078125</LongitudeDegrees>
            </Position>
            <AltitudeMeters>700.79998779296875</AltitudeMeters>
            <DistanceMeters>3262.707733217</DistanceMeters>
          </Trackpoint>
          <Trackpoint>
            <Time>2021-08-01T10:38:44.000Z</Time>
            <Position>
              <LatitudeDegrees>-15.46265040524303913116455078125</LatitudeDegrees>
              <LongitudeDegrees>37.0144976489245891571044921875</LongitudeDegrees>
            </Position>
            <AltitudeMeters>700.79998779296875</AltitudeMeters>
            <DistanceMeters>3275.0158022136</DistanceMeters>
          </Trackpoint>
          <Trackpoint>
            <Time>2021-08-01T10:38:57.000Z</Time>
            <Position>
              <LatitudeDegrees>-15.46255015768110752105712890625</LatitudeDegrees>
              <LongitudeDegrees>37.014626227319240570068359375</LongitudeDegrees>
            </Position>
            <AltitudeMeters>700.5999755859375</AltitudeMeters>
            <DistanceMeters>3292.7568087931</DistanceMeters>
          </Trackpoint>
          <Trackpoint>
            <Time>2021-08-01T10:39:10.000Z</Time>
            <Position>
              <LatitudeDegrees>-15.46245460398495197296142578125</LatitudeDegrees>
              <LongitudeDegrees>37.01475790701806545257568359375</LongitudeDegrees>
            </Position>
            <AltitudeMeters>700.5999755859375</AltitudeMeters>
            <DistanceMeters>3310.4389287677</DistanceMeters>
          </Trackpoint>
          <Trackpoint>
            <Time>2021-08-01T10:39:23.000Z</Time>
            <Position>
              <LatitudeDegrees>-15.46236097812652587890625</LatitudeDegrees>
              <LongitudeDegrees>37.01490375213325023651123046875</LongitudeDegrees>
            </Position>
            <AltitudeMeters>700.4000244140625</AltitudeMeters>
            <DistanceMeters>3329.237172874</DistanceMeters>
          </Trackpoint>
          <Trackpoint>
            <Time>2021-08-01T10:39:35.000Z</Time>
            <Position>
              <LatitudeDegrees>-15.462280847132205963134765625</LatitudeDegrees>
              <LongitudeDegrees>37.0150230266153812408447265625</LongitudeDegrees>
            </Position>
            <AltitudeMeters>700.79998779296875</AltitudeMeters>
            <DistanceMeters>3344.834006826</DistanceMeters>
          </Trackpoint>
          <Trackpoint>
            <Time>2021-08-01T10:39:44.000Z</Time>
            <Position>
              <LatitudeDegrees>-15.46223097480833530426025390625</LatitudeDegrees>
              <LongitudeDegrees>37.01511547900736331939697265625</LongitudeDegrees>
            </Position>
            <AltitudeMeters>701.20001220703125</AltitudeMeters>
            <DistanceMeters>3356.1995355656</DistanceMeters>
          </Trackpoint>
          <Trackpoint>
            <Time>2021-08-01T10:39:51.000Z</Time>
            <Position>
              <LatitudeDegrees>-15.46218068338930606842041015625</LatitudeDegrees>
              <LongitudeDegrees>37.01518588699400424957275390625</LongitudeDegrees>
            </Position>
            <AltitudeMeters>701.20001220703125</AltitudeMeters>
            <DistanceMeters>3365.6009390902</DistanceMeters>
          </Trackpoint>
          <Trackpoint>
            <Time>2021-08-01T10:39:57.000Z</Time>
            <Position>
              <LatitudeDegrees>-15.46213827095925807952880859375</LatitudeDegrees>
              <LongitudeDegrees>37.0152573846280574798583984375</LongitudeDegrees>
            </Position>
            <AltitudeMeters>701.20001220703125</AltitudeMeters>
            <DistanceMeters>3374.607446554</DistanceMeters>
          </Trackpoint>
          <Trackpoint>
            <Time>2021-08-01T10:39:58.000Z</Time>
            <Position>
              <LatitudeDegrees>-15.46213190071284770965576171875</LatitudeDegrees>
              <LongitudeDegrees>37.01526853255927562713623046875</LongitudeDegrees>
            </Position>
            <AltitudeMeters>701.20001220703125</AltitudeMeters>
            <DistanceMeters>3375.9943157918</DistanceMeters>
          </Trackpoint>
          <Trackpoint>
            <Time>2021-08-01T10:40:01.000Z</Time>
            <Position>
              <LatitudeDegrees>-15.462113209068775177001953125</LatitudeDegrees>
              <LongitudeDegrees>37.0153006352484226226806640625</LongitudeDegrees>
            </Position>
            <AltitudeMeters>701.20001220703125</AltitudeMeters>
            <DistanceMeters>3380.0169886579</DistanceMeters>
          </Trackpoint>
          <Trackpoint>
            <Time>2021-08-01T10:40:09.000Z</Time>
            <Position>
              <LatitudeDegrees>-15.462057553231716156005859375</LatitudeDegrees>
              <LongitudeDegrees>37.01538856141269207000732421875</LongitudeDegrees>
            </Position>
            <AltitudeMeters>701.5999755859375</AltitudeMeters>
            <DistanceMeters>3391.3015860372</DistanceMeters>
          </Trackpoint>
          <Trackpoint>
            <Time>2021-08-01T10:40:22.000Z</Time>
            <Position>
              <LatitudeDegrees>-15.46195336617529392242431640625</LatitudeDegrees>
              <LongitudeDegrees>37.01552283950150012969970703125</LongitudeDegrees>
            </Position>
            <AltitudeMeters>701.4000244140625</AltitudeMeters>
            <DistanceMeters>3409.7942339008</DistanceMeters>
          </Trackpoint>
          <Trackpoint>
            <Time>2021-08-01T10:40:25.000Z</Time>
            <Position>
              <LatitudeDegrees>-15.4619256220757961273193359375</LatitudeDegrees>
              <LongitudeDegrees>37.0155510865151882171630859375</LongitudeDegrees>
            </Position>
            <AltitudeMeters>701.20001220703125</AltitudeMeters>
            <DistanceMeters>3414.121863569</DistanceMeters>
          </Trackpoint>
          <Trackpoint>
            <Time>2021-08-01T10:40:32.000Z</Time>
            <Position>
              <LatitudeDegrees>-15.4618418030440807342529296875</LatitudeDegrees>
              <LongitudeDegrees>37.01560632325708866119384765625</LongitudeDegrees>
            </Position>
            <AltitudeMeters>701</AltitudeMeters>
            <DistanceMeters>3425.1735970973</DistanceMeters>
          </Trackpoint>
          <Trackpoint>
            <Time>2021-08-01T10:40:41.000Z</Time>
            <Position>
              <LatitudeDegrees>-15.4617341794073581695556640625</LatitudeDegrees>
              <LongitudeDegrees>37.0156526751816272735595703125</LongitudeDegrees>
            </Position>
            <AltitudeMeters>700.79998779296875</AltitudeMeters>
            <DistanceMeters>3438.1432641708</DistanceMeters>
          </Trackpoint>
          <Trackpoint>
            <Time>2021-08-01T10:40:51.000Z</Time>
            <Position>
              <LatitudeDegrees>-15.46161674894392490386962890625</LatitudeDegrees>
              <LongitudeDegrees>37.01569751836359500885009765625</LongitudeDegrees>
            </Position>
            <AltitudeMeters>700</AltitudeMeters>
            <DistanceMeters>3452.0707575595</DistanceMeters>
          </Trackpoint>
          <Trackpoint>
            <Time>2021-08-01T10:40:54.000Z</Time>
            <Position>
              <LatitudeDegrees>-15.4615692235529422760009765625</LatitudeDegrees>
              <LongitudeDegrees>37.0157147012650966644287109375</LongitudeDegrees>
            </Position>
            <AltitudeMeters>699.79998779296875</AltitudeMeters>
            <DistanceMeters>3457.6716936926</DistanceMeters>
          </Trackpoint>
          <Trackpoint>
            <Time>2021-08-01T10:41:02.000Z</Time>
            <Position>
              <LatitudeDegrees>-15.46147517859935760498046875</LatitudeDegrees>
              <LongitudeDegrees>37.01575183309614658355712890625</LongitudeDegrees>
            </Position>
            <AltitudeMeters>699.5999755859375</AltitudeMeters>
            <DistanceMeters>3468.8719535985</DistanceMeters>
          </Trackpoint>
          <Trackpoint>
            <Time>2021-08-01T10:41:13.000Z</Time>
            <Position>
              <LatitudeDegrees>-15.461344756186008453369140625</LatitudeDegrees>
              <LongitudeDegrees>37.01580815948545932769775390625</LongitudeDegrees>
            </Position>
            <AltitudeMeters>699.5999755859375</AltitudeMeters>
            <DistanceMeters>3484.5953575837</DistanceMeters>
          </Trackpoint>
          <Trackpoint>
            <Time>2021-08-01T10:41:20.000Z</Time>
            <Position>
              <LatitudeDegrees>-15.46126051805913448333740234375</LatitudeDegrees>
              <LongitudeDegrees>37.015870101749897003173828125</LongitudeDegrees>
            </Position>
            <AltitudeMeters>699.20001220703125</AltitudeMeters>
            <DistanceMeters>3496.0873055471</DistanceMeters>
          </Trackpoint>
          <Trackpoint>
            <Time>2021-08-01T10:41:21.000Z</Time>
            <Position>
              <LatitudeDegrees>-15.4612547345459461212158203125</LatitudeDegrees>
              <LongitudeDegrees>37.0158779807388782501220703125</LongitudeDegrees>
            </Position>
            <AltitudeMeters>699.20001220703125</AltitudeMeters>
            <DistanceMeters>3497.1497365121</DistanceMeters>
          </Trackpoint>
          <Trackpoint>
            <Time>2021-08-01T10:41:25.000Z</Time>
            <Position>
              <LatitudeDegrees>-15.4612269066274166107177734375</LatitudeDegrees>
              <LongitudeDegrees>37.015914022922515869140625</LongitudeDegrees>
            </Position>
            <AltitudeMeters>699.20001220703125</AltitudeMeters>
            <DistanceMeters>3502.102989756</DistanceMeters>
          </Trackpoint>
          <Trackpoint>
            <Time>2021-08-01T10:41:30.000Z</Time>
            <Position>
              <LatitudeDegrees>-15.46118575148284435272216796875</LatitudeDegrees>
              <LongitudeDegrees>37.0159765519201755523681640625</LongitudeDegrees>
            </Position>
            <AltitudeMeters>699.20001220703125</AltitudeMeters>
            <DistanceMeters>3510.2254117162</DistanceMeters>
          </Trackpoint>
          <Trackpoint>
            <Time>2021-08-01T10:41:32.000Z</Time>
            <Position>
              <LatitudeDegrees>-15.46117720194160938262939453125</LatitudeDegrees>
              <LongitudeDegrees>37.01600429601967334747314453125</LongitudeDegrees>
            </Position>
            <AltitudeMeters>699.20001220703125</AltitudeMeters>
            <DistanceMeters>3513.3497536687</DistanceMeters>
          </Trackpoint>
          <Trackpoint>
            <Time>2021-08-01T10:41:34.000Z</Time>
            <Position>
              <LatitudeDegrees>-15.46117418445646762847900390625</LatitudeDegrees>
              <LongitudeDegrees>37.0160280168056488037109375</LongitudeDegrees>
            </Position>
            <AltitudeMeters>699.20001220703125</AltitudeMeters>
            <DistanceMeters>3515.9172341076</DistanceMeters>
          </Trackpoint>
          <Trackpoint>
            <Time>2021-08-01T10:41:35.000Z</Time>
            <Position>
              <LatitudeDegrees>-15.46117074787616729736328125</LatitudeDegrees>
              <LongitudeDegrees>37.0160358957946300506591796875</LongitudeDegrees>
            </Position>
            <AltitudeMeters>699.20001220703125</AltitudeMeters>
            <DistanceMeters>3516.8434399498</DistanceMeters>
          </Trackpoint>
          <Trackpoint>
            <Time>2021-08-01T10:41:43.000Z</Time>
            <Position>
              <LatitudeDegrees>-15.46117083169519901275634765625</LatitudeDegrees>
              <LongitudeDegrees>37.01613999903202056884765625</LongitudeDegrees>
            </Position>
            <AltitudeMeters>699</AltitudeMeters>
            <DistanceMeters>3528.0109994758</DistanceMeters>
          </Trackpoint>
          <Trackpoint>
            <Time>2021-08-01T10:41:52.000Z</Time>
            <Position>
              <LatitudeDegrees>-15.46117787249386310577392578125</LatitudeDegrees>
              <LongitudeDegrees>37.0162467844784259796142578125</LongitudeDegrees>
            </Position>
            <AltitudeMeters>699.5999755859375</AltitudeMeters>
            <DistanceMeters>3539.4931210603</DistanceMeters>
          </Trackpoint>
          <Trackpoint>
            <Time>2021-08-01T10:42:00.000Z</Time>
            <Position>
              <LatitudeDegrees>-15.46118759550154209136962890625</LatitudeDegrees>
              <LongitudeDegrees>37.01633856631815433502197265625</LongitudeDegrees>
            </Position>
            <AltitudeMeters>699</AltitudeMeters>
            <DistanceMeters>3549.3987159763</DistanceMeters>
          </Trackpoint>
          <Trackpoint>
            <Time>2021-08-01T10:42:04.000Z</Time>
            <Position>
              <LatitudeDegrees>-15.4611792974174022674560546875</LatitudeDegrees>
              <LongitudeDegrees>37.01639212667942047119140625</LongitudeDegrees>
            </Position>
            <AltitudeMeters>699</AltitudeMeters>
            <DistanceMeters>3555.218665868</DistanceMeters>
          </Trackpoint>
          <Trackpoint>
            <Time>2021-08-01T10:42:08.000Z</Time>
            <Position>
              <LatitudeDegrees>-15.46116529963910579681396484375</LatitudeDegrees>
              <LongitudeDegrees>37.0164378918707370758056640625</LongitudeDegrees>
            </Position>
            <AltitudeMeters>699</AltitudeMeters>
            <DistanceMeters>3560.3694293641</DistanceMeters>
          </Trackpoint>
          <Trackpoint>
            <Time>2021-08-01T10:42:10.000Z</Time>
            <Position>
              <LatitudeDegrees>-15.4611521400511264801025390625</LatitudeDegrees>
              <LongitudeDegrees>37.01645314693450927734375</LongitudeDegrees>
            </Position>
            <AltitudeMeters>698.79998779296875</AltitudeMeters>
            <DistanceMeters>3562.565348493</DistanceMeters>
          </Trackpoint>
          <Trackpoint>
            <Time>2021-08-01T10:42:15.000Z</Time>
            <Position>
              <LatitudeDegrees>-15.46109832823276519775390625</LatitudeDegrees>
              <LongitudeDegrees>37.01648156158626079559326171875</LongitudeDegrees>
            </Position>
            <AltitudeMeters>698.79998779296875</AltitudeMeters>
            <DistanceMeters>3569.2860956519</DistanceMeters>
          </Trackpoint>
          <Trackpoint>
            <Time>2021-08-01T10:42:17.000Z</Time>
            <Position>
              <LatitudeDegrees>-15.46109237708151340484619140625</LatitudeDegrees>
              <LongitudeDegrees>37.0164935477077960968017578125</LongitudeDegrees>
            </Position>
            <AltitudeMeters>698.79998779296875</AltitudeMeters>
            <DistanceMeters>3570.7366154936</DistanceMeters>
          </Trackpoint>
          <Trackpoint>
            <Time>2021-08-01T10:42:18.000Z</Time>
            <Position>
              <LatitudeDegrees>-15.4610951431095600128173828125</LatitudeDegrees>
              <LongitudeDegrees>37.016499750316143035888671875</LongitudeDegrees>
            </Position>
            <AltitudeMeters>698.79998779296875</AltitudeMeters>
            <DistanceMeters>3571.472689258</DistanceMeters>
          </Trackpoint>
          <Trackpoint>
            <Time>2021-08-01T10:42:22.000Z</Time>
            <Position>
              <LatitudeDegrees>-15.46111417002975940704345703125</LatitudeDegrees>
              <LongitudeDegrees>37.01651961542665958404541015625</LongitudeDegrees>
            </Position>
            <AltitudeMeters>698.79998779296875</AltitudeMeters>
            <DistanceMeters>3574.4776978178</DistanceMeters>
          </Trackpoint>
          <Trackpoint>
            <Time>2021-08-01T10:42:28.000Z</Time>
            <Position>
              <LatitudeDegrees>-15.4611434228718280792236328125</LatitudeDegrees>
              <LongitudeDegrees>37.01655213721096515655517578125</LongitudeDegrees>
            </Position>
            <AltitudeMeters>698.5999755859375</AltitudeMeters>
            <DistanceMeters>3579.2498936218</DistanceMeters>
          </Trackpoint>
          <Trackpoint>
            <Time>2021-08-01T10:42:30.000Z</Time>
            <Position>
              <LatitudeDegrees>-15.4611464403569698333740234375</LatitudeDegrees>
              <LongitudeDegrees>37.01655465178191661834716796875</LongitudeDegrees>
            </Position>
            <AltitudeMeters>698.5999755859375</AltitudeMeters>
            <DistanceMeters>3579.6853607334</DistanceMeters>
          </Trackpoint>
          <Trackpoint>
            <Time>2021-08-01T10:42:37.000Z</Time>
            <Position>
              <LatitudeDegrees>-15.46116965822875499725341796875</LatitudeDegrees>
              <LongitudeDegrees>37.01658817939460277557373046875</LongitudeDegrees>
            </Position>
            <AltitudeMeters>698.20001220703125</AltitudeMeters>
            <DistanceMeters>3584.1130346103</DistanceMeters>
          </Trackpoint>
          <Trackpoint>
            <Time>2021-08-01T10:42:45.000Z</Time>
            <Position>
              <LatitudeDegrees>-15.46118558384478092193603515625</LatitudeDegrees>
              <LongitudeDegrees>37.016605027019977569580078125</LongitudeDegrees>
            </Position>
            <AltitudeMeters>698</AltitudeMeters>
            <DistanceMeters>3586.6415310256</DistanceMeters>
          </Trackpoint>
          <Trackpoint>
            <Time>2021-08-01T10:42:52.000Z</Time>
            <Position>
              <LatitudeDegrees>-15.46119379810988903045654296875</LatitudeDegrees>
              <LongitudeDegrees>37.0166125707328319549560546875</LongitudeDegrees>
            </Position>
            <AltitudeMeters>697.79998779296875</AltitudeMeters>
            <DistanceMeters>3587.8584667416</DistanceMeters>
          </Trackpoint>
          <Trackpoint>
            <Time>2021-08-01T10:42:54.000Z</Time>
            <Position>
              <LatitudeDegrees>-15.46119379810988903045654296875</LatitudeDegrees>
              <LongitudeDegrees>37.0166125707328319549560546875</LongitudeDegrees>
            </Position>
            <AltitudeMeters>697.79998779296875</AltitudeMeters>
            <DistanceMeters>3587.8584667416</DistanceMeters>
          </Trackpoint>
          <Trackpoint>
            <Time>2021-08-01T10:43:02.000Z</Time>
            <Position>
              <LatitudeDegrees>-15.4611928761005401611328125</LatitudeDegrees>
              <LongitudeDegrees>37.0166051946580410003662109375</LongitudeDegrees>
            </Position>
            <AltitudeMeters>698</AltitudeMeters>
            <DistanceMeters>3588.6591760693</DistanceMeters>
          </Trackpoint>
          <Trackpoint>
            <Time>2021-08-01T10:43:07.000Z</Time>
            <Position>
              <LatitudeDegrees>-15.4611923731863498687744140625</LatitudeDegrees>
              <LongitudeDegrees>37.016599662601947784423828125</LongitudeDegrees>
            </Position>
            <AltitudeMeters>698</AltitudeMeters>
            <DistanceMeters>3589.2526177103</DistanceMeters>
          </Trackpoint>
          <Trackpoint>
            <Time>2021-08-01T10:43:11.000Z</Time>
            <Position>
              <LatitudeDegrees>-15.4611927084624767303466796875</LatitudeDegrees>
              <LongitudeDegrees>37.0165974833071231842041015625</LongitudeDegrees>
            </Position>
            <AltitudeMeters>698</AltitudeMeters>
            <DistanceMeters>3589.5213938468</DistanceMeters>
          </Trackpoint>
          <Trackpoint>
            <Time>2021-08-01T10:43:18.000Z</Time>
            <Position>
              <LatitudeDegrees>-15.46119312755763530731201171875</LatitudeDegrees>
              <LongitudeDegrees>37.01659739948809146881103515625</LongitudeDegrees>
            </Position>
            <AltitudeMeters>697.79998779296875</AltitudeMeters>
            <DistanceMeters>3589.6164205612</DistanceMeters>
          </Trackpoint>
          <Trackpoint>
            <Time>2021-08-01T10:43:20.000Z</Time>
            <Position>
              <LatitudeDegrees>-15.46119363047182559967041015625</LatitudeDegrees>
              <LongitudeDegrees>37.01660142280161380767822265625</LongitudeDegrees>
            </Position>
            <AltitudeMeters>697.79998779296875</AltitudeMeters>
            <DistanceMeters>3590.0518876728</DistanceMeters>
          </Trackpoint>
          <Trackpoint>
            <Time>2021-08-01T10:43:21.000Z</Time>
            <Position>
              <LatitudeDegrees>-15.46119899488985538482666015625</LatitudeDegrees>
              <LongitudeDegrees>37.01661852188408374786376953125</LongitudeDegrees>
            </Position>
            <AltitudeMeters>697.20001220703125</AltitudeMeters>
            <DistanceMeters>3591.9830587091</DistanceMeters>
          </Trackpoint>
          <Trackpoint>
            <Time>2021-08-01T10:43:23.000Z</Time>
            <Position>
              <LatitudeDegrees>-15.461209975183010101318359375</LatitudeDegrees>
              <LongitudeDegrees>37.01665439642965793609619140625</LongitudeDegrees>
            </Position>
            <AltitudeMeters>697</AltitudeMeters>
            <DistanceMeters>3596.0202963763</DistanceMeters>
          </Trackpoint>
          <Trackpoint>
            <Time>2021-08-01T10:43:31.000Z</Time>
            <Position>
              <LatitudeDegrees>-15.4612587578594684600830078125</LatitudeDegrees>
              <LongitudeDegrees>37.01679470948874950408935546875</LongitudeDegrees>
            </Position>
            <AltitudeMeters>695.79998779296875</AltitudeMeters>
            <DistanceMeters>3612.0212262685</DistanceMeters>
          </Trackpoint>
          <Trackpoint>
            <Time>2021-08-01T10:43:37.000Z</Time>
            <Position>
              <LatitudeDegrees>-15.46128532849252223968505859375</LatitudeDegrees>
              <LongitudeDegrees>37.01686930842697620391845703125</LongitudeDegrees>
            </Position>
            <AltitudeMeters>694.5999755859375</AltitudeMeters>
            <DistanceMeters>3620.5519581282</DistanceMeters>
          </Trackpoint>
          <Trackpoint>
            <Time>2021-08-01T10:43:41.000Z</Time>
            <Position>
              <LatitudeDegrees>-15.461307875812053680419921875</LatitudeDegrees>
              <LongitudeDegrees>37.0169079490005970001220703125</LongitudeDegrees>
            </Position>
            <AltitudeMeters>694.4000244140625</AltitudeMeters>
            <DistanceMeters>3625.3973888371</DistanceMeters>
          </Trackpoint>
          <Trackpoint>
            <Time>2021-08-01T10:43:44.000Z</Time>
            <Position>
              <LatitudeDegrees>-15.4613231308758258819580078125</LatitudeDegrees>
              <LongitudeDegrees>37.01694424264132976531982421875</LongitudeDegrees>
            </Position>
            <AltitudeMeters>693.5999755859375</AltitudeMeters>
            <DistanceMeters>3629.6449873038</DistanceMeters>
          </Trackpoint>
          <Trackpoint>
            <Time>2021-08-01T10:43:49.000Z</Time>
            <Position>
              <LatitudeDegrees>-15.46134970150887966156005859375</LatitudeDegrees>
              <LongitudeDegrees>37.01701649464666843414306640625</LongitudeDegrees>
            </Position>
            <AltitudeMeters>692.5999755859375</AltitudeMeters>
            <DistanceMeters>3637.9406616332</DistanceMeters>
          </Trackpoint>
          <Trackpoint>
            <Time>2021-08-01T10:43:51.000Z</Time>
            <Position>
              <LatitudeDegrees>-15.46135657466948032379150390625</LatitudeDegrees>
              <LongitudeDegrees>37.0170470885932445526123046875</LongitudeDegrees>
            </Position>
            <AltitudeMeters>692</AltitudeMeters>
            <DistanceMeters>3641.3110972381</DistanceMeters>
          </Trackpoint>
          <Trackpoint>
            <Time>2021-08-01T10:43:56.000Z</Time>
            <Position>
              <LatitudeDegrees>-15.461376607418060302734375</LatitudeDegrees>
              <LongitudeDegrees>37.01710869558155536651611328125</LongitudeDegrees>
            </Position>
            <AltitudeMeters>691.4000244140625</AltitudeMeters>
            <DistanceMeters>3648.2856955637</DistanceMeters>
          </Trackpoint>
          <Trackpoint>
            <Time>2021-08-01T10:44:02.000Z</Time>
            <Position>
              <LatitudeDegrees>-15.4614086262881755828857421875</LatitudeDegrees>
              <LongitudeDegrees>37.017169632017612457275390625</LongitudeDegrees>
            </Position>
            <AltitudeMeters>690.4000244140625</AltitudeMeters>
            <DistanceMeters>3655.73060048</DistanceMeters>
          </Trackpoint>
          <Trackpoint>
            <Time>2021-08-01T10:44:03.000Z</Time>
            <Position>
              <LatitudeDegrees>-15.4614149965345859527587890625</LatitudeDegrees>
              <LongitudeDegrees>37.017184384167194366455078125</LongitudeDegrees>
            </Position>
            <AltitudeMeters>690</AltitudeMeters>
            <DistanceMeters>3657.4646752927</DistanceMeters>
          </Trackpoint>
          <Trackpoint>
            <Time>2021-08-01T10:44:09.000Z</Time>
            <Position>
              <LatitudeDegrees>-15.4614448361098766326904296875</LatitudeDegrees>
              <LongitudeDegrees>37.0172680355608463287353515625</LongitudeDegrees>
            </Position>
            <AltitudeMeters>689.20001220703125</AltitudeMeters>
            <DistanceMeters>3667.0336342299</DistanceMeters>
          </Trackpoint>
          <Trackpoint>
            <Time>2021-08-01T10:44:14.000Z</Time>
            <Position>
              <LatitudeDegrees>-15.46145908534526824951171875</LatitudeDegrees>
              <LongitudeDegrees>37.0173210091888904571533203125</LongitudeDegrees>
            </Position>
            <AltitudeMeters>689.20001220703125</AltitudeMeters>
            <DistanceMeters>3672.9337142879</DistanceMeters>
          </Trackpoint>
          <Trackpoint>
            <Time>2021-08-01T10:44:16.000Z</Time>
            <Position>
              <LatitudeDegrees>-15.46147040091454982757568359375</LatitudeDegrees>
              <LongitudeDegrees>37.017341963946819305419921875</LongitudeDegrees>
            </Position>
            <AltitudeMeters>688.5999755859375</AltitudeMeters>
            <DistanceMeters>3675.5099724633</DistanceMeters>
          </Trackpoint>
          <Trackpoint>
            <Time>2021-08-01T10:44:22.000Z</Time>
            <Position>
              <LatitudeDegrees>-15.46150728128850460052490234375</LatitudeDegrees>
              <LongitudeDegrees>37.0174239389598369598388671875</LongitudeDegrees>
            </Position>
            <AltitudeMeters>687.79998779296875</AltitudeMeters>
            <DistanceMeters>3685.2143357724</DistanceMeters>
          </Trackpoint>
          <Trackpoint>
            <Time>2021-08-01T10:44:23.000Z</Time>
            <Position>
              <LatitudeDegrees>-15.461510717868804931640625</LatitudeDegrees>
              <LongitudeDegrees>37.01743994839489459991455078125</LongitudeDegrees>
            </Position>
            <AltitudeMeters>687.4000244140625</AltitudeMeters>
            <DistanceMeters>3686.9742551513</DistanceMeters>
          </Trackpoint>
          <Trackpoint>
            <Time>2021-08-01T10:44:32.000Z</Time>
            <Position>
              <LatitudeDegrees>-15.46155103482306003570556640625</LatitudeDegrees>
              <LongitudeDegrees>37.0175506733357906341552734375</LongitudeDegrees>
            </Position>
            <AltitudeMeters>686.4000244140625</AltitudeMeters>
            <DistanceMeters>3699.6716164846</DistanceMeters>
          </Trackpoint>
          <Trackpoint>
            <Time>2021-08-01T10:44:34.000Z</Time>
            <Position>
              <LatitudeDegrees>-15.46156109310686588287353515625</LatitudeDegrees>
              <LongitudeDegrees>37.01756827533245086669921875</LongitudeDegrees>
            </Position>
            <AltitudeMeters>686</AltitudeMeters>
            <DistanceMeters>3701.8654785461</DistanceMeters>
          </Trackpoint>
          <Trackpoint>
            <Time>2021-08-01T10:44:41.000Z</Time>
            <Position>
              <LatitudeDegrees>-15.4615990631282329559326171875</LatitudeDegrees>
              <LongitudeDegrees>37.017656452953815460205078125</LongitudeDegrees>
            </Position>
            <AltitudeMeters>684.79998779296875</AltitudeMeters>
            <DistanceMeters>3712.225569695</DistanceMeters>
          </Trackpoint>
          <Trackpoint>
            <Time>2021-08-01T10:44:45.000Z</Time>
            <Position>
              <LatitudeDegrees>-15.46161725185811519622802734375</LatitudeDegrees>
              <LongitudeDegrees>37.01772074215114116668701171875</LongitudeDegrees>
            </Position>
            <AltitudeMeters>683.79998779296875</AltitudeMeters>
            <DistanceMeters>3719.4131330746</DistanceMeters>
          </Trackpoint>
          <Trackpoint>
            <Time>2021-08-01T10:44:51.000Z</Time>
            <Position>
              <LatitudeDegrees>-15.4616500250995159149169921875</LatitudeDegrees>
              <LongitudeDegrees>37.0177783258259296417236328125</LongitudeDegrees>
            </Position>
            <AltitudeMeters>683</AltitudeMeters>
            <DistanceMeters>3726.5868633214</DistanceMeters>
          </Trackpoint>
          <Trackpoint>
            <Time>2021-08-01T10:44:56.000Z</Time>
            <Position>
              <LatitudeDegrees>-15.4616711474955081939697265625</LatitudeDegrees>
              <LongitudeDegrees>37.0178277790546417236328125</LongitudeDegrees>
            </Position>
            <AltitudeMeters>682.79998779296875</AltitudeMeters>
            <DistanceMeters>3732.3897208123</DistanceMeters>
          </Trackpoint>
          <Trackpoint>
            <Time>2021-08-01T10:44:58.000Z</Time>
            <Position>
              <LatitudeDegrees>-15.46168363653123378753662109375</LatitudeDegrees>
              <LongitudeDegrees>37.0178504101932048797607421875</LongitudeDegrees>
            </Position>
            <AltitudeMeters>681.79998779296875</AltitudeMeters>
            <DistanceMeters>3735.1877694675</DistanceMeters>
          </Trackpoint>
          <Trackpoint>
            <Time>2021-08-01T10:45:04.000Z</Time>
            <Position>
              <LatitudeDegrees>-15.46171565540134906768798828125</LatitudeDegrees>
              <LongitudeDegrees>37.0179355703294277191162109375</LongitudeDegrees>
            </Position>
            <AltitudeMeters>680.5999755859375</AltitudeMeters>
            <DistanceMeters>3744.9939554769</DistanceMeters>
          </Trackpoint>
          <Trackpoint>
            <Time>2021-08-01T10:45:09.000Z</Time>
            <Position>
              <LatitudeDegrees>-15.46174046583473682403564453125</LatitudeDegrees>
              <LongitudeDegrees>37.01800254173576831817626953125</LongitudeDegrees>
            </Position>
            <AltitudeMeters>679.4000244140625</AltitudeMeters>
            <DistanceMeters>3752.6905327339</DistanceMeters>
          </Trackpoint>
          <Trackpoint>
            <Time>2021-08-01T10:45:17.000Z</Time>
            <Position>
              <LatitudeDegrees>-15.46176661737263202667236328125</LatitudeDegrees>
              <LongitudeDegrees>37.0181042142212390899658203125</LongitudeDegrees>
            </Position>
            <AltitudeMeters>678.4000244140625</AltitudeMeters>
            <DistanceMeters>3763.9787304953</DistanceMeters>
          </Trackpoint>
          <Trackpoint>
            <Time>2021-08-01T10:45:18.000Z</Time>
            <Position>
              <LatitudeDegrees>-15.46177030541002750396728515625</LatitudeDegrees>
              <LongitudeDegrees>37.01811485923826694488525390625</LongitudeDegrees>
            </Position>
            <AltitudeMeters>678.4000244140625</AltitudeMeters>
            <DistanceMeters>3765.1882231095</DistanceMeters>
          </Trackpoint>
          <Trackpoint>
            <Time>2021-08-01T10:45:25.000Z</Time>
            <Position>
              <LatitudeDegrees>-15.4618015699088573455810546875</LatitudeDegrees>
              <LongitudeDegrees>37.0182001031935214996337890625</LongitudeDegrees>
            </Position>
            <AltitudeMeters>677.20001220703125</AltitudeMeters>
            <DistanceMeters>3774.9718221562</DistanceMeters>
          </Trackpoint>
          <Trackpoint>
            <Time>2021-08-01T10:45:30.000Z</Time>
            <Position>
              <LatitudeDegrees>-15.46182244084775447845458984375</LatitudeDegrees>
              <LongitudeDegrees>37.01827109791338443756103515625</LongitudeDegrees>
            </Position>
            <AltitudeMeters>677.20001220703125</AltitudeMeters>
            <DistanceMeters>3782.934811343</DistanceMeters>
          </Trackpoint>
          <Trackpoint>
            <Time>2021-08-01T10:45:40.000Z</Time>
            <Position>
              <LatitudeDegrees>-15.4618646018207073211669921875</LatitudeDegrees>
              <LongitudeDegrees>37.018410824239253997802734375</LongitudeDegrees>
            </Position>
            <AltitudeMeters>676.4000244140625</AltitudeMeters>
            <DistanceMeters>3798.6412641053</DistanceMeters>
          </Trackpoint>
          <Trackpoint>
            <Time>2021-08-01T10:45:42.000Z</Time>
            <Position>
              <LatitudeDegrees>-15.4618795216083526611328125</LatitudeDegrees>
              <LongitudeDegrees>37.018431611359119415283203125</LongitudeDegrees>
            </Position>
            <AltitudeMeters>676.20001220703125</AltitudeMeters>
            <DistanceMeters>3801.4231295787</DistanceMeters>
          </Trackpoint>
          <Trackpoint>
            <Time>2021-08-01T10:45:52.000Z</Time>
            <Position>
              <LatitudeDegrees>-15.4619199223816394805908203125</LatitudeDegrees>
              <LongitudeDegrees>37.01856580562889575958251953125</LongitudeDegrees>
            </Position>
            <AltitudeMeters>675.79998779296875</AltitudeMeters>
            <DistanceMeters>3816.5045607267</DistanceMeters>
          </Trackpoint>
          <Trackpoint>
            <Time>2021-08-01T10:46:02.000Z</Time>
            <Position>
              <LatitudeDegrees>-15.46195931732654571533203125</LatitudeDegrees>
              <LongitudeDegrees>37.01869480311870574951171875</LongitudeDegrees>
            </Position>
            <AltitudeMeters>675.20001220703125</AltitudeMeters>
            <DistanceMeters>3831.0206495188</DistanceMeters>
          </Trackpoint>
          <Trackpoint>
            <Time>2021-08-01T10:46:03.000Z</Time>
            <Position>
              <LatitudeDegrees>-15.46196510083973407745361328125</LatitudeDegrees>
              <LongitudeDegrees>37.01870553195476531982421875</LongitudeDegrees>
            </Position>
            <AltitudeMeters>675.20001220703125</AltitudeMeters>
            <DistanceMeters>3832.3373782977</DistanceMeters>
          </Trackpoint>
          <Trackpoint>
            <Time>2021-08-01T10:46:09.000Z</Time>
            <Position>
              <LatitudeDegrees>-15.4619950242340564727783203125</LatitudeDegrees>
              <LongitudeDegrees>37.0187667198479175567626953125</LongitudeDegrees>
            </Position>
            <AltitudeMeters>674.79998779296875</AltitudeMeters>
            <DistanceMeters>3839.6975025213</DistanceMeters>
          </Trackpoint>
          <Trackpoint>
            <Time>2021-08-01T10:46:20.000Z</Time>
            <Position>
              <LatitudeDegrees>-15.46204037033021450042724609375</LatitudeDegrees>
              <LongitudeDegrees>37.0188810490071773529052734375</LongitudeDegrees>
            </Position>
            <AltitudeMeters>674.20001220703125</AltitudeMeters>
            <DistanceMeters>3852.9597734044</DistanceMeters>
          </Trackpoint>
          <Trackpoint>
            <Time>2021-08-01T10:46:23.000Z</Time>
            <Position>
              <LatitudeDegrees>-15.46205763705074787139892578125</LatitudeDegrees>
              <LongitudeDegrees>37.01890242286026477813720703125</LongitudeDegrees>
            </Position>
            <AltitudeMeters>674.20001220703125</AltitudeMeters>
            <DistanceMeters>3855.9512288622</DistanceMeters>
          </Trackpoint>
          <Trackpoint>
            <Time>2021-08-01T10:46:25.000Z</Time>
            <Position>
              <LatitudeDegrees>-15.46206660568714141845703125</LatitudeDegrees>
              <LongitudeDegrees>37.01891801320016384124755859375</LongitudeDegrees>
            </Position>
            <AltitudeMeters>674.20001220703125</AltitudeMeters>
            <DistanceMeters>3857.8986969894</DistanceMeters>
          </Trackpoint>
          <Trackpoint>
            <Time>2021-08-01T10:46:28.000Z</Time>
            <Position>
              <LatitudeDegrees>-15.4620634205639362335205078125</LatitudeDegrees>
              <LongitudeDegrees>37.01895338483154773712158203125</LongitudeDegrees>
            </Position>
            <AltitudeMeters>674</AltitudeMeters>
            <DistanceMeters>3861.7092563869</DistanceMeters>
          </Trackpoint>
          <Trackpoint>
            <Time>2021-08-01T10:46:36.000Z</Time>
            <Position>
              <LatitudeDegrees>-15.462099798023700714111328125</LatitudeDegrees>
              <LongitudeDegrees>37.019053883850574493408203125</LongitudeDegrees>
            </Position>
            <AltitudeMeters>674.20001220703125</AltitudeMeters>
            <DistanceMeters>3873.2251455256</DistanceMeters>
          </Trackpoint>
          <Trackpoint>
            <Time>2021-08-01T10:46:45.000Z</Time>
            <Position>
              <LatitudeDegrees>-15.46215637587010860443115234375</LatitudeDegrees>
              <LongitudeDegrees>37.019163183867931365966796875</LongitudeDegrees>
            </Position>
            <AltitudeMeters>674.4000244140625</AltitudeMeters>
            <DistanceMeters>3886.5343145276</DistanceMeters>
          </Trackpoint>
          <Trackpoint>
            <Time>2021-08-01T10:46:55.000Z</Time>
            <Position>
              <LatitudeDegrees>-15.46220473945140838623046875</LatitudeDegrees>
              <LongitudeDegrees>37.01928078196942806243896484375</LongitudeDegrees>
            </Position>
            <AltitudeMeters>674.5999755859375</AltitudeMeters>
            <DistanceMeters>3900.2504587611</DistanceMeters>
          </Trackpoint>
          <Trackpoint>
            <Time>2021-08-01T10:47:06.000Z</Time>
            <Position>
              <LatitudeDegrees>-15.46226316131651401519775390625</LatitudeDegrees>
              <LongitudeDegrees>37.01941070146858692169189453125</LongitudeDegrees>
            </Position>
            <AltitudeMeters>675.20001220703125</AltitudeMeters>
            <DistanceMeters>3915.6295277258</DistanceMeters>
          </Trackpoint>
          <Trackpoint>
            <Time>2021-08-01T10:47:13.000Z</Time>
            <Position>
              <LatitudeDegrees>-15.462283529341220855712890625</LatitudeDegrees>
              <LongitudeDegrees>37.0194889046251773834228515625</LongitudeDegrees>
            </Position>
            <AltitudeMeters>675.4000244140625</AltitudeMeters>
            <DistanceMeters>3924.3196675003</DistanceMeters>
          </Trackpoint>
          <Trackpoint>
            <Time>2021-08-01T10:47:14.000Z</Time>
            <Position>
              <LatitudeDegrees>-15.4622877202928066253662109375</LatitudeDegrees>
              <LongitudeDegrees>37.01949753798544406890869140625</LongitudeDegrees>
            </Position>
            <AltitudeMeters>675.5999755859375</AltitudeMeters>
            <DistanceMeters>3925.3562865706</DistanceMeters>
          </Trackpoint>
          <Trackpoint>
            <Time>2021-08-01T10:47:22.000Z</Time>
            <Position>
              <LatitudeDegrees>-15.46231806278228759765625</LatitudeDegrees>
              <LongitudeDegrees>37.01958504505455493927001953125</LongitudeDegrees>
            </Position>
            <AltitudeMeters>676.20001220703125</AltitudeMeters>
            <DistanceMeters>3935.3322813826</DistanceMeters>
          </Trackpoint>
          <Trackpoint>
            <Time>2021-08-01T10:47:23.000Z</Time>
            <Position>
              <LatitudeDegrees>-15.46232543885707855224609375</LatitudeDegrees>
              <LongitudeDegrees>37.01959828846156597137451171875</LongitudeDegrees>
            </Position>
            <AltitudeMeters>676.20001220703125</AltitudeMeters>
            <DistanceMeters>3936.9754468815</DistanceMeters>
          </Trackpoint>
          <Trackpoint>
            <Time>2021-08-01T10:47:30.000Z</Time>
            <Position>
              <LatitudeDegrees>-15.46237665228545665740966796875</LatitudeDegrees>
              <LongitudeDegrees>37.01967573724687099456787109375</LongitudeDegrees>
            </Position>
            <AltitudeMeters>676.79998779296875</AltitudeMeters>
            <DistanceMeters>3947.0514157907</DistanceMeters>
          </Trackpoint>
          <Trackpoint>
            <Time>2021-08-01T10:47:39.000Z</Time>
            <Position>
              <LatitudeDegrees>-15.4624181427061557769775390625</LatitudeDegrees>
              <LongitudeDegrees>37.0197859592735767364501953125</LongitudeDegrees>
            </Position>
            <AltitudeMeters>677</AltitudeMeters>
            <DistanceMeters>3959.745220739</DistanceMeters>
          </Trackpoint>
          <Trackpoint>
            <Time>2021-08-01T10:47:41.000Z</Time>
            <Position>
              <LatitudeDegrees>-15.46242208220064640045166015625</LatitudeDegrees>
              <LongitudeDegrees>37.0198090933263301849365234375</LongitudeDegrees>
            </Position>
            <AltitudeMeters>677.20001220703125</AltitudeMeters>
            <DistanceMeters>3962.266564392</DistanceMeters>
          </Trackpoint>
          <Trackpoint>
            <Time>2021-08-01T10:47:49.000Z</Time>
            <Position>
              <LatitudeDegrees>-15.46244974248111248016357421875</LatitudeDegrees>
              <LongitudeDegrees>37.01990724541246891021728515625</LongitudeDegrees>
            </Position>
            <AltitudeMeters>677.4000244140625</AltitudeMeters>
            <DistanceMeters>3973.2362862979</DistanceMeters>
          </Trackpoint>
          <Trackpoint>
            <Time>2021-08-01T10:47:58.000Z</Time>
            <Position>
              <LatitudeDegrees>-15.46248176135122776031494140625</LatitudeDegrees>
              <LongitudeDegrees>37.020003385841846466064453125</LongitudeDegrees>
            </Position>
            <AltitudeMeters>677.79998779296875</AltitudeMeters>
            <DistanceMeters>3984.1482333281</DistanceMeters>
          </Trackpoint>
          <Trackpoint>
            <Time>2021-08-01T10:48:01.000Z</Time>
            <Position>
              <LatitudeDegrees>-15.4625009559094905853271484375</LatitudeDegrees>
              <LongitudeDegrees>37.02003967948257923126220703125</LongitudeDegrees>
            </Position>
            <AltitudeMeters>678</AltitudeMeters>
            <DistanceMeters>3988.5901605033</DistanceMeters>
          </Trackpoint>
          <Trackpoint>
            <Time>2021-08-01T10:48:07.000Z</Time>
            <Position>
              <LatitudeDegrees>-15.46253238804638385772705078125</LatitudeDegrees>
              <LongitudeDegrees>37.020115368068218231201171875</LongitudeDegrees>
            </Position>
            <AltitudeMeters>678.20001220703125</AltitudeMeters>
            <DistanceMeters>3997.4312204906</DistanceMeters>
          </Trackpoint>
          <Trackpoint>
            <Time>2021-08-01T10:48:09.000Z</Time>
            <Position>
              <LatitudeDegrees>-15.4625448770821094512939453125</LatitudeDegrees>
              <LongitudeDegrees>37.0201371610164642333984375</LongitudeDegrees>
            </Position>
            <AltitudeMeters>678.20001220703125</AltitudeMeters>
            <DistanceMeters>4000.1523714757</DistanceMeters>
          </Trackpoint>
          <Trackpoint>
            <Time>2021-08-01T10:48:13.000Z</Time>
            <Position>
              <LatitudeDegrees>-15.462563820183277130126953125</LatitudeDegrees>
              <LongitudeDegrees>37.020185105502605438232421875</LongitudeDegrees>
            </Position>
            <AltitudeMeters>678.20001220703125</AltitudeMeters>
            <DistanceMeters>4005.710418931</DistanceMeters>
          </Trackpoint>
          <Trackpoint>
            <Time>2021-08-01T10:48:17.000Z</Time>
            <Position>
              <LatitudeDegrees>-15.46258335001766681671142578125</LatitudeDegrees>
              <LongitudeDegrees>37.0202325470745563507080078125</LongitudeDegrees>
            </Position>
            <AltitudeMeters>678</AltitudeMeters>
            <DistanceMeters>4011.2448583152</DistanceMeters>
          </Trackpoint>
          <Trackpoint>
            <Time>2021-08-01T10:48:24.000Z</Time>
            <Position>
              <LatitudeDegrees>-15.46260648407042026519775390625</LatitudeDegrees>
              <LongitudeDegrees>37.0203177072107791900634765625</LongitudeDegrees>
            </Position>
            <AltitudeMeters>678.20001220703125</AltitudeMeters>
            <DistanceMeters>4020.7370710582</DistanceMeters>
          </Trackpoint>
          <Trackpoint>
            <Time>2021-08-01T10:48:33.000Z</Time>
            <Position>
              <LatitudeDegrees>-15.46265509910881519317626953125</LatitudeDegrees>
              <LongitudeDegrees>37.02043153345584869384765625</LongitudeDegrees>
            </Position>
            <AltitudeMeters>678.4000244140625</AltitudeMeters>
            <DistanceMeters>4034.0933115528</DistanceMeters>
          </Trackpoint>
          <Trackpoint>
            <Time>2021-08-01T10:48:37.000Z</Time>
            <Position>
              <LatitudeDegrees>-15.4626776464283466339111328125</LatitudeDegrees>
              <LongitudeDegrees>37.02048358507454395294189453125</LongitudeDegrees>
            </Position>
            <AltitudeMeters>678.5999755859375</AltitudeMeters>
            <DistanceMeters>4040.2157169069</DistanceMeters>
          </Trackpoint>
          <Trackpoint>
            <Time>2021-08-01T10:48:41.000Z</Time>
            <Position>
              <LatitudeDegrees>-15.46269558370113372802734375</LatitudeDegrees>
              <LongitudeDegrees>37.0205309428274631500244140625</LongitudeDegrees>
            </Position>
            <AltitudeMeters>678.5999755859375</AltitudeMeters>
            <DistanceMeters>4045.6745860448</DistanceMeters>
          </Trackpoint>
          <Trackpoint>
            <Time>2021-08-01T10:48:51.000Z</Time>
            <Position>
              <LatitudeDegrees>-15.46273958869278430938720703125</LatitudeDegrees>
              <LongitudeDegrees>37.0206533186137676239013671875</LongitudeDegrees>
            </Position>
            <AltitudeMeters>679.20001220703125</AltitudeMeters>
            <DistanceMeters>4059.6861131553</DistanceMeters>
          </Trackpoint>
          <Trackpoint>
            <Time>2021-08-01T10:48:57.000Z</Time>
            <Position>
              <LatitudeDegrees>-15.46275568194687366485595703125</LatitudeDegrees>
              <LongitudeDegrees>37.02072984538972377777099609375</LongitudeDegrees>
            </Position>
            <AltitudeMeters>679.5999755859375</AltitudeMeters>
            <DistanceMeters>4068.0883234382</DistanceMeters>
          </Trackpoint>
          <Trackpoint>
            <Time>2021-08-01T10:49:02.000Z</Time>
            <Position>
              <LatitudeDegrees>-15.46274964697659015655517578125</LatitudeDegrees>
              <LongitudeDegrees>37.0207894407212734222412109375</LongitudeDegrees>
            </Position>
            <AltitudeMeters>680.20001220703125</AltitudeMeters>
            <DistanceMeters>4074.5165136818</DistanceMeters>
          </Trackpoint>
          <Trackpoint>
            <Time>2021-08-01T10:49:03.000Z</Time>
            <Position>
              <LatitudeDegrees>-15.46274461783468723297119140625</LatitudeDegrees>
              <LongitudeDegrees>37.0207991637289524078369140625</LongitudeDegrees>
            </Position>
            <AltitudeMeters>680.20001220703125</AltitudeMeters>
            <DistanceMeters>4075.7033969639</DistanceMeters>
          </Trackpoint>
          <Trackpoint>
            <Time>2021-08-01T10:49:08.000Z</Time>
            <Position>
              <LatitudeDegrees>-15.46272316016256809234619140625</LatitudeDegrees>
              <LongitudeDegrees>37.02084903605282306671142578125</LongitudeDegrees>
            </Position>
            <AltitudeMeters>680.5999755859375</AltitudeMeters>
            <DistanceMeters>4081.5620077688</DistanceMeters>
          </Trackpoint>
          <Trackpoint>
            <Time>2021-08-01T10:49:14.000Z</Time>
            <Position>
              <LatitudeDegrees>-15.46268753707408905029296875</LatitudeDegrees>
              <LongitudeDegrees>37.0209030993282794952392578125</LongitudeDegrees>
            </Position>
            <AltitudeMeters>681</AltitudeMeters>
            <DistanceMeters>4088.5875609742</DistanceMeters>
          </Trackpoint>
          <Trackpoint>
            <Time>2021-08-01T10:49:26.000Z</Time>
            <Position>
              <LatitudeDegrees>-15.46258536167442798614501953125</LatitudeDegrees>
              <LongitudeDegrees>37.02098675072193145751953125</LongitudeDegrees>
            </Position>
            <AltitudeMeters>681.5999755859375</AltitudeMeters>
            <DistanceMeters>4103.0743828008</DistanceMeters>
          </Trackpoint>
          <Trackpoint>
            <Time>2021-08-01T10:49:34.000Z</Time>
            <Position>
              <LatitudeDegrees>-15.46249282546341419219970703125</LatitudeDegrees>
              <LongitudeDegrees>37.02102572657167911529541015625</LongitudeDegrees>
            </Position>
            <AltitudeMeters>681.20001220703125</AltitudeMeters>
            <DistanceMeters>4114.1900715326</DistanceMeters>
          </Trackpoint>
          <Trackpoint>
            <Time>2021-08-01T10:49:44.000Z</Time>
            <Position>
              <LatitudeDegrees>-15.46237095259130001068115234375</LatitudeDegrees>
              <LongitudeDegrees>37.0210757665336132049560546875</LongitudeDegrees>
            </Position>
            <AltitudeMeters>680.5999755859375</AltitudeMeters>
            <DistanceMeters>4128.7781423973</DistanceMeters>
          </Trackpoint>
          <Trackpoint>
            <Time>2021-08-01T10:49:56.000Z</Time>
            <Position>
              <LatitudeDegrees>-15.46223156154155731201171875</LatitudeDegrees>
              <LongitudeDegrees>37.0211304165422916412353515625</LongitudeDegrees>
            </Position>
            <AltitudeMeters>680</AltitudeMeters>
            <DistanceMeters>4145.3635030698</DistanceMeters>
          </Trackpoint>
          <Trackpoint>
            <Time>2021-08-01T10:50:05.000Z</Time>
            <Position>
              <LatitudeDegrees>-15.462122596800327301025390625</LatitudeDegrees>
              <LongitudeDegrees>37.0211666263639926910400390625</LongitudeDegrees>
            </Position>
            <AltitudeMeters>679.5999755859375</AltitudeMeters>
            <DistanceMeters>4158.0985010256</DistanceMeters>
          </Trackpoint>
          <Trackpoint>
            <Time>2021-08-01T10:50:06.000Z</Time>
            <Position>
              <LatitudeDegrees>-15.46211211942136287689208984375</LatitudeDegrees>
              <LongitudeDegrees>37.0211723260581493377685546875</LongitudeDegrees>
            </Position>
            <AltitudeMeters>679.5999755859375</AltitudeMeters>
            <DistanceMeters>4159.4152298045</DistanceMeters>
          </Trackpoint>
          <Trackpoint>
            <Time>2021-08-01T10:50:09.000Z</Time>
            <Position>
              <LatitudeDegrees>-15.46207456849515438079833984375</LatitudeDegrees>
              <LongitudeDegrees>37.0211857371032238006591796875</LongitudeDegrees>
            </Position>
            <AltitudeMeters>679.4000244140625</AltitudeMeters>
            <DistanceMeters>4163.8347383007</DistanceMeters>
          </Trackpoint>
          <Trackpoint>
            <Time>2021-08-01T10:50:14.000Z</Time>
            <Position>
              <LatitudeDegrees>-15.46201623044908046722412109375</LatitudeDegrees>
              <LongitudeDegrees>37.02120811678469181060791015625</LongitudeDegrees>
            </Position>
            <AltitudeMeters>679.20001220703125</AltitudeMeters>
            <DistanceMeters>4170.7573545466</DistanceMeters>
          </Trackpoint>
          <Trackpoint>
            <Time>2021-08-01T10:50:23.000Z</Time>
            <Position>
              <LatitudeDegrees>-15.4619117081165313720703125</LatitudeDegrees>
              <LongitudeDegrees>37.021250613033771514892578125</LongitudeDegrees>
            </Position>
            <AltitudeMeters>679.20001220703125</AltitudeMeters>
            <DistanceMeters>4183.2521931466</DistanceMeters>
          </Trackpoint>
          <Trackpoint>
            <Time>2021-08-01T10:50:26.000Z</Time>
            <Position>
              <LatitudeDegrees>-15.46187876723706722259521484375</LatitudeDegrees>
              <LongitudeDegrees>37.0212615095078945159912109375</LongitudeDegrees>
            </Position>
            <AltitudeMeters>679.20001220703125</AltitudeMeters>
            <DistanceMeters>4187.1004817751</DistanceMeters>
          </Trackpoint>
          <Trackpoint>
            <Time>2021-08-01T10:50:32.000Z</Time>
            <Position>
              <LatitudeDegrees>-15.46181489713490009307861328125</LatitudeDegrees>
              <LongitudeDegrees>37.021284811198711395263671875</LongitudeDegrees>
            </Position>
            <AltitudeMeters>679.20001220703125</AltitudeMeters>
            <DistanceMeters>4194.6358066307</DistanceMeters>
          </Trackpoint>
          <Trackpoint>
            <Time>2021-08-01T10:50:34.000Z</Time>
            <Position>
              <LatitudeDegrees>-15.46178455464541912078857421875</LatitudeDegrees>
              <LongitudeDegrees>37.0212997309863567352294921875</LongitudeDegrees>
            </Position>
            <AltitudeMeters>679</AltitudeMeters>
            <DistanceMeters>4198.3721816363</DistanceMeters>
          </Trackpoint>
          <Trackpoint>
            <Time>2021-08-01T10:50:44.000Z</Time>
            <Position>
              <LatitudeDegrees>-15.461671650409698486328125</LatitudeDegrees>
              <LongitudeDegrees>37.021339796483516693115234375</LongitudeDegrees>
            </Position>
            <AltitudeMeters>678.79998779296875</AltitudeMeters>
            <DistanceMeters>4211.6535036057</DistanceMeters>
          </Trackpoint>
          <Trackpoint>
            <Time>2021-08-01T10:50:53.000Z</Time>
            <Position>
              <LatitudeDegrees>-15.46156595461070537567138671875</LatitudeDegrees>
              <LongitudeDegrees>37.02137944288551807403564453125</LongitudeDegrees>
            </Position>
            <AltitudeMeters>678.5999755859375</AltitudeMeters>
            <DistanceMeters>4224.1631488754</DistanceMeters>
          </Trackpoint>
          <Trackpoint>
            <Time>2021-08-01T10:51:01.000Z</Time>
            <Position>
              <LatitudeDegrees>-15.4614743404090404510498046875</LatitudeDegrees>
              <LongitudeDegrees>37.02141783200204372406005859375</LongitudeDegrees>
            </Position>
            <AltitudeMeters>678.5999755859375</AltitudeMeters>
            <DistanceMeters>4235.1608233519</DistanceMeters>
          </Trackpoint>
          <Trackpoint>
            <Time>2021-08-01T10:51:04.000Z</Time>
            <Position>
              <LatitudeDegrees>-15.46143494546413421630859375</LatitudeDegrees>
              <LongitudeDegrees>37.02143241651356220245361328125</LongitudeDegrees>
            </Position>
            <AltitudeMeters>678.5999755859375</AltitudeMeters>
            <DistanceMeters>4239.817132356</DistanceMeters>
          </Trackpoint>
          <Trackpoint>
            <Time>2021-08-01T10:51:05.000Z</Time>
            <Position>
              <LatitudeDegrees>-15.46141977421939373016357421875</LatitudeDegrees>
              <LongitudeDegrees>37.02143074013292789459228515625</LongitudeDegrees>
            </Position>
            <AltitudeMeters>678.5999755859375</AltitudeMeters>
            <DistanceMeters>4241.5170219001</DistanceMeters>
          </Trackpoint>
          <Trackpoint>
            <Time>2021-08-01T10:51:08.000Z</Time>
            <Position>
              <LatitudeDegrees>-15.4613888449966907501220703125</LatitudeDegrees>
              <LongitudeDegrees>37.02144314534962177276611328125</LongitudeDegrees>
            </Position>
            <AltitudeMeters>678.5999755859375</AltitudeMeters>
            <DistanceMeters>4245.207191988</DistanceMeters>
          </Trackpoint>
          <Trackpoint>
            <Time>2021-08-01T10:51:17.000Z</Time>
            <Position>
              <LatitudeDegrees>-15.46129555441439151763916015625</LatitudeDegrees>
              <LongitudeDegrees>37.02147851698100566864013671875</LongitudeDegrees>
            </Position>
            <AltitudeMeters>678.5999755859375</AltitudeMeters>
            <DistanceMeters>4256.261784903</DistanceMeters>
          </Trackpoint>
          <Trackpoint>
            <Time>2021-08-01T10:51:28.000Z</Time>
            <Position>
              <LatitudeDegrees>-15.46117502264678478240966796875</LatitudeDegrees>
              <LongitudeDegrees>37.0215260423719882965087890625</LongitudeDegrees>
            </Position>
            <AltitudeMeters>678.4000244140625</AltitudeMeters>
            <DistanceMeters>4270.6136504154</DistanceMeters>
          </Trackpoint>
          <Trackpoint>
            <Time>2021-08-01T10:51:33.000Z</Time>
            <Position>
              <LatitudeDegrees>-15.4611110687255859375</LatitudeDegrees>
              <LongitudeDegrees>37.021542303264141082763671875</LongitudeDegrees>
            </Position>
            <AltitudeMeters>678.5999755859375</AltitudeMeters>
            <DistanceMeters>4277.9430381637</DistanceMeters>
          </Trackpoint>
          <Trackpoint>
            <Time>2021-08-01T10:51:36.000Z</Time>
            <Position>
              <LatitudeDegrees>-15.46108089387416839599609375</LatitudeDegrees>
              <LongitudeDegrees>37.02156007289886474609375</LongitudeDegrees>
            </Position>
            <AltitudeMeters>678.79998779296875</AltitudeMeters>
            <DistanceMeters>4281.8042110696</DistanceMeters>
          </Trackpoint>
          <Trackpoint>
            <Time>2021-08-01T10:51:42.000Z</Time>
            <Position>
              <LatitudeDegrees>-15.4610133357346057891845703125</LatitudeDegrees>
              <LongitudeDegrees>37.02159234322607517242431640625</LongitudeDegrees>
            </Position>
            <AltitudeMeters>678.5999755859375</AltitudeMeters>
            <DistanceMeters>4290.0824506248</DistanceMeters>
          </Trackpoint>
          <Trackpoint>
            <Time>2021-08-01T10:51:43.000Z</Time>
            <Position>
              <LatitudeDegrees>-15.46100151725113391876220703125</LatitudeDegrees>
              <LongitudeDegrees>37.02159502543509006500244140625</LongitudeDegrees>
            </Position>
            <AltitudeMeters>678.5999755859375</AltitudeMeters>
            <DistanceMeters>4291.4296868198</DistanceMeters>
          </Trackpoint>
          <Trackpoint>
            <Time>2021-08-01T10:51:51.000Z</Time>
            <Position>
              <LatitudeDegrees>-15.46090311370790004730224609375</LatitudeDegrees>
              <LongitudeDegrees>37.0216490887105464935302734375</LongitudeDegrees>
            </Position>
            <AltitudeMeters>679</AltitudeMeters>
            <DistanceMeters>4303.822569461</DistanceMeters>
          </Trackpoint>
          <Trackpoint>
            <Time>2021-08-01T10:51:57.000Z</Time>
            <Position>
              <LatitudeDegrees>-15.46084511093795299530029296875</LatitudeDegrees>
              <LongitudeDegrees>37.02168387360870838165283203125</LongitudeDegrees>
            </Position>
            <AltitudeMeters>679</AltitudeMeters>
            <DistanceMeters>4311.2795937162</DistanceMeters>
          </Trackpoint>
          <Trackpoint>
            <Time>2021-08-01T10:52:00.000Z</Time>
            <Position>
              <LatitudeDegrees>-15.46080856584012508392333984375</LatitudeDegrees>
              <LongitudeDegrees>37.02170558273792266845703125</LongitudeDegrees>
            </Position>
            <AltitudeMeters>679.20001220703125</AltitudeMeters>
            <DistanceMeters>4315.967792311</DistanceMeters>
          </Trackpoint>
          <Trackpoint>
            <Time>2021-08-01T10:52:07.000Z</Time>
            <Position>
              <LatitudeDegrees>-15.4607219807803630828857421875</LatitudeDegrees>
              <LongitudeDegrees>37.02174271456897258758544921875</LongitudeDegrees>
            </Position>
            <AltitudeMeters>679.20001220703125</AltitudeMeters>
            <DistanceMeters>4326.3956483005</DistanceMeters>
          </Trackpoint>
          <Trackpoint>
            <Time>2021-08-01T10:52:09.000Z</Time>
            <Position>
              <LatitudeDegrees>-15.46069725416600704193115234375</LatitudeDegrees>
              <LongitudeDegrees>37.0217490009963512420654296875</LongitudeDegrees>
            </Position>
            <AltitudeMeters>679.20001220703125</AltitudeMeters>
            <DistanceMeters>4329.228974607</DistanceMeters>
          </Trackpoint>
          <Trackpoint>
            <Time>2021-08-01T10:52:18.000Z</Time>
            <Position>
              <LatitudeDegrees>-15.46059499494731426239013671875</LatitudeDegrees>
              <LongitudeDegrees>37.021788060665130615234375</LongitudeDegrees>
            </Position>
            <AltitudeMeters>679.4000244140625</AltitudeMeters>
            <DistanceMeters>4341.3574512331</DistanceMeters>
          </Trackpoint>
          <Trackpoint>
            <Time>2021-08-01T10:52:19.000Z</Time>
            <Position>
              <LatitudeDegrees>-15.460582673549652099609375</LatitudeDegrees>
              <LongitudeDegrees>37.0217920839786529541015625</LongitudeDegrees>
            </Position>
            <AltitudeMeters>679.4000244140625</AltitudeMeters>
            <DistanceMeters>4342.792323154</DistanceMeters>
          </Trackpoint>
          <Trackpoint>
            <Time>2021-08-01T10:52:29.000Z</Time>
            <Position>
              <LatitudeDegrees>-15.4604728706181049346923828125</LatitudeDegrees>
              <LongitudeDegrees>37.021847404539585113525390625</LongitudeDegrees>
            </Position>
            <AltitudeMeters>679.79998779296875</AltitudeMeters>
            <DistanceMeters>4356.3781526286</DistanceMeters>
          </Trackpoint>
          <Trackpoint>
            <Time>2021-08-01T10:52:42.000Z</Time>
            <Position>
              <LatitudeDegrees>-15.460304729640483856201171875</LatitudeDegrees>
              <LongitudeDegrees>37.021913789212703704833984375</LongitudeDegrees>
            </Position>
            <AltitudeMeters>680.20001220703125</AltitudeMeters>
            <DistanceMeters>4376.4015238261</DistanceMeters>
          </Trackpoint>
          <Trackpoint>
            <Time>2021-08-01T10:52:47.000Z</Time>
            <Position>
              <LatitudeDegrees>-15.4602422006428241729736328125</LatitudeDegrees>
              <LongitudeDegrees>37.02193549834191799163818359375</LongitudeDegrees>
            </Position>
            <AltitudeMeters>680.20001220703125</AltitudeMeters>
            <DistanceMeters>4383.7407612516</DistanceMeters>
          </Trackpoint>
          <Trackpoint>
            <Time>2021-08-01T10:52:52.000Z</Time>
            <Position>
              <LatitudeDegrees>-15.46018101274967193603515625</LatitudeDegrees>
              <LongitudeDegrees>37.0219583809375762939453125</LongitudeDegrees>
            </Position>
            <AltitudeMeters>680.20001220703125</AltitudeMeters>
            <DistanceMeters>4390.9790278624</DistanceMeters>
          </Trackpoint>
          <Trackpoint>
            <Time>2021-08-01T10:52:59.000Z</Time>
            <Position>
              <LatitudeDegrees>-15.46009643934667110443115234375</LatitudeDegrees>
              <LongitudeDegrees>37.02197707258164882659912109375</LongitudeDegrees>
            </Position>
            <AltitudeMeters>680.20001220703125</AltitudeMeters>
            <DistanceMeters>4400.6030339973</DistanceMeters>
          </Trackpoint>
          <Trackpoint>
            <Time>2021-08-01T10:53:00.000Z</Time>
            <Position>
              <LatitudeDegrees>-15.46008621342480182647705078125</LatitudeDegrees>
              <LongitudeDegrees>37.0219820179045200347900390625</LongitudeDegrees>
            </Position>
            <AltitudeMeters>680.20001220703125</AltitudeMeters>
            <DistanceMeters>4401.8637058238</DistanceMeters>
          </Trackpoint>
          <Trackpoint>
            <Time>2021-08-01T10:53:07.000Z</Time>
            <Position>
              <LatitudeDegrees>-15.46002284623682498931884765625</LatitudeDegrees>
              <LongitudeDegrees>37.0220460556447505950927734375</LongitudeDegrees>
            </Position>
            <AltitudeMeters>680.20001220703125</AltitudeMeters>
            <DistanceMeters>4411.7094089793</DistanceMeters>
          </Trackpoint>
          <Trackpoint>
            <Time>2021-08-01T10:53:15.000Z</Time>
            <Position>
              <LatitudeDegrees>-15.45996467582881450653076171875</LatitudeDegrees>
              <LongitudeDegrees>37.0221295394003391265869140625</LongitudeDegrees>
            </Position>
            <AltitudeMeters>679.79998779296875</AltitudeMeters>
            <DistanceMeters>4422.7603254041</DistanceMeters>
          </Trackpoint>
          <Trackpoint>
            <Time>2021-08-01T10:53:21.000Z</Time>
            <Position>
              <LatitudeDegrees>-15.4599156416952610015869140625</LatitudeDegrees>
              <LongitudeDegrees>37.022184692323207855224609375</LongitudeDegrees>
            </Position>
            <AltitudeMeters>679.5999755859375</AltitudeMeters>
            <DistanceMeters>4430.8095985691</DistanceMeters>
          </Trackpoint>
          <Trackpoint>
            <Time>2021-08-01T10:53:23.000Z</Time>
            <Position>
              <LatitudeDegrees>-15.45990466140210628509521484375</LatitudeDegrees>
              <LongitudeDegrees>37.02220447361469268798828125</LongitudeDegrees>
            </Position>
            <AltitudeMeters>679.5999755859375</AltitudeMeters>
            <DistanceMeters>4433.2619506874</DistanceMeters>
          </Trackpoint>
          <Trackpoint>
            <Time>2021-08-01T10:53:30.000Z</Time>
            <Position>
              <LatitudeDegrees>-15.459851436316967010498046875</LatitudeDegrees>
              <LongitudeDegrees>37.0222810842096805572509765625</LongitudeDegrees>
            </Position>
            <AltitudeMeters>679.20001220703125</AltitudeMeters>
            <DistanceMeters>4443.3933315872</DistanceMeters>
          </Trackpoint>
          <Trackpoint>
            <Time>2021-08-01T10:53:33.000Z</Time>
            <Position>
              <LatitudeDegrees>-15.4598236083984375</LatitudeDegrees>
              <LongitudeDegrees>37.0223156176507472991943359375</LongitudeDegrees>
            </Position>
            <AltitudeMeters>679.20001220703125</AltitudeMeters>
            <DistanceMeters>4448.2228954863</DistanceMeters>
          </Trackpoint>
          <Trackpoint>
            <Time>2021-08-01T10:53:37.000Z</Time>
            <Position>
              <LatitudeDegrees>-15.4597956128418445587158203125</LatitudeDegrees>
              <LongitudeDegrees>37.0223518274724483489990234375</LongitudeDegrees>
            </Position>
            <AltitudeMeters>678.79998779296875</AltitudeMeters>
            <DistanceMeters>4453.2025129329</DistanceMeters>
          </Trackpoint>
          <Trackpoint>
            <Time>2021-08-01T10:53:42.000Z</Time>
            <Position>
              <LatitudeDegrees>-15.459761582314968109130859375</LatitudeDegrees>
              <LongitudeDegrees>37.02241376973688602447509765625</LongitudeDegrees>
            </Position>
            <AltitudeMeters>678.4000244140625</AltitudeMeters>
            <DistanceMeters>4460.8508353113</DistanceMeters>
          </Trackpoint>
          <Trackpoint>
            <Time>2021-08-01T10:53:45.000Z</Time>
            <Position>
              <LatitudeDegrees>-15.45973249711096286773681640625</LatitudeDegrees>
              <LongitudeDegrees>37.022451572120189666748046875</LongitudeDegrees>
            </Position>
            <AltitudeMeters>678</AltitudeMeters>
            <DistanceMeters>4466.0400248392</DistanceMeters>
          </Trackpoint>
          <Trackpoint>
            <Time>2021-08-01T10:53:50.000Z</Time>
            <Position>
              <LatitudeDegrees>-15.459713637828826904296875</LatitudeDegrees>
              <LongitudeDegrees>37.02251083217561244964599609375</LongitudeDegrees>
            </Position>
            <AltitudeMeters>677.20001220703125</AltitudeMeters>
            <DistanceMeters>4472.7351947002</DistanceMeters>
          </Trackpoint>
          <Trackpoint>
            <Time>2021-08-01T10:53:53.000Z</Time>
            <Position>
              <LatitudeDegrees>-15.4596963711082935333251953125</LatitudeDegrees>
              <LongitudeDegrees>37.02254704199731349945068359375</LongitudeDegrees>
            </Position>
            <AltitudeMeters>677</AltitudeMeters>
            <DistanceMeters>4477.0680377538</DistanceMeters>
          </Trackpoint>
          <Trackpoint>
            <Time>2021-08-01T10:53:54.000Z</Time>
            <Position>
              <LatitudeDegrees>-15.45969410799443721771240234375</LatitudeDegrees>
              <LongitudeDegrees>37.022558860480785369873046875</LongitudeDegrees>
            </Position>
            <AltitudeMeters>677</AltitudeMeters>
            <DistanceMeters>4478.3570428219</DistanceMeters>
          </Trackpoint>
          <Trackpoint>
            <Time>2021-08-01T10:54:02.000Z</Time>
            <Position>
              <LatitudeDegrees>-15.45968270860612392425537109375</LatitudeDegrees>
              <LongitudeDegrees>37.02268458902835845947265625</LongitudeDegrees>
            </Position>
            <AltitudeMeters>676.4000244140625</AltitudeMeters>
            <DistanceMeters>4491.9039333718</DistanceMeters>
          </Trackpoint>
          <Trackpoint>
            <Time>2021-08-01T10:54:05.000Z</Time>
            <Position>
              <LatitudeDegrees>-15.45968103222548961639404296875</LatitudeDegrees>
              <LongitudeDegrees>37.02272239141166210174560546875</LongitudeDegrees>
            </Position>
            <AltitudeMeters>676.4000244140625</AltitudeMeters>
            <DistanceMeters>4495.9634763892</DistanceMeters>
          </Trackpoint>
          <Trackpoint>
            <Time>2021-08-01T10:54:10.000Z</Time>
            <Position>
              <LatitudeDegrees>-15.45966602861881256103515625</LatitudeDegrees>
              <LongitudeDegrees>37.02278777025640010833740234375</LongitudeDegrees>
            </Position>
            <AltitudeMeters>676.4000244140625</AltitudeMeters>
            <DistanceMeters>4503.1729923238</DistanceMeters>
          </Trackpoint>
          <Trackpoint>
            <Time>2021-08-01T10:54:14.000Z</Time>
            <Position>
              <LatitudeDegrees>-15.45964968390762805938720703125</LatitudeDegrees>
              <LongitudeDegrees>37.0228327810764312744140625</LongitudeDegrees>
            </Position>
            <AltitudeMeters>676.4000244140625</AltitudeMeters>
            <DistanceMeters>4508.3333891528</DistanceMeters>
          </Trackpoint>
          <Trackpoint>
            <Time>2021-08-01T10:54:15.000Z</Time>
            <Position>
              <LatitudeDegrees>-15.45964733697474002838134765625</LatitudeDegrees>
              <LongitudeDegrees>37.0228453539311885833740234375</LongitudeDegrees>
            </Position>
            <AltitudeMeters>676.5999755859375</AltitudeMeters>
            <DistanceMeters>4509.7104570717</DistanceMeters>
          </Trackpoint>
          <Trackpoint>
            <Time>2021-08-01T10:54:16.000Z</Time>
            <Position>
              <LatitudeDegrees>-15.45964549295604228973388671875</LatitudeDegrees>
              <LongitudeDegrees>37.02285616658627986907958984375</LongitudeDegrees>
            </Position>
            <AltitudeMeters>676.5999755859375</AltitudeMeters>
            <DistanceMeters>4510.8897075847</DistanceMeters>
          </Trackpoint>
          <Trackpoint>
            <Time>2021-08-01T10:54:22.000Z</Time>
            <Position>
              <LatitudeDegrees>-15.45963585376739501953125</LatitudeDegrees>
              <LongitudeDegrees>37.02293830923736095428466796875</LongitudeDegrees>
            </Position>
            <AltitudeMeters>676.79998779296875</AltitudeMeters>
            <DistanceMeters>4519.766952491</DistanceMeters>
          </Trackpoint>
          <Trackpoint>
            <Time>2021-08-01T10:54:27.000Z</Time>
            <Position>
              <LatitudeDegrees>-15.45963157899677753448486328125</LatitudeDegrees>
              <LongitudeDegrees>37.02299513854086399078369140625</LongitudeDegrees>
            </Position>
            <AltitudeMeters>676.79998779296875</AltitudeMeters>
            <DistanceMeters>4525.8819787832</DistanceMeters>
          </Trackpoint>
          <Trackpoint>
            <Time>2021-08-01T10:54:30.000Z</Time>
            <Position>
              <LatitudeDegrees>-15.45962654985487461090087890625</LatitudeDegrees>
              <LongitudeDegrees>37.02303922735154628753662109375</LongitudeDegrees>
            </Position>
            <AltitudeMeters>676.5999755859375</AltitudeMeters>
            <DistanceMeters>4530.6437559673</DistanceMeters>
          </Trackpoint>
          <Trackpoint>
            <Time>2021-08-01T10:54:34.000Z</Time>
            <Position>
              <LatitudeDegrees>-15.459622107446193695068359375</LatitudeDegrees>
              <LongitudeDegrees>37.0230875909328460693359375</LongitudeDegrees>
            </Position>
            <AltitudeMeters>676.20001220703125</AltitudeMeters>
            <DistanceMeters>4535.8555186196</DistanceMeters>
          </Trackpoint>
          <Trackpoint>
            <Time>2021-08-01T10:54:38.000Z</Time>
            <Position>
              <LatitudeDegrees>-15.4596212692558765411376953125</LatitudeDegrees>
              <LongitudeDegrees>37.02313511632382869720458984375</LongitudeDegrees>
            </Position>
            <AltitudeMeters>675.79998779296875</AltitudeMeters>
            <DistanceMeters>4540.9551872518</DistanceMeters>
          </Trackpoint>
          <Trackpoint>
            <Time>2021-08-01T10:54:42.000Z</Time>
            <Position>
              <LatitudeDegrees>-15.459619425237178802490234375</LatitudeDegrees>
              <LongitudeDegrees>37.02318884432315826416015625</LongitudeDegrees>
            </Position>
            <AltitudeMeters>675.79998779296875</AltitudeMeters>
            <DistanceMeters>4546.7237080064</DistanceMeters>
          </Trackpoint>
          <Trackpoint>
            <Time>2021-08-01T10:54:48.000Z</Time>
            <Position>
              <LatitudeDegrees>-15.459622107446193695068359375</LatitudeDegrees>
              <LongitudeDegrees>37.02326218597590923309326171875</LongitudeDegrees>
            </Position>
            <AltitudeMeters>675.79998779296875</AltitudeMeters>
            <DistanceMeters>4554.5977479392</DistanceMeters>
          </Trackpoint>
          <Trackpoint>
            <Time>2021-08-01T10:54:55.000Z</Time>
            <Position>
              <LatitudeDegrees>-15.45965773053467273712158203125</LatitudeDegrees>
              <LongitudeDegrees>37.02334751375019550323486328125</LongitudeDegrees>
            </Position>
            <AltitudeMeters>675.5999755859375</AltitudeMeters>
            <DistanceMeters>4564.5728375296</DistanceMeters>
          </Trackpoint>
          <Trackpoint>
            <Time>2021-08-01T10:54:58.000Z</Time>
            <Position>
              <LatitudeDegrees>-15.45966208912432193756103515625</LatitudeDegrees>
              <LongitudeDegrees>37.02338942326605319976806640625</LongitudeDegrees>
            </Position>
            <AltitudeMeters>675.79998779296875</AltitudeMeters>
            <DistanceMeters>4569.0943519959</DistanceMeters>
          </Trackpoint>
          <Trackpoint>
            <Time>2021-08-01T10:55:05.000Z</Time>
            <Position>
              <LatitudeDegrees>-15.459708273410797119140625</LatitudeDegrees>
              <LongitudeDegrees>37.02345865778625011444091796875</LongitudeDegrees>
            </Position>
            <AltitudeMeters>676.4000244140625</AltitudeMeters>
            <DistanceMeters>4578.1268898824</DistanceMeters>
          </Trackpoint>
          <Trackpoint>
            <Time>2021-08-01T10:55:07.000Z</Time>
            <Position>
              <LatitudeDegrees>-15.459724031388759613037109375</LatitudeDegrees>
              <LongitudeDegrees>37.023477852344512939453125</LongitudeDegrees>
            </Position>
            <AltitudeMeters>676.5999755859375</AltitudeMeters>
            <DistanceMeters>4580.8313975862</DistanceMeters>
          </Trackpoint>
          <Trackpoint>
            <Time>2021-08-01T10:55:16.000Z</Time>
            <Position>
              <LatitudeDegrees>-15.4597882367670536041259765625</LatitudeDegrees>
              <LongitudeDegrees>37.0235973782837390899658203125</LongitudeDegrees>
            </Position>
            <AltitudeMeters>677.20001220703125</AltitudeMeters>
            <DistanceMeters>4595.510487616</DistanceMeters>
          </Trackpoint>
          <Trackpoint>
            <Time>2021-08-01T10:55:18.000Z</Time>
            <Position>
              <LatitudeDegrees>-15.459796451032161712646484375</LatitudeDegrees>
              <LongitudeDegrees>37.02361841686069965362548828125</LongitudeDegrees>
            </Position>
            <AltitudeMeters>677.5999755859375</AltitudeMeters>
            <DistanceMeters>4597.944359048</DistanceMeters>
          </Trackpoint>
          <Trackpoint>
            <Time>2021-08-01T10:55:24.000Z</Time>
            <Position>
              <LatitudeDegrees>-15.45981799252331256866455078125</LatitudeDegrees>
              <LongitudeDegrees>37.0236845500767230987548828125</LongitudeDegrees>
            </Position>
            <AltitudeMeters>677.79998779296875</AltitudeMeters>
            <DistanceMeters>4605.4328017911</DistanceMeters>
          </Trackpoint>
          <Trackpoint>
            <Time>2021-08-01T10:55:28.000Z</Time>
            <Position>
              <LatitudeDegrees>-15.459825284779071807861328125</LatitudeDegrees>
              <LongitudeDegrees>37.0237264595925807952880859375</LongitudeDegrees>
            </Position>
            <AltitudeMeters>678</AltitudeMeters>
            <DistanceMeters>4610.0019961116</DistanceMeters>
          </Trackpoint>
          <Trackpoint>
            <Time>2021-08-01T10:55:30.000Z</Time>
            <Position>
              <LatitudeDegrees>-15.45983056537806987762451171875</LatitudeDegrees>
              <LongitudeDegrees>37.02374699525535106658935546875</LongitudeDegrees>
            </Position>
            <AltitudeMeters>678.20001220703125</AltitudeMeters>
            <DistanceMeters>4612.2826372565</DistanceMeters>
          </Trackpoint>
          <Trackpoint>
            <Time>2021-08-01T10:55:31.000Z</Time>
            <Position>
              <LatitudeDegrees>-15.4598331637680530548095703125</LatitudeDegrees>
              <LongitudeDegrees>37.02375805936753749847412109375</LongitudeDegrees>
            </Position>
            <AltitudeMeters>678.4000244140625</AltitudeMeters>
            <DistanceMeters>4613.5032775038</DistanceMeters>
          </Trackpoint>
          <Trackpoint>
            <Time>2021-08-01T10:55:39.000Z</Time>
            <Position>
              <LatitudeDegrees>-15.45983023010194301605224609375</LatitudeDegrees>
              <LongitudeDegrees>37.0238493382930755615234375</LongitudeDegrees>
            </Position>
            <AltitudeMeters>679.5999755859375</AltitudeMeters>
            <DistanceMeters>4623.3007114841</DistanceMeters>
          </Trackpoint>
          <Trackpoint>
            <Time>2021-08-01T10:55:40.000Z</Time>
            <Position>
              <LatitudeDegrees>-15.45982821844518184661865234375</LatitudeDegrees>
              <LongitudeDegrees>37.023859061300754547119140625</LongitudeDegrees>
            </Position>
            <AltitudeMeters>679.79998779296875</AltitudeMeters>
            <DistanceMeters>4624.3673837074</DistanceMeters>
          </Trackpoint>
          <Trackpoint>
            <Time>2021-08-01T10:55:50.000Z</Time>
            <Position>
              <LatitudeDegrees>-15.4597989656031131744384765625</LatitudeDegrees>
              <LongitudeDegrees>37.02395034022629261016845703125</LongitudeDegrees>
            </Position>
            <AltitudeMeters>680.79998779296875</AltitudeMeters>
            <DistanceMeters>4634.6864273369</DistanceMeters>
          </Trackpoint>
          <Trackpoint>
            <Time>2021-08-01T10:55:53.000Z</Time>
            <Position>
              <LatitudeDegrees>-15.45977574773132801055908203125</LatitudeDegrees>
              <LongitudeDegrees>37.02397515065968036651611328125</LongitudeDegrees>
            </Position>
            <AltitudeMeters>681</AltitudeMeters>
            <DistanceMeters>4638.3961222705</DistanceMeters>
          </Trackpoint>
          <Trackpoint>
            <Time>2021-08-01T10:56:00.000Z</Time>
            <Position>
              <LatitudeDegrees>-15.45976535417139530181884765625</LatitudeDegrees>
              <LongitudeDegrees>37.02405109070241451263427734375</LongitudeDegrees>
            </Position>
            <AltitudeMeters>681.5999755859375</AltitudeMeters>
            <DistanceMeters>4646.6240310632</DistanceMeters>
          </Trackpoint>
          <Trackpoint>
            <Time>2021-08-01T10:56:01.000Z</Time>
            <Position>
              <LatitudeDegrees>-15.45976216904819011688232421875</LatitudeDegrees>
              <LongitudeDegrees>37.02406081371009349822998046875</LongitudeDegrees>
            </Position>
            <AltitudeMeters>681.79998779296875</AltitudeMeters>
            <DistanceMeters>4647.7240448101</DistanceMeters>
          </Trackpoint>
          <Trackpoint>
            <Time>2021-08-01T10:56:02.000Z</Time>
            <Position>
              <LatitudeDegrees>-15.459759570658206939697265625</LatitudeDegrees>
              <LongitudeDegrees>37.02407087199389934539794921875</LongitudeDegrees>
            </Position>
            <AltitudeMeters>682</AltitudeMeters>
            <DistanceMeters>4648.8403559447</DistanceMeters>
          </Trackpoint>
          <Trackpoint>
            <Time>2021-08-01T10:56:10.000Z</Time>
            <Position>
              <LatitudeDegrees>-15.45972914434969425201416015625</LatitudeDegrees>
              <LongitudeDegrees>37.024157457053661346435546875</LongitudeDegrees>
            </Position>
            <AltitudeMeters>682.5999755859375</AltitudeMeters>
            <DistanceMeters>4658.7267884373</DistanceMeters>
          </Trackpoint>
          <Trackpoint>
            <Time>2021-08-01T10:56:15.000Z</Time>
            <Position>
              <LatitudeDegrees>-15.4597141407430171966552734375</LatitudeDegrees>
              <LongitudeDegrees>37.0242085866630077362060546875</LongitudeDegrees>
            </Position>
            <AltitudeMeters>682.79998779296875</AltitudeMeters>
            <DistanceMeters>4664.4591917883</DistanceMeters>
          </Trackpoint>
          <Trackpoint>
            <Time>2021-08-01T10:56:16.000Z</Time>
            <Position>
              <LatitudeDegrees>-15.45971028506755828857421875</LatitudeDegrees>
              <LongitudeDegrees>37.02421906404197216033935546875</LongitudeDegrees>
            </Position>
            <AltitudeMeters>683.20001220703125</AltitudeMeters>
            <DistanceMeters>4665.6611952122</DistanceMeters>
          </Trackpoint>
          <Trackpoint>
            <Time>2021-08-01T10:56:27.000Z</Time>
            <Position>
              <LatitudeDegrees>-15.45965395867824554443359375</LatitudeDegrees>
              <LongitudeDegrees>37.02433758415281772613525390625</LongitudeDegrees>
            </Position>
            <AltitudeMeters>683.4000244140625</AltitudeMeters>
            <DistanceMeters>4679.8370663031</DistanceMeters>
          </Trackpoint>
          <Trackpoint>
            <Time>2021-08-01T10:56:40.000Z</Time>
            <Position>
              <LatitudeDegrees>-15.459563434123992919921875</LatitudeDegrees>
              <LongitudeDegrees>37.02445459552109241485595703125</LongitudeDegrees>
            </Position>
            <AltitudeMeters>683.5999755859375</AltitudeMeters>
            <DistanceMeters>4695.932807764</DistanceMeters>
          </Trackpoint>
          <Trackpoint>
            <Time>2021-08-01T10:56:42.000Z</Time>
            <Position>
              <LatitudeDegrees>-15.45954893343150615692138671875</LatitudeDegrees>
              <LongitudeDegrees>37.02447068877518177032470703125</LongitudeDegrees>
            </Position>
            <AltitudeMeters>684.4000244140625</AltitudeMeters>
            <DistanceMeters>4698.2951344227</DistanceMeters>
          </Trackpoint>
          <Trackpoint>
            <Time>2021-08-01T10:56:45.000Z</Time>
            <Position>
              <LatitudeDegrees>-15.45952328480780124664306640625</LatitudeDegrees>
              <LongitudeDegrees>37.0244965888559818267822265625</LongitudeDegrees>
            </Position>
            <AltitudeMeters>684.5999755859375</AltitudeMeters>
            <DistanceMeters>4702.2783296617</DistanceMeters>
          </Trackpoint>
          <Trackpoint>
            <Time>2021-08-01T10:56:53.000Z</Time>
            <Position>
              <LatitudeDegrees>-15.459456481039524078369140625</LatitudeDegrees>
              <LongitudeDegrees>37.02456439845263957977294921875</LongitudeDegrees>
            </Position>
            <AltitudeMeters>684.79998779296875</AltitudeMeters>
            <DistanceMeters>4712.6801744957</DistanceMeters>
          </Trackpoint>
          <Trackpoint>
            <Time>2021-08-01T10:56:58.000Z</Time>
            <Position>
              <LatitudeDegrees>-15.45941214077174663543701171875</LatitudeDegrees>
              <LongitudeDegrees>37.02460982836782932281494140625</LongitudeDegrees>
            </Position>
            <AltitudeMeters>685.4000244140625</AltitudeMeters>
            <DistanceMeters>4719.6158227868</DistanceMeters>
          </Trackpoint>
          <Trackpoint>
            <Time>2021-08-01T10:57:05.000Z</Time>
            <Position>
              <LatitudeDegrees>-15.45935363508760929107666015625</LatitudeDegrees>
              <LongitudeDegrees>37.02465324662625789642333984375</LongitudeDegrees>
            </Position>
            <AltitudeMeters>686</AltitudeMeters>
            <DistanceMeters>4727.6217882251</DistanceMeters>
          </Trackpoint>
          <Trackpoint>
            <Time>2021-08-01T10:57:09.000Z</Time>
            <Position>
              <LatitudeDegrees>-15.4593191854655742645263671875</LatitudeDegrees>
              <LongitudeDegrees>37.0246742852032184600830078125</LongitudeDegrees>
            </Position>
            <AltitudeMeters>686.5999755859375</AltitudeMeters>
            <DistanceMeters>4732.0708249259</DistanceMeters>
          </Trackpoint>
          <Trackpoint>
            <Time>2021-08-01T10:57:12.000Z</Time>
            <Position>
              <LatitudeDegrees>-15.4592896811664104461669921875</LatitudeDegrees>
              <LongitudeDegrees>37.02468560077250003814697265625</LongitudeDegrees>
            </Position>
            <AltitudeMeters>686.79998779296875</AltitudeMeters>
            <DistanceMeters>4735.5713697027</DistanceMeters>
          </Trackpoint>
          <Trackpoint>
            <Time>2021-08-01T10:57:15.000Z</Time>
            <Position>
              <LatitudeDegrees>-15.45926235616207122802734375</LatitudeDegrees>
              <LongitudeDegrees>37.0246977545320987701416015625</LongitudeDegrees>
            </Position>
            <AltitudeMeters>687</AltitudeMeters>
            <DistanceMeters>4738.8809743205</DistanceMeters>
          </Trackpoint>
          <Trackpoint>
            <Time>2021-08-01T10:57:19.000Z</Time>
            <Position>
              <LatitudeDegrees>-15.459222458302974700927734375</LatitudeDegrees>
              <LongitudeDegrees>37.02470554970204830169677734375</LongitudeDegrees>
            </Position>
            <AltitudeMeters>687.5999755859375</AltitudeMeters>
            <DistanceMeters>4743.4004912102</DistanceMeters>
          </Trackpoint>
          <Trackpoint>
            <Time>2021-08-01T10:57:25.000Z</Time>
            <Position>
              <LatitudeDegrees>-15.45915615744888782501220703125</LatitudeDegrees>
              <LongitudeDegrees>37.0247121714055538177490234375</LongitudeDegrees>
            </Position>
            <AltitudeMeters>688.20001220703125</AltitudeMeters>
            <DistanceMeters>4750.8150111132</DistanceMeters>
          </Trackpoint>
          <Trackpoint>
            <Time>2021-08-01T10:57:28.000Z</Time>
            <Position>
              <LatitudeDegrees>-15.45911910943686962127685546875</LatitudeDegrees>
              <LongitudeDegrees>37.024707309901714324951171875</LongitudeDegrees>
            </Position>
            <AltitudeMeters>688.4000244140625</AltitudeMeters>
            <DistanceMeters>4754.9712758108</DistanceMeters>
          </Trackpoint>
          <Trackpoint>
            <Time>2021-08-01T10:57:30.000Z</Time>
            <Position>
              <LatitudeDegrees>-15.45909513719379901885986328125</LatitudeDegrees>
              <LongitudeDegrees>37.0247044600546360015869140625</LongitudeDegrees>
            </Position>
            <AltitudeMeters>688.5999755859375</AltitudeMeters>
            <DistanceMeters>4757.6556753717</DistanceMeters>
          </Trackpoint>
          <Trackpoint>
            <Time>2021-08-01T10:57:36.000Z</Time>
            <Position>
              <LatitudeDegrees>-15.45903503894805908203125</LatitudeDegrees>
              <LongitudeDegrees>37.02470161020755767822265625</LongitudeDegrees>
            </Position>
            <AltitudeMeters>689.20001220703125</AltitudeMeters>
            <DistanceMeters>4764.3515195712</DistanceMeters>
          </Trackpoint>
          <Trackpoint>
            <Time>2021-08-01T10:57:39.000Z</Time>
            <Position>
              <LatitudeDegrees>-15.459006540477275848388671875</LatitudeDegrees>
              <LongitudeDegrees>37.02469867654144763946533203125</LongitudeDegrees>
            </Position>
            <AltitudeMeters>689.79998779296875</AltitudeMeters>
            <DistanceMeters>4767.5402287263</DistanceMeters>
          </Trackpoint>
          <Trackpoint>
            <Time>2021-08-01T10:57:40.000Z</Time>
            <Position>
              <LatitudeDegrees>-15.45899572782218456268310546875</LatitudeDegrees>
              <LongitudeDegrees>37.02469733543694019317626953125</LongitudeDegrees>
            </Position>
            <AltitudeMeters>689.79998779296875</AltitudeMeters>
            <DistanceMeters>4768.7534485994</DistanceMeters>
          </Trackpoint>
          <Trackpoint>
            <Time>2021-08-01T10:57:49.000Z</Time>
            <Position>
              <LatitudeDegrees>-15.45890453271567821502685546875</LatitudeDegrees>
              <LongitudeDegrees>37.024694569408893585205078125</LongitudeDegrees>
            </Position>
            <AltitudeMeters>690.5999755859375</AltitudeMeters>
            <DistanceMeters>4778.9075321541</DistanceMeters>
          </Trackpoint>
          <Trackpoint>
            <Time>2021-08-01T10:57:50.000Z</Time>
            <Position>
              <LatitudeDegrees>-15.4588953964412212371826171875</LatitudeDegrees>
              <LongitudeDegrees>37.02469515614211559295654296875</LongitudeDegrees>
            </Position>
            <AltitudeMeters>690.5999755859375</AltitudeMeters>
            <DistanceMeters>4779.9221398195</DistanceMeters>
          </Trackpoint>
          <Trackpoint>
            <Time>2021-08-01T10:57:52.000Z</Time>
            <Position>
              <LatitudeDegrees>-15.45887209475040435791015625</LatitudeDegrees>
              <LongitudeDegrees>37.02469331212341785430908203125</LongitudeDegrees>
            </Position>
            <AltitudeMeters>690.79998779296875</AltitudeMeters>
            <DistanceMeters>4782.5245535708</DistanceMeters>
          </Trackpoint>
          <Trackpoint>
            <Time>2021-08-01T10:57:58.000Z</Time>
            <Position>
              <LatitudeDegrees>-15.45880772173404693603515625</LatitudeDegrees>
              <LongitudeDegrees>37.0246907137334346771240234375</LongitudeDegrees>
            </Position>
            <AltitudeMeters>691.4000244140625</AltitudeMeters>
            <DistanceMeters>4789.6945065131</DistanceMeters>
          </Trackpoint>
          <Trackpoint>
            <Time>2021-08-01T10:58:01.000Z</Time>
            <Position>
              <LatitudeDegrees>-15.45877696014940738677978515625</LatitudeDegrees>
              <LongitudeDegrees>37.02468409202992916107177734375</LongitudeDegrees>
            </Position>
            <AltitudeMeters>691.79998779296875</AltitudeMeters>
            <DistanceMeters>4793.1911797185</DistanceMeters>
          </Trackpoint>
          <Trackpoint>
            <Time>2021-08-01T10:58:10.000Z</Time>
            <Position>
              <LatitudeDegrees>-15.45867939479649066925048828125</LatitudeDegrees>
              <LongitudeDegrees>37.02466280199587345123291015625</LongitudeDegrees>
            </Position>
            <AltitudeMeters>692.5999755859375</AltitudeMeters>
            <DistanceMeters>4804.2877612818</DistanceMeters>
          </Trackpoint>
          <Trackpoint>
            <Time>2021-08-01T10:58:12.000Z</Time>
            <Position>
              <LatitudeDegrees>-15.45865542255342006683349609375</LatitudeDegrees>
              <LongitudeDegrees>37.0246558450162410736083984375</LongitudeDegrees>
            </Position>
            <AltitudeMeters>692.79998779296875</AltitudeMeters>
            <DistanceMeters>4807.0549809739</DistanceMeters>
          </Trackpoint>
          <Trackpoint>
            <Time>2021-08-01T10:58:20.000Z</Time>
            <Position>
              <LatitudeDegrees>-15.4585638083517551422119140625</LatitudeDegrees>
              <LongitudeDegrees>37.02464126050472259521484375</LongitudeDegrees>
            </Position>
            <AltitudeMeters>693.5999755859375</AltitudeMeters>
            <DistanceMeters>4817.3709613389</DistanceMeters>
          </Trackpoint>
          <Trackpoint>
            <Time>2021-08-01T10:58:24.000Z</Time>
            <Position>
              <LatitudeDegrees>-15.458521060645580291748046875</LatitudeDegrees>
              <LongitudeDegrees>37.024630196392536163330078125</LongitudeDegrees>
            </Position>
            <AltitudeMeters>694</AltitudeMeters>
            <DistanceMeters>4822.2747449363</DistanceMeters>
          </Trackpoint>
          <Trackpoint>
            <Time>2021-08-01T10:58:32.000Z</Time>
            <Position>
              <LatitudeDegrees>-15.4584327153861522674560546875</LatitudeDegrees>
              <LongitudeDegrees>37.024627514183521270751953125</LongitudeDegrees>
            </Position>
            <AltitudeMeters>694.4000244140625</AltitudeMeters>
            <DistanceMeters>4832.1117312214</DistanceMeters>
          </Trackpoint>
          <Trackpoint>
            <Time>2021-08-01T10:58:39.000Z</Time>
            <Position>
              <LatitudeDegrees>-15.45835283584892749786376953125</LatitudeDegrees>
              <LongitudeDegrees>37.024638243019580841064453125</LongitudeDegrees>
            </Position>
            <AltitudeMeters>695</AltitudeMeters>
            <DistanceMeters>4841.077037152</DistanceMeters>
          </Trackpoint>
          <Trackpoint>
            <Time>2021-08-01T10:58:42.000Z</Time>
            <Position>
              <LatitudeDegrees>-15.45831955969333648681640625</LatitudeDegrees>
              <LongitudeDegrees>37.0246565155684947967529296875</LongitudeDegrees>
            </Position>
            <AltitudeMeters>695.4000244140625</AltitudeMeters>
            <DistanceMeters>4845.2668424705</DistanceMeters>
          </Trackpoint>
          <Trackpoint>
            <Time>2021-08-01T10:58:46.000Z</Time>
            <Position>
              <LatitudeDegrees>-15.4582831822335720062255859375</LatitudeDegrees>
              <LongitudeDegrees>37.024691216647624969482421875</LongitudeDegrees>
            </Position>
            <AltitudeMeters>695.79998779296875</AltitudeMeters>
            <DistanceMeters>4850.7669112052</DistanceMeters>
          </Trackpoint>
          <Trackpoint>
            <Time>2021-08-01T10:58:49.000Z</Time>
            <Position>
              <LatitudeDegrees>-15.45826750807464122772216796875</LatitudeDegrees>
              <LongitudeDegrees>37.0247237384319305419921875</LongitudeDegrees>
            </Position>
            <AltitudeMeters>696</AltitudeMeters>
            <DistanceMeters>4854.6676391896</DistanceMeters>
          </Trackpoint>
          <Trackpoint>
            <Time>2021-08-01T10:58:51.000Z</Time>
            <Position>
              <LatitudeDegrees>-15.45826918445527553558349609375</LatitudeDegrees>
              <LongitudeDegrees>37.02474863268435001373291015625</LongitudeDegrees>
            </Position>
            <AltitudeMeters>696.4000244140625</AltitudeMeters>
            <DistanceMeters>4857.34530248</DistanceMeters>
          </Trackpoint>
          <Trackpoint>
            <Time>2021-08-01T10:59:01.000Z</Time>
            <Position>
              <LatitudeDegrees>-15.45832165516912937164306640625</LatitudeDegrees>
              <LongitudeDegrees>37.02485977672040462493896484375</LongitudeDegrees>
            </Position>
            <AltitudeMeters>696.79998779296875</AltitudeMeters>
            <DistanceMeters>4870.6218642407</DistanceMeters>
          </Trackpoint>
          <Trackpoint>
            <Time>2021-08-01T10:59:11.000Z</Time>
            <Position>
              <LatitudeDegrees>-15.4584085755050182342529296875</LatitudeDegrees>
              <LongitudeDegrees>37.02496312558650970458984375</LongitudeDegrees>
            </Position>
            <AltitudeMeters>696.5999755859375</AltitudeMeters>
            <DistanceMeters>4885.3359769499</DistanceMeters>
          </Trackpoint>
          <Trackpoint>
            <Time>2021-08-01T10:59:15.000Z</Time>
            <Position>
              <LatitudeDegrees>-15.4584382474422454833984375</LatitudeDegrees>
              <LongitudeDegrees>37.02500679530203342437744140625</LongitudeDegrees>
            </Position>
            <AltitudeMeters>696.79998779296875</AltitudeMeters>
            <DistanceMeters>4891.0675926125</DistanceMeters>
          </Trackpoint>
          <Trackpoint>
            <Time>2021-08-01T10:59:17.000Z</Time>
            <Position>
              <LatitudeDegrees>-15.45845224522054195404052734375</LatitudeDegrees>
              <LongitudeDegrees>37.02502615749835968017578125</LongitudeDegrees>
            </Position>
            <AltitudeMeters>696.79998779296875</AltitudeMeters>
            <DistanceMeters>4893.661317145</DistanceMeters>
          </Trackpoint>
          <Trackpoint>
            <Time>2021-08-01T10:59:21.000Z</Time>
            <Position>
              <LatitudeDegrees>-15.45848208479583263397216796875</LatitudeDegrees>
              <LongitudeDegrees>37.02506463043391704559326171875</LongitudeDegrees>
            </Position>
            <AltitudeMeters>697</AltitudeMeters>
            <DistanceMeters>4898.9598554023</DistanceMeters>
          </Trackpoint>
          <Trackpoint>
            <Time>2021-08-01T10:59:32.000Z</Time>
            <Position>
              <LatitudeDegrees>-15.458571016788482666015625</LatitudeDegrees>
              <LongitudeDegrees>37.02519237063825130462646484375</LongitudeDegrees>
            </Position>
            <AltitudeMeters>696.79998779296875</AltitudeMeters>
            <DistanceMeters>4915.8647313032</DistanceMeters>
          </Trackpoint>
          <Trackpoint>
            <Time>2021-08-01T10:59:34.000Z</Time>
            <Position>
              <LatitudeDegrees>-15.45858551748096942901611328125</LatitudeDegrees>
              <LongitudeDegrees>37.0252170972526073455810546875</LongitudeDegrees>
            </Position>
            <AltitudeMeters>696.5999755859375</AltitudeMeters>
            <DistanceMeters>4918.9702299172</DistanceMeters>
          </Trackpoint>
          <Trackpoint>
            <Time>2021-08-01T10:59:42.000Z</Time>
            <Position>
              <LatitudeDegrees>-15.458634383976459503173828125</LatitudeDegrees>
              <LongitudeDegrees>37.025303430855274200439453125</LongitudeDegrees>
            </Position>
            <AltitudeMeters>697</AltitudeMeters>
            <DistanceMeters>4929.7107711779</DistanceMeters>
          </Trackpoint>
          <Trackpoint>
            <Time>2021-08-01T10:59:45.000Z</Time>
            <Position>
              <LatitudeDegrees>-15.45864871703088283538818359375</LatitudeDegrees>
              <LongitudeDegrees>37.02533737756311893463134765625</LongitudeDegrees>
            </Position>
            <AltitudeMeters>697</AltitudeMeters>
            <DistanceMeters>4933.6871594705</DistanceMeters>
          </Trackpoint>
          <Trackpoint>
            <Time>2021-08-01T10:59:46.000Z</Time>
            <Position>
              <LatitudeDegrees>-15.45865525491535663604736328125</LatitudeDegrees>
              <LongitudeDegrees>37.0253468491137027740478515625</LongitudeDegrees>
            </Position>
            <AltitudeMeters>697</AltitudeMeters>
            <DistanceMeters>4934.9334231458</DistanceMeters>
          </Trackpoint>
          <Trackpoint>
            <Time>2021-08-01T10:59:53.000Z</Time>
            <Position>
              <LatitudeDegrees>-15.45868559740483760833740234375</LatitudeDegrees>
              <LongitudeDegrees>37.02542907558381557464599609375</LongitudeDegrees>
            </Position>
            <AltitudeMeters>697.20001220703125</AltitudeMeters>
            <DistanceMeters>4944.378906472</DistanceMeters>
          </Trackpoint>
          <Trackpoint>
            <Time>2021-08-01T10:59:55.000Z</Time>
            <Position>
              <LatitudeDegrees>-15.458696074783802032470703125</LatitudeDegrees>
              <LongitudeDegrees>37.02544986270368099212646484375</LongitudeDegrees>
            </Position>
            <AltitudeMeters>697.20001220703125</AltitudeMeters>
            <DistanceMeters>4946.8948722085</DistanceMeters>
          </Trackpoint>
          <Trackpoint>
            <Time>2021-08-01T10:59:59.000Z</Time>
            <Position>
              <LatitudeDegrees>-15.4587096534669399261474609375</LatitudeDegrees>
              <LongitudeDegrees>37.02549562789499759674072265625</LongitudeDegrees>
            </Position>
            <AltitudeMeters>697</AltitudeMeters>
            <DistanceMeters>4952.0315913335</DistanceMeters>
          </Trackpoint>
          <Trackpoint>
            <Time>2021-08-01T11:00:07.000Z</Time>
            <Position>
              <LatitudeDegrees>-15.45873454771935939788818359375</LatitudeDegrees>
              <LongitudeDegrees>37.025596462190151214599609375</LongitudeDegrees>
            </Position>
            <AltitudeMeters>697.4000244140625</AltitudeMeters>
            <DistanceMeters>4963.1983422314</DistanceMeters>
          </Trackpoint>
          <Trackpoint>
            <Time>2021-08-01T11:00:17.000Z</Time>
            <Position>
              <LatitudeDegrees>-15.45875072479248046875</LatitudeDegrees>
              <LongitudeDegrees>37.025709785521030426025390625</LongitudeDegrees>
            </Position>
            <AltitudeMeters>697.4000244140625</AltitudeMeters>
            <DistanceMeters>4975.4876883704</DistanceMeters>
          </Trackpoint>
          <Trackpoint>
            <Time>2021-08-01T11:00:25.000Z</Time>
            <Position>
              <LatitudeDegrees>-15.4587485454976558685302734375</LatitudeDegrees>
              <LongitudeDegrees>37.02580492012202739715576171875</LongitudeDegrees>
            </Position>
            <AltitudeMeters>697.4000244140625</AltitudeMeters>
            <DistanceMeters>4985.6958753869</DistanceMeters>
          </Trackpoint>
          <Trackpoint>
            <Time>2021-08-01T11:00:34.000Z</Time>
            <Position>
              <LatitudeDegrees>-15.45875164680182933807373046875</LatitudeDegrees>
              <LongitudeDegrees>37.0259146392345428466796875</LongitudeDegrees>
            </Position>
            <AltitudeMeters>697.79998779296875</AltitudeMeters>
            <DistanceMeters>4997.4711386025</DistanceMeters>
          </Trackpoint>
          <Trackpoint>
            <Time>2021-08-01T11:00:37.000Z</Time>
            <Position>
              <LatitudeDegrees>-15.458745695650577545166015625</LatitudeDegrees>
              <LongitudeDegrees>37.02594523318111896514892578125</LongitudeDegrees>
            </Position>
            <AltitudeMeters>697.79998779296875</AltitudeMeters>
            <DistanceMeters>5000.8200720063</DistanceMeters>
          </Trackpoint>
          <Trackpoint>
            <Time>2021-08-01T11:00:41.000Z</Time>
            <Position>
              <LatitudeDegrees>-15.45874108560383319854736328125</LatitudeDegrees>
              <LongitudeDegrees>37.02599309384822845458984375</LongitudeDegrees>
            </Position>
            <AltitudeMeters>697.79998779296875</AltitudeMeters>
            <DistanceMeters>5005.9795938211</DistanceMeters>
          </Trackpoint>
          <Trackpoint>
            <Time>2021-08-01T11:00:48.000Z</Time>
            <Position>
              <LatitudeDegrees>-15.4587150178849697113037109375</LatitudeDegrees>
              <LongitudeDegrees>37.02606777660548686981201171875</LongitudeDegrees>
            </Position>
            <AltitudeMeters>698</AltitudeMeters>
            <DistanceMeters>5014.5002636662</DistanceMeters>
          </Trackpoint>
          <Trackpoint>
            <Time>2021-08-01T11:00:51.000Z</Time>
            <Position>
              <LatitudeDegrees>-15.458690039813518524169921875</LatitudeDegrees>
              <LongitudeDegrees>37.02609543688595294952392578125</LongitudeDegrees>
            </Position>
            <AltitudeMeters>698.20001220703125</AltitudeMeters>
            <DistanceMeters>5018.5653638977</DistanceMeters>
          </Trackpoint>
          <Trackpoint>
            <Time>2021-08-01T11:00:56.000Z</Time>
            <Position>
              <LatitudeDegrees>-15.45865424908697605133056640625</LatitudeDegrees>
              <LongitudeDegrees>37.0261441357433795928955078125</LongitudeDegrees>
            </Position>
            <AltitudeMeters>698.20001220703125</AltitudeMeters>
            <DistanceMeters>5025.1352775503</DistanceMeters>
          </Trackpoint>
          <Trackpoint>
            <Time>2021-08-01T11:01:00.000Z</Time>
            <Position>
              <LatitudeDegrees>-15.4586067236959934234619140625</LatitudeDegrees>
              <LongitudeDegrees>37.02617338858544826507568359375</LongitudeDegrees>
            </Position>
            <AltitudeMeters>698.4000244140625</AltitudeMeters>
            <DistanceMeters>5031.2856425983</DistanceMeters>
          </Trackpoint>
          <Trackpoint>
            <Time>2021-08-01T11:01:02.000Z</Time>
            <Position>
              <LatitudeDegrees>-15.45859004370868206024169921875</LatitudeDegrees>
              <LongitudeDegrees>37.0261801779270172119140625</LongitudeDegrees>
            </Position>
            <AltitudeMeters>698.5999755859375</AltitudeMeters>
            <DistanceMeters>5033.2789397752</DistanceMeters>
          </Trackpoint>
          <Trackpoint>
            <Time>2021-08-01T11:01:04.000Z</Time>
            <Position>
              <LatitudeDegrees>-15.458572693169116973876953125</LatitudeDegrees>
              <LongitudeDegrees>37.02618277631700038909912109375</LongitudeDegrees>
            </Position>
            <AltitudeMeters>699.20001220703125</AltitudeMeters>
            <DistanceMeters>5035.2310392243</DistanceMeters>
          </Trackpoint>
          <Trackpoint>
            <Time>2021-08-01T11:01:07.000Z</Time>
            <Position>
              <LatitudeDegrees>-15.458543188869953155517578125</LatitudeDegrees>
              <LongitudeDegrees>37.0261877216398715972900390625</LongitudeDegrees>
            </Position>
            <AltitudeMeters>699.5999755859375</AltitudeMeters>
            <DistanceMeters>5038.5583314748</DistanceMeters>
          </Trackpoint>
          <Trackpoint>
            <Time>2021-08-01T11:01:11.000Z</Time>
            <Position>
              <LatitudeDegrees>-15.45850857160985469818115234375</LatitudeDegrees>
              <LongitudeDegrees>37.02618897892534732818603515625</LongitudeDegrees>
            </Position>
            <AltitudeMeters>700.4000244140625</AltitudeMeters>
            <DistanceMeters>5042.4136532288</DistanceMeters>
          </Trackpoint>
          <Trackpoint>
            <Time>2021-08-01T11:01:17.000Z</Time>
            <Position>
              <LatitudeDegrees>-15.4584524966776371002197265625</LatitudeDegrees>
              <LongitudeDegrees>37.02618830837309360504150390625</LongitudeDegrees>
            </Position>
            <AltitudeMeters>701.20001220703125</AltitudeMeters>
            <DistanceMeters>5048.6551073686</DistanceMeters>
          </Trackpoint>
          <Trackpoint>
            <Time>2021-08-01T11:01:20.000Z</Time>
            <Position>
              <LatitudeDegrees>-15.45842307619750499725341796875</LatitudeDegrees>
              <LongitudeDegrees>37.0261893980205059051513671875</LongitudeDegrees>
            </Position>
            <AltitudeMeters>701.5999755859375</AltitudeMeters>
            <DistanceMeters>5051.9331846966</DistanceMeters>
          </Trackpoint>
          <Trackpoint>
            <Time>2021-08-01T11:01:23.000Z</Time>
            <Position>
              <LatitudeDegrees>-15.45839239843189716339111328125</LatitudeDegrees>
              <LongitudeDegrees>37.026189900934696197509765625</LongitudeDegrees>
            </Position>
            <AltitudeMeters>702.4000244140625</AltitudeMeters>
            <DistanceMeters>5055.3488630722</DistanceMeters>
          </Trackpoint>
          <Trackpoint>
            <Time>2021-08-01T11:01:28.000Z</Time>
            <Position>
              <LatitudeDegrees>-15.4583512432873249053955078125</LatitudeDegrees>
              <LongitudeDegrees>37.02618210576474666595458984375</LongitudeDegrees>
            </Position>
            <AltitudeMeters>702.5999755859375</AltitudeMeters>
            <DistanceMeters>5060.0051720763</DistanceMeters>
          </Trackpoint>
          <Trackpoint>
            <Time>2021-08-01T11:01:29.000Z</Time>
            <Position>
              <LatitudeDegrees>-15.458342023193836212158203125</LatitudeDegrees>
              <LongitudeDegrees>37.02618076466023921966552734375</LongitudeDegrees>
            </Position>
            <AltitudeMeters>702.5999755859375</AltitudeMeters>
            <DistanceMeters>5061.0417911466</DistanceMeters>
          </Trackpoint>
          <Trackpoint>
            <Time>2021-08-01T11:01:36.000Z</Time>
            <Position>
              <LatitudeDegrees>-15.45827035792171955108642578125</LatitudeDegrees>
              <LongitudeDegrees>37.02616131864488124847412109375</LongitudeDegrees>
            </Position>
            <AltitudeMeters>703.79998779296875</AltitudeMeters>
            <DistanceMeters>5069.2866935396</DistanceMeters>
          </Trackpoint>
          <Trackpoint>
            <Time>2021-08-01T11:01:37.000Z</Time>
            <Position>
              <LatitudeDegrees>-15.4582639038562774658203125</LatitudeDegrees>
              <LongitudeDegrees>37.0261588878929615020751953125</LongitudeDegrees>
            </Position>
            <AltitudeMeters>703.79998779296875</AltitudeMeters>
            <DistanceMeters>5070.0469072545</DistanceMeters>
          </Trackpoint>
          <Trackpoint>
            <Time>2021-08-01T11:01:42.000Z</Time>
            <Position>
              <LatitudeDegrees>-15.45822325162589550018310546875</LatitudeDegrees>
              <LongitudeDegrees>37.0261531881988048553466796875</LongitudeDegrees>
            </Position>
            <AltitudeMeters>704.5999755859375</AltitudeMeters>
            <DistanceMeters>5074.6141248523</DistanceMeters>
          </Trackpoint>
          <Trackpoint>
            <Time>2021-08-01T11:01:43.000Z</Time>
            <Position>
              <LatitudeDegrees>-15.45821436680853366851806640625</LatitudeDegrees>
              <LongitudeDegrees>37.02615813352167606353759765625</LongitudeDegrees>
            </Position>
            <AltitudeMeters>705</AltitudeMeters>
            <DistanceMeters>5075.7425045662</DistanceMeters>
          </Trackpoint>
          <Trackpoint>
            <Time>2021-08-01T11:01:45.000Z</Time>
            <Position>
              <LatitudeDegrees>-15.45819508843123912811279296875</LatitudeDegrees>
              <LongitudeDegrees>37.02616743743419647216796875</LongitudeDegrees>
            </Position>
            <AltitudeMeters>705</AltitudeMeters>
            <DistanceMeters>5078.1086506722</DistanceMeters>
          </Trackpoint>
          <Trackpoint>
            <Time>2021-08-01T11:01:46.000Z</Time>
            <Position>
              <LatitudeDegrees>-15.45818771235644817352294921875</LatitudeDegrees>
              <LongitudeDegrees>37.0261709578335285186767578125</LongitudeDegrees>
            </Position>
            <AltitudeMeters>705.20001220703125</AltitudeMeters>
            <DistanceMeters>5079.0101532402</DistanceMeters>
          </Trackpoint>
          <Trackpoint>
            <Time>2021-08-01T11:01:50.000Z</Time>
            <Position>
              <LatitudeDegrees>-15.45815871097147464752197265625</LatitudeDegrees>
              <LongitudeDegrees>37.026159726083278656005859375</LongitudeDegrees>
            </Position>
            <AltitudeMeters>705.79998779296875</AltitudeMeters>
            <DistanceMeters>5082.4547897155</DistanceMeters>
          </Trackpoint>
          <Trackpoint>
            <Time>2021-08-01T11:01:51.000Z</Time>
            <Position>
              <LatitudeDegrees>-15.45814982615411281585693359375</LatitudeDegrees>
              <LongitudeDegrees>37.02615863643586635589599609375</LongitudeDegrees>
            </Position>
            <AltitudeMeters>706</AltitudeMeters>
            <DistanceMeters>5083.4514383039</DistanceMeters>
          </Trackpoint>
          <Trackpoint>
            <Time>2021-08-01T11:01:52.000Z</Time>
            <Position>
              <LatitudeDegrees>-15.45813725329935550689697265625</LatitudeDegrees>
              <LongitudeDegrees>37.02616131864488124847412109375</LongitudeDegrees>
            </Position>
            <AltitudeMeters>706</AltitudeMeters>
            <DistanceMeters>5084.8800030649</DistanceMeters>
          </Trackpoint>
          <Trackpoint>
            <Time>2021-08-01T11:01:53.000Z</Time>
            <Position>
              <LatitudeDegrees>-15.45812216587364673614501953125</LatitudeDegrees>
              <LongitudeDegrees>37.0261614024639129638671875</LongitudeDegrees>
            </Position>
            <AltitudeMeters>706.20001220703125</AltitudeMeters>
            <DistanceMeters>5086.5611972616</DistanceMeters>
          </Trackpoint>
          <Trackpoint>
            <Time>2021-08-01T11:01:59.000Z</Time>
            <Position>
              <LatitudeDegrees>-15.458036921918392181396484375</LatitudeDegrees>
              <LongitudeDegrees>37.02616048045456409454345703125</LongitudeDegrees>
            </Position>
            <AltitudeMeters>707</AltitudeMeters>
            <DistanceMeters>5096.0496039849</DistanceMeters>
          </Trackpoint>
          <Trackpoint>
            <Time>2021-08-01T11:02:01.000Z</Time>
            <Position>
              <LatitudeDegrees>-15.4580052383244037628173828125</LatitudeDegrees>
              <LongitudeDegrees>37.0261585526168346405029296875</LongitudeDegrees>
            </Position>
            <AltitudeMeters>707.4000244140625</AltitudeMeters>
            <DistanceMeters>5099.5822468547</DistanceMeters>
          </Trackpoint>
          <Trackpoint>
            <Time>2021-08-01T11:02:10.000Z</Time>
            <Position>
              <LatitudeDegrees>-15.45789602212607860565185546875</LatitudeDegrees>
              <LongitudeDegrees>37.02617959119379520416259765625</LongitudeDegrees>
            </Position>
            <AltitudeMeters>707.79998779296875</AltitudeMeters>
            <DistanceMeters>5111.9459491337</DistanceMeters>
          </Trackpoint>
          <Trackpoint>
            <Time>2021-08-01T11:02:13.000Z</Time>
            <Position>
              <LatitudeDegrees>-15.45785847119987010955810546875</LatitudeDegrees>
              <LongitudeDegrees>37.026197612285614013671875</LongitudeDegrees>
            </Position>
            <AltitudeMeters>708</AltitudeMeters>
            <DistanceMeters>5116.5515597953</DistanceMeters>
          </Trackpoint>
          <Trackpoint>
            <Time>2021-08-01T11:02:18.000Z</Time>
            <Position>
              <LatitudeDegrees>-15.45780449174344539642333984375</LatitudeDegrees>
              <LongitudeDegrees>37.0262467302381992340087890625</LongitudeDegrees>
            </Position>
            <AltitudeMeters>708.5999755859375</AltitudeMeters>
            <DistanceMeters>5124.542848841</DistanceMeters>
          </Trackpoint>
          <Trackpoint>
            <Time>2021-08-01T11:02:21.000Z</Time>
            <Position>
              <LatitudeDegrees>-15.45777934603393077850341796875</LatitudeDegrees>
              <LongitudeDegrees>37.026265002787113189697265625</LongitudeDegrees>
            </Position>
            <AltitudeMeters>708.79998779296875</AltitudeMeters>
            <DistanceMeters>5127.9598488179</DistanceMeters>
          </Trackpoint>
          <Trackpoint>
            <Time>2021-08-01T11:02:26.000Z</Time>
            <Position>
              <LatitudeDegrees>-15.45772871933877468109130859375</LatitudeDegrees>
              <LongitudeDegrees>37.02629576437175273895263671875</LongitudeDegrees>
            </Position>
            <AltitudeMeters>709</AltitudeMeters>
            <DistanceMeters>5134.4897815104</DistanceMeters>
          </Trackpoint>
          <Trackpoint>
            <Time>2021-08-01T11:02:27.000Z</Time>
            <Position>
              <LatitudeDegrees>-15.45772084034979343414306640625</LatitudeDegrees>
              <LongitudeDegrees>37.02630146406590938568115234375</LongitudeDegrees>
            </Position>
            <AltitudeMeters>709.20001220703125</AltitudeMeters>
            <DistanceMeters>5135.5564537337</DistanceMeters>
          </Trackpoint>
          <Trackpoint>
            <Time>2021-08-01T11:02:31.000Z</Time>
            <Position>
              <LatitudeDegrees>-15.45769083313643932342529296875</LatitudeDegrees>
              <LongitudeDegrees>37.0263295434415340423583984375</LongitudeDegrees>
            </Position>
            <AltitudeMeters>709.4000244140625</AltitudeMeters>
            <DistanceMeters>5140.0539387236</DistanceMeters>
          </Trackpoint>
          <Trackpoint>
            <Time>2021-08-01T11:02:33.000Z</Time>
            <Position>
              <LatitudeDegrees>-15.457670800387859344482421875</LatitudeDegrees>
              <LongitudeDegrees>37.0263411104679107666015625</LongitudeDegrees>
            </Position>
            <AltitudeMeters>709.4000244140625</AltitudeMeters>
            <DistanceMeters>5142.6073120203</DistanceMeters>
          </Trackpoint>
          <Trackpoint>
            <Time>2021-08-01T11:02:37.000Z</Time>
            <Position>
              <LatitudeDegrees>-15.4576307348906993865966796875</LatitudeDegrees>
              <LongitudeDegrees>37.026360221207141876220703125</LongitudeDegrees>
            </Position>
            <AltitudeMeters>709.79998779296875</AltitudeMeters>
            <DistanceMeters>5147.515697086</DistanceMeters>
          </Trackpoint>
          <Trackpoint>
            <Time>2021-08-01T11:02:40.000Z</Time>
            <Position>
              <LatitudeDegrees>-15.4576013982295989990234375</LatitudeDegrees>
              <LongitudeDegrees>37.0263744704425334930419921875</LongitudeDegrees>
            </Position>
            <AltitudeMeters>709.79998779296875</AltitudeMeters>
            <DistanceMeters>5151.1229592272</DistanceMeters>
          </Trackpoint>
          <Trackpoint>
            <Time>2021-08-01T11:02:46.000Z</Time>
            <Position>
              <LatitudeDegrees>-15.45754842460155487060546875</LatitudeDegrees>
              <LongitudeDegrees>37.0264116860926151275634765625</LongitudeDegrees>
            </Position>
            <AltitudeMeters>710.20001220703125</AltitudeMeters>
            <DistanceMeters>5158.2436248726</DistanceMeters>
          </Trackpoint>
          <Trackpoint>
            <Time>2021-08-01T11:02:47.000Z</Time>
            <Position>
              <LatitudeDegrees>-15.4575392045080661773681640625</LatitudeDegrees>
              <LongitudeDegrees>37.0264133624732494354248046875</LongitudeDegrees>
            </Position>
            <AltitudeMeters>710.4000244140625</AltitudeMeters>
            <DistanceMeters>5159.2845903731</DistanceMeters>
          </Trackpoint>
          <Trackpoint>
            <Time>2021-08-01T11:02:54.000Z</Time>
            <Position>
              <LatitudeDegrees>-15.45746955089271068572998046875</LatitudeDegrees>
              <LongitudeDegrees>37.0264696888625621795654296875</LongitudeDegrees>
            </Position>
            <AltitudeMeters>710.5999755859375</AltitudeMeters>
            <DistanceMeters>5169.1137708005</DistanceMeters>
          </Trackpoint>
          <Trackpoint>
            <Time>2021-08-01T11:02:58.000Z</Time>
            <Position>
              <LatitudeDegrees>-15.45742982067167758941650390625</LatitudeDegrees>
              <LongitudeDegrees>37.02649005688726902008056640625</LongitudeDegrees>
            </Position>
            <AltitudeMeters>711</AltitudeMeters>
            <DistanceMeters>5174.0469296279</DistanceMeters>
          </Trackpoint>
          <Trackpoint>
            <Time>2021-08-01T11:03:01.000Z</Time>
            <Position>
              <LatitudeDegrees>-15.45740081928670406341552734375</LatitudeDegrees>
              <LongitudeDegrees>37.0265079103410243988037109375</LongitudeDegrees>
            </Position>
            <AltitudeMeters>711</AltitudeMeters>
            <DistanceMeters>5177.800184116</DistanceMeters>
          </Trackpoint>
          <Trackpoint>
            <Time>2021-08-01T11:03:10.000Z</Time>
            <Position>
              <LatitudeDegrees>-15.45730660669505596160888671875</LatitudeDegrees>
              <LongitudeDegrees>37.02657069079577922821044921875</LongitudeDegrees>
            </Position>
            <AltitudeMeters>711.4000244140625</AltitudeMeters>
            <DistanceMeters>5190.2628208689</DistanceMeters>
          </Trackpoint>
          <Trackpoint>
            <Time>2021-08-01T11:03:14.000Z</Time>
            <Position>
              <LatitudeDegrees>-15.4572632722556591033935546875</LatitudeDegrees>
              <LongitudeDegrees>37.02658720314502716064453125</LongitudeDegrees>
            </Position>
            <AltitudeMeters>711.79998779296875</AltitudeMeters>
            <DistanceMeters>5195.4004188919</DistanceMeters>
          </Trackpoint>
          <Trackpoint>
            <Time>2021-08-01T11:03:17.000Z</Time>
            <Position>
              <LatitudeDegrees>-15.45723753981292247772216796875</LatitudeDegrees>
              <LongitudeDegrees>37.02660421840846538543701171875</LongitudeDegrees>
            </Position>
            <AltitudeMeters>712.20001220703125</AltitudeMeters>
            <DistanceMeters>5198.7975408643</DistanceMeters>
          </Trackpoint>
          <Trackpoint>
            <Time>2021-08-01T11:03:18.000Z</Time>
            <Position>
              <LatitudeDegrees>-15.457226894795894622802734375</LatitudeDegrees>
              <LongitudeDegrees>37.0266105048358440399169921875</LongitudeDegrees>
            </Position>
            <AltitudeMeters>712.4000244140625</AltitudeMeters>
            <DistanceMeters>5200.1614307966</DistanceMeters>
          </Trackpoint>
          <Trackpoint>
            <Time>2021-08-01T11:03:25.000Z</Time>
            <Position>
              <LatitudeDegrees>-15.457166545093059539794921875</LatitudeDegrees>
              <LongitudeDegrees>37.02667211182415485382080078125</LongitudeDegrees>
            </Position>
            <AltitudeMeters>713</AltitudeMeters>
            <DistanceMeters>5209.5848999959</DistanceMeters>
          </Trackpoint>
          <Trackpoint>
            <Time>2021-08-01T11:03:32.000Z</Time>
            <Position>
              <LatitudeDegrees>-15.45711969025433063507080078125</LatitudeDegrees>
              <LongitudeDegrees>37.02672533690929412841796875</LongitudeDegrees>
            </Position>
            <AltitudeMeters>713.5999755859375</AltitudeMeters>
            <DistanceMeters>5217.3177627395</DistanceMeters>
          </Trackpoint>
          <Trackpoint>
            <Time>2021-08-01T11:03:34.000Z</Time>
            <Position>
              <LatitudeDegrees>-15.4571023397147655487060546875</LatitudeDegrees>
              <LongitudeDegrees>37.02674302272498607635498046875</LongitudeDegrees>
            </Position>
            <AltitudeMeters>713.5999755859375</AltitudeMeters>
            <DistanceMeters>5220.0272741621</DistanceMeters>
          </Trackpoint>
          <Trackpoint>
            <Time>2021-08-01T11:03:42.000Z</Time>
            <Position>
              <LatitudeDegrees>-15.4570406489074230194091796875</LatitudeDegrees>
              <LongitudeDegrees>37.02680186368525028228759765625</LongitudeDegrees>
            </Position>
            <AltitudeMeters>714.5999755859375</AltitudeMeters>
            <DistanceMeters>5229.3544257348</DistanceMeters>
          </Trackpoint>
          <Trackpoint>
            <Time>2021-08-01T11:03:43.000Z</Time>
            <Position>
              <LatitudeDegrees>-15.45703503303229808807373046875</LatitudeDegrees>
              <LongitudeDegrees>37.02681242488324642181396484375</LongitudeDegrees>
            </Position>
            <AltitudeMeters>714.5999755859375</AltitudeMeters>
            <DistanceMeters>5230.6504173315</DistanceMeters>
          </Trackpoint>
          <Trackpoint>
            <Time>2021-08-01T11:03:52.000Z</Time>
            <Position>
              <LatitudeDegrees>-15.4569729231297969818115234375</LatitudeDegrees>
              <LongitudeDegrees>37.02689607627689838409423828125</LongitudeDegrees>
            </Position>
            <AltitudeMeters>715.5999755859375</AltitudeMeters>
            <DistanceMeters>5241.9781437701</DistanceMeters>
          </Trackpoint>
          <Trackpoint>
            <Time>2021-08-01T11:03:53.000Z</Time>
            <Position>
              <LatitudeDegrees>-15.4569683969020843505859375</LatitudeDegrees>
              <LongitudeDegrees>37.02690479345619678497314453125</LongitudeDegrees>
            </Position>
            <AltitudeMeters>715.79998779296875</AltitudeMeters>
            <DistanceMeters>5243.0363164777</DistanceMeters>
          </Trackpoint>
          <Trackpoint>
            <Time>2021-08-01T11:03:54.000Z</Time>
            <Position>
              <LatitudeDegrees>-15.456961356103420257568359375</LatitudeDegrees>
              <LongitudeDegrees>37.02691418118774890899658203125</LongitudeDegrees>
            </Position>
            <AltitudeMeters>716.20001220703125</AltitudeMeters>
            <DistanceMeters>5244.3112336358</DistanceMeters>
          </Trackpoint>
          <Trackpoint>
            <Time>2021-08-01T11:03:55.000Z</Time>
            <Position>
              <LatitudeDegrees>-15.456953980028629302978515625</LatitudeDegrees>
              <LongitudeDegrees>37.0269231498241424560546875</LongitudeDegrees>
            </Position>
            <AltitudeMeters>716.20001220703125</AltitudeMeters>
            <DistanceMeters>5245.5719054623</DistanceMeters>
          </Trackpoint>
          <Trackpoint>
            <Time>2021-08-01T11:03:59.000Z</Time>
            <Position>
              <LatitudeDegrees>-15.4569281637668609619140625</LatitudeDegrees>
              <LongitudeDegrees>37.0269648917019367218017578125</LongitudeDegrees>
            </Position>
            <AltitudeMeters>716.5999755859375</AltitudeMeters>
            <DistanceMeters>5250.8925529465</DistanceMeters>
          </Trackpoint>
          <Trackpoint>
            <Time>2021-08-01T11:04:01.000Z</Time>
            <Position>
              <LatitudeDegrees>-15.4569226317107677459716796875</LatitudeDegrees>
              <LongitudeDegrees>37.026981152594089508056640625</LongitudeDegrees>
            </Position>
            <AltitudeMeters>716.5999755859375</AltitudeMeters>
            <DistanceMeters>5252.744964631</DistanceMeters>
          </Trackpoint>
          <Trackpoint>
            <Time>2021-08-01T11:04:02.000Z</Time>
            <Position>
              <LatitudeDegrees>-15.4569192789494991302490234375</LatitudeDegrees>
              <LongitudeDegrees>37.0269903726875782012939453125</LongitudeDegrees>
            </Position>
            <AltitudeMeters>717</AltitudeMeters>
            <DistanceMeters>5253.807395596</DistanceMeters>
          </Trackpoint>
          <Trackpoint>
            <Time>2021-08-01T11:04:09.000Z</Time>
            <Position>
              <LatitudeDegrees>-15.45687192119657993316650390625</LatitudeDegrees>
              <LongitudeDegrees>37.02705902047455310821533203125</LongitudeDegrees>
            </Position>
            <AltitudeMeters>717.79998779296875</AltitudeMeters>
            <DistanceMeters>5262.8633966044</DistanceMeters>
          </Trackpoint>
          <Trackpoint>
            <Time>2021-08-01T11:04:10.000Z</Time>
            <Position>
              <LatitudeDegrees>-15.45686538331210613250732421875</LatitudeDegrees>
              <LongitudeDegrees>37.02707192860543727874755859375</LongitudeDegrees>
            </Position>
            <AltitudeMeters>718</AltitudeMeters>
            <DistanceMeters>5264.4277337536</DistanceMeters>
          </Trackpoint>
          <Trackpoint>
            <Time>2021-08-01T11:04:18.000Z</Time>
            <Position>
              <LatitudeDegrees>-15.45683839358389377593994140625</LatitudeDegrees>
              <LongitudeDegrees>37.0271653868257999420166015625</LongitudeDegrees>
            </Position>
            <AltitudeMeters>718.4000244140625</AltitudeMeters>
            <DistanceMeters>5274.8940538969</DistanceMeters>
          </Trackpoint>
          <Trackpoint>
            <Time>2021-08-01T11:04:27.000Z</Time>
            <Position>
              <LatitudeDegrees>-15.45682850293815135955810546875</LatitudeDegrees>
              <LongitudeDegrees>37.02726446092128753662109375</LongitudeDegrees>
            </Position>
            <AltitudeMeters>719.20001220703125</AltitudeMeters>
            <DistanceMeters>5285.5793843343</DistanceMeters>
          </Trackpoint>
          <Trackpoint>
            <Time>2021-08-01T11:04:35.000Z</Time>
            <Position>
              <LatitudeDegrees>-15.45681660063564777374267578125</LatitudeDegrees>
              <LongitudeDegrees>37.02735020779073238372802734375</LongitudeDegrees>
            </Position>
            <AltitudeMeters>719.4000244140625</AltitudeMeters>
            <DistanceMeters>5294.8735605357</DistanceMeters>
          </Trackpoint>
          <Trackpoint>
            <Time>2021-08-01T11:04:41.000Z</Time>
            <Position>
              <LatitudeDegrees>-15.4568213783204555511474609375</LatitudeDegrees>
              <LongitudeDegrees>37.02741608954966068267822265625</LongitudeDegrees>
            </Position>
            <AltitudeMeters>720.20001220703125</AltitudeMeters>
            <DistanceMeters>5301.9605405118</DistanceMeters>
          </Trackpoint>
          <Trackpoint>
            <Time>2021-08-01T11:04:45.000Z</Time>
            <Position>
              <LatitudeDegrees>-15.456819199025630950927734375</LatitudeDegrees>
              <LongitudeDegrees>37.02746084891259670257568359375</LongitudeDegrees>
            </Position>
            <AltitudeMeters>720.5999755859375</AltitudeMeters>
            <DistanceMeters>5306.7676150505</DistanceMeters>
          </Trackpoint>
          <Trackpoint>
            <Time>2021-08-01T11:04:46.000Z</Time>
            <Position>
              <LatitudeDegrees>-15.45681576244533061981201171875</LatitudeDegrees>
              <LongitudeDegrees>37.02747224830090999603271484375</LongitudeDegrees>
            </Position>
            <AltitudeMeters>721</AltitudeMeters>
            <DistanceMeters>5308.0425322085</DistanceMeters>
          </Trackpoint>
          <Trackpoint>
            <Time>2021-08-01T11:04:47.000Z</Time>
            <Position>
              <LatitudeDegrees>-15.456815175712108612060546875</LatitudeDegrees>
              <LongitudeDegrees>37.02748364768922328948974609375</LongitudeDegrees>
            </Position>
            <AltitudeMeters>721</AltitudeMeters>
            <DistanceMeters>5309.2631724558</DistanceMeters>
          </Trackpoint>
          <Trackpoint>
            <Time>2021-08-01T11:04:50.000Z</Time>
            <Position>
              <LatitudeDegrees>-15.456823892891407012939453125</LatitudeDegrees>
              <LongitudeDegrees>37.0275113917887210845947265625</LongitudeDegrees>
            </Position>
            <AltitudeMeters>721.4000244140625</AltitudeMeters>
            <DistanceMeters>5312.3932895369</DistanceMeters>
          </Trackpoint>
          <Trackpoint>
            <Time>2021-08-01T11:04:52.000Z</Time>
            <Position>
              <LatitudeDegrees>-15.45681911520659923553466796875</LatitudeDegrees>
              <LongitudeDegrees>37.02754315920174121856689453125</LongitudeDegrees>
            </Position>
            <AltitudeMeters>721.4000244140625</AltitudeMeters>
            <DistanceMeters>5315.8418560038</DistanceMeters>
          </Trackpoint>
          <Trackpoint>
            <Time>2021-08-01T11:05:01.000Z</Time>
            <Position>
              <LatitudeDegrees>-15.456798076629638671875</LatitudeDegrees>
              <LongitudeDegrees>37.027639634907245635986328125</LongitudeDegrees>
            </Position>
            <AltitudeMeters>722.20001220703125</AltitudeMeters>
            <DistanceMeters>5326.4529833323</DistanceMeters>
          </Trackpoint>
          <Trackpoint>
            <Time>2021-08-01T11:05:02.000Z</Time>
            <Position>
              <LatitudeDegrees>-15.45679497532546520233154296875</LatitudeDegrees>
              <LongitudeDegrees>37.027652375400066375732421875</LongitudeDegrees>
            </Position>
            <AltitudeMeters>722.4000244140625</AltitudeMeters>
            <DistanceMeters>5327.8624572829</DistanceMeters>
          </Trackpoint>
          <Trackpoint>
            <Time>2021-08-01T11:05:13.000Z</Time>
            <Position>
              <LatitudeDegrees>-15.45673663727939128875732421875</LatitudeDegrees>
              <LongitudeDegrees>37.02776603400707244873046875</LongitudeDegrees>
            </Position>
            <AltitudeMeters>723.20001220703125</AltitudeMeters>
            <DistanceMeters>5341.6763479519</DistanceMeters>
          </Trackpoint>
          <Trackpoint>
            <Time>2021-08-01T11:05:17.000Z</Time>
            <Position>
              <LatitudeDegrees>-15.45671920292079448699951171875</LatitudeDegrees>
              <LongitudeDegrees>37.027809955179691314697265625</LongitudeDegrees>
            </Position>
            <AltitudeMeters>723.5999755859375</AltitudeMeters>
            <DistanceMeters>5346.7707016597</DistanceMeters>
          </Trackpoint>
          <Trackpoint>
            <Time>2021-08-01T11:05:23.000Z</Time>
            <Position>
              <LatitudeDegrees>-15.456697158515453338623046875</LatitudeDegrees>
              <LongitudeDegrees>37.027873657643795013427734375</LongitudeDegrees>
            </Position>
            <AltitudeMeters>724</AltitudeMeters>
            <DistanceMeters>5354.0313893874</DistanceMeters>
          </Trackpoint>
          <Trackpoint>
            <Time>2021-08-01T11:05:30.000Z</Time>
            <Position>
              <LatitudeDegrees>-15.4566644690930843353271484375</LatitudeDegrees>
              <LongitudeDegrees>37.02795688994228839874267578125</LongitudeDegrees>
            </Position>
            <AltitudeMeters>724.4000244140625</AltitudeMeters>
            <DistanceMeters>5363.6727381994</DistanceMeters>
          </Trackpoint>
          <Trackpoint>
            <Time>2021-08-01T11:05:32.000Z</Time>
            <Position>
              <LatitudeDegrees>-15.45666488818824291229248046875</LatitudeDegrees>
              <LongitudeDegrees>37.02797449193894863128662109375</LongitudeDegrees>
            </Position>
            <AltitudeMeters>724.5999755859375</AltitudeMeters>
            <DistanceMeters>5365.5637459391</DistanceMeters>
          </Trackpoint>
          <Trackpoint>
            <Time>2021-08-01T11:05:33.000Z</Time>
            <Position>
              <LatitudeDegrees>-15.45666455291211605072021484375</LatitudeDegrees>
              <LongitudeDegrees>37.0279868133366107940673828125</LongitudeDegrees>
            </Position>
            <AltitudeMeters>724.5999755859375</AltitudeMeters>
            <DistanceMeters>5366.8873149136</DistanceMeters>
          </Trackpoint>
          <Trackpoint>
            <Time>2021-08-01T11:05:36.000Z</Time>
            <Position>
              <LatitudeDegrees>-15.45665030367672443389892578125</LatitudeDegrees>
              <LongitudeDegrees>37.02802411280572414398193359375</LongitudeDegrees>
            </Position>
            <AltitudeMeters>725</AltitudeMeters>
            <DistanceMeters>5371.1908816653</DistanceMeters>
          </Trackpoint>
          <Trackpoint>
            <Time>2021-08-01T11:05:40.000Z</Time>
            <Position>
              <LatitudeDegrees>-15.45663873665034770965576171875</LatitudeDegrees>
              <LongitudeDegrees>37.02806786634027957916259765625</LongitudeDegrees>
            </Position>
            <AltitudeMeters>725.20001220703125</AltitudeMeters>
            <DistanceMeters>5376.0576968983</DistanceMeters>
          </Trackpoint>
          <Trackpoint>
            <Time>2021-08-01T11:05:45.000Z</Time>
            <Position>
              <LatitudeDegrees>-15.4566155187785625457763671875</LatitudeDegrees>
              <LongitudeDegrees>37.02812545001506805419921875</LongitudeDegrees>
            </Position>
            <AltitudeMeters>725.79998779296875</AltitudeMeters>
            <DistanceMeters>5382.7548895712</DistanceMeters>
          </Trackpoint>
          <Trackpoint>
            <Time>2021-08-01T11:05:49.000Z</Time>
            <Position>
              <LatitudeDegrees>-15.45660655014216899871826171875</LatitudeDegrees>
              <LongitudeDegrees>37.0281658507883548736572265625</LongitudeDegrees>
            </Position>
            <AltitudeMeters>726.4000244140625</AltitudeMeters>
            <DistanceMeters>5387.2029113212</DistanceMeters>
          </Trackpoint>
          <Trackpoint>
            <Time>2021-08-01T11:05:52.000Z</Time>
            <Position>
              <LatitudeDegrees>-15.4565957374870777130126953125</LatitudeDegrees>
              <LongitudeDegrees>37.0281956903636455535888671875</LongitudeDegrees>
            </Position>
            <AltitudeMeters>726.79998779296875</AltitudeMeters>
            <DistanceMeters>5390.6225529684</DistanceMeters>
          </Trackpoint>
          <Trackpoint>
            <Time>2021-08-01T11:05:59.000Z</Time>
            <Position>
              <LatitudeDegrees>-15.4565689153969287872314453125</LatitudeDegrees>
              <LongitudeDegrees>37.0282684452831745147705078125</LongitudeDegrees>
            </Position>
            <AltitudeMeters>727.5999755859375</AltitudeMeters>
            <DistanceMeters>5398.9784222268</DistanceMeters>
          </Trackpoint>
          <Trackpoint>
            <Time>2021-08-01T11:06:00.000Z</Time>
            <Position>
              <LatitudeDegrees>-15.4565633833408355712890625</LatitudeDegrees>
              <LongitudeDegrees>37.02827699482440948486328125</LongitudeDegrees>
            </Position>
            <AltitudeMeters>728.20001220703125</AltitudeMeters>
            <DistanceMeters>5400.0866146273</DistanceMeters>
          </Trackpoint>
          <Trackpoint>
            <Time>2021-08-01T11:06:08.000Z</Time>
            <Position>
              <LatitudeDegrees>-15.45653647743165493011474609375</LatitudeDegrees>
              <LongitudeDegrees>37.02835301868617534637451171875</LongitudeDegrees>
            </Position>
            <AltitudeMeters>729.20001220703125</AltitudeMeters>
            <DistanceMeters>5408.7746759182</DistanceMeters>
          </Trackpoint>
          <Trackpoint>
            <Time>2021-08-01T11:06:09.000Z</Time>
            <Position>
              <LatitudeDegrees>-15.45652859844267368316650390625</LatitudeDegrees>
              <LongitudeDegrees>37.02835905365645885467529296875</LongitudeDegrees>
            </Position>
            <AltitudeMeters>729.4000244140625</AltitudeMeters>
            <DistanceMeters>5409.8664497458</DistanceMeters>
          </Trackpoint>
          <Trackpoint>
            <Time>2021-08-01T11:06:17.000Z</Time>
            <Position>
              <LatitudeDegrees>-15.45649842359125614166259765625</LatitudeDegrees>
              <LongitudeDegrees>37.028422169387340545654296875</LongitudeDegrees>
            </Position>
            <AltitudeMeters>730.4000244140625</AltitudeMeters>
            <DistanceMeters>5417.4245092576</DistanceMeters>
          </Trackpoint>
          <Trackpoint>
            <Time>2021-08-01T11:06:23.000Z</Time>
            <Position>
              <LatitudeDegrees>-15.45648635365068912506103515625</LatitudeDegrees>
              <LongitudeDegrees>37.0284836925566196441650390625</LongitudeDegrees>
            </Position>
            <AltitudeMeters>731.4000244140625</AltitudeMeters>
            <DistanceMeters>5424.1593495659</DistanceMeters>
          </Trackpoint>
          <Trackpoint>
            <Time>2021-08-01T11:06:24.000Z</Time>
            <Position>
              <LatitudeDegrees>-15.4564850963652133941650390625</LatitudeDegrees>
              <LongitudeDegrees>37.02849433757364749908447265625</LongitudeDegrees>
            </Position>
            <AltitudeMeters>731.5999755859375</AltitudeMeters>
            <DistanceMeters>5425.3036227345</DistanceMeters>
          </Trackpoint>
          <Trackpoint>
            <Time>2021-08-01T11:06:28.000Z</Time>
            <Position>
              <LatitudeDegrees>-15.45647495426237583160400390625</LatitudeDegrees>
              <LongitudeDegrees>37.0285245962440967559814453125</LongitudeDegrees>
            </Position>
            <AltitudeMeters>732</AltitudeMeters>
            <DistanceMeters>5428.7390717462</DistanceMeters>
          </Trackpoint>
          <Trackpoint>
            <Time>2021-08-01T11:06:33.000Z</Time>
            <Position>
              <LatitudeDegrees>-15.45646891929209232330322265625</LatitudeDegrees>
              <LongitudeDegrees>37.0285631529986858367919921875</LongitudeDegrees>
            </Position>
            <AltitudeMeters>733</AltitudeMeters>
            <DistanceMeters>5432.9288770647</DistanceMeters>
          </Trackpoint>
          <Trackpoint>
            <Time>2021-08-01T11:06:37.000Z</Time>
            <Position>
              <LatitudeDegrees>-15.45646187849342823028564453125</LatitudeDegrees>
              <LongitudeDegrees>37.02859894372522830963134765625</LongitudeDegrees>
            </Position>
            <AltitudeMeters>733.4000244140625</AltitudeMeters>
            <DistanceMeters>5436.8469288708</DistanceMeters>
          </Trackpoint>
          <Trackpoint>
            <Time>2021-08-01T11:06:39.000Z</Time>
            <Position>
              <LatitudeDegrees>-15.45646036975085735321044921875</LatitudeDegrees>
              <LongitudeDegrees>37.028620652854442596435546875</LongitudeDegrees>
            </Position>
            <AltitudeMeters>734</AltitudeMeters>
            <DistanceMeters>5439.1823445023</DistanceMeters>
          </Trackpoint>
          <Trackpoint>
            <Time>2021-08-01T11:06:44.000Z</Time>
            <Position>
              <LatitudeDegrees>-15.45644746161997318267822265625</LatitudeDegrees>
              <LongitudeDegrees>37.0286727882921695709228515625</LongitudeDegrees>
            </Position>
            <AltitudeMeters>735</AltitudeMeters>
            <DistanceMeters>5444.9563415781</DistanceMeters>
          </Trackpoint>
          <Trackpoint>
            <Time>2021-08-01T11:06:51.000Z</Time>
            <Position>
              <LatitudeDegrees>-15.4564265906810760498046875</LatitudeDegrees>
              <LongitudeDegrees>37.02874881215393543243408203125</LongitudeDegrees>
            </Position>
            <AltitudeMeters>736.20001220703125</AltitudeMeters>
            <DistanceMeters>5453.4366439784</DistanceMeters>
          </Trackpoint>
          <Trackpoint>
            <Time>2021-08-01T11:07:00.000Z</Time>
            <Position>
              <LatitudeDegrees>-15.45637386851012706756591796875</LatitudeDegrees>
              <LongitudeDegrees>37.028833217918872833251953125</LongitudeDegrees>
            </Position>
            <AltitudeMeters>737.20001220703125</AltitudeMeters>
            <DistanceMeters>5464.2270937219</DistanceMeters>
          </Trackpoint>
          <Trackpoint>
            <Time>2021-08-01T11:07:02.000Z</Time>
            <Position>
              <LatitudeDegrees>-15.4563553445041179656982421875</LatitudeDegrees>
              <LongitudeDegrees>37.0288478024303913116455078125</LongitudeDegrees>
            </Position>
            <AltitudeMeters>737.4000244140625</AltitudeMeters>
            <DistanceMeters>5466.8155907224</DistanceMeters>
          </Trackpoint>
          <Trackpoint>
            <Time>2021-08-01T11:07:11.000Z</Time>
            <Position>
              <LatitudeDegrees>-15.456270687282085418701171875</LatitudeDegrees>
              <LongitudeDegrees>37.0289064757525920867919921875</LongitudeDegrees>
            </Position>
            <AltitudeMeters>737.79998779296875</AltitudeMeters>
            <DistanceMeters>5478.1473022892</DistanceMeters>
          </Trackpoint>
          <Trackpoint>
            <Time>2021-08-01T11:07:17.000Z</Time>
            <Position>
              <LatitudeDegrees>-15.456221401691436767578125</LatitudeDegrees>
              <LongitudeDegrees>37.02894218266010284423828125</LongitudeDegrees>
            </Position>
            <AltitudeMeters>738.4000244140625</AltitudeMeters>
            <DistanceMeters>5484.8377498776</DistanceMeters>
          </Trackpoint>
          <Trackpoint>
            <Time>2021-08-01T11:07:18.000Z</Time>
            <Position>
              <LatitudeDegrees>-15.45621276833117008209228515625</LatitudeDegrees>
              <LongitudeDegrees>37.028953246772289276123046875</LongitudeDegrees>
            </Position>
            <AltitudeMeters>738.4000244140625</AltitudeMeters>
            <DistanceMeters>5486.361143998</DistanceMeters>
          </Trackpoint>
          <Trackpoint>
            <Time>2021-08-01T11:07:20.000Z</Time>
            <Position>
              <LatitudeDegrees>-15.45619382523000240325927734375</LatitudeDegrees>
              <LongitudeDegrees>37.02896791510283946990966796875</LongitudeDegrees>
            </Position>
            <AltitudeMeters>738.4000244140625</AltitudeMeters>
            <DistanceMeters>5488.9911703393</DistanceMeters>
          </Trackpoint>
          <Trackpoint>
            <Time>2021-08-01T11:07:27.000Z</Time>
            <Position>
              <LatitudeDegrees>-15.45613699592649936676025390625</LatitudeDegrees>
              <LongitudeDegrees>37.02902105636894702911376953125</LongitudeDegrees>
            </Position>
            <AltitudeMeters>738.5999755859375</AltitudeMeters>
            <DistanceMeters>5497.5060093729</DistanceMeters>
          </Trackpoint>
          <Trackpoint>
            <Time>2021-08-01T11:07:31.000Z</Time>
            <Position>
              <LatitudeDegrees>-15.45610179193317890167236328125</LatitudeDegrees>
              <LongitudeDegrees>37.02904067002236843109130859375</LongitudeDegrees>
            </Position>
            <AltitudeMeters>738.79998779296875</AltitudeMeters>
            <DistanceMeters>5501.9540311229</DistanceMeters>
          </Trackpoint>
          <Trackpoint>
            <Time>2021-08-01T11:07:38.000Z</Time>
            <Position>
              <LatitudeDegrees>-15.45604546554386615753173828125</LatitudeDegrees>
              <LongitudeDegrees>37.0291166938841342926025390625</LongitudeDegrees>
            </Position>
            <AltitudeMeters>739</AltitudeMeters>
            <DistanceMeters>5512.2406455208</DistanceMeters>
          </Trackpoint>
          <Trackpoint>
            <Time>2021-08-01T11:07:47.000Z</Time>
            <Position>
              <LatitudeDegrees>-15.455979667603969573974609375</LatitudeDegrees>
              <LongitudeDegrees>37.029204703867435455322265625</LongitudeDegrees>
            </Position>
            <AltitudeMeters>739.20001220703125</AltitudeMeters>
            <DistanceMeters>5524.1894755328</DistanceMeters>
          </Trackpoint>
          <Trackpoint>
            <Time>2021-08-01T11:07:51.000Z</Time>
            <Position>
              <LatitudeDegrees>-15.45593985356390476226806640625</LatitudeDegrees>
              <LongitudeDegrees>37.0292407460510730743408203125</LongitudeDegrees>
            </Position>
            <AltitudeMeters>739.20001220703125</AltitudeMeters>
            <DistanceMeters>5530.0703932146</DistanceMeters>
          </Trackpoint>
          <Trackpoint>
            <Time>2021-08-01T11:07:53.000Z</Time>
            <Position>
              <LatitudeDegrees>-15.45591973699629306793212890625</LatitudeDegrees>
              <LongitudeDegrees>37.02925792895257472991943359375</LongitudeDegrees>
            </Position>
            <AltitudeMeters>739.4000244140625</AltitudeMeters>
            <DistanceMeters>5532.9698761287</DistanceMeters>
          </Trackpoint>
          <Trackpoint>
            <Time>2021-08-01T11:07:56.000Z</Time>
            <Position>
              <LatitudeDegrees>-15.45590699650347232818603515625</LatitudeDegrees>
              <LongitudeDegrees>37.0292947255074977874755859375</LongitudeDegrees>
            </Position>
            <AltitudeMeters>739.79998779296875</AltitudeMeters>
            <DistanceMeters>5537.1639897315</DistanceMeters>
          </Trackpoint>
          <Trackpoint>
            <Time>2021-08-01T11:07:59.000Z</Time>
            <Position>
              <LatitudeDegrees>-15.45588067732751369476318359375</LatitudeDegrees>
              <LongitudeDegrees>37.0293312706053256988525390625</LongitudeDegrees>
            </Position>
            <AltitudeMeters>740</AltitudeMeters>
            <DistanceMeters>5542.0585574147</DistanceMeters>
          </Trackpoint>
          <Trackpoint>
            <Time>2021-08-01T11:08:03.000Z</Time>
            <Position>
              <LatitudeDegrees>-15.455852933228015899658203125</LatitudeDegrees>
              <LongitudeDegrees>37.02937728725373744964599609375</LongitudeDegrees>
            </Position>
            <AltitudeMeters>740</AltitudeMeters>
            <DistanceMeters>5547.8816096253</DistanceMeters>
          </Trackpoint>
          <Trackpoint>
            <Time>2021-08-01T11:08:06.000Z</Time>
            <Position>
              <LatitudeDegrees>-15.455836839973926544189453125</LatitudeDegrees>
              <LongitudeDegrees>37.029410563409328460693359375</LongitudeDegrees>
            </Position>
            <AltitudeMeters>740</AltitudeMeters>
            <DistanceMeters>5551.8749935287</DistanceMeters>
          </Trackpoint>
          <Trackpoint>
            <Time>2021-08-01T11:08:14.000Z</Time>
            <Position>
              <LatitudeDegrees>-15.45577741228044033050537109375</LatitudeDegrees>
              <LongitudeDegrees>37.02948323450982570648193359375</LongitudeDegrees>
            </Position>
            <AltitudeMeters>740.4000244140625</AltitudeMeters>
            <DistanceMeters>5562.0986491782</DistanceMeters>
          </Trackpoint>
          <Trackpoint>
            <Time>2021-08-01T11:08:16.000Z</Time>
            <Position>
              <LatitudeDegrees>-15.45576282776892185211181640625</LatitudeDegrees>
              <LongitudeDegrees>37.02950184233486652374267578125</LongitudeDegrees>
            </Position>
            <AltitudeMeters>740.5999755859375</AltitudeMeters>
            <DistanceMeters>5564.6696443079</DistanceMeters>
          </Trackpoint>
          <Trackpoint>
            <Time>2021-08-01T11:08:28.000Z</Time>
            <Position>
              <LatitudeDegrees>-15.45567615889012813568115234375</LatitudeDegrees>
              <LongitudeDegrees>37.0296289958059787750244140625</LongitudeDegrees>
            </Position>
            <AltitudeMeters>740.79998779296875</AltitudeMeters>
            <DistanceMeters>5581.3765190271</DistanceMeters>
          </Trackpoint>
          <Trackpoint>
            <Time>2021-08-01T11:08:35.000Z</Time>
            <Position>
              <LatitudeDegrees>-15.455643050372600555419921875</LatitudeDegrees>
              <LongitudeDegrees>37.02969177626073360443115234375</LongitudeDegrees>
            </Position>
            <AltitudeMeters>741.5999755859375</AltitudeMeters>
            <DistanceMeters>5589.0537131076</DistanceMeters>
          </Trackpoint>
          <Trackpoint>
            <Time>2021-08-01T11:08:36.000Z</Time>
            <Position>
              <LatitudeDegrees>-15.45563810504972934722900390625</LatitudeDegrees>
              <LongitudeDegrees>37.02969881705939769744873046875</LongitudeDegrees>
            </Position>
            <AltitudeMeters>741.5999755859375</AltitudeMeters>
            <DistanceMeters>5589.9896177048</DistanceMeters>
          </Trackpoint>
          <Trackpoint>
            <Time>2021-08-01T11:08:46.000Z</Time>
            <Position>
              <LatitudeDegrees>-15.455600135028362274169921875</LatitudeDegrees>
              <LongitudeDegrees>37.02982689253985881805419921875</LongitudeDegrees>
            </Position>
            <AltitudeMeters>742.20001220703125</AltitudeMeters>
            <DistanceMeters>5604.3644303737</DistanceMeters>
          </Trackpoint>
          <Trackpoint>
            <Time>2021-08-01T11:08:51.000Z</Time>
            <Position>
              <LatitudeDegrees>-15.4555996321141719818115234375</LatitudeDegrees>
              <LongitudeDegrees>37.029894702136516571044921875</LongitudeDegrees>
            </Position>
            <AltitudeMeters>742.20001220703125</AltitudeMeters>
            <DistanceMeters>5611.6394065275</DistanceMeters>
          </Trackpoint>
          <Trackpoint>
            <Time>2021-08-01T11:08:54.000Z</Time>
            <Position>
              <LatitudeDegrees>-15.4556036554276943206787109375</LatitudeDegrees>
              <LongitudeDegrees>37.0299299061298370361328125</LongitudeDegrees>
            </Position>
            <AltitudeMeters>742</AltitudeMeters>
            <DistanceMeters>5615.4416627507</DistanceMeters>
          </Trackpoint>
          <Trackpoint>
            <Time>2021-08-01T11:09:05.000Z</Time>
            <Position>
              <LatitudeDegrees>-15.45562117360532283782958984375</LatitudeDegrees>
              <LongitudeDegrees>37.03007499687373638153076171875</LongitudeDegrees>
            </Position>
            <AltitudeMeters>742.4000244140625</AltitudeMeters>
            <DistanceMeters>5631.1282679633</DistanceMeters>
          </Trackpoint>
          <Trackpoint>
            <Time>2021-08-01T11:09:09.000Z</Time>
            <Position>
              <LatitudeDegrees>-15.4556284658610820770263671875</LatitudeDegrees>
              <LongitudeDegrees>37.0301225222647190093994140625</LongitudeDegrees>
            </Position>
            <AltitudeMeters>742.5999755859375</AltitudeMeters>
            <DistanceMeters>5636.2912889455</DistanceMeters>
          </Trackpoint>
          <Trackpoint>
            <Time>2021-08-01T11:09:13.000Z</Time>
            <Position>
              <LatitudeDegrees>-15.4556304775178432464599609375</LatitudeDegrees>
              <LongitudeDegrees>37.03017440624535083770751953125</LongitudeDegrees>
            </Position>
            <AltitudeMeters>742.79998779296875</AltitudeMeters>
            <DistanceMeters>5641.8623187191</DistanceMeters>
          </Trackpoint>
          <Trackpoint>
            <Time>2021-08-01T11:09:17.000Z</Time>
            <Position>
              <LatitudeDegrees>-15.4556375183165073394775390625</LatitudeDegrees>
              <LongitudeDegrees>37.0302174054086208343505859375</LongitudeDegrees>
            </Position>
            <AltitudeMeters>743.20001220703125</AltitudeMeters>
            <DistanceMeters>5646.5408767555</DistanceMeters>
          </Trackpoint>
          <Trackpoint>
            <Time>2021-08-01T11:09:20.000Z</Time>
            <Position>
              <LatitudeDegrees>-15.45564414002001285552978515625</LatitudeDegrees>
              <LongitudeDegrees>37.0302519388496875762939453125</LongitudeDegrees>
            </Position>
            <AltitudeMeters>743.4000244140625</AltitudeMeters>
            <DistanceMeters>5650.3181139444</DistanceMeters>
          </Trackpoint>
          <Trackpoint>
            <Time>2021-08-01T11:09:23.000Z</Time>
            <Position>
              <LatitudeDegrees>-15.4556475766003131866455078125</LatitudeDegrees>
              <LongitudeDegrees>37.030297033488750457763671875</LongitudeDegrees>
            </Position>
            <AltitudeMeters>743.79998779296875</AltitudeMeters>
            <DistanceMeters>5655.1709934366</DistanceMeters>
          </Trackpoint>
          <Trackpoint>
            <Time>2021-08-01T11:09:26.000Z</Time>
            <Position>
              <LatitudeDegrees>-15.45564179308712482452392578125</LatitudeDegrees>
              <LongitudeDegrees>37.03034103848040103912353515625</LongitudeDegrees>
            </Position>
            <AltitudeMeters>744</AltitudeMeters>
            <DistanceMeters>5659.9365618452</DistanceMeters>
          </Trackpoint>
          <Trackpoint>
            <Time>2021-08-01T11:09:29.000Z</Time>
            <Position>
              <LatitudeDegrees>-15.45563257299363613128662109375</LatitudeDegrees>
              <LongitudeDegrees>37.03037741594016551971435546875</LongitudeDegrees>
            </Position>
            <AltitudeMeters>744.4000244140625</AltitudeMeters>
            <DistanceMeters>5663.970443072</DistanceMeters>
          </Trackpoint>
          <Trackpoint>
            <Time>2021-08-01T11:09:36.000Z</Time>
            <Position>
              <LatitudeDegrees>-15.45559954829514026641845703125</LatitudeDegrees>
              <LongitudeDegrees>37.03046425245702266693115234375</LongitudeDegrees>
            </Position>
            <AltitudeMeters>744.5999755859375</AltitudeMeters>
            <DistanceMeters>5673.9848341662</DistanceMeters>
          </Trackpoint>
          <Trackpoint>
            <Time>2021-08-01T11:09:37.000Z</Time>
            <Position>
              <LatitudeDegrees>-15.4555951058864593505859375</LatitudeDegrees>
              <LongitudeDegrees>37.03047581948339939117431640625</LongitudeDegrees>
            </Position>
            <AltitudeMeters>744.79998779296875</AltitudeMeters>
            <DistanceMeters>5675.3219785622</DistanceMeters>
          </Trackpoint>
          <Trackpoint>
            <Time>2021-08-01T11:09:40.000Z</Time>
            <Position>
              <LatitudeDegrees>-15.45558613725006580352783203125</LatitudeDegrees>
              <LongitudeDegrees>37.03051471151411533355712890625</LongitudeDegrees>
            </Position>
            <AltitudeMeters>745</AltitudeMeters>
            <DistanceMeters>5679.6118848307</DistanceMeters>
          </Trackpoint>
          <Trackpoint>
            <Time>2021-08-01T11:09:45.000Z</Time>
            <Position>
              <LatitudeDegrees>-15.45557725243270397186279296875</LatitudeDegrees>
              <LongitudeDegrees>37.0305838622152805328369140625</LongitudeDegrees>
            </Position>
            <AltitudeMeters>744.79998779296875</AltitudeMeters>
            <DistanceMeters>5687.0955025458</DistanceMeters>
          </Trackpoint>
          <Trackpoint>
            <Time>2021-08-01T11:09:50.000Z</Time>
            <Position>
              <LatitudeDegrees>-15.4555694572627544403076171875</LatitudeDegrees>
              <LongitudeDegrees>37.03064245171844959259033203125</LongitudeDegrees>
            </Position>
            <AltitudeMeters>744.5999755859375</AltitudeMeters>
            <DistanceMeters>5693.4402705311</DistanceMeters>
          </Trackpoint>
          <Trackpoint>
            <Time>2021-08-01T11:09:57.000Z</Time>
            <Position>
              <LatitudeDegrees>-15.455539785325527191162109375</LatitudeDegrees>
              <LongitudeDegrees>37.030723504722118377685546875</LongitudeDegrees>
            </Position>
            <AltitudeMeters>744.5999755859375</AltitudeMeters>
            <DistanceMeters>5702.7412453366</DistanceMeters>
          </Trackpoint>
          <Trackpoint>
            <Time>2021-08-01T11:10:02.000Z</Time>
            <Position>
              <LatitudeDegrees>-15.455527044832706451416015625</LatitudeDegrees>
              <LongitudeDegrees>37.0307786576449871063232421875</LongitudeDegrees>
            </Position>
            <AltitudeMeters>744</AltitudeMeters>
            <DistanceMeters>5708.8251818373</DistanceMeters>
          </Trackpoint>
          <Trackpoint>
            <Time>2021-08-01T11:10:05.000Z</Time>
            <Position>
              <LatitudeDegrees>-15.45551321469247341156005859375</LatitudeDegrees>
              <LongitudeDegrees>37.03081863932311534881591796875</LongitudeDegrees>
            </Position>
            <AltitudeMeters>743.79998779296875</AltitudeMeters>
            <DistanceMeters>5713.3815121309</DistanceMeters>
          </Trackpoint>
          <Trackpoint>
            <Time>2021-08-01T11:10:13.000Z</Time>
            <Position>
              <LatitudeDegrees>-15.45548069290816783905029296875</LatitudeDegrees>
              <LongitudeDegrees>37.0309124328196048736572265625</LongitudeDegrees>
            </Position>
            <AltitudeMeters>743.79998779296875</AltitudeMeters>
            <DistanceMeters>5724.075290139</DistanceMeters>
          </Trackpoint>
          <Trackpoint>
            <Time>2021-08-01T11:10:22.000Z</Time>
            <Position>
              <LatitudeDegrees>-15.455452613532543182373046875</LatitudeDegrees>
              <LongitudeDegrees>37.0310341380536556243896484375</LongitudeDegrees>
            </Position>
            <AltitudeMeters>743.79998779296875</AltitudeMeters>
            <DistanceMeters>5737.500651431</DistanceMeters>
          </Trackpoint>
          <Trackpoint>
            <Time>2021-08-01T11:10:24.000Z</Time>
            <Position>
              <LatitudeDegrees>-15.45544750057160854339599609375</LatitudeDegrees>
              <LongitudeDegrees>37.031055428087711334228515625</LongitudeDegrees>
            </Position>
            <AltitudeMeters>744</AltitudeMeters>
            <DistanceMeters>5739.8553206088</DistanceMeters>
          </Trackpoint>
          <Trackpoint>
            <Time>2021-08-01T11:10:31.000Z</Time>
            <Position>
              <LatitudeDegrees>-15.45545496046543121337890625</LatitudeDegrees>
              <LongitudeDegrees>37.031155340373516082763671875</LongitudeDegrees>
            </Position>
            <AltitudeMeters>743.5999755859375</AltitudeMeters>
            <DistanceMeters>5750.6055261105</DistanceMeters>
          </Trackpoint>
          <Trackpoint>
            <Time>2021-08-01T11:10:33.000Z</Time>
            <Position>
              <LatitudeDegrees>-15.4554571397602558135986328125</LatitudeDegrees>
              <LongitudeDegrees>37.03117872588336467742919921875</LongitudeDegrees>
            </Position>
            <AltitudeMeters>743.5999755859375</AltitudeMeters>
            <DistanceMeters>5753.1268697635</DistanceMeters>
          </Trackpoint>
          <Trackpoint>
            <Time>2021-08-01T11:10:39.000Z</Time>
            <Position>
              <LatitudeDegrees>-15.45547532849013805389404296875</LatitudeDegrees>
              <LongitudeDegrees>37.03126003034412860870361328125</LongitudeDegrees>
            </Position>
            <AltitudeMeters>743.4000244140625</AltitudeMeters>
            <DistanceMeters>5762.0810893691</DistanceMeters>
          </Trackpoint>
          <Trackpoint>
            <Time>2021-08-01T11:10:42.000Z</Time>
            <Position>
              <LatitudeDegrees>-15.455498211085796356201171875</LatitudeDegrees>
              <LongitudeDegrees>37.03130512498319149017333984375</LongitudeDegrees>
            </Position>
            <AltitudeMeters>743.4000244140625</AltitudeMeters>
            <DistanceMeters>5767.5482232645</DistanceMeters>
          </Trackpoint>
          <Trackpoint>
            <Time>2021-08-01T11:10:51.000Z</Time>
            <Position>
              <LatitudeDegrees>-15.45552763156592845916748046875</LatitudeDegrees>
              <LongitudeDegrees>37.03140771947801113128662109375</LongitudeDegrees>
            </Position>
            <AltitudeMeters>742.79998779296875</AltitudeMeters>
            <DistanceMeters>5779.0311312687</DistanceMeters>
          </Trackpoint>
          <Trackpoint>
            <Time>2021-08-01T11:11:00.000Z</Time>
            <Position>
              <LatitudeDegrees>-15.4554839618504047393798828125</LatitudeDegrees>
              <LongitudeDegrees>37.03150369226932525634765625</LongitudeDegrees>
            </Position>
            <AltitudeMeters>742.5999755859375</AltitudeMeters>
            <DistanceMeters>5790.4165055425</DistanceMeters>
          </Trackpoint>
          <Trackpoint>
            <Time>2021-08-01T11:11:06.000Z</Time>
            <Position>
              <LatitudeDegrees>-15.45541799627244472503662109375</LatitudeDegrees>
              <LongitudeDegrees>37.0315427519381046295166015625</LongitudeDegrees>
            </Position>
            <AltitudeMeters>742.5999755859375</AltitudeMeters>
            <DistanceMeters>5798.8696111789</DistanceMeters>
          </Trackpoint>
          <Trackpoint>
            <Time>2021-08-01T11:11:08.000Z</Time>
            <Position>
              <LatitudeDegrees>-15.455395616590976715087890625</LatitudeDegrees>
              <LongitudeDegrees>37.0315561629831790924072265625</LongitudeDegrees>
            </Position>
            <AltitudeMeters>742.5999755859375</AltitudeMeters>
            <DistanceMeters>5801.7456414331</DistanceMeters>
          </Trackpoint>
          <Trackpoint>
            <Time>2021-08-01T11:11:16.000Z</Time>
            <Position>
              <LatitudeDegrees>-15.45529243536293506622314453125</LatitudeDegrees>
              <LongitudeDegrees>37.031596563756465911865234375</LongitudeDegrees>
            </Position>
            <AltitudeMeters>743</AltitudeMeters>
            <DistanceMeters>5814.0202829947</DistanceMeters>
          </Trackpoint>
          <Trackpoint>
            <Time>2021-08-01T11:11:21.000Z</Time>
            <Position>
              <LatitudeDegrees>-15.45523929409682750701904296875</LatitudeDegrees>
              <LongitudeDegrees>37.03162036836147308349609375</LongitudeDegrees>
            </Position>
            <AltitudeMeters>743.20001220703125</AltitudeMeters>
            <DistanceMeters>5820.462505541</DistanceMeters>
          </Trackpoint>
          <Trackpoint>
            <Time>2021-08-01T11:11:24.000Z</Time>
            <Position>
              <LatitudeDegrees>-15.4552016593515872955322265625</LatitudeDegrees>
              <LongitudeDegrees>37.03163973055779933929443359375</LongitudeDegrees>
            </Position>
            <AltitudeMeters>743.20001220703125</AltitudeMeters>
            <DistanceMeters>5825.1362358411</DistanceMeters>
          </Trackpoint>
          <Trackpoint>
            <Time>2021-08-01T11:11:25.000Z</Time>
            <Position>
              <LatitudeDegrees>-15.45519101433455944061279296875</LatitudeDegrees>
              <LongitudeDegrees>37.03164844773709774017333984375</LongitudeDegrees>
            </Position>
            <AltitudeMeters>743.20001220703125</AltitudeMeters>
            <DistanceMeters>5826.6447381659</DistanceMeters>
          </Trackpoint>
          <Trackpoint>
            <Time>2021-08-01T11:11:34.000Z</Time>
            <Position>
              <LatitudeDegrees>-15.455102585256099700927734375</LatitudeDegrees>
              <LongitudeDegrees>37.03171558678150177001953125</LongitudeDegrees>
            </Position>
            <AltitudeMeters>743</AltitudeMeters>
            <DistanceMeters>5838.8407792935</DistanceMeters>
          </Trackpoint>
          <Trackpoint>
            <Time>2021-08-01T11:11:40.000Z</Time>
            <Position>
              <LatitudeDegrees>-15.4550481028854846954345703125</LatitudeDegrees>
              <LongitudeDegrees>37.03175850212574005126953125</LongitudeDegrees>
            </Position>
            <AltitudeMeters>743.20001220703125</AltitudeMeters>
            <DistanceMeters>5846.4547855169</DistanceMeters>
          </Trackpoint>
          <Trackpoint>
            <Time>2021-08-01T11:11:42.000Z</Time>
            <Position>
              <LatitudeDegrees>-15.45502589084208011627197265625</LatitudeDegrees>
              <LongitudeDegrees>37.0317693985998630523681640625</LongitudeDegrees>
            </Position>
            <AltitudeMeters>743</AltitudeMeters>
            <DistanceMeters>5849.1891781909</DistanceMeters>
          </Trackpoint>
          <Trackpoint>
            <Time>2021-08-01T11:11:50.000Z</Time>
            <Position>
              <LatitudeDegrees>-15.45493855141103267669677734375</LatitudeDegrees>
              <LongitudeDegrees>37.0318364538252353668212890625</LongitudeDegrees>
            </Position>
            <AltitudeMeters>742.5999755859375</AltitudeMeters>
            <DistanceMeters>5861.2826110404</DistanceMeters>
          </Trackpoint>
          <Trackpoint>
            <Time>2021-08-01T11:11:56.000Z</Time>
            <Position>
              <LatitudeDegrees>-15.4548784531652927398681640625</LatitudeDegrees>
              <LongitudeDegrees>37.03189336694777011871337890625</LongitudeDegrees>
            </Position>
            <AltitudeMeters>742.4000244140625</AltitudeMeters>
            <DistanceMeters>5870.3391106037</DistanceMeters>
          </Trackpoint>
          <Trackpoint>
            <Time>2021-08-01T11:11:59.000Z</Time>
            <Position>
              <LatitudeDegrees>-15.45484517700970172882080078125</LatitudeDegrees>
              <LongitudeDegrees>37.03192102722823619842529296875</LongitudeDegrees>
            </Position>
            <AltitudeMeters>742.5999755859375</AltitudeMeters>
            <DistanceMeters>5875.0847412943</DistanceMeters>
          </Trackpoint>
          <Trackpoint>
            <Time>2021-08-01T11:12:06.000Z</Time>
            <Position>
              <LatitudeDegrees>-15.45478097163140773773193359375</LatitudeDegrees>
              <LongitudeDegrees>37.031982801854610443115234375</LongitudeDegrees>
            </Position>
            <AltitudeMeters>742.4000244140625</AltitudeMeters>
            <DistanceMeters>5884.8304246484</DistanceMeters>
          </Trackpoint>
          <Trackpoint>
            <Time>2021-08-01T11:12:08.000Z</Time>
            <Position>
              <LatitudeDegrees>-15.4547611065208911895751953125</LatitudeDegrees>
              <LongitudeDegrees>37.03200367279350757598876953125</LongitudeDegrees>
            </Position>
            <AltitudeMeters>742.4000244140625</AltitudeMeters>
            <DistanceMeters>5887.9792377478</DistanceMeters>
          </Trackpoint>
          <Trackpoint>
            <Time>2021-08-01T11:12:15.000Z</Time>
            <Position>
              <LatitudeDegrees>-15.45469723641872406005859375</LatitudeDegrees>
              <LongitudeDegrees>37.032072655856609344482421875</LongitudeDegrees>
            </Position>
            <AltitudeMeters>742.4000244140625</AltitudeMeters>
            <DistanceMeters>5898.2412429851</DistanceMeters>
          </Trackpoint>
          <Trackpoint>
            <Time>2021-08-01T11:12:22.000Z</Time>
            <Position>
              <LatitudeDegrees>-15.45462942682206630706787109375</LatitudeDegrees>
              <LongitudeDegrees>37.03212487511336803436279296875</LongitudeDegrees>
            </Position>
            <AltitudeMeters>742.4000244140625</AltitudeMeters>
            <DistanceMeters>5907.6407253074</DistanceMeters>
          </Trackpoint>
          <Trackpoint>
            <Time>2021-08-01T11:12:32.000Z</Time>
            <Position>
              <LatitudeDegrees>-15.454522557556629180908203125</LatitudeDegrees>
              <LongitudeDegrees>37.0322025753557682037353515625</LongitudeDegrees>
            </Position>
            <AltitudeMeters>742.4000244140625</AltitudeMeters>
            <DistanceMeters>5922.1655205197</DistanceMeters>
          </Trackpoint>
          <Trackpoint>
            <Time>2021-08-01T11:12:39.000Z</Time>
            <Position>
              <LatitudeDegrees>-15.45445449650287628173828125</LatitudeDegrees>
              <LongitudeDegrees>37.03227139078080654144287109375</LongitudeDegrees>
            </Position>
            <AltitudeMeters>742.4000244140625</AltitudeMeters>
            <DistanceMeters>5932.7429799094</DistanceMeters>
          </Trackpoint>
          <Trackpoint>
            <Time>2021-08-01T11:12:49.000Z</Time>
            <Position>
              <LatitudeDegrees>-15.45440579764544963836669921875</LatitudeDegrees>
              <LongitudeDegrees>37.032416649162769317626953125</LongitudeDegrees>
            </Position>
            <AltitudeMeters>742.4000244140625</AltitudeMeters>
            <DistanceMeters>5949.2420915364</DistanceMeters>
          </Trackpoint>
          <Trackpoint>
            <Time>2021-08-01T11:12:50.000Z</Time>
            <Position>
              <LatitudeDegrees>-15.45439959503710269927978515625</LatitudeDegrees>
              <LongitudeDegrees>37.03243517316877841949462890625</LongitudeDegrees>
            </Position>
            <AltitudeMeters>742.4000244140625</AltitudeMeters>
            <DistanceMeters>5951.3477428689</DistanceMeters>
          </Trackpoint>
          <Trackpoint>
            <Time>2021-08-01T11:12:55.000Z</Time>
            <Position>
              <LatitudeDegrees>-15.45437931083142757415771484375</LatitudeDegrees>
              <LongitudeDegrees>37.0325003005564212799072265625</LongitudeDegrees>
            </Position>
            <AltitudeMeters>742.5999755859375</AltitudeMeters>
            <DistanceMeters>5958.6906705171</DistanceMeters>
          </Trackpoint>
          <Trackpoint>
            <Time>2021-08-01T11:12:58.000Z</Time>
            <Position>
              <LatitudeDegrees>-15.454354248940944671630859375</LatitudeDegrees>
              <LongitudeDegrees>37.0325485803186893463134765625</LongitudeDegrees>
            </Position>
            <AltitudeMeters>742.79998779296875</AltitudeMeters>
            <DistanceMeters>5964.5731234862</DistanceMeters>
          </Trackpoint>
          <Trackpoint>
            <Time>2021-08-01T11:13:05.000Z</Time>
            <Position>
              <LatitudeDegrees>-15.45435533858835697174072265625</LatitudeDegrees>
              <LongitudeDegrees>37.0326357521116733551025390625</LongitudeDegrees>
            </Position>
            <AltitudeMeters>743.5999755859375</AltitudeMeters>
            <DistanceMeters>5973.9258958299</DistanceMeters>
          </Trackpoint>
          <Trackpoint>
            <Time>2021-08-01T11:13:11.000Z</Time>
            <Position>
              <LatitudeDegrees>-15.454349555075168609619140625</LatitudeDegrees>
              <LongitudeDegrees>37.03270289115607738494873046875</LongitudeDegrees>
            </Position>
            <AltitudeMeters>744.4000244140625</AltitudeMeters>
            <DistanceMeters>5981.1572976778</DistanceMeters>
          </Trackpoint>
          <Trackpoint>
            <Time>2021-08-01T11:13:13.000Z</Time>
            <Position>
              <LatitudeDegrees>-15.4543460346758365631103515625</LatitudeDegrees>
              <LongitudeDegrees>37.03272568993270397186279296875</LongitudeDegrees>
            </Position>
            <AltitudeMeters>744.79998779296875</AltitudeMeters>
            <DistanceMeters>5983.6316444258</DistanceMeters>
          </Trackpoint>
          <Trackpoint>
            <Time>2021-08-01T11:13:19.000Z</Time>
            <Position>
              <LatitudeDegrees>-15.45434175990521907806396484375</LatitudeDegrees>
              <LongitudeDegrees>37.03280188143253326416015625</LongitudeDegrees>
            </Position>
            <AltitudeMeters>745.4000244140625</AltitudeMeters>
            <DistanceMeters>5991.8188452565</DistanceMeters>
          </Trackpoint>
          <Trackpoint>
            <Time>2021-08-01T11:13:23.000Z</Time>
            <Position>
              <LatitudeDegrees>-15.45434175990521907806396484375</LatitudeDegrees>
              <LongitudeDegrees>37.0328530110418796539306640625</LongitudeDegrees>
            </Position>
            <AltitudeMeters>745.79998779296875</AltitudeMeters>
            <DistanceMeters>5997.3024712976</DistanceMeters>
          </Trackpoint>
          <Trackpoint>
            <Time>2021-08-01T11:13:24.000Z</Time>
            <Position>
              <LatitudeDegrees>-15.45434209518134593963623046875</LatitudeDegrees>
              <LongitudeDegrees>37.032865248620510101318359375</LongitudeDegrees>
            </Position>
            <AltitudeMeters>746.20001220703125</AltitudeMeters>
            <DistanceMeters>5998.6123241612</DistanceMeters>
          </Trackpoint>
          <Trackpoint>
            <Time>2021-08-01T11:13:29.000Z</Time>
            <Position>
              <LatitudeDegrees>-15.4543356411159038543701171875</LatitudeDegrees>
              <LongitudeDegrees>37.03292584978044033050537109375</LongitudeDegrees>
            </Position>
            <AltitudeMeters>746.5999755859375</AltitudeMeters>
            <DistanceMeters>6005.1533104929</DistanceMeters>
          </Trackpoint>
          <Trackpoint>
            <Time>2021-08-01T11:13:31.000Z</Time>
            <Position>
              <LatitudeDegrees>-15.45433756895363330841064453125</LatitudeDegrees>
              <LongitudeDegrees>37.03295015729963779449462890625</LongitudeDegrees>
            </Position>
            <AltitudeMeters>747</AltitudeMeters>
            <DistanceMeters>6007.7695669682</DistanceMeters>
          </Trackpoint>
          <Trackpoint>
            <Time>2021-08-01T11:13:36.000Z</Time>
            <Position>
              <LatitudeDegrees>-15.45434142462909221649169921875</LatitudeDegrees>
              <LongitudeDegrees>37.03300799243152141571044921875</LongitudeDegrees>
            </Position>
            <AltitudeMeters>747.5999755859375</AltitudeMeters>
            <DistanceMeters>6013.9878293729</DistanceMeters>
          </Trackpoint>
          <Trackpoint>
            <Time>2021-08-01T11:13:37.000Z</Time>
            <Position>
              <LatitudeDegrees>-15.45434259809553623199462890625</LatitudeDegrees>
              <LongitudeDegrees>37.0330198109149932861328125</LongitudeDegrees>
            </Position>
            <AltitudeMeters>748</AltitudeMeters>
            <DistanceMeters>6015.259200162</DistanceMeters>
          </Trackpoint>
          <Trackpoint>
            <Time>2021-08-01T11:13:42.000Z</Time>
            <Position>
              <LatitudeDegrees>-15.45435483567416667938232421875</LatitudeDegrees>
              <LongitudeDegrees>37.03307814896106719970703125</LongitudeDegrees>
            </Position>
            <AltitudeMeters>748.5999755859375</AltitudeMeters>
            <DistanceMeters>6021.6641698953</DistanceMeters>
          </Trackpoint>
          <Trackpoint>
            <Time>2021-08-01T11:13:45.000Z</Time>
            <Position>
              <LatitudeDegrees>-15.45436237938702106475830078125</LatitudeDegrees>
              <LongitudeDegrees>37.0331141911447048187255859375</LongitudeDegrees>
            </Position>
            <AltitudeMeters>748.5999755859375</AltitudeMeters>
            <DistanceMeters>6025.6212082517</DistanceMeters>
          </Trackpoint>
          <Trackpoint>
            <Time>2021-08-01T11:13:48.000Z</Time>
            <Position>
              <LatitudeDegrees>-15.45436598360538482666015625</LatitudeDegrees>
              <LongitudeDegrees>37.0331527478992938995361328125</LongitudeDegrees>
            </Position>
            <AltitudeMeters>749</AltitudeMeters>
            <DistanceMeters>6029.7763864863</DistanceMeters>
          </Trackpoint>
          <Trackpoint>
            <Time>2021-08-01T11:13:52.000Z</Time>
            <Position>
              <LatitudeDegrees>-15.45437880791723728179931640625</LatitudeDegrees>
              <LongitudeDegrees>37.03320262022316455841064453125</LongitudeDegrees>
            </Position>
            <AltitudeMeters>749.5999755859375</AltitudeMeters>
            <DistanceMeters>6035.3140881398</DistanceMeters>
          </Trackpoint>
          <Trackpoint>
            <Time>2021-08-01T11:13:58.000Z</Time>
            <Position>
              <LatitudeDegrees>-15.45441920869052410125732421875</LatitudeDegrees>
              <LongitudeDegrees>37.03326464630663394927978515625</LongitudeDegrees>
            </Position>
            <AltitudeMeters>750</AltitudeMeters>
            <DistanceMeters>6043.3453916479</DistanceMeters>
          </Trackpoint>
          <Trackpoint>
            <Time>2021-08-01T11:13:59.000Z</Time>
            <Position>
              <LatitudeDegrees>-15.45442541129887104034423828125</LatitudeDegrees>
              <LongitudeDegrees>37.03327336348593235015869140625</LongitudeDegrees>
            </Position>
            <AltitudeMeters>750.20001220703125</AltitudeMeters>
            <DistanceMeters>6044.5092264586</DistanceMeters>
          </Trackpoint>
          <Trackpoint>
            <Time>2021-08-01T11:14:09.000Z</Time>
            <Position>
              <LatitudeDegrees>-15.45447771437466144561767578125</LatitudeDegrees>
              <LongitudeDegrees>37.0333726890385150909423828125</LongitudeDegrees>
            </Position>
            <AltitudeMeters>751</AltitudeMeters>
            <DistanceMeters>6056.6507254578</DistanceMeters>
          </Trackpoint>
          <Trackpoint>
            <Time>2021-08-01T11:14:10.000Z</Time>
            <Position>
              <LatitudeDegrees>-15.454484336078166961669921875</LatitudeDegrees>
              <LongitudeDegrees>37.03338249586522579193115234375</LongitudeDegrees>
            </Position>
            <AltitudeMeters>751.4000244140625</AltitudeMeters>
            <DistanceMeters>6057.9397305259</DistanceMeters>
          </Trackpoint>
          <Trackpoint>
            <Time>2021-08-01T11:14:20.000Z</Time>
            <Position>
              <LatitudeDegrees>-15.4545425064861774444580078125</LatitudeDegrees>
              <LongitudeDegrees>37.0334803126752376556396484375</LongitudeDegrees>
            </Position>
            <AltitudeMeters>752.5999755859375</AltitudeMeters>
            <DistanceMeters>6070.2701561912</DistanceMeters>
          </Trackpoint>
          <Trackpoint>
            <Time>2021-08-01T11:14:27.000Z</Time>
            <Position>
              <LatitudeDegrees>-15.4545760340988636016845703125</LatitudeDegrees>
              <LongitudeDegrees>37.03353814780712127685546875</LongitudeDegrees>
            </Position>
            <AltitudeMeters>753.79998779296875</AltitudeMeters>
            <DistanceMeters>6077.5109174657</DistanceMeters>
          </Trackpoint>
          <Trackpoint>
            <Time>2021-08-01T11:14:34.000Z</Time>
            <Position>
              <LatitudeDegrees>-15.45460461638867855072021484375</LatitudeDegrees>
              <LongitudeDegrees>37.0336057059466838836669921875</LongitudeDegrees>
            </Position>
            <AltitudeMeters>755</AltitudeMeters>
            <DistanceMeters>6085.4255646651</DistanceMeters>
          </Trackpoint>
          <Trackpoint>
            <Time>2021-08-01T11:14:36.000Z</Time>
            <Position>
              <LatitudeDegrees>-15.45461542904376983642578125</LatitudeDegrees>
              <LongitudeDegrees>37.03362473286688327789306640625</LongitudeDegrees>
            </Position>
            <AltitudeMeters>755</AltitudeMeters>
            <DistanceMeters>6087.7993312293</DistanceMeters>
          </Trackpoint>
          <Trackpoint>
            <Time>2021-08-01T11:14:42.000Z</Time>
            <Position>
              <LatitudeDegrees>-15.45463286340236663818359375</LatitudeDegrees>
              <LongitudeDegrees>37.0336901955306529998779296875</LongitudeDegrees>
            </Position>
            <AltitudeMeters>756.20001220703125</AltitudeMeters>
            <DistanceMeters>6095.0860897329</DistanceMeters>
          </Trackpoint>
          <Trackpoint>
            <Time>2021-08-01T11:14:47.000Z</Time>
            <Position>
              <LatitudeDegrees>-15.45464761555194854736328125</LatitudeDegrees>
              <LongitudeDegrees>37.03373537398874759674072265625</LongitudeDegrees>
            </Position>
            <AltitudeMeters>757</AltitudeMeters>
            <DistanceMeters>6100.2034349125</DistanceMeters>
          </Trackpoint>
          <Trackpoint>
            <Time>2021-08-01T11:14:49.000Z</Time>
            <Position>
              <LatitudeDegrees>-15.45464225113391876220703125</LatitudeDegrees>
              <LongitudeDegrees>37.03375272452831268310546875</LongitudeDegrees>
            </Position>
            <AltitudeMeters>757.4000244140625</AltitudeMeters>
            <DistanceMeters>6102.1601547219</DistanceMeters>
          </Trackpoint>
          <Trackpoint>
            <Time>2021-08-01T11:14:50.000Z</Time>
            <Position>
              <LatitudeDegrees>-15.45464694499969482421875</LatitudeDegrees>
              <LongitudeDegrees>37.0337636210024356842041015625</LongitudeDegrees>
            </Position>
            <AltitudeMeters>757.79998779296875</AltitudeMeters>
            <DistanceMeters>6103.4350718799</DistanceMeters>
          </Trackpoint>
          <Trackpoint>
            <Time>2021-08-01T11:14:54.000Z</Time>
            <Position>
              <LatitudeDegrees>-15.45464627444744110107421875</LatitudeDegrees>
              <LongitudeDegrees>37.0337954722344875335693359375</LongitudeDegrees>
            </Position>
            <AltitudeMeters>758.4000244140625</AltitudeMeters>
            <DistanceMeters>6106.8520718568</DistanceMeters>
          </Trackpoint>
          <Trackpoint>
            <Time>2021-08-01T11:14:56.000Z</Time>
            <Position>
              <LatitudeDegrees>-15.4546383954584598541259765625</LatitudeDegrees>
              <LongitudeDegrees>37.03380460850894451141357421875</LongitudeDegrees>
            </Position>
            <AltitudeMeters>758.5999755859375</AltitudeMeters>
            <DistanceMeters>6108.1653671781</DistanceMeters>
          </Trackpoint>
          <Trackpoint>
            <Time>2021-08-01T11:15:00.000Z</Time>
            <Position>
              <LatitudeDegrees>-15.45461651869118213653564453125</LatitudeDegrees>
              <LongitudeDegrees>37.033829502761363983154296875</LongitudeDegrees>
            </Position>
            <AltitudeMeters>759.20001220703125</AltitudeMeters>
            <DistanceMeters>6111.7788821618</DistanceMeters>
          </Trackpoint>
          <Trackpoint>
            <Time>2021-08-01T11:15:03.000Z</Time>
            <Position>
              <LatitudeDegrees>-15.454607717692852020263671875</LatitudeDegrees>
              <LongitudeDegrees>37.03385087661445140838623046875</LongitudeDegrees>
            </Position>
            <AltitudeMeters>759.5999755859375</AltitudeMeters>
            <DistanceMeters>6114.2714095124</DistanceMeters>
          </Trackpoint>
          <Trackpoint>
            <Time>2021-08-01T11:15:06.000Z</Time>
            <Position>
              <LatitudeDegrees>-15.4545944742858409881591796875</LatitudeDegrees>
              <LongitudeDegrees>37.033875770866870880126953125</LongitudeDegrees>
            </Position>
            <AltitudeMeters>759.79998779296875</AltitudeMeters>
            <DistanceMeters>6117.3211601149</DistanceMeters>
          </Trackpoint>
          <Trackpoint>
            <Time>2021-08-01T11:15:10.000Z</Time>
            <Position>
              <LatitudeDegrees>-15.454566143453121185302734375</LatitudeDegrees>
              <LongitudeDegrees>37.033905275166034698486328125</LongitudeDegrees>
            </Position>
            <AltitudeMeters>760.79998779296875</AltitudeMeters>
            <DistanceMeters>6121.7884264984</DistanceMeters>
          </Trackpoint>
          <Trackpoint>
            <Time>2021-08-01T11:15:16.000Z</Time>
            <Position>
              <LatitudeDegrees>-15.45452834106981754302978515625</LatitudeDegrees>
              <LongitudeDegrees>37.03393704257905483245849609375</LongitudeDegrees>
            </Position>
            <AltitudeMeters>761.4000244140625</AltitudeMeters>
            <DistanceMeters>6127.2032818255</DistanceMeters>
          </Trackpoint>
          <Trackpoint>
            <Time>2021-08-01T11:15:19.000Z</Time>
            <Position>
              <LatitudeDegrees>-15.45450939796864986419677734375</LatitudeDegrees>
              <LongitudeDegrees>37.03395648859441280364990234375</LongitudeDegrees>
            </Position>
            <AltitudeMeters>761.79998779296875</AltitudeMeters>
            <DistanceMeters>6130.1704900307</DistanceMeters>
          </Trackpoint>
          <Trackpoint>
            <Time>2021-08-01T11:15:24.000Z</Time>
            <Position>
              <LatitudeDegrees>-15.45446933247148990631103515625</LatitudeDegrees>
              <LongitudeDegrees>37.03399546444416046142578125</LongitudeDegrees>
            </Position>
            <AltitudeMeters>762.5999755859375</AltitudeMeters>
            <DistanceMeters>6136.2840394417</DistanceMeters>
          </Trackpoint>
          <Trackpoint>
            <Time>2021-08-01T11:15:28.000Z</Time>
            <Position>
              <LatitudeDegrees>-15.45443764887750148773193359375</LatitudeDegrees>
              <LongitudeDegrees>37.03402438201010227203369140625</LongitudeDegrees>
            </Position>
            <AltitudeMeters>763</AltitudeMeters>
            <DistanceMeters>6140.9808976206</DistanceMeters>
          </Trackpoint>
          <Trackpoint>
            <Time>2021-08-01T11:15:34.000Z</Time>
            <Position>
              <LatitudeDegrees>-15.4544003494083881378173828125</LatitudeDegrees>
              <LongitudeDegrees>37.03406847082078456878662109375</LongitudeDegrees>
            </Position>
            <AltitudeMeters>763.5999755859375</AltitudeMeters>
            <DistanceMeters>6147.2742206922</DistanceMeters>
          </Trackpoint>
          <Trackpoint>
            <Time>2021-08-01T11:15:37.000Z</Time>
            <Position>
              <LatitudeDegrees>-15.4543854296207427978515625</LatitudeDegrees>
              <LongitudeDegrees>37.03409478999674320220947265625</LongitudeDegrees>
            </Position>
            <AltitudeMeters>764</AltitudeMeters>
            <DistanceMeters>6150.5481633824</DistanceMeters>
          </Trackpoint>
          <Trackpoint>
            <Time>2021-08-01T11:15:43.000Z</Time>
            <Position>
              <LatitudeDegrees>-15.45434326864778995513916015625</LatitudeDegrees>
              <LongitudeDegrees>37.03415011055767536163330078125</LongitudeDegrees>
            </Position>
            <AltitudeMeters>765</AltitudeMeters>
            <DistanceMeters>6158.1133880653</DistanceMeters>
          </Trackpoint>
          <Trackpoint>
            <Time>2021-08-01T11:15:45.000Z</Time>
            <Position>
              <LatitudeDegrees>-15.45432818122208118438720703125</LatitudeDegrees>
              <LongitudeDegrees>37.03416771255433559417724609375</LongitudeDegrees>
            </Position>
            <AltitudeMeters>765.20001220703125</AltitudeMeters>
            <DistanceMeters>6160.6418844806</DistanceMeters>
          </Trackpoint>
          <Trackpoint>
            <Time>2021-08-01T11:15:48.000Z</Time>
            <Position>
              <LatitudeDegrees>-15.45430873520672321319580078125</LatitudeDegrees>
              <LongitudeDegrees>37.03418782912194728851318359375</LongitudeDegrees>
            </Position>
            <AltitudeMeters>765.5999755859375</AltitudeMeters>
            <DistanceMeters>6163.6990284287</DistanceMeters>
          </Trackpoint>
          <Trackpoint>
            <Time>2021-08-01T11:15:52.000Z</Time>
            <Position>
              <LatitudeDegrees>-15.4542816616594791412353515625</LatitudeDegrees>
              <LongitudeDegrees>37.0342195965349674224853515625</LongitudeDegrees>
            </Position>
            <AltitudeMeters>766.20001220703125</AltitudeMeters>
            <DistanceMeters>6168.2484168722</DistanceMeters>
          </Trackpoint>
          <Trackpoint>
            <Time>2021-08-01T11:15:54.000Z</Time>
            <Position>
              <LatitudeDegrees>-15.45426883734762668609619140625</LatitudeDegrees>
              <LongitudeDegrees>37.0342397131025791168212890625</LongitudeDegrees>
            </Position>
            <AltitudeMeters>766.5999755859375</AltitudeMeters>
            <DistanceMeters>6170.8351690143</DistanceMeters>
          </Trackpoint>
          <Trackpoint>
            <Time>2021-08-01T11:16:03.000Z</Time>
            <Position>
              <LatitudeDegrees>-15.4541896283626556396484375</LatitudeDegrees>
              <LongitudeDegrees>37.0343030802905559539794921875</LongitudeDegrees>
            </Position>
            <AltitudeMeters>767.20001220703125</AltitudeMeters>
            <DistanceMeters>6181.967904491</DistanceMeters>
          </Trackpoint>
          <Trackpoint>
            <Time>2021-08-01T11:16:04.000Z</Time>
            <Position>
              <LatitudeDegrees>-15.454181246459484100341796875</LatitudeDegrees>
              <LongitudeDegrees>37.0343081094324588775634765625</LongitudeDegrees>
            </Position>
            <AltitudeMeters>767.4000244140625</AltitudeMeters>
            <DistanceMeters>6183.0513757355</DistanceMeters>
          </Trackpoint>
          <Trackpoint>
            <Time>2021-08-01T11:16:08.000Z</Time>
            <Position>
              <LatitudeDegrees>-15.454140007495880126953125</LatitudeDegrees>
              <LongitudeDegrees>37.0343302376568317413330078125</LongitudeDegrees>
            </Position>
            <AltitudeMeters>768.4000244140625</AltitudeMeters>
            <DistanceMeters>6188.2178935153</DistanceMeters>
          </Trackpoint>
          <Trackpoint>
            <Time>2021-08-01T11:16:14.000Z</Time>
            <Position>
              <LatitudeDegrees>-15.45406867749989032745361328125</LatitudeDegrees>
              <LongitudeDegrees>37.034347839653491973876953125</LongitudeDegrees>
            </Position>
            <AltitudeMeters>768.79998779296875</AltitudeMeters>
            <DistanceMeters>6196.3785806048</DistanceMeters>
          </Trackpoint>
          <Trackpoint>
            <Time>2021-08-01T11:16:24.000Z</Time>
            <Position>
              <LatitudeDegrees>-15.45395468361675739288330078125</LatitudeDegrees>
              <LongitudeDegrees>37.0343858934938907623291015625</LongitudeDegrees>
            </Position>
            <AltitudeMeters>768.5999755859375</AltitudeMeters>
            <DistanceMeters>6209.7074111596</DistanceMeters>
          </Trackpoint>
          <Trackpoint>
            <Time>2021-08-01T11:16:31.000Z</Time>
            <Position>
              <LatitudeDegrees>-15.45388611964881420135498046875</LatitudeDegrees>
              <LongitudeDegrees>37.03442889265716075897216796875</LongitudeDegrees>
            </Position>
            <AltitudeMeters>768.20001220703125</AltitudeMeters>
            <DistanceMeters>6218.6242392442</DistanceMeters>
          </Trackpoint>
          <Trackpoint>
            <Time>2021-08-01T11:16:33.000Z</Time>
            <Position>
              <LatitudeDegrees>-15.453860051929950714111328125</LatitudeDegrees>
              <LongitudeDegrees>37.0344472490251064300537109375</LongitudeDegrees>
            </Position>
            <AltitudeMeters>767.5999755859375</AltitudeMeters>
            <DistanceMeters>6222.1299394653</DistanceMeters>
          </Trackpoint>
          <Trackpoint>
            <Time>2021-08-01T11:16:37.000Z</Time>
            <Position>
              <LatitudeDegrees>-15.453812442719936370849609375</LatitudeDegrees>
              <LongitudeDegrees>37.0344717241823673248291015625</LongitudeDegrees>
            </Position>
            <AltitudeMeters>767.4000244140625</AltitudeMeters>
            <DistanceMeters>6228.0437779875</DistanceMeters>
          </Trackpoint>
          <Trackpoint>
            <Time>2021-08-01T11:16:39.000Z</Time>
            <Position>
              <LatitudeDegrees>-15.45378956012427806854248046875</LatitudeDegrees>
              <LongitudeDegrees>37.03448823653161525726318359375</LongitudeDegrees>
            </Position>
            <AltitudeMeters>767.20001220703125</AltitudeMeters>
            <DistanceMeters>6231.144911879</DistanceMeters>
          </Trackpoint>
          <Trackpoint>
            <Time>2021-08-01T11:16:41.000Z</Time>
            <Position>
              <LatitudeDegrees>-15.45376458205282688140869140625</LatitudeDegrees>
              <LongitudeDegrees>37.0345012284815311431884765625</LongitudeDegrees>
            </Position>
            <AltitudeMeters>767</AltitudeMeters>
            <DistanceMeters>6234.2562205985</DistanceMeters>
          </Trackpoint>
          <Trackpoint>
            <Time>2021-08-01T11:16:47.000Z</Time>
            <Position>
              <LatitudeDegrees>-15.45368981547653675079345703125</LatitudeDegrees>
              <LongitudeDegrees>37.0345411263406276702880859375</LongitudeDegrees>
            </Position>
            <AltitudeMeters>766.79998779296875</AltitudeMeters>
            <DistanceMeters>6243.6143016707</DistanceMeters>
          </Trackpoint>
          <Trackpoint>
            <Time>2021-08-01T11:16:50.000Z</Time>
            <Position>
              <LatitudeDegrees>-15.4536516778171062469482421875</LatitudeDegrees>
              <LongitudeDegrees>37.0345649309456348419189453125</LongitudeDegrees>
            </Position>
            <AltitudeMeters>766.5999755859375</AltitudeMeters>
            <DistanceMeters>6248.5684663606</DistanceMeters>
          </Trackpoint>
          <Trackpoint>
            <Time>2021-08-01T11:16:51.000Z</Time>
            <Position>
              <LatitudeDegrees>-15.45364153571426868438720703125</LatitudeDegrees>
              <LongitudeDegrees>37.0345739834010601043701171875</LongitudeDegrees>
            </Position>
            <AltitudeMeters>766.5999755859375</AltitudeMeters>
            <DistanceMeters>6250.0558697116</DistanceMeters>
          </Trackpoint>
          <Trackpoint>
            <Time>2021-08-01T11:16:59.000Z</Time>
            <Position>
              <LatitudeDegrees>-15.453562997281551361083984375</LatitudeDegrees>
              <LongitudeDegrees>37.03463056124746799468994140625</LongitudeDegrees>
            </Position>
            <AltitudeMeters>766.20001220703125</AltitudeMeters>
            <DistanceMeters>6260.6975889658</DistanceMeters>
          </Trackpoint>
          <Trackpoint>
            <Time>2021-08-01T11:17:02.000Z</Time>
            <Position>
              <LatitudeDegrees>-15.4535282962024211883544921875</LatitudeDegrees>
              <LongitudeDegrees>37.03465973027050495147705078125</LongitudeDegrees>
            </Position>
            <AltitudeMeters>766</AltitudeMeters>
            <DistanceMeters>6265.6681311043</DistanceMeters>
          </Trackpoint>
          <Trackpoint>
            <Time>2021-08-01T11:17:10.000Z</Time>
            <Position>
              <LatitudeDegrees>-15.4534542001783847808837890625</LatitudeDegrees>
              <LongitudeDegrees>37.0347168110311031341552734375</LongitudeDegrees>
            </Position>
            <AltitudeMeters>765.79998779296875</AltitudeMeters>
            <DistanceMeters>6275.9402508099</DistanceMeters>
          </Trackpoint>
          <Trackpoint>
            <Time>2021-08-01T11:17:19.000Z</Time>
            <Position>
              <LatitudeDegrees>-15.4533522762358188629150390625</LatitudeDegrees>
              <LongitudeDegrees>37.03477741219103336334228515625</LongitudeDegrees>
            </Position>
            <AltitudeMeters>765.79998779296875</AltitudeMeters>
            <DistanceMeters>6289.0153189641</DistanceMeters>
          </Trackpoint>
          <Trackpoint>
            <Time>2021-08-01T11:17:26.000Z</Time>
            <Position>
              <LatitudeDegrees>-15.45327424071729183197021484375</LatitudeDegrees>
              <LongitudeDegrees>37.0348234288394451141357421875</LongitudeDegrees>
            </Position>
            <AltitudeMeters>765.5999755859375</AltitudeMeters>
            <DistanceMeters>6299.0057861672</DistanceMeters>
          </Trackpoint>
          <Trackpoint>
            <Time>2021-08-01T11:17:33.000Z</Time>
            <Position>
              <LatitudeDegrees>-15.45320919714868068695068359375</LatitudeDegrees>
              <LongitudeDegrees>37.03487883321940898895263671875</LongitudeDegrees>
            </Position>
            <AltitudeMeters>765.20001220703125</AltitudeMeters>
            <DistanceMeters>6308.3725477596</DistanceMeters>
          </Trackpoint>
          <Trackpoint>
            <Time>2021-08-01T11:17:35.000Z</Time>
            <Position>
              <LatitudeDegrees>-15.45319260098040103912353515625</LatitudeDegrees>
              <LongitudeDegrees>37.03490263782441616058349609375</LongitudeDegrees>
            </Position>
            <AltitudeMeters>765</AltitudeMeters>
            <DistanceMeters>6311.5242273259</DistanceMeters>
          </Trackpoint>
          <Trackpoint>
            <Time>2021-08-01T11:17:41.000Z</Time>
            <Position>
              <LatitudeDegrees>-15.45314683578908443450927734375</LatitudeDegrees>
              <LongitudeDegrees>37.0349572040140628814697265625</LongitudeDegrees>
            </Position>
            <AltitudeMeters>765</AltitudeMeters>
            <DistanceMeters>6319.2844837523</DistanceMeters>
          </Trackpoint>
          <Trackpoint>
            <Time>2021-08-01T11:17:46.000Z</Time>
            <Position>
              <LatitudeDegrees>-15.45310224406421184539794921875</LatitudeDegrees>
              <LongitudeDegrees>37.0350054837763309478759765625</LongitudeDegrees>
            </Position>
            <AltitudeMeters>764.4000244140625</AltitudeMeters>
            <DistanceMeters>6326.4582139992</DistanceMeters>
          </Trackpoint>
          <Trackpoint>
            <Time>2021-08-01T11:17:50.000Z</Time>
            <Position>
              <LatitudeDegrees>-15.45306519605219364166259765625</LatitudeDegrees>
              <LongitudeDegrees>37.03504311852157115936279296875</LongitudeDegrees>
            </Position>
            <AltitudeMeters>764.20001220703125</AltitudeMeters>
            <DistanceMeters>6332.2290823849</DistanceMeters>
          </Trackpoint>
          <Trackpoint>
            <Time>2021-08-01T11:17:56.000Z</Time>
            <Position>
              <LatitudeDegrees>-15.45301775448024272918701171875</LatitudeDegrees>
              <LongitudeDegrees>37.0351017080247402191162109375</LongitudeDegrees>
            </Position>
            <AltitudeMeters>763.79998779296875</AltitudeMeters>
            <DistanceMeters>6340.4377625726</DistanceMeters>
          </Trackpoint>
          <Trackpoint>
            <Time>2021-08-01T11:18:04.000Z</Time>
            <Position>
              <LatitudeDegrees>-15.452947430312633514404296875</LatitudeDegrees>
              <LongitudeDegrees>37.03517991118133068084716796875</LongitudeDegrees>
            </Position>
            <AltitudeMeters>763.5999755859375</AltitudeMeters>
            <DistanceMeters>6351.9116234955</DistanceMeters>
          </Trackpoint>
          <Trackpoint>
            <Time>2021-08-01T11:18:08.000Z</Time>
            <Position>
              <LatitudeDegrees>-15.45290459878742694854736328125</LatitudeDegrees>
              <LongitudeDegrees>37.035230956971645355224609375</LongitudeDegrees>
            </Position>
            <AltitudeMeters>763.4000244140625</AltitudeMeters>
            <DistanceMeters>6359.1729330438</DistanceMeters>
          </Trackpoint>
          <Trackpoint>
            <Time>2021-08-01T11:18:15.000Z</Time>
            <Position>
              <LatitudeDegrees>-15.45284441672265529632568359375</LatitudeDegrees>
              <LongitudeDegrees>37.03530698083341121673583984375</LongitudeDegrees>
            </Position>
            <AltitudeMeters>763.20001220703125</AltitudeMeters>
            <DistanceMeters>6369.7268893132</DistanceMeters>
          </Trackpoint>
          <Trackpoint>
            <Time>2021-08-01T11:18:16.000Z</Time>
            <Position>
              <LatitudeDegrees>-15.4528369568288326263427734375</LatitudeDegrees>
              <LongitudeDegrees>37.03531670384109020233154296875</LongitudeDegrees>
            </Position>
            <AltitudeMeters>763</AltitudeMeters>
            <DistanceMeters>6371.0640337092</DistanceMeters>
          </Trackpoint>
          <Trackpoint>
            <Time>2021-08-01T11:18:26.000Z</Time>
            <Position>
              <LatitudeDegrees>-15.45278490521013736724853515625</LatitudeDegrees>
              <LongitudeDegrees>37.03543455339968204498291015625</LongitudeDegrees>
            </Position>
            <AltitudeMeters>762.5999755859375</AltitudeMeters>
            <DistanceMeters>6384.9707639935</DistanceMeters>
          </Trackpoint>
          <Trackpoint>
            <Time>2021-08-01T11:18:30.000Z</Time>
            <Position>
              <LatitudeDegrees>-15.45277015306055545806884765625</LatitudeDegrees>
              <LongitudeDegrees>37.03548568300902843475341796875</LongitudeDegrees>
            </Position>
            <AltitudeMeters>761.79998779296875</AltitudeMeters>
            <DistanceMeters>6390.6952855818</DistanceMeters>
          </Trackpoint>
          <Trackpoint>
            <Time>2021-08-01T11:18:37.000Z</Time>
            <Position>
              <LatitudeDegrees>-15.4527642019093036651611328125</LatitudeDegrees>
              <LongitudeDegrees>37.03557235188782215118408203125</LongitudeDegrees>
            </Position>
            <AltitudeMeters>761.20001220703125</AltitudeMeters>
            <DistanceMeters>6400.016142059</DistanceMeters>
          </Trackpoint>
          <Trackpoint>
            <Time>2021-08-01T11:18:39.000Z</Time>
            <Position>
              <LatitudeDegrees>-15.452763028442859649658203125</LatitudeDegrees>
              <LongitudeDegrees>37.0355962403118610382080078125</LongitudeDegrees>
            </Position>
            <AltitudeMeters>760.5999755859375</AltitudeMeters>
            <DistanceMeters>6402.581863347</DistanceMeters>
          </Trackpoint>
          <Trackpoint>
            <Time>2021-08-01T11:18:43.000Z</Time>
            <Position>
              <LatitudeDegrees>-15.45276663266122341156005859375</LatitudeDegrees>
              <LongitudeDegrees>37.03565030358731746673583984375</LongitudeDegrees>
            </Position>
            <AltitudeMeters>759.4000244140625</AltitudeMeters>
            <DistanceMeters>6408.3948269675</DistanceMeters>
          </Trackpoint>
          <Trackpoint>
            <Time>2021-08-01T11:18:47.000Z</Time>
            <Position>
              <LatitudeDegrees>-15.45276948250830173492431640625</LatitudeDegrees>
              <LongitudeDegrees>37.03571199439465999603271484375</LongitudeDegrees>
            </Position>
            <AltitudeMeters>758.79998779296875</AltitudeMeters>
            <DistanceMeters>6415.0201723618</DistanceMeters>
          </Trackpoint>
          <Trackpoint>
            <Time>2021-08-01T11:18:51.000Z</Time>
            <Position>
              <LatitudeDegrees>-15.45277887023985385894775390625</LatitudeDegrees>
              <LongitudeDegrees>37.0357645489275455474853515625</LongitudeDegrees>
            </Position>
            <AltitudeMeters>758.4000244140625</AltitudeMeters>
            <DistanceMeters>6420.7541507653</DistanceMeters>
          </Trackpoint>
          <Trackpoint>
            <Time>2021-08-01T11:18:54.000Z</Time>
            <Position>
              <LatitudeDegrees>-15.45278389938175678253173828125</LatitudeDegrees>
              <LongitudeDegrees>37.0358047820627689361572265625</LongitudeDegrees>
            </Position>
            <AltitudeMeters>757.5999755859375</AltitudeMeters>
            <DistanceMeters>6425.1057102907</DistanceMeters>
          </Trackpoint>
          <Trackpoint>
            <Time>2021-08-01T11:18:57.000Z</Time>
            <Position>
              <LatitudeDegrees>-15.45278079807758331298828125</LatitudeDegrees>
              <LongitudeDegrees>37.03584157861769199371337890625</LongitudeDegrees>
            </Position>
            <AltitudeMeters>757.20001220703125</AltitudeMeters>
            <DistanceMeters>6429.0661702114</DistanceMeters>
          </Trackpoint>
          <Trackpoint>
            <Time>2021-08-01T11:19:00.000Z</Time>
            <Position>
              <LatitudeDegrees>-15.45278155244886875152587890625</LatitudeDegrees>
              <LongitudeDegrees>37.03588617034256458282470703125</LongitudeDegrees>
            </Position>
            <AltitudeMeters>756</AltitudeMeters>
            <DistanceMeters>6433.85064968</DistanceMeters>
          </Trackpoint>
          <Trackpoint>
            <Time>2021-08-01T11:19:05.000Z</Time>
            <Position>
              <LatitudeDegrees>-15.45278423465788364410400390625</LatitudeDegrees>
              <LongitudeDegrees>37.03595506958663463592529296875</LongitudeDegrees>
            </Position>
            <AltitudeMeters>755.20001220703125</AltitudeMeters>
            <DistanceMeters>6441.2480994602</DistanceMeters>
          </Trackpoint>
          <Trackpoint>
            <Time>2021-08-01T11:19:09.000Z</Time>
            <Position>
              <LatitudeDegrees>-15.45278616249561309814453125</LatitudeDegrees>
              <LongitudeDegrees>37.03599714674055576324462890625</LongitudeDegrees>
            </Position>
            <AltitudeMeters>755</AltitudeMeters>
            <DistanceMeters>6445.7686152485</DistanceMeters>
          </Trackpoint>
          <Trackpoint>
            <Time>2021-08-01T11:19:15.000Z</Time>
            <Position>
              <LatitudeDegrees>-15.4527923651039600372314453125</LatitudeDegrees>
              <LongitudeDegrees>37.0360793732106685638427734375</LongitudeDegrees>
            </Position>
            <AltitudeMeters>754</AltitudeMeters>
            <DistanceMeters>6454.6173322654</DistanceMeters>
          </Trackpoint>
          <Trackpoint>
            <Time>2021-08-01T11:19:19.000Z</Time>
            <Position>
              <LatitudeDegrees>-15.4528027586638927459716796875</LatitudeDegrees>
              <LongitudeDegrees>37.0361269824206829071044921875</LongitudeDegrees>
            </Position>
            <AltitudeMeters>752.79998779296875</AltitudeMeters>
            <DistanceMeters>6459.8541578459</DistanceMeters>
          </Trackpoint>
          <Trackpoint>
            <Time>2021-08-01T11:19:23.000Z</Time>
            <Position>
              <LatitudeDegrees>-15.45280736871063709259033203125</LatitudeDegrees>
              <LongitudeDegrees>37.0361789502203464508056640625</LongitudeDegrees>
            </Position>
            <AltitudeMeters>752.5999755859375</AltitudeMeters>
            <DistanceMeters>6465.4526750904</DistanceMeters>
          </Trackpoint>
          <Trackpoint>
            <Time>2021-08-01T11:19:24.000Z</Time>
            <Position>
              <LatitudeDegrees>-15.45280854217708110809326171875</LatitudeDegrees>
              <LongitudeDegrees>37.03619261272251605987548828125</LongitudeDegrees>
            </Position>
            <AltitudeMeters>752.5999755859375</AltitudeMeters>
            <DistanceMeters>6466.9248226192</DistanceMeters>
          </Trackpoint>
          <Trackpoint>
            <Time>2021-08-01T11:19:28.000Z</Time>
            <Position>
              <LatitudeDegrees>-15.45281357131898403167724609375</LatitudeDegrees>
              <LongitudeDegrees>37.03624986112117767333984375</LongitudeDegrees>
            </Position>
            <AltitudeMeters>752</AltitudeMeters>
            <DistanceMeters>6473.0920490608</DistanceMeters>
          </Trackpoint>
          <Trackpoint>
            <Time>2021-08-01T11:19:33.000Z</Time>
            <Position>
              <LatitudeDegrees>-15.452822037041187286376953125</LatitudeDegrees>
              <LongitudeDegrees>37.03631280921399593353271484375</LongitudeDegrees>
            </Position>
            <AltitudeMeters>751.79998779296875</AltitudeMeters>
            <DistanceMeters>6479.9101744288</DistanceMeters>
          </Trackpoint>
          <Trackpoint>
            <Time>2021-08-01T11:19:36.000Z</Time>
            <Position>
              <LatitudeDegrees>-15.452827401459217071533203125</LatitudeDegrees>
              <LongitudeDegrees>37.03634650446474552154541015625</LongitudeDegrees>
            </Position>
            <AltitudeMeters>752</AltitudeMeters>
            <DistanceMeters>6483.573327933</DistanceMeters>
          </Trackpoint>
          <Trackpoint>
            <Time>2021-08-01T11:19:41.000Z</Time>
            <Position>
              <LatitudeDegrees>-15.45283754356205463409423828125</LatitudeDegrees>
              <LongitudeDegrees>37.03641003929078578948974609375</LongitudeDegrees>
            </Position>
            <AltitudeMeters>751.5999755859375</AltitudeMeters>
            <DistanceMeters>6490.4815805345</DistanceMeters>
          </Trackpoint>
          <Trackpoint>
            <Time>2021-08-01T11:19:45.000Z</Time>
            <Position>
              <LatitudeDegrees>-15.45284760184586048126220703125</LatitudeDegrees>
              <LongitudeDegrees>37.036461420357227325439453125</LongitudeDegrees>
            </Position>
            <AltitudeMeters>751.5999755859375</AltitudeMeters>
            <DistanceMeters>6496.1058456228</DistanceMeters>
          </Trackpoint>
          <Trackpoint>
            <Time>2021-08-01T11:19:55.000Z</Time>
            <Position>
              <LatitudeDegrees>-15.452889092266559600830078125</LatitudeDegrees>
              <LongitudeDegrees>37.03659310005605220794677734375</LongitudeDegrees>
            </Position>
            <AltitudeMeters>750.79998779296875</AltitudeMeters>
            <DistanceMeters>6510.968035902</DistanceMeters>
          </Trackpoint>
          <Trackpoint>
            <Time>2021-08-01T11:19:56.000Z</Time>
            <Position>
              <LatitudeDegrees>-15.45289169065654277801513671875</LatitudeDegrees>
              <LongitudeDegrees>37.03660315833985805511474609375</LongitudeDegrees>
            </Position>
            <AltitudeMeters>750.79998779296875</AltitudeMeters>
            <DistanceMeters>6512.0843470366</DistanceMeters>
          </Trackpoint>
          <Trackpoint>
            <Time>2021-08-01T11:19:57.000Z</Time>
            <Position>
              <LatitudeDegrees>-15.45289705507457256317138671875</LatitudeDegrees>
              <LongitudeDegrees>37.0366121269762516021728515625</LongitudeDegrees>
            </Position>
            <AltitudeMeters>750.79998779296875</AltitudeMeters>
            <DistanceMeters>6513.2127267505</DistanceMeters>
          </Trackpoint>
          <Trackpoint>
            <Time>2021-08-01T11:20:00.000Z</Time>
            <Position>
              <LatitudeDegrees>-15.4529073648154735565185546875</LatitudeDegrees>
              <LongitudeDegrees>37.03664238564670085906982421875</LongitudeDegrees>
            </Position>
            <AltitudeMeters>750.5999755859375</AltitudeMeters>
            <DistanceMeters>6516.6560522319</DistanceMeters>
          </Trackpoint>
          <Trackpoint>
            <Time>2021-08-01T11:20:13.000Z</Time>
            <Position>
              <LatitudeDegrees>-15.4529496096074581146240234375</LatitudeDegrees>
              <LongitudeDegrees>37.03679963015019893646240234375</LongitudeDegrees>
            </Position>
            <AltitudeMeters>750</AltitudeMeters>
            <DistanceMeters>6534.1683181101</DistanceMeters>
          </Trackpoint>
          <Trackpoint>
            <Time>2021-08-01T11:20:15.000Z</Time>
            <Position>
              <LatitudeDegrees>-15.45294768176972866058349609375</LatitudeDegrees>
              <LongitudeDegrees>37.03682720661163330078125</LongitudeDegrees>
            </Position>
            <AltitudeMeters>749.79998779296875</AltitudeMeters>
            <DistanceMeters>6537.1355263153</DistanceMeters>
          </Trackpoint>
          <Trackpoint>
            <Time>2021-08-01T11:20:22.000Z</Time>
            <Position>
              <LatitudeDegrees>-15.452948100864887237548828125</LatitudeDegrees>
              <LongitudeDegrees>37.03691597096621990203857421875</LongitudeDegrees>
            </Position>
            <AltitudeMeters>749.20001220703125</AltitudeMeters>
            <DistanceMeters>6546.6581324528</DistanceMeters>
          </Trackpoint>
          <Trackpoint>
            <Time>2021-08-01T11:20:30.000Z</Time>
            <Position>
              <LatitudeDegrees>-15.452923290431499481201171875</LatitudeDegrees>
              <LongitudeDegrees>37.0370194874703884124755859375</LongitudeDegrees>
            </Position>
            <AltitudeMeters>748.79998779296875</AltitudeMeters>
            <DistanceMeters>6558.1012587089</DistanceMeters>
          </Trackpoint>
          <Trackpoint>
            <Time>2021-08-01T11:20:33.000Z</Time>
            <Position>
              <LatitudeDegrees>-15.4529063589870929718017578125</LatitudeDegrees>
              <LongitudeDegrees>37.03706257045269012451171875</LongitudeDegrees>
            </Position>
            <AltitudeMeters>748.5999755859375</AltitudeMeters>
            <DistanceMeters>6563.0917447406</DistanceMeters>
          </Trackpoint>
          <Trackpoint>
            <Time>2021-08-01T11:20:37.000Z</Time>
            <Position>
              <LatitudeDegrees>-15.4528825543820858001708984375</LatitudeDegrees>
              <LongitudeDegrees>37.037101797759532928466796875</LongitudeDegrees>
            </Position>
            <AltitudeMeters>748</AltitudeMeters>
            <DistanceMeters>6568.0650112105</DistanceMeters>
          </Trackpoint>
          <Trackpoint>
            <Time>2021-08-01T11:20:39.000Z</Time>
            <Position>
              <LatitudeDegrees>-15.4528646171092987060546875</LatitudeDegrees>
              <LongitudeDegrees>37.03711931593716144561767578125</LongitudeDegrees>
            </Position>
            <AltitudeMeters>747.5999755859375</AltitudeMeters>
            <DistanceMeters>6570.8076474747</DistanceMeters>
          </Trackpoint>
          <Trackpoint>
            <Time>2021-08-01T11:20:40.000Z</Time>
            <Position>
              <LatitudeDegrees>-15.4528560675680637359619140625</LatitudeDegrees>
              <LongitudeDegrees>37.03712585382163524627685546875</LongitudeDegrees>
            </Position>
            <AltitudeMeters>747.5999755859375</AltitudeMeters>
            <DistanceMeters>6571.9907205277</DistanceMeters>
          </Trackpoint>
          <Trackpoint>
            <Time>2021-08-01T11:20:44.000Z</Time>
            <Position>
              <LatitudeDegrees>-15.45282480306923389434814453125</LatitudeDegrees>
              <LongitudeDegrees>37.037162147462368011474609375</LongitudeDegrees>
            </Position>
            <AltitudeMeters>746.5999755859375</AltitudeMeters>
            <DistanceMeters>6577.2128686356</DistanceMeters>
          </Trackpoint>
          <Trackpoint>
            <Time>2021-08-01T11:20:49.000Z</Time>
            <Position>
              <LatitudeDegrees>-15.452782809734344482421875</LatitudeDegrees>
              <LongitudeDegrees>37.03720011748373508453369140625</LongitudeDegrees>
            </Position>
            <AltitudeMeters>746.20001220703125</AltitudeMeters>
            <DistanceMeters>6583.4136803162</DistanceMeters>
          </Trackpoint>
          <Trackpoint>
            <Time>2021-08-01T11:20:53.000Z</Time>
            <Position>
              <LatitudeDegrees>-15.45274433679878711700439453125</LatitudeDegrees>
              <LongitudeDegrees>37.03723481856286525726318359375</LongitudeDegrees>
            </Position>
            <AltitudeMeters>745.4000244140625</AltitudeMeters>
            <DistanceMeters>6589.0882950696</DistanceMeters>
          </Trackpoint>
          <Trackpoint>
            <Time>2021-08-01T11:20:58.000Z</Time>
            <Position>
              <LatitudeDegrees>-15.45269689522683620452880859375</LatitudeDegrees>
              <LongitudeDegrees>37.03728075139224529266357421875</LongitudeDegrees>
            </Position>
            <AltitudeMeters>744.5999755859375</AltitudeMeters>
            <DistanceMeters>6596.3109505104</DistanceMeters>
          </Trackpoint>
          <Trackpoint>
            <Time>2021-08-01T11:21:00.000Z</Time>
            <Position>
              <LatitudeDegrees>-15.45268549583852291107177734375</LatitudeDegrees>
              <LongitudeDegrees>37.0373001135885715484619140625</LongitudeDegrees>
            </Position>
            <AltitudeMeters>744.4000244140625</AltitudeMeters>
            <DistanceMeters>6598.7448219423</DistanceMeters>
          </Trackpoint>
          <Trackpoint>
            <Time>2021-08-01T11:21:01.000Z</Time>
            <Position>
              <LatitudeDegrees>-15.45267946086823940277099609375</LatitudeDegrees>
              <LongitudeDegrees>37.03731193207204341888427734375</LongitudeDegrees>
            </Position>
            <AltitudeMeters>744.20001220703125</AltitudeMeters>
            <DistanceMeters>6600.1796938632</DistanceMeters>
          </Trackpoint>
          <Trackpoint>
            <Time>2021-08-01T11:21:08.000Z</Time>
            <Position>
              <LatitudeDegrees>-15.4526205360889434814453125</LatitudeDegrees>
              <LongitudeDegrees>37.0373768918216228485107421875</LongitudeDegrees>
            </Position>
            <AltitudeMeters>743.4000244140625</AltitudeMeters>
            <DistanceMeters>6609.7495964382</DistanceMeters>
          </Trackpoint>
          <Trackpoint>
            <Time>2021-08-01T11:21:09.000Z</Time>
            <Position>
              <LatitudeDegrees>-15.45261022634804248809814453125</LatitudeDegrees>
              <LongitudeDegrees>37.03739122487604618072509765625</LongitudeDegrees>
            </Position>
            <AltitudeMeters>743.4000244140625</AltitudeMeters>
            <DistanceMeters>6611.6690419803</DistanceMeters>
          </Trackpoint>
          <Trackpoint>
            <Time>2021-08-01T11:21:10.000Z</Time>
            <Position>
              <LatitudeDegrees>-15.45259983278810977935791015625</LatitudeDegrees>
              <LongitudeDegrees>37.0374027080833911895751953125</LongitudeDegrees>
            </Position>
            <AltitudeMeters>743.20001220703125</AltitudeMeters>
            <DistanceMeters>6613.3609445285</DistanceMeters>
          </Trackpoint>
          <Trackpoint>
            <Time>2021-08-01T11:21:15.000Z</Time>
            <Position>
              <LatitudeDegrees>-15.4525559954345226287841796875</LatitudeDegrees>
              <LongitudeDegrees>37.0374516583979129791259765625</LongitudeDegrees>
            </Position>
            <AltitudeMeters>742.79998779296875</AltitudeMeters>
            <DistanceMeters>6620.5290080722</DistanceMeters>
          </Trackpoint>
          <Trackpoint>
            <Time>2021-08-01T11:21:17.000Z</Time>
            <Position>
              <LatitudeDegrees>-15.4525400698184967041015625</LatitudeDegrees>
              <LongitudeDegrees>37.03746833838522434234619140625</LongitudeDegrees>
            </Position>
            <AltitudeMeters>742.5999755859375</AltitudeMeters>
            <DistanceMeters>6623.0485603618</DistanceMeters>
          </Trackpoint>
          <Trackpoint>
            <Time>2021-08-01T11:21:22.000Z</Time>
            <Position>
              <LatitudeDegrees>-15.4525050334632396697998046875</LatitudeDegrees>
              <LongitudeDegrees>37.03751510940492153167724609375</LongitudeDegrees>
            </Position>
            <AltitudeMeters>742.20001220703125</AltitudeMeters>
            <DistanceMeters>6629.4032831612</DistanceMeters>
          </Trackpoint>
          <Trackpoint>
            <Time>2021-08-01T11:21:26.000Z</Time>
            <Position>
              <LatitudeDegrees>-15.4524701647460460662841796875</LatitudeDegrees>
              <LongitudeDegrees>37.03754913993179798126220703125</LongitudeDegrees>
            </Position>
            <AltitudeMeters>742</AltitudeMeters>
            <DistanceMeters>6634.730715025</DistanceMeters>
          </Trackpoint>
          <Trackpoint>
            <Time>2021-08-01T11:21:33.000Z</Time>
            <Position>
              <LatitudeDegrees>-15.4524218849837779998779296875</LatitudeDegrees>
              <LongitudeDegrees>37.0376276783645153045654296875</LongitudeDegrees>
            </Position>
            <AltitudeMeters>741.79998779296875</AltitudeMeters>
            <DistanceMeters>6644.7234416458</DistanceMeters>
          </Trackpoint>
          <Trackpoint>
            <Time>2021-08-01T11:21:36.000Z</Time>
            <Position>
              <LatitudeDegrees>-15.45240302570164203643798828125</LatitudeDegrees>
              <LongitudeDegrees>37.03765760175883769989013671875</LongitudeDegrees>
            </Position>
            <AltitudeMeters>741.79998779296875</AltitudeMeters>
            <DistanceMeters>6648.5576253204</DistanceMeters>
          </Trackpoint>
          <Trackpoint>
            <Time>2021-08-01T11:21:41.000Z</Time>
            <Position>
              <LatitudeDegrees>-15.45236849226057529449462890625</LatitudeDegrees>
              <LongitudeDegrees>37.03771459870040416717529296875</LongitudeDegrees>
            </Position>
            <AltitudeMeters>741.79998779296875</AltitudeMeters>
            <DistanceMeters>6655.7802807612</DistanceMeters>
          </Trackpoint>
          <Trackpoint>
            <Time>2021-08-01T11:21:42.000Z</Time>
            <Position>
              <LatitudeDegrees>-15.45236430130898952484130859375</LatitudeDegrees>
              <LongitudeDegrees>37.0377249084413051605224609375</LongitudeDegrees>
            </Position>
            <AltitudeMeters>741.5999755859375</AltitudeMeters>
            <DistanceMeters>6656.9822841851</DistanceMeters>
          </Trackpoint>
          <Trackpoint>
            <Time>2021-08-01T11:21:44.000Z</Time>
            <Position>
              <LatitudeDegrees>-15.45236312784254550933837890625</LatitudeDegrees>
              <LongitudeDegrees>37.03775231726467609405517578125</LongitudeDegrees>
            </Position>
            <AltitudeMeters>741.5999755859375</AltitudeMeters>
            <DistanceMeters>6659.9265792427</DistanceMeters>
          </Trackpoint>
          <Trackpoint>
            <Time>2021-08-01T11:21:45.000Z</Time>
            <Position>
              <LatitudeDegrees>-15.45236346311867237091064453125</LatitudeDegrees>
              <LongitudeDegrees>37.03776530921459197998046875</LongitudeDegrees>
            </Position>
            <AltitudeMeters>741.5999755859375</AltitudeMeters>
            <DistanceMeters>6661.3231810155</DistanceMeters>
          </Trackpoint>
          <Trackpoint>
            <Time>2021-08-01T11:21:49.000Z</Time>
            <Position>
              <LatitudeDegrees>-15.45235432684421539306640625</LatitudeDegrees>
              <LongitudeDegrees>37.0378164388239383697509765625</LongitudeDegrees>
            </Position>
            <AltitudeMeters>741.5999755859375</AltitudeMeters>
            <DistanceMeters>6666.9006906165</DistanceMeters>
          </Trackpoint>
          <Trackpoint>
            <Time>2021-08-01T11:21:57.000Z</Time>
            <Position>
              <LatitudeDegrees>-15.4523327015340328216552734375</LatitudeDegrees>
              <LongitudeDegrees>37.037924230098724365234375</LongitudeDegrees>
            </Position>
            <AltitudeMeters>741.79998779296875</AltitudeMeters>
            <DistanceMeters>6678.7119416503</DistanceMeters>
          </Trackpoint>
          <Trackpoint>
            <Time>2021-08-01T11:21:58.000Z</Time>
            <Position>
              <LatitudeDegrees>-15.4523310251533985137939453125</LatitudeDegrees>
              <LongitudeDegrees>37.037937641143798828125</LongitudeDegrees>
            </Position>
            <AltitudeMeters>741.79998779296875</AltitudeMeters>
            <DistanceMeters>6680.1593454416</DistanceMeters>
          </Trackpoint>
          <Trackpoint>
            <Time>2021-08-01T11:22:06.000Z</Time>
            <Position>
              <LatitudeDegrees>-15.45233245007693767547607421875</LatitudeDegrees>
              <LongitudeDegrees>37.038029842078685760498046875</LongitudeDegrees>
            </Position>
            <AltitudeMeters>742</AltitudeMeters>
            <DistanceMeters>6690.0512567001</DistanceMeters>
          </Trackpoint>
          <Trackpoint>
            <Time>2021-08-01T11:22:11.000Z</Time>
            <Position>
              <LatitudeDegrees>-15.45232976786792278289794921875</LatitudeDegrees>
              <LongitudeDegrees>37.038095891475677490234375</LongitudeDegrees>
            </Position>
            <AltitudeMeters>742.20001220703125</AltitudeMeters>
            <DistanceMeters>6697.1426948981</DistanceMeters>
          </Trackpoint>
          <Trackpoint>
            <Time>2021-08-01T11:22:15.000Z</Time>
            <Position>
              <LatitudeDegrees>-15.45232021249830722808837890625</LatitudeDegrees>
              <LongitudeDegrees>37.0381329394876956939697265625</LongitudeDegrees>
            </Position>
            <AltitudeMeters>742.4000244140625</AltitudeMeters>
            <DistanceMeters>6701.2563749119</DistanceMeters>
          </Trackpoint>
          <Trackpoint>
            <Time>2021-08-01T11:22:24.000Z</Time>
            <Position>
              <LatitudeDegrees>-15.45230445452034473419189453125</LatitudeDegrees>
              <LongitudeDegrees>37.03824517317116260528564453125</LongitudeDegrees>
            </Position>
            <AltitudeMeters>742.5999755859375</AltitudeMeters>
            <DistanceMeters>6713.4235057661</DistanceMeters>
          </Trackpoint>
          <Trackpoint>
            <Time>2021-08-01T11:22:29.000Z</Time>
            <Position>
              <LatitudeDegrees>-15.45229020528495311737060546875</LatitudeDegrees>
              <LongitudeDegrees>37.0383015833795070648193359375</LongitudeDegrees>
            </Position>
            <AltitudeMeters>742.79998779296875</AltitudeMeters>
            <DistanceMeters>6719.6794110809</DistanceMeters>
          </Trackpoint>
          <Trackpoint>
            <Time>2021-08-01T11:22:30.000Z</Time>
            <Position>
              <LatitudeDegrees>-15.452288277447223663330078125</LatitudeDegrees>
              <LongitudeDegrees>37.03831356950104236602783203125</LongitudeDegrees>
            </Position>
            <AltitudeMeters>743.20001220703125</AltitudeMeters>
            <DistanceMeters>6720.982351744</DistanceMeters>
          </Trackpoint>
          <Trackpoint>
            <Time>2021-08-01T11:22:34.000Z</Time>
            <Position>
              <LatitudeDegrees>-15.4522736929357051849365234375</LatitudeDegrees>
              <LongitudeDegrees>37.038358412683010101318359375</LongitudeDegrees>
            </Position>
            <AltitudeMeters>743</AltitudeMeters>
            <DistanceMeters>6726.0589488494</DistanceMeters>
          </Trackpoint>
          <Trackpoint>
            <Time>2021-08-01T11:22:43.000Z</Time>
            <Position>
              <LatitudeDegrees>-15.45226053334772586822509765625</LatitudeDegrees>
              <LongitudeDegrees>37.0384594984352588653564453125</LongitudeDegrees>
            </Position>
            <AltitudeMeters>743.4000244140625</AltitudeMeters>
            <DistanceMeters>6737.0018846403</DistanceMeters>
          </Trackpoint>
          <Trackpoint>
            <Time>2021-08-01T11:22:52.000Z</Time>
            <Position>
              <LatitudeDegrees>-15.45225684531033039093017578125</LatitudeDegrees>
              <LongitudeDegrees>37.03857273794710636138916015625</LongitudeDegrees>
            </Position>
            <AltitudeMeters>743.79998779296875</AltitudeMeters>
            <DistanceMeters>6749.1575064201</DistanceMeters>
          </Trackpoint>
          <Trackpoint>
            <Time>2021-08-01T11:23:01.000Z</Time>
            <Position>
              <LatitudeDegrees>-15.4522314481437206268310546875</LatitudeDegrees>
              <LongitudeDegrees>37.0386707223951816558837890625</LongitudeDegrees>
            </Position>
            <AltitudeMeters>744.20001220703125</AltitudeMeters>
            <DistanceMeters>6760.0425251624</DistanceMeters>
          </Trackpoint>
          <Trackpoint>
            <Time>2021-08-01T11:23:07.000Z</Time>
            <Position>
              <LatitudeDegrees>-15.45223220251500606536865234375</LatitudeDegrees>
              <LongitudeDegrees>37.03875177539885044097900390625</LongitudeDegrees>
            </Position>
            <AltitudeMeters>744.20001220703125</AltitudeMeters>
            <DistanceMeters>6768.7383782052</DistanceMeters>
          </Trackpoint>
          <Trackpoint>
            <Time>2021-08-01T11:23:12.000Z</Time>
            <Position>
              <LatitudeDegrees>-15.45220839790999889373779296875</LatitudeDegrees>
              <LongitudeDegrees>37.03880374319851398468017578125</LongitudeDegrees>
            </Position>
            <AltitudeMeters>744.4000244140625</AltitudeMeters>
            <DistanceMeters>6774.9114586837</DistanceMeters>
          </Trackpoint>
          <Trackpoint>
            <Time>2021-08-01T11:23:18.000Z</Time>
            <Position>
              <LatitudeDegrees>-15.4521959088742733001708984375</LatitudeDegrees>
              <LongitudeDegrees>37.03885923139750957489013671875</LongitudeDegrees>
            </Position>
            <AltitudeMeters>745.4000244140625</AltitudeMeters>
            <DistanceMeters>6781.0242695203</DistanceMeters>
          </Trackpoint>
          <Trackpoint>
            <Time>2021-08-01T11:23:21.000Z</Time>
            <Position>
              <LatitudeDegrees>-15.4521935619413852691650390625</LatitudeDegrees>
              <LongitudeDegrees>37.0388913340866565704345703125</LongitudeDegrees>
            </Position>
            <AltitudeMeters>745.4000244140625</AltitudeMeters>
            <DistanceMeters>6784.4780690198</DistanceMeters>
          </Trackpoint>
          <Trackpoint>
            <Time>2021-08-01T11:23:27.000Z</Time>
            <Position>
              <LatitudeDegrees>-15.45219046063721179962158203125</LatitudeDegrees>
              <LongitudeDegrees>37.03894791193306446075439453125</LongitudeDegrees>
            </Position>
            <AltitudeMeters>746.20001220703125</AltitudeMeters>
            <DistanceMeters>6790.5568084293</DistanceMeters>
          </Trackpoint>
          <Trackpoint>
            <Time>2021-08-01T11:23:28.000Z</Time>
            <Position>
              <LatitudeDegrees>-15.45219004154205322265625</LatitudeDegrees>
              <LongitudeDegrees>37.03895813785493373870849609375</LongitudeDegrees>
            </Position>
            <AltitudeMeters>746.4000244140625</AltitudeMeters>
            <DistanceMeters>6791.6568221763</DistanceMeters>
          </Trackpoint>
          <Trackpoint>
            <Time>2021-08-01T11:23:29.000Z</Time>
            <Position>
              <LatitudeDegrees>-15.45218761079013347625732421875</LatitudeDegrees>
              <LongitudeDegrees>37.0389694534242153167724609375</LongitudeDegrees>
            </Position>
            <AltitudeMeters>746.4000244140625</AltitudeMeters>
            <DistanceMeters>6792.9030858516</DistanceMeters>
          </Trackpoint>
          <Trackpoint>
            <Time>2021-08-01T11:23:37.000Z</Time>
            <Position>
              <LatitudeDegrees>-15.45218207873404026031494140625</LatitudeDegrees>
              <LongitudeDegrees>37.0390469022095203399658203125</LongitudeDegrees>
            </Position>
            <AltitudeMeters>747.5999755859375</AltitudeMeters>
            <DistanceMeters>6801.2346041781</DistanceMeters>
          </Trackpoint>
          <Trackpoint>
            <Time>2021-08-01T11:23:40.000Z</Time>
            <Position>
              <LatitudeDegrees>-15.45217570848762989044189453125</LatitudeDegrees>
              <LongitudeDegrees>37.03908286057412624359130859375</LongitudeDegrees>
            </Position>
            <AltitudeMeters>747.79998779296875</AltitudeMeters>
            <DistanceMeters>6805.1572627485</DistanceMeters>
          </Trackpoint>
          <Trackpoint>
            <Time>2021-08-01T11:23:44.000Z</Time>
            <Position>
              <LatitudeDegrees>-15.45218442566692829132080078125</LatitudeDegrees>
              <LongitudeDegrees>37.0391233451664447784423828125</LongitudeDegrees>
            </Position>
            <AltitudeMeters>748.5999755859375</AltitudeMeters>
            <DistanceMeters>6809.6083286566</DistanceMeters>
          </Trackpoint>
          <Trackpoint>
            <Time>2021-08-01T11:23:50.000Z</Time>
            <Position>
              <LatitudeDegrees>-15.45217721723020076751708984375</LatitudeDegrees>
              <LongitudeDegrees>37.0391880534589290618896484375</LongitudeDegrees>
            </Position>
            <AltitudeMeters>749.4000244140625</AltitudeMeters>
            <DistanceMeters>6816.5965082056</DistanceMeters>
          </Trackpoint>
          <Trackpoint>
            <Time>2021-08-01T11:23:52.000Z</Time>
            <Position>
              <LatitudeDegrees>-15.4521751217544078826904296875</LatitudeDegrees>
              <LongitudeDegrees>37.03921236097812652587890625</LongitudeDegrees>
            </Position>
            <AltitudeMeters>749.4000244140625</AltitudeMeters>
            <DistanceMeters>6819.2144898749</DistanceMeters>
          </Trackpoint>
          <Trackpoint>
            <Time>2021-08-01T11:23:53.000Z</Time>
            <Position>
              <LatitudeDegrees>-15.452175624668598175048828125</LatitudeDegrees>
              <LongitudeDegrees>37.03922250308096408843994140625</LongitudeDegrees>
            </Position>
            <AltitudeMeters>749.5999755859375</AltitudeMeters>
            <DistanceMeters>6820.3021203334</DistanceMeters>
          </Trackpoint>
          <Trackpoint>
            <Time>2021-08-01T11:23:56.000Z</Time>
            <Position>
              <LatitudeDegrees>-15.4521737806499004364013671875</LatitudeDegrees>
              <LongitudeDegrees>37.0392494089901447296142578125</LongitudeDegrees>
            </Position>
            <AltitudeMeters>750.20001220703125</AltitudeMeters>
            <DistanceMeters>6823.1969279159</DistanceMeters>
          </Trackpoint>
          <Trackpoint>
            <Time>2021-08-01T11:23:59.000Z</Time>
            <Position>
              <LatitudeDegrees>-15.45216866768896579742431640625</LatitudeDegrees>
              <LongitudeDegrees>37.0392774045467376708984375</LongitudeDegrees>
            </Position>
            <AltitudeMeters>750.5999755859375</AltitudeMeters>
            <DistanceMeters>6826.254071864</DistanceMeters>
          </Trackpoint>
          <Trackpoint>
            <Time>2021-08-01T11:24:00.000Z</Time>
            <Position>
              <LatitudeDegrees>-15.45216866768896579742431640625</LatitudeDegrees>
              <LongitudeDegrees>37.03928771428763866424560546875</LongitudeDegrees>
            </Position>
            <AltitudeMeters>750.79998779296875</AltitudeMeters>
            <DistanceMeters>6827.3622642645</DistanceMeters>
          </Trackpoint>
          <Trackpoint>
            <Time>2021-08-01T11:24:04.000Z</Time>
            <Position>
              <LatitudeDegrees>-15.45216414146125316619873046875</LatitudeDegrees>
              <LongitudeDegrees>37.03933079726994037628173828125</LongitudeDegrees>
            </Position>
            <AltitudeMeters>751.20001220703125</AltitudeMeters>
            <DistanceMeters>6832.0108095133</DistanceMeters>
          </Trackpoint>
          <Trackpoint>
            <Time>2021-08-01T11:24:07.000Z</Time>
            <Position>
              <LatitudeDegrees>-15.45215693302452564239501953125</LatitudeDegrees>
              <LongitudeDegrees>37.03936063684523105621337890625</LongitudeDegrees>
            </Position>
            <AltitudeMeters>751.79998779296875</AltitudeMeters>
            <DistanceMeters>6835.3108507542</DistanceMeters>
          </Trackpoint>
          <Trackpoint>
            <Time>2021-08-01T11:24:09.000Z</Time>
            <Position>
              <LatitudeDegrees>-15.45215307734906673431396484375</LatitudeDegrees>
              <LongitudeDegrees>37.0393791608512401580810546875</LongitudeDegrees>
            </Position>
            <AltitudeMeters>752</AltitudeMeters>
            <DistanceMeters>6837.3467301926</DistanceMeters>
          </Trackpoint>
          <Trackpoint>
            <Time>2021-08-01T11:24:15.000Z</Time>
            <Position>
              <LatitudeDegrees>-15.45214109122753143310546875</LatitudeDegrees>
              <LongitudeDegrees>37.03944428823888301849365234375</LongitudeDegrees>
            </Position>
            <AltitudeMeters>753</AltitudeMeters>
            <DistanceMeters>6844.4597828646</DistanceMeters>
          </Trackpoint>
          <Trackpoint>
            <Time>2021-08-01T11:24:17.000Z</Time>
            <Position>
              <LatitudeDegrees>-15.4521362297236919403076171875</LatitudeDegrees>
              <LongitudeDegrees>37.03946658410131931304931640625</LongitudeDegrees>
            </Position>
            <AltitudeMeters>753.4000244140625</AltitudeMeters>
            <DistanceMeters>6846.9121349828</DistanceMeters>
          </Trackpoint>
          <Trackpoint>
            <Time>2021-08-01T11:24:24.000Z</Time>
            <Position>
              <LatitudeDegrees>-15.45211988501250743865966796875</LatitudeDegrees>
              <LongitudeDegrees>37.0395322144031524658203125</LongitudeDegrees>
            </Position>
            <AltitudeMeters>754.20001220703125</AltitudeMeters>
            <DistanceMeters>6854.1846282095</DistanceMeters>
          </Trackpoint>
          <Trackpoint>
            <Time>2021-08-01T11:24:29.000Z</Time>
            <Position>
              <LatitudeDegrees>-15.45210085809230804443359375</LatitudeDegrees>
              <LongitudeDegrees>37.0395877026021480560302734375</LongitudeDegrees>
            </Position>
            <AltitudeMeters>754.79998779296875</AltitudeMeters>
            <DistanceMeters>6860.5030115438</DistanceMeters>
          </Trackpoint>
          <Trackpoint>
            <Time>2021-08-01T11:24:31.000Z</Time>
            <Position>
              <LatitudeDegrees>-15.45209440402686595916748046875</LatitudeDegrees>
              <LongitudeDegrees>37.0396121777594089508056640625</LongitudeDegrees>
            </Position>
            <AltitudeMeters>755.4000244140625</AltitudeMeters>
            <DistanceMeters>6863.224162529</DistanceMeters>
          </Trackpoint>
          <Trackpoint>
            <Time>2021-08-01T11:24:39.000Z</Time>
            <Position>
              <LatitudeDegrees>-15.4520685039460659027099609375</LatitudeDegrees>
              <LongitudeDegrees>37.03969390131533145904541015625</LongitudeDegrees>
            </Position>
            <AltitudeMeters>756</AltitudeMeters>
            <DistanceMeters>6872.4530130001</DistanceMeters>
          </Trackpoint>
          <Trackpoint>
            <Time>2021-08-01T11:24:43.000Z</Time>
            <Position>
              <LatitudeDegrees>-15.45204964466392993927001953125</LatitudeDegrees>
              <LongitudeDegrees>37.03973849304020404815673828125</LongitudeDegrees>
            </Position>
            <AltitudeMeters>756.20001220703125</AltitudeMeters>
            <DistanceMeters>6877.67689001</DistanceMeters>
          </Trackpoint>
          <Trackpoint>
            <Time>2021-08-01T11:24:45.000Z</Time>
            <Position>
              <LatitudeDegrees>-15.45204176567494869232177734375</LatitudeDegrees>
              <LongitudeDegrees>37.039761207997798919677734375</LongitudeDegrees>
            </Position>
            <AltitudeMeters>756.4000244140625</AltitudeMeters>
            <DistanceMeters>6880.2671306933</DistanceMeters>
          </Trackpoint>
          <Trackpoint>
            <Time>2021-08-01T11:24:47.000Z</Time>
            <Position>
              <LatitudeDegrees>-15.452034473419189453125</LatitudeDegrees>
              <LongitudeDegrees>37.03977956436574459075927734375</LongitudeDegrees>
            </Position>
            <AltitudeMeters>756.79998779296875</AltitudeMeters>
            <DistanceMeters>6882.3962381061</DistanceMeters>
          </Trackpoint>
          <Trackpoint>
            <Time>2021-08-01T11:24:49.000Z</Time>
            <Position>
              <LatitudeDegrees>-15.4520373232662677764892578125</LatitudeDegrees>
              <LongitudeDegrees>37.0398019440472126007080078125</LongitudeDegrees>
            </Position>
            <AltitudeMeters>757</AltitudeMeters>
            <DistanceMeters>6884.8170891159</DistanceMeters>
          </Trackpoint>
          <Trackpoint>
            <Time>2021-08-01T11:24:54.000Z</Time>
            <Position>
              <LatitudeDegrees>-15.45202215202152729034423828125</LatitudeDegrees>
              <LongitudeDegrees>37.03985332511365413665771484375</LongitudeDegrees>
            </Position>
            <AltitudeMeters>757.5999755859375</AltitudeMeters>
            <DistanceMeters>6890.5824782086</DistanceMeters>
          </Trackpoint>
          <Trackpoint>
            <Time>2021-08-01T11:25:00.000Z</Time>
            <Position>
              <LatitudeDegrees>-15.4519955813884735107421875</LatitudeDegrees>
              <LongitudeDegrees>37.03990973532199859619140625</LongitudeDegrees>
            </Position>
            <AltitudeMeters>758.20001220703125</AltitudeMeters>
            <DistanceMeters>6897.3179888838</DistanceMeters>
          </Trackpoint>
          <Trackpoint>
            <Time>2021-08-01T11:25:02.000Z</Time>
            <Position>
              <LatitudeDegrees>-15.45199398882687091827392578125</LatitudeDegrees>
              <LongitudeDegrees>37.03992985188961029052734375</LongitudeDegrees>
            </Position>
            <AltitudeMeters>758.5999755859375</AltitudeMeters>
            <DistanceMeters>6899.4849313728</DistanceMeters>
          </Trackpoint>
          <Trackpoint>
            <Time>2021-08-01T11:25:07.000Z</Time>
            <Position>
              <LatitudeDegrees>-15.45197722502052783966064453125</LatitudeDegrees>
              <LongitudeDegrees>37.03997536562383174896240234375</LongitudeDegrees>
            </Position>
            <AltitudeMeters>759.79998779296875</AltitudeMeters>
            <DistanceMeters>6904.7114006632</DistanceMeters>
          </Trackpoint>
          <Trackpoint>
            <Time>2021-08-01T11:25:10.000Z</Time>
            <Position>
              <LatitudeDegrees>-15.45196264050900936126708984375</LatitudeDegrees>
              <LongitudeDegrees>37.03999548219144344329833984375</LongitudeDegrees>
            </Position>
            <AltitudeMeters>760.20001220703125</AltitudeMeters>
            <DistanceMeters>6907.4125674049</DistanceMeters>
          </Trackpoint>
          <Trackpoint>
            <Time>2021-08-01T11:25:14.000Z</Time>
            <Position>
              <LatitudeDegrees>-15.4519407637417316436767578125</LatitudeDegrees>
              <LongitudeDegrees>37.04001844860613346099853515625</LongitudeDegrees>
            </Position>
            <AltitudeMeters>760.79998779296875</AltitudeMeters>
            <DistanceMeters>6910.8781123361</DistanceMeters>
          </Trackpoint>
          <Trackpoint>
            <Time>2021-08-01T11:25:21.000Z</Time>
            <Position>
              <LatitudeDegrees>-15.45190908014774322509765625</LatitudeDegrees>
              <LongitudeDegrees>37.04007469117641448974609375</LongitudeDegrees>
            </Position>
            <AltitudeMeters>761.5999755859375</AltitudeMeters>
            <DistanceMeters>6917.8675839586</DistanceMeters>
          </Trackpoint>
          <Trackpoint>
            <Time>2021-08-01T11:25:23.000Z</Time>
            <Position>
              <LatitudeDegrees>-15.4519015364348888397216796875</LatitudeDegrees>
              <LongitudeDegrees>37.0400946401059627532958984375</LongitudeDegrees>
            </Position>
            <AltitudeMeters>762</AltitudeMeters>
            <DistanceMeters>6920.1659735513</DistanceMeters>
          </Trackpoint>
          <Trackpoint>
            <Time>2021-08-01T11:25:33.000Z</Time>
            <Position>
              <LatitudeDegrees>-15.4518418572843074798583984375</LatitudeDegrees>
              <LongitudeDegrees>37.04019228927791118621826171875</LongitudeDegrees>
            </Position>
            <AltitudeMeters>762.4000244140625</AltitudeMeters>
            <DistanceMeters>6932.5697811301</DistanceMeters>
          </Trackpoint>
          <Trackpoint>
            <Time>2021-08-01T11:25:42.000Z</Time>
            <Position>
              <LatitudeDegrees>-15.45177765190601348876953125</LatitudeDegrees>
              <LongitudeDegrees>37.0402699895203113555908203125</LongitudeDegrees>
            </Position>
            <AltitudeMeters>763</AltitudeMeters>
            <DistanceMeters>6943.5493767751</DistanceMeters>
          </Trackpoint>
          <Trackpoint>
            <Time>2021-08-01T11:25:48.000Z</Time>
            <Position>
              <LatitudeDegrees>-15.4517426155507564544677734375</LatitudeDegrees>
              <LongitudeDegrees>37.04031935892999172210693359375</LongitudeDegrees>
            </Position>
            <AltitudeMeters>763</AltitudeMeters>
            <DistanceMeters>6950.1268456076</DistanceMeters>
          </Trackpoint>
          <Trackpoint>
            <Time>2021-08-01T11:25:52.000Z</Time>
            <Position>
              <LatitudeDegrees>-15.45171956531703472137451171875</LatitudeDegrees>
              <LongitudeDegrees>37.04035229980945587158203125</LongitudeDegrees>
            </Position>
            <AltitudeMeters>763.20001220703125</AltitudeMeters>
            <DistanceMeters>6954.4929069188</DistanceMeters>
          </Trackpoint>
          <Trackpoint>
            <Time>2021-08-01T11:25:55.000Z</Time>
            <Position>
              <LatitudeDegrees>-15.45169710181653499603271484375</LatitudeDegrees>
              <LongitudeDegrees>37.040371410548686981201171875</LongitudeDegrees>
            </Position>
            <AltitudeMeters>763.4000244140625</AltitudeMeters>
            <DistanceMeters>6957.725212357</DistanceMeters>
          </Trackpoint>
          <Trackpoint>
            <Time>2021-08-01T11:26:00.000Z</Time>
            <Position>
              <LatitudeDegrees>-15.4516594670712947845458984375</LatitudeDegrees>
              <LongitudeDegrees>37.040417008101940155029296875</LongitudeDegrees>
            </Position>
            <AltitudeMeters>763.5999755859375</AltitudeMeters>
            <DistanceMeters>6964.164630889</DistanceMeters>
          </Trackpoint>
          <Trackpoint>
            <Time>2021-08-01T11:26:01.000Z</Time>
            <Position>
              <LatitudeDegrees>-15.4516520909965038299560546875</LatitudeDegrees>
              <LongitudeDegrees>37.04042547382414340972900390625</LongitudeDegrees>
            </Position>
            <AltitudeMeters>763.5999755859375</AltitudeMeters>
            <DistanceMeters>6965.3889644587</DistanceMeters>
          </Trackpoint>
          <Trackpoint>
            <Time>2021-08-01T11:26:08.000Z</Time>
            <Position>
              <LatitudeDegrees>-15.451581515371799468994140625</LatitudeDegrees>
              <LongitudeDegrees>37.0404584147036075592041015625</LongitudeDegrees>
            </Position>
            <AltitudeMeters>764</AltitudeMeters>
            <DistanceMeters>6974.0023904938</DistanceMeters>
          </Trackpoint>
          <Trackpoint>
            <Time>2021-08-01T11:26:10.000Z</Time>
            <Position>
              <LatitudeDegrees>-15.45155930332839488983154296875</LatitudeDegrees>
              <LongitudeDegrees>37.040465958416461944580078125</LongitudeDegrees>
            </Position>
            <AltitudeMeters>764</AltitudeMeters>
            <DistanceMeters>6976.6030687239</DistanceMeters>
          </Trackpoint>
          <Trackpoint>
            <Time>2021-08-01T11:26:20.000Z</Time>
            <Position>
              <LatitudeDegrees>-15.4514596424996852874755859375</LatitudeDegrees>
              <LongitudeDegrees>37.040498815476894378662109375</LongitudeDegrees>
            </Position>
            <AltitudeMeters>764.5999755859375</AltitudeMeters>
            <DistanceMeters>6988.2425806075</DistanceMeters>
          </Trackpoint>
          <Trackpoint>
            <Time>2021-08-01T11:26:22.000Z</Time>
            <Position>
              <LatitudeDegrees>-15.45143575407564640045166015625</LatitudeDegrees>
              <LongitudeDegrees>37.04049923457205295562744140625</LongitudeDegrees>
            </Position>
            <AltitudeMeters>765</AltitudeMeters>
            <DistanceMeters>6990.9016311628</DistanceMeters>
          </Trackpoint>
          <Trackpoint>
            <Time>2021-08-01T11:26:28.000Z</Time>
            <Position>
              <LatitudeDegrees>-15.4513598978519439697265625</LatitudeDegrees>
              <LongitudeDegrees>37.04050677828490734100341796875</LongitudeDegrees>
            </Position>
            <AltitudeMeters>765.4000244140625</AltitudeMeters>
            <DistanceMeters>6999.3829983258</DistanceMeters>
          </Trackpoint>
          <Trackpoint>
            <Time>2021-08-01T11:26:39.000Z</Time>
            <Position>
              <LatitudeDegrees>-15.451219417154788970947265625</LatitudeDegrees>
              <LongitudeDegrees>37.04053846187889575958251953125</LongitudeDegrees>
            </Position>
            <AltitudeMeters>766</AltitudeMeters>
            <DistanceMeters>7015.383646042</DistanceMeters>
          </Trackpoint>
          <Trackpoint>
            <Time>2021-08-01T11:26:41.000Z</Time>
            <Position>
              <LatitudeDegrees>-15.45119703747332096099853515625</LatitudeDegrees>
              <LongitudeDegrees>37.04054885543882846832275390625</LongitudeDegrees>
            </Position>
            <AltitudeMeters>766.20001220703125</AltitudeMeters>
            <DistanceMeters>7018.1114259066</DistanceMeters>
          </Trackpoint>
          <Trackpoint>
            <Time>2021-08-01T11:26:50.000Z</Time>
            <Position>
              <LatitudeDegrees>-15.451112128794193267822265625</LatitudeDegrees>
              <LongitudeDegrees>37.0406029187142848968505859375</LongitudeDegrees>
            </Position>
            <AltitudeMeters>766.4000244140625</AltitudeMeters>
            <DistanceMeters>7029.1998667736</DistanceMeters>
          </Trackpoint>
          <Trackpoint>
            <Time>2021-08-01T11:27:00.000Z</Time>
            <Position>
              <LatitudeDegrees>-15.45103342272341251373291015625</LatitudeDegrees>
              <LongitudeDegrees>37.0406800322234630584716796875</LongitudeDegrees>
            </Position>
            <AltitudeMeters>766.79998779296875</AltitudeMeters>
            <DistanceMeters>7041.2487895051</DistanceMeters>
          </Trackpoint>
          <Trackpoint>
            <Time>2021-08-01T11:27:05.000Z</Time>
            <Position>
              <LatitudeDegrees>-15.4509993083775043487548828125</LatitudeDegrees>
              <LongitudeDegrees>37.04072370193898677825927734375</LongitudeDegrees>
            </Position>
            <AltitudeMeters>767.20001220703125</AltitudeMeters>
            <DistanceMeters>7047.2790563184</DistanceMeters>
          </Trackpoint>
          <Trackpoint>
            <Time>2021-08-01T11:27:08.000Z</Time>
            <Position>
              <LatitudeDegrees>-15.45098363421857357025146484375</LatitudeDegrees>
              <LongitudeDegrees>37.04074750654399394989013671875</LongitudeDegrees>
            </Position>
            <AltitudeMeters>767.4000244140625</AltitudeMeters>
            <DistanceMeters>7050.3729019886</DistanceMeters>
          </Trackpoint>
          <Trackpoint>
            <Time>2021-08-01T11:27:13.000Z</Time>
            <Position>
              <LatitudeDegrees>-15.4509587399661540985107421875</LatitudeDegrees>
              <LongitudeDegrees>37.0408014021813869476318359375</LongitudeDegrees>
            </Position>
            <AltitudeMeters>767.79998779296875</AltitudeMeters>
            <DistanceMeters>7056.7842129288</DistanceMeters>
          </Trackpoint>
          <Trackpoint>
            <Time>2021-08-01T11:27:16.000Z</Time>
            <Position>
              <LatitudeDegrees>-15.450946502387523651123046875</LatitudeDegrees>
              <LongitudeDegrees>37.040816657245159149169921875</LongitudeDegrees>
            </Position>
            <AltitudeMeters>768.20001220703125</AltitudeMeters>
            <DistanceMeters>7058.9111986595</DistanceMeters>
          </Trackpoint>
          <Trackpoint>
            <Time>2021-08-01T11:27:17.000Z</Time>
            <Position>
              <LatitudeDegrees>-15.4509379528462886810302734375</LatitudeDegrees>
              <LongitudeDegrees>37.0408258773386478424072265625</LongitudeDegrees>
            </Position>
            <AltitudeMeters>768.4000244140625</AltitudeMeters>
            <DistanceMeters>7060.2849839327</DistanceMeters>
          </Trackpoint>
          <Trackpoint>
            <Time>2021-08-01T11:27:24.000Z</Time>
            <Position>
              <LatitudeDegrees>-15.4509148187935352325439453125</LatitudeDegrees>
              <LongitudeDegrees>37.040901146829128265380859375</LongitudeDegrees>
            </Position>
            <AltitudeMeters>769.20001220703125</AltitudeMeters>
            <DistanceMeters>7068.7604932455</DistanceMeters>
          </Trackpoint>
          <Trackpoint>
            <Time>2021-08-01T11:27:27.000Z</Time>
            <Position>
              <LatitudeDegrees>-15.45090752653777599334716796875</LatitudeDegrees>
              <LongitudeDegrees>37.0409298129379749298095703125</LongitudeDegrees>
            </Position>
            <AltitudeMeters>769.5999755859375</AltitudeMeters>
            <DistanceMeters>7071.9421147965</DistanceMeters>
          </Trackpoint>
          <Trackpoint>
            <Time>2021-08-01T11:27:30.000Z</Time>
            <Position>
              <LatitudeDegrees>-15.4508967138826847076416015625</LatitudeDegrees>
              <LongitudeDegrees>37.04095470719039440155029296875</LongitudeDegrees>
            </Position>
            <AltitudeMeters>769.79998779296875</AltitudeMeters>
            <DistanceMeters>7074.8741162928</DistanceMeters>
          </Trackpoint>
          <Trackpoint>
            <Time>2021-08-01T11:27:32.000Z</Time>
            <Position>
              <LatitudeDegrees>-15.45089361257851123809814453125</LatitudeDegrees>
              <LongitudeDegrees>37.04097666777670383453369140625</LongitudeDegrees>
            </Position>
            <AltitudeMeters>770.5999755859375</AltitudeMeters>
            <DistanceMeters>7077.2554789294</DistanceMeters>
          </Trackpoint>
          <Trackpoint>
            <Time>2021-08-01T11:27:33.000Z</Time>
            <Position>
              <LatitudeDegrees>-15.45089327730238437652587890625</LatitudeDegrees>
              <LongitudeDegrees>37.0409874804317951202392578125</LongitudeDegrees>
            </Position>
            <AltitudeMeters>770.5999755859375</AltitudeMeters>
            <DistanceMeters>7078.4154278033</DistanceMeters>
          </Trackpoint>
          <Trackpoint>
            <Time>2021-08-01T11:27:38.000Z</Time>
            <Position>
              <LatitudeDegrees>-15.45087953098118305206298828125</LatitudeDegrees>
              <LongitudeDegrees>37.0410257019102573394775390625</LongitudeDegrees>
            </Position>
            <AltitudeMeters>771.4000244140625</AltitudeMeters>
            <DistanceMeters>7082.7928496717</DistanceMeters>
          </Trackpoint>
          <Trackpoint>
            <Time>2021-08-01T11:27:39.000Z</Time>
            <Position>
              <LatitudeDegrees>-15.450875759124755859375</LatitudeDegrees>
              <LongitudeDegrees>37.0410334132611751556396484375</LongitudeDegrees>
            </Position>
            <AltitudeMeters>771.4000244140625</AltitudeMeters>
            <DistanceMeters>7083.719055514</DistanceMeters>
          </Trackpoint>
          <Trackpoint>
            <Time>2021-08-01T11:27:42.000Z</Time>
            <Position>
              <LatitudeDegrees>-15.45086813159286975860595703125</LatitudeDegrees>
              <LongitudeDegrees>37.04105193726718425750732421875</LongitudeDegrees>
            </Position>
            <AltitudeMeters>771.79998779296875</AltitudeMeters>
            <DistanceMeters>7085.8797381657</DistanceMeters>
          </Trackpoint>
          <Trackpoint>
            <Time>2021-08-01T11:27:46.000Z</Time>
            <Position>
              <LatitudeDegrees>-15.45085757039487361907958984375</LatitudeDegrees>
              <LongitudeDegrees>37.04108915291726589202880859375</LongitudeDegrees>
            </Position>
            <AltitudeMeters>772.20001220703125</AltitudeMeters>
            <DistanceMeters>7090.0414309246</DistanceMeters>
          </Trackpoint>
          <Trackpoint>
            <Time>2021-08-01T11:27:50.000Z</Time>
            <Position>
              <LatitudeDegrees>-15.45084583573043346405029296875</LatitudeDegrees>
              <LongitudeDegrees>37.0411326549947261810302734375</LongitudeDegrees>
            </Position>
            <AltitudeMeters>772.5999755859375</AltitudeMeters>
            <DistanceMeters>7094.8877933575</DistanceMeters>
          </Trackpoint>
          <Trackpoint>
            <Time>2021-08-01T11:27:51.000Z</Time>
            <Position>
              <LatitudeDegrees>-15.45084164477884769439697265625</LatitudeDegrees>
              <LongitudeDegrees>37.04115050844848155975341796875</LongitudeDegrees>
            </Position>
            <AltitudeMeters>773</AltitudeMeters>
            <DistanceMeters>7096.860599214</DistanceMeters>
          </Trackpoint>
          <Trackpoint>
            <Time>2021-08-01T11:27:54.000Z</Time>
            <Position>
              <LatitudeDegrees>-15.4508356936275959014892578125</LatitudeDegrees>
              <LongitudeDegrees>37.04120063222944736480712890625</LongitudeDegrees>
            </Position>
            <AltitudeMeters>773.4000244140625</AltitudeMeters>
            <DistanceMeters>7102.2779554366</DistanceMeters>
          </Trackpoint>
          <Trackpoint>
            <Time>2021-08-01T11:27:58.000Z</Time>
            <Position>
              <LatitudeDegrees>-15.4508182592689990997314453125</LatitudeDegrees>
              <LongitudeDegrees>37.0412530191242694854736328125</LongitudeDegrees>
            </Position>
            <AltitudeMeters>774</AltitudeMeters>
            <DistanceMeters>7108.2237732338</DistanceMeters>
          </Trackpoint>
          <Trackpoint>
            <Time>2021-08-01T11:28:04.000Z</Time>
            <Position>
              <LatitudeDegrees>-15.4508128948509693145751953125</LatitudeDegrees>
              <LongitudeDegrees>37.041336335241794586181640625</LongitudeDegrees>
            </Position>
            <AltitudeMeters>774.79998779296875</AltitudeMeters>
            <DistanceMeters>7117.1815217948</DistanceMeters>
          </Trackpoint>
          <Trackpoint>
            <Time>2021-08-01T11:28:07.000Z</Time>
            <Position>
              <LatitudeDegrees>-15.45080543495714664459228515625</LatitudeDegrees>
              <LongitudeDegrees>37.04136977903544902801513671875</LongitudeDegrees>
            </Position>
            <AltitudeMeters>775</AltitudeMeters>
            <DistanceMeters>7120.863117202</DistanceMeters>
          </Trackpoint>
          <Trackpoint>
            <Time>2021-08-01T11:28:15.000Z</Time>
            <Position>
              <LatitudeDegrees>-15.4507617652416229248046875</LatitudeDegrees>
              <LongitudeDegrees>37.0414659194648265838623046875</LongitudeDegrees>
            </Position>
            <AltitudeMeters>776</AltitudeMeters>
            <DistanceMeters>7132.2647390378</DistanceMeters>
          </Trackpoint>
          <Trackpoint>
            <Time>2021-08-01T11:28:16.000Z</Time>
            <Position>
              <LatitudeDegrees>-15.45075765810906887054443359375</LatitudeDegrees>
              <LongitudeDegrees>37.041475139558315277099609375</LongitudeDegrees>
            </Position>
            <AltitudeMeters>776.20001220703125</AltitudeMeters>
            <DistanceMeters>7133.3523694963</DistanceMeters>
          </Trackpoint>
          <Trackpoint>
            <Time>2021-08-01T11:28:24.000Z</Time>
            <Position>
              <LatitudeDegrees>-15.45071206055581569671630859375</LatitudeDegrees>
              <LongitudeDegrees>37.04155770130455493927001953125</LongitudeDegrees>
            </Position>
            <AltitudeMeters>777</AltitudeMeters>
            <DistanceMeters>7143.5601142074</DistanceMeters>
          </Trackpoint>
          <Trackpoint>
            <Time>2021-08-01T11:28:26.000Z</Time>
            <Position>
              <LatitudeDegrees>-15.45069999061524868011474609375</LatitudeDegrees>
              <LongitudeDegrees>37.04157312400639057159423828125</LongitudeDegrees>
            </Position>
            <AltitudeMeters>777.4000244140625</AltitudeMeters>
            <DistanceMeters>7145.6913411899</DistanceMeters>
          </Trackpoint>
          <Trackpoint>
            <Time>2021-08-01T11:28:36.000Z</Time>
            <Position>
              <LatitudeDegrees>-15.4506512917578220367431640625</LatitudeDegrees>
              <LongitudeDegrees>37.04167320393025875091552734375</LongitudeDegrees>
            </Position>
            <AltitudeMeters>777.79998779296875</AltitudeMeters>
            <DistanceMeters>7157.718885604</DistanceMeters>
          </Trackpoint>
          <Trackpoint>
            <Time>2021-08-01T11:28:43.000Z</Time>
            <Position>
              <LatitudeDegrees>-15.4506596736609935760498046875</LatitudeDegrees>
              <LongitudeDegrees>37.0417596213519573211669921875</LongitudeDegrees>
            </Position>
            <AltitudeMeters>777.79998779296875</AltitudeMeters>
            <DistanceMeters>7167.0363506526</DistanceMeters>
          </Trackpoint>
          <Trackpoint>
            <Time>2021-08-01T11:28:45.000Z</Time>
            <Position>
              <LatitudeDegrees>-15.45065992511808872222900390625</LatitudeDegrees>
              <LongitudeDegrees>37.0417884550988674163818359375</LongitudeDegrees>
            </Position>
            <AltitudeMeters>778</AltitudeMeters>
            <DistanceMeters>7170.1301963228</DistanceMeters>
          </Trackpoint>
          <Trackpoint>
            <Time>2021-08-01T11:28:47.000Z</Time>
            <Position>
              <LatitudeDegrees>-15.45066562481224536895751953125</LatitudeDegrees>
              <LongitudeDegrees>37.04181720502674579620361328125</LongitudeDegrees>
            </Position>
            <AltitudeMeters>778.5999755859375</AltitudeMeters>
            <DistanceMeters>7173.2790094222</DistanceMeters>
          </Trackpoint>
          <Trackpoint>
            <Time>2021-08-01T11:28:51.000Z</Time>
            <Position>
              <LatitudeDegrees>-15.45068037696182727813720703125</LatitudeDegrees>
              <LongitudeDegrees>37.041877806186676025390625</LongitudeDegrees>
            </Position>
            <AltitudeMeters>779</AltitudeMeters>
            <DistanceMeters>7179.9842872401</DistanceMeters>
          </Trackpoint>
          <Trackpoint>
            <Time>2021-08-01T11:28:54.000Z</Time>
            <Position>
              <LatitudeDegrees>-15.45068674720823764801025390625</LatitudeDegrees>
              <LongitudeDegrees>37.04192331992089748382568359375</LongitudeDegrees>
            </Position>
            <AltitudeMeters>779.20001220703125</AltitudeMeters>
            <DistanceMeters>7184.9183612254</DistanceMeters>
          </Trackpoint>
          <Trackpoint>
            <Time>2021-08-01T11:28:57.000Z</Time>
            <Position>
              <LatitudeDegrees>-15.4507069475948810577392578125</LatitudeDegrees>
              <LongitudeDegrees>37.0419487170875072479248046875</LongitudeDegrees>
            </Position>
            <AltitudeMeters>779.79998779296875</AltitudeMeters>
            <DistanceMeters>7188.4510040952</DistanceMeters>
          </Trackpoint>
          <Trackpoint>
            <Time>2021-08-01T11:29:04.000Z</Time>
            <Position>
              <LatitudeDegrees>-15.45077023096382617950439453125</LatitudeDegrees>
              <LongitudeDegrees>37.04200227744877338409423828125</LongitudeDegrees>
            </Position>
            <AltitudeMeters>780.5999755859375</AltitudeMeters>
            <DistanceMeters>7197.5418379192</DistanceMeters>
          </Trackpoint>
          <Trackpoint>
            <Time>2021-08-01T11:29:05.000Z</Time>
            <Position>
              <LatitudeDegrees>-15.450779534876346588134765625</LatitudeDegrees>
              <LongitudeDegrees>37.042010910809040069580078125</LongitudeDegrees>
            </Position>
            <AltitudeMeters>780.79998779296875</AltitudeMeters>
            <DistanceMeters>7198.9319589064</DistanceMeters>
          </Trackpoint>
          <Trackpoint>
            <Time>2021-08-01T11:29:14.000Z</Time>
            <Position>
              <LatitudeDegrees>-15.450856648385524749755859375</LatitudeDegrees>
              <LongitudeDegrees>37.04208140261471271514892578125</LongitudeDegrees>
            </Position>
            <AltitudeMeters>782</AltitudeMeters>
            <DistanceMeters>7210.3711388486</DistanceMeters>
          </Trackpoint>
          <Trackpoint>
            <Time>2021-08-01T11:29:16.000Z</Time>
            <Position>
              <LatitudeDegrees>-15.450873412191867828369140625</LatitudeDegrees>
              <LongitudeDegrees>37.04209841787815093994140625</LongitudeDegrees>
            </Position>
            <AltitudeMeters>782.20001220703125</AltitudeMeters>
            <DistanceMeters>7212.9822129025</DistanceMeters>
          </Trackpoint>
          <Trackpoint>
            <Time>2021-08-01T11:29:25.000Z</Time>
            <Position>
              <LatitudeDegrees>-15.45093904249370098114013671875</LatitudeDegrees>
              <LongitudeDegrees>37.04216681420803070068359375</LongitudeDegrees>
            </Position>
            <AltitudeMeters>782.79998779296875</AltitudeMeters>
            <DistanceMeters>7223.3357648276</DistanceMeters>
          </Trackpoint>
          <Trackpoint>
            <Time>2021-08-01T11:29:26.000Z</Time>
            <Position>
              <LatitudeDegrees>-15.45094004832208156585693359375</LatitudeDegrees>
              <LongitudeDegrees>37.042175196111202239990234375</LongitudeDegrees>
            </Position>
            <AltitudeMeters>783.20001220703125</AltitudeMeters>
            <DistanceMeters>7224.2422619078</DistanceMeters>
          </Trackpoint>
          <Trackpoint>
            <Time>2021-08-01T11:29:28.000Z</Time>
            <Position>
              <LatitudeDegrees>-15.45093476772308349609375</LatitudeDegrees>
              <LongitudeDegrees>37.04220478422939777374267578125</LongitudeDegrees>
            </Position>
            <AltitudeMeters>783.4000244140625</AltitudeMeters>
            <DistanceMeters>7227.4717724424</DistanceMeters>
          </Trackpoint>
          <Trackpoint>
            <Time>2021-08-01T11:29:29.000Z</Time>
            <Position>
              <LatitudeDegrees>-15.45093200169503688812255859375</LatitudeDegrees>
              <LongitudeDegrees>37.04221417196094989776611328125</LongitudeDegrees>
            </Position>
            <AltitudeMeters>783.4000244140625</AltitudeMeters>
            <DistanceMeters>7228.5256696872</DistanceMeters>
          </Trackpoint>
          <Trackpoint>
            <Time>2021-08-01T11:29:32.000Z</Time>
            <Position>
              <LatitudeDegrees>-15.45092797838151454925537109375</LatitudeDegrees>
              <LongitudeDegrees>37.04223630018532276153564453125</LongitudeDegrees>
            </Position>
            <AltitudeMeters>783.5999755859375</AltitudeMeters>
            <DistanceMeters>7230.9427876941</DistanceMeters>
          </Trackpoint>
          <Trackpoint>
            <Time>2021-08-01T11:29:34.000Z</Time>
            <Position>
              <LatitudeDegrees>-15.45092211104929447174072265625</LatitudeDegrees>
              <LongitudeDegrees>37.042248286306858062744140625</LongitudeDegrees>
            </Position>
            <AltitudeMeters>783.79998779296875</AltitudeMeters>
            <DistanceMeters>7232.3839391719</DistanceMeters>
          </Trackpoint>
          <Trackpoint>
            <Time>2021-08-01T11:29:36.000Z</Time>
            <Position>
              <LatitudeDegrees>-15.4509077779948711395263671875</LatitudeDegrees>
              <LongitudeDegrees>37.04226069152355194091796875</LongitudeDegrees>
            </Position>
            <AltitudeMeters>784.20001220703125</AltitudeMeters>
            <DistanceMeters>7234.4615282892</DistanceMeters>
          </Trackpoint>
          <Trackpoint>
            <Time>2021-08-01T11:29:38.000Z</Time>
            <Position>
              <LatitudeDegrees>-15.45089160092175006866455078125</LatitudeDegrees>
              <LongitudeDegrees>37.0422729291021823883056640625</LongitudeDegrees>
            </Position>
            <AltitudeMeters>784.4000244140625</AltitudeMeters>
            <DistanceMeters>7236.6880753845</DistanceMeters>
          </Trackpoint>
          <Trackpoint>
            <Time>2021-08-01T11:29:39.000Z</Time>
            <Position>
              <LatitudeDegrees>-15.45088087208569049835205078125</LatitudeDegrees>
              <LongitudeDegrees>37.0422782935202121734619140625</LongitudeDegrees>
            </Position>
            <AltitudeMeters>784.5999755859375</AltitudeMeters>
            <DistanceMeters>7238.011644359</DistanceMeters>
          </Trackpoint>
          <Trackpoint>
            <Time>2021-08-01T11:29:41.000Z</Time>
            <Position>
              <LatitudeDegrees>-15.4508556425571441650390625</LatitudeDegrees>
              <LongitudeDegrees>37.04228625632822513580322265625</LongitudeDegrees>
            </Position>
            <AltitudeMeters>784.79998779296875</AltitudeMeters>
            <DistanceMeters>7240.946724073</DistanceMeters>
          </Trackpoint>
          <Trackpoint>
            <Time>2021-08-01T11:29:50.000Z</Time>
            <Position>
              <LatitudeDegrees>-15.4507672972977161407470703125</LatitudeDegrees>
              <LongitudeDegrees>37.04232498072087764739990234375</LongitudeDegrees>
            </Position>
            <AltitudeMeters>785.20001220703125</AltitudeMeters>
            <DistanceMeters>7251.6214856462</DistanceMeters>
          </Trackpoint>
          <Trackpoint>
            <Time>2021-08-01T11:30:00.000Z</Time>
            <Position>
              <LatitudeDegrees>-15.45066612772643566131591796875</LatitudeDegrees>
              <LongitudeDegrees>37.042375691235065460205078125</LongitudeDegrees>
            </Position>
            <AltitudeMeters>785.79998779296875</AltitudeMeters>
            <DistanceMeters>7264.1271601156</DistanceMeters>
          </Trackpoint>
          <Trackpoint>
            <Time>2021-08-01T11:30:07.000Z</Time>
            <Position>
              <LatitudeDegrees>-15.45057845301926136016845703125</LatitudeDegrees>
              <LongitudeDegrees>37.04239706508815288543701171875</LongitudeDegrees>
            </Position>
            <AltitudeMeters>786.4000244140625</AltitudeMeters>
            <DistanceMeters>7274.1510146931</DistanceMeters>
          </Trackpoint>
          <Trackpoint>
            <Time>2021-08-01T11:30:12.000Z</Time>
            <Position>
              <LatitudeDegrees>-15.45052682049572467803955078125</LatitudeDegrees>
              <LongitudeDegrees>37.04241734929382801055908203125</LongitudeDegrees>
            </Position>
            <AltitudeMeters>786.5999755859375</AltitudeMeters>
            <DistanceMeters>7280.2962388297</DistanceMeters>
          </Trackpoint>
          <Trackpoint>
            <Time>2021-08-01T11:30:19.000Z</Time>
            <Position>
              <LatitudeDegrees>-15.450465381145477294921875</LatitudeDegrees>
              <LongitudeDegrees>37.04246462322771549224853515625</LongitudeDegrees>
            </Position>
            <AltitudeMeters>787</AltitudeMeters>
            <DistanceMeters>7288.8100172867</DistanceMeters>
          </Trackpoint>
          <Trackpoint>
            <Time>2021-08-01T11:30:24.000Z</Time>
            <Position>
              <LatitudeDegrees>-15.450414083898067474365234375</LatitudeDegrees>
              <LongitudeDegrees>37.04248289577662944793701171875</LongitudeDegrees>
            </Position>
            <AltitudeMeters>787.4000244140625</AltitudeMeters>
            <DistanceMeters>7294.8470189041</DistanceMeters>
          </Trackpoint>
          <Trackpoint>
            <Time>2021-08-01T11:30:26.000Z</Time>
            <Position>
              <LatitudeDegrees>-15.45039438642561435699462890625</LatitudeDegrees>
              <LongitudeDegrees>37.04249328933656215667724609375</LongitudeDegrees>
            </Position>
            <AltitudeMeters>787.79998779296875</AltitudeMeters>
            <DistanceMeters>7297.3067244185</DistanceMeters>
          </Trackpoint>
          <Trackpoint>
            <Time>2021-08-01T11:30:28.000Z</Time>
            <Position>
              <LatitudeDegrees>-15.4503767006099224090576171875</LatitudeDegrees>
              <LongitudeDegrees>37.0425009168684482574462890625</LongitudeDegrees>
            </Position>
            <AltitudeMeters>787.79998779296875</AltitudeMeters>
            <DistanceMeters>7299.440068865</DistanceMeters>
          </Trackpoint>
          <Trackpoint>
            <Time>2021-08-01T11:30:37.000Z</Time>
            <Position>
              <LatitudeDegrees>-15.4502896964550018310546875</LatitudeDegrees>
              <LongitudeDegrees>37.0425478555262088775634765625</LongitudeDegrees>
            </Position>
            <AltitudeMeters>788.20001220703125</AltitudeMeters>
            <DistanceMeters>7310.3544982339</DistanceMeters>
          </Trackpoint>
          <Trackpoint>
            <Time>2021-08-01T11:30:39.000Z</Time>
            <Position>
              <LatitudeDegrees>-15.45027435757219791412353515625</LatitudeDegrees>
              <LongitudeDegrees>37.0425604283809661865234375</LongitudeDegrees>
            </Position>
            <AltitudeMeters>788.4000244140625</AltitudeMeters>
            <DistanceMeters>7312.5297591508</DistanceMeters>
          </Trackpoint>
          <Trackpoint>
            <Time>2021-08-01T11:30:45.000Z</Time>
            <Position>
              <LatitudeDegrees>-15.4502119123935699462890625</LatitudeDegrees>
              <LongitudeDegrees>37.04261013306677341461181640625</LongitudeDegrees>
            </Position>
            <AltitudeMeters>788.79998779296875</AltitudeMeters>
            <DistanceMeters>7321.2892431279</DistanceMeters>
          </Trackpoint>
          <Trackpoint>
            <Time>2021-08-01T11:30:48.000Z</Time>
            <Position>
              <LatitudeDegrees>-15.450187437236309051513671875</LatitudeDegrees>
              <LongitudeDegrees>37.04262488521635532379150390625</LongitudeDegrees>
            </Position>
            <AltitudeMeters>789</AltitudeMeters>
            <DistanceMeters>7324.4409226941</DistanceMeters>
          </Trackpoint>
          <Trackpoint>
            <Time>2021-08-01T11:30:52.000Z</Time>
            <Position>
              <LatitudeDegrees>-15.45015181414783000946044921875</LatitudeDegrees>
              <LongitudeDegrees>37.0426501147449016571044921875</LongitudeDegrees>
            </Position>
            <AltitudeMeters>789</AltitudeMeters>
            <DistanceMeters>7329.2414179899</DistanceMeters>
          </Trackpoint>
          <Trackpoint>
            <Time>2021-08-01T11:30:59.000Z</Time>
            <Position>
              <LatitudeDegrees>-15.45009129680693149566650390625</LatitudeDegrees>
              <LongitudeDegrees>37.04269680194556713104248046875</LongitudeDegrees>
            </Position>
            <AltitudeMeters>789.5999755859375</AltitudeMeters>
            <DistanceMeters>7337.6350260589</DistanceMeters>
          </Trackpoint>
          <Trackpoint>
            <Time>2021-08-01T11:31:10.000Z</Time>
            <Position>
              <LatitudeDegrees>-15.44996288605034351348876953125</LatitudeDegrees>
              <LongitudeDegrees>37.04275933094322681427001953125</LongitudeDegrees>
            </Position>
            <AltitudeMeters>789.79998779296875</AltitudeMeters>
            <DistanceMeters>7353.4231934687</DistanceMeters>
          </Trackpoint>
          <Trackpoint>
            <Time>2021-08-01T11:31:19.000Z</Time>
            <Position>
              <LatitudeDegrees>-15.4498779773712158203125</LatitudeDegrees>
              <LongitudeDegrees>37.04281599260866641998291015625</LongitudeDegrees>
            </Position>
            <AltitudeMeters>789</AltitudeMeters>
            <DistanceMeters>7364.6596755178</DistanceMeters>
          </Trackpoint>
          <Trackpoint>
            <Time>2021-08-01T11:31:22.000Z</Time>
            <Position>
              <LatitudeDegrees>-15.44985182583332061767578125</LatitudeDegrees>
              <LongitudeDegrees>37.0428328402340412139892578125</LongitudeDegrees>
            </Position>
            <AltitudeMeters>788.4000244140625</AltitudeMeters>
            <DistanceMeters>7368.0845943928</DistanceMeters>
          </Trackpoint>
          <Trackpoint>
            <Time>2021-08-01T11:31:26.000Z</Time>
            <Position>
              <LatitudeDegrees>-15.4497966729104518890380859375</LatitudeDegrees>
              <LongitudeDegrees>37.0428824611008167266845703125</LongitudeDegrees>
            </Position>
            <AltitudeMeters>787.4000244140625</AltitudeMeters>
            <DistanceMeters>7376.2097952446</DistanceMeters>
          </Trackpoint>
          <Trackpoint>
            <Time>2021-08-01T11:31:29.000Z</Time>
            <Position>
              <LatitudeDegrees>-15.44975585304200649261474609375</LatitudeDegrees>
              <LongitudeDegrees>37.04290383495390415191650390625</LongitudeDegrees>
            </Position>
            <AltitudeMeters>786.79998779296875</AltitudeMeters>
            <DistanceMeters>7381.2997156092</DistanceMeters>
          </Trackpoint>
          <Trackpoint>
            <Time>2021-08-01T11:31:34.000Z</Time>
            <Position>
              <LatitudeDegrees>-15.4497024603188037872314453125</LatitudeDegrees>
              <LongitudeDegrees>37.04294155351817607879638671875</LongitudeDegrees>
            </Position>
            <AltitudeMeters>786.20001220703125</AltitudeMeters>
            <DistanceMeters>7388.4891632629</DistanceMeters>
          </Trackpoint>
          <Trackpoint>
            <Time>2021-08-01T11:31:38.000Z</Time>
            <Position>
              <LatitudeDegrees>-15.44965661130845546722412109375</LatitudeDegrees>
              <LongitudeDegrees>37.0429635979235172271728515625</LongitudeDegrees>
            </Position>
            <AltitudeMeters>785.20001220703125</AltitudeMeters>
            <DistanceMeters>7394.1150336788</DistanceMeters>
          </Trackpoint>
          <Trackpoint>
            <Time>2021-08-01T11:31:39.000Z</Time>
            <Position>
              <LatitudeDegrees>-15.44964420609176158905029296875</LatitudeDegrees>
              <LongitudeDegrees>37.042971812188625335693359375</LongitudeDegrees>
            </Position>
            <AltitudeMeters>784.79998779296875</AltitudeMeters>
            <DistanceMeters>7395.7526944201</DistanceMeters>
          </Trackpoint>
          <Trackpoint>
            <Time>2021-08-01T11:31:42.000Z</Time>
            <Position>
              <LatitudeDegrees>-15.4496059007942676544189453125</LatitudeDegrees>
              <LongitudeDegrees>37.04299695789813995361328125</LongitudeDegrees>
            </Position>
            <AltitudeMeters>784.5999755859375</AltitudeMeters>
            <DistanceMeters>7400.7962770102</DistanceMeters>
          </Trackpoint>
          <Trackpoint>
            <Time>2021-08-01T11:31:48.000Z</Time>
            <Position>
              <LatitudeDegrees>-15.44951814226806163787841796875</LatitudeDegrees>
              <LongitudeDegrees>37.04304481856524944305419921875</LongitudeDegrees>
            </Position>
            <AltitudeMeters>784.20001220703125</AltitudeMeters>
            <DistanceMeters>7411.8308386585</DistanceMeters>
          </Trackpoint>
          <Trackpoint>
            <Time>2021-08-01T11:31:50.000Z</Time>
            <Position>
              <LatitudeDegrees>-15.44949316419661045074462890625</LatitudeDegrees>
              <LongitudeDegrees>37.0430554635822772979736328125</LongitudeDegrees>
            </Position>
            <AltitudeMeters>784.20001220703125</AltitudeMeters>
            <DistanceMeters>7414.8358472182</DistanceMeters>
          </Trackpoint>
          <Trackpoint>
            <Time>2021-08-01T11:31:59.000Z</Time>
            <Position>
              <LatitudeDegrees>-15.44939811341464519500732421875</LatitudeDegrees>
              <LongitudeDegrees>37.0430977083742618560791015625</LongitudeDegrees>
            </Position>
            <AltitudeMeters>783.5999755859375</AltitudeMeters>
            <DistanceMeters>7426.3446769276</DistanceMeters>
          </Trackpoint>
          <Trackpoint>
            <Time>2021-08-01T11:32:05.000Z</Time>
            <Position>
              <LatitudeDegrees>-15.449310354888439178466796875</LatitudeDegrees>
              <LongitudeDegrees>37.04311958514153957366943359375</LongitudeDegrees>
            </Position>
            <AltitudeMeters>783.4000244140625</AltitudeMeters>
            <DistanceMeters>7436.3905782977</DistanceMeters>
          </Trackpoint>
          <Trackpoint>
            <Time>2021-08-01T11:32:09.000Z</Time>
            <Position>
              <LatitudeDegrees>-15.4492676071822643280029296875</LatitudeDegrees>
              <LongitudeDegrees>37.04313031397759914398193359375</LongitudeDegrees>
            </Position>
            <AltitudeMeters>783.20001220703125</AltitudeMeters>
            <DistanceMeters>7441.2869905514</DistanceMeters>
          </Trackpoint>
          <Trackpoint>
            <Time>2021-08-01T11:32:13.000Z</Time>
            <Position>
              <LatitudeDegrees>-15.4492163099348545074462890625</LatitudeDegrees>
              <LongitudeDegrees>37.04315110109746456146240234375</LongitudeDegrees>
            </Position>
            <AltitudeMeters>782.4000244140625</AltitudeMeters>
            <DistanceMeters>7447.4160294652</DistanceMeters>
          </Trackpoint>
          <Trackpoint>
            <Time>2021-08-01T11:32:18.000Z</Time>
            <Position>
              <LatitudeDegrees>-15.44915252365171909332275390625</LatitudeDegrees>
              <LongitudeDegrees>37.04320088960230350494384765625</LongitudeDegrees>
            </Position>
            <AltitudeMeters>782</AltitudeMeters>
            <DistanceMeters>7456.3003920308</DistanceMeters>
          </Trackpoint>
          <Trackpoint>
            <Time>2021-08-01T11:32:20.000Z</Time>
            <Position>
              <LatitudeDegrees>-15.44913299381732940673828125</LatitudeDegrees>
              <LongitudeDegrees>37.043223939836025238037109375</LongitudeDegrees>
            </Position>
            <AltitudeMeters>782</AltitudeMeters>
            <DistanceMeters>7459.5922139781</DistanceMeters>
          </Trackpoint>
          <Trackpoint>
            <Time>2021-08-01T11:32:25.000Z</Time>
            <Position>
              <LatitudeDegrees>-15.44910692609846591949462890625</LatitudeDegrees>
              <LongitudeDegrees>37.04326517879962921142578125</LongitudeDegrees>
            </Position>
            <AltitudeMeters>782.20001220703125</AltitudeMeters>
            <DistanceMeters>7464.8822240821</DistanceMeters>
          </Trackpoint>
          <Trackpoint>
            <Time>2021-08-01T11:32:33.000Z</Time>
            <Position>
              <LatitudeDegrees>-15.44906568713486194610595703125</LatitudeDegrees>
              <LongitudeDegrees>37.04337372444570064544677734375</LongitudeDegrees>
            </Position>
            <AltitudeMeters>781.20001220703125</AltitudeMeters>
            <DistanceMeters>7477.3990857615</DistanceMeters>
          </Trackpoint>
          <Trackpoint>
            <Time>2021-08-01T11:32:35.000Z</Time>
            <Position>
              <LatitudeDegrees>-15.4490597359836101531982421875</LatitudeDegrees>
              <LongitudeDegrees>37.04339752905070781707763671875</LongitudeDegrees>
            </Position>
            <AltitudeMeters>781</AltitudeMeters>
            <DistanceMeters>7480.037681778</DistanceMeters>
          </Trackpoint>
          <Trackpoint>
            <Time>2021-08-01T11:32:43.000Z</Time>
            <Position>
              <LatitudeDegrees>-15.44901304878294467926025390625</LatitudeDegrees>
              <LongitudeDegrees>37.0434916578233242034912109375</LongitudeDegrees>
            </Position>
            <AltitudeMeters>780.79998779296875</AltitudeMeters>
            <DistanceMeters>7491.3940699262</DistanceMeters>
          </Trackpoint>
          <Trackpoint>
            <Time>2021-08-01T11:32:52.000Z</Time>
            <Position>
              <LatitudeDegrees>-15.44892403297126293182373046875</LatitudeDegrees>
              <LongitudeDegrees>37.043567597866058349609375</LongitudeDegrees>
            </Position>
            <AltitudeMeters>780.4000244140625</AltitudeMeters>
            <DistanceMeters>7504.2209164915</DistanceMeters>
          </Trackpoint>
          <Trackpoint>
            <Time>2021-08-01T11:33:02.000Z</Time>
            <Position>
              <LatitudeDegrees>-15.44880718924105167388916015625</LatitudeDegrees>
              <LongitudeDegrees>37.04362652264535427093505859375</LongitudeDegrees>
            </Position>
            <AltitudeMeters>780.20001220703125</AltitudeMeters>
            <DistanceMeters>7518.6805980227</DistanceMeters>
          </Trackpoint>
          <Trackpoint>
            <Time>2021-08-01T11:33:03.000Z</Time>
            <Position>
              <LatitudeDegrees>-15.44879511930048465728759765625</LatitudeDegrees>
              <LongitudeDegrees>37.04363188706338405609130859375</LongitudeDegrees>
            </Position>
            <AltitudeMeters>780</AltitudeMeters>
            <DistanceMeters>7520.1404261087</DistanceMeters>
          </Trackpoint>
          <Trackpoint>
            <Time>2021-08-01T11:33:10.000Z</Time>
            <Position>
              <LatitudeDegrees>-15.4487040080130100250244140625</LatitudeDegrees>
              <LongitudeDegrees>37.0436596311628818511962890625</LongitudeDegrees>
            </Position>
            <AltitudeMeters>779.4000244140625</AltitudeMeters>
            <DistanceMeters>7530.7089177483</DistanceMeters>
          </Trackpoint>
          <Trackpoint>
            <Time>2021-08-01T11:33:15.000Z</Time>
            <Position>
              <LatitudeDegrees>-15.4486548900604248046875</LatitudeDegrees>
              <LongitudeDegrees>37.04368896782398223876953125</LongitudeDegrees>
            </Position>
            <AltitudeMeters>779</AltitudeMeters>
            <DistanceMeters>7537.0172889238</DistanceMeters>
          </Trackpoint>
          <Trackpoint>
            <Time>2021-08-01T11:33:16.000Z</Time>
            <Position>
              <LatitudeDegrees>-15.44864625670015811920166015625</LatitudeDegrees>
              <LongitudeDegrees>37.043697349727153778076171875</LongitudeDegrees>
            </Position>
            <AltitudeMeters>779</AltitudeMeters>
            <DistanceMeters>7538.3340177027</DistanceMeters>
          </Trackpoint>
          <Trackpoint>
            <Time>2021-08-01T11:33:19.000Z</Time>
            <Position>
              <LatitudeDegrees>-15.4486168362200260162353515625</LatitudeDegrees>
              <LongitudeDegrees>37.0437159575521945953369140625</LongitudeDegrees>
            </Position>
            <AltitudeMeters>778.79998779296875</AltitudeMeters>
            <DistanceMeters>7542.1682013774</DistanceMeters>
          </Trackpoint>
          <Trackpoint>
            <Time>2021-08-01T11:33:29.000Z</Time>
            <Position>
              <LatitudeDegrees>-15.4485182650387287139892578125</LatitudeDegrees>
              <LongitudeDegrees>37.04379650764167308807373046875</LongitudeDegrees>
            </Position>
            <AltitudeMeters>778.20001220703125</AltitudeMeters>
            <DistanceMeters>7556.1335725159</DistanceMeters>
          </Trackpoint>
          <Trackpoint>
            <Time>2021-08-01T11:33:36.000Z</Time>
            <Position>
              <LatitudeDegrees>-15.4484478570520877838134765625</LatitudeDegrees>
              <LongitudeDegrees>37.04384394921362400054931640625</LongitudeDegrees>
            </Position>
            <AltitudeMeters>778.4000244140625</AltitudeMeters>
            <DistanceMeters>7565.4776513435</DistanceMeters>
          </Trackpoint>
          <Trackpoint>
            <Time>2021-08-01T11:33:44.000Z</Time>
            <Position>
              <LatitudeDegrees>-15.4483556561172008514404296875</LatitudeDegrees>
              <LongitudeDegrees>37.04389373771846294403076171875</LongitudeDegrees>
            </Position>
            <AltitudeMeters>778.20001220703125</AltitudeMeters>
            <DistanceMeters>7577.0467391663</DistanceMeters>
          </Trackpoint>
          <Trackpoint>
            <Time>2021-08-01T11:33:46.000Z</Time>
            <Position>
              <LatitudeDegrees>-15.44833109714090824127197265625</LatitudeDegrees>
              <LongitudeDegrees>37.04390195198357105255126953125</LongitudeDegrees>
            </Position>
            <AltitudeMeters>778</AltitudeMeters>
            <DistanceMeters>7579.9196279337</DistanceMeters>
          </Trackpoint>
          <Trackpoint>
            <Time>2021-08-01T11:33:48.000Z</Time>
            <Position>
              <LatitudeDegrees>-15.4483097232878208160400390625</LatitudeDegrees>
              <LongitudeDegrees>37.0439068973064422607421875</LongitudeDegrees>
            </Position>
            <AltitudeMeters>777.79998779296875</AltitudeMeters>
            <DistanceMeters>7582.3590582722</DistanceMeters>
          </Trackpoint>
          <Trackpoint>
            <Time>2021-08-01T11:33:52.000Z</Time>
            <Position>
              <LatitudeDegrees>-15.44825180433690547943115234375</LatitudeDegrees>
              <LongitudeDegrees>37.0439256727695465087890625</LongitudeDegrees>
            </Position>
            <AltitudeMeters>777.79998779296875</AltitudeMeters>
            <DistanceMeters>7589.1133122055</DistanceMeters>
          </Trackpoint>
          <Trackpoint>
            <Time>2021-08-01T11:33:58.000Z</Time>
            <Position>
              <LatitudeDegrees>-15.4481756128370761871337890625</LatitudeDegrees>
              <LongitudeDegrees>37.04395442269742488861083984375</LongitudeDegrees>
            </Position>
            <AltitudeMeters>777.5999755859375</AltitudeMeters>
            <DistanceMeters>7598.1373484073</DistanceMeters>
          </Trackpoint>
          <Trackpoint>
            <Time>2021-08-01T11:34:02.000Z</Time>
            <Position>
              <LatitudeDegrees>-15.44813060201704502105712890625</LatitudeDegrees>
              <LongitudeDegrees>37.043983675539493560791015625</LongitudeDegrees>
            </Position>
            <AltitudeMeters>777.4000244140625</AltitudeMeters>
            <DistanceMeters>7604.0488960759</DistanceMeters>
          </Trackpoint>
          <Trackpoint>
            <Time>2021-08-01T11:34:09.000Z</Time>
            <Position>
              <LatitudeDegrees>-15.44805197976529598236083984375</LatitudeDegrees>
              <LongitudeDegrees>37.04404327087104320526123046875</LongitudeDegrees>
            </Position>
            <AltitudeMeters>777</AltitudeMeters>
            <DistanceMeters>7614.886108551</DistanceMeters>
          </Trackpoint>
          <Trackpoint>
            <Time>2021-08-01T11:34:10.000Z</Time>
            <Position>
              <LatitudeDegrees>-15.44804343022406101226806640625</LatitudeDegrees>
              <LongitudeDegrees>37.04404897056519985198974609375</LongitudeDegrees>
            </Position>
            <AltitudeMeters>776.79998779296875</AltitudeMeters>
            <DistanceMeters>7616.0184825418</DistanceMeters>
          </Trackpoint>
          <Trackpoint>
            <Time>2021-08-01T11:34:13.000Z</Time>
            <Position>
              <LatitudeDegrees>-15.4480190388858318328857421875</LatitudeDegrees>
              <LongitudeDegrees>37.0440716855227947235107421875</LongitudeDegrees>
            </Position>
            <AltitudeMeters>776.5999755859375</AltitudeMeters>
            <DistanceMeters>7619.6680527569</DistanceMeters>
          </Trackpoint>
          <Trackpoint>
            <Time>2021-08-01T11:34:14.000Z</Time>
            <Position>
              <LatitudeDegrees>-15.4480098187923431396484375</LatitudeDegrees>
              <LongitudeDegrees>37.04407981596887111663818359375</LongitudeDegrees>
            </Position>
            <AltitudeMeters>776.5999755859375</AltitudeMeters>
            <DistanceMeters>7621.0186361277</DistanceMeters>
          </Trackpoint>
          <Trackpoint>
            <Time>2021-08-01T11:34:17.000Z</Time>
            <Position>
              <LatitudeDegrees>-15.44797562062740325927734375</LatitudeDegrees>
              <LongitudeDegrees>37.0441025309264659881591796875</LongitudeDegrees>
            </Position>
            <AltitudeMeters>776.5999755859375</AltitudeMeters>
            <DistanceMeters>7625.5391519161</DistanceMeters>
          </Trackpoint>
          <Trackpoint>
            <Time>2021-08-01T11:34:25.000Z</Time>
            <Position>
              <LatitudeDegrees>-15.4479157738387584686279296875</LatitudeDegrees>
              <LongitudeDegrees>37.04418106935918331146240234375</LongitudeDegrees>
            </Position>
            <AltitudeMeters>776.4000244140625</AltitudeMeters>
            <DistanceMeters>7636.2796931767</DistanceMeters>
          </Trackpoint>
          <Trackpoint>
            <Time>2021-08-01T11:34:32.000Z</Time>
            <Position>
              <LatitudeDegrees>-15.44784913770854473114013671875</LatitudeDegrees>
              <LongitudeDegrees>37.0442312769591808319091796875</LongitudeDegrees>
            </Position>
            <AltitudeMeters>777.20001220703125</AltitudeMeters>
            <DistanceMeters>7645.4452155927</DistanceMeters>
          </Trackpoint>
          <Trackpoint>
            <Time>2021-08-01T11:34:39.000Z</Time>
            <Position>
              <LatitudeDegrees>-15.44778375886380672454833984375</LatitudeDegrees>
              <LongitudeDegrees>37.04427477903664112091064453125</LongitudeDegrees>
            </Position>
            <AltitudeMeters>777.79998779296875</AltitudeMeters>
            <DistanceMeters>7654.0900355822</DistanceMeters>
          </Trackpoint>
          <Trackpoint>
            <Time>2021-08-01T11:34:41.000Z</Time>
            <Position>
              <LatitudeDegrees>-15.44776548631489276885986328125</LatitudeDegrees>
              <LongitudeDegrees>37.04429238103330135345458984375</LongitudeDegrees>
            </Position>
            <AltitudeMeters>777.79998779296875</AltitudeMeters>
            <DistanceMeters>7656.8654013611</DistanceMeters>
          </Trackpoint>
          <Trackpoint>
            <Time>2021-08-01T11:34:46.000Z</Time>
            <Position>
              <LatitudeDegrees>-15.44771351851522922515869140625</LatitudeDegrees>
              <LongitudeDegrees>37.04433244653046131134033203125</LongitudeDegrees>
            </Position>
            <AltitudeMeters>778</AltitudeMeters>
            <DistanceMeters>7664.0717853107</DistanceMeters>
          </Trackpoint>
          <Trackpoint>
            <Time>2021-08-01T11:34:50.000Z</Time>
            <Position>
              <LatitudeDegrees>-15.44767479412257671356201171875</LatitudeDegrees>
              <LongitudeDegrees>37.04436111263930797576904296875</LongitudeDegrees>
            </Position>
            <AltitudeMeters>778</AltitudeMeters>
            <DistanceMeters>7669.3660612085</DistanceMeters>
          </Trackpoint>
          <Trackpoint>
            <Time>2021-08-01T11:34:51.000Z</Time>
            <Position>
              <LatitudeDegrees>-15.44765911996364593505859375</LatitudeDegrees>
              <LongitudeDegrees>37.04435440711677074432373046875</LongitudeDegrees>
            </Position>
            <AltitudeMeters>778</AltitudeMeters>
            <DistanceMeters>7671.254679803</DistanceMeters>
          </Trackpoint>
          <Trackpoint>
            <Time>2021-08-01T11:34:52.000Z</Time>
            <Position>
              <LatitudeDegrees>-15.44764302670955657958984375</LatitudeDegrees>
              <LongitudeDegrees>37.044362537562847137451171875</LongitudeDegrees>
            </Position>
            <AltitudeMeters>778</AltitudeMeters>
            <DistanceMeters>7673.2479769798</DistanceMeters>
          </Trackpoint>
          <Trackpoint>
            <Time>2021-08-01T11:34:57.000Z</Time>
            <Position>
              <LatitudeDegrees>-15.44760304503142833709716796875</LatitudeDegrees>
              <LongitudeDegrees>37.0444140024483203887939453125</LongitudeDegrees>
            </Position>
            <AltitudeMeters>778</AltitudeMeters>
            <DistanceMeters>7680.3394151779</DistanceMeters>
          </Trackpoint>
          <Trackpoint>
            <Time>2021-08-01T11:34:58.000Z</Time>
            <Position>
              <LatitudeDegrees>-15.4475986026227474212646484375</LatitudeDegrees>
              <LongitudeDegrees>37.0444245636463165283203125</LongitudeDegrees>
            </Position>
            <AltitudeMeters>778</AltitudeMeters>
            <DistanceMeters>7681.5747624647</DistanceMeters>
          </Trackpoint>
          <Trackpoint>
            <Time>2021-08-01T11:35:08.000Z</Time>
            <Position>
              <LatitudeDegrees>-15.44752500951290130615234375</LatitudeDegrees>
              <LongitudeDegrees>37.044517099857330322265625</LongitudeDegrees>
            </Position>
            <AltitudeMeters>778.4000244140625</AltitudeMeters>
            <DistanceMeters>7694.4451829041</DistanceMeters>
          </Trackpoint>
          <Trackpoint>
            <Time>2021-08-01T11:35:14.000Z</Time>
            <Position>
              <LatitudeDegrees>-15.44747480191290378570556640625</LatitudeDegrees>
              <LongitudeDegrees>37.0445722527801990509033203125</LongitudeDegrees>
            </Position>
            <AltitudeMeters>779</AltitudeMeters>
            <DistanceMeters>7702.5831544351</DistanceMeters>
          </Trackpoint>
          <Trackpoint>
            <Time>2021-08-01T11:35:17.000Z</Time>
            <Position>
              <LatitudeDegrees>-15.44744915328919887542724609375</LatitudeDegrees>
              <LongitudeDegrees>37.044609300792217254638671875</LongitudeDegrees>
            </Position>
            <AltitudeMeters>779</AltitudeMeters>
            <DistanceMeters>7707.4767995724</DistanceMeters>
          </Trackpoint>
          <Trackpoint>
            <Time>2021-08-01T11:35:28.000Z</Time>
            <Position>
              <LatitudeDegrees>-15.44737623073160648345947265625</LatitudeDegrees>
              <LongitudeDegrees>37.044693119823932647705078125</LongitudeDegrees>
            </Position>
            <AltitudeMeters>779.79998779296875</AltitudeMeters>
            <DistanceMeters>7719.5900036134</DistanceMeters>
          </Trackpoint>
          <Trackpoint>
            <Time>2021-08-01T11:35:29.000Z</Time>
            <Position>
              <LatitudeDegrees>-15.44736885465681552886962890625</LatitudeDegrees>
              <LongitudeDegrees>37.04470057971775531768798828125</LongitudeDegrees>
            </Position>
            <AltitudeMeters>780.20001220703125</AltitudeMeters>
            <DistanceMeters>7720.7382157718</DistanceMeters>
          </Trackpoint>
          <Trackpoint>
            <Time>2021-08-01T11:35:37.000Z</Time>
            <Position>
              <LatitudeDegrees>-15.44731386937201023101806640625</LatitudeDegrees>
              <LongitudeDegrees>37.04477501101791858673095703125</LongitudeDegrees>
            </Position>
            <AltitudeMeters>780.79998779296875</AltitudeMeters>
            <DistanceMeters>7730.7993865256</DistanceMeters>
          </Trackpoint>
          <Trackpoint>
            <Time>2021-08-01T11:35:46.000Z</Time>
            <Position>
              <LatitudeDegrees>-15.4472673498094081878662109375</LatitudeDegrees>
              <LongitudeDegrees>37.044841982424259185791015625</LongitudeDegrees>
            </Position>
            <AltitudeMeters>780.5999755859375</AltitudeMeters>
            <DistanceMeters>7739.6552441304</DistanceMeters>
          </Trackpoint>
          <Trackpoint>
            <Time>2021-08-01T11:35:52.000Z</Time>
            <Position>
              <LatitudeDegrees>-15.44726391322910785675048828125</LatitudeDegrees>
              <LongitudeDegrees>37.04488464631140232086181640625</LongitudeDegrees>
            </Position>
            <AltitudeMeters>781.20001220703125</AltitudeMeters>
            <DistanceMeters>7744.2480927642</DistanceMeters>
          </Trackpoint>
          <Trackpoint>
            <Time>2021-08-01T11:35:56.000Z</Time>
            <Position>
              <LatitudeDegrees>-15.4472552798688411712646484375</LatitudeDegrees>
              <LongitudeDegrees>37.044927142560482025146484375</LongitudeDegrees>
            </Position>
            <AltitudeMeters>782</AltitudeMeters>
            <DistanceMeters>7748.9073098412</DistanceMeters>
          </Trackpoint>
          <Trackpoint>
            <Time>2021-08-01T11:35:58.000Z</Time>
            <Position>
              <LatitudeDegrees>-15.44724497012794017791748046875</LatitudeDegrees>
              <LongitudeDegrees>37.04495270736515522003173828125</LongitudeDegrees>
            </Position>
            <AltitudeMeters>782</AltitudeMeters>
            <DistanceMeters>7751.879079476</DistanceMeters>
          </Trackpoint>
          <Trackpoint>
            <Time>2021-08-01T11:35:59.000Z</Time>
            <Position>
              <LatitudeDegrees>-15.4472428746521472930908203125</LatitudeDegrees>
              <LongitudeDegrees>37.0449797809123992919921875</LongitudeDegrees>
            </Position>
            <AltitudeMeters>782.20001220703125</AltitudeMeters>
            <DistanceMeters>7754.7940926722</DistanceMeters>
          </Trackpoint>
          <Trackpoint>
            <Time>2021-08-01T11:36:05.000Z</Time>
            <Position>
              <LatitudeDegrees>-15.44722418300807476043701171875</LatitudeDegrees>
              <LongitudeDegrees>37.04507675953209400177001953125</LongitudeDegrees>
            </Position>
            <AltitudeMeters>783.20001220703125</AltitudeMeters>
            <DistanceMeters>7765.4039434228</DistanceMeters>
          </Trackpoint>
          <Trackpoint>
            <Time>2021-08-01T11:36:06.000Z</Time>
            <Position>
              <LatitudeDegrees>-15.44721529819071292877197265625</LatitudeDegrees>
              <LongitudeDegrees>37.045091092586517333984375</LongitudeDegrees>
            </Position>
            <AltitudeMeters>783.4000244140625</AltitudeMeters>
            <DistanceMeters>7767.2293469967</DistanceMeters>
          </Trackpoint>
          <Trackpoint>
            <Time>2021-08-01T11:36:11.000Z</Time>
            <Position>
              <LatitudeDegrees>-15.44718914665281772613525390625</LatitudeDegrees>
              <LongitudeDegrees>37.04514808952808380126953125</LongitudeDegrees>
            </Position>
            <AltitudeMeters>783.5999755859375</AltitudeMeters>
            <DistanceMeters>7774.0016256575</DistanceMeters>
          </Trackpoint>
          <Trackpoint>
            <Time>2021-08-01T11:36:13.000Z</Time>
            <Position>
              <LatitudeDegrees>-15.44718344695866107940673828125</LatitudeDegrees>
              <LongitudeDegrees>37.04517398960888385772705078125</LongitudeDegrees>
            </Position>
            <AltitudeMeters>783.5999755859375</AltitudeMeters>
            <DistanceMeters>7776.8524270886</DistanceMeters>
          </Trackpoint>
          <Trackpoint>
            <Time>2021-08-01T11:36:24.000Z</Time>
            <Position>
              <LatitudeDegrees>-15.447145141661167144775390625</LatitudeDegrees>
              <LongitudeDegrees>37.04532972536981105804443359375</LongitudeDegrees>
            </Position>
            <AltitudeMeters>784</AltitudeMeters>
            <DistanceMeters>7794.0952594231</DistanceMeters>
          </Trackpoint>
          <Trackpoint>
            <Time>2021-08-01T11:36:28.000Z</Time>
            <Position>
              <LatitudeDegrees>-15.44712343253195285797119140625</LatitudeDegrees>
              <LongitudeDegrees>37.0453765802085399627685546875</LongitudeDegrees>
            </Position>
            <AltitudeMeters>783.79998779296875</AltitudeMeters>
            <DistanceMeters>7799.6719594575</DistanceMeters>
          </Trackpoint>
          <Trackpoint>
            <Time>2021-08-01T11:36:29.000Z</Time>
            <Position>
              <LatitudeDegrees>-15.44711588881909847259521484375</LatitudeDegrees>
              <LongitudeDegrees>37.045390494167804718017578125</LongitudeDegrees>
            </Position>
            <AltitudeMeters>783.5999755859375</AltitudeMeters>
            <DistanceMeters>7801.3850779135</DistanceMeters>
          </Trackpoint>
          <Trackpoint>
            <Time>2021-08-01T11:36:36.000Z</Time>
            <Position>
              <LatitudeDegrees>-15.44707029126584529876708984375</LatitudeDegrees>
              <LongitudeDegrees>37.0454697869718074798583984375</LongitudeDegrees>
            </Position>
            <AltitudeMeters>783.4000244140625</AltitudeMeters>
            <DistanceMeters>7811.2902170121</DistanceMeters>
          </Trackpoint>
          <Trackpoint>
            <Time>2021-08-01T11:36:42.000Z</Time>
            <Position>
              <LatitudeDegrees>-15.44704095460474491119384765625</LatitudeDegrees>
              <LongitudeDegrees>37.04551957547664642333984375</LongitudeDegrees>
            </Position>
            <AltitudeMeters>783.20001220703125</AltitudeMeters>
            <DistanceMeters>7817.5504511744</DistanceMeters>
          </Trackpoint>
          <Trackpoint>
            <Time>2021-08-01T11:36:44.000Z</Time>
            <Position>
              <LatitudeDegrees>-15.4470333270728588104248046875</LatitudeDegrees>
              <LongitudeDegrees>37.04553474672138690948486328125</LongitudeDegrees>
            </Position>
            <AltitudeMeters>783</AltitudeMeters>
            <DistanceMeters>7819.3881803683</DistanceMeters>
          </Trackpoint>
          <Trackpoint>
            <Time>2021-08-01T11:36:50.000Z</Time>
            <Position>
              <LatitudeDegrees>-15.446999631822109222412109375</LatitudeDegrees>
              <LongitudeDegrees>37.045586295425891876220703125</LongitudeDegrees>
            </Position>
            <AltitudeMeters>783</AltitudeMeters>
            <DistanceMeters>7826.0698491673</DistanceMeters>
          </Trackpoint>
          <Trackpoint>
            <Time>2021-08-01T11:36:52.000Z</Time>
            <Position>
              <LatitudeDegrees>-15.446990914642810821533203125</LatitudeDegrees>
              <LongitudeDegrees>37.04560146667063236236572265625</LongitudeDegrees>
            </Position>
            <AltitudeMeters>783</AltitudeMeters>
            <DistanceMeters>7827.9656261649</DistanceMeters>
          </Trackpoint>
          <Trackpoint>
            <Time>2021-08-01T11:36:53.000Z</Time>
            <Position>
              <LatitudeDegrees>-15.4469890706241130828857421875</LatitudeDegrees>
              <LongitudeDegrees>37.0456045679748058319091796875</LongitudeDegrees>
            </Position>
            <AltitudeMeters>783</AltitudeMeters>
            <DistanceMeters>7828.3457330223</DistanceMeters>
          </Trackpoint>
          <Trackpoint>
            <Time>2021-08-01T11:36:58.000Z</Time>
            <Position>
              <LatitudeDegrees>-15.44699200429022312164306640625</LatitudeDegrees>
              <LongitudeDegrees>37.04560582526028156280517578125</LongitudeDegrees>
            </Position>
            <AltitudeMeters>783</AltitudeMeters>
            <DistanceMeters>7828.7012904301</DistanceMeters>
          </Trackpoint>
          <Trackpoint>
            <Time>2021-08-01T11:37:06.000Z</Time>
            <Position>
              <LatitudeDegrees>-15.4469763301312923431396484375</LatitudeDegrees>
              <LongitudeDegrees>37.04561806283891201019287109375</LongitudeDegrees>
            </Position>
            <AltitudeMeters>783</AltitudeMeters>
            <DistanceMeters>7830.8827693518</DistanceMeters>
          </Trackpoint>
          <Trackpoint>
            <Time>2021-08-01T11:37:11.000Z</Time>
            <Position>
              <LatitudeDegrees>-15.44693416915833950042724609375</LatitudeDegrees>
              <LongitudeDegrees>37.045696265995502471923828125</LongitudeDegrees>
            </Position>
            <AltitudeMeters>783</AltitudeMeters>
            <DistanceMeters>7840.4959791346</DistanceMeters>
          </Trackpoint>
          <Trackpoint>
            <Time>2021-08-01T11:37:18.000Z</Time>
            <Position>
              <LatitudeDegrees>-15.44689695350825786590576171875</LatitudeDegrees>
              <LongitudeDegrees>37.04577706754207611083984375</LongitudeDegrees>
            </Position>
            <AltitudeMeters>783.20001220703125</AltitudeMeters>
            <DistanceMeters>7850.1035512218</DistanceMeters>
          </Trackpoint>
          <Trackpoint>
            <Time>2021-08-01T11:37:26.000Z</Time>
            <Position>
              <LatitudeDegrees>-15.4468506015837192535400390625</LatitudeDegrees>
              <LongitudeDegrees>37.0458600483834743499755859375</LongitudeDegrees>
            </Position>
            <AltitudeMeters>783</AltitudeMeters>
            <DistanceMeters>7860.3919211644</DistanceMeters>
          </Trackpoint>
          <Trackpoint>
            <Time>2021-08-01T11:37:30.000Z</Time>
            <Position>
              <LatitudeDegrees>-15.44681900180876255035400390625</LatitudeDegrees>
              <LongitudeDegrees>37.04589382745325565338134765625</LongitudeDegrees>
            </Position>
            <AltitudeMeters>783</AltitudeMeters>
            <DistanceMeters>7865.4417662984</DistanceMeters>
          </Trackpoint>
          <Trackpoint>
            <Time>2021-08-01T11:37:37.000Z</Time>
            <Position>
              <LatitudeDegrees>-15.44676326215267181396484375</LatitudeDegrees>
              <LongitudeDegrees>37.04597043804824352264404296875</LongitudeDegrees>
            </Position>
            <AltitudeMeters>782.79998779296875</AltitudeMeters>
            <DistanceMeters>7875.7397863876</DistanceMeters>
          </Trackpoint>
          <Trackpoint>
            <Time>2021-08-01T11:37:44.000Z</Time>
            <Position>
              <LatitudeDegrees>-15.446711964905261993408203125</LatitudeDegrees>
              <LongitudeDegrees>37.04603682272136211395263671875</LongitudeDegrees>
            </Position>
            <AltitudeMeters>782.4000244140625</AltitudeMeters>
            <DistanceMeters>7884.8682882047</DistanceMeters>
          </Trackpoint>
          <Trackpoint>
            <Time>2021-08-01T11:37:45.000Z</Time>
            <Position>
              <LatitudeDegrees>-15.44670215807855129241943359375</LatitudeDegrees>
              <LongitudeDegrees>37.04604503698647022247314453125</LongitudeDegrees>
            </Position>
            <AltitudeMeters>782.5999755859375</AltitudeMeters>
            <DistanceMeters>7886.2713408284</DistanceMeters>
          </Trackpoint>
          <Trackpoint>
            <Time>2021-08-01T11:37:51.000Z</Time>
            <Position>
              <LatitudeDegrees>-15.446656309068202972412109375</LatitudeDegrees>
              <LongitudeDegrees>37.0461007766425609588623046875</LongitudeDegrees>
            </Position>
            <AltitudeMeters>782.5999755859375</AltitudeMeters>
            <DistanceMeters>7894.1327556618</DistanceMeters>
          </Trackpoint>
          <Trackpoint>
            <Time>2021-08-01T11:37:56.000Z</Time>
            <Position>
              <LatitudeDegrees>-15.446616075932979583740234375</LatitudeDegrees>
              <LongitudeDegrees>37.04616137780249118804931640625</LongitudeDegrees>
            </Position>
            <AltitudeMeters>782.4000244140625</AltitudeMeters>
            <DistanceMeters>7902.0268393667</DistanceMeters>
          </Trackpoint>
          <Trackpoint>
            <Time>2021-08-01T11:38:04.000Z</Time>
            <Position>
              <LatitudeDegrees>-15.446618087589740753173828125</LatitudeDegrees>
              <LongitudeDegrees>37.04626933671534061431884765625</LongitudeDegrees>
            </Position>
            <AltitudeMeters>782.5999755859375</AltitudeMeters>
            <DistanceMeters>7913.6107478589</DistanceMeters>
          </Trackpoint>
          <Trackpoint>
            <Time>2021-08-01T11:38:15.000Z</Time>
            <Position>
              <LatitudeDegrees>-15.44659034349024295806884765625</LatitudeDegrees>
              <LongitudeDegrees>37.04640805721282958984375</LongitudeDegrees>
            </Position>
            <AltitudeMeters>782.79998779296875</AltitudeMeters>
            <DistanceMeters>7928.8093788997</DistanceMeters>
          </Trackpoint>
          <Trackpoint>
            <Time>2021-08-01T11:38:22.000Z</Time>
            <Position>
              <LatitudeDegrees>-15.446554385125637054443359375</LatitudeDegrees>
              <LongitudeDegrees>37.0464940555393695831298828125</LongitudeDegrees>
            </Position>
            <AltitudeMeters>783.4000244140625</AltitudeMeters>
            <DistanceMeters>7938.8656120959</DistanceMeters>
          </Trackpoint>
          <Trackpoint>
            <Time>2021-08-01T11:38:24.000Z</Time>
            <Position>
              <LatitudeDegrees>-15.44654491357505321502685546875</LatitudeDegrees>
              <LongitudeDegrees>37.0465192012488842010498046875</LongitudeDegrees>
            </Position>
            <AltitudeMeters>783.5999755859375</AltitudeMeters>
            <DistanceMeters>7941.7588595556</DistanceMeters>
          </Trackpoint>
          <Trackpoint>
            <Time>2021-08-01T11:38:31.000Z</Time>
            <Position>
              <LatitudeDegrees>-15.44653317891061305999755859375</LatitudeDegrees>
              <LongitudeDegrees>37.04660142771899700164794921875</LongitudeDegrees>
            </Position>
            <AltitudeMeters>784</AltitudeMeters>
            <DistanceMeters>7950.6761939761</DistanceMeters>
          </Trackpoint>
          <Trackpoint>
            <Time>2021-08-01T11:38:35.000Z</Time>
            <Position>
              <LatitudeDegrees>-15.446531586349010467529296875</LatitudeDegrees>
              <LongitudeDegrees>37.0466516353189945220947265625</LongitudeDegrees>
            </Position>
            <AltitudeMeters>784.4000244140625</AltitudeMeters>
            <DistanceMeters>7956.0651387562</DistanceMeters>
          </Trackpoint>
          <Trackpoint>
            <Time>2021-08-01T11:38:40.000Z</Time>
            <Position>
              <LatitudeDegrees>-15.44653720222413539886474609375</LatitudeDegrees>
              <LongitudeDegrees>37.0467237196862697601318359375</LongitudeDegrees>
            </Position>
            <AltitudeMeters>784.79998779296875</AltitudeMeters>
            <DistanceMeters>7963.8230675713</DistanceMeters>
          </Trackpoint>
          <Trackpoint>
            <Time>2021-08-01T11:38:50.000Z</Time>
            <Position>
              <LatitudeDegrees>-15.4465441592037677764892578125</LatitudeDegrees>
              <LongitudeDegrees>37.04686579294502735137939453125</LongitudeDegrees>
            </Position>
            <AltitudeMeters>785.20001220703125</AltitudeMeters>
            <DistanceMeters>7979.0845472413</DistanceMeters>
          </Trackpoint>
          <Trackpoint>
            <Time>2021-08-01T11:38:54.000Z</Time>
            <Position>
              <LatitudeDegrees>-15.44653636403381824493408203125</LatitudeDegrees>
              <LongitudeDegrees>37.04690367914736270904541015625</LongitudeDegrees>
            </Position>
            <AltitudeMeters>785.5999755859375</AltitudeMeters>
            <DistanceMeters>7983.240811939</DistanceMeters>
          </Trackpoint>
          <Trackpoint>
            <Time>2021-08-01T11:39:01.000Z</Time>
            <Position>
              <LatitudeDegrees>-15.4465077817440032958984375</LatitudeDegrees>
              <LongitudeDegrees>37.0470016635954380035400390625</LongitudeDegrees>
            </Position>
            <AltitudeMeters>786.4000244140625</AltitudeMeters>
            <DistanceMeters>7994.2241079477</DistanceMeters>
          </Trackpoint>
          <Trackpoint>
            <Time>2021-08-01T11:39:02.000Z</Time>
            <Position>
              <LatitudeDegrees>-15.446497388184070587158203125</LatitudeDegrees>
              <LongitudeDegrees>37.04702303744852542877197265625</LongitudeDegrees>
            </Position>
            <AltitudeMeters>786.5999755859375</AltitudeMeters>
            <DistanceMeters>7996.7951030774</DistanceMeters>
          </Trackpoint>
          <Trackpoint>
            <Time>2021-08-01T11:39:12.000Z</Time>
            <Position>
              <LatitudeDegrees>-15.44651658274233341217041015625</LatitudeDegrees>
              <LongitudeDegrees>37.04715446569025516510009765625</LongitudeDegrees>
            </Position>
            <AltitudeMeters>787</AltitudeMeters>
            <DistanceMeters>8011.0557605515</DistanceMeters>
          </Trackpoint>
          <Trackpoint>
            <Time>2021-08-01T11:39:17.000Z</Time>
            <Position>
              <LatitudeDegrees>-15.44652052223682403564453125</LatitudeDegrees>
              <LongitudeDegrees>37.047216407954692840576171875</LongitudeDegrees>
            </Position>
            <AltitudeMeters>787.5999755859375</AltitudeMeters>
            <DistanceMeters>8017.7157707236</DistanceMeters>
          </Trackpoint>
          <Trackpoint>
            <Time>2021-08-01T11:39:22.000Z</Time>
            <Position>
              <LatitudeDegrees>-15.44652932323515415191650390625</LatitudeDegrees>
              <LongitudeDegrees>37.04727181233465671539306640625</LongitudeDegrees>
            </Position>
            <AltitudeMeters>788</AltitudeMeters>
            <DistanceMeters>8023.7400447237</DistanceMeters>
          </Trackpoint>
          <Trackpoint>
            <Time>2021-08-01T11:39:30.000Z</Time>
            <Position>
              <LatitudeDegrees>-15.44654893688857555389404296875</LatitudeDegrees>
              <LongitudeDegrees>37.04736091196537017822265625</LongitudeDegrees>
            </Position>
            <AltitudeMeters>788.5999755859375</AltitudeMeters>
            <DistanceMeters>8033.5448493532</DistanceMeters>
          </Trackpoint>
          <Trackpoint>
            <Time>2021-08-01T11:39:31.000Z</Time>
            <Position>
              <LatitudeDegrees>-15.44655027799308300018310546875</LatitudeDegrees>
              <LongitudeDegrees>37.047371305525302886962890625</LongitudeDegrees>
            </Position>
            <AltitudeMeters>788.79998779296875</AltitudeMeters>
            <DistanceMeters>8034.6692206007</DistanceMeters>
          </Trackpoint>
          <Trackpoint>
            <Time>2021-08-01T11:39:40.000Z</Time>
            <Position>
              <LatitudeDegrees>-15.44656033627688884735107421875</LatitudeDegrees>
              <LongitudeDegrees>37.04746627248823642730712890625</LongitudeDegrees>
            </Position>
            <AltitudeMeters>789.5999755859375</AltitudeMeters>
            <DistanceMeters>8044.9188991005</DistanceMeters>
          </Trackpoint>
          <Trackpoint>
            <Time>2021-08-01T11:39:42.000Z</Time>
            <Position>
              <LatitudeDegrees>-15.4465625993907451629638671875</LatitudeDegrees>
              <LongitudeDegrees>37.047488652169704437255859375</LongitudeDegrees>
            </Position>
            <AltitudeMeters>790</AltitudeMeters>
            <DistanceMeters>8047.3341484422</DistanceMeters>
          </Trackpoint>
          <Trackpoint>
            <Time>2021-08-01T11:39:52.000Z</Time>
            <Position>
              <LatitudeDegrees>-15.4465533792972564697265625</LatitudeDegrees>
              <LongitudeDegrees>37.0475976169109344482421875</LongitudeDegrees>
            </Position>
            <AltitudeMeters>790.5999755859375</AltitudeMeters>
            <DistanceMeters>8059.069082007</DistanceMeters>
          </Trackpoint>
          <Trackpoint>
            <Time>2021-08-01T11:39:55.000Z</Time>
            <Position>
              <LatitudeDegrees>-15.44653217308223247528076171875</LatitudeDegrees>
              <LongitudeDegrees>37.04763005487620830535888671875</LongitudeDegrees>
            </Position>
            <AltitudeMeters>790.79998779296875</AltitudeMeters>
            <DistanceMeters>8063.2750206364</DistanceMeters>
          </Trackpoint>
          <Trackpoint>
            <Time>2021-08-01T11:40:01.000Z</Time>
            <Position>
              <LatitudeDegrees>-15.446534939110279083251953125</LatitudeDegrees>
              <LongitudeDegrees>37.047678418457508087158203125</LongitudeDegrees>
            </Position>
            <AltitudeMeters>791.20001220703125</AltitudeMeters>
            <DistanceMeters>8068.4729037363</DistanceMeters>
          </Trackpoint>
          <Trackpoint>
            <Time>2021-08-01T11:40:06.000Z</Time>
            <Position>
              <LatitudeDegrees>-15.44650468043982982635498046875</LatitudeDegrees>
              <LongitudeDegrees>37.0477101020514965057373046875</LongitudeDegrees>
            </Position>
            <AltitudeMeters>792</AltitudeMeters>
            <DistanceMeters>8073.2573832049</DistanceMeters>
          </Trackpoint>
          <Trackpoint>
            <Time>2021-08-01T11:40:11.000Z</Time>
            <Position>
              <LatitudeDegrees>-15.4464621841907501220703125</LatitudeDegrees>
              <LongitudeDegrees>37.04774052836000919342041015625</LongitudeDegrees>
            </Position>
            <AltitudeMeters>792.20001220703125</AltitudeMeters>
            <DistanceMeters>8079.003946487</DistanceMeters>
          </Trackpoint>
          <Trackpoint>
            <Time>2021-08-01T11:40:17.000Z</Time>
            <Position>
              <LatitudeDegrees>-15.446418933570384979248046875</LatitudeDegrees>
              <LongitudeDegrees>37.04776936210691928863525390625</LongitudeDegrees>
            </Position>
            <AltitudeMeters>793</AltitudeMeters>
            <DistanceMeters>8084.7261014295</DistanceMeters>
          </Trackpoint>
          <Trackpoint>
            <Time>2021-08-01T11:40:19.000Z</Time>
            <Position>
              <LatitudeDegrees>-15.44640225358307361602783203125</LatitudeDegrees>
              <LongitudeDegrees>37.047779671847820281982421875</LongitudeDegrees>
            </Position>
            <AltitudeMeters>793.4000244140625</AltitudeMeters>
            <DistanceMeters>8086.8867840812</DistanceMeters>
          </Trackpoint>
          <Trackpoint>
            <Time>2021-08-01T11:40:26.000Z</Time>
            <Position>
              <LatitudeDegrees>-15.4463322646915912628173828125</LatitudeDegrees>
              <LongitudeDegrees>37.04780238680541515350341796875</LongitudeDegrees>
            </Position>
            <AltitudeMeters>794.20001220703125</AltitudeMeters>
            <DistanceMeters>8095.0491308028</DistanceMeters>
          </Trackpoint>
          <Trackpoint>
            <Time>2021-08-01T11:40:31.000Z</Time>
            <Position>
              <LatitudeDegrees>-15.446290858089923858642578125</LatitudeDegrees>
              <LongitudeDegrees>37.0478281192481517791748046875</LongitudeDegrees>
            </Position>
            <AltitudeMeters>794.4000244140625</AltitudeMeters>
            <DistanceMeters>8100.4212927805</DistanceMeters>
          </Trackpoint>
          <Trackpoint>
            <Time>2021-08-01T11:40:39.000Z</Time>
            <Position>
              <LatitudeDegrees>-15.446218438446521759033203125</LatitudeDegrees>
              <LongitudeDegrees>37.047857455909252166748046875</LongitudeDegrees>
            </Position>
            <AltitudeMeters>795.4000244140625</AltitudeMeters>
            <DistanceMeters>8109.074465255</DistanceMeters>
          </Trackpoint>
          <Trackpoint>
            <Time>2021-08-01T11:40:41.000Z</Time>
            <Position>
              <LatitudeDegrees>-15.446200333535671234130859375</LatitudeDegrees>
              <LongitudeDegrees>37.0478680171072483062744140625</LongitudeDegrees>
            </Position>
            <AltitudeMeters>795.5999755859375</AltitudeMeters>
            <DistanceMeters>8111.3865650052</DistanceMeters>
          </Trackpoint>
          <Trackpoint>
            <Time>2021-08-01T11:40:49.000Z</Time>
            <Position>
              <LatitudeDegrees>-15.44613554142415523529052734375</LatitudeDegrees>
              <LongitudeDegrees>37.04791101627051830291748046875</LongitudeDegrees>
            </Position>
            <AltitudeMeters>796.4000244140625</AltitudeMeters>
            <DistanceMeters>8119.9463570743</DistanceMeters>
          </Trackpoint>
          <Trackpoint>
            <Time>2021-08-01T11:40:50.000Z</Time>
            <Position>
              <LatitudeDegrees>-15.44612665660679340362548828125</LatitudeDegrees>
              <LongitudeDegrees>37.04791470430791378021240234375</LongitudeDegrees>
            </Position>
            <AltitudeMeters>796.5999755859375</AltitudeMeters>
            <DistanceMeters>8121.0130292976</DistanceMeters>
          </Trackpoint>
          <Trackpoint>
            <Time>2021-08-01T11:40:54.000Z</Time>
            <Position>
              <LatitudeDegrees>-15.4460861720144748687744140625</LatitudeDegrees>
              <LongitudeDegrees>37.0479303784668445587158203125</LongitudeDegrees>
            </Position>
            <AltitudeMeters>797.20001220703125</AltitudeMeters>
            <DistanceMeters>8125.8229207568</DistanceMeters>
          </Trackpoint>
          <Trackpoint>
            <Time>2021-08-01T11:40:57.000Z</Time>
            <Position>
              <LatitudeDegrees>-15.44605708681046962738037109375</LatitudeDegrees>
              <LongitudeDegrees>37.0479471422731876373291015625</LongitudeDegrees>
            </Position>
            <AltitudeMeters>797.20001220703125</AltitudeMeters>
            <DistanceMeters>8129.5289626173</DistanceMeters>
          </Trackpoint>
          <Trackpoint>
            <Time>2021-08-01T11:40:58.000Z</Time>
            <Position>
              <LatitudeDegrees>-15.44604786671698093414306640625</LatitudeDegrees>
              <LongitudeDegrees>37.047953344881534576416015625</LongitudeDegrees>
            </Position>
            <AltitudeMeters>797.4000244140625</AltitudeMeters>
            <DistanceMeters>8130.7569784014</DistanceMeters>
          </Trackpoint>
          <Trackpoint>
            <Time>2021-08-01T11:40:59.000Z</Time>
            <Position>
              <LatitudeDegrees>-15.44603831134736537933349609375</LatitudeDegrees>
              <LongitudeDegrees>37.04795946367084980010986328125</LongitudeDegrees>
            </Position>
            <AltitudeMeters>797.4000244140625</AltitudeMeters>
            <DistanceMeters>8132.0068596857</DistanceMeters>
          </Trackpoint>
          <Trackpoint>
            <Time>2021-08-01T11:41:03.000Z</Time>
            <Position>
              <LatitudeDegrees>-15.44599749147891998291015625</LatitudeDegrees>
              <LongitudeDegrees>37.04797270707786083221435546875</LongitudeDegrees>
            </Position>
            <AltitudeMeters>797.5999755859375</AltitudeMeters>
            <DistanceMeters>8136.7676885919</DistanceMeters>
          </Trackpoint>
          <Trackpoint>
            <Time>2021-08-01T11:41:04.000Z</Time>
            <Position>
              <LatitudeDegrees>-15.445987768471240997314453125</LatitudeDegrees>
              <LongitudeDegrees>37.04797136597335338592529296875</LongitudeDegrees>
            </Position>
            <AltitudeMeters>797.79998779296875</AltitudeMeters>
            <DistanceMeters>8137.8553190504</DistanceMeters>
          </Trackpoint>
          <Trackpoint>
            <Time>2021-08-01T11:41:06.000Z</Time>
            <Position>
              <LatitudeDegrees>-15.4459658078849315643310546875</LatitudeDegrees>
              <LongitudeDegrees>37.047978155314922332763671875</LongitudeDegrees>
            </Position>
            <AltitudeMeters>797.79998779296875</AltitudeMeters>
            <DistanceMeters>8140.4051533665</DistanceMeters>
          </Trackpoint>
          <Trackpoint>
            <Time>2021-08-01T11:41:08.000Z</Time>
            <Position>
              <LatitudeDegrees>-15.4459477029740810394287109375</LatitudeDegrees>
              <LongitudeDegrees>37.0479950867593288421630859375</LongitudeDegrees>
            </Position>
            <AltitudeMeters>797.79998779296875</AltitudeMeters>
            <DistanceMeters>8143.1163306431</DistanceMeters>
          </Trackpoint>
          <Trackpoint>
            <Time>2021-08-01T11:41:15.000Z</Time>
            <Position>
              <LatitudeDegrees>-15.44587075710296630859375</LatitudeDegrees>
              <LongitudeDegrees>37.04802609980106353759765625</LongitudeDegrees>
            </Position>
            <AltitudeMeters>798.4000244140625</AltitudeMeters>
            <DistanceMeters>8152.3039938171</DistanceMeters>
          </Trackpoint>
          <Trackpoint>
            <Time>2021-08-01T11:41:19.000Z</Time>
            <Position>
              <LatitudeDegrees>-15.4458249919116497039794921875</LatitudeDegrees>
              <LongitudeDegrees>37.0480393432080745697021484375</LongitudeDegrees>
            </Position>
            <AltitudeMeters>798.5999755859375</AltitudeMeters>
            <DistanceMeters>8157.5931503494</DistanceMeters>
          </Trackpoint>
          <Trackpoint>
            <Time>2021-08-01T11:41:22.000Z</Time>
            <Position>
              <LatitudeDegrees>-15.44579389505088329315185546875</LatitudeDegrees>
              <LongitudeDegrees>37.04805652610957622528076171875</LongitudeDegrees>
            </Position>
            <AltitudeMeters>798.5999755859375</AltitudeMeters>
            <DistanceMeters>8161.5146577361</DistanceMeters>
          </Trackpoint>
          <Trackpoint>
            <Time>2021-08-01T11:41:29.000Z</Time>
            <Position>
              <LatitudeDegrees>-15.4457234032452106475830078125</LatitudeDegrees>
              <LongitudeDegrees>37.04810111783444881439208984375</LongitudeDegrees>
            </Position>
            <AltitudeMeters>799.20001220703125</AltitudeMeters>
            <DistanceMeters>8170.7042863959</DistanceMeters>
          </Trackpoint>
          <Trackpoint>
            <Time>2021-08-01T11:41:31.000Z</Time>
            <Position>
              <LatitudeDegrees>-15.4457058012485504150390625</LatitudeDegrees>
              <LongitudeDegrees>37.048115618526935577392578125</LongitudeDegrees>
            </Position>
            <AltitudeMeters>799.4000244140625</AltitudeMeters>
            <DistanceMeters>8173.2040489644</DistanceMeters>
          </Trackpoint>
          <Trackpoint>
            <Time>2021-08-01T11:41:36.000Z</Time>
            <Position>
              <LatitudeDegrees>-15.44565592892467975616455078125</LatitudeDegrees>
              <LongitudeDegrees>37.0481449551880359649658203125</LongitudeDegrees>
            </Position>
            <AltitudeMeters>799.79998779296875</AltitudeMeters>
            <DistanceMeters>8179.5857136973</DistanceMeters>
          </Trackpoint>
          <Trackpoint>
            <Time>2021-08-01T11:41:41.000Z</Time>
            <Position>
              <LatitudeDegrees>-15.4456084035336971282958984375</LatitudeDegrees>
              <LongitudeDegrees>37.04817923717200756072998046875</LongitudeDegrees>
            </Position>
            <AltitudeMeters>799.79998779296875</AltitudeMeters>
            <DistanceMeters>8186.0286370565</DistanceMeters>
          </Trackpoint>
          <Trackpoint>
            <Time>2021-08-01T11:41:53.000Z</Time>
            <Position>
              <LatitudeDegrees>-15.44549524784088134765625</LatitudeDegrees>
              <LongitudeDegrees>37.04826707951724529266357421875</LongitudeDegrees>
            </Position>
            <AltitudeMeters>800.20001220703125</AltitudeMeters>
            <DistanceMeters>8201.7583571609</DistanceMeters>
          </Trackpoint>
          <Trackpoint>
            <Time>2021-08-01T11:41:57.000Z</Time>
            <Position>
              <LatitudeDegrees>-15.44545970857143402099609375</LatitudeDegrees>
              <LongitudeDegrees>37.048307396471500396728515625</LongitudeDegrees>
            </Position>
            <AltitudeMeters>800.5999755859375</AltitudeMeters>
            <DistanceMeters>8207.6192795109</DistanceMeters>
          </Trackpoint>
          <Trackpoint>
            <Time>2021-08-01T11:42:01.000Z</Time>
            <Position>
              <LatitudeDegrees>-15.44542123563587665557861328125</LatitudeDegrees>
              <LongitudeDegrees>37.04833262600004673004150390625</LongitudeDegrees>
            </Position>
            <AltitudeMeters>800.5999755859375</AltitudeMeters>
            <DistanceMeters>8212.6843014435</DistanceMeters>
          </Trackpoint>
          <Trackpoint>
            <Time>2021-08-01T11:42:03.000Z</Time>
            <Position>
              <LatitudeDegrees>-15.44540279544889926910400390625</LatitudeDegrees>
              <LongitudeDegrees>37.0483488030731678009033203125</LongitudeDegrees>
            </Position>
            <AltitudeMeters>800.79998779296875</AltitudeMeters>
            <DistanceMeters>8215.3720628085</DistanceMeters>
          </Trackpoint>
          <Trackpoint>
            <Time>2021-08-01T11:42:12.000Z</Time>
            <Position>
              <LatitudeDegrees>-15.4453214071691036224365234375</LatitudeDegrees>
              <LongitudeDegrees>37.04840621910989284515380859375</LongitudeDegrees>
            </Position>
            <AltitudeMeters>802</AltitudeMeters>
            <DistanceMeters>8226.3265452638</DistanceMeters>
          </Trackpoint>
          <Trackpoint>
            <Time>2021-08-01T11:42:21.000Z</Time>
            <Position>
              <LatitudeDegrees>-15.44523716904222965240478515625</LatitudeDegrees>
              <LongitudeDegrees>37.04846464097499847412109375</LongitudeDegrees>
            </Position>
            <AltitudeMeters>803</AltitudeMeters>
            <DistanceMeters>8237.6043387853</DistanceMeters>
          </Trackpoint>
          <Trackpoint>
            <Time>2021-08-01T11:42:25.000Z</Time>
            <Position>
              <LatitudeDegrees>-15.44520598836243152618408203125</LatitudeDegrees>
              <LongitudeDegrees>37.0484892837703227996826171875</LongitudeDegrees>
            </Position>
            <AltitudeMeters>803.4000244140625</AltitudeMeters>
            <DistanceMeters>8241.9672966288</DistanceMeters>
          </Trackpoint>
          <Trackpoint>
            <Time>2021-08-01T11:42:26.000Z</Time>
            <Position>
              <LatitudeDegrees>-15.44519894756376743316650390625</LatitudeDegrees>
              <LongitudeDegrees>37.04849640838801860809326171875</LongitudeDegrees>
            </Position>
            <AltitudeMeters>803.79998779296875</AltitudeMeters>
            <DistanceMeters>8243.0631981604</DistanceMeters>
          </Trackpoint>
          <Trackpoint>
            <Time>2021-08-01T11:42:28.000Z</Time>
            <Position>
              <LatitudeDegrees>-15.4451822675764560699462890625</LatitudeDegrees>
              <LongitudeDegrees>37.04850847832858562469482421875</LongitudeDegrees>
            </Position>
            <AltitudeMeters>804</AltitudeMeters>
            <DistanceMeters>8245.3259516476</DistanceMeters>
          </Trackpoint>
          <Trackpoint>
            <Time>2021-08-01T11:42:36.000Z</Time>
            <Position>
              <LatitudeDegrees>-15.445120744407176971435546875</LatitudeDegrees>
              <LongitudeDegrees>37.0485707558691501617431640625</LongitudeDegrees>
            </Position>
            <AltitudeMeters>805.20001220703125</AltitudeMeters>
            <DistanceMeters>8254.89302303</DistanceMeters>
          </Trackpoint>
          <Trackpoint>
            <Time>2021-08-01T11:42:45.000Z</Time>
            <Position>
              <LatitudeDegrees>-15.44504438526928424835205078125</LatitudeDegrees>
              <LongitudeDegrees>37.048658765852451324462890625</LongitudeDegrees>
            </Position>
            <AltitudeMeters>806</AltitudeMeters>
            <DistanceMeters>8267.596427933</DistanceMeters>
          </Trackpoint>
          <Trackpoint>
            <Time>2021-08-01T11:42:48.000Z</Time>
            <Position>
              <LatitudeDegrees>-15.44503097422420978546142578125</LatitudeDegrees>
              <LongitudeDegrees>37.04870897345244884490966796875</LongitudeDegrees>
            </Position>
            <AltitudeMeters>806.20001220703125</AltitudeMeters>
            <DistanceMeters>8273.1860669639</DistanceMeters>
          </Trackpoint>
          <Trackpoint>
            <Time>2021-08-01T11:42:51.000Z</Time>
            <Position>
              <LatitudeDegrees>-15.44502762146294116973876953125</LatitudeDegrees>
              <LongitudeDegrees>37.04875172115862369537353515625</LongitudeDegrees>
            </Position>
            <AltitudeMeters>806.4000244140625</AltitudeMeters>
            <DistanceMeters>8277.7877546175</DistanceMeters>
          </Trackpoint>
          <Trackpoint>
            <Time>2021-08-01T11:42:55.000Z</Time>
            <Position>
              <LatitudeDegrees>-15.4450379312038421630859375</LatitudeDegrees>
              <LongitudeDegrees>37.04881056211888790130615234375</LongitudeDegrees>
            </Position>
            <AltitudeMeters>806.4000244140625</AltitudeMeters>
            <DistanceMeters>8284.2039932748</DistanceMeters>
          </Trackpoint>
          <Trackpoint>
            <Time>2021-08-01T11:42:57.000Z</Time>
            <Position>
              <LatitudeDegrees>-15.4450508393347263336181640625</LatitudeDegrees>
              <LongitudeDegrees>37.048837132751941680908203125</LongitudeDegrees>
            </Position>
            <AltitudeMeters>806.4000244140625</AltitudeMeters>
            <DistanceMeters>8287.3969474407</DistanceMeters>
          </Trackpoint>
          <Trackpoint>
            <Time>2021-08-01T11:43:05.000Z</Time>
            <Position>
              <LatitudeDegrees>-15.445097275078296661376953125</LatitudeDegrees>
              <LongitudeDegrees>37.04892656765878200531005859375</LongitudeDegrees>
            </Position>
            <AltitudeMeters>806.5999755859375</AltitudeMeters>
            <DistanceMeters>8298.2948172046</DistanceMeters>
          </Trackpoint>
          <Trackpoint>
            <Time>2021-08-01T11:43:15.000Z</Time>
            <Position>
              <LatitudeDegrees>-15.44517229311168193817138671875</LatitudeDegrees>
              <LongitudeDegrees>37.04902832396328449249267578125</LongitudeDegrees>
            </Position>
            <AltitudeMeters>807.20001220703125</AltitudeMeters>
            <DistanceMeters>8312.0385844849</DistanceMeters>
          </Trackpoint>
          <Trackpoint>
            <Time>2021-08-01T11:43:19.000Z</Time>
            <Position>
              <LatitudeDegrees>-15.4451973550021648406982421875</LatitudeDegrees>
              <LongitudeDegrees>37.04906973056495189666748046875</LongitudeDegrees>
            </Position>
            <AltitudeMeters>807.4000244140625</AltitudeMeters>
            <DistanceMeters>8317.284024688</DistanceMeters>
          </Trackpoint>
          <Trackpoint>
            <Time>2021-08-01T11:43:25.000Z</Time>
            <Position>
              <LatitudeDegrees>-15.44523666612803936004638671875</LatitudeDegrees>
              <LongitudeDegrees>37.0491273142397403717041015625</LongitudeDegrees>
            </Position>
            <AltitudeMeters>808.20001220703125</AltitudeMeters>
            <DistanceMeters>8324.8540223837</DistanceMeters>
          </Trackpoint>
          <Trackpoint>
            <Time>2021-08-01T11:43:28.000Z</Time>
            <Position>
              <LatitudeDegrees>-15.44524722732603549957275390625</LatitudeDegrees>
              <LongitudeDegrees>37.04916377551853656768798828125</LongitudeDegrees>
            </Position>
            <AltitudeMeters>808.5999755859375</AltitudeMeters>
            <DistanceMeters>8328.9390659904</DistanceMeters>
          </Trackpoint>
          <Trackpoint>
            <Time>2021-08-01T11:43:33.000Z</Time>
            <Position>
              <LatitudeDegrees>-15.44525560922920703887939453125</LatitudeDegrees>
              <LongitudeDegrees>37.0492225326597690582275390625</LongitudeDegrees>
            </Position>
            <AltitudeMeters>809.5999755859375</AltitudeMeters>
            <DistanceMeters>8335.3108180016</DistanceMeters>
          </Trackpoint>
          <Trackpoint>
            <Time>2021-08-01T11:43:34.000Z</Time>
            <Position>
              <LatitudeDegrees>-15.445257537066936492919921875</LatitudeDegrees>
              <LongitudeDegrees>37.04923502169549465179443359375</LongitudeDegrees>
            </Position>
            <AltitudeMeters>809.5999755859375</AltitudeMeters>
            <DistanceMeters>8336.6680709605</DistanceMeters>
          </Trackpoint>
          <Trackpoint>
            <Time>2021-08-01T11:43:35.000Z</Time>
            <Position>
              <LatitudeDegrees>-15.44526013545691967010498046875</LatitudeDegrees>
              <LongitudeDegrees>37.04924742691218852996826171875</LongitudeDegrees>
            </Position>
            <AltitudeMeters>810.20001220703125</AltitudeMeters>
            <DistanceMeters>8338.0319608928</DistanceMeters>
          </Trackpoint>
          <Trackpoint>
            <Time>2021-08-01T11:43:40.000Z</Time>
            <Position>
              <LatitudeDegrees>-15.44527270831167697906494140625</LatitudeDegrees>
              <LongitudeDegrees>37.04930375330150127410888671875</LongitudeDegrees>
            </Position>
            <AltitudeMeters>811</AltitudeMeters>
            <DistanceMeters>8344.2349565988</DistanceMeters>
          </Trackpoint>
          <Trackpoint>
            <Time>2021-08-01T11:43:45.000Z</Time>
            <Position>
              <LatitudeDegrees>-15.44527237303555011749267578125</LatitudeDegrees>
              <LongitudeDegrees>37.0493472553789615631103515625</LongitudeDegrees>
            </Position>
            <AltitudeMeters>811.79998779296875</AltitudeMeters>
            <DistanceMeters>8348.9028870245</DistanceMeters>
          </Trackpoint>
          <Trackpoint>
            <Time>2021-08-01T11:43:46.000Z</Time>
            <Position>
              <LatitudeDegrees>-15.44527187012135982513427734375</LatitudeDegrees>
              <LongitudeDegrees>37.049356140196323394775390625</LongitudeDegrees>
            </Position>
            <AltitudeMeters>811.79998779296875</AltitudeMeters>
            <DistanceMeters>8349.8578936846</DistanceMeters>
          </Trackpoint>
          <Trackpoint>
            <Time>2021-08-01T11:43:47.000Z</Time>
            <Position>
              <LatitudeDegrees>-15.445270948112010955810546875</LatitudeDegrees>
              <LongitudeDegrees>37.04936695285141468048095703125</LongitudeDegrees>
            </Position>
            <AltitudeMeters>812.20001220703125</AltitudeMeters>
            <DistanceMeters>8351.0217284953</DistanceMeters>
          </Trackpoint>
          <Trackpoint>
            <Time>2021-08-01T11:43:52.000Z</Time>
            <Position>
              <LatitudeDegrees>-15.44526658952236175537109375</LatitudeDegrees>
              <LongitudeDegrees>37.04941858537495136260986328125</LongitudeDegrees>
            </Position>
            <AltitudeMeters>813.4000244140625</AltitudeMeters>
            <DistanceMeters>8356.5814003982</DistanceMeters>
          </Trackpoint>
          <Trackpoint>
            <Time>2021-08-01T11:44:00.000Z</Time>
            <Position>
              <LatitudeDegrees>-15.44526650570333003997802734375</LatitudeDegrees>
              <LongitudeDegrees>37.0494954474270343780517578125</LongitudeDegrees>
            </Position>
            <AltitudeMeters>814.5999755859375</AltitudeMeters>
            <DistanceMeters>8364.8273979499</DistanceMeters>
          </Trackpoint>
          <Trackpoint>
            <Time>2021-08-01T11:44:01.000Z</Time>
            <Position>
              <LatitudeDegrees>-15.44526549987494945526123046875</LatitudeDegrees>
              <LongitudeDegrees>37.04950743354856967926025390625</LongitudeDegrees>
            </Position>
            <AltitudeMeters>814.5999755859375</AltitudeMeters>
            <DistanceMeters>8366.116403018</DistanceMeters>
          </Trackpoint>
          <Trackpoint>
            <Time>2021-08-01T11:44:09.000Z</Time>
            <Position>
              <LatitudeDegrees>-15.445263572037220001220703125</LatitudeDegrees>
              <LongitudeDegrees>37.04960499890148639678955078125</LongitudeDegrees>
            </Position>
            <AltitudeMeters>815.79998779296875</AltitudeMeters>
            <DistanceMeters>8376.5857424373</DistanceMeters>
          </Trackpoint>
          <Trackpoint>
            <Time>2021-08-01T11:44:11.000Z</Time>
            <Position>
              <LatitudeDegrees>-15.4452640749514102935791015625</LatitudeDegrees>
              <LongitudeDegrees>37.049628384411334991455078125</LongitudeDegrees>
            </Position>
            <AltitudeMeters>815.79998779296875</AltitudeMeters>
            <DistanceMeters>8379.0963187373</DistanceMeters>
          </Trackpoint>
          <Trackpoint>
            <Time>2021-08-01T11:44:12.000Z</Time>
            <Position>
              <LatitudeDegrees>-15.44526415877044200897216796875</LatitudeDegrees>
              <LongitudeDegrees>37.04964238218963146209716796875</LongitudeDegrees>
            </Position>
            <AltitudeMeters>816</AltitudeMeters>
            <DistanceMeters>8380.5988230171</DistanceMeters>
          </Trackpoint>
          <Trackpoint>
            <Time>2021-08-01T11:44:13.000Z</Time>
            <Position>
              <LatitudeDegrees>-15.4452632367610931396484375</LatitudeDegrees>
              <LongitudeDegrees>37.04965713433921337127685546875</LongitudeDegrees>
            </Position>
            <AltitudeMeters>816</AltitudeMeters>
            <DistanceMeters>8382.1860820785</DistanceMeters>
          </Trackpoint>
          <Trackpoint>
            <Time>2021-08-01T11:44:15.000Z</Time>
            <Position>
              <LatitudeDegrees>-15.4452627338469028472900390625</LatitudeDegrees>
              <LongitudeDegrees>37.0496821962296962738037109375</LongitudeDegrees>
            </Position>
            <AltitudeMeters>816.4000244140625</AltitudeMeters>
            <DistanceMeters>8384.877201048</DistanceMeters>
          </Trackpoint>
          <Trackpoint>
            <Time>2021-08-01T11:44:18.000Z</Time>
            <Position>
              <LatitudeDegrees>-15.44526097364723682403564453125</LatitudeDegrees>
              <LongitudeDegrees>37.04971647821366786956787109375</LongitudeDegrees>
            </Position>
            <AltitudeMeters>816.79998779296875</AltitudeMeters>
            <DistanceMeters>8388.5612484005</DistanceMeters>
          </Trackpoint>
          <Trackpoint>
            <Time>2021-08-01T11:44:24.000Z</Time>
            <Position>
              <LatitudeDegrees>-15.44525292702019214630126953125</LatitudeDegrees>
              <LongitudeDegrees>37.04978470690548419952392578125</LongitudeDegrees>
            </Position>
            <AltitudeMeters>817.4000244140625</AltitudeMeters>
            <DistanceMeters>8395.9354683827</DistanceMeters>
          </Trackpoint>
          <Trackpoint>
            <Time>2021-08-01T11:44:29.000Z</Time>
            <Position>
              <LatitudeDegrees>-15.445244796574115753173828125</LatitudeDegrees>
              <LongitudeDegrees>37.04983449541032314300537109375</LongitudeDegrees>
            </Position>
            <AltitudeMeters>817.79998779296875</AltitudeMeters>
            <DistanceMeters>8401.3536579806</DistanceMeters>
          </Trackpoint>
          <Trackpoint>
            <Time>2021-08-01T11:44:34.000Z</Time>
            <Position>
              <LatitudeDegrees>-15.4452342353761196136474609375</LatitudeDegrees>
              <LongitudeDegrees>37.04989266581833362579345703125</LongitudeDegrees>
            </Position>
            <AltitudeMeters>818.5999755859375</AltitudeMeters>
            <DistanceMeters>8407.7034053238</DistanceMeters>
          </Trackpoint>
          <Trackpoint>
            <Time>2021-08-01T11:44:38.000Z</Time>
            <Position>
              <LatitudeDegrees>-15.445224344730377197265625</LatitudeDegrees>
              <LongitudeDegrees>37.04994253814220428466796875</LongitudeDegrees>
            </Position>
            <AltitudeMeters>818.79998779296875</AltitudeMeters>
            <DistanceMeters>8413.1655818653</DistanceMeters>
          </Trackpoint>
          <Trackpoint>
            <Time>2021-08-01T11:44:47.000Z</Time>
            <Position>
              <LatitudeDegrees>-15.44519685208797454833984375</LatitudeDegrees>
              <LongitudeDegrees>37.05004052259027957916259765625</LongitudeDegrees>
            </Position>
            <AltitudeMeters>819.79998779296875</AltitudeMeters>
            <DistanceMeters>8424.113880122</DistanceMeters>
          </Trackpoint>
          <Trackpoint>
            <Time>2021-08-01T11:44:50.000Z</Time>
            <Position>
              <LatitudeDegrees>-15.44518017210066318511962890625</LatitudeDegrees>
              <LongitudeDegrees>37.0500732958316802978515625</LongitudeDegrees>
            </Position>
            <AltitudeMeters>820</AltitudeMeters>
            <DistanceMeters>8428.0902684146</DistanceMeters>
          </Trackpoint>
          <Trackpoint>
            <Time>2021-08-01T11:44:55.000Z</Time>
            <Position>
              <LatitudeDegrees>-15.4451598040759563446044921875</LatitudeDegrees>
              <LongitudeDegrees>37.050122581422328948974609375</LongitudeDegrees>
            </Position>
            <AltitudeMeters>820.4000244140625</AltitudeMeters>
            <DistanceMeters>8433.843113812</DistanceMeters>
          </Trackpoint>
          <Trackpoint>
            <Time>2021-08-01T11:44:57.000Z</Time>
            <Position>
              <LatitudeDegrees>-15.44515469111502170562744140625</LatitudeDegrees>
              <LongitudeDegrees>37.05014328472316265106201171875</LongitudeDegrees>
            </Position>
            <AltitudeMeters>820.79998779296875</AltitudeMeters>
            <DistanceMeters>8436.1356025231</DistanceMeters>
          </Trackpoint>
          <Trackpoint>
            <Time>2021-08-01T11:45:01.000Z</Time>
            <Position>
              <LatitudeDegrees>-15.44514496810734272003173828125</LatitudeDegrees>
              <LongitudeDegrees>37.050184942781925201416015625</LongitudeDegrees>
            </Position>
            <AltitudeMeters>821</AltitudeMeters>
            <DistanceMeters>8440.7333638213</DistanceMeters>
          </Trackpoint>
          <Trackpoint>
            <Time>2021-08-01T11:45:05.000Z</Time>
            <Position>
              <LatitudeDegrees>-15.4451370052993297576904296875</LatitudeDegrees>
              <LongitudeDegrees>37.05022861249744892120361328125</LongitudeDegrees>
            </Position>
            <AltitudeMeters>821.20001220703125</AltitudeMeters>
            <DistanceMeters>8445.5017736701</DistanceMeters>
          </Trackpoint>
          <Trackpoint>
            <Time>2021-08-01T11:45:13.000Z</Time>
            <Position>
              <LatitudeDegrees>-15.4451088421046733856201171875</LatitudeDegrees>
              <LongitudeDegrees>37.05031259916722774505615234375</LongitudeDegrees>
            </Position>
            <AltitudeMeters>822.20001220703125</AltitudeMeters>
            <DistanceMeters>8455.042380074</DistanceMeters>
          </Trackpoint>
          <Trackpoint>
            <Time>2021-08-01T11:45:15.000Z</Time>
            <Position>
              <LatitudeDegrees>-15.4451014660298824310302734375</LatitudeDegrees>
              <LongitudeDegrees>37.05033070407807826995849609375</LongitudeDegrees>
            </Position>
            <AltitudeMeters>822.4000244140625</AltitudeMeters>
            <DistanceMeters>8457.1523155439</DistanceMeters>
          </Trackpoint>
          <Trackpoint>
            <Time>2021-08-01T11:45:26.000Z</Time>
            <Position>
              <LatitudeDegrees>-15.44504840858280658721923828125</LatitudeDegrees>
              <LongitudeDegrees>37.05044017173349857330322265625</LongitudeDegrees>
            </Position>
            <AltitudeMeters>823.4000244140625</AltitudeMeters>
            <DistanceMeters>8470.2972960595</DistanceMeters>
          </Trackpoint>
          <Trackpoint>
            <Time>2021-08-01T11:45:30.000Z</Time>
            <Position>
              <LatitudeDegrees>-15.44502544216811656951904296875</LatitudeDegrees>
              <LongitudeDegrees>37.05048325471580028533935546875</LongitudeDegrees>
            </Position>
            <AltitudeMeters>823.79998779296875</AltitudeMeters>
            <DistanceMeters>8475.5787642394</DistanceMeters>
          </Trackpoint>
          <Trackpoint>
            <Time>2021-08-01T11:45:35.000Z</Time>
            <Position>
              <LatitudeDegrees>-15.44499912299215793609619140625</LatitudeDegrees>
              <LongitudeDegrees>37.05053664743900299072265625</LongitudeDegrees>
            </Position>
            <AltitudeMeters>824</AltitudeMeters>
            <DistanceMeters>8482.0132728061</DistanceMeters>
          </Trackpoint>
          <Trackpoint>
            <Time>2021-08-01T11:45:42.000Z</Time>
            <Position>
              <LatitudeDegrees>-15.44496274553239345550537109375</LatitudeDegrees>
              <LongitudeDegrees>37.05061183311045169830322265625</LongitudeDegrees>
            </Position>
            <AltitudeMeters>824.4000244140625</AltitudeMeters>
            <DistanceMeters>8491.0383096218</DistanceMeters>
          </Trackpoint>
          <Trackpoint>
            <Time>2021-08-01T11:45:43.000Z</Time>
            <Position>
              <LatitudeDegrees>-15.444959141314029693603515625</LatitudeDegrees>
              <LongitudeDegrees>37.050622142851352691650390625</LongitudeDegrees>
            </Position>
            <AltitudeMeters>824.4000244140625</AltitudeMeters>
            <DistanceMeters>8492.2175601348</DistanceMeters>
          </Trackpoint>
          <Trackpoint>
            <Time>2021-08-01T11:45:45.000Z</Time>
            <Position>
              <LatitudeDegrees>-15.44495101086795330047607421875</LatitudeDegrees>
              <LongitudeDegrees>37.0506447739899158477783203125</LongitudeDegrees>
            </Position>
            <AltitudeMeters>824.5999755859375</AltitudeMeters>
            <DistanceMeters>8494.8078008182</DistanceMeters>
          </Trackpoint>
          <Trackpoint>
            <Time>2021-08-01T11:45:54.000Z</Time>
            <Position>
              <LatitudeDegrees>-15.44491480104625225067138671875</LatitudeDegrees>
              <LongitudeDegrees>37.05073873512446880340576171875</LongitudeDegrees>
            </Position>
            <AltitudeMeters>825.4000244140625</AltitudeMeters>
            <DistanceMeters>8505.6641610621</DistanceMeters>
          </Trackpoint>
          <Trackpoint>
            <Time>2021-08-01T11:45:56.000Z</Time>
            <Position>
              <LatitudeDegrees>-15.44490457512438297271728515625</LatitudeDegrees>
              <LongitudeDegrees>37.05075851641595363616943359375</LongitudeDegrees>
            </Position>
            <AltitudeMeters>825.5999755859375</AltitudeMeters>
            <DistanceMeters>8508.0719212406</DistanceMeters>
          </Trackpoint>
          <Trackpoint>
            <Time>2021-08-01T11:46:03.000Z</Time>
            <Position>
              <LatitudeDegrees>-15.44487507082521915435791015625</LatitudeDegrees>
              <LongitudeDegrees>37.05082775093615055084228515625</LongitudeDegrees>
            </Position>
            <AltitudeMeters>826.5999755859375</AltitudeMeters>
            <DistanceMeters>8516.1932313779</DistanceMeters>
          </Trackpoint>
          <Trackpoint>
            <Time>2021-08-01T11:46:04.000Z</Time>
            <Position>
              <LatitudeDegrees>-15.444871969521045684814453125</LatitudeDegrees>
              <LongitudeDegrees>37.05083562992513179779052734375</LongitudeDegrees>
            </Position>
            <AltitudeMeters>827</AltitudeMeters>
            <DistanceMeters>8517.1046956026</DistanceMeters>
          </Trackpoint>
          <Trackpoint>
            <Time>2021-08-01T11:46:12.000Z</Time>
            <Position>
              <LatitudeDegrees>-15.44483869336545467376708984375</LatitudeDegrees>
              <LongitudeDegrees>37.050900422036647796630859375</LongitudeDegrees>
            </Position>
            <AltitudeMeters>827.79998779296875</AltitudeMeters>
            <DistanceMeters>8524.9810288338</DistanceMeters>
          </Trackpoint>
          <Trackpoint>
            <Time>2021-08-01T11:46:14.000Z</Time>
            <Position>
              <LatitudeDegrees>-15.44482997618615627288818359375</LatitudeDegrees>
              <LongitudeDegrees>37.0509210415184497833251953125</LongitudeDegrees>
            </Position>
            <AltitudeMeters>828</AltitudeMeters>
            <DistanceMeters>8527.3962781756</DistanceMeters>
          </Trackpoint>
          <Trackpoint>
            <Time>2021-08-01T11:46:18.000Z</Time>
            <Position>
              <LatitudeDegrees>-15.444809608161449432373046875</LatitudeDegrees>
              <LongitudeDegrees>37.050957418978214263916015625</LongitudeDegrees>
            </Position>
            <AltitudeMeters>828.5999755859375</AltitudeMeters>
            <DistanceMeters>8531.9097970309</DistanceMeters>
          </Trackpoint>
          <Trackpoint>
            <Time>2021-08-01T11:46:22.000Z</Time>
            <Position>
              <LatitudeDegrees>-15.4447940178215503692626953125</LatitudeDegrees>
              <LongitudeDegrees>37.05099605955183506011962890625</LongitudeDegrees>
            </Position>
            <AltitudeMeters>829.20001220703125</AltitudeMeters>
            <DistanceMeters>8536.4042693031</DistanceMeters>
          </Trackpoint>
          <Trackpoint>
            <Time>2021-08-01T11:46:24.000Z</Time>
            <Position>
              <LatitudeDegrees>-15.4447839595377445220947265625</LatitudeDegrees>
              <LongitudeDegrees>37.05101273953914642333984375</LongitudeDegrees>
            </Position>
            <AltitudeMeters>829.4000244140625</AltitudeMeters>
            <DistanceMeters>8538.5163435829</DistanceMeters>
          </Trackpoint>
          <Trackpoint>
            <Time>2021-08-01T11:46:27.000Z</Time>
            <Position>
              <LatitudeDegrees>-15.44476510025560855865478515625</LatitudeDegrees>
              <LongitudeDegrees>37.051033861935138702392578125</LongitudeDegrees>
            </Position>
            <AltitudeMeters>830</AltitudeMeters>
            <DistanceMeters>8541.6072691526</DistanceMeters>
          </Trackpoint>
          <Trackpoint>
            <Time>2021-08-01T11:46:29.000Z</Time>
            <Position>
              <LatitudeDegrees>-15.44475219212472438812255859375</LatitudeDegrees>
              <LongitudeDegrees>37.0510467700660228729248046875</LongitudeDegrees>
            </Position>
            <AltitudeMeters>830.20001220703125</AltitudeMeters>
            <DistanceMeters>8543.605091414</DistanceMeters>
          </Trackpoint>
          <Trackpoint>
            <Time>2021-08-01T11:46:35.000Z</Time>
            <Position>
              <LatitudeDegrees>-15.4447125457227230072021484375</LatitudeDegrees>
              <LongitudeDegrees>37.05108624882996082305908203125</LongitudeDegrees>
            </Position>
            <AltitudeMeters>831.4000244140625</AltitudeMeters>
            <DistanceMeters>8549.7208560131</DistanceMeters>
          </Trackpoint>
          <Trackpoint>
            <Time>2021-08-01T11:46:38.000Z</Time>
            <Position>
              <LatitudeDegrees>-15.44468698091804981231689453125</LatitudeDegrees>
              <LongitudeDegrees>37.05110929906368255615234375</LongitudeDegrees>
            </Position>
            <AltitudeMeters>831.5999755859375</AltitudeMeters>
            <DistanceMeters>8553.4909144109</DistanceMeters>
          </Trackpoint>
          <Trackpoint>
            <Time>2021-08-01T11:46:44.000Z</Time>
            <Position>
              <LatitudeDegrees>-15.4446371085941791534423828125</LatitudeDegrees>
              <LongitudeDegrees>37.05114676617085933685302734375</LongitudeDegrees>
            </Position>
            <AltitudeMeters>832.5999755859375</AltitudeMeters>
            <DistanceMeters>8560.3440470949</DistanceMeters>
          </Trackpoint>
          <Trackpoint>
            <Time>2021-08-01T11:46:53.000Z</Time>
            <Position>
              <LatitudeDegrees>-15.4445620067417621612548828125</LatitudeDegrees>
              <LongitudeDegrees>37.05121315084397792816162109375</LongitudeDegrees>
            </Position>
            <AltitudeMeters>833.5999755859375</AltitudeMeters>
            <DistanceMeters>8571.3256986514</DistanceMeters>
          </Trackpoint>
          <Trackpoint>
            <Time>2021-08-01T11:47:00.000Z</Time>
            <Position>
              <LatitudeDegrees>-15.44450425542891025543212890625</LatitudeDegrees>
              <LongitudeDegrees>37.05125187523663043975830078125</LongitudeDegrees>
            </Position>
            <AltitudeMeters>834.20001220703125</AltitudeMeters>
            <DistanceMeters>8578.9793321605</DistanceMeters>
          </Trackpoint>
          <Trackpoint>
            <Time>2021-08-01T11:47:03.000Z</Time>
            <Position>
              <LatitudeDegrees>-15.44448564760386943817138671875</LatitudeDegrees>
              <LongitudeDegrees>37.05126461572945117950439453125</LongitudeDegrees>
            </Position>
            <AltitudeMeters>834.5999755859375</AltitudeMeters>
            <DistanceMeters>8581.4627858467</DistanceMeters>
          </Trackpoint>
          <Trackpoint>
            <Time>2021-08-01T11:47:07.000Z</Time>
            <Position>
              <LatitudeDegrees>-15.44445144943892955780029296875</LatitudeDegrees>
              <LongitudeDegrees>37.051278613507747650146484375</LongitudeDegrees>
            </Position>
            <AltitudeMeters>835</AltitudeMeters>
            <DistanceMeters>8585.5555589657</DistanceMeters>
          </Trackpoint>
          <Trackpoint>
            <Time>2021-08-01T11:47:10.000Z</Time>
            <Position>
              <LatitudeDegrees>-15.44442177750170230865478515625</LatitudeDegrees>
              <LongitudeDegrees>37.05129177309572696685791015625</LongitudeDegrees>
            </Position>
            <AltitudeMeters>835.20001220703125</AltitudeMeters>
            <DistanceMeters>8589.147769878</DistanceMeters>
          </Trackpoint>
          <Trackpoint>
            <Time>2021-08-01T11:47:13.000Z</Time>
            <Position>
              <LatitudeDegrees>-15.444391854107379913330078125</LatitudeDegrees>
              <LongitudeDegrees>37.0513096265494823455810546875</LongitudeDegrees>
            </Position>
            <AltitudeMeters>835.4000244140625</AltitudeMeters>
            <DistanceMeters>8592.9890125037</DistanceMeters>
          </Trackpoint>
          <Trackpoint>
            <Time>2021-08-01T11:47:15.000Z</Time>
            <Position>
              <LatitudeDegrees>-15.44437802396714687347412109375</LatitudeDegrees>
              <LongitudeDegrees>37.05131893046200275421142578125</LongitudeDegrees>
            </Position>
            <AltitudeMeters>835.5999755859375</AltitudeMeters>
            <DistanceMeters>8594.8267416975</DistanceMeters>
          </Trackpoint>
          <Trackpoint>
            <Time>2021-08-01T11:47:17.000Z</Time>
            <Position>
              <LatitudeDegrees>-15.4443628527224063873291015625</LatitudeDegrees>
              <LongitudeDegrees>37.0513324253261089324951171875</LongitudeDegrees>
            </Position>
            <AltitudeMeters>836</AltitudeMeters>
            <DistanceMeters>8597.051260048</DistanceMeters>
          </Trackpoint>
          <Trackpoint>
            <Time>2021-08-01T11:47:18.000Z</Time>
            <Position>
              <LatitudeDegrees>-15.44435539282858371734619140625</LatitudeDegrees>
              <LongitudeDegrees>37.05133921466767787933349609375</LongitudeDegrees>
            </Position>
            <AltitudeMeters>836.20001220703125</AltitudeMeters>
            <DistanceMeters>8598.1594524484</DistanceMeters>
          </Trackpoint>
          <Trackpoint>
            <Time>2021-08-01T11:47:25.000Z</Time>
            <Position>
              <LatitudeDegrees>-15.44429454021155834197998046875</LatitudeDegrees>
              <LongitudeDegrees>37.05136167816817760467529296875</LongitudeDegrees>
            </Position>
            <AltitudeMeters>836.79998779296875</AltitudeMeters>
            <DistanceMeters>8605.3489001021</DistanceMeters>
          </Trackpoint>
          <Trackpoint>
            <Time>2021-08-01T11:47:26.000Z</Time>
            <Position>
              <LatitudeDegrees>-15.44428884051740169525146484375</LatitudeDegrees>
              <LongitudeDegrees>37.0513726584613323211669921875</LongitudeDegrees>
            </Position>
            <AltitudeMeters>836.79998779296875</AltitudeMeters>
            <DistanceMeters>8606.6860444981</DistanceMeters>
          </Trackpoint>
          <Trackpoint>
            <Time>2021-08-01T11:47:28.000Z</Time>
            <Position>
              <LatitudeDegrees>-15.44427241198718547821044921875</LatitudeDegrees>
              <LongitudeDegrees>37.05138967372477054595947265625</LongitudeDegrees>
            </Position>
            <AltitudeMeters>837.20001220703125</AltitudeMeters>
            <DistanceMeters>8609.269303388</DistanceMeters>
          </Trackpoint>
          <Trackpoint>
            <Time>2021-08-01T11:47:33.000Z</Time>
            <Position>
              <LatitudeDegrees>-15.44422010891139507293701171875</LatitudeDegrees>
              <LongitudeDegrees>37.05141347832977771759033203125</LongitudeDegrees>
            </Position>
            <AltitudeMeters>837.79998779296875</AltitudeMeters>
            <DistanceMeters>8615.6261573337</DistanceMeters>
          </Trackpoint>
          <Trackpoint>
            <Time>2021-08-01T11:47:38.000Z</Time>
            <Position>
              <LatitudeDegrees>-15.4441754333674907684326171875</LatitudeDegrees>
              <LongitudeDegrees>37.051444239914417266845703125</LongitudeDegrees>
            </Position>
            <AltitudeMeters>838.4000244140625</AltitudeMeters>
            <DistanceMeters>8621.593956048</DistanceMeters>
          </Trackpoint>
          <Trackpoint>
            <Time>2021-08-01T11:47:42.000Z</Time>
            <Position>
              <LatitudeDegrees>-15.44414768926799297332763671875</LatitudeDegrees>
              <LongitudeDegrees>37.05146594904363155364990234375</LongitudeDegrees>
            </Position>
            <AltitudeMeters>839</AltitudeMeters>
            <DistanceMeters>8625.4621386533</DistanceMeters>
          </Trackpoint>
          <Trackpoint>
            <Time>2021-08-01T11:47:45.000Z</Time>
            <Position>
              <LatitudeDegrees>-15.4441244713962078094482421875</LatitudeDegrees>
              <LongitudeDegrees>37.0514849759638309478759765625</LongitudeDegrees>
            </Position>
            <AltitudeMeters>839.4000244140625</AltitudeMeters>
            <DistanceMeters>8628.7567026435</DistanceMeters>
          </Trackpoint>
          <Trackpoint>
            <Time>2021-08-01T11:47:51.000Z</Time>
            <Position>
              <LatitudeDegrees>-15.4440798796713352203369140625</LatitudeDegrees>
              <LongitudeDegrees>37.05153082497417926788330078125</LongitudeDegrees>
            </Position>
            <AltitudeMeters>840</AltitudeMeters>
            <DistanceMeters>8635.7442360661</DistanceMeters>
          </Trackpoint>
          <Trackpoint>
            <Time>2021-08-01T11:47:54.000Z</Time>
            <Position>
              <LatitudeDegrees>-15.4440587572753429412841796875</LatitudeDegrees>
              <LongitudeDegrees>37.0515443198382854461669921875</LongitudeDegrees>
            </Position>
            <AltitudeMeters>840.4000244140625</AltitudeMeters>
            <DistanceMeters>8638.5032856203</DistanceMeters>
          </Trackpoint>
          <Trackpoint>
            <Time>2021-08-01T11:48:02.000Z</Time>
            <Position>
              <LatitudeDegrees>-15.4439860023558139801025390625</LatitudeDegrees>
              <LongitudeDegrees>37.05158966593444347381591796875</LongitudeDegrees>
            </Position>
            <AltitudeMeters>841.5999755859375</AltitudeMeters>
            <DistanceMeters>8647.9502028686</DistanceMeters>
          </Trackpoint>
          <Trackpoint>
            <Time>2021-08-01T11:48:07.000Z</Time>
            <Position>
              <LatitudeDegrees>-15.44394166208803653717041015625</LatitudeDegrees>
              <LongitudeDegrees>37.05162101425230503082275390625</LongitudeDegrees>
            </Position>
            <AltitudeMeters>842.5999755859375</AltitudeMeters>
            <DistanceMeters>8653.9225392584</DistanceMeters>
          </Trackpoint>
          <Trackpoint>
            <Time>2021-08-01T11:48:08.000Z</Time>
            <Position>
              <LatitudeDegrees>-15.44393361546099185943603515625</LatitudeDegrees>
              <LongitudeDegrees>37.0516267977654933929443359375</LongitudeDegrees>
            </Position>
            <AltitudeMeters>842.79998779296875</AltitudeMeters>
            <DistanceMeters>8655.014313086</DistanceMeters>
          </Trackpoint>
          <Trackpoint>
            <Time>2021-08-01T11:48:14.000Z</Time>
            <Position>
              <LatitudeDegrees>-15.44388634152710437774658203125</LatitudeDegrees>
              <LongitudeDegrees>37.0516556315124034881591796875</LongitudeDegrees>
            </Position>
            <AltitudeMeters>843.79998779296875</AltitudeMeters>
            <DistanceMeters>8661.1182540595</DistanceMeters>
          </Trackpoint>
          <Trackpoint>
            <Time>2021-08-01T11:48:15.000Z</Time>
            <Position>
              <LatitudeDegrees>-15.44387863017618656158447265625</LatitudeDegrees>
              <LongitudeDegrees>37.051658816635608673095703125</LongitudeDegrees>
            </Position>
            <AltitudeMeters>843.79998779296875</AltitudeMeters>
            <DistanceMeters>8662.0444599017</DistanceMeters>
          </Trackpoint>
          <Trackpoint>
            <Time>2021-08-01T11:48:16.000Z</Time>
            <Position>
              <LatitudeDegrees>-15.443870164453983306884765625</LatitudeDegrees>
              <LongitudeDegrees>37.0516643486917018890380859375</LongitudeDegrees>
            </Position>
            <AltitudeMeters>843.79998779296875</AltitudeMeters>
            <DistanceMeters>8663.1607710363</DistanceMeters>
          </Trackpoint>
          <Trackpoint>
            <Time>2021-08-01T11:48:22.000Z</Time>
            <Position>
              <LatitudeDegrees>-15.4438223876059055328369140625</LatitudeDegrees>
              <LongitudeDegrees>37.05169846303761005401611328125</LongitudeDegrees>
            </Position>
            <AltitudeMeters>845.4000244140625</AltitudeMeters>
            <DistanceMeters>8669.616296018</DistanceMeters>
          </Trackpoint>
          <Trackpoint>
            <Time>2021-08-01T11:48:24.000Z</Time>
            <Position>
              <LatitudeDegrees>-15.44380654580891132354736328125</LatitudeDegrees>
              <LongitudeDegrees>37.051705084741115570068359375</LongitudeDegrees>
            </Position>
            <AltitudeMeters>845.4000244140625</AltitudeMeters>
            <DistanceMeters>8671.5168303054</DistanceMeters>
          </Trackpoint>
          <Trackpoint>
            <Time>2021-08-01T11:48:29.000Z</Time>
            <Position>
              <LatitudeDegrees>-15.44376832433044910430908203125</LatitudeDegrees>
              <LongitudeDegrees>37.05173492431640625</LongitudeDegrees>
            </Position>
            <AltitudeMeters>846.5999755859375</AltitudeMeters>
            <DistanceMeters>8676.8408710601</DistanceMeters>
          </Trackpoint>
          <Trackpoint>
            <Time>2021-08-01T11:48:34.000Z</Time>
            <Position>
              <LatitudeDegrees>-15.44372842647135257720947265625</LatitudeDegrees>
              <LongitudeDegrees>37.05176048912107944488525390625</LongitudeDegrees>
            </Position>
            <AltitudeMeters>847.4000244140625</AltitudeMeters>
            <DistanceMeters>8682.0595596458</DistanceMeters>
          </Trackpoint>
          <Trackpoint>
            <Time>2021-08-01T11:48:36.000Z</Time>
            <Position>
              <LatitudeDegrees>-15.44371283613145351409912109375</LatitudeDegrees>
              <LongitudeDegrees>37.0517702959477901458740234375</LongitudeDegrees>
            </Position>
            <AltitudeMeters>848</AltitudeMeters>
            <DistanceMeters>8684.0887749765</DistanceMeters>
          </Trackpoint>
          <Trackpoint>
            <Time>2021-08-01T11:48:43.000Z</Time>
            <Position>
              <LatitudeDegrees>-15.4436681605875492095947265625</LatitudeDegrees>
              <LongitudeDegrees>37.05181966535747051239013671875</LongitudeDegrees>
            </Position>
            <AltitudeMeters>849</AltitudeMeters>
            <DistanceMeters>8691.3544357787</DistanceMeters>
          </Trackpoint>
          <Trackpoint>
            <Time>2021-08-01T11:48:44.000Z</Time>
            <Position>
              <LatitudeDegrees>-15.443660281598567962646484375</LatitudeDegrees>
              <LongitudeDegrees>37.051825784146785736083984375</LongitudeDegrees>
            </Position>
            <AltitudeMeters>849.4000244140625</AltitudeMeters>
            <DistanceMeters>8692.4462096062</DistanceMeters>
          </Trackpoint>
          <Trackpoint>
            <Time>2021-08-01T11:48:46.000Z</Time>
            <Position>
              <LatitudeDegrees>-15.44363991357386112213134765625</LatitudeDegrees>
              <LongitudeDegrees>37.05184363760054111480712890625</LongitudeDegrees>
            </Position>
            <AltitudeMeters>850</AltitudeMeters>
            <DistanceMeters>8695.4149390667</DistanceMeters>
          </Trackpoint>
          <Trackpoint>
            <Time>2021-08-01T11:48:48.000Z</Time>
            <Position>
              <LatitudeDegrees>-15.44362683780491352081298828125</LatitudeDegrees>
              <LongitudeDegrees>37.0518621616065502166748046875</LongitudeDegrees>
            </Position>
            <AltitudeMeters>850.4000244140625</AltitudeMeters>
            <DistanceMeters>8697.8783130477</DistanceMeters>
          </Trackpoint>
          <Trackpoint>
            <Time>2021-08-01T11:48:52.000Z</Time>
            <Position>
              <LatitudeDegrees>-15.443621389567852020263671875</LatitudeDegrees>
              <LongitudeDegrees>37.0519121177494525909423828125</LongitudeDegrees>
            </Position>
            <AltitudeMeters>851</AltitudeMeters>
            <DistanceMeters>8703.2714453682</DistanceMeters>
          </Trackpoint>
          <Trackpoint>
            <Time>2021-08-01T11:48:54.000Z</Time>
            <Position>
              <LatitudeDegrees>-15.44362851418554782867431640625</LatitudeDegrees>
              <LongitudeDegrees>37.0519345812499523162841796875</LongitudeDegrees>
            </Position>
            <AltitudeMeters>851.5999755859375</AltitudeMeters>
            <DistanceMeters>8705.8088543822</DistanceMeters>
          </Trackpoint>
          <Trackpoint>
            <Time>2021-08-01T11:49:00.000Z</Time>
            <Position>
              <LatitudeDegrees>-15.4436467029154300689697265625</LatitudeDegrees>
              <LongitudeDegrees>37.05198328010737895965576171875</LongitudeDegrees>
            </Position>
            <AltitudeMeters>852.5999755859375</AltitudeMeters>
            <DistanceMeters>8711.4122083596</DistanceMeters>
          </Trackpoint>
          <Trackpoint>
            <Time>2021-08-01T11:49:02.000Z</Time>
            <Position>
              <LatitudeDegrees>-15.4436487145721912384033203125</LatitudeDegrees>
              <LongitudeDegrees>37.05199887044727802276611328125</LongitudeDegrees>
            </Position>
            <AltitudeMeters>853.20001220703125</AltitudeMeters>
            <DistanceMeters>8713.0987652308</DistanceMeters>
          </Trackpoint>
          <Trackpoint>
            <Time>2021-08-01T11:49:04.000Z</Time>
            <Position>
              <LatitudeDegrees>-15.443658269941806793212890625</LatitudeDegrees>
              <LongitudeDegrees>37.05201722681522369384765625</LongitudeDegrees>
            </Position>
            <AltitudeMeters>853.79998779296875</AltitudeMeters>
            <DistanceMeters>8715.3354284486</DistanceMeters>
          </Trackpoint>
          <Trackpoint>
            <Time>2021-08-01T11:49:07.000Z</Time>
            <Position>
              <LatitudeDegrees>-15.44367595575749874114990234375</LatitudeDegrees>
              <LongitudeDegrees>37.0520422048866748809814453125</LongitudeDegrees>
            </Position>
            <AltitudeMeters>854.20001220703125</AltitudeMeters>
            <DistanceMeters>8718.6600056499</DistanceMeters>
          </Trackpoint>
          <Trackpoint>
            <Time>2021-08-01T11:49:09.000Z</Time>
            <Position>
              <LatitudeDegrees>-15.44368467293679714202880859375</LatitudeDegrees>
              <LongitudeDegrees>37.05205938778817653656005859375</LongitudeDegrees>
            </Position>
            <AltitudeMeters>855</AltitudeMeters>
            <DistanceMeters>8720.7419366509</DistanceMeters>
          </Trackpoint>
          <Trackpoint>
            <Time>2021-08-01T11:49:10.000Z</Time>
            <Position>
              <LatitudeDegrees>-15.443690456449985504150390625</LatitudeDegrees>
              <LongitudeDegrees>37.0520673505961894989013671875</LongitudeDegrees>
            </Position>
            <AltitudeMeters>855.20001220703125</AltitudeMeters>
            <DistanceMeters>8721.8086088742</DistanceMeters>
          </Trackpoint>
          <Trackpoint>
            <Time>2021-08-01T11:49:17.000Z</Time>
            <Position>
              <LatitudeDegrees>-15.443733036518096923828125</LatitudeDegrees>
              <LongitudeDegrees>37.0521367527544498443603515625</LongitudeDegrees>
            </Position>
            <AltitudeMeters>856</AltitudeMeters>
            <DistanceMeters>8730.634334873</DistanceMeters>
          </Trackpoint>
          <Trackpoint>
            <Time>2021-08-01T11:49:20.000Z</Time>
            <Position>
              <LatitudeDegrees>-15.4437368921935558319091796875</LatitudeDegrees>
              <LongitudeDegrees>37.0521525107324123382568359375</LongitudeDegrees>
            </Position>
            <AltitudeMeters>856.20001220703125</AltitudeMeters>
            <DistanceMeters>8732.3813797603</DistanceMeters>
          </Trackpoint>
          <Trackpoint>
            <Time>2021-08-01T11:49:23.000Z</Time>
            <Position>
              <LatitudeDegrees>-15.44373446144163608551025390625</LatitudeDegrees>
              <LongitudeDegrees>37.0521494932472705841064453125</LongitudeDegrees>
            </Position>
            <AltitudeMeters>856.5999755859375</AltitudeMeters>
            <DistanceMeters>8732.7955916051</DistanceMeters>
          </Trackpoint>
          <Trackpoint>
            <Time>2021-08-01T11:49:26.000Z</Time>
            <Position>
              <LatitudeDegrees>-15.44373597018420696258544921875</LatitudeDegrees>
              <LongitudeDegrees>37.05214588902890682220458984375</LongitudeDegrees>
            </Position>
            <AltitudeMeters>856.79998779296875</AltitudeMeters>
            <DistanceMeters>8733.2205639912</DistanceMeters>
          </Trackpoint>
          <Trackpoint>
            <Time>2021-08-01T11:49:31.000Z</Time>
            <Position>
              <LatitudeDegrees>-15.44373865239322185516357421875</LatitudeDegrees>
              <LongitudeDegrees>37.05214588902890682220458984375</LongitudeDegrees>
            </Position>
            <AltitudeMeters>856.5999755859375</AltitudeMeters>
            <DistanceMeters>8733.5210648471</DistanceMeters>
          </Trackpoint>
          <Trackpoint>
            <Time>2021-08-01T11:49:36.000Z</Time>
            <Position>
              <LatitudeDegrees>-15.44373865239322185516357421875</LatitudeDegrees>
              <LongitudeDegrees>37.05214588902890682220458984375</LongitudeDegrees>
            </Position>
            <AltitudeMeters>856.5999755859375</AltitudeMeters>
            <DistanceMeters>8733.6160915615</DistanceMeters>
          </Trackpoint>
          <Trackpoint>
            <Time>2021-08-01T11:49:48.000Z</Time>
            <Position>
              <LatitudeDegrees>-15.44373831711709499359130859375</LatitudeDegrees>
              <LongitudeDegrees>37.05214588902890682220458984375</LongitudeDegrees>
            </Position>
            <AltitudeMeters>856.4000244140625</AltitudeMeters>
            <DistanceMeters>8733.7111182759</DistanceMeters>
          </Trackpoint>
          <Trackpoint>
            <Time>2021-08-01T11:49:51.000Z</Time>
            <Position>
              <LatitudeDegrees>-15.44373831711709499359130859375</LatitudeDegrees>
              <LongitudeDegrees>37.05214370973408222198486328125</LongitudeDegrees>
            </Position>
            <AltitudeMeters>856.20001220703125</AltitudeMeters>
            <DistanceMeters>8733.96253533</DistanceMeters>
          </Trackpoint>
          <Trackpoint>
            <Time>2021-08-01T11:49:53.000Z</Time>
            <Position>
              <LatitudeDegrees>-15.4437385685741901397705078125</LatitudeDegrees>
              <LongitudeDegrees>37.05214220099151134490966796875</LongitudeDegrees>
            </Position>
            <AltitudeMeters>856.20001220703125</AltitudeMeters>
            <DistanceMeters>8734.1271264274</DistanceMeters>
          </Trackpoint>
          <Trackpoint>
            <Time>2021-08-01T11:49:56.000Z</Time>
            <Position>
              <LatitudeDegrees>-15.4437451064586639404296875</LatitudeDegrees>
              <LongitudeDegrees>37.05214220099151134490966796875</LongitudeDegrees>
            </Position>
            <AltitudeMeters>856.4000244140625</AltitudeMeters>
            <DistanceMeters>8734.8570404704</DistanceMeters>
          </Trackpoint>
          <Trackpoint>
            <Time>2021-08-01T11:50:12.000Z</Time>
            <Position>
              <LatitudeDegrees>-15.44376463629305362701416015625</LatitudeDegrees>
              <LongitudeDegrees>37.05213733948767185211181640625</LongitudeDegrees>
            </Position>
            <AltitudeMeters>856.79998779296875</AltitudeMeters>
            <DistanceMeters>8737.0896627396</DistanceMeters>
          </Trackpoint>
          <Trackpoint>
            <Time>2021-08-01T11:50:20.000Z</Time>
            <Position>
              <LatitudeDegrees>-15.44376597739756107330322265625</LatitudeDegrees>
              <LongitudeDegrees>37.052134573459625244140625</LongitudeDegrees>
            </Position>
            <AltitudeMeters>856.79998779296875</AltitudeMeters>
            <DistanceMeters>8737.4048306962</DistanceMeters>
          </Trackpoint>
          <Trackpoint>
            <Time>2021-08-01T11:50:29.000Z</Time>
            <Position>
              <LatitudeDegrees>-15.44376631267368793487548828125</LatitudeDegrees>
              <LongitudeDegrees>37.05213365145027637481689453125</LongitudeDegrees>
            </Position>
            <AltitudeMeters>856.5999755859375</AltitudeMeters>
            <DistanceMeters>8737.4998574106</DistanceMeters>
          </Trackpoint>
          <Trackpoint>
            <Time>2021-08-01T11:50:40.000Z</Time>
            <Position>
              <LatitudeDegrees>-15.44376949779689311981201171875</LatitudeDegrees>
              <LongitudeDegrees>37.0521370880305767059326171875</LongitudeDegrees>
            </Position>
            <AltitudeMeters>856.5999755859375</AltitudeMeters>
            <DistanceMeters>8738.0115919286</DistanceMeters>
          </Trackpoint>
          <Trackpoint>
            <Time>2021-08-01T11:50:44.000Z</Time>
            <Position>
              <LatitudeDegrees>-15.443790368735790252685546875</LatitudeDegrees>
              <LongitudeDegrees>37.05211135558784008026123046875</LongitudeDegrees>
            </Position>
            <AltitudeMeters>856.5999755859375</AltitudeMeters>
            <DistanceMeters>8741.6201055051</DistanceMeters>
          </Trackpoint>
          <Trackpoint>
            <Time>2021-08-01T11:50:47.000Z</Time>
            <Position>
              <LatitudeDegrees>-15.443791039288043975830078125</LatitudeDegrees>
              <LongitudeDegrees>37.0521090924739837646484375</LongitudeDegrees>
            </Position>
            <AltitudeMeters>856.5999755859375</AltitudeMeters>
            <DistanceMeters>8741.8888816416</DistanceMeters>
          </Trackpoint>
          <Trackpoint>
            <Time>2021-08-01T11:50:49.000Z</Time>
            <Position>
              <LatitudeDegrees>-15.443791039288043975830078125</LatitudeDegrees>
              <LongitudeDegrees>37.0521090924739837646484375</LongitudeDegrees>
            </Position>
            <AltitudeMeters>856.5999755859375</AltitudeMeters>
            <DistanceMeters>8741.983908356</DistanceMeters>
          </Trackpoint>
          <Trackpoint>
            <Time>2021-08-01T11:50:52.000Z</Time>
            <Position>
              <LatitudeDegrees>-15.443791039288043975830078125</LatitudeDegrees>
              <LongitudeDegrees>37.05211152322590351104736328125</LongitudeDegrees>
            </Position>
            <AltitudeMeters>856.5999755859375</AltitudeMeters>
            <DistanceMeters>8742.2526844925</DistanceMeters>
          </Trackpoint>
          <Trackpoint>
            <Time>2021-08-01T11:50:55.000Z</Time>
            <Position>
              <LatitudeDegrees>-15.443791039288043975830078125</LatitudeDegrees>
              <LongitudeDegrees>37.0521132834255695343017578125</LongitudeDegrees>
            </Position>
            <AltitudeMeters>856.79998779296875</AltitudeMeters>
            <DistanceMeters>8742.4651706855</DistanceMeters>
          </Trackpoint>
          <Trackpoint>
            <Time>2021-08-01T11:50:57.000Z</Time>
            <Position>
              <LatitudeDegrees>-15.443791039288043975830078125</LatitudeDegrees>
              <LongitudeDegrees>37.05211521126329898834228515625</LongitudeDegrees>
            </Position>
            <AltitudeMeters>856.79998779296875</AltitudeMeters>
            <DistanceMeters>8742.6979376476</DistanceMeters>
          </Trackpoint>
          <Trackpoint>
            <Time>2021-08-01T11:50:59.000Z</Time>
            <Position>
              <LatitudeDegrees>-15.443791039288043975830078125</LatitudeDegrees>
              <LongitudeDegrees>37.0521159656345844268798828125</LongitudeDegrees>
            </Position>
            <AltitudeMeters>857</AltitudeMeters>
            <DistanceMeters>8742.8323257159</DistanceMeters>
          </Trackpoint>
          <Trackpoint>
            <Time>2021-08-01T11:51:06.000Z</Time>
            <Position>
              <LatitudeDegrees>-15.4437875188887119293212890625</LatitudeDegrees>
              <LongitudeDegrees>37.0521193183958530426025390625</LongitudeDegrees>
            </Position>
            <AltitudeMeters>857.20001220703125</AltitudeMeters>
            <DistanceMeters>8743.3614120697</DistanceMeters>
          </Trackpoint>
          <Trackpoint>
            <Time>2021-08-01T11:51:38.000Z</Time>
            <Position>
              <LatitudeDegrees>-15.4437665641307830810546875</LatitudeDegrees>
              <LongitudeDegrees>37.05213499255478382110595703125</LongitudeDegrees>
            </Position>
            <AltitudeMeters>858.20001220703125</AltitudeMeters>
            <DistanceMeters>8746.2343008371</DistanceMeters>
          </Trackpoint>
          <Trackpoint>
            <Time>2021-08-01T11:51:42.000Z</Time>
            <Position>
              <LatitudeDegrees>-15.4437665641307830810546875</LatitudeDegrees>
              <LongitudeDegrees>37.0521354116499423980712890625</LongitudeDegrees>
            </Position>
            <AltitudeMeters>858</AltitudeMeters>
            <DistanceMeters>8746.2343008371</DistanceMeters>
          </Trackpoint>
          <Trackpoint>
            <Time>2021-08-01T11:51:52.000Z</Time>
            <Position>
              <LatitudeDegrees>-15.44377251528203487396240234375</LatitudeDegrees>
              <LongitudeDegrees>37.05213700421154499053955078125</LongitudeDegrees>
            </Position>
            <AltitudeMeters>857.20001220703125</AltitudeMeters>
            <DistanceMeters>8746.9195482195</DistanceMeters>
          </Trackpoint>
          <Trackpoint>
            <Time>2021-08-01T11:52:06.000Z</Time>
            <Position>
              <LatitudeDegrees>-15.4437640495598316192626953125</LatitudeDegrees>
              <LongitudeDegrees>37.05214052461087703704833984375</LongitudeDegrees>
            </Position>
            <AltitudeMeters>857.79998779296875</AltitudeMeters>
            <DistanceMeters>8747.9341558848</DistanceMeters>
          </Trackpoint>
          <Trackpoint>
            <Time>2021-08-01T11:52:09.000Z</Time>
            <Position>
              <LatitudeDegrees>-15.44376379810273647308349609375</LatitudeDegrees>
              <LongitudeDegrees>37.0521407760679721832275390625</LongitudeDegrees>
            </Position>
            <AltitudeMeters>858.20001220703125</AltitudeMeters>
            <DistanceMeters>8747.9341558848</DistanceMeters>
          </Trackpoint>
          <Trackpoint>
            <Time>2021-08-01T11:52:12.000Z</Time>
            <Position>
              <LatitudeDegrees>-15.443766899406909942626953125</LatitudeDegrees>
              <LongitudeDegrees>37.0521478168666362762451171875</LongitudeDegrees>
            </Position>
            <AltitudeMeters>858.4000244140625</AltitudeMeters>
            <DistanceMeters>8748.7625795746</DistanceMeters>
          </Trackpoint>
          <Trackpoint>
            <Time>2021-08-01T11:52:13.000Z</Time>
            <Position>
              <LatitudeDegrees>-15.44377134181559085845947265625</LatitudeDegrees>
              <LongitudeDegrees>37.0521615631878376007080078125</LongitudeDegrees>
            </Position>
            <AltitudeMeters>858.4000244140625</AltitudeMeters>
            <DistanceMeters>8750.3211335722</DistanceMeters>
          </Trackpoint>
          <Trackpoint>
            <Time>2021-08-01T11:52:15.000Z</Time>
            <Position>
              <LatitudeDegrees>-15.4437801428139209747314453125</LatitudeDegrees>
              <LongitudeDegrees>37.0521927438676357269287109375</LongitudeDegrees>
            </Position>
            <AltitudeMeters>858.79998779296875</AltitudeMeters>
            <DistanceMeters>8753.8074615679</DistanceMeters>
          </Trackpoint>
          <Trackpoint>
            <Time>2021-08-01T11:52:21.000Z</Time>
            <Position>
              <LatitudeDegrees>-15.4438056237995624542236328125</LatitudeDegrees>
              <LongitudeDegrees>37.0522983558475971221923828125</LongitudeDegrees>
            </Position>
            <AltitudeMeters>859.4000244140625</AltitudeMeters>
            <DistanceMeters>8765.4876325818</DistanceMeters>
          </Trackpoint>
          <Trackpoint>
            <Time>2021-08-01T11:52:25.000Z</Time>
            <Position>
              <LatitudeDegrees>-15.44380537234246730804443359375</LatitudeDegrees>
              <LongitudeDegrees>37.05234713852405548095703125</LongitudeDegrees>
            </Position>
            <AltitudeMeters>859.79998779296875</AltitudeMeters>
            <DistanceMeters>8770.7201455324</DistanceMeters>
          </Trackpoint>
          <Trackpoint>
            <Time>2021-08-01T11:52:28.000Z</Time>
            <Position>
              <LatitudeDegrees>-15.44380285777151584625244140625</LatitudeDegrees>
              <LongitudeDegrees>37.05238066613674163818359375</LongitudeDegrees>
            </Position>
            <AltitudeMeters>860.4000244140625</AltitudeMeters>
            <DistanceMeters>8774.328659109</DistanceMeters>
          </Trackpoint>
          <Trackpoint>
            <Time>2021-08-01T11:52:32.000Z</Time>
            <Position>
              <LatitudeDegrees>-15.44381090439856052398681640625</LatitudeDegrees>
              <LongitudeDegrees>37.0524175465106964111328125</LongitudeDegrees>
            </Position>
            <AltitudeMeters>861.20001220703125</AltitudeMeters>
            <DistanceMeters>8778.3848641433</DistanceMeters>
          </Trackpoint>
          <Trackpoint>
            <Time>2021-08-01T11:52:34.000Z</Time>
            <Position>
              <LatitudeDegrees>-15.443816520273685455322265625</LatitudeDegrees>
              <LongitudeDegrees>37.0524358190596103668212890625</LongitudeDegrees>
            </Position>
            <AltitudeMeters>861.20001220703125</AltitudeMeters>
            <DistanceMeters>8780.444994219</DistanceMeters>
          </Trackpoint>
          <Trackpoint>
            <Time>2021-08-01T11:52:36.000Z</Time>
            <Position>
              <LatitudeDegrees>-15.44381861574947834014892578125</LatitudeDegrees>
              <LongitudeDegrees>37.05245040357112884521484375</LongitudeDegrees>
            </Position>
            <AltitudeMeters>861.5999755859375</AltitudeMeters>
            <DistanceMeters>8782.0236965654</DistanceMeters>
          </Trackpoint>
          <Trackpoint>
            <Time>2021-08-01T11:52:42.000Z</Time>
            <Position>
              <LatitudeDegrees>-15.44382465071976184844970703125</LatitudeDegrees>
              <LongitudeDegrees>37.052511759102344512939453125</LongitudeDegrees>
            </Position>
            <AltitudeMeters>862.4000244140625</AltitudeMeters>
            <DistanceMeters>8788.6394943649</DistanceMeters>
          </Trackpoint>
          <Trackpoint>
            <Time>2021-08-01T11:52:43.000Z</Time>
            <Position>
              <LatitudeDegrees>-15.44382347725331783294677734375</LatitudeDegrees>
              <LongitudeDegrees>37.0525239966809749603271484375</LongitudeDegrees>
            </Position>
            <AltitudeMeters>862.5999755859375</AltitudeMeters>
            <DistanceMeters>8789.9562231438</DistanceMeters>
          </Trackpoint>
          <Trackpoint>
            <Time>2021-08-01T11:52:47.000Z</Time>
            <Position>
              <LatitudeDegrees>-15.44382356107234954833984375</LatitudeDegrees>
              <LongitudeDegrees>37.052560709416866302490234375</LongitudeDegrees>
            </Position>
            <AltitudeMeters>863</AltitudeMeters>
            <DistanceMeters>8793.8949629589</DistanceMeters>
          </Trackpoint>
          <Trackpoint>
            <Time>2021-08-01T11:52:51.000Z</Time>
            <Position>
              <LatitudeDegrees>-15.44382951222360134124755859375</LatitudeDegrees>
              <LongitudeDegrees>37.05260035581886768341064453125</LongitudeDegrees>
            </Position>
            <AltitudeMeters>863.4000244140625</AltitudeMeters>
            <DistanceMeters>8798.1995787214</DistanceMeters>
          </Trackpoint>
          <Trackpoint>
            <Time>2021-08-01T11:52:52.000Z</Time>
            <Position>
              <LatitudeDegrees>-15.44382599182426929473876953125</LatitudeDegrees>
              <LongitudeDegrees>37.052607648074626922607421875</LongitudeDegrees>
            </Position>
            <AltitudeMeters>863.5999755859375</AltitudeMeters>
            <DistanceMeters>8799.0756817392</DistanceMeters>
          </Trackpoint>
          <Trackpoint>
            <Time>2021-08-01T11:52:56.000Z</Time>
            <Position>
              <LatitudeDegrees>-15.4438113234937191009521484375</LatitudeDegrees>
              <LongitudeDegrees>37.05265425145626068115234375</LongitudeDegrees>
            </Position>
            <AltitudeMeters>864.4000244140625</AltitudeMeters>
            <DistanceMeters>8804.3357344218</DistanceMeters>
          </Trackpoint>
          <Trackpoint>
            <Time>2021-08-01T11:52:58.000Z</Time>
            <Position>
              <LatitudeDegrees>-15.4438059590756893157958984375</LatitudeDegrees>
              <LongitudeDegrees>37.05267612822353839874267578125</LongitudeDegrees>
            </Position>
            <AltitudeMeters>864.5999755859375</AltitudeMeters>
            <DistanceMeters>8806.7565854317</DistanceMeters>
          </Trackpoint>
          <Trackpoint>
            <Time>2021-08-01T11:53:01.000Z</Time>
            <Position>
              <LatitudeDegrees>-15.44379799626767635345458984375</LatitudeDegrees>
              <LongitudeDegrees>37.0527120865881443023681640625</LongitudeDegrees>
            </Position>
            <AltitudeMeters>864.79998779296875</AltitudeMeters>
            <DistanceMeters>8810.7136237881</DistanceMeters>
          </Trackpoint>
          <Trackpoint>
            <Time>2021-08-01T11:53:07.000Z</Time>
            <Position>
              <LatitudeDegrees>-15.44378793798387050628662109375</LatitudeDegrees>
              <LongitudeDegrees>37.05277604050934314727783203125</LongitudeDegrees>
            </Position>
            <AltitudeMeters>865.79998779296875</AltitudeMeters>
            <DistanceMeters>8817.6655277811</DistanceMeters>
          </Trackpoint>
          <Trackpoint>
            <Time>2021-08-01T11:53:09.000Z</Time>
            <Position>
              <LatitudeDegrees>-15.44378274120390415191650390625</LatitudeDegrees>
              <LongitudeDegrees>37.05279548652470111846923828125</LongitudeDegrees>
            </Position>
            <AltitudeMeters>866</AltitudeMeters>
            <DistanceMeters>8819.8324702702</DistanceMeters>
          </Trackpoint>
          <Trackpoint>
            <Time>2021-08-01T11:53:13.000Z</Time>
            <Position>
              <LatitudeDegrees>-15.4437704198062419891357421875</LatitudeDegrees>
              <LongitudeDegrees>37.05283127725124359130859375</LongitudeDegrees>
            </Position>
            <AltitudeMeters>866.79998779296875</AltitudeMeters>
            <DistanceMeters>8823.908662201</DistanceMeters>
          </Trackpoint>
          <Trackpoint>
            <Time>2021-08-01T11:53:17.000Z</Time>
            <Position>
              <LatitudeDegrees>-15.44376966543495655059814453125</LatitudeDegrees>
              <LongitudeDegrees>37.052862457931041717529296875</LongitudeDegrees>
            </Position>
            <AltitudeMeters>867.4000244140625</AltitudeMeters>
            <DistanceMeters>8827.2548981147</DistanceMeters>
          </Trackpoint>
          <Trackpoint>
            <Time>2021-08-01T11:53:20.000Z</Time>
            <Position>
              <LatitudeDegrees>-15.4437714256346225738525390625</LatitudeDegrees>
              <LongitudeDegrees>37.0528783835470676422119140625</LongitudeDegrees>
            </Position>
            <AltitudeMeters>867.79998779296875</AltitudeMeters>
            <DistanceMeters>8828.9732796199</DistanceMeters>
          </Trackpoint>
          <Trackpoint>
            <Time>2021-08-01T11:53:23.000Z</Time>
            <Position>
              <LatitudeDegrees>-15.44375591911375522613525390625</LatitudeDegrees>
              <LongitudeDegrees>37.0529085583984851837158203125</LongitudeDegrees>
            </Position>
            <AltitudeMeters>868.4000244140625</AltitudeMeters>
            <DistanceMeters>8832.6401289248</DistanceMeters>
          </Trackpoint>
          <Trackpoint>
            <Time>2021-08-01T11:53:24.000Z</Time>
            <Position>
              <LatitudeDegrees>-15.44375223107635974884033203125</LatitudeDegrees>
              <LongitudeDegrees>37.0529320277273654937744140625</LongitudeDegrees>
            </Position>
            <AltitudeMeters>868.5999755859375</AltitudeMeters>
            <DistanceMeters>8835.1899632409</DistanceMeters>
          </Trackpoint>
          <Trackpoint>
            <Time>2021-08-01T11:53:27.000Z</Time>
            <Position>
              <LatitudeDegrees>-15.44373982585966587066650390625</LatitudeDegrees>
              <LongitudeDegrees>37.05296404659748077392578125</LongitudeDegrees>
            </Position>
            <AltitudeMeters>869</AltitudeMeters>
            <DistanceMeters>8838.8911287284</DistanceMeters>
          </Trackpoint>
          <Trackpoint>
            <Time>2021-08-01T11:53:31.000Z</Time>
            <Position>
              <LatitudeDegrees>-15.44372725300490856170654296875</LatitudeDegrees>
              <LongitudeDegrees>37.052988521754741668701171875</LongitudeDegrees>
            </Position>
            <AltitudeMeters>869.79998779296875</AltitudeMeters>
            <DistanceMeters>8841.867452802</DistanceMeters>
          </Trackpoint>
          <Trackpoint>
            <Time>2021-08-01T11:53:33.000Z</Time>
            <Position>
              <LatitudeDegrees>-15.4437197931110858917236328125</LatitudeDegrees>
              <LongitudeDegrees>37.05300629138946533203125</LongitudeDegrees>
            </Position>
            <AltitudeMeters>870.20001220703125</AltitudeMeters>
            <DistanceMeters>8843.9450419193</DistanceMeters>
          </Trackpoint>
          <Trackpoint>
            <Time>2021-08-01T11:53:38.000Z</Time>
            <Position>
              <LatitudeDegrees>-15.4436963237822055816650390625</LatitudeDegrees>
              <LongitudeDegrees>37.0530624501407146453857421875</LongitudeDegrees>
            </Position>
            <AltitudeMeters>870.79998779296875</AltitudeMeters>
            <DistanceMeters>8850.5122060787</DistanceMeters>
          </Trackpoint>
          <Trackpoint>
            <Time>2021-08-01T11:53:41.000Z</Time>
            <Position>
              <LatitudeDegrees>-15.4436896182596683502197265625</LatitudeDegrees>
              <LongitudeDegrees>37.0530979894101619720458984375</LongitudeDegrees>
            </Position>
            <AltitudeMeters>871.20001220703125</AltitudeMeters>
            <DistanceMeters>8854.396695458</DistanceMeters>
          </Trackpoint>
          <Trackpoint>
            <Time>2021-08-01T11:53:42.000Z</Time>
            <Position>
              <LatitudeDegrees>-15.4436860978603363037109375</LatitudeDegrees>
              <LongitudeDegrees>37.05311081372201442718505859375</LongitudeDegrees>
            </Position>
            <AltitudeMeters>871.5999755859375</AltitudeMeters>
            <DistanceMeters>8855.828417272</DistanceMeters>
          </Trackpoint>
          <Trackpoint>
            <Time>2021-08-01T11:53:48.000Z</Time>
            <Position>
              <LatitudeDegrees>-15.44366396963596343994140625</LatitudeDegrees>
              <LongitudeDegrees>37.05317904241383075714111328125</LongitudeDegrees>
            </Position>
            <AltitudeMeters>872.4000244140625</AltitudeMeters>
            <DistanceMeters>8863.5507630837</DistanceMeters>
          </Trackpoint>
          <Trackpoint>
            <Time>2021-08-01T11:53:52.000Z</Time>
            <Position>
              <LatitudeDegrees>-15.443646200001239776611328125</LatitudeDegrees>
              <LongitudeDegrees>37.0532195270061492919921875</LongitudeDegrees>
            </Position>
            <AltitudeMeters>872.5999755859375</AltitudeMeters>
            <DistanceMeters>8868.3239049073</DistanceMeters>
          </Trackpoint>
          <Trackpoint>
            <Time>2021-08-01T11:53:57.000Z</Time>
            <Position>
              <LatitudeDegrees>-15.44362214393913745880126953125</LatitudeDegrees>
              <LongitudeDegrees>37.05327912233769893646240234375</LongitudeDegrees>
            </Position>
            <AltitudeMeters>873.79998779296875</AltitudeMeters>
            <DistanceMeters>8875.2549947698</DistanceMeters>
          </Trackpoint>
          <Trackpoint>
            <Time>2021-08-01T11:53:59.000Z</Time>
            <Position>
              <LatitudeDegrees>-15.44361309148371219635009765625</LatitudeDegrees>
              <LongitudeDegrees>37.053298652172088623046875</LongitudeDegrees>
            </Position>
            <AltitudeMeters>873.79998779296875</AltitudeMeters>
            <DistanceMeters>8877.5807238576</DistanceMeters>
          </Trackpoint>
          <Trackpoint>
            <Time>2021-08-01T11:54:05.000Z</Time>
            <Position>
              <LatitudeDegrees>-15.4435712657868862152099609375</LatitudeDegrees>
              <LongitudeDegrees>37.05335975624620914459228515625</LongitudeDegrees>
            </Position>
            <AltitudeMeters>874.79998779296875</AltitudeMeters>
            <DistanceMeters>8885.6210172144</DistanceMeters>
          </Trackpoint>
          <Trackpoint>
            <Time>2021-08-01T11:54:11.000Z</Time>
            <Position>
              <LatitudeDegrees>-15.4435323737561702728271484375</LatitudeDegrees>
              <LongitudeDegrees>37.05342228524386882781982421875</LongitudeDegrees>
            </Position>
            <AltitudeMeters>875.79998779296875</AltitudeMeters>
            <DistanceMeters>8893.6049579467</DistanceMeters>
          </Trackpoint>
          <Trackpoint>
            <Time>2021-08-01T11:54:12.000Z</Time>
            <Position>
              <LatitudeDegrees>-15.44352441094815731048583984375</LatitudeDegrees>
              <LongitudeDegrees>37.0534336008131504058837890625</LongitudeDegrees>
            </Position>
            <AltitudeMeters>875.79998779296875</AltitudeMeters>
            <DistanceMeters>8895.1074622266</DistanceMeters>
          </Trackpoint>
          <Trackpoint>
            <Time>2021-08-01T11:54:18.000Z</Time>
            <Position>
              <LatitudeDegrees>-15.443483926355838775634765625</LatitudeDegrees>
              <LongitudeDegrees>37.05348297022283077239990234375</LongitudeDegrees>
            </Position>
            <AltitudeMeters>877</AltitudeMeters>
            <DistanceMeters>8902.0619636058</DistanceMeters>
          </Trackpoint>
          <Trackpoint>
            <Time>2021-08-01T11:54:21.000Z</Time>
            <Position>
              <LatitudeDegrees>-15.4434602893888950347900390625</LatitudeDegrees>
              <LongitudeDegrees>37.05351012758910655975341796875</LongitudeDegrees>
            </Position>
            <AltitudeMeters>877.4000244140625</AltitudeMeters>
            <DistanceMeters>8905.9880737023</DistanceMeters>
          </Trackpoint>
          <Trackpoint>
            <Time>2021-08-01T11:54:25.000Z</Time>
            <Position>
              <LatitudeDegrees>-15.4434311203658580780029296875</LatitudeDegrees>
              <LongitudeDegrees>37.05353259108960628509521484375</LongitudeDegrees>
            </Position>
            <AltitudeMeters>878</AltitudeMeters>
            <DistanceMeters>8910.0308992444</DistanceMeters>
          </Trackpoint>
          <Trackpoint>
            <Time>2021-08-01T11:54:31.000Z</Time>
            <Position>
              <LatitudeDegrees>-15.44339197687804698944091796875</LatitudeDegrees>
              <LongitudeDegrees>37.0535844750702381134033203125</LongitudeDegrees>
            </Position>
            <AltitudeMeters>879</AltitudeMeters>
            <DistanceMeters>8917.0987407033</DistanceMeters>
          </Trackpoint>
          <Trackpoint>
            <Time>2021-08-01T11:54:32.000Z</Time>
            <Position>
              <LatitudeDegrees>-15.44338745065033435821533203125</LatitudeDegrees>
              <LongitudeDegrees>37.05358573235571384429931640625</LongitudeDegrees>
            </Position>
            <AltitudeMeters>879.20001220703125</AltitudeMeters>
            <DistanceMeters>8917.6192234535</DistanceMeters>
          </Trackpoint>
          <Trackpoint>
            <Time>2021-08-01T11:54:38.000Z</Time>
            <Position>
              <LatitudeDegrees>-15.4433473013341426849365234375</LatitudeDegrees>
              <LongitudeDegrees>37.05363568849861621856689453125</LongitudeDegrees>
            </Position>
            <AltitudeMeters>880.20001220703125</AltitudeMeters>
            <DistanceMeters>8924.5970578014</DistanceMeters>
          </Trackpoint>
          <Trackpoint>
            <Time>2021-08-01T11:54:41.000Z</Time>
            <Position>
              <LatitudeDegrees>-15.44333330355584621429443359375</LatitudeDegrees>
              <LongitudeDegrees>37.05365203320980072021484375</LongitudeDegrees>
            </Position>
            <AltitudeMeters>880.4000244140625</AltitudeMeters>
            <DistanceMeters>8926.9421199656</DistanceMeters>
          </Trackpoint>
          <Trackpoint>
            <Time>2021-08-01T11:54:45.000Z</Time>
            <Position>
              <LatitudeDegrees>-15.44329843483865261077880859375</LatitudeDegrees>
              <LongitudeDegrees>37.053683213889598846435546875</LongitudeDegrees>
            </Position>
            <AltitudeMeters>881.20001220703125</AltitudeMeters>
            <DistanceMeters>8932.0665186913</DistanceMeters>
          </Trackpoint>
          <Trackpoint>
            <Time>2021-08-01T11:54:51.000Z</Time>
            <Position>
              <LatitudeDegrees>-15.4432507418096065521240234375</LatitudeDegrees>
              <LongitudeDegrees>37.053732834756374359130859375</LongitudeDegrees>
            </Position>
            <AltitudeMeters>882.20001220703125</AltitudeMeters>
            <DistanceMeters>8939.5850477056</DistanceMeters>
          </Trackpoint>
          <Trackpoint>
            <Time>2021-08-01T11:54:53.000Z</Time>
            <Position>
              <LatitudeDegrees>-15.443237163126468658447265625</LatitudeDegrees>
              <LongitudeDegrees>37.0537578128278255462646484375</LongitudeDegrees>
            </Position>
            <AltitudeMeters>882.4000244140625</AltitudeMeters>
            <DistanceMeters>8942.6627985385</DistanceMeters>
          </Trackpoint>
          <Trackpoint>
            <Time>2021-08-01T11:55:00.000Z</Time>
            <Position>
              <LatitudeDegrees>-15.4431954212486743927001953125</LatitudeDegrees>
              <LongitudeDegrees>37.05382763408124446868896484375</LongitudeDegrees>
            </Position>
            <AltitudeMeters>883.4000244140625</AltitudeMeters>
            <DistanceMeters>8951.4777748743</DistanceMeters>
          </Trackpoint>
          <Trackpoint>
            <Time>2021-08-01T11:55:01.000Z</Time>
            <Position>
              <LatitudeDegrees>-15.44319055974483489990234375</LatitudeDegrees>
              <LongitudeDegrees>37.053837440907955169677734375</LongitudeDegrees>
            </Position>
            <AltitudeMeters>883.5999755859375</AltitudeMeters>
            <DistanceMeters>8952.6646581564</DistanceMeters>
          </Trackpoint>
          <Trackpoint>
            <Time>2021-08-01T11:55:04.000Z</Time>
            <Position>
              <LatitudeDegrees>-15.44317119754850864410400390625</LatitudeDegrees>
              <LongitudeDegrees>37.05386719666421413421630859375</LongitudeDegrees>
            </Position>
            <AltitudeMeters>884</AltitudeMeters>
            <DistanceMeters>8956.5176369616</DistanceMeters>
          </Trackpoint>
          <Trackpoint>
            <Time>2021-08-01T11:55:07.000Z</Time>
            <Position>
              <LatitudeDegrees>-15.443156026303768157958984375</LatitudeDegrees>
              <LongitudeDegrees>37.0538976229727268218994140625</LongitudeDegrees>
            </Position>
            <AltitudeMeters>884.4000244140625</AltitudeMeters>
            <DistanceMeters>8960.1930953494</DistanceMeters>
          </Trackpoint>
          <Trackpoint>
            <Time>2021-08-01T11:55:09.000Z</Time>
            <Position>
              <LatitudeDegrees>-15.44313783757388591766357421875</LatitudeDegrees>
              <LongitudeDegrees>37.05391664989292621612548828125</LongitudeDegrees>
            </Position>
            <AltitudeMeters>884.5999755859375</AltitudeMeters>
            <DistanceMeters>8963.0706950608</DistanceMeters>
          </Trackpoint>
          <Trackpoint>
            <Time>2021-08-01T11:55:14.000Z</Time>
            <Position>
              <LatitudeDegrees>-15.443099029362201690673828125</LatitudeDegrees>
              <LongitudeDegrees>37.05397565849125385284423828125</LongitudeDegrees>
            </Position>
            <AltitudeMeters>885.4000244140625</AltitudeMeters>
            <DistanceMeters>8970.7343506632</DistanceMeters>
          </Trackpoint>
          <Trackpoint>
            <Time>2021-08-01T11:55:19.000Z</Time>
            <Position>
              <LatitudeDegrees>-15.44307329691946506500244140625</LatitudeDegrees>
              <LongitudeDegrees>37.0540283806622028350830078125</LongitudeDegrees>
            </Position>
            <AltitudeMeters>886</AltitudeMeters>
            <DistanceMeters>8977.0741353797</DistanceMeters>
          </Trackpoint>
          <Trackpoint>
            <Time>2021-08-01T11:55:23.000Z</Time>
            <Position>
              <LatitudeDegrees>-15.44305913150310516357421875</LatitudeDegrees>
              <LongitudeDegrees>37.05406417138874530792236328125</LongitudeDegrees>
            </Position>
            <AltitudeMeters>886.4000244140625</AltitudeMeters>
            <DistanceMeters>8981.2238770317</DistanceMeters>
          </Trackpoint>
          <Trackpoint>
            <Time>2021-08-01T11:55:29.000Z</Time>
            <Position>
              <LatitudeDegrees>-15.4430370032787322998046875</LatitudeDegrees>
              <LongitudeDegrees>37.05412703566253185272216796875</LongitudeDegrees>
            </Position>
            <AltitudeMeters>887.4000244140625</AltitudeMeters>
            <DistanceMeters>8988.40389837</DistanceMeters>
          </Trackpoint>
          <Trackpoint>
            <Time>2021-08-01T11:55:30.000Z</Time>
            <Position>
              <LatitudeDegrees>-15.443030297756195068359375</LatitudeDegrees>
              <LongitudeDegrees>37.054135836660861968994140625</LongitudeDegrees>
            </Position>
            <AltitudeMeters>887.79998779296875</AltitudeMeters>
            <DistanceMeters>8989.6059017939</DistanceMeters>
          </Trackpoint>
          <Trackpoint>
            <Time>2021-08-01T11:55:36.000Z</Time>
            <Position>
              <LatitudeDegrees>-15.442992746829986572265625</LatitudeDegrees>
              <LongitudeDegrees>37.054197527468204498291015625</LongitudeDegrees>
            </Position>
            <AltitudeMeters>888.79998779296875</AltitudeMeters>
            <DistanceMeters>8997.4333578732</DistanceMeters>
          </Trackpoint>
          <Trackpoint>
            <Time>2021-08-01T11:55:38.000Z</Time>
            <Position>
              <LatitudeDegrees>-15.4429835267364978790283203125</LatitudeDegrees>
              <LongitudeDegrees>37.05421806313097476959228515625</LongitudeDegrees>
            </Position>
            <AltitudeMeters>888.79998779296875</AltitudeMeters>
            <DistanceMeters>8999.8653735127</DistanceMeters>
          </Trackpoint>
          <Trackpoint>
            <Time>2021-08-01T11:55:42.000Z</Time>
            <Position>
              <LatitudeDegrees>-15.4429583810269832611083984375</LatitudeDegrees>
              <LongitudeDegrees>37.054246477782726287841796875</LongitudeDegrees>
            </Position>
            <AltitudeMeters>890</AltitudeMeters>
            <DistanceMeters>9004.0031295395</DistanceMeters>
          </Trackpoint>
          <Trackpoint>
            <Time>2021-08-01T11:55:45.000Z</Time>
            <Position>
              <LatitudeDegrees>-15.44294505380094051361083984375</LatitudeDegrees>
              <LongitudeDegrees>37.05426617525517940521240234375</LongitudeDegrees>
            </Position>
            <AltitudeMeters>890.4000244140625</AltitudeMeters>
            <DistanceMeters>9006.5846400306</DistanceMeters>
          </Trackpoint>
          <Trackpoint>
            <Time>2021-08-01T11:55:49.000Z</Time>
            <Position>
              <LatitudeDegrees>-15.442915968596935272216796875</LatitudeDegrees>
              <LongitudeDegrees>37.054275311529636383056640625</LongitudeDegrees>
            </Position>
            <AltitudeMeters>891.20001220703125</AltitudeMeters>
            <DistanceMeters>9009.9671105559</DistanceMeters>
          </Trackpoint>
          <Trackpoint>
            <Time>2021-08-01T11:55:53.000Z</Time>
            <Position>
              <LatitudeDegrees>-15.4428933374583721160888671875</LatitudeDegrees>
              <LongitudeDegrees>37.05428679473698139190673828125</LongitudeDegrees>
            </Position>
            <AltitudeMeters>892.20001220703125</AltitudeMeters>
            <DistanceMeters>9012.7699959453</DistanceMeters>
          </Trackpoint>
          <Trackpoint>
            <Time>2021-08-01T11:55:58.000Z</Time>
            <Position>
              <LatitudeDegrees>-15.4428618215024471282958984375</LatitudeDegrees>
              <LongitudeDegrees>37.05425796099007129669189453125</LongitudeDegrees>
            </Position>
            <AltitudeMeters>893</AltitudeMeters>
            <DistanceMeters>9017.4466234853</DistanceMeters>
          </Trackpoint>
          <Trackpoint>
            <Time>2021-08-01T11:56:00.000Z</Time>
            <Position>
              <LatitudeDegrees>-15.442861653864383697509765625</LatitudeDegrees>
              <LongitudeDegrees>37.05425242893397808074951171875</LongitudeDegrees>
            </Position>
            <AltitudeMeters>893.4000244140625</AltitudeMeters>
            <DistanceMeters>9018.0400651263</DistanceMeters>
          </Trackpoint>
          <Trackpoint>
            <Time>2021-08-01T11:56:04.000Z</Time>
            <Position>
              <LatitudeDegrees>-15.4428349994122982025146484375</LatitudeDegrees>
              <LongitudeDegrees>37.0542147941887378692626953125</LongitudeDegrees>
            </Position>
            <AltitudeMeters>894</AltitudeMeters>
            <DistanceMeters>9023.0495144411</DistanceMeters>
          </Trackpoint>
          <Trackpoint>
            <Time>2021-08-01T11:56:06.000Z</Time>
            <Position>
              <LatitudeDegrees>-15.4428269527852535247802734375</LatitudeDegrees>
              <LongitudeDegrees>37.05420322716236114501953125</LongitudeDegrees>
            </Position>
            <AltitudeMeters>894.5999755859375</AltitudeMeters>
            <DistanceMeters>9024.5817741696</DistanceMeters>
          </Trackpoint>
          <Trackpoint>
            <Time>2021-08-01T11:56:07.000Z</Time>
            <Position>
              <LatitudeDegrees>-15.44282586313784122467041015625</LatitudeDegrees>
              <LongitudeDegrees>37.05419057048857212066650390625</LongitudeDegrees>
            </Position>
            <AltitudeMeters>894.5999755859375</AltitudeMeters>
            <DistanceMeters>9025.9456641019</DistanceMeters>
          </Trackpoint>
          <Trackpoint>
            <Time>2021-08-01T11:56:12.000Z</Time>
            <Position>
              <LatitudeDegrees>-15.4428277909755706787109375</LatitudeDegrees>
              <LongitudeDegrees>37.05413214862346649169921875</LongitudeDegrees>
            </Position>
            <AltitudeMeters>895.4000244140625</AltitudeMeters>
            <DistanceMeters>9032.2174272503</DistanceMeters>
          </Trackpoint>
          <Trackpoint>
            <Time>2021-08-01T11:56:14.000Z</Time>
            <Position>
              <LatitudeDegrees>-15.4428252764046192169189453125</LatitudeDegrees>
              <LongitudeDegrees>37.0541078411042690277099609375</LongitudeDegrees>
            </Position>
            <AltitudeMeters>895.5999755859375</AltitudeMeters>
            <DistanceMeters>9034.840577694</DistanceMeters>
          </Trackpoint>
          <Trackpoint>
            <Time>2021-08-01T11:56:19.000Z</Time>
            <Position>
              <LatitudeDegrees>-15.44285352341830730438232421875</LatitudeDegrees>
              <LongitudeDegrees>37.05405771732330322265625</LongitudeDegrees>
            </Position>
            <AltitudeMeters>896.20001220703125</AltitudeMeters>
            <DistanceMeters>9041.0697219755</DistanceMeters>
          </Trackpoint>
          <Trackpoint>
            <Time>2021-08-01T11:56:26.000Z</Time>
            <Position>
              <LatitudeDegrees>-15.4428366757929325103759765625</LatitudeDegrees>
              <LongitudeDegrees>37.0539754070341587066650390625</LongitudeDegrees>
            </Position>
            <AltitudeMeters>896.79998779296875</AltitudeMeters>
            <DistanceMeters>9050.0967596862</DistanceMeters>
          </Trackpoint>
          <Trackpoint>
            <Time>2021-08-01T11:56:28.000Z</Time>
            <Position>
              <LatitudeDegrees>-15.44284095056354999542236328125</LatitudeDegrees>
              <LongitudeDegrees>37.0539522729814052581787109375</LongitudeDegrees>
            </Position>
            <AltitudeMeters>897</AltitudeMeters>
            <DistanceMeters>9052.6252561015</DistanceMeters>
          </Trackpoint>
          <Trackpoint>
            <Time>2021-08-01T11:56:36.000Z</Time>
            <Position>
              <LatitudeDegrees>-15.4428155533969402313232421875</LatitudeDegrees>
              <LongitudeDegrees>37.05384992994368076324462890625</LongitudeDegrees>
            </Position>
            <AltitudeMeters>898</AltitudeMeters>
            <DistanceMeters>9063.9629427341</DistanceMeters>
          </Trackpoint>
          <Trackpoint>
            <Time>2021-08-01T11:56:38.000Z</Time>
            <Position>
              <LatitudeDegrees>-15.4428054951131343841552734375</LatitudeDegrees>
              <LongitudeDegrees>37.05383350141346454620361328125</LongitudeDegrees>
            </Position>
            <AltitudeMeters>898.20001220703125</AltitudeMeters>
            <DistanceMeters>9066.0513696355</DistanceMeters>
          </Trackpoint>
          <Trackpoint>
            <Time>2021-08-01T11:56:42.000Z</Time>
            <Position>
              <LatitudeDegrees>-15.44279652647674083709716796875</LatitudeDegrees>
              <LongitudeDegrees>37.05379821360111236572265625</LongitudeDegrees>
            </Position>
            <AltitudeMeters>899</AltitudeMeters>
            <DistanceMeters>9069.9671160269</DistanceMeters>
          </Trackpoint>
          <Trackpoint>
            <Time>2021-08-01T11:56:47.000Z</Time>
            <Position>
              <LatitudeDegrees>-15.44278621673583984375</LatitudeDegrees>
              <LongitudeDegrees>37.05373090691864490509033203125</LongitudeDegrees>
            </Position>
            <AltitudeMeters>899.5999755859375</AltitudeMeters>
            <DistanceMeters>9077.278617415</DistanceMeters>
          </Trackpoint>
          <Trackpoint>
            <Time>2021-08-01T11:56:52.000Z</Time>
            <Position>
              <LatitudeDegrees>-15.44277858920395374298095703125</LatitudeDegrees>
              <LongitudeDegrees>37.05368279479444026947021484375</LongitudeDegrees>
            </Position>
            <AltitudeMeters>900</AltitudeMeters>
            <DistanceMeters>9082.5094043181</DistanceMeters>
          </Trackpoint>
          <Trackpoint>
            <Time>2021-08-01T11:56:55.000Z</Time>
            <Position>
              <LatitudeDegrees>-15.442762412130832672119140625</LatitudeDegrees>
              <LongitudeDegrees>37.05364675261080265045166015625</LongitudeDegrees>
            </Position>
            <AltitudeMeters>900.20001220703125</AltitudeMeters>
            <DistanceMeters>9086.7750348734</DistanceMeters>
          </Trackpoint>
          <Trackpoint>
            <Time>2021-08-01T11:57:03.000Z</Time>
            <Position>
              <LatitudeDegrees>-15.4427042417228221893310546875</LatitudeDegrees>
              <LongitudeDegrees>37.0535626821219921112060546875</LongitudeDegrees>
            </Position>
            <AltitudeMeters>901</AltitudeMeters>
            <DistanceMeters>9097.8777180418</DistanceMeters>
          </Trackpoint>
          <Trackpoint>
            <Time>2021-08-01T11:57:04.000Z</Time>
            <Position>
              <LatitudeDegrees>-15.44269569218158721923828125</LatitudeDegrees>
              <LongitudeDegrees>37.0535569824278354644775390625</LongitudeDegrees>
            </Position>
            <AltitudeMeters>901.20001220703125</AltitudeMeters>
            <DistanceMeters>9099.0100920326</DistanceMeters>
          </Trackpoint>
          <Trackpoint>
            <Time>2021-08-01T11:57:11.000Z</Time>
            <Position>
              <LatitudeDegrees>-15.44262587092816829681396484375</LatitudeDegrees>
              <LongitudeDegrees>37.05351666547358036041259765625</LongitudeDegrees>
            </Position>
            <AltitudeMeters>902</AltitudeMeters>
            <DistanceMeters>9107.9041051678</DistanceMeters>
          </Trackpoint>
          <Trackpoint>
            <Time>2021-08-01T11:57:12.000Z</Time>
            <Position>
              <LatitudeDegrees>-15.4426153935492038726806640625</LatitudeDegrees>
              <LongitudeDegrees>37.05351180396974086761474609375</LongitudeDegrees>
            </Position>
            <AltitudeMeters>902.20001220703125</AltitudeMeters>
            <DistanceMeters>9109.1790223258</DistanceMeters>
          </Trackpoint>
          <Trackpoint>
            <Time>2021-08-01T11:57:15.000Z</Time>
            <Position>
              <LatitudeDegrees>-15.44258178211748600006103515625</LatitudeDegrees>
              <LongitudeDegrees>37.0535051822662353515625</LongitudeDegrees>
            </Position>
            <AltitudeMeters>902.5999755859375</AltitudeMeters>
            <DistanceMeters>9112.9883966636</DistanceMeters>
          </Trackpoint>
          <Trackpoint>
            <Time>2021-08-01T11:57:22.000Z</Time>
            <Position>
              <LatitudeDegrees>-15.44250953011214733123779296875</LatitudeDegrees>
              <LongitudeDegrees>37.05351817421615123748779296875</LongitudeDegrees>
            </Position>
            <AltitudeMeters>903.4000244140625</AltitudeMeters>
            <DistanceMeters>9121.150190212</DistanceMeters>
          </Trackpoint>
          <Trackpoint>
            <Time>2021-08-01T11:57:24.000Z</Time>
            <Position>
              <LatitudeDegrees>-15.44248740188777446746826171875</LatitudeDegrees>
              <LongitudeDegrees>37.05352940596640110015869140625</LongitudeDegrees>
            </Position>
            <AltitudeMeters>903.4000244140625</AltitudeMeters>
            <DistanceMeters>9123.8911797416</DistanceMeters>
          </Trackpoint>
          <Trackpoint>
            <Time>2021-08-01T11:57:34.000Z</Time>
            <Position>
              <LatitudeDegrees>-15.44240123592317104339599609375</LatitudeDegrees>
              <LongitudeDegrees>37.053612135350704193115234375</LongitudeDegrees>
            </Position>
            <AltitudeMeters>904</AltitudeMeters>
            <DistanceMeters>9136.957957669</DistanceMeters>
          </Trackpoint>
          <Trackpoint>
            <Time>2021-08-01T11:57:37.000Z</Time>
            <Position>
              <LatitudeDegrees>-15.4423756711184978485107421875</LatitudeDegrees>
              <LongitudeDegrees>37.053631581366062164306640625</LongitudeDegrees>
            </Position>
            <AltitudeMeters>904.4000244140625</AltitudeMeters>
            <DistanceMeters>9140.4854844711</DistanceMeters>
          </Trackpoint>
          <Trackpoint>
            <Time>2021-08-01T11:57:39.000Z</Time>
            <Position>
              <LatitudeDegrees>-15.442361421883106231689453125</LatitudeDegrees>
              <LongitudeDegrees>37.0536421425640583038330078125</LongitudeDegrees>
            </Position>
            <AltitudeMeters>904.5999755859375</AltitudeMeters>
            <DistanceMeters>9142.4329525983</DistanceMeters>
          </Trackpoint>
          <Trackpoint>
            <Time>2021-08-01T11:57:41.000Z</Time>
            <Position>
              <LatitudeDegrees>-15.4423552192747592926025390625</LatitudeDegrees>
              <LongitudeDegrees>37.0536622591316699981689453125</LongitudeDegrees>
            </Position>
            <AltitudeMeters>904.5999755859375</AltitudeMeters>
            <DistanceMeters>9144.6977005799</DistanceMeters>
          </Trackpoint>
          <Trackpoint>
            <Time>2021-08-01T11:57:48.000Z</Time>
            <Position>
              <LatitudeDegrees>-15.442365445196628570556640625</LatitudeDegrees>
              <LongitudeDegrees>37.05377214588224887847900390625</LongitudeDegrees>
            </Position>
            <AltitudeMeters>904.4000244140625</AltitudeMeters>
            <DistanceMeters>9156.5413996423</DistanceMeters>
          </Trackpoint>
          <Trackpoint>
            <Time>2021-08-01T11:57:51.000Z</Time>
            <Position>
              <LatitudeDegrees>-15.442369468510150909423828125</LatitudeDegrees>
              <LongitudeDegrees>37.053815983235836029052734375</LongitudeDegrees>
            </Position>
            <AltitudeMeters>904.4000244140625</AltitudeMeters>
            <DistanceMeters>9161.2670084968</DistanceMeters>
          </Trackpoint>
          <Trackpoint>
            <Time>2021-08-01T11:58:00.000Z</Time>
            <Position>
              <LatitudeDegrees>-15.44237994588911533355712890625</LatitudeDegrees>
              <LongitudeDegrees>37.053926289081573486328125</LongitudeDegrees>
            </Position>
            <AltitudeMeters>904.5999755859375</AltitudeMeters>
            <DistanceMeters>9173.1590237671</DistanceMeters>
          </Trackpoint>
          <Trackpoint>
            <Time>2021-08-01T11:58:02.000Z</Time>
            <Position>
              <LatitudeDegrees>-15.44239603914320468902587890625</LatitudeDegrees>
              <LongitudeDegrees>37.0539422146975994110107421875</LongitudeDegrees>
            </Position>
            <AltitudeMeters>904.79998779296875</AltitudeMeters>
            <DistanceMeters>9175.6351945822</DistanceMeters>
          </Trackpoint>
          <Trackpoint>
            <Time>2021-08-01T11:58:11.000Z</Time>
            <Position>
              <LatitudeDegrees>-15.4423961229622364044189453125</LatitudeDegrees>
              <LongitudeDegrees>37.0540402829647064208984375</LongitudeDegrees>
            </Position>
            <AltitudeMeters>905.20001220703125</AltitudeMeters>
            <DistanceMeters>9186.1565874142</DistanceMeters>
          </Trackpoint>
          <Trackpoint>
            <Time>2021-08-01T11:58:16.000Z</Time>
            <Position>
              <LatitudeDegrees>-15.44238028116524219512939453125</LatitudeDegrees>
              <LongitudeDegrees>37.0540997944772243499755859375</LongitudeDegrees>
            </Position>
            <AltitudeMeters>905.4000244140625</AltitudeMeters>
            <DistanceMeters>9192.780569709</DistanceMeters>
          </Trackpoint>
          <Trackpoint>
            <Time>2021-08-01T11:58:21.000Z</Time>
            <Position>
              <LatitudeDegrees>-15.4423718154430389404296875</LatitudeDegrees>
              <LongitudeDegrees>37.05416391603648662567138671875</LongitudeDegrees>
            </Position>
            <AltitudeMeters>905.79998779296875</AltitudeMeters>
            <DistanceMeters>9199.7246757141</DistanceMeters>
          </Trackpoint>
          <Trackpoint>
            <Time>2021-08-01T11:58:23.000Z</Time>
            <Position>
              <LatitudeDegrees>-15.442368127405643463134765625</LatitudeDegrees>
              <LongitudeDegrees>37.054183445870876312255859375</LongitudeDegrees>
            </Position>
            <AltitudeMeters>906</AltitudeMeters>
            <DistanceMeters>9201.8601355251</DistanceMeters>
          </Trackpoint>
          <Trackpoint>
            <Time>2021-08-01T11:58:27.000Z</Time>
            <Position>
              <LatitudeDegrees>-15.44235865585505962371826171875</LatitudeDegrees>
              <LongitudeDegrees>37.05422963015735149383544921875</LongitudeDegrees>
            </Position>
            <AltitudeMeters>906.4000244140625</AltitudeMeters>
            <DistanceMeters>9206.9251574576</DistanceMeters>
          </Trackpoint>
          <Trackpoint>
            <Time>2021-08-01T11:58:31.000Z</Time>
            <Position>
              <LatitudeDegrees>-15.44234172441065311431884765625</LatitudeDegrees>
              <LongitudeDegrees>37.05426734872162342071533203125</LongitudeDegrees>
            </Position>
            <AltitudeMeters>907</AltitudeMeters>
            <DistanceMeters>9211.3893907302</DistanceMeters>
          </Trackpoint>
          <Trackpoint>
            <Time>2021-08-01T11:58:34.000Z</Time>
            <Position>
              <LatitudeDegrees>-15.44232848100364208221435546875</LatitudeDegrees>
              <LongitudeDegrees>37.05429576337337493896484375</LongitudeDegrees>
            </Position>
            <AltitudeMeters>907.5999755859375</AltitudeMeters>
            <DistanceMeters>9214.7758633912</DistanceMeters>
          </Trackpoint>
          <Trackpoint>
            <Time>2021-08-01T11:58:40.000Z</Time>
            <Position>
              <LatitudeDegrees>-15.44229545630514621734619140625</LatitudeDegrees>
              <LongitudeDegrees>37.05433792434632778167724609375</LongitudeDegrees>
            </Position>
            <AltitudeMeters>908.5999755859375</AltitudeMeters>
            <DistanceMeters>9220.6043406865</DistanceMeters>
          </Trackpoint>
          <Trackpoint>
            <Time>2021-08-01T11:58:44.000Z</Time>
            <Position>
              <LatitudeDegrees>-15.442278943955898284912109375</LatitudeDegrees>
              <LongitudeDegrees>37.0543800853192806243896484375</LongitudeDegrees>
            </Position>
            <AltitudeMeters>909.20001220703125</AltitudeMeters>
            <DistanceMeters>9225.4859768606</DistanceMeters>
          </Trackpoint>
          <Trackpoint>
            <Time>2021-08-01T11:58:47.000Z</Time>
            <Position>
              <LatitudeDegrees>-15.44225974939763545989990234375</LatitudeDegrees>
              <LongitudeDegrees>37.0544002018868923187255859375</LongitudeDegrees>
            </Position>
            <AltitudeMeters>909.79998779296875</AltitudeMeters>
            <DistanceMeters>9228.5223740759</DistanceMeters>
          </Trackpoint>
          <Trackpoint>
            <Time>2021-08-01T11:58:49.000Z</Time>
            <Position>
              <LatitudeDegrees>-15.4422455839812755584716796875</LatitudeDegrees>
              <LongitudeDegrees>37.05441906116902828216552734375</LongitudeDegrees>
            </Position>
            <AltitudeMeters>910</AltitudeMeters>
            <DistanceMeters>9231.0880953639</DistanceMeters>
          </Trackpoint>
          <Trackpoint>
            <Time>2021-08-01T11:58:54.000Z</Time>
            <Position>
              <LatitudeDegrees>-15.44221532531082630157470703125</LatitudeDegrees>
              <LongitudeDegrees>37.0544625632464885711669921875</LongitudeDegrees>
            </Position>
            <AltitudeMeters>910.5999755859375</AltitudeMeters>
            <DistanceMeters>9236.8432947867</DistanceMeters>
          </Trackpoint>
          <Trackpoint>
            <Time>2021-08-01T11:58:56.000Z</Time>
            <Position>
              <LatitudeDegrees>-15.4422013275325298309326171875</LatitudeDegrees>
              <LongitudeDegrees>37.0544816739857196807861328125</LongitudeDegrees>
            </Position>
            <AltitudeMeters>911</AltitudeMeters>
            <DistanceMeters>9239.417799809</DistanceMeters>
          </Trackpoint>
          <Trackpoint>
            <Time>2021-08-01T11:59:00.000Z</Time>
            <Position>
              <LatitudeDegrees>-15.442168302834033966064453125</LatitudeDegrees>
              <LongitudeDegrees>37.05451570451259613037109375</LongitudeDegrees>
            </Position>
            <AltitudeMeters>911.20001220703125</AltitudeMeters>
            <DistanceMeters>9244.5982811758</DistanceMeters>
          </Trackpoint>
          <Trackpoint>
            <Time>2021-08-01T11:59:08.000Z</Time>
            <Position>
              <LatitudeDegrees>-15.44210753403604030609130859375</LatitudeDegrees>
              <LongitudeDegrees>37.05457010306417942047119140625</LongitudeDegrees>
            </Position>
            <AltitudeMeters>912</AltitudeMeters>
            <DistanceMeters>9253.5318031919</DistanceMeters>
          </Trackpoint>
          <Trackpoint>
            <Time>2021-08-01T11:59:11.000Z</Time>
            <Position>
              <LatitudeDegrees>-15.44208356179296970367431640625</LatitudeDegrees>
              <LongitudeDegrees>37.05459726043045520782470703125</LongitudeDegrees>
            </Position>
            <AltitudeMeters>912.4000244140625</AltitudeMeters>
            <DistanceMeters>9257.4819895286</DistanceMeters>
          </Trackpoint>
          <Trackpoint>
            <Time>2021-08-01T11:59:12.000Z</Time>
            <Position>
              <LatitudeDegrees>-15.44207400642335414886474609375</LatitudeDegrees>
              <LongitudeDegrees>37.05460396595299243927001953125</LongitudeDegrees>
            </Position>
            <AltitudeMeters>912.4000244140625</AltitudeMeters>
            <DistanceMeters>9258.7674870935</DistanceMeters>
          </Trackpoint>
          <Trackpoint>
            <Time>2021-08-01T11:59:17.000Z</Time>
            <Position>
              <LatitudeDegrees>-15.44203142635524272918701171875</LatitudeDegrees>
              <LongitudeDegrees>37.05463363789021968841552734375</LongitudeDegrees>
            </Position>
            <AltitudeMeters>912.79998779296875</AltitudeMeters>
            <DistanceMeters>9264.4762125104</DistanceMeters>
          </Trackpoint>
          <Trackpoint>
            <Time>2021-08-01T11:59:20.000Z</Time>
            <Position>
              <LatitudeDegrees>-15.44200493954122066497802734375</LatitudeDegrees>
              <LongitudeDegrees>37.0546603761613368988037109375</LongitudeDegrees>
            </Position>
            <AltitudeMeters>913.20001220703125</AltitudeMeters>
            <DistanceMeters>9268.5898925242</DistanceMeters>
          </Trackpoint>
          <Trackpoint>
            <Time>2021-08-01T11:59:30.000Z</Time>
            <Position>
              <LatitudeDegrees>-15.4419089667499065399169921875</LatitudeDegrees>
              <LongitudeDegrees>37.05473162233829498291015625</LongitudeDegrees>
            </Position>
            <AltitudeMeters>914</AltitudeMeters>
            <DistanceMeters>9281.7252520783</DistanceMeters>
          </Trackpoint>
          <Trackpoint>
            <Time>2021-08-01T11:59:34.000Z</Time>
            <Position>
              <LatitudeDegrees>-15.4418740980327129364013671875</LatitudeDegrees>
              <LongitudeDegrees>37.054753415286540985107421875</LongitudeDegrees>
            </Position>
            <AltitudeMeters>914.4000244140625</AltitudeMeters>
            <DistanceMeters>9286.2577374793</DistanceMeters>
          </Trackpoint>
          <Trackpoint>
            <Time>2021-08-01T11:59:39.000Z</Time>
            <Position>
              <LatitudeDegrees>-15.44182556681334972381591796875</LatitudeDegrees>
              <LongitudeDegrees>37.054777555167675018310546875</LongitudeDegrees>
            </Position>
            <AltitudeMeters>915</AltitudeMeters>
            <DistanceMeters>9292.246682598</DistanceMeters>
          </Trackpoint>
          <Trackpoint>
            <Time>2021-08-01T11:59:42.000Z</Time>
            <Position>
              <LatitudeDegrees>-15.44179287739098072052001953125</LatitudeDegrees>
              <LongitudeDegrees>37.054801695048809051513671875</LongitudeDegrees>
            </Position>
            <AltitudeMeters>915.4000244140625</AltitudeMeters>
            <DistanceMeters>9296.7109158706</DistanceMeters>
          </Trackpoint>
          <Trackpoint>
            <Time>2021-08-01T11:59:49.000Z</Time>
            <Position>
              <LatitudeDegrees>-15.441731773316860198974609375</LatitudeDegrees>
              <LongitudeDegrees>37.0548491366207599639892578125</LongitudeDegrees>
            </Position>
            <AltitudeMeters>916.20001220703125</AltitudeMeters>
            <DistanceMeters>9305.2055813062</DistanceMeters>
          </Trackpoint>
          <Trackpoint>
            <Time>2021-08-01T11:59:54.000Z</Time>
            <Position>
              <LatitudeDegrees>-15.44168592430651187896728515625</LatitudeDegrees>
              <LongitudeDegrees>37.0548796467483043670654296875</LongitudeDegrees>
            </Position>
            <AltitudeMeters>916.4000244140625</AltitudeMeters>
            <DistanceMeters>9311.2679579959</DistanceMeters>
          </Trackpoint>
          <Trackpoint>
            <Time>2021-08-01T11:59:56.000Z</Time>
            <Position>
              <LatitudeDegrees>-15.4416645504534244537353515625</LatitudeDegrees>
              <LongitudeDegrees>37.054899595677852630615234375</LongitudeDegrees>
            </Position>
            <AltitudeMeters>916.5999755859375</AltitudeMeters>
            <DistanceMeters>9314.4679746657</DistanceMeters>
          </Trackpoint>
          <Trackpoint>
            <Time>2021-08-01T12:00:03.000Z</Time>
            <Position>
              <LatitudeDegrees>-15.44160579331219196319580078125</LatitudeDegrees>
              <LongitudeDegrees>37.054946534335613250732421875</LongitudeDegrees>
            </Position>
            <AltitudeMeters>917.4000244140625</AltitudeMeters>
            <DistanceMeters>9322.7232752007</DistanceMeters>
          </Trackpoint>
          <Trackpoint>
            <Time>2021-08-01T12:00:05.000Z</Time>
            <Position>
              <LatitudeDegrees>-15.441588945686817169189453125</LatitudeDegrees>
              <LongitudeDegrees>37.05495583824813365936279296875</LongitudeDegrees>
            </Position>
            <AltitudeMeters>917.5999755859375</AltitudeMeters>
            <DistanceMeters>9324.8523826134</DistanceMeters>
          </Trackpoint>
          <Trackpoint>
            <Time>2021-08-01T12:00:06.000Z</Time>
            <Position>
              <LatitudeDegrees>-15.441580228507518768310546875</LatitudeDegrees>
              <LongitudeDegrees>37.05496053211390972137451171875</LongitudeDegrees>
            </Position>
            <AltitudeMeters>917.79998779296875</AltitudeMeters>
            <DistanceMeters>9325.948284145</DistanceMeters>
          </Trackpoint>
          <Trackpoint>
            <Time>2021-08-01T12:00:08.000Z</Time>
            <Position>
              <LatitudeDegrees>-15.44156086631119251251220703125</LatitudeDegrees>
              <LongitudeDegrees>37.05497276969254016876220703125</LongitudeDegrees>
            </Position>
            <AltitudeMeters>918</AltitudeMeters>
            <DistanceMeters>9328.4714178896</DistanceMeters>
          </Trackpoint>
          <Trackpoint>
            <Time>2021-08-01T12:00:13.000Z</Time>
            <Position>
              <LatitudeDegrees>-15.4415146820247173309326171875</LatitudeDegrees>
              <LongitudeDegrees>37.05500386655330657958984375</LongitudeDegrees>
            </Position>
            <AltitudeMeters>918.4000244140625</AltitudeMeters>
            <DistanceMeters>9334.6004568034</DistanceMeters>
          </Trackpoint>
          <Trackpoint>
            <Time>2021-08-01T12:00:16.000Z</Time>
            <Position>
              <LatitudeDegrees>-15.441489033401012420654296875</LatitudeDegrees>
              <LongitudeDegrees>37.05501702614128589630126953125</LongitudeDegrees>
            </Position>
            <AltitudeMeters>918.5999755859375</AltitudeMeters>
            <DistanceMeters>9337.784915289</DistanceMeters>
          </Trackpoint>
          <Trackpoint>
            <Time>2021-08-01T12:00:20.000Z</Time>
            <Position>
              <LatitudeDegrees>-15.441448800265789031982421875</LatitudeDegrees>
              <LongitudeDegrees>37.055032365024089813232421875</LongitudeDegrees>
            </Position>
            <AltitudeMeters>919</AltitudeMeters>
            <DistanceMeters>9342.555218491</DistanceMeters>
          </Trackpoint>
          <Trackpoint>
            <Time>2021-08-01T12:00:22.000Z</Time>
            <Position>
              <LatitudeDegrees>-15.44143027625977993011474609375</LatitudeDegrees>
              <LongitudeDegrees>37.0550435967743396759033203125</LongitudeDegrees>
            </Position>
            <AltitudeMeters>919.20001220703125</AltitudeMeters>
            <DistanceMeters>9344.9441530469</DistanceMeters>
          </Trackpoint>
          <Trackpoint>
            <Time>2021-08-01T12:00:27.000Z</Time>
            <Position>
              <LatitudeDegrees>-15.4413909651339054107666015625</LatitudeDegrees>
              <LongitudeDegrees>37.05508424900472164154052734375</LongitudeDegrees>
            </Position>
            <AltitudeMeters>919.5999755859375</AltitudeMeters>
            <DistanceMeters>9351.1223512575</DistanceMeters>
          </Trackpoint>
          <Trackpoint>
            <Time>2021-08-01T12:00:29.000Z</Time>
            <Position>
              <LatitudeDegrees>-15.44137738645076751708984375</LatitudeDegrees>
              <LongitudeDegrees>37.05510101281106472015380859375</LongitudeDegrees>
            </Position>
            <AltitudeMeters>920</AltitudeMeters>
            <DistanceMeters>9353.4731823411</DistanceMeters>
          </Trackpoint>
          <Trackpoint>
            <Time>2021-08-01T12:00:35.000Z</Time>
            <Position>
              <LatitudeDegrees>-15.4413445293903350830078125</LatitudeDegrees>
              <LongitudeDegrees>37.0551488734781742095947265625</LongitudeDegrees>
            </Position>
            <AltitudeMeters>920.5999755859375</AltitudeMeters>
            <DistanceMeters>9359.7765414736</DistanceMeters>
          </Trackpoint>
          <Trackpoint>
            <Time>2021-08-01T12:00:39.000Z</Time>
            <Position>
              <LatitudeDegrees>-15.4413203895092010498046875</LatitudeDegrees>
              <LongitudeDegrees>37.055181227624416351318359375</LongitudeDegrees>
            </Position>
            <AltitudeMeters>920.79998779296875</AltitudeMeters>
            <DistanceMeters>9364.166323146</DistanceMeters>
          </Trackpoint>
          <Trackpoint>
            <Time>2021-08-01T12:00:40.000Z</Time>
            <Position>
              <LatitudeDegrees>-15.44131259433925151824951171875</LatitudeDegrees>
              <LongitudeDegrees>37.05519237555563449859619140625</LongitudeDegrees>
            </Position>
            <AltitudeMeters>921</AltitudeMeters>
            <DistanceMeters>9365.6445918967</DistanceMeters>
          </Trackpoint>
          <Trackpoint>
            <Time>2021-08-01T12:00:46.000Z</Time>
            <Position>
              <LatitudeDegrees>-15.44130370952188968658447265625</LatitudeDegrees>
              <LongitudeDegrees>37.055252976715564727783203125</LongitudeDegrees>
            </Position>
            <AltitudeMeters>921.4000244140625</AltitudeMeters>
            <DistanceMeters>9372.2206877058</DistanceMeters>
          </Trackpoint>
          <Trackpoint>
            <Time>2021-08-01T12:00:50.000Z</Time>
            <Position>
              <LatitudeDegrees>-15.44127420522272586822509765625</LatitudeDegrees>
              <LongitudeDegrees>37.05529547296464443206787109375</LongitudeDegrees>
            </Position>
            <AltitudeMeters>921.79998779296875</AltitudeMeters>
            <DistanceMeters>9377.8401340597</DistanceMeters>
          </Trackpoint>
          <Trackpoint>
            <Time>2021-08-01T12:00:54.000Z</Time>
            <Position>
              <LatitudeDegrees>-15.44124838896095752716064453125</LatitudeDegrees>
              <LongitudeDegrees>37.05535632558166980743408203125</LongitudeDegrees>
            </Position>
            <AltitudeMeters>922</AltitudeMeters>
            <DistanceMeters>9384.9734699387</DistanceMeters>
          </Trackpoint>
          <Trackpoint>
            <Time>2021-08-01T12:01:00.000Z</Time>
            <Position>
              <LatitudeDegrees>-15.441216118633747100830078125</LatitudeDegrees>
              <LongitudeDegrees>37.055405862629413604736328125</LongitudeDegrees>
            </Position>
            <AltitudeMeters>922.4000244140625</AltitudeMeters>
            <DistanceMeters>9391.3875971808</DistanceMeters>
          </Trackpoint>
          <Trackpoint>
            <Time>2021-08-01T12:01:05.000Z</Time>
            <Position>
              <LatitudeDegrees>-15.44116892851889133453369140625</LatitudeDegrees>
              <LongitudeDegrees>37.055446766316890716552734375</LongitudeDegrees>
            </Position>
            <AltitudeMeters>922.79998779296875</AltitudeMeters>
            <DistanceMeters>9398.2321597374</DistanceMeters>
          </Trackpoint>
          <Trackpoint>
            <Time>2021-08-01T12:01:07.000Z</Time>
            <Position>
              <LatitudeDegrees>-15.4411452077329158782958984375</LatitudeDegrees>
              <LongitudeDegrees>37.055444419384002685546875</LongitudeDegrees>
            </Position>
            <AltitudeMeters>923.20001220703125</AltitudeMeters>
            <DistanceMeters>9400.8861114375</DistanceMeters>
          </Trackpoint>
          <Trackpoint>
            <Time>2021-08-01T12:01:15.000Z</Time>
            <Position>
              <LatitudeDegrees>-15.44106499291956424713134765625</LatitudeDegrees>
              <LongitudeDegrees>37.0553934574127197265625</LongitudeDegrees>
            </Position>
            <AltitudeMeters>923.5999755859375</AltitudeMeters>
            <DistanceMeters>9411.355019585</DistanceMeters>
          </Trackpoint>
          <Trackpoint>
            <Time>2021-08-01T12:01:18.000Z</Time>
            <Position>
              <LatitudeDegrees>-15.44105191715061664581298828125</LatitudeDegrees>
              <LongitudeDegrees>37.05536051653325557708740234375</LongitudeDegrees>
            </Position>
            <AltitudeMeters>924</AltitudeMeters>
            <DistanceMeters>9415.1774093723</DistanceMeters>
          </Trackpoint>
          <Trackpoint>
            <Time>2021-08-01T12:01:21.000Z</Time>
            <Position>
              <LatitudeDegrees>-15.44103615917265415191650390625</LatitudeDegrees>
              <LongitudeDegrees>37.05532631836831569671630859375</LongitudeDegrees>
            </Position>
            <AltitudeMeters>924.5999755859375</AltitudeMeters>
            <DistanceMeters>9419.2425096038</DistanceMeters>
          </Trackpoint>
          <Trackpoint>
            <Time>2021-08-01T12:01:23.000Z</Time>
            <Position>
              <LatitudeDegrees>-15.4410285316407680511474609375</LatitudeDegrees>
              <LongitudeDegrees>37.05531123094260692596435546875</LongitudeDegrees>
            </Position>
            <AltitudeMeters>924.79998779296875</AltitudeMeters>
            <DistanceMeters>9421.0703849509</DistanceMeters>
          </Trackpoint>
          <Trackpoint>
            <Time>2021-08-01T12:01:24.000Z</Time>
            <Position>
              <LatitudeDegrees>-15.44102274812757968902587890625</LatitudeDegrees>
              <LongitudeDegrees>37.0553017593920230865478515625</LongitudeDegrees>
            </Position>
            <AltitudeMeters>925</AltitudeMeters>
            <DistanceMeters>9422.2723883748</DistanceMeters>
          </Trackpoint>
          <Trackpoint>
            <Time>2021-08-01T12:01:29.000Z</Time>
            <Position>
              <LatitudeDegrees>-15.44098871760070323944091796875</LatitudeDegrees>
              <LongitudeDegrees>37.0552554912865161895751953125</LongitudeDegrees>
            </Position>
            <AltitudeMeters>926</AltitudeMeters>
            <DistanceMeters>9428.5167354251</DistanceMeters>
          </Trackpoint>
          <Trackpoint>
            <Time>2021-08-01T12:01:30.000Z</Time>
            <Position>
              <LatitudeDegrees>-15.44097966514527797698974609375</LatitudeDegrees>
              <LongitudeDegrees>37.05525197088718414306640625</LongitudeDegrees>
            </Position>
            <AltitudeMeters>926.20001220703125</AltitudeMeters>
            <DistanceMeters>9429.5918399711</DistanceMeters>
          </Trackpoint>
          <Trackpoint>
            <Time>2021-08-01T12:01:33.000Z</Time>
            <Position>
              <LatitudeDegrees>-15.440949238836765289306640625</LatitudeDegrees>
              <LongitudeDegrees>37.0552350394427776336669921875</LongitudeDegrees>
            </Position>
            <AltitudeMeters>926.5999755859375</AltitudeMeters>
            <DistanceMeters>9433.4342578278</DistanceMeters>
          </Trackpoint>
          <Trackpoint>
            <Time>2021-08-01T12:01:35.000Z</Time>
            <Position>
              <LatitudeDegrees>-15.44092870317399501800537109375</LatitudeDegrees>
              <LongitudeDegrees>37.05523587763309478759765625</LongitudeDegrees>
            </Position>
            <AltitudeMeters>927</AltitudeMeters>
            <DistanceMeters>9435.722804165</DistanceMeters>
          </Trackpoint>
          <Trackpoint>
            <Time>2021-08-01T12:01:36.000Z</Time>
            <Position>
              <LatitudeDegrees>-15.4409180581569671630859375</LatitudeDegrees>
              <LongitudeDegrees>37.0552400685846805572509765625</LongitudeDegrees>
            </Position>
            <AltitudeMeters>927.20001220703125</AltitudeMeters>
            <DistanceMeters>9436.9870523727</DistanceMeters>
          </Trackpoint>
          <Trackpoint>
            <Time>2021-08-01T12:01:38.000Z</Time>
            <Position>
              <LatitudeDegrees>-15.440896265208721160888671875</LatitudeDegrees>
              <LongitudeDegrees>37.0552407391369342803955078125</LongitudeDegrees>
            </Position>
            <AltitudeMeters>927.5999755859375</AltitudeMeters>
            <DistanceMeters>9439.4134921188</DistanceMeters>
          </Trackpoint>
          <Trackpoint>
            <Time>2021-08-01T12:01:43.000Z</Time>
            <Position>
              <LatitudeDegrees>-15.44085091911256313323974609375</LatitudeDegrees>
              <LongitudeDegrees>37.05522171221673488616943359375</LongitudeDegrees>
            </Position>
            <AltitudeMeters>928.20001220703125</AltitudeMeters>
            <DistanceMeters>9444.8574530747</DistanceMeters>
          </Trackpoint>
          <Trackpoint>
            <Time>2021-08-01T12:01:46.000Z</Time>
            <Position>
              <LatitudeDegrees>-15.4408228397369384765625</LatitudeDegrees>
              <LongitudeDegrees>37.05523311160504817962646484375</LongitudeDegrees>
            </Position>
            <AltitudeMeters>928.79998779296875</AltitudeMeters>
            <DistanceMeters>9448.2117749509</DistanceMeters>
          </Trackpoint>
          <Trackpoint>
            <Time>2021-08-01T12:01:49.000Z</Time>
            <Position>
              <LatitudeDegrees>-15.4407941736280918121337890625</LatitudeDegrees>
              <LongitudeDegrees>37.0552595146000385284423828125</LongitudeDegrees>
            </Position>
            <AltitudeMeters>929.4000244140625</AltitudeMeters>
            <DistanceMeters>9452.4774055062</DistanceMeters>
          </Trackpoint>
          <Trackpoint>
            <Time>2021-08-01T12:01:51.000Z</Time>
            <Position>
              <LatitudeDegrees>-15.4407844506204128265380859375</LatitudeDegrees>
              <LongitudeDegrees>37.05527803860604763031005859375</LongitudeDegrees>
            </Position>
            <AltitudeMeters>929.79998779296875</AltitudeMeters>
            <DistanceMeters>9454.7421534878</DistanceMeters>
          </Trackpoint>
          <Trackpoint>
            <Time>2021-08-01T12:01:54.000Z</Time>
            <Position>
              <LatitudeDegrees>-15.44077749364078044891357421875</LatitudeDegrees>
              <LongitudeDegrees>37.05531642772257328033447265625</LongitudeDegrees>
            </Position>
            <AltitudeMeters>930</AltitudeMeters>
            <DistanceMeters>9458.9341135019</DistanceMeters>
          </Trackpoint>
          <Trackpoint>
            <Time>2021-08-01T12:01:55.000Z</Time>
            <Position>
              <LatitudeDegrees>-15.4407750628888607025146484375</LatitudeDegrees>
              <LongitudeDegrees>37.05533000640571117401123046875</LongitudeDegrees>
            </Position>
            <AltitudeMeters>930.5999755859375</AltitudeMeters>
            <DistanceMeters>9460.4154333782</DistanceMeters>
          </Trackpoint>
          <Trackpoint>
            <Time>2021-08-01T12:02:01.000Z</Time>
            <Position>
              <LatitudeDegrees>-15.4407871328294277191162109375</LatitudeDegrees>
              <LongitudeDegrees>37.055390439927577972412109375</LongitudeDegrees>
            </Position>
            <AltitudeMeters>931.79998779296875</AltitudeMeters>
            <DistanceMeters>9467.0360066962</DistanceMeters>
          </Trackpoint>
          <Trackpoint>
            <Time>2021-08-01T12:02:07.000Z</Time>
            <Position>
              <LatitudeDegrees>-15.44080263935029506683349609375</LatitudeDegrees>
              <LongitudeDegrees>37.05545808188617229461669921875</LongitudeDegrees>
            </Position>
            <AltitudeMeters>933.20001220703125</AltitudeMeters>
            <DistanceMeters>9474.4954524563</DistanceMeters>
          </Trackpoint>
          <Trackpoint>
            <Time>2021-08-01T12:02:08.000Z</Time>
            <Position>
              <LatitudeDegrees>-15.44080674648284912109375</LatitudeDegrees>
              <LongitudeDegrees>37.05546663142740726470947265625</LongitudeDegrees>
            </Position>
            <AltitudeMeters>933.5999755859375</AltitudeMeters>
            <DistanceMeters>9475.5189214922</DistanceMeters>
          </Trackpoint>
          <Trackpoint>
            <Time>2021-08-01T12:02:12.000Z</Time>
            <Position>
              <LatitudeDegrees>-15.44081906788051128387451171875</LatitudeDegrees>
              <LongitudeDegrees>37.05550267361104488372802734375</LongitudeDegrees>
            </Position>
            <AltitudeMeters>934.20001220703125</AltitudeMeters>
            <DistanceMeters>9479.6216111577</DistanceMeters>
          </Trackpoint>
          <Trackpoint>
            <Time>2021-08-01T12:02:17.000Z</Time>
            <Position>
              <LatitudeDegrees>-15.440830551087856292724609375</LatitudeDegrees>
              <LongitudeDegrees>37.05556168220937252044677734375</LongitudeDegrees>
            </Position>
            <AltitudeMeters>935.20001220703125</AltitudeMeters>
            <DistanceMeters>9486.0799331607</DistanceMeters>
          </Trackpoint>
          <Trackpoint>
            <Time>2021-08-01T12:02:18.000Z</Time>
            <Position>
              <LatitudeDegrees>-15.44083893299102783203125</LatitudeDegrees>
              <LongitudeDegrees>37.05556939356029033660888671875</LongitudeDegrees>
            </Position>
            <AltitudeMeters>935.20001220703125</AltitudeMeters>
            <DistanceMeters>9487.3334216135</DistanceMeters>
          </Trackpoint>
          <Trackpoint>
            <Time>2021-08-01T12:02:20.000Z</Time>
            <Position>
              <LatitudeDegrees>-15.4408518411219120025634765625</LatitudeDegrees>
              <LongitudeDegrees>37.055586241185665130615234375</LongitudeDegrees>
            </Position>
            <AltitudeMeters>935.5999755859375</AltitudeMeters>
            <DistanceMeters>9489.6416124856</DistanceMeters>
          </Trackpoint>
          <Trackpoint>
            <Time>2021-08-01T12:02:24.000Z</Time>
            <Position>
              <LatitudeDegrees>-15.4408699460327625274658203125</LatitudeDegrees>
              <LongitudeDegrees>37.05564030446112155914306640625</LongitudeDegrees>
            </Position>
            <AltitudeMeters>936.4000244140625</AltitudeMeters>
            <DistanceMeters>9495.7816914064</DistanceMeters>
          </Trackpoint>
          <Trackpoint>
            <Time>2021-08-01T12:02:25.000Z</Time>
            <Position>
              <LatitudeDegrees>-15.4408724606037139892578125</LatitudeDegrees>
              <LongitudeDegrees>37.05565254203975200653076171875</LongitudeDegrees>
            </Position>
            <AltitudeMeters>936.79998779296875</AltitudeMeters>
            <DistanceMeters>9497.1188358024</DistanceMeters>
          </Trackpoint>
          <Trackpoint>
            <Time>2021-08-01T12:02:27.000Z</Time>
            <Position>
              <LatitudeDegrees>-15.44087790884077548980712890625</LatitudeDegrees>
              <LongitudeDegrees>37.05567844212055206298828125</LongitudeDegrees>
            </Position>
            <AltitudeMeters>936.79998779296875</AltitudeMeters>
            <DistanceMeters>9499.9617073115</DistanceMeters>
          </Trackpoint>
          <Trackpoint>
            <Time>2021-08-01T12:02:29.000Z</Time>
            <Position>
              <LatitudeDegrees>-15.4408830218017101287841796875</LatitudeDegrees>
              <LongitudeDegrees>37.05570065416395664215087890625</LongitudeDegrees>
            </Position>
            <AltitudeMeters>937.20001220703125</AltitudeMeters>
            <DistanceMeters>9502.4122176329</DistanceMeters>
          </Trackpoint>
          <Trackpoint>
            <Time>2021-08-01T12:02:30.000Z</Time>
            <Position>
              <LatitudeDegrees>-15.44088344089686870574951171875</LatitudeDegrees>
              <LongitudeDegrees>37.05570668913424015045166015625</LongitudeDegrees>
            </Position>
            <AltitudeMeters>937.4000244140625</AltitudeMeters>
            <DistanceMeters>9503.056720167</DistanceMeters>
          </Trackpoint>
          <Trackpoint>
            <Time>2021-08-01T12:02:31.000Z</Time>
            <Position>
              <LatitudeDegrees>-15.4408858716487884521484375</LatitudeDegrees>
              <LongitudeDegrees>37.05571825616061687469482421875</LongitudeDegrees>
            </Position>
            <AltitudeMeters>937.5999755859375</AltitudeMeters>
            <DistanceMeters>9504.3316373251</DistanceMeters>
          </Trackpoint>
          <Trackpoint>
            <Time>2021-08-01T12:02:33.000Z</Time>
            <Position>
              <LatitudeDegrees>-15.44089718721807003021240234375</LatitudeDegrees>
              <LongitudeDegrees>37.0557408034801483154296875</LongitudeDegrees>
            </Position>
            <AltitudeMeters>938</AltitudeMeters>
            <DistanceMeters>9507.0594171897</DistanceMeters>
          </Trackpoint>
          <Trackpoint>
            <Time>2021-08-01T12:02:35.000Z</Time>
            <Position>
              <LatitudeDegrees>-15.44090691022574901580810546875</LatitudeDegrees>
              <LongitudeDegrees>37.055765278637409210205078125</LongitudeDegrees>
            </Position>
            <AltitudeMeters>938.4000244140625</AltitudeMeters>
            <DistanceMeters>9509.9007000585</DistanceMeters>
          </Trackpoint>
          <Trackpoint>
            <Time>2021-08-01T12:02:39.000Z</Time>
            <Position>
              <LatitudeDegrees>-15.440903641283512115478515625</LatitudeDegrees>
              <LongitudeDegrees>37.0558170787990093231201171875</LongitudeDegrees>
            </Position>
            <AltitudeMeters>939.20001220703125</AltitudeMeters>
            <DistanceMeters>9515.4701086973</DistanceMeters>
          </Trackpoint>
          <Trackpoint>
            <Time>2021-08-01T12:02:41.000Z</Time>
            <Position>
              <LatitudeDegrees>-15.440894253551959991455078125</LatitudeDegrees>
              <LongitudeDegrees>37.05583493225276470184326171875</LongitudeDegrees>
            </Position>
            <AltitudeMeters>939.5999755859375</AltitudeMeters>
            <DistanceMeters>9517.6495169219</DistanceMeters>
          </Trackpoint>
          <Trackpoint>
            <Time>2021-08-01T12:02:42.000Z</Time>
            <Position>
              <LatitudeDegrees>-15.44088930822908878326416015625</LatitudeDegrees>
              <LongitudeDegrees>37.05583535134792327880859375</LongitudeDegrees>
            </Position>
            <AltitudeMeters>939.79998779296875</AltitudeMeters>
            <DistanceMeters>9518.1954038357</DistanceMeters>
          </Trackpoint>
          <Trackpoint>
            <Time>2021-08-01T12:02:47.000Z</Time>
            <Position>
              <LatitudeDegrees>-15.4408729635179042816162109375</LatitudeDegrees>
              <LongitudeDegrees>37.05585689283907413482666015625</LongitudeDegrees>
            </Position>
            <AltitudeMeters>940.79998779296875</AltitudeMeters>
            <DistanceMeters>9521.1366303202</DistanceMeters>
          </Trackpoint>
          <Trackpoint>
            <Time>2021-08-01T12:02:48.000Z</Time>
            <Position>
              <LatitudeDegrees>-15.4408689402043819427490234375</LatitudeDegrees>
              <LongitudeDegrees>37.05585940741002559661865234375</LongitudeDegrees>
            </Position>
            <AltitudeMeters>941.20001220703125</AltitudeMeters>
            <DistanceMeters>9521.665716674</DistanceMeters>
          </Trackpoint>
          <Trackpoint>
            <Time>2021-08-01T12:02:50.000Z</Time>
            <Position>
              <LatitudeDegrees>-15.4408555291593074798583984375</LatitudeDegrees>
              <LongitudeDegrees>37.05585923977196216583251953125</LongitudeDegrees>
            </Position>
            <AltitudeMeters>941.5999755859375</AltitudeMeters>
            <DistanceMeters>9523.1591787196</DistanceMeters>
          </Trackpoint>
          <Trackpoint>
            <Time>2021-08-01T12:02:51.000Z</Time>
            <Position>
              <LatitudeDegrees>-15.4408484883606433868408203125</LatitudeDegrees>
              <LongitudeDegrees>37.0558556355535984039306640625</LongitudeDegrees>
            </Position>
            <AltitudeMeters>942</AltitudeMeters>
            <DistanceMeters>9524.0352817374</DistanceMeters>
          </Trackpoint>
          <Trackpoint>
            <Time>2021-08-01T12:02:52.000Z</Time>
            <Position>
              <LatitudeDegrees>-15.44084052555263042449951171875</LatitudeDegrees>
              <LongitudeDegrees>37.05584968440234661102294921875</LongitudeDegrees>
            </Position>
            <AltitudeMeters>942</AltitudeMeters>
            <DistanceMeters>9525.131183269</DistanceMeters>
          </Trackpoint>
          <Trackpoint>
            <Time>2021-08-01T12:02:57.000Z</Time>
            <Position>
              <LatitudeDegrees>-15.44079928658902645111083984375</LatitudeDegrees>
              <LongitudeDegrees>37.05584750510752201080322265625</LongitudeDegrees>
            </Position>
            <AltitudeMeters>943.4000244140625</AltitudeMeters>
            <DistanceMeters>9529.7279624543</DistanceMeters>
          </Trackpoint>
          <Trackpoint>
            <Time>2021-08-01T12:03:05.000Z</Time>
            <Position>
              <LatitudeDegrees>-15.44072829186916351318359375</LatitudeDegrees>
              <LongitudeDegrees>37.0558040030300617218017578125</LongitudeDegrees>
            </Position>
            <AltitudeMeters>944.4000244140625</AltitudeMeters>
            <DistanceMeters>9538.9048079318</DistanceMeters>
          </Trackpoint>
          <Trackpoint>
            <Time>2021-08-01T12:03:06.000Z</Time>
            <Position>
              <LatitudeDegrees>-15.44071915559470653533935546875</LatitudeDegrees>
              <LongitudeDegrees>37.05580450594425201416015625</LongitudeDegrees>
            </Position>
            <AltitudeMeters>944.5999755859375</AltitudeMeters>
            <DistanceMeters>9539.9194155971</DistanceMeters>
          </Trackpoint>
          <Trackpoint>
            <Time>2021-08-01T12:03:13.000Z</Time>
            <Position>
              <LatitudeDegrees>-15.440651513636112213134765625</LatitudeDegrees>
              <LongitudeDegrees>37.05578078515827655792236328125</LongitudeDegrees>
            </Position>
            <AltitudeMeters>945.79998779296875</AltitudeMeters>
            <DistanceMeters>9547.8665128438</DistanceMeters>
          </Trackpoint>
          <Trackpoint>
            <Time>2021-08-01T12:03:17.000Z</Time>
            <Position>
              <LatitudeDegrees>-15.440610945224761962890625</LatitudeDegrees>
              <LongitudeDegrees>37.05575890839099884033203125</LongitudeDegrees>
            </Position>
            <AltitudeMeters>946</AltitudeMeters>
            <DistanceMeters>9552.9555460763</DistanceMeters>
          </Trackpoint>
          <Trackpoint>
            <Time>2021-08-01T12:03:21.000Z</Time>
            <Position>
              <LatitudeDegrees>-15.44057934544980525970458984375</LatitudeDegrees>
              <LongitudeDegrees>37.0557473413646221160888671875</LongitudeDegrees>
            </Position>
            <AltitudeMeters>947</AltitudeMeters>
            <DistanceMeters>9556.6858741852</DistanceMeters>
          </Trackpoint>
          <Trackpoint>
            <Time>2021-08-01T12:03:27.000Z</Time>
            <Position>
              <LatitudeDegrees>-15.44052586890757083892822265625</LatitudeDegrees>
              <LongitudeDegrees>37.0557449944317340850830078125</LongitudeDegrees>
            </Position>
            <AltitudeMeters>947.5999755859375</AltitudeMeters>
            <DistanceMeters>9562.6430715485</DistanceMeters>
          </Trackpoint>
          <Trackpoint>
            <Time>2021-08-01T12:03:28.000Z</Time>
            <Position>
              <LatitudeDegrees>-15.4405179060995578765869140625</LatitudeDegrees>
              <LongitudeDegrees>37.05574306659400463104248046875</LongitudeDegrees>
            </Position>
            <AltitudeMeters>948</AltitudeMeters>
            <DistanceMeters>9563.5545357732</DistanceMeters>
          </Trackpoint>
          <Trackpoint>
            <Time>2021-08-01T12:03:31.000Z</Time>
            <Position>
              <LatitudeDegrees>-15.44050139375030994415283203125</LatitudeDegrees>
              <LongitudeDegrees>37.0557434856891632080078125</LongitudeDegrees>
            </Position>
            <AltitudeMeters>948.4000244140625</AltitudeMeters>
            <DistanceMeters>9565.3947201842</DistanceMeters>
          </Trackpoint>
          <Trackpoint>
            <Time>2021-08-01T12:03:33.000Z</Time>
            <Position>
              <LatitudeDegrees>-15.44048932380974292755126953125</LatitudeDegrees>
              <LongitudeDegrees>37.05575178377330303192138671875</LongitudeDegrees>
            </Position>
            <AltitudeMeters>949.20001220703125</AltitudeMeters>
            <DistanceMeters>9567.001767745</DistanceMeters>
          </Trackpoint>
          <Trackpoint>
            <Time>2021-08-01T12:03:37.000Z</Time>
            <Position>
              <LatitudeDegrees>-15.4404674470424652099609375</LatitudeDegrees>
              <LongitudeDegrees>37.05579117871820926666259765625</LongitudeDegrees>
            </Position>
            <AltitudeMeters>949.79998779296875</AltitudeMeters>
            <DistanceMeters>9571.8787772133</DistanceMeters>
          </Trackpoint>
          <Trackpoint>
            <Time>2021-08-01T12:03:38.000Z</Time>
            <Position>
              <LatitudeDegrees>-15.44046568684279918670654296875</LatitudeDegrees>
              <LongitudeDegrees>37.055804170668125152587890625</LongitudeDegrees>
            </Position>
            <AltitudeMeters>950.20001220703125</AltitudeMeters>
            <DistanceMeters>9573.288251164</DistanceMeters>
          </Trackpoint>
          <Trackpoint>
            <Time>2021-08-01T12:03:40.000Z</Time>
            <Position>
              <LatitudeDegrees>-15.4404674470424652099609375</LatitudeDegrees>
              <LongitudeDegrees>37.05584817565977573394775390625</LongitudeDegrees>
            </Position>
            <AltitudeMeters>950.5999755859375</AltitudeMeters>
            <DistanceMeters>9578.0138600185</DistanceMeters>
          </Trackpoint>
          <Trackpoint>
            <Time>2021-08-01T12:03:43.000Z</Time>
            <Position>
              <LatitudeDegrees>-15.44048823416233062744140625</LatitudeDegrees>
              <LongitudeDegrees>37.05588757060468196868896484375</LongitudeDegrees>
            </Position>
            <AltitudeMeters>951.20001220703125</AltitudeMeters>
            <DistanceMeters>9582.8321923584</DistanceMeters>
          </Trackpoint>
          <Trackpoint>
            <Time>2021-08-01T12:03:48.000Z</Time>
            <Position>
              <LatitudeDegrees>-15.4404971189796924591064453125</LatitudeDegrees>
              <LongitudeDegrees>37.05595278181135654449462890625</LongitudeDegrees>
            </Position>
            <AltitudeMeters>952.20001220703125</AltitudeMeters>
            <DistanceMeters>9589.897478098</DistanceMeters>
          </Trackpoint>
          <Trackpoint>
            <Time>2021-08-01T12:03:49.000Z</Time>
            <Position>
              <LatitudeDegrees>-15.44049770571291446685791015625</LatitudeDegrees>
              <LongitudeDegrees>37.0559661090373992919921875</LongitudeDegrees>
            </Position>
            <AltitudeMeters>952.20001220703125</AltitudeMeters>
            <DistanceMeters>9591.3323500188</DistanceMeters>
          </Trackpoint>
          <Trackpoint>
            <Time>2021-08-01T12:03:53.000Z</Time>
            <Position>
              <LatitudeDegrees>-15.44050357304513454437255859375</LatitudeDegrees>
              <LongitudeDegrees>37.0559987984597682952880859375</LongitudeDegrees>
            </Position>
            <AltitudeMeters>953.5999755859375</AltitudeMeters>
            <DistanceMeters>9594.8993344188</DistanceMeters>
          </Trackpoint>
          <Trackpoint>
            <Time>2021-08-01T12:03:56.000Z</Time>
            <Position>
              <LatitudeDegrees>-15.440511368215084075927734375</LatitudeDegrees>
              <LongitudeDegrees>37.0560277998447418212890625</LongitudeDegrees>
            </Position>
            <AltitudeMeters>954.20001220703125</AltitudeMeters>
            <DistanceMeters>9598.1302427073</DistanceMeters>
          </Trackpoint>
          <Trackpoint>
            <Time>2021-08-01T12:03:58.000Z</Time>
            <Position>
              <LatitudeDegrees>-15.4405209235846996307373046875</LatitudeDegrees>
              <LongitudeDegrees>37.05604380927979946136474609375</LongitudeDegrees>
            </Position>
            <AltitudeMeters>954.5999755859375</AltitudeMeters>
            <DistanceMeters>9600.1527719727</DistanceMeters>
          </Trackpoint>
          <Trackpoint>
            <Time>2021-08-01T12:04:03.000Z</Time>
            <Position>
              <LatitudeDegrees>-15.44052821584045886993408203125</LatitudeDegrees>
              <LongitudeDegrees>37.0561080984771251678466796875</LongitudeDegrees>
            </Position>
            <AltitudeMeters>955.5999755859375</AltitudeMeters>
            <DistanceMeters>9607.0975281446</DistanceMeters>
          </Trackpoint>
          <Trackpoint>
            <Time>2021-08-01T12:04:04.000Z</Time>
            <Position>
              <LatitudeDegrees>-15.44052871875464916229248046875</LatitudeDegrees>
              <LongitudeDegrees>37.0561163127422332763671875</LongitudeDegrees>
            </Position>
            <AltitudeMeters>956</AltitudeMeters>
            <DistanceMeters>9607.9838783297</DistanceMeters>
          </Trackpoint>
          <Trackpoint>
            <Time>2021-08-01T12:04:08.000Z</Time>
            <Position>
              <LatitudeDegrees>-15.4405329935252666473388671875</LatitudeDegrees>
              <LongitudeDegrees>37.0561533607542514801025390625</LongitudeDegrees>
            </Position>
            <AltitudeMeters>956.79998779296875</AltitudeMeters>
            <DistanceMeters>9611.9862970498</DistanceMeters>
          </Trackpoint>
          <Trackpoint>
            <Time>2021-08-01T12:04:12.000Z</Time>
            <Position>
              <LatitudeDegrees>-15.44054280035197734832763671875</LatitudeDegrees>
              <LongitudeDegrees>37.0561902411282062530517578125</LongitudeDegrees>
            </Position>
            <AltitudeMeters>957.4000244140625</AltitudeMeters>
            <DistanceMeters>9616.091187139</DistanceMeters>
          </Trackpoint>
          <Trackpoint>
            <Time>2021-08-01T12:04:15.000Z</Time>
            <Position>
              <LatitudeDegrees>-15.44055202044546604156494140625</LatitudeDegrees>
              <LongitudeDegrees>37.0562090165913105010986328125</LongitudeDegrees>
            </Position>
            <AltitudeMeters>958</AltitudeMeters>
            <DistanceMeters>9618.3519443722</DistanceMeters>
          </Trackpoint>
          <Trackpoint>
            <Time>2021-08-01T12:04:19.000Z</Time>
            <Position>
              <LatitudeDegrees>-15.4405474103987216949462890625</LatitudeDegrees>
              <LongitudeDegrees>37.05623642541468143463134765625</LongitudeDegrees>
            </Position>
            <AltitudeMeters>958.79998779296875</AltitudeMeters>
            <DistanceMeters>9621.3373564795</DistanceMeters>
          </Trackpoint>
          <Trackpoint>
            <Time>2021-08-01T12:04:22.000Z</Time>
            <Position>
              <LatitudeDegrees>-15.44054129160940647125244140625</LatitudeDegrees>
              <LongitudeDegrees>37.05625914037227630615234375</LongitudeDegrees>
            </Position>
            <AltitudeMeters>959.4000244140625</AltitudeMeters>
            <DistanceMeters>9623.867637926</DistanceMeters>
          </Trackpoint>
          <Trackpoint>
            <Time>2021-08-01T12:04:29.000Z</Time>
            <Position>
              <LatitudeDegrees>-15.4405266232788562774658203125</LatitudeDegrees>
              <LongitudeDegrees>37.05632762052118778228759765625</LongitudeDegrees>
            </Position>
            <AltitudeMeters>960.20001220703125</AltitudeMeters>
            <DistanceMeters>9631.393369748</DistanceMeters>
          </Trackpoint>
          <Trackpoint>
            <Time>2021-08-01T12:04:31.000Z</Time>
            <Position>
              <LatitudeDegrees>-15.44051798991858959197998046875</LatitudeDegrees>
              <LongitudeDegrees>37.05634572543203830718994140625</LongitudeDegrees>
            </Position>
            <AltitudeMeters>960.4000244140625</AltitudeMeters>
            <DistanceMeters>9633.5603122371</DistanceMeters>
          </Trackpoint>
          <Trackpoint>
            <Time>2021-08-01T12:04:32.000Z</Time>
            <Position>
              <LatitudeDegrees>-15.44051480479538440704345703125</LatitudeDegrees>
              <LongitudeDegrees>37.056356370449066162109375</LongitudeDegrees>
            </Position>
            <AltitudeMeters>960.5999755859375</AltitudeMeters>
            <DistanceMeters>9634.754779515</DistanceMeters>
          </Trackpoint>
          <Trackpoint>
            <Time>2021-08-01T12:04:37.000Z</Time>
            <Position>
              <LatitudeDegrees>-15.44050977565348148345947265625</LatitudeDegrees>
              <LongitudeDegrees>37.056410349905490875244140625</LongitudeDegrees>
            </Position>
            <AltitudeMeters>961.4000244140625</AltitudeMeters>
            <DistanceMeters>9640.5724015818</DistanceMeters>
          </Trackpoint>
          <Trackpoint>
            <Time>2021-08-01T12:04:43.000Z</Time>
            <Position>
              <LatitudeDegrees>-15.440492592751979827880859375</LatitudeDegrees>
              <LongitudeDegrees>37.0564623177051544189453125</LongitudeDegrees>
            </Position>
            <AltitudeMeters>962.5999755859375</AltitudeMeters>
            <DistanceMeters>9646.4663564578</DistanceMeters>
          </Trackpoint>
          <Trackpoint>
            <Time>2021-08-01T12:04:44.000Z</Time>
            <Position>
              <LatitudeDegrees>-15.4404873959720134735107421875</LatitudeDegrees>
              <LongitudeDegrees>37.0564718730747699737548828125</LongitudeDegrees>
            </Position>
            <AltitudeMeters>962.5999755859375</AltitudeMeters>
            <DistanceMeters>9647.6456069708</DistanceMeters>
          </Trackpoint>
          <Trackpoint>
            <Time>2021-08-01T12:04:50.000Z</Time>
            <Position>
              <LatitudeDegrees>-15.44045696966350078582763671875</LatitudeDegrees>
              <LongitudeDegrees>37.05652191303670406341552734375</LongitudeDegrees>
            </Position>
            <AltitudeMeters>964</AltitudeMeters>
            <DistanceMeters>9653.9932207817</DistanceMeters>
          </Trackpoint>
          <Trackpoint>
            <Time>2021-08-01T12:04:52.000Z</Time>
            <Position>
              <LatitudeDegrees>-15.4404588975012302398681640625</LatitudeDegrees>
              <LongitudeDegrees>37.0565395988523960113525390625</LongitudeDegrees>
            </Position>
            <AltitudeMeters>964</AltitudeMeters>
            <DistanceMeters>9655.9032341019</DistanceMeters>
          </Trackpoint>
          <Trackpoint>
            <Time>2021-08-01T12:04:58.000Z</Time>
            <Position>
              <LatitudeDegrees>-15.44042545370757579803466796875</LatitudeDegrees>
              <LongitudeDegrees>37.05658762715756893157958984375</LongitudeDegrees>
            </Position>
            <AltitudeMeters>965</AltitudeMeters>
            <DistanceMeters>9662.2607982709</DistanceMeters>
          </Trackpoint>
          <Trackpoint>
            <Time>2021-08-01T12:05:05.000Z</Time>
            <Position>
              <LatitudeDegrees>-15.44039829634130001068115234375</LatitudeDegrees>
              <LongitudeDegrees>37.05664026550948619842529296875</LongitudeDegrees>
            </Position>
            <AltitudeMeters>966</AltitudeMeters>
            <DistanceMeters>9668.6657680042</DistanceMeters>
          </Trackpoint>
          <Trackpoint>
            <Time>2021-08-01T12:05:06.000Z</Time>
            <Position>
              <LatitudeDegrees>-15.44039427302777767181396484375</LatitudeDegrees>
              <LongitudeDegrees>37.05664780922234058380126953125</LongitudeDegrees>
            </Position>
            <AltitudeMeters>966.20001220703125</AltitudeMeters>
            <DistanceMeters>9669.5870861826</DistanceMeters>
          </Trackpoint>
          <Trackpoint>
            <Time>2021-08-01T12:05:11.000Z</Time>
            <Position>
              <LatitudeDegrees>-15.4403710551559925079345703125</LatitudeDegrees>
              <LongitudeDegrees>37.0566715300083160400390625</LongitudeDegrees>
            </Position>
            <AltitudeMeters>967.4000244140625</AltitudeMeters>
            <DistanceMeters>9673.2143194779</DistanceMeters>
          </Trackpoint>
          <Trackpoint>
            <Time>2021-08-01T12:05:12.000Z</Time>
            <Position>
              <LatitudeDegrees>-15.44036594219505786895751953125</LatitudeDegrees>
              <LongitudeDegrees>37.05667890608310699462890625</LongitudeDegrees>
            </Position>
            <AltitudeMeters>967.5999755859375</AltitudeMeters>
            <DistanceMeters>9674.1880535415</DistanceMeters>
          </Trackpoint>
          <Trackpoint>
            <Time>2021-08-01T12:05:13.000Z</Time>
            <Position>
              <LatitudeDegrees>-15.440360493957996368408203125</LatitudeDegrees>
              <LongitudeDegrees>37.0566824264824390411376953125</LongitudeDegrees>
            </Position>
            <AltitudeMeters>967.79998779296875</AltitudeMeters>
            <DistanceMeters>9674.8991683571</DistanceMeters>
          </Trackpoint>
          <Trackpoint>
            <Time>2021-08-01T12:05:14.000Z</Time>
            <Position>
              <LatitudeDegrees>-15.44035571627318859100341796875</LatitudeDegrees>
              <LongitudeDegrees>37.0566884614527225494384765625</LongitudeDegrees>
            </Position>
            <AltitudeMeters>968</AltitudeMeters>
            <DistanceMeters>9675.7330243915</DistanceMeters>
          </Trackpoint>
          <Trackpoint>
            <Time>2021-08-01T12:05:17.000Z</Time>
            <Position>
              <LatitudeDegrees>-15.440347753465175628662109375</LatitudeDegrees>
              <LongitudeDegrees>37.05671503208577632904052734375</LongitudeDegrees>
            </Position>
            <AltitudeMeters>968.4000244140625</AltitudeMeters>
            <DistanceMeters>9678.7184364988</DistanceMeters>
          </Trackpoint>
          <Trackpoint>
            <Time>2021-08-01T12:05:20.000Z</Time>
            <Position>
              <LatitudeDegrees>-15.44033710844814777374267578125</LatitudeDegrees>
              <LongitudeDegrees>37.0567380823194980621337890625</LongitudeDegrees>
            </Position>
            <AltitudeMeters>969.20001220703125</AltitudeMeters>
            <DistanceMeters>9681.461072763</DistanceMeters>
          </Trackpoint>
          <Trackpoint>
            <Time>2021-08-01T12:05:21.000Z</Time>
            <Position>
              <LatitudeDegrees>-15.44033140875399112701416015625</LatitudeDegrees>
              <LongitudeDegrees>37.05674872733652591705322265625</LongitudeDegrees>
            </Position>
            <AltitudeMeters>969.4000244140625</AltitudeMeters>
            <DistanceMeters>9682.7674740979</DistanceMeters>
          </Trackpoint>
          <Trackpoint>
            <Time>2021-08-01T12:05:22.000Z</Time>
            <Position>
              <LatitudeDegrees>-15.4403293132781982421875</LatitudeDegrees>
              <LongitudeDegrees>37.05675593577325344085693359375</LongitudeDegrees>
            </Position>
            <AltitudeMeters>969.5999755859375</AltitudeMeters>
            <DistanceMeters>9683.5738025074</DistanceMeters>
          </Trackpoint>
          <Trackpoint>
            <Time>2021-08-01T12:05:28.000Z</Time>
            <Position>
              <LatitudeDegrees>-15.44031598605215549468994140625</LatitudeDegrees>
              <LongitudeDegrees>37.056788541376590728759765625</LongitudeDegrees>
            </Position>
            <AltitudeMeters>970.4000244140625</AltitudeMeters>
            <DistanceMeters>9687.3736830626</DistanceMeters>
          </Trackpoint>
          <Trackpoint>
            <Time>2021-08-01T12:05:29.000Z</Time>
            <Position>
              <LatitudeDegrees>-15.4403143934905529022216796875</LatitudeDegrees>
              <LongitudeDegrees>37.05679357051849365234375</LongitudeDegrees>
            </Position>
            <AltitudeMeters>971</AltitudeMeters>
            <DistanceMeters>9687.9517080002</DistanceMeters>
          </Trackpoint>
          <Trackpoint>
            <Time>2021-08-01T12:05:35.000Z</Time>
            <Position>
              <LatitudeDegrees>-15.44030911289155483245849609375</LatitudeDegrees>
              <LongitudeDegrees>37.0568641461431980133056640625</LongitudeDegrees>
            </Position>
            <AltitudeMeters>972.4000244140625</AltitudeMeters>
            <DistanceMeters>9695.5461203045</DistanceMeters>
          </Trackpoint>
          <Trackpoint>
            <Time>2021-08-01T12:05:36.000Z</Time>
            <Position>
              <LatitudeDegrees>-15.44031196273863315582275390625</LatitudeDegrees>
              <LongitudeDegrees>37.05687881447374820709228515625</LongitudeDegrees>
            </Position>
            <AltitudeMeters>972.4000244140625</AltitudeMeters>
            <DistanceMeters>9697.1503558815</DistanceMeters>
          </Trackpoint>
          <Trackpoint>
            <Time>2021-08-01T12:05:42.000Z</Time>
            <Position>
              <LatitudeDegrees>-15.440327636897563934326171875</LatitudeDegrees>
              <LongitudeDegrees>37.05698409117758274078369140625</LongitudeDegrees>
            </Position>
            <AltitudeMeters>973.4000244140625</AltitudeMeters>
            <DistanceMeters>9708.5788739694</DistanceMeters>
          </Trackpoint>
          <Trackpoint>
            <Time>2021-08-01T12:05:44.000Z</Time>
            <Position>
              <LatitudeDegrees>-15.44032386504113674163818359375</LatitudeDegrees>
              <LongitudeDegrees>37.05700756050646305084228515625</LongitudeDegrees>
            </Position>
            <AltitudeMeters>974.20001220703125</AltitudeMeters>
            <DistanceMeters>9711.1322472661</DistanceMeters>
          </Trackpoint>
          <Trackpoint>
            <Time>2021-08-01T12:05:46.000Z</Time>
            <Position>
              <LatitudeDegrees>-15.44032805599272251129150390625</LatitudeDegrees>
              <LongitudeDegrees>37.05702231265604496002197265625</LongitudeDegrees>
            </Position>
            <AltitudeMeters>974.4000244140625</AltitudeMeters>
            <DistanceMeters>9712.7836354961</DistanceMeters>
          </Trackpoint>
          <Trackpoint>
            <Time>2021-08-01T12:05:47.000Z</Time>
            <Position>
              <LatitudeDegrees>-15.4403314925730228424072265625</LatitudeDegrees>
              <LongitudeDegrees>37.05703035928308963775634765625</LongitudeDegrees>
            </Position>
            <AltitudeMeters>974.79998779296875</AltitudeMeters>
            <DistanceMeters>9713.7291393659</DistanceMeters>
          </Trackpoint>
          <Trackpoint>
            <Time>2021-08-01T12:05:51.000Z</Time>
            <Position>
              <LatitudeDegrees>-15.44032998383045196533203125</LatitudeDegrees>
              <LongitudeDegrees>37.05708702094852924346923828125</LongitudeDegrees>
            </Position>
            <AltitudeMeters>975.5999755859375</AltitudeMeters>
            <DistanceMeters>9719.8101066441</DistanceMeters>
          </Trackpoint>
          <Trackpoint>
            <Time>2021-08-01T12:05:54.000Z</Time>
            <Position>
              <LatitudeDegrees>-15.44032839126884937286376953125</LatitudeDegrees>
              <LongitudeDegrees>37.0571236498653888702392578125</LongitudeDegrees>
            </Position>
            <AltitudeMeters>975.79998779296875</AltitudeMeters>
            <DistanceMeters>9723.7442585254</DistanceMeters>
          </Trackpoint>
          <Trackpoint>
            <Time>2021-08-01T12:05:55.000Z</Time>
            <Position>
              <LatitudeDegrees>-15.4403261281549930572509765625</LatitudeDegrees>
              <LongitudeDegrees>37.0571333728730678558349609375</LongitudeDegrees>
            </Position>
            <AltitudeMeters>976</AltitudeMeters>
            <DistanceMeters>9724.8193630714</DistanceMeters>
          </Trackpoint>
          <Trackpoint>
            <Time>2021-08-01T12:05:59.000Z</Time>
            <Position>
              <LatitudeDegrees>-15.44031129218637943267822265625</LatitudeDegrees>
              <LongitudeDegrees>37.0571757853031158447265625</LongitudeDegrees>
            </Position>
            <AltitudeMeters>976.5999755859375</AltitudeMeters>
            <DistanceMeters>9729.6591996694</DistanceMeters>
          </Trackpoint>
          <Trackpoint>
            <Time>2021-08-01T12:06:04.000Z</Time>
            <Position>
              <LatitudeDegrees>-15.44027541764080524444580078125</LatitudeDegrees>
              <LongitudeDegrees>37.05721710808575153350830078125</LongitudeDegrees>
            </Position>
            <AltitudeMeters>977.4000244140625</AltitudeMeters>
            <DistanceMeters>9735.6254850583</DistanceMeters>
          </Trackpoint>
          <Trackpoint>
            <Time>2021-08-01T12:06:07.000Z</Time>
            <Position>
              <LatitudeDegrees>-15.44025077484548091888427734375</LatitudeDegrees>
              <LongitudeDegrees>37.05721945501863956451416015625</LongitudeDegrees>
            </Position>
            <AltitudeMeters>977.79998779296875</AltitudeMeters>
            <DistanceMeters>9738.3796208961</DistanceMeters>
          </Trackpoint>
          <Trackpoint>
            <Time>2021-08-01T12:06:11.000Z</Time>
            <Position>
              <LatitudeDegrees>-15.44022428803145885467529296875</LatitudeDegrees>
              <LongitudeDegrees>37.05720671452581882476806640625</LongitudeDegrees>
            </Position>
            <AltitudeMeters>978.79998779296875</AltitudeMeters>
            <DistanceMeters>9741.6300346297</DistanceMeters>
          </Trackpoint>
          <Trackpoint>
            <Time>2021-08-01T12:06:12.000Z</Time>
            <Position>
              <LatitudeDegrees>-15.44021758250892162322998046875</LatitudeDegrees>
              <LongitudeDegrees>37.0571994222700595855712890625</LongitudeDegrees>
            </Position>
            <AltitudeMeters>978.79998779296875</AltitudeMeters>
            <DistanceMeters>9742.7093306323</DistanceMeters>
          </Trackpoint>
          <Trackpoint>
            <Time>2021-08-01T12:06:19.000Z</Time>
            <Position>
              <LatitudeDegrees>-15.4401480965316295623779296875</LatitudeDegrees>
              <LongitudeDegrees>37.05715592019259929656982421875</LongitudeDegrees>
            </Position>
            <AltitudeMeters>980</AltitudeMeters>
            <DistanceMeters>9751.7423683687</DistanceMeters>
          </Trackpoint>
          <Trackpoint>
            <Time>2021-08-01T12:06:20.000Z</Time>
            <Position>
              <LatitudeDegrees>-15.44014046899974346160888671875</LatitudeDegrees>
              <LongitudeDegrees>37.057151310145854949951171875</LongitudeDegrees>
            </Position>
            <AltitudeMeters>980.20001220703125</AltitudeMeters>
            <DistanceMeters>9752.7207282734</DistanceMeters>
          </Trackpoint>
          <Trackpoint>
            <Time>2021-08-01T12:06:24.000Z</Time>
            <Position>
              <LatitudeDegrees>-15.44011364690959453582763671875</LatitudeDegrees>
              <LongitudeDegrees>37.057139910757541656494140625</LongitudeDegrees>
            </Position>
            <AltitudeMeters>980.5999755859375</AltitudeMeters>
            <DistanceMeters>9755.9460419114</DistanceMeters>
          </Trackpoint>
          <Trackpoint>
            <Time>2021-08-01T12:06:27.000Z</Time>
            <Position>
              <LatitudeDegrees>-15.44010358862578868865966796875</LatitudeDegrees>
              <LongitudeDegrees>37.0571435987949371337890625</LongitudeDegrees>
            </Position>
            <AltitudeMeters>981.20001220703125</AltitudeMeters>
            <DistanceMeters>9757.1367232297</DistanceMeters>
          </Trackpoint>
          <Trackpoint>
            <Time>2021-08-01T12:06:31.000Z</Time>
            <Position>
              <LatitudeDegrees>-15.44012638740241527557373046875</LatitudeDegrees>
              <LongitudeDegrees>37.057184167206287384033203125</LongitudeDegrees>
            </Position>
            <AltitudeMeters>981.20001220703125</AltitudeMeters>
            <DistanceMeters>9762.1749317291</DistanceMeters>
          </Trackpoint>
          <Trackpoint>
            <Time>2021-08-01T12:06:37.000Z</Time>
            <Position>
              <LatitudeDegrees>-15.44014214538037776947021484375</LatitudeDegrees>
              <LongitudeDegrees>37.05717670731246471405029296875</LongitudeDegrees>
            </Position>
            <AltitudeMeters>980.4000244140625</AltitudeMeters>
            <DistanceMeters>9764.103763369</DistanceMeters>
          </Trackpoint>
          <Trackpoint>
            <Time>2021-08-01T12:06:54.000Z</Time>
            <Position>
              <LatitudeDegrees>-15.440137870609760284423828125</LatitudeDegrees>
              <LongitudeDegrees>37.0571757853031158447265625</LongitudeDegrees>
            </Position>
            <AltitudeMeters>981</AltitudeMeters>
            <DistanceMeters>9764.5883064399</DistanceMeters>
          </Trackpoint>
          <Trackpoint>
            <Time>2021-08-01T12:06:55.000Z</Time>
            <Position>
              <LatitudeDegrees>-15.4401330091059207916259765625</LatitudeDegrees>
              <LongitudeDegrees>37.0571746118366718292236328125</LongitudeDegrees>
            </Position>
            <AltitudeMeters>981.4000244140625</AltitudeMeters>
            <DistanceMeters>9765.1424026401</DistanceMeters>
          </Trackpoint>
          <Trackpoint>
            <Time>2021-08-01T12:07:00.000Z</Time>
            <Position>
              <LatitudeDegrees>-15.44005908071994781494140625</LatitudeDegrees>
              <LongitudeDegrees>37.057155333459377288818359375</LongitudeDegrees>
            </Position>
            <AltitudeMeters>981.79998779296875</AltitudeMeters>
            <DistanceMeters>9773.6264311251</DistanceMeters>
          </Trackpoint>
          <Trackpoint>
            <Time>2021-08-01T12:07:02.000Z</Time>
            <Position>
              <LatitudeDegrees>-15.44002898968756198883056640625</LatitudeDegrees>
              <LongitudeDegrees>37.0571434311568737030029296875</LongitudeDegrees>
            </Position>
            <AltitudeMeters>982.4000244140625</AltitudeMeters>
            <DistanceMeters>9777.209832959</DistanceMeters>
          </Trackpoint>
          <Trackpoint>
            <Time>2021-08-01T12:07:04.000Z</Time>
            <Position>
              <LatitudeDegrees>-15.439998395740985870361328125</LatitudeDegrees>
              <LongitudeDegrees>37.05712951719760894775390625</LongitudeDegrees>
            </Position>
            <AltitudeMeters>982.5999755859375</AltitudeMeters>
            <DistanceMeters>9780.9292518803</DistanceMeters>
          </Trackpoint>
          <Trackpoint>
            <Time>2021-08-01T12:07:07.000Z</Time>
            <Position>
              <LatitudeDegrees>-15.43996989727020263671875</LatitudeDegrees>
              <LongitudeDegrees>37.0571209676563739776611328125</LongitudeDegrees>
            </Position>
            <AltitudeMeters>982.79998779296875</AltitudeMeters>
            <DistanceMeters>9784.230661014</DistanceMeters>
          </Trackpoint>
          <Trackpoint>
            <Time>2021-08-01T12:07:11.000Z</Time>
            <Position>
              <LatitudeDegrees>-15.439932681620121002197265625</LatitudeDegrees>
              <LongitudeDegrees>37.05710613168776035308837890625</LongitudeDegrees>
            </Position>
            <AltitudeMeters>983.5999755859375</AltitudeMeters>
            <DistanceMeters>9788.6675029818</DistanceMeters>
          </Trackpoint>
          <Trackpoint>
            <Time>2021-08-01T12:07:14.000Z</Time>
            <Position>
              <LatitudeDegrees>-15.43989689089357852935791015625</LatitudeDegrees>
              <LongitudeDegrees>37.05709657631814479827880859375</LongitudeDegrees>
            </Position>
            <AltitudeMeters>984.20001220703125</AltitudeMeters>
            <DistanceMeters>9792.7800852825</DistanceMeters>
          </Trackpoint>
          <Trackpoint>
            <Time>2021-08-01T12:07:24.000Z</Time>
            <Position>
              <LatitudeDegrees>-15.43979630805552005767822265625</LatitudeDegrees>
              <LongitudeDegrees>37.05712440423667430877685546875</LongitudeDegrees>
            </Position>
            <AltitudeMeters>983.79998779296875</AltitudeMeters>
            <DistanceMeters>9804.3667218303</DistanceMeters>
          </Trackpoint>
          <Trackpoint>
            <Time>2021-08-01T12:07:25.000Z</Time>
            <Position>
              <LatitudeDegrees>-15.43978951871395111083984375</LatitudeDegrees>
              <LongitudeDegrees>37.05712658353149890899658203125</LongitudeDegrees>
            </Position>
            <AltitudeMeters>984</AltitudeMeters>
            <DistanceMeters>9805.1674311581</DistanceMeters>
          </Trackpoint>
          <Trackpoint>
            <Time>2021-08-01T12:07:31.000Z</Time>
            <Position>
              <LatitudeDegrees>-15.4397424124181270599365234375</LatitudeDegrees>
              <LongitudeDegrees>37.05719347111880779266357421875</LongitudeDegrees>
            </Position>
            <AltitudeMeters>984.79998779296875</AltitudeMeters>
            <DistanceMeters>9814.0548424041</DistanceMeters>
          </Trackpoint>
          <Trackpoint>
            <Time>2021-08-01T12:07:34.000Z</Time>
            <Position>
              <LatitudeDegrees>-15.4397062025964260101318359375</LatitudeDegrees>
              <LongitudeDegrees>37.05721132457256317138671875</LongitudeDegrees>
            </Position>
            <AltitudeMeters>985</AltitudeMeters>
            <DistanceMeters>9818.5160405035</DistanceMeters>
          </Trackpoint>
          <Trackpoint>
            <Time>2021-08-01T12:07:36.000Z</Time>
            <Position>
              <LatitudeDegrees>-15.43968684040009975433349609375</LatitudeDegrees>
              <LongitudeDegrees>37.05722247250378131866455078125</LongitudeDegrees>
            </Position>
            <AltitudeMeters>985.4000244140625</AltitudeMeters>
            <DistanceMeters>9820.9794144845</DistanceMeters>
          </Trackpoint>
          <Trackpoint>
            <Time>2021-08-01T12:07:40.000Z</Time>
            <Position>
              <LatitudeDegrees>-15.439655072987079620361328125</LatitudeDegrees>
              <LongitudeDegrees>37.057252563536167144775390625</LongitudeDegrees>
            </Position>
            <AltitudeMeters>986</AltitudeMeters>
            <DistanceMeters>9825.7676672025</DistanceMeters>
          </Trackpoint>
          <Trackpoint>
            <Time>2021-08-01T12:07:42.000Z</Time>
            <Position>
              <LatitudeDegrees>-15.43963529169559478759765625</LatitudeDegrees>
              <LongitudeDegrees>37.0572808943688869476318359375</LongitudeDegrees>
            </Position>
            <AltitudeMeters>986.20001220703125</AltitudeMeters>
            <DistanceMeters>9829.5209216906</DistanceMeters>
          </Trackpoint>
          <Trackpoint>
            <Time>2021-08-01T12:07:50.000Z</Time>
            <Position>
              <LatitudeDegrees>-15.43959438800811767578125</LatitudeDegrees>
              <LongitudeDegrees>37.05733043141663074493408203125</LongitudeDegrees>
            </Position>
            <AltitudeMeters>987.20001220703125</AltitudeMeters>
            <DistanceMeters>9836.5181407439</DistanceMeters>
          </Trackpoint>
          <Trackpoint>
            <Time>2021-08-01T12:07:52.000Z</Time>
            <Position>
              <LatitudeDegrees>-15.4395861737430095672607421875</LatitudeDegrees>
              <LongitudeDegrees>37.05734820105135440826416015625</LongitudeDegrees>
            </Position>
            <AltitudeMeters>987.4000244140625</AltitudeMeters>
            <DistanceMeters>9838.6323516699</DistanceMeters>
          </Trackpoint>
          <Trackpoint>
            <Time>2021-08-01T12:08:00.000Z</Time>
            <Position>
              <LatitudeDegrees>-15.43955943547189235687255859375</LatitudeDegrees>
              <LongitudeDegrees>37.05742263235151767730712890625</LongitudeDegrees>
            </Position>
            <AltitudeMeters>988.5999755859375</AltitudeMeters>
            <DistanceMeters>9847.1540812339</DistanceMeters>
          </Trackpoint>
          <Trackpoint>
            <Time>2021-08-01T12:08:02.000Z</Time>
            <Position>
              <LatitudeDegrees>-15.43954820372164249420166015625</LatitudeDegrees>
              <LongitudeDegrees>37.05743604339659214019775390625</LongitudeDegrees>
            </Position>
            <AltitudeMeters>988.5999755859375</AltitudeMeters>
            <DistanceMeters>9849.0593609327</DistanceMeters>
          </Trackpoint>
          <Trackpoint>
            <Time>2021-08-01T12:08:09.000Z</Time>
            <Position>
              <LatitudeDegrees>-15.4395134188234806060791015625</LatitudeDegrees>
              <LongitudeDegrees>37.05750661902129650115966796875</LongitudeDegrees>
            </Position>
            <AltitudeMeters>989.4000244140625</AltitudeMeters>
            <DistanceMeters>9857.5635882485</DistanceMeters>
          </Trackpoint>
          <Trackpoint>
            <Time>2021-08-01T12:08:12.000Z</Time>
            <Position>
              <LatitudeDegrees>-15.4395026899874210357666015625</LatitudeDegrees>
              <LongitudeDegrees>37.05754433758556842803955078125</LongitudeDegrees>
            </Position>
            <AltitudeMeters>989.5999755859375</AltitudeMeters>
            <DistanceMeters>9861.7834591882</DistanceMeters>
          </Trackpoint>
          <Trackpoint>
            <Time>2021-08-01T12:08:18.000Z</Time>
            <Position>
              <LatitudeDegrees>-15.439478717744350433349609375</LatitudeDegrees>
              <LongitudeDegrees>37.05761474557220935821533203125</LongitudeDegrees>
            </Position>
            <AltitudeMeters>990</AltitudeMeters>
            <DistanceMeters>9869.795062234</DistanceMeters>
          </Trackpoint>
          <Trackpoint>
            <Time>2021-08-01T12:08:21.000Z</Time>
            <Position>
              <LatitudeDegrees>-15.439468324184417724609375</LatitudeDegrees>
              <LongitudeDegrees>37.0576678030192852020263671875</LongitudeDegrees>
            </Position>
            <AltitudeMeters>990.5999755859375</AltitudeMeters>
            <DistanceMeters>9875.603363672</DistanceMeters>
          </Trackpoint>
          <Trackpoint>
            <Time>2021-08-01T12:08:27.000Z</Time>
            <Position>
              <LatitudeDegrees>-15.43947913683950901031494140625</LatitudeDegrees>
              <LongitudeDegrees>37.0577278174459934234619140625</LongitudeDegrees>
            </Position>
            <AltitudeMeters>991.79998779296875</AltitudeMeters>
            <DistanceMeters>9882.1533173501</DistanceMeters>
          </Trackpoint>
          <Trackpoint>
            <Time>2021-08-01T12:08:28.000Z</Time>
            <Position>
              <LatitudeDegrees>-15.43948098085820674896240234375</LatitudeDegrees>
              <LongitudeDegrees>37.05773410387337207794189453125</LongitudeDegrees>
            </Position>
            <AltitudeMeters>991.79998779296875</AltitudeMeters>
            <DistanceMeters>9882.8516182365</DistanceMeters>
          </Trackpoint>
          <Trackpoint>
            <Time>2021-08-01T12:08:37.000Z</Time>
            <Position>
              <LatitudeDegrees>-15.439482741057872772216796875</LatitudeDegrees>
              <LongitudeDegrees>37.05781423486769199371337890625</LongitudeDegrees>
            </Position>
            <AltitudeMeters>992.5999755859375</AltitudeMeters>
            <DistanceMeters>9891.4514046336</DistanceMeters>
          </Trackpoint>
          <Trackpoint>
            <Time>2021-08-01T12:08:40.000Z</Time>
            <Position>
              <LatitudeDegrees>-15.43948751874268054962158203125</LatitudeDegrees>
              <LongitudeDegrees>37.0578478462994098663330078125</LongitudeDegrees>
            </Position>
            <AltitudeMeters>993</AltitudeMeters>
            <DistanceMeters>9895.0972615323</DistanceMeters>
          </Trackpoint>
          <Trackpoint>
            <Time>2021-08-01T12:08:46.000Z</Time>
            <Position>
              <LatitudeDegrees>-15.43952641077339649200439453125</LatitudeDegrees>
              <LongitudeDegrees>37.05788179300725460052490234375</LongitudeDegrees>
            </Position>
            <AltitudeMeters>993.20001220703125</AltitudeMeters>
            <DistanceMeters>9900.755142849</DistanceMeters>
          </Trackpoint>
          <Trackpoint>
            <Time>2021-08-01T12:08:48.000Z</Time>
            <Position>
              <LatitudeDegrees>-15.4395298473536968231201171875</LatitudeDegrees>
              <LongitudeDegrees>37.057911716401576995849609375</LongitudeDegrees>
            </Position>
            <AltitudeMeters>993.20001220703125</AltitudeMeters>
            <DistanceMeters>9903.9874482872</DistanceMeters>
          </Trackpoint>
          <Trackpoint>
            <Time>2021-08-01T12:08:51.000Z</Time>
            <Position>
              <LatitudeDegrees>-15.43953127227723598480224609375</LatitudeDegrees>
              <LongitudeDegrees>37.05796343274414539337158203125</LongitudeDegrees>
            </Position>
            <AltitudeMeters>993.4000244140625</AltitudeMeters>
            <DistanceMeters>9909.538179845</DistanceMeters>
          </Trackpoint>
          <Trackpoint>
            <Time>2021-08-01T12:08:52.000Z</Time>
            <Position>
              <LatitudeDegrees>-15.43953412212431430816650390625</LatitudeDegrees>
              <LongitudeDegrees>37.05798120237886905670166015625</LongitudeDegrees>
            </Position>
            <AltitudeMeters>993.4000244140625</AltitudeMeters>
            <DistanceMeters>9911.4693508812</DistanceMeters>
          </Trackpoint>
          <Trackpoint>
            <Time>2021-08-01T12:08:54.000Z</Time>
            <Position>
              <LatitudeDegrees>-15.43954635970294475555419921875</LatitudeDegrees>
              <LongitudeDegrees>37.05800316296517848968505859375</LongitudeDegrees>
            </Position>
            <AltitudeMeters>993.4000244140625</AltitudeMeters>
            <DistanceMeters>9914.1921605992</DistanceMeters>
          </Trackpoint>
          <Trackpoint>
            <Time>2021-08-01T12:08:57.000Z</Time>
            <Position>
              <LatitudeDegrees>-15.4395737685263156890869140625</LatitudeDegrees>
              <LongitudeDegrees>37.0580305717885494232177734375</LongitudeDegrees>
            </Position>
            <AltitudeMeters>993.5999755859375</AltitudeMeters>
            <DistanceMeters>9918.4301816052</DistanceMeters>
          </Trackpoint>
          <Trackpoint>
            <Time>2021-08-01T12:08:59.000Z</Time>
            <Position>
              <LatitudeDegrees>-15.4395928792655467987060546875</LatitudeDegrees>
              <LongitudeDegrees>37.0580473355948925018310546875</LongitudeDegrees>
            </Position>
            <AltitudeMeters>993.79998779296875</AltitudeMeters>
            <DistanceMeters>9921.2152912378</DistanceMeters>
          </Trackpoint>
          <Trackpoint>
            <Time>2021-08-01T12:09:05.000Z</Time>
            <Position>
              <LatitudeDegrees>-15.43966873548924922943115234375</LatitudeDegrees>
              <LongitudeDegrees>37.05806518904864788055419921875</LongitudeDegrees>
            </Position>
            <AltitudeMeters>993.79998779296875</AltitudeMeters>
            <DistanceMeters>9929.8721153903</DistanceMeters>
          </Trackpoint>
          <Trackpoint>
            <Time>2021-08-01T12:09:06.000Z</Time>
            <Position>
              <LatitudeDegrees>-15.4396773688495159149169921875</LatitudeDegrees>
              <LongitudeDegrees>37.05807373858988285064697265625</LongitudeDegrees>
            </Position>
            <AltitudeMeters>994</AltitudeMeters>
            <DistanceMeters>9931.2024893915</DistanceMeters>
          </Trackpoint>
          <Trackpoint>
            <Time>2021-08-01T12:09:09.000Z</Time>
            <Position>
              <LatitudeDegrees>-15.4397105611860752105712890625</LatitudeDegrees>
              <LongitudeDegrees>37.0580798573791980743408203125</LongitudeDegrees>
            </Position>
            <AltitudeMeters>994.4000244140625</AltitudeMeters>
            <DistanceMeters>9934.9533371756</DistanceMeters>
          </Trackpoint>
          <Trackpoint>
            <Time>2021-08-01T12:09:16.000Z</Time>
            <Position>
              <LatitudeDegrees>-15.4397819750010967254638671875</LatitudeDegrees>
              <LongitudeDegrees>37.058094106614589691162109375</LongitudeDegrees>
            </Position>
            <AltitudeMeters>995.20001220703125</AltitudeMeters>
            <DistanceMeters>9943.0473599456</DistanceMeters>
          </Trackpoint>
          <Trackpoint>
            <Time>2021-08-01T12:09:19.000Z</Time>
            <Position>
              <LatitudeDegrees>-15.43981089256703853607177734375</LatitudeDegrees>
              <LongitudeDegrees>37.05809469334781169891357421875</LongitudeDegrees>
            </Position>
            <AltitudeMeters>995.5999755859375</AltitudeMeters>
            <DistanceMeters>9946.2656665937</DistanceMeters>
          </Trackpoint>
          <Trackpoint>
            <Time>2021-08-01T12:09:21.000Z</Time>
            <Position>
              <LatitudeDegrees>-15.4398356191813945770263671875</LatitudeDegrees>
              <LongitudeDegrees>37.0581019856035709381103515625</LongitudeDegrees>
            </Position>
            <AltitudeMeters>995.79998779296875</AltitudeMeters>
            <DistanceMeters>9949.125954911</DistanceMeters>
          </Trackpoint>
          <Trackpoint>
            <Time>2021-08-01T12:09:25.000Z</Time>
            <Position>
              <LatitudeDegrees>-15.439874343574047088623046875</LatitudeDegrees>
              <LongitudeDegrees>37.05812050960958003997802734375</LongitudeDegrees>
            </Position>
            <AltitudeMeters>996.4000244140625</AltitudeMeters>
            <DistanceMeters>9953.8725369158</DistanceMeters>
          </Trackpoint>
          <Trackpoint>
            <Time>2021-08-01T12:09:27.000Z</Time>
            <Position>
              <LatitudeDegrees>-15.43990351259708404541015625</LatitudeDegrees>
              <LongitudeDegrees>37.0581281371414661407470703125</LongitudeDegrees>
            </Position>
            <AltitudeMeters>996.5999755859375</AltitudeMeters>
            <DistanceMeters>9957.2214703196</DistanceMeters>
          </Trackpoint>
          <Trackpoint>
            <Time>2021-08-01T12:09:32.000Z</Time>
            <Position>
              <LatitudeDegrees>-15.4399623535573482513427734375</LatitudeDegrees>
              <LongitudeDegrees>37.05814213491976261138916015625</LongitudeDegrees>
            </Position>
            <AltitudeMeters>997.20001220703125</AltitudeMeters>
            <DistanceMeters>9963.9408737321</DistanceMeters>
          </Trackpoint>
          <Trackpoint>
            <Time>2021-08-01T12:09:34.000Z</Time>
            <Position>
              <LatitudeDegrees>-15.43998305685818195343017578125</LatitudeDegrees>
              <LongitudeDegrees>37.0581435598433017730712890625</LongitudeDegrees>
            </Position>
            <AltitudeMeters>997.4000244140625</AltitudeMeters>
            <DistanceMeters>9966.25101987</DistanceMeters>
          </Trackpoint>
          <Trackpoint>
            <Time>2021-08-01T12:09:39.000Z</Time>
            <Position>
              <LatitudeDegrees>-15.44003427028656005859375</LatitudeDegrees>
              <LongitudeDegrees>37.0581552945077419281005859375</LongitudeDegrees>
            </Position>
            <AltitudeMeters>998.20001220703125</AltitudeMeters>
            <DistanceMeters>9972.0895589489</DistanceMeters>
          </Trackpoint>
          <Trackpoint>
            <Time>2021-08-01T12:09:41.000Z</Time>
            <Position>
              <LatitudeDegrees>-15.4400555603206157684326171875</LatitudeDegrees>
              <LongitudeDegrees>37.05816577188670635223388671875</LongitudeDegrees>
            </Position>
            <AltitudeMeters>998.4000244140625</AltitudeMeters>
            <DistanceMeters>9974.7127093926</DistanceMeters>
          </Trackpoint>
          <Trackpoint>
            <Time>2021-08-01T12:09:50.000Z</Time>
            <Position>
              <LatitudeDegrees>-15.44013963080942630767822265625</LatitudeDegrees>
              <LongitudeDegrees>37.05821019597351551055908203125</LongitudeDegrees>
            </Position>
            <AltitudeMeters>999.4000244140625</AltitudeMeters>
            <DistanceMeters>9985.2134838144</DistanceMeters>
          </Trackpoint>
          <Trackpoint>
            <Time>2021-08-01T12:09:57.000Z</Time>
            <Position>
              <LatitudeDegrees>-15.44018673710525035858154296875</LatitudeDegrees>
              <LongitudeDegrees>37.0582776702940464019775390625</LongitudeDegrees>
            </Position>
            <AltitudeMeters>1000.4000244140625</AltitudeMeters>
            <DistanceMeters>9994.1520584421</DistanceMeters>
          </Trackpoint>
          <Trackpoint>
            <Time>2021-08-01T12:09:58.000Z</Time>
            <Position>
              <LatitudeDegrees>-15.44019587337970733642578125</LatitudeDegrees>
              <LongitudeDegrees>37.05828764475882053375244140625</LongitudeDegrees>
            </Position>
            <AltitudeMeters>1000.5999755859375</AltitudeMeters>
            <DistanceMeters>9995.6272697568</DistanceMeters>
          </Trackpoint>
          <Trackpoint>
            <Time>2021-08-01T12:09:59.000Z</Time>
            <Position>
              <LatitudeDegrees>-15.44020123779773712158203125</LatitudeDegrees>
              <LongitudeDegrees>37.0582951046526432037353515625</LongitudeDegrees>
            </Position>
            <AltitudeMeters>1000.5999755859375</AltitudeMeters>
            <DistanceMeters>9996.6239183453</DistanceMeters>
          </Trackpoint>
          <Trackpoint>
            <Time>2021-08-01T12:10:01.000Z</Time>
            <Position>
              <LatitudeDegrees>-15.440209619700908660888671875</LatitudeDegrees>
              <LongitudeDegrees>37.058314383029937744140625</LongitudeDegrees>
            </Position>
            <AltitudeMeters>1000.5999755859375</AltitudeMeters>
            <DistanceMeters>9998.894639299</DistanceMeters>
          </Trackpoint>
          <Trackpoint>
            <Time>2021-08-01T12:10:07.000Z</Time>
            <Position>
              <LatitudeDegrees>-15.4402101226150989532470703125</LatitudeDegrees>
              <LongitudeDegrees>37.05836291424930095672607421875</LongitudeDegrees>
            </Position>
            <AltitudeMeters>1001.4000244140625</AltitudeMeters>
            <DistanceMeters>10004.102068565</DistanceMeters>
          </Trackpoint>
          <Trackpoint>
            <Time>2021-08-01T12:10:08.000Z</Time>
            <Position>
              <LatitudeDegrees>-15.44020467437803745269775390625</LatitudeDegrees>
              <LongitudeDegrees>37.05837431363761425018310546875</LongitudeDegrees>
            </Position>
            <AltitudeMeters>1001.79998779296875</AltitudeMeters>
            <DistanceMeters>10005.465958497</DistanceMeters>
          </Trackpoint>
          <Trackpoint>
            <Time>2021-08-01T12:10:15.000Z</Time>
            <Position>
              <LatitudeDegrees>-15.440175421535968780517578125</LatitudeDegrees>
              <LongitudeDegrees>37.0584444701671600341796875</LongitudeDegrees>
            </Position>
            <AltitudeMeters>1002.5999755859375</AltitudeMeters>
            <DistanceMeters>10013.666384052</DistanceMeters>
          </Trackpoint>
          <Trackpoint>
            <Time>2021-08-01T12:10:16.000Z</Time>
            <Position>
              <LatitudeDegrees>-15.44016947038471698760986328125</LatitudeDegrees>
              <LongitudeDegrees>37.058444805443286895751953125</LongitudeDegrees>
            </Position>
            <AltitudeMeters>1002.79998779296875</AltitudeMeters>
            <DistanceMeters>10014.331571053</DistanceMeters>
          </Trackpoint>
          <Trackpoint>
            <Time>2021-08-01T12:10:17.000Z</Time>
            <Position>
              <LatitudeDegrees>-15.440163351595401763916015625</LatitudeDegrees>
              <LongitudeDegrees>37.05844656564295291900634765625</LongitudeDegrees>
            </Position>
            <AltitudeMeters>1003.20001220703125</AltitudeMeters>
            <DistanceMeters>10015.042685868</DistanceMeters>
          </Trackpoint>
          <Trackpoint>
            <Time>2021-08-01T12:10:22.000Z</Time>
            <Position>
              <LatitudeDegrees>-15.44011632911860942840576171875</LatitudeDegrees>
              <LongitudeDegrees>37.05845058895647525787353515625</LongitudeDegrees>
            </Position>
            <AltitudeMeters>1004</AltitudeMeters>
            <DistanceMeters>10020.293288061</DistanceMeters>
          </Trackpoint>
          <Trackpoint>
            <Time>2021-08-01T12:10:28.000Z</Time>
            <Position>
              <LatitudeDegrees>-15.4400555603206157684326171875</LatitudeDegrees>
              <LongitudeDegrees>37.058432735502719879150390625</LongitudeDegrees>
            </Position>
            <AltitudeMeters>1005</AltitudeMeters>
            <DistanceMeters>10027.322696165</DistanceMeters>
          </Trackpoint>
          <Trackpoint>
            <Time>2021-08-01T12:10:31.000Z</Time>
            <Position>
              <LatitudeDegrees>-15.44002077542245388031005859375</LatitudeDegrees>
              <LongitudeDegrees>37.05842343159019947052001953125</LongitudeDegrees>
            </Position>
            <AltitudeMeters>1005.5999755859375</AltitudeMeters>
            <DistanceMeters>10031.321729221</DistanceMeters>
          </Trackpoint>
          <Trackpoint>
            <Time>2021-08-01T12:10:36.000Z</Time>
            <Position>
              <LatitudeDegrees>-15.43996654450893402099609375</LatitudeDegrees>
              <LongitudeDegrees>37.05839627422392368316650390625</LongitudeDegrees>
            </Position>
            <AltitudeMeters>1006</AltitudeMeters>
            <DistanceMeters>10038.023639414</DistanceMeters>
          </Trackpoint>
          <Trackpoint>
            <Time>2021-08-01T12:10:37.000Z</Time>
            <Position>
              <LatitudeDegrees>-15.43995355255901813507080078125</LatitudeDegrees>
              <LongitudeDegrees>37.0583933405578136444091796875</LongitudeDegrees>
            </Position>
            <AltitudeMeters>1006.4000244140625</AltitudeMeters>
            <DistanceMeters>10039.501908165</DistanceMeters>
          </Trackpoint>
          <Trackpoint>
            <Time>2021-08-01T12:10:41.000Z</Time>
            <Position>
              <LatitudeDegrees>-15.43991533108055591583251953125</LatitudeDegrees>
              <LongitudeDegrees>37.05840515904128551483154296875</LongitudeDegrees>
            </Position>
            <AltitudeMeters>1007</AltitudeMeters>
            <DistanceMeters>10043.940784915</DistanceMeters>
          </Trackpoint>
          <Trackpoint>
            <Time>2021-08-01T12:10:42.000Z</Time>
            <Position>
              <LatitudeDegrees>-15.4399077035486698150634765625</LatitudeDegrees>
              <LongitudeDegrees>37.05840650014579296112060546875</LongitudeDegrees>
            </Position>
            <AltitudeMeters>1007</AltitudeMeters>
            <DistanceMeters>10044.806519484</DistanceMeters>
          </Trackpoint>
          <Trackpoint>
            <Time>2021-08-01T12:10:47.000Z</Time>
            <Position>
              <LatitudeDegrees>-15.4398590885102748870849609375</LatitudeDegrees>
              <LongitudeDegrees>37.058421336114406585693359375</LongitudeDegrees>
            </Position>
            <AltitudeMeters>1007.4000244140625</AltitudeMeters>
            <DistanceMeters>10050.446817288</DistanceMeters>
          </Trackpoint>
          <Trackpoint>
            <Time>2021-08-01T12:10:49.000Z</Time>
            <Position>
              <LatitudeDegrees>-15.43983821757137775421142578125</LatitudeDegrees>
              <LongitudeDegrees>37.0584251917898654937744140625</LongitudeDegrees>
            </Position>
            <AltitudeMeters>1008.20001220703125</AltitudeMeters>
            <DistanceMeters>10052.807231905</DistanceMeters>
          </Trackpoint>
          <Trackpoint>
            <Time>2021-08-01T12:10:50.000Z</Time>
            <Position>
              <LatitudeDegrees>-15.43983033858239650726318359375</LatitudeDegrees>
              <LongitudeDegrees>37.05842561088502407073974609375</LongitudeDegrees>
            </Position>
            <AltitudeMeters>1008.20001220703125</AltitudeMeters>
            <DistanceMeters>10053.683334923</DistanceMeters>
          </Trackpoint>
          <Trackpoint>
            <Time>2021-08-01T12:10:57.000Z</Time>
            <Position>
              <LatitudeDegrees>-15.43976403772830963134765625</LatitudeDegrees>
              <LongitudeDegrees>37.05844203941524028778076171875</LongitudeDegrees>
            </Position>
            <AltitudeMeters>1009.20001220703125</AltitudeMeters>
            <DistanceMeters>10061.270014516</DistanceMeters>
          </Trackpoint>
          <Trackpoint>
            <Time>2021-08-01T12:11:00.000Z</Time>
            <Position>
              <LatitudeDegrees>-15.43973763473331928253173828125</LatitudeDegrees>
              <LongitudeDegrees>37.058445475995540618896484375</LongitudeDegrees>
            </Position>
            <AltitudeMeters>1009.5999755859375</AltitudeMeters>
            <DistanceMeters>10064.232654269</DistanceMeters>
          </Trackpoint>
          <Trackpoint>
            <Time>2021-08-01T12:11:01.000Z</Time>
            <Position>
              <LatitudeDegrees>-15.439727492630481719970703125</LatitudeDegrees>
              <LongitudeDegrees>37.05844505690038204193115234375</LongitudeDegrees>
            </Position>
            <AltitudeMeters>1009.5999755859375</AltitudeMeters>
            <DistanceMeters>10065.361033983</DistanceMeters>
          </Trackpoint>
          <Trackpoint>
            <Time>2021-08-01T12:11:05.000Z</Time>
            <Position>
              <LatitudeDegrees>-15.4396842420101165771484375</LatitudeDegrees>
              <LongitudeDegrees>37.05847104080021381378173828125</LongitudeDegrees>
            </Position>
            <AltitudeMeters>1010.20001220703125</AltitudeMeters>
            <DistanceMeters>10070.923141667</DistanceMeters>
          </Trackpoint>
          <Trackpoint>
            <Time>2021-08-01T12:11:08.000Z</Time>
            <Position>
              <LatitudeDegrees>-15.4396528936922550201416015625</LatitudeDegrees>
              <LongitudeDegrees>37.0585002936422824859619140625</LongitudeDegrees>
            </Position>
            <AltitudeMeters>1010.79998779296875</AltitudeMeters>
            <DistanceMeters>10075.616153115</DistanceMeters>
          </Trackpoint>
          <Trackpoint>
            <Time>2021-08-01T12:11:13.000Z</Time>
            <Position>
              <LatitudeDegrees>-15.4396009258925914764404296875</LatitudeDegrees>
              <LongitudeDegrees>37.05854362808167934417724609375</LongitudeDegrees>
            </Position>
            <AltitudeMeters>1011.4000244140625</AltitudeMeters>
            <DistanceMeters>10083.036759974</DistanceMeters>
          </Trackpoint>
          <Trackpoint>
            <Time>2021-08-01T12:11:18.000Z</Time>
            <Position>
              <LatitudeDegrees>-15.43957334943115711212158203125</LatitudeDegrees>
              <LongitudeDegrees>37.0585733838379383087158203125</LongitudeDegrees>
            </Position>
            <AltitudeMeters>1012.20001220703125</AltitudeMeters>
            <DistanceMeters>10087.465453465</DistanceMeters>
          </Trackpoint>
          <Trackpoint>
            <Time>2021-08-01T12:11:21.000Z</Time>
            <Position>
              <LatitudeDegrees>-15.43955541215837001800537109375</LatitudeDegrees>
              <LongitudeDegrees>37.05858302302658557891845703125</LongitudeDegrees>
            </Position>
            <AltitudeMeters>1012.5999755859375</AltitudeMeters>
            <DistanceMeters>10089.712187257</DistanceMeters>
          </Trackpoint>
          <Trackpoint>
            <Time>2021-08-01T12:11:26.000Z</Time>
            <Position>
              <LatitudeDegrees>-15.43950579129159450531005859375</LatitudeDegrees>
              <LongitudeDegrees>37.0586136169731616973876953125</LongitudeDegrees>
            </Position>
            <AltitudeMeters>1013.5999755859375</AltitudeMeters>
            <DistanceMeters>10096.136864636</DistanceMeters>
          </Trackpoint>
          <Trackpoint>
            <Time>2021-08-01T12:11:27.000Z</Time>
            <Position>
              <LatitudeDegrees>-15.4394953139126300811767578125</LatitudeDegrees>
              <LongitudeDegrees>37.05863381735980510711669921875</LongitudeDegrees>
            </Position>
            <AltitudeMeters>1013.79998779296875</AltitudeMeters>
            <DistanceMeters>10098.59657015</DistanceMeters>
          </Trackpoint>
          <Trackpoint>
            <Time>2021-08-01T12:11:33.000Z</Time>
            <Position>
              <LatitudeDegrees>-15.43945818208158016204833984375</LatitudeDegrees>
              <LongitudeDegrees>37.0586572028696537017822265625</LongitudeDegrees>
            </Position>
            <AltitudeMeters>1015.20001220703125</AltitudeMeters>
            <DistanceMeters>10103.430806164</DistanceMeters>
          </Trackpoint>
          <Trackpoint>
            <Time>2021-08-01T12:11:35.000Z</Time>
            <Position>
              <LatitudeDegrees>-15.43943722732365131378173828125</LatitudeDegrees>
              <LongitudeDegrees>37.05868561752140522003173828125</LongitudeDegrees>
            </Position>
            <AltitudeMeters>1015.5999755859375</AltitudeMeters>
            <DistanceMeters>10107.268520937</DistanceMeters>
          </Trackpoint>
          <Trackpoint>
            <Time>2021-08-01T12:11:39.000Z</Time>
            <Position>
              <LatitudeDegrees>-15.4394133388996124267578125</LatitudeDegrees>
              <LongitudeDegrees>37.05873347818851470947265625</LongitudeDegrees>
            </Position>
            <AltitudeMeters>1016.20001220703125</AltitudeMeters>
            <DistanceMeters>10113.050332331</DistanceMeters>
          </Trackpoint>
          <Trackpoint>
            <Time>2021-08-01T12:11:43.000Z</Time>
            <Position>
              <LatitudeDegrees>-15.43941828422248363494873046875</LatitudeDegrees>
              <LongitudeDegrees>37.05876943655312061309814453125</LongitudeDegrees>
            </Position>
            <AltitudeMeters>1017.20001220703125</AltitudeMeters>
            <DistanceMeters>10116.94758631</DistanceMeters>
          </Trackpoint>
          <Trackpoint>
            <Time>2021-08-01T12:11:44.000Z</Time>
            <Position>
              <LatitudeDegrees>-15.43942398391664028167724609375</LatitudeDegrees>
              <LongitudeDegrees>37.0587789081037044525146484375</LongitudeDegrees>
            </Position>
            <AltitudeMeters>1017.4000244140625</AltitudeMeters>
            <DistanceMeters>10118.142053588</DistanceMeters>
          </Trackpoint>
          <Trackpoint>
            <Time>2021-08-01T12:11:46.000Z</Time>
            <Position>
              <LatitudeDegrees>-15.43943236581981182098388671875</LatitudeDegrees>
              <LongitudeDegrees>37.0587985217571258544921875</LongitudeDegrees>
            </Position>
            <AltitudeMeters>1017.79998779296875</AltitudeMeters>
            <DistanceMeters>10120.4443687</DistanceMeters>
          </Trackpoint>
          <Trackpoint>
            <Time>2021-08-01T12:11:48.000Z</Time>
            <Position>
              <LatitudeDegrees>-15.43945650570094585418701171875</LatitudeDegrees>
              <LongitudeDegrees>37.0588074065744876861572265625</LongitudeDegrees>
            </Position>
            <AltitudeMeters>1018</AltitudeMeters>
            <DistanceMeters>10123.295170131</DistanceMeters>
          </Trackpoint>
          <Trackpoint>
            <Time>2021-08-01T12:11:49.000Z</Time>
            <Position>
              <LatitudeDegrees>-15.43946639634668827056884765625</LatitudeDegrees>
              <LongitudeDegrees>37.05881394445896148681640625</LongitudeDegrees>
            </Position>
            <AltitudeMeters>1018.20001220703125</AltitudeMeters>
            <DistanceMeters>10124.601571466</DistanceMeters>
          </Trackpoint>
          <Trackpoint>
            <Time>2021-08-01T12:11:50.000Z</Time>
            <Position>
              <LatitudeDegrees>-15.43948064558207988739013671875</LatitudeDegrees>
              <LongitudeDegrees>37.0588199794292449951171875</LongitudeDegrees>
            </Position>
            <AltitudeMeters>1018.5999755859375</AltitudeMeters>
            <DistanceMeters>10126.312052325</DistanceMeters>
          </Trackpoint>
          <Trackpoint>
            <Time>2021-08-01T12:11:56.000Z</Time>
            <Position>
              <LatitudeDegrees>-15.43956060893833637237548828125</LatitudeDegrees>
              <LongitudeDegrees>37.0588493160903453826904296875</LongitudeDegrees>
            </Position>
            <AltitudeMeters>1019.5999755859375</AltitudeMeters>
            <DistanceMeters>10135.752276073</DistanceMeters>
          </Trackpoint>
          <Trackpoint>
            <Time>2021-08-01T12:11:57.000Z</Time>
            <Position>
              <LatitudeDegrees>-15.4395700804889202117919921875</LatitudeDegrees>
              <LongitudeDegrees>37.05885224975645542144775390625</LongitudeDegrees>
            </Position>
            <AltitudeMeters>1020</AltitudeMeters>
            <DistanceMeters>10136.848177605</DistanceMeters>
          </Trackpoint>
          <Trackpoint>
            <Time>2021-08-01T12:11:58.000Z</Time>
            <Position>
              <LatitudeDegrees>-15.43957686983048915863037109375</LatitudeDegrees>
              <LongitudeDegrees>37.05885644070804119110107421875</LongitudeDegrees>
            </Position>
            <AltitudeMeters>1020.20001220703125</AltitudeMeters>
            <DistanceMeters>10137.719111828</DistanceMeters>
          </Trackpoint>
          <Trackpoint>
            <Time>2021-08-01T12:12:03.000Z</Time>
            <Position>
              <LatitudeDegrees>-15.43963470496237277984619140625</LatitudeDegrees>
              <LongitudeDegrees>37.05886599607765674591064453125</LongitudeDegrees>
            </Position>
            <AltitudeMeters>1021</AltitudeMeters>
            <DistanceMeters>10144.23727949</DistanceMeters>
          </Trackpoint>
          <Trackpoint>
            <Time>2021-08-01T12:12:09.000Z</Time>
            <Position>
              <LatitudeDegrees>-15.4396897740662097930908203125</LatitudeDegrees>
              <LongitudeDegrees>37.058865912258625030517578125</LongitudeDegrees>
            </Position>
            <AltitudeMeters>1021.79998779296875</AltitudeMeters>
            <DistanceMeters>10150.367055023</DistanceMeters>
          </Trackpoint>
          <Trackpoint>
            <Time>2021-08-01T12:12:11.000Z</Time>
            <Position>
              <LatitudeDegrees>-15.439709387719631195068359375</LatitudeDegrees>
              <LongitudeDegrees>37.05886934883892536163330078125</LongitudeDegrees>
            </Position>
            <AltitudeMeters>1022</AltitudeMeters>
            <DistanceMeters>10152.581401768</DistanceMeters>
          </Trackpoint>
          <Trackpoint>
            <Time>2021-08-01T12:12:13.000Z</Time>
            <Position>
              <LatitudeDegrees>-15.43972942046821117401123046875</LatitudeDegrees>
              <LongitudeDegrees>37.05887236632406711578369140625</LongitudeDegrees>
            </Position>
            <AltitudeMeters>1022.79998779296875</AltitudeMeters>
            <DistanceMeters>10154.834156296</DistanceMeters>
          </Trackpoint>
          <Trackpoint>
            <Time>2021-08-01T12:12:17.000Z</Time>
            <Position>
              <LatitudeDegrees>-15.43976864777505397796630859375</LatitudeDegrees>
              <LongitudeDegrees>37.0588851906359195709228515625</LongitudeDegrees>
            </Position>
            <AltitudeMeters>1022.79998779296875</AltitudeMeters>
            <DistanceMeters>10159.412235306</DistanceMeters>
          </Trackpoint>
          <Trackpoint>
            <Time>2021-08-01T12:12:20.000Z</Time>
            <Position>
              <LatitudeDegrees>-15.439795888960361480712890625</LatitudeDegrees>
              <LongitudeDegrees>37.05888896249234676361083984375</LongitudeDegrees>
            </Position>
            <AltitudeMeters>1023.20001220703125</AltitudeMeters>
            <DistanceMeters>10162.472331591</DistanceMeters>
          </Trackpoint>
          <Trackpoint>
            <Time>2021-08-01T12:12:23.000Z</Time>
            <Position>
              <LatitudeDegrees>-15.4398222081363201141357421875</LatitudeDegrees>
              <LongitudeDegrees>37.05889047123491764068603515625</LongitudeDegrees>
            </Position>
            <AltitudeMeters>1023.79998779296875</AltitudeMeters>
            <DistanceMeters>10165.4058726</DistanceMeters>
          </Trackpoint>
          <Trackpoint>
            <Time>2021-08-01T12:12:25.000Z</Time>
            <Position>
              <LatitudeDegrees>-15.439846515655517578125</LatitudeDegrees>
              <LongitudeDegrees>37.05889172852039337158203125</LongitudeDegrees>
            </Position>
            <AltitudeMeters>1024</AltitudeMeters>
            <DistanceMeters>10168.113717144</DistanceMeters>
          </Trackpoint>
          <Trackpoint>
            <Time>2021-08-01T12:12:27.000Z</Time>
            <Position>
              <LatitudeDegrees>-15.43986638076603412628173828125</LatitudeDegrees>
              <LongitudeDegrees>37.0588925667107105255126953125</LongitudeDegrees>
            </Position>
            <AltitudeMeters>1024.4000244140625</AltitudeMeters>
            <DistanceMeters>10170.323982141</DistanceMeters>
          </Trackpoint>
          <Trackpoint>
            <Time>2021-08-01T12:12:29.000Z</Time>
            <Position>
              <LatitudeDegrees>-15.439881049096584320068359375</LatitudeDegrees>
              <LongitudeDegrees>37.0589032955467700958251953125</LongitudeDegrees>
            </Position>
            <AltitudeMeters>1024.5999755859375</AltitudeMeters>
            <DistanceMeters>10172.321804402</DistanceMeters>
          </Trackpoint>
          <Trackpoint>
            <Time>2021-08-01T12:12:31.000Z</Time>
            <Position>
              <LatitudeDegrees>-15.4399030096828937530517578125</LatitudeDegrees>
              <LongitudeDegrees>37.05890790559351444244384765625</LongitudeDegrees>
            </Position>
            <AltitudeMeters>1024.5999755859375</AltitudeMeters>
            <DistanceMeters>10174.816142525</DistanceMeters>
          </Trackpoint>
          <Trackpoint>
            <Time>2021-08-01T12:12:34.000Z</Time>
            <Position>
              <LatitudeDegrees>-15.439931340515613555908203125</LatitudeDegrees>
              <LongitudeDegrees>37.058914192020893096923828125</LongitudeDegrees>
            </Position>
            <AltitudeMeters>1025.4000244140625</AltitudeMeters>
            <DistanceMeters>10178.040055983</DistanceMeters>
          </Trackpoint>
          <Trackpoint>
            <Time>2021-08-01T12:12:37.000Z</Time>
            <Position>
              <LatitudeDegrees>-15.43995774351060390472412109375</LatitudeDegrees>
              <LongitudeDegrees>37.05892500467598438262939453125</LongitudeDegrees>
            </Position>
            <AltitudeMeters>1026</AltitudeMeters>
            <DistanceMeters>10181.20031935</DistanceMeters>
          </Trackpoint>
          <Trackpoint>
            <Time>2021-08-01T12:12:39.000Z</Time>
            <Position>
              <LatitudeDegrees>-15.4399710707366466522216796875</LatitudeDegrees>
              <LongitudeDegrees>37.058940343558788299560546875</LongitudeDegrees>
            </Position>
            <AltitudeMeters>1026.199951171875</AltitudeMeters>
            <DistanceMeters>10183.416704151</DistanceMeters>
          </Trackpoint>
          <Trackpoint>
            <Time>2021-08-01T12:12:40.000Z</Time>
            <Position>
              <LatitudeDegrees>-15.43997718952596187591552734375</LatitudeDegrees>
              <LongitudeDegrees>37.0589478872716426849365234375</LongitudeDegrees>
            </Position>
            <AltitudeMeters>1026.800048828125</AltitudeMeters>
            <DistanceMeters>10184.470601395</DistanceMeters>
          </Trackpoint>
          <Trackpoint>
            <Time>2021-08-01T12:12:46.000Z</Time>
            <Position>
              <LatitudeDegrees>-15.4399697296321392059326171875</LatitudeDegrees>
              <LongitudeDegrees>37.0589835941791534423828125</LongitudeDegrees>
            </Position>
            <AltitudeMeters>1027.800048828125</AltitudeMeters>
            <DistanceMeters>10188.39095726</DistanceMeters>
          </Trackpoint>
          <Trackpoint>
            <Time>2021-08-01T12:12:47.000Z</Time>
            <Position>
              <LatitudeDegrees>-15.43996662832796573638916015625</LatitudeDegrees>
              <LongitudeDegrees>37.058990634977817535400390625</LongitudeDegrees>
            </Position>
            <AltitudeMeters>1028</AltitudeMeters>
            <DistanceMeters>10189.224813295</DistanceMeters>
          </Trackpoint>
          <Trackpoint>
            <Time>2021-08-01T12:12:51.000Z</Time>
            <Position>
              <LatitudeDegrees>-15.43994919396936893463134765625</LatitudeDegrees>
              <LongitudeDegrees>37.059007398784160614013671875</LongitudeDegrees>
            </Position>
            <AltitudeMeters>1028.800048828125</AltitudeMeters>
            <DistanceMeters>10191.871951244</DistanceMeters>
          </Trackpoint>
          <Trackpoint>
            <Time>2021-08-01T12:12:53.000Z</Time>
            <Position>
              <LatitudeDegrees>-15.439932681620121002197265625</LatitudeDegrees>
              <LongitudeDegrees>37.05901485867798328399658203125</LongitudeDegrees>
            </Position>
            <AltitudeMeters>1029.199951171875</AltitudeMeters>
            <DistanceMeters>10193.874288363</DistanceMeters>
          </Trackpoint>
          <Trackpoint>
            <Time>2021-08-01T12:12:55.000Z</Time>
            <Position>
              <LatitudeDegrees>-15.43992019258439540863037109375</LatitudeDegrees>
              <LongitudeDegrees>37.05901779234409332275390625</LongitudeDegrees>
            </Position>
            <AltitudeMeters>1029.800048828125</AltitudeMeters>
            <DistanceMeters>10195.296517995</DistanceMeters>
          </Trackpoint>
          <Trackpoint>
            <Time>2021-08-01T12:12:58.000Z</Time>
            <Position>
              <LatitudeDegrees>-15.43989689089357852935791015625</LatitudeDegrees>
              <LongitudeDegrees>37.05902340821921825408935546875</LongitudeDegrees>
            </Position>
            <AltitudeMeters>1030</AltitudeMeters>
            <DistanceMeters>10197.958962362</DistanceMeters>
          </Trackpoint>
          <Trackpoint>
            <Time>2021-08-01T12:13:01.000Z</Time>
            <Position>
              <LatitudeDegrees>-15.439873002469539642333984375</LatitudeDegrees>
              <LongitudeDegrees>37.05903078429400920867919921875</LongitudeDegrees>
            </Position>
            <AltitudeMeters>1031</AltitudeMeters>
            <DistanceMeters>10200.734328141</DistanceMeters>
          </Trackpoint>
          <Trackpoint>
            <Time>2021-08-01T12:13:04.000Z</Time>
            <Position>
              <LatitudeDegrees>-15.43985146097838878631591796875</LatitudeDegrees>
              <LongitudeDegrees>37.05903832800686359405517578125</LongitudeDegrees>
            </Position>
            <AltitudeMeters>1031.199951171875</AltitudeMeters>
            <DistanceMeters>10203.264609587</DistanceMeters>
          </Trackpoint>
          <Trackpoint>
            <Time>2021-08-01T12:13:07.000Z</Time>
            <Position>
              <LatitudeDegrees>-15.4398289136588573455810546875</LatitudeDegrees>
              <LongitudeDegrees>37.05905173905193805694580078125</LongitudeDegrees>
            </Position>
            <AltitudeMeters>1032</AltitudeMeters>
            <DistanceMeters>10206.157857047</DistanceMeters>
          </Trackpoint>
          <Trackpoint>
            <Time>2021-08-01T12:13:12.000Z</Time>
            <Position>
              <LatitudeDegrees>-15.4397859983146190643310546875</LatitudeDegrees>
              <LongitudeDegrees>37.059065736830234527587890625</LongitudeDegrees>
            </Position>
            <AltitudeMeters>1033</AltitudeMeters>
            <DistanceMeters>10211.165503429</DistanceMeters>
          </Trackpoint>
          <Trackpoint>
            <Time>2021-08-01T12:13:13.000Z</Time>
            <Position>
              <LatitudeDegrees>-15.43977837078273296356201171875</LatitudeDegrees>
              <LongitudeDegrees>37.05906850285828113555908203125</LongitudeDegrees>
            </Position>
            <AltitudeMeters>1033.199951171875</AltitudeMeters>
            <DistanceMeters>10212.056933026</DistanceMeters>
          </Trackpoint>
          <Trackpoint>
            <Time>2021-08-01T12:13:15.000Z</Time>
            <Position>
              <LatitudeDegrees>-15.4397642053663730621337890625</LatitudeDegrees>
              <LongitudeDegrees>37.05907722003757953643798828125</LongitudeDegrees>
            </Position>
            <AltitudeMeters>1033.5999755859375</AltitudeMeters>
            <DistanceMeters>10213.889741919</DistanceMeters>
          </Trackpoint>
          <Trackpoint>
            <Time>2021-08-01T12:13:18.000Z</Time>
            <Position>
              <LatitudeDegrees>-15.439745597541332244873046875</LatitudeDegrees>
              <LongitudeDegrees>37.05909163691103458404541015625</LongitudeDegrees>
            </Position>
            <AltitudeMeters>1034.4000244140625</AltitudeMeters>
            <DistanceMeters>10216.474748025</DistanceMeters>
          </Trackpoint>
          <Trackpoint>
            <Time>2021-08-01T12:13:21.000Z</Time>
            <Position>
              <LatitudeDegrees>-15.43972154147922992706298828125</LatitudeDegrees>
              <LongitudeDegrees>37.05911460332572460174560546875</LongitudeDegrees>
            </Position>
            <AltitudeMeters>1035</AltitudeMeters>
            <DistanceMeters>10220.114407644</DistanceMeters>
          </Trackpoint>
          <Trackpoint>
            <Time>2021-08-01T12:13:24.000Z</Time>
            <Position>
              <LatitudeDegrees>-15.43970410712063312530517578125</LatitudeDegrees>
              <LongitudeDegrees>37.05912918783724308013916015625</LongitudeDegrees>
            </Position>
            <AltitudeMeters>1035.5999755859375</AltitudeMeters>
            <DistanceMeters>10222.606934995</DistanceMeters>
          </Trackpoint>
          <Trackpoint>
            <Time>2021-08-01T12:13:30.000Z</Time>
            <Position>
              <LatitudeDegrees>-15.439665131270885467529296875</LatitudeDegrees>
              <LongitudeDegrees>37.05915869213640689849853515625</LongitudeDegrees>
            </Position>
            <AltitudeMeters>1036.4000244140625</AltitudeMeters>
            <DistanceMeters>10227.976575028</DistanceMeters>
          </Trackpoint>
          <Trackpoint>
            <Time>2021-08-01T12:13:31.000Z</Time>
            <Position>
              <LatitudeDegrees>-15.43965800665318965911865234375</LatitudeDegrees>
              <LongitudeDegrees>37.05916489474475383758544921875</LongitudeDegrees>
            </Position>
            <AltitudeMeters>1036.5999755859375</AltitudeMeters>
            <DistanceMeters>10229.008829367</DistanceMeters>
          </Trackpoint>
          <Trackpoint>
            <Time>2021-08-01T12:13:38.000Z</Time>
            <Position>
              <LatitudeDegrees>-15.4396026022732257843017578125</LatitudeDegrees>
              <LongitudeDegrees>37.059231363236904144287109375</LongitudeDegrees>
            </Position>
            <AltitudeMeters>1037.800048828125</AltitudeMeters>
            <DistanceMeters>10238.436130803</DistanceMeters>
          </Trackpoint>
          <Trackpoint>
            <Time>2021-08-01T12:13:42.000Z</Time>
            <Position>
              <LatitudeDegrees>-15.43957016430795192718505859375</LatitudeDegrees>
              <LongitudeDegrees>37.05925575457513332366943359375</LongitudeDegrees>
            </Position>
            <AltitudeMeters>1038.5999755859375</AltitudeMeters>
            <DistanceMeters>10242.896316719</DistanceMeters>
          </Trackpoint>
          <Trackpoint>
            <Time>2021-08-01T12:13:45.000Z</Time>
            <Position>
              <LatitudeDegrees>-15.4395559988915920257568359375</LatitudeDegrees>
              <LongitudeDegrees>37.05926380120217800140380859375</LongitudeDegrees>
            </Position>
            <AltitudeMeters>1038.800048828125</AltitudeMeters>
            <DistanceMeters>10244.696815939</DistanceMeters>
          </Trackpoint>
          <Trackpoint>
            <Time>2021-08-01T12:13:48.000Z</Time>
            <Position>
              <LatitudeDegrees>-15.439533703029155731201171875</LatitudeDegrees>
              <LongitudeDegrees>37.05926463939249515533447265625</LongitudeDegrees>
            </Position>
            <AltitudeMeters>1039.5999755859375</AltitudeMeters>
            <DistanceMeters>10247.180269625</DistanceMeters>
          </Trackpoint>
          <Trackpoint>
            <Time>2021-08-01T12:13:49.000Z</Time>
            <Position>
              <LatitudeDegrees>-15.43952942825853824615478515625</LatitudeDegrees>
              <LongitudeDegrees>37.059266902506351470947265625</LongitudeDegrees>
            </Position>
            <AltitudeMeters>1039.5999755859375</AltitudeMeters>
            <DistanceMeters>10247.717821898</DistanceMeters>
          </Trackpoint>
          <Trackpoint>
            <Time>2021-08-01T12:13:50.000Z</Time>
            <Position>
              <LatitudeDegrees>-15.43951987288892269134521484375</LatitudeDegrees>
              <LongitudeDegrees>37.0592761225998401641845703125</LongitudeDegrees>
            </Position>
            <AltitudeMeters>1040</AltitudeMeters>
            <DistanceMeters>10249.171451111</DistanceMeters>
          </Trackpoint>
          <Trackpoint>
            <Time>2021-08-01T12:13:53.000Z</Time>
            <Position>
              <LatitudeDegrees>-15.4394929669797420501708984375</LatitudeDegrees>
              <LongitudeDegrees>37.05931861884891986846923828125</LongitudeDegrees>
            </Position>
            <AltitudeMeters>1040.4000244140625</AltitudeMeters>
            <DistanceMeters>10254.62701084</DistanceMeters>
          </Trackpoint>
          <Trackpoint>
            <Time>2021-08-01T12:13:54.000Z</Time>
            <Position>
              <LatitudeDegrees>-15.43948533944785594940185546875</LatitudeDegrees>
              <LongitudeDegrees>37.059321887791156768798828125</LongitudeDegrees>
            </Position>
            <AltitudeMeters>1040.800048828125</AltitudeMeters>
            <DistanceMeters>10255.548329019</DistanceMeters>
          </Trackpoint>
          <Trackpoint>
            <Time>2021-08-01T12:13:56.000Z</Time>
            <Position>
              <LatitudeDegrees>-15.4394735209643840789794921875</LatitudeDegrees>
              <LongitudeDegrees>37.0593401603400707244873046875</LongitudeDegrees>
            </Position>
            <AltitudeMeters>1041</AltitudeMeters>
            <DistanceMeters>10257.908743636</DistanceMeters>
          </Trackpoint>
          <Trackpoint>
            <Time>2021-08-01T12:14:02.000Z</Time>
            <Position>
              <LatitudeDegrees>-15.43943840079009532928466796875</LatitudeDegrees>
              <LongitudeDegrees>37.05938047729432582855224609375</LongitudeDegrees>
            </Position>
            <AltitudeMeters>1042</AltitudeMeters>
            <DistanceMeters>10263.737995531</DistanceMeters>
          </Trackpoint>
          <Trackpoint>
            <Time>2021-08-01T12:14:05.000Z</Time>
            <Position>
              <LatitudeDegrees>-15.43941694311797618865966796875</LatitudeDegrees>
              <LongitudeDegrees>37.05940210260450839996337890625</LongitudeDegrees>
            </Position>
            <AltitudeMeters>1042.199951171875</AltitudeMeters>
            <DistanceMeters>10267.066644476</DistanceMeters>
          </Trackpoint>
          <Trackpoint>
            <Time>2021-08-01T12:14:10.000Z</Time>
            <Position>
              <LatitudeDegrees>-15.4393967427313327789306640625</LatitudeDegrees>
              <LongitudeDegrees>37.05944694578647613525390625</LongitudeDegrees>
            </Position>
            <AltitudeMeters>1043</AltitudeMeters>
            <DistanceMeters>10272.37709914</DistanceMeters>
          </Trackpoint>
          <Trackpoint>
            <Time>2021-08-01T12:14:13.000Z</Time>
            <Position>
              <LatitudeDegrees>-15.43938861228525638580322265625</LatitudeDegrees>
              <LongitudeDegrees>37.05947242677211761474609375</LongitudeDegrees>
            </Position>
            <AltitudeMeters>1043.5999755859375</AltitudeMeters>
            <DistanceMeters>10275.2578352</DistanceMeters>
          </Trackpoint>
          <Trackpoint>
            <Time>2021-08-01T12:14:16.000Z</Time>
            <Position>
              <LatitudeDegrees>-15.43937603943049907684326171875</LatitudeDegrees>
              <LongitudeDegrees>37.05949254333972930908203125</LongitudeDegrees>
            </Position>
            <AltitudeMeters>1044.199951171875</AltitudeMeters>
            <DistanceMeters>10277.832340223</DistanceMeters>
          </Trackpoint>
          <Trackpoint>
            <Time>2021-08-01T12:14:18.000Z</Time>
            <Position>
              <LatitudeDegrees>-15.4393575154244899749755859375</LatitudeDegrees>
              <LongitudeDegrees>37.05952598713338375091552734375</LongitudeDegrees>
            </Position>
            <AltitudeMeters>1044.5999755859375</AltitudeMeters>
            <DistanceMeters>10281.97009625</DistanceMeters>
          </Trackpoint>
          <Trackpoint>
            <Time>2021-08-01T12:14:22.000Z</Time>
            <Position>
              <LatitudeDegrees>-15.43933689594268798828125</LatitudeDegrees>
              <LongitudeDegrees>37.05956202931702136993408203125</LongitudeDegrees>
            </Position>
            <AltitudeMeters>1045.199951171875</AltitudeMeters>
            <DistanceMeters>10286.466577224</DistanceMeters>
          </Trackpoint>
          <Trackpoint>
            <Time>2021-08-01T12:14:23.000Z</Time>
            <Position>
              <LatitudeDegrees>-15.43933530338108539581298828125</LatitudeDegrees>
              <LongitudeDegrees>37.05957376398146152496337890625</LongitudeDegrees>
            </Position>
            <AltitudeMeters>1045.4000244140625</AltitudeMeters>
            <DistanceMeters>10287.741494383</DistanceMeters>
          </Trackpoint>
          <Trackpoint>
            <Time>2021-08-01T12:14:24.000Z</Time>
            <Position>
              <LatitudeDegrees>-15.43933429755270481109619140625</LatitudeDegrees>
              <LongitudeDegrees>37.05958398990333080291748046875</LongitudeDegrees>
            </Position>
            <AltitudeMeters>1045.5999755859375</AltitudeMeters>
            <DistanceMeters>10288.841508129</DistanceMeters>
          </Trackpoint>
          <Trackpoint>
            <Time>2021-08-01T12:14:31.000Z</Time>
            <Position>
              <LatitudeDegrees>-15.43933697976171970367431640625</LatitudeDegrees>
              <LongitudeDegrees>37.05966143868863582611083984375</LongitudeDegrees>
            </Position>
            <AltitudeMeters>1046.800048828125</AltitudeMeters>
            <DistanceMeters>10297.156209883</DistanceMeters>
          </Trackpoint>
          <Trackpoint>
            <Time>2021-08-01T12:14:36.000Z</Time>
            <Position>
              <LatitudeDegrees>-15.43933178298175334930419921875</LatitudeDegrees>
              <LongitudeDegrees>37.059724219143390655517578125</LongitudeDegrees>
            </Position>
            <AltitudeMeters>1047.4000244140625</AltitudeMeters>
            <DistanceMeters>10303.917145245</DistanceMeters>
          </Trackpoint>
          <Trackpoint>
            <Time>2021-08-01T12:14:38.000Z</Time>
            <Position>
              <LatitudeDegrees>-15.43932239525020122528076171875</LatitudeDegrees>
              <LongitudeDegrees>37.05976822413504123687744140625</LongitudeDegrees>
            </Position>
            <AltitudeMeters>1047.800048828125</AltitudeMeters>
            <DistanceMeters>10308.75324884</DistanceMeters>
          </Trackpoint>
          <Trackpoint>
            <Time>2021-08-01T12:14:42.000Z</Time>
            <Position>
              <LatitudeDegrees>-15.43933379463851451873779296875</LatitudeDegrees>
              <LongitudeDegrees>37.05980879254639148712158203125</LongitudeDegrees>
            </Position>
            <AltitudeMeters>1048.5999755859375</AltitudeMeters>
            <DistanceMeters>10313.287726105</DistanceMeters>
          </Trackpoint>
          <Trackpoint>
            <Time>2021-08-01T12:14:43.000Z</Time>
            <Position>
              <LatitudeDegrees>-15.43933488428592681884765625</LatitudeDegrees>
              <LongitudeDegrees>37.05982035957276821136474609375</LongitudeDegrees>
            </Position>
            <AltitudeMeters>1048.800048828125</AltitudeMeters>
            <DistanceMeters>10314.537607389</DistanceMeters>
          </Trackpoint>
          <Trackpoint>
            <Time>2021-08-01T12:14:44.000Z</Time>
            <Position>
              <LatitudeDegrees>-15.43933915905654430389404296875</LatitudeDegrees>
              <LongitudeDegrees>37.05982857383787631988525390625</LongitudeDegrees>
            </Position>
            <AltitudeMeters>1049</AltitudeMeters>
            <DistanceMeters>10315.543275606</DistanceMeters>
          </Trackpoint>
          <Trackpoint>
            <Time>2021-08-01T12:14:45.000Z</Time>
            <Position>
              <LatitudeDegrees>-15.43934754095971584320068359375</LatitudeDegrees>
              <LongitudeDegrees>37.05983326770365238189697265625</LongitudeDegrees>
            </Position>
            <AltitudeMeters>1049</AltitudeMeters>
            <DistanceMeters>10316.605706571</DistanceMeters>
          </Trackpoint>
          <Trackpoint>
            <Time>2021-08-01T12:14:48.000Z</Time>
            <Position>
              <LatitudeDegrees>-15.4393538273870944976806640625</LatitudeDegrees>
              <LongitudeDegrees>37.05985489301383495330810546875</LongitudeDegrees>
            </Position>
            <AltitudeMeters>1049.800048828125</AltitudeMeters>
            <DistanceMeters>10319.032146317</DistanceMeters>
          </Trackpoint>
          <Trackpoint>
            <Time>2021-08-01T12:14:51.000Z</Time>
            <Position>
              <LatitudeDegrees>-15.43935055844485759735107421875</LatitudeDegrees>
              <LongitudeDegrees>37.059909962117671966552734375</LongitudeDegrees>
            </Position>
            <AltitudeMeters>1050.199951171875</AltitudeMeters>
            <DistanceMeters>10324.951326716</DistanceMeters>
          </Trackpoint>
          <Trackpoint>
            <Time>2021-08-01T12:14:52.000Z</Time>
            <Position>
              <LatitudeDegrees>-15.439341254532337188720703125</LatitudeDegrees>
              <LongitudeDegrees>37.05993602983653545379638671875</LongitudeDegrees>
            </Position>
            <AltitudeMeters>1050.4000244140625</AltitudeMeters>
            <DistanceMeters>10327.933712556</DistanceMeters>
          </Trackpoint>
          <Trackpoint>
            <Time>2021-08-01T12:14:55.000Z</Time>
            <Position>
              <LatitudeDegrees>-15.43933463282883167266845703125</LatitudeDegrees>
              <LongitudeDegrees>37.0599724911153316497802734375</LongitudeDegrees>
            </Position>
            <AltitudeMeters>1050.800048828125</AltitudeMeters>
            <DistanceMeters>10331.915774112</DistanceMeters>
          </Trackpoint>
          <Trackpoint>
            <Time>2021-08-01T12:14:58.000Z</Time>
            <Position>
              <LatitudeDegrees>-15.4393125884234905242919921875</LatitudeDegrees>
              <LongitudeDegrees>37.06002655439078807830810546875</LongitudeDegrees>
            </Position>
            <AltitudeMeters>1051.199951171875</AltitudeMeters>
            <DistanceMeters>10338.214117213</DistanceMeters>
          </Trackpoint>
          <Trackpoint>
            <Time>2021-08-01T12:15:02.000Z</Time>
            <Position>
              <LatitudeDegrees>-15.43929993174970149993896484375</LatitudeDegrees>
              <LongitudeDegrees>37.0600730739533901214599609375</LongitudeDegrees>
            </Position>
            <AltitudeMeters>1052</AltitudeMeters>
            <DistanceMeters>10343.399825231</DistanceMeters>
          </Trackpoint>
          <Trackpoint>
            <Time>2021-08-01T12:15:05.000Z</Time>
            <Position>
              <LatitudeDegrees>-15.4392961598932743072509765625</LatitudeDegrees>
              <LongitudeDegrees>37.06009964458644390106201171875</LongitudeDegrees>
            </Position>
            <AltitudeMeters>1052.5999755859375</AltitudeMeters>
            <DistanceMeters>10346.282128187</DistanceMeters>
          </Trackpoint>
          <Trackpoint>
            <Time>2021-08-01T12:15:09.000Z</Time>
            <Position>
              <LatitudeDegrees>-15.43929674662649631500244140625</LatitudeDegrees>
              <LongitudeDegrees>37.06011003814637660980224609375</LongitudeDegrees>
            </Position>
            <AltitudeMeters>1053</AltitudeMeters>
            <DistanceMeters>10347.402476627</DistanceMeters>
          </Trackpoint>
          <Trackpoint>
            <Time>2021-08-01T12:15:12.000Z</Time>
            <Position>
              <LatitudeDegrees>-15.439305715262889862060546875</LatitudeDegrees>
              <LongitudeDegrees>37.06011615693569183349609375</LongitudeDegrees>
            </Position>
            <AltitudeMeters>1053.5999755859375</AltitudeMeters>
            <DistanceMeters>10348.593157945</DistanceMeters>
          </Trackpoint>
          <Trackpoint>
            <Time>2021-08-01T12:15:13.000Z</Time>
            <Position>
              <LatitudeDegrees>-15.43930361978709697723388671875</LatitudeDegrees>
              <LongitudeDegrees>37.06012579612433910369873046875</LongitudeDegrees>
            </Position>
            <AltitudeMeters>1053.800048828125</AltitudeMeters>
            <DistanceMeters>10349.651330652</DistanceMeters>
          </Trackpoint>
          <Trackpoint>
            <Time>2021-08-01T12:15:17.000Z</Time>
            <Position>
              <LatitudeDegrees>-15.43930278159677982330322265625</LatitudeDegrees>
              <LongitudeDegrees>37.06015504896640777587890625</LongitudeDegrees>
            </Position>
            <AltitudeMeters>1054.800048828125</AltitudeMeters>
            <DistanceMeters>10352.792966143</DistanceMeters>
          </Trackpoint>
          <Trackpoint>
            <Time>2021-08-01T12:15:22.000Z</Time>
            <Position>
              <LatitudeDegrees>-15.43928534723818302154541015625</LatitudeDegrees>
              <LongitudeDegrees>37.06020911224186420440673828125</LongitudeDegrees>
            </Position>
            <AltitudeMeters>1055.5999755859375</AltitudeMeters>
            <DistanceMeters>10358.910207088</DistanceMeters>
          </Trackpoint>
          <Trackpoint>
            <Time>2021-08-01T12:15:24.000Z</Time>
            <Position>
              <LatitudeDegrees>-15.439285598695278167724609375</LatitudeDegrees>
              <LongitudeDegrees>37.0602239482104778289794921875</LongitudeDegrees>
            </Position>
            <AltitudeMeters>1055.800048828125</AltitudeMeters>
            <DistanceMeters>10360.503145091</DistanceMeters>
          </Trackpoint>
          <Trackpoint>
            <Time>2021-08-01T12:15:28.000Z</Time>
            <Position>
              <LatitudeDegrees>-15.439283587038516998291015625</LatitudeDegrees>
              <LongitudeDegrees>37.0602591522037982940673828125</LongitudeDegrees>
            </Position>
            <AltitudeMeters>1057</AltitudeMeters>
            <DistanceMeters>10364.287547453</DistanceMeters>
          </Trackpoint>
          <Trackpoint>
            <Time>2021-08-01T12:15:31.000Z</Time>
            <Position>
              <LatitudeDegrees>-15.43927780352532863616943359375</LatitudeDegrees>
              <LongitudeDegrees>37.060288488864898681640625</LongitudeDegrees>
            </Position>
            <AltitudeMeters>1057.5999755859375</AltitudeMeters>
            <DistanceMeters>10367.498831822</DistanceMeters>
          </Trackpoint>
          <Trackpoint>
            <Time>2021-08-01T12:15:35.000Z</Time>
            <Position>
              <LatitudeDegrees>-15.4392706789076328277587890625</LatitudeDegrees>
              <LongitudeDegrees>37.06031757406890392303466796875</LongitudeDegrees>
            </Position>
            <AltitudeMeters>1058</AltitudeMeters>
            <DistanceMeters>10370.721344493</DistanceMeters>
          </Trackpoint>
          <Trackpoint>
            <Time>2021-08-01T12:15:40.000Z</Time>
            <Position>
              <LatitudeDegrees>-15.4392596147954463958740234375</LatitudeDegrees>
              <LongitudeDegrees>37.0603676140308380126953125</LongitudeDegrees>
            </Position>
            <AltitudeMeters>1058.4000244140625</AltitudeMeters>
            <DistanceMeters>10376.229616168</DistanceMeters>
          </Trackpoint>
          <Trackpoint>
            <Time>2021-08-01T12:15:42.000Z</Time>
            <Position>
              <LatitudeDegrees>-15.439260117709636688232421875</LatitudeDegrees>
              <LongitudeDegrees>37.060382701456546783447265625</LongitudeDegrees>
            </Position>
            <AltitudeMeters>1059.199951171875</AltitudeMeters>
            <DistanceMeters>10377.847862802</DistanceMeters>
          </Trackpoint>
          <Trackpoint>
            <Time>2021-08-01T12:15:47.000Z</Time>
            <Position>
              <LatitudeDegrees>-15.43925031088292598724365234375</LatitudeDegrees>
              <LongitudeDegrees>37.06042905338108539581298828125</LongitudeDegrees>
            </Position>
            <AltitudeMeters>1060.199951171875</AltitudeMeters>
            <DistanceMeters>10382.938670144</DistanceMeters>
          </Trackpoint>
          <Trackpoint>
            <Time>2021-08-01T12:15:52.000Z</Time>
            <Position>
              <LatitudeDegrees>-15.439245700836181640625</LatitudeDegrees>
              <LongitudeDegrees>37.0604630000889301300048828125</LongitudeDegrees>
            </Position>
            <AltitudeMeters>1061</AltitudeMeters>
            <DistanceMeters>10386.616584569</DistanceMeters>
          </Trackpoint>
          <Trackpoint>
            <Time>2021-08-01T12:15:55.000Z</Time>
            <Position>
              <LatitudeDegrees>-15.4392394982278347015380859375</LatitudeDegrees>
              <LongitudeDegrees>37.06048973836004734039306640625</LongitudeDegrees>
            </Position>
            <AltitudeMeters>1061.4000244140625</AltitudeMeters>
            <DistanceMeters>10389.568537104</DistanceMeters>
          </Trackpoint>
          <Trackpoint>
            <Time>2021-08-01T12:16:01.000Z</Time>
            <Position>
              <LatitudeDegrees>-15.43923907913267612457275390625</LatitudeDegrees>
              <LongitudeDegrees>37.060557045042514801025390625</LongitudeDegrees>
            </Position>
            <AltitudeMeters>1062.800048828125</AltitudeMeters>
            <DistanceMeters>10396.790567396</DistanceMeters>
          </Trackpoint>
          <Trackpoint>
            <Time>2021-08-01T12:16:02.000Z</Time>
            <Position>
              <LatitudeDegrees>-15.43924159370362758636474609375</LatitudeDegrees>
              <LongitudeDegrees>37.060567438602447509765625</LongitudeDegrees>
            </Position>
            <AltitudeMeters>1063</AltitudeMeters>
            <DistanceMeters>10397.938779554</DistanceMeters>
          </Trackpoint>
          <Trackpoint>
            <Time>2021-08-01T12:16:04.000Z</Time>
            <Position>
              <LatitudeDegrees>-15.43923958204686641693115234375</LatitudeDegrees>
              <LongitudeDegrees>37.06058898009359836578369140625</LongitudeDegrees>
            </Position>
            <AltitudeMeters>1063.4000244140625</AltitudeMeters>
            <DistanceMeters>10400.262566488</DistanceMeters>
          </Trackpoint>
          <Trackpoint>
            <Time>2021-08-01T12:16:06.000Z</Time>
            <Position>
              <LatitudeDegrees>-15.4392421804368495941162109375</LatitudeDegrees>
              <LongitudeDegrees>37.060605995357036590576171875</LongitudeDegrees>
            </Position>
            <AltitudeMeters>1064</AltitudeMeters>
            <DistanceMeters>10402.112539183</DistanceMeters>
          </Trackpoint>
          <Trackpoint>
            <Time>2021-08-01T12:16:08.000Z</Time>
            <Position>
              <LatitudeDegrees>-15.439252741634845733642578125</LatitudeDegrees>
              <LongitudeDegrees>37.0606224238872528076171875</LongitudeDegrees>
            </Position>
            <AltitudeMeters>1064.5999755859375</AltitudeMeters>
            <DistanceMeters>10404.233147131</DistanceMeters>
          </Trackpoint>
          <Trackpoint>
            <Time>2021-08-01T12:16:11.000Z</Time>
            <Position>
              <LatitudeDegrees>-15.43926942162215709686279296875</LatitudeDegrees>
              <LongitudeDegrees>37.0606480725109577178955078125</LongitudeDegrees>
            </Position>
            <AltitudeMeters>1065.199951171875</AltitudeMeters>
            <DistanceMeters>10407.552287571</DistanceMeters>
          </Trackpoint>
          <Trackpoint>
            <Time>2021-08-01T12:16:15.000Z</Time>
            <Position>
              <LatitudeDegrees>-15.43928450904786586761474609375</LatitudeDegrees>
              <LongitudeDegrees>37.06068235449492931365966796875</LongitudeDegrees>
            </Position>
            <AltitudeMeters>1066</AltitudeMeters>
            <DistanceMeters>10411.595113113</DistanceMeters>
          </Trackpoint>
          <Trackpoint>
            <Time>2021-08-01T12:16:16.000Z</Time>
            <Position>
              <LatitudeDegrees>-15.43928601779043674468994140625</LatitudeDegrees>
              <LongitudeDegrees>37.06069308333098888397216796875</LongitudeDegrees>
            </Position>
            <AltitudeMeters>1066.5999755859375</AltitudeMeters>
            <DistanceMeters>10412.762820929</DistanceMeters>
          </Trackpoint>
          <Trackpoint>
            <Time>2021-08-01T12:16:22.000Z</Time>
            <Position>
              <LatitudeDegrees>-15.439310409128665924072265625</LatitudeDegrees>
              <LongitudeDegrees>37.060740776360034942626953125</LongitudeDegrees>
            </Position>
            <AltitudeMeters>1067.199951171875</AltitudeMeters>
            <DistanceMeters>10418.555554659</DistanceMeters>
          </Trackpoint>
          <Trackpoint>
            <Time>2021-08-01T12:16:25.000Z</Time>
            <Position>
              <LatitudeDegrees>-15.43932323344051837921142578125</LatitudeDegrees>
              <LongitudeDegrees>37.06076256930828094482421875</LongitudeDegrees>
            </Position>
            <AltitudeMeters>1067.800048828125</AltitudeMeters>
            <DistanceMeters>10421.294896464</DistanceMeters>
          </Trackpoint>
          <Trackpoint>
            <Time>2021-08-01T12:16:31.000Z</Time>
            <Position>
              <LatitudeDegrees>-15.43932415544986724853515625</LatitudeDegrees>
              <LongitudeDegrees>37.06080305390059947967529296875</LongitudeDegrees>
            </Position>
            <AltitudeMeters>1069</AltitudeMeters>
            <DistanceMeters>10425.640226123</DistanceMeters>
          </Trackpoint>
          <Trackpoint>
            <Time>2021-08-01T12:16:37.000Z</Time>
            <Position>
              <LatitudeDegrees>-15.43929741717875003814697265625</LatitudeDegrees>
              <LongitudeDegrees>37.06082501448690891265869140625</LongitudeDegrees>
            </Position>
            <AltitudeMeters>1070.4000244140625</AltitudeMeters>
            <DistanceMeters>10429.436540389</DistanceMeters>
          </Trackpoint>
          <Trackpoint>
            <Time>2021-08-01T12:16:42.000Z</Time>
            <Position>
              <LatitudeDegrees>-15.4392629675567150115966796875</LatitudeDegrees>
              <LongitudeDegrees>37.06083054654300212860107421875</LongitudeDegrees>
            </Position>
            <AltitudeMeters>1071.4000244140625</AltitudeMeters>
            <DistanceMeters>10433.316377683</DistanceMeters>
          </Trackpoint>
          <Trackpoint>
            <Time>2021-08-01T12:16:43.000Z</Time>
            <Position>
              <LatitudeDegrees>-15.43925718404352664947509765625</LatitudeDegrees>
              <LongitudeDegrees>37.0608301274478435516357421875</LongitudeDegrees>
            </Position>
            <AltitudeMeters>1071.5999755859375</AltitudeMeters>
            <DistanceMeters>10433.960880217</DistanceMeters>
          </Trackpoint>
          <Trackpoint>
            <Time>2021-08-01T12:16:49.000Z</Time>
            <Position>
              <LatitudeDegrees>-15.439211837947368621826171875</LatitudeDegrees>
              <LongitudeDegrees>37.06082350574433803558349609375</LongitudeDegrees>
            </Position>
            <AltitudeMeters>1072.5999755859375</AltitudeMeters>
            <DistanceMeters>10439.05789208</DistanceMeters>
          </Trackpoint>
          <Trackpoint>
            <Time>2021-08-01T12:16:53.000Z</Time>
            <Position>
              <LatitudeDegrees>-15.4391794838011264801025390625</LatitudeDegrees>
              <LongitudeDegrees>37.0608287863433361053466796875</LongitudeDegrees>
            </Position>
            <AltitudeMeters>1073.4000244140625</AltitudeMeters>
            <DistanceMeters>10442.703748979</DistanceMeters>
          </Trackpoint>
          <Trackpoint>
            <Time>2021-08-01T12:16:56.000Z</Time>
            <Position>
              <LatitudeDegrees>-15.43915492482483386993408203125</LatitudeDegrees>
              <LongitudeDegrees>37.06082761287689208984375</LongitudeDegrees>
            </Position>
            <AltitudeMeters>1073.800048828125</AltitudeMeters>
            <DistanceMeters>10445.439792358</DistanceMeters>
          </Trackpoint>
          <Trackpoint>
            <Time>2021-08-01T12:17:00.000Z</Time>
            <Position>
              <LatitudeDegrees>-15.439118631184101104736328125</LatitudeDegrees>
              <LongitudeDegrees>37.06083037890493869781494140625</LongitudeDegrees>
            </Position>
            <AltitudeMeters>1074.4000244140625</AltitudeMeters>
            <DistanceMeters>10449.488198062</DistanceMeters>
          </Trackpoint>
          <Trackpoint>
            <Time>2021-08-01T12:17:04.000Z</Time>
            <Position>
              <LatitudeDegrees>-15.439085774123668670654296875</LatitudeDegrees>
              <LongitudeDegrees>37.06083842553198337554931640625</LongitudeDegrees>
            </Position>
            <AltitudeMeters>1075</AltitudeMeters>
            <DistanceMeters>10453.246261334</DistanceMeters>
          </Trackpoint>
          <Trackpoint>
            <Time>2021-08-01T12:17:06.000Z</Time>
            <Position>
              <LatitudeDegrees>-15.43906666338443756103515625</LatitudeDegrees>
              <LongitudeDegrees>37.0608442090451717376708984375</LongitudeDegrees>
            </Position>
            <AltitudeMeters>1075</AltitudeMeters>
            <DistanceMeters>10455.46060808</DistanceMeters>
          </Trackpoint>
          <Trackpoint>
            <Time>2021-08-01T12:17:09.000Z</Time>
            <Position>
              <LatitudeDegrees>-15.43904277496039867401123046875</LatitudeDegrees>
              <LongitudeDegrees>37.06085267476737499237060546875</LongitudeDegrees>
            </Position>
            <AltitudeMeters>1076</AltitudeMeters>
            <DistanceMeters>10458.268321871</DistanceMeters>
          </Trackpoint>
          <Trackpoint>
            <Time>2021-08-01T12:17:18.000Z</Time>
            <Position>
              <LatitudeDegrees>-15.43897002004086971282958984375</LatitudeDegrees>
              <LongitudeDegrees>37.06089575774967670440673828125</LongitudeDegrees>
            </Position>
            <AltitudeMeters>1077.199951171875</AltitudeMeters>
            <DistanceMeters>10467.592568543</DistanceMeters>
          </Trackpoint>
          <Trackpoint>
            <Time>2021-08-01T12:17:19.000Z</Time>
            <Position>
              <LatitudeDegrees>-15.4389602132141590118408203125</LatitudeDegrees>
              <LongitudeDegrees>37.0608995296061038970947265625</LongitudeDegrees>
            </Position>
            <AltitudeMeters>1077.199951171875</AltitudeMeters>
            <DistanceMeters>10468.760276359</DistanceMeters>
          </Trackpoint>
          <Trackpoint>
            <Time>2021-08-01T12:17:26.000Z</Time>
            <Position>
              <LatitudeDegrees>-15.438908077776432037353515625</LatitudeDegrees>
              <LongitudeDegrees>37.06092475913465023040771484375</LongitudeDegrees>
            </Position>
            <AltitudeMeters>1078.199951171875</AltitudeMeters>
            <DistanceMeters>10475.163130961</DistanceMeters>
          </Trackpoint>
          <Trackpoint>
            <Time>2021-08-01T12:17:33.000Z</Time>
            <Position>
              <LatitudeDegrees>-15.43885208666324615478515625</LatitudeDegrees>
              <LongitudeDegrees>37.060964070260524749755859375</LongitudeDegrees>
            </Position>
            <AltitudeMeters>1079.4000244140625</AltitudeMeters>
            <DistanceMeters>10482.687662794</DistanceMeters>
          </Trackpoint>
          <Trackpoint>
            <Time>2021-08-01T12:17:41.000Z</Time>
            <Position>
              <LatitudeDegrees>-15.4388009570538997650146484375</LatitudeDegrees>
              <LongitudeDegrees>37.061023749411106109619140625</LongitudeDegrees>
            </Position>
            <AltitudeMeters>1080.5999755859375</AltitudeMeters>
            <DistanceMeters>10491.253782171</DistanceMeters>
          </Trackpoint>
          <Trackpoint>
            <Time>2021-08-01T12:17:44.000Z</Time>
            <Position>
              <LatitudeDegrees>-15.43879165314137935638427734375</LatitudeDegrees>
              <LongitudeDegrees>37.0610524155199527740478515625</LongitudeDegrees>
            </Position>
            <AltitudeMeters>1081</AltitudeMeters>
            <DistanceMeters>10494.498634885</DistanceMeters>
          </Trackpoint>
          <Trackpoint>
            <Time>2021-08-01T12:17:48.000Z</Time>
            <Position>
              <LatitudeDegrees>-15.438771955668926239013671875</LatitudeDegrees>
              <LongitudeDegrees>37.061087451875209808349609375</LongitudeDegrees>
            </Position>
            <AltitudeMeters>1081.800048828125</AltitudeMeters>
            <DistanceMeters>10498.851231854</DistanceMeters>
          </Trackpoint>
          <Trackpoint>
            <Time>2021-08-01T12:17:55.000Z</Time>
            <Position>
              <LatitudeDegrees>-15.43874479830265045166015625</LatitudeDegrees>
              <LongitudeDegrees>37.0611580274999141693115234375</LongitudeDegrees>
            </Position>
            <AltitudeMeters>1082.800048828125</AltitudeMeters>
            <DistanceMeters>10507.004169528</DistanceMeters>
          </Trackpoint>
          <Trackpoint>
            <Time>2021-08-01T12:18:03.000Z</Time>
            <Position>
              <LatitudeDegrees>-15.43870800174772739410400390625</LatitudeDegrees>
              <LongitudeDegrees>37.0612418465316295623779296875</LongitudeDegrees>
            </Position>
            <AltitudeMeters>1083.800048828125</AltitudeMeters>
            <DistanceMeters>10516.885577149</DistanceMeters>
          </Trackpoint>
          <Trackpoint>
            <Time>2021-08-01T12:18:04.000Z</Time>
            <Position>
              <LatitudeDegrees>-15.43870012275874614715576171875</LatitudeDegrees>
              <LongitudeDegrees>37.06125768832862377166748046875</LongitudeDegrees>
            </Position>
            <AltitudeMeters>1084.199951171875</AltitudeMeters>
            <DistanceMeters>10518.800312389</DistanceMeters>
          </Trackpoint>
          <Trackpoint>
            <Time>2021-08-01T12:18:05.000Z</Time>
            <Position>
              <LatitudeDegrees>-15.43869727291166782379150390625</LatitudeDegrees>
              <LongitudeDegrees>37.0612790621817111968994140625</LongitudeDegrees>
            </Position>
            <AltitudeMeters>1084.4000244140625</AltitudeMeters>
            <DistanceMeters>10521.11631442</DistanceMeters>
          </Trackpoint>
          <Trackpoint>
            <Time>2021-08-01T12:18:09.000Z</Time>
            <Position>
              <LatitudeDegrees>-15.43869760818779468536376953125</LatitudeDegrees>
              <LongitudeDegrees>37.061334885656833648681640625</LongitudeDegrees>
            </Position>
            <AltitudeMeters>1085.199951171875</AltitudeMeters>
            <DistanceMeters>10527.105259538</DistanceMeters>
          </Trackpoint>
          <Trackpoint>
            <Time>2021-08-01T12:18:12.000Z</Time>
            <Position>
              <LatitudeDegrees>-15.438700206577777862548828125</LatitudeDegrees>
              <LongitudeDegrees>37.0613652281463146209716796875</LongitudeDegrees>
            </Position>
            <AltitudeMeters>1085.800048828125</AltitudeMeters>
            <DistanceMeters>10530.372299538</DistanceMeters>
          </Trackpoint>
          <Trackpoint>
            <Time>2021-08-01T12:18:13.000Z</Time>
            <Position>
              <LatitudeDegrees>-15.4387020505964756011962890625</LatitudeDegrees>
              <LongitudeDegrees>37.06137218512594699859619140625</LongitudeDegrees>
            </Position>
            <AltitudeMeters>1086.199951171875</AltitudeMeters>
            <DistanceMeters>10531.138429402</DistanceMeters>
          </Trackpoint>
          <Trackpoint>
            <Time>2021-08-01T12:18:15.000Z</Time>
            <Position>
              <LatitudeDegrees>-15.43870783410966396331787109375</LatitudeDegrees>
              <LongitudeDegrees>37.061382830142974853515625</LongitudeDegrees>
            </Position>
            <AltitudeMeters>1086.199951171875</AltitudeMeters>
            <DistanceMeters>10532.448282266</DistanceMeters>
          </Trackpoint>
          <Trackpoint>
            <Time>2021-08-01T12:18:19.000Z</Time>
            <Position>
              <LatitudeDegrees>-15.43873113580048084259033203125</LatitudeDegrees>
              <LongitudeDegrees>37.0614031143486499786376953125</LongitudeDegrees>
            </Position>
            <AltitudeMeters>1087.199951171875</AltitudeMeters>
            <DistanceMeters>10535.833421407</DistanceMeters>
          </Trackpoint>
          <Trackpoint>
            <Time>2021-08-01T12:18:24.000Z</Time>
            <Position>
              <LatitudeDegrees>-15.43875862844288349151611328125</LatitudeDegrees>
              <LongitudeDegrees>37.0614436827600002288818359375</LongitudeDegrees>
            </Position>
            <AltitudeMeters>1088</AltitudeMeters>
            <DistanceMeters>10541.154068891</DistanceMeters>
          </Trackpoint>
          <Trackpoint>
            <Time>2021-08-01T12:18:27.000Z</Time>
            <Position>
              <LatitudeDegrees>-15.43877589516341686248779296875</LatitudeDegrees>
              <LongitudeDegrees>37.06148718483746051788330078125</LongitudeDegrees>
            </Position>
            <AltitudeMeters>1088.199951171875</AltitudeMeters>
            <DistanceMeters>10546.201231029</DistanceMeters>
          </Trackpoint>
          <Trackpoint>
            <Time>2021-08-01T12:18:28.000Z</Time>
            <Position>
              <LatitudeDegrees>-15.438786707818508148193359375</LatitudeDegrees>
              <LongitudeDegrees>37.06149573437869548797607421875</LongitudeDegrees>
            </Position>
            <AltitudeMeters>1088.4000244140625</AltitudeMeters>
            <DistanceMeters>10547.712723451</DistanceMeters>
          </Trackpoint>
          <Trackpoint>
            <Time>2021-08-01T12:18:36.000Z</Time>
            <Position>
              <LatitudeDegrees>-15.43878503143787384033203125</LatitudeDegrees>
              <LongitudeDegrees>37.06156832166016101837158203125</LongitudeDegrees>
            </Position>
            <AltitudeMeters>1088.800048828125</AltitudeMeters>
            <DistanceMeters>10555.502016335</DistanceMeters>
          </Trackpoint>
          <Trackpoint>
            <Time>2021-08-01T12:18:42.000Z</Time>
            <Position>
              <LatitudeDegrees>-15.43875728733837604522705078125</LatitudeDegrees>
              <LongitudeDegrees>37.06161291338503360748291015625</LongitudeDegrees>
            </Position>
            <AltitudeMeters>1089.199951171875</AltitudeMeters>
            <DistanceMeters>10561.195694797</DistanceMeters>
          </Trackpoint>
          <Trackpoint>
            <Time>2021-08-01T12:18:45.000Z</Time>
            <Position>
              <LatitudeDegrees>-15.43874287046492099761962890625</LatitudeDegrees>
              <LongitudeDegrees>37.061629928648471832275390625</LongitudeDegrees>
            </Position>
            <AltitudeMeters>1089.5999755859375</AltitudeMeters>
            <DistanceMeters>10563.627710437</DistanceMeters>
          </Trackpoint>
          <Trackpoint>
            <Time>2021-08-01T12:18:54.000Z</Time>
            <Position>
              <LatitudeDegrees>-15.438672713935375213623046875</LatitudeDegrees>
              <LongitudeDegrees>37.06164945848286151885986328125</LongitudeDegrees>
            </Position>
            <AltitudeMeters>1089.5999755859375</AltitudeMeters>
            <DistanceMeters>10571.712244641</DistanceMeters>
          </Trackpoint>
          <Trackpoint>
            <Time>2021-08-01T12:18:57.000Z</Time>
            <Position>
              <LatitudeDegrees>-15.43863658793270587921142578125</LatitudeDegrees>
              <LongitudeDegrees>37.06164560280740261077880859375</LongitudeDegrees>
            </Position>
            <AltitudeMeters>1089.800048828125</AltitudeMeters>
            <DistanceMeters>10575.753953226</DistanceMeters>
          </Trackpoint>
          <Trackpoint>
            <Time>2021-08-01T12:19:01.000Z</Time>
            <Position>
              <LatitudeDegrees>-15.43859350495040416717529296875</LatitudeDegrees>
              <LongitudeDegrees>37.06163940019905567169189453125</LongitudeDegrees>
            </Position>
            <AltitudeMeters>1090.199951171875</AltitudeMeters>
            <DistanceMeters>10580.594722625</DistanceMeters>
          </Trackpoint>
          <Trackpoint>
            <Time>2021-08-01T12:19:03.000Z</Time>
            <Position>
              <LatitudeDegrees>-15.43857137672603130340576171875</LatitudeDegrees>
              <LongitudeDegrees>37.06163696944713592529296875</LongitudeDegrees>
            </Position>
            <AltitudeMeters>1090.199951171875</AltitudeMeters>
            <DistanceMeters>10583.069069373</DistanceMeters>
          </Trackpoint>
          <Trackpoint>
            <Time>2021-08-01T12:19:07.000Z</Time>
            <Position>
              <LatitudeDegrees>-15.43852888047695159912109375</LatitudeDegrees>
              <LongitudeDegrees>37.0616250671446323394775390625</LongitudeDegrees>
            </Position>
            <AltitudeMeters>1090.4000244140625</AltitudeMeters>
            <DistanceMeters>10587.96824718</DistanceMeters>
          </Trackpoint>
          <Trackpoint>
            <Time>2021-08-01T12:19:09.000Z</Time>
            <Position>
              <LatitudeDegrees>-15.4385094344615936279296875</LatitudeDegrees>
              <LongitudeDegrees>37.0616175234317779541015625</LongitudeDegrees>
            </Position>
            <AltitudeMeters>1090.4000244140625</AltitudeMeters>
            <DistanceMeters>10590.278393318</DistanceMeters>
          </Trackpoint>
          <Trackpoint>
            <Time>2021-08-01T12:19:18.000Z</Time>
            <Position>
              <LatitudeDegrees>-15.43840491212904453277587890625</LatitudeDegrees>
              <LongitudeDegrees>37.06161375157535076141357421875</LongitudeDegrees>
            </Position>
            <AltitudeMeters>1091</AltitudeMeters>
            <DistanceMeters>10601.919068862</DistanceMeters>
          </Trackpoint>
          <Trackpoint>
            <Time>2021-08-01T12:19:22.000Z</Time>
            <Position>
              <LatitudeDegrees>-15.43836870230734348297119140625</LatitudeDegrees>
              <LongitudeDegrees>37.0616478659212589263916015625</LongitudeDegrees>
            </Position>
            <AltitudeMeters>1091.4000244140625</AltitudeMeters>
            <DistanceMeters>10607.363859121</DistanceMeters>
          </Trackpoint>
          <Trackpoint>
            <Time>2021-08-01T12:19:30.000Z</Time>
            <Position>
              <LatitudeDegrees>-15.43829645030200481414794921875</LatitudeDegrees>
              <LongitudeDegrees>37.0617048628628253936767578125</LongitudeDegrees>
            </Position>
            <AltitudeMeters>1092</AltitudeMeters>
            <DistanceMeters>10617.466678235</DistanceMeters>
          </Trackpoint>
          <Trackpoint>
            <Time>2021-08-01T12:19:34.000Z</Time>
            <Position>
              <LatitudeDegrees>-15.438263677060604095458984375</LatitudeDegrees>
              <LongitudeDegrees>37.061741240322589874267578125</LongitudeDegrees>
            </Position>
            <AltitudeMeters>1092.4000244140625</AltitudeMeters>
            <DistanceMeters>10622.808498296</DistanceMeters>
          </Trackpoint>
          <Trackpoint>
            <Time>2021-08-01T12:19:38.000Z</Time>
            <Position>
              <LatitudeDegrees>-15.43823182582855224609375</LatitudeDegrees>
              <LongitudeDegrees>37.0617725886404514312744140625</LongitudeDegrees>
            </Position>
            <AltitudeMeters>1092.5999755859375</AltitudeMeters>
            <DistanceMeters>10627.694756795</DistanceMeters>
          </Trackpoint>
          <Trackpoint>
            <Time>2021-08-01T12:19:40.000Z</Time>
            <Position>
              <LatitudeDegrees>-15.43821246363222599029541015625</LatitudeDegrees>
              <LongitudeDegrees>37.0617896877229213714599609375</LongitudeDegrees>
            </Position>
            <AltitudeMeters>1092.800048828125</AltitudeMeters>
            <DistanceMeters>10630.526489106</DistanceMeters>
          </Trackpoint>
          <Trackpoint>
            <Time>2021-08-01T12:19:46.000Z</Time>
            <Position>
              <LatitudeDegrees>-15.4381687939167022705078125</LatitudeDegrees>
              <LongitudeDegrees>37.06185313872992992401123046875</LongitudeDegrees>
            </Position>
            <AltitudeMeters>1093.5999755859375</AltitudeMeters>
            <DistanceMeters>10638.890999389</DistanceMeters>
          </Trackpoint>
          <Trackpoint>
            <Time>2021-08-01T12:19:51.000Z</Time>
            <Position>
              <LatitudeDegrees>-15.43812965042889118194580078125</LatitudeDegrees>
              <LongitudeDegrees>37.0619073696434497833251953125</LongitudeDegrees>
            </Position>
            <AltitudeMeters>1094.199951171875</AltitudeMeters>
            <DistanceMeters>10646.159766635</DistanceMeters>
          </Trackpoint>
          <Trackpoint>
            <Time>2021-08-01T12:19:55.000Z</Time>
            <Position>
              <LatitudeDegrees>-15.4380998946726322174072265625</LatitudeDegrees>
              <LongitudeDegrees>37.06194466911256313323974609375</LongitudeDegrees>
            </Position>
            <AltitudeMeters>1094.5999755859375</AltitudeMeters>
            <DistanceMeters>10651.355043191</DistanceMeters>
          </Trackpoint>
          <Trackpoint>
            <Time>2021-08-01T12:19:59.000Z</Time>
            <Position>
              <LatitudeDegrees>-15.43808036483824253082275390625</LatitudeDegrees>
              <LongitudeDegrees>37.0619818009436130523681640625</LongitudeDegrees>
            </Position>
            <AltitudeMeters>1095</AltitudeMeters>
            <DistanceMeters>10655.89350156</DistanceMeters>
          </Trackpoint>
          <Trackpoint>
            <Time>2021-08-01T12:20:03.000Z</Time>
            <Position>
              <LatitudeDegrees>-15.438060499727725982666015625</LatitudeDegrees>
              <LongitudeDegrees>37.06201155669987201690673828125</LongitudeDegrees>
            </Position>
            <AltitudeMeters>1095.5999755859375</AltitudeMeters>
            <DistanceMeters>10659.776828441</DistanceMeters>
          </Trackpoint>
          <Trackpoint>
            <Time>2021-08-01T12:20:07.000Z</Time>
            <Position>
              <LatitudeDegrees>-15.43803535401821136474609375</LatitudeDegrees>
              <LongitudeDegrees>37.06205883063375949859619140625</LongitudeDegrees>
            </Position>
            <AltitudeMeters>1096</AltitudeMeters>
            <DistanceMeters>10665.569562171</DistanceMeters>
          </Trackpoint>
          <Trackpoint>
            <Time>2021-08-01T12:20:12.000Z</Time>
            <Position>
              <LatitudeDegrees>-15.438006184995174407958984375</LatitudeDegrees>
              <LongitudeDegrees>37.06210124306380748748779296875</LongitudeDegrees>
            </Position>
            <AltitudeMeters>1096.800048828125</AltitudeMeters>
            <DistanceMeters>10671.159201202</DistanceMeters>
          </Trackpoint>
          <Trackpoint>
            <Time>2021-08-01T12:20:16.000Z</Time>
            <Position>
              <LatitudeDegrees>-15.437987744808197021484375</LatitudeDegrees>
              <LongitudeDegrees>37.0621363632380962371826171875</LongitudeDegrees>
            </Position>
            <AltitudeMeters>1097</AltitudeMeters>
            <DistanceMeters>10675.44910747</DistanceMeters>
          </Trackpoint>
          <Trackpoint>
            <Time>2021-08-01T12:20:21.000Z</Time>
            <Position>
              <LatitudeDegrees>-15.43795631267130374908447265625</LatitudeDegrees>
              <LongitudeDegrees>37.062180452048778533935546875</LongitudeDegrees>
            </Position>
            <AltitudeMeters>1097.800048828125</AltitudeMeters>
            <DistanceMeters>10681.331560439</DistanceMeters>
          </Trackpoint>
          <Trackpoint>
            <Time>2021-08-01T12:20:26.000Z</Time>
            <Position>
              <LatitudeDegrees>-15.43792731128633022308349609375</LatitudeDegrees>
              <LongitudeDegrees>37.06224340014159679412841796875</LongitudeDegrees>
            </Position>
            <AltitudeMeters>1098.800048828125</AltitudeMeters>
            <DistanceMeters>10688.816987904</DistanceMeters>
          </Trackpoint>
          <Trackpoint>
            <Time>2021-08-01T12:20:33.000Z</Time>
            <Position>
              <LatitudeDegrees>-15.4379020817577838897705078125</LatitudeDegrees>
              <LongitudeDegrees>37.0622731558978557586669921875</LongitudeDegrees>
            </Position>
            <AltitudeMeters>1100</AltitudeMeters>
            <DistanceMeters>10693.067774063</DistanceMeters>
          </Trackpoint>
          <Trackpoint>
            <Time>2021-08-01T12:20:37.000Z</Time>
            <Position>
              <LatitudeDegrees>-15.43787785805761814117431640625</LatitudeDegrees>
              <LongitudeDegrees>37.062316574156284332275390625</LongitudeDegrees>
            </Position>
            <AltitudeMeters>1100.199951171875</AltitudeMeters>
            <DistanceMeters>10698.450012002</DistanceMeters>
          </Trackpoint>
          <Trackpoint>
            <Time>2021-08-01T12:20:39.000Z</Time>
            <Position>
              <LatitudeDegrees>-15.43787584640085697174072265625</LatitudeDegrees>
              <LongitudeDegrees>37.06232185475528240203857421875</LongitudeDegrees>
            </Position>
            <AltitudeMeters>1101</AltitudeMeters>
            <DistanceMeters>10699.05847986</DistanceMeters>
          </Trackpoint>
          <Trackpoint>
            <Time>2021-08-01T12:20:51.000Z</Time>
            <Position>
              <LatitudeDegrees>-15.4378242976963520050048828125</LatitudeDegrees>
              <LongitudeDegrees>37.0624287240207195281982421875</LongitudeDegrees>
            </Position>
            <AltitudeMeters>1102</AltitudeMeters>
            <DistanceMeters>10711.879693203</DistanceMeters>
          </Trackpoint>
          <Trackpoint>
            <Time>2021-08-01T12:20:59.000Z</Time>
            <Position>
              <LatitudeDegrees>-15.437783896923065185546875</LatitudeDegrees>
              <LongitudeDegrees>37.06251581199467182159423828125</LongitudeDegrees>
            </Position>
            <AltitudeMeters>1103.199951171875</AltitudeMeters>
            <DistanceMeters>10722.249367754</DistanceMeters>
          </Trackpoint>
          <Trackpoint>
            <Time>2021-08-01T12:21:03.000Z</Time>
            <Position>
              <LatitudeDegrees>-15.43777090497314929962158203125</LatitudeDegrees>
              <LongitudeDegrees>37.0625477470457553863525390625</LongitudeDegrees>
            </Position>
            <AltitudeMeters>1103.5999755859375</AltitudeMeters>
            <DistanceMeters>10725.968786675</DistanceMeters>
          </Trackpoint>
          <Trackpoint>
            <Time>2021-08-01T12:21:07.000Z</Time>
            <Position>
              <LatitudeDegrees>-15.43774944730103015899658203125</LatitudeDegrees>
              <LongitudeDegrees>37.062582783401012420654296875</LongitudeDegrees>
            </Position>
            <AltitudeMeters>1104.199951171875</AltitudeMeters>
            <DistanceMeters>10730.422894661</DistanceMeters>
          </Trackpoint>
          <Trackpoint>
            <Time>2021-08-01T12:21:11.000Z</Time>
            <Position>
              <LatitudeDegrees>-15.43774022720754146575927734375</LatitudeDegrees>
              <LongitudeDegrees>37.06261974759399890899658203125</LongitudeDegrees>
            </Position>
            <AltitudeMeters>1105.199951171875</AltitudeMeters>
            <DistanceMeters>10734.518975963</DistanceMeters>
          </Trackpoint>
          <Trackpoint>
            <Time>2021-08-01T12:21:13.000Z</Time>
            <Position>
              <LatitudeDegrees>-15.4377351142466068267822265625</LatitudeDegrees>
              <LongitudeDegrees>37.06263818778097629547119140625</LongitudeDegrees>
            </Position>
            <AltitudeMeters>1105.199951171875</AltitudeMeters>
            <DistanceMeters>10736.576913244</DistanceMeters>
          </Trackpoint>
          <Trackpoint>
            <Time>2021-08-01T12:21:14.000Z</Time>
            <Position>
              <LatitudeDegrees>-15.437733270227909088134765625</LatitudeDegrees>
              <LongitudeDegrees>37.062649838626384735107421875</LongitudeDegrees>
            </Position>
            <AltitudeMeters>1105.4000244140625</AltitudeMeters>
            <DistanceMeters>10737.844727744</DistanceMeters>
          </Trackpoint>
          <Trackpoint>
            <Time>2021-08-01T12:21:19.000Z</Time>
            <Position>
              <LatitudeDegrees>-15.43770854361355304718017578125</LatitudeDegrees>
              <LongitudeDegrees>37.06270809285342693328857421875</LongitudeDegrees>
            </Position>
            <AltitudeMeters>1106</AltitudeMeters>
            <DistanceMeters>10744.674101422</DistanceMeters>
          </Trackpoint>
          <Trackpoint>
            <Time>2021-08-01T12:21:21.000Z</Time>
            <Position>
              <LatitudeDegrees>-15.43770141899585723876953125</LatitudeDegrees>
              <LongitudeDegrees>37.06272653304040431976318359375</LongitudeDegrees>
            </Position>
            <AltitudeMeters>1106.4000244140625</AltitudeMeters>
            <DistanceMeters>10746.803208834</DistanceMeters>
          </Trackpoint>
          <Trackpoint>
            <Time>2021-08-01T12:21:28.000Z</Time>
            <Position>
              <LatitudeDegrees>-15.43766797520220279693603515625</LatitudeDegrees>
              <LongitudeDegrees>37.0627945102751255035400390625</LongitudeDegrees>
            </Position>
            <AltitudeMeters>1107</AltitudeMeters>
            <DistanceMeters>10754.991512541</DistanceMeters>
          </Trackpoint>
          <Trackpoint>
            <Time>2021-08-01T12:21:30.000Z</Time>
            <Position>
              <LatitudeDegrees>-15.4376613534986972808837890625</LatitudeDegrees>
              <LongitudeDegrees>37.062810771167278289794921875</LongitudeDegrees>
            </Position>
            <AltitudeMeters>1107.5999755859375</AltitudeMeters>
            <DistanceMeters>10756.884906412</DistanceMeters>
          </Trackpoint>
          <Trackpoint>
            <Time>2021-08-01T12:21:31.000Z</Time>
            <Position>
              <LatitudeDegrees>-15.43765540234744548797607421875</LatitudeDegrees>
              <LongitudeDegrees>37.062820829451084136962890625</LongitudeDegrees>
            </Position>
            <AltitudeMeters>1107.5999755859375</AltitudeMeters>
            <DistanceMeters>10758.149154619</DistanceMeters>
          </Trackpoint>
          <Trackpoint>
            <Time>2021-08-01T12:21:36.000Z</Time>
            <Position>
              <LatitudeDegrees>-15.43763143010437488555908203125</LatitudeDegrees>
              <LongitudeDegrees>37.0628655888140201568603515625</LongitudeDegrees>
            </Position>
            <AltitudeMeters>1107.800048828125</AltitudeMeters>
            <DistanceMeters>10763.642652182</DistanceMeters>
          </Trackpoint>
          <Trackpoint>
            <Time>2021-08-01T12:21:42.000Z</Time>
            <Position>
              <LatitudeDegrees>-15.437589101493358612060546875</LatitudeDegrees>
              <LongitudeDegrees>37.06290833652019500732421875</LongitudeDegrees>
            </Position>
            <AltitudeMeters>1108.800048828125</AltitudeMeters>
            <DistanceMeters>10770.217374681</DistanceMeters>
          </Trackpoint>
          <Trackpoint>
            <Time>2021-08-01T12:21:44.000Z</Time>
            <Position>
              <LatitudeDegrees>-15.43757275678217411041259765625</LatitudeDegrees>
              <LongitudeDegrees>37.0629266090691089630126953125</LongitudeDegrees>
            </Position>
            <AltitudeMeters>1109</AltitudeMeters>
            <DistanceMeters>10772.891663473</DistanceMeters>
          </Trackpoint>
          <Trackpoint>
            <Time>2021-08-01T12:21:49.000Z</Time>
            <Position>
              <LatitudeDegrees>-15.43755196966230869293212890625</LatitudeDegrees>
              <LongitudeDegrees>37.06296340562403202056884765625</LongitudeDegrees>
            </Position>
            <AltitudeMeters>1110</AltitudeMeters>
            <DistanceMeters>10777.465795863</DistanceMeters>
          </Trackpoint>
          <Trackpoint>
            <Time>2021-08-01T12:21:54.000Z</Time>
            <Position>
              <LatitudeDegrees>-15.437520705163478851318359375</LatitudeDegrees>
              <LongitudeDegrees>37.06301352940499782562255859375</LongitudeDegrees>
            </Position>
            <AltitudeMeters>1110.800048828125</AltitudeMeters>
            <DistanceMeters>10783.870765597</DistanceMeters>
          </Trackpoint>
          <Trackpoint>
            <Time>2021-08-01T12:21:57.000Z</Time>
            <Position>
              <LatitudeDegrees>-15.437502600252628326416015625</LatitudeDegrees>
              <LongitudeDegrees>37.0630359090864658355712890625</LongitudeDegrees>
            </Position>
            <AltitudeMeters>1111</AltitudeMeters>
            <DistanceMeters>10787.005207042</DistanceMeters>
          </Trackpoint>
          <Trackpoint>
            <Time>2021-08-01T12:22:03.000Z</Time>
            <Position>
              <LatitudeDegrees>-15.4374695755541324615478515625</LatitudeDegrees>
              <LongitudeDegrees>37.0630838535726070404052734375</LongitudeDegrees>
            </Position>
            <AltitudeMeters>1112.199951171875</AltitudeMeters>
            <DistanceMeters>10793.327876448</DistanceMeters>
          </Trackpoint>
          <Trackpoint>
            <Time>2021-08-01T12:22:08.000Z</Time>
            <Position>
              <LatitudeDegrees>-15.43743428774178028106689453125</LatitudeDegrees>
              <LongitudeDegrees>37.063118554651737213134765625</LongitudeDegrees>
            </Position>
            <AltitudeMeters>1112.5999755859375</AltitudeMeters>
            <DistanceMeters>10798.739395449</DistanceMeters>
          </Trackpoint>
          <Trackpoint>
            <Time>2021-08-01T12:22:14.000Z</Time>
            <Position>
              <LatitudeDegrees>-15.43739187531173229217529296875</LatitudeDegrees>
              <LongitudeDegrees>37.06316038034856319427490234375</LongitudeDegrees>
            </Position>
            <AltitudeMeters>1113.4000244140625</AltitudeMeters>
            <DistanceMeters>10805.25271251</DistanceMeters>
          </Trackpoint>
          <Trackpoint>
            <Time>2021-08-01T12:22:20.000Z</Time>
            <Position>
              <LatitudeDegrees>-15.4373478703200817108154296875</LatitudeDegrees>
              <LongitudeDegrees>37.063211090862751007080078125</LongitudeDegrees>
            </Position>
            <AltitudeMeters>1113.800048828125</AltitudeMeters>
            <DistanceMeters>10812.57347092</DistanceMeters>
          </Trackpoint>
          <Trackpoint>
            <Time>2021-08-01T12:22:24.000Z</Time>
            <Position>
              <LatitudeDegrees>-15.43730671517550945281982421875</LatitudeDegrees>
              <LongitudeDegrees>37.063241265714168548583984375</LongitudeDegrees>
            </Position>
            <AltitudeMeters>1114</AltitudeMeters>
            <DistanceMeters>10818.183267388</DistanceMeters>
          </Trackpoint>
          <Trackpoint>
            <Time>2021-08-01T12:22:26.000Z</Time>
            <Position>
              <LatitudeDegrees>-15.43729011900722980499267578125</LatitudeDegrees>
              <LongitudeDegrees>37.06325476057827472686767578125</LongitudeDegrees>
            </Position>
            <AltitudeMeters>1114.4000244140625</AltitudeMeters>
            <DistanceMeters>10820.5302541</DistanceMeters>
          </Trackpoint>
          <Trackpoint>
            <Time>2021-08-01T12:22:31.000Z</Time>
            <Position>
              <LatitudeDegrees>-15.437249802052974700927734375</LatitudeDegrees>
              <LongitudeDegrees>37.063283510506153106689453125</LongitudeDegrees>
            </Position>
            <AltitudeMeters>1115</AltitudeMeters>
            <DistanceMeters>10825.976702587</DistanceMeters>
          </Trackpoint>
          <Trackpoint>
            <Time>2021-08-01T12:22:33.000Z</Time>
            <Position>
              <LatitudeDegrees>-15.4372327029705047607421875</LatitudeDegrees>
              <LongitudeDegrees>37.0633027888834476470947265625</LongitudeDegrees>
            </Position>
            <AltitudeMeters>1115.199951171875</AltitudeMeters>
            <DistanceMeters>10828.787630706</DistanceMeters>
          </Trackpoint>
          <Trackpoint>
            <Time>2021-08-01T12:22:35.000Z</Time>
            <Position>
              <LatitudeDegrees>-15.43721334077417850494384765625</LatitudeDegrees>
              <LongitudeDegrees>37.0633235760033130645751953125</LongitudeDegrees>
            </Position>
            <AltitudeMeters>1115.5999755859375</AltitudeMeters>
            <DistanceMeters>10831.890220187</DistanceMeters>
          </Trackpoint>
          <Trackpoint>
            <Time>2021-08-01T12:22:38.000Z</Time>
            <Position>
              <LatitudeDegrees>-15.437185764312744140625</LatitudeDegrees>
              <LongitudeDegrees>37.06334210000932216644287109375</LongitudeDegrees>
            </Position>
            <AltitudeMeters>1116</AltitudeMeters>
            <DistanceMeters>10835.548440149</DistanceMeters>
          </Trackpoint>
          <Trackpoint>
            <Time>2021-08-01T12:22:43.000Z</Time>
            <Position>
              <LatitudeDegrees>-15.43714326806366443634033203125</LatitudeDegrees>
              <LongitudeDegrees>37.06337261013686656951904296875</LongitudeDegrees>
            </Position>
            <AltitudeMeters>1116.5999755859375</AltitudeMeters>
            <DistanceMeters>10841.301285547</DistanceMeters>
          </Trackpoint>
          <Trackpoint>
            <Time>2021-08-01T12:22:48.000Z</Time>
            <Position>
              <LatitudeDegrees>-15.4371054656803607940673828125</LatitudeDegrees>
              <LongitudeDegrees>37.06338920630514621734619140625</LongitudeDegrees>
            </Position>
            <AltitudeMeters>1117.199951171875</AltitudeMeters>
            <DistanceMeters>10845.870479867</DistanceMeters>
          </Trackpoint>
          <Trackpoint>
            <Time>2021-08-01T12:22:51.000Z</Time>
            <Position>
              <LatitudeDegrees>-15.43708174489438533782958984375</LatitudeDegrees>
              <LongitudeDegrees>37.06340144388377666473388671875</LongitudeDegrees>
            </Position>
            <AltitudeMeters>1117.5999755859375</AltitudeMeters>
            <DistanceMeters>10848.817840303</DistanceMeters>
          </Trackpoint>
          <Trackpoint>
            <Time>2021-08-01T12:23:00.000Z</Time>
            <Position>
              <LatitudeDegrees>-15.43701435439288616180419921875</LatitudeDegrees>
              <LongitudeDegrees>37.0634615421295166015625</LongitudeDegrees>
            </Position>
            <AltitudeMeters>1118.5999755859375</AltitudeMeters>
            <DistanceMeters>10858.708838645</DistanceMeters>
          </Trackpoint>
          <Trackpoint>
            <Time>2021-08-01T12:23:01.000Z</Time>
            <Position>
              <LatitudeDegrees>-15.4370072297751903533935546875</LatitudeDegrees>
              <LongitudeDegrees>37.0634697563946247100830078125</LongitudeDegrees>
            </Position>
            <AltitudeMeters>1118.5999755859375</AltitudeMeters>
            <DistanceMeters>10859.891911698</DistanceMeters>
          </Trackpoint>
          <Trackpoint>
            <Time>2021-08-01T12:23:08.000Z</Time>
            <Position>
              <LatitudeDegrees>-15.43696993030607700347900390625</LatitudeDegrees>
              <LongitudeDegrees>37.06353731453418731689453125</LongitudeDegrees>
            </Position>
            <AltitudeMeters>1119.800048828125</AltitudeMeters>
            <DistanceMeters>10868.244538267</DistanceMeters>
          </Trackpoint>
          <Trackpoint>
            <Time>2021-08-01T12:23:20.000Z</Time>
            <Position>
              <LatitudeDegrees>-15.4369140230119228363037109375</LatitudeDegrees>
              <LongitudeDegrees>37.06366497091948986053466796875</LongitudeDegrees>
            </Position>
            <AltitudeMeters>1120.199951171875</AltitudeMeters>
            <DistanceMeters>10883.287600312</DistanceMeters>
          </Trackpoint>
          <Trackpoint>
            <Time>2021-08-01T12:23:24.000Z</Time>
            <Position>
              <LatitudeDegrees>-15.4368828423321247100830078125</LatitudeDegrees>
              <LongitudeDegrees>37.0636943913996219635009765625</LongitudeDegrees>
            </Position>
            <AltitudeMeters>1120.5999755859375</AltitudeMeters>
            <DistanceMeters>10887.97772464</DistanceMeters>
          </Trackpoint>
          <Trackpoint>
            <Time>2021-08-01T12:23:25.000Z</Time>
            <Position>
              <LatitudeDegrees>-15.43687169440090656280517578125</LatitudeDegrees>
              <LongitudeDegrees>37.06369749270379543304443359375</LongitudeDegrees>
            </Position>
            <AltitudeMeters>1120.800048828125</AltitudeMeters>
            <DistanceMeters>10889.259705105</DistanceMeters>
          </Trackpoint>
          <Trackpoint>
            <Time>2021-08-01T12:23:29.000Z</Time>
            <Position>
              <LatitudeDegrees>-15.43683196417987346649169921875</LatitudeDegrees>
              <LongitudeDegrees>37.06370922736823558807373046875</LongitudeDegrees>
            </Position>
            <AltitudeMeters>1121</AltitudeMeters>
            <DistanceMeters>10893.858448307</DistanceMeters>
          </Trackpoint>
          <Trackpoint>
            <Time>2021-08-01T12:23:38.000Z</Time>
            <Position>
              <LatitudeDegrees>-15.4367225803434848785400390625</LatitudeDegrees>
              <LongitudeDegrees>37.063702605664730072021484375</LongitudeDegrees>
            </Position>
            <AltitudeMeters>1121.4000244140625</AltitudeMeters>
            <DistanceMeters>10906.053749001</DistanceMeters>
          </Trackpoint>
          <Trackpoint>
            <Time>2021-08-01T12:23:41.000Z</Time>
            <Position>
              <LatitudeDegrees>-15.4366856999695301055908203125</LatitudeDegrees>
              <LongitudeDegrees>37.06369162537157535552978515625</LongitudeDegrees>
            </Position>
            <AltitudeMeters>1122</AltitudeMeters>
            <DistanceMeters>10910.323611334</DistanceMeters>
          </Trackpoint>
          <Trackpoint>
            <Time>2021-08-01T12:23:46.000Z</Time>
            <Position>
              <LatitudeDegrees>-15.43661453761160373687744140625</LatitudeDegrees>
              <LongitudeDegrees>37.0637148432433605194091796875</LongitudeDegrees>
            </Position>
            <AltitudeMeters>1123</AltitudeMeters>
            <DistanceMeters>10918.626901865</DistanceMeters>
          </Trackpoint>
          <Trackpoint>
            <Time>2021-08-01T12:23:49.000Z</Time>
            <Position>
              <LatitudeDegrees>-15.4365767352283000946044921875</LatitudeDegrees>
              <LongitudeDegrees>37.06372984685003757476806640625</LongitudeDegrees>
            </Position>
            <AltitudeMeters>1123.199951171875</AltitudeMeters>
            <DistanceMeters>10923.130406245</DistanceMeters>
          </Trackpoint>
          <Trackpoint>
            <Time>2021-08-01T12:23:52.000Z</Time>
            <Position>
              <LatitudeDegrees>-15.43655150569975376129150390625</LatitudeDegrees>
              <LongitudeDegrees>37.06377846188843250274658203125</LongitudeDegrees>
            </Position>
            <AltitudeMeters>1123.4000244140625</AltitudeMeters>
            <DistanceMeters>10929.053399321</DistanceMeters>
          </Trackpoint>
          <Trackpoint>
            <Time>2021-08-01T12:23:58.000Z</Time>
            <Position>
              <LatitudeDegrees>-15.43651051819324493408203125</LatitudeDegrees>
              <LongitudeDegrees>37.06383713521063327789306640625</LongitudeDegrees>
            </Position>
            <AltitudeMeters>1123.800048828125</AltitudeMeters>
            <DistanceMeters>10936.827606782</DistanceMeters>
          </Trackpoint>
          <Trackpoint>
            <Time>2021-08-01T12:24:05.000Z</Time>
            <Position>
              <LatitudeDegrees>-15.43646567501127719879150390625</LatitudeDegrees>
              <LongitudeDegrees>37.0639046095311641693115234375</LongitudeDegrees>
            </Position>
            <AltitudeMeters>1124</AltitudeMeters>
            <DistanceMeters>10945.620530898</DistanceMeters>
          </Trackpoint>
          <Trackpoint>
            <Time>2021-08-01T12:24:07.000Z</Time>
            <Position>
              <LatitudeDegrees>-15.43645544908940792083740234375</LatitudeDegrees>
              <LongitudeDegrees>37.06392598338425159454345703125</LongitudeDegrees>
            </Position>
            <AltitudeMeters>1124.199951171875</AltitudeMeters>
            <DistanceMeters>10948.182730261</DistanceMeters>
          </Trackpoint>
          <Trackpoint>
            <Time>2021-08-01T12:24:16.000Z</Time>
            <Position>
              <LatitudeDegrees>-15.436391495168209075927734375</LatitudeDegrees>
              <LongitudeDegrees>37.064013071358203887939453125</LongitudeDegrees>
            </Position>
            <AltitudeMeters>1124.5999755859375</AltitudeMeters>
            <DistanceMeters>10959.929200712</DistanceMeters>
          </Trackpoint>
          <Trackpoint>
            <Time>2021-08-01T12:24:17.000Z</Time>
            <Position>
              <LatitudeDegrees>-15.43638043105602264404296875</LatitudeDegrees>
              <LongitudeDegrees>37.06402505747973918914794921875</LongitudeDegrees>
            </Position>
            <AltitudeMeters>1124.5999755859375</AltitudeMeters>
            <DistanceMeters>10961.709525635</DistanceMeters>
          </Trackpoint>
          <Trackpoint>
            <Time>2021-08-01T12:24:26.000Z</Time>
            <Position>
              <LatitudeDegrees>-15.43630289845168590545654296875</LatitudeDegrees>
              <LongitudeDegrees>37.06409764476120471954345703125</LongitudeDegrees>
            </Position>
            <AltitudeMeters>1125.199951171875</AltitudeMeters>
            <DistanceMeters>10973.333510917</DistanceMeters>
          </Trackpoint>
          <Trackpoint>
            <Time>2021-08-01T12:24:28.000Z</Time>
            <Position>
              <LatitudeDegrees>-15.43629216961562633514404296875</LatitudeDegrees>
              <LongitudeDegrees>37.06413268111646175384521484375</LongitudeDegrees>
            </Position>
            <AltitudeMeters>1125.199951171875</AltitudeMeters>
            <DistanceMeters>10977.277978145</DistanceMeters>
          </Trackpoint>
          <Trackpoint>
            <Time>2021-08-01T12:24:37.000Z</Time>
            <Position>
              <LatitudeDegrees>-15.43625562451779842376708984375</LatitudeDegrees>
              <LongitudeDegrees>37.06422924064099788665771484375</LongitudeDegrees>
            </Position>
            <AltitudeMeters>1125.5999755859375</AltitudeMeters>
            <DistanceMeters>10988.407468636</DistanceMeters>
          </Trackpoint>
          <Trackpoint>
            <Time>2021-08-01T12:24:38.000Z</Time>
            <Position>
              <LatitudeDegrees>-15.4362536966800689697265625</LatitudeDegrees>
              <LongitudeDegrees>37.064240388572216033935546875</LongitudeDegrees>
            </Position>
            <AltitudeMeters>1125.5999755859375</AltitudeMeters>
            <DistanceMeters>10989.620688509</DistanceMeters>
          </Trackpoint>
          <Trackpoint>
            <Time>2021-08-01T12:24:46.000Z</Time>
            <Position>
              <LatitudeDegrees>-15.43623349629342555999755859375</LatitudeDegrees>
              <LongitudeDegrees>37.064348347485065460205078125</LongitudeDegrees>
            </Position>
            <AltitudeMeters>1126.199951171875</AltitudeMeters>
            <DistanceMeters>11001.419318025</DistanceMeters>
          </Trackpoint>
          <Trackpoint>
            <Time>2021-08-01T12:24:47.000Z</Time>
            <Position>
              <LatitudeDegrees>-15.436233244836330413818359375</LatitudeDegrees>
              <LongitudeDegrees>37.06435295753180980682373046875</LongitudeDegrees>
            </Position>
            <AltitudeMeters>1126.199951171875</AltitudeMeters>
            <DistanceMeters>11001.913091317</DistanceMeters>
          </Trackpoint>
          <Trackpoint>
            <Time>2021-08-01T12:24:55.000Z</Time>
            <Position>
              <LatitudeDegrees>-15.436213798820972442626953125</LatitudeDegrees>
              <LongitudeDegrees>37.06444968469440937042236328125</LongitudeDegrees>
            </Position>
            <AltitudeMeters>1126.5999755859375</AltitudeMeters>
            <DistanceMeters>11012.51442762</DistanceMeters>
          </Trackpoint>
          <Trackpoint>
            <Time>2021-08-01T12:25:01.000Z</Time>
            <Position>
              <LatitudeDegrees>-15.43617297895252704620361328125</LatitudeDegrees>
              <LongitudeDegrees>37.0645372755825519561767578125</LongitudeDegrees>
            </Position>
            <AltitudeMeters>1127.199951171875</AltitudeMeters>
            <DistanceMeters>11022.952237367</DistanceMeters>
          </Trackpoint>
          <Trackpoint>
            <Time>2021-08-01T12:25:02.000Z</Time>
            <Position>
              <LatitudeDegrees>-15.43616912327706813812255859375</LatitudeDegrees>
              <LongitudeDegrees>37.06454716622829437255859375</LongitudeDegrees>
            </Position>
            <AltitudeMeters>1127.4000244140625</AltitudeMeters>
            <DistanceMeters>11024.096510535</DistanceMeters>
          </Trackpoint>
          <Trackpoint>
            <Time>2021-08-01T12:25:04.000Z</Time>
            <Position>
              <LatitudeDegrees>-15.43616392649710178375244140625</LatitudeDegrees>
              <LongitudeDegrees>37.06456954590976238250732421875</LongitudeDegrees>
            </Position>
            <AltitudeMeters>1127.800048828125</AltitudeMeters>
            <DistanceMeters>11026.565376996</DistanceMeters>
          </Trackpoint>
          <Trackpoint>
            <Time>2021-08-01T12:25:08.000Z</Time>
            <Position>
              <LatitudeDegrees>-15.43615202419459819793701171875</LatitudeDegrees>
              <LongitudeDegrees>37.06459636799991130828857421875</LongitudeDegrees>
            </Position>
            <AltitudeMeters>1128.4000244140625</AltitudeMeters>
            <DistanceMeters>11029.73277576</DistanceMeters>
          </Trackpoint>
          <Trackpoint>
            <Time>2021-08-01T12:25:14.000Z</Time>
            <Position>
              <LatitudeDegrees>-15.4361231066286563873291015625</LatitudeDegrees>
              <LongitudeDegrees>37.06465319730341434478759765625</LongitudeDegrees>
            </Position>
            <AltitudeMeters>1129.4000244140625</AltitudeMeters>
            <DistanceMeters>11036.627289695</DistanceMeters>
          </Trackpoint>
          <Trackpoint>
            <Time>2021-08-01T12:25:24.000Z</Time>
            <Position>
              <LatitudeDegrees>-15.4360644333064556121826171875</LatitudeDegrees>
              <LongitudeDegrees>37.064727209508419036865234375</LongitudeDegrees>
            </Position>
            <AltitudeMeters>1130.4000244140625</AltitudeMeters>
            <DistanceMeters>11046.90863566</DistanceMeters>
          </Trackpoint>
          <Trackpoint>
            <Time>2021-08-01T12:25:25.000Z</Time>
            <Position>
              <LatitudeDegrees>-15.43605781160295009613037109375</LatitudeDegrees>
              <LongitudeDegrees>37.06473450176417827606201171875</LongitudeDegrees>
            </Position>
            <AltitudeMeters>1130.5999755859375</AltitudeMeters>
            <DistanceMeters>11047.983740206</DistanceMeters>
          </Trackpoint>
          <Trackpoint>
            <Time>2021-08-01T12:25:33.000Z</Time>
            <Position>
              <LatitudeDegrees>-15.4359908401966094970703125</LatitudeDegrees>
              <LongitudeDegrees>37.0648041553795337677001953125</LongitudeDegrees>
            </Position>
            <AltitudeMeters>1131</AltitudeMeters>
            <DistanceMeters>11058.538124272</DistanceMeters>
          </Trackpoint>
          <Trackpoint>
            <Time>2021-08-01T12:25:34.000Z</Time>
            <Position>
              <LatitudeDegrees>-15.435984134674072265625</LatitudeDegrees>
              <LongitudeDegrees>37.06481228582561016082763671875</LongitudeDegrees>
            </Position>
            <AltitudeMeters>1131.199951171875</AltitudeMeters>
            <DistanceMeters>11059.690261953</DistanceMeters>
          </Trackpoint>
          <Trackpoint>
            <Time>2021-08-01T12:25:36.000Z</Time>
            <Position>
              <LatitudeDegrees>-15.43596913106739521026611328125</LatitudeDegrees>
              <LongitudeDegrees>37.0648306421935558319091796875</LongitudeDegrees>
            </Position>
            <AltitudeMeters>1131.199951171875</AltitudeMeters>
            <DistanceMeters>11062.271772444</DistanceMeters>
          </Trackpoint>
          <Trackpoint>
            <Time>2021-08-01T12:25:47.000Z</Time>
            <Position>
              <LatitudeDegrees>-15.43588313274085521697998046875</LatitudeDegrees>
              <LongitudeDegrees>37.064940445125102996826171875</LongitudeDegrees>
            </Position>
            <AltitudeMeters>1131</AltitudeMeters>
            <DistanceMeters>11077.45048683</DistanceMeters>
          </Trackpoint>
          <Trackpoint>
            <Time>2021-08-01T12:25:56.000Z</Time>
            <Position>
              <LatitudeDegrees>-15.435844324529170989990234375</LatitudeDegrees>
              <LongitudeDegrees>37.06504873931407928466796875</LongitudeDegrees>
            </Position>
            <AltitudeMeters>1131.199951171875</AltitudeMeters>
            <DistanceMeters>11089.845919484</DistanceMeters>
          </Trackpoint>
          <Trackpoint>
            <Time>2021-08-01T12:26:01.000Z</Time>
            <Position>
              <LatitudeDegrees>-15.43582177720963954925537109375</LatitudeDegrees>
              <LongitudeDegrees>37.06510900519788265228271484375</LongitudeDegrees>
            </Position>
            <AltitudeMeters>1131.4000244140625</AltitudeMeters>
            <DistanceMeters>11096.782218735</DistanceMeters>
          </Trackpoint>
          <Trackpoint>
            <Time>2021-08-01T12:26:06.000Z</Time>
            <Position>
              <LatitudeDegrees>-15.43579512275755405426025390625</LatitudeDegrees>
              <LongitudeDegrees>37.06517538987100124359130859375</LongitudeDegrees>
            </Position>
            <AltitudeMeters>1131.4000244140625</AltitudeMeters>
            <DistanceMeters>11104.498130476</DistanceMeters>
          </Trackpoint>
          <Trackpoint>
            <Time>2021-08-01T12:26:10.000Z</Time>
            <Position>
              <LatitudeDegrees>-15.4357851482927799224853515625</LatitudeDegrees>
              <LongitudeDegrees>37.0652224123477935791015625</LongitudeDegrees>
            </Position>
            <AltitudeMeters>1131.5999755859375</AltitudeMeters>
            <DistanceMeters>11109.662900153</DistanceMeters>
          </Trackpoint>
          <Trackpoint>
            <Time>2021-08-01T12:26:14.000Z</Time>
            <Position>
              <LatitudeDegrees>-15.43576997704803943634033203125</LatitudeDegrees>
              <LongitudeDegrees>37.065277397632598876953125</LongitudeDegrees>
            </Position>
            <AltitudeMeters>1131.5999755859375</AltitudeMeters>
            <DistanceMeters>11115.799301278</DistanceMeters>
          </Trackpoint>
          <Trackpoint>
            <Time>2021-08-01T12:26:22.000Z</Time>
            <Position>
              <LatitudeDegrees>-15.4357600025832653045654296875</LatitudeDegrees>
              <LongitudeDegrees>37.065403796732425689697265625</LongitudeDegrees>
            </Position>
            <AltitudeMeters>1131.4000244140625</AltitudeMeters>
            <DistanceMeters>11129.405719883</DistanceMeters>
          </Trackpoint>
          <Trackpoint>
            <Time>2021-08-01T12:26:29.000Z</Time>
            <Position>
              <LatitudeDegrees>-15.43576729483902454376220703125</LatitudeDegrees>
              <LongitudeDegrees>37.065484263002872467041015625</LongitudeDegrees>
            </Position>
            <AltitudeMeters>1131.5999755859375</AltitudeMeters>
            <DistanceMeters>11138.077656035</DistanceMeters>
          </Trackpoint>
          <Trackpoint>
            <Time>2021-08-01T12:26:37.000Z</Time>
            <Position>
              <LatitudeDegrees>-15.4357569850981235504150390625</LatitudeDegrees>
              <LongitudeDegrees>37.06559197045862674713134765625</LongitudeDegrees>
            </Position>
            <AltitudeMeters>1131.5999755859375</AltitudeMeters>
            <DistanceMeters>11149.690371549</DistanceMeters>
          </Trackpoint>
          <Trackpoint>
            <Time>2021-08-01T12:26:47.000Z</Time>
            <Position>
              <LatitudeDegrees>-15.43570761568844318389892578125</LatitudeDegrees>
              <LongitudeDegrees>37.0656912960112094879150390625</LongitudeDegrees>
            </Position>
            <AltitudeMeters>1131.4000244140625</AltitudeMeters>
            <DistanceMeters>11161.679941471</DistanceMeters>
          </Trackpoint>
          <Trackpoint>
            <Time>2021-08-01T12:26:51.000Z</Time>
            <Position>
              <LatitudeDegrees>-15.43568305671215057373046875</LatitudeDegrees>
              <LongitudeDegrees>37.06567293964326381683349609375</LongitudeDegrees>
            </Position>
            <AltitudeMeters>1131.5999755859375</AltitudeMeters>
            <DistanceMeters>11165.047696809</DistanceMeters>
          </Trackpoint>
          <Trackpoint>
            <Time>2021-08-01T12:26:53.000Z</Time>
            <Position>
              <LatitudeDegrees>-15.43566050939261913299560546875</LatitudeDegrees>
              <LongitudeDegrees>37.06566455774009227752685546875</LongitudeDegrees>
            </Position>
            <AltitudeMeters>1131.800048828125</AltitudeMeters>
            <DistanceMeters>11167.711836461</DistanceMeters>
          </Trackpoint>
          <Trackpoint>
            <Time>2021-08-01T12:26:54.000Z</Time>
            <Position>
              <LatitudeDegrees>-15.43565413914620876312255859375</LatitudeDegrees>
              <LongitudeDegrees>37.06565760076045989990234375</LongitudeDegrees>
            </Position>
            <AltitudeMeters>1131.800048828125</AltitudeMeters>
            <DistanceMeters>11168.735305497</DistanceMeters>
          </Trackpoint>
          <Trackpoint>
            <Time>2021-08-01T12:26:56.000Z</Time>
            <Position>
              <LatitudeDegrees>-15.4356580786406993865966796875</LatitudeDegrees>
              <LongitudeDegrees>37.06563807092607021331787109375</LongitudeDegrees>
            </Position>
            <AltitudeMeters>1132</AltitudeMeters>
            <DistanceMeters>11170.874989762</DistanceMeters>
          </Trackpoint>
          <Trackpoint>
            <Time>2021-08-01T12:26:58.000Z</Time>
            <Position>
              <LatitudeDegrees>-15.43564408086240291595458984375</LatitudeDegrees>
              <LongitudeDegrees>37.06563807092607021331787109375</LongitudeDegrees>
            </Position>
            <AltitudeMeters>1131.800048828125</AltitudeMeters>
            <DistanceMeters>11172.430644122</DistanceMeters>
          </Trackpoint>
          <Trackpoint>
            <Time>2021-08-01T12:26:59.000Z</Time>
            <Position>
              <LatitudeDegrees>-15.43563536368310451507568359375</LatitudeDegrees>
              <LongitudeDegrees>37.065639495849609375</LongitudeDegrees>
            </Position>
            <AltitudeMeters>1131.800048828125</AltitudeMeters>
            <DistanceMeters>11173.418190706</DistanceMeters>
          </Trackpoint>
          <Trackpoint>
            <Time>2021-08-01T12:27:00.000Z</Time>
            <Position>
              <LatitudeDegrees>-15.43562396429479122161865234375</LatitudeDegrees>
              <LongitudeDegrees>37.06563807092607021331787109375</LongitudeDegrees>
            </Position>
            <AltitudeMeters>1131.800048828125</AltitudeMeters>
            <DistanceMeters>11174.700171171</DistanceMeters>
          </Trackpoint>
          <Trackpoint>
            <Time>2021-08-01T12:27:06.000Z</Time>
            <Position>
              <LatitudeDegrees>-15.4355598427355289459228515625</LatitudeDegrees>
              <LongitudeDegrees>37.06564527936279773712158203125</LongitudeDegrees>
            </Position>
            <AltitudeMeters>1132</AltitudeMeters>
            <DistanceMeters>11181.878934732</DistanceMeters>
          </Trackpoint>
          <Trackpoint>
            <Time>2021-08-01T12:27:13.000Z</Time>
            <Position>
              <LatitudeDegrees>-15.4354800470173358917236328125</LatitudeDegrees>
              <LongitudeDegrees>37.06566254608333110809326171875</LongitudeDegrees>
            </Position>
            <AltitudeMeters>1132.199951171875</AltitudeMeters>
            <DistanceMeters>11190.951373588</DistanceMeters>
          </Trackpoint>
          <Trackpoint>
            <Time>2021-08-01T12:27:15.000Z</Time>
            <Position>
              <LatitudeDegrees>-15.43545448221266269683837890625</LatitudeDegrees>
              <LongitudeDegrees>37.06566086970269680023193359375</LongitudeDegrees>
            </Position>
            <AltitudeMeters>1132.199951171875</AltitudeMeters>
            <DistanceMeters>11193.803758358</DistanceMeters>
          </Trackpoint>
          <Trackpoint>
            <Time>2021-08-01T12:27:26.000Z</Time>
            <Position>
              <LatitudeDegrees>-15.4353191144764423370361328125</LatitudeDegrees>
              <LongitudeDegrees>37.0656460337340831756591796875</LongitudeDegrees>
            </Position>
            <AltitudeMeters>1132.199951171875</AltitudeMeters>
            <DistanceMeters>11208.954485839</DistanceMeters>
          </Trackpoint>
          <Trackpoint>
            <Time>2021-08-01T12:27:33.000Z</Time>
            <Position>
              <LatitudeDegrees>-15.43523722328245639801025390625</LatitudeDegrees>
              <LongitudeDegrees>37.06561468541622161865234375</LongitudeDegrees>
            </Position>
            <AltitudeMeters>1132.5999755859375</AltitudeMeters>
            <DistanceMeters>11218.670008937</DistanceMeters>
          </Trackpoint>
          <Trackpoint>
            <Time>2021-08-01T12:27:34.000Z</Time>
            <Position>
              <LatitudeDegrees>-15.435227416455745697021484375</LatitudeDegrees>
              <LongitudeDegrees>37.0656086504459381103515625</LongitudeDegrees>
            </Position>
            <AltitudeMeters>1132.5999755859375</AltitudeMeters>
            <DistanceMeters>11219.941379726</DistanceMeters>
          </Trackpoint>
          <Trackpoint>
            <Time>2021-08-01T12:27:38.000Z</Time>
            <Position>
              <LatitudeDegrees>-15.43519179336726665496826171875</LatitudeDegrees>
              <LongitudeDegrees>37.0655830018222332000732421875</LongitudeDegrees>
            </Position>
            <AltitudeMeters>1132.4000244140625</AltitudeMeters>
            <DistanceMeters>11224.767202676</DistanceMeters>
          </Trackpoint>
          <Trackpoint>
            <Time>2021-08-01T12:27:46.000Z</Time>
            <Position>
              <LatitudeDegrees>-15.4351226426661014556884765625</LatitudeDegrees>
              <LongitudeDegrees>37.06552139483392238616943359375</LongitudeDegrees>
            </Position>
            <AltitudeMeters>1132.199951171875</AltitudeMeters>
            <DistanceMeters>11234.912834317</DistanceMeters>
          </Trackpoint>
          <Trackpoint>
            <Time>2021-08-01T12:27:48.000Z</Time>
            <Position>
              <LatitudeDegrees>-15.43511317111551761627197265625</LatitudeDegrees>
              <LongitudeDegrees>37.0655042119324207305908203125</LongitudeDegrees>
            </Position>
            <AltitudeMeters>1132.4000244140625</AltitudeMeters>
            <DistanceMeters>11237.037696247</DistanceMeters>
          </Trackpoint>
          <Trackpoint>
            <Time>2021-08-01T12:27:49.000Z</Time>
            <Position>
              <LatitudeDegrees>-15.43511149473488330841064453125</LatitudeDegrees>
              <LongitudeDegrees>37.06549465656280517578125</LongitudeDegrees>
            </Position>
            <AltitudeMeters>1132.4000244140625</AltitudeMeters>
            <DistanceMeters>11238.074315317</DistanceMeters>
          </Trackpoint>
          <Trackpoint>
            <Time>2021-08-01T12:27:52.000Z</Time>
            <Position>
              <LatitudeDegrees>-15.43509758077561855316162109375</LatitudeDegrees>
              <LongitudeDegrees>37.0654592849314212799072265625</LongitudeDegrees>
            </Position>
            <AltitudeMeters>1132.4000244140625</AltitudeMeters>
            <DistanceMeters>11242.171498753</DistanceMeters>
          </Trackpoint>
          <Trackpoint>
            <Time>2021-08-01T12:27:55.000Z</Time>
            <Position>
              <LatitudeDegrees>-15.4350757040083408355712890625</LatitudeDegrees>
              <LongitudeDegrees>37.06543422304093837738037109375</LongitudeDegrees>
            </Position>
            <AltitudeMeters>1132.800048828125</AltitudeMeters>
            <DistanceMeters>11245.799976596</DistanceMeters>
          </Trackpoint>
          <Trackpoint>
            <Time>2021-08-01T12:28:04.000Z</Time>
            <Position>
              <LatitudeDegrees>-15.43501392938196659088134765625</LatitudeDegrees>
              <LongitudeDegrees>37.0653543435037136077880859375</LongitudeDegrees>
            </Position>
            <AltitudeMeters>1133.5999755859375</AltitudeMeters>
            <DistanceMeters>11256.787793579</DistanceMeters>
          </Trackpoint>
          <Trackpoint>
            <Time>2021-08-01T12:28:05.000Z</Time>
            <Position>
              <LatitudeDegrees>-15.43500856496393680572509765625</LatitudeDegrees>
              <LongitudeDegrees>37.06534638069570064544677734375</LongitudeDegrees>
            </Position>
            <AltitudeMeters>1133.800048828125</AltitudeMeters>
            <DistanceMeters>11257.82875908</DistanceMeters>
          </Trackpoint>
          <Trackpoint>
            <Time>2021-08-01T12:28:14.000Z</Time>
            <Position>
              <LatitudeDegrees>-15.43494142591953277587890625</LatitudeDegrees>
              <LongitudeDegrees>37.06526792608201503753662109375</LongitudeDegrees>
            </Position>
            <AltitudeMeters>1134.800048828125</AltitudeMeters>
            <DistanceMeters>11269.084110804</DistanceMeters>
          </Trackpoint>
          <Trackpoint>
            <Time>2021-08-01T12:28:19.000Z</Time>
            <Position>
              <LatitudeDegrees>-15.43489708565175533294677734375</LatitudeDegrees>
              <LongitudeDegrees>37.06522643566131591796875</LongitudeDegrees>
            </Position>
            <AltitudeMeters>1135.4000244140625</AltitudeMeters>
            <DistanceMeters>11275.730548494</DistanceMeters>
          </Trackpoint>
          <Trackpoint>
            <Time>2021-08-01T12:28:22.000Z</Time>
            <Position>
              <LatitudeDegrees>-15.43486925773322582244873046875</LatitudeDegrees>
              <LongitudeDegrees>37.06520221196115016937255859375</LongitudeDegrees>
            </Position>
            <AltitudeMeters>1135.800048828125</AltitudeMeters>
            <DistanceMeters>11279.774490684</DistanceMeters>
          </Trackpoint>
          <Trackpoint>
            <Time>2021-08-01T12:28:24.000Z</Time>
            <Position>
              <LatitudeDegrees>-15.434853248298168182373046875</LatitudeDegrees>
              <LongitudeDegrees>37.06518553197383880615234375</LongitudeDegrees>
            </Position>
            <AltitudeMeters>1136</AltitudeMeters>
            <DistanceMeters>11282.301200807</DistanceMeters>
          </Trackpoint>
          <Trackpoint>
            <Time>2021-08-01T12:28:27.000Z</Time>
            <Position>
              <LatitudeDegrees>-15.43483120389282703399658203125</LatitudeDegrees>
              <LongitudeDegrees>37.065158374607563018798828125</LongitudeDegrees>
            </Position>
            <AltitudeMeters>1136.199951171875</AltitudeMeters>
            <DistanceMeters>11286.109389717</DistanceMeters>
          </Trackpoint>
          <Trackpoint>
            <Time>2021-08-01T12:28:32.000Z</Time>
            <Position>
              <LatitudeDegrees>-15.43479097075760364532470703125</LatitudeDegrees>
              <LongitudeDegrees>37.06511990167200565338134765625</LongitudeDegrees>
            </Position>
            <AltitudeMeters>1136.800048828125</AltitudeMeters>
            <DistanceMeters>11292.200001675</DistanceMeters>
          </Trackpoint>
          <Trackpoint>
            <Time>2021-08-01T12:28:33.000Z</Time>
            <Position>
              <LatitudeDegrees>-15.4347823373973369598388671875</LatitudeDegrees>
              <LongitudeDegrees>37.065110765397548675537109375</LongitudeDegrees>
            </Position>
            <AltitudeMeters>1136.800048828125</AltitudeMeters>
            <DistanceMeters>11293.577069594</DistanceMeters>
          </Trackpoint>
          <Trackpoint>
            <Time>2021-08-01T12:28:37.000Z</Time>
            <Position>
              <LatitudeDegrees>-15.43474822305142879486083984375</LatitudeDegrees>
              <LongitudeDegrees>37.06508318893611431121826171875</LongitudeDegrees>
            </Position>
            <AltitudeMeters>1137.4000244140625</AltitudeMeters>
            <DistanceMeters>11298.390714383</DistanceMeters>
          </Trackpoint>
          <Trackpoint>
            <Time>2021-08-01T12:28:38.000Z</Time>
            <Position>
              <LatitudeDegrees>-15.43473883531987667083740234375</LatitudeDegrees>
              <LongitudeDegrees>37.06507530994713306427001953125</LongitudeDegrees>
            </Position>
            <AltitudeMeters>1137.4000244140625</AltitudeMeters>
            <DistanceMeters>11299.734595066</DistanceMeters>
          </Trackpoint>
          <Trackpoint>
            <Time>2021-08-01T12:28:44.000Z</Time>
            <Position>
              <LatitudeDegrees>-15.43469256721436977386474609375</LatitudeDegrees>
              <LongitudeDegrees>37.06503692083060741424560546875</LongitudeDegrees>
            </Position>
            <AltitudeMeters>1138</AltitudeMeters>
            <DistanceMeters>11306.329202571</DistanceMeters>
          </Trackpoint>
          <Trackpoint>
            <Time>2021-08-01T12:28:46.000Z</Time>
            <Position>
              <LatitudeDegrees>-15.43467429466545581817626953125</LatitudeDegrees>
              <LongitudeDegrees>37.06502451561391353607177734375</LongitudeDegrees>
            </Position>
            <AltitudeMeters>1138.199951171875</AltitudeMeters>
            <DistanceMeters>11308.759361001</DistanceMeters>
          </Trackpoint>
          <Trackpoint>
            <Time>2021-08-01T12:28:49.000Z</Time>
            <Position>
              <LatitudeDegrees>-15.434645712375640869140625</LatitudeDegrees>
              <LongitudeDegrees>37.0650130324065685272216796875</LongitudeDegrees>
            </Position>
            <AltitudeMeters>1138.5999755859375</AltitudeMeters>
            <DistanceMeters>11312.171071501</DistanceMeters>
          </Trackpoint>
          <Trackpoint>
            <Time>2021-08-01T12:28:54.000Z</Time>
            <Position>
              <LatitudeDegrees>-15.43460640124976634979248046875</LatitudeDegrees>
              <LongitudeDegrees>37.06498445011675357818603515625</LongitudeDegrees>
            </Position>
            <AltitudeMeters>1139</AltitudeMeters>
            <DistanceMeters>11317.514581744</DistanceMeters>
          </Trackpoint>
          <Trackpoint>
            <Time>2021-08-01T12:28:58.000Z</Time>
            <Position>
              <LatitudeDegrees>-15.434579662978649139404296875</LatitudeDegrees>
              <LongitudeDegrees>37.0649543590843677520751953125</LongitudeDegrees>
            </Position>
            <AltitudeMeters>1139.5999755859375</AltitudeMeters>
            <DistanceMeters>11321.90539183</DistanceMeters>
          </Trackpoint>
          <Trackpoint>
            <Time>2021-08-01T12:29:03.000Z</Time>
            <Position>
              <LatitudeDegrees>-15.43454370461404323577880859375</LatitudeDegrees>
              <LongitudeDegrees>37.0649288780987262725830078125</LongitudeDegrees>
            </Position>
            <AltitudeMeters>1140.199951171875</AltitudeMeters>
            <DistanceMeters>11326.752685808</DistanceMeters>
          </Trackpoint>
          <Trackpoint>
            <Time>2021-08-01T12:29:07.000Z</Time>
            <Position>
              <LatitudeDegrees>-15.4345181398093700408935546875</LatitudeDegrees>
              <LongitudeDegrees>37.0649074204266071319580078125</LongitudeDegrees>
            </Position>
            <AltitudeMeters>1141</AltitudeMeters>
            <DistanceMeters>11330.413373372</DistanceMeters>
          </Trackpoint>
          <Trackpoint>
            <Time>2021-08-01T12:29:08.000Z</Time>
            <Position>
              <LatitudeDegrees>-15.434511937201023101806640625</LatitudeDegrees>
              <LongitudeDegrees>37.06490079872310161590576171875</LongitudeDegrees>
            </Position>
            <AltitudeMeters>1141.199951171875</AltitudeMeters>
            <DistanceMeters>11331.405481396</DistanceMeters>
          </Trackpoint>
          <Trackpoint>
            <Time>2021-08-01T12:29:18.000Z</Time>
            <Position>
              <LatitudeDegrees>-15.43442971073091030120849609375</LatitudeDegrees>
              <LongitudeDegrees>37.06484757363796234130859375</LongitudeDegrees>
            </Position>
            <AltitudeMeters>1142.4000244140625</AltitudeMeters>
            <DistanceMeters>11342.192583188</DistanceMeters>
          </Trackpoint>
          <Trackpoint>
            <Time>2021-08-01T12:29:27.000Z</Time>
            <Position>
              <LatitudeDegrees>-15.43435745872557163238525390625</LatitudeDegrees>
              <LongitudeDegrees>37.06478831358253955841064453125</LongitudeDegrees>
            </Position>
            <AltitudeMeters>1143.4000244140625</AltitudeMeters>
            <DistanceMeters>11352.444463978</DistanceMeters>
          </Trackpoint>
          <Trackpoint>
            <Time>2021-08-01T12:29:29.000Z</Time>
            <Position>
              <LatitudeDegrees>-15.4343407787382602691650390625</LatitudeDegrees>
              <LongitudeDegrees>37.0647766627371311187744140625</LongitudeDegrees>
            </Position>
            <AltitudeMeters>1143.800048828125</AltitudeMeters>
            <DistanceMeters>11354.683144935</DistanceMeters>
          </Trackpoint>
          <Trackpoint>
            <Time>2021-08-01T12:29:36.000Z</Time>
            <Position>
              <LatitudeDegrees>-15.434283949434757232666015625</LatitudeDegrees>
              <LongitudeDegrees>37.064741961658000946044921875</LongitudeDegrees>
            </Position>
            <AltitudeMeters>1144.5999755859375</AltitudeMeters>
            <DistanceMeters>11362.02238236</DistanceMeters>
          </Trackpoint>
          <Trackpoint>
            <Time>2021-08-01T12:29:43.000Z</Time>
            <Position>
              <LatitudeDegrees>-15.4342251084744930267333984375</LatitudeDegrees>
              <LongitudeDegrees>37.06470231525599956512451171875</LongitudeDegrees>
            </Position>
            <AltitudeMeters>1145.5999755859375</AltitudeMeters>
            <DistanceMeters>11369.831358364</DistanceMeters>
          </Trackpoint>
          <Trackpoint>
            <Time>2021-08-01T12:29:44.000Z</Time>
            <Position>
              <LatitudeDegrees>-15.43421722948551177978515625</LatitudeDegrees>
              <LongitudeDegrees>37.06469871103763580322265625</LongitudeDegrees>
            </Position>
            <AltitudeMeters>1145.5999755859375</AltitudeMeters>
            <DistanceMeters>11370.791081135</DistanceMeters>
          </Trackpoint>
          <Trackpoint>
            <Time>2021-08-01T12:29:51.000Z</Time>
            <Position>
              <LatitudeDegrees>-15.434161238372325897216796875</LatitudeDegrees>
              <LongitudeDegrees>37.06466761417686939239501953125</LongitudeDegrees>
            </Position>
            <AltitudeMeters>1146.800048828125</AltitudeMeters>
            <DistanceMeters>11377.860200107</DistanceMeters>
          </Trackpoint>
          <Trackpoint>
            <Time>2021-08-01T12:29:59.000Z</Time>
            <Position>
              <LatitudeDegrees>-15.43407582677900791168212890625</LatitudeDegrees>
              <LongitudeDegrees>37.0646204240620136260986328125</LongitudeDegrees>
            </Position>
            <AltitudeMeters>1147.800048828125</AltitudeMeters>
            <DistanceMeters>11388.630546526</DistanceMeters>
          </Trackpoint>
          <Trackpoint>
            <Time>2021-08-01T12:30:01.000Z</Time>
            <Position>
              <LatitudeDegrees>-15.43405336327850818634033203125</LatitudeDegrees>
              <LongitudeDegrees>37.06460860557854175567626953125</LongitudeDegrees>
            </Position>
            <AltitudeMeters>1148</AltitudeMeters>
            <DistanceMeters>11391.433431916</DistanceMeters>
          </Trackpoint>
          <Trackpoint>
            <Time>2021-08-01T12:30:07.000Z</Time>
            <Position>
              <LatitudeDegrees>-15.43399502523243427276611328125</LatitudeDegrees>
              <LongitudeDegrees>37.06459670327603816986083984375</LongitudeDegrees>
            </Position>
            <AltitudeMeters>1148.4000244140625</AltitudeMeters>
            <DistanceMeters>11398.051276788</DistanceMeters>
          </Trackpoint>
          <Trackpoint>
            <Time>2021-08-01T12:30:11.000Z</Time>
            <Position>
              <LatitudeDegrees>-15.43396552093327045440673828125</LatitudeDegrees>
              <LongitudeDegrees>37.0645778439939022064208984375</LongitudeDegrees>
            </Position>
            <AltitudeMeters>1149</AltitudeMeters>
            <DistanceMeters>11401.907769483</DistanceMeters>
          </Trackpoint>
          <Trackpoint>
            <Time>2021-08-01T12:30:17.000Z</Time>
            <Position>
              <LatitudeDegrees>-15.43391891755163669586181640625</LatitudeDegrees>
              <LongitudeDegrees>37.0645384490489959716796875</LongitudeDegrees>
            </Position>
            <AltitudeMeters>1149.5999755859375</AltitudeMeters>
            <DistanceMeters>11408.598217071</DistanceMeters>
          </Trackpoint>
          <Trackpoint>
            <Time>2021-08-01T12:30:20.000Z</Time>
            <Position>
              <LatitudeDegrees>-15.4338844679296016693115234375</LatitudeDegrees>
              <LongitudeDegrees>37.06453618593513965606689453125</LongitudeDegrees>
            </Position>
            <AltitudeMeters>1150</AltitudeMeters>
            <DistanceMeters>11412.439459697</DistanceMeters>
          </Trackpoint>
          <Trackpoint>
            <Time>2021-08-01T12:30:25.000Z</Time>
            <Position>
              <LatitudeDegrees>-15.43382638134062290191650390625</LatitudeDegrees>
              <LongitudeDegrees>37.0645312406122684478759765625</LongitudeDegrees>
            </Position>
            <AltitudeMeters>1150</AltitudeMeters>
            <DistanceMeters>11418.927077619</DistanceMeters>
          </Trackpoint>
          <Trackpoint>
            <Time>2021-08-01T12:30:32.000Z</Time>
            <Position>
              <LatitudeDegrees>-15.43374524451792240142822265625</LatitudeDegrees>
              <LongitudeDegrees>37.06450156867504119873046875</LongitudeDegrees>
            </Position>
            <AltitudeMeters>1150.800048828125</AltitudeMeters>
            <DistanceMeters>11428.502640068</DistanceMeters>
          </Trackpoint>
          <Trackpoint>
            <Time>2021-08-01T12:30:33.000Z</Time>
            <Position>
              <LatitudeDegrees>-15.43373367749154567718505859375</LatitudeDegrees>
              <LongitudeDegrees>37.0645008981227874755859375</LongitudeDegrees>
            </Position>
            <AltitudeMeters>1150.800048828125</AltitudeMeters>
            <DistanceMeters>11429.791645136</DistanceMeters>
          </Trackpoint>
          <Trackpoint>
            <Time>2021-08-01T12:30:34.000Z</Time>
            <Position>
              <LatitudeDegrees>-15.43372110463678836822509765625</LatitudeDegrees>
              <LongitudeDegrees>37.06449762918055057525634765625</LongitudeDegrees>
            </Position>
            <AltitudeMeters>1151</AltitudeMeters>
            <DistanceMeters>11431.232796614</DistanceMeters>
          </Trackpoint>
          <Trackpoint>
            <Time>2021-08-01T12:30:44.000Z</Time>
            <Position>
              <LatitudeDegrees>-15.43359939940273761749267578125</LatitudeDegrees>
              <LongitudeDegrees>37.06445756368339061737060546875</LongitudeDegrees>
            </Position>
            <AltitudeMeters>1151.5999755859375</AltitudeMeters>
            <DistanceMeters>11445.444295118</DistanceMeters>
          </Trackpoint>
          <Trackpoint>
            <Time>2021-08-01T12:30:47.000Z</Time>
            <Position>
              <LatitudeDegrees>-15.43355279602110385894775390625</LatitudeDegrees>
              <LongitudeDegrees>37.06444147042930126190185546875</LongitudeDegrees>
            </Position>
            <AltitudeMeters>1152</AltitudeMeters>
            <DistanceMeters>11450.911429014</DistanceMeters>
          </Trackpoint>
          <Trackpoint>
            <Time>2021-08-01T12:30:56.000Z</Time>
            <Position>
              <LatitudeDegrees>-15.4334346950054168701171875</LatitudeDegrees>
              <LongitudeDegrees>37.06441950984299182891845703125</LongitudeDegrees>
            </Position>
            <AltitudeMeters>1152.199951171875</AltitudeMeters>
            <DistanceMeters>11464.265979166</DistanceMeters>
          </Trackpoint>
          <Trackpoint>
            <Time>2021-08-01T12:31:07.000Z</Time>
            <Position>
              <LatitudeDegrees>-15.43329949490725994110107421875</LatitudeDegrees>
              <LongitudeDegrees>37.0643817074596881866455078125</LongitudeDegrees>
            </Position>
            <AltitudeMeters>1151.800048828125</AltitudeMeters>
            <DistanceMeters>11479.850650036</DistanceMeters>
          </Trackpoint>
          <Trackpoint>
            <Time>2021-08-01T12:31:15.000Z</Time>
            <Position>
              <LatitudeDegrees>-15.43320293538272380828857421875</LatitudeDegrees>
              <LongitudeDegrees>37.0643582381308078765869140625</LongitudeDegrees>
            </Position>
            <AltitudeMeters>1152</AltitudeMeters>
            <DistanceMeters>11490.888893621</DistanceMeters>
          </Trackpoint>
          <Trackpoint>
            <Time>2021-08-01T12:31:20.000Z</Time>
            <Position>
              <LatitudeDegrees>-15.43314241804182529449462890625</LatitudeDegrees>
              <LongitudeDegrees>37.06435966305434703826904296875</LongitudeDegrees>
            </Position>
            <AltitudeMeters>1152.199951171875</AltitudeMeters>
            <DistanceMeters>11497.627085097</DistanceMeters>
          </Trackpoint>
          <Trackpoint>
            <Time>2021-08-01T12:31:25.000Z</Time>
            <Position>
              <LatitudeDegrees>-15.43309464119374752044677734375</LatitudeDegrees>
              <LongitudeDegrees>37.064365111291408538818359375</LongitudeDegrees>
            </Position>
            <AltitudeMeters>1152.4000244140625</AltitudeMeters>
            <DistanceMeters>11502.977350728</DistanceMeters>
          </Trackpoint>
          <Trackpoint>
            <Time>2021-08-01T12:31:33.000Z</Time>
            <Position>
              <LatitudeDegrees>-15.43300663121044635772705078125</LatitudeDegrees>
              <LongitudeDegrees>37.0644070208072662353515625</LongitudeDegrees>
            </Position>
            <AltitudeMeters>1153</AltitudeMeters>
            <DistanceMeters>11513.755659197</DistanceMeters>
          </Trackpoint>
          <Trackpoint>
            <Time>2021-08-01T12:31:36.000Z</Time>
            <Position>
              <LatitudeDegrees>-15.432975031435489654541015625</LatitudeDegrees>
              <LongitudeDegrees>37.06441573798656463623046875</LongitudeDegrees>
            </Position>
            <AltitudeMeters>1153.4000244140625</AltitudeMeters>
            <DistanceMeters>11517.395318816</DistanceMeters>
          </Trackpoint>
          <Trackpoint>
            <Time>2021-08-01T12:31:41.000Z</Time>
            <Position>
              <LatitudeDegrees>-15.43292297981679439544677734375</LatitudeDegrees>
              <LongitudeDegrees>37.0644306577742099761962890625</LongitudeDegrees>
            </Position>
            <AltitudeMeters>1154.199951171875</AltitudeMeters>
            <DistanceMeters>11523.406087141</DistanceMeters>
          </Trackpoint>
          <Trackpoint>
            <Time>2021-08-01T12:31:42.000Z</Time>
            <Position>
              <LatitudeDegrees>-15.43291342444717884063720703125</LatitudeDegrees>
              <LongitudeDegrees>37.0644338428974151611328125</LongitudeDegrees>
            </Position>
            <AltitudeMeters>1154.199951171875</AltitudeMeters>
            <DistanceMeters>11524.52643558</DistanceMeters>
          </Trackpoint>
          <Trackpoint>
            <Time>2021-08-01T12:31:43.000Z</Time>
            <Position>
              <LatitudeDegrees>-15.43290202505886554718017578125</LatitudeDegrees>
              <LongitudeDegrees>37.06443543545901775360107421875</LongitudeDegrees>
            </Position>
            <AltitudeMeters>1154.4000244140625</AltitudeMeters>
            <DistanceMeters>11525.808416045</DistanceMeters>
          </Trackpoint>
          <Trackpoint>
            <Time>2021-08-01T12:31:46.000Z</Time>
            <Position>
              <LatitudeDegrees>-15.43286514468491077423095703125</LatitudeDegrees>
              <LongitudeDegrees>37.06444390118122100830078125</LongitudeDegrees>
            </Position>
            <AltitudeMeters>1154.5999755859375</AltitudeMeters>
            <DistanceMeters>11530.013281047</DistanceMeters>
          </Trackpoint>
          <Trackpoint>
            <Time>2021-08-01T12:31:53.000Z</Time>
            <Position>
              <LatitudeDegrees>-15.4327981732785701751708984375</LatitudeDegrees>
              <LongitudeDegrees>37.06448145210742950439453125</LongitudeDegrees>
            </Position>
            <AltitudeMeters>1155.199951171875</AltitudeMeters>
            <DistanceMeters>11538.486126361</DistanceMeters>
          </Trackpoint>
          <Trackpoint>
            <Time>2021-08-01T12:31:54.000Z</Time>
            <Position>
              <LatitudeDegrees>-15.4327882826328277587890625</LatitudeDegrees>
              <LongitudeDegrees>37.06448547542095184326171875</LongitudeDegrees>
            </Position>
            <AltitudeMeters>1155.199951171875</AltitudeMeters>
            <DistanceMeters>11539.665376874</DistanceMeters>
          </Trackpoint>
          <Trackpoint>
            <Time>2021-08-01T12:31:59.000Z</Time>
            <Position>
              <LatitudeDegrees>-15.43273757211863994598388671875</LatitudeDegrees>
              <LongitudeDegrees>37.06451036967337131500244140625</LongitudeDegrees>
            </Position>
            <AltitudeMeters>1155.5999755859375</AltitudeMeters>
            <DistanceMeters>11545.909723925</DistanceMeters>
          </Trackpoint>
          <Trackpoint>
            <Time>2021-08-01T12:32:06.000Z</Time>
            <Position>
              <LatitudeDegrees>-15.43265576474368572235107421875</LatitudeDegrees>
              <LongitudeDegrees>37.064563594758510589599609375</LongitudeDegrees>
            </Position>
            <AltitudeMeters>1155.5999755859375</AltitudeMeters>
            <DistanceMeters>11556.657409158</DistanceMeters>
          </Trackpoint>
          <Trackpoint>
            <Time>2021-08-01T12:32:15.000Z</Time>
            <Position>
              <LatitudeDegrees>-15.43257177807390689849853515625</LatitudeDegrees>
              <LongitudeDegrees>37.06462671048939228057861328125</LongitudeDegrees>
            </Position>
            <AltitudeMeters>1156</AltitudeMeters>
            <DistanceMeters>11568.200319446</DistanceMeters>
          </Trackpoint>
          <Trackpoint>
            <Time>2021-08-01T12:32:16.000Z</Time>
            <Position>
              <LatitudeDegrees>-15.43256255798041820526123046875</LatitudeDegrees>
              <LongitudeDegrees>37.06463676877319812774658203125</LongitudeDegrees>
            </Position>
            <AltitudeMeters>1156</AltitudeMeters>
            <DistanceMeters>11569.693781492</DistanceMeters>
          </Trackpoint>
          <Trackpoint>
            <Time>2021-08-01T12:32:18.000Z</Time>
            <Position>
              <LatitudeDegrees>-15.4325477220118045806884765625</LatitudeDegrees>
              <LongitudeDegrees>37.06464783288538455963134765625</LongitudeDegrees>
            </Position>
            <AltitudeMeters>1156.4000244140625</AltitudeMeters>
            <DistanceMeters>11571.727441988</DistanceMeters>
          </Trackpoint>
          <Trackpoint>
            <Time>2021-08-01T12:32:21.000Z</Time>
            <Position>
              <LatitudeDegrees>-15.43251830153167247772216796875</LatitudeDegrees>
              <LongitudeDegrees>37.0646703802049160003662109375</LongitudeDegrees>
            </Position>
            <AltitudeMeters>1156.4000244140625</AltitudeMeters>
            <DistanceMeters>11575.798091847</DistanceMeters>
          </Trackpoint>
          <Trackpoint>
            <Time>2021-08-01T12:32:22.000Z</Time>
            <Position>
              <LatitudeDegrees>-15.4325084947049617767333984375</LatitudeDegrees>
              <LongitudeDegrees>37.064675576984882354736328125</LongitudeDegrees>
            </Position>
            <AltitudeMeters>1156.4000244140625</AltitudeMeters>
            <DistanceMeters>11577.022425416</DistanceMeters>
          </Trackpoint>
          <Trackpoint>
            <Time>2021-08-01T12:32:30.000Z</Time>
            <Position>
              <LatitudeDegrees>-15.43243196792900562286376953125</LatitudeDegrees>
              <LongitudeDegrees>37.0647387765347957611083984375</LongitudeDegrees>
            </Position>
            <AltitudeMeters>1156.800048828125</AltitudeMeters>
            <DistanceMeters>11587.90951793</DistanceMeters>
          </Trackpoint>
          <Trackpoint>
            <Time>2021-08-01T12:32:39.000Z</Time>
            <Position>
              <LatitudeDegrees>-15.43234680779278278350830078125</LatitudeDegrees>
              <LongitudeDegrees>37.06479887478053569793701171875</LongitudeDegrees>
            </Position>
            <AltitudeMeters>1157.199951171875</AltitudeMeters>
            <DistanceMeters>11599.373536971</DistanceMeters>
          </Trackpoint>
          <Trackpoint>
            <Time>2021-08-01T12:32:40.000Z</Time>
            <Position>
              <LatitudeDegrees>-15.4323378391563892364501953125</LatitudeDegrees>
              <LongitudeDegrees>37.064810693264007568359375</LongitudeDegrees>
            </Position>
            <AltitudeMeters>1157.4000244140625</AltitudeMeters>
            <DistanceMeters>11600.98619379</DistanceMeters>
          </Trackpoint>
          <Trackpoint>
            <Time>2021-08-01T12:32:47.000Z</Time>
            <Position>
              <LatitudeDegrees>-15.43226458132266998291015625</LatitudeDegrees>
              <LongitudeDegrees>37.06485620699822902679443359375</LongitudeDegrees>
            </Position>
            <AltitudeMeters>1157.5999755859375</AltitudeMeters>
            <DistanceMeters>11610.490765571</DistanceMeters>
          </Trackpoint>
          <Trackpoint>
            <Time>2021-08-01T12:32:56.000Z</Time>
            <Position>
              <LatitudeDegrees>-15.432171709835529327392578125</LatitudeDegrees>
              <LongitudeDegrees>37.06493097357451915740966796875</LongitudeDegrees>
            </Position>
            <AltitudeMeters>1157.800048828125</AltitudeMeters>
            <DistanceMeters>11623.575153952</DistanceMeters>
          </Trackpoint>
          <Trackpoint>
            <Time>2021-08-01T12:33:02.000Z</Time>
            <Position>
              <LatitudeDegrees>-15.432124771177768707275390625</LatitudeDegrees>
              <LongitudeDegrees>37.06497305072844028472900390625</LongitudeDegrees>
            </Position>
            <AltitudeMeters>1158.4000244140625</AltitudeMeters>
            <DistanceMeters>11630.480137922</DistanceMeters>
          </Trackpoint>
          <Trackpoint>
            <Time>2021-08-01T12:33:05.000Z</Time>
            <Position>
              <LatitudeDegrees>-15.43212150223553180694580078125</LatitudeDegrees>
              <LongitudeDegrees>37.06497690640389919281005859375</LongitudeDegrees>
            </Position>
            <AltitudeMeters>1158.4000244140625</AltitudeMeters>
            <DistanceMeters>11631.034234122</DistanceMeters>
          </Trackpoint>
          <Trackpoint>
            <Time>2021-08-01T12:33:10.000Z</Time>
            <Position>
              <LatitudeDegrees>-15.43209501542150974273681640625</LatitudeDegrees>
              <LongitudeDegrees>37.064987719058990478515625</LongitudeDegrees>
            </Position>
            <AltitudeMeters>1158.800048828125</AltitudeMeters>
            <DistanceMeters>11634.201632886</DistanceMeters>
          </Trackpoint>
          <Trackpoint>
            <Time>2021-08-01T12:33:12.000Z</Time>
            <Position>
              <LatitudeDegrees>-15.4320759885013103485107421875</LatitudeDegrees>
              <LongitudeDegrees>37.06499635241925716400146484375</LongitudeDegrees>
            </Position>
            <AltitudeMeters>1159</AltitudeMeters>
            <DistanceMeters>11636.511779024</DistanceMeters>
          </Trackpoint>
          <Trackpoint>
            <Time>2021-08-01T12:33:15.000Z</Time>
            <Position>
              <LatitudeDegrees>-15.4320495016872882843017578125</LatitudeDegrees>
              <LongitudeDegrees>37.065017223358154296875</LongitudeDegrees>
            </Position>
            <AltitudeMeters>1159.4000244140625</AltitudeMeters>
            <DistanceMeters>11640.2153835</DistanceMeters>
          </Trackpoint>
          <Trackpoint>
            <Time>2021-08-01T12:33:21.000Z</Time>
            <Position>
              <LatitudeDegrees>-15.431997366249561309814453125</LatitudeDegrees>
              <LongitudeDegrees>37.06505301408469676971435546875</LongitudeDegrees>
            </Position>
            <AltitudeMeters>1160.4000244140625</AltitudeMeters>
            <DistanceMeters>11647.173779141</DistanceMeters>
          </Trackpoint>
          <Trackpoint>
            <Time>2021-08-01T12:33:23.000Z</Time>
            <Position>
              <LatitudeDegrees>-15.4319797642529010772705078125</LatitudeDegrees>
              <LongitudeDegrees>37.06506407819688320159912109375</LongitudeDegrees>
            </Position>
            <AltitudeMeters>1160.5999755859375</AltitudeMeters>
            <DistanceMeters>11649.464297513</DistanceMeters>
          </Trackpoint>
          <Trackpoint>
            <Time>2021-08-01T12:33:30.000Z</Time>
            <Position>
              <LatitudeDegrees>-15.43191321194171905517578125</LatitudeDegrees>
              <LongitudeDegrees>37.06510364077985286712646484375</LongitudeDegrees>
            </Position>
            <AltitudeMeters>1161.5999755859375</AltitudeMeters>
            <DistanceMeters>11658.001378219</DistanceMeters>
          </Trackpoint>
          <Trackpoint>
            <Time>2021-08-01T12:33:31.000Z</Time>
            <Position>
              <LatitudeDegrees>-15.4319056682288646697998046875</LatitudeDegrees>
              <LongitudeDegrees>37.06510866992175579071044921875</LongitudeDegrees>
            </Position>
            <AltitudeMeters>1162</AltitudeMeters>
            <DistanceMeters>11659.002546779</DistanceMeters>
          </Trackpoint>
          <Trackpoint>
            <Time>2021-08-01T12:33:32.000Z</Time>
            <Position>
              <LatitudeDegrees>-15.4318964481353759765625</LatitudeDegrees>
              <LongitudeDegrees>37.06511252559721469879150390625</LongitudeDegrees>
            </Position>
            <AltitudeMeters>1162</AltitudeMeters>
            <DistanceMeters>11660.106657426</DistanceMeters>
          </Trackpoint>
          <Trackpoint>
            <Time>2021-08-01T12:33:36.000Z</Time>
            <Position>
              <LatitudeDegrees>-15.4318580590188503265380859375</LatitudeDegrees>
              <LongitudeDegrees>37.06512928940355777740478515625</LongitudeDegrees>
            </Position>
            <AltitudeMeters>1162.5999755859375</AltitudeMeters>
            <DistanceMeters>11664.743532668</DistanceMeters>
          </Trackpoint>
          <Trackpoint>
            <Time>2021-08-01T12:33:37.000Z</Time>
            <Position>
              <LatitudeDegrees>-15.4318496771156787872314453125</LatitudeDegrees>
              <LongitudeDegrees>37.06513633020222187042236328125</LongitudeDegrees>
            </Position>
            <AltitudeMeters>1162.800048828125</AltitudeMeters>
            <DistanceMeters>11665.945536092</DistanceMeters>
          </Trackpoint>
          <Trackpoint>
            <Time>2021-08-01T12:33:40.000Z</Time>
            <Position>
              <LatitudeDegrees>-15.4318248666822910308837890625</LatitudeDegrees>
              <LongitudeDegrees>37.06516248174011707305908203125</LongitudeDegrees>
            </Position>
            <AltitudeMeters>1163</AltitudeMeters>
            <DistanceMeters>11669.883129425</DistanceMeters>
          </Trackpoint>
          <Trackpoint>
            <Time>2021-08-01T12:33:50.000Z</Time>
            <Position>
              <LatitudeDegrees>-15.431743226945400238037109375</LatitudeDegrees>
              <LongitudeDegrees>37.06523406319320201873779296875</LongitudeDegrees>
            </Position>
            <AltitudeMeters>1163.800048828125</AltitudeMeters>
            <DistanceMeters>11681.780458884</DistanceMeters>
          </Trackpoint>
          <Trackpoint>
            <Time>2021-08-01T12:33:56.000Z</Time>
            <Position>
              <LatitudeDegrees>-15.43169620446860790252685546875</LatitudeDegrees>
              <LongitudeDegrees>37.065277732908725738525390625</LongitudeDegrees>
            </Position>
            <AltitudeMeters>1164.199951171875</AltitudeMeters>
            <DistanceMeters>11688.804726653</DistanceMeters>
          </Trackpoint>
          <Trackpoint>
            <Time>2021-08-01T12:34:01.000Z</Time>
            <Position>
              <LatitudeDegrees>-15.43165395967662334442138671875</LatitudeDegrees>
              <LongitudeDegrees>37.06529810093343257904052734375</LongitudeDegrees>
            </Position>
            <AltitudeMeters>1164.5999755859375</AltitudeMeters>
            <DistanceMeters>11693.990434671</DistanceMeters>
          </Trackpoint>
          <Trackpoint>
            <Time>2021-08-01T12:34:12.000Z</Time>
            <Position>
              <LatitudeDegrees>-15.43155991472303867340087890625</LatitudeDegrees>
              <LongitudeDegrees>37.0653717778623104095458984375</LongitudeDegrees>
            </Position>
            <AltitudeMeters>1165.4000244140625</AltitudeMeters>
            <DistanceMeters>11707.107563799</DistanceMeters>
          </Trackpoint>
          <Trackpoint>
            <Time>2021-08-01T12:34:18.000Z</Time>
            <Position>
              <LatitudeDegrees>-15.431503169238567352294921875</LatitudeDegrees>
              <LongitudeDegrees>37.06541175954043865203857421875</LongitudeDegrees>
            </Position>
            <AltitudeMeters>1165.4000244140625</AltitudeMeters>
            <DistanceMeters>11714.742296502</DistanceMeters>
          </Trackpoint>
          <Trackpoint>
            <Time>2021-08-01T12:34:20.000Z</Time>
            <Position>
              <LatitudeDegrees>-15.4314909316599369049072265625</LatitudeDegrees>
              <LongitudeDegrees>37.0654289424419403076171875</LongitudeDegrees>
            </Position>
            <AltitudeMeters>1165.5999755859375</AltitudeMeters>
            <DistanceMeters>11717.032814874</DistanceMeters>
          </Trackpoint>
          <Trackpoint>
            <Time>2021-08-01T12:34:28.000Z</Time>
            <Position>
              <LatitudeDegrees>-15.43141289614140987396240234375</LatitudeDegrees>
              <LongitudeDegrees>37.06546984612941741943359375</LongitudeDegrees>
            </Position>
            <AltitudeMeters>1166.199951171875</AltitudeMeters>
            <DistanceMeters>11726.763661785</DistanceMeters>
          </Trackpoint>
          <Trackpoint>
            <Time>2021-08-01T12:34:30.000Z</Time>
            <Position>
              <LatitudeDegrees>-15.4313977248966693878173828125</LatitudeDegrees>
              <LongitudeDegrees>37.065488286316394805908203125</LongitudeDegrees>
            </Position>
            <AltitudeMeters>1166.5999755859375</AltitudeMeters>
            <DistanceMeters>11729.362603334</DistanceMeters>
          </Trackpoint>
          <Trackpoint>
            <Time>2021-08-01T12:34:37.000Z</Time>
            <Position>
              <LatitudeDegrees>-15.43134449981153011322021484375</LatitudeDegrees>
              <LongitudeDegrees>37.0655335485935211181640625</LongitudeDegrees>
            </Position>
            <AltitudeMeters>1167.199951171875</AltitudeMeters>
            <DistanceMeters>11737.022723225</DistanceMeters>
          </Trackpoint>
          <Trackpoint>
            <Time>2021-08-01T12:34:38.000Z</Time>
            <Position>
              <LatitudeDegrees>-15.43133519589900970458984375</LatitudeDegrees>
              <LongitudeDegrees>37.0655390806496143341064453125</LongitudeDegrees>
            </Position>
            <AltitudeMeters>1167.199951171875</AltitudeMeters>
            <DistanceMeters>11738.217190503</DistanceMeters>
          </Trackpoint>
          <Trackpoint>
            <Time>2021-08-01T12:34:41.000Z</Time>
            <Position>
              <LatitudeDegrees>-15.43130979873239994049072265625</LatitudeDegrees>
              <LongitudeDegrees>37.06555710174143314361572265625</LongitudeDegrees>
            </Position>
            <AltitudeMeters>1167.5999755859375</AltitudeMeters>
            <DistanceMeters>11741.643427415</DistanceMeters>
          </Trackpoint>
          <Trackpoint>
            <Time>2021-08-01T12:34:45.000Z</Time>
            <Position>
              <LatitudeDegrees>-15.431276857852935791015625</LatitudeDegrees>
              <LongitudeDegrees>37.06558090634644031524658203125</LongitudeDegrees>
            </Position>
            <AltitudeMeters>1167.800048828125</AltitudeMeters>
            <DistanceMeters>11746.111704378</DistanceMeters>
          </Trackpoint>
          <Trackpoint>
            <Time>2021-08-01T12:34:54.000Z</Time>
            <Position>
              <LatitudeDegrees>-15.43119882233440876007080078125</LatitudeDegrees>
              <LongitudeDegrees>37.06563723273575305938720703125</LongitudeDegrees>
            </Position>
            <AltitudeMeters>1168.800048828125</AltitudeMeters>
            <DistanceMeters>11756.693004762</DistanceMeters>
          </Trackpoint>
          <Trackpoint>
            <Time>2021-08-01T12:34:59.000Z</Time>
            <Position>
              <LatitudeDegrees>-15.43116160668432712554931640625</LatitudeDegrees>
              <LongitudeDegrees>37.065685428678989410400390625</LongitudeDegrees>
            </Position>
            <AltitudeMeters>1169</AltitudeMeters>
            <DistanceMeters>11763.319031601</DistanceMeters>
          </Trackpoint>
          <Trackpoint>
            <Time>2021-08-01T12:35:02.000Z</Time>
            <Position>
              <LatitudeDegrees>-15.43114149011671543121337890625</LatitudeDegrees>
              <LongitudeDegrees>37.06571652553975582122802734375</LongitudeDegrees>
            </Position>
            <AltitudeMeters>1169.199951171875</AltitudeMeters>
            <DistanceMeters>11767.337212369</DistanceMeters>
          </Trackpoint>
          <Trackpoint>
            <Time>2021-08-01T12:35:07.000Z</Time>
            <Position>
              <LatitudeDegrees>-15.43110645376145839691162109375</LatitudeDegrees>
              <LongitudeDegrees>37.0657439343631267547607421875</LongitudeDegrees>
            </Position>
            <AltitudeMeters>1169.800048828125</AltitudeMeters>
            <DistanceMeters>11772.221622463</DistanceMeters>
          </Trackpoint>
          <Trackpoint>
            <Time>2021-08-01T12:35:10.000Z</Time>
            <Position>
              <LatitudeDegrees>-15.43107569217681884765625</LatitudeDegrees>
              <LongitudeDegrees>37.06576430238783359527587890625</LongitudeDegrees>
            </Position>
            <AltitudeMeters>1170</AltitudeMeters>
            <DistanceMeters>11776.284500721</DistanceMeters>
          </Trackpoint>
          <Trackpoint>
            <Time>2021-08-01T12:35:15.000Z</Time>
            <Position>
              <LatitudeDegrees>-15.431067310273647308349609375</LatitudeDegrees>
              <LongitudeDegrees>37.0657717622816562652587890625</LongitudeDegrees>
            </Position>
            <AltitudeMeters>1170.199951171875</AltitudeMeters>
            <DistanceMeters>11777.516187711</DistanceMeters>
          </Trackpoint>
          <Trackpoint>
            <Time>2021-08-01T12:35:18.000Z</Time>
            <Position>
              <LatitudeDegrees>-15.4310433380305767059326171875</LatitudeDegrees>
              <LongitudeDegrees>37.0657754503190517425537109375</LongitudeDegrees>
            </Position>
            <AltitudeMeters>1170.199951171875</AltitudeMeters>
            <DistanceMeters>11780.214009354</DistanceMeters>
          </Trackpoint>
          <Trackpoint>
            <Time>2021-08-01T12:35:22.000Z</Time>
            <Position>
              <LatitudeDegrees>-15.43099991977214813232421875</LatitudeDegrees>
              <LongitudeDegrees>37.06577067263424396514892578125</LongitudeDegrees>
            </Position>
            <AltitudeMeters>1170.4000244140625</AltitudeMeters>
            <DistanceMeters>11785.074326213</DistanceMeters>
          </Trackpoint>
          <Trackpoint>
            <Time>2021-08-01T12:35:30.000Z</Time>
            <Position>
              <LatitudeDegrees>-15.43091283179819583892822265625</LatitudeDegrees>
              <LongitudeDegrees>37.06580738537013530731201171875</LongitudeDegrees>
            </Position>
            <AltitudeMeters>1170.199951171875</AltitudeMeters>
            <DistanceMeters>11795.537194689</DistanceMeters>
          </Trackpoint>
          <Trackpoint>
            <Time>2021-08-01T12:35:38.000Z</Time>
            <Position>
              <LatitudeDegrees>-15.43080956675112247467041015625</LatitudeDegrees>
              <LongitudeDegrees>37.06583328545093536376953125</LongitudeDegrees>
            </Position>
            <AltitudeMeters>1170.4000244140625</AltitudeMeters>
            <DistanceMeters>11807.361817459</DistanceMeters>
          </Trackpoint>
          <Trackpoint>
            <Time>2021-08-01T12:35:44.000Z</Time>
            <Position>
              <LatitudeDegrees>-15.43074938468635082244873046875</LatitudeDegrees>
              <LongitudeDegrees>37.0658609457314014434814453125</LongitudeDegrees>
            </Position>
            <AltitudeMeters>1170.4000244140625</AltitudeMeters>
            <DistanceMeters>11814.688124467</DistanceMeters>
          </Trackpoint>
          <Trackpoint>
            <Time>2021-08-01T12:35:48.000Z</Time>
            <Position>
              <LatitudeDegrees>-15.43071149848401546478271484375</LatitudeDegrees>
              <LongitudeDegrees>37.065875865519046783447265625</LongitudeDegrees>
            </Position>
            <AltitudeMeters>1170.5999755859375</AltitudeMeters>
            <DistanceMeters>11819.196638865</DistanceMeters>
          </Trackpoint>
          <Trackpoint>
            <Time>2021-08-01T12:35:50.000Z</Time>
            <Position>
              <LatitudeDegrees>-15.43069004081189632415771484375</LatitudeDegrees>
              <LongitudeDegrees>37.06588231958448886871337890625</LongitudeDegrees>
            </Position>
            <AltitudeMeters>1170.800048828125</AltitudeMeters>
            <DistanceMeters>11821.683725989</DistanceMeters>
          </Trackpoint>
          <Trackpoint>
            <Time>2021-08-01T12:35:52.000Z</Time>
            <Position>
              <LatitudeDegrees>-15.4306634701788425445556640625</LatitudeDegrees>
              <LongitudeDegrees>37.06589103676378726959228515625</LongitudeDegrees>
            </Position>
            <AltitudeMeters>1170.800048828125</AltitudeMeters>
            <DistanceMeters>11824.786315471</DistanceMeters>
          </Trackpoint>
          <Trackpoint>
            <Time>2021-08-01T12:35:57.000Z</Time>
            <Position>
              <LatitudeDegrees>-15.43061996810138225555419921875</LatitudeDegrees>
              <LongitudeDegrees>37.0659090578556060791015625</LongitudeDegrees>
            </Position>
            <AltitudeMeters>1171</AltitudeMeters>
            <DistanceMeters>11829.999810469</DistanceMeters>
          </Trackpoint>
          <Trackpoint>
            <Time>2021-08-01T12:36:06.000Z</Time>
            <Position>
              <LatitudeDegrees>-15.4305330477654933929443359375</LatitudeDegrees>
              <LongitudeDegrees>37.06595524214208126068115234375</LongitudeDegrees>
            </Position>
            <AltitudeMeters>1170.800048828125</AltitudeMeters>
            <DistanceMeters>11840.869471006</DistanceMeters>
          </Trackpoint>
          <Trackpoint>
            <Time>2021-08-01T12:36:16.000Z</Time>
            <Position>
              <LatitudeDegrees>-15.43045098893344402313232421875</LatitudeDegrees>
              <LongitudeDegrees>37.06604610197246074676513671875</LongitudeDegrees>
            </Position>
            <AltitudeMeters>1170</AltitudeMeters>
            <DistanceMeters>11854.227739629</DistanceMeters>
          </Trackpoint>
          <Trackpoint>
            <Time>2021-08-01T12:36:17.000Z</Time>
            <Position>
              <LatitudeDegrees>-15.4304440319538116455078125</LatitudeDegrees>
              <LongitudeDegrees>37.06605984829366207122802734375</LongitudeDegrees>
            </Position>
            <AltitudeMeters>1169.800048828125</AltitudeMeters>
            <DistanceMeters>11855.892742172</DistanceMeters>
          </Trackpoint>
          <Trackpoint>
            <Time>2021-08-01T12:36:19.000Z</Time>
            <Position>
              <LatitudeDegrees>-15.43042751960456371307373046875</LatitudeDegrees>
              <LongitudeDegrees>37.06607979722321033477783203125</LongitudeDegrees>
            </Position>
            <AltitudeMeters>1169.5999755859375</AltitudeMeters>
            <DistanceMeters>11858.711690074</DistanceMeters>
          </Trackpoint>
          <Trackpoint>
            <Time>2021-08-01T12:36:21.000Z</Time>
            <Position>
              <LatitudeDegrees>-15.43040622957050800323486328125</LatitudeDegrees>
              <LongitudeDegrees>37.06610142253339290618896484375</LongitudeDegrees>
            </Position>
            <AltitudeMeters>1169.5999755859375</AltitudeMeters>
            <DistanceMeters>11862.028108791</DistanceMeters>
          </Trackpoint>
          <Trackpoint>
            <Time>2021-08-01T12:36:24.000Z</Time>
            <Position>
              <LatitudeDegrees>-15.43037722818553447723388671875</LatitudeDegrees>
              <LongitudeDegrees>37.06612304784357547760009765625</LongitudeDegrees>
            </Position>
            <AltitudeMeters>1169.4000244140625</AltitudeMeters>
            <DistanceMeters>11866.004497084</DistanceMeters>
          </Trackpoint>
          <Trackpoint>
            <Time>2021-08-01T12:36:30.000Z</Time>
            <Position>
              <LatitudeDegrees>-15.4303318820893764495849609375</LatitudeDegrees>
              <LongitudeDegrees>37.0662056095898151397705078125</LongitudeDegrees>
            </Position>
            <AltitudeMeters>1169.5999755859375</AltitudeMeters>
            <DistanceMeters>11876.199406591</DistanceMeters>
          </Trackpoint>
          <Trackpoint>
            <Time>2021-08-01T12:36:35.000Z</Time>
            <Position>
              <LatitudeDegrees>-15.4302896372973918914794921875</LatitudeDegrees>
              <LongitudeDegrees>37.06625196151435375213623046875</LongitudeDegrees>
            </Position>
            <AltitudeMeters>1169.5999755859375</AltitudeMeters>
            <DistanceMeters>11883.043309463</DistanceMeters>
          </Trackpoint>
          <Trackpoint>
            <Time>2021-08-01T12:36:41.000Z</Time>
            <Position>
              <LatitudeDegrees>-15.43024781160056591033935546875</LatitudeDegrees>
              <LongitudeDegrees>37.0663154125213623046875</LongitudeDegrees>
            </Position>
            <AltitudeMeters>1169.800048828125</AltitudeMeters>
            <DistanceMeters>11891.29094948</DistanceMeters>
          </Trackpoint>
          <Trackpoint>
            <Time>2021-08-01T12:36:49.000Z</Time>
            <Position>
              <LatitudeDegrees>-15.4302058182656764984130859375</LatitudeDegrees>
              <LongitudeDegrees>37.06636511720716953277587890625</LongitudeDegrees>
            </Position>
            <AltitudeMeters>1170.199951171875</AltitudeMeters>
            <DistanceMeters>11898.381750961</DistanceMeters>
          </Trackpoint>
          <Trackpoint>
            <Time>2021-08-01T12:36:52.000Z</Time>
            <Position>
              <LatitudeDegrees>-15.4301890544593334197998046875</LatitudeDegrees>
              <LongitudeDegrees>37.0663876645267009735107421875</LongitudeDegrees>
            </Position>
            <AltitudeMeters>1170.5999755859375</AltitudeMeters>
            <DistanceMeters>11901.435939718</DistanceMeters>
          </Trackpoint>
          <Trackpoint>
            <Time>2021-08-01T12:36:53.000Z</Time>
            <Position>
              <LatitudeDegrees>-15.43018192984163761138916015625</LatitudeDegrees>
              <LongitudeDegrees>37.06639613024890422821044921875</LongitudeDegrees>
            </Position>
            <AltitudeMeters>1171</AltitudeMeters>
            <DistanceMeters>11902.641693552</DistanceMeters>
          </Trackpoint>
          <Trackpoint>
            <Time>2021-08-01T12:36:57.000Z</Time>
            <Position>
              <LatitudeDegrees>-15.43015343137085437774658203125</LatitudeDegrees>
              <LongitudeDegrees>37.06642831675708293914794921875</LongitudeDegrees>
            </Position>
            <AltitudeMeters>1171.800048828125</AltitudeMeters>
            <DistanceMeters>11907.330855113</DistanceMeters>
          </Trackpoint>
          <Trackpoint>
            <Time>2021-08-01T12:36:59.000Z</Time>
            <Position>
              <LatitudeDegrees>-15.43013214133679866790771484375</LatitudeDegrees>
              <LongitudeDegrees>37.06644658930599689483642578125</LongitudeDegrees>
            </Position>
            <AltitudeMeters>1172</AltitudeMeters>
            <DistanceMeters>11910.407138603</DistanceMeters>
          </Trackpoint>
          <Trackpoint>
            <Time>2021-08-01T12:37:01.000Z</Time>
            <Position>
              <LatitudeDegrees>-15.43011009693145751953125</LatitudeDegrees>
              <LongitudeDegrees>37.06645530648529529571533203125</LongitudeDegrees>
            </Position>
            <AltitudeMeters>1172.199951171875</AltitudeMeters>
            <DistanceMeters>11913.03200971</DistanceMeters>
          </Trackpoint>
          <Trackpoint>
            <Time>2021-08-01T12:37:05.000Z</Time>
            <Position>
              <LatitudeDegrees>-15.430068857967853546142578125</LatitudeDegrees>
              <LongitudeDegrees>37.0664708130061626434326171875</LongitudeDegrees>
            </Position>
            <AltitudeMeters>1173.199951171875</AltitudeMeters>
            <DistanceMeters>11917.913645884</DistanceMeters>
          </Trackpoint>
          <Trackpoint>
            <Time>2021-08-01T12:37:11.000Z</Time>
            <Position>
              <LatitudeDegrees>-15.43001689016819000244140625</LatitudeDegrees>
              <LongitudeDegrees>37.06649302504956722259521484375</LongitudeDegrees>
            </Position>
            <AltitudeMeters>1173.800048828125</AltitudeMeters>
            <DistanceMeters>11924.169551198</DistanceMeters>
          </Trackpoint>
          <Trackpoint>
            <Time>2021-08-01T12:37:14.000Z</Time>
            <Position>
              <LatitudeDegrees>-15.42998612858355045318603515625</LatitudeDegrees>
              <LongitudeDegrees>37.0665009878575801849365234375</LongitudeDegrees>
            </Position>
            <AltitudeMeters>1174.4000244140625</AltitudeMeters>
            <DistanceMeters>11927.699636961</DistanceMeters>
          </Trackpoint>
          <Trackpoint>
            <Time>2021-08-01T12:37:17.000Z</Time>
            <Position>
              <LatitudeDegrees>-15.4299627430737018585205078125</LatitudeDegrees>
              <LongitudeDegrees>37.0665073581039905548095703125</LongitudeDegrees>
            </Position>
            <AltitudeMeters>1174.800048828125</AltitudeMeters>
            <DistanceMeters>11930.390755931</DistanceMeters>
          </Trackpoint>
          <Trackpoint>
            <Time>2021-08-01T12:37:20.000Z</Time>
            <Position>
              <LatitudeDegrees>-15.42993952520191669464111328125</LatitudeDegrees>
              <LongitudeDegrees>37.06651599146425724029541015625</LongitudeDegrees>
            </Position>
            <AltitudeMeters>1175.199951171875</AltitudeMeters>
            <DistanceMeters>11933.136682702</DistanceMeters>
          </Trackpoint>
          <Trackpoint>
            <Time>2021-08-01T12:37:22.000Z</Time>
            <Position>
              <LatitudeDegrees>-15.42992435395717620849609375</LatitudeDegrees>
              <LongitudeDegrees>37.0665177516639232635498046875</LongitudeDegrees>
            </Position>
            <AltitudeMeters>1175.199951171875</AltitudeMeters>
            <DistanceMeters>11934.836572246</DistanceMeters>
          </Trackpoint>
          <Trackpoint>
            <Time>2021-08-01T12:37:25.000Z</Time>
            <Position>
              <LatitudeDegrees>-15.42989216744899749755859375</LatitudeDegrees>
              <LongitudeDegrees>37.06652102060616016387939453125</LongitudeDegrees>
            </Position>
            <AltitudeMeters>1175.800048828125</AltitudeMeters>
            <DistanceMeters>11938.436316639</DistanceMeters>
          </Trackpoint>
          <Trackpoint>
            <Time>2021-08-01T12:37:31.000Z</Time>
            <Position>
              <LatitudeDegrees>-15.42983408086001873016357421875</LatitudeDegrees>
              <LongitudeDegrees>37.06650794483721256256103515625</LongitudeDegrees>
            </Position>
            <AltitudeMeters>1176.5999755859375</AltitudeMeters>
            <DistanceMeters>11945.05143194</DistanceMeters>
          </Trackpoint>
          <Trackpoint>
            <Time>2021-08-01T12:37:34.000Z</Time>
            <Position>
              <LatitudeDegrees>-15.42980357073247432708740234375</LatitudeDegrees>
              <LongitudeDegrees>37.06650861538946628570556640625</LongitudeDegrees>
            </Position>
            <AltitudeMeters>1176.800048828125</AltitudeMeters>
            <DistanceMeters>11948.448553912</DistanceMeters>
          </Trackpoint>
          <Trackpoint>
            <Time>2021-08-01T12:37:38.000Z</Time>
            <Position>
              <LatitudeDegrees>-15.42975713498890399932861328125</LatitudeDegrees>
              <LongitudeDegrees>37.06650945357978343963623046875</LongitudeDegrees>
            </Position>
            <AltitudeMeters>1177</AltitudeMeters>
            <DistanceMeters>11953.618566125</DistanceMeters>
          </Trackpoint>
          <Trackpoint>
            <Time>2021-08-01T12:37:39.000Z</Time>
            <Position>
              <LatitudeDegrees>-15.429745651781558990478515625</LatitudeDegrees>
              <LongitudeDegrees>37.0665063522756099700927734375</LongitudeDegrees>
            </Position>
            <AltitudeMeters>1177.199951171875</AltitudeMeters>
            <DistanceMeters>11954.938719432</DistanceMeters>
          </Trackpoint>
          <Trackpoint>
            <Time>2021-08-01T12:37:45.000Z</Time>
            <Position>
              <LatitudeDegrees>-15.42967683635652065277099609375</LatitudeDegrees>
              <LongitudeDegrees>37.06649168394505977630615234375</LongitudeDegrees>
            </Position>
            <AltitudeMeters>1177.5999755859375</AltitudeMeters>
            <DistanceMeters>11962.757518414</DistanceMeters>
          </Trackpoint>
          <Trackpoint>
            <Time>2021-08-01T12:37:49.000Z</Time>
            <Position>
              <LatitudeDegrees>-15.429633669555187225341796875</LatitudeDegrees>
              <LongitudeDegrees>37.0664859004318714141845703125</LongitudeDegrees>
            </Position>
            <AltitudeMeters>1177.5999755859375</AltitudeMeters>
            <DistanceMeters>11967.602017219</DistanceMeters>
          </Trackpoint>
          <Trackpoint>
            <Time>2021-08-01T12:37:53.000Z</Time>
            <Position>
              <LatitudeDegrees>-15.42959846556186676025390625</LatitudeDegrees>
              <LongitudeDegrees>37.0664855651557445526123046875</LongitudeDegrees>
            </Position>
            <AltitudeMeters>1177.800048828125</AltitudeMeters>
            <DistanceMeters>11971.520069026</DistanceMeters>
          </Trackpoint>
          <Trackpoint>
            <Time>2021-08-01T12:37:59.000Z</Time>
            <Position>
              <LatitudeDegrees>-15.4295339249074459075927734375</LatitudeDegrees>
              <LongitudeDegrees>37.066492773592472076416015625</LongitudeDegrees>
            </Position>
            <AltitudeMeters>1178.5999755859375</AltitudeMeters>
            <DistanceMeters>11978.744599588</DistanceMeters>
          </Trackpoint>
          <Trackpoint>
            <Time>2021-08-01T12:38:01.000Z</Time>
            <Position>
              <LatitudeDegrees>-15.4295091144740581512451171875</LatitudeDegrees>
              <LongitudeDegrees>37.06649403087794780731201171875</LongitudeDegrees>
            </Position>
            <AltitudeMeters>1179.199951171875</AltitudeMeters>
            <DistanceMeters>11981.508554123</DistanceMeters>
          </Trackpoint>
          <Trackpoint>
            <Time>2021-08-01T12:38:11.000Z</Time>
            <Position>
              <LatitudeDegrees>-15.4294149018824100494384765625</LatitudeDegrees>
              <LongitudeDegrees>37.0665013231337070465087890625</LongitudeDegrees>
            </Position>
            <AltitudeMeters>1180.199951171875</AltitudeMeters>
            <DistanceMeters>11992.023937428</DistanceMeters>
          </Trackpoint>
          <Trackpoint>
            <Time>2021-08-01T12:38:19.000Z</Time>
            <Position>
              <LatitudeDegrees>-15.42931993491947650909423828125</LatitudeDegrees>
              <LongitudeDegrees>37.0665133930742740631103515625</LongitudeDegrees>
            </Position>
            <AltitudeMeters>1180.5999755859375</AltitudeMeters>
            <DistanceMeters>12002.672866951</DistanceMeters>
          </Trackpoint>
          <Trackpoint>
            <Time>2021-08-01T12:38:26.000Z</Time>
            <Position>
              <LatitudeDegrees>-15.4292424023151397705078125</LatitudeDegrees>
              <LongitudeDegrees>37.066521607339382171630859375</LongitudeDegrees>
            </Position>
            <AltitudeMeters>1181.199951171875</AltitudeMeters>
            <DistanceMeters>12011.346885451</DistanceMeters>
          </Trackpoint>
          <Trackpoint>
            <Time>2021-08-01T12:38:28.000Z</Time>
            <Position>
              <LatitudeDegrees>-15.42922186665236949920654296875</LatitudeDegrees>
              <LongitudeDegrees>37.066524289548397064208984375</LongitudeDegrees>
            </Position>
            <AltitudeMeters>1181.199951171875</AltitudeMeters>
            <DistanceMeters>12013.649200562</DistanceMeters>
          </Trackpoint>
          <Trackpoint>
            <Time>2021-08-01T12:38:36.000Z</Time>
            <Position>
              <LatitudeDegrees>-15.4291351139545440673828125</LatitudeDegrees>
              <LongitudeDegrees>37.06652889959514141082763671875</LongitudeDegrees>
            </Position>
            <AltitudeMeters>1181.4000244140625</AltitudeMeters>
            <DistanceMeters>12023.317205593</DistanceMeters>
          </Trackpoint>
          <Trackpoint>
            <Time>2021-08-01T12:38:38.000Z</Time>
            <Position>
              <LatitudeDegrees>-15.4291128180921077728271484375</LatitudeDegrees>
              <LongitudeDegrees>37.0665254630148410797119140625</LongitudeDegrees>
            </Position>
            <AltitudeMeters>1181.4000244140625</AltitudeMeters>
            <DistanceMeters>12025.825982841</DistanceMeters>
          </Trackpoint>
          <Trackpoint>
            <Time>2021-08-01T12:38:47.000Z</Time>
            <Position>
              <LatitudeDegrees>-15.42900745756924152374267578125</LatitudeDegrees>
              <LongitudeDegrees>37.06650442443788051605224609375</LongitudeDegrees>
            </Position>
            <AltitudeMeters>1181.199951171875</AltitudeMeters>
            <DistanceMeters>12037.768009356</DistanceMeters>
          </Trackpoint>
          <Trackpoint>
            <Time>2021-08-01T12:38:50.000Z</Time>
            <Position>
              <LatitudeDegrees>-15.42897074483335018157958984375</LatitudeDegrees>
              <LongitudeDegrees>37.066502161324024200439453125</LongitudeDegrees>
            </Position>
            <AltitudeMeters>1181</AltitudeMeters>
            <DistanceMeters>12041.862988227</DistanceMeters>
          </Trackpoint>
          <Trackpoint>
            <Time>2021-08-01T12:38:53.000Z</Time>
            <Position>
              <LatitudeDegrees>-15.42893587611615657806396484375</LatitudeDegrees>
              <LongitudeDegrees>37.0664808712899684906005859375</LongitudeDegrees>
            </Position>
            <AltitudeMeters>1180.800048828125</AltitudeMeters>
            <DistanceMeters>12046.367495056</DistanceMeters>
          </Trackpoint>
          <Trackpoint>
            <Time>2021-08-01T12:38:54.000Z</Time>
            <Position>
              <LatitudeDegrees>-15.42892388999462127685546875</LatitudeDegrees>
              <LongitudeDegrees>37.0664788596332073211669921875</LongitudeDegrees>
            </Position>
            <AltitudeMeters>1180.5999755859375</AltitudeMeters>
            <DistanceMeters>12047.721417327</DistanceMeters>
          </Trackpoint>
          <Trackpoint>
            <Time>2021-08-01T12:39:00.000Z</Time>
            <Position>
              <LatitudeDegrees>-15.428848452866077423095703125</LatitudeDegrees>
              <LongitudeDegrees>37.0664617605507373809814453125</LongitudeDegrees>
            </Position>
            <AltitudeMeters>1180.199951171875</AltitudeMeters>
            <DistanceMeters>12056.315426592</DistanceMeters>
          </Trackpoint>
          <Trackpoint>
            <Time>2021-08-01T12:39:05.000Z</Time>
            <Position>
              <LatitudeDegrees>-15.42879506014287471771240234375</LatitudeDegrees>
              <LongitudeDegrees>37.06643016077578067779541015625</LongitudeDegrees>
            </Position>
            <AltitudeMeters>1179.800048828125</AltitudeMeters>
            <DistanceMeters>12063.157350026</DistanceMeters>
          </Trackpoint>
          <Trackpoint>
            <Time>2021-08-01T12:39:14.000Z</Time>
            <Position>
              <LatitudeDegrees>-15.428698249161243438720703125</LatitudeDegrees>
              <LongitudeDegrees>37.0663816295564174652099609375</LongitudeDegrees>
            </Position>
            <AltitudeMeters>1179.5999755859375</AltitudeMeters>
            <DistanceMeters>12075.124681074</DistanceMeters>
          </Trackpoint>
          <Trackpoint>
            <Time>2021-08-01T12:39:16.000Z</Time>
            <Position>
              <LatitudeDegrees>-15.42867419309914112091064453125</LatitudeDegrees>
              <LongitudeDegrees>37.06637970171868801116943359375</LongitudeDegrees>
            </Position>
            <AltitudeMeters>1179.5999755859375</AltitudeMeters>
            <DistanceMeters>12077.812442439</DistanceMeters>
          </Trackpoint>
          <Trackpoint>
            <Time>2021-08-01T12:39:21.000Z</Time>
            <Position>
              <LatitudeDegrees>-15.42860596440732479095458984375</LatitudeDegrees>
              <LongitudeDegrees>37.06638406030833721160888671875</LongitudeDegrees>
            </Position>
            <AltitudeMeters>1179.800048828125</AltitudeMeters>
            <DistanceMeters>12085.42110987</DistanceMeters>
          </Trackpoint>
          <Trackpoint>
            <Time>2021-08-01T12:39:26.000Z</Time>
            <Position>
              <LatitudeDegrees>-15.42854578234255313873291015625</LatitudeDegrees>
              <LongitudeDegrees>37.06640937365591526031494140625</LongitudeDegrees>
            </Position>
            <AltitudeMeters>1180.199951171875</AltitudeMeters>
            <DistanceMeters>12092.648764554</DistanceMeters>
          </Trackpoint>
          <Trackpoint>
            <Time>2021-08-01T12:39:30.000Z</Time>
            <Position>
              <LatitudeDegrees>-15.4285059683024883270263671875</LatitudeDegrees>
              <LongitudeDegrees>37.06642596982419490814208984375</LongitudeDegrees>
            </Position>
            <AltitudeMeters>1180.199951171875</AltitudeMeters>
            <DistanceMeters>12097.424743312</DistanceMeters>
          </Trackpoint>
          <Trackpoint>
            <Time>2021-08-01T12:39:37.000Z</Time>
            <Position>
              <LatitudeDegrees>-15.4284513182938098907470703125</LatitudeDegrees>
              <LongitudeDegrees>37.0664517022669315338134765625</LongitudeDegrees>
            </Position>
            <AltitudeMeters>1181.199951171875</AltitudeMeters>
            <DistanceMeters>12104.105060504</DistanceMeters>
          </Trackpoint>
          <Trackpoint>
            <Time>2021-08-01T12:39:38.000Z</Time>
            <Position>
              <LatitudeDegrees>-15.42844251729547977447509765625</LatitudeDegrees>
              <LongitudeDegrees>37.06645488739013671875</LongitudeDegrees>
            </Position>
            <AltitudeMeters>1181.4000244140625</AltitudeMeters>
            <DistanceMeters>12105.141679575</DistanceMeters>
          </Trackpoint>
          <Trackpoint>
            <Time>2021-08-01T12:39:46.000Z</Time>
            <Position>
              <LatitudeDegrees>-15.4283607937395572662353515625</LatitudeDegrees>
              <LongitudeDegrees>37.0665029995143413543701171875</LongitudeDegrees>
            </Position>
            <AltitudeMeters>1181.4000244140625</AltitudeMeters>
            <DistanceMeters>12115.600663562</DistanceMeters>
          </Trackpoint>
          <Trackpoint>
            <Time>2021-08-01T12:39:51.000Z</Time>
            <Position>
              <LatitudeDegrees>-15.4283198900520801544189453125</LatitudeDegrees>
              <LongitudeDegrees>37.0665133930742740631103515625</LongitudeDegrees>
            </Position>
            <AltitudeMeters>1181</AltitudeMeters>
            <DistanceMeters>12120.286935631</DistanceMeters>
          </Trackpoint>
          <Trackpoint>
            <Time>2021-08-01T12:39:53.000Z</Time>
            <Position>
              <LatitudeDegrees>-15.4283115081489086151123046875</LatitudeDegrees>
              <LongitudeDegrees>37.06652051769196987152099609375</LongitudeDegrees>
            </Position>
            <AltitudeMeters>1180.800048828125</AltitudeMeters>
            <DistanceMeters>12121.492689465</DistanceMeters>
          </Trackpoint>
          <Trackpoint>
            <Time>2021-08-01T12:39:59.000Z</Time>
            <Position>
              <LatitudeDegrees>-15.428335480391979217529296875</LatitudeDegrees>
              <LongitudeDegrees>37.06654214300215244293212890625</LongitudeDegrees>
            </Position>
            <AltitudeMeters>1180.800048828125</AltitudeMeters>
            <DistanceMeters>12125.030441004</DistanceMeters>
          </Trackpoint>
          <Trackpoint>
            <Time>2021-08-01T12:40:07.000Z</Time>
            <Position>
              <LatitudeDegrees>-15.4283358156681060791015625</LatitudeDegrees>
              <LongitudeDegrees>37.06655907444655895233154296875</LongitudeDegrees>
            </Position>
            <AltitudeMeters>1180.800048828125</AltitudeMeters>
            <DistanceMeters>12126.845923833</DistanceMeters>
          </Trackpoint>
          <Trackpoint>
            <Time>2021-08-01T12:40:18.000Z</Time>
            <Position>
              <LatitudeDegrees>-15.42830698192119598388671875</LatitudeDegrees>
              <LongitudeDegrees>37.06660039722919464111328125</LongitudeDegrees>
            </Position>
            <AltitudeMeters>1181</AltitudeMeters>
            <DistanceMeters>12132.319660549</DistanceMeters>
          </Trackpoint>
          <Trackpoint>
            <Time>2021-08-01T12:40:27.000Z</Time>
            <Position>
              <LatitudeDegrees>-15.42830698192119598388671875</LatitudeDegrees>
              <LongitudeDegrees>37.06660039722919464111328125</LongitudeDegrees>
            </Position>
            <AltitudeMeters>1181</AltitudeMeters>
            <DistanceMeters>12132.319660549</DistanceMeters>
          </Trackpoint>
          <Trackpoint>
            <Time>2021-08-01T12:40:31.000Z</Time>
            <Position>
              <LatitudeDegrees>-15.4283044673502445220947265625</LatitudeDegrees>
              <LongitudeDegrees>37.06660182215273380279541015625</LongitudeDegrees>
            </Position>
            <AltitudeMeters>1181</AltitudeMeters>
            <DistanceMeters>12132.648842744</DistanceMeters>
          </Trackpoint>
          <Trackpoint>
            <Time>2021-08-01T12:40:34.000Z</Time>
            <Position>
              <LatitudeDegrees>-15.4282997734844684600830078125</LatitudeDegrees>
              <LongitudeDegrees>37.06660282798111438751220703125</LongitudeDegrees>
            </Position>
            <AltitudeMeters>1181.199951171875</AltitudeMeters>
            <DistanceMeters>12133.186395017</DistanceMeters>
          </Trackpoint>
          <Trackpoint>
            <Time>2021-08-01T12:40:38.000Z</Time>
            <Position>
              <LatitudeDegrees>-15.4282977618277072906494140625</LatitudeDegrees>
              <LongitudeDegrees>37.06660366617143154144287109375</LongitudeDegrees>
            </Position>
            <AltitudeMeters>1181</AltitudeMeters>
            <DistanceMeters>12133.437812071</DistanceMeters>
          </Trackpoint>
          <Trackpoint>
            <Time>2021-08-01T12:40:47.000Z</Time>
            <Position>
              <LatitudeDegrees>-15.4282977618277072906494140625</LatitudeDegrees>
              <LongitudeDegrees>37.066604085266590118408203125</LongitudeDegrees>
            </Position>
            <AltitudeMeters>1180.800048828125</AltitudeMeters>
            <DistanceMeters>12133.532838786</DistanceMeters>
          </Trackpoint>
          <Trackpoint>
            <Time>2021-08-01T12:41:04.000Z</Time>
            <Position>
              <LatitudeDegrees>-15.42829767800867557525634765625</LatitudeDegrees>
              <LongitudeDegrees>37.0665985532104969024658203125</LongitudeDegrees>
            </Position>
            <AltitudeMeters>1181.199951171875</AltitudeMeters>
            <DistanceMeters>12134.126280427</DistanceMeters>
          </Trackpoint>
          <Trackpoint>
            <Time>2021-08-01T12:41:15.000Z</Time>
            <Position>
              <LatitudeDegrees>-15.4282977618277072906494140625</LatitudeDegrees>
              <LongitudeDegrees>37.06660198979079723358154296875</LongitudeDegrees>
            </Position>
            <AltitudeMeters>1181.199951171875</AltitudeMeters>
            <DistanceMeters>12134.494317309</DistanceMeters>
          </Trackpoint>
          <Trackpoint>
            <Time>2021-08-01T12:41:25.000Z</Time>
            <Position>
              <LatitudeDegrees>-15.4283229075372219085693359375</LatitudeDegrees>
              <LongitudeDegrees>37.06661875359714031219482421875</LongitudeDegrees>
            </Position>
            <AltitudeMeters>1181.199951171875</AltitudeMeters>
            <DistanceMeters>12137.822966253</DistanceMeters>
          </Trackpoint>
          <Trackpoint>
            <Time>2021-08-01T12:41:37.000Z</Time>
            <Position>
              <LatitudeDegrees>-15.42833925224840641021728515625</LatitudeDegrees>
              <LongitudeDegrees>37.066655717790126800537109375</LongitudeDegrees>
            </Position>
            <AltitudeMeters>1181.199951171875</AltitudeMeters>
            <DistanceMeters>12142.186958831</DistanceMeters>
          </Trackpoint>
          <Trackpoint>
            <Time>2021-08-01T12:41:47.000Z</Time>
            <Position>
              <LatitudeDegrees>-15.42834780178964138031005859375</LatitudeDegrees>
              <LongitudeDegrees>37.06665831618010997772216796875</LongitudeDegrees>
            </Position>
            <AltitudeMeters>1181.199951171875</AltitudeMeters>
            <DistanceMeters>12143.179066856</DistanceMeters>
          </Trackpoint>
          <Trackpoint>
            <Time>2021-08-01T12:42:14.000Z</Time>
            <Position>
              <LatitudeDegrees>-15.4283564351499080657958984375</LatitudeDegrees>
              <LongitudeDegrees>37.06661992706358432769775390625</LongitudeDegrees>
            </Position>
            <AltitudeMeters>1181.199951171875</AltitudeMeters>
            <DistanceMeters>12147.408556357</DistanceMeters>
          </Trackpoint>
          <Trackpoint>
            <Time>2021-08-01T12:42:17.000Z</Time>
            <Position>
              <LatitudeDegrees>-15.4283574409782886505126953125</LatitudeDegrees>
              <LongitudeDegrees>37.06661657430231571197509765625</LongitudeDegrees>
            </Position>
            <AltitudeMeters>1181.199951171875</AltitudeMeters>
            <DistanceMeters>12147.788663214</DistanceMeters>
          </Trackpoint>
          <Trackpoint>
            <Time>2021-08-01T12:42:28.000Z</Time>
            <Position>
              <LatitudeDegrees>-15.428358279168605804443359375</LatitudeDegrees>
              <LongitudeDegrees>37.066613472998142242431640625</LongitudeDegrees>
            </Position>
            <AltitudeMeters>1181.199951171875</AltitudeMeters>
            <DistanceMeters>12148.131286905</DistanceMeters>
          </Trackpoint>
          <Trackpoint>
            <Time>2021-08-01T12:42:43.000Z</Time>
            <Position>
              <LatitudeDegrees>-15.42834478430449962615966796875</LatitudeDegrees>
              <LongitudeDegrees>37.06661724485456943511962890625</LongitudeDegrees>
            </Position>
            <AltitudeMeters>1181.199951171875</AltitudeMeters>
            <DistanceMeters>12149.689840903</DistanceMeters>
          </Trackpoint>
          <Trackpoint>
            <Time>2021-08-01T12:42:45.000Z</Time>
            <Position>
              <LatitudeDegrees>-15.42834176681935787200927734375</LatitudeDegrees>
              <LongitudeDegrees>37.06661741249263286590576171875</LongitudeDegrees>
            </Position>
            <AltitudeMeters>1181.199951171875</AltitudeMeters>
            <DistanceMeters>12150.019023098</DistanceMeters>
          </Trackpoint>
          <Trackpoint>
            <Time>2021-08-01T12:42:57.000Z</Time>
            <Position>
              <LatitudeDegrees>-15.42832701466977596282958984375</LatitudeDegrees>
              <LongitudeDegrees>37.0666012354195117950439453125</LongitudeDegrees>
            </Position>
            <AltitudeMeters>1181.199951171875</AltitudeMeters>
            <DistanceMeters>12152.407957654</DistanceMeters>
          </Trackpoint>
          <Trackpoint>
            <Time>2021-08-01T12:43:23.000Z</Time>
            <Position>
              <LatitudeDegrees>-15.42831997387111186981201171875</LatitudeDegrees>
              <LongitudeDegrees>37.0666039176285266876220703125</LongitudeDegrees>
            </Position>
            <AltitudeMeters>1181.199951171875</AltitudeMeters>
            <DistanceMeters>12153.247210871</DistanceMeters>
          </Trackpoint>
          <Trackpoint>
            <Time>2021-08-01T12:43:33.000Z</Time>
            <Position>
              <LatitudeDegrees>-15.42831963859498500823974609375</LatitudeDegrees>
              <LongitudeDegrees>37.066611461341381072998046875</LongitudeDegrees>
            </Position>
            <AltitudeMeters>1181.199951171875</AltitudeMeters>
            <DistanceMeters>12154.05353928</DistanceMeters>
          </Trackpoint>
          <Trackpoint>
            <Time>2021-08-01T12:43:51.000Z</Time>
            <Position>
              <LatitudeDegrees>-15.42831905186176300048828125</LatitudeDegrees>
              <LongitudeDegrees>37.06661288626492023468017578125</LongitudeDegrees>
            </Position>
            <AltitudeMeters>1181.199951171875</AltitudeMeters>
            <DistanceMeters>12154.243592709</DistanceMeters>
          </Trackpoint>
          <Trackpoint>
            <Time>2021-08-01T12:43:59.000Z</Time>
            <Position>
              <LatitudeDegrees>-15.42831905186176300048828125</LatitudeDegrees>
              <LongitudeDegrees>37.06661322154104709625244140625</LongitudeDegrees>
            </Position>
            <AltitudeMeters>1181.199951171875</AltitudeMeters>
            <DistanceMeters>12154.243592709</DistanceMeters>
          </Trackpoint>
          <Trackpoint>
            <Time>2021-08-01T12:44:13.000Z</Time>
            <Position>
              <LatitudeDegrees>-15.4283195547759532928466796875</LatitudeDegrees>
              <LongitudeDegrees>37.06661372445523738861083984375</LongitudeDegrees>
            </Position>
            <AltitudeMeters>1181.199951171875</AltitudeMeters>
            <DistanceMeters>12154.243592709</DistanceMeters>
          </Trackpoint>
          <Trackpoint>
            <Time>2021-08-01T12:44:38.000Z</Time>
            <Position>
              <LatitudeDegrees>-15.42832097969949245452880859375</LatitudeDegrees>
              <LongitudeDegrees>37.0666139759123325347900390625</LongitudeDegrees>
            </Position>
            <AltitudeMeters>1181.199951171875</AltitudeMeters>
            <DistanceMeters>12154.377980777</DistanceMeters>
          </Trackpoint>
          <Trackpoint>
            <Time>2021-08-01T12:44:48.000Z</Time>
            <Position>
              <LatitudeDegrees>-15.428321398794651031494140625</LatitudeDegrees>
              <LongitudeDegrees>37.0666139759123325347900390625</LongitudeDegrees>
            </Position>
            <AltitudeMeters>1181.199951171875</AltitudeMeters>
            <DistanceMeters>12154.377980777</DistanceMeters>
          </Trackpoint>
          <Trackpoint>
            <Time>2021-08-01T12:45:04.000Z</Time>
            <Position>
              <LatitudeDegrees>-15.42832148261368274688720703125</LatitudeDegrees>
              <LongitudeDegrees>37.06661422736942768096923828125</LongitudeDegrees>
            </Position>
            <AltitudeMeters>1181.199951171875</AltitudeMeters>
            <DistanceMeters>12154.377980777</DistanceMeters>
          </Trackpoint>
          <Trackpoint>
            <Time>2021-08-01T12:45:09.000Z</Time>
            <Position>
              <LatitudeDegrees>-15.42832148261368274688720703125</LatitudeDegrees>
              <LongitudeDegrees>37.0666143111884593963623046875</LongitudeDegrees>
            </Position>
            <AltitudeMeters>1181.199951171875</AltitudeMeters>
            <DistanceMeters>12154.377980777</DistanceMeters>
          </Trackpoint>
          <Trackpoint>
            <Time>2021-08-01T12:45:15.000Z</Time>
            <Position>
              <LatitudeDegrees>-15.42832148261368274688720703125</LatitudeDegrees>
              <LongitudeDegrees>37.06661439500749111175537109375</LongitudeDegrees>
            </Position>
            <AltitudeMeters>1181.199951171875</AltitudeMeters>
            <DistanceMeters>12154.377980777</DistanceMeters>
          </Trackpoint>
          <Trackpoint>
            <Time>2021-08-01T12:45:28.000Z</Time>
            <Position>
              <LatitudeDegrees>-15.42832248844206333160400390625</LatitudeDegrees>
              <LongitudeDegrees>37.06660936586558818817138671875</LongitudeDegrees>
            </Position>
            <AltitudeMeters>1181.199951171875</AltitudeMeters>
            <DistanceMeters>12154.932076977</DistanceMeters>
          </Trackpoint>
          <Trackpoint>
            <Time>2021-08-01T12:45:32.000Z</Time>
            <Position>
              <LatitudeDegrees>-15.4283344745635986328125</LatitudeDegrees>
              <LongitudeDegrees>37.06658740527927875518798828125</LongitudeDegrees>
            </Position>
            <AltitudeMeters>1181.199951171875</AltitudeMeters>
            <DistanceMeters>12157.639921521</DistanceMeters>
          </Trackpoint>
          <Trackpoint>
            <Time>2021-08-01T12:45:43.000Z</Time>
            <Position>
              <LatitudeDegrees>-15.4283554293215274810791015625</LatitudeDegrees>
              <LongitudeDegrees>37.06657047383487224578857421875</LongitudeDegrees>
            </Position>
            <AltitudeMeters>1181.199951171875</AltitudeMeters>
            <DistanceMeters>12160.594931491</DistanceMeters>
          </Trackpoint>
          <Trackpoint>
            <Time>2021-08-01T12:45:44.000Z</Time>
            <Position>
              <LatitudeDegrees>-15.4283587820827960968017578125</LatitudeDegrees>
              <LongitudeDegrees>37.06657432951033115386962890625</LongitudeDegrees>
            </Position>
            <AltitudeMeters>1181.199951171875</AltitudeMeters>
            <DistanceMeters>12161.149027691</DistanceMeters>
          </Trackpoint>
          <Trackpoint>
            <Time>2021-08-01T12:46:06.000Z</Time>
            <Position>
              <LatitudeDegrees>-15.4283510707318782806396484375</LatitudeDegrees>
              <LongitudeDegrees>37.066571898758411407470703125</LongitudeDegrees>
            </Position>
            <AltitudeMeters>1181.199951171875</AltitudeMeters>
            <DistanceMeters>12162.040457288</DistanceMeters>
          </Trackpoint>
          <Trackpoint>
            <Time>2021-08-01T12:46:24.000Z</Time>
            <Position>
              <LatitudeDegrees>-15.428353250026702880859375</LatitudeDegrees>
              <LongitudeDegrees>37.066586315631866455078125</LongitudeDegrees>
            </Position>
            <AltitudeMeters>1181.199951171875</AltitudeMeters>
            <DistanceMeters>12163.604794438</DistanceMeters>
          </Trackpoint>
          <Trackpoint>
            <Time>2021-08-01T12:46:42.000Z</Time>
            <Position>
              <LatitudeDegrees>-15.428369343280792236328125</LatitudeDegrees>
              <LongitudeDegrees>37.06660701893270015716552734375</LongitudeDegrees>
            </Position>
            <AltitudeMeters>1181.199951171875</AltitudeMeters>
            <DistanceMeters>12166.458761668</DistanceMeters>
          </Trackpoint>
          <Trackpoint>
            <Time>2021-08-01T12:46:51.000Z</Time>
            <Position>
              <LatitudeDegrees>-15.42836733162403106689453125</LatitudeDegrees>
              <LongitudeDegrees>37.06660978496074676513671875</LongitudeDegrees>
            </Position>
            <AltitudeMeters>1181.199951171875</AltitudeMeters>
            <DistanceMeters>12166.82679855</DistanceMeters>
          </Trackpoint>
          <Trackpoint>
            <Time>2021-08-01T12:46:55.000Z</Time>
            <Position>
              <LatitudeDegrees>-15.4283668287098407745361328125</LatitudeDegrees>
              <LongitudeDegrees>37.0666092820465564727783203125</LongitudeDegrees>
            </Position>
            <AltitudeMeters>1181.199951171875</AltitudeMeters>
            <DistanceMeters>12166.82679855</DistanceMeters>
          </Trackpoint>
          <Trackpoint>
            <Time>2021-08-01T12:47:13.000Z</Time>
            <Position>
              <LatitudeDegrees>-15.42836557142436504364013671875</LatitudeDegrees>
              <LongitudeDegrees>37.0666112937033176422119140625</LongitudeDegrees>
            </Position>
            <AltitudeMeters>1181.199951171875</AltitudeMeters>
            <DistanceMeters>12167.111878693</DistanceMeters>
          </Trackpoint>
          <Trackpoint>
            <Time>2021-08-01T12:47:22.000Z</Time>
            <Position>
              <LatitudeDegrees>-15.42836557142436504364013671875</LatitudeDegrees>
              <LongitudeDegrees>37.06661112606525421142578125</LongitudeDegrees>
            </Position>
            <AltitudeMeters>1181.199951171875</AltitudeMeters>
            <DistanceMeters>12167.111878693</DistanceMeters>
          </Trackpoint>
          <Trackpoint>
            <Time>2021-08-01T12:47:28.000Z</Time>
            <Position>
              <LatitudeDegrees>-15.42836288921535015106201171875</LatitudeDegrees>
              <LongitudeDegrees>37.06660919822752475738525390625</LongitudeDegrees>
            </Position>
            <AltitudeMeters>1181.199951171875</AltitudeMeters>
            <DistanceMeters>12167.491985551</DistanceMeters>
          </Trackpoint>
          <Trackpoint>
            <Time>2021-08-01T12:47:41.000Z</Time>
            <Position>
              <LatitudeDegrees>-15.42836154811084270477294921875</LatitudeDegrees>
              <LongitudeDegrees>37.0666042529046535491943359375</LongitudeDegrees>
            </Position>
            <AltitudeMeters>1181.199951171875</AltitudeMeters>
            <DistanceMeters>12168.054171175</DistanceMeters>
          </Trackpoint>
          <Trackpoint>
            <Time>2021-08-01T12:49:05.000Z</Time>
            <Position>
              <LatitudeDegrees>-15.42834998108446598052978515625</LatitudeDegrees>
              <LongitudeDegrees>37.0666788518428802490234375</LongitudeDegrees>
            </Position>
            <AltitudeMeters>1181.199951171875</AltitudeMeters>
            <DistanceMeters>12176.161013739</DistanceMeters>
          </Trackpoint>
          <Trackpoint>
            <Time>2021-08-01T12:49:21.000Z</Time>
            <Position>
              <LatitudeDegrees>-15.4283492267131805419921875</LatitudeDegrees>
              <LongitudeDegrees>37.0666790194809436798095703125</LongitudeDegrees>
            </Position>
            <AltitudeMeters>1181.199951171875</AltitudeMeters>
            <DistanceMeters>12176.161013739</DistanceMeters>
          </Trackpoint>
          <Trackpoint>
            <Time>2021-08-01T12:49:32.000Z</Time>
            <Position>
              <LatitudeDegrees>-15.4283487237989902496337890625</LatitudeDegrees>
              <LongitudeDegrees>37.0666790194809436798095703125</LongitudeDegrees>
            </Position>
            <AltitudeMeters>1181.199951171875</AltitudeMeters>
            <DistanceMeters>12176.161013739</DistanceMeters>
          </Trackpoint>
          <Trackpoint>
            <Time>2021-08-01T12:49:38.000Z</Time>
            <Position>
              <LatitudeDegrees>-15.42834847234189510345458984375</LatitudeDegrees>
              <LongitudeDegrees>37.06667893566191196441650390625</LongitudeDegrees>
            </Position>
            <AltitudeMeters>1181.199951171875</AltitudeMeters>
            <DistanceMeters>12176.161013739</DistanceMeters>
          </Trackpoint>
          <Trackpoint>
            <Time>2021-08-01T12:49:53.000Z</Time>
            <Position>
              <LatitudeDegrees>-15.42834780178964138031005859375</LatitudeDegrees>
              <LongitudeDegrees>37.0666786842048168182373046875</LongitudeDegrees>
            </Position>
            <AltitudeMeters>1181.199951171875</AltitudeMeters>
            <DistanceMeters>12176.256040453</DistanceMeters>
          </Trackpoint>
          <Trackpoint>
            <Time>2021-08-01T12:49:57.000Z</Time>
            <Position>
              <LatitudeDegrees>-15.42834763415157794952392578125</LatitudeDegrees>
              <LongitudeDegrees>37.06667843274772167205810546875</LongitudeDegrees>
            </Position>
            <AltitudeMeters>1181.199951171875</AltitudeMeters>
            <DistanceMeters>12176.256040453</DistanceMeters>
          </Trackpoint>
          <Trackpoint>
            <Time>2021-08-01T12:50:00.000Z</Time>
            <Position>
              <LatitudeDegrees>-15.4283390007913112640380859375</LatitudeDegrees>
              <LongitudeDegrees>37.06667541526257991790771484375</LongitudeDegrees>
            </Position>
            <AltitudeMeters>1181.199951171875</AltitudeMeters>
            <DistanceMeters>12177.266188283</DistanceMeters>
          </Trackpoint>
          <Trackpoint>
            <Time>2021-08-01T12:50:04.000Z</Time>
            <Position>
              <LatitudeDegrees>-15.4282615520060062408447265625</LatitudeDegrees>
              <LongitudeDegrees>37.06664641387760639190673828125</LongitudeDegrees>
            </Position>
            <AltitudeMeters>1181.199951171875</AltitudeMeters>
            <DistanceMeters>12186.431218075</DistanceMeters>
          </Trackpoint>
          <Trackpoint>
            <Time>2021-08-01T12:50:09.000Z</Time>
            <Position>
              <LatitudeDegrees>-15.428172536194324493408203125</LatitudeDegrees>
              <LongitudeDegrees>37.066612802445888519287109375</LongitudeDegrees>
            </Position>
            <AltitudeMeters>1181</AltitudeMeters>
            <DistanceMeters>12196.974473787</DistanceMeters>
          </Trackpoint>
          <Trackpoint>
            <Time>2021-08-01T12:50:13.000Z</Time>
            <Position>
              <LatitudeDegrees>-15.42811981402337551116943359375</LatitudeDegrees>
              <LongitudeDegrees>37.06659126095473766326904296875</LongitudeDegrees>
            </Position>
            <AltitudeMeters>1180.199951171875</AltitudeMeters>
            <DistanceMeters>12203.281413357</DistanceMeters>
          </Trackpoint>
          <Trackpoint>
            <Time>2021-08-01T12:50:14.000Z</Time>
            <Position>
              <LatitudeDegrees>-15.428111851215362548828125</LatitudeDegrees>
              <LongitudeDegrees>37.0665925182402133941650390625</LongitudeDegrees>
            </Position>
            <AltitudeMeters>1180.199951171875</AltitudeMeters>
            <DistanceMeters>12204.177893587</DistanceMeters>
          </Trackpoint>
          <Trackpoint>
            <Time>2021-08-01T12:50:17.000Z</Time>
            <Position>
              <LatitudeDegrees>-15.42807421647012233734130859375</LatitudeDegrees>
              <LongitudeDegrees>37.06657868809998035430908203125</LongitudeDegrees>
            </Position>
            <AltitudeMeters>1180</AltitudeMeters>
            <DistanceMeters>12208.620837106</DistanceMeters>
          </Trackpoint>
          <Trackpoint>
            <Time>2021-08-01T12:50:23.000Z</Time>
            <Position>
              <LatitudeDegrees>-15.42799324728548526763916015625</LatitudeDegrees>
              <LongitudeDegrees>37.0665646903216838836669921875</LongitudeDegrees>
            </Position>
            <AltitudeMeters>1179.4000244140625</AltitudeMeters>
            <DistanceMeters>12217.757249238</DistanceMeters>
          </Trackpoint>
          <Trackpoint>
            <Time>2021-08-01T12:50:33.000Z</Time>
            <Position>
              <LatitudeDegrees>-15.42786248959600925445556640625</LatitudeDegrees>
              <LongitudeDegrees>37.0665727369487285614013671875</LongitudeDegrees>
            </Position>
            <AltitudeMeters>1179.199951171875</AltitudeMeters>
            <DistanceMeters>12232.336651469</DistanceMeters>
          </Trackpoint>
          <Trackpoint>
            <Time>2021-08-01T12:50:42.000Z</Time>
            <Position>
              <LatitudeDegrees>-15.427752435207366943359375</LatitudeDegrees>
              <LongitudeDegrees>37.06660919822752475738525390625</LongitudeDegrees>
            </Position>
            <AltitudeMeters>1179.5999755859375</AltitudeMeters>
            <DistanceMeters>12245.195138926</DistanceMeters>
          </Trackpoint>
          <Trackpoint>
            <Time>2021-08-01T12:50:50.000Z</Time>
            <Position>
              <LatitudeDegrees>-15.42768630199134349822998046875</LatitudeDegrees>
              <LongitudeDegrees>37.0666535384953022003173828125</LongitudeDegrees>
            </Position>
            <AltitudeMeters>1179.4000244140625</AltitudeMeters>
            <DistanceMeters>12253.959260687</DistanceMeters>
          </Trackpoint>
          <Trackpoint>
            <Time>2021-08-01T12:50:59.000Z</Time>
            <Position>
              <LatitudeDegrees>-15.42759628035128116607666015625</LatitudeDegrees>
              <LongitudeDegrees>37.06670894287526607513427734375</LongitudeDegrees>
            </Position>
            <AltitudeMeters>1180</AltitudeMeters>
            <DistanceMeters>12265.609241328</DistanceMeters>
          </Trackpoint>
          <Trackpoint>
            <Time>2021-08-01T12:51:09.000Z</Time>
            <Position>
              <LatitudeDegrees>-15.42750273831188678741455078125</LatitudeDegrees>
              <LongitudeDegrees>37.06679175607860088348388671875</LongitudeDegrees>
            </Position>
            <AltitudeMeters>1179.4000244140625</AltitudeMeters>
            <DistanceMeters>12279.296387339</DistanceMeters>
          </Trackpoint>
          <Trackpoint>
            <Time>2021-08-01T12:51:18.000Z</Time>
            <Position>
              <LatitudeDegrees>-15.42742059566080570220947265625</LatitudeDegrees>
              <LongitudeDegrees>37.06688429228961467742919921875</LongitudeDegrees>
            </Position>
            <AltitudeMeters>1179.4000244140625</AltitudeMeters>
            <DistanceMeters>12292.793191853</DistanceMeters>
          </Trackpoint>
          <Trackpoint>
            <Time>2021-08-01T12:51:29.000Z</Time>
            <Position>
              <LatitudeDegrees>-15.42731531895697116851806640625</LatitudeDegrees>
              <LongitudeDegrees>37.0670049078762531280517578125</LongitudeDegrees>
            </Position>
            <AltitudeMeters>1180</AltitudeMeters>
            <DistanceMeters>12310.250972642</DistanceMeters>
          </Trackpoint>
          <Trackpoint>
            <Time>2021-08-01T12:51:34.000Z</Time>
            <Position>
              <LatitudeDegrees>-15.42727299034595489501953125</LatitudeDegrees>
              <LongitudeDegrees>37.0670491643249988555908203125</LongitudeDegrees>
            </Position>
            <AltitudeMeters>1180.199951171875</AltitudeMeters>
            <DistanceMeters>12316.940070397</DistanceMeters>
          </Trackpoint>
          <Trackpoint>
            <Time>2021-08-01T12:51:39.000Z</Time>
            <Position>
              <LatitudeDegrees>-15.42722412385046482086181640625</LatitudeDegrees>
              <LongitudeDegrees>37.06708051264286041259765625</LongitudeDegrees>
            </Position>
            <AltitudeMeters>1179.800048828125</AltitudeMeters>
            <DistanceMeters>12323.335163533</DistanceMeters>
          </Trackpoint>
          <Trackpoint>
            <Time>2021-08-01T12:51:45.000Z</Time>
            <Position>
              <LatitudeDegrees>-15.4271534644067287445068359375</LatitudeDegrees>
              <LongitudeDegrees>37.06710171885788440704345703125</LongitudeDegrees>
            </Position>
            <AltitudeMeters>1179.5999755859375</AltitudeMeters>
            <DistanceMeters>12331.522364363</DistanceMeters>
          </Trackpoint>
          <Trackpoint>
            <Time>2021-08-01T12:51:47.000Z</Time>
            <Position>
              <LatitudeDegrees>-15.427130497992038726806640625</LatitudeDegrees>
              <LongitudeDegrees>37.06711211241781711578369140625</LongitudeDegrees>
            </Position>
            <AltitudeMeters>1179.5999755859375</AltitudeMeters>
            <DistanceMeters>12334.312333162</DistanceMeters>
          </Trackpoint>
          <Trackpoint>
            <Time>2021-08-01T12:51:50.000Z</Time>
            <Position>
              <LatitudeDegrees>-15.42708682827651500701904296875</LatitudeDegrees>
              <LongitudeDegrees>37.067125774919986724853515625</LongitudeDegrees>
            </Position>
            <AltitudeMeters>1179.199951171875</AltitudeMeters>
            <DistanceMeters>12339.388930267</DistanceMeters>
          </Trackpoint>
          <Trackpoint>
            <Time>2021-08-01T12:51:52.000Z</Time>
            <Position>
              <LatitudeDegrees>-15.4270585812628269195556640625</LatitudeDegrees>
              <LongitudeDegrees>37.0671339891850948333740234375</LongitudeDegrees>
            </Position>
            <AltitudeMeters>1179.199951171875</AltitudeMeters>
            <DistanceMeters>12342.654587977</DistanceMeters>
          </Trackpoint>
          <Trackpoint>
            <Time>2021-08-01T12:51:59.000Z</Time>
            <Position>
              <LatitudeDegrees>-15.42698599398136138916015625</LatitudeDegrees>
              <LongitudeDegrees>37.0671443827450275421142578125</LongitudeDegrees>
            </Position>
            <AltitudeMeters>1179</AltitudeMeters>
            <DistanceMeters>12350.810294144</DistanceMeters>
          </Trackpoint>
          <Trackpoint>
            <Time>2021-08-01T12:52:00.000Z</Time>
            <Position>
              <LatitudeDegrees>-15.42697199620306491851806640625</LatitudeDegrees>
              <LongitudeDegrees>37.0671450532972812652587890625</LongitudeDegrees>
            </Position>
            <AltitudeMeters>1179</AltitudeMeters>
            <DistanceMeters>12352.371742395</DistanceMeters>
          </Trackpoint>
          <Trackpoint>
            <Time>2021-08-01T12:52:04.000Z</Time>
            <Position>
              <LatitudeDegrees>-15.4269197769463062286376953125</LatitudeDegrees>
              <LongitudeDegrees>37.0671638287603855133056640625</LongitudeDegrees>
            </Position>
            <AltitudeMeters>1179</AltitudeMeters>
            <DistanceMeters>12358.523575486</DistanceMeters>
          </Trackpoint>
          <Trackpoint>
            <Time>2021-08-01T12:52:06.000Z</Time>
            <Position>
              <LatitudeDegrees>-15.42689538560807704925537109375</LatitudeDegrees>
              <LongitudeDegrees>37.0671685226261615753173828125</LongitudeDegrees>
            </Position>
            <AltitudeMeters>1179</AltitudeMeters>
            <DistanceMeters>12361.285895995</DistanceMeters>
          </Trackpoint>
          <Trackpoint>
            <Time>2021-08-01T12:52:13.000Z</Time>
            <Position>
              <LatitudeDegrees>-15.426817350089550018310546875</LatitudeDegrees>
              <LongitudeDegrees>37.06719811074435710906982421875</LongitudeDegrees>
            </Position>
            <AltitudeMeters>1179</AltitudeMeters>
            <DistanceMeters>12370.533318551</DistanceMeters>
          </Trackpoint>
          <Trackpoint>
            <Time>2021-08-01T12:52:20.000Z</Time>
            <Position>
              <LatitudeDegrees>-15.426734872162342071533203125</LatitudeDegrees>
              <LongitudeDegrees>37.06723063252866268157958984375</LongitudeDegrees>
            </Position>
            <AltitudeMeters>1178.800048828125</AltitudeMeters>
            <DistanceMeters>12380.35422719</DistanceMeters>
          </Trackpoint>
          <Trackpoint>
            <Time>2021-08-01T12:52:30.000Z</Time>
            <Position>
              <LatitudeDegrees>-15.4266156814992427825927734375</LatitudeDegrees>
              <LongitudeDegrees>37.06728260032832622528076171875</LongitudeDegrees>
            </Position>
            <AltitudeMeters>1178.5999755859375</AltitudeMeters>
            <DistanceMeters>12394.744735975</DistanceMeters>
          </Trackpoint>
          <Trackpoint>
            <Time>2021-08-01T12:52:38.000Z</Time>
            <Position>
              <LatitudeDegrees>-15.42655608616769313812255859375</LatitudeDegrees>
              <LongitudeDegrees>37.0673043094575405120849609375</LongitudeDegrees>
            </Position>
            <AltitudeMeters>1178.800048828125</AltitudeMeters>
            <DistanceMeters>12401.774786357</DistanceMeters>
          </Trackpoint>
          <Trackpoint>
            <Time>2021-08-01T12:52:42.000Z</Time>
            <Position>
              <LatitudeDegrees>-15.4265301860868930816650390625</LatitudeDegrees>
              <LongitudeDegrees>37.06730824895203113555908203125</LongitudeDegrees>
            </Position>
            <AltitudeMeters>1178.800048828125</AltitudeMeters>
            <DistanceMeters>12404.68825025</DistanceMeters>
          </Trackpoint>
          <Trackpoint>
            <Time>2021-08-01T12:52:45.000Z</Time>
            <Position>
              <LatitudeDegrees>-15.426490791141986846923828125</LatitudeDegrees>
              <LongitudeDegrees>37.0673237554728984832763671875</LongitudeDegrees>
            </Position>
            <AltitudeMeters>1178.800048828125</AltitudeMeters>
            <DistanceMeters>12409.378374579</DistanceMeters>
          </Trackpoint>
          <Trackpoint>
            <Time>2021-08-01T12:52:57.000Z</Time>
            <Position>
              <LatitudeDegrees>-15.4263444431126117706298828125</LatitudeDegrees>
              <LongitudeDegrees>37.067367173731327056884765625</LongitudeDegrees>
            </Position>
            <AltitudeMeters>1179.199951171875</AltitudeMeters>
            <DistanceMeters>12426.320068112</DistanceMeters>
          </Trackpoint>
          <Trackpoint>
            <Time>2021-08-01T12:53:10.000Z</Time>
            <Position>
              <LatitudeDegrees>-15.42618946172297000885009765625</LatitudeDegrees>
              <LongitudeDegrees>37.0674166269600391387939453125</LongitudeDegrees>
            </Position>
            <AltitudeMeters>1179.199951171875</AltitudeMeters>
            <DistanceMeters>12444.367389998</DistanceMeters>
          </Trackpoint>
          <Trackpoint>
            <Time>2021-08-01T12:53:22.000Z</Time>
            <Position>
              <LatitudeDegrees>-15.4260497353971004486083984375</LatitudeDegrees>
              <LongitudeDegrees>37.067453004419803619384765625</LongitudeDegrees>
            </Position>
            <AltitudeMeters>1178.5999755859375</AltitudeMeters>
            <DistanceMeters>12460.4013002</DistanceMeters>
          </Trackpoint>
          <Trackpoint>
            <Time>2021-08-01T12:53:31.000Z</Time>
            <Position>
              <LatitudeDegrees>-15.42593381367623805999755859375</LatitudeDegrees>
              <LongitudeDegrees>37.06746666692197322845458984375</LongitudeDegrees>
            </Position>
            <AltitudeMeters>1178</AltitudeMeters>
            <DistanceMeters>12473.386623355</DistanceMeters>
          </Trackpoint>
          <Trackpoint>
            <Time>2021-08-01T12:53:35.000Z</Time>
            <Position>
              <LatitudeDegrees>-15.42588905431330204010009765625</LatitudeDegrees>
              <LongitudeDegrees>37.06746968440711498260498046875</LongitudeDegrees>
            </Position>
            <AltitudeMeters>1177.800048828125</AltitudeMeters>
            <DistanceMeters>12478.378014034</DistanceMeters>
          </Trackpoint>
          <Trackpoint>
            <Time>2021-08-01T12:53:47.000Z</Time>
            <Position>
              <LatitudeDegrees>-15.42573700658977031707763671875</LatitudeDegrees>
              <LongitudeDegrees>37.06747488118708133697509765625</LongitudeDegrees>
            </Position>
            <AltitudeMeters>1177</AltitudeMeters>
            <DistanceMeters>12495.310377339</DistanceMeters>
          </Trackpoint>
          <Trackpoint>
            <Time>2021-08-01T12:53:52.000Z</Time>
            <Position>
              <LatitudeDegrees>-15.42567280121147632598876953125</LatitudeDegrees>
              <LongitudeDegrees>37.06747018732130527496337890625</LongitudeDegrees>
            </Position>
            <AltitudeMeters>1176.5999755859375</AltitudeMeters>
            <DistanceMeters>12502.47466059</DistanceMeters>
          </Trackpoint>
          <Trackpoint>
            <Time>2021-08-01T12:53:58.000Z</Time>
            <Position>
              <LatitudeDegrees>-15.42560038156807422637939453125</LatitudeDegrees>
              <LongitudeDegrees>37.06746851094067096710205078125</LongitudeDegrees>
            </Position>
            <AltitudeMeters>1176.5999755859375</AltitudeMeters>
            <DistanceMeters>12510.537944685</DistanceMeters>
          </Trackpoint>
          <Trackpoint>
            <Time>2021-08-01T12:54:08.000Z</Time>
            <Position>
              <LatitudeDegrees>-15.4254740662872791290283203125</LatitudeDegrees>
              <LongitudeDegrees>37.067467756569385528564453125</LongitudeDegrees>
            </Position>
            <AltitudeMeters>1176.5999755859375</AltitudeMeters>
            <DistanceMeters>12524.597082044</DistanceMeters>
          </Trackpoint>
          <Trackpoint>
            <Time>2021-08-01T12:54:18.000Z</Time>
            <Position>
              <LatitudeDegrees>-15.42533903382718563079833984375</LatitudeDegrees>
              <LongitudeDegrees>37.06749223172664642333984375</LongitudeDegrees>
            </Position>
            <AltitudeMeters>1176.4000244140625</AltitudeMeters>
            <DistanceMeters>12539.854123388</DistanceMeters>
          </Trackpoint>
          <Trackpoint>
            <Time>2021-08-01T12:54:20.000Z</Time>
            <Position>
              <LatitudeDegrees>-15.4253129661083221435546875</LatitudeDegrees>
              <LongitudeDegrees>37.0674980990588665008544921875</LongitudeDegrees>
            </Position>
            <AltitudeMeters>1176.4000244140625</AltitudeMeters>
            <DistanceMeters>12542.822852849</DistanceMeters>
          </Trackpoint>
          <Trackpoint>
            <Time>2021-08-01T12:54:30.000Z</Time>
            <Position>
              <LatitudeDegrees>-15.42518883012235164642333984375</LatitudeDegrees>
              <LongitudeDegrees>37.0675272680819034576416015625</LongitudeDegrees>
            </Position>
            <AltitudeMeters>1177.199951171875</AltitudeMeters>
            <DistanceMeters>12556.989165668</DistanceMeters>
          </Trackpoint>
          <Trackpoint>
            <Time>2021-08-01T12:54:36.000Z</Time>
            <Position>
              <LatitudeDegrees>-15.425125546753406524658203125</LatitudeDegrees>
              <LongitudeDegrees>37.0675463788211345672607421875</LongitudeDegrees>
            </Position>
            <AltitudeMeters>1177.5999755859375</AltitudeMeters>
            <DistanceMeters>12564.32532649</DistanceMeters>
          </Trackpoint>
          <Trackpoint>
            <Time>2021-08-01T12:54:40.000Z</Time>
            <Position>
              <LatitudeDegrees>-15.425075590610504150390625</LatitudeDegrees>
              <LongitudeDegrees>37.067556269466876983642578125</LongitudeDegrees>
            </Position>
            <AltitudeMeters>1178.199951171875</AltitudeMeters>
            <DistanceMeters>12569.985601326</DistanceMeters>
          </Trackpoint>
          <Trackpoint>
            <Time>2021-08-01T12:54:42.000Z</Time>
            <Position>
              <LatitudeDegrees>-15.4250546358525753021240234375</LatitudeDegrees>
              <LongitudeDegrees>37.06756456755101680755615234375</LongitudeDegrees>
            </Position>
            <AltitudeMeters>1178.4000244140625</AltitudeMeters>
            <DistanceMeters>12572.479939449</DistanceMeters>
          </Trackpoint>
          <Trackpoint>
            <Time>2021-08-01T12:54:44.000Z</Time>
            <Position>
              <LatitudeDegrees>-15.42503527365624904632568359375</LatitudeDegrees>
              <LongitudeDegrees>37.0675728656351566314697265625</LongitudeDegrees>
            </Position>
            <AltitudeMeters>1178.4000244140625</AltitudeMeters>
            <DistanceMeters>12574.80760907</DistanceMeters>
          </Trackpoint>
          <Trackpoint>
            <Time>2021-08-01T12:54:46.000Z</Time>
            <Position>
              <LatitudeDegrees>-15.42501322925090789794921875</LatitudeDegrees>
              <LongitudeDegrees>37.0675809122622013092041015625</LongitudeDegrees>
            </Position>
            <AltitudeMeters>1178.5999755859375</AltitudeMeters>
            <DistanceMeters>12577.408287301</DistanceMeters>
          </Trackpoint>
          <Trackpoint>
            <Time>2021-08-01T12:54:48.000Z</Time>
            <Position>
              <LatitudeDegrees>-15.4249942861497402191162109375</LatitudeDegrees>
              <LongitudeDegrees>37.06758677959442138671875</LongitudeDegrees>
            </Position>
            <AltitudeMeters>1179</AltitudeMeters>
            <DistanceMeters>12579.608314794</DistanceMeters>
          </Trackpoint>
          <Trackpoint>
            <Time>2021-08-01T12:54:54.000Z</Time>
            <Position>
              <LatitudeDegrees>-15.42493301443755626678466796875</LatitudeDegrees>
              <LongitudeDegrees>37.0676087401807308197021484375</LongitudeDegrees>
            </Position>
            <AltitudeMeters>1179.199951171875</AltitudeMeters>
            <DistanceMeters>12586.824090621</DistanceMeters>
          </Trackpoint>
          <Trackpoint>
            <Time>2021-08-01T12:55:05.000Z</Time>
            <Position>
              <LatitudeDegrees>-15.4248060286045074462890625</LatitudeDegrees>
              <LongitudeDegrees>37.06765006296336650848388671875</LongitudeDegrees>
            </Position>
            <AltitudeMeters>1180.199951171875</AltitudeMeters>
            <DistanceMeters>12601.637289384</DistanceMeters>
          </Trackpoint>
          <Trackpoint>
            <Time>2021-08-01T12:55:06.000Z</Time>
            <Position>
              <LatitudeDegrees>-15.42479303665459156036376953125</LatitudeDegrees>
              <LongitudeDegrees>37.06765106879174709320068359375</LongitudeDegrees>
            </Position>
            <AltitudeMeters>1180.4000244140625</AltitudeMeters>
            <DistanceMeters>12603.084693175</DistanceMeters>
          </Trackpoint>
          <Trackpoint>
            <Time>2021-08-01T12:55:10.000Z</Time>
            <Position>
              <LatitudeDegrees>-15.4247491993010044097900390625</LatitudeDegrees>
              <LongitudeDegrees>37.06764486618340015411376953125</LongitudeDegrees>
            </Position>
            <AltitudeMeters>1180.199951171875</AltitudeMeters>
            <DistanceMeters>12608.008691068</DistanceMeters>
          </Trackpoint>
          <Trackpoint>
            <Time>2021-08-01T12:55:16.000Z</Time>
            <Position>
              <LatitudeDegrees>-15.42466881684958934783935546875</LatitudeDegrees>
              <LongitudeDegrees>37.0676037110388278961181640625</LongitudeDegrees>
            </Position>
            <AltitudeMeters>1179.199951171875</AltitudeMeters>
            <DistanceMeters>12617.986043558</DistanceMeters>
          </Trackpoint>
          <Trackpoint>
            <Time>2021-08-01T12:55:17.000Z</Time>
            <Position>
              <LatitudeDegrees>-15.42465708218514919281005859375</LatitudeDegrees>
              <LongitudeDegrees>37.06759742461144924163818359375</LongitudeDegrees>
            </Position>
            <AltitudeMeters>1179</AltitudeMeters>
            <DistanceMeters>12619.455120912</DistanceMeters>
          </Trackpoint>
          <Trackpoint>
            <Time>2021-08-01T12:55:21.000Z</Time>
            <Position>
              <LatitudeDegrees>-15.424610562622547149658203125</LatitudeDegrees>
              <LongitudeDegrees>37.0675715245306491851806640625</LongitudeDegrees>
            </Position>
            <AltitudeMeters>1178</AltitudeMeters>
            <DistanceMeters>12625.331430325</DistanceMeters>
          </Trackpoint>
          <Trackpoint>
            <Time>2021-08-01T12:55:25.000Z</Time>
            <Position>
              <LatitudeDegrees>-15.42456789873540401458740234375</LatitudeDegrees>
              <LongitudeDegrees>37.067550905048847198486328125</LongitudeDegrees>
            </Position>
            <AltitudeMeters>1177.800048828125</AltitudeMeters>
            <DistanceMeters>12630.57084178</DistanceMeters>
          </Trackpoint>
          <Trackpoint>
            <Time>2021-08-01T12:55:30.000Z</Time>
            <Position>
              <LatitudeDegrees>-15.424516014754772186279296875</LatitudeDegrees>
              <LongitudeDegrees>37.067523412406444549560546875</LongitudeDegrees>
            </Position>
            <AltitudeMeters>1177.4000244140625</AltitudeMeters>
            <DistanceMeters>12637.054979033</DistanceMeters>
          </Trackpoint>
          <Trackpoint>
            <Time>2021-08-01T12:55:31.000Z</Time>
            <Position>
              <LatitudeDegrees>-15.42450428009033203125</LatitudeDegrees>
              <LongitudeDegrees>37.06751913763582706451416015625</LongitudeDegrees>
            </Position>
            <AltitudeMeters>1176.5999755859375</AltitudeMeters>
            <DistanceMeters>12638.435321791</DistanceMeters>
          </Trackpoint>
          <Trackpoint>
            <Time>2021-08-01T12:55:32.000Z</Time>
            <Position>
              <LatitudeDegrees>-15.4244923777878284454345703125</LatitudeDegrees>
              <LongitudeDegrees>37.06751343794167041778564453125</LongitudeDegrees>
            </Position>
            <AltitudeMeters>1176.4000244140625</AltitudeMeters>
            <DistanceMeters>12639.895149877</DistanceMeters>
          </Trackpoint>
          <Trackpoint>
            <Time>2021-08-01T12:55:35.000Z</Time>
            <Position>
              <LatitudeDegrees>-15.42444971390068531036376953125</LatitudeDegrees>
              <LongitudeDegrees>37.0674942433834075927734375</LongitudeDegrees>
            </Position>
            <AltitudeMeters>1176.199951171875</AltitudeMeters>
            <DistanceMeters>12645.070399314</DistanceMeters>
          </Trackpoint>
          <Trackpoint>
            <Time>2021-08-01T12:55:36.000Z</Time>
            <Position>
              <LatitudeDegrees>-15.4244363866746425628662109375</LatitudeDegrees>
              <LongitudeDegrees>37.067487537860870361328125</LongitudeDegrees>
            </Position>
            <AltitudeMeters>1176.199951171875</AltitudeMeters>
            <DistanceMeters>12646.721787544</DistanceMeters>
          </Trackpoint>
          <Trackpoint>
            <Time>2021-08-01T12:55:37.000Z</Time>
            <Position>
              <LatitudeDegrees>-15.42442188598215579986572265625</LatitudeDegrees>
              <LongitudeDegrees>37.0674809999763965606689453125</LongitudeDegrees>
            </Position>
            <AltitudeMeters>1175.800048828125</AltitudeMeters>
            <DistanceMeters>12648.484270536</DistanceMeters>
          </Trackpoint>
          <Trackpoint>
            <Time>2021-08-01T12:55:39.000Z</Time>
            <Position>
              <LatitudeDegrees>-15.42439288459718227386474609375</LatitudeDegrees>
              <LongitudeDegrees>37.06746968440711498260498046875</LongitudeDegrees>
            </Position>
            <AltitudeMeters>1175.5999755859375</AltitudeMeters>
            <DistanceMeters>12651.934146005</DistanceMeters>
          </Trackpoint>
          <Trackpoint>
            <Time>2021-08-01T12:55:44.000Z</Time>
            <Position>
              <LatitudeDegrees>-15.42432767339050769805908203125</LatitudeDegrees>
              <LongitudeDegrees>37.0674484781920909881591796875</LongitudeDegrees>
            </Position>
            <AltitudeMeters>1175</AltitudeMeters>
            <DistanceMeters>12659.539845822</DistanceMeters>
          </Trackpoint>
          <Trackpoint>
            <Time>2021-08-01T12:55:46.000Z</Time>
            <Position>
              <LatitudeDegrees>-15.42430420406162738800048828125</LatitudeDegrees>
              <LongitudeDegrees>37.06744252704083919525146484375</LongitudeDegrees>
            </Position>
            <AltitudeMeters>1174.4000244140625</AltitudeMeters>
            <DistanceMeters>12662.230964791</DistanceMeters>
          </Trackpoint>
          <Trackpoint>
            <Time>2021-08-01T12:55:53.000Z</Time>
            <Position>
              <LatitudeDegrees>-15.4242127574980258941650390625</LatitudeDegrees>
              <LongitudeDegrees>37.06744219176471233367919921875</LongitudeDegrees>
            </Position>
            <AltitudeMeters>1173.199951171875</AltitudeMeters>
            <DistanceMeters>12672.409474851</DistanceMeters>
          </Trackpoint>
          <Trackpoint>
            <Time>2021-08-01T12:55:56.000Z</Time>
            <Position>
              <LatitudeDegrees>-15.4241731949150562286376953125</LatitudeDegrees>
              <LongitudeDegrees>37.06744470633566379547119140625</LongitudeDegrees>
            </Position>
            <AltitudeMeters>1172.5999755859375</AltitudeMeters>
            <DistanceMeters>12676.821826244</DistanceMeters>
          </Trackpoint>
          <Trackpoint>
            <Time>2021-08-01T12:56:04.000Z</Time>
            <Position>
              <LatitudeDegrees>-15.42405626736581325531005859375</LatitudeDegrees>
              <LongitudeDegrees>37.06746934913098812103271484375</LongitudeDegrees>
            </Position>
            <AltitudeMeters>1172</AltitudeMeters>
            <DistanceMeters>12690.101788328</DistanceMeters>
          </Trackpoint>
          <Trackpoint>
            <Time>2021-08-01T12:56:08.000Z</Time>
            <Position>
              <LatitudeDegrees>-15.42400513775646686553955078125</LatitudeDegrees>
              <LongitudeDegrees>37.06748058088123798370361328125</LongitudeDegrees>
            </Position>
            <AltitudeMeters>1171.5999755859375</AltitudeMeters>
            <DistanceMeters>12695.918634246</DistanceMeters>
          </Trackpoint>
          <Trackpoint>
            <Time>2021-08-01T12:56:14.000Z</Time>
            <Position>
              <LatitudeDegrees>-15.42393372394144535064697265625</LatitudeDegrees>
              <LongitudeDegrees>37.067483849823474884033203125</LongitudeDegrees>
            </Position>
            <AltitudeMeters>1171.199951171875</AltitudeMeters>
            <DistanceMeters>12703.874816488</DistanceMeters>
          </Trackpoint>
          <Trackpoint>
            <Time>2021-08-01T12:56:15.000Z</Time>
            <Position>
              <LatitudeDegrees>-15.42392014525830745697021484375</LatitudeDegrees>
              <LongitudeDegrees>37.06748418509960174560546875</LongitudeDegrees>
            </Position>
            <AltitudeMeters>1171</AltitudeMeters>
            <DistanceMeters>12705.38630891</DistanceMeters>
          </Trackpoint>
          <Trackpoint>
            <Time>2021-08-01T12:56:19.000Z</Time>
            <Position>
              <LatitudeDegrees>-15.4238779842853546142578125</LatitudeDegrees>
              <LongitudeDegrees>37.067483849823474884033203125</LongitudeDegrees>
            </Position>
            <AltitudeMeters>1170.800048828125</AltitudeMeters>
            <DistanceMeters>12710.079320357</DistanceMeters>
          </Trackpoint>
          <Trackpoint>
            <Time>2021-08-01T12:56:23.000Z</Time>
            <Position>
              <LatitudeDegrees>-15.423834733664989471435546875</LatitudeDegrees>
              <LongitudeDegrees>37.06749013625085353851318359375</LongitudeDegrees>
            </Position>
            <AltitudeMeters>1170.5999755859375</AltitudeMeters>
            <DistanceMeters>12714.939637217</DistanceMeters>
          </Trackpoint>
          <Trackpoint>
            <Time>2021-08-01T12:56:28.000Z</Time>
            <Position>
              <LatitudeDegrees>-15.42376709170639514923095703125</LatitudeDegrees>
              <LongitudeDegrees>37.06749164499342441558837890625</LongitudeDegrees>
            </Position>
            <AltitudeMeters>1170.199951171875</AltitudeMeters>
            <DistanceMeters>12722.470167084</DistanceMeters>
          </Trackpoint>
          <Trackpoint>
            <Time>2021-08-01T12:56:30.000Z</Time>
            <Position>
              <LatitudeDegrees>-15.42374094016849994659423828125</LatitudeDegrees>
              <LongitudeDegrees>37.06749633885920047760009765625</LongitudeDegrees>
            </Position>
            <AltitudeMeters>1170.4000244140625</AltitudeMeters>
            <DistanceMeters>12725.423648732</DistanceMeters>
          </Trackpoint>
          <Trackpoint>
            <Time>2021-08-01T12:56:35.000Z</Time>
            <Position>
              <LatitudeDegrees>-15.42368344031274318695068359375</LatitudeDegrees>
              <LongitudeDegrees>37.0675024576485157012939453125</LongitudeDegrees>
            </Position>
            <AltitudeMeters>1170</AltitudeMeters>
            <DistanceMeters>12731.856753763</DistanceMeters>
          </Trackpoint>
          <Trackpoint>
            <Time>2021-08-01T12:56:38.000Z</Time>
            <Position>
              <LatitudeDegrees>-15.423642285168170928955078125</LatitudeDegrees>
              <LongitudeDegrees>37.06750690005719661712646484375</LongitudeDegrees>
            </Position>
            <AltitudeMeters>1170</AltitudeMeters>
            <DistanceMeters>12736.461383986</DistanceMeters>
          </Trackpoint>
          <Trackpoint>
            <Time>2021-08-01T12:56:39.000Z</Time>
            <Position>
              <LatitudeDegrees>-15.42362987995147705078125</LatitudeDegrees>
              <LongitudeDegrees>37.067506648600101470947265625</LongitudeDegrees>
            </Position>
            <AltitudeMeters>1170</AltitudeMeters>
            <DistanceMeters>12737.841726744</DistanceMeters>
          </Trackpoint>
          <Trackpoint>
            <Time>2021-08-01T12:56:42.000Z</Time>
            <Position>
              <LatitudeDegrees>-15.4235938377678394317626953125</LatitudeDegrees>
              <LongitudeDegrees>37.06751100718975067138671875</LongitudeDegrees>
            </Position>
            <AltitudeMeters>1170</AltitudeMeters>
            <DistanceMeters>12741.880082605</DistanceMeters>
          </Trackpoint>
          <Trackpoint>
            <Time>2021-08-01T12:56:55.000Z</Time>
            <Position>
              <LatitudeDegrees>-15.42342678643763065338134765625</LatitudeDegrees>
              <LongitudeDegrees>37.06751712597906589508056640625</LongitudeDegrees>
            </Position>
            <AltitudeMeters>1169.5999755859375</AltitudeMeters>
            <DistanceMeters>12760.484459243</DistanceMeters>
          </Trackpoint>
          <Trackpoint>
            <Time>2021-08-01T12:57:04.000Z</Time>
            <Position>
              <LatitudeDegrees>-15.42331597767770290374755859375</LatitudeDegrees>
              <LongitudeDegrees>37.06750698387622833251953125</LongitudeDegrees>
            </Position>
            <AltitudeMeters>1169.4000244140625</AltitudeMeters>
            <DistanceMeters>12772.865677992</DistanceMeters>
          </Trackpoint>
          <Trackpoint>
            <Time>2021-08-01T12:57:11.000Z</Time>
            <Position>
              <LatitudeDegrees>-15.42325244285166263580322265625</LatitudeDegrees>
              <LongitudeDegrees>37.06746951676905155181884765625</LongitudeDegrees>
            </Position>
            <AltitudeMeters>1169</AltitudeMeters>
            <DistanceMeters>12781.000319974</DistanceMeters>
          </Trackpoint>
          <Trackpoint>
            <Time>2021-08-01T12:57:12.000Z</Time>
            <Position>
              <LatitudeDegrees>-15.4232454858720302581787109375</LatitudeDegrees>
              <LongitudeDegrees>37.06745736300945281982421875</LongitudeDegrees>
            </Position>
            <AltitudeMeters>1168.800048828125</AltitudeMeters>
            <DistanceMeters>12782.517774914</DistanceMeters>
          </Trackpoint>
          <Trackpoint>
            <Time>2021-08-01T12:57:20.000Z</Time>
            <Position>
              <LatitudeDegrees>-15.4231221042573451995849609375</LatitudeDegrees>
              <LongitudeDegrees>37.06741771660745143890380859375</LongitudeDegrees>
            </Position>
            <AltitudeMeters>1168.5999755859375</AltitudeMeters>
            <DistanceMeters>12796.894157965</DistanceMeters>
          </Trackpoint>
          <Trackpoint>
            <Time>2021-08-01T12:57:29.000Z</Time>
            <Position>
              <LatitudeDegrees>-15.423024706542491912841796875</LatitudeDegrees>
              <LongitudeDegrees>37.0673654973506927490234375</LongitudeDegrees>
            </Position>
            <AltitudeMeters>1168.4000244140625</AltitudeMeters>
            <DistanceMeters>12809.096860968</DistanceMeters>
          </Trackpoint>
          <Trackpoint>
            <Time>2021-08-01T12:57:36.000Z</Time>
            <Position>
              <LatitudeDegrees>-15.42295035906136035919189453125</LatitudeDegrees>
              <LongitudeDegrees>37.06732861697673797607421875</LongitudeDegrees>
            </Position>
            <AltitudeMeters>1168.4000244140625</AltitudeMeters>
            <DistanceMeters>12818.269277346</DistanceMeters>
          </Trackpoint>
          <Trackpoint>
            <Time>2021-08-01T12:57:44.000Z</Time>
            <Position>
              <LatitudeDegrees>-15.42284642346203327178955078125</LatitudeDegrees>
              <LongitudeDegrees>37.067318893969058990478515625</LongitudeDegrees>
            </Position>
            <AltitudeMeters>1168</AltitudeMeters>
            <DistanceMeters>12829.884714151</DistanceMeters>
          </Trackpoint>
          <Trackpoint>
            <Time>2021-08-01T12:57:45.000Z</Time>
            <Position>
              <LatitudeDegrees>-15.4228361137211322784423828125</LatitudeDegrees>
              <LongitudeDegrees>37.0673234201967716217041015625</LongitudeDegrees>
            </Position>
            <AltitudeMeters>1167.800048828125</AltitudeMeters>
            <DistanceMeters>12831.130977826</DistanceMeters>
          </Trackpoint>
          <Trackpoint>
            <Time>2021-08-01T12:57:46.000Z</Time>
            <Position>
              <LatitudeDegrees>-15.422822535037994384765625</LatitudeDegrees>
              <LongitudeDegrees>37.06732417456805706024169921875</LongitudeDegrees>
            </Position>
            <AltitudeMeters>1167.800048828125</AltitudeMeters>
            <DistanceMeters>12832.645454441</DistanceMeters>
          </Trackpoint>
          <Trackpoint>
            <Time>2021-08-01T12:57:51.000Z</Time>
            <Position>
              <LatitudeDegrees>-15.42276822030544281005859375</LatitudeDegrees>
              <LongitudeDegrees>37.06732995808124542236328125</LongitudeDegrees>
            </Position>
            <AltitudeMeters>1167.5999755859375</AltitudeMeters>
            <DistanceMeters>12838.722708151</DistanceMeters>
          </Trackpoint>
          <Trackpoint>
            <Time>2021-08-01T12:57:52.000Z</Time>
            <Position>
              <LatitudeDegrees>-15.42276076041162014007568359375</LatitudeDegrees>
              <LongitudeDegrees>37.06732668913900852203369140625</LongitudeDegrees>
            </Position>
            <AltitudeMeters>1167.5999755859375</AltitudeMeters>
            <DistanceMeters>12839.624210719</DistanceMeters>
          </Trackpoint>
          <Trackpoint>
            <Time>2021-08-01T12:57:53.000Z</Time>
            <Position>
              <LatitudeDegrees>-15.4227496124804019927978515625</LatitudeDegrees>
              <LongitudeDegrees>37.0673237554728984832763671875</LongitudeDegrees>
            </Position>
            <AltitudeMeters>1167.5999755859375</AltitudeMeters>
            <DistanceMeters>12840.906191184</DistanceMeters>
          </Trackpoint>
          <Trackpoint>
            <Time>2021-08-01T12:57:59.000Z</Time>
            <Position>
              <LatitudeDegrees>-15.42267476208508014678955078125</LatitudeDegrees>
              <LongitudeDegrees>37.06730975769460201263427734375</LongitudeDegrees>
            </Position>
            <AltitudeMeters>1167</AltitudeMeters>
            <DistanceMeters>12849.371572844</DistanceMeters>
          </Trackpoint>
          <Trackpoint>
            <Time>2021-08-01T12:58:06.000Z</Time>
            <Position>
              <LatitudeDegrees>-15.4225937090814113616943359375</LatitudeDegrees>
              <LongitudeDegrees>37.06728645600378513336181640625</LongitudeDegrees>
            </Position>
            <AltitudeMeters>1166.800048828125</AltitudeMeters>
            <DistanceMeters>12858.732548318</DistanceMeters>
          </Trackpoint>
          <Trackpoint>
            <Time>2021-08-01T12:58:09.000Z</Time>
            <Position>
              <LatitudeDegrees>-15.42256261222064495086669921875</LatitudeDegrees>
              <LongitudeDegrees>37.06728058867156505584716796875</LongitudeDegrees>
            </Position>
            <AltitudeMeters>1166.800048828125</AltitudeMeters>
            <DistanceMeters>12862.24982066</DistanceMeters>
          </Trackpoint>
          <Trackpoint>
            <Time>2021-08-01T12:58:17.000Z</Time>
            <Position>
              <LatitudeDegrees>-15.42244291864335536956787109375</LatitudeDegrees>
              <LongitudeDegrees>37.06728343851864337921142578125</LongitudeDegrees>
            </Position>
            <AltitudeMeters>1166.4000244140625</AltitudeMeters>
            <DistanceMeters>12875.575263361</DistanceMeters>
          </Trackpoint>
          <Trackpoint>
            <Time>2021-08-01T12:58:20.000Z</Time>
            <Position>
              <LatitudeDegrees>-15.422409810125827789306640625</LatitudeDegrees>
              <LongitudeDegrees>37.06728846766054630279541015625</LongitudeDegrees>
            </Position>
            <AltitudeMeters>1166.800048828125</AltitudeMeters>
            <DistanceMeters>12879.300746886</DistanceMeters>
          </Trackpoint>
          <Trackpoint>
            <Time>2021-08-01T12:58:24.000Z</Time>
            <Position>
              <LatitudeDegrees>-15.4223533160984516143798828125</LatitudeDegrees>
              <LongitudeDegrees>37.0672768168151378631591796875</LongitudeDegrees>
            </Position>
            <AltitudeMeters>1167</AltitudeMeters>
            <DistanceMeters>12885.712057826</DistanceMeters>
          </Trackpoint>
          <Trackpoint>
            <Time>2021-08-01T12:58:29.000Z</Time>
            <Position>
              <LatitudeDegrees>-15.42227544821798801422119140625</LatitudeDegrees>
              <LongitudeDegrees>37.067267596721649169921875</LongitudeDegrees>
            </Position>
            <AltitudeMeters>1166.800048828125</AltitudeMeters>
            <DistanceMeters>12894.435903553</DistanceMeters>
          </Trackpoint>
          <Trackpoint>
            <Time>2021-08-01T12:58:31.000Z</Time>
            <Position>
              <LatitudeDegrees>-15.4222510568797588348388671875</LatitudeDegrees>
              <LongitudeDegrees>37.0672580413520336151123046875</LongitudeDegrees>
            </Position>
            <AltitudeMeters>1167</AltitudeMeters>
            <DistanceMeters>12897.336943237</DistanceMeters>
          </Trackpoint>
          <Trackpoint>
            <Time>2021-08-01T12:58:35.000Z</Time>
            <Position>
              <LatitudeDegrees>-15.4222061298787593841552734375</LatitudeDegrees>
              <LongitudeDegrees>37.06725192256271839141845703125</LongitudeDegrees>
            </Position>
            <AltitudeMeters>1167</AltitudeMeters>
            <DistanceMeters>12902.3787351</DistanceMeters>
          </Trackpoint>
          <Trackpoint>
            <Time>2021-08-01T12:58:37.000Z</Time>
            <Position>
              <LatitudeDegrees>-15.422173440456390380859375</LatitudeDegrees>
              <LongitudeDegrees>37.06725594587624073028564453125</LongitudeDegrees>
            </Position>
            <AltitudeMeters>1167</AltitudeMeters>
            <DistanceMeters>12906.041888604</DistanceMeters>
          </Trackpoint>
          <Trackpoint>
            <Time>2021-08-01T12:58:39.000Z</Time>
            <Position>
              <LatitudeDegrees>-15.42213815264403820037841796875</LatitudeDegrees>
              <LongitudeDegrees>37.0672499947249889373779296875</LongitudeDegrees>
            </Position>
            <AltitudeMeters>1167</AltitudeMeters>
            <DistanceMeters>12910.021681825</DistanceMeters>
          </Trackpoint>
          <Trackpoint>
            <Time>2021-08-01T12:58:42.000Z</Time>
            <Position>
              <LatitudeDegrees>-15.4221015237271785736083984375</LatitudeDegrees>
              <LongitudeDegrees>37.0672422833740711212158203125</LongitudeDegrees>
            </Position>
            <AltitudeMeters>1167</AltitudeMeters>
            <DistanceMeters>12914.182289539</DistanceMeters>
          </Trackpoint>
          <Trackpoint>
            <Time>2021-08-01T12:58:45.000Z</Time>
            <Position>
              <LatitudeDegrees>-15.42207797057926654815673828125</LatitudeDegrees>
              <LongitudeDegrees>37.06723616458475589752197265625</LongitudeDegrees>
            </Position>
            <AltitudeMeters>1167.199951171875</AltitudeMeters>
            <DistanceMeters>12916.88345628</DistanceMeters>
          </Trackpoint>
          <Trackpoint>
            <Time>2021-08-01T12:58:46.000Z</Time>
            <Position>
              <LatitudeDegrees>-15.42206950485706329345703125</LatitudeDegrees>
              <LongitudeDegrees>37.06723683513700962066650390625</LongitudeDegrees>
            </Position>
            <AltitudeMeters>1167.199951171875</AltitudeMeters>
            <DistanceMeters>12917.82896015</DistanceMeters>
          </Trackpoint>
          <Trackpoint>
            <Time>2021-08-01T12:58:57.000Z</Time>
            <Position>
              <LatitudeDegrees>-15.422011502087116241455078125</LatitudeDegrees>
              <LongitudeDegrees>37.06723029725253582000732421875</LongitudeDegrees>
            </Position>
            <AltitudeMeters>1167.199951171875</AltitudeMeters>
            <DistanceMeters>12924.322838575</DistanceMeters>
          </Trackpoint>
          <Trackpoint>
            <Time>2021-08-01T12:59:04.000Z</Time>
            <Position>
              <LatitudeDegrees>-15.42197722010314464569091796875</LatitudeDegrees>
              <LongitudeDegrees>37.0672251842916011810302734375</LongitudeDegrees>
            </Position>
            <AltitudeMeters>1167.5999755859375</AltitudeMeters>
            <DistanceMeters>12928.176989032</DistanceMeters>
          </Trackpoint>
          <Trackpoint>
            <Time>2021-08-01T12:59:07.000Z</Time>
            <Position>
              <LatitudeDegrees>-15.4219441115856170654296875</LatitudeDegrees>
              <LongitudeDegrees>37.0672245137393474578857421875</LongitudeDegrees>
            </Position>
            <AltitudeMeters>1167.800048828125</AltitudeMeters>
            <DistanceMeters>12931.863486699</DistanceMeters>
          </Trackpoint>
          <Trackpoint>
            <Time>2021-08-01T12:59:11.000Z</Time>
            <Position>
              <LatitudeDegrees>-15.42192022316157817840576171875</LatitudeDegrees>
              <LongitudeDegrees>37.0672070793807506561279296875</LongitudeDegrees>
            </Position>
            <AltitudeMeters>1168</AltitudeMeters>
            <DistanceMeters>12935.115289202</DistanceMeters>
          </Trackpoint>
          <Trackpoint>
            <Time>2021-08-01T12:59:14.000Z</Time>
            <Position>
              <LatitudeDegrees>-15.421887449920177459716796875</LatitudeDegrees>
              <LongitudeDegrees>37.06720749847590923309326171875</LongitudeDegrees>
            </Position>
            <AltitudeMeters>1168</AltitudeMeters>
            <DistanceMeters>12938.762384293</DistanceMeters>
          </Trackpoint>
          <Trackpoint>
            <Time>2021-08-01T12:59:16.000Z</Time>
            <Position>
              <LatitudeDegrees>-15.4218698479235172271728515625</LatitudeDegrees>
              <LongitudeDegrees>37.0672107674181461334228515625</LongitudeDegrees>
            </Position>
            <AltitudeMeters>1168</AltitudeMeters>
            <DistanceMeters>12940.751146089</DistanceMeters>
          </Trackpoint>
          <Trackpoint>
            <Time>2021-08-01T12:59:19.000Z</Time>
            <Position>
              <LatitudeDegrees>-15.42183606885373592376708984375</LatitudeDegrees>
              <LongitudeDegrees>37.0671980269253253936767578125</LongitudeDegrees>
            </Position>
            <AltitudeMeters>1168.199951171875</AltitudeMeters>
            <DistanceMeters>12944.751308018</DistanceMeters>
          </Trackpoint>
          <Trackpoint>
            <Time>2021-08-01T12:59:21.000Z</Time>
            <Position>
              <LatitudeDegrees>-15.42180874384939670562744140625</LatitudeDegrees>
              <LongitudeDegrees>37.06719274632632732391357421875</LongitudeDegrees>
            </Position>
            <AltitudeMeters>1168.199951171875</AltitudeMeters>
            <DistanceMeters>12947.843693983</DistanceMeters>
          </Trackpoint>
          <Trackpoint>
            <Time>2021-08-01T12:59:23.000Z</Time>
            <Position>
              <LatitudeDegrees>-15.42177957482635974884033203125</LatitudeDegrees>
              <LongitudeDegrees>37.06720464862883090972900390625</LongitudeDegrees>
            </Position>
            <AltitudeMeters>1168.199951171875</AltitudeMeters>
            <DistanceMeters>12951.332611157</DistanceMeters>
          </Trackpoint>
          <Trackpoint>
            <Time>2021-08-01T12:59:27.000Z</Time>
            <Position>
              <LatitudeDegrees>-15.42180773802101612091064453125</LatitudeDegrees>
              <LongitudeDegrees>37.06720012240111827850341796875</LongitudeDegrees>
            </Position>
            <AltitudeMeters>1168.199951171875</AltitudeMeters>
            <DistanceMeters>12954.505706686</DistanceMeters>
          </Trackpoint>
          <Trackpoint>
            <Time>2021-08-01T12:59:33.000Z</Time>
            <Position>
              <LatitudeDegrees>-15.4218155331909656524658203125</LatitudeDegrees>
              <LongitudeDegrees>37.06718436442315578460693359375</LongitudeDegrees>
            </Position>
            <AltitudeMeters>1168.199951171875</AltitudeMeters>
            <DistanceMeters>12956.408615158</DistanceMeters>
          </Trackpoint>
          <Trackpoint>
            <Time>2021-08-01T12:59:35.000Z</Time>
            <Position>
              <LatitudeDegrees>-15.4218155331909656524658203125</LatitudeDegrees>
              <LongitudeDegrees>37.06718436442315578460693359375</LongitudeDegrees>
            </Position>
            <AltitudeMeters>1168.199951171875</AltitudeMeters>
            <DistanceMeters>12956.503641872</DistanceMeters>
          </Trackpoint>
          <Trackpoint>
            <Time>2021-08-01T12:59:42.000Z</Time>
            <Position>
              <LatitudeDegrees>-15.42181276716291904449462890625</LatitudeDegrees>
              <LongitudeDegrees>37.06718914210796356201171875</LongitudeDegrees>
            </Position>
            <AltitudeMeters>1168.4000244140625</AltitudeMeters>
            <DistanceMeters>12957.104643584</DistanceMeters>
          </Trackpoint>
          <Trackpoint>
            <Time>2021-08-01T12:59:45.000Z</Time>
            <Position>
              <LatitudeDegrees>-15.42179566808044910430908203125</LatitudeDegrees>
              <LongitudeDegrees>37.0672318898141384124755859375</LongitudeDegrees>
            </Position>
            <AltitudeMeters>1168.4000244140625</AltitudeMeters>
            <DistanceMeters>12962.071550956</DistanceMeters>
          </Trackpoint>
          <Trackpoint>
            <Time>2021-08-01T12:59:47.000Z</Time>
            <Position>
              <LatitudeDegrees>-15.42177219875156879425048828125</LatitudeDegrees>
              <LongitudeDegrees>37.06726013682782649993896484375</LongitudeDegrees>
            </Position>
            <AltitudeMeters>1168.4000244140625</AltitudeMeters>
            <DistanceMeters>12966.073969677</DistanceMeters>
          </Trackpoint>
          <Trackpoint>
            <Time>2021-08-01T12:59:51.000Z</Time>
            <Position>
              <LatitudeDegrees>-15.4217317141592502593994140625</LatitudeDegrees>
              <LongitudeDegrees>37.06731713376939296722412109375</LongitudeDegrees>
            </Position>
            <AltitudeMeters>1168.5999755859375</AltitudeMeters>
            <DistanceMeters>12973.670165335</DistanceMeters>
          </Trackpoint>
          <Trackpoint>
            <Time>2021-08-01T13:00:00.000Z</Time>
            <Position>
              <LatitudeDegrees>-15.421627946197986602783203125</LatitudeDegrees>
              <LongitudeDegrees>37.0673834346234798431396484375</LongitudeDegrees>
            </Position>
            <AltitudeMeters>1168.199951171875</AltitudeMeters>
            <DistanceMeters>12987.234375874</DistanceMeters>
          </Trackpoint>
          <Trackpoint>
            <Time>2021-08-01T13:00:01.000Z</Time>
            <Position>
              <LatitudeDegrees>-15.42161344550549983978271484375</LatitudeDegrees>
              <LongitudeDegrees>37.0673881284892559051513671875</LongitudeDegrees>
            </Position>
            <AltitudeMeters>1168.199951171875</AltitudeMeters>
            <DistanceMeters>12988.923607698</DistanceMeters>
          </Trackpoint>
          <Trackpoint>
            <Time>2021-08-01T13:00:05.000Z</Time>
            <Position>
              <LatitudeDegrees>-15.42157103307545185089111328125</LatitudeDegrees>
              <LongitudeDegrees>37.0674186386168003082275390625</LongitudeDegrees>
            </Position>
            <AltitudeMeters>1168.4000244140625</AltitudeMeters>
            <DistanceMeters>12994.668599378</DistanceMeters>
          </Trackpoint>
          <Trackpoint>
            <Time>2021-08-01T13:00:06.000Z</Time>
            <Position>
              <LatitudeDegrees>-15.421558208763599395751953125</LatitudeDegrees>
              <LongitudeDegrees>37.06741889007389545440673828125</LongitudeDegrees>
            </Position>
            <AltitudeMeters>1168.4000244140625</AltitudeMeters>
            <DistanceMeters>12996.097164139</DistanceMeters>
          </Trackpoint>
          <Trackpoint>
            <Time>2021-08-01T13:00:11.000Z</Time>
            <Position>
              <LatitudeDegrees>-15.4215122759342193603515625</LatitudeDegrees>
              <LongitudeDegrees>37.06745828501880168914794921875</LongitudeDegrees>
            </Position>
            <AltitudeMeters>1168.5999755859375</AltitudeMeters>
            <DistanceMeters>13002.730682249</DistanceMeters>
          </Trackpoint>
          <Trackpoint>
            <Time>2021-08-01T13:00:14.000Z</Time>
            <Position>
              <LatitudeDegrees>-15.42149894870817661285400390625</LatitudeDegrees>
              <LongitudeDegrees>37.0674789883196353912353515625</LongitudeDegrees>
            </Position>
            <AltitudeMeters>1168.800048828125</AltitudeMeters>
            <DistanceMeters>13005.399901294</DistanceMeters>
          </Trackpoint>
          <Trackpoint>
            <Time>2021-08-01T13:00:17.000Z</Time>
            <Position>
              <LatitudeDegrees>-15.42147765867412090301513671875</LatitudeDegrees>
              <LongitudeDegrees>37.067478485405445098876953125</LongitudeDegrees>
            </Position>
            <AltitudeMeters>1168.800048828125</AltitudeMeters>
            <DistanceMeters>13007.769860692</DistanceMeters>
          </Trackpoint>
          <Trackpoint>
            <Time>2021-08-01T13:00:19.000Z</Time>
            <Position>
              <LatitudeDegrees>-15.42144161649048328399658203125</LatitudeDegrees>
              <LongitudeDegrees>37.06747613847255706787109375</LongitudeDegrees>
            </Position>
            <AltitudeMeters>1168.800048828125</AltitudeMeters>
            <DistanceMeters>13011.78804146</DistanceMeters>
          </Trackpoint>
          <Trackpoint>
            <Time>2021-08-01T13:00:23.000Z</Time>
            <Position>
              <LatitudeDegrees>-15.421375147998332977294921875</LatitudeDegrees>
              <LongitudeDegrees>37.06749935634434223175048828125</LongitudeDegrees>
            </Position>
            <AltitudeMeters>1169</AltitudeMeters>
            <DistanceMeters>13019.594126</DistanceMeters>
          </Trackpoint>
          <Trackpoint>
            <Time>2021-08-01T13:00:25.000Z</Time>
            <Position>
              <LatitudeDegrees>-15.42135461233556270599365234375</LatitudeDegrees>
              <LongitudeDegrees>37.0675076544284820556640625</LongitudeDegrees>
            </Position>
            <AltitudeMeters>1169</AltitudeMeters>
            <DistanceMeters>13022.046478118</DistanceMeters>
          </Trackpoint>
          <Trackpoint>
            <Time>2021-08-01T13:00:32.000Z</Time>
            <Position>
              <LatitudeDegrees>-15.4212733916938304901123046875</LatitudeDegrees>
              <LongitudeDegrees>37.06755216233432292938232421875</LongitudeDegrees>
            </Position>
            <AltitudeMeters>1169.199951171875</AltitudeMeters>
            <DistanceMeters>13032.271016983</DistanceMeters>
          </Trackpoint>
          <Trackpoint>
            <Time>2021-08-01T13:00:33.000Z</Time>
            <Position>
              <LatitudeDegrees>-15.42126542888581752777099609375</LatitudeDegrees>
              <LongitudeDegrees>37.0675567723810672760009765625</LongitudeDegrees>
            </Position>
            <AltitudeMeters>1169.199951171875</AltitudeMeters>
            <DistanceMeters>13033.285624648</DistanceMeters>
          </Trackpoint>
          <Trackpoint>
            <Time>2021-08-01T13:00:40.000Z</Time>
            <Position>
              <LatitudeDegrees>-15.42119954712688922882080078125</LatitudeDegrees>
              <LongitudeDegrees>37.067597843706607818603515625</LongitudeDegrees>
            </Position>
            <AltitudeMeters>1169.4000244140625</AltitudeMeters>
            <DistanceMeters>13041.840140385</DistanceMeters>
          </Trackpoint>
          <Trackpoint>
            <Time>2021-08-01T13:00:45.000Z</Time>
            <Position>
              <LatitudeDegrees>-15.42117339558899402618408203125</LatitudeDegrees>
              <LongitudeDegrees>37.06760354340076446533203125</LongitudeDegrees>
            </Position>
            <AltitudeMeters>1169.800048828125</AltitudeMeters>
            <DistanceMeters>13044.813428942</DistanceMeters>
          </Trackpoint>
          <Trackpoint>
            <Time>2021-08-01T13:00:47.000Z</Time>
            <Position>
              <LatitudeDegrees>-15.42114255018532276153564453125</LatitudeDegrees>
              <LongitudeDegrees>37.06761267967522144317626953125</LongitudeDegrees>
            </Position>
            <AltitudeMeters>1170</AltitudeMeters>
            <DistanceMeters>13048.38420868</DistanceMeters>
          </Trackpoint>
          <Trackpoint>
            <Time>2021-08-01T13:00:49.000Z</Time>
            <Position>
              <LatitudeDegrees>-15.42112410999834537506103515625</LatitudeDegrees>
              <LongitudeDegrees>37.06761888228356838226318359375</LongitudeDegrees>
            </Position>
            <AltitudeMeters>1170</AltitudeMeters>
            <DistanceMeters>13050.540708012</DistanceMeters>
          </Trackpoint>
          <Trackpoint>
            <Time>2021-08-01T13:00:50.000Z</Time>
            <Position>
              <LatitudeDegrees>-15.4211144708096981048583984375</LatitudeDegrees>
              <LongitudeDegrees>37.06762231886386871337890625</LongitudeDegrees>
            </Position>
            <AltitudeMeters>1170</AltitudeMeters>
            <DistanceMeters>13051.67706224</DistanceMeters>
          </Trackpoint>
          <Trackpoint>
            <Time>2021-08-01T13:00:54.000Z</Time>
            <Position>
              <LatitudeDegrees>-15.421074070036411285400390625</LatitudeDegrees>
              <LongitudeDegrees>37.06763447262346744537353515625</LongitudeDegrees>
            </Position>
            <AltitudeMeters>1170.800048828125</AltitudeMeters>
            <DistanceMeters>13056.359478882</DistanceMeters>
          </Trackpoint>
          <Trackpoint>
            <Time>2021-08-01T13:00:55.000Z</Time>
            <Position>
              <LatitudeDegrees>-15.42106828652322292327880859375</LatitudeDegrees>
              <LongitudeDegrees>37.06764168106019496917724609375</LongitudeDegrees>
            </Position>
            <AltitudeMeters>1170.800048828125</AltitudeMeters>
            <DistanceMeters>13057.365147098</DistanceMeters>
          </Trackpoint>
          <Trackpoint>
            <Time>2021-08-01T13:00:57.000Z</Time>
            <Position>
              <LatitudeDegrees>-15.42104884050786495208740234375</LatitudeDegrees>
              <LongitudeDegrees>37.06765157170593738555908203125</LongitudeDegrees>
            </Position>
            <AltitudeMeters>1171.199951171875</AltitudeMeters>
            <DistanceMeters>13059.776654765</DistanceMeters>
          </Trackpoint>
          <Trackpoint>
            <Time>2021-08-01T13:01:00.000Z</Time>
            <Position>
              <LatitudeDegrees>-15.4210205934941768646240234375</LatitudeDegrees>
              <LongitudeDegrees>37.06765911541879177093505859375</LongitudeDegrees>
            </Position>
            <AltitudeMeters>1171.5999755859375</AltitudeMeters>
            <DistanceMeters>13063.022898627</DistanceMeters>
          </Trackpoint>
          <Trackpoint>
            <Time>2021-08-01T13:01:02.000Z</Time>
            <Position>
              <LatitudeDegrees>-15.4209907539188861846923828125</LatitudeDegrees>
              <LongitudeDegrees>37.067656181752681732177734375</LongitudeDegrees>
            </Position>
            <AltitudeMeters>1171.800048828125</AltitudeMeters>
            <DistanceMeters>13066.358322765</DistanceMeters>
          </Trackpoint>
          <Trackpoint>
            <Time>2021-08-01T13:01:08.000Z</Time>
            <Position>
              <LatitudeDegrees>-15.42092554271221160888671875</LatitudeDegrees>
              <LongitudeDegrees>37.0676573552191257476806640625</LongitudeDegrees>
            </Position>
            <AltitudeMeters>1172.199951171875</AltitudeMeters>
            <DistanceMeters>13073.617144711</DistanceMeters>
          </Trackpoint>
          <Trackpoint>
            <Time>2021-08-01T13:01:16.000Z</Time>
            <Position>
              <LatitudeDegrees>-15.42083702981472015380859375</LatitudeDegrees>
              <LongitudeDegrees>37.0676610432565212249755859375</LongitudeDegrees>
            </Position>
            <AltitudeMeters>1172.800048828125</AltitudeMeters>
            <DistanceMeters>13083.477053585</DistanceMeters>
          </Trackpoint>
          <Trackpoint>
            <Time>2021-08-01T13:01:17.000Z</Time>
            <Position>
              <LatitudeDegrees>-15.42082621715962886810302734375</LatitudeDegrees>
              <LongitudeDegrees>37.06766389310359954833984375</LongitudeDegrees>
            </Position>
            <AltitudeMeters>1173</AltitudeMeters>
            <DistanceMeters>13084.716050355</DistanceMeters>
          </Trackpoint>
          <Trackpoint>
            <Time>2021-08-01T13:01:19.000Z</Time>
            <Position>
              <LatitudeDegrees>-15.42080484330654144287109375</LatitudeDegrees>
              <LongitudeDegrees>37.06766515038907527923583984375</LongitudeDegrees>
            </Position>
            <AltitudeMeters>1173.4000244140625</AltitudeMeters>
            <DistanceMeters>13087.097412991</DistanceMeters>
          </Trackpoint>
          <Trackpoint>
            <Time>2021-08-01T13:01:24.000Z</Time>
            <Position>
              <LatitudeDegrees>-15.4207255505025386810302734375</LatitudeDegrees>
              <LongitudeDegrees>37.067686021327972412109375</LongitudeDegrees>
            </Position>
            <AltitudeMeters>1173.4000244140625</AltitudeMeters>
            <DistanceMeters>13096.203630207</DistanceMeters>
          </Trackpoint>
          <Trackpoint>
            <Time>2021-08-01T13:01:29.000Z</Time>
            <Position>
              <LatitudeDegrees>-15.42068188078701496124267578125</LatitudeDegrees>
              <LongitudeDegrees>37.06771762110292911529541015625</LongitudeDegrees>
            </Position>
            <AltitudeMeters>1173.5999755859375</AltitudeMeters>
            <DistanceMeters>13102.129671659</DistanceMeters>
          </Trackpoint>
          <Trackpoint>
            <Time>2021-08-01T13:01:31.000Z</Time>
            <Position>
              <LatitudeDegrees>-15.42065690271556377410888671875</LatitudeDegrees>
              <LongitudeDegrees>37.06773270852863788604736328125</LongitudeDegrees>
            </Position>
            <AltitudeMeters>1173.5999755859375</AltitudeMeters>
            <DistanceMeters>13105.346575078</DistanceMeters>
          </Trackpoint>
          <Trackpoint>
            <Time>2021-08-01T13:01:33.000Z</Time>
            <Position>
              <LatitudeDegrees>-15.4206383787095546722412109375</LatitudeDegrees>
              <LongitudeDegrees>37.06774142570793628692626953125</LongitudeDegrees>
            </Position>
            <AltitudeMeters>1173.5999755859375</AltitudeMeters>
            <DistanceMeters>13107.61132306</DistanceMeters>
          </Trackpoint>
          <Trackpoint>
            <Time>2021-08-01T13:01:40.000Z</Time>
            <Position>
              <LatitudeDegrees>-15.420580543577671051025390625</LatitudeDegrees>
              <LongitudeDegrees>37.067810408771038055419921875</LongitudeDegrees>
            </Position>
            <AltitudeMeters>1173.5999755859375</AltitudeMeters>
            <DistanceMeters>13117.420271245</DistanceMeters>
          </Trackpoint>
          <Trackpoint>
            <Time>2021-08-01T13:01:48.000Z</Time>
            <Position>
              <LatitudeDegrees>-15.42051608674228191375732421875</LatitudeDegrees>
              <LongitudeDegrees>37.067894898355007171630859375</LongitudeDegrees>
            </Position>
            <AltitudeMeters>1174</AltitudeMeters>
            <DistanceMeters>13128.981160547</DistanceMeters>
          </Trackpoint>
          <Trackpoint>
            <Time>2021-08-01T13:01:56.000Z</Time>
            <Position>
              <LatitudeDegrees>-15.42047367431223392486572265625</LatitudeDegrees>
              <LongitudeDegrees>37.068021632730960845947265625</LongitudeDegrees>
            </Position>
            <AltitudeMeters>1173.800048828125</AltitudeMeters>
            <DistanceMeters>13143.375120181</DistanceMeters>
          </Trackpoint>
          <Trackpoint>
            <Time>2021-08-01T13:02:03.000Z</Time>
            <Position>
              <LatitudeDegrees>-15.4204630292952060699462890625</LatitudeDegrees>
              <LongitudeDegrees>37.0681084692478179931640625</LongitudeDegrees>
            </Position>
            <AltitudeMeters>1173.800048828125</AltitudeMeters>
            <DistanceMeters>13152.7678752</DistanceMeters>
          </Trackpoint>
          <Trackpoint>
            <Time>2021-08-01T13:02:07.000Z</Time>
            <Position>
              <LatitudeDegrees>-15.42044836096465587615966796875</LatitudeDegrees>
              <LongitudeDegrees>37.06815482117235660552978515625</LongitudeDegrees>
            </Position>
            <AltitudeMeters>1173.800048828125</AltitudeMeters>
            <DistanceMeters>13158.002113629</DistanceMeters>
          </Trackpoint>
          <Trackpoint>
            <Time>2021-08-01T13:02:13.000Z</Time>
            <Position>
              <LatitudeDegrees>-15.42040385305881500244140625</LatitudeDegrees>
              <LongitudeDegrees>37.06822053529322147369384765625</LongitudeDegrees>
            </Position>
            <AltitudeMeters>1173.5999755859375</AltitudeMeters>
            <DistanceMeters>13166.618684207</DistanceMeters>
          </Trackpoint>
          <Trackpoint>
            <Time>2021-08-01T13:02:16.000Z</Time>
            <Position>
              <LatitudeDegrees>-15.42038935236632823944091796875</LatitudeDegrees>
              <LongitudeDegrees>37.06825372762978076934814453125</LongitudeDegrees>
            </Position>
            <AltitudeMeters>1173.4000244140625</AltitudeMeters>
            <DistanceMeters>13170.527506196</DistanceMeters>
          </Trackpoint>
          <Trackpoint>
            <Time>2021-08-01T13:02:26.000Z</Time>
            <Position>
              <LatitudeDegrees>-15.42031089775264263153076171875</LatitudeDegrees>
              <LongitudeDegrees>37.068375013768672943115234375</LongitudeDegrees>
            </Position>
            <AltitudeMeters>1172.800048828125</AltitudeMeters>
            <DistanceMeters>13186.19884912</DistanceMeters>
          </Trackpoint>
          <Trackpoint>
            <Time>2021-08-01T13:02:34.000Z</Time>
            <Position>
              <LatitudeDegrees>-15.42027384974062442779541015625</LatitudeDegrees>
              <LongitudeDegrees>37.06842656247317790985107421875</LongitudeDegrees>
            </Position>
            <AltitudeMeters>1172.4000244140625</AltitudeMeters>
            <DistanceMeters>13193.096636648</DistanceMeters>
          </Trackpoint>
          <Trackpoint>
            <Time>2021-08-01T13:02:35.000Z</Time>
            <Position>
              <LatitudeDegrees>-15.42026563547551631927490234375</LatitudeDegrees>
              <LongitudeDegrees>37.06843276508152484893798828125</LongitudeDegrees>
            </Position>
            <AltitudeMeters>1172.4000244140625</AltitudeMeters>
            <DistanceMeters>13194.229010639</DistanceMeters>
          </Trackpoint>
          <Trackpoint>
            <Time>2021-08-01T13:02:36.000Z</Time>
            <Position>
              <LatitudeDegrees>-15.4202551580965518951416015625</LatitudeDegrees>
              <LongitudeDegrees>37.06844382919371128082275390625</LongitudeDegrees>
            </Position>
            <AltitudeMeters>1172</AltitudeMeters>
            <DistanceMeters>13195.89129924</DistanceMeters>
          </Trackpoint>
          <Trackpoint>
            <Time>2021-08-01T13:02:39.000Z</Time>
            <Position>
              <LatitudeDegrees>-15.420232526957988739013671875</LatitudeDegrees>
              <LongitudeDegrees>37.06847383640706539154052734375</LongitudeDegrees>
            </Position>
            <AltitudeMeters>1171.5999755859375</AltitudeMeters>
            <DistanceMeters>13199.97855277</DistanceMeters>
          </Trackpoint>
          <Trackpoint>
            <Time>2021-08-01T13:02:44.000Z</Time>
            <Position>
              <LatitudeDegrees>-15.4201834090054035186767578125</LatitudeDegrees>
              <LongitudeDegrees>37.06850199960172176361083984375</LongitudeDegrees>
            </Position>
            <AltitudeMeters>1171</AltitudeMeters>
            <DistanceMeters>13206.225068624</DistanceMeters>
          </Trackpoint>
          <Trackpoint>
            <Time>2021-08-01T13:02:45.000Z</Time>
            <Position>
              <LatitudeDegrees>-15.42017024941742420196533203125</LatitudeDegrees>
              <LongitudeDegrees>37.068509794771671295166015625</LongitudeDegrees>
            </Position>
            <AltitudeMeters>1171</AltitudeMeters>
            <DistanceMeters>13207.911625495</DistanceMeters>
          </Trackpoint>
          <Trackpoint>
            <Time>2021-08-01T13:02:47.000Z</Time>
            <Position>
              <LatitudeDegrees>-15.42015382088720798492431640625</LatitudeDegrees>
              <LongitudeDegrees>37.06852010451257228851318359375</LongitudeDegrees>
            </Position>
            <AltitudeMeters>1170.800048828125</AltitudeMeters>
            <DistanceMeters>13210.049198577</DistanceMeters>
          </Trackpoint>
          <Trackpoint>
            <Time>2021-08-01T13:02:49.000Z</Time>
            <Position>
              <LatitudeDegrees>-15.42013294994831085205078125</LatitudeDegrees>
              <LongitudeDegrees>37.06853158771991729736328125</LongitudeDegrees>
            </Position>
            <AltitudeMeters>1170.800048828125</AltitudeMeters>
            <DistanceMeters>13212.677507631</DistanceMeters>
          </Trackpoint>
          <Trackpoint>
            <Time>2021-08-01T13:02:57.000Z</Time>
            <Position>
              <LatitudeDegrees>-15.420060865581035614013671875</LatitudeDegrees>
              <LongitudeDegrees>37.0685783587396144866943359375</LongitudeDegrees>
            </Position>
            <AltitudeMeters>1170.199951171875</AltitudeMeters>
            <DistanceMeters>13222.141137916</DistanceMeters>
          </Trackpoint>
          <Trackpoint>
            <Time>2021-08-01T13:03:03.000Z</Time>
            <Position>
              <LatitudeDegrees>-15.42001853697001934051513671875</LatitudeDegrees>
              <LongitudeDegrees>37.06861079670488834381103515625</LongitudeDegrees>
            </Position>
            <AltitudeMeters>1170.199951171875</AltitudeMeters>
            <DistanceMeters>13227.998978003</DistanceMeters>
          </Trackpoint>
          <Trackpoint>
            <Time>2021-08-01T13:03:05.000Z</Time>
            <Position>
              <LatitudeDegrees>-15.42000076733529567718505859375</LatitudeDegrees>
              <LongitudeDegrees>37.0686229504644870758056640625</LongitudeDegrees>
            </Position>
            <AltitudeMeters>1170</AltitudeMeters>
            <DistanceMeters>13230.368937401</DistanceMeters>
          </Trackpoint>
          <Trackpoint>
            <Time>2021-08-01T13:03:09.000Z</Time>
            <Position>
              <LatitudeDegrees>-15.41997201740741729736328125</LatitudeDegrees>
              <LongitudeDegrees>37.0686651952564716339111328125</LongitudeDegrees>
            </Position>
            <AltitudeMeters>1170</AltitudeMeters>
            <DistanceMeters>13235.917228182</DistanceMeters>
          </Trackpoint>
          <Trackpoint>
            <Time>2021-08-01T13:03:11.000Z</Time>
            <Position>
              <LatitudeDegrees>-15.4199520684778690338134765625</LatitudeDegrees>
              <LongitudeDegrees>37.06868623383343219757080078125</LongitudeDegrees>
            </Position>
            <AltitudeMeters>1170</AltitudeMeters>
            <DistanceMeters>13239.083201153</DistanceMeters>
          </Trackpoint>
          <Trackpoint>
            <Time>2021-08-01T13:03:12.000Z</Time>
            <Position>
              <LatitudeDegrees>-15.41994075290858745574951171875</LatitudeDegrees>
              <LongitudeDegrees>37.0686913467943668365478515625</LongitudeDegrees>
            </Position>
            <AltitudeMeters>1170</AltitudeMeters>
            <DistanceMeters>13240.456986426</DistanceMeters>
          </Trackpoint>
          <Trackpoint>
            <Time>2021-08-01T13:03:15.000Z</Time>
            <Position>
              <LatitudeDegrees>-15.41989825665950775146484375</LatitudeDegrees>
              <LongitudeDegrees>37.06869310699403285980224609375</LongitudeDegrees>
            </Position>
            <AltitudeMeters>1170</AltitudeMeters>
            <DistanceMeters>13245.191186436</DistanceMeters>
          </Trackpoint>
          <Trackpoint>
            <Time>2021-08-01T13:03:17.000Z</Time>
            <Position>
              <LatitudeDegrees>-15.419885851442813873291015625</LatitudeDegrees>
              <LongitudeDegrees>37.0686990581452846527099609375</LongitudeDegrees>
            </Position>
            <AltitudeMeters>1170</AltitudeMeters>
            <DistanceMeters>13246.714580557</DistanceMeters>
          </Trackpoint>
          <Trackpoint>
            <Time>2021-08-01T13:03:20.000Z</Time>
            <Position>
              <LatitudeDegrees>-15.419850982725620269775390625</LatitudeDegrees>
              <LongitudeDegrees>37.06872738897800445556640625</LongitudeDegrees>
            </Position>
            <AltitudeMeters>1170</AltitudeMeters>
            <DistanceMeters>13251.644077053</DistanceMeters>
          </Trackpoint>
          <Trackpoint>
            <Time>2021-08-01T13:03:21.000Z</Time>
            <Position>
              <LatitudeDegrees>-15.41983447037637233734130859375</LatitudeDegrees>
              <LongitudeDegrees>37.0687402971088886260986328125</LongitudeDegrees>
            </Position>
            <AltitudeMeters>1170</AltitudeMeters>
            <DistanceMeters>13253.944430243</DistanceMeters>
          </Trackpoint>
          <Trackpoint>
            <Time>2021-08-01T13:03:25.000Z</Time>
            <Position>
              <LatitudeDegrees>-15.41977697052061557769775390625</LatitudeDegrees>
              <LongitudeDegrees>37.0687661133706569671630859375</LongitudeDegrees>
            </Position>
            <AltitudeMeters>1170.199951171875</AltitudeMeters>
            <DistanceMeters>13260.917086234</DistanceMeters>
          </Trackpoint>
          <Trackpoint>
            <Time>2021-08-01T13:03:26.000Z</Time>
            <Position>
              <LatitudeDegrees>-15.41976607404649257659912109375</LatitudeDegrees>
              <LongitudeDegrees>37.06877256743609905242919921875</LongitudeDegrees>
            </Position>
            <AltitudeMeters>1170.199951171875</AltitudeMeters>
            <DistanceMeters>13262.310451382</DistanceMeters>
          </Trackpoint>
          <Trackpoint>
            <Time>2021-08-01T13:03:29.000Z</Time>
            <Position>
              <LatitudeDegrees>-15.41974092833697795867919921875</LatitudeDegrees>
              <LongitudeDegrees>37.06879578530788421630859375</LongitudeDegrees>
            </Position>
            <AltitudeMeters>1170.4000244140625</AltitudeMeters>
            <DistanceMeters>13266.057686212</DistanceMeters>
          </Trackpoint>
          <Trackpoint>
            <Time>2021-08-01T13:03:36.000Z</Time>
            <Position>
              <LatitudeDegrees>-15.41966398246586322784423828125</LatitudeDegrees>
              <LongitudeDegrees>37.0688512735068798065185546875</LongitudeDegrees>
            </Position>
            <AltitudeMeters>1171</AltitudeMeters>
            <DistanceMeters>13276.48770687</DistanceMeters>
          </Trackpoint>
          <Trackpoint>
            <Time>2021-08-01T13:03:38.000Z</Time>
            <Position>
              <LatitudeDegrees>-15.41963263414800167083740234375</LatitudeDegrees>
              <LongitudeDegrees>37.06885370425879955291748046875</LongitudeDegrees>
            </Position>
            <AltitudeMeters>1171.199951171875</AltitudeMeters>
            <DistanceMeters>13279.985671075</DistanceMeters>
          </Trackpoint>
          <Trackpoint>
            <Time>2021-08-01T13:03:40.000Z</Time>
            <Position>
              <LatitudeDegrees>-15.4196120984852313995361328125</LatitudeDegrees>
              <LongitudeDegrees>37.0688656903803348541259765625</LongitudeDegrees>
            </Position>
            <AltitudeMeters>1171.4000244140625</AltitudeMeters>
            <DistanceMeters>13282.608821519</DistanceMeters>
          </Trackpoint>
          <Trackpoint>
            <Time>2021-08-01T13:03:43.000Z</Time>
            <Position>
              <LatitudeDegrees>-15.41958753950893878936767578125</LatitudeDegrees>
              <LongitudeDegrees>37.06888220272958278656005859375</LongitudeDegrees>
            </Position>
            <AltitudeMeters>1171.800048828125</AltitudeMeters>
            <DistanceMeters>13285.866173176</DistanceMeters>
          </Trackpoint>
          <Trackpoint>
            <Time>2021-08-01T13:03:47.000Z</Time>
            <Position>
              <LatitudeDegrees>-15.4195435345172882080078125</LatitudeDegrees>
              <LongitudeDegrees>37.06890567205846309661865234375</LongitudeDegrees>
            </Position>
            <AltitudeMeters>1172</AltitudeMeters>
            <DistanceMeters>13291.373625108</DistanceMeters>
          </Trackpoint>
          <Trackpoint>
            <Time>2021-08-01T13:03:48.000Z</Time>
            <Position>
              <LatitudeDegrees>-15.41952987201511859893798828125</LatitudeDegrees>
              <LongitudeDegrees>37.06891355104744434356689453125</LongitudeDegrees>
            </Position>
            <AltitudeMeters>1172.199951171875</AltitudeMeters>
            <DistanceMeters>13293.110301685</DistanceMeters>
          </Trackpoint>
          <Trackpoint>
            <Time>2021-08-01T13:03:58.000Z</Time>
            <Position>
              <LatitudeDegrees>-15.41944186203181743621826171875</LatitudeDegrees>
              <LongitudeDegrees>37.06895411945879459381103515625</LongitudeDegrees>
            </Position>
            <AltitudeMeters>1173</AltitudeMeters>
            <DistanceMeters>13303.82938246</DistanceMeters>
          </Trackpoint>
          <Trackpoint>
            <Time>2021-08-01T13:03:59.000Z</Time>
            <Position>
              <LatitudeDegrees>-15.41943431831896305084228515625</LatitudeDegrees>
              <LongitudeDegrees>37.06895671784877777099609375</LongitudeDegrees>
            </Position>
            <AltitudeMeters>1173.199951171875</AltitudeMeters>
            <DistanceMeters>13304.710623956</DistanceMeters>
          </Trackpoint>
          <Trackpoint>
            <Time>2021-08-01T13:04:00.000Z</Time>
            <Position>
              <LatitudeDegrees>-15.4194281995296478271484375</LatitudeDegrees>
              <LongitudeDegrees>37.06896367482841014862060546875</LongitudeDegrees>
            </Position>
            <AltitudeMeters>1173.199951171875</AltitudeMeters>
            <DistanceMeters>13305.716292173</DistanceMeters>
          </Trackpoint>
          <Trackpoint>
            <Time>2021-08-01T13:04:02.000Z</Time>
            <Position>
              <LatitudeDegrees>-15.41940338909626007080078125</LatitudeDegrees>
              <LongitudeDegrees>37.0689766667783260345458984375</LongitudeDegrees>
            </Position>
            <AltitudeMeters>1173.199951171875</AltitudeMeters>
            <DistanceMeters>13308.810137843</DistanceMeters>
          </Trackpoint>
          <Trackpoint>
            <Time>2021-08-01T13:04:04.000Z</Time>
            <Position>
              <LatitudeDegrees>-15.419377572834491729736328125</LatitudeDegrees>
              <LongitudeDegrees>37.06898714415729045867919921875</LongitudeDegrees>
            </Position>
            <AltitudeMeters>1173.4000244140625</AltitudeMeters>
            <DistanceMeters>13311.89521492</DistanceMeters>
          </Trackpoint>
          <Trackpoint>
            <Time>2021-08-01T13:04:10.000Z</Time>
            <Position>
              <LatitudeDegrees>-15.41932166554033756256103515625</LatitudeDegrees>
              <LongitudeDegrees>37.06902771256864070892333984375</LongitudeDegrees>
            </Position>
            <AltitudeMeters>1173.5999755859375</AltitudeMeters>
            <DistanceMeters>13319.488438089</DistanceMeters>
          </Trackpoint>
          <Trackpoint>
            <Time>2021-08-01T13:04:12.000Z</Time>
            <Position>
              <LatitudeDegrees>-15.41929735802114009857177734375</LatitudeDegrees>
              <LongitudeDegrees>37.06904162652790546417236328125</LongitudeDegrees>
            </Position>
            <AltitudeMeters>1173.800048828125</AltitudeMeters>
            <DistanceMeters>13322.579363659</DistanceMeters>
          </Trackpoint>
          <Trackpoint>
            <Time>2021-08-01T13:04:16.000Z</Time>
            <Position>
              <LatitudeDegrees>-15.4192459769546985626220703125</LatitudeDegrees>
              <LongitudeDegrees>37.06906794570386409759521484375</LongitudeDegrees>
            </Position>
            <AltitudeMeters>1174</AltitudeMeters>
            <DistanceMeters>13328.957489902</DistanceMeters>
          </Trackpoint>
          <Trackpoint>
            <Time>2021-08-01T13:04:19.000Z</Time>
            <Position>
              <LatitudeDegrees>-15.4192168079316616058349609375</LatitudeDegrees>
              <LongitudeDegrees>37.0690879784524440765380859375</LongitudeDegrees>
            </Position>
            <AltitudeMeters>1174.4000244140625</AltitudeMeters>
            <DistanceMeters>13332.852426157</DistanceMeters>
          </Trackpoint>
          <Trackpoint>
            <Time>2021-08-01T13:04:24.000Z</Time>
            <Position>
              <LatitudeDegrees>-15.4191805981099605560302734375</LatitudeDegrees>
              <LongitudeDegrees>37.06911555491387844085693359375</LongitudeDegrees>
            </Position>
            <AltitudeMeters>1175</AltitudeMeters>
            <DistanceMeters>13337.851951294</DistanceMeters>
          </Trackpoint>
          <Trackpoint>
            <Time>2021-08-01T13:04:29.000Z</Time>
            <Position>
              <LatitudeDegrees>-15.4191202484071254730224609375</LatitudeDegrees>
              <LongitudeDegrees>37.06915092654526233673095703125</LongitudeDegrees>
            </Position>
            <AltitudeMeters>1175.5999755859375</AltitudeMeters>
            <DistanceMeters>13345.567277853</DistanceMeters>
          </Trackpoint>
          <Trackpoint>
            <Time>2021-08-01T13:04:33.000Z</Time>
            <Position>
              <LatitudeDegrees>-15.41909032501280307769775390625</LatitudeDegrees>
              <LongitudeDegrees>37.06916534341871738433837890625</LongitudeDegrees>
            </Position>
            <AltitudeMeters>1175.800048828125</AltitudeMeters>
            <DistanceMeters>13349.239049106</DistanceMeters>
          </Trackpoint>
          <Trackpoint>
            <Time>2021-08-01T13:04:40.000Z</Time>
            <Position>
              <LatitudeDegrees>-15.41904422454535961151123046875</LatitudeDegrees>
              <LongitudeDegrees>37.06921664066612720489501953125</LongitudeDegrees>
            </Position>
            <AltitudeMeters>1176.4000244140625</AltitudeMeters>
            <DistanceMeters>13356.764180957</DistanceMeters>
          </Trackpoint>
          <Trackpoint>
            <Time>2021-08-01T13:04:43.000Z</Time>
            <Position>
              <LatitudeDegrees>-15.4190236888825893402099609375</LatitudeDegrees>
              <LongitudeDegrees>37.069236338138580322265625</LongitudeDegrees>
            </Position>
            <AltitudeMeters>1176.5999755859375</AltitudeMeters>
            <DistanceMeters>13359.876940508</DistanceMeters>
          </Trackpoint>
          <Trackpoint>
            <Time>2021-08-01T13:04:47.000Z</Time>
            <Position>
              <LatitudeDegrees>-15.418994016945362091064453125</LatitudeDegrees>
              <LongitudeDegrees>37.0692777447402477264404296875</LongitudeDegrees>
            </Position>
            <AltitudeMeters>1176.800048828125</AltitudeMeters>
            <DistanceMeters>13365.41219564</DistanceMeters>
          </Trackpoint>
          <Trackpoint>
            <Time>2021-08-01T13:04:48.000Z</Time>
            <Position>
              <LatitudeDegrees>-15.418984629213809967041015625</LatitudeDegrees>
              <LongitudeDegrees>37.06929476000368595123291015625</LongitudeDegrees>
            </Position>
            <AltitudeMeters>1177</AltitudeMeters>
            <DistanceMeters>13367.515701632</DistanceMeters>
          </Trackpoint>
          <Trackpoint>
            <Time>2021-08-01T13:04:53.000Z</Time>
            <Position>
              <LatitudeDegrees>-15.41896660812199115753173828125</LatitudeDegrees>
              <LongitudeDegrees>37.0693548582494258880615234375</LongitudeDegrees>
            </Position>
            <AltitudeMeters>1177.199951171875</AltitudeMeters>
            <DistanceMeters>13374.269287059</DistanceMeters>
          </Trackpoint>
          <Trackpoint>
            <Time>2021-08-01T13:05:01.000Z</Time>
            <Position>
              <LatitudeDegrees>-15.41890676133334636688232421875</LatitudeDegrees>
              <LongitudeDegrees>37.06946943886578083038330078125</LongitudeDegrees>
            </Position>
            <AltitudeMeters>1177.5999755859375</AltitudeMeters>
            <DistanceMeters>13388.252105629</DistanceMeters>
          </Trackpoint>
          <Trackpoint>
            <Time>2021-08-01T13:05:03.000Z</Time>
            <Position>
              <LatitudeDegrees>-15.41888597421348094940185546875</LatitudeDegrees>
              <LongitudeDegrees>37.06950112245976924896240234375</LongitudeDegrees>
            </Position>
            <AltitudeMeters>1177.5999755859375</AltitudeMeters>
            <DistanceMeters>13392.365785643</DistanceMeters>
          </Trackpoint>
          <Trackpoint>
            <Time>2021-08-01T13:05:04.000Z</Time>
            <Position>
              <LatitudeDegrees>-15.41887960396707057952880859375</LatitudeDegrees>
              <LongitudeDegrees>37.069514952600002288818359375</LongitudeDegrees>
            </Position>
            <AltitudeMeters>1177.5999755859375</AltitudeMeters>
            <DistanceMeters>13394.008951142</DistanceMeters>
          </Trackpoint>
          <Trackpoint>
            <Time>2021-08-01T13:05:11.000Z</Time>
            <Position>
              <LatitudeDegrees>-15.41885546408593654632568359375</LatitudeDegrees>
              <LongitudeDegrees>37.0695863664150238037109375</LongitudeDegrees>
            </Position>
            <AltitudeMeters>1177.5999755859375</AltitudeMeters>
            <DistanceMeters>13402.128593259</DistanceMeters>
          </Trackpoint>
          <Trackpoint>
            <Time>2021-08-01T13:05:19.000Z</Time>
            <Position>
              <LatitudeDegrees>-15.4187739081680774688720703125</LatitudeDegrees>
              <LongitudeDegrees>37.06964872777462005615234375</LongitudeDegrees>
            </Position>
            <AltitudeMeters>1176.5999755859375</AltitudeMeters>
            <DistanceMeters>13413.405586057</DistanceMeters>
          </Trackpoint>
          <Trackpoint>
            <Time>2021-08-01T13:05:20.000Z</Time>
            <Position>
              <LatitudeDegrees>-15.4187601618468761444091796875</LatitudeDegrees>
              <LongitudeDegrees>37.06965275108814239501953125</LongitudeDegrees>
            </Position>
            <AltitudeMeters>1176.5999755859375</AltitudeMeters>
            <DistanceMeters>13414.992845118</DistanceMeters>
          </Trackpoint>
          <Trackpoint>
            <Time>2021-08-01T13:05:28.000Z</Time>
            <Position>
              <LatitudeDegrees>-15.4186579026281833648681640625</LatitudeDegrees>
              <LongitudeDegrees>37.06967010162770748138427734375</LongitudeDegrees>
            </Position>
            <AltitudeMeters>1175.5999755859375</AltitudeMeters>
            <DistanceMeters>13426.525580958</DistanceMeters>
          </Trackpoint>
          <Trackpoint>
            <Time>2021-08-01T13:05:29.000Z</Time>
            <Position>
              <LatitudeDegrees>-15.41864306665956974029541015625</LatitudeDegrees>
              <LongitudeDegrees>37.06967060454189777374267578125</LongitudeDegrees>
            </Position>
            <AltitudeMeters>1175.4000244140625</AltitudeMeters>
            <DistanceMeters>13428.176969188</DistanceMeters>
          </Trackpoint>
          <Trackpoint>
            <Time>2021-08-01T13:05:36.000Z</Time>
            <Position>
              <LatitudeDegrees>-15.41855203919112682342529296875</LatitudeDegrees>
              <LongitudeDegrees>37.06968820653855800628662109375</LongitudeDegrees>
            </Position>
            <AltitudeMeters>1175</AltitudeMeters>
            <DistanceMeters>13438.48287813</DistanceMeters>
          </Trackpoint>
          <Trackpoint>
            <Time>2021-08-01T13:05:37.000Z</Time>
            <Position>
              <LatitudeDegrees>-15.418539382517337799072265625</LatitudeDegrees>
              <LongitudeDegrees>37.06968896090984344482421875</LongitudeDegrees>
            </Position>
            <AltitudeMeters>1175</AltitudeMeters>
            <DistanceMeters>13439.895551799</DistanceMeters>
          </Trackpoint>
          <Trackpoint>
            <Time>2021-08-01T13:05:38.000Z</Time>
            <Position>
              <LatitudeDegrees>-15.41852756403386592864990234375</LatitudeDegrees>
              <LongitudeDegrees>37.06968820653855800628662109375</LongitudeDegrees>
            </Position>
            <AltitudeMeters>1175</AltitudeMeters>
            <DistanceMeters>13441.215705106</DistanceMeters>
          </Trackpoint>
          <Trackpoint>
            <Time>2021-08-01T13:05:40.000Z</Time>
            <Position>
              <LatitudeDegrees>-15.418499819934368133544921875</LatitudeDegrees>
              <LongitudeDegrees>37.0696834288537502288818359375</LongitudeDegrees>
            </Position>
            <AltitudeMeters>1175</AltitudeMeters>
            <DistanceMeters>13444.345822187</DistanceMeters>
          </Trackpoint>
          <Trackpoint>
            <Time>2021-08-01T13:05:50.000Z</Time>
            <Position>
              <LatitudeDegrees>-15.41835908778011798858642578125</LatitudeDegrees>
              <LongitudeDegrees>37.06967831589281558990478515625</LongitudeDegrees>
            </Position>
            <AltitudeMeters>1174.5999755859375</AltitudeMeters>
            <DistanceMeters>13460.018893664</DistanceMeters>
          </Trackpoint>
          <Trackpoint>
            <Time>2021-08-01T13:05:52.000Z</Time>
            <Position>
              <LatitudeDegrees>-15.4183410666882991790771484375</LatitudeDegrees>
              <LongitudeDegrees>37.06967865116894245147705078125</LongitudeDegrees>
            </Position>
            <AltitudeMeters>1174.800048828125</AltitudeMeters>
            <DistanceMeters>13462.025735484</DistanceMeters>
          </Trackpoint>
          <Trackpoint>
            <Time>2021-08-01T13:05:57.000Z</Time>
            <Position>
              <LatitudeDegrees>-15.418282561004161834716796875</LatitudeDegrees>
              <LongitudeDegrees>37.069694660604000091552734375</LongitudeDegrees>
            </Position>
            <AltitudeMeters>1174.800048828125</AltitudeMeters>
            <DistanceMeters>13468.759905359</DistanceMeters>
          </Trackpoint>
          <Trackpoint>
            <Time>2021-08-01T13:06:03.000Z</Time>
            <Position>
              <LatitudeDegrees>-15.41821676306426525115966796875</LatitudeDegrees>
              <LongitudeDegrees>37.0697250030934810638427734375</LongitudeDegrees>
            </Position>
            <AltitudeMeters>1175.199951171875</AltitudeMeters>
            <DistanceMeters>13476.774325722</DistanceMeters>
          </Trackpoint>
          <Trackpoint>
            <Time>2021-08-01T13:06:08.000Z</Time>
            <Position>
              <LatitudeDegrees>-15.4181610234081745147705078125</LatitudeDegrees>
              <LongitudeDegrees>37.06974470056593418121337890625</LongitudeDegrees>
            </Position>
            <AltitudeMeters>1175.199951171875</AltitudeMeters>
            <DistanceMeters>13483.328414037</DistanceMeters>
          </Trackpoint>
          <Trackpoint>
            <Time>2021-08-01T13:06:14.000Z</Time>
            <Position>
              <LatitudeDegrees>-15.41810385882854461669921875</LatitudeDegrees>
              <LongitudeDegrees>37.069781832396984100341796875</LongitudeDegrees>
            </Position>
            <AltitudeMeters>1174.4000244140625</AltitudeMeters>
            <DistanceMeters>13490.835524472</DistanceMeters>
          </Trackpoint>
          <Trackpoint>
            <Time>2021-08-01T13:06:17.000Z</Time>
            <Position>
              <LatitudeDegrees>-15.41806454770267009735107421875</LatitudeDegrees>
              <LongitudeDegrees>37.0697813294827938079833984375</LongitudeDegrees>
            </Position>
            <AltitudeMeters>1174.199951171875</AltitudeMeters>
            <DistanceMeters>13495.210882979</DistanceMeters>
          </Trackpoint>
          <Trackpoint>
            <Time>2021-08-01T13:06:25.000Z</Time>
            <Position>
              <LatitudeDegrees>-15.41798525489866733551025390625</LatitudeDegrees>
              <LongitudeDegrees>37.0698185451328754425048828125</LongitudeDegrees>
            </Position>
            <AltitudeMeters>1174.4000244140625</AltitudeMeters>
            <DistanceMeters>13504.898016425</DistanceMeters>
          </Trackpoint>
          <Trackpoint>
            <Time>2021-08-01T13:06:33.000Z</Time>
            <Position>
              <LatitudeDegrees>-15.41789866983890533447265625</LatitudeDegrees>
              <LongitudeDegrees>37.06985902972519397735595703125</LongitudeDegrees>
            </Position>
            <AltitudeMeters>1174.199951171875</AltitudeMeters>
            <DistanceMeters>13515.469071055</DistanceMeters>
          </Trackpoint>
          <Trackpoint>
            <Time>2021-08-01T13:06:39.000Z</Time>
            <Position>
              <LatitudeDegrees>-15.41782281361520290374755859375</LatitudeDegrees>
              <LongitudeDegrees>37.06988467834889888763427734375</LongitudeDegrees>
            </Position>
            <AltitudeMeters>1174</AltitudeMeters>
            <DistanceMeters>13524.348858637</DistanceMeters>
          </Trackpoint>
          <Trackpoint>
            <Time>2021-08-01T13:06:50.000Z</Time>
            <Position>
              <LatitudeDegrees>-15.4176581092178821563720703125</LatitudeDegrees>
              <LongitudeDegrees>37.069944776594638824462890625</LongitudeDegrees>
            </Position>
            <AltitudeMeters>1173.5999755859375</AltitudeMeters>
            <DistanceMeters>13543.781763641</DistanceMeters>
          </Trackpoint>
          <Trackpoint>
            <Time>2021-08-01T13:06:58.000Z</Time>
            <Position>
              <LatitudeDegrees>-15.4175488092005252838134765625</LatitudeDegrees>
              <LongitudeDegrees>37.0699503086507320404052734375</LongitudeDegrees>
            </Position>
            <AltitudeMeters>1173.5999755859375</AltitudeMeters>
            <DistanceMeters>13555.961504846</DistanceMeters>
          </Trackpoint>
          <Trackpoint>
            <Time>2021-08-01T13:07:07.000Z</Time>
            <Position>
              <LatitudeDegrees>-15.417419560253620147705078125</LatitudeDegrees>
              <LongitudeDegrees>37.0699752867221832275390625</LongitudeDegrees>
            </Position>
            <AltitudeMeters>1173.5999755859375</AltitudeMeters>
            <DistanceMeters>13570.594693245</DistanceMeters>
          </Trackpoint>
          <Trackpoint>
            <Time>2021-08-01T13:07:14.000Z</Time>
            <Position>
              <LatitudeDegrees>-15.41736164130270481109619140625</LatitudeDegrees>
              <LongitudeDegrees>37.07001082599163055419921875</LongitudeDegrees>
            </Position>
            <AltitudeMeters>1173.4000244140625</AltitudeMeters>
            <DistanceMeters>13578.08434176</DistanceMeters>
          </Trackpoint>
          <Trackpoint>
            <Time>2021-08-01T13:07:23.000Z</Time>
            <Position>
              <LatitudeDegrees>-15.41728184558451175689697265625</LatitudeDegrees>
              <LongitudeDegrees>37.07008651457726955413818359375</LongitudeDegrees>
            </Position>
            <AltitudeMeters>1173.5999755859375</AltitudeMeters>
            <DistanceMeters>13590.119016499</DistanceMeters>
          </Trackpoint>
          <Trackpoint>
            <Time>2021-08-01T13:07:35.000Z</Time>
            <Position>
              <LatitudeDegrees>-15.41718360967934131622314453125</LatitudeDegrees>
              <LongitudeDegrees>37.07018441520631313323974609375</LongitudeDegrees>
            </Position>
            <AltitudeMeters>1174.4000244140625</AltitudeMeters>
            <DistanceMeters>13605.281064056</DistanceMeters>
          </Trackpoint>
          <Trackpoint>
            <Time>2021-08-01T13:07:43.000Z</Time>
            <Position>
              <LatitudeDegrees>-15.41709006763994693756103515625</LatitudeDegrees>
              <LongitudeDegrees>37.070227079093456268310546875</LongitudeDegrees>
            </Position>
            <AltitudeMeters>1175.199951171875</AltitudeMeters>
            <DistanceMeters>13616.654535164</DistanceMeters>
          </Trackpoint>
          <Trackpoint>
            <Time>2021-08-01T13:07:45.000Z</Time>
            <Position>
              <LatitudeDegrees>-15.417070202529430389404296875</LatitudeDegrees>
              <LongitudeDegrees>37.07023370079696178436279296875</LongitudeDegrees>
            </Position>
            <AltitudeMeters>1175.4000244140625</AltitudeMeters>
            <DistanceMeters>13618.978322098</DistanceMeters>
          </Trackpoint>
          <Trackpoint>
            <Time>2021-08-01T13:07:46.000Z</Time>
            <Position>
              <LatitudeDegrees>-15.4170613177120685577392578125</LatitudeDegrees>
              <LongitudeDegrees>37.07023437134921550750732421875</LongitudeDegrees>
            </Position>
            <AltitudeMeters>1175.5999755859375</AltitudeMeters>
            <DistanceMeters>13619.974970687</DistanceMeters>
          </Trackpoint>
          <Trackpoint>
            <Time>2021-08-01T13:07:55.000Z</Time>
            <Position>
              <LatitudeDegrees>-15.41697942651808261871337890625</LatitudeDegrees>
              <LongitudeDegrees>37.07024258561432361602783203125</LongitudeDegrees>
            </Position>
            <AltitudeMeters>1176.4000244140625</AltitudeMeters>
            <DistanceMeters>13629.131621809</DistanceMeters>
          </Trackpoint>
          <Trackpoint>
            <Time>2021-08-01T13:07:56.000Z</Time>
            <Position>
              <LatitudeDegrees>-15.41696500964462757110595703125</LatitudeDegrees>
              <LongitudeDegrees>37.07024627365171909332275390625</LongitudeDegrees>
            </Position>
            <AltitudeMeters>1176.5999755859375</AltitudeMeters>
            <DistanceMeters>13630.783010039</DistanceMeters>
          </Trackpoint>
          <Trackpoint>
            <Time>2021-08-01T13:08:03.000Z</Time>
            <Position>
              <LatitudeDegrees>-15.41688789613544940948486328125</LatitudeDegrees>
              <LongitudeDegrees>37.07025356590747833251953125</LongitudeDegrees>
            </Position>
            <AltitudeMeters>1177.5999755859375</AltitudeMeters>
            <DistanceMeters>13639.401152458</DistanceMeters>
          </Trackpoint>
          <Trackpoint>
            <Time>2021-08-01T13:08:07.000Z</Time>
            <Position>
              <LatitudeDegrees>-15.41684414260089397430419921875</LatitudeDegrees>
              <LongitudeDegrees>37.07025633193552494049072265625</LongitudeDegrees>
            </Position>
            <AltitudeMeters>1178.199951171875</AltitudeMeters>
            <DistanceMeters>13644.280013135</DistanceMeters>
          </Trackpoint>
          <Trackpoint>
            <Time>2021-08-01T13:08:10.000Z</Time>
            <Position>
              <LatitudeDegrees>-15.416816733777523040771484375</LatitudeDegrees>
              <LongitudeDegrees>37.0702590979635715484619140625</LongitudeDegrees>
            </Position>
            <AltitudeMeters>1178.800048828125</AltitudeMeters>
            <DistanceMeters>13647.343058911</DistanceMeters>
          </Trackpoint>
          <Trackpoint>
            <Time>2021-08-01T13:08:13.000Z</Time>
            <Position>
              <LatitudeDegrees>-15.416787229478359222412109375</LatitudeDegrees>
              <LongitudeDegrees>37.07025733776390552520751953125</LongitudeDegrees>
            </Position>
            <AltitudeMeters>1179.199951171875</AltitudeMeters>
            <DistanceMeters>13650.632136529</DistanceMeters>
          </Trackpoint>
          <Trackpoint>
            <Time>2021-08-01T13:08:17.000Z</Time>
            <Position>
              <LatitudeDegrees>-15.4167434759438037872314453125</LatitudeDegrees>
              <LongitudeDegrees>37.07026119343936443328857421875</LongitudeDegrees>
            </Position>
            <AltitudeMeters>1179.5999755859375</AltitudeMeters>
            <DistanceMeters>13655.519318969</DistanceMeters>
          </Trackpoint>
          <Trackpoint>
            <Time>2021-08-01T13:08:18.000Z</Time>
            <Position>
              <LatitudeDegrees>-15.41672947816550731658935546875</LatitudeDegrees>
              <LongitudeDegrees>37.07026001997292041778564453125</LongitudeDegrees>
            </Position>
            <AltitudeMeters>1179.800048828125</AltitudeMeters>
            <DistanceMeters>13657.080767219</DistanceMeters>
          </Trackpoint>
          <Trackpoint>
            <Time>2021-08-01T13:08:21.000Z</Time>
            <Position>
              <LatitudeDegrees>-15.41669310070574283599853515625</LatitudeDegrees>
              <LongitudeDegrees>37.070248536765575408935546875</LongitudeDegrees>
            </Position>
            <AltitudeMeters>1180.199951171875</AltitudeMeters>
            <DistanceMeters>13661.31345805</DistanceMeters>
          </Trackpoint>
          <Trackpoint>
            <Time>2021-08-01T13:08:23.000Z</Time>
            <Position>
              <LatitudeDegrees>-15.41666887700557708740234375</LatitudeDegrees>
              <LongitudeDegrees>37.07024074159562587738037109375</LongitudeDegrees>
            </Position>
            <AltitudeMeters>1180.5999755859375</AltitudeMeters>
            <DistanceMeters>13664.135607483</DistanceMeters>
          </Trackpoint>
          <Trackpoint>
            <Time>2021-08-01T13:08:24.000Z</Time>
            <Position>
              <LatitudeDegrees>-15.41665839962661266326904296875</LatitudeDegrees>
              <LongitudeDegrees>37.0702369697391986846923828125</LongitudeDegrees>
            </Position>
            <AltitudeMeters>1180.800048828125</AltitudeMeters>
            <DistanceMeters>13665.37095477</DistanceMeters>
          </Trackpoint>
          <Trackpoint>
            <Time>2021-08-01T13:08:27.000Z</Time>
            <Position>
              <LatitudeDegrees>-15.41662503965198993682861328125</LatitudeDegrees>
              <LongitudeDegrees>37.0702302642166614532470703125</LongitudeDegrees>
            </Position>
            <AltitudeMeters>1181.199951171875</AltitudeMeters>
            <DistanceMeters>13669.152970249</DistanceMeters>
          </Trackpoint>
          <Trackpoint>
            <Time>2021-08-01T13:08:29.000Z</Time>
            <Position>
              <LatitudeDegrees>-15.41660877875983715057373046875</LatitudeDegrees>
              <LongitudeDegrees>37.07022883929312229156494140625</LongitudeDegrees>
            </Position>
            <AltitudeMeters>1181.4000244140625</AltitudeMeters>
            <DistanceMeters>13670.968453078</DistanceMeters>
          </Trackpoint>
          <Trackpoint>
            <Time>2021-08-01T13:08:31.000Z</Time>
            <Position>
              <LatitudeDegrees>-15.41659268550574779510498046875</LatitudeDegrees>
              <LongitudeDegrees>37.0702235586941242218017578125</LongitudeDegrees>
            </Position>
            <AltitudeMeters>1182</AltitudeMeters>
            <DistanceMeters>13672.845080322</DistanceMeters>
          </Trackpoint>
          <Trackpoint>
            <Time>2021-08-01T13:08:37.000Z</Time>
            <Position>
              <LatitudeDegrees>-15.41653317399322986602783203125</LatitudeDegrees>
              <LongitudeDegrees>37.07020872272551059722900390625</LongitudeDegrees>
            </Position>
            <AltitudeMeters>1182.5999755859375</AltitudeMeters>
            <DistanceMeters>13679.657905942</DistanceMeters>
          </Trackpoint>
          <Trackpoint>
            <Time>2021-08-01T13:08:39.000Z</Time>
            <Position>
              <LatitudeDegrees>-15.41650886647403240203857421875</LatitudeDegrees>
              <LongitudeDegrees>37.07020754925906658172607421875</LongitudeDegrees>
            </Position>
            <AltitudeMeters>1183</AltitudeMeters>
            <DistanceMeters>13682.365750485</DistanceMeters>
          </Trackpoint>
          <Trackpoint>
            <Time>2021-08-01T13:08:47.000Z</Time>
            <Position>
              <LatitudeDegrees>-15.41641700081527233123779296875</LatitudeDegrees>
              <LongitudeDegrees>37.07019933499395847320556640625</LongitudeDegrees>
            </Position>
            <AltitudeMeters>1184</AltitudeMeters>
            <DistanceMeters>13692.628195689</DistanceMeters>
          </Trackpoint>
          <Trackpoint>
            <Time>2021-08-01T13:08:48.000Z</Time>
            <Position>
              <LatitudeDegrees>-15.4164078645408153533935546875</LatitudeDegrees>
              <LongitudeDegrees>37.0701979100704193115234375</LongitudeDegrees>
            </Position>
            <AltitudeMeters>1184.199951171875</AltitudeMeters>
            <DistanceMeters>13693.656066763</DistanceMeters>
          </Trackpoint>
          <Trackpoint>
            <Time>2021-08-01T13:08:55.000Z</Time>
            <Position>
              <LatitudeDegrees>-15.416328907012939453125</LatitudeDegrees>
              <LongitudeDegrees>37.07019296474754810333251953125</LongitudeDegrees>
            </Position>
            <AltitudeMeters>1185.4000244140625</AltitudeMeters>
            <DistanceMeters>13702.460280311</DistanceMeters>
          </Trackpoint>
          <Trackpoint>
            <Time>2021-08-01T13:08:57.000Z</Time>
            <Position>
              <LatitudeDegrees>-15.41631239466369152069091796875</LatitudeDegrees>
              <LongitudeDegrees>37.07019145600497722625732421875</LongitudeDegrees>
            </Position>
            <AltitudeMeters>1185.5999755859375</AltitudeMeters>
            <DistanceMeters>13704.307810796</DistanceMeters>
          </Trackpoint>
          <Trackpoint>
            <Time>2021-08-01T13:09:05.000Z</Time>
            <Position>
              <LatitudeDegrees>-15.4162288270890712738037109375</LatitudeDegrees>
              <LongitudeDegrees>37.0701732672750949859619140625</LongitudeDegrees>
            </Position>
            <AltitudeMeters>1186.800048828125</AltitudeMeters>
            <DistanceMeters>13713.811907527</DistanceMeters>
          </Trackpoint>
          <Trackpoint>
            <Time>2021-08-01T13:09:13.000Z</Time>
            <Position>
              <LatitudeDegrees>-15.4161597602069377899169921875</LatitudeDegrees>
              <LongitudeDegrees>37.07016161642968654632568359375</LongitudeDegrees>
            </Position>
            <AltitudeMeters>1187.800048828125</AltitudeMeters>
            <DistanceMeters>13721.600041031</DistanceMeters>
          </Trackpoint>
          <Trackpoint>
            <Time>2021-08-01T13:09:14.000Z</Time>
            <Position>
              <LatitudeDegrees>-15.41614978574216365814208984375</LatitudeDegrees>
              <LongitudeDegrees>37.07016262225806713104248046875</LongitudeDegrees>
            </Position>
            <AltitudeMeters>1188</AltitudeMeters>
            <DistanceMeters>13722.708233432</DistanceMeters>
          </Trackpoint>
          <Trackpoint>
            <Time>2021-08-01T13:09:22.000Z</Time>
            <Position>
              <LatitudeDegrees>-15.41606797836720943450927734375</LatitudeDegrees>
              <LongitudeDegrees>37.0701440982520580291748046875</LongitudeDegrees>
            </Position>
            <AltitudeMeters>1188.800048828125</AltitudeMeters>
            <DistanceMeters>13732.027636591</DistanceMeters>
          </Trackpoint>
          <Trackpoint>
            <Time>2021-08-01T13:09:27.000Z</Time>
            <Position>
              <LatitudeDegrees>-15.41602975688874721527099609375</LatitudeDegrees>
              <LongitudeDegrees>37.07013823091983795166015625</LongitudeDegrees>
            </Position>
            <AltitudeMeters>1190</AltitudeMeters>
            <DistanceMeters>13736.328054775</DistanceMeters>
          </Trackpoint>
          <Trackpoint>
            <Time>2021-08-01T13:09:31.000Z</Time>
            <Position>
              <LatitudeDegrees>-15.41599170304834842681884765625</LatitudeDegrees>
              <LongitudeDegrees>37.07013957202434539794921875</LongitudeDegrees>
            </Position>
            <AltitudeMeters>1190.5999755859375</AltitudeMeters>
            <DistanceMeters>13740.56607578</DistanceMeters>
          </Trackpoint>
          <Trackpoint>
            <Time>2021-08-01T13:09:35.000Z</Time>
            <Position>
              <LatitudeDegrees>-15.41595146991312503814697265625</LatitudeDegrees>
              <LongitudeDegrees>37.0701370574533939361572265625</LongitudeDegrees>
            </Position>
            <AltitudeMeters>1191</AltitudeMeters>
            <DistanceMeters>13745.051497758</DistanceMeters>
          </Trackpoint>
          <Trackpoint>
            <Time>2021-08-01T13:09:40.000Z</Time>
            <Position>
              <LatitudeDegrees>-15.41589078493416309356689453125</LatitudeDegrees>
              <LongitudeDegrees>37.07015968859195709228515625</LongitudeDegrees>
            </Position>
            <AltitudeMeters>1192</AltitudeMeters>
            <DistanceMeters>13752.229003321</DistanceMeters>
          </Trackpoint>
          <Trackpoint>
            <Time>2021-08-01T13:09:47.000Z</Time>
            <Position>
              <LatitudeDegrees>-15.4158130846917629241943359375</LatitudeDegrees>
              <LongitudeDegrees>37.0701702497899532318115234375</LongitudeDegrees>
            </Position>
            <AltitudeMeters>1193.199951171875</AltitudeMeters>
            <DistanceMeters>13760.950778597</DistanceMeters>
          </Trackpoint>
          <Trackpoint>
            <Time>2021-08-01T13:09:48.000Z</Time>
            <Position>
              <LatitudeDegrees>-15.41580495424568653106689453125</LatitudeDegrees>
              <LongitudeDegrees>37.07017234526574611663818359375</LongitudeDegrees>
            </Position>
            <AltitudeMeters>1193.4000244140625</AltitudeMeters>
            <DistanceMeters>13761.886683195</DistanceMeters>
          </Trackpoint>
          <Trackpoint>
            <Time>2021-08-01T13:09:50.000Z</Time>
            <Position>
              <LatitudeDegrees>-15.4157845862209796905517578125</LatitudeDegrees>
              <LongitudeDegrees>37.0701886899769306182861328125</LongitudeDegrees>
            </Position>
            <AltitudeMeters>1193.5999755859375</AltitudeMeters>
            <DistanceMeters>13764.751703175</DistanceMeters>
          </Trackpoint>
          <Trackpoint>
            <Time>2021-08-01T13:09:56.000Z</Time>
            <Position>
              <LatitudeDegrees>-15.41574862785637378692626953125</LatitudeDegrees>
              <LongitudeDegrees>37.07026957534253597259521484375</LongitudeDegrees>
            </Position>
            <AltitudeMeters>1194.199951171875</AltitudeMeters>
            <DistanceMeters>13774.308858778</DistanceMeters>
          </Trackpoint>
          <Trackpoint>
            <Time>2021-08-01T13:10:04.000Z</Time>
            <Position>
              <LatitudeDegrees>-15.4157388210296630859375</LatitudeDegrees>
              <LongitudeDegrees>37.07035414874553680419921875</LongitudeDegrees>
            </Position>
            <AltitudeMeters>1195</AltitudeMeters>
            <DistanceMeters>13783.449223501</DistanceMeters>
          </Trackpoint>
          <Trackpoint>
            <Time>2021-08-01T13:10:07.000Z</Time>
            <Position>
              <LatitudeDegrees>-15.4157363064587116241455078125</LatitudeDegrees>
              <LongitudeDegrees>37.070384658873081207275390625</LongitudeDegrees>
            </Position>
            <AltitudeMeters>1195.5999755859375</AltitudeMeters>
            <DistanceMeters>13786.735554499</DistanceMeters>
          </Trackpoint>
          <Trackpoint>
            <Time>2021-08-01T13:10:15.000Z</Time>
            <Position>
              <LatitudeDegrees>-15.4157255776226520538330078125</LatitudeDegrees>
              <LongitudeDegrees>37.0704661309719085693359375</LongitudeDegrees>
            </Position>
            <AltitudeMeters>1196.199951171875</AltitudeMeters>
            <DistanceMeters>13795.559233952</DistanceMeters>
          </Trackpoint>
          <Trackpoint>
            <Time>2021-08-01T13:10:20.000Z</Time>
            <Position>
              <LatitudeDegrees>-15.41571996174752712249755859375</LatitudeDegrees>
              <LongitudeDegrees>37.070528827607631683349609375</LongitudeDegrees>
            </Position>
            <AltitudeMeters>1196.5999755859375</AltitudeMeters>
            <DistanceMeters>13802.31616125</DistanceMeters>
          </Trackpoint>
          <Trackpoint>
            <Time>2021-08-01T13:10:25.000Z</Time>
            <Position>
              <LatitudeDegrees>-15.415696911513805389404296875</LatitudeDegrees>
              <LongitudeDegrees>37.07058439962565898895263671875</LongitudeDegrees>
            </Position>
            <AltitudeMeters>1196.5999755859375</AltitudeMeters>
            <DistanceMeters>13808.808648973</DistanceMeters>
          </Trackpoint>
          <Trackpoint>
            <Time>2021-08-01T13:10:29.000Z</Time>
            <Position>
              <LatitudeDegrees>-15.4156766273081302642822265625</LatitudeDegrees>
              <LongitudeDegrees>37.070622034370899200439453125</LongitudeDegrees>
            </Position>
            <AltitudeMeters>1197.199951171875</AltitudeMeters>
            <DistanceMeters>13813.435776727</DistanceMeters>
          </Trackpoint>
          <Trackpoint>
            <Time>2021-08-01T13:10:31.000Z</Time>
            <Position>
              <LatitudeDegrees>-15.415660701692104339599609375</LatitudeDegrees>
              <LongitudeDegrees>37.07064709626138210296630859375</LongitudeDegrees>
            </Position>
            <AltitudeMeters>1197.199951171875</AltitudeMeters>
            <DistanceMeters>13816.655485993</DistanceMeters>
          </Trackpoint>
          <Trackpoint>
            <Time>2021-08-01T13:10:34.000Z</Time>
            <Position>
              <LatitudeDegrees>-15.415649972856044769287109375</LatitudeDegrees>
              <LongitudeDegrees>37.07067877985537052154541015625</LongitudeDegrees>
            </Position>
            <AltitudeMeters>1197.199951171875</AltitudeMeters>
            <DistanceMeters>13820.258991221</DistanceMeters>
          </Trackpoint>
          <Trackpoint>
            <Time>2021-08-01T13:10:39.000Z</Time>
            <Position>
              <LatitudeDegrees>-15.415622480213642120361328125</LatitudeDegrees>
              <LongitudeDegrees>37.0707251317799091339111328125</LongitudeDegrees>
            </Position>
            <AltitudeMeters>1197.800048828125</AltitudeMeters>
            <DistanceMeters>13826.097530299</DistanceMeters>
          </Trackpoint>
          <Trackpoint>
            <Time>2021-08-01T13:10:45.000Z</Time>
            <Position>
              <LatitudeDegrees>-15.41558501310646533966064453125</LatitudeDegrees>
              <LongitudeDegrees>37.07078925333917140960693359375</LongitudeDegrees>
            </Position>
            <AltitudeMeters>1198.199951171875</AltitudeMeters>
            <DistanceMeters>13834.142314813</DistanceMeters>
          </Trackpoint>
          <Trackpoint>
            <Time>2021-08-01T13:10:50.000Z</Time>
            <Position>
              <LatitudeDegrees>-15.41554930619895458221435546875</LatitudeDegrees>
              <LongitudeDegrees>37.0708327554166316986083984375</LongitudeDegrees>
            </Position>
            <AltitudeMeters>1198.4000244140625</AltitudeMeters>
            <DistanceMeters>13840.272826877</DistanceMeters>
          </Trackpoint>
          <Trackpoint>
            <Time>2021-08-01T13:10:53.000Z</Time>
            <Position>
              <LatitudeDegrees>-15.41551879607141017913818359375</LatitudeDegrees>
              <LongitudeDegrees>37.070859409868717193603515625</LongitudeDegrees>
            </Position>
            <AltitudeMeters>1198.800048828125</AltitudeMeters>
            <DistanceMeters>13844.711703627</DistanceMeters>
          </Trackpoint>
          <Trackpoint>
            <Time>2021-08-01T13:10:55.000Z</Time>
            <Position>
              <LatitudeDegrees>-15.4155016131699085235595703125</LatitudeDegrees>
              <LongitudeDegrees>37.07087608985602855682373046875</LongitudeDegrees>
            </Position>
            <AltitudeMeters>1198.800048828125</AltitudeMeters>
            <DistanceMeters>13847.331409354</DistanceMeters>
          </Trackpoint>
          <Trackpoint>
            <Time>2021-08-01T13:11:04.000Z</Time>
            <Position>
              <LatitudeDegrees>-15.4154194705188274383544921875</LatitudeDegrees>
              <LongitudeDegrees>37.07093325443565845489501953125</LongitudeDegrees>
            </Position>
            <AltitudeMeters>1199.4000244140625</AltitudeMeters>
            <DistanceMeters>13858.340983192</DistanceMeters>
          </Trackpoint>
          <Trackpoint>
            <Time>2021-08-01T13:11:11.000Z</Time>
            <Position>
              <LatitudeDegrees>-15.41535467840731143951416015625</LatitudeDegrees>
              <LongitudeDegrees>37.07097650505602359771728515625</LongitudeDegrees>
            </Position>
            <AltitudeMeters>1199.800048828125</AltitudeMeters>
            <DistanceMeters>13866.916584778</DistanceMeters>
          </Trackpoint>
          <Trackpoint>
            <Time>2021-08-01T13:11:13.000Z</Time>
            <Position>
              <LatitudeDegrees>-15.4153379984200000762939453125</LatitudeDegrees>
              <LongitudeDegrees>37.070990167558193206787109375</LongitudeDegrees>
            </Position>
            <AltitudeMeters>1200</AltitudeMeters>
            <DistanceMeters>13869.282730884</DistanceMeters>
          </Trackpoint>
          <Trackpoint>
            <Time>2021-08-01T13:11:22.000Z</Time>
            <Position>
              <LatitudeDegrees>-15.41526717133820056915283203125</LatitudeDegrees>
              <LongitudeDegrees>37.071042470633983612060546875</LongitudeDegrees>
            </Position>
            <AltitudeMeters>1200.800048828125</AltitudeMeters>
            <DistanceMeters>13878.959605004</DistanceMeters>
          </Trackpoint>
          <Trackpoint>
            <Time>2021-08-01T13:11:23.000Z</Time>
            <Position>
              <LatitudeDegrees>-15.41525543667376041412353515625</LatitudeDegrees>
              <LongitudeDegrees>37.07105278037488460540771484375</LongitudeDegrees>
            </Position>
            <AltitudeMeters>1201</AltitudeMeters>
            <DistanceMeters>13880.670085862</DistanceMeters>
          </Trackpoint>
          <Trackpoint>
            <Time>2021-08-01T13:11:30.000Z</Time>
            <Position>
              <LatitudeDegrees>-15.4152075760066509246826171875</LatitudeDegrees>
              <LongitudeDegrees>37.0711003057658672332763671875</LongitudeDegrees>
            </Position>
            <AltitudeMeters>1202</AltitudeMeters>
            <DistanceMeters>13888.044305845</DistanceMeters>
          </Trackpoint>
          <Trackpoint>
            <Time>2021-08-01T13:11:32.000Z</Time>
            <Position>
              <LatitudeDegrees>-15.41519274003803730010986328125</LatitudeDegrees>
              <LongitudeDegrees>37.0711106993257999420166015625</LongitudeDegrees>
            </Position>
            <AltitudeMeters>1202.199951171875</AltitudeMeters>
            <DistanceMeters>13890.037603022</DistanceMeters>
          </Trackpoint>
          <Trackpoint>
            <Time>2021-08-01T13:11:36.000Z</Time>
            <Position>
              <LatitudeDegrees>-15.4151492379605770111083984375</LatitudeDegrees>
              <LongitudeDegrees>37.07113509066402912139892578125</LongitudeDegrees>
            </Position>
            <AltitudeMeters>1202.5999755859375</AltitudeMeters>
            <DistanceMeters>13895.5409544</DistanceMeters>
          </Trackpoint>
          <Trackpoint>
            <Time>2021-08-01T13:11:41.000Z</Time>
            <Position>
              <LatitudeDegrees>-15.41511177085340023040771484375</LatitudeDegrees>
              <LongitudeDegrees>37.07117356359958648681640625</LongitudeDegrees>
            </Position>
            <AltitudeMeters>1203.199951171875</AltitudeMeters>
            <DistanceMeters>13901.408036418</DistanceMeters>
          </Trackpoint>
          <Trackpoint>
            <Time>2021-08-01T13:11:43.000Z</Time>
            <Position>
              <LatitudeDegrees>-15.41509567759931087493896484375</LatitudeDegrees>
              <LongitudeDegrees>37.071184627711772918701171875</LongitudeDegrees>
            </Position>
            <AltitudeMeters>1203.4000244140625</AltitudeMeters>
            <DistanceMeters>13903.554041773</DistanceMeters>
          </Trackpoint>
          <Trackpoint>
            <Time>2021-08-01T13:11:45.000Z</Time>
            <Position>
              <LatitudeDegrees>-15.4150768183171749114990234375</LatitudeDegrees>
              <LongitudeDegrees>37.0711972005665302276611328125</LongitudeDegrees>
            </Position>
            <AltitudeMeters>1203.4000244140625</AltitudeMeters>
            <DistanceMeters>13906.050189354</DistanceMeters>
          </Trackpoint>
          <Trackpoint>
            <Time>2021-08-01T13:11:52.000Z</Time>
            <Position>
              <LatitudeDegrees>-15.415027700364589691162109375</LatitudeDegrees>
              <LongitudeDegrees>37.0712491683661937713623046875</LongitudeDegrees>
            </Position>
            <AltitudeMeters>1203.800048828125</AltitudeMeters>
            <DistanceMeters>13913.859743522</DistanceMeters>
          </Trackpoint>
          <Trackpoint>
            <Time>2021-08-01T13:11:56.000Z</Time>
            <Position>
              <LatitudeDegrees>-15.41499325074255466461181640625</LatitudeDegrees>
              <LongitudeDegrees>37.0712776668369770050048828125</LongitudeDegrees>
            </Position>
            <AltitudeMeters>1204.4000244140625</AltitudeMeters>
            <DistanceMeters>13918.764447759</DistanceMeters>
          </Trackpoint>
          <Trackpoint>
            <Time>2021-08-01T13:12:02.000Z</Time>
            <Position>
              <LatitudeDegrees>-15.41495025157928466796875</LatitudeDegrees>
              <LongitudeDegrees>37.07133156247437000274658203125</LongitudeDegrees>
            </Position>
            <AltitudeMeters>1205.199951171875</AltitudeMeters>
            <DistanceMeters>13926.270956735</DistanceMeters>
          </Trackpoint>
          <Trackpoint>
            <Time>2021-08-01T13:12:05.000Z</Time>
            <Position>
              <LatitudeDegrees>-15.41492787189781665802001953125</LatitudeDegrees>
              <LongitudeDegrees>37.07136207260191440582275390625</LongitudeDegrees>
            </Position>
            <AltitudeMeters>1205.4000244140625</AltitudeMeters>
            <DistanceMeters>13930.384636749</DistanceMeters>
          </Trackpoint>
          <Trackpoint>
            <Time>2021-08-01T13:12:07.000Z</Time>
            <Position>
              <LatitudeDegrees>-15.4149175621569156646728515625</LatitudeDegrees>
              <LongitudeDegrees>37.07138034515082836151123046875</LongitudeDegrees>
            </Position>
            <AltitudeMeters>1205.5999755859375</AltitudeMeters>
            <DistanceMeters>13932.659330971</DistanceMeters>
          </Trackpoint>
          <Trackpoint>
            <Time>2021-08-01T13:12:09.000Z</Time>
            <Position>
              <LatitudeDegrees>-15.414900965988636016845703125</LatitudeDegrees>
              <LongitudeDegrees>37.07139710895717144012451171875</LongitudeDegrees>
            </Position>
            <AltitudeMeters>1205.800048828125</AltitudeMeters>
            <DistanceMeters>13935.239091878</DistanceMeters>
          </Trackpoint>
          <Trackpoint>
            <Time>2021-08-01T13:12:10.000Z</Time>
            <Position>
              <LatitudeDegrees>-15.414890237152576446533203125</LatitudeDegrees>
              <LongitudeDegrees>37.071404568850994110107421875</LongitudeDegrees>
            </Position>
            <AltitudeMeters>1205.800048828125</AltitudeMeters>
            <DistanceMeters>13936.677107005</DistanceMeters>
          </Trackpoint>
          <Trackpoint>
            <Time>2021-08-01T13:12:14.000Z</Time>
            <Position>
              <LatitudeDegrees>-15.4148434661328792572021484375</LatitudeDegrees>
              <LongitudeDegrees>37.0714151300489902496337890625</LongitudeDegrees>
            </Position>
            <AltitudeMeters>1206.5999755859375</AltitudeMeters>
            <DistanceMeters>13942.004538869</DistanceMeters>
          </Trackpoint>
          <Trackpoint>
            <Time>2021-08-01T13:12:19.000Z</Time>
            <Position>
              <LatitudeDegrees>-15.41478990577161312103271484375</LatitudeDegrees>
              <LongitudeDegrees>37.07143281586468219757080078125</LongitudeDegrees>
            </Position>
            <AltitudeMeters>1207.4000244140625</AltitudeMeters>
            <DistanceMeters>13948.261165866</DistanceMeters>
          </Trackpoint>
          <Trackpoint>
            <Time>2021-08-01T13:12:21.000Z</Time>
            <Position>
              <LatitudeDegrees>-15.41477263905107975006103515625</LatitudeDegrees>
              <LongitudeDegrees>37.07143734209239482879638671875</LongitudeDegrees>
            </Position>
            <AltitudeMeters>1207.800048828125</AltitudeMeters>
            <DistanceMeters>13950.243105132</DistanceMeters>
          </Trackpoint>
          <Trackpoint>
            <Time>2021-08-01T13:12:28.000Z</Time>
            <Position>
              <LatitudeDegrees>-15.414695106446743011474609375</LatitudeDegrees>
              <LongitudeDegrees>37.0714587159454822540283203125</LongitudeDegrees>
            </Position>
            <AltitudeMeters>1208.4000244140625</AltitudeMeters>
            <DistanceMeters>13959.172583</DistanceMeters>
          </Trackpoint>
          <Trackpoint>
            <Time>2021-08-01T13:12:36.000Z</Time>
            <Position>
              <LatitudeDegrees>-15.41461120359599590301513671875</LatitudeDegrees>
              <LongitudeDegrees>37.071465589106082916259765625</LongitudeDegrees>
            </Position>
            <AltitudeMeters>1208.800048828125</AltitudeMeters>
            <DistanceMeters>13968.540308598</DistanceMeters>
          </Trackpoint>
          <Trackpoint>
            <Time>2021-08-01T13:12:40.000Z</Time>
            <Position>
              <LatitudeDegrees>-15.4145708866417407989501953125</LatitudeDegrees>
              <LongitudeDegrees>37.071470953524112701416015625</LongitudeDegrees>
            </Position>
            <AltitudeMeters>1209</AltitudeMeters>
            <DistanceMeters>13973.063819759</DistanceMeters>
          </Trackpoint>
          <Trackpoint>
            <Time>2021-08-01T13:12:52.000Z</Time>
            <Position>
              <LatitudeDegrees>-15.41443551890552043914794921875</LatitudeDegrees>
              <LongitudeDegrees>37.07149718888103961944580078125</LongitudeDegrees>
            </Position>
            <AltitudeMeters>1209.4000244140625</AltitudeMeters>
            <DistanceMeters>13988.391130964</DistanceMeters>
          </Trackpoint>
          <Trackpoint>
            <Time>2021-08-01T13:12:57.000Z</Time>
            <Position>
              <LatitudeDegrees>-15.41437231935560703277587890625</LatitudeDegrees>
              <LongitudeDegrees>37.07151344977319240570068359375</LongitudeDegrees>
            </Position>
            <AltitudeMeters>1209.4000244140625</AltitudeMeters>
            <DistanceMeters>13995.638125141</DistanceMeters>
          </Trackpoint>
          <Trackpoint>
            <Time>2021-08-01T13:13:03.000Z</Time>
            <Position>
              <LatitudeDegrees>-15.41429554112255573272705078125</LatitudeDegrees>
              <LongitudeDegrees>37.07151596434414386749267578125</LongitudeDegrees>
            </Position>
            <AltitudeMeters>1209.199951171875</AltitudeMeters>
            <DistanceMeters>14004.18736129</DistanceMeters>
          </Trackpoint>
          <Trackpoint>
            <Time>2021-08-01T13:13:06.000Z</Time>
            <Position>
              <LatitudeDegrees>-15.4142569005489349365234375</LatitudeDegrees>
              <LongitudeDegrees>37.07151931710541248321533203125</LongitudeDegrees>
            </Position>
            <AltitudeMeters>1209</AltitudeMeters>
            <DistanceMeters>14008.502453135</DistanceMeters>
          </Trackpoint>
          <Trackpoint>
            <Time>2021-08-01T13:13:09.000Z</Time>
            <Position>
              <LatitudeDegrees>-15.41421675123274326324462890625</LatitudeDegrees>
              <LongitudeDegrees>37.07152434624731540679931640625</LongitudeDegrees>
            </Position>
            <AltitudeMeters>1209.4000244140625</AltitudeMeters>
            <DistanceMeters>14013.004954841</DistanceMeters>
          </Trackpoint>
          <Trackpoint>
            <Time>2021-08-01T13:13:15.000Z</Time>
            <Position>
              <LatitudeDegrees>-15.41413963772356510162353515625</LatitudeDegrees>
              <LongitudeDegrees>37.071537338197231292724609375</LongitudeDegrees>
            </Position>
            <AltitudeMeters>1209.5999755859375</AltitudeMeters>
            <DistanceMeters>14021.700807884</DistanceMeters>
          </Trackpoint>
          <Trackpoint>
            <Time>2021-08-01T13:13:18.000Z</Time>
            <Position>
              <LatitudeDegrees>-15.41410577483475208282470703125</LatitudeDegrees>
              <LongitudeDegrees>37.07154328934848308563232421875</LongitudeDegrees>
            </Position>
            <AltitudeMeters>1209.800048828125</AltitudeMeters>
            <DistanceMeters>14025.525559358</DistanceMeters>
          </Trackpoint>
          <Trackpoint>
            <Time>2021-08-01T13:13:26.000Z</Time>
            <Position>
              <LatitudeDegrees>-15.413998067378997802734375</LatitudeDegrees>
              <LongitudeDegrees>37.07155904732644557952880859375</LongitudeDegrees>
            </Position>
            <AltitudeMeters>1209.5999755859375</AltitudeMeters>
            <DistanceMeters>14037.632425213</DistanceMeters>
          </Trackpoint>
          <Trackpoint>
            <Time>2021-08-01T13:13:37.000Z</Time>
            <Position>
              <LatitudeDegrees>-15.41386689059436321258544921875</LatitudeDegrees>
              <LongitudeDegrees>37.07156709395349025726318359375</LongitudeDegrees>
            </Position>
            <AltitudeMeters>1209</AltitudeMeters>
            <DistanceMeters>14052.25820659</DistanceMeters>
          </Trackpoint>
          <Trackpoint>
            <Time>2021-08-01T13:13:46.000Z</Time>
            <Position>
              <LatitudeDegrees>-15.41375289671123027801513671875</LatitudeDegrees>
              <LongitudeDegrees>37.0715569518506526947021484375</LongitudeDegrees>
            </Position>
            <AltitudeMeters>1208.199951171875</AltitudeMeters>
            <DistanceMeters>14064.99249545</DistanceMeters>
          </Trackpoint>
          <Trackpoint>
            <Time>2021-08-01T13:13:49.000Z</Time>
            <Position>
              <LatitudeDegrees>-15.41371551342308521270751953125</LatitudeDegrees>
              <LongitudeDegrees>37.07154965959489345550537109375</LongitudeDegrees>
            </Position>
            <AltitudeMeters>1207.4000244140625</AltitudeMeters>
            <DistanceMeters>14069.226252853</DistanceMeters>
          </Trackpoint>
          <Trackpoint>
            <Time>2021-08-01T13:13:57.000Z</Time>
            <Position>
              <LatitudeDegrees>-15.4136233963072299957275390625</LatitudeDegrees>
              <LongitudeDegrees>37.07153021357953548431396484375</LongitudeDegrees>
            </Position>
            <AltitudeMeters>1206.4000244140625</AltitudeMeters>
            <DistanceMeters>14079.689121328</DistanceMeters>
          </Trackpoint>
          <Trackpoint>
            <Time>2021-08-01T13:14:00.000Z</Time>
            <Position>
              <LatitudeDegrees>-15.41358693502843379974365234375</LatitudeDegrees>
              <LongitudeDegrees>37.07152401097118854522705078125</LongitudeDegrees>
            </Position>
            <AltitudeMeters>1206.4000244140625</AltitudeMeters>
            <DistanceMeters>14083.801703629</DistanceMeters>
          </Trackpoint>
          <Trackpoint>
            <Time>2021-08-01T13:14:05.000Z</Time>
            <Position>
              <LatitudeDegrees>-15.41352155618369579315185546875</LatitudeDegrees>
              <LongitudeDegrees>37.0715121924877166748046875</LongitudeDegrees>
            </Position>
            <AltitudeMeters>1205.5999755859375</AltitudeMeters>
            <DistanceMeters>14091.188158927</DistanceMeters>
          </Trackpoint>
          <Trackpoint>
            <Time>2021-08-01T13:14:07.000Z</Time>
            <Position>
              <LatitudeDegrees>-15.4134929738938808441162109375</LatitudeDegrees>
              <LongitudeDegrees>37.07150347530841827392578125</LongitudeDegrees>
            </Position>
            <AltitudeMeters>1205.199951171875</AltitudeMeters>
            <DistanceMeters>14094.503215945</DistanceMeters>
          </Trackpoint>
          <Trackpoint>
            <Time>2021-08-01T13:14:09.000Z</Time>
            <Position>
              <LatitudeDegrees>-15.41346774436533451080322265625</LatitudeDegrees>
              <LongitudeDegrees>37.07149283029139041900634765625</LongitudeDegrees>
            </Position>
            <AltitudeMeters>1205.199951171875</AltitudeMeters>
            <DistanceMeters>14097.533659434</DistanceMeters>
          </Trackpoint>
          <Trackpoint>
            <Time>2021-08-01T13:14:13.000Z</Time>
            <Position>
              <LatitudeDegrees>-15.41342206299304962158203125</LatitudeDegrees>
              <LongitudeDegrees>37.07147791050374507904052734375</LongitudeDegrees>
            </Position>
            <AltitudeMeters>1205</AltitudeMeters>
            <DistanceMeters>14102.863633214</DistanceMeters>
          </Trackpoint>
          <Trackpoint>
            <Time>2021-08-01T13:14:16.000Z</Time>
            <Position>
              <LatitudeDegrees>-15.413384847342967987060546875</LatitudeDegrees>
              <LongitudeDegrees>37.0714639127254486083984375</LongitudeDegrees>
            </Position>
            <AltitudeMeters>1205</AltitudeMeters>
            <DistanceMeters>14107.269840694</DistanceMeters>
          </Trackpoint>
          <Trackpoint>
            <Time>2021-08-01T13:14:22.000Z</Time>
            <Position>
              <LatitudeDegrees>-15.41331343352794647216796875</LatitudeDegrees>
              <LongitudeDegrees>37.071423344314098358154296875</LongitudeDegrees>
            </Position>
            <AltitudeMeters>1204.4000244140625</AltitudeMeters>
            <DistanceMeters>14116.331822551</DistanceMeters>
          </Trackpoint>
          <Trackpoint>
            <Time>2021-08-01T13:14:25.000Z</Time>
            <Position>
              <LatitudeDegrees>-15.41327881626784801483154296875</LatitudeDegrees>
              <LongitudeDegrees>37.0714049041271209716796875</LongitudeDegrees>
            </Position>
            <AltitudeMeters>1204.199951171875</AltitudeMeters>
            <DistanceMeters>14120.662581004</DistanceMeters>
          </Trackpoint>
          <Trackpoint>
            <Time>2021-08-01T13:14:33.000Z</Time>
            <Position>
              <LatitudeDegrees>-15.41319365613162517547607421875</LatitudeDegrees>
              <LongitudeDegrees>37.0713460631668567657470703125</LongitudeDegrees>
            </Position>
            <AltitudeMeters>1203.4000244140625</AltitudeMeters>
            <DistanceMeters>14132.051523801</DistanceMeters>
          </Trackpoint>
          <Trackpoint>
            <Time>2021-08-01T13:14:35.000Z</Time>
            <Position>
              <LatitudeDegrees>-15.41317018680274486541748046875</LatitudeDegrees>
              <LongitudeDegrees>37.07133558578789234161376953125</LongitudeDegrees>
            </Position>
            <AltitudeMeters>1203.199951171875</AltitudeMeters>
            <DistanceMeters>14134.895983063</DistanceMeters>
          </Trackpoint>
          <Trackpoint>
            <Time>2021-08-01T13:14:39.000Z</Time>
            <Position>
              <LatitudeDegrees>-15.4131369106471538543701171875</LatitudeDegrees>
              <LongitudeDegrees>37.07130826078355312347412109375</LongitudeDegrees>
            </Position>
            <AltitudeMeters>1202.5999755859375</AltitudeMeters>
            <DistanceMeters>14139.620636381</DistanceMeters>
          </Trackpoint>
          <Trackpoint>
            <Time>2021-08-01T13:14:44.000Z</Time>
            <Position>
              <LatitudeDegrees>-15.41307563893496990203857421875</LatitudeDegrees>
              <LongitudeDegrees>37.07128898240625858306884765625</LongitudeDegrees>
            </Position>
            <AltitudeMeters>1202.199951171875</AltitudeMeters>
            <DistanceMeters>14146.747639958</DistanceMeters>
          </Trackpoint>
          <Trackpoint>
            <Time>2021-08-01T13:14:47.000Z</Time>
            <Position>
              <LatitudeDegrees>-15.4130410216748714447021484375</LatitudeDegrees>
              <LongitudeDegrees>37.07126819528639316558837890625</LongitudeDegrees>
            </Position>
            <AltitudeMeters>1202.199951171875</AltitudeMeters>
            <DistanceMeters>14151.199720123</DistanceMeters>
          </Trackpoint>
          <Trackpoint>
            <Time>2021-08-01T13:14:54.000Z</Time>
            <Position>
              <LatitudeDegrees>-15.41297891177237033843994140625</LatitudeDegrees>
              <LongitudeDegrees>37.07122385501861572265625</LongitudeDegrees>
            </Position>
            <AltitudeMeters>1201.800048828125</AltitudeMeters>
            <DistanceMeters>14159.591176261</DistanceMeters>
          </Trackpoint>
          <Trackpoint>
            <Time>2021-08-01T13:15:01.000Z</Time>
            <Position>
              <LatitudeDegrees>-15.4129102639853954315185546875</LatitudeDegrees>
              <LongitudeDegrees>37.07117222249507904052734375</LongitudeDegrees>
            </Position>
            <AltitudeMeters>1201.4000244140625</AltitudeMeters>
            <DistanceMeters>14169.029486709</DistanceMeters>
          </Trackpoint>
          <Trackpoint>
            <Time>2021-08-01T13:15:02.000Z</Time>
            <Position>
              <LatitudeDegrees>-15.4129008762538433074951171875</LatitudeDegrees>
              <LongitudeDegrees>37.0711673609912395477294921875</LongitudeDegrees>
            </Position>
            <AltitudeMeters>1201.199951171875</AltitudeMeters>
            <DistanceMeters>14170.19332152</DistanceMeters>
          </Trackpoint>
          <Trackpoint>
            <Time>2021-08-01T13:15:04.000Z</Time>
            <Position>
              <LatitudeDegrees>-15.41288025677204132080078125</LatitudeDegrees>
              <LongitudeDegrees>37.07116090692579746246337890625</LongitudeDegrees>
            </Position>
            <AltitudeMeters>1201</AltitudeMeters>
            <DistanceMeters>14172.589804071</DistanceMeters>
          </Trackpoint>
          <Trackpoint>
            <Time>2021-08-01T13:15:14.000Z</Time>
            <Position>
              <LatitudeDegrees>-15.41276416741311550140380859375</LatitudeDegrees>
              <LongitudeDegrees>37.07111346535384654998779296875</LongitudeDegrees>
            </Position>
            <AltitudeMeters>1200.800048828125</AltitudeMeters>
            <DistanceMeters>14186.477365869</DistanceMeters>
          </Trackpoint>
          <Trackpoint>
            <Time>2021-08-01T13:15:26.000Z</Time>
            <Position>
              <LatitudeDegrees>-15.4126234352588653564453125</LatitudeDegrees>
              <LongitudeDegrees>37.07110919058322906494140625</LongitudeDegrees>
            </Position>
            <AltitudeMeters>1200.800048828125</AltitudeMeters>
            <DistanceMeters>14202.147844446</DistanceMeters>
          </Trackpoint>
          <Trackpoint>
            <Time>2021-08-01T13:15:38.000Z</Time>
            <Position>
              <LatitudeDegrees>-15.4124710522592067718505859375</LatitudeDegrees>
              <LongitudeDegrees>37.07112318836152553558349609375</LongitudeDegrees>
            </Position>
            <AltitudeMeters>1200.5999755859375</AltitudeMeters>
            <DistanceMeters>14219.174605859</DistanceMeters>
          </Trackpoint>
          <Trackpoint>
            <Time>2021-08-01T13:15:44.000Z</Time>
            <Position>
              <LatitudeDegrees>-15.41239033453166484832763671875</LatitudeDegrees>
              <LongitudeDegrees>37.0711241103708744049072265625</LongitudeDegrees>
            </Position>
            <AltitudeMeters>1200</AltitudeMeters>
            <DistanceMeters>14228.15852612</DistanceMeters>
          </Trackpoint>
          <Trackpoint>
            <Time>2021-08-01T13:15:48.000Z</Time>
            <Position>
              <LatitudeDegrees>-15.412343479692935943603515625</LatitudeDegrees>
              <LongitudeDegrees>37.07112335599958896636962890625</LongitudeDegrees>
            </Position>
            <AltitudeMeters>1200</AltitudeMeters>
            <DistanceMeters>14233.374618558</DistanceMeters>
          </Trackpoint>
          <Trackpoint>
            <Time>2021-08-01T13:15:50.000Z</Time>
            <Position>
              <LatitudeDegrees>-15.41232394985854625701904296875</LatitudeDegrees>
              <LongitudeDegrees>37.07112385891377925872802734375</LongitudeDegrees>
            </Position>
            <AltitudeMeters>1200</AltitudeMeters>
            <DistanceMeters>14235.547802853</DistanceMeters>
          </Trackpoint>
          <Trackpoint>
            <Time>2021-08-01T13:15:52.000Z</Time>
            <Position>
              <LatitudeDegrees>-15.412304587662220001220703125</LatitudeDegrees>
              <LongitudeDegrees>37.0711247809231281280517578125</LongitudeDegrees>
            </Position>
            <AltitudeMeters>1200</AltitudeMeters>
            <DistanceMeters>14237.704302185</DistanceMeters>
          </Trackpoint>
          <Trackpoint>
            <Time>2021-08-01T13:15:54.000Z</Time>
            <Position>
              <LatitudeDegrees>-15.412281788885593414306640625</LatitudeDegrees>
              <LongitudeDegrees>37.07112084142863750457763671875</LongitudeDegrees>
            </Position>
            <AltitudeMeters>1200</AltitudeMeters>
            <DistanceMeters>14240.275297315</DistanceMeters>
          </Trackpoint>
          <Trackpoint>
            <Time>2021-08-01T13:15:57.000Z</Time>
            <Position>
              <LatitudeDegrees>-15.41225370950996875762939453125</LatitudeDegrees>
              <LongitudeDegrees>37.07111321389675140380859375</LongitudeDegrees>
            </Position>
            <AltitudeMeters>1200</AltitudeMeters>
            <DistanceMeters>14243.50480785</DistanceMeters>
          </Trackpoint>
          <Trackpoint>
            <Time>2021-08-01T13:15:59.000Z</Time>
            <Position>
              <LatitudeDegrees>-15.41223158128559589385986328125</LatitudeDegrees>
              <LongitudeDegrees>37.07110944204032421112060546875</LongitudeDegrees>
            </Position>
            <AltitudeMeters>1200</AltitudeMeters>
            <DistanceMeters>14246.002763578</DistanceMeters>
          </Trackpoint>
          <Trackpoint>
            <Time>2021-08-01T13:16:08.000Z</Time>
            <Position>
              <LatitudeDegrees>-15.4121190123260021209716796875</LatitudeDegrees>
              <LongitudeDegrees>37.071098126471042633056640625</LongitudeDegrees>
            </Position>
            <AltitudeMeters>1199.5999755859375</AltitudeMeters>
            <DistanceMeters>14258.590844506</DistanceMeters>
          </Trackpoint>
          <Trackpoint>
            <Time>2021-08-01T13:16:11.000Z</Time>
            <Position>
              <LatitudeDegrees>-15.4120767675340175628662109375</LatitudeDegrees>
              <LongitudeDegrees>37.07109787501394748687744140625</LongitudeDegrees>
            </Position>
            <AltitudeMeters>1199</AltitudeMeters>
            <DistanceMeters>14263.292506673</DistanceMeters>
          </Trackpoint>
          <Trackpoint>
            <Time>2021-08-01T13:16:17.000Z</Time>
            <Position>
              <LatitudeDegrees>-15.41198364458978176116943359375</LatitudeDegrees>
              <LongitudeDegrees>37.07107457332313060760498046875</LongitudeDegrees>
            </Position>
            <AltitudeMeters>1198.5999755859375</AltitudeMeters>
            <DistanceMeters>14273.954571781</DistanceMeters>
          </Trackpoint>
          <Trackpoint>
            <Time>2021-08-01T13:16:21.000Z</Time>
            <Position>
              <LatitudeDegrees>-15.41193972341716289520263671875</LatitudeDegrees>
              <LongitudeDegrees>37.0710590668022632598876953125</LongitudeDegrees>
            </Position>
            <AltitudeMeters>1197.800048828125</AltitudeMeters>
            <DistanceMeters>14279.119341457</DistanceMeters>
          </Trackpoint>
          <Trackpoint>
            <Time>2021-08-01T13:16:28.000Z</Time>
            <Position>
              <LatitudeDegrees>-15.41185540147125720977783203125</LatitudeDegrees>
              <LongitudeDegrees>37.0710342563688755035400390625</LongitudeDegrees>
            </Position>
            <AltitudeMeters>1197.5999755859375</AltitudeMeters>
            <DistanceMeters>14288.87428613</DistanceMeters>
          </Trackpoint>
          <Trackpoint>
            <Time>2021-08-01T13:16:29.000Z</Time>
            <Position>
              <LatitudeDegrees>-15.411844588816165924072265625</LatitudeDegrees>
              <LongitudeDegrees>37.0710325799882411956787109375</LongitudeDegrees>
            </Position>
            <AltitudeMeters>1197.4000244140625</AltitudeMeters>
            <DistanceMeters>14290.091221846</DistanceMeters>
          </Trackpoint>
          <Trackpoint>
            <Time>2021-08-01T13:16:40.000Z</Time>
            <Position>
              <LatitudeDegrees>-15.41170553304255008697509765625</LatitudeDegrees>
              <LongitudeDegrees>37.071006596088409423828125</LongitudeDegrees>
            </Position>
            <AltitudeMeters>1196.800048828125</AltitudeMeters>
            <DistanceMeters>14305.817784208</DistanceMeters>
          </Trackpoint>
          <Trackpoint>
            <Time>2021-08-01T13:16:41.000Z</Time>
            <Position>
              <LatitudeDegrees>-15.4116915352642536163330078125</LatitudeDegrees>
              <LongitudeDegrees>37.0710064284503459930419921875</LongitudeDegrees>
            </Position>
            <AltitudeMeters>1196.800048828125</AltitudeMeters>
            <DistanceMeters>14307.376338206</DistanceMeters>
          </Trackpoint>
          <Trackpoint>
            <Time>2021-08-01T13:16:50.000Z</Time>
            <Position>
              <LatitudeDegrees>-15.411589778959751129150390625</LatitudeDegrees>
              <LongitudeDegrees>37.070980109274387359619140625</LongitudeDegrees>
            </Position>
            <AltitudeMeters>1196.5999755859375</AltitudeMeters>
            <DistanceMeters>14319.048388724</DistanceMeters>
          </Trackpoint>
          <Trackpoint>
            <Time>2021-08-01T13:16:52.000Z</Time>
            <Position>
              <LatitudeDegrees>-15.41157091967761516571044921875</LatitudeDegrees>
              <LongitudeDegrees>37.07097700797021389007568359375</LongitudeDegrees>
            </Position>
            <AltitudeMeters>1196.4000244140625</AltitudeMeters>
            <DistanceMeters>14321.173250654</DistanceMeters>
          </Trackpoint>
          <Trackpoint>
            <Time>2021-08-01T13:17:01.000Z</Time>
            <Position>
              <LatitudeDegrees>-15.411464385688304901123046875</LatitudeDegrees>
              <LongitudeDegrees>37.07096141763031482696533203125</LongitudeDegrees>
            </Position>
            <AltitudeMeters>1196.5999755859375</AltitudeMeters>
            <DistanceMeters>14333.147747882</DistanceMeters>
          </Trackpoint>
          <Trackpoint>
            <Time>2021-08-01T13:17:10.000Z</Time>
            <Position>
              <LatitudeDegrees>-15.411358438432216644287109375</LatitudeDegrees>
              <LongitudeDegrees>37.070968039333820343017578125</LongitudeDegrees>
            </Position>
            <AltitudeMeters>1196.199951171875</AltitudeMeters>
            <DistanceMeters>14344.961674474</DistanceMeters>
          </Trackpoint>
          <Trackpoint>
            <Time>2021-08-01T13:17:21.000Z</Time>
            <Position>
              <LatitudeDegrees>-15.4112392477691173553466796875</LatitudeDegrees>
              <LongitudeDegrees>37.07095286808907985687255859375</LongitudeDegrees>
            </Position>
            <AltitudeMeters>1196.4000244140625</AltitudeMeters>
            <DistanceMeters>14358.327714739</DistanceMeters>
          </Trackpoint>
          <Trackpoint>
            <Time>2021-08-01T13:17:31.000Z</Time>
            <Position>
              <LatitudeDegrees>-15.41113011538982391357421875</LatitudeDegrees>
              <LongitudeDegrees>37.0709435641765594482421875</LongitudeDegrees>
            </Position>
            <AltitudeMeters>1196.800048828125</AltitudeMeters>
            <DistanceMeters>14370.51560863</DistanceMeters>
          </Trackpoint>
          <Trackpoint>
            <Time>2021-08-01T13:17:36.000Z</Time>
            <Position>
              <LatitudeDegrees>-15.4110758006572723388671875</LatitudeDegrees>
              <LongitudeDegrees>37.07094197161495685577392578125</LongitudeDegrees>
            </Position>
            <AltitudeMeters>1197.199951171875</AltitudeMeters>
            <DistanceMeters>14376.563071701</DistanceMeters>
          </Trackpoint>
          <Trackpoint>
            <Time>2021-08-01T13:17:41.000Z</Time>
            <Position>
              <LatitudeDegrees>-15.4110172949731349945068359375</LatitudeDegrees>
              <LongitudeDegrees>37.07093090750277042388916015625</LongitudeDegrees>
            </Position>
            <AltitudeMeters>1197.5999755859375</AltitudeMeters>
            <DistanceMeters>14383.182280937</DistanceMeters>
          </Trackpoint>
          <Trackpoint>
            <Time>2021-08-01T13:17:46.000Z</Time>
            <Position>
              <LatitudeDegrees>-15.41094931773841381072998046875</LatitudeDegrees>
              <LongitudeDegrees>37.0709242857992649078369140625</LongitudeDegrees>
            </Position>
            <AltitudeMeters>1197.800048828125</AltitudeMeters>
            <DistanceMeters>14390.782042047</DistanceMeters>
          </Trackpoint>
          <Trackpoint>
            <Time>2021-08-01T13:17:52.000Z</Time>
            <Position>
              <LatitudeDegrees>-15.4108788259327411651611328125</LatitudeDegrees>
              <LongitudeDegrees>37.070898972451686859130859375</LongitudeDegrees>
            </Position>
            <AltitudeMeters>1198.5999755859375</AltitudeMeters>
            <DistanceMeters>14399.084788796</DistanceMeters>
          </Trackpoint>
          <Trackpoint>
            <Time>2021-08-01T13:17:57.000Z</Time>
            <Position>
              <LatitudeDegrees>-15.4108209908008575439453125</LatitudeDegrees>
              <LongitudeDegrees>37.0708850584924221038818359375</LongitudeDegrees>
            </Position>
            <AltitudeMeters>1199.199951171875</AltitudeMeters>
            <DistanceMeters>14405.693075237</DistanceMeters>
          </Trackpoint>
          <Trackpoint>
            <Time>2021-08-01T13:18:02.000Z</Time>
            <Position>
              <LatitudeDegrees>-15.410762317478656768798828125</LatitudeDegrees>
              <LongitudeDegrees>37.0708602480590343475341796875</LongitudeDegrees>
            </Position>
            <AltitudeMeters>1199.5999755859375</AltitudeMeters>
            <DistanceMeters>14412.744928254</DistanceMeters>
          </Trackpoint>
          <Trackpoint>
            <Time>2021-08-01T13:18:11.000Z</Time>
            <Position>
              <LatitudeDegrees>-15.41065427474677562713623046875</LatitudeDegrees>
              <LongitudeDegrees>37.0708307437598705291748046875</LongitudeDegrees>
            </Position>
            <AltitudeMeters>1199.800048828125</AltitudeMeters>
            <DistanceMeters>14425.180000792</DistanceMeters>
          </Trackpoint>
          <Trackpoint>
            <Time>2021-08-01T13:18:17.000Z</Time>
            <Position>
              <LatitudeDegrees>-15.41059224866330623626708984375</LatitudeDegrees>
              <LongitudeDegrees>37.07080216147005558013916015625</LongitudeDegrees>
            </Position>
            <AltitudeMeters>1200.199951171875</AltitudeMeters>
            <DistanceMeters>14432.733877482</DistanceMeters>
          </Trackpoint>
          <Trackpoint>
            <Time>2021-08-01T13:18:20.000Z</Time>
            <Position>
              <LatitudeDegrees>-15.41055754758417606353759765625</LatitudeDegrees>
              <LongitudeDegrees>37.0707888342440128326416015625</LongitudeDegrees>
            </Position>
            <AltitudeMeters>1200</AltitudeMeters>
            <DistanceMeters>14436.854137634</DistanceMeters>
          </Trackpoint>
          <Trackpoint>
            <Time>2021-08-01T13:18:22.000Z</Time>
            <Position>
              <LatitudeDegrees>-15.41053022257983684539794921875</LatitudeDegrees>
              <LongitudeDegrees>37.0707881636917591094970703125</LongitudeDegrees>
            </Position>
            <AltitudeMeters>1200.199951171875</AltitudeMeters>
            <DistanceMeters>14439.89796063</DistanceMeters>
          </Trackpoint>
          <Trackpoint>
            <Time>2021-08-01T13:18:28.000Z</Time>
            <Position>
              <LatitudeDegrees>-15.41044573299586772918701171875</LatitudeDegrees>
              <LongitudeDegrees>37.07078757695853710174560546875</LongitudeDegrees>
            </Position>
            <AltitudeMeters>1200.4000244140625</AltitudeMeters>
            <DistanceMeters>14449.302245222</DistanceMeters>
          </Trackpoint>
          <Trackpoint>
            <Time>2021-08-01T13:18:31.000Z</Time>
            <Position>
              <LatitudeDegrees>-15.4103970341384410858154296875</LatitudeDegrees>
              <LongitudeDegrees>37.07078807987272739410400390625</LongitudeDegrees>
            </Position>
            <AltitudeMeters>1200.199951171875</AltitudeMeters>
            <DistanceMeters>14454.722934177</DistanceMeters>
          </Trackpoint>
          <Trackpoint>
            <Time>2021-08-01T13:18:40.000Z</Time>
            <Position>
              <LatitudeDegrees>-15.4102823697030544281005859375</LatitudeDegrees>
              <LongitudeDegrees>37.07079411484301090240478515625</LongitudeDegrees>
            </Position>
            <AltitudeMeters>1200.199951171875</AltitudeMeters>
            <DistanceMeters>14467.501819199</DistanceMeters>
          </Trackpoint>
          <Trackpoint>
            <Time>2021-08-01T13:18:43.000Z</Time>
            <Position>
              <LatitudeDegrees>-15.41024490259587764739990234375</LatitudeDegrees>
              <LongitudeDegrees>37.07079931162297725677490234375</LongitudeDegrees>
            </Position>
            <AltitudeMeters>1200.5999755859375</AltitudeMeters>
            <DistanceMeters>14471.708831183</DistanceMeters>
          </Trackpoint>
          <Trackpoint>
            <Time>2021-08-01T13:18:50.000Z</Time>
            <Position>
              <LatitudeDegrees>-15.41015806607902050018310546875</LatitudeDegrees>
              <LongitudeDegrees>37.0707998983561992645263671875</LongitudeDegrees>
            </Position>
            <AltitudeMeters>1201.199951171875</AltitudeMeters>
            <DistanceMeters>14481.374033758</DistanceMeters>
          </Trackpoint>
          <Trackpoint>
            <Time>2021-08-01T13:18:52.000Z</Time>
            <Position>
              <LatitudeDegrees>-15.41013660840690135955810546875</LatitudeDegrees>
              <LongitudeDegrees>37.070801742374897003173828125</LongitudeDegrees>
            </Position>
            <AltitudeMeters>1201.4000244140625</AltitudeMeters>
            <DistanceMeters>14483.774281406</DistanceMeters>
          </Trackpoint>
          <Trackpoint>
            <Time>2021-08-01T13:19:01.000Z</Time>
            <Position>
              <LatitudeDegrees>-15.4100171662867069244384765625</LatitudeDegrees>
              <LongitudeDegrees>37.070802412927150726318359375</LongitudeDegrees>
            </Position>
            <AltitudeMeters>1202.199951171875</AltitudeMeters>
            <DistanceMeters>14497.068854969</DistanceMeters>
          </Trackpoint>
          <Trackpoint>
            <Time>2021-08-01T13:19:10.000Z</Time>
            <Position>
              <LatitudeDegrees>-15.40990694426000118255615234375</LatitudeDegrees>
              <LongitudeDegrees>37.07083350978791713714599609375</LongitudeDegrees>
            </Position>
            <AltitudeMeters>1202</AltitudeMeters>
            <DistanceMeters>14509.782562861</DistanceMeters>
          </Trackpoint>
          <Trackpoint>
            <Time>2021-08-01T13:19:11.000Z</Time>
            <Position>
              <LatitudeDegrees>-15.40989671833813190460205078125</LatitudeDegrees>
              <LongitudeDegrees>37.07083619199693202972412109375</LongitudeDegrees>
            </Position>
            <AltitudeMeters>1202</AltitudeMeters>
            <DistanceMeters>14510.957978402</DistanceMeters>
          </Trackpoint>
          <Trackpoint>
            <Time>2021-08-01T13:19:15.000Z</Time>
            <Position>
              <LatitudeDegrees>-15.4098438285291194915771484375</LatitudeDegrees>
              <LongitudeDegrees>37.07085412926971912384033203125</LongitudeDegrees>
            </Position>
            <AltitudeMeters>1202.4000244140625</AltitudeMeters>
            <DistanceMeters>14517.151504436</DistanceMeters>
          </Trackpoint>
          <Trackpoint>
            <Time>2021-08-01T13:19:21.000Z</Time>
            <Position>
              <LatitudeDegrees>-15.40977618657052516937255859375</LatitudeDegrees>
              <LongitudeDegrees>37.0708746649324893951416015625</LongitudeDegrees>
            </Position>
            <AltitudeMeters>1202.4000244140625</AltitudeMeters>
            <DistanceMeters>14524.995670478</DistanceMeters>
          </Trackpoint>
          <Trackpoint>
            <Time>2021-08-01T13:19:22.000Z</Time>
            <Position>
              <LatitudeDegrees>-15.40976629592478275299072265625</LatitudeDegrees>
              <LongitudeDegrees>37.07088128663599491119384765625</LongitudeDegrees>
            </Position>
            <AltitudeMeters>1202.4000244140625</AltitudeMeters>
            <DistanceMeters>14526.305523342</DistanceMeters>
          </Trackpoint>
          <Trackpoint>
            <Time>2021-08-01T13:19:31.000Z</Time>
            <Position>
              <LatitudeDegrees>-15.40966671891510486602783203125</LatitudeDegrees>
              <LongitudeDegrees>37.07093610428273677825927734375</LongitudeDegrees>
            </Position>
            <AltitudeMeters>1203.199951171875</AltitudeMeters>
            <DistanceMeters>14538.852648619</DistanceMeters>
          </Trackpoint>
          <Trackpoint>
            <Time>2021-08-01T13:19:33.000Z</Time>
            <Position>
              <LatitudeDegrees>-15.40964375250041484832763671875</LatitudeDegrees>
              <LongitudeDegrees>37.07094582729041576385498046875</LongitudeDegrees>
            </Position>
            <AltitudeMeters>1203.800048828125</AltitudeMeters>
            <DistanceMeters>14541.613334135</DistanceMeters>
          </Trackpoint>
          <Trackpoint>
            <Time>2021-08-01T13:19:39.000Z</Time>
            <Position>
              <LatitudeDegrees>-15.40958248078823089599609375</LatitudeDegrees>
              <LongitudeDegrees>37.07097709178924560546875</LongitudeDegrees>
            </Position>
            <AltitudeMeters>1204.199951171875</AltitudeMeters>
            <DistanceMeters>14549.213095246</DistanceMeters>
          </Trackpoint>
          <Trackpoint>
            <Time>2021-08-01T13:19:44.000Z</Time>
            <Position>
              <LatitudeDegrees>-15.40952975861728191375732421875</LatitudeDegrees>
              <LongitudeDegrees>37.0710037462413311004638671875</LongitudeDegrees>
            </Position>
            <AltitudeMeters>1204.800048828125</AltitudeMeters>
            <DistanceMeters>14555.741644917</DistanceMeters>
          </Trackpoint>
          <Trackpoint>
            <Time>2021-08-01T13:19:51.000Z</Time>
            <Position>
              <LatitudeDegrees>-15.40946446359157562255859375</LatitudeDegrees>
              <LongitudeDegrees>37.0710575580596923828125</LongitudeDegrees>
            </Position>
            <AltitudeMeters>1205.199951171875</AltitudeMeters>
            <DistanceMeters>14565.023668369</DistanceMeters>
          </Trackpoint>
          <Trackpoint>
            <Time>2021-08-01T13:19:57.000Z</Time>
            <Position>
              <LatitudeDegrees>-15.40941459126770496368408203125</LatitudeDegrees>
              <LongitudeDegrees>37.07109753973782062530517578125</LongitudeDegrees>
            </Position>
            <AltitudeMeters>1206</AltitudeMeters>
            <DistanceMeters>14572.038931487</DistanceMeters>
          </Trackpoint>
          <Trackpoint>
            <Time>2021-08-01T13:20:01.000Z</Time>
            <Position>
              <LatitudeDegrees>-15.4093831591308116912841796875</LatitudeDegrees>
              <LongitudeDegrees>37.0711324922740459442138671875</LongitudeDegrees>
            </Position>
            <AltitudeMeters>1206.4000244140625</AltitudeMeters>
            <DistanceMeters>14577.167733753</DistanceMeters>
          </Trackpoint>
          <Trackpoint>
            <Time>2021-08-01T13:20:02.000Z</Time>
            <Position>
              <LatitudeDegrees>-15.40937871672213077545166015625</LatitudeDegrees>
              <LongitudeDegrees>37.07114003598690032958984375</LongitudeDegrees>
            </Position>
            <AltitudeMeters>1206.4000244140625</AltitudeMeters>
            <DistanceMeters>14578.10845023</DistanceMeters>
          </Trackpoint>
          <Trackpoint>
            <Time>2021-08-01T13:20:06.000Z</Time>
            <Position>
              <LatitudeDegrees>-15.4093536548316478729248046875</LatitudeDegrees>
              <LongitudeDegrees>37.07117901183664798736572265625</LongitudeDegrees>
            </Position>
            <AltitudeMeters>1207</AltitudeMeters>
            <DistanceMeters>14583.134995156</DistanceMeters>
          </Trackpoint>
          <Trackpoint>
            <Time>2021-08-01T13:20:11.000Z</Time>
            <Position>
              <LatitudeDegrees>-15.409323312342166900634765625</LatitudeDegrees>
              <LongitudeDegrees>37.07122108899056911468505859375</LongitudeDegrees>
            </Position>
            <AltitudeMeters>1207.4000244140625</AltitudeMeters>
            <DistanceMeters>14588.773691739</DistanceMeters>
          </Trackpoint>
          <Trackpoint>
            <Time>2021-08-01T13:20:12.000Z</Time>
            <Position>
              <LatitudeDegrees>-15.4093189537525177001953125</LatitudeDegrees>
              <LongitudeDegrees>37.07122745923697948455810546875</LongitudeDegrees>
            </Position>
            <AltitudeMeters>1207.4000244140625</AltitudeMeters>
            <DistanceMeters>14589.612944957</DistanceMeters>
          </Trackpoint>
          <Trackpoint>
            <Time>2021-08-01T13:20:20.000Z</Time>
            <Position>
              <LatitudeDegrees>-15.4092782177031040191650390625</LatitudeDegrees>
              <LongitudeDegrees>37.0712951011955738067626953125</LongitudeDegrees>
            </Position>
            <AltitudeMeters>1208.4000244140625</AltitudeMeters>
            <DistanceMeters>14598.170626884</DistanceMeters>
          </Trackpoint>
          <Trackpoint>
            <Time>2021-08-01T13:20:22.000Z</Time>
            <Position>
              <LatitudeDegrees>-15.4092679917812347412109375</LatitudeDegrees>
              <LongitudeDegrees>37.07131613977253437042236328125</LongitudeDegrees>
            </Position>
            <AltitudeMeters>1208.4000244140625</AltitudeMeters>
            <DistanceMeters>14600.697337007</DistanceMeters>
          </Trackpoint>
          <Trackpoint>
            <Time>2021-08-01T13:20:29.000Z</Time>
            <Position>
              <LatitudeDegrees>-15.409232787787914276123046875</LatitudeDegrees>
              <LongitudeDegrees>37.07138814032077789306640625</LongitudeDegrees>
            </Position>
            <AltitudeMeters>1209.4000244140625</AltitudeMeters>
            <DistanceMeters>14609.360417598</DistanceMeters>
          </Trackpoint>
          <Trackpoint>
            <Time>2021-08-01T13:20:33.000Z</Time>
            <Position>
              <LatitudeDegrees>-15.40921032428741455078125</LatitudeDegrees>
              <LongitudeDegrees>37.07142024300992488861083984375</LongitudeDegrees>
            </Position>
            <AltitudeMeters>1210</AltitudeMeters>
            <DistanceMeters>14613.617571978</DistanceMeters>
          </Trackpoint>
          <Trackpoint>
            <Time>2021-08-01T13:20:37.000Z</Time>
            <Position>
              <LatitudeDegrees>-15.4091923870146274566650390625</LatitudeDegrees>
              <LongitudeDegrees>37.07145678810775279998779296875</LongitudeDegrees>
            </Position>
            <AltitudeMeters>1210.5999755859375</AltitudeMeters>
            <DistanceMeters>14618.017626966</DistanceMeters>
          </Trackpoint>
          <Trackpoint>
            <Time>2021-08-01T13:20:46.000Z</Time>
            <Position>
              <LatitudeDegrees>-15.409137569367885589599609375</LatitudeDegrees>
              <LongitudeDegrees>37.0715428702533245086669921875</LongitudeDegrees>
            </Position>
            <AltitudeMeters>1211.5999755859375</AltitudeMeters>
            <DistanceMeters>14629.087321512</DistanceMeters>
          </Trackpoint>
          <Trackpoint>
            <Time>2021-08-01T13:20:47.000Z</Time>
            <Position>
              <LatitudeDegrees>-15.40912927128374576568603515625</LatitudeDegrees>
              <LongitudeDegrees>37.07155267708003520965576171875</LongitudeDegrees>
            </Position>
            <AltitudeMeters>1211.800048828125</AltitudeMeters>
            <DistanceMeters>14630.490374136</DistanceMeters>
          </Trackpoint>
          <Trackpoint>
            <Time>2021-08-01T13:20:56.000Z</Time>
            <Position>
              <LatitudeDegrees>-15.4090775549411773681640625</LatitudeDegrees>
              <LongitudeDegrees>37.07164538092911243438720703125</LongitudeDegrees>
            </Position>
            <AltitudeMeters>1212.199951171875</AltitudeMeters>
            <DistanceMeters>14641.9835007</DistanceMeters>
          </Trackpoint>
          <Trackpoint>
            <Time>2021-08-01T13:21:00.000Z</Time>
            <Position>
              <LatitudeDegrees>-15.40907260961830615997314453125</LatitudeDegrees>
              <LongitudeDegrees>37.0716934092342853546142578125</LongitudeDegrees>
            </Position>
            <AltitudeMeters>1212.800048828125</AltitudeMeters>
            <DistanceMeters>14647.166596052</DistanceMeters>
          </Trackpoint>
          <Trackpoint>
            <Time>2021-08-01T13:21:04.000Z</Time>
            <Position>
              <LatitudeDegrees>-15.40905886329710483551025390625</LatitudeDegrees>
              <LongitudeDegrees>37.071735151112079620361328125</LongitudeDegrees>
            </Position>
            <AltitudeMeters>1213.4000244140625</AltitudeMeters>
            <DistanceMeters>14651.898888264</DistanceMeters>
          </Trackpoint>
          <Trackpoint>
            <Time>2021-08-01T13:21:09.000Z</Time>
            <Position>
              <LatitudeDegrees>-15.4090488888323307037353515625</LatitudeDegrees>
              <LongitudeDegrees>37.07178669981658458709716796875</LongitudeDegrees>
            </Position>
            <AltitudeMeters>1214</AltitudeMeters>
            <DistanceMeters>14657.539986507</DistanceMeters>
          </Trackpoint>
          <Trackpoint>
            <Time>2021-08-01T13:21:13.000Z</Time>
            <Position>
              <LatitudeDegrees>-15.409033633768558502197265625</LatitudeDegrees>
              <LongitudeDegrees>37.07182307727634906768798828125</LongitudeDegrees>
            </Position>
            <AltitudeMeters>1214.4000244140625</AltitudeMeters>
            <DistanceMeters>14661.796080179</DistanceMeters>
          </Trackpoint>
          <Trackpoint>
            <Time>2021-08-01T13:21:16.000Z</Time>
            <Position>
              <LatitudeDegrees>-15.4090185463428497314453125</LatitudeDegrees>
              <LongitudeDegrees>37.07185886800289154052734375</LongitudeDegrees>
            </Position>
            <AltitudeMeters>1214.800048828125</AltitudeMeters>
            <DistanceMeters>14665.986962984</DistanceMeters>
          </Trackpoint>
          <Trackpoint>
            <Time>2021-08-01T13:21:19.000Z</Time>
            <Position>
              <LatitudeDegrees>-15.40901360101997852325439453125</LatitudeDegrees>
              <LongitudeDegrees>37.0718949101865291595458984375</LongitudeDegrees>
            </Position>
            <AltitudeMeters>1215</AltitudeMeters>
            <DistanceMeters>14669.892318168</DistanceMeters>
          </Trackpoint>
          <Trackpoint>
            <Time>2021-08-01T13:21:24.000Z</Time>
            <Position>
              <LatitudeDegrees>-15.40901611559092998504638671875</LatitudeDegrees>
              <LongitudeDegrees>37.0719505660235881805419921875</LongitudeDegrees>
            </Position>
            <AltitudeMeters>1215.4000244140625</AltitudeMeters>
            <DistanceMeters>14675.869944159</DistanceMeters>
          </Trackpoint>
          <Trackpoint>
            <Time>2021-08-01T13:21:25.000Z</Time>
            <Position>
              <LatitudeDegrees>-15.40901393629610538482666015625</LatitudeDegrees>
              <LongitudeDegrees>37.07195869646966457366943359375</LongitudeDegrees>
            </Position>
            <AltitudeMeters>1215.5999755859375</AltitudeMeters>
            <DistanceMeters>14676.781408384</DistanceMeters>
          </Trackpoint>
          <Trackpoint>
            <Time>2021-08-01T13:21:29.000Z</Time>
            <Position>
              <LatitudeDegrees>-15.4090053029358386993408203125</LatitudeDegrees>
              <LongitudeDegrees>37.07199968397617340087890625</LongitudeDegrees>
            </Position>
            <AltitudeMeters>1216</AltitudeMeters>
            <DistanceMeters>14681.28391009</DistanceMeters>
          </Trackpoint>
          <Trackpoint>
            <Time>2021-08-01T13:21:31.000Z</Time>
            <Position>
              <LatitudeDegrees>-15.40900002233684062957763671875</LatitudeDegrees>
              <LongitudeDegrees>37.07202374003827571868896484375</LongitudeDegrees>
            </Position>
            <AltitudeMeters>1216</AltitudeMeters>
            <DistanceMeters>14683.93275312</DistanceMeters>
          </Trackpoint>
          <Trackpoint>
            <Time>2021-08-01T13:21:41.000Z</Time>
            <Position>
              <LatitudeDegrees>-15.408975966274738311767578125</LatitudeDegrees>
              <LongitudeDegrees>37.07213773392140865325927734375</LongitudeDegrees>
            </Position>
            <AltitudeMeters>1217</AltitudeMeters>
            <DistanceMeters>14696.453582052</DistanceMeters>
          </Trackpoint>
          <Trackpoint>
            <Time>2021-08-01T13:21:43.000Z</Time>
            <Position>
              <LatitudeDegrees>-15.40896733291447162628173828125</LatitudeDegrees>
              <LongitudeDegrees>37.07215986214578151702880859375</LongitudeDegrees>
            </Position>
            <AltitudeMeters>1217.4000244140625</AltitudeMeters>
            <DistanceMeters>14699.015781415</DistanceMeters>
          </Trackpoint>
          <Trackpoint>
            <Time>2021-08-01T13:21:50.000Z</Time>
            <Position>
              <LatitudeDegrees>-15.4089365713298320770263671875</LatitudeDegrees>
              <LongitudeDegrees>37.07223261706531047821044921875</LongitudeDegrees>
            </Position>
            <AltitudeMeters>1218</AltitudeMeters>
            <DistanceMeters>14707.540689345</DistanceMeters>
          </Trackpoint>
          <Trackpoint>
            <Time>2021-08-01T13:21:53.000Z</Time>
            <Position>
              <LatitudeDegrees>-15.40892458520829677581787109375</LatitudeDegrees>
              <LongitudeDegrees>37.07226798869669437408447265625</LongitudeDegrees>
            </Position>
            <AltitudeMeters>1218.4000244140625</AltitudeMeters>
            <DistanceMeters>14711.563362211</DistanceMeters>
          </Trackpoint>
          <Trackpoint>
            <Time>2021-08-01T13:21:55.000Z</Time>
            <Position>
              <LatitudeDegrees>-15.408917963504791259765625</LatitudeDegrees>
              <LongitudeDegrees>37.0722888596355915069580078125</LongitudeDegrees>
            </Position>
            <AltitudeMeters>1218.5999755859375</AltitudeMeters>
            <DistanceMeters>14713.921863237</DistanceMeters>
          </Trackpoint>
          <Trackpoint>
            <Time>2021-08-01T13:22:02.000Z</Time>
            <Position>
              <LatitudeDegrees>-15.4089033789932727813720703125</LatitudeDegrees>
              <LongitudeDegrees>37.07236723043024539947509765625</LongitudeDegrees>
            </Position>
            <AltitudeMeters>1219.4000244140625</AltitudeMeters>
            <DistanceMeters>14722.485874031</DistanceMeters>
          </Trackpoint>
          <Trackpoint>
            <Time>2021-08-01T13:22:03.000Z</Time>
            <Position>
              <LatitudeDegrees>-15.4089027084410190582275390625</LatitudeDegrees>
              <LongitudeDegrees>37.0723785459995269775390625</LongitudeDegrees>
            </Position>
            <AltitudeMeters>1219.4000244140625</AltitudeMeters>
            <DistanceMeters>14723.702809747</DistanceMeters>
          </Trackpoint>
          <Trackpoint>
            <Time>2021-08-01T13:22:07.000Z</Time>
            <Position>
              <LatitudeDegrees>-15.40890363045036792755126953125</LatitudeDegrees>
              <LongitudeDegrees>37.07242288626730442047119140625</LongitudeDegrees>
            </Position>
            <AltitudeMeters>1219.800048828125</AltitudeMeters>
            <DistanceMeters>14728.461741531</DistanceMeters>
          </Trackpoint>
          <Trackpoint>
            <Time>2021-08-01T13:22:12.000Z</Time>
            <Position>
              <LatitudeDegrees>-15.40890648029744625091552734375</LatitudeDegrees>
              <LongitudeDegrees>37.07248055376112461090087890625</LongitudeDegrees>
            </Position>
            <AltitudeMeters>1220.5999755859375</AltitudeMeters>
            <DistanceMeters>14734.657454158</DistanceMeters>
          </Trackpoint>
          <Trackpoint>
            <Time>2021-08-01T13:22:17.000Z</Time>
            <Position>
              <LatitudeDegrees>-15.40890865959227085113525390625</LatitudeDegrees>
              <LongitudeDegrees>37.07253805361688137054443359375</LongitudeDegrees>
            </Position>
            <AltitudeMeters>1221</AltitudeMeters>
            <DistanceMeters>14740.83272847</DistanceMeters>
          </Trackpoint>
          <Trackpoint>
            <Time>2021-08-01T13:22:20.000Z</Time>
            <Position>
              <LatitudeDegrees>-15.40891100652515888214111328125</LatitudeDegrees>
              <LongitudeDegrees>37.0725748501718044281005859375</LongitudeDegrees>
            </Position>
            <AltitudeMeters>1221.5999755859375</AltitudeMeters>
            <DistanceMeters>14744.788625647</DistanceMeters>
          </Trackpoint>
          <Trackpoint>
            <Time>2021-08-01T13:22:27.000Z</Time>
            <Position>
              <LatitudeDegrees>-15.40891637094318866729736328125</LatitudeDegrees>
              <LongitudeDegrees>37.0726521313190460205078125</LongitudeDegrees>
            </Position>
            <AltitudeMeters>1222.4000244140625</AltitudeMeters>
            <DistanceMeters>14753.102241293</DistanceMeters>
          </Trackpoint>
          <Trackpoint>
            <Time>2021-08-01T13:22:29.000Z</Time>
            <Position>
              <LatitudeDegrees>-15.4089198075234889984130859375</LatitudeDegrees>
              <LongitudeDegrees>37.07267467863857746124267578125</LongitudeDegrees>
            </Position>
            <AltitudeMeters>1222.5999755859375</AltitudeMeters>
            <DistanceMeters>14755.552751614</DistanceMeters>
          </Trackpoint>
          <Trackpoint>
            <Time>2021-08-01T13:22:37.000Z</Time>
            <Position>
              <LatitudeDegrees>-15.40891083888709545135498046875</LatitudeDegrees>
              <LongitudeDegrees>37.07277207635343074798583984375</LongitudeDegrees>
            </Position>
            <AltitudeMeters>1223.800048828125</AltitudeMeters>
            <DistanceMeters>14766.051375956</DistanceMeters>
          </Trackpoint>
          <Trackpoint>
            <Time>2021-08-01T13:22:40.000Z</Time>
            <Position>
              <LatitudeDegrees>-15.40890698321163654327392578125</LatitudeDegrees>
              <LongitudeDegrees>37.0728095434606075286865234375</LongitudeDegrees>
            </Position>
            <AltitudeMeters>1223.800048828125</AltitudeMeters>
            <DistanceMeters>14770.094201498</DistanceMeters>
          </Trackpoint>
          <Trackpoint>
            <Time>2021-08-01T13:22:47.000Z</Time>
            <Position>
              <LatitudeDegrees>-15.4088805802166461944580078125</LatitudeDegrees>
              <LongitudeDegrees>37.07288657315075397491455078125</LongitudeDegrees>
            </Position>
            <AltitudeMeters>1224.800048828125</AltitudeMeters>
            <DistanceMeters>14778.866047449</DistanceMeters>
          </Trackpoint>
          <Trackpoint>
            <Time>2021-08-01T13:22:49.000Z</Time>
            <Position>
              <LatitudeDegrees>-15.40886725299060344696044921875</LatitudeDegrees>
              <LongitudeDegrees>37.0729064382612705230712890625</LongitudeDegrees>
            </Position>
            <AltitudeMeters>1224.800048828125</AltitudeMeters>
            <DistanceMeters>14781.461512152</DistanceMeters>
          </Trackpoint>
          <Trackpoint>
            <Time>2021-08-01T13:23:01.000Z</Time>
            <Position>
              <LatitudeDegrees>-15.408748649060726165771484375</LatitudeDegrees>
              <LongitudeDegrees>37.07299738191068172454833984375</LongitudeDegrees>
            </Position>
            <AltitudeMeters>1225.800048828125</AltitudeMeters>
            <DistanceMeters>14797.87749739</DistanceMeters>
          </Trackpoint>
          <Trackpoint>
            <Time>2021-08-01T13:23:02.000Z</Time>
            <Position>
              <LatitudeDegrees>-15.40874403901398181915283203125</LatitudeDegrees>
              <LongitudeDegrees>37.073003835976123809814453125</LongitudeDegrees>
            </Position>
            <AltitudeMeters>1226</AltitudeMeters>
            <DistanceMeters>14798.738000887</DistanceMeters>
          </Trackpoint>
          <Trackpoint>
            <Time>2021-08-01T13:23:05.000Z</Time>
            <Position>
              <LatitudeDegrees>-15.40871855802834033966064453125</LatitudeDegrees>
              <LongitudeDegrees>37.07302990369498729705810546875</LongitudeDegrees>
            </Position>
            <AltitudeMeters>1226.199951171875</AltitudeMeters>
            <DistanceMeters>14802.721196126</DistanceMeters>
          </Trackpoint>
          <Trackpoint>
            <Time>2021-08-01T13:23:09.000Z</Time>
            <Position>
              <LatitudeDegrees>-15.40868586860597133636474609375</LatitudeDegrees>
              <LongitudeDegrees>37.07306074909865856170654296875</LongitudeDegrees>
            </Position>
            <AltitudeMeters>1226.800048828125</AltitudeMeters>
            <DistanceMeters>14807.639689268</DistanceMeters>
          </Trackpoint>
          <Trackpoint>
            <Time>2021-08-01T13:23:13.000Z</Time>
            <Position>
              <LatitudeDegrees>-15.4086502455174922943115234375</LatitudeDegrees>
              <LongitudeDegrees>37.0730911754071712493896484375</LongitudeDegrees>
            </Position>
            <AltitudeMeters>1227</AltitudeMeters>
            <DistanceMeters>14812.775529345</DistanceMeters>
          </Trackpoint>
          <Trackpoint>
            <Time>2021-08-01T13:23:14.000Z</Time>
            <Position>
              <LatitudeDegrees>-15.40864169597625732421875</LatitudeDegrees>
              <LongitudeDegrees>37.07309897057712078094482421875</LongitudeDegrees>
            </Position>
            <AltitudeMeters>1227.199951171875</AltitudeMeters>
            <DistanceMeters>14814.043343845</DistanceMeters>
          </Trackpoint>
          <Trackpoint>
            <Time>2021-08-01T13:23:16.000Z</Time>
            <Position>
              <LatitudeDegrees>-15.408629961311817169189453125</LatitudeDegrees>
              <LongitudeDegrees>37.07311389036476612091064453125</LongitudeDegrees>
            </Position>
            <AltitudeMeters>1227.199951171875</AltitudeMeters>
            <DistanceMeters>14816.110038345</DistanceMeters>
          </Trackpoint>
          <Trackpoint>
            <Time>2021-08-01T13:23:21.000Z</Time>
            <Position>
              <LatitudeDegrees>-15.40859350003302097320556640625</LatitudeDegrees>
              <LongitudeDegrees>37.073162086308002471923828125</LongitudeDegrees>
            </Position>
            <AltitudeMeters>1227.4000244140625</AltitudeMeters>
            <DistanceMeters>14822.684760844</DistanceMeters>
          </Trackpoint>
          <Trackpoint>
            <Time>2021-08-01T13:23:31.000Z</Time>
            <Position>
              <LatitudeDegrees>-15.4084893129765987396240234375</LatitudeDegrees>
              <LongitudeDegrees>37.073259316384792327880859375</LongitudeDegrees>
            </Position>
            <AltitudeMeters>1228</AltitudeMeters>
            <DistanceMeters>14838.283042151</DistanceMeters>
          </Trackpoint>
          <Trackpoint>
            <Time>2021-08-01T13:23:33.000Z</Time>
            <Position>
              <LatitudeDegrees>-15.4084715433418750762939453125</LatitudeDegrees>
              <LongitudeDegrees>37.07327666692435741424560546875</LongitudeDegrees>
            </Position>
            <AltitudeMeters>1228.199951171875</AltitudeMeters>
            <DistanceMeters>14841.000872633</DistanceMeters>
          </Trackpoint>
          <Trackpoint>
            <Time>2021-08-01T13:23:40.000Z</Time>
            <Position>
              <LatitudeDegrees>-15.40841865353286266326904296875</LatitudeDegrees>
              <LongitudeDegrees>37.07333617843687534332275390625</LongitudeDegrees>
            </Position>
            <AltitudeMeters>1229</AltitudeMeters>
            <DistanceMeters>14849.68633512</DistanceMeters>
          </Trackpoint>
          <Trackpoint>
            <Time>2021-08-01T13:23:41.000Z</Time>
            <Position>
              <LatitudeDegrees>-15.4084096848964691162109375</LatitudeDegrees>
              <LongitudeDegrees>37.073347829282283782958984375</LongitudeDegrees>
            </Position>
            <AltitudeMeters>1229.199951171875</AltitudeMeters>
            <DistanceMeters>14851.28493189</DistanceMeters>
          </Trackpoint>
          <Trackpoint>
            <Time>2021-08-01T13:23:50.000Z</Time>
            <Position>
              <LatitudeDegrees>-15.408351011574268341064453125</LatitudeDegrees>
              <LongitudeDegrees>37.07343877293169498443603515625</LongitudeDegrees>
            </Position>
            <AltitudeMeters>1229.800048828125</AltitudeMeters>
            <DistanceMeters>14863.026788947</DistanceMeters>
          </Trackpoint>
          <Trackpoint>
            <Time>2021-08-01T13:23:52.000Z</Time>
            <Position>
              <LatitudeDegrees>-15.40833550505340099334716796875</LatitudeDegrees>
              <LongitudeDegrees>37.07345788367092609405517578125</LongitudeDegrees>
            </Position>
            <AltitudeMeters>1230.199951171875</AltitudeMeters>
            <DistanceMeters>14865.707822488</DistanceMeters>
          </Trackpoint>
          <Trackpoint>
            <Time>2021-08-01T13:23:59.000Z</Time>
            <Position>
              <LatitudeDegrees>-15.408289991319179534912109375</LatitudeDegrees>
              <LongitudeDegrees>37.073514461517333984375</LongitudeDegrees>
            </Position>
            <AltitudeMeters>1231</AltitudeMeters>
            <DistanceMeters>14873.614479128</DistanceMeters>
          </Trackpoint>
          <Trackpoint>
            <Time>2021-08-01T13:24:00.000Z</Time>
            <Position>
              <LatitudeDegrees>-15.40828026831150054931640625</LatitudeDegrees>
              <LongitudeDegrees>37.0735176466405391693115234375</LongitudeDegrees>
            </Position>
            <AltitudeMeters>1231.199951171875</AltitudeMeters>
            <DistanceMeters>14874.746853119</DistanceMeters>
          </Trackpoint>
          <Trackpoint>
            <Time>2021-08-01T13:24:01.000Z</Time>
            <Position>
              <LatitudeDegrees>-15.4082733951508998870849609375</LatitudeDegrees>
              <LongitudeDegrees>37.07352393306791782379150390625</LongitudeDegrees>
            </Position>
            <AltitudeMeters>1231.4000244140625</AltitudeMeters>
            <DistanceMeters>14875.761460784</DistanceMeters>
          </Trackpoint>
          <Trackpoint>
            <Time>2021-08-01T13:24:04.000Z</Time>
            <Position>
              <LatitudeDegrees>-15.40824766270816326141357421875</LatitudeDegrees>
              <LongitudeDegrees>37.07354488782584667205810546875</LongitudeDegrees>
            </Position>
            <AltitudeMeters>1231.800048828125</AltitudeMeters>
            <DistanceMeters>14879.402360703</DistanceMeters>
          </Trackpoint>
          <Trackpoint>
            <Time>2021-08-01T13:24:05.000Z</Time>
            <Position>
              <LatitudeDegrees>-15.408233664929866790771484375</LatitudeDegrees>
              <LongitudeDegrees>37.0735515095293521881103515625</LongitudeDegrees>
            </Position>
            <AltitudeMeters>1232.199951171875</AltitudeMeters>
            <DistanceMeters>14881.112841562</DistanceMeters>
          </Trackpoint>
          <Trackpoint>
            <Time>2021-08-01T13:24:07.000Z</Time>
            <Position>
              <LatitudeDegrees>-15.40821614675223827362060546875</LatitudeDegrees>
              <LongitudeDegrees>37.07356743514537811279296875</LongitudeDegrees>
            </Position>
            <AltitudeMeters>1232.5999755859375</AltitudeMeters>
            <DistanceMeters>14883.704824755</DistanceMeters>
          </Trackpoint>
          <Trackpoint>
            <Time>2021-08-01T13:24:14.000Z</Time>
            <Position>
              <LatitudeDegrees>-15.4081709682941436767578125</LatitudeDegrees>
              <LongitudeDegrees>37.07362971268594264984130859375</LongitudeDegrees>
            </Position>
            <AltitudeMeters>1233.4000244140625</AltitudeMeters>
            <DistanceMeters>14892.067715527</DistanceMeters>
          </Trackpoint>
          <Trackpoint>
            <Time>2021-08-01T13:24:18.000Z</Time>
            <Position>
              <LatitudeDegrees>-15.40815127082169055938720703125</LatitudeDegrees>
              <LongitudeDegrees>37.0736660063266754150390625</LongitudeDegrees>
            </Position>
            <AltitudeMeters>1233.800048828125</AltitudeMeters>
            <DistanceMeters>14896.537002841</DistanceMeters>
          </Trackpoint>
          <Trackpoint>
            <Time>2021-08-01T13:24:23.000Z</Time>
            <Position>
              <LatitudeDegrees>-15.40810994803905487060546875</LatitudeDegrees>
              <LongitudeDegrees>37.07368821837007999420166015625</LongitudeDegrees>
            </Position>
            <AltitudeMeters>1234</AltitudeMeters>
            <DistanceMeters>14901.716612586</DistanceMeters>
          </Trackpoint>
          <Trackpoint>
            <Time>2021-08-01T13:24:27.000Z</Time>
            <Position>
              <LatitudeDegrees>-15.40807315148413181304931640625</LatitudeDegrees>
              <LongitudeDegrees>37.07369215786457061767578125</LongitudeDegrees>
            </Position>
            <AltitudeMeters>1234.199951171875</AltitudeMeters>
            <DistanceMeters>14905.833583983</DistanceMeters>
          </Trackpoint>
          <Trackpoint>
            <Time>2021-08-01T13:24:31.000Z</Time>
            <Position>
              <LatitudeDegrees>-15.40803291834890842437744140625</LatitudeDegrees>
              <LongitudeDegrees>37.0736968517303466796875</LongitudeDegrees>
            </Position>
            <AltitudeMeters>1234.800048828125</AltitudeMeters>
            <DistanceMeters>14910.339093039</DistanceMeters>
          </Trackpoint>
          <Trackpoint>
            <Time>2021-08-01T13:24:32.000Z</Time>
            <Position>
              <LatitudeDegrees>-15.4080234467983245849609375</LatitudeDegrees>
              <LongitudeDegrees>37.073696516454219818115234375</LongitudeDegrees>
            </Position>
            <AltitudeMeters>1234.800048828125</AltitudeMeters>
            <DistanceMeters>14911.388697405</DistanceMeters>
          </Trackpoint>
          <Trackpoint>
            <Time>2021-08-01T13:24:37.000Z</Time>
            <Position>
              <LatitudeDegrees>-15.4079726524651050567626953125</LatitudeDegrees>
              <LongitudeDegrees>37.07369810901582241058349609375</LongitudeDegrees>
            </Position>
            <AltitudeMeters>1236</AltitudeMeters>
            <DistanceMeters>14917.044184189</DistanceMeters>
          </Trackpoint>
          <Trackpoint>
            <Time>2021-08-01T13:24:42.000Z</Time>
            <Position>
              <LatitudeDegrees>-15.40791674517095088958740234375</LatitudeDegrees>
              <LongitudeDegrees>37.07369945012032985687255859375</LongitudeDegrees>
            </Position>
            <AltitudeMeters>1236.199951171875</AltitudeMeters>
            <DistanceMeters>14923.268252629</DistanceMeters>
          </Trackpoint>
          <Trackpoint>
            <Time>2021-08-01T13:24:49.000Z</Time>
            <Position>
              <LatitudeDegrees>-15.4078358598053455352783203125</LatitudeDegrees>
              <LongitudeDegrees>37.073736749589443206787109375</LongitudeDegrees>
            </Position>
            <AltitudeMeters>1237.199951171875</AltitudeMeters>
            <DistanceMeters>14933.120373807</DistanceMeters>
          </Trackpoint>
          <Trackpoint>
            <Time>2021-08-01T13:24:53.000Z</Time>
            <Position>
              <LatitudeDegrees>-15.40779076516628265380859375</LatitudeDegrees>
              <LongitudeDegrees>37.07378226332366466522216796875</LongitudeDegrees>
            </Position>
            <AltitudeMeters>1237.4000244140625</AltitudeMeters>
            <DistanceMeters>14940.123397808</DistanceMeters>
          </Trackpoint>
          <Trackpoint>
            <Time>2021-08-01T13:25:01.000Z</Time>
            <Position>
              <LatitudeDegrees>-15.40775061585009098052978515625</LatitudeDegrees>
              <LongitudeDegrees>37.0738757215440273284912109375</LongitudeDegrees>
            </Position>
            <AltitudeMeters>1238.4000244140625</AltitudeMeters>
            <DistanceMeters>14951.102582225</DistanceMeters>
          </Trackpoint>
          <Trackpoint>
            <Time>2021-08-01T13:25:04.000Z</Time>
            <Position>
              <LatitudeDegrees>-15.40775329805910587310791015625</LatitudeDegrees>
              <LongitudeDegrees>37.07392123527824878692626953125</LongitudeDegrees>
            </Position>
            <AltitudeMeters>1238.5999755859375</AltitudeMeters>
            <DistanceMeters>14955.994381748</DistanceMeters>
          </Trackpoint>
          <Trackpoint>
            <Time>2021-08-01T13:25:16.000Z</Time>
            <Position>
              <LatitudeDegrees>-15.40778967551887035369873046875</LatitudeDegrees>
              <LongitudeDegrees>37.07407261244952678680419921875</LongitudeDegrees>
            </Position>
            <AltitudeMeters>1239.199951171875</AltitudeMeters>
            <DistanceMeters>14972.734464253</DistanceMeters>
          </Trackpoint>
          <Trackpoint>
            <Time>2021-08-01T13:25:17.000Z</Time>
            <Position>
              <LatitudeDegrees>-15.40778942406177520751953125</LatitudeDegrees>
              <LongitudeDegrees>37.0740819163620471954345703125</LongitudeDegrees>
            </Position>
            <AltitudeMeters>1239.4000244140625</AltitudeMeters>
            <DistanceMeters>14973.735632813</DistanceMeters>
          </Trackpoint>
          <Trackpoint>
            <Time>2021-08-01T13:25:24.000Z</Time>
            <Position>
              <LatitudeDegrees>-15.407776348292827606201171875</LatitudeDegrees>
              <LongitudeDegrees>37.07416028715670108795166015625</LongitudeDegrees>
            </Position>
            <AltitudeMeters>1239.4000244140625</AltitudeMeters>
            <DistanceMeters>14982.27006874</DistanceMeters>
          </Trackpoint>
          <Trackpoint>
            <Time>2021-08-01T13:25:28.000Z</Time>
            <Position>
              <LatitudeDegrees>-15.40774994529783725738525390625</LatitudeDegrees>
              <LongitudeDegrees>37.07419549115002155303955078125</LongitudeDegrees>
            </Position>
            <AltitudeMeters>1239.5999755859375</AltitudeMeters>
            <DistanceMeters>14987.056435206</DistanceMeters>
          </Trackpoint>
          <Trackpoint>
            <Time>2021-08-01T13:25:30.000Z</Time>
            <Position>
              <LatitudeDegrees>-15.4077346064150333404541015625</LatitudeDegrees>
              <LongitudeDegrees>37.0742083154618740081787109375</LongitudeDegrees>
            </Position>
            <AltitudeMeters>1240</AltitudeMeters>
            <DistanceMeters>14989.250297267</DistanceMeters>
          </Trackpoint>
          <Trackpoint>
            <Time>2021-08-01T13:25:32.000Z</Time>
            <Position>
              <LatitudeDegrees>-15.4077198542654514312744140625</LatitudeDegrees>
              <LongitudeDegrees>37.0742270909249782562255859375</LongitudeDegrees>
            </Position>
            <AltitudeMeters>1240</AltitudeMeters>
            <DistanceMeters>14991.850975497</DistanceMeters>
          </Trackpoint>
          <Trackpoint>
            <Time>2021-08-01T13:25:33.000Z</Time>
            <Position>
              <LatitudeDegrees>-15.407713316380977630615234375</LatitudeDegrees>
              <LongitudeDegrees>37.07423589192330837249755859375</LongitudeDegrees>
            </Position>
            <AltitudeMeters>1240.5999755859375</AltitudeMeters>
            <DistanceMeters>14993.045442775</DistanceMeters>
          </Trackpoint>
          <Trackpoint>
            <Time>2021-08-01T13:25:42.000Z</Time>
            <Position>
              <LatitudeDegrees>-15.40763796307146549224853515625</LatitudeDegrees>
              <LongitudeDegrees>37.0742974989116191864013671875</LongitudeDegrees>
            </Position>
            <AltitudeMeters>1240.800048828125</AltitudeMeters>
            <DistanceMeters>15003.724433149</DistanceMeters>
          </Trackpoint>
          <Trackpoint>
            <Time>2021-08-01T13:25:48.000Z</Time>
            <Position>
              <LatitudeDegrees>-15.4076025076210498809814453125</LatitudeDegrees>
              <LongitudeDegrees>37.07434737123548984527587890625</LongitudeDegrees>
            </Position>
            <AltitudeMeters>1241.5999755859375</AltitudeMeters>
            <DistanceMeters>15010.372908478</DistanceMeters>
          </Trackpoint>
          <Trackpoint>
            <Time>2021-08-01T13:25:55.000Z</Time>
            <Position>
              <LatitudeDegrees>-15.40756269358098506927490234375</LatitudeDegrees>
              <LongitudeDegrees>37.074418365955352783203125</LongitudeDegrees>
            </Position>
            <AltitudeMeters>1242</AltitudeMeters>
            <DistanceMeters>15019.186348077</DistanceMeters>
          </Trackpoint>
          <Trackpoint>
            <Time>2021-08-01T13:26:01.000Z</Time>
            <Position>
              <LatitudeDegrees>-15.40754760615527629852294921875</LatitudeDegrees>
              <LongitudeDegrees>37.07448475062847137451171875</LongitudeDegrees>
            </Position>
            <AltitudeMeters>1242.800048828125</AltitudeMeters>
            <DistanceMeters>15026.504639093</DistanceMeters>
          </Trackpoint>
          <Trackpoint>
            <Time>2021-08-01T13:26:06.000Z</Time>
            <Position>
              <LatitudeDegrees>-15.40754039771854877471923828125</LatitudeDegrees>
              <LongitudeDegrees>37.0745404064655303955078125</LongitudeDegrees>
            </Position>
            <AltitudeMeters>1243</AltitudeMeters>
            <DistanceMeters>15032.52966252</DistanceMeters>
          </Trackpoint>
          <Trackpoint>
            <Time>2021-08-01T13:26:10.000Z</Time>
            <Position>
              <LatitudeDegrees>-15.407540984451770782470703125</LatitudeDegrees>
              <LongitudeDegrees>37.0745855011045932769775390625</LongitudeDegrees>
            </Position>
            <AltitudeMeters>1243.800048828125</AltitudeMeters>
            <DistanceMeters>15037.368566138</DistanceMeters>
          </Trackpoint>
          <Trackpoint>
            <Time>2021-08-01T13:26:15.000Z</Time>
            <Position>
              <LatitudeDegrees>-15.40753520093858242034912109375</LatitudeDegrees>
              <LongitudeDegrees>37.074650712311267852783203125</LongitudeDegrees>
            </Position>
            <AltitudeMeters>1243.5999755859375</AltitudeMeters>
            <DistanceMeters>15044.395404545</DistanceMeters>
          </Trackpoint>
          <Trackpoint>
            <Time>2021-08-01T13:26:20.000Z</Time>
            <Position>
              <LatitudeDegrees>-15.40751810185611248016357421875</LatitudeDegrees>
              <LongitudeDegrees>37.07470871508121490478515625</LongitudeDegrees>
            </Position>
            <AltitudeMeters>1243.800048828125</AltitudeMeters>
            <DistanceMeters>15050.903173634</DistanceMeters>
          </Trackpoint>
          <Trackpoint>
            <Time>2021-08-01T13:26:30.000Z</Time>
            <Position>
              <LatitudeDegrees>-15.407475940883159637451171875</LatitudeDegrees>
              <LongitudeDegrees>37.07482312805950641632080078125</LongitudeDegrees>
            </Position>
            <AltitudeMeters>1244.800048828125</AltitudeMeters>
            <DistanceMeters>15064.046093108</DistanceMeters>
          </Trackpoint>
          <Trackpoint>
            <Time>2021-08-01T13:26:40.000Z</Time>
            <Position>
              <LatitudeDegrees>-15.4074492864310741424560546875</LatitudeDegrees>
              <LongitudeDegrees>37.07493879832327365875244140625</LongitudeDegrees>
            </Position>
            <AltitudeMeters>1245.800048828125</AltitudeMeters>
            <DistanceMeters>15076.807299892</DistanceMeters>
          </Trackpoint>
          <Trackpoint>
            <Time>2021-08-01T13:26:41.000Z</Time>
            <Position>
              <LatitudeDegrees>-15.40744685567915439605712890625</LatitudeDegrees>
              <LongitudeDegrees>37.074954472482204437255859375</LongitudeDegrees>
            </Position>
            <AltitudeMeters>1245.800048828125</AltitudeMeters>
            <DistanceMeters>15078.512493317</DistanceMeters>
          </Trackpoint>
          <Trackpoint>
            <Time>2021-08-01T13:26:50.000Z</Time>
            <Position>
              <LatitudeDegrees>-15.4074398986995220184326171875</LatitudeDegrees>
              <LongitudeDegrees>37.0750619284808635711669921875</LongitudeDegrees>
            </Position>
            <AltitudeMeters>1246.199951171875</AltitudeMeters>
            <DistanceMeters>15090.069085834</DistanceMeters>
          </Trackpoint>
          <Trackpoint>
            <Time>2021-08-01T13:26:58.000Z</Time>
            <Position>
              <LatitudeDegrees>-15.40744601748883724212646484375</LatitudeDegrees>
              <LongitudeDegrees>37.07516376860439777374267578125</LongitudeDegrees>
            </Position>
            <AltitudeMeters>1246.4000244140625</AltitudeMeters>
            <DistanceMeters>15101.018208852</DistanceMeters>
          </Trackpoint>
          <Trackpoint>
            <Time>2021-08-01T13:27:00.000Z</Time>
            <Position>
              <LatitudeDegrees>-15.40745205245912075042724609375</LatitudeDegrees>
              <LongitudeDegrees>37.07518874667584896087646484375</LongitudeDegrees>
            </Position>
            <AltitudeMeters>1246.5999755859375</AltitudeMeters>
            <DistanceMeters>15103.782163387</DistanceMeters>
          </Trackpoint>
          <Trackpoint>
            <Time>2021-08-01T13:27:13.000Z</Time>
            <Position>
              <LatitudeDegrees>-15.40748097002506256103515625</LatitudeDegrees>
              <LongitudeDegrees>37.07534934394061565399169921875</LongitudeDegrees>
            </Position>
            <AltitudeMeters>1246.5999755859375</AltitudeMeters>
            <DistanceMeters>15121.312467479</DistanceMeters>
          </Trackpoint>
          <Trackpoint>
            <Time>2021-08-01T13:27:16.000Z</Time>
            <Position>
              <LatitudeDegrees>-15.40749111212790012359619140625</LatitudeDegrees>
              <LongitudeDegrees>37.07538823597133159637451171875</LongitudeDegrees>
            </Position>
            <AltitudeMeters>1246.800048828125</AltitudeMeters>
            <DistanceMeters>15125.636966099</DistanceMeters>
          </Trackpoint>
          <Trackpoint>
            <Time>2021-08-01T13:27:19.000Z</Time>
            <Position>
              <LatitudeDegrees>-15.40749580599367618560791015625</LatitudeDegrees>
              <LongitudeDegrees>37.07542343996465206146240234375</LongitudeDegrees>
            </Position>
            <AltitudeMeters>1246.800048828125</AltitudeMeters>
            <DistanceMeters>15129.449894511</DistanceMeters>
          </Trackpoint>
          <Trackpoint>
            <Time>2021-08-01T13:27:21.000Z</Time>
            <Position>
              <LatitudeDegrees>-15.4074995778501033782958984375</LatitudeDegrees>
              <LongitudeDegrees>37.07545042969286441802978515625</LongitudeDegrees>
            </Position>
            <AltitudeMeters>1247</AltitudeMeters>
            <DistanceMeters>15132.374186287</DistanceMeters>
          </Trackpoint>
          <Trackpoint>
            <Time>2021-08-01T13:27:27.000Z</Time>
            <Position>
              <LatitudeDegrees>-15.4074995778501033782958984375</LatitudeDegrees>
              <LongitudeDegrees>37.0755246095359325408935546875</LongitudeDegrees>
            </Position>
            <AltitudeMeters>1247.5999755859375</AltitudeMeters>
            <DistanceMeters>15140.333772729</DistanceMeters>
          </Trackpoint>
          <Trackpoint>
            <Time>2021-08-01T13:27:33.000Z</Time>
            <Position>
              <LatitudeDegrees>-15.40750318206846714019775390625</LatitudeDegrees>
              <LongitudeDegrees>37.07554313354194164276123046875</LongitudeDegrees>
            </Position>
            <AltitudeMeters>1247</AltitudeMeters>
            <DistanceMeters>15142.360761822</DistanceMeters>
          </Trackpoint>
          <Trackpoint>
            <Time>2021-08-01T13:27:41.000Z</Time>
            <Position>
              <LatitudeDegrees>-15.4075042717158794403076171875</LatitudeDegrees>
              <LongitudeDegrees>37.07553793676197528839111328125</LongitudeDegrees>
            </Position>
            <AltitudeMeters>1247.199951171875</AltitudeMeters>
            <DistanceMeters>15142.930922108</DistanceMeters>
          </Trackpoint>
          <Trackpoint>
            <Time>2021-08-01T13:27:44.000Z</Time>
            <Position>
              <LatitudeDegrees>-15.4075042717158794403076171875</LatitudeDegrees>
              <LongitudeDegrees>37.07553793676197528839111328125</LongitudeDegrees>
            </Position>
            <AltitudeMeters>1247</AltitudeMeters>
            <DistanceMeters>15142.930922108</DistanceMeters>
          </Trackpoint>
          <Trackpoint>
            <Time>2021-08-01T13:27:47.000Z</Time>
            <Position>
              <LatitudeDegrees>-15.4075042717158794403076171875</LatitudeDegrees>
              <LongitudeDegrees>37.07553793676197528839111328125</LongitudeDegrees>
            </Position>
            <AltitudeMeters>1247</AltitudeMeters>
            <DistanceMeters>15142.930922108</DistanceMeters>
          </Trackpoint>
          <Trackpoint>
            <Time>2021-08-01T13:27:50.000Z</Time>
            <Position>
              <LatitudeDegrees>-15.4075042717158794403076171875</LatitudeDegrees>
              <LongitudeDegrees>37.07553793676197528839111328125</LongitudeDegrees>
            </Position>
            <AltitudeMeters>1247</AltitudeMeters>
            <DistanceMeters>15142.930922108</DistanceMeters>
          </Trackpoint>
          <Trackpoint>
            <Time>2021-08-01T13:27:53.000Z</Time>
            <Position>
              <LatitudeDegrees>-15.4075042717158794403076171875</LatitudeDegrees>
              <LongitudeDegrees>37.07553793676197528839111328125</LongitudeDegrees>
            </Position>
            <AltitudeMeters>1247</AltitudeMeters>
            <DistanceMeters>15142.930922108</DistanceMeters>
          </Trackpoint>
          <Trackpoint>
            <Time>2021-08-01T13:28:06.000Z</Time>
            <Position>
              <LatitudeDegrees>-15.40750552900135517120361328125</LatitudeDegrees>
              <LongitudeDegrees>37.075536511838436126708984375</LongitudeDegrees>
            </Position>
            <AltitudeMeters>1247.199951171875</AltitudeMeters>
            <DistanceMeters>15143.16368907</DistanceMeters>
          </Trackpoint>
          <Trackpoint>
            <Time>2021-08-01T13:28:18.000Z</Time>
            <Position>
              <LatitudeDegrees>-15.407507121562957763671875</LatitudeDegrees>
              <LongitudeDegrees>37.07553642801940441131591796875</LongitudeDegrees>
            </Position>
            <AltitudeMeters>1247</AltitudeMeters>
            <DistanceMeters>15143.353742499</DistanceMeters>
          </Trackpoint>
          <Trackpoint>
            <Time>2021-08-01T13:28:25.000Z</Time>
            <Position>
              <LatitudeDegrees>-15.407508127391338348388671875</LatitudeDegrees>
              <LongitudeDegrees>37.07553693093359470367431640625</LongitudeDegrees>
            </Position>
            <AltitudeMeters>1247.199951171875</AltitudeMeters>
            <DistanceMeters>15143.448769213</DistanceMeters>
          </Trackpoint>
          <Trackpoint>
            <Time>2021-08-01T13:28:32.000Z</Time>
            <Position>
              <LatitudeDegrees>-15.407507456839084625244140625</LatitudeDegrees>
              <LongitudeDegrees>37.0755386911332607269287109375</LongitudeDegrees>
            </Position>
            <AltitudeMeters>1246.800048828125</AltitudeMeters>
            <DistanceMeters>15143.661255406</DistanceMeters>
          </Trackpoint>
          <Trackpoint>
            <Time>2021-08-01T13:28:36.000Z</Time>
            <Position>
              <LatitudeDegrees>-15.40750485844910144805908203125</LatitudeDegrees>
              <LongitudeDegrees>37.0755386911332607269287109375</LongitudeDegrees>
            </Position>
            <AltitudeMeters>1246.800048828125</AltitudeMeters>
            <DistanceMeters>15143.946335549</DistanceMeters>
          </Trackpoint>
          <Trackpoint>
            <Time>2021-08-01T13:28:47.000Z</Time>
            <Position>
              <LatitudeDegrees>-15.407502092421054840087890625</LatitudeDegrees>
              <LongitudeDegrees>37.075537182390689849853515625</LongitudeDegrees>
            </Position>
            <AltitudeMeters>1246.800048828125</AltitudeMeters>
            <DistanceMeters>15144.301892957</DistanceMeters>
          </Trackpoint>
          <Trackpoint>
            <Time>2021-08-01T13:28:51.000Z</Time>
            <Position>
              <LatitudeDegrees>-15.4074952192604541778564453125</LatitudeDegrees>
              <LongitudeDegrees>37.0755960233509540557861328125</LongitudeDegrees>
            </Position>
            <AltitudeMeters>1246.800048828125</AltitudeMeters>
            <DistanceMeters>15150.662297226</DistanceMeters>
          </Trackpoint>
          <Trackpoint>
            <Time>2021-08-01T13:29:04.000Z</Time>
            <Position>
              <LatitudeDegrees>-15.40750150568783283233642578125</LatitudeDegrees>
              <LongitudeDegrees>37.07578570581972599029541015625</LongitudeDegrees>
            </Position>
            <AltitudeMeters>1247.199951171875</AltitudeMeters>
            <DistanceMeters>15171.027743725</DistanceMeters>
          </Trackpoint>
          <Trackpoint>
            <Time>2021-08-01T13:29:11.000Z</Time>
            <Position>
              <LatitudeDegrees>-15.40749765001237392425537109375</LatitudeDegrees>
              <LongitudeDegrees>37.075881846249103546142578125</LongitudeDegrees>
            </Position>
            <AltitudeMeters>1247.800048828125</AltitudeMeters>
            <DistanceMeters>15181.352473863</DistanceMeters>
          </Trackpoint>
          <Trackpoint>
            <Time>2021-08-01T13:29:16.000Z</Time>
            <Position>
              <LatitudeDegrees>-15.407487340271472930908203125</LatitudeDegrees>
              <LongitudeDegrees>37.07594328559935092926025390625</LongitudeDegrees>
            </Position>
            <AltitudeMeters>1247.4000244140625</AltitudeMeters>
            <DistanceMeters>15188.044271012</DistanceMeters>
          </Trackpoint>
          <Trackpoint>
            <Time>2021-08-01T13:29:23.000Z</Time>
            <Position>
              <LatitudeDegrees>-15.40746219456195831298828125</LatitudeDegrees>
              <LongitudeDegrees>37.07604990340769290924072265625</LongitudeDegrees>
            </Position>
            <AltitudeMeters>1247.5999755859375</AltitudeMeters>
            <DistanceMeters>15199.822217961</DistanceMeters>
          </Trackpoint>
          <Trackpoint>
            <Time>2021-08-01T13:29:28.000Z</Time>
            <Position>
              <LatitudeDegrees>-15.4074469394981861114501953125</LatitudeDegrees>
              <LongitudeDegrees>37.07610547542572021484375</LongitudeDegrees>
            </Position>
            <AltitudeMeters>1246.800048828125</AltitudeMeters>
            <DistanceMeters>15206.023029641</DistanceMeters>
          </Trackpoint>
          <Trackpoint>
            <Time>2021-08-01T13:29:31.000Z</Time>
            <Position>
              <LatitudeDegrees>-15.40744165889918804168701171875</LatitudeDegrees>
              <LongitudeDegrees>37.07615040242671966552734375</LongitudeDegrees>
            </Position>
            <AltitudeMeters>1246.800048828125</AltitudeMeters>
            <DistanceMeters>15210.880558823</DistanceMeters>
          </Trackpoint>
          <Trackpoint>
            <Time>2021-08-01T13:29:37.000Z</Time>
            <Position>
              <LatitudeDegrees>-15.40742489509284496307373046875</LatitudeDegrees>
              <LongitudeDegrees>37.07624000497162342071533203125</LongitudeDegrees>
            </Position>
            <AltitudeMeters>1246.5999755859375</AltitudeMeters>
            <DistanceMeters>15220.674305398</DistanceMeters>
          </Trackpoint>
          <Trackpoint>
            <Time>2021-08-01T13:29:41.000Z</Time>
            <Position>
              <LatitudeDegrees>-15.40741198696196079254150390625</LatitudeDegrees>
              <LongitudeDegrees>37.07628224976360797882080078125</LongitudeDegrees>
            </Position>
            <AltitudeMeters>1246.4000244140625</AltitudeMeters>
            <DistanceMeters>15225.429440666</DistanceMeters>
          </Trackpoint>
          <Trackpoint>
            <Time>2021-08-01T13:29:44.000Z</Time>
            <Position>
              <LatitudeDegrees>-15.40740528143942356109619140625</LatitudeDegrees>
              <LongitudeDegrees>37.076325081288814544677734375</LongitudeDegrees>
            </Position>
            <AltitudeMeters>1246</AltitudeMeters>
            <DistanceMeters>15230.084779909</DistanceMeters>
          </Trackpoint>
          <Trackpoint>
            <Time>2021-08-01T13:29:51.000Z</Time>
            <Position>
              <LatitudeDegrees>-15.40740829892456531524658203125</LatitudeDegrees>
              <LongitudeDegrees>37.0764288492500782012939453125</LongitudeDegrees>
            </Position>
            <AltitudeMeters>1246</AltitudeMeters>
            <DistanceMeters>15241.224002522</DistanceMeters>
          </Trackpoint>
          <Trackpoint>
            <Time>2021-08-01T13:29:54.000Z</Time>
            <Position>
              <LatitudeDegrees>-15.40741852484643459320068359375</LatitudeDegrees>
              <LongitudeDegrees>37.07646380178630352020263671875</LongitudeDegrees>
            </Position>
            <AltitudeMeters>1245.800048828125</AltitudeMeters>
            <DistanceMeters>15245.142054328</DistanceMeters>
          </Trackpoint>
          <Trackpoint>
            <Time>2021-08-01T13:30:02.000Z</Time>
            <Position>
              <LatitudeDegrees>-15.40743512101471424102783203125</LatitudeDegrees>
              <LongitudeDegrees>37.0765800587832927703857421875</LongitudeDegrees>
            </Position>
            <AltitudeMeters>1245.800048828125</AltitudeMeters>
            <DistanceMeters>15257.752353538</DistanceMeters>
          </Trackpoint>
          <Trackpoint>
            <Time>2021-08-01T13:30:06.000Z</Time>
            <Position>
              <LatitudeDegrees>-15.407433696091175079345703125</LatitudeDegrees>
              <LongitudeDegrees>37.07662506960332393646240234375</LongitudeDegrees>
            </Position>
            <AltitudeMeters>1245.800048828125</AltitudeMeters>
            <DistanceMeters>15262.583786825</DistanceMeters>
          </Trackpoint>
          <Trackpoint>
            <Time>2021-08-01T13:30:09.000Z</Time>
            <Position>
              <LatitudeDegrees>-15.4074274934828281402587890625</LatitudeDegrees>
              <LongitudeDegrees>37.07666161470115184783935546875</LongitudeDegrees>
            </Position>
            <AltitudeMeters>1245.4000244140625</AltitudeMeters>
            <DistanceMeters>15266.564714375</DistanceMeters>
          </Trackpoint>
          <Trackpoint>
            <Time>2021-08-01T13:30:11.000Z</Time>
            <Position>
              <LatitudeDegrees>-15.407422967255115509033203125</LatitudeDegrees>
              <LongitudeDegrees>37.07669086754322052001953125</LongitudeDegrees>
            </Position>
            <AltitudeMeters>1245.4000244140625</AltitudeMeters>
            <DistanceMeters>15269.74349646</DistanceMeters>
          </Trackpoint>
          <Trackpoint>
            <Time>2021-08-01T13:30:12.000Z</Time>
            <Position>
              <LatitudeDegrees>-15.40742087177932262420654296875</LatitudeDegrees>
              <LongitudeDegrees>37.0767041109502315521240234375</LongitudeDegrees>
            </Position>
            <AltitudeMeters>1245.4000244140625</AltitudeMeters>
            <DistanceMeters>15271.184647938</DistanceMeters>
          </Trackpoint>
          <Trackpoint>
            <Time>2021-08-01T13:30:17.000Z</Time>
            <Position>
              <LatitudeDegrees>-15.40740829892456531524658203125</LatitudeDegrees>
              <LongitudeDegrees>37.07676571793854236602783203125</LongitudeDegrees>
            </Position>
            <AltitudeMeters>1244.199951171875</AltitudeMeters>
            <DistanceMeters>15277.940906993</DistanceMeters>
          </Trackpoint>
          <Trackpoint>
            <Time>2021-08-01T13:30:20.000Z</Time>
            <Position>
              <LatitudeDegrees>-15.4073983244597911834716796875</LatitudeDegrees>
              <LongitudeDegrees>37.0767996646463871002197265625</LongitudeDegrees>
            </Position>
            <AltitudeMeters>1244</AltitudeMeters>
            <DistanceMeters>15281.747910105</DistanceMeters>
          </Trackpoint>
          <Trackpoint>
            <Time>2021-08-01T13:30:24.000Z</Time>
            <Position>
              <LatitudeDegrees>-15.4073825664818286895751953125</LatitudeDegrees>
              <LongitudeDegrees>37.07684375345706939697265625</LongitudeDegrees>
            </Position>
            <AltitudeMeters>1243.800048828125</AltitudeMeters>
            <DistanceMeters>15286.794177594</DistanceMeters>
          </Trackpoint>
          <Trackpoint>
            <Time>2021-08-01T13:30:27.000Z</Time>
            <Position>
              <LatitudeDegrees>-15.4073627851903438568115234375</LatitudeDegrees>
              <LongitudeDegrees>37.076888345181941986083984375</LongitudeDegrees>
            </Position>
            <AltitudeMeters>1243.199951171875</AltitudeMeters>
            <DistanceMeters>15292.06109271</DistanceMeters>
          </Trackpoint>
          <Trackpoint>
            <Time>2021-08-01T13:30:34.000Z</Time>
            <Position>
              <LatitudeDegrees>-15.4073128290474414825439453125</LatitudeDegrees>
              <LongitudeDegrees>37.076984234154224395751953125</LongitudeDegrees>
            </Position>
            <AltitudeMeters>1242.199951171875</AltitudeMeters>
            <DistanceMeters>15303.756329685</DistanceMeters>
          </Trackpoint>
          <Trackpoint>
            <Time>2021-08-01T13:30:38.000Z</Time>
            <Position>
              <LatitudeDegrees>-15.40729296393692493438720703125</LatitudeDegrees>
              <LongitudeDegrees>37.07702136598527431488037109375</LongitudeDegrees>
            </Position>
            <AltitudeMeters>1242.199951171875</AltitudeMeters>
            <DistanceMeters>15308.311668933</DistanceMeters>
          </Trackpoint>
          <Trackpoint>
            <Time>2021-08-01T13:30:42.000Z</Time>
            <Position>
              <LatitudeDegrees>-15.40726429782807826995849609375</LatitudeDegrees>
              <LongitudeDegrees>37.0770675502717494964599609375</LongitudeDegrees>
            </Position>
            <AltitudeMeters>1241.800048828125</AltitudeMeters>
            <DistanceMeters>15314.204857714</DistanceMeters>
          </Trackpoint>
          <Trackpoint>
            <Time>2021-08-01T13:30:46.000Z</Time>
            <Position>
              <LatitudeDegrees>-15.407237894833087921142578125</LatitudeDegrees>
              <LongitudeDegrees>37.0771131478250026702880859375</LongitudeDegrees>
            </Position>
            <AltitudeMeters>1240.4000244140625</AltitudeMeters>
            <DistanceMeters>15319.912792174</DistanceMeters>
          </Trackpoint>
          <Trackpoint>
            <Time>2021-08-01T13:30:54.000Z</Time>
            <Position>
              <LatitudeDegrees>-15.40718668140470981597900390625</LatitudeDegrees>
              <LongitudeDegrees>37.07720174454152584075927734375</LongitudeDegrees>
            </Position>
            <AltitudeMeters>1239.4000244140625</AltitudeMeters>
            <DistanceMeters>15330.997160451</DistanceMeters>
          </Trackpoint>
          <Trackpoint>
            <Time>2021-08-01T13:31:02.000Z</Time>
            <Position>
              <LatitudeDegrees>-15.4071237333118915557861328125</LatitudeDegrees>
              <LongitudeDegrees>37.0772888325154781341552734375</LongitudeDegrees>
            </Position>
            <AltitudeMeters>1239</AltitudeMeters>
            <DistanceMeters>15342.676558328</DistanceMeters>
          </Trackpoint>
          <Trackpoint>
            <Time>2021-08-01T13:31:06.000Z</Time>
            <Position>
              <LatitudeDegrees>-15.40709347464144229888916015625</LatitudeDegrees>
              <LongitudeDegrees>37.07733501680195331573486328125</LongitudeDegrees>
            </Position>
            <AltitudeMeters>1239</AltitudeMeters>
            <DistanceMeters>15348.667764706</DistanceMeters>
          </Trackpoint>
          <Trackpoint>
            <Time>2021-08-01T13:31:07.000Z</Time>
            <Position>
              <LatitudeDegrees>-15.40708576329052448272705078125</LatitudeDegrees>
              <LongitudeDegrees>37.07734775729477405548095703125</LongitudeDegrees>
            </Position>
            <AltitudeMeters>1239</AltitudeMeters>
            <DistanceMeters>15350.28321885</DistanceMeters>
          </Trackpoint>
          <Trackpoint>
            <Time>2021-08-01T13:31:11.000Z</Time>
            <Position>
              <LatitudeDegrees>-15.40706598199903964996337890625</LatitudeDegrees>
              <LongitudeDegrees>37.07736988551914691925048828125</LongitudeDegrees>
            </Position>
            <AltitudeMeters>1239</AltitudeMeters>
            <DistanceMeters>15353.522500997</DistanceMeters>
          </Trackpoint>
          <Trackpoint>
            <Time>2021-08-01T13:31:12.000Z</Time>
            <Position>
              <LatitudeDegrees>-15.4070586897432804107666015625</LatitudeDegrees>
              <LongitudeDegrees>37.0773783512413501739501953125</LongitudeDegrees>
            </Position>
            <AltitudeMeters>1239</AltitudeMeters>
            <DistanceMeters>15354.739436713</DistanceMeters>
          </Trackpoint>
          <Trackpoint>
            <Time>2021-08-01T13:31:17.000Z</Time>
            <Position>
              <LatitudeDegrees>-15.40704511106014251708984375</LatitudeDegrees>
              <LongitudeDegrees>37.077396623790264129638671875</LongitudeDegrees>
            </Position>
            <AltitudeMeters>1238.5999755859375</AltitudeMeters>
            <DistanceMeters>15357.215607528</DistanceMeters>
          </Trackpoint>
          <Trackpoint>
            <Time>2021-08-01T13:31:22.000Z</Time>
            <Position>
              <LatitudeDegrees>-15.40704569779336452484130859375</LatitudeDegrees>
              <LongitudeDegrees>37.0774091966450214385986328125</LongitudeDegrees>
            </Position>
            <AltitudeMeters>1238.800048828125</AltitudeMeters>
            <DistanceMeters>15358.5695298</DistanceMeters>
          </Trackpoint>
          <Trackpoint>
            <Time>2021-08-01T13:31:28.000Z</Time>
            <Position>
              <LatitudeDegrees>-15.4070318676531314849853515625</LatitudeDegrees>
              <LongitudeDegrees>37.07742772065103054046630859375</LongitudeDegrees>
            </Position>
            <AltitudeMeters>1238.800048828125</AltitudeMeters>
            <DistanceMeters>15361.085495537</DistanceMeters>
          </Trackpoint>
          <Trackpoint>
            <Time>2021-08-01T13:31:35.000Z</Time>
            <Position>
              <LatitudeDegrees>-15.40700915269553661346435546875</LatitudeDegrees>
              <LongitudeDegrees>37.0775096118450164794921875</LongitudeDegrees>
            </Position>
            <AltitudeMeters>1238.800048828125</AltitudeMeters>
            <DistanceMeters>15370.229317374</DistanceMeters>
          </Trackpoint>
          <Trackpoint>
            <Time>2021-08-01T13:31:44.000Z</Time>
            <Position>
              <LatitudeDegrees>-15.4069607891142368316650390625</LatitudeDegrees>
              <LongitudeDegrees>37.07761446945369243621826171875</LongitudeDegrees>
            </Position>
            <AltitudeMeters>1238.5999755859375</AltitudeMeters>
            <DistanceMeters>15382.702094009</DistanceMeters>
          </Trackpoint>
          <Trackpoint>
            <Time>2021-08-01T13:31:45.000Z</Time>
            <Position>
              <LatitudeDegrees>-15.4069532454013824462890625</LatitudeDegrees>
              <LongitudeDegrees>37.07762536592781543731689453125</LongitudeDegrees>
            </Position>
            <AltitudeMeters>1238.4000244140625</AltitudeMeters>
            <DistanceMeters>15384.140109136</DistanceMeters>
          </Trackpoint>
          <Trackpoint>
            <Time>2021-08-01T13:31:47.000Z</Time>
            <Position>
              <LatitudeDegrees>-15.406932123005390167236328125</LatitudeDegrees>
              <LongitudeDegrees>37.077643387019634246826171875</LongitudeDegrees>
            </Position>
            <AltitudeMeters>1237.800048828125</AltitudeMeters>
            <DistanceMeters>15387.183932132</DistanceMeters>
          </Trackpoint>
          <Trackpoint>
            <Time>2021-08-01T13:31:56.000Z</Time>
            <Position>
              <LatitudeDegrees>-15.4068405926227569580078125</LatitudeDegrees>
              <LongitudeDegrees>37.07773156464099884033203125</LongitudeDegrees>
            </Position>
            <AltitudeMeters>1236.800048828125</AltitudeMeters>
            <DistanceMeters>15401.087740118</DistanceMeters>
          </Trackpoint>
          <Trackpoint>
            <Time>2021-08-01T13:31:59.000Z</Time>
            <Position>
              <LatitudeDegrees>-15.4068233259022235870361328125</LatitudeDegrees>
              <LongitudeDegrees>37.0777575485408306121826171875</LongitudeDegrees>
            </Position>
            <AltitudeMeters>1236.4000244140625</AltitudeMeters>
            <DistanceMeters>15404.474212779</DistanceMeters>
          </Trackpoint>
          <Trackpoint>
            <Time>2021-08-01T13:32:04.000Z</Time>
            <Position>
              <LatitudeDegrees>-15.4067794047296047210693359375</LatitudeDegrees>
              <LongitudeDegrees>37.07779669202864170074462890625</LongitudeDegrees>
            </Position>
            <AltitudeMeters>1236</AltitudeMeters>
            <DistanceMeters>15410.91923812</DistanceMeters>
          </Trackpoint>
          <Trackpoint>
            <Time>2021-08-01T13:32:09.000Z</Time>
            <Position>
              <LatitudeDegrees>-15.40674269199371337890625</LatitudeDegrees>
              <LongitudeDegrees>37.07783038727939128875732421875</LongitudeDegrees>
            </Position>
            <AltitudeMeters>1235.5999755859375</AltitudeMeters>
            <DistanceMeters>15416.375625389</DistanceMeters>
          </Trackpoint>
          <Trackpoint>
            <Time>2021-08-01T13:32:14.000Z</Time>
            <Position>
              <LatitudeDegrees>-15.4066984355449676513671875</LatitudeDegrees>
              <LongitudeDegrees>37.07787682302296161651611328125</LongitudeDegrees>
            </Position>
            <AltitudeMeters>1235.4000244140625</AltitudeMeters>
            <DistanceMeters>15423.381872284</DistanceMeters>
          </Trackpoint>
          <Trackpoint>
            <Time>2021-08-01T13:32:16.000Z</Time>
            <Position>
              <LatitudeDegrees>-15.40667722932994365692138671875</LatitudeDegrees>
              <LongitudeDegrees>37.077896185219287872314453125</LongitudeDegrees>
            </Position>
            <AltitudeMeters>1234.5999755859375</AltitudeMeters>
            <DistanceMeters>15426.524944607</DistanceMeters>
          </Trackpoint>
          <Trackpoint>
            <Time>2021-08-01T13:32:23.000Z</Time>
            <Position>
              <LatitudeDegrees>-15.40661386214196681976318359375</LatitudeDegrees>
              <LongitudeDegrees>37.07795125432312488555908203125</LongitudeDegrees>
            </Position>
            <AltitudeMeters>1234.4000244140625</AltitudeMeters>
            <DistanceMeters>15435.725866662</DistanceMeters>
          </Trackpoint>
          <Trackpoint>
            <Time>2021-08-01T13:32:33.000Z</Time>
            <Position>
              <LatitudeDegrees>-15.406529791653156280517578125</LatitudeDegrees>
              <LongitudeDegrees>37.07805342972278594970703125</LongitudeDegrees>
            </Position>
            <AltitudeMeters>1234.199951171875</AltitudeMeters>
            <DistanceMeters>15450.139887573</DistanceMeters>
          </Trackpoint>
          <Trackpoint>
            <Time>2021-08-01T13:32:40.000Z</Time>
            <Position>
              <LatitudeDegrees>-15.40648176334798336029052734375</LatitudeDegrees>
              <LongitudeDegrees>37.07811604253947734832763671875</LongitudeDegrees>
            </Position>
            <AltitudeMeters>1233.5999755859375</AltitudeMeters>
            <DistanceMeters>15458.724960895</DistanceMeters>
          </Trackpoint>
          <Trackpoint>
            <Time>2021-08-01T13:32:43.000Z</Time>
            <Position>
              <LatitudeDegrees>-15.40647455491125583648681640625</LatitudeDegrees>
              <LongitudeDegrees>37.078129537403583526611328125</LongitudeDegrees>
            </Position>
            <AltitudeMeters>1233.199951171875</AltitudeMeters>
            <DistanceMeters>15460.381808274</DistanceMeters>
          </Trackpoint>
          <Trackpoint>
            <Time>2021-08-01T13:32:46.000Z</Time>
            <Position>
              <LatitudeDegrees>-15.4064568690955638885498046875</LatitudeDegrees>
              <LongitudeDegrees>37.07814588211476802825927734375</LongitudeDegrees>
            </Position>
            <AltitudeMeters>1233</AltitudeMeters>
            <DistanceMeters>15463.018692584</DistanceMeters>
          </Trackpoint>
          <Trackpoint>
            <Time>2021-08-01T13:32:48.000Z</Time>
            <Position>
              <LatitudeDegrees>-15.40644018910825252532958984375</LatitudeDegrees>
              <LongitudeDegrees>37.0781578682363033294677734375</LongitudeDegrees>
            </Position>
            <AltitudeMeters>1233</AltitudeMeters>
            <DistanceMeters>15465.277451799</DistanceMeters>
          </Trackpoint>
          <Trackpoint>
            <Time>2021-08-01T13:32:50.000Z</Time>
            <Position>
              <LatitudeDegrees>-15.40642258711159229278564453125</LatitudeDegrees>
              <LongitudeDegrees>37.0781722851097583770751953125</LongitudeDegrees>
            </Position>
            <AltitudeMeters>1232.4000244140625</AltitudeMeters>
            <DistanceMeters>15467.77359938</DistanceMeters>
          </Trackpoint>
          <Trackpoint>
            <Time>2021-08-01T13:32:53.000Z</Time>
            <Position>
              <LatitudeDegrees>-15.4063888080418109893798828125</LatitudeDegrees>
              <LongitudeDegrees>37.07819500006735324859619140625</LongitudeDegrees>
            </Position>
            <AltitudeMeters>1231.4000244140625</AltitudeMeters>
            <DistanceMeters>15472.253985516</DistanceMeters>
          </Trackpoint>
          <Trackpoint>
            <Time>2021-08-01T13:32:59.000Z</Time>
            <Position>
              <LatitudeDegrees>-15.40631043724715709686279296875</LatitudeDegrees>
              <LongitudeDegrees>37.07822986878454685211181640625</LongitudeDegrees>
            </Position>
            <AltitudeMeters>1231</AltitudeMeters>
            <DistanceMeters>15481.745246898</DistanceMeters>
          </Trackpoint>
          <Trackpoint>
            <Time>2021-08-01T13:33:02.000Z</Time>
            <Position>
              <LatitudeDegrees>-15.40627020411193370819091796875</LatitudeDegrees>
              <LongitudeDegrees>37.0782473869621753692626953125</LongitudeDegrees>
            </Position>
            <AltitudeMeters>1229.4000244140625</AltitudeMeters>
            <DistanceMeters>15486.601846497</DistanceMeters>
          </Trackpoint>
          <Trackpoint>
            <Time>2021-08-01T13:33:07.000Z</Time>
            <Position>
              <LatitudeDegrees>-15.40621035732328891754150390625</LatitudeDegrees>
              <LongitudeDegrees>37.07827412523329257965087890625</LongitudeDegrees>
            </Position>
            <AltitudeMeters>1228.4000244140625</AltitudeMeters>
            <DistanceMeters>15493.85506822</DistanceMeters>
          </Trackpoint>
          <Trackpoint>
            <Time>2021-08-01T13:33:09.000Z</Time>
            <Position>
              <LatitudeDegrees>-15.406187139451503753662109375</LatitudeDegrees>
              <LongitudeDegrees>37.078281082212924957275390625</LongitudeDegrees>
            </Position>
            <AltitudeMeters>1228</AltitudeMeters>
            <DistanceMeters>15496.544508911</DistanceMeters>
          </Trackpoint>
          <Trackpoint>
            <Time>2021-08-01T13:33:13.000Z</Time>
            <Position>
              <LatitudeDegrees>-15.4061417095363140106201171875</LatitudeDegrees>
              <LongitudeDegrees>37.07829994149506092071533203125</LongitudeDegrees>
            </Position>
            <AltitudeMeters>1226.800048828125</AltitudeMeters>
            <DistanceMeters>15501.991786323</DistanceMeters>
          </Trackpoint>
          <Trackpoint>
            <Time>2021-08-01T13:33:19.000Z</Time>
            <Position>
              <LatitudeDegrees>-15.4060806892812252044677734375</LatitudeDegrees>
              <LongitudeDegrees>37.07832860760390758514404296875</LongitudeDegrees>
            </Position>
            <AltitudeMeters>1225.800048828125</AltitudeMeters>
            <DistanceMeters>15509.44759953</DistanceMeters>
          </Trackpoint>
          <Trackpoint>
            <Time>2021-08-01T13:33:20.000Z</Time>
            <Position>
              <LatitudeDegrees>-15.40606970898807048797607421875</LatitudeDegrees>
              <LongitudeDegrees>37.07833497785031795501708984375</LongitudeDegrees>
            </Position>
            <AltitudeMeters>1225.5999755859375</AltitudeMeters>
            <DistanceMeters>15510.850652154</DistanceMeters>
          </Trackpoint>
          <Trackpoint>
            <Time>2021-08-01T13:33:24.000Z</Time>
            <Position>
              <LatitudeDegrees>-15.406018830835819244384765625</LatitudeDegrees>
              <LongitudeDegrees>37.07836548797786235809326171875</LongitudeDegrees>
            </Position>
            <AltitudeMeters>1224.5999755859375</AltitudeMeters>
            <DistanceMeters>15517.391638486</DistanceMeters>
          </Trackpoint>
          <Trackpoint>
            <Time>2021-08-01T13:33:31.000Z</Time>
            <Position>
              <LatitudeDegrees>-15.40593157522380352020263671875</LatitudeDegrees>
              <LongitudeDegrees>37.07842851988971233367919921875</LongitudeDegrees>
            </Position>
            <AltitudeMeters>1224</AltitudeMeters>
            <DistanceMeters>15529.226566273</DistanceMeters>
          </Trackpoint>
          <Trackpoint>
            <Time>2021-08-01T13:33:32.000Z</Time>
            <Position>
              <LatitudeDegrees>-15.4059244506061077117919921875</LatitudeDegrees>
              <LongitudeDegrees>37.078438661992549896240234375</LongitudeDegrees>
            </Position>
            <AltitudeMeters>1223.4000244140625</AltitudeMeters>
            <DistanceMeters>15530.573802468</DistanceMeters>
          </Trackpoint>
          <Trackpoint>
            <Time>2021-08-01T13:33:35.000Z</Time>
            <Position>
              <LatitudeDegrees>-15.4059073515236377716064453125</LatitudeDegrees>
              <LongitudeDegrees>37.0784679986536502838134765625</LongitudeDegrees>
            </Position>
            <AltitudeMeters>1222.5999755859375</AltitudeMeters>
            <DistanceMeters>15534.252944296</DistanceMeters>
          </Trackpoint>
          <Trackpoint>
            <Time>2021-08-01T13:33:39.000Z</Time>
            <Position>
              <LatitudeDegrees>-15.40588094852864742279052734375</LatitudeDegrees>
              <LongitudeDegrees>37.0785032026469707489013671875</LongitudeDegrees>
            </Position>
            <AltitudeMeters>1222.5999755859375</AltitudeMeters>
            <DistanceMeters>15539.038367356</DistanceMeters>
          </Trackpoint>
          <Trackpoint>
            <Time>2021-08-01T13:33:41.000Z</Time>
            <Position>
              <LatitudeDegrees>-15.4058687947690486907958984375</LatitudeDegrees>
              <LongitudeDegrees>37.078524492681026458740234375</LongitudeDegrees>
            </Position>
            <AltitudeMeters>1222</AltitudeMeters>
            <DistanceMeters>15541.692319056</DistanceMeters>
          </Trackpoint>
          <Trackpoint>
            <Time>2021-08-01T13:33:46.000Z</Time>
            <Position>
              <LatitudeDegrees>-15.40583543479442596435546875</LatitudeDegrees>
              <LongitudeDegrees>37.07858375273644924163818359375</LongitudeDegrees>
            </Position>
            <AltitudeMeters>1220.5999755859375</AltitudeMeters>
            <DistanceMeters>15549.056123035</DistanceMeters>
          </Trackpoint>
          <Trackpoint>
            <Time>2021-08-01T13:33:51.000Z</Time>
            <Position>
              <LatitudeDegrees>-15.40579109452664852142333984375</LatitudeDegrees>
              <LongitudeDegrees>37.0786443538963794708251953125</LongitudeDegrees>
            </Position>
            <AltitudeMeters>1220</AltitudeMeters>
            <DistanceMeters>15557.219022892</DistanceMeters>
          </Trackpoint>
          <Trackpoint>
            <Time>2021-08-01T13:33:53.000Z</Time>
            <Position>
              <LatitudeDegrees>-15.405774414539337158203125</LatitudeDegrees>
              <LongitudeDegrees>37.078666649758815765380859375</LongitudeDegrees>
            </Position>
            <AltitudeMeters>1219.5999755859375</AltitudeMeters>
            <DistanceMeters>15560.247976122</DistanceMeters>
          </Trackpoint>
          <Trackpoint>
            <Time>2021-08-01T13:33:58.000Z</Time>
            <Position>
              <LatitudeDegrees>-15.40573443286120891571044921875</LatitudeDegrees>
              <LongitudeDegrees>37.0787187851965427398681640625</LongitudeDegrees>
            </Position>
            <AltitudeMeters>1218.199951171875</AltitudeMeters>
            <DistanceMeters>15567.397118215</DistanceMeters>
          </Trackpoint>
          <Trackpoint>
            <Time>2021-08-01T13:34:02.000Z</Time>
            <Position>
              <LatitudeDegrees>-15.40570056997239589691162109375</LatitudeDegrees>
              <LongitudeDegrees>37.078753150999546051025390625</LongitudeDegrees>
            </Position>
            <AltitudeMeters>1217.4000244140625</AltitudeMeters>
            <DistanceMeters>15572.670886834</DistanceMeters>
          </Trackpoint>
          <Trackpoint>
            <Time>2021-08-01T13:34:09.000Z</Time>
            <Position>
              <LatitudeDegrees>-15.40564122609794139862060546875</LatitudeDegrees>
              <LongitudeDegrees>37.0788158476352691650390625</LongitudeDegrees>
            </Position>
            <AltitudeMeters>1216.5999755859375</AltitudeMeters>
            <DistanceMeters>15582.09866719</DistanceMeters>
          </Trackpoint>
          <Trackpoint>
            <Time>2021-08-01T13:34:12.000Z</Time>
            <Position>
              <LatitudeDegrees>-15.40561012923717498779296875</LatitudeDegrees>
              <LongitudeDegrees>37.07884325645864009857177734375</LongitudeDegrees>
            </Position>
            <AltitudeMeters>1216.199951171875</AltitudeMeters>
            <DistanceMeters>15586.641103175</DistanceMeters>
          </Trackpoint>
          <Trackpoint>
            <Time>2021-08-01T13:34:19.000Z</Time>
            <Position>
              <LatitudeDegrees>-15.4055569879710674285888671875</LatitudeDegrees>
              <LongitudeDegrees>37.07890109159052371978759765625</LongitudeDegrees>
            </Position>
            <AltitudeMeters>1215.800048828125</AltitudeMeters>
            <DistanceMeters>15595.214598509</DistanceMeters>
          </Trackpoint>
          <Trackpoint>
            <Time>2021-08-01T13:34:21.000Z</Time>
            <Position>
              <LatitudeDegrees>-15.4055422358214855194091796875</LatitudeDegrees>
              <LongitudeDegrees>37.0789165981113910675048828125</LongitudeDegrees>
            </Position>
            <AltitudeMeters>1215.199951171875</AltitudeMeters>
            <DistanceMeters>15597.553877528</DistanceMeters>
          </Trackpoint>
          <Trackpoint>
            <Time>2021-08-01T13:34:29.000Z</Time>
            <Position>
              <LatitudeDegrees>-15.4054751805961132049560546875</LatitudeDegrees>
              <LongitudeDegrees>37.07899161614477634429931640625</LongitudeDegrees>
            </Position>
            <AltitudeMeters>1214</AltitudeMeters>
            <DistanceMeters>15608.531416876</DistanceMeters>
          </Trackpoint>
          <Trackpoint>
            <Time>2021-08-01T13:34:31.000Z</Time>
            <Position>
              <LatitudeDegrees>-15.40545456111431121826171875</LatitudeDegrees>
              <LongitudeDegrees>37.0790017582476139068603515625</LongitudeDegrees>
            </Position>
            <AltitudeMeters>1213</AltitudeMeters>
            <DistanceMeters>15611.072382176</DistanceMeters>
          </Trackpoint>
          <Trackpoint>
            <Time>2021-08-01T13:34:32.000Z</Time>
            <Position>
              <LatitudeDegrees>-15.40544458664953708648681640625</LatitudeDegrees>
              <LongitudeDegrees>37.07900553010404109954833984375</LongitudeDegrees>
            </Position>
            <AltitudeMeters>1212.5999755859375</AltitudeMeters>
            <DistanceMeters>15612.259265458</DistanceMeters>
          </Trackpoint>
          <Trackpoint>
            <Time>2021-08-01T13:34:39.000Z</Time>
            <Position>
              <LatitudeDegrees>-15.4053789563477039337158203125</LatitudeDegrees>
              <LongitudeDegrees>37.07904827781021595001220703125</LongitudeDegrees>
            </Position>
            <AltitudeMeters>1211.199951171875</AltitudeMeters>
            <DistanceMeters>15620.884739348</DistanceMeters>
          </Trackpoint>
          <Trackpoint>
            <Time>2021-08-01T13:34:43.000Z</Time>
            <Position>
              <LatitudeDegrees>-15.405340902507305145263671875</LatitudeDegrees>
              <LongitudeDegrees>37.07908532582223415374755859375</LongitudeDegrees>
            </Position>
            <AltitudeMeters>1210.5999755859375</AltitudeMeters>
            <DistanceMeters>15626.693040786</DistanceMeters>
          </Trackpoint>
          <Trackpoint>
            <Time>2021-08-01T13:34:47.000Z</Time>
            <Position>
              <LatitudeDegrees>-15.40529899299144744873046875</LatitudeDegrees>
              <LongitudeDegrees>37.0791227929294109344482421875</LongitudeDegrees>
            </Position>
            <AltitudeMeters>1210</AltitudeMeters>
            <DistanceMeters>15632.850742548</DistanceMeters>
          </Trackpoint>
          <Trackpoint>
            <Time>2021-08-01T13:34:51.000Z</Time>
            <Position>
              <LatitudeDegrees>-15.40527225472033023834228515625</LatitudeDegrees>
              <LongitudeDegrees>37.07914911210536956787109375</LongitudeDegrees>
            </Position>
            <AltitudeMeters>1209</AltitudeMeters>
            <DistanceMeters>15636.952331559</DistanceMeters>
          </Trackpoint>
          <Trackpoint>
            <Time>2021-08-01T13:34:52.000Z</Time>
            <Position>
              <LatitudeDegrees>-15.40526839904487133026123046875</LatitudeDegrees>
              <LongitudeDegrees>37.0791519619524478912353515625</LongitudeDegrees>
            </Position>
            <AltitudeMeters>1208.800048828125</AltitudeMeters>
            <DistanceMeters>15637.472814309</DistanceMeters>
          </Trackpoint>
          <Trackpoint>
            <Time>2021-08-01T13:34:54.000Z</Time>
            <Position>
              <LatitudeDegrees>-15.40526672266423702239990234375</LatitudeDegrees>
              <LongitudeDegrees>37.07915657199919223785400390625</LongitudeDegrees>
            </Position>
            <AltitudeMeters>1208.800048828125</AltitudeMeters>
            <DistanceMeters>15638.010366582</DistanceMeters>
          </Trackpoint>
          <Trackpoint>
            <Time>2021-08-01T13:34:58.000Z</Time>
            <Position>
              <LatitudeDegrees>-15.4052652977406978607177734375</LatitudeDegrees>
              <LongitudeDegrees>37.0791563205420970916748046875</LongitudeDegrees>
            </Position>
            <AltitudeMeters>1208.5999755859375</AltitudeMeters>
            <DistanceMeters>15638.200420011</DistanceMeters>
          </Trackpoint>
          <Trackpoint>
            <Time>2021-08-01T13:35:06.000Z</Time>
            <Position>
              <LatitudeDegrees>-15.40526689030230045318603515625</LatitudeDegrees>
              <LongitudeDegrees>37.07915523089468479156494140625</LongitudeDegrees>
            </Position>
            <AltitudeMeters>1208.4000244140625</AltitudeMeters>
            <DistanceMeters>15638.433186973</DistanceMeters>
          </Trackpoint>
          <Trackpoint>
            <Time>2021-08-01T13:35:09.000Z</Time>
            <Position>
              <LatitudeDegrees>-15.40526689030230045318603515625</LatitudeDegrees>
              <LongitudeDegrees>37.07915523089468479156494140625</LongitudeDegrees>
            </Position>
            <AltitudeMeters>1208.4000244140625</AltitudeMeters>
            <DistanceMeters>15638.433186973</DistanceMeters>
          </Trackpoint>
          <Trackpoint>
            <Time>2021-08-01T13:35:10.000Z</Time>
            <Position>
              <LatitudeDegrees>-15.40526689030230045318603515625</LatitudeDegrees>
              <LongitudeDegrees>37.07915523089468479156494140625</LongitudeDegrees>
            </Position>
            <AltitudeMeters>1208.4000244140625</AltitudeMeters>
            <DistanceMeters>15638.433186973</DistanceMeters>
          </Trackpoint>
          <Trackpoint>
            <Time>2021-08-01T13:35:13.000Z</Time>
            <Position>
              <LatitudeDegrees>-15.4052478633821010589599609375</LatitudeDegrees>
              <LongitudeDegrees>37.07917735911905765533447265625</LongitudeDegrees>
            </Position>
            <AltitudeMeters>1207.5999755859375</AltitudeMeters>
            <DistanceMeters>15641.614808524</DistanceMeters>
          </Trackpoint>
          <Trackpoint>
            <Time>2021-08-01T13:35:15.000Z</Time>
            <Position>
              <LatitudeDegrees>-15.405222885310649871826171875</LatitudeDegrees>
              <LongitudeDegrees>37.07920267246663570404052734375</LongitudeDegrees>
            </Position>
            <AltitudeMeters>1207</AltitudeMeters>
            <DistanceMeters>15645.501621858</DistanceMeters>
          </Trackpoint>
          <Trackpoint>
            <Time>2021-08-01T13:35:19.000Z</Time>
            <Position>
              <LatitudeDegrees>-15.40518122725188732147216796875</LatitudeDegrees>
              <LongitudeDegrees>37.07924374379217624664306640625</LongitudeDegrees>
            </Position>
            <AltitudeMeters>1206.199951171875</AltitudeMeters>
            <DistanceMeters>15651.899538434</DistanceMeters>
          </Trackpoint>
          <Trackpoint>
            <Time>2021-08-01T13:35:23.000Z</Time>
            <Position>
              <LatitudeDegrees>-15.4051499627530574798583984375</LatitudeDegrees>
              <LongitudeDegrees>37.07928531803190708160400390625</LongitudeDegrees>
            </Position>
            <AltitudeMeters>1205.800048828125</AltitudeMeters>
            <DistanceMeters>15657.557419751</DistanceMeters>
          </Trackpoint>
          <Trackpoint>
            <Time>2021-08-01T13:35:28.000Z</Time>
            <Position>
              <LatitudeDegrees>-15.40509874932467937469482421875</LatitudeDegrees>
              <LongitudeDegrees>37.07934357225894927978515625</LongitudeDegrees>
            </Position>
            <AltitudeMeters>1205.199951171875</AltitudeMeters>
            <DistanceMeters>15666.016932492</DistanceMeters>
          </Trackpoint>
          <Trackpoint>
            <Time>2021-08-01T13:35:33.000Z</Time>
            <Position>
              <LatitudeDegrees>-15.40504879318177700042724609375</LatitudeDegrees>
              <LongitudeDegrees>37.0794004015624523162841796875</LongitudeDegrees>
            </Position>
            <AltitudeMeters>1203.800048828125</AltitudeMeters>
            <DistanceMeters>15674.268950819</DistanceMeters>
          </Trackpoint>
          <Trackpoint>
            <Time>2021-08-01T13:35:34.000Z</Time>
            <Position>
              <LatitudeDegrees>-15.40503873489797115325927734375</LatitudeDegrees>
              <LongitudeDegrees>37.0794118009507656097412109375</LongitudeDegrees>
            </Position>
            <AltitudeMeters>1203.5999755859375</AltitudeMeters>
            <DistanceMeters>15675.925798198</DistanceMeters>
          </Trackpoint>
          <Trackpoint>
            <Time>2021-08-01T13:35:38.000Z</Time>
            <Position>
              <LatitudeDegrees>-15.4050027765333652496337890625</LatitudeDegrees>
              <LongitudeDegrees>37.0794488489627838134765625</LongitudeDegrees>
            </Position>
            <AltitudeMeters>1202.800048828125</AltitudeMeters>
            <DistanceMeters>15681.566896442</DistanceMeters>
          </Trackpoint>
          <Trackpoint>
            <Time>2021-08-01T13:35:45.000Z</Time>
            <Position>
              <LatitudeDegrees>-15.40494888089597225189208984375</LatitudeDegrees>
              <LongitudeDegrees>37.0795147307217121124267578125</LongitudeDegrees>
            </Position>
            <AltitudeMeters>1202</AltitudeMeters>
            <DistanceMeters>15690.838699273</DistanceMeters>
          </Trackpoint>
          <Trackpoint>
            <Time>2021-08-01T13:35:46.000Z</Time>
            <Position>
              <LatitudeDegrees>-15.404939912259578704833984375</LatitudeDegrees>
              <LongitudeDegrees>37.07952286116778850555419921875</LongitudeDegrees>
            </Position>
            <AltitudeMeters>1201.5999755859375</AltitudeMeters>
            <DistanceMeters>15692.169073274</DistanceMeters>
          </Trackpoint>
          <Trackpoint>
            <Time>2021-08-01T13:35:53.000Z</Time>
            <Position>
              <LatitudeDegrees>-15.404859445989131927490234375</LatitudeDegrees>
              <LongitudeDegrees>37.0795747451484203338623046875</LongitudeDegrees>
            </Position>
            <AltitudeMeters>1200.5999755859375</AltitudeMeters>
            <DistanceMeters>15702.714469967</DistanceMeters>
          </Trackpoint>
          <Trackpoint>
            <Time>2021-08-01T13:36:00.000Z</Time>
            <Position>
              <LatitudeDegrees>-15.40479264222085475921630859375</LatitudeDegrees>
              <LongitudeDegrees>37.0796166546642780303955078125</LongitudeDegrees>
            </Position>
            <AltitudeMeters>1199.4000244140625</AltitudeMeters>
            <DistanceMeters>15711.404609741</DistanceMeters>
          </Trackpoint>
          <Trackpoint>
            <Time>2021-08-01T13:36:03.000Z</Time>
            <Position>
              <LatitudeDegrees>-15.40476028807461261749267578125</LatitudeDegrees>
              <LongitudeDegrees>37.079636938869953155517578125</LongitudeDegrees>
            </Position>
            <AltitudeMeters>1199</AltitudeMeters>
            <DistanceMeters>15715.612694806</DistanceMeters>
          </Trackpoint>
          <Trackpoint>
            <Time>2021-08-01T13:36:06.000Z</Time>
            <Position>
              <LatitudeDegrees>-15.40472097694873809814453125</LatitudeDegrees>
              <LongitudeDegrees>37.07964858971536159515380859375</LongitudeDegrees>
            </Position>
            <AltitudeMeters>1198.4000244140625</AltitudeMeters>
            <DistanceMeters>15720.16307559</DistanceMeters>
          </Trackpoint>
          <Trackpoint>
            <Time>2021-08-01T13:36:07.000Z</Time>
            <Position>
              <LatitudeDegrees>-15.404705218970775604248046875</LatitudeDegrees>
              <LongitudeDegrees>37.07965110428631305694580078125</LongitudeDegrees>
            </Position>
            <AltitudeMeters>1198.4000244140625</AltitudeMeters>
            <DistanceMeters>15721.938321117</DistanceMeters>
          </Trackpoint>
          <Trackpoint>
            <Time>2021-08-01T13:36:13.000Z</Time>
            <Position>
              <LatitudeDegrees>-15.404645539820194244384765625</LatitudeDegrees>
              <LongitudeDegrees>37.07967692054808139801025390625</LongitudeDegrees>
            </Position>
            <AltitudeMeters>1197.4000244140625</AltitudeMeters>
            <DistanceMeters>15729.135300933</DistanceMeters>
          </Trackpoint>
          <Trackpoint>
            <Time>2021-08-01T13:36:15.000Z</Time>
            <Position>
              <LatitudeDegrees>-15.40464143268764019012451171875</LatitudeDegrees>
              <LongitudeDegrees>37.079685218632221221923828125</LongitudeDegrees>
            </Position>
            <AltitudeMeters>1197.4000244140625</AltitudeMeters>
            <DistanceMeters>15730.131949522</DistanceMeters>
          </Trackpoint>
          <Trackpoint>
            <Time>2021-08-01T13:36:16.000Z</Time>
            <Position>
              <LatitudeDegrees>-15.4046436958014965057373046875</LatitudeDegrees>
              <LongitudeDegrees>37.07969150505959987640380859375</LongitudeDegrees>
            </Position>
            <AltitudeMeters>1197.199951171875</AltitudeMeters>
            <DistanceMeters>15730.855651417</DistanceMeters>
          </Trackpoint>
          <Trackpoint>
            <Time>2021-08-01T13:36:18.000Z</Time>
            <Position>
              <LatitudeDegrees>-15.40464914403855800628662109375</LatitudeDegrees>
              <LongitudeDegrees>37.07970240153372287750244140625</LongitudeDegrees>
            </Position>
            <AltitudeMeters>1197.199951171875</AltitudeMeters>
            <DistanceMeters>15732.168946739</DistanceMeters>
          </Trackpoint>
          <Trackpoint>
            <Time>2021-08-01T13:36:25.000Z</Time>
            <Position>
              <LatitudeDegrees>-15.40467177517712116241455078125</LatitudeDegrees>
              <LongitudeDegrees>37.07971262745559215545654296875</LongitudeDegrees>
            </Position>
            <AltitudeMeters>1197.4000244140625</AltitudeMeters>
            <DistanceMeters>15734.91487351</DistanceMeters>
          </Trackpoint>
          <Trackpoint>
            <Time>2021-08-01T13:36:28.000Z</Time>
            <Position>
              <LatitudeDegrees>-15.4046825878322124481201171875</LatitudeDegrees>
              <LongitudeDegrees>37.0797256194055080413818359375</LongitudeDegrees>
            </Position>
            <AltitudeMeters>1197.4000244140625</AltitudeMeters>
            <DistanceMeters>15736.757509866</DistanceMeters>
          </Trackpoint>
          <Trackpoint>
            <Time>2021-08-01T13:36:33.000Z</Time>
            <Position>
              <LatitudeDegrees>-15.4046822525560855865478515625</LatitudeDegrees>
              <LongitudeDegrees>37.0797262899577617645263671875</LongitudeDegrees>
            </Position>
            <AltitudeMeters>1197.4000244140625</AltitudeMeters>
            <DistanceMeters>15736.852536581</DistanceMeters>
          </Trackpoint>
          <Trackpoint>
            <Time>2021-08-01T13:36:44.000Z</Time>
            <Position>
              <LatitudeDegrees>-15.4046822525560855865478515625</LatitudeDegrees>
              <LongitudeDegrees>37.0797262899577617645263671875</LongitudeDegrees>
            </Position>
            <AltitudeMeters>1197.4000244140625</AltitudeMeters>
            <DistanceMeters>15736.852536581</DistanceMeters>
          </Trackpoint>
          <Trackpoint>
            <Time>2021-08-01T13:36:58.000Z</Time>
            <Position>
              <LatitudeDegrees>-15.40468166582286357879638671875</LatitudeDegrees>
              <LongitudeDegrees>37.0797212608158588409423828125</LongitudeDegrees>
            </Position>
            <AltitudeMeters>1197.800048828125</AltitudeMeters>
            <DistanceMeters>15737.406632781</DistanceMeters>
          </Trackpoint>
          <Trackpoint>
            <Time>2021-08-01T13:37:05.000Z</Time>
            <Position>
              <LatitudeDegrees>-15.40467998944222927093505859375</LatitudeDegrees>
              <LongitudeDegrees>37.07971598021686077117919921875</LongitudeDegrees>
            </Position>
            <AltitudeMeters>1197.199951171875</AltitudeMeters>
            <DistanceMeters>15737.99241679</DistanceMeters>
          </Trackpoint>
          <Trackpoint>
            <Time>2021-08-01T13:37:08.000Z</Time>
            <Position>
              <LatitudeDegrees>-15.4046447016298770904541015625</LatitudeDegrees>
              <LongitudeDegrees>37.07971061579883098602294921875</LongitudeDegrees>
            </Position>
            <AltitudeMeters>1196.800048828125</AltitudeMeters>
            <DistanceMeters>15741.960848888</DistanceMeters>
          </Trackpoint>
          <Trackpoint>
            <Time>2021-08-01T13:37:09.000Z</Time>
            <Position>
              <LatitudeDegrees>-15.40463372133672237396240234375</LatitudeDegrees>
              <LongitudeDegrees>37.07971145398914813995361328125</LongitudeDegrees>
            </Position>
            <AltitudeMeters>1196.800048828125</AltitudeMeters>
            <DistanceMeters>15743.185182457</DistanceMeters>
          </Trackpoint>
          <Trackpoint>
            <Time>2021-08-01T13:37:12.000Z</Time>
            <Position>
              <LatitudeDegrees>-15.40459868498146533966064453125</LatitudeDegrees>
              <LongitudeDegrees>37.07971598021686077117919921875</LongitudeDegrees>
            </Position>
            <AltitudeMeters>1196</AltitudeMeters>
            <DistanceMeters>15747.114741048</DistanceMeters>
          </Trackpoint>
          <Trackpoint>
            <Time>2021-08-01T13:37:21.000Z</Time>
            <Position>
              <LatitudeDegrees>-15.40451670996844768524169921875</LatitudeDegrees>
              <LongitudeDegrees>37.07973995245993137359619140625</LongitudeDegrees>
            </Position>
            <AltitudeMeters>1195.4000244140625</AltitudeMeters>
            <DistanceMeters>15756.59457864</DistanceMeters>
          </Trackpoint>
          <Trackpoint>
            <Time>2021-08-01T13:37:27.000Z</Time>
            <Position>
              <LatitudeDegrees>-15.40445602498948574066162109375</LatitudeDegrees>
              <LongitudeDegrees>37.07976442761719226837158203125</LongitudeDegrees>
            </Position>
            <AltitudeMeters>1194.4000244140625</AltitudeMeters>
            <DistanceMeters>15763.841572817</DistanceMeters>
          </Trackpoint>
          <Trackpoint>
            <Time>2021-08-01T13:37:29.000Z</Time>
            <Position>
              <LatitudeDegrees>-15.4044378362596035003662109375</LatitudeDegrees>
              <LongitudeDegrees>37.07978119142353534698486328125</LongitudeDegrees>
            </Position>
            <AltitudeMeters>1194.199951171875</AltitudeMeters>
            <DistanceMeters>15766.549417361</DistanceMeters>
          </Trackpoint>
          <Trackpoint>
            <Time>2021-08-01T13:37:30.000Z</Time>
            <Position>
              <LatitudeDegrees>-15.40442937053740024566650390625</LatitudeDegrees>
              <LongitudeDegrees>37.07978689111769199371337890625</LongitudeDegrees>
            </Position>
            <AltitudeMeters>1194.199951171875</AltitudeMeters>
            <DistanceMeters>15767.677797074</DistanceMeters>
          </Trackpoint>
          <Trackpoint>
            <Time>2021-08-01T13:37:35.000Z</Time>
            <Position>
              <LatitudeDegrees>-15.40437807328999042510986328125</LatitudeDegrees>
              <LongitudeDegrees>37.0798174850642681121826171875</LongitudeDegrees>
            </Position>
            <AltitudeMeters>1193.5999755859375</AltitudeMeters>
            <DistanceMeters>15774.263498036</DistanceMeters>
          </Trackpoint>
          <Trackpoint>
            <Time>2021-08-01T13:37:40.000Z</Time>
            <Position>
              <LatitudeDegrees>-15.4043275304138660430908203125</LatitudeDegrees>
              <LongitudeDegrees>37.07984640263020992279052734375</LongitudeDegrees>
            </Position>
            <AltitudeMeters>1193.5999755859375</AltitudeMeters>
            <DistanceMeters>15780.687472612</DistanceMeters>
          </Trackpoint>
          <Trackpoint>
            <Time>2021-08-01T13:37:49.000Z</Time>
            <Position>
              <LatitudeDegrees>-15.40422216989099979400634765625</LatitudeDegrees>
              <LongitudeDegrees>37.07989937625825405120849609375</LongitudeDegrees>
            </Position>
            <AltitudeMeters>1193.199951171875</AltitudeMeters>
            <DistanceMeters>15793.719304704</DistanceMeters>
          </Trackpoint>
          <Trackpoint>
            <Time>2021-08-01T13:37:50.000Z</Time>
            <Position>
              <LatitudeDegrees>-15.40420942939817905426025390625</LatitudeDegrees>
              <LongitudeDegrees>37.0799053274095058441162109375</LongitudeDegrees>
            </Position>
            <AltitudeMeters>1193.199951171875</AltitudeMeters>
            <DistanceMeters>15795.277858702</DistanceMeters>
          </Trackpoint>
          <Trackpoint>
            <Time>2021-08-01T13:37:56.000Z</Time>
            <Position>
              <LatitudeDegrees>-15.4041422903537750244140625</LatitudeDegrees>
              <LongitudeDegrees>37.07993441261351108551025390625</LongitudeDegrees>
            </Position>
            <AltitudeMeters>1193</AltitudeMeters>
            <DistanceMeters>15803.376342832</DistanceMeters>
          </Trackpoint>
          <Trackpoint>
            <Time>2021-08-01T13:38:01.000Z</Time>
            <Position>
              <LatitudeDegrees>-15.4040757380425930023193359375</LatitudeDegrees>
              <LongitudeDegrees>37.07996089942753314971923828125</LongitudeDegrees>
            </Position>
            <AltitudeMeters>1192.5999755859375</AltitudeMeters>
            <DistanceMeters>15811.309793079</DistanceMeters>
          </Trackpoint>
          <Trackpoint>
            <Time>2021-08-01T13:38:05.000Z</Time>
            <Position>
              <LatitudeDegrees>-15.4040378518402576446533203125</LatitudeDegrees>
              <LongitudeDegrees>37.07998302765190601348876953125</LongitudeDegrees>
            </Position>
            <AltitudeMeters>1192.5999755859375</AltitudeMeters>
            <DistanceMeters>15816.149629677</DistanceMeters>
          </Trackpoint>
          <Trackpoint>
            <Time>2021-08-01T13:38:08.000Z</Time>
            <Position>
              <LatitudeDegrees>-15.4040039889514446258544921875</LatitudeDegrees>
              <LongitudeDegrees>37.07999794743955135345458984375</LongitudeDegrees>
            </Position>
            <AltitudeMeters>1192.199951171875</AltitudeMeters>
            <DistanceMeters>15820.243505821</DistanceMeters>
          </Trackpoint>
          <Trackpoint>
            <Time>2021-08-01T13:38:13.000Z</Time>
            <Position>
              <LatitudeDegrees>-15.40393349714577198028564453125</LatitudeDegrees>
              <LongitudeDegrees>37.0800174772739410400390625</LongitudeDegrees>
            </Position>
            <AltitudeMeters>1192</AltitudeMeters>
            <DistanceMeters>15828.363703983</DistanceMeters>
          </Trackpoint>
          <Trackpoint>
            <Time>2021-08-01T13:38:25.000Z</Time>
            <Position>
              <LatitudeDegrees>-15.4037964530289173126220703125</LatitudeDegrees>
              <LongitudeDegrees>37.08007925190031528472900390625</LongitudeDegrees>
            </Position>
            <AltitudeMeters>1192</AltitudeMeters>
            <DistanceMeters>15844.995279423</DistanceMeters>
          </Trackpoint>
          <Trackpoint>
            <Time>2021-08-01T13:38:35.000Z</Time>
            <Position>
              <LatitudeDegrees>-15.403680615127086639404296875</LatitudeDegrees>
              <LongitudeDegrees>37.08013423718512058258056640625</LongitudeDegrees>
            </Position>
            <AltitudeMeters>1192</AltitudeMeters>
            <DistanceMeters>15859.174335173</DistanceMeters>
          </Trackpoint>
          <Trackpoint>
            <Time>2021-08-01T13:38:43.000Z</Time>
            <Position>
              <LatitudeDegrees>-15.40358816273510456085205078125</LatitudeDegrees>
              <LongitudeDegrees>37.08017413504421710968017578125</LongitudeDegrees>
            </Position>
            <AltitudeMeters>1192</AltitudeMeters>
            <DistanceMeters>15870.320041146</DistanceMeters>
          </Trackpoint>
          <Trackpoint>
            <Time>2021-08-01T13:38:50.000Z</Time>
            <Position>
              <LatitudeDegrees>-15.40350870229303836822509765625</LatitudeDegrees>
              <LongitudeDegrees>37.0802117697894573211669921875</LongitudeDegrees>
            </Position>
            <AltitudeMeters>1191.5999755859375</AltitudeMeters>
            <DistanceMeters>15880.042532607</DistanceMeters>
          </Trackpoint>
          <Trackpoint>
            <Time>2021-08-01T13:39:00.000Z</Time>
            <Position>
              <LatitudeDegrees>-15.40340057574212551116943359375</LatitudeDegrees>
              <LongitudeDegrees>37.080270946025848388671875</LongitudeDegrees>
            </Position>
            <AltitudeMeters>1192</AltitudeMeters>
            <DistanceMeters>15893.64994667</DistanceMeters>
          </Trackpoint>
          <Trackpoint>
            <Time>2021-08-01T13:39:03.000Z</Time>
            <Position>
              <LatitudeDegrees>-15.40336855687201023101806640625</LatitudeDegrees>
              <LongitudeDegrees>37.08028913475573062896728515625</LongitudeDegrees>
            </Position>
            <AltitudeMeters>1192</AltitudeMeters>
            <DistanceMeters>15897.712824928</DistanceMeters>
          </Trackpoint>
          <Trackpoint>
            <Time>2021-08-01T13:39:07.000Z</Time>
            <Position>
              <LatitudeDegrees>-15.4033242166042327880859375</LatitudeDegrees>
              <LongitudeDegrees>37.08030841313302516937255859375</LongitudeDegrees>
            </Position>
            <AltitudeMeters>1192.199951171875</AltitudeMeters>
            <DistanceMeters>15903.063934384</DistanceMeters>
          </Trackpoint>
          <Trackpoint>
            <Time>2021-08-01T13:39:09.000Z</Time>
            <Position>
              <LatitudeDegrees>-15.40330502204596996307373046875</LatitudeDegrees>
              <LongitudeDegrees>37.080321572721004486083984375</LongitudeDegrees>
            </Position>
            <AltitudeMeters>1192.4000244140625</AltitudeMeters>
            <DistanceMeters>15905.624370967</DistanceMeters>
          </Trackpoint>
          <Trackpoint>
            <Time>2021-08-01T13:39:11.000Z</Time>
            <Position>
              <LatitudeDegrees>-15.40328658185899257659912109375</LatitudeDegrees>
              <LongitudeDegrees>37.08033406175673007965087890625</LongitudeDegrees>
            </Position>
            <AltitudeMeters>1192.4000244140625</AltitudeMeters>
            <DistanceMeters>15908.076723086</DistanceMeters>
          </Trackpoint>
          <Trackpoint>
            <Time>2021-08-01T13:39:12.000Z</Time>
            <Position>
              <LatitudeDegrees>-15.4032784514129161834716796875</LatitudeDegrees>
              <LongitudeDegrees>37.08033925853669643402099609375</LongitudeDegrees>
            </Position>
            <AltitudeMeters>1192.5999755859375</AltitudeMeters>
            <DistanceMeters>15909.139154051</DistanceMeters>
          </Trackpoint>
          <Trackpoint>
            <Time>2021-08-01T13:39:20.000Z</Time>
            <Position>
              <LatitudeDegrees>-15.40321080945432186126708984375</LatitudeDegrees>
              <LongitudeDegrees>37.08037362433969974517822265625</LongitudeDegrees>
            </Position>
            <AltitudeMeters>1193</AltitudeMeters>
            <DistanceMeters>15917.521996939</DistanceMeters>
          </Trackpoint>
          <Trackpoint>
            <Time>2021-08-01T13:39:23.000Z</Time>
            <Position>
              <LatitudeDegrees>-15.40317946113646030426025390625</LatitudeDegrees>
              <LongitudeDegrees>37.0803847722709178924560546875</LongitudeDegrees>
            </Position>
            <AltitudeMeters>1193.199951171875</AltitudeMeters>
            <DistanceMeters>15921.209719152</DistanceMeters>
          </Trackpoint>
          <Trackpoint>
            <Time>2021-08-01T13:39:27.000Z</Time>
            <Position>
              <LatitudeDegrees>-15.40313872508704662322998046875</LatitudeDegrees>
              <LongitudeDegrees>37.0804045535624027252197265625</LongitudeDegrees>
            </Position>
            <AltitudeMeters>1193.4000244140625</AltitudeMeters>
            <DistanceMeters>15926.216463824</DistanceMeters>
          </Trackpoint>
          <Trackpoint>
            <Time>2021-08-01T13:39:33.000Z</Time>
            <Position>
              <LatitudeDegrees>-15.40307887829840183258056640625</LatitudeDegrees>
              <LongitudeDegrees>37.08043531514704227447509765625</LongitudeDegrees>
            </Position>
            <AltitudeMeters>1193.5999755859375</AltitudeMeters>
            <DistanceMeters>15933.650444443</DistanceMeters>
          </Trackpoint>
          <Trackpoint>
            <Time>2021-08-01T13:39:41.000Z</Time>
            <Position>
              <LatitudeDegrees>-15.40299220941960811614990234375</LatitudeDegrees>
              <LongitudeDegrees>37.08047412335872650146484375</LongitudeDegrees>
            </Position>
            <AltitudeMeters>1194.199951171875</AltitudeMeters>
            <DistanceMeters>15944.157236747</DistanceMeters>
          </Trackpoint>
          <Trackpoint>
            <Time>2021-08-01T13:39:42.000Z</Time>
            <Position>
              <LatitudeDegrees>-15.40298215113580226898193359375</LatitudeDegrees>
              <LongitudeDegrees>37.0804799906909465789794921875</LongitudeDegrees>
            </Position>
            <AltitudeMeters>1194.4000244140625</AltitudeMeters>
            <DistanceMeters>15945.439217212</DistanceMeters>
          </Trackpoint>
          <Trackpoint>
            <Time>2021-08-01T13:39:43.000Z</Time>
            <Position>
              <LatitudeDegrees>-15.40297091938555240631103515625</LatitudeDegrees>
              <LongitudeDegrees>37.08048678003251552581787109375</LongitudeDegrees>
            </Position>
            <AltitudeMeters>1194.5999755859375</AltitudeMeters>
            <DistanceMeters>15946.886621003</DistanceMeters>
          </Trackpoint>
          <Trackpoint>
            <Time>2021-08-01T13:39:47.000Z</Time>
            <Position>
              <LatitudeDegrees>-15.4029311053454875946044921875</LatitudeDegrees>
              <LongitudeDegrees>37.08050505258142948150634765625</LongitudeDegrees>
            </Position>
            <AltitudeMeters>1195</AltitudeMeters>
            <DistanceMeters>15951.732983436</DistanceMeters>
          </Trackpoint>
          <Trackpoint>
            <Time>2021-08-01T13:39:53.000Z</Time>
            <Position>
              <LatitudeDegrees>-15.40287151001393795013427734375</LatitudeDegrees>
              <LongitudeDegrees>37.0805393345654010772705078125</LongitudeDegrees>
            </Position>
            <AltitudeMeters>1195.199951171875</AltitudeMeters>
            <DistanceMeters>15959.317877439</DistanceMeters>
          </Trackpoint>
          <Trackpoint>
            <Time>2021-08-01T13:39:55.000Z</Time>
            <Position>
              <LatitudeDegrees>-15.40285072289407253265380859375</LatitudeDegrees>
              <LongitudeDegrees>37.0805458724498748779296875</LongitudeDegrees>
            </Position>
            <AltitudeMeters>1195.4000244140625</AltitudeMeters>
            <DistanceMeters>15961.734995445</DistanceMeters>
          </Trackpoint>
          <Trackpoint>
            <Time>2021-08-01T13:39:56.000Z</Time>
            <Position>
              <LatitudeDegrees>-15.40284083224833011627197265625</LatitudeDegrees>
              <LongitudeDegrees>37.08054964430630207061767578125</LongitudeDegrees>
            </Position>
            <AltitudeMeters>1195.4000244140625</AltitudeMeters>
            <DistanceMeters>15962.906563463</DistanceMeters>
          </Trackpoint>
          <Trackpoint>
            <Time>2021-08-01T13:40:05.000Z</Time>
            <Position>
              <LatitudeDegrees>-15.40273748338222503662109375</LatitudeDegrees>
              <LongitudeDegrees>37.08058065734803676605224609375</LongitudeDegrees>
            </Position>
            <AltitudeMeters>1196.4000244140625</AltitudeMeters>
            <DistanceMeters>15974.88106069</DistanceMeters>
          </Trackpoint>
          <Trackpoint>
            <Time>2021-08-01T13:40:06.000Z</Time>
            <Position>
              <LatitudeDegrees>-15.4027255810797214508056640625</LatitudeDegrees>
              <LongitudeDegrees>37.08058384247124195098876953125</LongitudeDegrees>
            </Position>
            <AltitudeMeters>1196.4000244140625</AltitudeMeters>
            <DistanceMeters>15976.248257027</DistanceMeters>
          </Trackpoint>
          <Trackpoint>
            <Time>2021-08-01T13:40:14.000Z</Time>
            <Position>
              <LatitudeDegrees>-15.402630865573883056640625</LatitudeDegrees>
              <LongitudeDegrees>37.08060328848659992218017578125</LongitudeDegrees>
            </Position>
            <AltitudeMeters>1197</AltitudeMeters>
            <DistanceMeters>15986.99510204</DistanceMeters>
          </Trackpoint>
          <Trackpoint>
            <Time>2021-08-01T13:40:18.000Z</Time>
            <Position>
              <LatitudeDegrees>-15.40259138680994510650634765625</LatitudeDegrees>
              <LongitudeDegrees>37.08061669953167438507080078125</LongitudeDegrees>
            </Position>
            <AltitudeMeters>1197.5999755859375</AltitudeMeters>
            <DistanceMeters>15991.61930154</DistanceMeters>
          </Trackpoint>
          <Trackpoint>
            <Time>2021-08-01T13:40:23.000Z</Time>
            <Position>
              <LatitudeDegrees>-15.40254578925669193267822265625</LatitudeDegrees>
              <LongitudeDegrees>37.0806382410228252410888671875</LongitudeDegrees>
            </Position>
            <AltitudeMeters>1198</AltitudeMeters>
            <DistanceMeters>15997.196001574</DistanceMeters>
          </Trackpoint>
          <Trackpoint>
            <Time>2021-08-01T13:40:30.000Z</Time>
            <Position>
              <LatitudeDegrees>-15.40247370488941669464111328125</LatitudeDegrees>
              <LongitudeDegrees>37.08066179417073726654052734375</LongitudeDegrees>
            </Position>
            <AltitudeMeters>1198.800048828125</AltitudeMeters>
            <DistanceMeters>16005.60734207</DistanceMeters>
          </Trackpoint>
          <Trackpoint>
            <Time>2021-08-01T13:40:32.000Z</Time>
            <Position>
              <LatitudeDegrees>-15.40245375595986843109130859375</LatitudeDegrees>
              <LongitudeDegrees>37.08066858351230621337890625</LongitudeDegrees>
            </Position>
            <AltitudeMeters>1199</AltitudeMeters>
            <DistanceMeters>16007.946621089</DistanceMeters>
          </Trackpoint>
          <Trackpoint>
            <Time>2021-08-01T13:40:35.000Z</Time>
            <Position>
              <LatitudeDegrees>-15.4024229943752288818359375</LatitudeDegrees>
              <LongitudeDegrees>37.0806794799864292144775390625</LongitudeDegrees>
            </Position>
            <AltitudeMeters>1199</AltitudeMeters>
            <DistanceMeters>16011.566378114</DistanceMeters>
          </Trackpoint>
          <Trackpoint>
            <Time>2021-08-01T13:40:38.000Z</Time>
            <Position>
              <LatitudeDegrees>-15.40238837711513042449951171875</LatitudeDegrees>
              <LongitudeDegrees>37.08069230429828166961669921875</LongitudeDegrees>
            </Position>
            <AltitudeMeters>1199.199951171875</AltitudeMeters>
            <DistanceMeters>16015.658047911</DistanceMeters>
          </Trackpoint>
          <Trackpoint>
            <Time>2021-08-01T13:40:48.000Z</Time>
            <Position>
              <LatitudeDegrees>-15.40227413177490234375</LatitudeDegrees>
              <LongitudeDegrees>37.08071292378008365631103515625</LongitudeDegrees>
            </Position>
            <AltitudeMeters>1199.4000244140625</AltitudeMeters>
            <DistanceMeters>16028.564900751</DistanceMeters>
          </Trackpoint>
          <Trackpoint>
            <Time>2021-08-01T13:40:56.000Z</Time>
            <Position>
              <LatitudeDegrees>-15.402173884212970733642578125</LatitudeDegrees>
              <LongitudeDegrees>37.08071711473166942596435546875</LongitudeDegrees>
            </Position>
            <AltitudeMeters>1200</AltitudeMeters>
            <DistanceMeters>16039.731247312</DistanceMeters>
          </Trackpoint>
          <Trackpoint>
            <Time>2021-08-01T13:40:58.000Z</Time>
            <Position>
              <LatitudeDegrees>-15.4021475650370121002197265625</LatitudeDegrees>
              <LongitudeDegrees>37.08071493543684482574462890625</LongitudeDegrees>
            </Position>
            <AltitudeMeters>1200</AltitudeMeters>
            <DistanceMeters>16042.670938309</DistanceMeters>
          </Trackpoint>
          <Trackpoint>
            <Time>2021-08-01T13:41:08.000Z</Time>
            <Position>
              <LatitudeDegrees>-15.40203415788710117340087890625</LatitudeDegrees>
              <LongitudeDegrees>37.080737650394439697265625</LongitudeDegrees>
            </Position>
            <AltitudeMeters>1200.5999755859375</AltitudeMeters>
            <DistanceMeters>16055.526616396</DistanceMeters>
          </Trackpoint>
          <Trackpoint>
            <Time>2021-08-01T13:41:12.000Z</Time>
            <Position>
              <LatitudeDegrees>-15.40199023671448230743408203125</LatitudeDegrees>
              <LongitudeDegrees>37.08075516857206821441650390625</LongitudeDegrees>
            </Position>
            <AltitudeMeters>1201</AltitudeMeters>
            <DistanceMeters>16060.764304077</DistanceMeters>
          </Trackpoint>
          <Trackpoint>
            <Time>2021-08-01T13:41:21.000Z</Time>
            <Position>
              <LatitudeDegrees>-15.40191806852817535400390625</LatitudeDegrees>
              <LongitudeDegrees>37.08081987686455249786376953125</LongitudeDegrees>
            </Position>
            <AltitudeMeters>1202.199951171875</AltitudeMeters>
            <DistanceMeters>16071.382237228</DistanceMeters>
          </Trackpoint>
          <Trackpoint>
            <Time>2021-08-01T13:41:30.000Z</Time>
            <Position>
              <LatitudeDegrees>-15.4018302261829376220703125</LatitudeDegrees>
              <LongitudeDegrees>37.080868072807788848876953125</LongitudeDegrees>
            </Position>
            <AltitudeMeters>1203.199951171875</AltitudeMeters>
            <DistanceMeters>16082.442954911</DistanceMeters>
          </Trackpoint>
          <Trackpoint>
            <Time>2021-08-01T13:41:31.000Z</Time>
            <Position>
              <LatitudeDegrees>-15.40182092227041721343994140625</LatitudeDegrees>
              <LongitudeDegrees>37.0808736048638820648193359375</LongitudeDegrees>
            </Position>
            <AltitudeMeters>1203.199951171875</AltitudeMeters>
            <DistanceMeters>16083.637422189</DistanceMeters>
          </Trackpoint>
          <Trackpoint>
            <Time>2021-08-01T13:41:39.000Z</Time>
            <Position>
              <LatitudeDegrees>-15.40174833498895168304443359375</LatitudeDegrees>
              <LongitudeDegrees>37.08091677166521549224853515625</LongitudeDegrees>
            </Position>
            <AltitudeMeters>1203.800048828125</AltitudeMeters>
            <DistanceMeters>16092.950040197</DistanceMeters>
          </Trackpoint>
          <Trackpoint>
            <Time>2021-08-01T13:41:48.000Z</Time>
            <Position>
              <LatitudeDegrees>-15.40170022286474704742431640625</LatitudeDegrees>
              <LongitudeDegrees>37.08095381967723369598388671875</LongitudeDegrees>
            </Position>
            <AltitudeMeters>1204.199951171875</AltitudeMeters>
            <DistanceMeters>16099.619534673</DistanceMeters>
          </Trackpoint>
          <Trackpoint>
            <Time>2021-08-01T13:41:55.000Z</Time>
            <Position>
              <LatitudeDegrees>-15.4016892425715923309326171875</LatitudeDegrees>
              <LongitudeDegrees>37.080960609018802642822265625</LongitudeDegrees>
            </Position>
            <AltitudeMeters>1204.199951171875</AltitudeMeters>
            <DistanceMeters>16101.048099434</DistanceMeters>
          </Trackpoint>
          <Trackpoint>
            <Time>2021-08-01T13:41:57.000Z</Time>
            <Position>
              <LatitudeDegrees>-15.401675663888454437255859375</LatitudeDegrees>
              <LongitudeDegrees>37.08097427152097225189208984375</LongitudeDegrees>
            </Position>
            <AltitudeMeters>1204.199951171875</AltitudeMeters>
            <DistanceMeters>16103.153750766</DistanceMeters>
          </Trackpoint>
          <Trackpoint>
            <Time>2021-08-01T13:41:59.000Z</Time>
            <Position>
              <LatitudeDegrees>-15.40166149847209453582763671875</LatitudeDegrees>
              <LongitudeDegrees>37.08098818548023700714111328125</LongitudeDegrees>
            </Position>
            <AltitudeMeters>1204.4000244140625</AltitudeMeters>
            <DistanceMeters>16105.324856453</DistanceMeters>
          </Trackpoint>
          <Trackpoint>
            <Time>2021-08-01T13:42:05.000Z</Time>
            <Position>
              <LatitudeDegrees>-15.401607938110828399658203125</LatitudeDegrees>
              <LongitudeDegrees>37.081035040318965911865234375</LongitudeDegrees>
            </Position>
            <AltitudeMeters>1204.5999755859375</AltitudeMeters>
            <DistanceMeters>16113.12341817</DistanceMeters>
          </Trackpoint>
          <Trackpoint>
            <Time>2021-08-01T13:42:11.000Z</Time>
            <Position>
              <LatitudeDegrees>-15.40154834277927875518798828125</LatitudeDegrees>
              <LongitudeDegrees>37.08108658902347087860107421875</LongitudeDegrees>
            </Position>
            <AltitudeMeters>1204.5999755859375</AltitudeMeters>
            <DistanceMeters>16121.759877597</DistanceMeters>
          </Trackpoint>
          <Trackpoint>
            <Time>2021-08-01T13:42:16.000Z</Time>
            <Position>
              <LatitudeDegrees>-15.40150458924472332000732421875</LatitudeDegrees>
              <LongitudeDegrees>37.0811451785266399383544921875</LongitudeDegrees>
            </Position>
            <AltitudeMeters>1204.4000244140625</AltitudeMeters>
            <DistanceMeters>16129.71208643</DistanceMeters>
          </Trackpoint>
          <Trackpoint>
            <Time>2021-08-01T13:42:21.000Z</Time>
            <Position>
              <LatitudeDegrees>-15.40146737359464168548583984375</LatitudeDegrees>
              <LongitudeDegrees>37.08118348382413387298583984375</LongitudeDegrees>
            </Position>
            <AltitudeMeters>1204.4000244140625</AltitudeMeters>
            <DistanceMeters>16135.546757646</DistanceMeters>
          </Trackpoint>
          <Trackpoint>
            <Time>2021-08-01T13:42:22.000Z</Time>
            <Position>
              <LatitudeDegrees>-15.4014642722904682159423828125</LatitudeDegrees>
              <LongitudeDegrees>37.081183902919292449951171875</LongitudeDegrees>
            </Position>
            <AltitudeMeters>1204.199951171875</AltitudeMeters>
            <DistanceMeters>16135.902315054</DistanceMeters>
          </Trackpoint>
          <Trackpoint>
            <Time>2021-08-01T13:42:27.000Z</Time>
            <Position>
              <LatitudeDegrees>-15.40145798586308956146240234375</LatitudeDegrees>
              <LongitudeDegrees>37.0811904408037662506103515625</LongitudeDegrees>
            </Position>
            <AltitudeMeters>1204.199951171875</AltitudeMeters>
            <DistanceMeters>16136.898963642</DistanceMeters>
          </Trackpoint>
          <Trackpoint>
            <Time>2021-08-01T13:42:48.000Z</Time>
            <Position>
              <LatitudeDegrees>-15.40146251209080219268798828125</LatitudeDegrees>
              <LongitudeDegrees>37.08120192401111125946044921875</LongitudeDegrees>
            </Position>
            <AltitudeMeters>1204</AltitudeMeters>
            <DistanceMeters>16138.232727137</DistanceMeters>
          </Trackpoint>
          <Trackpoint>
            <Time>2021-08-01T13:42:51.000Z</Time>
            <Position>
              <LatitudeDegrees>-15.40145941078662872314453125</LatitudeDegrees>
              <LongitudeDegrees>37.08120795898139476776123046875</LongitudeDegrees>
            </Position>
            <AltitudeMeters>1204</AltitudeMeters>
            <DistanceMeters>16138.96264118</DistanceMeters>
          </Trackpoint>
          <Trackpoint>
            <Time>2021-08-01T13:42:55.000Z</Time>
            <Position>
              <LatitudeDegrees>-15.40142093785107135772705078125</LatitudeDegrees>
              <LongitudeDegrees>37.08127534948289394378662109375</LongitudeDegrees>
            </Position>
            <AltitudeMeters>1204</AltitudeMeters>
            <DistanceMeters>16147.367000641</DistanceMeters>
          </Trackpoint>
          <Trackpoint>
            <Time>2021-08-01T13:43:01.000Z</Time>
            <Position>
              <LatitudeDegrees>-15.40137165226042270660400390625</LatitudeDegrees>
              <LongitudeDegrees>37.08137660287320613861083984375</LongitudeDegrees>
            </Position>
            <AltitudeMeters>1203.800048828125</AltitudeMeters>
            <DistanceMeters>16159.538212744</DistanceMeters>
          </Trackpoint>
          <Trackpoint>
            <Time>2021-08-01T13:43:05.000Z</Time>
            <Position>
              <LatitudeDegrees>-15.4013635218143463134765625</LatitudeDegrees>
              <LongitudeDegrees>37.0814221166074275970458984375</LongitudeDegrees>
            </Position>
            <AltitudeMeters>1203.4000244140625</AltitudeMeters>
            <DistanceMeters>16164.505120116</DistanceMeters>
          </Trackpoint>
          <Trackpoint>
            <Time>2021-08-01T13:43:12.000Z</Time>
            <Position>
              <LatitudeDegrees>-15.4013516195118427276611328125</LatitudeDegrees>
              <LongitudeDegrees>37.08150945603847503662109375</LongitudeDegrees>
            </Position>
            <AltitudeMeters>1203.199951171875</AltitudeMeters>
            <DistanceMeters>16173.970181574</DistanceMeters>
          </Trackpoint>
          <Trackpoint>
            <Time>2021-08-01T13:43:18.000Z</Time>
            <Position>
              <LatitudeDegrees>-15.40135346353054046630859375</LatitudeDegrees>
              <LongitudeDegrees>37.0815897546708583831787109375</LongitudeDegrees>
            </Position>
            <AltitudeMeters>1203.4000244140625</AltitudeMeters>
            <DistanceMeters>16182.589371728</DistanceMeters>
          </Trackpoint>
          <Trackpoint>
            <Time>2021-08-01T13:43:28.000Z</Time>
            <Position>
              <LatitudeDegrees>-15.40131649933755397796630859375</LatitudeDegrees>
              <LongitudeDegrees>37.08170852623879909515380859375</LongitudeDegrees>
            </Position>
            <AltitudeMeters>1203</AltitudeMeters>
            <DistanceMeters>16195.981734414</DistanceMeters>
          </Trackpoint>
          <Trackpoint>
            <Time>2021-08-01T13:43:36.000Z</Time>
            <Position>
              <LatitudeDegrees>-15.40122605860233306884765625</LatitudeDegrees>
              <LongitudeDegrees>37.08177356980741024017333984375</LongitudeDegrees>
            </Position>
            <AltitudeMeters>1203.199951171875</AltitudeMeters>
            <DistanceMeters>16208.230969092</DistanceMeters>
          </Trackpoint>
          <Trackpoint>
            <Time>2021-08-01T13:43:39.000Z</Time>
            <Position>
              <LatitudeDegrees>-15.40119588375091552734375</LatitudeDegrees>
              <LongitudeDegrees>37.0817868970334529876708984375</LongitudeDegrees>
            </Position>
            <AltitudeMeters>1203.199951171875</AltitudeMeters>
            <DistanceMeters>16211.88177624</DistanceMeters>
          </Trackpoint>
          <Trackpoint>
            <Time>2021-08-01T13:43:44.000Z</Time>
            <Position>
              <LatitudeDegrees>-15.4011407308280467987060546875</LatitudeDegrees>
              <LongitudeDegrees>37.08180986344814300537109375</LongitudeDegrees>
            </Position>
            <AltitudeMeters>1203.5999755859375</AltitudeMeters>
            <DistanceMeters>16218.496891541</DistanceMeters>
          </Trackpoint>
          <Trackpoint>
            <Time>2021-08-01T13:43:45.000Z</Time>
            <Position>
              <LatitudeDegrees>-15.40112773887813091278076171875</LatitudeDegrees>
              <LongitudeDegrees>37.0818164013326168060302734375</LongitudeDegrees>
            </Position>
            <AltitudeMeters>1203.5999755859375</AltitudeMeters>
            <DistanceMeters>16220.103939102</DistanceMeters>
          </Trackpoint>
          <Trackpoint>
            <Time>2021-08-01T13:43:49.000Z</Time>
            <Position>
              <LatitudeDegrees>-15.40107853710651397705078125</LatitudeDegrees>
              <LongitudeDegrees>37.0818368531763553619384765625</LongitudeDegrees>
            </Position>
            <AltitudeMeters>1203.5999755859375</AltitudeMeters>
            <DistanceMeters>16226.00401916</DistanceMeters>
          </Trackpoint>
          <Trackpoint>
            <Time>2021-08-01T13:43:54.000Z</Time>
            <Position>
              <LatitudeDegrees>-15.40102086961269378662109375</LatitudeDegrees>
              <LongitudeDegrees>37.0818630047142505645751953125</LongitudeDegrees>
            </Position>
            <AltitudeMeters>1202.800048828125</AltitudeMeters>
            <DistanceMeters>16233.008977075</DistanceMeters>
          </Trackpoint>
          <Trackpoint>
            <Time>2021-08-01T13:44:04.000Z</Time>
            <Position>
              <LatitudeDegrees>-15.40091081522405147552490234375</LatitudeDegrees>
              <LongitudeDegrees>37.08191983401775360107421875</LongitudeDegrees>
            </Position>
            <AltitudeMeters>1202.5999755859375</AltitudeMeters>
            <DistanceMeters>16246.692493987</DistanceMeters>
          </Trackpoint>
          <Trackpoint>
            <Time>2021-08-01T13:44:14.000Z</Time>
            <Position>
              <LatitudeDegrees>-15.40078190155327320098876953125</LatitudeDegrees>
              <LongitudeDegrees>37.08196065388619899749755859375</LongitudeDegrees>
            </Position>
            <AltitudeMeters>1202.4000244140625</AltitudeMeters>
            <DistanceMeters>16261.694982293</DistanceMeters>
          </Trackpoint>
          <Trackpoint>
            <Time>2021-08-01T13:44:24.000Z</Time>
            <Position>
              <LatitudeDegrees>-15.40066145360469818115234375</LatitudeDegrees>
              <LongitudeDegrees>37.0820132084190845489501953125</LongitudeDegrees>
            </Position>
            <AltitudeMeters>1202.4000244140625</AltitudeMeters>
            <DistanceMeters>16276.23903746</DistanceMeters>
          </Trackpoint>
          <Trackpoint>
            <Time>2021-08-01T13:44:32.000Z</Time>
            <Position>
              <LatitudeDegrees>-15.400566570460796356201171875</LatitudeDegrees>
              <LongitudeDegrees>37.08205570466816425323486328125</LongitudeDegrees>
            </Position>
            <AltitudeMeters>1202.4000244140625</AltitudeMeters>
            <DistanceMeters>16287.742373507</DistanceMeters>
          </Trackpoint>
          <Trackpoint>
            <Time>2021-08-01T13:44:35.000Z</Time>
            <Position>
              <LatitudeDegrees>-15.4005328752100467681884765625</LatitudeDegrees>
              <LongitudeDegrees>37.08207012154161930084228515625</LongitudeDegrees>
            </Position>
            <AltitudeMeters>1202.4000244140625</AltitudeMeters>
            <DistanceMeters>16291.798578541</DistanceMeters>
          </Trackpoint>
          <Trackpoint>
            <Time>2021-08-01T13:44:39.000Z</Time>
            <Position>
              <LatitudeDegrees>-15.40048333816230297088623046875</LatitudeDegrees>
              <LongitudeDegrees>37.08208889700472354888916015625</LongitudeDegrees>
            </Position>
            <AltitudeMeters>1202.199951171875</AltitudeMeters>
            <DistanceMeters>16297.668737969</DistanceMeters>
          </Trackpoint>
          <Trackpoint>
            <Time>2021-08-01T13:44:49.000Z</Time>
            <Position>
              <LatitudeDegrees>-15.40035140700638294219970703125</LatitudeDegrees>
              <LongitudeDegrees>37.08212460391223430633544921875</LongitudeDegrees>
            </Position>
            <AltitudeMeters>1202.5999755859375</AltitudeMeters>
            <DistanceMeters>16312.844477477</DistanceMeters>
          </Trackpoint>
          <Trackpoint>
            <Time>2021-08-01T13:44:50.000Z</Time>
            <Position>
              <LatitudeDegrees>-15.400341264903545379638671875</LatitudeDegrees>
              <LongitudeDegrees>37.08212879486382007598876953125</LongitudeDegrees>
            </Position>
            <AltitudeMeters>1202.5999755859375</AltitudeMeters>
            <DistanceMeters>16314.05769735</DistanceMeters>
          </Trackpoint>
          <Trackpoint>
            <Time>2021-08-01T13:44:58.000Z</Time>
            <Position>
              <LatitudeDegrees>-15.400249063968658447265625</LatitudeDegrees>
              <LongitudeDegrees>37.0821714587509632110595703125</LongitudeDegrees>
            </Position>
            <AltitudeMeters>1203.4000244140625</AltitudeMeters>
            <DistanceMeters>16325.294581212</DistanceMeters>
          </Trackpoint>
          <Trackpoint>
            <Time>2021-08-01T13:44:59.000Z</Time>
            <Position>
              <LatitudeDegrees>-15.40023707784712314605712890625</LatitudeDegrees>
              <LongitudeDegrees>37.0821754820644855499267578125</LongitudeDegrees>
            </Position>
            <AltitudeMeters>1203.5999755859375</AltitudeMeters>
            <DistanceMeters>16326.694412126</DistanceMeters>
          </Trackpoint>
          <Trackpoint>
            <Time>2021-08-01T13:45:03.000Z</Time>
            <Position>
              <LatitudeDegrees>-15.40019181556999683380126953125</LatitudeDegrees>
              <LongitudeDegrees>37.08218595944344997406005859375</LongitudeDegrees>
            </Position>
            <AltitudeMeters>1204.199951171875</AltitudeMeters>
            <DistanceMeters>16331.855683821</DistanceMeters>
          </Trackpoint>
          <Trackpoint>
            <Time>2021-08-01T13:45:11.000Z</Time>
            <Position>
              <LatitudeDegrees>-15.4000956751406192779541015625</LatitudeDegrees>
              <LongitudeDegrees>37.082210518419742584228515625</LongitudeDegrees>
            </Position>
            <AltitudeMeters>1205.4000244140625</AltitudeMeters>
            <DistanceMeters>16342.876324827</DistanceMeters>
          </Trackpoint>
          <Trackpoint>
            <Time>2021-08-01T13:45:12.000Z</Time>
            <Position>
              <LatitudeDegrees>-15.400083102285861968994140625</LatitudeDegrees>
              <LongitudeDegrees>37.0822150446474552154541015625</LongitudeDegrees>
            </Position>
            <AltitudeMeters>1205.4000244140625</AltitudeMeters>
            <DistanceMeters>16344.357644703</DistanceMeters>
          </Trackpoint>
          <Trackpoint>
            <Time>2021-08-01T13:45:16.000Z</Time>
            <Position>
              <LatitudeDegrees>-15.4000318050384521484375</LatitudeDegrees>
              <LongitudeDegrees>37.0822328142821788787841796875</LongitudeDegrees>
            </Position>
            <AltitudeMeters>1205.800048828125</AltitudeMeters>
            <DistanceMeters>16350.376670097</DistanceMeters>
          </Trackpoint>
          <Trackpoint>
            <Time>2021-08-01T13:45:17.000Z</Time>
            <Position>
              <LatitudeDegrees>-15.4000205732882022857666015625</LatitudeDegrees>
              <LongitudeDegrees>37.0822370052337646484375</LongitudeDegrees>
            </Position>
            <AltitudeMeters>1205.800048828125</AltitudeMeters>
            <DistanceMeters>16351.703645947</DistanceMeters>
          </Trackpoint>
          <Trackpoint>
            <Time>2021-08-01T13:45:18.000Z</Time>
            <Position>
              <LatitudeDegrees>-15.40000875480473041534423828125</LatitudeDegrees>
              <LongitudeDegrees>37.08224304020404815673828125</LongitudeDegrees>
            </Position>
            <AltitudeMeters>1206.4000244140625</AltitudeMeters>
            <DistanceMeters>16353.16656362</DistanceMeters>
          </Trackpoint>
          <Trackpoint>
            <Time>2021-08-01T13:45:20.000Z</Time>
            <Position>
              <LatitudeDegrees>-15.3999888896942138671875</LatitudeDegrees>
              <LongitudeDegrees>37.08225200884044170379638671875</LongitudeDegrees>
            </Position>
            <AltitudeMeters>1206.5999755859375</AltitudeMeters>
            <DistanceMeters>16355.576198271</DistanceMeters>
          </Trackpoint>
          <Trackpoint>
            <Time>2021-08-01T13:45:22.000Z</Time>
            <Position>
              <LatitudeDegrees>-15.39996701292693614959716796875</LatitudeDegrees>
              <LongitudeDegrees>37.08226223476231098175048828125</LongitudeDegrees>
            </Position>
            <AltitudeMeters>1206.800048828125</AltitudeMeters>
            <DistanceMeters>16358.247108301</DistanceMeters>
          </Trackpoint>
          <Trackpoint>
            <Time>2021-08-01T13:45:27.000Z</Time>
            <Position>
              <LatitudeDegrees>-15.3999045677483081817626953125</LatitudeDegrees>
              <LongitudeDegrees>37.08228193223476409912109375</LongitudeDegrees>
            </Position>
            <AltitudeMeters>1206.800048828125</AltitudeMeters>
            <DistanceMeters>16365.5109046</DistanceMeters>
          </Trackpoint>
          <Trackpoint>
            <Time>2021-08-01T13:45:34.000Z</Time>
            <Position>
              <LatitudeDegrees>-15.39982552640140056610107421875</LatitudeDegrees>
              <LongitudeDegrees>37.08231956698000431060791015625</LongitudeDegrees>
            </Position>
            <AltitudeMeters>1207.199951171875</AltitudeMeters>
            <DistanceMeters>16375.190577796</DistanceMeters>
          </Trackpoint>
          <Trackpoint>
            <Time>2021-08-01T13:45:40.000Z</Time>
            <Position>
              <LatitudeDegrees>-15.39974975399672985076904296875</LatitudeDegrees>
              <LongitudeDegrees>37.0823592133820056915283203125</LongitudeDegrees>
            </Position>
            <AltitudeMeters>1206.4000244140625</AltitudeMeters>
            <DistanceMeters>16384.636061122</DistanceMeters>
          </Trackpoint>
          <Trackpoint>
            <Time>2021-08-01T13:45:50.000Z</Time>
            <Position>
              <LatitudeDegrees>-15.3996480815112590789794921875</LatitudeDegrees>
              <LongitudeDegrees>37.0824312977492809295654296875</LongitudeDegrees>
            </Position>
            <AltitudeMeters>1206.4000244140625</AltitudeMeters>
            <DistanceMeters>16398.342985303</DistanceMeters>
          </Trackpoint>
          <Trackpoint>
            <Time>2021-08-01T13:45:56.000Z</Time>
            <Position>
              <LatitudeDegrees>-15.3995780088007450103759765625</LatitudeDegrees>
              <LongitudeDegrees>37.0824846066534519195556640625</LongitudeDegrees>
            </Position>
            <AltitudeMeters>1206.4000244140625</AltitudeMeters>
            <DistanceMeters>16408.014725678</DistanceMeters>
          </Trackpoint>
          <Trackpoint>
            <Time>2021-08-01T13:45:58.000Z</Time>
            <Position>
              <LatitudeDegrees>-15.3995578922331333160400390625</LatitudeDegrees>
              <LongitudeDegrees>37.08250128664076328277587890625</LongitudeDegrees>
            </Position>
            <AltitudeMeters>1206.4000244140625</AltitudeMeters>
            <DistanceMeters>16410.881321143</DistanceMeters>
          </Trackpoint>
          <Trackpoint>
            <Time>2021-08-01T13:46:03.000Z</Time>
            <Position>
              <LatitudeDegrees>-15.3994968719780445098876953125</LatitudeDegrees>
              <LongitudeDegrees>37.0825369097292423248291015625</LongitudeDegrees>
            </Position>
            <AltitudeMeters>1206.199951171875</AltitudeMeters>
            <DistanceMeters>16418.674670498</DistanceMeters>
          </Trackpoint>
          <Trackpoint>
            <Time>2021-08-01T13:46:09.000Z</Time>
            <Position>
              <LatitudeDegrees>-15.39942487142980098724365234375</LatitudeDegrees>
              <LongitudeDegrees>37.0825623907148838043212890625</LongitudeDegrees>
            </Position>
            <AltitudeMeters>1206.4000244140625</AltitudeMeters>
            <DistanceMeters>16427.142185302</DistanceMeters>
          </Trackpoint>
          <Trackpoint>
            <Time>2021-08-01T13:46:18.000Z</Time>
            <Position>
              <LatitudeDegrees>-15.39932303130626678466796875</LatitudeDegrees>
              <LongitudeDegrees>37.08261142484843730926513671875</LongitudeDegrees>
            </Position>
            <AltitudeMeters>1206.4000244140625</AltitudeMeters>
            <DistanceMeters>16439.638830533</DistanceMeters>
          </Trackpoint>
          <Trackpoint>
            <Time>2021-08-01T13:46:29.000Z</Time>
            <Position>
              <LatitudeDegrees>-15.39919084869325160980224609375</LatitudeDegrees>
              <LongitudeDegrees>37.08264662884175777435302734375</LongitudeDegrees>
            </Position>
            <AltitudeMeters>1206.5999755859375</AltitudeMeters>
            <DistanceMeters>16454.828249651</DistanceMeters>
          </Trackpoint>
          <Trackpoint>
            <Time>2021-08-01T13:46:40.000Z</Time>
            <Position>
              <LatitudeDegrees>-15.399072580039501190185546875</LatitudeDegrees>
              <LongitudeDegrees>37.08268635906279087066650390625</LongitudeDegrees>
            </Position>
            <AltitudeMeters>1206.800048828125</AltitudeMeters>
            <DistanceMeters>16468.664674431</DistanceMeters>
          </Trackpoint>
          <Trackpoint>
            <Time>2021-08-01T13:46:41.000Z</Time>
            <Position>
              <LatitudeDegrees>-15.3990662097930908203125</LatitudeDegrees>
              <LongitudeDegrees>37.0826914720237255096435546875</LongitudeDegrees>
            </Position>
            <AltitudeMeters>1206.800048828125</AltitudeMeters>
            <DistanceMeters>16469.561154661</DistanceMeters>
          </Trackpoint>
          <Trackpoint>
            <Time>2021-08-01T13:46:46.000Z</Time>
            <Position>
              <LatitudeDegrees>-15.39907366968691349029541015625</LatitudeDegrees>
              <LongitudeDegrees>37.08270127885043621063232421875</LongitudeDegrees>
            </Position>
            <AltitudeMeters>1207</AltitudeMeters>
            <DistanceMeters>16470.905035344</DistanceMeters>
          </Trackpoint>
          <Trackpoint>
            <Time>2021-08-01T13:46:58.000Z</Time>
            <Position>
              <LatitudeDegrees>-15.39907358586788177490234375</LatitudeDegrees>
              <LongitudeDegrees>37.0827075652778148651123046875</LongitudeDegrees>
            </Position>
            <AltitudeMeters>1207</AltitudeMeters>
            <DistanceMeters>16471.570222344</DistanceMeters>
          </Trackpoint>
          <Trackpoint>
            <Time>2021-08-01T13:47:12.000Z</Time>
            <Position>
              <LatitudeDegrees>-15.39906662888824939727783203125</LatitudeDegrees>
              <LongitudeDegrees>37.08271217532455921173095703125</LongitudeDegrees>
            </Position>
            <AltitudeMeters>1206.800048828125</AltitudeMeters>
            <DistanceMeters>16472.486626791</DistanceMeters>
          </Trackpoint>
          <Trackpoint>
            <Time>2021-08-01T13:47:16.000Z</Time>
            <Position>
              <LatitudeDegrees>-15.39899555034935474395751953125</LatitudeDegrees>
              <LongitudeDegrees>37.0827343873679637908935546875</LongitudeDegrees>
            </Position>
            <AltitudeMeters>1207.199951171875</AltitudeMeters>
            <DistanceMeters>16480.749034304</DistanceMeters>
          </Trackpoint>
          <Trackpoint>
            <Time>2021-08-01T13:47:25.000Z</Time>
            <Position>
              <LatitudeDegrees>-15.39885808713734149932861328125</LatitudeDegrees>
              <LongitudeDegrees>37.08279297687113285064697265625</LongitudeDegrees>
            </Position>
            <AltitudeMeters>1207.199951171875</AltitudeMeters>
            <DistanceMeters>16497.290507828</DistanceMeters>
          </Trackpoint>
          <Trackpoint>
            <Time>2021-08-01T13:47:30.000Z</Time>
            <Position>
              <LatitudeDegrees>-15.398800671100616455078125</LatitudeDegrees>
              <LongitudeDegrees>37.08281426690518856048583984375</LongitudeDegrees>
            </Position>
            <AltitudeMeters>1207.4000244140625</AltitudeMeters>
            <DistanceMeters>16504.076772622</DistanceMeters>
          </Trackpoint>
          <Trackpoint>
            <Time>2021-08-01T13:47:33.000Z</Time>
            <Position>
              <LatitudeDegrees>-15.39878189563751220703125</LatitudeDegrees>
              <LongitudeDegrees>37.08281292580068111419677734375</LongitudeDegrees>
            </Position>
            <AltitudeMeters>1207.4000244140625</AltitudeMeters>
            <DistanceMeters>16506.171675282</DistanceMeters>
          </Trackpoint>
          <Trackpoint>
            <Time>2021-08-01T13:47:34.000Z</Time>
            <Position>
              <LatitudeDegrees>-15.3987823985517024993896484375</LatitudeDegrees>
              <LongitudeDegrees>37.0828148536384105682373046875</LongitudeDegrees>
            </Position>
            <AltitudeMeters>1207.4000244140625</AltitudeMeters>
            <DistanceMeters>16506.384161475</DistanceMeters>
          </Trackpoint>
          <Trackpoint>
            <Time>2021-08-01T13:47:35.000Z</Time>
            <Position>
              <LatitudeDegrees>-15.398779548704624176025390625</LatitudeDegrees>
              <LongitudeDegrees>37.08281359635293483734130859375</LongitudeDegrees>
            </Position>
            <AltitudeMeters>1207.4000244140625</AltitudeMeters>
            <DistanceMeters>16506.726785166</DistanceMeters>
          </Trackpoint>
          <Trackpoint>
            <Time>2021-08-01T13:47:40.000Z</Time>
            <Position>
              <LatitudeDegrees>-15.39878650568425655364990234375</LatitudeDegrees>
              <LongitudeDegrees>37.0828255824744701385498046875</LongitudeDegrees>
            </Position>
            <AltitudeMeters>1207.4000244140625</AltitudeMeters>
            <DistanceMeters>16508.229289446</DistanceMeters>
          </Trackpoint>
          <Trackpoint>
            <Time>2021-08-01T13:47:48.000Z</Time>
            <Position>
              <LatitudeDegrees>-15.39878013543784618377685546875</LatitudeDegrees>
              <LongitudeDegrees>37.0828185416758060455322265625</LongitudeDegrees>
            </Position>
            <AltitudeMeters>1207</AltitudeMeters>
            <DistanceMeters>16509.261543785</DistanceMeters>
          </Trackpoint>
          <Trackpoint>
            <Time>2021-08-01T13:47:51.000Z</Time>
            <Position>
              <LatitudeDegrees>-15.39878013543784618377685546875</LatitudeDegrees>
              <LongitudeDegrees>37.0828185416758060455322265625</LongitudeDegrees>
            </Position>
            <AltitudeMeters>1207</AltitudeMeters>
            <DistanceMeters>16509.261543785</DistanceMeters>
          </Trackpoint>
          <Trackpoint>
            <Time>2021-08-01T13:47:55.000Z</Time>
            <Position>
              <LatitudeDegrees>-15.39878080599009990692138671875</LatitudeDegrees>
              <LongitudeDegrees>37.0828185416758060455322265625</LongitudeDegrees>
            </Position>
            <AltitudeMeters>1207</AltitudeMeters>
            <DistanceMeters>16509.356570499</DistanceMeters>
          </Trackpoint>
          <Trackpoint>
            <Time>2021-08-01T13:47:57.000Z</Time>
            <Position>
              <LatitudeDegrees>-15.39878080599009990692138671875</LatitudeDegrees>
              <LongitudeDegrees>37.0828185416758060455322265625</LongitudeDegrees>
            </Position>
            <AltitudeMeters>1207</AltitudeMeters>
            <DistanceMeters>16509.356570499</DistanceMeters>
          </Trackpoint>
          <Trackpoint>
            <Time>2021-08-01T13:48:04.000Z</Time>
            <Position>
              <LatitudeDegrees>-15.39877644740045070648193359375</LatitudeDegrees>
              <LongitudeDegrees>37.0828235708177089691162109375</LongitudeDegrees>
            </Position>
            <AltitudeMeters>1207</AltitudeMeters>
            <DistanceMeters>16510.086484542</DistanceMeters>
          </Trackpoint>
          <Trackpoint>
            <Time>2021-08-01T13:48:07.000Z</Time>
            <Position>
              <LatitudeDegrees>-15.39872883819043636322021484375</LatitudeDegrees>
              <LongitudeDegrees>37.08285190165042877197265625</LongitudeDegrees>
            </Position>
            <AltitudeMeters>1207</AltitudeMeters>
            <DistanceMeters>16516.194862057</DistanceMeters>
          </Trackpoint>
          <Trackpoint>
            <Time>2021-08-01T13:48:08.000Z</Time>
            <Position>
              <LatitudeDegrees>-15.3987129963934421539306640625</LatitudeDegrees>
              <LongitudeDegrees>37.082859613001346588134765625</LongitudeDegrees>
            </Position>
            <AltitudeMeters>1207</AltitudeMeters>
            <DistanceMeters>16518.142330184</DistanceMeters>
          </Trackpoint>
          <Trackpoint>
            <Time>2021-08-01T13:48:13.000Z</Time>
            <Position>
              <LatitudeDegrees>-15.39863278158009052276611328125</LatitudeDegrees>
              <LongitudeDegrees>37.0829062163829803466796875</LongitudeDegrees>
            </Position>
            <AltitudeMeters>1206.4000244140625</AltitudeMeters>
            <DistanceMeters>16528.375697007</DistanceMeters>
          </Trackpoint>
          <Trackpoint>
            <Time>2021-08-01T13:48:21.000Z</Time>
            <Position>
              <LatitudeDegrees>-15.3985520638525485992431640625</LatitudeDegrees>
              <LongitudeDegrees>37.08296899683773517608642578125</LongitudeDegrees>
            </Position>
            <AltitudeMeters>1206.4000244140625</AltitudeMeters>
            <DistanceMeters>16539.604943974</DistanceMeters>
          </Trackpoint>
          <Trackpoint>
            <Time>2021-08-01T13:48:31.000Z</Time>
            <Position>
              <LatitudeDegrees>-15.39844284765422344207763671875</LatitudeDegrees>
              <LongitudeDegrees>37.08303320221602916717529296875</LongitudeDegrees>
            </Position>
            <AltitudeMeters>1206</AltitudeMeters>
            <DistanceMeters>16553.577102814</DistanceMeters>
          </Trackpoint>
          <Trackpoint>
            <Time>2021-08-01T13:48:32.000Z</Time>
            <Position>
              <LatitudeDegrees>-15.3984333761036396026611328125</LatitudeDegrees>
              <LongitudeDegrees>37.08303831517696380615234375</LongitudeDegrees>
            </Position>
            <AltitudeMeters>1205.4000244140625</AltitudeMeters>
            <DistanceMeters>16554.763986096</DistanceMeters>
          </Trackpoint>
          <Trackpoint>
            <Time>2021-08-01T13:48:35.000Z</Time>
            <Position>
              <LatitudeDegrees>-15.3983969986438751220703125</LatitudeDegrees>
              <LongitudeDegrees>37.08304963074624538421630859375</LongitudeDegrees>
            </Position>
            <AltitudeMeters>1205.4000244140625</AltitudeMeters>
            <DistanceMeters>16558.99134003</DistanceMeters>
          </Trackpoint>
          <Trackpoint>
            <Time>2021-08-01T13:48:36.000Z</Time>
            <Position>
              <LatitudeDegrees>-15.3983757086098194122314453125</LatitudeDegrees>
              <LongitudeDegrees>37.0830606110394001007080078125</LongitudeDegrees>
            </Position>
            <AltitudeMeters>1205.4000244140625</AltitudeMeters>
            <DistanceMeters>16561.636771799</DistanceMeters>
          </Trackpoint>
          <Trackpoint>
            <Time>2021-08-01T13:48:42.000Z</Time>
            <Position>
              <LatitudeDegrees>-15.3983187116682529449462890625</LatitudeDegrees>
              <LongitudeDegrees>37.08308550529181957244873046875</LongitudeDegrees>
            </Position>
            <AltitudeMeters>1205</AltitudeMeters>
            <DistanceMeters>16568.520143873</DistanceMeters>
          </Trackpoint>
          <Trackpoint>
            <Time>2021-08-01T13:48:50.000Z</Time>
            <Position>
              <LatitudeDegrees>-15.39822810329496860504150390625</LatitudeDegrees>
              <LongitudeDegrees>37.0831196196377277374267578125</LongitudeDegrees>
            </Position>
            <AltitudeMeters>1204.4000244140625</AltitudeMeters>
            <DistanceMeters>16579.248487377</DistanceMeters>
          </Trackpoint>
          <Trackpoint>
            <Time>2021-08-01T13:48:54.000Z</Time>
            <Position>
              <LatitudeDegrees>-15.398181416094303131103515625</LatitudeDegrees>
              <LongitudeDegrees>37.0831316895782947540283203125</LongitudeDegrees>
            </Position>
            <AltitudeMeters>1204.199951171875</AltitudeMeters>
            <DistanceMeters>16584.603813958</DistanceMeters>
          </Trackpoint>
          <Trackpoint>
            <Time>2021-08-01T13:49:02.000Z</Time>
            <Position>
              <LatitudeDegrees>-15.3980903886258602142333984375</LatitudeDegrees>
              <LongitudeDegrees>37.08316781558096408843994140625</LongitudeDegrees>
            </Position>
            <AltitudeMeters>1203.4000244140625</AltitudeMeters>
            <DistanceMeters>16595.451437022</DistanceMeters>
          </Trackpoint>
          <Trackpoint>
            <Time>2021-08-01T13:49:05.000Z</Time>
            <Position>
              <LatitudeDegrees>-15.39805979467928409576416015625</LatitudeDegrees>
              <LongitudeDegrees>37.08318172954022884368896484375</LongitudeDegrees>
            </Position>
            <AltitudeMeters>1203.4000244140625</AltitudeMeters>
            <DistanceMeters>16599.168427331</DistanceMeters>
          </Trackpoint>
          <Trackpoint>
            <Time>2021-08-01T13:49:11.000Z</Time>
            <Position>
              <LatitudeDegrees>-15.39799592457711696624755859375</LatitudeDegrees>
              <LongitudeDegrees>37.08320788107812404632568359375</LongitudeDegrees>
            </Position>
            <AltitudeMeters>1203</AltitudeMeters>
            <DistanceMeters>16606.810844124</DistanceMeters>
          </Trackpoint>
          <Trackpoint>
            <Time>2021-08-01T13:49:21.000Z</Time>
            <Position>
              <LatitudeDegrees>-15.397897101938724517822265625</LatitudeDegrees>
              <LongitudeDegrees>37.08326454274356365203857421875</LongitudeDegrees>
            </Position>
            <AltitudeMeters>1203</AltitudeMeters>
            <DistanceMeters>16619.378823165</DistanceMeters>
          </Trackpoint>
          <Trackpoint>
            <Time>2021-08-01T13:49:25.000Z</Time>
            <Position>
              <LatitudeDegrees>-15.39785963483154773712158203125</LatitudeDegrees>
              <LongitudeDegrees>37.0832852460443973541259765625</LongitudeDegrees>
            </Position>
            <AltitudeMeters>1202.4000244140625</AltitudeMeters>
            <DistanceMeters>16624.104432019</DistanceMeters>
          </Trackpoint>
          <Trackpoint>
            <Time>2021-08-01T13:49:26.000Z</Time>
            <Position>
              <LatitudeDegrees>-15.39784857071936130523681640625</LatitudeDegrees>
              <LongitudeDegrees>37.08329287357628345489501953125</LongitudeDegrees>
            </Position>
            <AltitudeMeters>1202.4000244140625</AltitudeMeters>
            <DistanceMeters>16625.585751896</DistanceMeters>
          </Trackpoint>
          <Trackpoint>
            <Time>2021-08-01T13:49:30.000Z</Time>
            <Position>
              <LatitudeDegrees>-15.39781621657311916351318359375</LatitudeDegrees>
              <LongitudeDegrees>37.08333008922636508941650390625</LongitudeDegrees>
            </Position>
            <AltitudeMeters>1201.800048828125</AltitudeMeters>
            <DistanceMeters>16630.963793812</DistanceMeters>
          </Trackpoint>
          <Trackpoint>
            <Time>2021-08-01T13:49:34.000Z</Time>
            <Position>
              <LatitudeDegrees>-15.3977769054472446441650390625</LatitudeDegrees>
              <LongitudeDegrees>37.0833700709044933319091796875</LongitudeDegrees>
            </Position>
            <AltitudeMeters>1201.4000244140625</AltitudeMeters>
            <DistanceMeters>16637.092096018</DistanceMeters>
          </Trackpoint>
          <Trackpoint>
            <Time>2021-08-01T13:49:39.000Z</Time>
            <Position>
              <LatitudeDegrees>-15.397736169397830963134765625</LatitudeDegrees>
              <LongitudeDegrees>37.083411477506160736083984375</LongitudeDegrees>
            </Position>
            <AltitudeMeters>1200.4000244140625</AltitudeMeters>
            <DistanceMeters>16643.440421086</DistanceMeters>
          </Trackpoint>
          <Trackpoint>
            <Time>2021-08-01T13:49:42.000Z</Time>
            <Position>
              <LatitudeDegrees>-15.39771596901118755340576171875</LatitudeDegrees>
              <LongitudeDegrees>37.0834394730627536773681640625</LongitudeDegrees>
            </Position>
            <AltitudeMeters>1200</AltitudeMeters>
            <DistanceMeters>16647.193675574</DistanceMeters>
          </Trackpoint>
          <Trackpoint>
            <Time>2021-08-01T13:49:46.000Z</Time>
            <Position>
              <LatitudeDegrees>-15.39768914692103862762451171875</LatitudeDegrees>
              <LongitudeDegrees>37.08348490297794342041015625</LongitudeDegrees>
            </Position>
            <AltitudeMeters>1199.199951171875</AltitudeMeters>
            <DistanceMeters>16652.910304532</DistanceMeters>
          </Trackpoint>
          <Trackpoint>
            <Time>2021-08-01T13:49:49.000Z</Time>
            <Position>
              <LatitudeDegrees>-15.397670455276966094970703125</LatitudeDegrees>
              <LongitudeDegrees>37.0835229568183422088623046875</LongitudeDegrees>
            </Position>
            <AltitudeMeters>1199</AltitudeMeters>
            <DistanceMeters>16657.493312039</DistanceMeters>
          </Trackpoint>
          <Trackpoint>
            <Time>2021-08-01T13:49:54.000Z</Time>
            <Position>
              <LatitudeDegrees>-15.3976406157016754150390625</LatitudeDegrees>
              <LongitudeDegrees>37.08358590491116046905517578125</LongitudeDegrees>
            </Position>
            <AltitudeMeters>1198.4000244140625</AltitudeMeters>
            <DistanceMeters>16665.020243659</DistanceMeters>
          </Trackpoint>
          <Trackpoint>
            <Time>2021-08-01T13:49:55.000Z</Time>
            <Position>
              <LatitudeDegrees>-15.39763567037880420684814453125</LatitudeDegrees>
              <LongitudeDegrees>37.083593197166919708251953125</LongitudeDegrees>
            </Position>
            <AltitudeMeters>1198.199951171875</AltitudeMeters>
            <DistanceMeters>16665.975250319</DistanceMeters>
          </Trackpoint>
          <Trackpoint>
            <Time>2021-08-01T13:49:58.000Z</Time>
            <Position>
              <LatitudeDegrees>-15.397617481648921966552734375</LatitudeDegrees>
              <LongitudeDegrees>37.08362211473286151885986328125</LongitudeDegrees>
            </Position>
            <AltitudeMeters>1198.199951171875</AltitudeMeters>
            <DistanceMeters>16669.678854796</DistanceMeters>
          </Trackpoint>
          <Trackpoint>
            <Time>2021-08-01T13:50:04.000Z</Time>
            <Position>
              <LatitudeDegrees>-15.39758001454174518585205078125</LatitudeDegrees>
              <LongitudeDegrees>37.083681039512157440185546875</LongitudeDegrees>
            </Position>
            <AltitudeMeters>1197.199951171875</AltitudeMeters>
            <DistanceMeters>16677.253026411</DistanceMeters>
          </Trackpoint>
          <Trackpoint>
            <Time>2021-08-01T13:50:08.000Z</Time>
            <Position>
              <LatitudeDegrees>-15.397555120289325714111328125</LatitudeDegrees>
              <LongitudeDegrees>37.08371691405773162841796875</LongitudeDegrees>
            </Position>
            <AltitudeMeters>1197</AltitudeMeters>
            <DistanceMeters>16681.9967539</DistanceMeters>
          </Trackpoint>
          <Trackpoint>
            <Time>2021-08-01T13:50:16.000Z</Time>
            <Position>
              <LatitudeDegrees>-15.39747691713273525238037109375</LatitudeDegrees>
              <LongitudeDegrees>37.0837952010333538055419921875</LongitudeDegrees>
            </Position>
            <AltitudeMeters>1196.199951171875</AltitudeMeters>
            <DistanceMeters>16694.0935464</DistanceMeters>
          </Trackpoint>
          <Trackpoint>
            <Time>2021-08-01T13:50:24.000Z</Time>
            <Position>
              <LatitudeDegrees>-15.39739812724292278289794921875</LatitudeDegrees>
              <LongitudeDegrees>37.08386384882032871246337890625</LongitudeDegrees>
            </Position>
            <AltitudeMeters>1195</AltitudeMeters>
            <DistanceMeters>16705.546532492</DistanceMeters>
          </Trackpoint>
          <Trackpoint>
            <Time>2021-08-01T13:50:25.000Z</Time>
            <Position>
              <LatitudeDegrees>-15.3973896615207195281982421875</LatitudeDegrees>
              <LongitudeDegrees>37.08387575112283229827880859375</LongitudeDegrees>
            </Position>
            <AltitudeMeters>1195</AltitudeMeters>
            <DistanceMeters>16707.13094445</DistanceMeters>
          </Trackpoint>
          <Trackpoint>
            <Time>2021-08-01T13:50:34.000Z</Time>
            <Position>
              <LatitudeDegrees>-15.397311039268970489501953125</LatitudeDegrees>
              <LongitudeDegrees>37.08396661095321178436279296875</LongitudeDegrees>
            </Position>
            <AltitudeMeters>1194.199951171875</AltitudeMeters>
            <DistanceMeters>16720.232230381</DistanceMeters>
          </Trackpoint>
          <Trackpoint>
            <Time>2021-08-01T13:50:40.000Z</Time>
            <Position>
              <LatitudeDegrees>-15.39726468734443187713623046875</LatitudeDegrees>
              <LongitudeDegrees>37.084023021161556243896484375</LongitudeDegrees>
            </Position>
            <AltitudeMeters>1194</AltitudeMeters>
            <DistanceMeters>16728.185574676</DistanceMeters>
          </Trackpoint>
          <Trackpoint>
            <Time>2021-08-01T13:50:46.000Z</Time>
            <Position>
              <LatitudeDegrees>-15.397219173610210418701171875</LatitudeDegrees>
              <LongitudeDegrees>37.08408513106405735015869140625</LongitudeDegrees>
            </Position>
            <AltitudeMeters>1193.800048828125</AltitudeMeters>
            <DistanceMeters>16736.557099226</DistanceMeters>
          </Trackpoint>
          <Trackpoint>
            <Time>2021-08-01T13:50:56.000Z</Time>
            <Position>
              <LatitudeDegrees>-15.397142730653285980224609375</LatitudeDegrees>
              <LongitudeDegrees>37.0842005498707294464111328125</LongitudeDegrees>
            </Position>
            <AltitudeMeters>1193.4000244140625</AltitudeMeters>
            <DistanceMeters>16751.5830435</DistanceMeters>
          </Trackpoint>
          <Trackpoint>
            <Time>2021-08-01T13:50:58.000Z</Time>
            <Position>
              <LatitudeDegrees>-15.3971274755895137786865234375</LatitudeDegrees>
              <LongitudeDegrees>37.08422116935253143310546875</LongitudeDegrees>
            </Position>
            <AltitudeMeters>1193.4000244140625</AltitudeMeters>
            <DistanceMeters>16754.373012298</DistanceMeters>
          </Trackpoint>
          <Trackpoint>
            <Time>2021-08-01T13:51:05.000Z</Time>
            <Position>
              <LatitudeDegrees>-15.39707642979919910430908203125</LatitudeDegrees>
              <LongitudeDegrees>37.0842956006526947021484375</LongitudeDegrees>
            </Position>
            <AltitudeMeters>1193.199951171875</AltitudeMeters>
            <DistanceMeters>16764.174592951</DistanceMeters>
          </Trackpoint>
          <Trackpoint>
            <Time>2021-08-01T13:51:06.000Z</Time>
            <Position>
              <LatitudeDegrees>-15.39706972427666187286376953125</LatitudeDegrees>
              <LongitudeDegrees>37.0843068324029445648193359375</LongitudeDegrees>
            </Position>
            <AltitudeMeters>1193.199951171875</AltitudeMeters>
            <DistanceMeters>16765.596822582</DistanceMeters>
          </Trackpoint>
          <Trackpoint>
            <Time>2021-08-01T13:51:09.000Z</Time>
            <Position>
              <LatitudeDegrees>-15.3970486856997013092041015625</LatitudeDegrees>
              <LongitudeDegrees>37.08434262312948703765869140625</LongitudeDegrees>
            </Position>
            <AltitudeMeters>1193.199951171875</AltitudeMeters>
            <DistanceMeters>16770.094307572</DistanceMeters>
          </Trackpoint>
          <Trackpoint>
            <Time>2021-08-01T13:51:19.000Z</Time>
            <Position>
              <LatitudeDegrees>-15.39696939289569854736328125</LatitudeDegrees>
              <LongitudeDegrees>37.0844350755214691162109375</LongitudeDegrees>
            </Position>
            <AltitudeMeters>1193</AltitudeMeters>
            <DistanceMeters>16783.372569603</DistanceMeters>
          </Trackpoint>
          <Trackpoint>
            <Time>2021-08-01T13:51:20.000Z</Time>
            <Position>
              <LatitudeDegrees>-15.39696461521089076995849609375</LatitudeDegrees>
              <LongitudeDegrees>37.08444639109075069427490234375</LongitudeDegrees>
            </Position>
            <AltitudeMeters>1193</AltitudeMeters>
            <DistanceMeters>16784.702943604</DistanceMeters>
          </Trackpoint>
          <Trackpoint>
            <Time>2021-08-01T13:51:30.000Z</Time>
            <Position>
              <LatitudeDegrees>-15.39688364602625370025634765625</LatitudeDegrees>
              <LongitudeDegrees>37.08454496227204799652099609375</LongitudeDegrees>
            </Position>
            <AltitudeMeters>1193.4000244140625</AltitudeMeters>
            <DistanceMeters>16798.59895579</DistanceMeters>
          </Trackpoint>
          <Trackpoint>
            <Time>2021-08-01T13:51:42.000Z</Time>
            <Position>
              <LatitudeDegrees>-15.39678893052041530609130859375</LatitudeDegrees>
              <LongitudeDegrees>37.08467102609574794769287109375</LongitudeDegrees>
            </Position>
            <AltitudeMeters>1193.4000244140625</AltitudeMeters>
            <DistanceMeters>16815.749105933</DistanceMeters>
          </Trackpoint>
          <Trackpoint>
            <Time>2021-08-01T13:51:50.000Z</Time>
            <Position>
              <LatitudeDegrees>-15.3967214561998844146728515625</LatitudeDegrees>
              <LongitudeDegrees>37.08475752733647823333740234375</LongitudeDegrees>
            </Position>
            <AltitudeMeters>1193.199951171875</AltitudeMeters>
            <DistanceMeters>16827.688863754</DistanceMeters>
          </Trackpoint>
          <Trackpoint>
            <Time>2021-08-01T13:51:53.000Z</Time>
            <Position>
              <LatitudeDegrees>-15.39669890888035297393798828125</LatitudeDegrees>
              <LongitudeDegrees>37.08478988148272037506103515625</LongitudeDegrees>
            </Position>
            <AltitudeMeters>1193</AltitudeMeters>
            <DistanceMeters>16831.973504394</DistanceMeters>
          </Trackpoint>
          <Trackpoint>
            <Time>2021-08-01T13:52:02.000Z</Time>
            <Position>
              <LatitudeDegrees>-15.39662766270339488983154296875</LatitudeDegrees>
              <LongitudeDegrees>37.08487956784665584564208984375</LongitudeDegrees>
            </Position>
            <AltitudeMeters>1192.5999755859375</AltitudeMeters>
            <DistanceMeters>16844.443746831</DistanceMeters>
          </Trackpoint>
          <Trackpoint>
            <Time>2021-08-01T13:52:04.000Z</Time>
            <Position>
              <LatitudeDegrees>-15.3966148383915424346923828125</LatitudeDegrees>
              <LongitudeDegrees>37.08490136079490184783935546875</LongitudeDegrees>
            </Position>
            <AltitudeMeters>1192.5999755859375</AltitudeMeters>
            <DistanceMeters>16847.18473636</DistanceMeters>
          </Trackpoint>
          <Trackpoint>
            <Time>2021-08-01T13:52:13.000Z</Time>
            <Position>
              <LatitudeDegrees>-15.39655960164964199066162109375</LatitudeDegrees>
              <LongitudeDegrees>37.08499959670007228851318359375</LongitudeDegrees>
            </Position>
            <AltitudeMeters>1192.199951171875</AltitudeMeters>
            <DistanceMeters>16859.388179347</DistanceMeters>
          </Trackpoint>
          <Trackpoint>
            <Time>2021-08-01T13:52:20.000Z</Time>
            <Position>
              <LatitudeDegrees>-15.39650931023061275482177734375</LatitudeDegrees>
              <LongitudeDegrees>37.08507402800023555755615234375</LongitudeDegrees>
            </Position>
            <AltitudeMeters>1192</AltitudeMeters>
            <DistanceMeters>16869.141272459</DistanceMeters>
          </Trackpoint>
          <Trackpoint>
            <Time>2021-08-01T13:52:21.000Z</Time>
            <Position>
              <LatitudeDegrees>-15.3965005092322826385498046875</LatitudeDegrees>
              <LongitudeDegrees>37.0850856788456439971923828125</LongitudeDegrees>
            </Position>
            <AltitudeMeters>1191.4000244140625</AltitudeMeters>
            <DistanceMeters>16870.731373526</DistanceMeters>
          </Trackpoint>
          <Trackpoint>
            <Time>2021-08-01T13:52:24.000Z</Time>
            <Position>
              <LatitudeDegrees>-15.3964793868362903594970703125</LatitudeDegrees>
              <LongitudeDegrees>37.0851168595254421234130859375</LongitudeDegrees>
            </Position>
            <AltitudeMeters>1191.4000244140625</AltitudeMeters>
            <DistanceMeters>16874.820835786</DistanceMeters>
          </Trackpoint>
          <Trackpoint>
            <Time>2021-08-01T13:52:27.000Z</Time>
            <Position>
              <LatitudeDegrees>-15.39645700715482234954833984375</LatitudeDegrees>
              <LongitudeDegrees>37.08515281789004802703857421875</LongitudeDegrees>
            </Position>
            <AltitudeMeters>1191.199951171875</AltitudeMeters>
            <DistanceMeters>16879.41368442</DistanceMeters>
          </Trackpoint>
          <Trackpoint>
            <Time>2021-08-01T13:52:30.000Z</Time>
            <Position>
              <LatitudeDegrees>-15.396433956921100616455078125</LatitudeDegrees>
              <LongitudeDegrees>37.0851886086165904998779296875</LongitudeDegrees>
            </Position>
            <AltitudeMeters>1190.800048828125</AltitudeMeters>
            <DistanceMeters>16884.032021844</DistanceMeters>
          </Trackpoint>
          <Trackpoint>
            <Time>2021-08-01T13:52:33.000Z</Time>
            <Position>
              <LatitudeDegrees>-15.39641124196350574493408203125</LatitudeDegrees>
              <LongitudeDegrees>37.08521367050707340240478515625</LongitudeDegrees>
            </Position>
            <AltitudeMeters>1190.5999755859375</AltitudeMeters>
            <DistanceMeters>16887.722191932</DistanceMeters>
          </Trackpoint>
          <Trackpoint>
            <Time>2021-08-01T13:52:35.000Z</Time>
            <Position>
              <LatitudeDegrees>-15.3963938914239406585693359375</LatitudeDegrees>
              <LongitudeDegrees>37.08523144014179706573486328125</LongitudeDegrees>
            </Position>
            <AltitudeMeters>1190.4000244140625</AltitudeMeters>
            <DistanceMeters>16890.435034039</DistanceMeters>
          </Trackpoint>
          <Trackpoint>
            <Time>2021-08-01T13:52:37.000Z</Time>
            <Position>
              <LatitudeDegrees>-15.39637570269405841827392578125</LatitudeDegrees>
              <LongitudeDegrees>37.085246108472347259521484375</LongitudeDegrees>
            </Position>
            <AltitudeMeters>1190.4000244140625</AltitudeMeters>
            <DistanceMeters>16892.99899497</DistanceMeters>
          </Trackpoint>
          <Trackpoint>
            <Time>2021-08-01T13:52:47.000Z</Time>
            <Position>
              <LatitudeDegrees>-15.3962834179401397705078125</LatitudeDegrees>
              <LongitudeDegrees>37.08534191362559795379638671875</LongitudeDegrees>
            </Position>
            <AltitudeMeters>1189.5999755859375</AltitudeMeters>
            <DistanceMeters>16907.531248676</DistanceMeters>
          </Trackpoint>
          <Trackpoint>
            <Time>2021-08-01T13:52:52.000Z</Time>
            <Position>
              <LatitudeDegrees>-15.39627662859857082366943359375</LatitudeDegrees>
              <LongitudeDegrees>37.08535306155681610107421875</LongitudeDegrees>
            </Position>
            <AltitudeMeters>1189.4000244140625</AltitudeMeters>
            <DistanceMeters>16908.943922345</DistanceMeters>
          </Trackpoint>
          <Trackpoint>
            <Time>2021-08-01T13:52:56.000Z</Time>
            <Position>
              <LatitudeDegrees>-15.39625517092645168304443359375</LatitudeDegrees>
              <LongitudeDegrees>37.0853642933070659637451171875</LongitudeDegrees>
            </Position>
            <AltitudeMeters>1189.4000244140625</AltitudeMeters>
            <DistanceMeters>16911.619898918</DistanceMeters>
          </Trackpoint>
          <Trackpoint>
            <Time>2021-08-01T13:52:58.000Z</Time>
            <Position>
              <LatitudeDegrees>-15.39624427445232868194580078125</LatitudeDegrees>
              <LongitudeDegrees>37.0853770337998867034912109375</LongitudeDegrees>
            </Position>
            <AltitudeMeters>1189.199951171875</AltitudeMeters>
            <DistanceMeters>16913.447774265</DistanceMeters>
          </Trackpoint>
          <Trackpoint>
            <Time>2021-08-01T13:53:00.000Z</Time>
            <Position>
              <LatitudeDegrees>-15.396226756274700164794921875</LatitudeDegrees>
              <LongitudeDegrees>37.08538667298853397369384765625</LongitudeDegrees>
            </Position>
            <AltitudeMeters>1188.800048828125</AltitudeMeters>
            <DistanceMeters>16915.653949961</DistanceMeters>
          </Trackpoint>
          <Trackpoint>
            <Time>2021-08-01T13:53:04.000Z</Time>
            <Position>
              <LatitudeDegrees>-15.3961944021284580230712890625</LatitudeDegrees>
              <LongitudeDegrees>37.08541936241090297698974609375</LongitudeDegrees>
            </Position>
            <AltitudeMeters>1188</AltitudeMeters>
            <DistanceMeters>16920.680494887</DistanceMeters>
          </Trackpoint>
          <Trackpoint>
            <Time>2021-08-01T13:53:13.000Z</Time>
            <Position>
              <LatitudeDegrees>-15.39615106768906116485595703125</LatitudeDegrees>
              <LongitudeDegrees>37.08549924194812774658203125</LongitudeDegrees>
            </Position>
            <AltitudeMeters>1187</AltitudeMeters>
            <DistanceMeters>16930.516104118</DistanceMeters>
          </Trackpoint>
          <Trackpoint>
            <Time>2021-08-01T13:53:16.000Z</Time>
            <Position>
              <LatitudeDegrees>-15.39613447152078151702880859375</LatitudeDegrees>
              <LongitudeDegrees>37.08552204072475433349609375</LongitudeDegrees>
            </Position>
            <AltitudeMeters>1187</AltitudeMeters>
            <DistanceMeters>16933.583568813</DistanceMeters>
          </Trackpoint>
          <Trackpoint>
            <Time>2021-08-01T13:53:17.000Z</Time>
            <Position>
              <LatitudeDegrees>-15.39612676016986370086669921875</LatitudeDegrees>
              <LongitudeDegrees>37.08553545176982879638671875</LongitudeDegrees>
            </Position>
            <AltitudeMeters>1187</AltitudeMeters>
            <DistanceMeters>16935.262075248</DistanceMeters>
          </Trackpoint>
          <Trackpoint>
            <Time>2021-08-01T13:53:19.000Z</Time>
            <Position>
              <LatitudeDegrees>-15.39611401967704296112060546875</LatitudeDegrees>
              <LongitudeDegrees>37.08556252531707286834716796875</LongitudeDegrees>
            </Position>
            <AltitudeMeters>1187</AltitudeMeters>
            <DistanceMeters>16938.495777232</DistanceMeters>
          </Trackpoint>
          <Trackpoint>
            <Time>2021-08-01T13:53:22.000Z</Time>
            <Position>
              <LatitudeDegrees>-15.396099351346492767333984375</LatitudeDegrees>
              <LongitudeDegrees>37.0855969749391078948974609375</LongitudeDegrees>
            </Position>
            <AltitudeMeters>1186</AltitudeMeters>
            <DistanceMeters>16942.537485817</DistanceMeters>
          </Trackpoint>
          <Trackpoint>
            <Time>2021-08-01T13:53:26.000Z</Time>
            <Position>
              <LatitudeDegrees>-15.39607546292245388031005859375</LatitudeDegrees>
              <LongitudeDegrees>37.0856412313878536224365234375</LongitudeDegrees>
            </Position>
            <AltitudeMeters>1186</AltitudeMeters>
            <DistanceMeters>16947.980617343</DistanceMeters>
          </Trackpoint>
          <Trackpoint>
            <Time>2021-08-01T13:53:27.000Z</Time>
            <Position>
              <LatitudeDegrees>-15.3960693441331386566162109375</LatitudeDegrees>
              <LongitudeDegrees>37.0856549777090549468994140625</LongitudeDegrees>
            </Position>
            <AltitudeMeters>1186</AltitudeMeters>
            <DistanceMeters>16949.60443455</DistanceMeters>
          </Trackpoint>
          <Trackpoint>
            <Time>2021-08-01T13:53:30.000Z</Time>
            <Position>
              <LatitudeDegrees>-15.39605702273547649383544921875</LatitudeDegrees>
              <LongitudeDegrees>37.08569328300654888153076171875</LongitudeDegrees>
            </Position>
            <AltitudeMeters>1185.4000244140625</AltitudeMeters>
            <DistanceMeters>16953.938319528</DistanceMeters>
          </Trackpoint>
          <Trackpoint>
            <Time>2021-08-01T13:53:33.000Z</Time>
            <Position>
              <LatitudeDegrees>-15.3960420191287994384765625</LatitudeDegrees>
              <LongitudeDegrees>37.08573468960821628570556640625</LongitudeDegrees>
            </Position>
            <AltitudeMeters>1185</AltitudeMeters>
            <DistanceMeters>16958.684901533</DistanceMeters>
          </Trackpoint>
          <Trackpoint>
            <Time>2021-08-01T13:53:37.000Z</Time>
            <Position>
              <LatitudeDegrees>-15.3960247524082660675048828125</LatitudeDegrees>
              <LongitudeDegrees>37.0857773534953594207763671875</LongitudeDegrees>
            </Position>
            <AltitudeMeters>1185</AltitudeMeters>
            <DistanceMeters>16963.650899798</DistanceMeters>
          </Trackpoint>
          <Trackpoint>
            <Time>2021-08-01T13:53:39.000Z</Time>
            <Position>
              <LatitudeDegrees>-15.3960173763334751129150390625</LatitudeDegrees>
              <LongitudeDegrees>37.08579386584460735321044921875</LongitudeDegrees>
            </Position>
            <AltitudeMeters>1185</AltitudeMeters>
            <DistanceMeters>16965.602999247</DistanceMeters>
          </Trackpoint>
          <Trackpoint>
            <Time>2021-08-01T13:53:42.000Z</Time>
            <Position>
              <LatitudeDegrees>-15.3960123471915721893310546875</LatitudeDegrees>
              <LongitudeDegrees>37.08579788915812969207763671875</LongitudeDegrees>
            </Position>
            <AltitudeMeters>1185.199951171875</AltitudeMeters>
            <DistanceMeters>16966.307736222</DistanceMeters>
          </Trackpoint>
          <Trackpoint>
            <Time>2021-08-01T13:53:43.000Z</Time>
            <Position>
              <LatitudeDegrees>-15.3960116766393184661865234375</LatitudeDegrees>
              <LongitudeDegrees>37.08579822443425655364990234375</LongitudeDegrees>
            </Position>
            <AltitudeMeters>1185.199951171875</AltitudeMeters>
            <DistanceMeters>16966.307736222</DistanceMeters>
          </Trackpoint>
          <Trackpoint>
            <Time>2021-08-01T13:53:49.000Z</Time>
            <Position>
              <LatitudeDegrees>-15.3960123471915721893310546875</LatitudeDegrees>
              <LongitudeDegrees>37.0858014933764934539794921875</LongitudeDegrees>
            </Position>
            <AltitudeMeters>1185.199951171875</AltitudeMeters>
            <DistanceMeters>16966.66329363</DistanceMeters>
          </Trackpoint>
          <Trackpoint>
            <Time>2021-08-01T13:53:53.000Z</Time>
            <Position>
              <LatitudeDegrees>-15.39601243101060390472412109375</LatitudeDegrees>
              <LongitudeDegrees>37.08580107428133487701416015625</LongitudeDegrees>
            </Position>
            <AltitudeMeters>1185.199951171875</AltitudeMeters>
            <DistanceMeters>16966.66329363</DistanceMeters>
          </Trackpoint>
          <Trackpoint>
            <Time>2021-08-01T13:53:55.000Z</Time>
            <Position>
              <LatitudeDegrees>-15.39601243101060390472412109375</LatitudeDegrees>
              <LongitudeDegrees>37.08580107428133487701416015625</LongitudeDegrees>
            </Position>
            <AltitudeMeters>1185.199951171875</AltitudeMeters>
            <DistanceMeters>16966.758320345</DistanceMeters>
          </Trackpoint>
          <Trackpoint>
            <Time>2021-08-01T13:54:03.000Z</Time>
            <Position>
              <LatitudeDegrees>-15.39601075462996959686279296875</LatitudeDegrees>
              <LongitudeDegrees>37.085872404277324676513671875</LongitudeDegrees>
            </Position>
            <AltitudeMeters>1184.5999755859375</AltitudeMeters>
            <DistanceMeters>16974.41490289</DistanceMeters>
          </Trackpoint>
          <Trackpoint>
            <Time>2021-08-01T13:54:08.000Z</Time>
            <Position>
              <LatitudeDegrees>-15.39601050317287445068359375</LatitudeDegrees>
              <LongitudeDegrees>37.08595681004226207733154296875</LongitudeDegrees>
            </Position>
            <AltitudeMeters>1184.4000244140625</AltitudeMeters>
            <DistanceMeters>16983.472399481</DistanceMeters>
          </Trackpoint>
          <Trackpoint>
            <Time>2021-08-01T13:54:10.000Z</Time>
            <Position>
              <LatitudeDegrees>-15.39601075462996959686279296875</LatitudeDegrees>
              <LongitudeDegrees>37.08598379977047443389892578125</LongitudeDegrees>
            </Position>
            <AltitudeMeters>1184</AltitudeMeters>
            <DistanceMeters>16986.368766346</DistanceMeters>
          </Trackpoint>
          <Trackpoint>
            <Time>2021-08-01T13:54:14.000Z</Time>
            <Position>
              <LatitudeDegrees>-15.39601578377187252044677734375</LatitudeDegrees>
              <LongitudeDegrees>37.08603207953274250030517578125</LongitudeDegrees>
            </Position>
            <AltitudeMeters>1183.800048828125</AltitudeMeters>
            <DistanceMeters>16991.580528998</DistanceMeters>
          </Trackpoint>
          <Trackpoint>
            <Time>2021-08-01T13:54:16.000Z</Time>
            <Position>
              <LatitudeDegrees>-15.39601729251444339752197265625</LatitudeDegrees>
              <LongitudeDegrees>37.0860331691801548004150390625</LongitudeDegrees>
            </Position>
            <AltitudeMeters>1183.800048828125</AltitudeMeters>
            <DistanceMeters>16991.81329596</DistanceMeters>
          </Trackpoint>
          <Trackpoint>
            <Time>2021-08-01T13:54:18.000Z</Time>
            <Position>
              <LatitudeDegrees>-15.3960200585424900054931640625</LatitudeDegrees>
              <LongitudeDegrees>37.08601598627865314483642578125</LongitudeDegrees>
            </Position>
            <AltitudeMeters>1183.800048828125</AltitudeMeters>
            <DistanceMeters>16993.682691473</DistanceMeters>
          </Trackpoint>
          <Trackpoint>
            <Time>2021-08-01T13:54:19.000Z</Time>
            <Position>
              <LatitudeDegrees>-15.39601880125701427459716796875</LatitudeDegrees>
              <LongitudeDegrees>37.0860041677951812744140625</LongitudeDegrees>
            </Position>
            <AltitudeMeters>1183.800048828125</AltitudeMeters>
            <DistanceMeters>16994.957608631</DistanceMeters>
          </Trackpoint>
          <Trackpoint>
            <Time>2021-08-01T13:54:24.000Z</Time>
            <Position>
              <LatitudeDegrees>-15.39602030999958515167236328125</LatitudeDegrees>
              <LongitudeDegrees>37.08595597185194492340087890625</LongitudeDegrees>
            </Position>
            <AltitudeMeters>1184.4000244140625</AltitudeMeters>
            <DistanceMeters>17000.131985565</DistanceMeters>
          </Trackpoint>
          <Trackpoint>
            <Time>2021-08-01T13:54:26.000Z</Time>
            <Position>
              <LatitudeDegrees>-15.39602131582796573638916015625</LatitudeDegrees>
              <LongitudeDegrees>37.08593250252306461334228515625</LongitudeDegrees>
            </Position>
            <AltitudeMeters>1184.800048828125</AltitudeMeters>
            <DistanceMeters>17002.65511931</DistanceMeters>
          </Trackpoint>
          <Trackpoint>
            <Time>2021-08-01T13:54:28.000Z</Time>
            <Position>
              <LatitudeDegrees>-15.39602399803698062896728515625</LatitudeDegrees>
              <LongitudeDegrees>37.0859111286699771881103515625</LongitudeDegrees>
            </Position>
            <AltitudeMeters>1185</AltitudeMeters>
            <DistanceMeters>17004.969171023</DistanceMeters>
          </Trackpoint>
          <Trackpoint>
            <Time>2021-08-01T13:54:35.000Z</Time>
            <Position>
              <LatitudeDegrees>-15.39603137411177158355712890625</LatitudeDegrees>
              <LongitudeDegrees>37.08583652973175048828125</LongitudeDegrees>
            </Position>
            <AltitudeMeters>1185.199951171875</AltitudeMeters>
            <DistanceMeters>17013.016200175</DistanceMeters>
          </Trackpoint>
          <Trackpoint>
            <Time>2021-08-01T13:54:36.000Z</Time>
            <Position>
              <LatitudeDegrees>-15.396031625568866729736328125</LatitudeDegrees>
              <LongitudeDegrees>37.08582605235278606414794921875</LongitudeDegrees>
            </Position>
            <AltitudeMeters>1185.4000244140625</AltitudeMeters>
            <DistanceMeters>17014.144579889</DistanceMeters>
          </Trackpoint>
          <Trackpoint>
            <Time>2021-08-01T13:54:38.000Z</Time>
            <Position>
              <LatitudeDegrees>-15.39602265693247318267822265625</LatitudeDegrees>
              <LongitudeDegrees>37.08580392412841320037841796875</LongitudeDegrees>
            </Position>
            <AltitudeMeters>1185.4000244140625</AltitudeMeters>
            <DistanceMeters>17016.720838065</DistanceMeters>
          </Trackpoint>
          <Trackpoint>
            <Time>2021-08-01T13:54:40.000Z</Time>
            <Position>
              <LatitudeDegrees>-15.3960076533257961273193359375</LatitudeDegrees>
              <LongitudeDegrees>37.08581398241221904754638671875</LongitudeDegrees>
            </Position>
            <AltitudeMeters>1185.4000244140625</AltitudeMeters>
            <DistanceMeters>17018.707328288</DistanceMeters>
          </Trackpoint>
          <Trackpoint>
            <Time>2021-08-01T13:54:44.000Z</Time>
            <Position>
              <LatitudeDegrees>-15.39597454480826854705810546875</LatitudeDegrees>
              <LongitudeDegrees>37.08584348671138286590576171875</LongitudeDegrees>
            </Position>
            <AltitudeMeters>1186</AltitudeMeters>
            <DistanceMeters>17023.565786873</DistanceMeters>
          </Trackpoint>
          <Trackpoint>
            <Time>2021-08-01T13:54:49.000Z</Time>
            <Position>
              <LatitudeDegrees>-15.395929031074047088623046875</LatitudeDegrees>
              <LongitudeDegrees>37.08587148226797580718994140625</LongitudeDegrees>
            </Position>
            <AltitudeMeters>1187.4000244140625</AltitudeMeters>
            <DistanceMeters>17029.455143682</DistanceMeters>
          </Trackpoint>
          <Trackpoint>
            <Time>2021-08-01T13:54:55.000Z</Time>
            <Position>
              <LatitudeDegrees>-15.3958757221698760986328125</LatitudeDegrees>
              <LongitudeDegrees>37.08590853027999401092529296875</LongitudeDegrees>
            </Position>
            <AltitudeMeters>1187.800048828125</AltitudeMeters>
            <DistanceMeters>17036.59733535</DistanceMeters>
          </Trackpoint>
          <Trackpoint>
            <Time>2021-08-01T13:54:58.000Z</Time>
            <Position>
              <LatitudeDegrees>-15.3958383388817310333251953125</LatitudeDegrees>
              <LongitudeDegrees>37.08592244423925876617431640625</LongitudeDegrees>
            </Position>
            <AltitudeMeters>1188</AltitudeMeters>
            <DistanceMeters>17041.017865344</DistanceMeters>
          </Trackpoint>
          <Trackpoint>
            <Time>2021-08-01T13:55:01.000Z</Time>
            <Position>
              <LatitudeDegrees>-15.39580673910677433013916015625</LatitudeDegrees>
              <LongitudeDegrees>37.0859409682452678680419921875</LongitudeDegrees>
            </Position>
            <AltitudeMeters>1187.800048828125</AltitudeMeters>
            <DistanceMeters>17045.058456663</DistanceMeters>
          </Trackpoint>
          <Trackpoint>
            <Time>2021-08-01T13:55:05.000Z</Time>
            <Position>
              <LatitudeDegrees>-15.3957672603428363800048828125</LatitudeDegrees>
              <LongitudeDegrees>37.08596862852573394775390625</LongitudeDegrees>
            </Position>
            <AltitudeMeters>1187.800048828125</AltitudeMeters>
            <DistanceMeters>17050.361253854</DistanceMeters>
          </Trackpoint>
          <Trackpoint>
            <Time>2021-08-01T13:55:09.000Z</Time>
            <Position>
              <LatitudeDegrees>-15.39573264308273792266845703125</LatitudeDegrees>
              <LongitudeDegrees>37.08597893826663494110107421875</LongitudeDegrees>
            </Position>
            <AltitudeMeters>1187.5999755859375</AltitudeMeters>
            <DistanceMeters>17054.370435325</DistanceMeters>
          </Trackpoint>
          <Trackpoint>
            <Time>2021-08-01T13:55:15.000Z</Time>
            <Position>
              <LatitudeDegrees>-15.39573281072080135345458984375</LatitudeDegrees>
              <LongitudeDegrees>37.0859815366566181182861328125</LongitudeDegrees>
            </Position>
            <AltitudeMeters>1187.4000244140625</AltitudeMeters>
            <DistanceMeters>17054.639211462</DistanceMeters>
          </Trackpoint>
          <Trackpoint>
            <Time>2021-08-01T13:55:22.000Z</Time>
            <Position>
              <LatitudeDegrees>-15.39570833556354045867919921875</LatitudeDegrees>
              <LongitudeDegrees>37.0860053412616252899169921875</LongitudeDegrees>
            </Position>
            <AltitudeMeters>1186.800048828125</AltitudeMeters>
            <DistanceMeters>17058.373168884</DistanceMeters>
          </Trackpoint>
          <Trackpoint>
            <Time>2021-08-01T13:55:23.000Z</Time>
            <Position>
              <LatitudeDegrees>-15.39569358341395854949951171875</LatitudeDegrees>
              <LongitudeDegrees>37.08600844256579875946044921875</LongitudeDegrees>
            </Position>
            <AltitudeMeters>1186.4000244140625</AltitudeMeters>
            <DistanceMeters>17060.048983245</DistanceMeters>
          </Trackpoint>
          <Trackpoint>
            <Time>2021-08-01T13:55:29.000Z</Time>
            <Position>
              <LatitudeDegrees>-15.39562292397022247314453125</LatitudeDegrees>
              <LongitudeDegrees>37.08601732738316059112548828125</LongitudeDegrees>
            </Position>
            <AltitudeMeters>1185.800048828125</AltitudeMeters>
            <DistanceMeters>17067.970473081</DistanceMeters>
          </Trackpoint>
          <Trackpoint>
            <Time>2021-08-01T13:55:31.000Z</Time>
            <Position>
              <LatitudeDegrees>-15.3956053219735622406005859375</LatitudeDegrees>
              <LongitudeDegrees>37.0860100351274013519287109375</LongitudeDegrees>
            </Position>
            <AltitudeMeters>1185.5999755859375</AltitudeMeters>
            <DistanceMeters>17070.08040855</DistanceMeters>
          </Trackpoint>
          <Trackpoint>
            <Time>2021-08-01T13:55:33.000Z</Time>
            <Position>
              <LatitudeDegrees>-15.3955989517271518707275390625</LatitudeDegrees>
              <LongitudeDegrees>37.0860029943287372589111328125</LongitudeDegrees>
            </Position>
            <AltitudeMeters>1185.199951171875</AltitudeMeters>
            <DistanceMeters>17071.121374051</DistanceMeters>
          </Trackpoint>
          <Trackpoint>
            <Time>2021-08-01T13:55:36.000Z</Time>
            <Position>
              <LatitudeDegrees>-15.3955754823982715606689453125</LatitudeDegrees>
              <LongitudeDegrees>37.08599788136780261993408203125</LongitudeDegrees>
            </Position>
            <AltitudeMeters>1185.199951171875</AltitudeMeters>
            <DistanceMeters>17073.790593097</DistanceMeters>
          </Trackpoint>
          <Trackpoint>
            <Time>2021-08-01T13:55:37.000Z</Time>
            <Position>
              <LatitudeDegrees>-15.395562909543514251708984375</LatitudeDegrees>
              <LongitudeDegrees>37.08599318750202655792236328125</LongitudeDegrees>
            </Position>
            <AltitudeMeters>1185</AltitudeMeters>
            <DistanceMeters>17075.274957827</DistanceMeters>
          </Trackpoint>
          <Trackpoint>
            <Time>2021-08-01T13:55:42.000Z</Time>
            <Position>
              <LatitudeDegrees>-15.39550893008708953857421875</LatitudeDegrees>
              <LongitudeDegrees>37.08597742952406406402587890625</LongitudeDegrees>
            </Position>
            <AltitudeMeters>1184.199951171875</AltitudeMeters>
            <DistanceMeters>17081.51713532</DistanceMeters>
          </Trackpoint>
          <Trackpoint>
            <Time>2021-08-01T13:55:43.000Z</Time>
            <Position>
              <LatitudeDegrees>-15.3954987041652202606201171875</LatitudeDegrees>
              <LongitudeDegrees>37.08597667515277862548828125</LongitudeDegrees>
            </Position>
            <AltitudeMeters>1183.800048828125</AltitudeMeters>
            <DistanceMeters>17082.657455893</DistanceMeters>
          </Trackpoint>
          <Trackpoint>
            <Time>2021-08-01T13:55:48.000Z</Time>
            <Position>
              <LatitudeDegrees>-15.39544631727039813995361328125</LatitudeDegrees>
              <LongitudeDegrees>37.085999138653278350830078125</LongitudeDegrees>
            </Position>
            <AltitudeMeters>1183.199951171875</AltitudeMeters>
            <DistanceMeters>17088.965827068</DistanceMeters>
          </Trackpoint>
          <Trackpoint>
            <Time>2021-08-01T13:55:50.000Z</Time>
            <Position>
              <LatitudeDegrees>-15.395420752465724945068359375</LatitudeDegrees>
              <LongitudeDegrees>37.0859899185597896575927734375</LongitudeDegrees>
            </Position>
            <AltitudeMeters>1183</AltitudeMeters>
            <DistanceMeters>17091.979837171</DistanceMeters>
          </Trackpoint>
          <Trackpoint>
            <Time>2021-08-01T13:55:51.000Z</Time>
            <Position>
              <LatitudeDegrees>-15.395407341420650482177734375</LatitudeDegrees>
              <LongitudeDegrees>37.08598815836012363433837890625</LongitudeDegrees>
            </Position>
            <AltitudeMeters>1182.4000244140625</AltitudeMeters>
            <DistanceMeters>17093.485343461</DistanceMeters>
          </Trackpoint>
          <Trackpoint>
            <Time>2021-08-01T13:55:54.000Z</Time>
            <Position>
              <LatitudeDegrees>-15.395371131598949432373046875</LatitudeDegrees>
              <LongitudeDegrees>37.0859822072088718414306640625</LongitudeDegrees>
            </Position>
            <AltitudeMeters>1181.800048828125</AltitudeMeters>
            <DistanceMeters>17097.567069939</DistanceMeters>
          </Trackpoint>
          <Trackpoint>
            <Time>2021-08-01T13:55:56.000Z</Time>
            <Position>
              <LatitudeDegrees>-15.39534975774586200714111328125</LatitudeDegrees>
              <LongitudeDegrees>37.08597843535244464874267578125</LongitudeDegrees>
            </Position>
            <AltitudeMeters>1181.199951171875</AltitudeMeters>
            <DistanceMeters>17099.98231928</DistanceMeters>
          </Trackpoint>
          <Trackpoint>
            <Time>2021-08-01T13:55:58.000Z</Time>
            <Position>
              <LatitudeDegrees>-15.39532545022666454315185546875</LatitudeDegrees>
              <LongitudeDegrees>37.08597592078149318695068359375</LongitudeDegrees>
            </Position>
            <AltitudeMeters>1181</AltitudeMeters>
            <DistanceMeters>17102.701810521</DistanceMeters>
          </Trackpoint>
          <Trackpoint>
            <Time>2021-08-01T13:56:03.000Z</Time>
            <Position>
              <LatitudeDegrees>-15.39526644162833690643310546875</LatitudeDegrees>
              <LongitudeDegrees>37.08597675897181034088134765625</LongitudeDegrees>
            </Position>
            <AltitudeMeters>1180</AltitudeMeters>
            <DistanceMeters>17109.271036908</DistanceMeters>
          </Trackpoint>
          <Trackpoint>
            <Time>2021-08-01T13:56:06.000Z</Time>
            <Position>
              <LatitudeDegrees>-15.39523542858660221099853515625</LatitudeDegrees>
              <LongitudeDegrees>37.0859701372683048248291015625</LongitudeDegrees>
            </Position>
            <AltitudeMeters>1179.4000244140625</AltitudeMeters>
            <DistanceMeters>17112.794721785</DistanceMeters>
          </Trackpoint>
          <Trackpoint>
            <Time>2021-08-01T13:56:08.000Z</Time>
            <Position>
              <LatitudeDegrees>-15.3952100314199924468994140625</LatitudeDegrees>
              <LongitudeDegrees>37.08596871234476566314697265625</LongitudeDegrees>
            </Position>
            <AltitudeMeters>1179</AltitudeMeters>
            <DistanceMeters>17115.626454096</DistanceMeters>
          </Trackpoint>
          <Trackpoint>
            <Time>2021-08-01T13:56:09.000Z</Time>
            <Position>
              <LatitudeDegrees>-15.395198129117488861083984375</LatitudeDegrees>
              <LongitudeDegrees>37.08596996963024139404296875</LongitudeDegrees>
            </Position>
            <AltitudeMeters>1178.5999755859375</AltitudeMeters>
            <DistanceMeters>17116.960217591</DistanceMeters>
          </Trackpoint>
          <Trackpoint>
            <Time>2021-08-01T13:56:14.000Z</Time>
            <Position>
              <LatitudeDegrees>-15.3951476700603961944580078125</LatitudeDegrees>
              <LongitudeDegrees>37.0859853923320770263671875</LongitudeDegrees>
            </Position>
            <AltitudeMeters>1177.5999755859375</AltitudeMeters>
            <DistanceMeters>17122.814973792</DistanceMeters>
          </Trackpoint>
          <Trackpoint>
            <Time>2021-08-01T13:56:15.000Z</Time>
            <Position>
              <LatitudeDegrees>-15.3951381146907806396484375</LatitudeDegrees>
              <LongitudeDegrees>37.0859909243881702423095703125</LongitudeDegrees>
            </Position>
            <AltitudeMeters>1177</AltitudeMeters>
            <DistanceMeters>17124.031909508</DistanceMeters>
          </Trackpoint>
          <Trackpoint>
            <Time>2021-08-01T13:56:17.000Z</Time>
            <Position>
              <LatitudeDegrees>-15.3951158188283443450927734375</LatitudeDegrees>
              <LongitudeDegrees>37.086003161966800689697265625</LongitudeDegrees>
            </Position>
            <AltitudeMeters>1176.4000244140625</AltitudeMeters>
            <DistanceMeters>17126.841230923</DistanceMeters>
          </Trackpoint>
          <Trackpoint>
            <Time>2021-08-01T13:56:21.000Z</Time>
            <Position>
              <LatitudeDegrees>-15.39508857764303684234619140625</LatitudeDegrees>
              <LongitudeDegrees>37.08603241480886936187744140625</LongitudeDegrees>
            </Position>
            <AltitudeMeters>1175.199951171875</AltitudeMeters>
            <DistanceMeters>17131.205223501</DistanceMeters>
          </Trackpoint>
          <Trackpoint>
            <Time>2021-08-01T13:56:22.000Z</Time>
            <Position>
              <LatitudeDegrees>-15.39508103393018245697021484375</LatitudeDegrees>
              <LongitudeDegrees>37.08603895269334316253662109375</LongitudeDegrees>
            </Position>
            <AltitudeMeters>1174.800048828125</AltitudeMeters>
            <DistanceMeters>17132.296997329</DistanceMeters>
          </Trackpoint>
          <Trackpoint>
            <Time>2021-08-01T13:56:23.000Z</Time>
            <Position>
              <LatitudeDegrees>-15.395072735846042633056640625</LatitudeDegrees>
              <LongitudeDegrees>37.086043395102024078369140625</LongitudeDegrees>
            </Position>
            <AltitudeMeters>1174.199951171875</AltitudeMeters>
            <DistanceMeters>17133.333616399</DistanceMeters>
          </Trackpoint>
          <Trackpoint>
            <Time>2021-08-01T13:56:25.000Z</Time>
            <Position>
              <LatitudeDegrees>-15.39505253545939922332763671875</LatitudeDegrees>
              <LongitudeDegrees>37.086050100624561309814453125</LongitudeDegrees>
            </Position>
            <AltitudeMeters>1173.5999755859375</AltitudeMeters>
            <DistanceMeters>17135.695943058</DistanceMeters>
          </Trackpoint>
          <Trackpoint>
            <Time>2021-08-01T13:56:27.000Z</Time>
            <Position>
              <LatitudeDegrees>-15.3950346820056438446044921875</LatitudeDegrees>
              <LongitudeDegrees>37.086060829460620880126953125</LongitudeDegrees>
            </Position>
            <AltitudeMeters>1173</AltitudeMeters>
            <DistanceMeters>17137.992367374</DistanceMeters>
          </Trackpoint>
          <Trackpoint>
            <Time>2021-08-01T13:56:32.000Z</Time>
            <Position>
              <LatitudeDegrees>-15.39498246274888515472412109375</LatitudeDegrees>
              <LongitudeDegrees>37.0860717259347438812255859375</LongitudeDegrees>
            </Position>
            <AltitudeMeters>1172</AltitudeMeters>
            <DistanceMeters>17143.921455635</DistanceMeters>
          </Trackpoint>
          <Trackpoint>
            <Time>2021-08-01T13:56:34.000Z</Time>
            <Position>
              <LatitudeDegrees>-15.394960753619670867919921875</LatitudeDegrees>
              <LongitudeDegrees>37.0860723964869976043701171875</LongitudeDegrees>
            </Position>
            <AltitudeMeters>1171.5999755859375</AltitudeMeters>
            <DistanceMeters>17146.340440863</DistanceMeters>
          </Trackpoint>
          <Trackpoint>
            <Time>2021-08-01T13:56:35.000Z</Time>
            <Position>
              <LatitudeDegrees>-15.39494675584137439727783203125</LatitudeDegrees>
              <LongitudeDegrees>37.0860750786960124969482421875</LongitudeDegrees>
            </Position>
            <AltitudeMeters>1171.4000244140625</AltitudeMeters>
            <DistanceMeters>17147.924852821</DistanceMeters>
          </Trackpoint>
          <Trackpoint>
            <Time>2021-08-01T13:56:37.000Z</Time>
            <Position>
              <LatitudeDegrees>-15.39492823183536529541015625</LatitudeDegrees>
              <LongitudeDegrees>37.08608538843691349029541015625</LongitudeDegrees>
            </Position>
            <AltitudeMeters>1171</AltitudeMeters>
            <DistanceMeters>17150.264131839</DistanceMeters>
          </Trackpoint>
          <Trackpoint>
            <Time>2021-08-01T13:56:41.000Z</Time>
            <Position>
              <LatitudeDegrees>-15.394892357289791107177734375</LatitudeDegrees>
              <LongitudeDegrees>37.0861141383647918701171875</LongitudeDegrees>
            </Position>
            <AltitudeMeters>1169.5999755859375</AltitudeMeters>
            <DistanceMeters>17155.310399328</DistanceMeters>
          </Trackpoint>
          <Trackpoint>
            <Time>2021-08-01T13:56:43.000Z</Time>
            <Position>
              <LatitudeDegrees>-15.3948737494647502899169921875</LatitudeDegrees>
              <LongitudeDegrees>37.086127884685993194580078125</LongitudeDegrees>
            </Position>
            <AltitudeMeters>1168.800048828125</AltitudeMeters>
            <DistanceMeters>17157.853140906</DistanceMeters>
          </Trackpoint>
          <Trackpoint>
            <Time>2021-08-01T13:56:44.000Z</Time>
            <Position>
              <LatitudeDegrees>-15.394866876304149627685546875</LatitudeDegrees>
              <LongitudeDegrees>37.08613283000886440277099609375</LongitudeDegrees>
            </Position>
            <AltitudeMeters>1168.5999755859375</AltitudeMeters>
            <DistanceMeters>17158.784208755</DistanceMeters>
          </Trackpoint>
          <Trackpoint>
            <Time>2021-08-01T13:56:48.000Z</Time>
            <Position>
              <LatitudeDegrees>-15.394834689795970916748046875</LatitudeDegrees>
              <LongitudeDegrees>37.0861516892910003662109375</LongitudeDegrees>
            </Position>
            <AltitudeMeters>1167.5999755859375</AltitudeMeters>
            <DistanceMeters>17162.898986189</DistanceMeters>
          </Trackpoint>
          <Trackpoint>
            <Time>2021-08-01T13:56:51.000Z</Time>
            <Position>
              <LatitudeDegrees>-15.3948028385639190673828125</LatitudeDegrees>
              <LongitudeDegrees>37.08616417832672595977783203125</LongitudeDegrees>
            </Position>
            <AltitudeMeters>1166.800048828125</AltitudeMeters>
            <DistanceMeters>17166.688157806</DistanceMeters>
          </Trackpoint>
          <Trackpoint>
            <Time>2021-08-01T13:56:52.000Z</Time>
            <Position>
              <LatitudeDegrees>-15.39479143917560577392578125</LatitudeDegrees>
              <LongitudeDegrees>37.08617071621119976043701171875</LongitudeDegrees>
            </Position>
            <AltitudeMeters>1166.199951171875</AltitudeMeters>
            <DistanceMeters>17168.138677648</DistanceMeters>
          </Trackpoint>
          <Trackpoint>
            <Time>2021-08-01T13:56:58.000Z</Time>
            <Position>
              <LatitudeDegrees>-15.3947329334914684295654296875</LatitudeDegrees>
              <LongitudeDegrees>37.0862038247287273406982421875</LongitudeDegrees>
            </Position>
            <AltitudeMeters>1165.199951171875</AltitudeMeters>
            <DistanceMeters>17175.556241653</DistanceMeters>
          </Trackpoint>
          <Trackpoint>
            <Time>2021-08-01T13:57:00.000Z</Time>
            <Position>
              <LatitudeDegrees>-15.39471642114222049713134765625</LatitudeDegrees>
              <LongitudeDegrees>37.08621648140251636505126953125</LongitudeDegrees>
            </Position>
            <AltitudeMeters>1164.5999755859375</AltitudeMeters>
            <DistanceMeters>17177.840838814</DistanceMeters>
          </Trackpoint>
          <Trackpoint>
            <Time>2021-08-01T13:57:02.000Z</Time>
            <Position>
              <LatitudeDegrees>-15.3946953825652599334716796875</LatitudeDegrees>
              <LongitudeDegrees>37.08623039536178112030029296875</LongitudeDegrees>
            </Position>
            <AltitudeMeters>1164</AltitudeMeters>
            <DistanceMeters>17180.617830942</DistanceMeters>
          </Trackpoint>
          <Trackpoint>
            <Time>2021-08-01T13:57:06.000Z</Time>
            <Position>
              <LatitudeDegrees>-15.39467099122703075408935546875</LatitudeDegrees>
              <LongitudeDegrees>37.08626291714608669281005859375</LongitudeDegrees>
            </Position>
            <AltitudeMeters>1163.4000244140625</AltitudeMeters>
            <DistanceMeters>17185.039382197</DistanceMeters>
          </Trackpoint>
          <Trackpoint>
            <Time>2021-08-01T13:57:09.000Z</Time>
            <Position>
              <LatitudeDegrees>-15.3946608491241931915283203125</LatitudeDegrees>
              <LongitudeDegrees>37.0862977020442485809326171875</LongitudeDegrees>
            </Position>
            <AltitudeMeters>1162.800048828125</AltitudeMeters>
            <DistanceMeters>17188.938952524</DistanceMeters>
          </Trackpoint>
          <Trackpoint>
            <Time>2021-08-01T13:57:11.000Z</Time>
            <Position>
              <LatitudeDegrees>-15.39465053938329219818115234375</LatitudeDegrees>
              <LongitudeDegrees>37.0863194949924945831298828125</LongitudeDegrees>
            </Position>
            <AltitudeMeters>1162</AltitudeMeters>
            <DistanceMeters>17191.54483385</DistanceMeters>
          </Trackpoint>
          <Trackpoint>
            <Time>2021-08-01T13:57:15.000Z</Time>
            <Position>
              <LatitudeDegrees>-15.3946393914520740509033203125</LatitudeDegrees>
              <LongitudeDegrees>37.08635712973773479461669921875</LongitudeDegrees>
            </Position>
            <AltitudeMeters>1161.5999755859375</AltitudeMeters>
            <DistanceMeters>17195.76898241</DistanceMeters>
          </Trackpoint>
          <Trackpoint>
            <Time>2021-08-01T13:57:19.000Z</Time>
            <Position>
              <LatitudeDegrees>-15.39462002925574779510498046875</LatitudeDegrees>
              <LongitudeDegrees>37.0864056609570980072021484375</LongitudeDegrees>
            </Position>
            <AltitudeMeters>1161.199951171875</AltitudeMeters>
            <DistanceMeters>17201.404475188</DistanceMeters>
          </Trackpoint>
          <Trackpoint>
            <Time>2021-08-01T13:57:20.000Z</Time>
            <Position>
              <LatitudeDegrees>-15.3946177661418914794921875</LatitudeDegrees>
              <LongitudeDegrees>37.08641563542187213897705078125</LongitudeDegrees>
            </Position>
            <AltitudeMeters>1160.5999755859375</AltitudeMeters>
            <DistanceMeters>17202.50037672</DistanceMeters>
          </Trackpoint>
          <Trackpoint>
            <Time>2021-08-01T13:57:25.000Z</Time>
            <Position>
              <LatitudeDegrees>-15.3946058638393878936767578125</LatitudeDegrees>
              <LongitudeDegrees>37.0864700339734554290771484375</LongitudeDegrees>
            </Position>
            <AltitudeMeters>1159.4000244140625</AltitudeMeters>
            <DistanceMeters>17208.486305497</DistanceMeters>
          </Trackpoint>
          <Trackpoint>
            <Time>2021-08-01T13:57:29.000Z</Time>
            <Position>
              <LatitudeDegrees>-15.394600667059421539306640625</LatitudeDegrees>
              <LongitudeDegrees>37.08650381304323673248291015625</LongitudeDegrees>
            </Position>
            <AltitudeMeters>1158.5999755859375</AltitudeMeters>
            <DistanceMeters>17212.156846881</DistanceMeters>
          </Trackpoint>
          <Trackpoint>
            <Time>2021-08-01T13:57:31.000Z</Time>
            <Position>
              <LatitudeDegrees>-15.39459438063204288482666015625</LatitudeDegrees>
              <LongitudeDegrees>37.08651848137378692626953125</LongitudeDegrees>
            </Position>
            <AltitudeMeters>1158.199951171875</AltitudeMeters>
            <DistanceMeters>17213.877853876</DistanceMeters>
          </Trackpoint>
          <Trackpoint>
            <Time>2021-08-01T13:57:34.000Z</Time>
            <Position>
              <LatitudeDegrees>-15.39457577280700206756591796875</LatitudeDegrees>
              <LongitudeDegrees>37.086540274322032928466796875</LongitudeDegrees>
            </Position>
            <AltitudeMeters>1157</AltitudeMeters>
            <DistanceMeters>17217.002195828</DistanceMeters>
          </Trackpoint>
          <Trackpoint>
            <Time>2021-08-01T13:57:37.000Z</Time>
            <Position>
              <LatitudeDegrees>-15.3945559076964855194091796875</LatitudeDegrees>
              <LongitudeDegrees>37.08656609058380126953125</LongitudeDegrees>
            </Position>
            <AltitudeMeters>1156.5999755859375</AltitudeMeters>
            <DistanceMeters>17220.547596568</DistanceMeters>
          </Trackpoint>
          <Trackpoint>
            <Time>2021-08-01T13:57:40.000Z</Time>
            <Position>
              <LatitudeDegrees>-15.39453185163438320159912109375</LatitudeDegrees>
              <LongitudeDegrees>37.0865927450358867645263671875</LongitudeDegrees>
            </Position>
            <AltitudeMeters>1156</AltitudeMeters>
            <DistanceMeters>17224.465648374</DistanceMeters>
          </Trackpoint>
          <Trackpoint>
            <Time>2021-08-01T13:57:46.000Z</Time>
            <Position>
              <LatitudeDegrees>-15.39449639618396759033203125</LatitudeDegrees>
              <LongitudeDegrees>37.086646892130374908447265625</LongitudeDegrees>
            </Position>
            <AltitudeMeters>1155</AltitudeMeters>
            <DistanceMeters>17231.489916143</DistanceMeters>
          </Trackpoint>
          <Trackpoint>
            <Time>2021-08-01T13:57:47.000Z</Time>
            <Position>
              <LatitudeDegrees>-15.3944888524711132049560546875</LatitudeDegrees>
              <LongitudeDegrees>37.0866571180522441864013671875</LongitudeDegrees>
            </Position>
            <AltitudeMeters>1154.800048828125</AltitudeMeters>
            <DistanceMeters>17232.866984062</DistanceMeters>
          </Trackpoint>
          <Trackpoint>
            <Time>2021-08-01T13:57:54.000Z</Time>
            <Position>
              <LatitudeDegrees>-15.39442799985408782958984375</LatitudeDegrees>
              <LongitudeDegrees>37.08671051077544689178466796875</LongitudeDegrees>
            </Position>
            <AltitudeMeters>1154</AltitudeMeters>
            <DistanceMeters>17241.738123572</DistanceMeters>
          </Trackpoint>
          <Trackpoint>
            <Time>2021-08-01T13:57:56.000Z</Time>
            <Position>
              <LatitudeDegrees>-15.3944147564470767974853515625</LatitudeDegrees>
              <LongitudeDegrees>37.086730040609836578369140625</LongitudeDegrees>
            </Position>
            <AltitudeMeters>1153.800048828125</AltitudeMeters>
            <DistanceMeters>17244.300322935</DistanceMeters>
          </Trackpoint>
          <Trackpoint>
            <Time>2021-08-01T13:58:02.000Z</Time>
            <Position>
              <LatitudeDegrees>-15.3943842463195323944091796875</LatitudeDegrees>
              <LongitudeDegrees>37.08678536117076873779296875</LongitudeDegrees>
            </Position>
            <AltitudeMeters>1152.800048828125</AltitudeMeters>
            <DistanceMeters>17251.138946035</DistanceMeters>
          </Trackpoint>
          <Trackpoint>
            <Time>2021-08-01T13:58:03.000Z</Time>
            <Position>
              <LatitudeDegrees>-15.39438349194824695587158203125</LatitudeDegrees>
              <LongitudeDegrees>37.08679550327360630035400390625</LongitudeDegrees>
            </Position>
            <AltitudeMeters>1152.800048828125</AltitudeMeters>
            <DistanceMeters>17252.230719863</DistanceMeters>
          </Trackpoint>
          <Trackpoint>
            <Time>2021-08-01T13:58:06.000Z</Time>
            <Position>
              <LatitudeDegrees>-15.39438114501535892486572265625</LatitudeDegrees>
              <LongitudeDegrees>37.08682752214372158050537109375</LongitudeDegrees>
            </Position>
            <AltitudeMeters>1151.800048828125</AltitudeMeters>
            <DistanceMeters>17255.675356338</DistanceMeters>
          </Trackpoint>
          <Trackpoint>
            <Time>2021-08-01T13:58:11.000Z</Time>
            <Position>
              <LatitudeDegrees>-15.39438097737729549407958984375</LatitudeDegrees>
              <LongitudeDegrees>37.086846716701984405517578125</LongitudeDegrees>
            </Position>
            <AltitudeMeters>1151.199951171875</AltitudeMeters>
            <DistanceMeters>17257.733293619</DistanceMeters>
          </Trackpoint>
          <Trackpoint>
            <Time>2021-08-01T13:58:14.000Z</Time>
            <Position>
              <LatitudeDegrees>-15.39435960352420806884765625</LatitudeDegrees>
              <LongitudeDegrees>37.08685107529163360595703125</LongitudeDegrees>
            </Position>
            <AltitudeMeters>1151.199951171875</AltitudeMeters>
            <DistanceMeters>17260.156008973</DistanceMeters>
          </Trackpoint>
          <Trackpoint>
            <Time>2021-08-01T13:58:17.000Z</Time>
            <Position>
              <LatitudeDegrees>-15.39432900957763195037841796875</LatitudeDegrees>
              <LongitudeDegrees>37.08687731064856052398681640625</LongitudeDegrees>
            </Position>
            <AltitudeMeters>1151</AltitudeMeters>
            <DistanceMeters>17264.57245156</DistanceMeters>
          </Trackpoint>
          <Trackpoint>
            <Time>2021-08-01T13:58:20.000Z</Time>
            <Position>
              <LatitudeDegrees>-15.3942977450788021087646484375</LatitudeDegrees>
              <LongitudeDegrees>37.08690471947193145751953125</LongitudeDegrees>
            </Position>
            <AltitudeMeters>1150.4000244140625</AltitudeMeters>
            <DistanceMeters>17269.127790808</DistanceMeters>
          </Trackpoint>
          <Trackpoint>
            <Time>2021-08-01T13:58:23.000Z</Time>
            <Position>
              <LatitudeDegrees>-15.39426614530384540557861328125</LatitudeDegrees>
              <LongitudeDegrees>37.08692575804889202117919921875</LongitudeDegrees>
            </Position>
            <AltitudeMeters>1150</AltitudeMeters>
            <DistanceMeters>17273.306805984</DistanceMeters>
          </Trackpoint>
          <Trackpoint>
            <Time>2021-08-01T13:58:26.000Z</Time>
            <Position>
              <LatitudeDegrees>-15.3942340426146984100341796875</LatitudeDegrees>
              <LongitudeDegrees>37.0869471319019794464111328125</LongitudeDegrees>
            </Position>
            <AltitudeMeters>1149.4000244140625</AltitudeMeters>
            <DistanceMeters>17277.553341356</DistanceMeters>
          </Trackpoint>
          <Trackpoint>
            <Time>2021-08-01T13:58:32.000Z</Time>
            <Position>
              <LatitudeDegrees>-15.3942018561065196990966796875</LatitudeDegrees>
              <LongitudeDegrees>37.08698761649429798126220703125</LongitudeDegrees>
            </Position>
            <AltitudeMeters>1149</AltitudeMeters>
            <DistanceMeters>17283.184826814</DistanceMeters>
          </Trackpoint>
          <Trackpoint>
            <Time>2021-08-01T13:58:34.000Z</Time>
            <Position>
              <LatitudeDegrees>-15.39418383501470088958740234375</LatitudeDegrees>
              <LongitudeDegrees>37.0870047993957996368408203125</LongitudeDegrees>
            </Position>
            <AltitudeMeters>1148.800048828125</AltitudeMeters>
            <DistanceMeters>17285.909294255</DistanceMeters>
          </Trackpoint>
          <Trackpoint>
            <Time>2021-08-01T13:58:35.000Z</Time>
            <Position>
              <LatitudeDegrees>-15.39417528547346591949462890625</LatitudeDegrees>
              <LongitudeDegrees>37.0870148576796054840087890625</LongitudeDegrees>
            </Position>
            <AltitudeMeters>1148.199951171875</AltitudeMeters>
            <DistanceMeters>17287.347309382</DistanceMeters>
          </Trackpoint>
          <Trackpoint>
            <Time>2021-08-01T13:58:40.000Z</Time>
            <Position>
              <LatitudeDegrees>-15.39412566460669040679931640625</LatitudeDegrees>
              <LongitudeDegrees>37.0870601199567317962646484375</LongitudeDegrees>
            </Position>
            <AltitudeMeters>1147.4000244140625</AltitudeMeters>
            <DistanceMeters>17294.702524401</DistanceMeters>
          </Trackpoint>
          <Trackpoint>
            <Time>2021-08-01T13:58:42.000Z</Time>
            <Position>
              <LatitudeDegrees>-15.39409968070685863494873046875</LatitudeDegrees>
              <LongitudeDegrees>37.08707864396274089813232421875</LongitudeDegrees>
            </Position>
            <AltitudeMeters>1147</AltitudeMeters>
            <DistanceMeters>17298.212086236</DistanceMeters>
          </Trackpoint>
          <Trackpoint>
            <Time>2021-08-01T13:58:43.000Z</Time>
            <Position>
              <LatitudeDegrees>-15.39408928714692592620849609375</LatitudeDegrees>
              <LongitudeDegrees>37.08708803169429302215576171875</LongitudeDegrees>
            </Position>
            <AltitudeMeters>1147</AltitudeMeters>
            <DistanceMeters>17299.74728979</DistanceMeters>
          </Trackpoint>
          <Trackpoint>
            <Time>2021-08-01T13:58:47.000Z</Time>
            <Position>
              <LatitudeDegrees>-15.3940516524016857147216796875</LatitudeDegrees>
              <LongitudeDegrees>37.0871172845363616943359375</LongitudeDegrees>
            </Position>
            <AltitudeMeters>1146</AltitudeMeters>
            <DistanceMeters>17304.981528219</DistanceMeters>
          </Trackpoint>
          <Trackpoint>
            <Time>2021-08-01T13:58:52.000Z</Time>
            <Position>
              <LatitudeDegrees>-15.39400245063006877899169921875</LatitudeDegrees>
              <LongitudeDegrees>37.0871684141457080841064453125</LongitudeDegrees>
            </Position>
            <AltitudeMeters>1145.5999755859375</AltitudeMeters>
            <DistanceMeters>17312.733634947</DistanceMeters>
          </Trackpoint>
          <Trackpoint>
            <Time>2021-08-01T13:58:54.000Z</Time>
            <Position>
              <LatitudeDegrees>-15.3939896263182163238525390625</LatitudeDegrees>
              <LongitudeDegrees>37.08719565533101558685302734375</LongitudeDegrees>
            </Position>
            <AltitudeMeters>1145</AltitudeMeters>
            <DistanceMeters>17315.986825626</DistanceMeters>
          </Trackpoint>
          <Trackpoint>
            <Time>2021-08-01T13:59:01.000Z</Time>
            <Position>
              <LatitudeDegrees>-15.39394788444042205810546875</LatitudeDegrees>
              <LongitudeDegrees>37.08727444522082805633544921875</LongitudeDegrees>
            </Position>
            <AltitudeMeters>1144</AltitudeMeters>
            <DistanceMeters>17325.633792395</DistanceMeters>
          </Trackpoint>
          <Trackpoint>
            <Time>2021-08-01T13:59:02.000Z</Time>
            <Position>
              <LatitudeDegrees>-15.39394008927047252655029296875</LatitudeDegrees>
              <LongitudeDegrees>37.0872850902378559112548828125</LongitudeDegrees>
            </Position>
            <AltitudeMeters>1143.800048828125</AltitudeMeters>
            <DistanceMeters>17327.068664315</DistanceMeters>
          </Trackpoint>
          <Trackpoint>
            <Time>2021-08-01T13:59:05.000Z</Time>
            <Position>
              <LatitudeDegrees>-15.39391829632222652435302734375</LatitudeDegrees>
              <LongitudeDegrees>37.08731635473668575286865234375</LongitudeDegrees>
            </Position>
            <AltitudeMeters>1143.199951171875</AltitudeMeters>
            <DistanceMeters>17331.208602128</DistanceMeters>
          </Trackpoint>
          <Trackpoint>
            <Time>2021-08-01T13:59:07.000Z</Time>
            <Position>
              <LatitudeDegrees>-15.39390287362039089202880859375</LatitudeDegrees>
              <LongitudeDegrees>37.08734066225588321685791015625</LongitudeDegrees>
            </Position>
            <AltitudeMeters>1143</AltitudeMeters>
            <DistanceMeters>17334.331498629</DistanceMeters>
          </Trackpoint>
          <Trackpoint>
            <Time>2021-08-01T13:59:11.000Z</Time>
            <Position>
              <LatitudeDegrees>-15.39386875927448272705078125</LatitudeDegrees>
              <LongitudeDegrees>37.0873819850385189056396484375</LongitudeDegrees>
            </Position>
            <AltitudeMeters>1142.5999755859375</AltitudeMeters>
            <DistanceMeters>17340.170037708</DistanceMeters>
          </Trackpoint>
          <Trackpoint>
            <Time>2021-08-01T13:59:14.000Z</Time>
            <Position>
              <LatitudeDegrees>-15.3938390873372554779052734375</LatitudeDegrees>
              <LongitudeDegrees>37.08741995505988597869873046875</LongitudeDegrees>
            </Position>
            <AltitudeMeters>1142</AltitudeMeters>
            <DistanceMeters>17345.415477911</DistanceMeters>
          </Trackpoint>
          <Trackpoint>
            <Time>2021-08-01T13:59:15.000Z</Time>
            <Position>
              <LatitudeDegrees>-15.393833555281162261962890625</LatitudeDegrees>
              <LongitudeDegrees>37.0874272473156452178955078125</LongitudeDegrees>
            </Position>
            <AltitudeMeters>1141.5999755859375</AltitudeMeters>
            <DistanceMeters>17346.4121265</DistanceMeters>
          </Trackpoint>
          <Trackpoint>
            <Time>2021-08-01T13:59:20.000Z</Time>
            <Position>
              <LatitudeDegrees>-15.3937924839556217193603515625</LatitudeDegrees>
              <LongitudeDegrees>37.08748005330562591552734375</LongitudeDegrees>
            </Position>
            <AltitudeMeters>1140.5999755859375</AltitudeMeters>
            <DistanceMeters>17353.692065967</DistanceMeters>
          </Trackpoint>
          <Trackpoint>
            <Time>2021-08-01T13:59:21.000Z</Time>
            <Position>
              <LatitudeDegrees>-15.39378435350954532623291015625</LatitudeDegrees>
              <LongitudeDegrees>37.08748877048492431640625</LongitudeDegrees>
            </Position>
            <AltitudeMeters>1140.5999755859375</AltitudeMeters>
            <DistanceMeters>17354.998467302</DistanceMeters>
          </Trackpoint>
          <Trackpoint>
            <Time>2021-08-01T13:59:27.000Z</Time>
            <Position>
              <LatitudeDegrees>-15.39375250227749347686767578125</LatitudeDegrees>
              <LongitudeDegrees>37.08756010048091411590576171875</LongitudeDegrees>
            </Position>
            <AltitudeMeters>1139.4000244140625</AltitudeMeters>
            <DistanceMeters>17363.433928308</DistanceMeters>
          </Trackpoint>
          <Trackpoint>
            <Time>2021-08-01T13:59:31.000Z</Time>
            <Position>
              <LatitudeDegrees>-15.393734313547611236572265625</LatitudeDegrees>
              <LongitudeDegrees>37.08760343492031097412109375</LongitudeDegrees>
            </Position>
            <AltitudeMeters>1139</AltitudeMeters>
            <DistanceMeters>17368.505186309</DistanceMeters>
          </Trackpoint>
          <Trackpoint>
            <Time>2021-08-01T13:59:37.000Z</Time>
            <Position>
              <LatitudeDegrees>-15.39371495135128498077392578125</LatitudeDegrees>
              <LongitudeDegrees>37.08765716291964054107666015625</LongitudeDegrees>
            </Position>
            <AltitudeMeters>1138.199951171875</AltitudeMeters>
            <DistanceMeters>17374.659954435</DistanceMeters>
          </Trackpoint>
          <Trackpoint>
            <Time>2021-08-01T13:59:41.000Z</Time>
            <Position>
              <LatitudeDegrees>-15.39371545426547527313232421875</LatitudeDegrees>
              <LongitudeDegrees>37.08766378462314605712890625</LongitudeDegrees>
            </Position>
            <AltitudeMeters>1138.199951171875</AltitudeMeters>
            <DistanceMeters>17375.377390395</DistanceMeters>
          </Trackpoint>
          <Trackpoint>
            <Time>2021-08-01T13:59:47.000Z</Time>
            <Position>
              <LatitudeDegrees>-15.3937281109392642974853515625</LatitudeDegrees>
              <LongitudeDegrees>37.0876046083867549896240234375</LongitudeDegrees>
            </Position>
            <AltitudeMeters>1139.199951171875</AltitudeMeters>
            <DistanceMeters>17381.881689599</DistanceMeters>
          </Trackpoint>
          <Trackpoint>
            <Time>2021-08-01T13:59:48.000Z</Time>
            <Position>
              <LatitudeDegrees>-15.39372668601572513580322265625</LatitudeDegrees>
              <LongitudeDegrees>37.08759396336972713470458984375</LongitudeDegrees>
            </Position>
            <AltitudeMeters>1139.4000244140625</AltitudeMeters>
            <DistanceMeters>17383.037739475</DistanceMeters>
          </Trackpoint>
          <Trackpoint>
            <Time>2021-08-01T13:59:49.000Z</Time>
            <Position>
              <LatitudeDegrees>-15.39372199214994907379150390625</LatitudeDegrees>
              <LongitudeDegrees>37.0875858329236507415771484375</LongitudeDegrees>
            </Position>
            <AltitudeMeters>1139.4000244140625</AltitudeMeters>
            <DistanceMeters>17384.056787457</DistanceMeters>
          </Trackpoint>
          <Trackpoint>
            <Time>2021-08-01T13:59:50.000Z</Time>
            <Position>
              <LatitudeDegrees>-15.39371461607515811920166015625</LatitudeDegrees>
              <LongitudeDegrees>37.08757988177239894866943359375</LongitudeDegrees>
            </Position>
            <AltitudeMeters>1139.4000244140625</AltitudeMeters>
            <DistanceMeters>17385.102081315</DistanceMeters>
          </Trackpoint>
          <Trackpoint>
            <Time>2021-08-01T13:59:54.000Z</Time>
            <Position>
              <LatitudeDegrees>-15.39368947036564350128173828125</LatitudeDegrees>
              <LongitudeDegrees>37.08755515515804290771484375</LongitudeDegrees>
            </Position>
            <AltitudeMeters>1139.199951171875</AltitudeMeters>
            <DistanceMeters>17388.959744595</DistanceMeters>
          </Trackpoint>
          <Trackpoint>
            <Time>2021-08-01T13:59:57.000Z</Time>
            <Position>
              <LatitudeDegrees>-15.39367773570120334625244140625</LatitudeDegrees>
              <LongitudeDegrees>37.087566219270229339599609375</LongitudeDegrees>
            </Position>
            <AltitudeMeters>1139.199951171875</AltitudeMeters>
            <DistanceMeters>17390.722227587</DistanceMeters>
          </Trackpoint>
          <Trackpoint>
            <Time>2021-08-01T14:00:05.000Z</Time>
            <Position>
              <LatitudeDegrees>-15.3936530090868473052978515625</LatitudeDegrees>
              <LongitudeDegrees>37.08760653622448444366455078125</LongitudeDegrees>
            </Position>
            <AltitudeMeters>1138.5999755859375</AltitudeMeters>
            <DistanceMeters>17395.850149447</DistanceMeters>
          </Trackpoint>
          <Trackpoint>
            <Time>2021-08-01T14:00:07.000Z</Time>
            <Position>
              <LatitudeDegrees>-15.3936466388404369354248046875</LatitudeDegrees>
              <LongitudeDegrees>37.08761676214635372161865234375</LongitudeDegrees>
            </Position>
            <AltitudeMeters>1137.800048828125</AltitudeMeters>
            <DistanceMeters>17397.156550782</DistanceMeters>
          </Trackpoint>
          <Trackpoint>
            <Time>2021-08-01T14:00:09.000Z</Time>
            <Position>
              <LatitudeDegrees>-15.3936349041759967803955078125</LatitudeDegrees>
              <LongitudeDegrees>37.0876344479620456695556640625</LongitudeDegrees>
            </Position>
            <AltitudeMeters>1137.5999755859375</AltitudeMeters>
            <DistanceMeters>17399.460826145</DistanceMeters>
          </Trackpoint>
          <Trackpoint>
            <Time>2021-08-01T14:00:14.000Z</Time>
            <Position>
              <LatitudeDegrees>-15.3936100937426090240478515625</LatitudeDegrees>
              <LongitudeDegrees>37.087678201496601104736328125</LongitudeDegrees>
            </Position>
            <AltitudeMeters>1136.800048828125</AltitudeMeters>
            <DistanceMeters>17404.907274632</DistanceMeters>
          </Trackpoint>
          <Trackpoint>
            <Time>2021-08-01T14:00:17.000Z</Time>
            <Position>
              <LatitudeDegrees>-15.39359978400170803070068359375</LatitudeDegrees>
              <LongitudeDegrees>37.08770359866321086883544921875</LongitudeDegrees>
            </Position>
            <AltitudeMeters>1136.5999755859375</AltitudeMeters>
            <DistanceMeters>17407.865338876</DistanceMeters>
          </Trackpoint>
          <Trackpoint>
            <Time>2021-08-01T14:00:22.000Z</Time>
            <Position>
              <LatitudeDegrees>-15.39356625638902187347412109375</LatitudeDegrees>
              <LongitudeDegrees>37.0877410657703876495361328125</LongitudeDegrees>
            </Position>
            <AltitudeMeters>1135.5999755859375</AltitudeMeters>
            <DistanceMeters>17413.350611405</DistanceMeters>
          </Trackpoint>
          <Trackpoint>
            <Time>2021-08-01T14:00:23.000Z</Time>
            <Position>
              <LatitudeDegrees>-15.39355820976197719573974609375</LatitudeDegrees>
              <LongitudeDegrees>37.08775020204484462738037109375</LongitudeDegrees>
            </Position>
            <AltitudeMeters>1135.4000244140625</AltitudeMeters>
            <DistanceMeters>17414.680985406</DistanceMeters>
          </Trackpoint>
          <Trackpoint>
            <Time>2021-08-01T14:00:25.000Z</Time>
            <Position>
              <LatitudeDegrees>-15.39354429580271244049072265625</LatitudeDegrees>
              <LongitudeDegrees>37.08776596002280712127685546875</LongitudeDegrees>
            </Position>
            <AltitudeMeters>1135.199951171875</AltitudeMeters>
            <DistanceMeters>17416.975442764</DistanceMeters>
          </Trackpoint>
          <Trackpoint>
            <Time>2021-08-01T14:00:29.000Z</Time>
            <Position>
              <LatitudeDegrees>-15.3935205750167369842529296875</LatitudeDegrees>
              <LongitudeDegrees>37.08780367858707904815673828125</LongitudeDegrees>
            </Position>
            <AltitudeMeters>1134.5999755859375</AltitudeMeters>
            <DistanceMeters>17421.807810474</DistanceMeters>
          </Trackpoint>
          <Trackpoint>
            <Time>2021-08-01T14:00:31.000Z</Time>
            <Position>
              <LatitudeDegrees>-15.39351277984678745269775390625</LatitudeDegrees>
              <LongitudeDegrees>37.0878232084214687347412109375</LongitudeDegrees>
            </Position>
            <AltitudeMeters>1134.4000244140625</AltitudeMeters>
            <DistanceMeters>17424.074551195</DistanceMeters>
          </Trackpoint>
          <Trackpoint>
            <Time>2021-08-01T14:00:36.000Z</Time>
            <Position>
              <LatitudeDegrees>-15.39347774349153041839599609375</LatitudeDegrees>
              <LongitudeDegrees>37.087855227291584014892578125</LongitudeDegrees>
            </Position>
            <AltitudeMeters>1134</AltitudeMeters>
            <DistanceMeters>17429.271565592</DistanceMeters>
          </Trackpoint>
          <Trackpoint>
            <Time>2021-08-01T14:00:38.000Z</Time>
            <Position>
              <LatitudeDegrees>-15.39345838129520416259765625</LatitudeDegrees>
              <LongitudeDegrees>37.0878728292882442474365234375</LongitudeDegrees>
            </Position>
            <AltitudeMeters>1133.199951171875</AltitudeMeters>
            <DistanceMeters>17432.136585572</DistanceMeters>
          </Trackpoint>
          <Trackpoint>
            <Time>2021-08-01T14:00:45.000Z</Time>
            <Position>
              <LatitudeDegrees>-15.3933971934020519256591796875</LatitudeDegrees>
              <LongitudeDegrees>37.08792571909725666046142578125</LongitudeDegrees>
            </Position>
            <AltitudeMeters>1132.199951171875</AltitudeMeters>
            <DistanceMeters>17441.002124776</DistanceMeters>
          </Trackpoint>
          <Trackpoint>
            <Time>2021-08-01T14:00:46.000Z</Time>
            <Position>
              <LatitudeDegrees>-15.3933919966220855712890625</LatitudeDegrees>
              <LongitudeDegrees>37.08792974241077899932861328125</LongitudeDegrees>
            </Position>
            <AltitudeMeters>1131.800048828125</AltitudeMeters>
            <DistanceMeters>17441.725826671</DistanceMeters>
          </Trackpoint>
          <Trackpoint>
            <Time>2021-08-01T14:00:51.000Z</Time>
            <Position>
              <LatitudeDegrees>-15.3933562897145748138427734375</LatitudeDegrees>
              <LongitudeDegrees>37.08794717676937580108642578125</LongitudeDegrees>
            </Position>
            <AltitudeMeters>1131.199951171875</AltitudeMeters>
            <DistanceMeters>17446.119720552</DistanceMeters>
          </Trackpoint>
          <Trackpoint>
            <Time>2021-08-01T14:00:54.000Z</Time>
            <Position>
              <LatitudeDegrees>-15.3933368436992168426513671875</LatitudeDegrees>
              <LongitudeDegrees>37.08796955645084381103515625</LongitudeDegrees>
            </Position>
            <AltitudeMeters>1131.199951171875</AltitudeMeters>
            <DistanceMeters>17449.353422536</DistanceMeters>
          </Trackpoint>
          <Trackpoint>
            <Time>2021-08-01T14:00:55.000Z</Time>
            <Position>
              <LatitudeDegrees>-15.393332652747631072998046875</LatitudeDegrees>
              <LongitudeDegrees>37.08797567524015903472900390625</LongitudeDegrees>
            </Position>
            <AltitudeMeters>1131.199951171875</AltitudeMeters>
            <DistanceMeters>17450.154131864</DistanceMeters>
          </Trackpoint>
          <Trackpoint>
            <Time>2021-08-01T14:00:59.000Z</Time>
            <Position>
              <LatitudeDegrees>-15.3933190740644931793212890625</LatitudeDegrees>
              <LongitudeDegrees>37.08798673935234546661376953125</LongitudeDegrees>
            </Position>
            <AltitudeMeters>1130.800048828125</AltitudeMeters>
            <DistanceMeters>17452.078276178</DistanceMeters>
          </Trackpoint>
          <Trackpoint>
            <Time>2021-08-01T14:01:00.000Z</Time>
            <Position>
              <LatitudeDegrees>-15.393311195075511932373046875</LatitudeDegrees>
              <LongitudeDegrees>37.08798808045685291290283203125</LongitudeDegrees>
            </Position>
            <AltitudeMeters>1130.5999755859375</AltitudeMeters>
            <DistanceMeters>17452.964626364</DistanceMeters>
          </Trackpoint>
          <Trackpoint>
            <Time>2021-08-01T14:01:01.000Z</Time>
            <Position>
              <LatitudeDegrees>-15.393302477896213531494140625</LatitudeDegrees>
              <LongitudeDegrees>37.0879895053803920745849609375</LongitudeDegrees>
            </Position>
            <AltitudeMeters>1130.4000244140625</AltitudeMeters>
            <DistanceMeters>17453.94759034</DistanceMeters>
          </Trackpoint>
          <Trackpoint>
            <Time>2021-08-01T14:01:04.000Z</Time>
            <Position>
              <LatitudeDegrees>-15.393269620835781097412109375</LatitudeDegrees>
              <LongitudeDegrees>37.08800182677805423736572265625</LongitudeDegrees>
            </Position>
            <AltitudeMeters>1129.4000244140625</AltitudeMeters>
            <DistanceMeters>17457.83556513</DistanceMeters>
          </Trackpoint>
          <Trackpoint>
            <Time>2021-08-01T14:01:07.000Z</Time>
            <Position>
              <LatitudeDegrees>-15.393246822059154510498046875</LatitudeDegrees>
              <LongitudeDegrees>37.0880153216421604156494140625</LongitudeDegrees>
            </Position>
            <AltitudeMeters>1128.5999755859375</AltitudeMeters>
            <DistanceMeters>17460.758312522</DistanceMeters>
          </Trackpoint>
          <Trackpoint>
            <Time>2021-08-01T14:01:11.000Z</Time>
            <Position>
              <LatitudeDegrees>-15.3932282142341136932373046875</LatitudeDegrees>
              <LongitudeDegrees>37.088033258914947509765625</LongitudeDegrees>
            </Position>
            <AltitudeMeters>1128.199951171875</AltitudeMeters>
            <DistanceMeters>17463.586854148</DistanceMeters>
          </Trackpoint>
          <Trackpoint>
            <Time>2021-08-01T14:01:15.000Z</Time>
            <Position>
              <LatitudeDegrees>-15.3932074271142482757568359375</LatitudeDegrees>
              <LongitudeDegrees>37.08804868161678314208984375</LongitudeDegrees>
            </Position>
            <AltitudeMeters>1127.199951171875</AltitudeMeters>
            <DistanceMeters>17466.429725657</DistanceMeters>
          </Trackpoint>
          <Trackpoint>
            <Time>2021-08-01T14:01:16.000Z</Time>
            <Position>
              <LatitudeDegrees>-15.3932044096291065216064453125</LatitudeDegrees>
              <LongitudeDegrees>37.088052369654178619384765625</LongitudeDegrees>
            </Position>
            <AltitudeMeters>1127.199951171875</AltitudeMeters>
            <DistanceMeters>17466.950208407</DistanceMeters>
          </Trackpoint>
          <Trackpoint>
            <Time>2021-08-01T14:01:22.000Z</Time>
            <Position>
              <LatitudeDegrees>-15.39316124282777309417724609375</LatitudeDegrees>
              <LongitudeDegrees>37.08808355033397674560546875</LongitudeDegrees>
            </Position>
            <AltitudeMeters>1126</AltitudeMeters>
            <DistanceMeters>17472.805735732</DistanceMeters>
          </Trackpoint>
          <Trackpoint>
            <Time>2021-08-01T14:01:24.000Z</Time>
            <Position>
              <LatitudeDegrees>-15.39314498193562030792236328125</LatitudeDegrees>
              <LongitudeDegrees>37.088090591132640838623046875</LongitudeDegrees>
            </Position>
            <AltitudeMeters>1125.800048828125</AltitudeMeters>
            <DistanceMeters>17474.767065018</DistanceMeters>
          </Trackpoint>
          <Trackpoint>
            <Time>2021-08-01T14:01:29.000Z</Time>
            <Position>
              <LatitudeDegrees>-15.393106676638126373291015625</LatitudeDegrees>
              <LongitudeDegrees>37.08810945041477680206298828125</LongitudeDegrees>
            </Position>
            <AltitudeMeters>1125</AltitudeMeters>
            <DistanceMeters>17479.485981049</DistanceMeters>
          </Trackpoint>
          <Trackpoint>
            <Time>2021-08-01T14:01:33.000Z</Time>
            <Position>
              <LatitudeDegrees>-15.39307910017669200897216796875</LatitudeDegrees>
              <LongitudeDegrees>37.08812177181243896484375</LongitudeDegrees>
            </Position>
            <AltitudeMeters>1124.199951171875</AltitudeMeters>
            <DistanceMeters>17482.828166646</DistanceMeters>
          </Trackpoint>
          <Trackpoint>
            <Time>2021-08-01T14:01:35.000Z</Time>
            <Position>
              <LatitudeDegrees>-15.39305898360908031463623046875</LatitudeDegrees>
              <LongitudeDegrees>37.08813074044883251190185546875</LongitudeDegrees>
            </Position>
            <AltitudeMeters>1123.5999755859375</AltitudeMeters>
            <DistanceMeters>17485.265745424</DistanceMeters>
          </Trackpoint>
          <Trackpoint>
            <Time>2021-08-01T14:01:39.000Z</Time>
            <Position>
              <LatitudeDegrees>-15.393033921718597412109375</LatitudeDegrees>
              <LongitudeDegrees>37.08815873600542545318603515625</LongitudeDegrees>
            </Position>
            <AltitudeMeters>1122.800048828125</AltitudeMeters>
            <DistanceMeters>17489.364030698</DistanceMeters>
          </Trackpoint>
          <Trackpoint>
            <Time>2021-08-01T14:01:42.000Z</Time>
            <Position>
              <LatitudeDegrees>-15.39301179349422454833984375</LatitudeDegrees>
              <LongitudeDegrees>37.0881782658398151397705078125</LongitudeDegrees>
            </Position>
            <AltitudeMeters>1122.4000244140625</AltitudeMeters>
            <DistanceMeters>17492.596336136</DistanceMeters>
          </Trackpoint>
          <Trackpoint>
            <Time>2021-08-01T14:01:46.000Z</Time>
            <Position>
              <LatitudeDegrees>-15.39299729280173778533935546875</LatitudeDegrees>
              <LongitudeDegrees>37.0881901681423187255859375</LongitudeDegrees>
            </Position>
            <AltitudeMeters>1122</AltitudeMeters>
            <DistanceMeters>17494.652078283</DistanceMeters>
          </Trackpoint>
          <Trackpoint>
            <Time>2021-08-01T14:01:47.000Z</Time>
            <Position>
              <LatitudeDegrees>-15.3929915092885494232177734375</LatitudeDegrees>
              <LongitudeDegrees>37.0881933532655239105224609375</LongitudeDegrees>
            </Position>
            <AltitudeMeters>1121.800048828125</AltitudeMeters>
            <DistanceMeters>17495.381992326</DistanceMeters>
          </Trackpoint>
          <Trackpoint>
            <Time>2021-08-01T14:01:50.000Z</Time>
            <Position>
              <LatitudeDegrees>-15.3929666988551616668701171875</LatitudeDegrees>
              <LongitudeDegrees>37.08819226361811161041259765625</LongitudeDegrees>
            </Position>
            <AltitudeMeters>1121.800048828125</AltitudeMeters>
            <DistanceMeters>17498.147579921</DistanceMeters>
          </Trackpoint>
          <Trackpoint>
            <Time>2021-08-01T14:01:54.000Z</Time>
            <Position>
              <LatitudeDegrees>-15.39294213987886905670166015625</LatitudeDegrees>
              <LongitudeDegrees>37.08821020089089870452880859375</LongitudeDegrees>
            </Position>
            <AltitudeMeters>1121.5999755859375</AltitudeMeters>
            <DistanceMeters>17501.489765518</DistanceMeters>
          </Trackpoint>
          <Trackpoint>
            <Time>2021-08-01T14:01:55.000Z</Time>
            <Position>
              <LatitudeDegrees>-15.39293174631893634796142578125</LatitudeDegrees>
              <LongitudeDegrees>37.08821757696568965911865234375</LongitudeDegrees>
            </Position>
            <AltitudeMeters>1121.4000244140625</AltitudeMeters>
            <DistanceMeters>17502.889596432</DistanceMeters>
          </Trackpoint>
          <Trackpoint>
            <Time>2021-08-01T14:02:00.000Z</Time>
            <Position>
              <LatitudeDegrees>-15.3928904235363006591796875</LatitudeDegrees>
              <LongitudeDegrees>37.08825093694031238555908203125</LongitudeDegrees>
            </Position>
            <AltitudeMeters>1120.4000244140625</AltitudeMeters>
            <DistanceMeters>17508.716524219</DistanceMeters>
          </Trackpoint>
          <Trackpoint>
            <Time>2021-08-01T14:02:03.000Z</Time>
            <Position>
              <LatitudeDegrees>-15.39289050735533237457275390625</LatitudeDegrees>
              <LongitudeDegrees>37.088278345763683319091796875</LongitudeDegrees>
            </Position>
            <AltitudeMeters>1120.199951171875</AltitudeMeters>
            <DistanceMeters>17511.657750703</DistanceMeters>
          </Trackpoint>
          <Trackpoint>
            <Time>2021-08-01T14:02:08.000Z</Time>
            <Position>
              <LatitudeDegrees>-15.3928698040544986724853515625</LatitudeDegrees>
              <LongitudeDegrees>37.08830558694899082183837890625</LongitudeDegrees>
            </Position>
            <AltitudeMeters>1118.5999755859375</AltitudeMeters>
            <DistanceMeters>17515.379596652</DistanceMeters>
          </Trackpoint>
          <Trackpoint>
            <Time>2021-08-01T14:02:09.000Z</Time>
            <Position>
              <LatitudeDegrees>-15.3928617574274539947509765625</LatitudeDegrees>
              <LongitudeDegrees>37.08830893971025943756103515625</LongitudeDegrees>
            </Position>
            <AltitudeMeters>1118.4000244140625</AltitudeMeters>
            <DistanceMeters>17516.339319423</DistanceMeters>
          </Trackpoint>
          <Trackpoint>
            <Time>2021-08-01T14:02:13.000Z</Time>
            <Position>
              <LatitudeDegrees>-15.39283250458538532257080078125</LatitudeDegrees>
              <LongitudeDegrees>37.0883220992982387542724609375</LongitudeDegrees>
            </Position>
            <AltitudeMeters>1117.800048828125</AltitudeMeters>
            <DistanceMeters>17519.888538582</DistanceMeters>
          </Trackpoint>
          <Trackpoint>
            <Time>2021-08-01T14:02:15.000Z</Time>
            <Position>
              <LatitudeDegrees>-15.3928153216838836669921875</LatitudeDegrees>
              <LongitudeDegrees>37.0883301459252834320068359375</LongitudeDegrees>
            </Position>
            <AltitudeMeters>1117.4000244140625</AltitudeMeters>
            <DistanceMeters>17521.987747315</DistanceMeters>
          </Trackpoint>
          <Trackpoint>
            <Time>2021-08-01T14:02:20.000Z</Time>
            <Position>
              <LatitudeDegrees>-15.39278020150959491729736328125</LatitudeDegrees>
              <LongitudeDegrees>37.08835403434932231903076171875</LongitudeDegrees>
            </Position>
            <AltitudeMeters>1116.199951171875</AltitudeMeters>
            <DistanceMeters>17526.661477615</DistanceMeters>
          </Trackpoint>
          <Trackpoint>
            <Time>2021-08-01T14:02:26.000Z</Time>
            <Position>
              <LatitudeDegrees>-15.39275354705750942230224609375</LatitudeDegrees>
              <LongitudeDegrees>37.08837616257369518280029296875</LongitudeDegrees>
            </Position>
            <AltitudeMeters>1115.199951171875</AltitudeMeters>
            <DistanceMeters>17530.46254619</DistanceMeters>
          </Trackpoint>
          <Trackpoint>
            <Time>2021-08-01T14:02:27.000Z</Time>
            <Position>
              <LatitudeDegrees>-15.3927444107830524444580078125</LatitudeDegrees>
              <LongitudeDegrees>37.08837884478271007537841796875</LongitudeDegrees>
            </Position>
            <AltitudeMeters>1115.199951171875</AltitudeMeters>
            <DistanceMeters>17531.520718897</DistanceMeters>
          </Trackpoint>
          <Trackpoint>
            <Time>2021-08-01T14:02:31.000Z</Time>
            <Position>
              <LatitudeDegrees>-15.39271331392228603363037109375</LatitudeDegrees>
              <LongitudeDegrees>37.08838202990591526031494140625</LongitudeDegrees>
            </Position>
            <AltitudeMeters>1114</AltitudeMeters>
            <DistanceMeters>17534.997969587</DistanceMeters>
          </Trackpoint>
          <Trackpoint>
            <Time>2021-08-01T14:02:35.000Z</Time>
            <Position>
              <LatitudeDegrees>-15.39268397726118564605712890625</LatitudeDegrees>
              <LongitudeDegrees>37.0884008891880512237548828125</LongitudeDegrees>
            </Position>
            <AltitudeMeters>1113</AltitudeMeters>
            <DistanceMeters>17538.839212213</DistanceMeters>
          </Trackpoint>
          <Trackpoint>
            <Time>2021-08-01T14:02:37.000Z</Time>
            <Position>
              <LatitudeDegrees>-15.3926659561693668365478515625</LatitudeDegrees>
              <LongitudeDegrees>37.088403068482875823974609375</LongitudeDegrees>
            </Position>
            <AltitudeMeters>1112.800048828125</AltitudeMeters>
            <DistanceMeters>17540.859507872</DistanceMeters>
          </Trackpoint>
          <Trackpoint>
            <Time>2021-08-01T14:02:41.000Z</Time>
            <Position>
              <LatitudeDegrees>-15.3926341049373149871826171875</LatitudeDegrees>
              <LongitudeDegrees>37.0884039066731929779052734375</LongitudeDegrees>
            </Position>
            <AltitudeMeters>1112.199951171875</AltitudeMeters>
            <DistanceMeters>17544.406181876</DistanceMeters>
          </Trackpoint>
          <Trackpoint>
            <Time>2021-08-01T14:02:42.000Z</Time>
            <Position>
              <LatitudeDegrees>-15.39262354373931884765625</LatitudeDegrees>
              <LongitudeDegrees>37.08840533159673213958740234375</LongitudeDegrees>
            </Position>
            <AltitudeMeters>1111.5999755859375</AltitudeMeters>
            <DistanceMeters>17545.593065158</DistanceMeters>
          </Trackpoint>
          <Trackpoint>
            <Time>2021-08-01T14:02:43.000Z</Time>
            <Position>
              <LatitudeDegrees>-15.39261574856936931610107421875</LatitudeDegrees>
              <LongitudeDegrees>37.08840600214898586273193359375</LongitudeDegrees>
            </Position>
            <AltitudeMeters>1111.4000244140625</AltitudeMeters>
            <DistanceMeters>17546.463999381</DistanceMeters>
          </Trackpoint>
          <Trackpoint>
            <Time>2021-08-01T14:02:45.000Z</Time>
            <Position>
              <LatitudeDegrees>-15.39259412325918674468994140625</LatitudeDegrees>
              <LongitudeDegrees>37.08840985782444477081298828125</LongitudeDegrees>
            </Position>
            <AltitudeMeters>1110.4000244140625</AltitudeMeters>
            <DistanceMeters>17548.905279876</DistanceMeters>
          </Trackpoint>
          <Trackpoint>
            <Time>2021-08-01T14:02:46.000Z</Time>
            <Position>
              <LatitudeDegrees>-15.3925854898989200592041015625</LatitudeDegrees>
              <LongitudeDegrees>37.0884139649569988250732421875</LongitudeDegrees>
            </Position>
            <AltitudeMeters>1110.199951171875</AltitudeMeters>
            <DistanceMeters>17549.95917712</DistanceMeters>
          </Trackpoint>
          <Trackpoint>
            <Time>2021-08-01T14:02:49.000Z</Time>
            <Position>
              <LatitudeDegrees>-15.39255707524716854095458984375</LatitudeDegrees>
              <LongitudeDegrees>37.08842662163078784942626953125</LongitudeDegrees>
            </Position>
            <AltitudeMeters>1109.4000244140625</AltitudeMeters>
            <DistanceMeters>17553.402502602</DistanceMeters>
          </Trackpoint>
          <Trackpoint>
            <Time>2021-08-01T14:02:52.000Z</Time>
            <Position>
              <LatitudeDegrees>-15.39253226481378078460693359375</LatitudeDegrees>
              <LongitudeDegrees>37.08843223750591278076171875</LongitudeDegrees>
            </Position>
            <AltitudeMeters>1108.800048828125</AltitudeMeters>
            <DistanceMeters>17556.229447535</DistanceMeters>
          </Trackpoint>
          <Trackpoint>
            <Time>2021-08-01T14:02:54.000Z</Time>
            <Position>
              <LatitudeDegrees>-15.3925167582929134368896484375</LatitudeDegrees>
              <LongitudeDegrees>37.08844003267586231231689453125</LongitudeDegrees>
            </Position>
            <AltitudeMeters>1108</AltitudeMeters>
            <DistanceMeters>17558.146539372</DistanceMeters>
          </Trackpoint>
          <Trackpoint>
            <Time>2021-08-01T14:02:55.000Z</Time>
            <Position>
              <LatitudeDegrees>-15.3925100527703762054443359375</LatitudeDegrees>
              <LongitudeDegrees>37.0884427987039089202880859375</LongitudeDegrees>
            </Position>
            <AltitudeMeters>1107.800048828125</AltitudeMeters>
            <DistanceMeters>17558.941589906</DistanceMeters>
          </Trackpoint>
          <Trackpoint>
            <Time>2021-08-01T14:02:59.000Z</Time>
            <Position>
              <LatitudeDegrees>-15.39247845299541950225830078125</LatitudeDegrees>
              <LongitudeDegrees>37.0884434692561626434326171875</LongitudeDegrees>
            </Position>
            <AltitudeMeters>1106.800048828125</AltitudeMeters>
            <DistanceMeters>17562.458862248</DistanceMeters>
          </Trackpoint>
          <Trackpoint>
            <Time>2021-08-01T14:03:02.000Z</Time>
            <Position>
              <LatitudeDegrees>-15.39245364256203174591064453125</LatitudeDegrees>
              <LongitudeDegrees>37.0884444750845432281494140625</LongitudeDegrees>
            </Position>
            <AltitudeMeters>1106.4000244140625</AltitudeMeters>
            <DistanceMeters>17565.221182757</DistanceMeters>
          </Trackpoint>
          <Trackpoint>
            <Time>2021-08-01T14:03:06.000Z</Time>
            <Position>
              <LatitudeDegrees>-15.392421372234821319580078125</LatitudeDegrees>
              <LongitudeDegrees>37.088442631065845489501953125</LongitudeDegrees>
            </Position>
            <AltitudeMeters>1105.5999755859375</AltitudeMeters>
            <DistanceMeters>17568.818417743</DistanceMeters>
          </Trackpoint>
          <Trackpoint>
            <Time>2021-08-01T14:03:11.000Z</Time>
            <Position>
              <LatitudeDegrees>-15.39237904362380504608154296875</LatitudeDegrees>
              <LongitudeDegrees>37.088455371558666229248046875</LongitudeDegrees>
            </Position>
            <AltitudeMeters>1104.199951171875</AltitudeMeters>
            <DistanceMeters>17573.723121979</DistanceMeters>
          </Trackpoint>
          <Trackpoint>
            <Time>2021-08-01T14:03:13.000Z</Time>
            <Position>
              <LatitudeDegrees>-15.3923642076551914215087890625</LatitudeDegrees>
              <LongitudeDegrees>37.088467441499233245849609375</LongitudeDegrees>
            </Position>
            <AltitudeMeters>1103.5999755859375</AltitudeMeters>
            <DistanceMeters>17575.820178781</DistanceMeters>
          </Trackpoint>
          <Trackpoint>
            <Time>2021-08-01T14:03:15.000Z</Time>
            <Position>
              <LatitudeDegrees>-15.392350293695926666259765625</LatitudeDegrees>
              <LongitudeDegrees>37.08848127163946628570556640625</LongitudeDegrees>
            </Position>
            <AltitudeMeters>1102.800048828125</AltitudeMeters>
            <DistanceMeters>17577.964079177</DistanceMeters>
          </Trackpoint>
          <Trackpoint>
            <Time>2021-08-01T14:03:20.000Z</Time>
            <Position>
              <LatitudeDegrees>-15.39233051240444183349609375</LatitudeDegrees>
              <LongitudeDegrees>37.0885292999446392059326171875</LongitudeDegrees>
            </Position>
            <AltitudeMeters>1102</AltitudeMeters>
            <DistanceMeters>17583.569044471</DistanceMeters>
          </Trackpoint>
          <Trackpoint>
            <Time>2021-08-01T14:03:21.000Z</Time>
            <Position>
              <LatitudeDegrees>-15.39232891984283924102783203125</LatitudeDegrees>
              <LongitudeDegrees>37.08853390999138355255126953125</LongitudeDegrees>
            </Position>
            <AltitudeMeters>1101.800048828125</AltitudeMeters>
            <DistanceMeters>17584.089527221</DistanceMeters>
          </Trackpoint>
          <Trackpoint>
            <Time>2021-08-01T14:03:23.000Z</Time>
            <Position>
              <LatitudeDegrees>-15.39232238195836544036865234375</LatitudeDegrees>
              <LongitudeDegrees>37.08855670876801013946533203125</LongitudeDegrees>
            </Position>
            <AltitudeMeters>1101.5999755859375</AltitudeMeters>
            <DistanceMeters>17586.642900518</DistanceMeters>
          </Trackpoint>
          <Trackpoint>
            <Time>2021-08-01T14:03:27.000Z</Time>
            <Position>
              <LatitudeDegrees>-15.39230662398040294647216796875</LatitudeDegrees>
              <LongitudeDegrees>37.08858587779104709625244140625</LongitudeDegrees>
            </Position>
            <AltitudeMeters>1101.199951171875</AltitudeMeters>
            <DistanceMeters>17590.231338759</DistanceMeters>
          </Trackpoint>
          <Trackpoint>
            <Time>2021-08-01T14:03:29.000Z</Time>
            <Position>
              <LatitudeDegrees>-15.3922870941460132598876953125</LatitudeDegrees>
              <LongitudeDegrees>37.08859375678002834320068359375</LongitudeDegrees>
            </Position>
            <AltitudeMeters>1101</AltitudeMeters>
            <DistanceMeters>17592.562884602</DistanceMeters>
          </Trackpoint>
          <Trackpoint>
            <Time>2021-08-01T14:03:31.000Z</Time>
            <Position>
              <LatitudeDegrees>-15.39226253516972064971923828125</LatitudeDegrees>
              <LongitudeDegrees>37.0886017195880413055419921875</LongitudeDegrees>
            </Position>
            <AltitudeMeters>1099.800048828125</AltitudeMeters>
            <DistanceMeters>17595.427904583</DistanceMeters>
          </Trackpoint>
          <Trackpoint>
            <Time>2021-08-01T14:03:33.000Z</Time>
            <Position>
              <LatitudeDegrees>-15.39224711246788501739501953125</LatitudeDegrees>
              <LongitudeDegrees>37.08861923776566982269287109375</LongitudeDegrees>
            </Position>
            <AltitudeMeters>1099.5999755859375</AltitudeMeters>
            <DistanceMeters>17597.970646161</DistanceMeters>
          </Trackpoint>
          <Trackpoint>
            <Time>2021-08-01T14:03:35.000Z</Time>
            <Position>
              <LatitudeDegrees>-15.3922311030328273773193359375</LatitudeDegrees>
              <LongitudeDegrees>37.08864086307585239410400390625</LongitudeDegrees>
            </Position>
            <AltitudeMeters>1099.199951171875</AltitudeMeters>
            <DistanceMeters>17600.896481506</DistanceMeters>
          </Trackpoint>
          <Trackpoint>
            <Time>2021-08-01T14:03:39.000Z</Time>
            <Position>
              <LatitudeDegrees>-15.39219313301146030426025390625</LatitudeDegrees>
              <LongitudeDegrees>37.08868302404880523681640625</LongitudeDegrees>
            </Position>
            <AltitudeMeters>1098.800048828125</AltitudeMeters>
            <DistanceMeters>17607.087090881</DistanceMeters>
          </Trackpoint>
          <Trackpoint>
            <Time>2021-08-01T14:03:40.000Z</Time>
            <Position>
              <LatitudeDegrees>-15.39218726567924022674560546875</LatitudeDegrees>
              <LongitudeDegrees>37.0886917412281036376953125</LongitudeDegrees>
            </Position>
            <AltitudeMeters>1098.5999755859375</AltitudeMeters>
            <DistanceMeters>17608.227411453</DistanceMeters>
          </Trackpoint>
          <Trackpoint>
            <Time>2021-08-01T14:03:43.000Z</Time>
            <Position>
              <LatitudeDegrees>-15.39217569865286350250244140625</LatitudeDegrees>
              <LongitudeDegrees>37.0887126959860324859619140625</LongitudeDegrees>
            </Position>
            <AltitudeMeters>1098.4000244140625</AltitudeMeters>
            <DistanceMeters>17610.819394647</DistanceMeters>
          </Trackpoint>
          <Trackpoint>
            <Time>2021-08-01T14:03:44.000Z</Time>
            <Position>
              <LatitudeDegrees>-15.39216957986354827880859375</LatitudeDegrees>
              <LongitudeDegrees>37.08871294744312763214111328125</LongitudeDegrees>
            </Position>
            <AltitudeMeters>1098.4000244140625</AltitudeMeters>
            <DistanceMeters>17611.504642029</DistanceMeters>
          </Trackpoint>
          <Trackpoint>
            <Time>2021-08-01T14:03:48.000Z</Time>
            <Position>
              <LatitudeDegrees>-15.39211920462548732757568359375</LatitudeDegrees>
              <LongitudeDegrees>37.08870179951190948486328125</LongitudeDegrees>
            </Position>
            <AltitudeMeters>1097.800048828125</AltitudeMeters>
            <DistanceMeters>17617.23704538</DistanceMeters>
          </Trackpoint>
          <Trackpoint>
            <Time>2021-08-01T14:03:53.000Z</Time>
            <Position>
              <LatitudeDegrees>-15.39206497371196746826171875</LatitudeDegrees>
              <LongitudeDegrees>37.08869350142776966094970703125</LongitudeDegrees>
            </Position>
            <AltitudeMeters>1097.5999755859375</AltitudeMeters>
            <DistanceMeters>17623.338026867</DistanceMeters>
          </Trackpoint>
          <Trackpoint>
            <Time>2021-08-01T14:03:58.000Z</Time>
            <Position>
              <LatitudeDegrees>-15.39201325736939907073974609375</LatitudeDegrees>
              <LongitudeDegrees>37.0886976085603237152099609375</LongitudeDegrees>
            </Position>
            <AltitudeMeters>1097.199951171875</AltitudeMeters>
            <DistanceMeters>17629.11045981</DistanceMeters>
          </Trackpoint>
          <Trackpoint>
            <Time>2021-08-01T14:04:00.000Z</Time>
            <Position>
              <LatitudeDegrees>-15.3920088149607181549072265625</LatitudeDegrees>
              <LongitudeDegrees>37.08871311508119106292724609375</LongitudeDegrees>
            </Position>
            <AltitudeMeters>1097.199951171875</AltitudeMeters>
            <DistanceMeters>17630.847136386</DistanceMeters>
          </Trackpoint>
          <Trackpoint>
            <Time>2021-08-01T14:04:03.000Z</Time>
            <Position>
              <LatitudeDegrees>-15.3920074738562107086181640625</LatitudeDegrees>
              <LongitudeDegrees>37.088732309639453887939453125</LongitudeDegrees>
            </Position>
            <AltitudeMeters>1096.5999755859375</AltitudeMeters>
            <DistanceMeters>17632.909456925</DistanceMeters>
          </Trackpoint>
          <Trackpoint>
            <Time>2021-08-01T14:04:04.000Z</Time>
            <Position>
              <LatitudeDegrees>-15.3920074738562107086181640625</LatitudeDegrees>
              <LongitudeDegrees>37.0887371711432933807373046875</LongitudeDegrees>
            </Position>
            <AltitudeMeters>1096.4000244140625</AltitudeMeters>
            <DistanceMeters>17633.429939676</DistanceMeters>
          </Trackpoint>
          <Trackpoint>
            <Time>2021-08-01T14:04:09.000Z</Time>
            <Position>
              <LatitudeDegrees>-15.39201401174068450927734375</LatitudeDegrees>
              <LongitudeDegrees>37.0887723751366138458251953125</LongitudeDegrees>
            </Position>
            <AltitudeMeters>1095.4000244140625</AltitudeMeters>
            <DistanceMeters>17637.277054866</DistanceMeters>
          </Trackpoint>
          <Trackpoint>
            <Time>2021-08-01T14:04:10.000Z</Time>
            <Position>
              <LatitudeDegrees>-15.39201409555971622467041015625</LatitudeDegrees>
              <LongitudeDegrees>37.08878452889621257781982421875</LongitudeDegrees>
            </Position>
            <AltitudeMeters>1095.4000244140625</AltitudeMeters>
            <DistanceMeters>17638.58690773</DistanceMeters>
          </Trackpoint>
          <Trackpoint>
            <Time>2021-08-01T14:04:11.000Z</Time>
            <Position>
              <LatitudeDegrees>-15.39201510138809680938720703125</LatitudeDegrees>
              <LongitudeDegrees>37.08879760466516017913818359375</LongitudeDegrees>
            </Position>
            <AltitudeMeters>1095</AltitudeMeters>
            <DistanceMeters>17639.996381681</DistanceMeters>
          </Trackpoint>
          <Trackpoint>
            <Time>2021-08-01T14:04:19.000Z</Time>
            <Position>
              <LatitudeDegrees>-15.3920245729386806488037109375</LatitudeDegrees>
              <LongitudeDegrees>37.0888736285269260406494140625</LongitudeDegrees>
            </Position>
            <AltitudeMeters>1094.4000244140625</AltitudeMeters>
            <DistanceMeters>17648.222095194</DistanceMeters>
          </Trackpoint>
          <Trackpoint>
            <Time>2021-08-01T14:04:20.000Z</Time>
            <Position>
              <LatitudeDegrees>-15.39202331565320491790771484375</LatitudeDegrees>
              <LongitudeDegrees>37.08888125605881214141845703125</LongitudeDegrees>
            </Position>
            <AltitudeMeters>1094.4000244140625</AltitudeMeters>
            <DistanceMeters>17649.050518883</DistanceMeters>
          </Trackpoint>
          <Trackpoint>
            <Time>2021-08-01T14:04:26.000Z</Time>
            <Position>
              <LatitudeDegrees>-15.39203203283250331878662109375</LatitudeDegrees>
              <LongitudeDegrees>37.088886201381683349609375</LongitudeDegrees>
            </Position>
            <AltitudeMeters>1094</AltitudeMeters>
            <DistanceMeters>17650.158711284</DistanceMeters>
          </Trackpoint>
          <Trackpoint>
            <Time>2021-08-01T14:04:31.000Z</Time>
            <Position>
              <LatitudeDegrees>-15.3920321166515350341796875</LatitudeDegrees>
              <LongitudeDegrees>37.0888853631913661956787109375</LongitudeDegrees>
            </Position>
            <AltitudeMeters>1093.800048828125</AltitudeMeters>
            <DistanceMeters>17650.253737998</DistanceMeters>
          </Trackpoint>
          <Trackpoint>
            <Time>2021-08-01T14:04:33.000Z</Time>
            <Position>
              <LatitudeDegrees>-15.392037816345691680908203125</LatitudeDegrees>
              <LongitudeDegrees>37.08888729102909564971923828125</LongitudeDegrees>
            </Position>
            <AltitudeMeters>1093.800048828125</AltitudeMeters>
            <DistanceMeters>17650.925678339</DistanceMeters>
          </Trackpoint>
          <Trackpoint>
            <Time>2021-08-01T14:04:36.000Z</Time>
            <Position>
              <LatitudeDegrees>-15.392034463584423065185546875</LatitudeDegrees>
              <LongitudeDegrees>37.08888645283877849578857421875</LongitudeDegrees>
            </Position>
            <AltitudeMeters>1093.800048828125</AltitudeMeters>
            <DistanceMeters>17651.31748352</DistanceMeters>
          </Trackpoint>
          <Trackpoint>
            <Time>2021-08-01T14:04:38.000Z</Time>
            <Position>
              <LatitudeDegrees>-15.392034463584423065185546875</LatitudeDegrees>
              <LongitudeDegrees>37.08888645283877849578857421875</LongitudeDegrees>
            </Position>
            <AltitudeMeters>1093.800048828125</AltitudeMeters>
            <DistanceMeters>17651.31748352</DistanceMeters>
          </Trackpoint>
          <Trackpoint>
            <Time>2021-08-01T14:05:02.000Z</Time>
            <Position>
              <LatitudeDegrees>-15.39203639142215251922607421875</LatitudeDegrees>
              <LongitudeDegrees>37.08887756802141666412353515625</LongitudeDegrees>
            </Position>
            <AltitudeMeters>1093.800048828125</AltitudeMeters>
            <DistanceMeters>17652.291217584</DistanceMeters>
          </Trackpoint>
          <Trackpoint>
            <Time>2021-08-01T14:05:04.000Z</Time>
            <Position>
              <LatitudeDegrees>-15.39203605614602565765380859375</LatitudeDegrees>
              <LongitudeDegrees>37.08887706510722637176513671875</LongitudeDegrees>
            </Position>
            <AltitudeMeters>1093.800048828125</AltitudeMeters>
            <DistanceMeters>17652.291217584</DistanceMeters>
          </Trackpoint>
          <Trackpoint>
            <Time>2021-08-01T14:05:17.000Z</Time>
            <Position>
              <LatitudeDegrees>-15.39203144609928131103515625</LatitudeDegrees>
              <LongitudeDegrees>37.0888706110417842864990234375</LongitudeDegrees>
            </Position>
            <AltitudeMeters>1093.5999755859375</AltitudeMeters>
            <DistanceMeters>17653.151721081</DistanceMeters>
          </Trackpoint>
          <Trackpoint>
            <Time>2021-08-01T14:05:20.000Z</Time>
            <Position>
              <LatitudeDegrees>-15.392025411128997802734375</LatitudeDegrees>
              <LongitudeDegrees>37.088869772851467132568359375</LongitudeDegrees>
            </Position>
            <AltitudeMeters>1093.5999755859375</AltitudeMeters>
            <DistanceMeters>17653.823661422</DistanceMeters>
          </Trackpoint>
          <Trackpoint>
            <Time>2021-08-01T14:05:25.000Z</Time>
            <Position>
              <LatitudeDegrees>-15.392017699778079986572265625</LatitudeDegrees>
              <LongitudeDegrees>37.08886901848018169403076171875</LongitudeDegrees>
            </Position>
            <AltitudeMeters>1093.800048828125</AltitudeMeters>
            <DistanceMeters>17654.694595645</DistanceMeters>
          </Trackpoint>
          <Trackpoint>
            <Time>2021-08-01T14:05:27.000Z</Time>
            <Position>
              <LatitudeDegrees>-15.39201543666422367095947265625</LatitudeDegrees>
              <LongitudeDegrees>37.0888687670230865478515625</LongitudeDegrees>
            </Position>
            <AltitudeMeters>1093.800048828125</AltitudeMeters>
            <DistanceMeters>17654.963371782</DistanceMeters>
          </Trackpoint>
          <Trackpoint>
            <Time>2021-08-01T14:05:30.000Z</Time>
            <Position>
              <LatitudeDegrees>-15.39200873114168643951416015625</LatitudeDegrees>
              <LongitudeDegrees>37.08886717446148395538330078125</LongitudeDegrees>
            </Position>
            <AltitudeMeters>1093.800048828125</AltitudeMeters>
            <DistanceMeters>17655.729501646</DistanceMeters>
          </Trackpoint>
          <Trackpoint>
            <Time>2021-08-01T14:05:35.000Z</Time>
            <Position>
              <LatitudeDegrees>-15.39200152270495891571044921875</LatitudeDegrees>
              <LongitudeDegrees>37.0888659171760082244873046875</LongitudeDegrees>
            </Position>
            <AltitudeMeters>1093.800048828125</AltitudeMeters>
            <DistanceMeters>17656.546952352</DistanceMeters>
          </Trackpoint>
          <Trackpoint>
            <Time>2021-08-01T14:05:37.000Z</Time>
            <Position>
              <LatitudeDegrees>-15.3920004330575466156005859375</LatitudeDegrees>
              <LongitudeDegrees>37.08886583335697650909423828125</LongitudeDegrees>
            </Position>
            <AltitudeMeters>1093.800048828125</AltitudeMeters>
            <DistanceMeters>17656.641979066</DistanceMeters>
          </Trackpoint>
          <Trackpoint>
            <Time>2021-08-01T14:05:41.000Z</Time>
            <Position>
              <LatitudeDegrees>-15.3919990919530391693115234375</LatitudeDegrees>
              <LongitudeDegrees>37.08886583335697650909423828125</LongitudeDegrees>
            </Position>
            <AltitudeMeters>1093.800048828125</AltitudeMeters>
            <DistanceMeters>17656.776367135</DistanceMeters>
          </Trackpoint>
          <Trackpoint>
            <Time>2021-08-01T14:05:44.000Z</Time>
            <Position>
              <LatitudeDegrees>-15.3919984214007854461669921875</LatitudeDegrees>
              <LongitudeDegrees>37.08886583335697650909423828125</LongitudeDegrees>
            </Position>
            <AltitudeMeters>1093.800048828125</AltitudeMeters>
            <DistanceMeters>17656.776367135</DistanceMeters>
          </Trackpoint>
          <Trackpoint>
            <Time>2021-08-01T14:05:48.000Z</Time>
            <Position>
              <LatitudeDegrees>-15.391995906829833984375</LatitudeDegrees>
              <LongitudeDegrees>37.0888665877282619476318359375</LongitudeDegrees>
            </Position>
            <AltitudeMeters>1093.800048828125</AltitudeMeters>
            <DistanceMeters>17657.061447278</DistanceMeters>
          </Trackpoint>
          <Trackpoint>
            <Time>2021-08-01T14:05:52.000Z</Time>
            <Position>
              <LatitudeDegrees>-15.39199054241180419921875</LatitudeDegrees>
              <LongitudeDegrees>37.08887706510722637176513671875</LongitudeDegrees>
            </Position>
            <AltitudeMeters>1093.800048828125</AltitudeMeters>
            <DistanceMeters>17658.336364436</DistanceMeters>
          </Trackpoint>
          <Trackpoint>
            <Time>2021-08-01T14:05:56.000Z</Time>
            <Position>
              <LatitudeDegrees>-15.39198023267090320587158203125</LatitudeDegrees>
              <LongitudeDegrees>37.0888887159526348114013671875</LongitudeDegrees>
            </Position>
            <AltitudeMeters>1093.800048828125</AltitudeMeters>
            <DistanceMeters>17660.03625398</DistanceMeters>
          </Trackpoint>
          <Trackpoint>
            <Time>2021-08-01T14:05:58.000Z</Time>
            <Position>
              <LatitudeDegrees>-15.39197922684252262115478515625</LatitudeDegrees>
              <LongitudeDegrees>37.0888903923332691192626953125</LongitudeDegrees>
            </Position>
            <AltitudeMeters>1093.800048828125</AltitudeMeters>
            <DistanceMeters>17660.269020942</DistanceMeters>
          </Trackpoint>
          <Trackpoint>
            <Time>2021-08-01T14:06:07.000Z</Time>
            <Position>
              <LatitudeDegrees>-15.39197872392833232879638671875</LatitudeDegrees>
              <LongitudeDegrees>37.0888907276093959808349609375</LongitudeDegrees>
            </Position>
            <AltitudeMeters>1093.800048828125</AltitudeMeters>
            <DistanceMeters>17660.364047656</DistanceMeters>
          </Trackpoint>
          <Trackpoint>
            <Time>2021-08-01T14:06:13.000Z</Time>
            <Position>
              <LatitudeDegrees>-15.391977466642856597900390625</LatitudeDegrees>
              <LongitudeDegrees>37.08888829685747623443603515625</LongitudeDegrees>
            </Position>
            <AltitudeMeters>1093.800048828125</AltitudeMeters>
            <DistanceMeters>17660.664548512</DistanceMeters>
          </Trackpoint>
          <Trackpoint>
            <Time>2021-08-01T14:06:34.000Z</Time>
            <Position>
              <LatitudeDegrees>-15.39195978082716464996337890625</LatitudeDegrees>
              <LongitudeDegrees>37.08890070207417011260986328125</LongitudeDegrees>
            </Position>
            <AltitudeMeters>1093.800048828125</AltitudeMeters>
            <DistanceMeters>17663.042116146</DistanceMeters>
          </Trackpoint>
          <Trackpoint>
            <Time>2021-08-01T14:06:46.000Z</Time>
            <Position>
              <LatitudeDegrees>-15.39194318465888500213623046875</LatitudeDegrees>
              <LongitudeDegrees>37.08895719610154628753662109375</LongitudeDegrees>
            </Position>
            <AltitudeMeters>1093.800048828125</AltitudeMeters>
            <DistanceMeters>17669.379763977</DistanceMeters>
          </Trackpoint>
          <Trackpoint>
            <Time>2021-08-01T14:06:59.000Z</Time>
            <Position>
              <LatitudeDegrees>-15.39191300980746746063232421875</LatitudeDegrees>
              <LongitudeDegrees>37.0890023745596408843994140625</LongitudeDegrees>
            </Position>
            <AltitudeMeters>1093.800048828125</AltitudeMeters>
            <DistanceMeters>17675.277547837</DistanceMeters>
          </Trackpoint>
          <Trackpoint>
            <Time>2021-08-01T14:07:29.000Z</Time>
            <Position>
              <LatitudeDegrees>-15.3919149376451969146728515625</LatitudeDegrees>
              <LongitudeDegrees>37.08903850056231021881103515625</LongitudeDegrees>
            </Position>
            <AltitudeMeters>1093.800048828125</AltitudeMeters>
            <DistanceMeters>17679.159711871</DistanceMeters>
          </Trackpoint>
          <Trackpoint>
            <Time>2021-08-01T14:07:55.000Z</Time>
            <Position>
              <LatitudeDegrees>-15.39194293320178985595703125</LatitudeDegrees>
              <LongitudeDegrees>37.0890087448060512542724609375</LongitudeDegrees>
            </Position>
            <AltitudeMeters>1093.800048828125</AltitudeMeters>
            <DistanceMeters>17683.62090997</DistanceMeters>
          </Trackpoint>
          <Trackpoint>
            <Time>2021-08-01T14:07:56.000Z</Time>
            <Position>
              <LatitudeDegrees>-15.39194293320178985595703125</LatitudeDegrees>
              <LongitudeDegrees>37.08900866098701953887939453125</LongitudeDegrees>
            </Position>
            <AltitudeMeters>1093.800048828125</AltitudeMeters>
            <DistanceMeters>17683.62090997</DistanceMeters>
          </Trackpoint>
          <Trackpoint>
            <Time>2021-08-01T14:08:01.000Z</Time>
            <Position>
              <LatitudeDegrees>-15.39194293320178985595703125</LatitudeDegrees>
              <LongitudeDegrees>37.089008577167987823486328125</LongitudeDegrees>
            </Position>
            <AltitudeMeters>1093.800048828125</AltitudeMeters>
            <DistanceMeters>17683.62090997</DistanceMeters>
          </Trackpoint>
          <Trackpoint>
            <Time>2021-08-01T14:08:16.000Z</Time>
            <Position>
              <LatitudeDegrees>-15.3919424302875995635986328125</LatitudeDegrees>
              <LongitudeDegrees>37.08900899626314640045166015625</LongitudeDegrees>
            </Position>
            <AltitudeMeters>1093.800048828125</AltitudeMeters>
            <DistanceMeters>17683.62090997</DistanceMeters>
          </Trackpoint>
          <Trackpoint>
            <Time>2021-08-01T14:08:20.000Z</Time>
            <Position>
              <LatitudeDegrees>-15.3919422626495361328125</LatitudeDegrees>
              <LongitudeDegrees>37.089009247720241546630859375</LongitudeDegrees>
            </Position>
            <AltitudeMeters>1093.800048828125</AltitudeMeters>
            <DistanceMeters>17683.62090997</DistanceMeters>
          </Trackpoint>
          <Trackpoint>
            <Time>2021-08-01T14:08:21.000Z</Time>
            <Position>
              <LatitudeDegrees>-15.3919422626495361328125</LatitudeDegrees>
              <LongitudeDegrees>37.08900933153927326202392578125</LongitudeDegrees>
            </Position>
            <AltitudeMeters>1093.800048828125</AltitudeMeters>
            <DistanceMeters>17683.62090997</DistanceMeters>
          </Trackpoint>
          <Trackpoint>
            <Time>2021-08-01T14:08:37.000Z</Time>
            <Position>
              <LatitudeDegrees>-15.39194159209728240966796875</LatitudeDegrees>
              <LongitudeDegrees>37.0890104211866855621337890625</LongitudeDegrees>
            </Position>
            <AltitudeMeters>1093.800048828125</AltitudeMeters>
            <DistanceMeters>17683.785501067</DistanceMeters>
          </Trackpoint>
          <Trackpoint>
            <Time>2021-08-01T14:08:42.000Z</Time>
            <Position>
              <LatitudeDegrees>-15.391938574612140655517578125</LatitudeDegrees>
              <LongitudeDegrees>37.08901938982307910919189453125</LongitudeDegrees>
            </Position>
            <AltitudeMeters>1093.800048828125</AltitudeMeters>
            <DistanceMeters>17684.800108733</DistanceMeters>
          </Trackpoint>
          <Trackpoint>
            <Time>2021-08-01T14:08:45.000Z</Time>
            <Position>
              <LatitudeDegrees>-15.391935892403125762939453125</LatitudeDegrees>
              <LongitudeDegrees>37.08907688967883586883544921875</LongitudeDegrees>
            </Position>
            <AltitudeMeters>1093.800048828125</AltitudeMeters>
            <DistanceMeters>17690.977576098</DistanceMeters>
          </Trackpoint>
          <Trackpoint>
            <Time>2021-08-01T14:08:50.000Z</Time>
            <Position>
              <LatitudeDegrees>-15.39193144999444484710693359375</LatitudeDegrees>
              <LongitudeDegrees>37.0891619659960269927978515625</LongitudeDegrees>
            </Position>
            <AltitudeMeters>1094</AltitudeMeters>
            <DistanceMeters>17700.120904142</DistanceMeters>
          </Trackpoint>
          <Trackpoint>
            <Time>2021-08-01T14:08:54.000Z</Time>
            <Position>
              <LatitudeDegrees>-15.39193220436573028564453125</LatitudeDegrees>
              <LongitudeDegrees>37.0892045460641384124755859375</LongitudeDegrees>
            </Position>
            <AltitudeMeters>1094</AltitudeMeters>
            <DistanceMeters>17704.691086503</DistanceMeters>
          </Trackpoint>
          <Trackpoint>
            <Time>2021-08-01T14:08:57.000Z</Time>
            <Position>
              <LatitudeDegrees>-15.39192893542349338531494140625</LatitudeDegrees>
              <LongitudeDegrees>37.0892189629375934600830078125</LongitudeDegrees>
            </Position>
            <AltitudeMeters>1094</AltitudeMeters>
            <DistanceMeters>17706.284024506</DistanceMeters>
          </Trackpoint>
          <Trackpoint>
            <Time>2021-08-01T14:09:05.000Z</Time>
            <Position>
              <LatitudeDegrees>-15.39190127514302730560302734375</LatitudeDegrees>
              <LongitudeDegrees>37.0892340503633022308349609375</LongitudeDegrees>
            </Position>
            <AltitudeMeters>1094</AltitudeMeters>
            <DistanceMeters>17709.762573404</DistanceMeters>
          </Trackpoint>
          <Trackpoint>
            <Time>2021-08-01T14:09:12.000Z</Time>
            <Position>
              <LatitudeDegrees>-15.3919146023690700531005859375</LatitudeDegrees>
              <LongitudeDegrees>37.08925391547381877899169921875</LongitudeDegrees>
            </Position>
            <AltitudeMeters>1094</AltitudeMeters>
            <DistanceMeters>17712.358038108</DistanceMeters>
          </Trackpoint>
          <Trackpoint>
            <Time>2021-08-01T14:09:18.000Z</Time>
            <Position>
              <LatitudeDegrees>-15.391914434731006622314453125</LatitudeDegrees>
              <LongitudeDegrees>37.08925626240670680999755859375</LongitudeDegrees>
            </Position>
            <AltitudeMeters>1093.5999755859375</AltitudeMeters>
            <DistanceMeters>17712.59080507</DistanceMeters>
          </Trackpoint>
          <Trackpoint>
            <Time>2021-08-01T14:09:24.000Z</Time>
            <Position>
              <LatitudeDegrees>-15.3919132612645626068115234375</LatitudeDegrees>
              <LongitudeDegrees>37.08925626240670680999755859375</LongitudeDegrees>
            </Position>
            <AltitudeMeters>1094.199951171875</AltitudeMeters>
            <DistanceMeters>17712.725193138</DistanceMeters>
          </Trackpoint>
          <Trackpoint>
            <Time>2021-08-01T14:09:27.000Z</Time>
            <Position>
              <LatitudeDegrees>-15.39190798066556453704833984375</LatitudeDegrees>
              <LongitudeDegrees>37.08925626240670680999755859375</LongitudeDegrees>
            </Position>
            <AltitudeMeters>1094</AltitudeMeters>
            <DistanceMeters>17713.310977147</DistanceMeters>
          </Trackpoint>
          <Trackpoint>
            <Time>2021-08-01T14:09:41.000Z</Time>
            <Position>
              <LatitudeDegrees>-15.3919078968465328216552734375</LatitudeDegrees>
              <LongitudeDegrees>37.089261375367641448974609375</LongitudeDegrees>
            </Position>
            <AltitudeMeters>1093.5999755859375</AltitudeMeters>
            <DistanceMeters>17713.856864061</DistanceMeters>
          </Trackpoint>
          <Trackpoint>
            <Time>2021-08-01T14:09:47.000Z</Time>
            <Position>
              <LatitudeDegrees>-15.39190630428493022918701171875</LatitudeDegrees>
              <LongitudeDegrees>37.08926162682473659515380859375</LongitudeDegrees>
            </Position>
            <AltitudeMeters>1093.5999755859375</AltitudeMeters>
            <DistanceMeters>17714.021455158</DistanceMeters>
          </Trackpoint>
          <Trackpoint>
            <Time>2021-08-01T14:10:05.000Z</Time>
            <Position>
              <LatitudeDegrees>-15.3919033706188201904296875</LatitudeDegrees>
              <LongitudeDegrees>37.08924670703709125518798828125</LongitudeDegrees>
            </Position>
            <AltitudeMeters>1093.800048828125</AltitudeMeters>
            <DistanceMeters>17715.653592576</DistanceMeters>
          </Trackpoint>
          <Trackpoint>
            <Time>2021-08-01T14:10:15.000Z</Time>
            <Position>
              <LatitudeDegrees>-15.39190194569528102874755859375</LatitudeDegrees>
              <LongitudeDegrees>37.08924536593258380889892578125</LongitudeDegrees>
            </Position>
            <AltitudeMeters>1093.800048828125</AltitudeMeters>
            <DistanceMeters>17715.866078769</DistanceMeters>
          </Trackpoint>
          <Trackpoint>
            <Time>2021-08-01T14:10:23.000Z</Time>
            <Position>
              <LatitudeDegrees>-15.39190144278109073638916015625</LatitudeDegrees>
              <LongitudeDegrees>37.0892451144754886627197265625</LongitudeDegrees>
            </Position>
            <AltitudeMeters>1093.800048828125</AltitudeMeters>
            <DistanceMeters>17715.961105483</DistanceMeters>
          </Trackpoint>
          <Trackpoint>
            <Time>2021-08-01T14:10:25.000Z</Time>
            <Position>
              <LatitudeDegrees>-15.39190144278109073638916015625</LatitudeDegrees>
              <LongitudeDegrees>37.0892451144754886627197265625</LongitudeDegrees>
            </Position>
            <AltitudeMeters>1093.800048828125</AltitudeMeters>
            <DistanceMeters>17716.056132198</DistanceMeters>
          </Trackpoint>
          <Trackpoint>
            <Time>2021-08-01T14:10:27.000Z</Time>
            <Position>
              <LatitudeDegrees>-15.39190144278109073638916015625</LatitudeDegrees>
              <LongitudeDegrees>37.0892451144754886627197265625</LongitudeDegrees>
            </Position>
            <AltitudeMeters>1093.800048828125</AltitudeMeters>
            <DistanceMeters>17716.151158912</DistanceMeters>
          </Trackpoint>
          <Trackpoint>
            <Time>2021-08-01T14:10:30.000Z</Time>
            <Position>
              <LatitudeDegrees>-15.391902364790439605712890625</LatitudeDegrees>
              <LongitudeDegrees>37.0892454497516155242919921875</LongitudeDegrees>
            </Position>
            <AltitudeMeters>1093.800048828125</AltitudeMeters>
            <DistanceMeters>17716.246185626</DistanceMeters>
          </Trackpoint>
          <Trackpoint>
            <Time>2021-08-01T14:10:37.000Z</Time>
            <Position>
              <LatitudeDegrees>-15.39190940558910369873046875</LatitudeDegrees>
              <LongitudeDegrees>37.08924670703709125518798828125</LongitudeDegrees>
            </Position>
            <AltitudeMeters>1093.5999755859375</AltitudeMeters>
            <DistanceMeters>17717.04123616</DistanceMeters>
          </Trackpoint>
          <Trackpoint>
            <Time>2021-08-01T14:10:59.000Z</Time>
            <Position>
              <LatitudeDegrees>-15.391908399760723114013671875</LatitudeDegrees>
              <LongitudeDegrees>37.0892521552741527557373046875</LongitudeDegrees>
            </Position>
            <AltitudeMeters>1093.800048828125</AltitudeMeters>
            <DistanceMeters>17717.642237872</DistanceMeters>
          </Trackpoint>
          <Trackpoint>
            <Time>2021-08-01T14:11:09.000Z</Time>
            <Position>
              <LatitudeDegrees>-15.39190814830362796783447265625</LatitudeDegrees>
              <LongitudeDegrees>37.0892488025128841400146484375</LongitudeDegrees>
            </Position>
            <AltitudeMeters>1093.4000244140625</AltitudeMeters>
            <DistanceMeters>17718.010274754</DistanceMeters>
          </Trackpoint>
          <Trackpoint>
            <Time>2021-08-01T14:11:10.000Z</Time>
            <Position>
              <LatitudeDegrees>-15.3919082321226596832275390625</LatitudeDegrees>
              <LongitudeDegrees>37.08924855105578899383544921875</LongitudeDegrees>
            </Position>
            <AltitudeMeters>1093.4000244140625</AltitudeMeters>
            <DistanceMeters>17718.010274754</DistanceMeters>
          </Trackpoint>
          <Trackpoint>
            <Time>2021-08-01T14:11:17.000Z</Time>
            <Position>
              <LatitudeDegrees>-15.3919109143316745758056640625</LatitudeDegrees>
              <LongitudeDegrees>37.0892469584941864013671875</LongitudeDegrees>
            </Position>
            <AltitudeMeters>1093.4000244140625</AltitudeMeters>
            <DistanceMeters>17718.352898445</DistanceMeters>
          </Trackpoint>
          <Trackpoint>
            <Time>2021-08-01T14:11:51.000Z</Time>
            <Position>
              <LatitudeDegrees>-15.39192013442516326904296875</LatitudeDegrees>
              <LongitudeDegrees>37.0892431028187274932861328125</LongitudeDegrees>
            </Position>
            <AltitudeMeters>1093.4000244140625</AltitudeMeters>
            <DistanceMeters>17719.457009092</DistanceMeters>
          </Trackpoint>
          <Trackpoint>
            <Time>2021-08-01T14:12:20.000Z</Time>
            <Position>
              <LatitudeDegrees>-15.39192876778542995452880859375</LatitudeDegrees>
              <LongitudeDegrees>37.0892551727592945098876953125</LongitudeDegrees>
            </Position>
            <AltitudeMeters>1093.4000244140625</AltitudeMeters>
            <DistanceMeters>17721.069665911</DistanceMeters>
          </Trackpoint>
          <Trackpoint>
            <Time>2021-08-01T14:12:33.000Z</Time>
            <Position>
              <LatitudeDegrees>-15.3919286839663982391357421875</LatitudeDegrees>
              <LongitudeDegrees>37.0892571844160556793212890625</LongitudeDegrees>
            </Position>
            <AltitudeMeters>1093.4000244140625</AltitudeMeters>
            <DistanceMeters>17721.302432873</DistanceMeters>
          </Trackpoint>
          <Trackpoint>
            <Time>2021-08-01T14:12:38.000Z</Time>
            <Position>
              <LatitudeDegrees>-15.39192876778542995452880859375</LatitudeDegrees>
              <LongitudeDegrees>37.0892571844160556793212890625</LongitudeDegrees>
            </Position>
            <AltitudeMeters>1093.4000244140625</AltitudeMeters>
            <DistanceMeters>17721.302432873</DistanceMeters>
          </Trackpoint>
          <Trackpoint>
            <Time>2021-08-01T14:13:12.000Z</Time>
            <Position>
              <LatitudeDegrees>-15.39192876778542995452880859375</LatitudeDegrees>
              <LongitudeDegrees>37.0892568491399288177490234375</LongitudeDegrees>
            </Position>
            <AltitudeMeters>1093.4000244140625</AltitudeMeters>
            <DistanceMeters>17721.302432873</DistanceMeters>
          </Trackpoint>
          <Trackpoint>
            <Time>2021-08-01T14:14:14.000Z</Time>
            <Position>
              <LatitudeDegrees>-15.39192709140479564666748046875</LatitudeDegrees>
              <LongitudeDegrees>37.08925676532089710235595703125</LongitudeDegrees>
            </Position>
            <AltitudeMeters>1093.4000244140625</AltitudeMeters>
            <DistanceMeters>17721.492486302</DistanceMeters>
          </Trackpoint>
          <Trackpoint>
            <Time>2021-08-01T14:14:38.000Z</Time>
            <Position>
              <LatitudeDegrees>-15.39192742668092250823974609375</LatitudeDegrees>
              <LongitudeDegrees>37.0892565138638019561767578125</LongitudeDegrees>
            </Position>
            <AltitudeMeters>1093.4000244140625</AltitudeMeters>
            <DistanceMeters>17721.492486302</DistanceMeters>
          </Trackpoint>
          <Trackpoint>
            <Time>2021-08-01T14:15:07.000Z</Time>
            <Position>
              <LatitudeDegrees>-15.39192759431898593902587890625</LatitudeDegrees>
              <LongitudeDegrees>37.08925592713057994842529296875</LongitudeDegrees>
            </Position>
            <AltitudeMeters>1093.4000244140625</AltitudeMeters>
            <DistanceMeters>17721.492486302</DistanceMeters>
          </Trackpoint>
          <Trackpoint>
            <Time>2021-08-01T14:15:12.000Z</Time>
            <Position>
              <LatitudeDegrees>-15.3919275104999542236328125</LatitudeDegrees>
              <LongitudeDegrees>37.0892558433115482330322265625</LongitudeDegrees>
            </Position>
            <AltitudeMeters>1093.4000244140625</AltitudeMeters>
            <DistanceMeters>17721.492486302</DistanceMeters>
          </Trackpoint>
          <Trackpoint>
            <Time>2021-08-01T14:15:15.000Z</Time>
            <Position>
              <LatitudeDegrees>-15.3919275104999542236328125</LatitudeDegrees>
              <LongitudeDegrees>37.08925575949251651763916015625</LongitudeDegrees>
            </Position>
            <AltitudeMeters>1093.4000244140625</AltitudeMeters>
            <DistanceMeters>17721.492486302</DistanceMeters>
          </Trackpoint>
          <Trackpoint>
            <Time>2021-08-01T14:15:40.000Z</Time>
            <Position>
              <LatitudeDegrees>-15.391927175223827362060546875</LatitudeDegrees>
              <LongitudeDegrees>37.08925525657832622528076171875</LongitudeDegrees>
            </Position>
            <AltitudeMeters>1093.4000244140625</AltitudeMeters>
            <DistanceMeters>17721.587513016</DistanceMeters>
          </Trackpoint>
          <Trackpoint>
            <Time>2021-08-01T14:15:55.000Z</Time>
            <Position>
              <LatitudeDegrees>-15.3919270075857639312744140625</LatitudeDegrees>
              <LongitudeDegrees>37.08925508894026279449462890625</LongitudeDegrees>
            </Position>
            <AltitudeMeters>1093.4000244140625</AltitudeMeters>
            <DistanceMeters>17721.682539731</DistanceMeters>
          </Trackpoint>
          <Trackpoint>
            <Time>2021-08-01T14:15:58.000Z</Time>
            <Position>
              <LatitudeDegrees>-15.39192692376673221588134765625</LatitudeDegrees>
              <LongitudeDegrees>37.08925508894026279449462890625</LongitudeDegrees>
            </Position>
            <AltitudeMeters>1093.4000244140625</AltitudeMeters>
            <DistanceMeters>17721.682539731</DistanceMeters>
          </Trackpoint>
          <Trackpoint>
            <Time>2021-08-01T14:16:03.000Z</Time>
            <Position>
              <LatitudeDegrees>-15.39192683994770050048828125</LatitudeDegrees>
              <LongitudeDegrees>37.08925508894026279449462890625</LongitudeDegrees>
            </Position>
            <AltitudeMeters>1093.4000244140625</AltitudeMeters>
            <DistanceMeters>17721.682539731</DistanceMeters>
          </Trackpoint>
          <Trackpoint>
            <Time>2021-08-01T14:16:06.000Z</Time>
            <Position>
              <LatitudeDegrees>-15.39192683994770050048828125</LatitudeDegrees>
              <LongitudeDegrees>37.0892550051212310791015625</LongitudeDegrees>
            </Position>
            <AltitudeMeters>1093.4000244140625</AltitudeMeters>
            <DistanceMeters>17721.682539731</DistanceMeters>
          </Trackpoint>
          <Trackpoint>
            <Time>2021-08-01T14:16:20.000Z</Time>
            <Position>
              <LatitudeDegrees>-15.391926504671573638916015625</LatitudeDegrees>
              <LongitudeDegrees>37.0892550051212310791015625</LongitudeDegrees>
            </Position>
            <AltitudeMeters>1093.4000244140625</AltitudeMeters>
            <DistanceMeters>17721.682539731</DistanceMeters>
          </Trackpoint>
          <Trackpoint>
            <Time>2021-08-01T14:16:26.000Z</Time>
            <Position>
              <LatitudeDegrees>-15.39189943112432956695556640625</LatitudeDegrees>
              <LongitudeDegrees>37.0892534963786602020263671875</LongitudeDegrees>
            </Position>
            <AltitudeMeters>1093.4000244140625</AltitudeMeters>
            <DistanceMeters>17724.69954438</DistanceMeters>
          </Trackpoint>
          <Trackpoint>
            <Time>2021-08-01T14:16:33.000Z</Time>
            <Position>
              <LatitudeDegrees>-15.39186590351164340972900390625</LatitudeDegrees>
              <LongitudeDegrees>37.089260034263134002685546875</LongitudeDegrees>
            </Position>
            <AltitudeMeters>1093.4000244140625</AltitudeMeters>
            <DistanceMeters>17728.497047781</DistanceMeters>
          </Trackpoint>
          <Trackpoint>
            <Time>2021-08-01T14:16:38.000Z</Time>
            <Position>
              <LatitudeDegrees>-15.3918294422328472137451171875</LatitudeDegrees>
              <LongitudeDegrees>37.08927487023174762725830078125</LongitudeDegrees>
            </Position>
            <AltitudeMeters>1093.4000244140625</AltitudeMeters>
            <DistanceMeters>17732.85586423</DistanceMeters>
          </Trackpoint>
          <Trackpoint>
            <Time>2021-08-01T14:16:40.000Z</Time>
            <Position>
              <LatitudeDegrees>-15.39180823601782321929931640625</LatitudeDegrees>
              <LongitudeDegrees>37.08927185274660587310791015625</LongitudeDegrees>
            </Position>
            <AltitudeMeters>1093.4000244140625</AltitudeMeters>
            <DistanceMeters>17735.237226867</DistanceMeters>
          </Trackpoint>
          <Trackpoint>
            <Time>2021-08-01T14:16:46.000Z</Time>
            <Position>
              <LatitudeDegrees>-15.3917531669139862060546875</LatitudeDegrees>
              <LongitudeDegrees>37.0892709307372570037841796875</LongitudeDegrees>
            </Position>
            <AltitudeMeters>1093.4000244140625</AltitudeMeters>
            <DistanceMeters>17741.3670024</DistanceMeters>
          </Trackpoint>
          <Trackpoint>
            <Time>2021-08-01T14:16:48.000Z</Time>
            <Position>
              <LatitudeDegrees>-15.39173380471765995025634765625</LatitudeDegrees>
              <LongitudeDegrees>37.08927981555461883544921875</LongitudeDegrees>
            </Position>
            <AltitudeMeters>1093.4000244140625</AltitudeMeters>
            <DistanceMeters>17743.721671578</DistanceMeters>
          </Trackpoint>
          <Trackpoint>
            <Time>2021-08-01T14:16:52.000Z</Time>
            <Position>
              <LatitudeDegrees>-15.39169759489595890045166015625</LatitudeDegrees>
              <LongitudeDegrees>37.0893131755292415618896484375</LongitudeDegrees>
            </Position>
            <AltitudeMeters>1093.4000244140625</AltitudeMeters>
            <DistanceMeters>17749.112291764</DistanceMeters>
          </Trackpoint>
          <Trackpoint>
            <Time>2021-08-01T14:16:58.000Z</Time>
            <Position>
              <LatitudeDegrees>-15.39165199734270572662353515625</LatitudeDegrees>
              <LongitudeDegrees>37.0893735252320766448974609375</LongitudeDegrees>
            </Position>
            <AltitudeMeters>1093.4000244140625</AltitudeMeters>
            <DistanceMeters>17757.339651792</DistanceMeters>
          </Trackpoint>
          <Trackpoint>
            <Time>2021-08-01T14:17:03.000Z</Time>
            <Position>
              <LatitudeDegrees>-15.39161997847259044647216796875</LatitudeDegrees>
              <LongitudeDegrees>37.08942457102239131927490234375</LongitudeDegrees>
            </Position>
            <AltitudeMeters>1093.5999755859375</AltitudeMeters>
            <DistanceMeters>17763.875113641</DistanceMeters>
          </Trackpoint>
          <Trackpoint>
            <Time>2021-08-01T14:17:11.000Z</Time>
            <Position>
              <LatitudeDegrees>-15.3915588743984699249267578125</LatitudeDegrees>
              <LongitudeDegrees>37.0895096473395824432373046875</LongitudeDegrees>
            </Position>
            <AltitudeMeters>1093.800048828125</AltitudeMeters>
            <DistanceMeters>17775.259298158</DistanceMeters>
          </Trackpoint>
          <Trackpoint>
            <Time>2021-08-01T14:17:12.000Z</Time>
            <Position>
              <LatitudeDegrees>-15.39155459962785243988037109375</LatitudeDegrees>
              <LongitudeDegrees>37.089519537985324859619140625</LongitudeDegrees>
            </Position>
            <AltitudeMeters>1093.800048828125</AltitudeMeters>
            <DistanceMeters>17776.423132969</DistanceMeters>
          </Trackpoint>
          <Trackpoint>
            <Time>2021-08-01T14:17:13.000Z</Time>
            <Position>
              <LatitudeDegrees>-15.3915464691817760467529296875</LatitudeDegrees>
              <LongitudeDegrees>37.08953336812555789947509765625</LongitudeDegrees>
            </Position>
            <AltitudeMeters>1093.800048828125</AltitudeMeters>
            <DistanceMeters>17778.162407418</DistanceMeters>
          </Trackpoint>
          <Trackpoint>
            <Time>2021-08-01T14:17:14.000Z</Time>
            <Position>
              <LatitudeDegrees>-15.39153917692601680755615234375</LatitudeDegrees>
              <LongitudeDegrees>37.08954401314258575439453125</LongitudeDegrees>
            </Position>
            <AltitudeMeters>1093.800048828125</AltitudeMeters>
            <DistanceMeters>17779.559009191</DistanceMeters>
          </Trackpoint>
          <Trackpoint>
            <Time>2021-08-01T14:17:15.000Z</Time>
            <Position>
              <LatitudeDegrees>-15.39153280667960643768310546875</LatitudeDegrees>
              <LongitudeDegrees>37.089553065598011016845703125</LongitudeDegrees>
            </Position>
            <AltitudeMeters>1093.800048828125</AltitudeMeters>
            <DistanceMeters>17780.757250466</DistanceMeters>
          </Trackpoint>
          <Trackpoint>
            <Time>2021-08-01T14:17:16.000Z</Time>
            <Position>
              <LatitudeDegrees>-15.39152727462351322174072265625</LatitudeDegrees>
              <LongitudeDegrees>37.08956153132021427154541015625</LongitudeDegrees>
            </Position>
            <AltitudeMeters>1093.800048828125</AltitudeMeters>
            <DistanceMeters>17781.853151998</DistanceMeters>
          </Trackpoint>
          <Trackpoint>
            <Time>2021-08-01T14:17:17.000Z</Time>
            <Position>
              <LatitudeDegrees>-15.3915206529200077056884765625</LatitudeDegrees>
              <LongitudeDegrees>37.08957041613757610321044921875</LongitudeDegrees>
            </Position>
            <AltitudeMeters>1093.800048828125</AltitudeMeters>
            <DistanceMeters>17783.058905831</DistanceMeters>
          </Trackpoint>
          <Trackpoint>
            <Time>2021-08-01T14:17:20.000Z</Time>
            <Position>
              <LatitudeDegrees>-15.3915025480091571807861328125</LatitudeDegrees>
              <LongitudeDegrees>37.08959572948515415191650390625</LongitudeDegrees>
            </Position>
            <AltitudeMeters>1093.800048828125</AltitudeMeters>
            <DistanceMeters>17786.441376357</DistanceMeters>
          </Trackpoint>
          <Trackpoint>
            <Time>2021-08-01T14:17:21.000Z</Time>
            <Position>
              <LatitudeDegrees>-15.39149290882050991058349609375</LatitudeDegrees>
              <LongitudeDegrees>37.08960562013089656829833984375</LongitudeDegrees>
            </Position>
            <AltitudeMeters>1093.800048828125</AltitudeMeters>
            <DistanceMeters>17787.952868778</DistanceMeters>
          </Trackpoint>
          <Trackpoint>
            <Time>2021-08-01T14:17:29.000Z</Time>
            <Position>
              <LatitudeDegrees>-15.39142099209129810333251953125</LatitudeDegrees>
              <LongitudeDegrees>37.089681811630725860595703125</LongitudeDegrees>
            </Position>
            <AltitudeMeters>1094</AltitudeMeters>
            <DistanceMeters>17799.394811283</DistanceMeters>
          </Trackpoint>
          <Trackpoint>
            <Time>2021-08-01T14:17:34.000Z</Time>
            <Position>
              <LatitudeDegrees>-15.39137103594839572906494140625</LatitudeDegrees>
              <LongitudeDegrees>37.0897155068814754486083984375</LongitudeDegrees>
            </Position>
            <AltitudeMeters>1094</AltitudeMeters>
            <DistanceMeters>17806.026967973</DistanceMeters>
          </Trackpoint>
          <Trackpoint>
            <Time>2021-08-01T14:17:38.000Z</Time>
            <Position>
              <LatitudeDegrees>-15.3913372568786144256591796875</LatitudeDegrees>
              <LongitudeDegrees>37.089729420840740203857421875</LongitudeDegrees>
            </Position>
            <AltitudeMeters>1094</AltitudeMeters>
            <DistanceMeters>17810.073142536</DistanceMeters>
          </Trackpoint>
          <Trackpoint>
            <Time>2021-08-01T14:17:42.000Z</Time>
            <Position>
              <LatitudeDegrees>-15.39129945449531078338623046875</LatitudeDegrees>
              <LongitudeDegrees>37.08974475972354412078857421875</LongitudeDegrees>
            </Position>
            <AltitudeMeters>1094</AltitudeMeters>
            <DistanceMeters>17814.591660306</DistanceMeters>
          </Trackpoint>
          <Trackpoint>
            <Time>2021-08-01T14:17:48.000Z</Time>
            <Position>
              <LatitudeDegrees>-15.3912328183650970458984375</LatitudeDegrees>
              <LongitudeDegrees>37.0897627808153629302978515625</LongitudeDegrees>
            </Position>
            <AltitudeMeters>1093.4000244140625</AltitudeMeters>
            <DistanceMeters>17822.257083153</DistanceMeters>
          </Trackpoint>
          <Trackpoint>
            <Time>2021-08-01T14:17:56.000Z</Time>
            <Position>
              <LatitudeDegrees>-15.3911310620605945587158203125</LatitudeDegrees>
              <LongitudeDegrees>37.089770324528217315673828125</LongitudeDegrees>
            </Position>
            <AltitudeMeters>1092.5999755859375</AltitudeMeters>
            <DistanceMeters>17833.611880882</DistanceMeters>
          </Trackpoint>
          <Trackpoint>
            <Time>2021-08-01T14:18:06.000Z</Time>
            <Position>
              <LatitudeDegrees>-15.3910127095878124237060546875</LatitudeDegrees>
              <LongitudeDegrees>37.08975967951118946075439453125</LongitudeDegrees>
            </Position>
            <AltitudeMeters>1092.800048828125</AltitudeMeters>
            <DistanceMeters>17846.833918545</DistanceMeters>
          </Trackpoint>
          <Trackpoint>
            <Time>2021-08-01T14:18:12.000Z</Time>
            <Position>
              <LatitudeDegrees>-15.39100910536944866180419921875</LatitudeDegrees>
              <LongitudeDegrees>37.0897617749869823455810546875</LongitudeDegrees>
            </Position>
            <AltitudeMeters>1092.5999755859375</AltitudeMeters>
            <DistanceMeters>17847.299452469</DistanceMeters>
          </Trackpoint>
          <Trackpoint>
            <Time>2021-08-01T14:18:15.000Z</Time>
            <Position>
              <LatitudeDegrees>-15.39101212285459041595458984375</LatitudeDegrees>
              <LongitudeDegrees>37.08976336754858493804931640625</LongitudeDegrees>
            </Position>
            <AltitudeMeters>1092.4000244140625</AltitudeMeters>
            <DistanceMeters>17847.667489351</DistanceMeters>
          </Trackpoint>
          <Trackpoint>
            <Time>2021-08-01T14:18:20.000Z</Time>
            <Position>
              <LatitudeDegrees>-15.3909865580499172210693359375</LatitudeDegrees>
              <LongitudeDegrees>37.08974258042871952056884765625</LongitudeDegrees>
            </Position>
            <AltitudeMeters>1092.800048828125</AltitudeMeters>
            <DistanceMeters>17851.283502444</DistanceMeters>
          </Trackpoint>
          <Trackpoint>
            <Time>2021-08-01T14:18:21.000Z</Time>
            <Position>
              <LatitudeDegrees>-15.390975661575794219970703125</LatitudeDegrees>
              <LongitudeDegrees>37.0897386409342288970947265625</LongitudeDegrees>
            </Position>
            <AltitudeMeters>1092.800048828125</AltitudeMeters>
            <DistanceMeters>17852.569000009</DistanceMeters>
          </Trackpoint>
          <Trackpoint>
            <Time>2021-08-01T14:18:28.000Z</Time>
            <Position>
              <LatitudeDegrees>-15.390893518924713134765625</LatitudeDegrees>
              <LongitudeDegrees>37.0897185243666172027587890625</LongitudeDegrees>
            </Position>
            <AltitudeMeters>1093</AltitudeMeters>
            <DistanceMeters>17861.962716367</DistanceMeters>
          </Trackpoint>
          <Trackpoint>
            <Time>2021-08-01T14:18:37.000Z</Time>
            <Position>
              <LatitudeDegrees>-15.39077592082321643829345703125</LatitudeDegrees>
              <LongitudeDegrees>37.0897366292774677276611328125</LongitudeDegrees>
            </Position>
            <AltitudeMeters>1093</AltitudeMeters>
            <DistanceMeters>17875.194994412</DistanceMeters>
          </Trackpoint>
          <Trackpoint>
            <Time>2021-08-01T14:18:47.000Z</Time>
            <Position>
              <LatitudeDegrees>-15.390665866434574127197265625</LatitudeDegrees>
              <LongitudeDegrees>37.089703939855098724365234375</LongitudeDegrees>
            </Position>
            <AltitudeMeters>1093.199951171875</AltitudeMeters>
            <DistanceMeters>17887.936726805</DistanceMeters>
          </Trackpoint>
          <Trackpoint>
            <Time>2021-08-01T14:18:57.000Z</Time>
            <Position>
              <LatitudeDegrees>-15.39055757224559783935546875</LatitudeDegrees>
              <LongitudeDegrees>37.08966110832989215850830078125</LongitudeDegrees>
            </Position>
            <AltitudeMeters>1093.4000244140625</AltitudeMeters>
            <DistanceMeters>17900.836581405</DistanceMeters>
          </Trackpoint>
          <Trackpoint>
            <Time>2021-08-01T14:18:59.000Z</Time>
            <Position>
              <LatitudeDegrees>-15.39052731357514858245849609375</LatitudeDegrees>
              <LongitudeDegrees>37.089654989540576934814453125</LongitudeDegrees>
            </Position>
            <AltitudeMeters>1093.4000244140625</AltitudeMeters>
            <DistanceMeters>17904.266769389</DistanceMeters>
          </Trackpoint>
          <Trackpoint>
            <Time>2021-08-01T14:19:05.000Z</Time>
            <Position>
              <LatitudeDegrees>-15.39045774377882480621337890625</LatitudeDegrees>
              <LongitudeDegrees>37.089624144136905670166015625</LongitudeDegrees>
            </Position>
            <AltitudeMeters>1093.4000244140625</AltitudeMeters>
            <DistanceMeters>17912.68776638</DistanceMeters>
          </Trackpoint>
          <Trackpoint>
            <Time>2021-08-01T14:19:12.000Z</Time>
            <Position>
              <LatitudeDegrees>-15.39036872796714305877685546875</LatitudeDegrees>
              <LongitudeDegrees>37.089591287076473236083984375</LongitudeDegrees>
            </Position>
            <AltitudeMeters>1093.4000244140625</AltitudeMeters>
            <DistanceMeters>17923.20443773</DistanceMeters>
          </Trackpoint>
          <Trackpoint>
            <Time>2021-08-01T14:19:15.000Z</Time>
            <Position>
              <LatitudeDegrees>-15.3903284110128879547119140625</LatitudeDegrees>
              <LongitudeDegrees>37.08957863040268421173095703125</LongitudeDegrees>
            </Position>
            <AltitudeMeters>1093.4000244140625</AltitudeMeters>
            <DistanceMeters>17927.893599291</DistanceMeters>
          </Trackpoint>
          <Trackpoint>
            <Time>2021-08-01T14:19:22.000Z</Time>
            <Position>
              <LatitudeDegrees>-15.390249788761138916015625</LatitudeDegrees>
              <LongitudeDegrees>37.08955340087413787841796875</LongitudeDegrees>
            </Position>
            <AltitudeMeters>1093.4000244140625</AltitudeMeters>
            <DistanceMeters>17937.053701382</DistanceMeters>
          </Trackpoint>
          <Trackpoint>
            <Time>2021-08-01T14:19:25.000Z</Time>
            <Position>
              <LatitudeDegrees>-15.3902077116072177886962890625</LatitudeDegrees>
              <LongitudeDegrees>37.08953789435327053070068359375</LongitudeDegrees>
            </Position>
            <AltitudeMeters>1093.4000244140625</AltitudeMeters>
            <DistanceMeters>17942.023335078</DistanceMeters>
          </Trackpoint>
          <Trackpoint>
            <Time>2021-08-01T14:19:34.000Z</Time>
            <Position>
              <LatitudeDegrees>-15.39009891450405120849609375</LatitudeDegrees>
              <LongitudeDegrees>37.089510150253772735595703125</LongitudeDegrees>
            </Position>
            <AltitudeMeters>1093.800048828125</AltitudeMeters>
            <DistanceMeters>17954.493215445</DistanceMeters>
          </Trackpoint>
          <Trackpoint>
            <Time>2021-08-01T14:19:43.000Z</Time>
            <Position>
              <LatitudeDegrees>-15.3899934701621532440185546875</LatitudeDegrees>
              <LongitudeDegrees>37.08949045278131961822509765625</LongitudeDegrees>
            </Position>
            <AltitudeMeters>1093.4000244140625</AltitudeMeters>
            <DistanceMeters>17966.418216235</DistanceMeters>
          </Trackpoint>
          <Trackpoint>
            <Time>2021-08-01T14:19:46.000Z</Time>
            <Position>
              <LatitudeDegrees>-15.389961116015911102294921875</LatitudeDegrees>
              <LongitudeDegrees>37.0894803106784820556640625</LongitudeDegrees>
            </Position>
            <AltitudeMeters>1093.5999755859375</AltitudeMeters>
            <DistanceMeters>17970.179882061</DistanceMeters>
          </Trackpoint>
          <Trackpoint>
            <Time>2021-08-01T14:19:47.000Z</Time>
            <Position>
              <LatitudeDegrees>-15.38995969109237194061279296875</LatitudeDegrees>
              <LongitudeDegrees>37.089479975402355194091796875</LongitudeDegrees>
            </Position>
            <AltitudeMeters>1093.5999755859375</AltitudeMeters>
            <DistanceMeters>17970.344473158</DistanceMeters>
          </Trackpoint>
          <Trackpoint>
            <Time>2021-08-01T14:19:49.000Z</Time>
            <Position>
              <LatitudeDegrees>-15.38994510658085346221923828125</LatitudeDegrees>
              <LongitudeDegrees>37.08947368897497653961181640625</LongitudeDegrees>
            </Position>
            <AltitudeMeters>1093.199951171875</AltitudeMeters>
            <DistanceMeters>17972.101825184</DistanceMeters>
          </Trackpoint>
          <Trackpoint>
            <Time>2021-08-01T14:19:57.000Z</Time>
            <Position>
              <LatitudeDegrees>-15.38985055871307849884033203125</LatitudeDegrees>
              <LongitudeDegrees>37.08945893682539463043212890625</LongitudeDegrees>
            </Position>
            <AltitudeMeters>1093.5999755859375</AltitudeMeters>
            <DistanceMeters>17982.743544438</DistanceMeters>
          </Trackpoint>
          <Trackpoint>
            <Time>2021-08-01T14:20:08.000Z</Time>
            <Position>
              <LatitudeDegrees>-15.38970722816884517669677734375</LatitudeDegrees>
              <LongitudeDegrees>37.08948475308716297149658203125</LongitudeDegrees>
            </Position>
            <AltitudeMeters>1093.5999755859375</AltitudeMeters>
            <DistanceMeters>17998.935494274</DistanceMeters>
          </Trackpoint>
          <Trackpoint>
            <Time>2021-08-01T14:20:17.000Z</Time>
            <Position>
              <LatitudeDegrees>-15.389583595097064971923828125</LatitudeDegrees>
              <LongitudeDegrees>37.08950587548315525054931640625</LongitudeDegrees>
            </Position>
            <AltitudeMeters>1093</AltitudeMeters>
            <DistanceMeters>18012.881453777</DistanceMeters>
          </Trackpoint>
          <Trackpoint>
            <Time>2021-08-01T14:20:28.000Z</Time>
            <Position>
              <LatitudeDegrees>-15.38944604806602001190185546875</LatitudeDegrees>
              <LongitudeDegrees>37.08950805477797985076904296875</LongitudeDegrees>
            </Position>
            <AltitudeMeters>1092.5999755859375</AltitudeMeters>
            <DistanceMeters>18028.192849684</DistanceMeters>
          </Trackpoint>
          <Trackpoint>
            <Time>2021-08-01T14:20:31.000Z</Time>
            <Position>
              <LatitudeDegrees>-15.389406569302082061767578125</LatitudeDegrees>
              <LongitudeDegrees>37.08950914442539215087890625</LongitudeDegrees>
            </Position>
            <AltitudeMeters>1092.5999755859375</AltitudeMeters>
            <DistanceMeters>18032.589825198</DistanceMeters>
          </Trackpoint>
          <Trackpoint>
            <Time>2021-08-01T14:20:37.000Z</Time>
            <Position>
              <LatitudeDegrees>-15.38934412412345409393310546875</LatitudeDegrees>
              <LongitudeDegrees>37.089534960687160491943359375</LongitudeDegrees>
            </Position>
            <AltitudeMeters>1092.800048828125</AltitudeMeters>
            <DistanceMeters>18040.07223617</DistanceMeters>
          </Trackpoint>
          <Trackpoint>
            <Time>2021-08-01T14:20:46.000Z</Time>
            <Position>
              <LatitudeDegrees>-15.38922359235584735870361328125</LatitudeDegrees>
              <LongitudeDegrees>37.0895968191325664520263671875</LongitudeDegrees>
            </Position>
            <AltitudeMeters>1092.5999755859375</AltitudeMeters>
            <DistanceMeters>18055.039773258</DistanceMeters>
          </Trackpoint>
          <Trackpoint>
            <Time>2021-08-01T14:20:51.000Z</Time>
            <Position>
              <LatitudeDegrees>-15.38917489349842071533203125</LatitudeDegrees>
              <LongitudeDegrees>37.0896098949015140533447265625</LongitudeDegrees>
            </Position>
            <AltitudeMeters>1093</AltitudeMeters>
            <DistanceMeters>18060.638290503</DistanceMeters>
          </Trackpoint>
          <Trackpoint>
            <Time>2021-08-01T14:20:54.000Z</Time>
            <Position>
              <LatitudeDegrees>-15.38913323543965816497802734375</LatitudeDegrees>
              <LongitudeDegrees>37.089618779718875885009765625</LongitudeDegrees>
            </Position>
            <AltitudeMeters>1092.5999755859375</AltitudeMeters>
            <DistanceMeters>18065.37153671</DistanceMeters>
          </Trackpoint>
          <Trackpoint>
            <Time>2021-08-01T14:20:57.000Z</Time>
            <Position>
              <LatitudeDegrees>-15.38909266702830791473388671875</LatitudeDegrees>
              <LongitudeDegrees>37.089623473584651947021484375</LongitudeDegrees>
            </Position>
            <AltitudeMeters>1092.5999755859375</AltitudeMeters>
            <DistanceMeters>18069.914966554</DistanceMeters>
          </Trackpoint>
          <Trackpoint>
            <Time>2021-08-01T14:21:07.000Z</Time>
            <Position>
              <LatitudeDegrees>-15.38897397927939891815185546875</LatitudeDegrees>
              <LongitudeDegrees>37.089645601809024810791015625</LongitudeDegrees>
            </Position>
            <AltitudeMeters>1092.5999755859375</AltitudeMeters>
            <DistanceMeters>18083.336964358</DistanceMeters>
          </Trackpoint>
          <Trackpoint>
            <Time>2021-08-01T14:21:17.000Z</Time>
            <Position>
              <LatitudeDegrees>-15.38884707726538181304931640625</LatitudeDegrees>
              <LongitudeDegrees>37.08964736200869083404541015625</LongitudeDegrees>
            </Position>
            <AltitudeMeters>1093.199951171875</AltitudeMeters>
            <DistanceMeters>18097.462742184</DistanceMeters>
          </Trackpoint>
          <Trackpoint>
            <Time>2021-08-01T14:21:18.000Z</Time>
            <Position>
              <LatitudeDegrees>-15.38883467204868793487548828125</LatitudeDegrees>
              <LongitudeDegrees>37.0896484516561031341552734375</LongitudeDegrees>
            </Position>
            <AltitudeMeters>1093.4000244140625</AltitudeMeters>
            <DistanceMeters>18098.852863171</DistanceMeters>
          </Trackpoint>
          <Trackpoint>
            <Time>2021-08-01T14:21:23.000Z</Time>
            <Position>
              <LatitudeDegrees>-15.388776920735836029052734375</LatitudeDegrees>
              <LongitudeDegrees>37.089650630950927734375</LongitudeDegrees>
            </Position>
            <AltitudeMeters>1093.800048828125</AltitudeMeters>
            <DistanceMeters>18105.285968203</DistanceMeters>
          </Trackpoint>
          <Trackpoint>
            <Time>2021-08-01T14:21:26.000Z</Time>
            <Position>
              <LatitudeDegrees>-15.3887449018657207489013671875</LatitudeDegrees>
              <LongitudeDegrees>37.089664041996002197265625</LongitudeDegrees>
            </Position>
            <AltitudeMeters>1093.5999755859375</AltitudeMeters>
            <DistanceMeters>18109.129560931</DistanceMeters>
          </Trackpoint>
          <Trackpoint>
            <Time>2021-08-01T14:21:35.000Z</Time>
            <Position>
              <LatitudeDegrees>-15.38864792324602603912353515625</LatitudeDegrees>
              <LongitudeDegrees>37.089712321758270263671875</LongitudeDegrees>
            </Position>
            <AltitudeMeters>1093.800048828125</AltitudeMeters>
            <DistanceMeters>18121.102549846</DistanceMeters>
          </Trackpoint>
          <Trackpoint>
            <Time>2021-08-01T14:21:42.000Z</Time>
            <Position>
              <LatitudeDegrees>-15.38855069316923618316650390625</LatitudeDegrees>
              <LongitudeDegrees>37.0897429995238780975341796875</LongitudeDegrees>
            </Position>
            <AltitudeMeters>1093.5999755859375</AltitudeMeters>
            <DistanceMeters>18132.41392258</DistanceMeters>
          </Trackpoint>
          <Trackpoint>
            <Time>2021-08-01T14:21:49.000Z</Time>
            <Position>
              <LatitudeDegrees>-15.388473160564899444580078125</LatitudeDegrees>
              <LongitudeDegrees>37.08975456655025482177734375</LongitudeDegrees>
            </Position>
            <AltitudeMeters>1093.5999755859375</AltitudeMeters>
            <DistanceMeters>18141.132591257</DistanceMeters>
          </Trackpoint>
          <Trackpoint>
            <Time>2021-08-01T14:22:00.000Z</Time>
            <Position>
              <LatitudeDegrees>-15.3883172571659088134765625</LatitudeDegrees>
              <LongitudeDegrees>37.0897778682410717010498046875</LongitudeDegrees>
            </Position>
            <AltitudeMeters>1093.199951171875</AltitudeMeters>
            <DistanceMeters>18158.664440618</DistanceMeters>
          </Trackpoint>
          <Trackpoint>
            <Time>2021-08-01T14:22:11.000Z</Time>
            <Position>
              <LatitudeDegrees>-15.3881843201816082000732421875</LatitudeDegrees>
              <LongitudeDegrees>37.08982774056494235992431640625</LongitudeDegrees>
            </Position>
            <AltitudeMeters>1093</AltitudeMeters>
            <DistanceMeters>18174.398752671</DistanceMeters>
          </Trackpoint>
          <Trackpoint>
            <Time>2021-08-01T14:22:21.000Z</Time>
            <Position>
              <LatitudeDegrees>-15.3880463540554046630859375</LatitudeDegrees>
              <LongitudeDegrees>37.0898489467799663543701171875</LongitudeDegrees>
            </Position>
            <AltitudeMeters>1093</AltitudeMeters>
            <DistanceMeters>18189.92246518</DistanceMeters>
          </Trackpoint>
          <Trackpoint>
            <Time>2021-08-01T14:22:23.000Z</Time>
            <Position>
              <LatitudeDegrees>-15.3880222141742706298828125</LatitudeDegrees>
              <LongitudeDegrees>37.08984978497028350830078125</LongitudeDegrees>
            </Position>
            <AltitudeMeters>1093</AltitudeMeters>
            <DistanceMeters>18192.611905871</DistanceMeters>
          </Trackpoint>
          <Trackpoint>
            <Time>2021-08-01T14:22:36.000Z</Time>
            <Position>
              <LatitudeDegrees>-15.38786874152719974517822265625</LatitudeDegrees>
              <LongitudeDegrees>37.08990745246410369873046875</LongitudeDegrees>
            </Position>
            <AltitudeMeters>1092.800048828125</AltitudeMeters>
            <DistanceMeters>18210.780407306</DistanceMeters>
          </Trackpoint>
          <Trackpoint>
            <Time>2021-08-01T14:22:42.000Z</Time>
            <Position>
              <LatitudeDegrees>-15.3877920471131801605224609375</LatitudeDegrees>
              <LongitudeDegrees>37.0899188518524169921875</LongitudeDegrees>
            </Position>
            <AltitudeMeters>1092.5999755859375</AltitudeMeters>
            <DistanceMeters>18219.403263529</DistanceMeters>
          </Trackpoint>
          <Trackpoint>
            <Time>2021-08-01T14:22:44.000Z</Time>
            <Position>
              <LatitudeDegrees>-15.387765727937221527099609375</LatitudeDegrees>
              <LongitudeDegrees>37.0899186842143535614013671875</LongitudeDegrees>
            </Position>
            <AltitudeMeters>1092.5999755859375</AltitudeMeters>
            <DistanceMeters>18222.332183573</DistanceMeters>
          </Trackpoint>
          <Trackpoint>
            <Time>2021-08-01T14:22:49.000Z</Time>
            <Position>
              <LatitudeDegrees>-15.38769607432186603546142578125</LatitudeDegrees>
              <LongitudeDegrees>37.08992346189916133880615234375</LongitudeDegrees>
            </Position>
            <AltitudeMeters>1092.5999755859375</AltitudeMeters>
            <DistanceMeters>18230.102324569</DistanceMeters>
          </Trackpoint>
          <Trackpoint>
            <Time>2021-08-01T14:22:52.000Z</Time>
            <Position>
              <LatitudeDegrees>-15.387656427919864654541015625</LatitudeDegrees>
              <LongitudeDegrees>37.0899267308413982391357421875</LongitudeDegrees>
            </Position>
            <AltitudeMeters>1092.5999755859375</AltitudeMeters>
            <DistanceMeters>18234.528978597</DistanceMeters>
          </Trackpoint>
          <Trackpoint>
            <Time>2021-08-01T14:22:58.000Z</Time>
            <Position>
              <LatitudeDegrees>-15.38762147538363933563232421875</LatitudeDegrees>
              <LongitudeDegrees>37.0899364538490772247314453125</LongitudeDegrees>
            </Position>
            <AltitudeMeters>1092.4000244140625</AltitudeMeters>
            <DistanceMeters>18238.557259542</DistanceMeters>
          </Trackpoint>
          <Trackpoint>
            <Time>2021-08-01T14:22:59.000Z</Time>
            <Position>
              <LatitudeDegrees>-15.3876230679452419281005859375</LatitudeDegrees>
              <LongitudeDegrees>37.08993569947779178619384765625</LongitudeDegrees>
            </Position>
            <AltitudeMeters>1092.199951171875</AltitudeMeters>
            <DistanceMeters>18238.747312971</DistanceMeters>
          </Trackpoint>
          <Trackpoint>
            <Time>2021-08-01T14:23:02.000Z</Time>
            <Position>
              <LatitudeDegrees>-15.38761409930884838104248046875</LatitudeDegrees>
              <LongitudeDegrees>37.08993653766810894012451171875</LongitudeDegrees>
            </Position>
            <AltitudeMeters>1092.199951171875</AltitudeMeters>
            <DistanceMeters>18239.743961559</DistanceMeters>
          </Trackpoint>
          <Trackpoint>
            <Time>2021-08-01T14:23:04.000Z</Time>
            <Position>
              <LatitudeDegrees>-15.3875972516834735870361328125</LatitudeDegrees>
              <LongitudeDegrees>37.0899371244013309478759765625</LongitudeDegrees>
            </Position>
            <AltitudeMeters>1092.199951171875</AltitudeMeters>
            <DistanceMeters>18241.618181327</DistanceMeters>
          </Trackpoint>
          <Trackpoint>
            <Time>2021-08-01T14:23:06.000Z</Time>
            <Position>
              <LatitudeDegrees>-15.38758258335292339324951171875</LatitudeDegrees>
              <LongitudeDegrees>37.08993695676326751708984375</LongitudeDegrees>
            </Position>
            <AltitudeMeters>1092.199951171875</AltitudeMeters>
            <DistanceMeters>18243.253082739</DistanceMeters>
          </Trackpoint>
          <Trackpoint>
            <Time>2021-08-01T14:23:08.000Z</Time>
            <Position>
              <LatitudeDegrees>-15.3875600360333919525146484375</LatitudeDegrees>
              <LongitudeDegrees>37.08993368782103061676025390625</LongitudeDegrees>
            </Position>
            <AltitudeMeters>1092.199951171875</AltitudeMeters>
            <DistanceMeters>18245.788711739</DistanceMeters>
          </Trackpoint>
          <Trackpoint>
            <Time>2021-08-01T14:23:13.000Z</Time>
            <Position>
              <LatitudeDegrees>-15.3875110857188701629638671875</LatitudeDegrees>
              <LongitudeDegrees>37.08993201144039630889892578125</LongitudeDegrees>
            </Position>
            <AltitudeMeters>1092.199951171875</AltitudeMeters>
            <DistanceMeters>18251.240960051</DistanceMeters>
          </Trackpoint>
          <Trackpoint>
            <Time>2021-08-01T14:23:22.000Z</Time>
            <Position>
              <LatitudeDegrees>-15.38740756921470165252685546875</LatitudeDegrees>
              <LongitudeDegrees>37.08995975553989410400390625</LongitudeDegrees>
            </Position>
            <AltitudeMeters>1092.199951171875</AltitudeMeters>
            <DistanceMeters>18263.141704521</DistanceMeters>
          </Trackpoint>
          <Trackpoint>
            <Time>2021-08-01T14:23:28.000Z</Time>
            <Position>
              <LatitudeDegrees>-15.38733649067580699920654296875</LatitudeDegrees>
              <LongitudeDegrees>37.08998766727745532989501953125</LongitudeDegrees>
            </Position>
            <AltitudeMeters>1091.800048828125</AltitudeMeters>
            <DistanceMeters>18271.601750969</DistanceMeters>
          </Trackpoint>
          <Trackpoint>
            <Time>2021-08-01T14:23:41.000Z</Time>
            <Position>
              <LatitudeDegrees>-15.3871727921068668365478515625</LatitudeDegrees>
              <LongitudeDegrees>37.09002622403204441070556640625</LongitudeDegrees>
            </Position>
            <AltitudeMeters>1091.4000244140625</AltitudeMeters>
            <DistanceMeters>18290.285076021</DistanceMeters>
          </Trackpoint>
          <Trackpoint>
            <Time>2021-08-01T14:23:49.000Z</Time>
            <Position>
              <LatitudeDegrees>-15.38706340827047824859619140625</LatitudeDegrees>
              <LongitudeDegrees>37.0900434069335460662841796875</LongitudeDegrees>
            </Position>
            <AltitudeMeters>1091.199951171875</AltitudeMeters>
            <DistanceMeters>18302.598279646</DistanceMeters>
          </Trackpoint>
          <Trackpoint>
            <Time>2021-08-01T14:23:52.000Z</Time>
            <Position>
              <LatitudeDegrees>-15.3870209120213985443115234375</LatitudeDegrees>
              <LongitudeDegrees>37.09004499949514865875244140625</LongitudeDegrees>
            </Position>
            <AltitudeMeters>1091.199951171875</AltitudeMeters>
            <DistanceMeters>18307.331525853</DistanceMeters>
          </Trackpoint>
          <Trackpoint>
            <Time>2021-08-01T14:24:01.000Z</Time>
            <Position>
              <LatitudeDegrees>-15.386907756328582763671875</LatitudeDegrees>
              <LongitudeDegrees>37.0900806225836277008056640625</LongitudeDegrees>
            </Position>
            <AltitudeMeters>1091.199951171875</AltitudeMeters>
            <DistanceMeters>18320.493326129</DistanceMeters>
          </Trackpoint>
          <Trackpoint>
            <Time>2021-08-01T14:24:07.000Z</Time>
            <Position>
              <LatitudeDegrees>-15.38683810271322727203369140625</LatitudeDegrees>
              <LongitudeDegrees>37.0901084505021572113037109375</LongitudeDegrees>
            </Position>
            <AltitudeMeters>1091.199951171875</AltitudeMeters>
            <DistanceMeters>18328.800965641</DistanceMeters>
          </Trackpoint>
          <Trackpoint>
            <Time>2021-08-01T14:24:10.000Z</Time>
            <Position>
              <LatitudeDegrees>-15.3867999650537967681884765625</LatitudeDegrees>
              <LongitudeDegrees>37.0901186764240264892578125</LongitudeDegrees>
            </Position>
            <AltitudeMeters>1091.4000244140625</AltitudeMeters>
            <DistanceMeters>18333.184571767</DistanceMeters>
          </Trackpoint>
          <Trackpoint>
            <Time>2021-08-01T14:24:21.000Z</Time>
            <Position>
              <LatitudeDegrees>-15.386683456599712371826171875</LatitudeDegrees>
              <LongitudeDegrees>37.09016184322535991668701171875</LongitudeDegrees>
            </Position>
            <AltitudeMeters>1091.199951171875</AltitudeMeters>
            <DistanceMeters>18346.954923079</DistanceMeters>
          </Trackpoint>
          <Trackpoint>
            <Time>2021-08-01T14:24:32.000Z</Time>
            <Position>
              <LatitudeDegrees>-15.38657088764011859893798828125</LatitudeDegrees>
              <LongitudeDegrees>37.09023493342101573944091796875</LongitudeDegrees>
            </Position>
            <AltitudeMeters>1091.4000244140625</AltitudeMeters>
            <DistanceMeters>18361.736694276</DistanceMeters>
          </Trackpoint>
          <Trackpoint>
            <Time>2021-08-01T14:24:41.000Z</Time>
            <Position>
              <LatitudeDegrees>-15.38649276830255985260009765625</LatitudeDegrees>
              <LongitudeDegrees>37.0903190039098262786865234375</LongitudeDegrees>
            </Position>
            <AltitudeMeters>1091.4000244140625</AltitudeMeters>
            <DistanceMeters>18374.266174671</DistanceMeters>
          </Trackpoint>
          <Trackpoint>
            <Time>2021-08-01T14:24:49.000Z</Time>
            <Position>
              <LatitudeDegrees>-15.3864311613142490386962890625</LatitudeDegrees>
              <LongitudeDegrees>37.0903947763144969940185546875</LongitudeDegrees>
            </Position>
            <AltitudeMeters>1091.199951171875</AltitudeMeters>
            <DistanceMeters>18384.902801381</DistanceMeters>
          </Trackpoint>
          <Trackpoint>
            <Time>2021-08-01T14:24:57.000Z</Time>
            <Position>
              <LatitudeDegrees>-15.386389084160327911376953125</LatitudeDegrees>
              <LongitudeDegrees>37.090474404394626617431640625</LongitudeDegrees>
            </Position>
            <AltitudeMeters>1091</AltitudeMeters>
            <DistanceMeters>18394.647094778</DistanceMeters>
          </Trackpoint>
          <Trackpoint>
            <Time>2021-08-01T14:24:58.000Z</Time>
            <Position>
              <LatitudeDegrees>-15.38637709803879261016845703125</LatitudeDegrees>
              <LongitudeDegrees>37.09047817625105381011962890625</LongitudeDegrees>
            </Position>
            <AltitudeMeters>1091</AltitudeMeters>
            <DistanceMeters>18396.043696551</DistanceMeters>
          </Trackpoint>
          <Trackpoint>
            <Time>2021-08-01T14:25:06.000Z</Time>
            <Position>
              <LatitudeDegrees>-15.38627970032393932342529296875</LatitudeDegrees>
              <LongitudeDegrees>37.09049611352384090423583984375</LongitudeDegrees>
            </Position>
            <AltitudeMeters>1091</AltitudeMeters>
            <DistanceMeters>18407.053680483</DistanceMeters>
          </Trackpoint>
          <Trackpoint>
            <Time>2021-08-01T14:25:13.000Z</Time>
            <Position>
              <LatitudeDegrees>-15.3862031735479831695556640625</LatitudeDegrees>
              <LongitudeDegrees>37.0905241928994655609130859375</LongitudeDegrees>
            </Position>
            <AltitudeMeters>1091.199951171875</AltitudeMeters>
            <DistanceMeters>18416.088717343</DistanceMeters>
          </Trackpoint>
          <Trackpoint>
            <Time>2021-08-01T14:25:27.000Z</Time>
            <Position>
              <LatitudeDegrees>-15.38603930734097957611083984375</LatitudeDegrees>
              <LongitudeDegrees>37.0905268751084804534912109375</LongitudeDegrees>
            </Position>
            <AltitudeMeters>1091.199951171875</AltitudeMeters>
            <DistanceMeters>18434.329639105</DistanceMeters>
          </Trackpoint>
          <Trackpoint>
            <Time>2021-08-01T14:25:36.000Z</Time>
            <Position>
              <LatitudeDegrees>-15.3859393112361431121826171875</LatitudeDegrees>
              <LongitudeDegrees>37.090554535388946533203125</LongitudeDegrees>
            </Position>
            <AltitudeMeters>1091</AltitudeMeters>
            <DistanceMeters>18445.848664379</DistanceMeters>
          </Trackpoint>
          <Trackpoint>
            <Time>2021-08-01T14:25:39.000Z</Time>
            <Position>
              <LatitudeDegrees>-15.38590352050960063934326171875</LatitudeDegrees>
              <LongitudeDegrees>37.09056920371949672698974609375</LongitudeDegrees>
            </Position>
            <AltitudeMeters>1091</AltitudeMeters>
            <DistanceMeters>18450.131196954</DistanceMeters>
          </Trackpoint>
          <Trackpoint>
            <Time>2021-08-01T14:25:44.000Z</Time>
            <Position>
              <LatitudeDegrees>-15.38584895431995391845703125</LatitudeDegrees>
              <LongitudeDegrees>37.09059803746640682220458984375</LongitudeDegrees>
            </Position>
            <AltitudeMeters>1090.4000244140625</AltitudeMeters>
            <DistanceMeters>18456.947997771</DistanceMeters>
          </Trackpoint>
          <Trackpoint>
            <Time>2021-08-01T14:25:49.000Z</Time>
            <Position>
              <LatitudeDegrees>-15.38578717969357967376708984375</LatitudeDegrees>
              <LongitudeDegrees>37.09059007465839385986328125</LongitudeDegrees>
            </Position>
            <AltitudeMeters>1090.4000244140625</AltitudeMeters>
            <DistanceMeters>18463.876481471</DistanceMeters>
          </Trackpoint>
          <Trackpoint>
            <Time>2021-08-01T14:25:53.000Z</Time>
            <Position>
              <LatitudeDegrees>-15.3857438452541828155517578125</LatitudeDegrees>
              <LongitudeDegrees>37.0905741490423679351806640625</LongitudeDegrees>
            </Position>
            <AltitudeMeters>1091</AltitudeMeters>
            <DistanceMeters>18468.99382665</DistanceMeters>
          </Trackpoint>
          <Trackpoint>
            <Time>2021-08-01T14:25:59.000Z</Time>
            <Position>
              <LatitudeDegrees>-15.3856725990772247314453125</LatitudeDegrees>
              <LongitudeDegrees>37.0905654318630695343017578125</LongitudeDegrees>
            </Position>
            <AltitudeMeters>1091</AltitudeMeters>
            <DistanceMeters>18476.978898333</DistanceMeters>
          </Trackpoint>
          <Trackpoint>
            <Time>2021-08-01T14:26:13.000Z</Time>
            <Position>
              <LatitudeDegrees>-15.38548953831195831298828125</LatitudeDegrees>
              <LongitudeDegrees>37.090596444904804229736328125</LongitudeDegrees>
            </Position>
            <AltitudeMeters>1090.5999755859375</AltitudeMeters>
            <DistanceMeters>18497.623985113</DistanceMeters>
          </Trackpoint>
          <Trackpoint>
            <Time>2021-08-01T14:26:21.000Z</Time>
            <Position>
              <LatitudeDegrees>-15.38539406843483448028564453125</LatitudeDegrees>
              <LongitudeDegrees>37.090605162084102630615234375</LongitudeDegrees>
            </Position>
            <AltitudeMeters>1090.4000244140625</AltitudeMeters>
            <DistanceMeters>18508.290707346</DistanceMeters>
          </Trackpoint>
          <Trackpoint>
            <Time>2021-08-01T14:26:30.000Z</Time>
            <Position>
              <LatitudeDegrees>-15.38530320860445499420166015625</LatitudeDegrees>
              <LongitudeDegrees>37.09058127366006374359130859375</LongitudeDegrees>
            </Position>
            <AltitudeMeters>1090.800048828125</AltitudeMeters>
            <DistanceMeters>18518.723757784</DistanceMeters>
          </Trackpoint>
          <Trackpoint>
            <Time>2021-08-01T14:26:39.000Z</Time>
            <Position>
              <LatitudeDegrees>-15.3851869516074657440185546875</LatitudeDegrees>
              <LongitudeDegrees>37.0905617438256740570068359375</LongitudeDegrees>
            </Position>
            <AltitudeMeters>1091.199951171875</AltitudeMeters>
            <DistanceMeters>18531.831934415</DistanceMeters>
          </Trackpoint>
          <Trackpoint>
            <Time>2021-08-01T14:26:44.000Z</Time>
            <Position>
              <LatitudeDegrees>-15.3851259313523769378662109375</LatitudeDegrees>
              <LongitudeDegrees>37.0905583910644054412841796875</LongitudeDegrees>
            </Position>
            <AltitudeMeters>1091.4000244140625</AltitudeMeters>
            <DistanceMeters>18538.633484357</DistanceMeters>
          </Trackpoint>
          <Trackpoint>
            <Time>2021-08-01T14:26:47.000Z</Time>
            <Position>
              <LatitudeDegrees>-15.38508628495037555694580078125</LatitudeDegrees>
              <LongitudeDegrees>37.0905531942844390869140625</LongitudeDegrees>
            </Position>
            <AltitudeMeters>1091.5999755859375</AltitudeMeters>
            <DistanceMeters>18543.081506107</DistanceMeters>
          </Trackpoint>
          <Trackpoint>
            <Time>2021-08-01T14:26:57.000Z</Time>
            <Position>
              <LatitudeDegrees>-15.384976230561733245849609375</LatitudeDegrees>
              <LongitudeDegrees>37.0905129611492156982421875</LongitudeDegrees>
            </Position>
            <AltitudeMeters>1091.4000244140625</AltitudeMeters>
            <DistanceMeters>18556.06961059</DistanceMeters>
          </Trackpoint>
          <Trackpoint>
            <Time>2021-08-01T14:27:09.000Z</Time>
            <Position>
              <LatitudeDegrees>-15.38482896052300930023193359375</LatitudeDegrees>
              <LongitudeDegrees>37.09048873744904994964599609375</LongitudeDegrees>
            </Position>
            <AltitudeMeters>1091.199951171875</AltitudeMeters>
            <DistanceMeters>18572.665856903</DistanceMeters>
          </Trackpoint>
          <Trackpoint>
            <Time>2021-08-01T14:27:20.000Z</Time>
            <Position>
              <LatitudeDegrees>-15.38469426333904266357421875</LatitudeDegrees>
              <LongitudeDegrees>37.0904534496366977691650390625</LongitudeDegrees>
            </Position>
            <AltitudeMeters>1091.199951171875</AltitudeMeters>
            <DistanceMeters>18588.128954722</DistanceMeters>
          </Trackpoint>
          <Trackpoint>
            <Time>2021-08-01T14:27:30.000Z</Time>
            <Position>
              <LatitudeDegrees>-15.38457415066659450531005859375</LatitudeDegrees>
              <LongitudeDegrees>37.09042109549045562744140625</LongitudeDegrees>
            </Position>
            <AltitudeMeters>1091.4000244140625</AltitudeMeters>
            <DistanceMeters>18601.941211056</DistanceMeters>
          </Trackpoint>
          <Trackpoint>
            <Time>2021-08-01T14:27:39.000Z</Time>
            <Position>
              <LatitudeDegrees>-15.38446887396275997161865234375</LatitudeDegrees>
              <LongitudeDegrees>37.09043475799262523651123046875</LongitudeDegrees>
            </Position>
            <AltitudeMeters>1091.5999755859375</AltitudeMeters>
            <DistanceMeters>18613.750168272</DistanceMeters>
          </Trackpoint>
          <Trackpoint>
            <Time>2021-08-01T14:27:48.000Z</Time>
            <Position>
              <LatitudeDegrees>-15.38435898721218109130859375</LatitudeDegrees>
              <LongitudeDegrees>37.09039268083870410919189453125</LongitudeDegrees>
            </Position>
            <AltitudeMeters>1091.4000244140625</AltitudeMeters>
            <DistanceMeters>18626.787542582</DistanceMeters>
          </Trackpoint>
          <Trackpoint>
            <Time>2021-08-01T14:27:54.000Z</Time>
            <Position>
              <LatitudeDegrees>-15.3843071870505809783935546875</LatitudeDegrees>
              <LongitudeDegrees>37.09035764448344707489013671875</LongitudeDegrees>
            </Position>
            <AltitudeMeters>1091.5999755859375</AltitudeMeters>
            <DistanceMeters>18633.67025869</DistanceMeters>
          </Trackpoint>
          <Trackpoint>
            <Time>2021-08-01T14:27:57.000Z</Time>
            <Position>
              <LatitudeDegrees>-15.3842739947140216827392578125</LatitudeDegrees>
              <LongitudeDegrees>37.0903547108173370361328125</LongitudeDegrees>
            </Position>
            <AltitudeMeters>1092</AltitudeMeters>
            <DistanceMeters>18637.377518642</DistanceMeters>
          </Trackpoint>
          <Trackpoint>
            <Time>2021-08-01T14:28:02.000Z</Time>
            <Position>
              <LatitudeDegrees>-15.38422219455242156982421875</LatitudeDegrees>
              <LongitudeDegrees>37.090343646705150604248046875</LongitudeDegrees>
            </Position>
            <AltitudeMeters>1092</AltitudeMeters>
            <DistanceMeters>18643.263808077</DistanceMeters>
          </Trackpoint>
          <Trackpoint>
            <Time>2021-08-01T14:28:03.000Z</Time>
            <Position>
              <LatitudeDegrees>-15.38421624340116977691650390625</LatitudeDegrees>
              <LongitudeDegrees>37.0903424732387065887451171875</LongitudeDegrees>
            </Position>
            <AltitudeMeters>1092</AltitudeMeters>
            <DistanceMeters>18643.935748418</DistanceMeters>
          </Trackpoint>
          <Trackpoint>
            <Time>2021-08-01T14:28:06.000Z</Time>
            <Position>
              <LatitudeDegrees>-15.38419210352003574371337890625</LatitudeDegrees>
              <LongitudeDegrees>37.0903340913355350494384765625</LongitudeDegrees>
            </Position>
            <AltitudeMeters>1092</AltitudeMeters>
            <DistanceMeters>18646.767480729</DistanceMeters>
          </Trackpoint>
          <Trackpoint>
            <Time>2021-08-01T14:28:10.000Z</Time>
            <Position>
              <LatitudeDegrees>-15.384152792394161224365234375</LatitudeDegrees>
              <LongitudeDegrees>37.0903092809021472930908203125</LongitudeDegrees>
            </Position>
            <AltitudeMeters>1092.199951171875</AltitudeMeters>
            <DistanceMeters>18651.889235514</DistanceMeters>
          </Trackpoint>
          <Trackpoint>
            <Time>2021-08-01T14:28:13.000Z</Time>
            <Position>
              <LatitudeDegrees>-15.38411934860050678253173828125</LatitudeDegrees>
              <LongitudeDegrees>37.09028505720198154449462890625</LongitudeDegrees>
            </Position>
            <AltitudeMeters>1092.199951171875</AltitudeMeters>
            <DistanceMeters>18656.428688613</DistanceMeters>
          </Trackpoint>
          <Trackpoint>
            <Time>2021-08-01T14:28:21.000Z</Time>
            <Position>
              <LatitudeDegrees>-15.384035445749759674072265625</LatitudeDegrees>
              <LongitudeDegrees>37.0902643539011478424072265625</LongitudeDegrees>
            </Position>
            <AltitudeMeters>1092.5999755859375</AltitudeMeters>
            <DistanceMeters>18666.027797949</DistanceMeters>
          </Trackpoint>
          <Trackpoint>
            <Time>2021-08-01T14:28:28.000Z</Time>
            <Position>
              <LatitudeDegrees>-15.383951626718044281005859375</LatitudeDegrees>
              <LongitudeDegrees>37.09026561118662357330322265625</LongitudeDegrees>
            </Position>
            <AltitudeMeters>1092.4000244140625</AltitudeMeters>
            <DistanceMeters>18675.357853518</DistanceMeters>
          </Trackpoint>
          <Trackpoint>
            <Time>2021-08-01T14:28:30.000Z</Time>
            <Position>
              <LatitudeDegrees>-15.3839320130646228790283203125</LatitudeDegrees>
              <LongitudeDegrees>37.09026460535824298858642578125</LongitudeDegrees>
            </Position>
            <AltitudeMeters>1092.199951171875</AltitudeMeters>
            <DistanceMeters>18677.541401173</DistanceMeters>
          </Trackpoint>
          <Trackpoint>
            <Time>2021-08-01T14:28:36.000Z</Time>
            <Position>
              <LatitudeDegrees>-15.3838626109063625335693359375</LatitudeDegrees>
              <LongitudeDegrees>37.09024867974221706390380859375</LongitudeDegrees>
            </Position>
            <AltitudeMeters>1092.4000244140625</AltitudeMeters>
            <DistanceMeters>18685.453195528</DistanceMeters>
          </Trackpoint>
          <Trackpoint>
            <Time>2021-08-01T14:28:39.000Z</Time>
            <Position>
              <LatitudeDegrees>-15.38383352570235729217529296875</LatitudeDegrees>
              <LongitudeDegrees>37.09025689400732517242431640625</LongitudeDegrees>
            </Position>
            <AltitudeMeters>1092.4000244140625</AltitudeMeters>
            <DistanceMeters>18688.80886317</DistanceMeters>
          </Trackpoint>
          <Trackpoint>
            <Time>2021-08-01T14:28:49.000Z</Time>
            <Position>
              <LatitudeDegrees>-15.38371567614376544952392578125</LatitudeDegrees>
              <LongitudeDegrees>37.09028572775423526763916015625</LongitudeDegrees>
            </Position>
            <AltitudeMeters>1092</AltitudeMeters>
            <DistanceMeters>18702.286251184</DistanceMeters>
          </Trackpoint>
          <Trackpoint>
            <Time>2021-08-01T14:29:02.000Z</Time>
            <Position>
              <LatitudeDegrees>-15.38354904390871524810791015625</LatitudeDegrees>
              <LongitudeDegrees>37.09025622345507144927978515625</LongitudeDegrees>
            </Position>
            <AltitudeMeters>1092.199951171875</AltitudeMeters>
            <DistanceMeters>18721.10106069</DistanceMeters>
          </Trackpoint>
          <Trackpoint>
            <Time>2021-08-01T14:29:09.000Z</Time>
            <Position>
              <LatitudeDegrees>-15.38346304558217525482177734375</LatitudeDegrees>
              <LongitudeDegrees>37.09024448879063129425048828125</LongitudeDegrees>
            </Position>
            <AltitudeMeters>1092.4000244140625</AltitudeMeters>
            <DistanceMeters>18730.755512982</DistanceMeters>
          </Trackpoint>
          <Trackpoint>
            <Time>2021-08-01T14:29:14.000Z</Time>
            <Position>
              <LatitudeDegrees>-15.3833965770900249481201171875</LatitudeDegrees>
              <LongitudeDegrees>37.09024406969547271728515625</LongitudeDegrees>
            </Position>
            <AltitudeMeters>1092.4000244140625</AltitudeMeters>
            <DistanceMeters>18738.154183362</DistanceMeters>
          </Trackpoint>
          <Trackpoint>
            <Time>2021-08-01T14:29:24.000Z</Time>
            <Position>
              <LatitudeDegrees>-15.3832745365798473358154296875</LatitudeDegrees>
              <LongitudeDegrees>37.0902375318109989166259765625</LongitudeDegrees>
            </Position>
            <AltitudeMeters>1092.4000244140625</AltitudeMeters>
            <DistanceMeters>18751.755623584</DistanceMeters>
          </Trackpoint>
          <Trackpoint>
            <Time>2021-08-01T14:29:29.000Z</Time>
            <Position>
              <LatitudeDegrees>-15.38321292959153652191162109375</LatitudeDegrees>
              <LongitudeDegrees>37.09022738970816135406494140625</LongitudeDegrees>
            </Position>
            <AltitudeMeters>1092.4000244140625</AltitudeMeters>
            <DistanceMeters>18758.698429073</DistanceMeters>
          </Trackpoint>
          <Trackpoint>
            <Time>2021-08-01T14:29:41.000Z</Time>
            <Position>
              <LatitudeDegrees>-15.38306591100990772247314453125</LatitudeDegrees>
              <LongitudeDegrees>37.090204842388629913330078125</LongitudeDegrees>
            </Position>
            <AltitudeMeters>1092.5999755859375</AltitudeMeters>
            <DistanceMeters>18775.239629642</DistanceMeters>
          </Trackpoint>
          <Trackpoint>
            <Time>2021-08-01T14:29:43.000Z</Time>
            <Position>
              <LatitudeDegrees>-15.3830338083207607269287109375</LatitudeDegrees>
              <LongitudeDegrees>37.0902046747505664825439453125</LongitudeDegrees>
            </Position>
            <AltitudeMeters>1092.4000244140625</AltitudeMeters>
            <DistanceMeters>18778.811673597</DistanceMeters>
          </Trackpoint>
          <Trackpoint>
            <Time>2021-08-01T14:29:53.000Z</Time>
            <Position>
              <LatitudeDegrees>-15.3829127736389636993408203125</LatitudeDegrees>
              <LongitudeDegrees>37.09019302390515804290771484375</LongitudeDegrees>
            </Position>
            <AltitudeMeters>1092.5999755859375</AltitudeMeters>
            <DistanceMeters>18792.340888264</DistanceMeters>
          </Trackpoint>
          <Trackpoint>
            <Time>2021-08-01T14:29:54.000Z</Time>
            <Position>
              <LatitudeDegrees>-15.38290045224130153656005859375</LatitudeDegrees>
              <LongitudeDegrees>37.09019117988646030426025390625</LongitudeDegrees>
            </Position>
            <AltitudeMeters>1092.5999755859375</AltitudeMeters>
            <DistanceMeters>18793.731009251</DistanceMeters>
          </Trackpoint>
          <Trackpoint>
            <Time>2021-08-01T14:30:05.000Z</Time>
            <Position>
              <LatitudeDegrees>-15.38276977837085723876953125</LatitudeDegrees>
              <LongitudeDegrees>37.09016653709113597869873046875</LongitudeDegrees>
            </Position>
            <AltitudeMeters>1092.4000244140625</AltitudeMeters>
            <DistanceMeters>18808.513696759</DistanceMeters>
          </Trackpoint>
          <Trackpoint>
            <Time>2021-08-01T14:30:14.000Z</Time>
            <Position>
              <LatitudeDegrees>-15.3826713748276233673095703125</LatitudeDegrees>
              <LongitudeDegrees>37.0901597477495670318603515625</LongitudeDegrees>
            </Position>
            <AltitudeMeters>1092</AltitudeMeters>
            <DistanceMeters>18819.490413481</DistanceMeters>
          </Trackpoint>
          <Trackpoint>
            <Time>2021-08-01T14:30:23.000Z</Time>
            <Position>
              <LatitudeDegrees>-15.38256785832345485687255859375</LatitudeDegrees>
              <LongitudeDegrees>37.09015421569347381591796875</LongitudeDegrees>
            </Position>
            <AltitudeMeters>1092.199951171875</AltitudeMeters>
            <DistanceMeters>18831.02745499</DistanceMeters>
          </Trackpoint>
          <Trackpoint>
            <Time>2021-08-01T14:30:24.000Z</Time>
            <Position>
              <LatitudeDegrees>-15.38255796767771244049072265625</LatitudeDegrees>
              <LongitudeDegrees>37.0901517011225223541259765625</LongitudeDegrees>
            </Position>
            <AltitudeMeters>1092.199951171875</AltitudeMeters>
            <DistanceMeters>18832.159828981</DistanceMeters>
          </Trackpoint>
          <Trackpoint>
            <Time>2021-08-01T14:30:37.000Z</Time>
            <Position>
              <LatitudeDegrees>-15.38241329602897167205810546875</LatitudeDegrees>
              <LongitudeDegrees>37.090123035013675689697265625</LongitudeDegrees>
            </Position>
            <AltitudeMeters>1092.800048828125</AltitudeMeters>
            <DistanceMeters>18848.553245496</DistanceMeters>
          </Trackpoint>
          <Trackpoint>
            <Time>2021-08-01T14:30:43.000Z</Time>
            <Position>
              <LatitudeDegrees>-15.38235059939324855804443359375</LatitudeDegrees>
              <LongitudeDegrees>37.09012211300432682037353515625</LongitudeDegrees>
            </Position>
            <AltitudeMeters>1093.199951171875</AltitudeMeters>
            <DistanceMeters>18855.532373833</DistanceMeters>
          </Trackpoint>
          <Trackpoint>
            <Time>2021-08-01T14:30:47.000Z</Time>
            <Position>
              <LatitudeDegrees>-15.38230751641094684600830078125</LatitudeDegrees>
              <LongitudeDegrees>37.09012261591851711273193359375</LongitudeDegrees>
            </Position>
            <AltitudeMeters>1093.199951171875</AltitudeMeters>
            <DistanceMeters>18860.328164143</DistanceMeters>
          </Trackpoint>
          <Trackpoint>
            <Time>2021-08-01T14:30:49.000Z</Time>
            <Position>
              <LatitudeDegrees>-15.382281281054019927978515625</LatitudeDegrees>
              <LongitudeDegrees>37.0901228673756122589111328125</LongitudeDegrees>
            </Position>
            <AltitudeMeters>1093.4000244140625</AltitudeMeters>
            <DistanceMeters>18863.249366334</DistanceMeters>
          </Trackpoint>
          <Trackpoint>
            <Time>2021-08-01T14:30:51.000Z</Time>
            <Position>
              <LatitudeDegrees>-15.38226041011512279510498046875</LatitudeDegrees>
              <LongitudeDegrees>37.090122699737548828125</LongitudeDegrees>
            </Position>
            <AltitudeMeters>1093.4000244140625</AltitudeMeters>
            <DistanceMeters>18865.571209489</DistanceMeters>
          </Trackpoint>
          <Trackpoint>
            <Time>2021-08-01T14:30:59.000Z</Time>
            <Position>
              <LatitudeDegrees>-15.38217156194150447845458984375</LatitudeDegrees>
              <LongitudeDegrees>37.0901225320994853973388671875</LongitudeDegrees>
            </Position>
            <AltitudeMeters>1093.5999755859375</AltitudeMeters>
            <DistanceMeters>18875.45992517</DistanceMeters>
          </Trackpoint>
          <Trackpoint>
            <Time>2021-08-01T14:31:12.000Z</Time>
            <Position>
              <LatitudeDegrees>-15.382015407085418701171875</LatitudeDegrees>
              <LongitudeDegrees>37.09011389873921871185302734375</LongitudeDegrees>
            </Position>
            <AltitudeMeters>1093.800048828125</AltitudeMeters>
            <DistanceMeters>18892.864866263</DistanceMeters>
          </Trackpoint>
          <Trackpoint>
            <Time>2021-08-01T14:31:17.000Z</Time>
            <Position>
              <LatitudeDegrees>-15.38199973292648792266845703125</LatitudeDegrees>
              <LongitudeDegrees>37.09011272527277469635009765625</LongitudeDegrees>
            </Position>
            <AltitudeMeters>1093.800048828125</AltitudeMeters>
            <DistanceMeters>18894.614493628</DistanceMeters>
          </Trackpoint>
          <Trackpoint>
            <Time>2021-08-01T14:31:23.000Z</Time>
            <Position>
              <LatitudeDegrees>-15.38196771405637264251708984375</LatitudeDegrees>
              <LongitudeDegrees>37.0901012420654296875</LongitudeDegrees>
            </Position>
            <AltitudeMeters>1093.800048828125</AltitudeMeters>
            <DistanceMeters>18898.385749439</DistanceMeters>
          </Trackpoint>
          <Trackpoint>
            <Time>2021-08-01T14:31:25.000Z</Time>
            <Position>
              <LatitudeDegrees>-15.38194139488041400909423828125</LatitudeDegrees>
              <LongitudeDegrees>37.0900910161435604095458984375</LongitudeDegrees>
            </Position>
            <AltitudeMeters>1094</AltitudeMeters>
            <DistanceMeters>18901.512980289</DistanceMeters>
          </Trackpoint>
          <Trackpoint>
            <Time>2021-08-01T14:31:34.000Z</Time>
            <Position>
              <LatitudeDegrees>-15.381836704909801483154296875</LatitudeDegrees>
              <LongitudeDegrees>37.09008305333554744720458984375</LongitudeDegrees>
            </Position>
            <AltitudeMeters>1093.4000244140625</AltitudeMeters>
            <DistanceMeters>18913.196629788</DistanceMeters>
          </Trackpoint>
          <Trackpoint>
            <Time>2021-08-01T14:31:44.000Z</Time>
            <Position>
              <LatitudeDegrees>-15.3817165084183216094970703125</LatitudeDegrees>
              <LongitudeDegrees>37.090050615370273590087890625</LongitudeDegrees>
            </Position>
            <AltitudeMeters>1093.4000244140625</AltitudeMeters>
            <DistanceMeters>18927.020649022</DistanceMeters>
          </Trackpoint>
          <Trackpoint>
            <Time>2021-08-01T14:31:51.000Z</Time>
            <Position>
              <LatitudeDegrees>-15.3816655464470386505126953125</LatitudeDegrees>
              <LongitudeDegrees>37.08998699672520160675048828125</LongitudeDegrees>
            </Position>
            <AltitudeMeters>1093.800048828125</AltitudeMeters>
            <DistanceMeters>18935.896876654</DistanceMeters>
          </Trackpoint>
          <Trackpoint>
            <Time>2021-08-01T14:31:53.000Z</Time>
            <Position>
              <LatitudeDegrees>-15.381649620831012725830078125</LatitudeDegrees>
              <LongitudeDegrees>37.089969813823699951171875</LongitudeDegrees>
            </Position>
            <AltitudeMeters>1094.199951171875</AltitudeMeters>
            <DistanceMeters>18938.455549244</DistanceMeters>
          </Trackpoint>
          <Trackpoint>
            <Time>2021-08-01T14:31:55.000Z</Time>
            <Position>
              <LatitudeDegrees>-15.3816336952149868011474609375</LatitudeDegrees>
              <LongitudeDegrees>37.08995128981769084930419921875</LongitudeDegrees>
            </Position>
            <AltitudeMeters>1094.4000244140625</AltitudeMeters>
            <DistanceMeters>18941.121383102</DistanceMeters>
          </Trackpoint>
          <Trackpoint>
            <Time>2021-08-01T14:32:05.000Z</Time>
            <Position>
              <LatitudeDegrees>-15.381553731858730316162109375</LatitudeDegrees>
              <LongitudeDegrees>37.08987233228981494903564453125</LongitudeDegrees>
            </Position>
            <AltitudeMeters>1095.4000244140625</AltitudeMeters>
            <DistanceMeters>18953.40999443</DistanceMeters>
          </Trackpoint>
          <Trackpoint>
            <Time>2021-08-01T14:32:07.000Z</Time>
            <Position>
              <LatitudeDegrees>-15.3815393149852752685546875</LatitudeDegrees>
              <LongitudeDegrees>37.08985640667378902435302734375</LongitudeDegrees>
            </Position>
            <AltitudeMeters>1095.5999755859375</AltitudeMeters>
            <DistanceMeters>18955.755056595</DistanceMeters>
          </Trackpoint>
          <Trackpoint>
            <Time>2021-08-01T14:32:10.000Z</Time>
            <Position>
              <LatitudeDegrees>-15.38151542656123638153076171875</LatitudeDegrees>
              <LongitudeDegrees>37.08983947522938251495361328125</LongitudeDegrees>
            </Position>
            <AltitudeMeters>1096.4000244140625</AltitudeMeters>
            <DistanceMeters>18958.974765861</DistanceMeters>
          </Trackpoint>
          <Trackpoint>
            <Time>2021-08-01T14:32:11.000Z</Time>
            <Position>
              <LatitudeDegrees>-15.3815106488764286041259765625</LatitudeDegrees>
              <LongitudeDegrees>37.089838720858097076416015625</LongitudeDegrees>
            </Position>
            <AltitudeMeters>1096.800048828125</AltitudeMeters>
            <DistanceMeters>18959.512318134</DistanceMeters>
          </Trackpoint>
          <Trackpoint>
            <Time>2021-08-01T14:32:14.000Z</Time>
            <Position>
              <LatitudeDegrees>-15.38149363361299037933349609375</LatitudeDegrees>
              <LongitudeDegrees>37.089822627604007720947265625</LongitudeDegrees>
            </Position>
            <AltitudeMeters>1097</AltitudeMeters>
            <DistanceMeters>18962.074517496</DistanceMeters>
          </Trackpoint>
          <Trackpoint>
            <Time>2021-08-01T14:32:15.000Z</Time>
            <Position>
              <LatitudeDegrees>-15.38148726336658000946044921875</LatitudeDegrees>
              <LongitudeDegrees>37.08981617353856563568115234375</LongitudeDegrees>
            </Position>
            <AltitudeMeters>1097.199951171875</AltitudeMeters>
            <DistanceMeters>18963.062064081</DistanceMeters>
          </Trackpoint>
          <Trackpoint>
            <Time>2021-08-01T14:32:17.000Z</Time>
            <Position>
              <LatitudeDegrees>-15.38147619925439357757568359375</LatitudeDegrees>
              <LongitudeDegrees>37.0898026786744594573974609375</LongitudeDegrees>
            </Position>
            <AltitudeMeters>1098</AltitudeMeters>
            <DistanceMeters>18964.962598368</DistanceMeters>
          </Trackpoint>
          <Trackpoint>
            <Time>2021-08-01T14:32:25.000Z</Time>
            <Position>
              <LatitudeDegrees>-15.3814261592924594879150390625</LatitudeDegrees>
              <LongitudeDegrees>37.08974073641002178192138671875</LongitudeDegrees>
            </Position>
            <AltitudeMeters>1098.5999755859375</AltitudeMeters>
            <DistanceMeters>18973.635055154</DistanceMeters>
          </Trackpoint>
          <Trackpoint>
            <Time>2021-08-01T14:32:31.000Z</Time>
            <Position>
              <LatitudeDegrees>-15.38137863390147686004638671875</LatitudeDegrees>
              <LongitudeDegrees>37.08969178609549999237060546875</LongitudeDegrees>
            </Position>
            <AltitudeMeters>1098</AltitudeMeters>
            <DistanceMeters>18981.089657117</DistanceMeters>
          </Trackpoint>
          <Trackpoint>
            <Time>2021-08-01T14:32:34.000Z</Time>
            <Position>
              <LatitudeDegrees>-15.381349883973598480224609375</LatitudeDegrees>
              <LongitudeDegrees>37.0896695740520954132080078125</LongitudeDegrees>
            </Position>
            <AltitudeMeters>1097.800048828125</AltitudeMeters>
            <DistanceMeters>18985.07964769</DistanceMeters>
          </Trackpoint>
          <Trackpoint>
            <Time>2021-08-01T14:32:36.000Z</Time>
            <Position>
              <LatitudeDegrees>-15.3813301026821136474609375</LatitudeDegrees>
              <LongitudeDegrees>37.0896514691412448883056640625</LongitudeDegrees>
            </Position>
            <AltitudeMeters>1097.5999755859375</AltitudeMeters>
            <DistanceMeters>18988.016265303</DistanceMeters>
          </Trackpoint>
          <Trackpoint>
            <Time>2021-08-01T14:32:41.000Z</Time>
            <Position>
              <LatitudeDegrees>-15.381284169852733612060546875</LatitudeDegrees>
              <LongitudeDegrees>37.08961919881403446197509765625</LongitudeDegrees>
            </Position>
            <AltitudeMeters>1097</AltitudeMeters>
            <DistanceMeters>18994.191539615</DistanceMeters>
          </Trackpoint>
          <Trackpoint>
            <Time>2021-08-01T14:32:49.000Z</Time>
            <Position>
              <LatitudeDegrees>-15.38120563142001628875732421875</LatitudeDegrees>
              <LongitudeDegrees>37.08955851383507251739501953125</LongitudeDegrees>
            </Position>
            <AltitudeMeters>1096</AltitudeMeters>
            <DistanceMeters>19005.092309125</DistanceMeters>
          </Trackpoint>
          <Trackpoint>
            <Time>2021-08-01T14:32:51.000Z</Time>
            <Position>
              <LatitudeDegrees>-15.381182916462421417236328125</LatitudeDegrees>
              <LongitudeDegrees>37.08954334259033203125</LongitudeDegrees>
            </Position>
            <AltitudeMeters>1095.800048828125</AltitudeMeters>
            <DistanceMeters>19008.100321193</DistanceMeters>
          </Trackpoint>
          <Trackpoint>
            <Time>2021-08-01T14:32:54.000Z</Time>
            <Position>
              <LatitudeDegrees>-15.38114863447844982147216796875</LatitudeDegrees>
              <LongitudeDegrees>37.08952398039400577545166015625</LongitudeDegrees>
            </Position>
            <AltitudeMeters>1095.5999755859375</AltitudeMeters>
            <DistanceMeters>19012.444611672</DistanceMeters>
          </Trackpoint>
          <Trackpoint>
            <Time>2021-08-01T14:32:58.000Z</Time>
            <Position>
              <LatitudeDegrees>-15.38110236637294292449951171875</LatitudeDegrees>
              <LongitudeDegrees>37.08949430845677852630615234375</LongitudeDegrees>
            </Position>
            <AltitudeMeters>1095.199951171875</AltitudeMeters>
            <DistanceMeters>19018.499536144</DistanceMeters>
          </Trackpoint>
          <Trackpoint>
            <Time>2021-08-01T14:33:02.000Z</Time>
            <Position>
              <LatitudeDegrees>-15.38106523454189300537109375</LatitudeDegrees>
              <LongitudeDegrees>37.0894623734056949615478515625</LongitudeDegrees>
            </Position>
            <AltitudeMeters>1094.800048828125</AltitudeMeters>
            <DistanceMeters>19023.869176177</DistanceMeters>
          </Trackpoint>
          <Trackpoint>
            <Time>2021-08-01T14:33:07.000Z</Time>
            <Position>
              <LatitudeDegrees>-15.38101670332252979278564453125</LatitudeDegrees>
              <LongitudeDegrees>37.089420966804027557373046875</LongitudeDegrees>
            </Position>
            <AltitudeMeters>1095</AltitudeMeters>
            <DistanceMeters>19030.863813707</DistanceMeters>
          </Trackpoint>
          <Trackpoint>
            <Time>2021-08-01T14:33:09.000Z</Time>
            <Position>
              <LatitudeDegrees>-15.38100429810583591461181640625</LatitudeDegrees>
              <LongitudeDegrees>37.0894030295312404632568359375</LongitudeDegrees>
            </Position>
            <AltitudeMeters>1095</AltitudeMeters>
            <DistanceMeters>19033.233773105</DistanceMeters>
          </Trackpoint>
          <Trackpoint>
            <Time>2021-08-01T14:33:12.000Z</Time>
            <Position>
              <LatitudeDegrees>-15.38099348545074462890625</LatitudeDegrees>
              <LongitudeDegrees>37.08936698734760284423828125</LongitudeDegrees>
            </Position>
            <AltitudeMeters>1095</AltitudeMeters>
            <DistanceMeters>19037.285523217</DistanceMeters>
          </Trackpoint>
          <Trackpoint>
            <Time>2021-08-01T14:33:19.000Z</Time>
            <Position>
              <LatitudeDegrees>-15.3809572756290435791015625</LatitudeDegrees>
              <LongitudeDegrees>37.08929398097097873687744140625</LongitudeDegrees>
            </Position>
            <AltitudeMeters>1095.199951171875</AltitudeMeters>
            <DistanceMeters>19046.096913418</DistanceMeters>
          </Trackpoint>
          <Trackpoint>
            <Time>2021-08-01T14:33:21.000Z</Time>
            <Position>
              <LatitudeDegrees>-15.3809443674981594085693359375</LatitudeDegrees>
              <LongitudeDegrees>37.08928258158266544342041015625</LongitudeDegrees>
            </Position>
            <AltitudeMeters>1095</AltitudeMeters>
            <DistanceMeters>19047.983139841</DistanceMeters>
          </Trackpoint>
          <Trackpoint>
            <Time>2021-08-01T14:33:22.000Z</Time>
            <Position>
              <LatitudeDegrees>-15.38093690760433673858642578125</LatitudeDegrees>
              <LongitudeDegrees>37.08927772007882595062255859375</LongitudeDegrees>
            </Position>
            <AltitudeMeters>1094.800048828125</AltitudeMeters>
            <DistanceMeters>19048.966103818</DistanceMeters>
          </Trackpoint>
          <Trackpoint>
            <Time>2021-08-01T14:33:27.000Z</Time>
            <Position>
              <LatitudeDegrees>-15.38089851848781108856201171875</LatitudeDegrees>
              <LongitudeDegrees>37.08925542421638965606689453125</LongitudeDegrees>
            </Position>
            <AltitudeMeters>1094.800048828125</AltitudeMeters>
            <DistanceMeters>19053.863438096</DistanceMeters>
          </Trackpoint>
          <Trackpoint>
            <Time>2021-08-01T14:33:30.000Z</Time>
            <Position>
              <LatitudeDegrees>-15.3808712773025035858154296875</LatitudeDegrees>
              <LongitudeDegrees>37.08923262543976306915283203125</LongitudeDegrees>
            </Position>
            <AltitudeMeters>1094.800048828125</AltitudeMeters>
            <DistanceMeters>19057.760692075</DistanceMeters>
          </Trackpoint>
          <Trackpoint>
            <Time>2021-08-01T14:33:35.000Z</Time>
            <Position>
              <LatitudeDegrees>-15.38081645965576171875</LatitudeDegrees>
              <LongitudeDegrees>37.08921954967081546783447265625</LongitudeDegrees>
            </Position>
            <AltitudeMeters>1095</AltitudeMeters>
            <DistanceMeters>19064.022368522</DistanceMeters>
          </Trackpoint>
          <Trackpoint>
            <Time>2021-08-01T14:33:42.000Z</Time>
            <Position>
              <LatitudeDegrees>-15.3807539306581020355224609375</LatitudeDegrees>
              <LongitudeDegrees>37.0892679132521152496337890625</LongitudeDegrees>
            </Position>
            <AltitudeMeters>1095.4000244140625</AltitudeMeters>
            <DistanceMeters>19072.703671304</DistanceMeters>
          </Trackpoint>
          <Trackpoint>
            <Time>2021-08-01T14:33:45.000Z</Time>
            <Position>
              <LatitudeDegrees>-15.38072819821536540985107421875</LatitudeDegrees>
              <LongitudeDegrees>37.08929733373224735260009765625</LongitudeDegrees>
            </Position>
            <AltitudeMeters>1095.4000244140625</AltitudeMeters>
            <DistanceMeters>19076.96506588</DistanceMeters>
          </Trackpoint>
          <Trackpoint>
            <Time>2021-08-01T14:33:56.000Z</Time>
            <Position>
              <LatitudeDegrees>-15.3806248493492603302001953125</LatitudeDegrees>
              <LongitudeDegrees>37.0893956534564495086669921875</LongitudeDegrees>
            </Position>
            <AltitudeMeters>1095.4000244140625</AltitudeMeters>
            <DistanceMeters>19092.574631943</DistanceMeters>
          </Trackpoint>
          <Trackpoint>
            <Time>2021-08-01T14:34:02.000Z</Time>
            <Position>
              <LatitudeDegrees>-15.3805742226541042327880859375</LatitudeDegrees>
              <LongitudeDegrees>37.08945122547447681427001953125</LongitudeDegrees>
            </Position>
            <AltitudeMeters>1095.4000244140625</AltitudeMeters>
            <DistanceMeters>19100.780011274</DistanceMeters>
          </Trackpoint>
          <Trackpoint>
            <Time>2021-08-01T14:34:08.000Z</Time>
            <Position>
              <LatitudeDegrees>-15.38051269948482513427734375</LatitudeDegrees>
              <LongitudeDegrees>37.08949439227581024169921875</LongitudeDegrees>
            </Position>
            <AltitudeMeters>1095.199951171875</AltitudeMeters>
            <DistanceMeters>19109.047335424</DistanceMeters>
          </Trackpoint>
          <Trackpoint>
            <Time>2021-08-01T14:34:18.000Z</Time>
            <Position>
              <LatitudeDegrees>-15.380406081676483154296875</LatitudeDegrees>
              <LongitudeDegrees>37.08955633454024791717529296875</LongitudeDegrees>
            </Position>
            <AltitudeMeters>1095.5999755859375</AltitudeMeters>
            <DistanceMeters>19122.649439536</DistanceMeters>
          </Trackpoint>
          <Trackpoint>
            <Time>2021-08-01T14:34:23.000Z</Time>
            <Position>
              <LatitudeDegrees>-15.38035419769585132598876953125</LatitudeDegrees>
              <LongitudeDegrees>37.089581899344921112060546875</LongitudeDegrees>
            </Position>
            <AltitudeMeters>1095.800048828125</AltitudeMeters>
            <DistanceMeters>19129.043826617</DistanceMeters>
          </Trackpoint>
          <Trackpoint>
            <Time>2021-08-01T14:34:25.000Z</Time>
            <Position>
              <LatitudeDegrees>-15.38033156655728816986083984375</LatitudeDegrees>
              <LongitudeDegrees>37.089589275419712066650390625</LongitudeDegrees>
            </Position>
            <AltitudeMeters>1095.800048828125</AltitudeMeters>
            <DistanceMeters>19131.68584272</DistanceMeters>
          </Trackpoint>
          <Trackpoint>
            <Time>2021-08-01T14:34:29.000Z</Time>
            <Position>
              <LatitudeDegrees>-15.38028412498533725738525390625</LatitudeDegrees>
              <LongitudeDegrees>37.08960981108248233795166015625</LongitudeDegrees>
            </Position>
            <AltitudeMeters>1096</AltitudeMeters>
            <DistanceMeters>19137.407208563</DistanceMeters>
          </Trackpoint>
          <Trackpoint>
            <Time>2021-08-01T14:34:30.000Z</Time>
            <Position>
              <LatitudeDegrees>-15.3802707977592945098876953125</LatitudeDegrees>
              <LongitudeDegrees>37.08961308002471923828125</LongitudeDegrees>
            </Position>
            <AltitudeMeters>1096</AltitudeMeters>
            <DistanceMeters>19138.930602684</DistanceMeters>
          </Trackpoint>
          <Trackpoint>
            <Time>2021-08-01T14:34:37.000Z</Time>
            <Position>
              <LatitudeDegrees>-15.3801876492798328399658203125</LatitudeDegrees>
              <LongitudeDegrees>37.08964048884809017181396484375</LongitudeDegrees>
            </Position>
            <AltitudeMeters>1096.199951171875</AltitudeMeters>
            <DistanceMeters>19148.64101247</DistanceMeters>
          </Trackpoint>
          <Trackpoint>
            <Time>2021-08-01T14:34:38.000Z</Time>
            <Position>
              <LatitudeDegrees>-15.3801749087870121002197265625</LatitudeDegrees>
              <LongitudeDegrees>37.08964182995259761810302734375</LongitudeDegrees>
            </Position>
            <AltitudeMeters>1096.199951171875</AltitudeMeters>
            <DistanceMeters>19150.063242101</DistanceMeters>
          </Trackpoint>
          <Trackpoint>
            <Time>2021-08-01T14:34:42.000Z</Time>
            <Position>
              <LatitudeDegrees>-15.38013190962374210357666015625</LatitudeDegrees>
              <LongitudeDegrees>37.08965138532221317291259765625</LongitudeDegrees>
            </Position>
            <AltitudeMeters>1096.5999755859375</AltitudeMeters>
            <DistanceMeters>19154.956887239</DistanceMeters>
          </Trackpoint>
          <Trackpoint>
            <Time>2021-08-01T14:34:51.000Z</Time>
            <Position>
              <LatitudeDegrees>-15.38001774810254573822021484375</LatitudeDegrees>
              <LongitudeDegrees>37.08965876139700412750244140625</LongitudeDegrees>
            </Position>
            <AltitudeMeters>1096.800048828125</AltitudeMeters>
            <DistanceMeters>19167.687984681</DistanceMeters>
          </Trackpoint>
          <Trackpoint>
            <Time>2021-08-01T14:35:02.000Z</Time>
            <Position>
              <LatitudeDegrees>-15.37987927906215190887451171875</LatitudeDegrees>
              <LongitudeDegrees>37.0896868407726287841796875</LongitudeDegrees>
            </Position>
            <AltitudeMeters>1096.5999755859375</AltitudeMeters>
            <DistanceMeters>19183.391562541</DistanceMeters>
          </Trackpoint>
          <Trackpoint>
            <Time>2021-08-01T14:35:12.000Z</Time>
            <Position>
              <LatitudeDegrees>-15.37976578809320926666259765625</LatitudeDegrees>
              <LongitudeDegrees>37.089708633720874786376953125</LongitudeDegrees>
            </Position>
            <AltitudeMeters>1096.199951171875</AltitudeMeters>
            <DistanceMeters>19196.237754468</DistanceMeters>
          </Trackpoint>
          <Trackpoint>
            <Time>2021-08-01T14:35:22.000Z</Time>
            <Position>
              <LatitudeDegrees>-15.37967308424413204193115234375</LatitudeDegrees>
              <LongitudeDegrees>37.08972900174558162689208984375</LongitudeDegrees>
            </Position>
            <AltitudeMeters>1094.800048828125</AltitudeMeters>
            <DistanceMeters>19206.78443554</DistanceMeters>
          </Trackpoint>
          <Trackpoint>
            <Time>2021-08-01T14:35:27.000Z</Time>
            <Position>
              <LatitudeDegrees>-15.37965296767652034759521484375</LatitudeDegrees>
              <LongitudeDegrees>37.08973604254424571990966796875</LongitudeDegrees>
            </Position>
            <AltitudeMeters>1094.5999755859375</AltitudeMeters>
            <DistanceMeters>19209.146762199</DistanceMeters>
          </Trackpoint>
          <Trackpoint>
            <Time>2021-08-01T14:35:30.000Z</Time>
            <Position>
              <LatitudeDegrees>-15.37962145172059535980224609375</LatitudeDegrees>
              <LongitudeDegrees>37.0897597633302211761474609375</LongitudeDegrees>
            </Position>
            <AltitudeMeters>1094.5999755859375</AltitudeMeters>
            <DistanceMeters>19213.480647177</DistanceMeters>
          </Trackpoint>
          <Trackpoint>
            <Time>2021-08-01T14:35:38.000Z</Time>
            <Position>
              <LatitudeDegrees>-15.3795705735683441162109375</LatitudeDegrees>
              <LongitudeDegrees>37.08984668366611003875732421875</LongitudeDegrees>
            </Position>
            <AltitudeMeters>1094</AltitudeMeters>
            <DistanceMeters>19224.393007969</DistanceMeters>
          </Trackpoint>
          <Trackpoint>
            <Time>2021-08-01T14:35:48.000Z</Time>
            <Position>
              <LatitudeDegrees>-15.37949807010591030120849609375</LatitudeDegrees>
              <LongitudeDegrees>37.08994609303772449493408203125</LongitudeDegrees>
            </Position>
            <AltitudeMeters>1093.800048828125</AltitudeMeters>
            <DistanceMeters>19237.769515912</DistanceMeters>
          </Trackpoint>
          <Trackpoint>
            <Time>2021-08-01T14:35:50.000Z</Time>
            <Position>
              <LatitudeDegrees>-15.37947527132928371429443359375</LatitudeDegrees>
              <LongitudeDegrees>37.08995983935892581939697265625</LongitudeDegrees>
            </Position>
            <AltitudeMeters>1093.800048828125</AltitudeMeters>
            <DistanceMeters>19240.706133525</DistanceMeters>
          </Trackpoint>
          <Trackpoint>
            <Time>2021-08-01T14:35:58.000Z</Time>
            <Position>
              <LatitudeDegrees>-15.37938558496534824371337890625</LatitudeDegrees>
              <LongitudeDegrees>37.08998666144907474517822265625</LongitudeDegrees>
            </Position>
            <AltitudeMeters>1094</AltitudeMeters>
            <DistanceMeters>19251.095817534</DistanceMeters>
          </Trackpoint>
          <Trackpoint>
            <Time>2021-08-01T14:36:02.000Z</Time>
            <Position>
              <LatitudeDegrees>-15.37933646701276302337646484375</LatitudeDegrees>
              <LongitudeDegrees>37.08998523652553558349609375</LongitudeDegrees>
            </Position>
            <AltitudeMeters>1094.199951171875</AltitudeMeters>
            <DistanceMeters>19256.565428421</DistanceMeters>
          </Trackpoint>
          <Trackpoint>
            <Time>2021-08-01T14:36:10.000Z</Time>
            <Position>
              <LatitudeDegrees>-15.37925130687654018402099609375</LatitudeDegrees>
              <LongitudeDegrees>37.08996511995792388916015625</LongitudeDegrees>
            </Position>
            <AltitudeMeters>1093.800048828125</AltitudeMeters>
            <DistanceMeters>19266.286062141</DistanceMeters>
          </Trackpoint>
          <Trackpoint>
            <Time>2021-08-01T14:36:16.000Z</Time>
            <Position>
              <LatitudeDegrees>-15.37918006069958209991455078125</LatitudeDegrees>
              <LongitudeDegrees>37.0899478532373905181884765625</LongitudeDegrees>
            </Position>
            <AltitudeMeters>1094</AltitudeMeters>
            <DistanceMeters>19274.429025442</DistanceMeters>
          </Trackpoint>
          <Trackpoint>
            <Time>2021-08-01T14:36:19.000Z</Time>
            <Position>
              <LatitudeDegrees>-15.3791432641446590423583984375</LatitudeDegrees>
              <LongitudeDegrees>37.0899404771625995635986328125</LongitudeDegrees>
            </Position>
            <AltitudeMeters>1094.199951171875</AltitudeMeters>
            <DistanceMeters>19278.600470912</DistanceMeters>
          </Trackpoint>
          <Trackpoint>
            <Time>2021-08-01T14:36:24.000Z</Time>
            <Position>
              <LatitudeDegrees>-15.37908450700342655181884765625</LatitudeDegrees>
              <LongitudeDegrees>37.08993352018296718597412109375</LongitudeDegrees>
            </Position>
            <AltitudeMeters>1094.199951171875</AltitudeMeters>
            <DistanceMeters>19285.182743071</DistanceMeters>
          </Trackpoint>
          <Trackpoint>
            <Time>2021-08-01T14:36:34.000Z</Time>
            <Position>
              <LatitudeDegrees>-15.37897403351962566375732421875</LatitudeDegrees>
              <LongitudeDegrees>37.089923210442066192626953125</LongitudeDegrees>
            </Position>
            <AltitudeMeters>1094.4000244140625</AltitudeMeters>
            <DistanceMeters>19297.528904028</DistanceMeters>
          </Trackpoint>
          <Trackpoint>
            <Time>2021-08-01T14:36:46.000Z</Time>
            <Position>
              <LatitudeDegrees>-15.37882600910961627960205078125</LatitudeDegrees>
              <LongitudeDegrees>37.0899173431098461151123046875</LongitudeDegrees>
            </Position>
            <AltitudeMeters>1094.4000244140625</AltitudeMeters>
            <DistanceMeters>19314.016518206</DistanceMeters>
          </Trackpoint>
          <Trackpoint>
            <Time>2021-08-01T14:36:58.000Z</Time>
            <Position>
              <LatitudeDegrees>-15.37869684398174285888671875</LatitudeDegrees>
              <LongitudeDegrees>37.089928574860095977783203125</LongitudeDegrees>
            </Position>
            <AltitudeMeters>1094.4000244140625</AltitudeMeters>
            <DistanceMeters>19328.443376213</DistanceMeters>
          </Trackpoint>
          <Trackpoint>
            <Time>2021-08-01T14:37:13.000Z</Time>
            <Position>
              <LatitudeDegrees>-15.3785404376685619354248046875</LatitudeDegrees>
              <LongitudeDegrees>37.0899243839085102081298828125</LongitudeDegrees>
            </Position>
            <AltitudeMeters>1094.199951171875</AltitudeMeters>
            <DistanceMeters>19345.857653609</DistanceMeters>
          </Trackpoint>
          <Trackpoint>
            <Time>2021-08-01T14:37:25.000Z</Time>
            <Position>
              <LatitudeDegrees>-15.37842099554836750030517578125</LatitudeDegrees>
              <LongitudeDegrees>37.089930586516857147216796875</LongitudeDegrees>
            </Position>
            <AltitudeMeters>1094.4000244140625</AltitudeMeters>
            <DistanceMeters>19359.168518716</DistanceMeters>
          </Trackpoint>
          <Trackpoint>
            <Time>2021-08-01T14:37:32.000Z</Time>
            <Position>
              <LatitudeDegrees>-15.3784038126468658447265625</LatitudeDegrees>
              <LongitudeDegrees>37.08992086350917816162109375</LongitudeDegrees>
            </Position>
            <AltitudeMeters>1094.4000244140625</AltitudeMeters>
            <DistanceMeters>19361.347926941</DistanceMeters>
          </Trackpoint>
          <Trackpoint>
            <Time>2021-08-01T14:37:33.000Z</Time>
            <Position>
              <LatitudeDegrees>-15.3783919103443622589111328125</LatitudeDegrees>
              <LongitudeDegrees>37.08992094732820987701416015625</LongitudeDegrees>
            </Position>
            <AltitudeMeters>1094.4000244140625</AltitudeMeters>
            <DistanceMeters>19362.671495915</DistanceMeters>
          </Trackpoint>
          <Trackpoint>
            <Time>2021-08-01T14:37:38.000Z</Time>
            <Position>
              <LatitudeDegrees>-15.37834547460079193115234375</LatitudeDegrees>
              <LongitudeDegrees>37.08991357125341892242431640625</LongitudeDegrees>
            </Position>
            <AltitudeMeters>1094.5999755859375</AltitudeMeters>
            <DistanceMeters>19367.900556201</DistanceMeters>
          </Trackpoint>
          <Trackpoint>
            <Time>2021-08-01T14:37:39.000Z</Time>
            <Position>
              <LatitudeDegrees>-15.37834203802049160003662109375</LatitudeDegrees>
              <LongitudeDegrees>37.0899096317589282989501953125</LongitudeDegrees>
            </Position>
            <AltitudeMeters>1094.5999755859375</AltitudeMeters>
            <DistanceMeters>19368.478581138</DistanceMeters>
          </Trackpoint>
          <Trackpoint>
            <Time>2021-08-01T14:37:40.000Z</Time>
            <Position>
              <LatitudeDegrees>-15.37833197973668575286865234375</LatitudeDegrees>
              <LongitudeDegrees>37.08990342915058135986328125</LongitudeDegrees>
            </Position>
            <AltitudeMeters>1094.5999755859375</AltitudeMeters>
            <DistanceMeters>19369.778051913</DistanceMeters>
          </Trackpoint>
          <Trackpoint>
            <Time>2021-08-01T14:37:45.000Z</Time>
            <Position>
              <LatitudeDegrees>-15.3782816044986248016357421875</LatitudeDegrees>
              <LongitudeDegrees>37.0898700691759586334228515625</LongitudeDegrees>
            </Position>
            <AltitudeMeters>1094.5999755859375</AltitudeMeters>
            <DistanceMeters>19376.430600647</DistanceMeters>
          </Trackpoint>
          <Trackpoint>
            <Time>2021-08-01T14:37:48.000Z</Time>
            <Position>
              <LatitudeDegrees>-15.37824648432433605194091796875</LatitudeDegrees>
              <LongitudeDegrees>37.08985221572220325469970703125</LongitudeDegrees>
            </Position>
            <AltitudeMeters>1094.4000244140625</AltitudeMeters>
            <DistanceMeters>19380.783197616</DistanceMeters>
          </Trackpoint>
          <Trackpoint>
            <Time>2021-08-01T14:37:51.000Z</Time>
            <Position>
              <LatitudeDegrees>-15.37821128033101558685302734375</LatitudeDegrees>
              <LongitudeDegrees>37.08983964286744594573974609375</LongitudeDegrees>
            </Position>
            <AltitudeMeters>1094.4000244140625</AltitudeMeters>
            <DistanceMeters>19384.926405953</DistanceMeters>
          </Trackpoint>
          <Trackpoint>
            <Time>2021-08-01T14:37:59.000Z</Time>
            <Position>
              <LatitudeDegrees>-15.3781169839203357696533203125</LatitudeDegrees>
              <LongitudeDegrees>37.0897973142564296722412109375</LongitudeDegrees>
            </Position>
            <AltitudeMeters>1095</AltitudeMeters>
            <DistanceMeters>19396.362427863</DistanceMeters>
          </Trackpoint>
          <Trackpoint>
            <Time>2021-08-01T14:38:00.000Z</Time>
            <Position>
              <LatitudeDegrees>-15.3781075961887836456298828125</LatitudeDegrees>
              <LongitudeDegrees>37.0897932909429073333740234375</LongitudeDegrees>
            </Position>
            <AltitudeMeters>1095</AltitudeMeters>
            <DistanceMeters>19397.490807577</DistanceMeters>
          </Trackpoint>
          <Trackpoint>
            <Time>2021-08-01T14:38:06.000Z</Time>
            <Position>
              <LatitudeDegrees>-15.3780482523143291473388671875</LatitudeDegrees>
              <LongitudeDegrees>37.08978130482137203216552734375</LongitudeDegrees>
            </Position>
            <AltitudeMeters>1094.800048828125</AltitudeMeters>
            <DistanceMeters>19404.220282547</DistanceMeters>
          </Trackpoint>
          <Trackpoint>
            <Time>2021-08-01T14:38:08.000Z</Time>
            <Position>
              <LatitudeDegrees>-15.3780417144298553466796875</LatitudeDegrees>
              <LongitudeDegrees>37.08977870643138885498046875</LongitudeDegrees>
            </Position>
            <AltitudeMeters>1094.800048828125</AltitudeMeters>
            <DistanceMeters>19404.992283224</DistanceMeters>
          </Trackpoint>
          <Trackpoint>
            <Time>2021-08-01T14:38:18.000Z</Time>
            <Position>
              <LatitudeDegrees>-15.37793241441249847412109375</LatitudeDegrees>
              <LongitudeDegrees>37.08976822905242443084716796875</LongitudeDegrees>
            </Position>
            <AltitudeMeters>1094.4000244140625</AltitudeMeters>
            <DistanceMeters>19417.209407826</DistanceMeters>
          </Trackpoint>
          <Trackpoint>
            <Time>2021-08-01T14:38:26.000Z</Time>
            <Position>
              <LatitudeDegrees>-15.377835519611835479736328125</LatitudeDegrees>
              <LongitudeDegrees>37.08975532092154026031494140625</LongitudeDegrees>
            </Position>
            <AltitudeMeters>1094.4000244140625</AltitudeMeters>
            <DistanceMeters>19428.083221368</DistanceMeters>
          </Trackpoint>
          <Trackpoint>
            <Time>2021-08-01T14:38:29.000Z</Time>
            <Position>
              <LatitudeDegrees>-15.37779838778078556060791015625</LatitudeDegrees>
              <LongitudeDegrees>37.08975062705576419830322265625</LongitudeDegrees>
            </Position>
            <AltitudeMeters>1094.5999755859375</AltitudeMeters>
            <DistanceMeters>19432.247083371</DistanceMeters>
          </Trackpoint>
          <Trackpoint>
            <Time>2021-08-01T14:38:37.000Z</Time>
            <Position>
              <LatitudeDegrees>-15.3777267225086688995361328125</LatitudeDegrees>
              <LongitudeDegrees>37.0897027663886547088623046875</LongitudeDegrees>
            </Position>
            <AltitudeMeters>1094.5999755859375</AltitudeMeters>
            <DistanceMeters>19441.73453835</DistanceMeters>
          </Trackpoint>
          <Trackpoint>
            <Time>2021-08-01T14:38:50.000Z</Time>
            <Position>
              <LatitudeDegrees>-15.37763577885925769805908203125</LatitudeDegrees>
              <LongitudeDegrees>37.0895656384527683258056640625</LongitudeDegrees>
            </Position>
            <AltitudeMeters>1094.800048828125</AltitudeMeters>
            <DistanceMeters>19459.596022073</DistanceMeters>
          </Trackpoint>
          <Trackpoint>
            <Time>2021-08-01T14:39:01.000Z</Time>
            <Position>
              <LatitudeDegrees>-15.37754927761852741241455078125</LatitudeDegrees>
              <LongitudeDegrees>37.0894590206444263458251953125</LongitudeDegrees>
            </Position>
            <AltitudeMeters>1095</AltitudeMeters>
            <DistanceMeters>19474.549978508</DistanceMeters>
          </Trackpoint>
          <Trackpoint>
            <Time>2021-08-01T14:39:06.000Z</Time>
            <Position>
              <LatitudeDegrees>-15.37751809693872928619384765625</LatitudeDegrees>
              <LongitudeDegrees>37.0894320309162139892578125</LongitudeDegrees>
            </Position>
            <AltitudeMeters>1095.199951171875</AltitudeMeters>
            <DistanceMeters>19479.070494296</DistanceMeters>
          </Trackpoint>
          <Trackpoint>
            <Time>2021-08-01T14:39:07.000Z</Time>
            <Position>
              <LatitudeDegrees>-15.377515666186809539794921875</LatitudeDegrees>
              <LongitudeDegrees>37.08943094126880168914794921875</LongitudeDegrees>
            </Position>
            <AltitudeMeters>1095</AltitudeMeters>
            <DistanceMeters>19479.355574439</DistanceMeters>
          </Trackpoint>
          <Trackpoint>
            <Time>2021-08-01T14:39:09.000Z</Time>
            <Position>
              <LatitudeDegrees>-15.377500243484973907470703125</LatitudeDegrees>
              <LongitudeDegrees>37.08942222408950328826904296875</LongitudeDegrees>
            </Position>
            <AltitudeMeters>1095.199951171875</AltitudeMeters>
            <DistanceMeters>19481.309985434</DistanceMeters>
          </Trackpoint>
          <Trackpoint>
            <Time>2021-08-01T14:39:13.000Z</Time>
            <Position>
              <LatitudeDegrees>-15.37745774723589420318603515625</LatitudeDegrees>
              <LongitudeDegrees>37.08940495736896991729736328125</LongitudeDegrees>
            </Position>
            <AltitudeMeters>1095.199951171875</AltitudeMeters>
            <DistanceMeters>19486.389249987</DistanceMeters>
          </Trackpoint>
          <Trackpoint>
            <Time>2021-08-01T14:39:22.000Z</Time>
            <Position>
              <LatitudeDegrees>-15.3773523867130279541015625</LatitudeDegrees>
              <LongitudeDegrees>37.0893678255379199981689453125</LongitudeDegrees>
            </Position>
            <AltitudeMeters>1095.4000244140625</AltitudeMeters>
            <DistanceMeters>19498.774843983</DistanceMeters>
          </Trackpoint>
          <Trackpoint>
            <Time>2021-08-01T14:39:29.000Z</Time>
            <Position>
              <LatitudeDegrees>-15.377278625965118408203125</LatitudeDegrees>
              <LongitudeDegrees>37.08934150636196136474609375</LongitudeDegrees>
            </Position>
            <AltitudeMeters>1095.199951171875</AltitudeMeters>
            <DistanceMeters>19507.456666837</DistanceMeters>
          </Trackpoint>
          <Trackpoint>
            <Time>2021-08-01T14:39:31.000Z</Time>
            <Position>
              <LatitudeDegrees>-15.377258844673633575439453125</LatitudeDegrees>
              <LongitudeDegrees>37.08933371119201183319091796875</LongitudeDegrees>
            </Position>
            <AltitudeMeters>1095.800048828125</AltitudeMeters>
            <DistanceMeters>19509.811336015</DistanceMeters>
          </Trackpoint>
          <Trackpoint>
            <Time>2021-08-01T14:39:36.000Z</Time>
            <Position>
              <LatitudeDegrees>-15.3772020153701305389404296875</LatitudeDegrees>
              <LongitudeDegrees>37.08931745029985904693603515625</LongitudeDegrees>
            </Position>
            <AltitudeMeters>1096.199951171875</AltitudeMeters>
            <DistanceMeters>19516.372997732</DistanceMeters>
          </Trackpoint>
          <Trackpoint>
            <Time>2021-08-01T14:39:40.000Z</Time>
            <Position>
              <LatitudeDegrees>-15.37715968675911426544189453125</LatitudeDegrees>
              <LongitudeDegrees>37.08930102176964282989501953125</LongitudeDegrees>
            </Position>
            <AltitudeMeters>1096.5999755859375</AltitudeMeters>
            <DistanceMeters>19521.40313433</DistanceMeters>
          </Trackpoint>
          <Trackpoint>
            <Time>2021-08-01T14:39:42.000Z</Time>
            <Position>
              <LatitudeDegrees>-15.37714116275310516357421875</LatitudeDegrees>
              <LongitudeDegrees>37.0892925560474395751953125</LongitudeDegrees>
            </Position>
            <AltitudeMeters>1097.199951171875</AltitudeMeters>
            <DistanceMeters>19523.655888857</DistanceMeters>
          </Trackpoint>
          <Trackpoint>
            <Time>2021-08-01T14:39:46.000Z</Time>
            <Position>
              <LatitudeDegrees>-15.3771021030843257904052734375</LatitudeDegrees>
              <LongitudeDegrees>37.0892783068120479583740234375</LongitudeDegrees>
            </Position>
            <AltitudeMeters>1097.5999755859375</AltitudeMeters>
            <DistanceMeters>19528.265419188</DistanceMeters>
          </Trackpoint>
          <Trackpoint>
            <Time>2021-08-01T14:39:55.000Z</Time>
            <Position>
              <LatitudeDegrees>-15.37702046334743499755859375</LatitudeDegrees>
              <LongitudeDegrees>37.08921737037599086761474609375</LongitudeDegrees>
            </Position>
            <AltitudeMeters>1098.199951171875</AltitudeMeters>
            <DistanceMeters>19539.460840621</DistanceMeters>
          </Trackpoint>
          <Trackpoint>
            <Time>2021-08-01T14:39:56.000Z</Time>
            <Position>
              <LatitudeDegrees>-15.3770109079778194427490234375</LatitudeDegrees>
              <LongitudeDegrees>37.089210413396358489990234375</LongitudeDegrees>
            </Position>
            <AltitudeMeters>1098.199951171875</AltitudeMeters>
            <DistanceMeters>19540.756832217</DistanceMeters>
          </Trackpoint>
          <Trackpoint>
            <Time>2021-08-01T14:40:07.000Z</Time>
            <Position>
              <LatitudeDegrees>-15.3769126720726490020751953125</LatitudeDegrees>
              <LongitudeDegrees>37.0891301147639751434326171875</LongitudeDegrees>
            </Position>
            <AltitudeMeters>1098.5999755859375</AltitudeMeters>
            <DistanceMeters>19554.678813427</DistanceMeters>
          </Trackpoint>
          <Trackpoint>
            <Time>2021-08-01T14:40:17.000Z</Time>
            <Position>
              <LatitudeDegrees>-15.376802869141101837158203125</LatitudeDegrees>
              <LongitudeDegrees>37.08907035179436206817626953125</LongitudeDegrees>
            </Position>
            <AltitudeMeters>1098.5999755859375</AltitudeMeters>
            <DistanceMeters>19568.480932563</DistanceMeters>
          </Trackpoint>
          <Trackpoint>
            <Time>2021-08-01T14:40:22.000Z</Time>
            <Position>
              <LatitudeDegrees>-15.3767554275691509246826171875</LatitudeDegrees>
              <LongitudeDegrees>37.0890409313142299652099609375</LongitudeDegrees>
            </Position>
            <AltitudeMeters>1098.4000244140625</AltitudeMeters>
            <DistanceMeters>19574.633499544</DistanceMeters>
          </Trackpoint>
          <Trackpoint>
            <Time>2021-08-01T14:40:30.000Z</Time>
            <Position>
              <LatitudeDegrees>-15.3766846843063831329345703125</LatitudeDegrees>
              <LongitudeDegrees>37.08897848613560199737548828125</LongitudeDegrees>
            </Position>
            <AltitudeMeters>1098</AltitudeMeters>
            <DistanceMeters>19584.973087303</DistanceMeters>
          </Trackpoint>
          <Trackpoint>
            <Time>2021-08-01T14:40:33.000Z</Time>
            <Position>
              <LatitudeDegrees>-15.376661382615566253662109375</LatitudeDegrees>
              <LongitudeDegrees>37.08895619027316570281982421875</LongitudeDegrees>
            </Position>
            <AltitudeMeters>1098</AltitudeMeters>
            <DistanceMeters>19588.501893817</DistanceMeters>
          </Trackpoint>
          <Trackpoint>
            <Time>2021-08-01T14:40:38.000Z</Time>
            <Position>
              <LatitudeDegrees>-15.37662961520254611968994140625</LatitudeDegrees>
              <LongitudeDegrees>37.08891126327216625213623046875</LongitudeDegrees>
            </Position>
            <AltitudeMeters>1098.199951171875</AltitudeMeters>
            <DistanceMeters>19594.480275083</DistanceMeters>
          </Trackpoint>
          <Trackpoint>
            <Time>2021-08-01T14:40:44.000Z</Time>
            <Position>
              <LatitudeDegrees>-15.376581586897373199462890625</LatitudeDegrees>
              <LongitudeDegrees>37.08887136541306972503662109375</LongitudeDegrees>
            </Position>
            <AltitudeMeters>1097.800048828125</AltitudeMeters>
            <DistanceMeters>19601.329453656</DistanceMeters>
          </Trackpoint>
          <Trackpoint>
            <Time>2021-08-01T14:40:48.000Z</Time>
            <Position>
              <LatitudeDegrees>-15.37654596380889415740966796875</LatitudeDegrees>
              <LongitudeDegrees>37.08884035237133502960205078125</LongitudeDegrees>
            </Position>
            <AltitudeMeters>1097.4000244140625</AltitudeMeters>
            <DistanceMeters>19606.506447657</DistanceMeters>
          </Trackpoint>
          <Trackpoint>
            <Time>2021-08-01T14:40:55.000Z</Time>
            <Position>
              <LatitudeDegrees>-15.3764687664806842803955078125</LatitudeDegrees>
              <LongitudeDegrees>37.08882384002208709716796875</LongitudeDegrees>
            </Position>
            <AltitudeMeters>1097</AltitudeMeters>
            <DistanceMeters>19615.279322986</DistanceMeters>
          </Trackpoint>
          <Trackpoint>
            <Time>2021-08-01T14:40:58.000Z</Time>
            <Position>
              <LatitudeDegrees>-15.37643247283995151519775390625</LatitudeDegrees>
              <LongitudeDegrees>37.08882560022175312042236328125</LongitudeDegrees>
            </Position>
            <AltitudeMeters>1097</AltitudeMeters>
            <DistanceMeters>19619.322148528</DistanceMeters>
          </Trackpoint>
          <Trackpoint>
            <Time>2021-08-01T14:41:10.000Z</Time>
            <Position>
              <LatitudeDegrees>-15.3763209097087383270263671875</LatitudeDegrees>
              <LongitudeDegrees>37.0888196490705013275146484375</LongitudeDegrees>
            </Position>
            <AltitudeMeters>1096.800048828125</AltitudeMeters>
            <DistanceMeters>19631.756131751</DistanceMeters>
          </Trackpoint>
          <Trackpoint>
            <Time>2021-08-01T14:41:16.000Z</Time>
            <Position>
              <LatitudeDegrees>-15.3762518428266048431396484375</LatitudeDegrees>
              <LongitudeDegrees>37.08880984224379062652587890625</LongitudeDegrees>
            </Position>
            <AltitudeMeters>1097.199951171875</AltitudeMeters>
            <DistanceMeters>19639.51580634</DistanceMeters>
          </Trackpoint>
          <Trackpoint>
            <Time>2021-08-01T14:41:20.000Z</Time>
            <Position>
              <LatitudeDegrees>-15.3762045688927173614501953125</LatitudeDegrees>
              <LongitudeDegrees>37.088808752596378326416015625</LongitudeDegrees>
            </Position>
            <AltitudeMeters>1097.800048828125</AltitudeMeters>
            <DistanceMeters>19644.778433484</DistanceMeters>
          </Trackpoint>
          <Trackpoint>
            <Time>2021-08-01T14:41:25.000Z</Time>
            <Position>
              <LatitudeDegrees>-15.3761505894362926483154296875</LatitudeDegrees>
              <LongitudeDegrees>37.08882006816565990447998046875</LongitudeDegrees>
            </Position>
            <AltitudeMeters>1098</AltitudeMeters>
            <DistanceMeters>19650.908209017</DistanceMeters>
          </Trackpoint>
          <Trackpoint>
            <Time>2021-08-01T14:41:29.000Z</Time>
            <Position>
              <LatitudeDegrees>-15.37611312232911586761474609375</LatitudeDegrees>
              <LongitudeDegrees>37.0888437889516353607177734375</LongitudeDegrees>
            </Position>
            <AltitudeMeters>1098.4000244140625</AltitudeMeters>
            <DistanceMeters>19655.794467516</DistanceMeters>
          </Trackpoint>
          <Trackpoint>
            <Time>2021-08-01T14:41:38.000Z</Time>
            <Position>
              <LatitudeDegrees>-15.37602159194648265838623046875</LatitudeDegrees>
              <LongitudeDegrees>37.08888125605881214141845703125</LongitudeDegrees>
            </Position>
            <AltitudeMeters>1099.199951171875</AltitudeMeters>
            <DistanceMeters>19666.74688896</DistanceMeters>
          </Trackpoint>
          <Trackpoint>
            <Time>2021-08-01T14:41:40.000Z</Time>
            <Position>
              <LatitudeDegrees>-15.37600348703563213348388671875</LatitudeDegrees>
              <LongitudeDegrees>37.0888853631913661956787109375</LongitudeDegrees>
            </Position>
            <AltitudeMeters>1099.5999755859375</AltitudeMeters>
            <DistanceMeters>19668.807019035</DistanceMeters>
          </Trackpoint>
          <Trackpoint>
            <Time>2021-08-01T14:41:46.000Z</Time>
            <Position>
              <LatitudeDegrees>-15.3759507648646831512451171875</LatitudeDegrees>
              <LongitudeDegrees>37.08889936096966266632080078125</LongitudeDegrees>
            </Position>
            <AltitudeMeters>1100.199951171875</AltitudeMeters>
            <DistanceMeters>19674.864180135</DistanceMeters>
          </Trackpoint>
          <Trackpoint>
            <Time>2021-08-01T14:41:47.000Z</Time>
            <Position>
              <LatitudeDegrees>-15.3759497590363025665283203125</LatitudeDegrees>
              <LongitudeDegrees>37.0889004506170749664306640625</LongitudeDegrees>
            </Position>
            <AltitudeMeters>1100.199951171875</AltitudeMeters>
            <DistanceMeters>19675.054233564</DistanceMeters>
          </Trackpoint>
          <Trackpoint>
            <Time>2021-08-01T14:41:53.000Z</Time>
            <Position>
              <LatitudeDegrees>-15.3759266249835491180419921875</LatitudeDegrees>
              <LongitudeDegrees>37.08890355192124843597412109375</LongitudeDegrees>
            </Position>
            <AltitudeMeters>1100.4000244140625</AltitudeMeters>
            <DistanceMeters>19677.649698268</DistanceMeters>
          </Trackpoint>
          <Trackpoint>
            <Time>2021-08-01T14:41:56.000Z</Time>
            <Position>
              <LatitudeDegrees>-15.3758927620947360992431640625</LatitudeDegrees>
              <LongitudeDegrees>37.088909335434436798095703125</LongitudeDegrees>
            </Position>
            <AltitudeMeters>1101</AltitudeMeters>
            <DistanceMeters>19681.469724908</DistanceMeters>
          </Trackpoint>
          <Trackpoint>
            <Time>2021-08-01T14:42:01.000Z</Time>
            <Position>
              <LatitudeDegrees>-15.3758407942950725555419921875</LatitudeDegrees>
              <LongitudeDegrees>37.08893054164946079254150390625</LongitudeDegrees>
            </Position>
            <AltitudeMeters>1101.5999755859375</AltitudeMeters>
            <DistanceMeters>19687.685808651</DistanceMeters>
          </Trackpoint>
          <Trackpoint>
            <Time>2021-08-01T14:42:05.000Z</Time>
            <Position>
              <LatitudeDegrees>-15.37579829804599285125732421875</LatitudeDegrees>
              <LongitudeDegrees>37.08894294686615467071533203125</LongitudeDegrees>
            </Position>
            <AltitudeMeters>1101.800048828125</AltitudeMeters>
            <DistanceMeters>19692.598790875</DistanceMeters>
          </Trackpoint>
          <Trackpoint>
            <Time>2021-08-01T14:42:13.000Z</Time>
            <Position>
              <LatitudeDegrees>-15.37571548484265804290771484375</LatitudeDegrees>
              <LongitudeDegrees>37.088945209980010986328125</LongitudeDegrees>
            </Position>
            <AltitudeMeters>1102.800048828125</AltitudeMeters>
            <DistanceMeters>19701.819320671</DistanceMeters>
          </Trackpoint>
          <Trackpoint>
            <Time>2021-08-01T14:42:16.000Z</Time>
            <Position>
              <LatitudeDegrees>-15.37568061612546443939208984375</LatitudeDegrees>
              <LongitudeDegrees>37.08894914947450160980224609375</LongitudeDegrees>
            </Position>
            <AltitudeMeters>1103.4000244140625</AltitudeMeters>
            <DistanceMeters>19705.722362941</DistanceMeters>
          </Trackpoint>
          <Trackpoint>
            <Time>2021-08-01T14:42:17.000Z</Time>
            <Position>
              <LatitudeDegrees>-15.3756698034703731536865234375</LatitudeDegrees>
              <LongitudeDegrees>37.08895350806415081024169921875</LongitudeDegrees>
            </Position>
            <AltitudeMeters>1103.4000244140625</AltitudeMeters>
            <DistanceMeters>19707.007860506</DistanceMeters>
          </Trackpoint>
          <Trackpoint>
            <Time>2021-08-01T14:42:28.000Z</Time>
            <Position>
              <LatitudeDegrees>-15.375544913113117218017578125</LatitudeDegrees>
              <LongitudeDegrees>37.08895836956799030303955078125</LongitudeDegrees>
            </Position>
            <AltitudeMeters>1103.5999755859375</AltitudeMeters>
            <DistanceMeters>19720.918161655</DistanceMeters>
          </Trackpoint>
          <Trackpoint>
            <Time>2021-08-01T14:42:35.000Z</Time>
            <Position>
              <LatitudeDegrees>-15.37547257728874683380126953125</LatitudeDegrees>
              <LongitudeDegrees>37.08896390162408351898193359375</LongitudeDegrees>
            </Position>
            <AltitudeMeters>1103.800048828125</AltitudeMeters>
            <DistanceMeters>19728.990959292</DistanceMeters>
          </Trackpoint>
          <Trackpoint>
            <Time>2021-08-01T14:42:38.000Z</Time>
            <Position>
              <LatitudeDegrees>-15.3754401393234729766845703125</LatitudeDegrees>
              <LongitudeDegrees>37.08896591328084468841552734375</LongitudeDegrees>
            </Position>
            <AltitudeMeters>1103.800048828125</AltitudeMeters>
            <DistanceMeters>19732.60946877</DistanceMeters>
          </Trackpoint>
          <Trackpoint>
            <Time>2021-08-01T14:42:44.000Z</Time>
            <Position>
              <LatitudeDegrees>-15.37537216208875179290771484375</LatitudeDegrees>
              <LongitudeDegrees>37.08895971067249774932861328125</LongitudeDegrees>
            </Position>
            <AltitudeMeters>1104</AltitudeMeters>
            <DistanceMeters>19740.204475573</DistanceMeters>
          </Trackpoint>
          <Trackpoint>
            <Time>2021-08-01T14:42:48.000Z</Time>
            <Position>
              <LatitudeDegrees>-15.375331677496433258056640625</LatitudeDegrees>
              <LongitudeDegrees>37.08894847892224788665771484375</LongitudeDegrees>
            </Position>
            <AltitudeMeters>1104</AltitudeMeters>
            <DistanceMeters>19744.868535409</DistanceMeters>
          </Trackpoint>
          <Trackpoint>
            <Time>2021-08-01T14:42:58.000Z</Time>
            <Position>
              <LatitudeDegrees>-15.375233106315135955810546875</LatitudeDegrees>
              <LongitudeDegrees>37.08893037401139736175537109375</LongitudeDegrees>
            </Position>
            <AltitudeMeters>1104.4000244140625</AltitudeMeters>
            <DistanceMeters>19756.009784477</DistanceMeters>
          </Trackpoint>
          <Trackpoint>
            <Time>2021-08-01T14:43:08.000Z</Time>
            <Position>
              <LatitudeDegrees>-15.37512087263166904449462890625</LatitudeDegrees>
              <LongitudeDegrees>37.08888075314462184906005859375</LongitudeDegrees>
            </Position>
            <AltitudeMeters>1104.5999755859375</AltitudeMeters>
            <DistanceMeters>19769.58929813</DistanceMeters>
          </Trackpoint>
          <Trackpoint>
            <Time>2021-08-01T14:43:19.000Z</Time>
            <Position>
              <LatitudeDegrees>-15.37500478327274322509765625</LatitudeDegrees>
              <LongitudeDegrees>37.08883381448686122894287109375</LongitudeDegrees>
            </Position>
            <AltitudeMeters>1103</AltitudeMeters>
            <DistanceMeters>19783.45733938</DistanceMeters>
          </Trackpoint>
          <Trackpoint>
            <Time>2021-08-01T14:43:24.000Z</Time>
            <Position>
              <LatitudeDegrees>-15.3749442659318447113037109375</LatitudeDegrees>
              <LongitudeDegrees>37.08882342092692852020263671875</LongitudeDegrees>
            </Position>
            <AltitudeMeters>1102.800048828125</AltitudeMeters>
            <DistanceMeters>19790.285390689</DistanceMeters>
          </Trackpoint>
          <Trackpoint>
            <Time>2021-08-01T14:43:26.000Z</Time>
            <Position>
              <LatitudeDegrees>-15.374921970069408416748046875</LatitudeDegrees>
              <LongitudeDegrees>37.08882518112659454345703125</LongitudeDegrees>
            </Position>
            <AltitudeMeters>1102.800048828125</AltitudeMeters>
            <DistanceMeters>19792.774292543</DistanceMeters>
          </Trackpoint>
          <Trackpoint>
            <Time>2021-08-01T14:43:29.000Z</Time>
            <Position>
              <LatitudeDegrees>-15.37489137612283229827880859375</LatitudeDegrees>
              <LongitudeDegrees>37.0888196490705013275146484375</LongitudeDegrees>
            </Position>
            <AltitudeMeters>1102.800048828125</AltitudeMeters>
            <DistanceMeters>19796.230705588</DistanceMeters>
          </Trackpoint>
          <Trackpoint>
            <Time>2021-08-01T14:43:38.000Z</Time>
            <Position>
              <LatitudeDegrees>-15.3747900389134883880615234375</LatitudeDegrees>
              <LongitudeDegrees>37.08880011923611164093017578125</LongitudeDegrees>
            </Position>
            <AltitudeMeters>1103.199951171875</AltitudeMeters>
            <DistanceMeters>19807.70259881</DistanceMeters>
          </Trackpoint>
          <Trackpoint>
            <Time>2021-08-01T14:43:43.000Z</Time>
            <Position>
              <LatitudeDegrees>-15.374742262065410614013671875</LatitudeDegrees>
              <LongitudeDegrees>37.08879659883677959442138671875</LongitudeDegrees>
            </Position>
            <AltitudeMeters>1103.800048828125</AltitudeMeters>
            <DistanceMeters>19813.034266527</DistanceMeters>
          </Trackpoint>
          <Trackpoint>
            <Time>2021-08-01T14:43:51.000Z</Time>
            <Position>
              <LatitudeDegrees>-15.37466020323336124420166015625</LatitudeDegrees>
              <LongitudeDegrees>37.088795006275177001953125</LongitudeDegrees>
            </Position>
            <AltitudeMeters>1104.4000244140625</AltitudeMeters>
            <DistanceMeters>19822.169195997</DistanceMeters>
          </Trackpoint>
          <Trackpoint>
            <Time>2021-08-01T14:43:54.000Z</Time>
            <Position>
              <LatitudeDegrees>-15.37462952546775341033935546875</LatitudeDegrees>
              <LongitudeDegrees>37.088787294924259185791015625</LongitudeDegrees>
            </Position>
            <AltitudeMeters>1104.5999755859375</AltitudeMeters>
            <DistanceMeters>19825.683900049</DistanceMeters>
          </Trackpoint>
          <Trackpoint>
            <Time>2021-08-01T14:43:56.000Z</Time>
            <Position>
              <LatitudeDegrees>-15.37460974417626857757568359375</LatitudeDegrees>
              <LongitudeDegrees>37.0887784101068973541259765625</LongitudeDegrees>
            </Position>
            <AltitudeMeters>1105.199951171875</AltitudeMeters>
            <DistanceMeters>19828.082265887</DistanceMeters>
          </Trackpoint>
          <Trackpoint>
            <Time>2021-08-01T14:44:01.000Z</Time>
            <Position>
              <LatitudeDegrees>-15.3745694272220134735107421875</LatitudeDegrees>
              <LongitudeDegrees>37.08876457996666431427001953125</LongitudeDegrees>
            </Position>
            <AltitudeMeters>1105.800048828125</AltitudeMeters>
            <DistanceMeters>19832.808830086</DistanceMeters>
          </Trackpoint>
          <Trackpoint>
            <Time>2021-08-01T14:44:04.000Z</Time>
            <Position>
              <LatitudeDegrees>-15.37454771809279918670654296875</LatitudeDegrees>
              <LongitudeDegrees>37.0887566171586513519287109375</LongitudeDegrees>
            </Position>
            <AltitudeMeters>1106.199951171875</AltitudeMeters>
            <DistanceMeters>19835.372791016</DistanceMeters>
          </Trackpoint>
          <Trackpoint>
            <Time>2021-08-01T14:44:05.000Z</Time>
            <Position>
              <LatitudeDegrees>-15.3745375759899616241455078125</LatitudeDegrees>
              <LongitudeDegrees>37.08875251002609729766845703125</LongitudeDegrees>
            </Position>
            <AltitudeMeters>1106.199951171875</AltitudeMeters>
            <DistanceMeters>19836.58228363</DistanceMeters>
          </Trackpoint>
          <Trackpoint>
            <Time>2021-08-01T14:44:08.000Z</Time>
            <Position>
              <LatitudeDegrees>-15.374506227672100067138671875</LatitudeDegrees>
              <LongitudeDegrees>37.08874681033194065093994140625</LongitudeDegrees>
            </Position>
            <AltitudeMeters>1106.4000244140625</AltitudeMeters>
            <DistanceMeters>19840.125136472</DistanceMeters>
          </Trackpoint>
          <Trackpoint>
            <Time>2021-08-01T14:44:13.000Z</Time>
            <Position>
              <LatitudeDegrees>-15.3744544275104999542236328125</LatitudeDegrees>
              <LongitudeDegrees>37.08873893134295940399169921875</LongitudeDegrees>
            </Position>
            <AltitudeMeters>1106.5999755859375</AltitudeMeters>
            <DistanceMeters>19845.952064258</DistanceMeters>
          </Trackpoint>
          <Trackpoint>
            <Time>2021-08-01T14:44:15.000Z</Time>
            <Position>
              <LatitudeDegrees>-15.37443338893353939056396484375</LatitudeDegrees>
              <LongitudeDegrees>37.08873532712459564208984375</LongitudeDegrees>
            </Position>
            <AltitudeMeters>1107</AltitudeMeters>
            <DistanceMeters>19848.325830822</DistanceMeters>
          </Trackpoint>
          <Trackpoint>
            <Time>2021-08-01T14:44:16.000Z</Time>
            <Position>
              <LatitudeDegrees>-15.37442282773554325103759765625</LatitudeDegrees>
              <LongitudeDegrees>37.0887331478297710418701171875</LongitudeDegrees>
            </Position>
            <AltitudeMeters>1107</AltitudeMeters>
            <DistanceMeters>19849.527834246</DistanceMeters>
          </Trackpoint>
          <Trackpoint>
            <Time>2021-08-01T14:44:18.000Z</Time>
            <Position>
              <LatitudeDegrees>-15.3743984363973140716552734375</LatitudeDegrees>
              <LongitudeDegrees>37.0887271128594875335693359375</LongitudeDegrees>
            </Position>
            <AltitudeMeters>1107.199951171875</AltitudeMeters>
            <DistanceMeters>19852.319420887</DistanceMeters>
          </Trackpoint>
          <Trackpoint>
            <Time>2021-08-01T14:44:27.000Z</Time>
            <Position>
              <LatitudeDegrees>-15.3742874599993228912353515625</LatitudeDegrees>
              <LongitudeDegrees>37.088704816997051239013671875</LongitudeDegrees>
            </Position>
            <AltitudeMeters>1107.4000244140625</AltitudeMeters>
            <DistanceMeters>19864.901043996</DistanceMeters>
          </Trackpoint>
          <Trackpoint>
            <Time>2021-08-01T14:44:33.000Z</Time>
            <Position>
              <LatitudeDegrees>-15.37421998567879199981689453125</LatitudeDegrees>
              <LongitudeDegrees>37.08870439790189266204833984375</LongitudeDegrees>
            </Position>
            <AltitudeMeters>1107.5999755859375</AltitudeMeters>
            <DistanceMeters>19872.411161004</DistanceMeters>
          </Trackpoint>
          <Trackpoint>
            <Time>2021-08-01T14:44:36.000Z</Time>
            <Position>
              <LatitudeDegrees>-15.37419131956994533538818359375</LatitudeDegrees>
              <LongitudeDegrees>37.08871789276599884033203125</LongitudeDegrees>
            </Position>
            <AltitudeMeters>1107.4000244140625</AltitudeMeters>
            <DistanceMeters>19875.914284451</DistanceMeters>
          </Trackpoint>
          <Trackpoint>
            <Time>2021-08-01T14:44:37.000Z</Time>
            <Position>
              <LatitudeDegrees>-15.37418612278997898101806640625</LatitudeDegrees>
              <LongitudeDegrees>37.0887271128594875335693359375</LongitudeDegrees>
            </Position>
            <AltitudeMeters>1107.5999755859375</AltitudeMeters>
            <DistanceMeters>19877.062496609</DistanceMeters>
          </Trackpoint>
          <Trackpoint>
            <Time>2021-08-01T14:44:45.000Z</Time>
            <Position>
              <LatitudeDegrees>-15.37412694655358791351318359375</LatitudeDegrees>
              <LongitudeDegrees>37.088780589401721954345703125</LongitudeDegrees>
            </Position>
            <AltitudeMeters>1107.4000244140625</AltitudeMeters>
            <DistanceMeters>19885.798237908</DistanceMeters>
          </Trackpoint>
          <Trackpoint>
            <Time>2021-08-01T14:44:49.000Z</Time>
            <Position>
              <LatitudeDegrees>-15.3741097636520862579345703125</LatitudeDegrees>
              <LongitudeDegrees>37.08880984224379062652587890625</LongitudeDegrees>
            </Position>
            <AltitudeMeters>1107.5999755859375</AltitudeMeters>
            <DistanceMeters>19889.473696295</DistanceMeters>
          </Trackpoint>
          <Trackpoint>
            <Time>2021-08-01T14:44:55.000Z</Time>
            <Position>
              <LatitudeDegrees>-15.37408017553389072418212890625</LatitudeDegrees>
              <LongitudeDegrees>37.088866420090198516845703125</LongitudeDegrees>
            </Position>
            <AltitudeMeters>1108.199951171875</AltitudeMeters>
            <DistanceMeters>19896.38064163</DistanceMeters>
          </Trackpoint>
          <Trackpoint>
            <Time>2021-08-01T14:44:58.000Z</Time>
            <Position>
              <LatitudeDegrees>-15.37406324408948421478271484375</LatitudeDegrees>
              <LongitudeDegrees>37.08890154026448726654052734375</LongitudeDegrees>
            </Position>
            <AltitudeMeters>1108.5999755859375</AltitudeMeters>
            <DistanceMeters>19900.595159439</DistanceMeters>
          </Trackpoint>
          <Trackpoint>
            <Time>2021-08-01T14:45:07.000Z</Time>
            <Position>
              <LatitudeDegrees>-15.37405536510050296783447265625</LatitudeDegrees>
              <LongitudeDegrees>37.08898938260972499847412109375</LongitudeDegrees>
            </Position>
            <AltitudeMeters>1108.199951171875</AltitudeMeters>
            <DistanceMeters>19910.063559459</DistanceMeters>
          </Trackpoint>
          <Trackpoint>
            <Time>2021-08-01T14:45:16.000Z</Time>
            <Position>
              <LatitudeDegrees>-15.37401915527880191802978515625</LatitudeDegrees>
              <LongitudeDegrees>37.08908778615295886993408203125</LongitudeDegrees>
            </Position>
            <AltitudeMeters>1107.800048828125</AltitudeMeters>
            <DistanceMeters>19921.366946191</DistanceMeters>
          </Trackpoint>
          <Trackpoint>
            <Time>2021-08-01T14:45:27.000Z</Time>
            <Position>
              <LatitudeDegrees>-15.37398596294224262237548828125</LatitudeDegrees>
              <LongitudeDegrees>37.08920345641672611236572265625</LongitudeDegrees>
            </Position>
            <AltitudeMeters>1107.199951171875</AltitudeMeters>
            <DistanceMeters>19934.318498222</DistanceMeters>
          </Trackpoint>
          <Trackpoint>
            <Time>2021-08-01T14:45:29.000Z</Time>
            <Position>
              <LatitudeDegrees>-15.373983196914196014404296875</LatitudeDegrees>
              <LongitudeDegrees>37.0892223156988620758056640625</LongitudeDegrees>
            </Position>
            <AltitudeMeters>1107</AltitudeMeters>
            <DistanceMeters>19936.367640859</DistanceMeters>
          </Trackpoint>
          <Trackpoint>
            <Time>2021-08-01T14:45:32.000Z</Time>
            <Position>
              <LatitudeDegrees>-15.3739639185369014739990234375</LatitudeDegrees>
              <LongitudeDegrees>37.0892575196921825408935546875</LongitudeDegrees>
            </Position>
            <AltitudeMeters>1107</AltitudeMeters>
            <DistanceMeters>19940.712970518</DistanceMeters>
          </Trackpoint>
          <Trackpoint>
            <Time>2021-08-01T14:45:34.000Z</Time>
            <Position>
              <LatitudeDegrees>-15.3739562071859836578369140625</LatitudeDegrees>
              <LongitudeDegrees>37.0892809890210628509521484375</LongitudeDegrees>
            </Position>
            <AltitudeMeters>1107</AltitudeMeters>
            <DistanceMeters>19943.37371852</DistanceMeters>
          </Trackpoint>
          <Trackpoint>
            <Time>2021-08-01T14:45:43.000Z</Time>
            <Position>
              <LatitudeDegrees>-15.373918153345584869384765625</LatitudeDegrees>
              <LongitudeDegrees>37.08936790935695171356201171875</LongitudeDegrees>
            </Position>
            <AltitudeMeters>1106.4000244140625</AltitudeMeters>
            <DistanceMeters>19953.618550315</DistanceMeters>
          </Trackpoint>
          <Trackpoint>
            <Time>2021-08-01T14:45:44.000Z</Time>
            <Position>
              <LatitudeDegrees>-15.373912788927555084228515625</LatitudeDegrees>
              <LongitudeDegrees>37.0893785543739795684814453125</LongitudeDegrees>
            </Position>
            <AltitudeMeters>1106.199951171875</AltitudeMeters>
            <DistanceMeters>19954.907555383</DistanceMeters>
          </Trackpoint>
          <Trackpoint>
            <Time>2021-08-01T14:45:48.000Z</Time>
            <Position>
              <LatitudeDegrees>-15.37389300763607025146484375</LatitudeDegrees>
              <LongitudeDegrees>37.0894264988601207733154296875</LongitudeDegrees>
            </Position>
            <AltitudeMeters>1106</AltitudeMeters>
            <DistanceMeters>19960.503652694</DistanceMeters>
          </Trackpoint>
          <Trackpoint>
            <Time>2021-08-01T14:45:50.000Z</Time>
            <Position>
              <LatitudeDegrees>-15.3738854639232158660888671875</LatitudeDegrees>
              <LongitudeDegrees>37.08944904617965221405029296875</LongitudeDegrees>
            </Position>
            <AltitudeMeters>1106</AltitudeMeters>
            <DistanceMeters>19963.064089277</DistanceMeters>
          </Trackpoint>
          <Trackpoint>
            <Time>2021-08-01T14:45:51.000Z</Time>
            <Position>
              <LatitudeDegrees>-15.37387867458164691925048828125</LatitudeDegrees>
              <LongitudeDegrees>37.08945910446345806121826171875</LongitudeDegrees>
            </Position>
            <AltitudeMeters>1106</AltitudeMeters>
            <DistanceMeters>19964.384242584</DistanceMeters>
          </Trackpoint>
          <Trackpoint>
            <Time>2021-08-01T14:45:54.000Z</Time>
            <Position>
              <LatitudeDegrees>-15.37385956384241580963134765625</LatitudeDegrees>
              <LongitudeDegrees>37.08948894403874874114990234375</LongitudeDegrees>
            </Position>
            <AltitudeMeters>1106</AltitudeMeters>
            <DistanceMeters>19968.229009825</DistanceMeters>
          </Trackpoint>
          <Trackpoint>
            <Time>2021-08-01T14:45:58.000Z</Time>
            <Position>
              <LatitudeDegrees>-15.3738360106945037841796875</LatitudeDegrees>
              <LongitudeDegrees>37.0895232260227203369140625</LongitudeDegrees>
            </Position>
            <AltitudeMeters>1106</AltitudeMeters>
            <DistanceMeters>19972.746528255</DistanceMeters>
          </Trackpoint>
          <Trackpoint>
            <Time>2021-08-01T14:46:02.000Z</Time>
            <Position>
              <LatitudeDegrees>-15.37380541674792766571044921875</LatitudeDegrees>
              <LongitudeDegrees>37.08955784328281879425048828125</LongitudeDegrees>
            </Position>
            <AltitudeMeters>1105.800048828125</AltitudeMeters>
            <DistanceMeters>19977.785632834</DistanceMeters>
          </Trackpoint>
          <Trackpoint>
            <Time>2021-08-01T14:46:13.000Z</Time>
            <Position>
              <LatitudeDegrees>-15.37370516918599605560302734375</LatitudeDegrees>
              <LongitudeDegrees>37.08963260985910892486572265625</LongitudeDegrees>
            </Position>
            <AltitudeMeters>1105.5999755859375</AltitudeMeters>
            <DistanceMeters>19991.529071595</DistanceMeters>
          </Trackpoint>
          <Trackpoint>
            <Time>2021-08-01T14:46:21.000Z</Time>
            <Position>
              <LatitudeDegrees>-15.373632498085498809814453125</LatitudeDegrees>
              <LongitudeDegrees>37.08967435173690319061279296875</LongitudeDegrees>
            </Position>
            <AltitudeMeters>1105</AltitudeMeters>
            <DistanceMeters>20000.77502929</DistanceMeters>
          </Trackpoint>
          <Trackpoint>
            <Time>2021-08-01T14:46:23.000Z</Time>
            <Position>
              <LatitudeDegrees>-15.3736330009996891021728515625</LatitudeDegrees>
              <LongitudeDegrees>37.08967368118464946746826171875</LongitudeDegrees>
            </Position>
            <AltitudeMeters>1105</AltitudeMeters>
            <DistanceMeters>20000.870056005</DistanceMeters>
          </Trackpoint>
          <Trackpoint>
            <Time>2021-08-01T14:46:26.000Z</Time>
            <Position>
              <LatitudeDegrees>-15.3736309893429279327392578125</LatitudeDegrees>
              <LongitudeDegrees>37.08967083133757114410400390625</LongitudeDegrees>
            </Position>
            <AltitudeMeters>1104.800048828125</AltitudeMeters>
            <DistanceMeters>20001.238092887</DistanceMeters>
          </Trackpoint>
          <Trackpoint>
            <Time>2021-08-01T14:46:28.000Z</Time>
            <Position>
              <LatitudeDegrees>-15.3736182488501071929931640625</LatitudeDegrees>
              <LongitudeDegrees>37.0896769501268863677978515625</LongitudeDegrees>
            </Position>
            <AltitudeMeters>1104.5999755859375</AltitudeMeters>
            <DistanceMeters>20002.799541138</DistanceMeters>
          </Trackpoint>
          <Trackpoint>
            <Time>2021-08-01T14:46:33.000Z</Time>
            <Position>
              <LatitudeDegrees>-15.37357877008616924285888671875</LatitudeDegrees>
              <LongitudeDegrees>37.08970704115927219390869140625</LongitudeDegrees>
            </Position>
            <AltitudeMeters>1103.800048828125</AltitudeMeters>
            <DistanceMeters>20008.252617492</DistanceMeters>
          </Trackpoint>
          <Trackpoint>
            <Time>2021-08-01T14:46:39.000Z</Time>
            <Position>
              <LatitudeDegrees>-15.37351355887949466705322265625</LatitudeDegrees>
              <LongitudeDegrees>37.089744508266448974609375</LongitudeDegrees>
            </Position>
            <AltitudeMeters>1103</AltitudeMeters>
            <DistanceMeters>20016.550468593</DistanceMeters>
          </Trackpoint>
          <Trackpoint>
            <Time>2021-08-01T14:46:40.000Z</Time>
            <Position>
              <LatitudeDegrees>-15.37350006401538848876953125</LatitudeDegrees>
              <LongitudeDegrees>37.08974526263773441314697265625</LongitudeDegrees>
            </Position>
            <AltitudeMeters>1102.5999755859375</AltitudeMeters>
            <DistanceMeters>20018.055974882</DistanceMeters>
          </Trackpoint>
          <Trackpoint>
            <Time>2021-08-01T14:46:48.000Z</Time>
            <Position>
              <LatitudeDegrees>-15.373400151729583740234375</LatitudeDegrees>
              <LongitudeDegrees>37.08978532813489437103271484375</LongitudeDegrees>
            </Position>
            <AltitudeMeters>1102.4000244140625</AltitudeMeters>
            <DistanceMeters>20029.978703738</DistanceMeters>
          </Trackpoint>
          <Trackpoint>
            <Time>2021-08-01T14:46:52.000Z</Time>
            <Position>
              <LatitudeDegrees>-15.3733634389936923980712890625</LatitudeDegrees>
              <LongitudeDegrees>37.089826650917530059814453125</LongitudeDegrees>
            </Position>
            <AltitudeMeters>1102.199951171875</AltitudeMeters>
            <DistanceMeters>20036.008970552</DistanceMeters>
          </Trackpoint>
          <Trackpoint>
            <Time>2021-08-01T14:46:58.000Z</Time>
            <Position>
              <LatitudeDegrees>-15.3732977248728275299072265625</LatitudeDegrees>
              <LongitudeDegrees>37.08987484686076641082763671875</LongitudeDegrees>
            </Position>
            <AltitudeMeters>1101.5999755859375</AltitudeMeters>
            <DistanceMeters>20044.967223136</DistanceMeters>
          </Trackpoint>
          <Trackpoint>
            <Time>2021-08-01T14:47:03.000Z</Time>
            <Position>
              <LatitudeDegrees>-15.3732521273195743560791015625</LatitudeDegrees>
              <LongitudeDegrees>37.08991424180567264556884765625</LongitudeDegrees>
            </Position>
            <AltitudeMeters>1101.800048828125</AltitudeMeters>
            <DistanceMeters>20051.572092499</DistanceMeters>
          </Trackpoint>
          <Trackpoint>
            <Time>2021-08-01T14:47:07.000Z</Time>
            <Position>
              <LatitudeDegrees>-15.373208038508892059326171875</LatitudeDegrees>
              <LongitudeDegrees>37.0899377949535846710205078125</LongitudeDegrees>
            </Position>
            <AltitudeMeters>1101.4000244140625</AltitudeMeters>
            <DistanceMeters>20057.092645732</DistanceMeters>
          </Trackpoint>
          <Trackpoint>
            <Time>2021-08-01T14:47:08.000Z</Time>
            <Position>
              <LatitudeDegrees>-15.37319471128284931182861328125</LatitudeDegrees>
              <LongitudeDegrees>37.0899388007819652557373046875</LongitudeDegrees>
            </Position>
            <AltitudeMeters>1101.4000244140625</AltitudeMeters>
            <DistanceMeters>20058.580049083</DistanceMeters>
          </Trackpoint>
          <Trackpoint>
            <Time>2021-08-01T14:47:10.000Z</Time>
            <Position>
              <LatitudeDegrees>-15.373165123164653778076171875</LatitudeDegrees>
              <LongitudeDegrees>37.089949361979961395263671875</LongitudeDegrees>
            </Position>
            <AltitudeMeters>1101.199951171875</AltitudeMeters>
            <DistanceMeters>20062.062489702</DistanceMeters>
          </Trackpoint>
          <Trackpoint>
            <Time>2021-08-01T14:47:14.000Z</Time>
            <Position>
              <LatitudeDegrees>-15.37312061525881290435791015625</LatitudeDegrees>
              <LongitudeDegrees>37.08998984657227993011474609375</LongitudeDegrees>
            </Position>
            <AltitudeMeters>1101.4000244140625</AltitudeMeters>
            <DistanceMeters>20068.652302872</DistanceMeters>
          </Trackpoint>
          <Trackpoint>
            <Time>2021-08-01T14:47:18.000Z</Time>
            <Position>
              <LatitudeDegrees>-15.37306915037333965301513671875</LatitudeDegrees>
              <LongitudeDegrees>37.09001197479665279388427734375</LongitudeDegrees>
            </Position>
            <AltitudeMeters>1101</AltitudeMeters>
            <DistanceMeters>20074.853842646</DistanceMeters>
          </Trackpoint>
          <Trackpoint>
            <Time>2021-08-01T14:47:21.000Z</Time>
            <Position>
              <LatitudeDegrees>-15.37303947843611240386962890625</LatitudeDegrees>
              <LongitudeDegrees>37.09004156291484832763671875</LongitudeDegrees>
            </Position>
            <AltitudeMeters>1101</AltitudeMeters>
            <DistanceMeters>20079.434879391</DistanceMeters>
          </Trackpoint>
          <Trackpoint>
            <Time>2021-08-01T14:47:29.000Z</Time>
            <Position>
              <LatitudeDegrees>-15.37296219728887081146240234375</LatitudeDegrees>
              <LongitudeDegrees>37.09008439444005489349365234375</LongitudeDegrees>
            </Position>
            <AltitudeMeters>1100.5999755859375</AltitudeMeters>
            <DistanceMeters>20089.187046592</DistanceMeters>
          </Trackpoint>
          <Trackpoint>
            <Time>2021-08-01T14:47:30.000Z</Time>
            <Position>
              <LatitudeDegrees>-15.37295632995665073394775390625</LatitudeDegrees>
              <LongitudeDegrees>37.09009227342903614044189453125</LongitudeDegrees>
            </Position>
            <AltitudeMeters>1100.4000244140625</AltitudeMeters>
            <DistanceMeters>20090.257943276</DistanceMeters>
          </Trackpoint>
          <Trackpoint>
            <Time>2021-08-01T14:47:33.000Z</Time>
            <Position>
              <LatitudeDegrees>-15.3729396499693393707275390625</LatitudeDegrees>
              <LongitudeDegrees>37.090133763849735260009765625</LongitudeDegrees>
            </Position>
            <AltitudeMeters>1099.4000244140625</AltitudeMeters>
            <DistanceMeters>20095.083766226</DistanceMeters>
          </Trackpoint>
          <Trackpoint>
            <Time>2021-08-01T14:47:36.000Z</Time>
            <Position>
              <LatitudeDegrees>-15.37291559390723705291748046875</LatitudeDegrees>
              <LongitudeDegrees>37.09015681408345699310302734375</LongitudeDegrees>
            </Position>
            <AltitudeMeters>1098.5999755859375</AltitudeMeters>
            <DistanceMeters>20098.729623125</DistanceMeters>
          </Trackpoint>
          <Trackpoint>
            <Time>2021-08-01T14:47:40.000Z</Time>
            <Position>
              <LatitudeDegrees>-15.372872762382030487060546875</LatitudeDegrees>
              <LongitudeDegrees>37.09019704721868038177490234375</LongitudeDegrees>
            </Position>
            <AltitudeMeters>1098.4000244140625</AltitudeMeters>
            <DistanceMeters>20105.161324314</DistanceMeters>
          </Trackpoint>
          <Trackpoint>
            <Time>2021-08-01T14:47:49.000Z</Time>
            <Position>
              <LatitudeDegrees>-15.37277746014297008514404296875</LatitudeDegrees>
              <LongitudeDegrees>37.09026142023503780364990234375</LongitudeDegrees>
            </Position>
            <AltitudeMeters>1099</AltitudeMeters>
            <DistanceMeters>20117.819867141</DistanceMeters>
          </Trackpoint>
          <Trackpoint>
            <Time>2021-08-01T14:47:55.000Z</Time>
            <Position>
              <LatitudeDegrees>-15.37271082401275634765625</LatitudeDegrees>
              <LongitudeDegrees>37.09029042162001132965087890625</LongitudeDegrees>
            </Position>
            <AltitudeMeters>1099.199951171875</AltitudeMeters>
            <DistanceMeters>20125.862967765</DistanceMeters>
          </Trackpoint>
          <Trackpoint>
            <Time>2021-08-01T14:48:00.000Z</Time>
            <Position>
              <LatitudeDegrees>-15.37264737300574779510498046875</LatitudeDegrees>
              <LongitudeDegrees>37.09030986763536930084228515625</LongitudeDegrees>
            </Position>
            <AltitudeMeters>1099.199951171875</AltitudeMeters>
            <DistanceMeters>20133.226771744</DistanceMeters>
          </Trackpoint>
          <Trackpoint>
            <Time>2021-08-01T14:48:08.000Z</Time>
            <Position>
              <LatitudeDegrees>-15.3725507296621799468994140625</LatitudeDegrees>
              <LongitudeDegrees>37.09032059647142887115478515625</LongitudeDegrees>
            </Position>
            <AltitudeMeters>1098.800048828125</AltitudeMeters>
            <DistanceMeters>20144.044802559</DistanceMeters>
          </Trackpoint>
          <Trackpoint>
            <Time>2021-08-01T14:48:20.000Z</Time>
            <Position>
              <LatitudeDegrees>-15.37241083569824695587158203125</LatitudeDegrees>
              <LongitudeDegrees>37.090263850986957550048828125</LongitudeDegrees>
            </Position>
            <AltitudeMeters>1098.4000244140625</AltitudeMeters>
            <DistanceMeters>20160.764104171</DistanceMeters>
          </Trackpoint>
          <Trackpoint>
            <Time>2021-08-01T14:48:32.000Z</Time>
            <Position>
              <LatitudeDegrees>-15.37228242494165897369384765625</LatitudeDegrees>
              <LongitudeDegrees>37.09018447436392307281494140625</LongitudeDegrees>
            </Position>
            <AltitudeMeters>1099.199951171875</AltitudeMeters>
            <DistanceMeters>20177.402736435</DistanceMeters>
          </Trackpoint>
          <Trackpoint>
            <Time>2021-08-01T14:48:34.000Z</Time>
            <Position>
              <LatitudeDegrees>-15.3722576983273029327392578125</LatitudeDegrees>
              <LongitudeDegrees>37.09017810411751270294189453125</LongitudeDegrees>
            </Position>
            <AltitudeMeters>1099.199951171875</AltitudeMeters>
            <DistanceMeters>20180.237655841</DistanceMeters>
          </Trackpoint>
          <Trackpoint>
            <Time>2021-08-01T14:48:35.000Z</Time>
            <Position>
              <LatitudeDegrees>-15.372247807681560516357421875</LatitudeDegrees>
              <LongitudeDegrees>37.09017592482268810272216796875</LongitudeDegrees>
            </Position>
            <AltitudeMeters>1099.199951171875</AltitudeMeters>
            <DistanceMeters>20181.366035555</DistanceMeters>
          </Trackpoint>
          <Trackpoint>
            <Time>2021-08-01T14:48:39.000Z</Time>
            <Position>
              <LatitudeDegrees>-15.3722023777663707733154296875</LatitudeDegrees>
              <LongitudeDegrees>37.09016494452953338623046875</LongitudeDegrees>
            </Position>
            <AltitudeMeters>1099.4000244140625</AltitudeMeters>
            <DistanceMeters>20186.557834683</DistanceMeters>
          </Trackpoint>
          <Trackpoint>
            <Time>2021-08-01T14:48:45.000Z</Time>
            <Position>
              <LatitudeDegrees>-15.37212853319942951202392578125</LatitudeDegrees>
              <LongitudeDegrees>37.09016318432986736297607421875</LongitudeDegrees>
            </Position>
            <AltitudeMeters>1099</AltitudeMeters>
            <DistanceMeters>20194.778606672</DistanceMeters>
          </Trackpoint>
          <Trackpoint>
            <Time>2021-08-01T14:48:48.000Z</Time>
            <Position>
              <LatitudeDegrees>-15.37208519876003265380859375</LatitudeDegrees>
              <LongitudeDegrees>37.09017458371818065643310546875</LongitudeDegrees>
            </Position>
            <AltitudeMeters>1098.800048828125</AltitudeMeters>
            <DistanceMeters>20199.752780921</DistanceMeters>
          </Trackpoint>
          <Trackpoint>
            <Time>2021-08-01T14:48:49.000Z</Time>
            <Position>
              <LatitudeDegrees>-15.37207187153398990631103515625</LatitudeDegrees>
              <LongitudeDegrees>37.09017894230782985687255859375</LongitudeDegrees>
            </Position>
            <AltitudeMeters>1098.800048828125</AltitudeMeters>
            <DistanceMeters>20201.305530228</DistanceMeters>
          </Trackpoint>
          <Trackpoint>
            <Time>2021-08-01T14:48:55.000Z</Time>
            <Position>
              <LatitudeDegrees>-15.3720080852508544921875</LatitudeDegrees>
              <LongitudeDegrees>37.090187408030033111572265625</LongitudeDegrees>
            </Position>
            <AltitudeMeters>1098.800048828125</AltitudeMeters>
            <DistanceMeters>20208.462246905</DistanceMeters>
          </Trackpoint>
          <Trackpoint>
            <Time>2021-08-01T14:49:04.000Z</Time>
            <Position>
              <LatitudeDegrees>-15.37191353738307952880859375</LatitudeDegrees>
              <LongitudeDegrees>37.09017441608011722564697265625</LongitudeDegrees>
            </Position>
            <AltitudeMeters>1099</AltitudeMeters>
            <DistanceMeters>20219.078053705</DistanceMeters>
          </Trackpoint>
          <Trackpoint>
            <Time>2021-08-01T14:49:10.000Z</Time>
            <Position>
              <LatitudeDegrees>-15.3719289600849151611328125</LatitudeDegrees>
              <LongitudeDegrees>37.0901842229068279266357421875</LongitudeDegrees>
            </Position>
            <AltitudeMeters>1099</AltitudeMeters>
            <DistanceMeters>20221.093874729</DistanceMeters>
          </Trackpoint>
          <Trackpoint>
            <Time>2021-08-01T14:49:18.000Z</Time>
            <Position>
              <LatitudeDegrees>-15.371950082480907440185546875</LatitudeDegrees>
              <LongitudeDegrees>37.0901899226009845733642578125</LongitudeDegrees>
            </Position>
            <AltitudeMeters>1098.800048828125</AltitudeMeters>
            <DistanceMeters>20223.522174529</DistanceMeters>
          </Trackpoint>
          <Trackpoint>
            <Time>2021-08-01T14:49:23.000Z</Time>
            <Position>
              <LatitudeDegrees>-15.371950082480907440185546875</LatitudeDegrees>
              <LongitudeDegrees>37.0901899226009845733642578125</LongitudeDegrees>
            </Position>
            <AltitudeMeters>1098.800048828125</AltitudeMeters>
            <DistanceMeters>NAN</DistanceMeters>
          </Trackpoint>
          <Trackpoint>
            <Time>2021-08-01T14:49:27.000Z</Time>
            <Position>
              <LatitudeDegrees>-15.371896438300609588623046875</LatitudeDegrees>
              <LongitudeDegrees>37.090172655880451202392578125</LongitudeDegrees>
            </Position>
            <AltitudeMeters>1099</AltitudeMeters>
            <DistanceMeters>NAN</DistanceMeters>
          </Trackpoint>
          <Trackpoint>
            <Time>2021-08-01T14:49:37.000Z</Time>
            <Position>
              <LatitudeDegrees>-15.371756963431835174560546875</LatitudeDegrees>
              <LongitudeDegrees>37.0901869051158428192138671875</LongitudeDegrees>
            </Position>
            <AltitudeMeters>1099.4000244140625</AltitudeMeters>
            <DistanceMeters>NAN</DistanceMeters>
          </Trackpoint>
          <Trackpoint>
            <Time>2021-08-01T14:49:39.000Z</Time>
            <Position>
              <LatitudeDegrees>-15.371729470789432525634765625</LatitudeDegrees>
              <LongitudeDegrees>37.09019981324672698974609375</LongitudeDegrees>
            </Position>
            <AltitudeMeters>1099.4000244140625</AltitudeMeters>
            <DistanceMeters>NAN</DistanceMeters>
          </Trackpoint>
          <Trackpoint>
            <Time>2021-08-01T14:49:46.000Z</Time>
            <Position>
              <LatitudeDegrees>-15.37165713496506214141845703125</LatitudeDegrees>
              <LongitudeDegrees>37.0902098715305328369140625</LongitudeDegrees>
            </Position>
            <AltitudeMeters>1100.199951171875</AltitudeMeters>
            <DistanceMeters>NAN</DistanceMeters>
          </Trackpoint>
          <Trackpoint>
            <Time>2021-08-01T14:49:52.000Z</Time>
            <Position>
              <LatitudeDegrees>-15.37159913219511508941650390625</LatitudeDegrees>
              <LongitudeDegrees>37.090235017240047454833984375</LongitudeDegrees>
            </Position>
            <AltitudeMeters>1100.5999755859375</AltitudeMeters>
            <DistanceMeters>NAN</DistanceMeters>
          </Trackpoint>
          <Trackpoint>
            <Time>2021-08-01T14:49:55.000Z</Time>
            <Position>
              <LatitudeDegrees>-15.3715616650879383087158203125</LatitudeDegrees>
              <LongitudeDegrees>37.09024381823837757110595703125</LongitudeDegrees>
            </Position>
            <AltitudeMeters>1101</AltitudeMeters>
            <DistanceMeters>NAN</DistanceMeters>
          </Trackpoint>
          <Trackpoint>
            <Time>2021-08-01T14:49:57.000Z</Time>
            <Position>
              <LatitudeDegrees>-15.37153911776840686798095703125</LatitudeDegrees>
              <LongitudeDegrees>37.09024314768612384796142578125</LongitudeDegrees>
            </Position>
            <AltitudeMeters>1101.199951171875</AltitudeMeters>
            <DistanceMeters>NAN</DistanceMeters>
          </Trackpoint>
          <Trackpoint>
            <Time>2021-08-01T14:49:58.000Z</Time>
            <Position>
              <LatitudeDegrees>-15.371525622904300689697265625</LatitudeDegrees>
              <LongitudeDegrees>37.090249098837375640869140625</LongitudeDegrees>
            </Position>
            <AltitudeMeters>1101.4000244140625</AltitudeMeters>
            <DistanceMeters>NAN</DistanceMeters>
          </Trackpoint>
          <Trackpoint>
            <Time>2021-08-01T14:49:59.000Z</Time>
            <Position>
              <LatitudeDegrees>-15.37151447497308254241943359375</LatitudeDegrees>
              <LongitudeDegrees>37.0902526192367076873779296875</LongitudeDegrees>
            </Position>
            <AltitudeMeters>1101.800048828125</AltitudeMeters>
            <DistanceMeters>NAN</DistanceMeters>
          </Trackpoint>
          <Trackpoint>
            <Time>2021-08-01T14:50:01.000Z</Time>
            <Position>
              <LatitudeDegrees>-15.37149670533835887908935546875</LatitudeDegrees>
              <LongitudeDegrees>37.09026644937694072723388671875</LongitudeDegrees>
            </Position>
            <AltitudeMeters>1101.800048828125</AltitudeMeters>
            <DistanceMeters>NAN</DistanceMeters>
          </Trackpoint>
          <Trackpoint>
            <Time>2021-08-01T14:50:02.000Z</Time>
            <Position>
              <LatitudeDegrees>-15.3714885748922824859619140625</LatitudeDegrees>
              <LongitudeDegrees>37.09027332253754138946533203125</LongitudeDegrees>
            </Position>
            <AltitudeMeters>1101.800048828125</AltitudeMeters>
            <DistanceMeters>NAN</DistanceMeters>
          </Trackpoint>
          <Trackpoint>
            <Time>2021-08-01T14:50:03.000Z</Time>
            <Position>
              <LatitudeDegrees>-15.3714788518846035003662109375</LatitudeDegrees>
              <LongitudeDegrees>37.09027466364204883575439453125</LongitudeDegrees>
            </Position>
            <AltitudeMeters>1101.199951171875</AltitudeMeters>
            <DistanceMeters>NAN</DistanceMeters>
          </Trackpoint>
          <Trackpoint>
            <Time>2021-08-01T14:50:05.000Z</Time>
            <Position>
              <LatitudeDegrees>-15.37145982496440410614013671875</LatitudeDegrees>
              <LongitudeDegrees>37.09027566947042942047119140625</LongitudeDegrees>
            </Position>
            <AltitudeMeters>1101</AltitudeMeters>
            <DistanceMeters>NAN</DistanceMeters>
          </Trackpoint>
          <Trackpoint>
            <Time>2021-08-01T14:50:08.000Z</Time>
            <Position>
              <LatitudeDegrees>-15.3714354336261749267578125</LatitudeDegrees>
              <LongitudeDegrees>37.09028975106775760650634765625</LongitudeDegrees>
            </Position>
            <AltitudeMeters>1100.800048828125</AltitudeMeters>
            <DistanceMeters>NAN</DistanceMeters>
          </Trackpoint>
          <Trackpoint>
            <Time>2021-08-01T14:50:09.000Z</Time>
            <Position>
              <LatitudeDegrees>-15.371424369513988494873046875</LatitudeDegrees>
              <LongitudeDegrees>37.09029461257159709930419921875</LongitudeDegrees>
            </Position>
            <AltitudeMeters>1100.4000244140625</AltitudeMeters>
            <DistanceMeters>NAN</DistanceMeters>
          </Trackpoint>
          <Trackpoint>
            <Time>2021-08-01T14:50:14.000Z</Time>
            <Position>
              <LatitudeDegrees>-15.37135974504053592681884765625</LatitudeDegrees>
              <LongitudeDegrees>37.0903240330517292022705078125</LongitudeDegrees>
            </Position>
            <AltitudeMeters>1099.199951171875</AltitudeMeters>
            <DistanceMeters>NAN</DistanceMeters>
          </Trackpoint>
          <Trackpoint>
            <Time>2021-08-01T14:50:17.000Z</Time>
            <Position>
              <LatitudeDegrees>-15.37133677862584590911865234375</LatitudeDegrees>
              <LongitudeDegrees>37.09034272469580173492431640625</LongitudeDegrees>
            </Position>
            <AltitudeMeters>1099</AltitudeMeters>
            <DistanceMeters>NAN</DistanceMeters>
          </Trackpoint>
          <Trackpoint>
            <Time>2021-08-01T14:50:18.000Z</Time>
            <Position>
              <LatitudeDegrees>-15.37132554687559604644775390625</LatitudeDegrees>
              <LongitudeDegrees>37.0903478376567363739013671875</LongitudeDegrees>
            </Position>
            <AltitudeMeters>1099</AltitudeMeters>
            <DistanceMeters>NAN</DistanceMeters>
          </Trackpoint>
          <Trackpoint>
            <Time>2021-08-01T14:50:19.000Z</Time>
            <Position>
              <LatitudeDegrees>-15.37131314165890216827392578125</LatitudeDegrees>
              <LongitudeDegrees>37.090351693332195281982421875</LongitudeDegrees>
            </Position>
            <AltitudeMeters>1098.800048828125</AltitudeMeters>
            <DistanceMeters>NAN</DistanceMeters>
          </Trackpoint>
          <Trackpoint>
            <Time>2021-08-01T14:50:20.000Z</Time>
            <Position>
              <LatitudeDegrees>-15.371300987899303436279296875</LatitudeDegrees>
              <LongitudeDegrees>37.0903552137315273284912109375</LongitudeDegrees>
            </Position>
            <AltitudeMeters>1098.800048828125</AltitudeMeters>
            <DistanceMeters>NAN</DistanceMeters>
          </Trackpoint>
          <Trackpoint>
            <Time>2021-08-01T14:50:23.000Z</Time>
            <Position>
              <LatitudeDegrees>-15.371259413659572601318359375</LatitudeDegrees>
              <LongitudeDegrees>37.09036367945373058319091796875</LongitudeDegrees>
            </Position>
            <AltitudeMeters>1098.4000244140625</AltitudeMeters>
            <DistanceMeters>NAN</DistanceMeters>
          </Trackpoint>
          <Trackpoint>
            <Time>2021-08-01T14:50:28.000Z</Time>
            <Position>
              <LatitudeDegrees>-15.371197722852230072021484375</LatitudeDegrees>
              <LongitudeDegrees>37.09038195200264453887939453125</LongitudeDegrees>
            </Position>
            <AltitudeMeters>1098.4000244140625</AltitudeMeters>
            <DistanceMeters>NAN</DistanceMeters>
          </Trackpoint>
          <Trackpoint>
            <Time>2021-08-01T14:50:33.000Z</Time>
            <Position>
              <LatitudeDegrees>-15.37113695405423641204833984375</LatitudeDegrees>
              <LongitudeDegrees>37.090406008064746856689453125</LongitudeDegrees>
            </Position>
            <AltitudeMeters>1098.4000244140625</AltitudeMeters>
            <DistanceMeters>NAN</DistanceMeters>
          </Trackpoint>
          <Trackpoint>
            <Time>2021-08-01T14:50:38.000Z</Time>
            <Position>
              <LatitudeDegrees>-15.37106059491634368896484375</LatitudeDegrees>
              <LongitudeDegrees>37.09042252041399478912353515625</LongitudeDegrees>
            </Position>
            <AltitudeMeters>1098.5999755859375</AltitudeMeters>
            <DistanceMeters>NAN</DistanceMeters>
          </Trackpoint>
          <Trackpoint>
            <Time>2021-08-01T14:50:42.000Z</Time>
            <Position>
              <LatitudeDegrees>-15.37102304399013519287109375</LatitudeDegrees>
              <LongitudeDegrees>37.090395949780941009521484375</LongitudeDegrees>
            </Position>
            <AltitudeMeters>1098.5999755859375</AltitudeMeters>
            <DistanceMeters>NAN</DistanceMeters>
          </Trackpoint>
          <Trackpoint>
            <Time>2021-08-01T14:50:44.000Z</Time>
            <Position>
              <LatitudeDegrees>-15.3710171766579151153564453125</LatitudeDegrees>
              <LongitudeDegrees>37.0903763361275196075439453125</LongitudeDegrees>
            </Position>
            <AltitudeMeters>1099</AltitudeMeters>
            <DistanceMeters>NAN</DistanceMeters>
          </Trackpoint>
          <Trackpoint>
            <Time>2021-08-01T14:50:52.000Z</Time>
            <Position>
              <LatitudeDegrees>-15.3709839843213558197021484375</LatitudeDegrees>
              <LongitudeDegrees>37.090286314487457275390625</LongitudeDegrees>
            </Position>
            <AltitudeMeters>1100.199951171875</AltitudeMeters>
            <DistanceMeters>NAN</DistanceMeters>
          </Trackpoint>
          <Trackpoint>
            <Time>2021-08-01T14:50:55.000Z</Time>
            <Position>
              <LatitudeDegrees>-15.3709699027240276336669921875</LatitudeDegrees>
              <LongitudeDegrees>37.0902536250650882720947265625</LongitudeDegrees>
            </Position>
            <AltitudeMeters>1100.199951171875</AltitudeMeters>
            <DistanceMeters>NAN</DistanceMeters>
          </Trackpoint>
          <Trackpoint>
            <Time>2021-08-01T14:51:00.000Z</Time>
            <Position>
              <LatitudeDegrees>-15.37094718776643276214599609375</LatitudeDegrees>
              <LongitudeDegrees>37.09020593203604221343994140625</LongitudeDegrees>
            </Position>
            <AltitudeMeters>1100.800048828125</AltitudeMeters>
            <DistanceMeters>NAN</DistanceMeters>
          </Trackpoint>
          <Trackpoint>
            <Time>2021-08-01T14:51:04.000Z</Time>
            <Position>
              <LatitudeDegrees>-15.37092723883688449859619140625</LatitudeDegrees>
              <LongitudeDegrees>37.0901657827198505401611328125</LongitudeDegrees>
            </Position>
            <AltitudeMeters>1101.5999755859375</AltitudeMeters>
            <DistanceMeters>NAN</DistanceMeters>
          </Trackpoint>
          <Trackpoint>
            <Time>2021-08-01T14:51:10.000Z</Time>
            <Position>
              <LatitudeDegrees>-15.37089857272803783416748046875</LatitudeDegrees>
              <LongitudeDegrees>37.090129740536212921142578125</LongitudeDegrees>
            </Position>
            <AltitudeMeters>1102.5999755859375</AltitudeMeters>
            <DistanceMeters>NAN</DistanceMeters>
          </Trackpoint>
          <Trackpoint>
            <Time>2021-08-01T14:51:11.000Z</Time>
            <Position>
              <LatitudeDegrees>-15.3708951361477375030517578125</LatitudeDegrees>
              <LongitudeDegrees>37.09012068808078765869140625</LongitudeDegrees>
            </Position>
            <AltitudeMeters>1102.5999755859375</AltitudeMeters>
            <DistanceMeters>NAN</DistanceMeters>
          </Trackpoint>
          <Trackpoint>
            <Time>2021-08-01T14:51:16.000Z</Time>
            <Position>
              <LatitudeDegrees>-15.3708666376769542694091796875</LatitudeDegrees>
              <LongitudeDegrees>37.090080119669437408447265625</LongitudeDegrees>
            </Position>
            <AltitudeMeters>1103.5999755859375</AltitudeMeters>
            <DistanceMeters>NAN</DistanceMeters>
          </Trackpoint>
          <Trackpoint>
            <Time>2021-08-01T14:51:17.000Z</Time>
            <Position>
              <LatitudeDegrees>-15.370859764516353607177734375</LatitudeDegrees>
              <LongitudeDegrees>37.0900708995759487152099609375</LongitudeDegrees>
            </Position>
            <AltitudeMeters>1104</AltitudeMeters>
            <DistanceMeters>NAN</DistanceMeters>
          </Trackpoint>
          <Trackpoint>
            <Time>2021-08-01T14:51:21.000Z</Time>
            <Position>
              <LatitudeDegrees>-15.37082615308463573455810546875</LatitudeDegrees>
              <LongitudeDegrees>37.0900420658290386199951171875</LongitudeDegrees>
            </Position>
            <AltitudeMeters>1104.4000244140625</AltitudeMeters>
            <DistanceMeters>NAN</DistanceMeters>
          </Trackpoint>
          <Trackpoint>
            <Time>2021-08-01T14:51:24.000Z</Time>
            <Position>
              <LatitudeDegrees>-15.3707985766232013702392578125</LatitudeDegrees>
              <LongitudeDegrees>37.0900222845375537872314453125</LongitudeDegrees>
            </Position>
            <AltitudeMeters>1104.800048828125</AltitudeMeters>
            <DistanceMeters>NAN</DistanceMeters>
          </Trackpoint>
          <Trackpoint>
            <Time>2021-08-01T14:51:27.000Z</Time>
            <Position>
              <LatitudeDegrees>-15.3707675635814666748046875</LatitudeDegrees>
              <LongitudeDegrees>37.0900125615298748016357421875</LongitudeDegrees>
            </Position>
            <AltitudeMeters>1105.4000244140625</AltitudeMeters>
            <DistanceMeters>NAN</DistanceMeters>
          </Trackpoint>
          <Trackpoint>
            <Time>2021-08-01T14:51:29.000Z</Time>
            <Position>
              <LatitudeDegrees>-15.37074551917612552642822265625</LatitudeDegrees>
              <LongitudeDegrees>37.090013734996318817138671875</LongitudeDegrees>
            </Position>
            <AltitudeMeters>1105.5999755859375</AltitudeMeters>
            <DistanceMeters>NAN</DistanceMeters>
          </Trackpoint>
          <Trackpoint>
            <Time>2021-08-01T14:51:37.000Z</Time>
            <Position>
              <LatitudeDegrees>-15.3706530667841434478759765625</LatitudeDegrees>
              <LongitudeDegrees>37.09003150463104248046875</LongitudeDegrees>
            </Position>
            <AltitudeMeters>1106.199951171875</AltitudeMeters>
            <DistanceMeters>NAN</DistanceMeters>
          </Trackpoint>
          <Trackpoint>
            <Time>2021-08-01T14:51:44.000Z</Time>
            <Position>
              <LatitudeDegrees>-15.3705883584916591644287109375</LatitudeDegrees>
              <LongitudeDegrees>37.0900481007993221282958984375</LongitudeDegrees>
            </Position>
            <AltitudeMeters>1106.800048828125</AltitudeMeters>
            <DistanceMeters>NAN</DistanceMeters>
          </Trackpoint>
          <Trackpoint>
            <Time>2021-08-01T14:51:46.000Z</Time>
            <Position>
              <LatitudeDegrees>-15.37056916393339633941650390625</LatitudeDegrees>
              <LongitudeDegrees>37.0900601707398891448974609375</LongitudeDegrees>
            </Position>
            <AltitudeMeters>1107</AltitudeMeters>
            <DistanceMeters>NAN</DistanceMeters>
          </Trackpoint>
          <Trackpoint>
            <Time>2021-08-01T14:51:51.000Z</Time>
            <Position>
              <LatitudeDegrees>-15.3705275058746337890625</LatitudeDegrees>
              <LongitudeDegrees>37.0900732465088367462158203125</LongitudeDegrees>
            </Position>
            <AltitudeMeters>1108</AltitudeMeters>
            <DistanceMeters>NAN</DistanceMeters>
          </Trackpoint>
          <Trackpoint>
            <Time>2021-08-01T14:51:55.000Z</Time>
            <Position>
              <LatitudeDegrees>-15.37049339152872562408447265625</LatitudeDegrees>
              <LongitudeDegrees>37.090092189610004425048828125</LongitudeDegrees>
            </Position>
            <AltitudeMeters>1108.4000244140625</AltitudeMeters>
            <DistanceMeters>NAN</DistanceMeters>
          </Trackpoint>
          <Trackpoint>
            <Time>2021-08-01T14:52:00.000Z</Time>
            <Position>
              <LatitudeDegrees>-15.37044930271804332733154296875</LatitudeDegrees>
              <LongitudeDegrees>37.0901061035692691802978515625</LongitudeDegrees>
            </Position>
            <AltitudeMeters>1109.199951171875</AltitudeMeters>
            <DistanceMeters>NAN</DistanceMeters>
          </Trackpoint>
          <Trackpoint>
            <Time>2021-08-01T14:52:05.000Z</Time>
            <Position>
              <LatitudeDegrees>-15.37040789611637592315673828125</LatitudeDegrees>
              <LongitudeDegrees>37.090129740536212921142578125</LongitudeDegrees>
            </Position>
            <AltitudeMeters>1110</AltitudeMeters>
            <DistanceMeters>NAN</DistanceMeters>
          </Trackpoint>
          <Trackpoint>
            <Time>2021-08-01T14:52:06.000Z</Time>
            <Position>
              <LatitudeDegrees>-15.3703974187374114990234375</LatitudeDegrees>
              <LongitudeDegrees>37.09013351239264011383056640625</LongitudeDegrees>
            </Position>
            <AltitudeMeters>1110.199951171875</AltitudeMeters>
            <DistanceMeters>NAN</DistanceMeters>
          </Trackpoint>
          <Trackpoint>
            <Time>2021-08-01T14:52:12.000Z</Time>
            <Position>
              <LatitudeDegrees>-15.370338745415210723876953125</LatitudeDegrees>
              <LongitudeDegrees>37.09014005027711391448974609375</LongitudeDegrees>
            </Position>
            <AltitudeMeters>1111.199951171875</AltitudeMeters>
            <DistanceMeters>NAN</DistanceMeters>
          </Trackpoint>
          <Trackpoint>
            <Time>2021-08-01T14:52:14.000Z</Time>
            <Position>
              <LatitudeDegrees>-15.37031569518148899078369140625</LatitudeDegrees>
              <LongitudeDegrees>37.090143822133541107177734375</LongitudeDegrees>
            </Position>
            <AltitudeMeters>1111.5999755859375</AltitudeMeters>
            <DistanceMeters>NAN</DistanceMeters>
          </Trackpoint>
          <Trackpoint>
            <Time>2021-08-01T14:52:18.000Z</Time>
            <Position>
              <LatitudeDegrees>-15.37027512677013874053955078125</LatitudeDegrees>
              <LongitudeDegrees>37.0901470072567462921142578125</LongitudeDegrees>
            </Position>
            <AltitudeMeters>1112.4000244140625</AltitudeMeters>
            <DistanceMeters>NAN</DistanceMeters>
          </Trackpoint>
          <Trackpoint>
            <Time>2021-08-01T14:52:25.000Z</Time>
            <Position>
              <LatitudeDegrees>-15.37020538933575153350830078125</LatitudeDegrees>
              <LongitudeDegrees>37.090141810476779937744140625</LongitudeDegrees>
            </Position>
            <AltitudeMeters>1112.800048828125</AltitudeMeters>
            <DistanceMeters>NAN</DistanceMeters>
          </Trackpoint>
          <Trackpoint>
            <Time>2021-08-01T14:52:30.000Z</Time>
            <Position>
              <LatitudeDegrees>-15.37017907015979290008544921875</LatitudeDegrees>
              <LongitudeDegrees>37.0901379548013210296630859375</LongitudeDegrees>
            </Position>
            <AltitudeMeters>1113</AltitudeMeters>
            <DistanceMeters>NAN</DistanceMeters>
          </Trackpoint>
          <Trackpoint>
            <Time>2021-08-01T14:52:35.000Z</Time>
            <Position>
              <LatitudeDegrees>-15.37012626416981220245361328125</LatitudeDegrees>
              <LongitudeDegrees>37.0901221968233585357666015625</LongitudeDegrees>
            </Position>
            <AltitudeMeters>1113.4000244140625</AltitudeMeters>
            <DistanceMeters>NAN</DistanceMeters>
          </Trackpoint>
          <Trackpoint>
            <Time>2021-08-01T14:52:38.000Z</Time>
            <Position>
              <LatitudeDegrees>-15.37010061554610729217529296875</LatitudeDegrees>
              <LongitudeDegrees>37.0901054330170154571533203125</LongitudeDegrees>
            </Position>
            <AltitudeMeters>1113.4000244140625</AltitudeMeters>
            <DistanceMeters>NAN</DistanceMeters>
          </Trackpoint>
          <Trackpoint>
            <Time>2021-08-01T14:52:48.000Z</Time>
            <Position>
              <LatitudeDegrees>-15.37000087089836597442626953125</LatitudeDegrees>
              <LongitudeDegrees>37.0900435745716094970703125</LongitudeDegrees>
            </Position>
            <AltitudeMeters>1113.4000244140625</AltitudeMeters>
            <DistanceMeters>NAN</DistanceMeters>
          </Trackpoint>
          <Trackpoint>
            <Time>2021-08-01T14:52:54.000Z</Time>
            <Position>
              <LatitudeDegrees>-15.36993901245296001434326171875</LatitudeDegrees>
              <LongitudeDegrees>37.0900051854550838470458984375</LongitudeDegrees>
            </Position>
            <AltitudeMeters>1113.800048828125</AltitudeMeters>
            <DistanceMeters>NAN</DistanceMeters>
          </Trackpoint>
          <Trackpoint>
            <Time>2021-08-01T14:52:57.000Z</Time>
            <Position>
              <LatitudeDegrees>-15.3699027188122272491455078125</LatitudeDegrees>
              <LongitudeDegrees>37.08999085240066051483154296875</LongitudeDegrees>
            </Position>
            <AltitudeMeters>1113.800048828125</AltitudeMeters>
            <DistanceMeters>NAN</DistanceMeters>
          </Trackpoint>
          <Trackpoint>
            <Time>2021-08-01T14:52:59.000Z</Time>
            <Position>
              <LatitudeDegrees>-15.36987195722758769989013671875</LatitudeDegrees>
              <LongitudeDegrees>37.08998121321201324462890625</LongitudeDegrees>
            </Position>
            <AltitudeMeters>1113.800048828125</AltitudeMeters>
            <DistanceMeters>NAN</DistanceMeters>
          </Trackpoint>
          <Trackpoint>
            <Time>2021-08-01T14:53:05.000Z</Time>
            <Position>
              <LatitudeDegrees>-15.36979995667934417724609375</LatitudeDegrees>
              <LongitudeDegrees>37.089959084987640380859375</LongitudeDegrees>
            </Position>
            <AltitudeMeters>1113.5999755859375</AltitudeMeters>
            <DistanceMeters>NAN</DistanceMeters>
          </Trackpoint>
          <Trackpoint>
            <Time>2021-08-01T14:53:07.000Z</Time>
            <Position>
              <LatitudeDegrees>-15.36977204494178295135498046875</LatitudeDegrees>
              <LongitudeDegrees>37.08995279856026172637939453125</LongitudeDegrees>
            </Position>
            <AltitudeMeters>1113.800048828125</AltitudeMeters>
            <DistanceMeters>NAN</DistanceMeters>
          </Trackpoint>
          <Trackpoint>
            <Time>2021-08-01T14:53:12.000Z</Time>
            <Position>
              <LatitudeDegrees>-15.369699038565158843994140625</LatitudeDegrees>
              <LongitudeDegrees>37.08994927816092967987060546875</LongitudeDegrees>
            </Position>
            <AltitudeMeters>1114</AltitudeMeters>
            <DistanceMeters>NAN</DistanceMeters>
          </Trackpoint>
          <Trackpoint>
            <Time>2021-08-01T14:53:17.000Z</Time>
            <Position>
              <LatitudeDegrees>-15.36963776685297489166259765625</LatitudeDegrees>
              <LongitudeDegrees>37.08994760178029537200927734375</LongitudeDegrees>
            </Position>
            <AltitudeMeters>1114</AltitudeMeters>
            <DistanceMeters>NAN</DistanceMeters>
          </Trackpoint>
          <Trackpoint>
            <Time>2021-08-01T14:53:23.000Z</Time>
            <Position>
              <LatitudeDegrees>-15.3695671074092388153076171875</LatitudeDegrees>
              <LongitudeDegrees>37.08995715714991092681884765625</LongitudeDegrees>
            </Position>
            <AltitudeMeters>1114.4000244140625</AltitudeMeters>
            <DistanceMeters>NAN</DistanceMeters>
          </Trackpoint>
          <Trackpoint>
            <Time>2021-08-01T14:53:28.000Z</Time>
            <Position>
              <LatitudeDegrees>-15.36950600333511829376220703125</LatitudeDegrees>
              <LongitudeDegrees>37.089958079159259796142578125</LongitudeDegrees>
            </Position>
            <AltitudeMeters>1114.4000244140625</AltitudeMeters>
            <DistanceMeters>NAN</DistanceMeters>
          </Trackpoint>
          <Trackpoint>
            <Time>2021-08-01T14:53:41.000Z</Time>
            <Position>
              <LatitudeDegrees>-15.3693542070686817169189453125</LatitudeDegrees>
              <LongitudeDegrees>37.0899362862110137939453125</LongitudeDegrees>
            </Position>
            <AltitudeMeters>1114.800048828125</AltitudeMeters>
            <DistanceMeters>NAN</DistanceMeters>
          </Trackpoint>
          <Trackpoint>
            <Time>2021-08-01T14:53:54.000Z</Time>
            <Position>
              <LatitudeDegrees>-15.3692040033638477325439453125</LatitudeDegrees>
              <LongitudeDegrees>37.08987057209014892578125</LongitudeDegrees>
            </Position>
            <AltitudeMeters>1113.800048828125</AltitudeMeters>
            <DistanceMeters>NAN</DistanceMeters>
          </Trackpoint>
          <Trackpoint>
            <Time>2021-08-01T14:53:59.000Z</Time>
            <Position>
              <LatitudeDegrees>-15.36914373748004436492919921875</LatitudeDegrees>
              <LongitudeDegrees>37.08985087461769580841064453125</LongitudeDegrees>
            </Position>
            <AltitudeMeters>1113.800048828125</AltitudeMeters>
            <DistanceMeters>NAN</DistanceMeters>
          </Trackpoint>
          <Trackpoint>
            <Time>2021-08-01T14:54:06.000Z</Time>
            <Position>
              <LatitudeDegrees>-15.36905036307871341705322265625</LatitudeDegrees>
              <LongitudeDegrees>37.089838720858097076416015625</LongitudeDegrees>
            </Position>
            <AltitudeMeters>1113.800048828125</AltitudeMeters>
            <DistanceMeters>NAN</DistanceMeters>
          </Trackpoint>
          <Trackpoint>
            <Time>2021-08-01T14:54:17.000Z</Time>
            <Position>
              <LatitudeDegrees>-15.36890602670609951019287109375</LatitudeDegrees>
              <LongitudeDegrees>37.089807204902172088623046875</LongitudeDegrees>
            </Position>
            <AltitudeMeters>1114.4000244140625</AltitudeMeters>
            <DistanceMeters>NAN</DistanceMeters>
          </Trackpoint>
          <Trackpoint>
            <Time>2021-08-01T14:54:18.000Z</Time>
            <Position>
              <LatitudeDegrees>-15.3688935376703739166259765625</LatitudeDegrees>
              <LongitudeDegrees>37.08980510942637920379638671875</LongitudeDegrees>
            </Position>
            <AltitudeMeters>1115</AltitudeMeters>
            <DistanceMeters>NAN</DistanceMeters>
          </Trackpoint>
          <Trackpoint>
            <Time>2021-08-01T14:54:22.000Z</Time>
            <Position>
              <LatitudeDegrees>-15.36885271780192852020263671875</LatitudeDegrees>
              <LongitudeDegrees>37.08979689516127109527587890625</LongitudeDegrees>
            </Position>
            <AltitudeMeters>1115.5999755859375</AltitudeMeters>
            <DistanceMeters>NAN</DistanceMeters>
          </Trackpoint>
          <Trackpoint>
            <Time>2021-08-01T14:54:23.000Z</Time>
            <Position>
              <LatitudeDegrees>-15.3688419051468372344970703125</LatitudeDegrees>
              <LongitudeDegrees>37.0897932909429073333740234375</LongitudeDegrees>
            </Position>
            <AltitudeMeters>1115.5999755859375</AltitudeMeters>
            <DistanceMeters>NAN</DistanceMeters>
          </Trackpoint>
          <Trackpoint>
            <Time>2021-08-01T14:54:27.000Z</Time>
            <Position>
              <LatitudeDegrees>-15.36879949271678924560546875</LatitudeDegrees>
              <LongitudeDegrees>37.0897745154798030853271484375</LongitudeDegrees>
            </Position>
            <AltitudeMeters>1116</AltitudeMeters>
            <DistanceMeters>NAN</DistanceMeters>
          </Trackpoint>
          <Trackpoint>
            <Time>2021-08-01T14:54:36.000Z</Time>
            <Position>
              <LatitudeDegrees>-15.3687279112637042999267578125</LatitudeDegrees>
              <LongitudeDegrees>37.08971408195793628692626953125</LongitudeDegrees>
            </Position>
            <AltitudeMeters>1116</AltitudeMeters>
            <DistanceMeters>NAN</DistanceMeters>
          </Trackpoint>
          <Trackpoint>
            <Time>2021-08-01T14:54:45.000Z</Time>
            <Position>
              <LatitudeDegrees>-15.36865071393549442291259765625</LatitudeDegrees>
              <LongitudeDegrees>37.08965993486344814300537109375</LongitudeDegrees>
            </Position>
            <AltitudeMeters>1115.800048828125</AltitudeMeters>
            <DistanceMeters>NAN</DistanceMeters>
          </Trackpoint>
          <Trackpoint>
            <Time>2021-08-01T14:54:53.000Z</Time>
            <Position>
              <LatitudeDegrees>-15.3685673139989376068115234375</LatitudeDegrees>
              <LongitudeDegrees>37.08962204866111278533935546875</LongitudeDegrees>
            </Position>
            <AltitudeMeters>1114.5999755859375</AltitudeMeters>
            <DistanceMeters>NAN</DistanceMeters>
          </Trackpoint>
          <Trackpoint>
            <Time>2021-08-01T14:54:54.000Z</Time>
            <Position>
              <LatitudeDegrees>-15.368559099733829498291015625</LatitudeDegrees>
              <LongitudeDegrees>37.08961668424308300018310546875</LongitudeDegrees>
            </Position>
            <AltitudeMeters>1114.5999755859375</AltitudeMeters>
            <DistanceMeters>NAN</DistanceMeters>
          </Trackpoint>
          <Trackpoint>
            <Time>2021-08-01T14:54:59.000Z</Time>
            <Position>
              <LatitudeDegrees>-15.3685160167515277862548828125</LatitudeDegrees>
              <LongitudeDegrees>37.089608050882816314697265625</LongitudeDegrees>
            </Position>
            <AltitudeMeters>1113.4000244140625</AltitudeMeters>
            <DistanceMeters>NAN</DistanceMeters>
          </Trackpoint>
          <Trackpoint>
            <Time>2021-08-01T14:55:00.000Z</Time>
            <Position>
              <LatitudeDegrees>-15.36850838921964168548583984375</LatitudeDegrees>
              <LongitudeDegrees>37.089610397815704345703125</LongitudeDegrees>
            </Position>
            <AltitudeMeters>1113.4000244140625</AltitudeMeters>
            <DistanceMeters>NAN</DistanceMeters>
          </Trackpoint>
          <Trackpoint>
            <Time>2021-08-01T14:55:02.000Z</Time>
            <Position>
              <LatitudeDegrees>-15.36850713193416595458984375</LatitudeDegrees>
              <LongitudeDegrees>37.08960997872054576873779296875</LongitudeDegrees>
            </Position>
            <AltitudeMeters>1113</AltitudeMeters>
            <DistanceMeters>NAN</DistanceMeters>
          </Trackpoint>
          <Trackpoint>
            <Time>2021-08-01T14:55:10.000Z</Time>
            <Position>
              <LatitudeDegrees>-15.3685089759528636932373046875</LatitudeDegrees>
              <LongitudeDegrees>37.08960377611219882965087890625</LongitudeDegrees>
            </Position>
            <AltitudeMeters>1113</AltitudeMeters>
            <DistanceMeters>NAN</DistanceMeters>
          </Trackpoint>
          <Trackpoint>
            <Time>2021-08-01T14:55:12.000Z</Time>
            <Position>
              <LatitudeDegrees>-15.3685089759528636932373046875</LatitudeDegrees>
              <LongitudeDegrees>37.08960377611219882965087890625</LongitudeDegrees>
            </Position>
            <AltitudeMeters>1113</AltitudeMeters>
            <DistanceMeters>NAN</DistanceMeters>
          </Trackpoint>
          <Trackpoint>
            <Time>2021-08-01T14:55:19.000Z</Time>
            <Position>
              <LatitudeDegrees>-15.3685089759528636932373046875</LatitudeDegrees>
              <LongitudeDegrees>37.08960377611219882965087890625</LongitudeDegrees>
            </Position>
            <AltitudeMeters>1113</AltitudeMeters>
            <DistanceMeters>NAN</DistanceMeters>
          </Trackpoint>
          <Trackpoint>
            <Time>2021-08-01T14:55:25.000Z</Time>
            <Position>
              <LatitudeDegrees>-15.36850713193416595458984375</LatitudeDegrees>
              <LongitudeDegrees>37.089601345360279083251953125</LongitudeDegrees>
            </Position>
            <AltitudeMeters>1113</AltitudeMeters>
            <DistanceMeters>NAN</DistanceMeters>
          </Trackpoint>
          <Trackpoint>
            <Time>2021-08-01T14:55:29.000Z</Time>
            <Position>
              <LatitudeDegrees>-15.3684489615261554718017578125</LatitudeDegrees>
              <LongitudeDegrees>37.08958089351654052734375</LongitudeDegrees>
            </Position>
            <AltitudeMeters>1112.5999755859375</AltitudeMeters>
            <DistanceMeters>NAN</DistanceMeters>
          </Trackpoint>
          <Trackpoint>
            <Time>2021-08-01T14:55:32.000Z</Time>
            <Position>
              <LatitudeDegrees>-15.36840696819126605987548828125</LatitudeDegrees>
              <LongitudeDegrees>37.08956220187246799468994140625</LongitudeDegrees>
            </Position>
            <AltitudeMeters>1112.4000244140625</AltitudeMeters>
            <DistanceMeters>NAN</DistanceMeters>
          </Trackpoint>
          <Trackpoint>
            <Time>2021-08-01T14:55:39.000Z</Time>
            <Position>
              <LatitudeDegrees>-15.3683192096650600433349609375</LatitudeDegrees>
              <LongitudeDegrees>37.08954309113323688507080078125</LongitudeDegrees>
            </Position>
            <AltitudeMeters>1112</AltitudeMeters>
            <DistanceMeters>NAN</DistanceMeters>
          </Trackpoint>
          <Trackpoint>
            <Time>2021-08-01T14:55:47.000Z</Time>
            <Position>
              <LatitudeDegrees>-15.36822273395955562591552734375</LatitudeDegrees>
              <LongitudeDegrees>37.08953269757330417633056640625</LongitudeDegrees>
            </Position>
            <AltitudeMeters>1111.4000244140625</AltitudeMeters>
            <DistanceMeters>NAN</DistanceMeters>
          </Trackpoint>
          <Trackpoint>
            <Time>2021-08-01T14:55:48.000Z</Time>
            <Position>
              <LatitudeDegrees>-15.36821083165705204010009765625</LatitudeDegrees>
              <LongitudeDegrees>37.089532278478145599365234375</LongitudeDegrees>
            </Position>
            <AltitudeMeters>1111.4000244140625</AltitudeMeters>
            <DistanceMeters>NAN</DistanceMeters>
          </Trackpoint>
          <Trackpoint>
            <Time>2021-08-01T14:55:51.000Z</Time>
            <Position>
              <LatitudeDegrees>-15.36817445419728755950927734375</LatitudeDegrees>
              <LongitudeDegrees>37.0895337872207164764404296875</LongitudeDegrees>
            </Position>
            <AltitudeMeters>1111</AltitudeMeters>
            <DistanceMeters>NAN</DistanceMeters>
          </Trackpoint>
          <Trackpoint>
            <Time>2021-08-01T14:55:56.000Z</Time>
            <Position>
              <LatitudeDegrees>-15.36811863072216510772705078125</LatitudeDegrees>
              <LongitudeDegrees>37.08952724933624267578125</LongitudeDegrees>
            </Position>
            <AltitudeMeters>1110</AltitudeMeters>
            <DistanceMeters>NAN</DistanceMeters>
          </Trackpoint>
          <Trackpoint>
            <Time>2021-08-01T14:55:59.000Z</Time>
            <Position>
              <LatitudeDegrees>-15.36808493547141551971435546875</LatitudeDegrees>
              <LongitudeDegrees>37.08951987326145172119140625</LongitudeDegrees>
            </Position>
            <AltitudeMeters>1109.800048828125</AltitudeMeters>
            <DistanceMeters>NAN</DistanceMeters>
          </Trackpoint>
          <Trackpoint>
            <Time>2021-08-01T14:56:04.000Z</Time>
            <Position>
              <LatitudeDegrees>-15.368032045662403106689453125</LatitudeDegrees>
              <LongitudeDegrees>37.0895180292427539825439453125</LongitudeDegrees>
            </Position>
            <AltitudeMeters>1109.5999755859375</AltitudeMeters>
            <DistanceMeters>NAN</DistanceMeters>
          </Trackpoint>
          <Trackpoint>
            <Time>2021-08-01T14:56:09.000Z</Time>
            <Position>
              <LatitudeDegrees>-15.36796725355088710784912109375</LatitudeDegrees>
              <LongitudeDegrees>37.08951710723340511322021484375</LongitudeDegrees>
            </Position>
            <AltitudeMeters>1109.800048828125</AltitudeMeters>
            <DistanceMeters>NAN</DistanceMeters>
          </Trackpoint>
          <Trackpoint>
            <Time>2021-08-01T14:56:12.000Z</Time>
            <Position>
              <LatitudeDegrees>-15.367934145033359527587890625</LatitudeDegrees>
              <LongitudeDegrees>37.0895140059292316436767578125</LongitudeDegrees>
            </Position>
            <AltitudeMeters>1109.199951171875</AltitudeMeters>
            <DistanceMeters>NAN</DistanceMeters>
          </Trackpoint>
          <Trackpoint>
            <Time>2021-08-01T14:56:14.000Z</Time>
            <Position>
              <LatitudeDegrees>-15.36791277118027210235595703125</LatitudeDegrees>
              <LongitudeDegrees>37.08951408974826335906982421875</LongitudeDegrees>
            </Position>
            <AltitudeMeters>1109</AltitudeMeters>
            <DistanceMeters>NAN</DistanceMeters>
          </Trackpoint>
          <Trackpoint>
            <Time>2021-08-01T14:56:18.000Z</Time>
            <Position>
              <LatitudeDegrees>-15.3678709454834461212158203125</LatitudeDegrees>
              <LongitudeDegrees>37.089510820806026458740234375</LongitudeDegrees>
            </Position>
            <AltitudeMeters>1107.800048828125</AltitudeMeters>
            <DistanceMeters>NAN</DistanceMeters>
          </Trackpoint>
          <Trackpoint>
            <Time>2021-08-01T14:56:20.000Z</Time>
            <Position>
              <LatitudeDegrees>-15.36784118972718715667724609375</LatitudeDegrees>
              <LongitudeDegrees>37.08951157517731189727783203125</LongitudeDegrees>
            </Position>
            <AltitudeMeters>1107.5999755859375</AltitudeMeters>
            <DistanceMeters>NAN</DistanceMeters>
          </Trackpoint>
          <Trackpoint>
            <Time>2021-08-01T14:56:23.000Z</Time>
            <Position>
              <LatitudeDegrees>-15.36780481226742267608642578125</LatitudeDegrees>
              <LongitudeDegrees>37.08950855769217014312744140625</LongitudeDegrees>
            </Position>
            <AltitudeMeters>1107.199951171875</AltitudeMeters>
            <DistanceMeters>NAN</DistanceMeters>
          </Trackpoint>
          <Trackpoint>
            <Time>2021-08-01T14:56:28.000Z</Time>
            <Position>
              <LatitudeDegrees>-15.367743708193302154541015625</LatitudeDegrees>
              <LongitudeDegrees>37.08949833177030086517333984375</LongitudeDegrees>
            </Position>
            <AltitudeMeters>1107.199951171875</AltitudeMeters>
            <DistanceMeters>NAN</DistanceMeters>
          </Trackpoint>
          <Trackpoint>
            <Time>2021-08-01T14:56:31.000Z</Time>
            <Position>
              <LatitudeDegrees>-15.36770791746675968170166015625</LatitudeDegrees>
              <LongitudeDegrees>37.089496739208698272705078125</LongitudeDegrees>
            </Position>
            <AltitudeMeters>1106.800048828125</AltitudeMeters>
            <DistanceMeters>NAN</DistanceMeters>
          </Trackpoint>
          <Trackpoint>
            <Time>2021-08-01T14:56:32.000Z</Time>
            <Position>
              <LatitudeDegrees>-15.367692410945892333984375</LatitudeDegrees>
              <LongitudeDegrees>37.08949883468449115753173828125</LongitudeDegrees>
            </Position>
            <AltitudeMeters>1106.800048828125</AltitudeMeters>
            <DistanceMeters>NAN</DistanceMeters>
          </Trackpoint>
          <Trackpoint>
            <Time>2021-08-01T14:56:33.000Z</Time>
            <Position>
              <LatitudeDegrees>-15.36767807789146900177001953125</LatitudeDegrees>
              <LongitudeDegrees>37.0895049534738063812255859375</LongitudeDegrees>
            </Position>
            <AltitudeMeters>1106.4000244140625</AltitudeMeters>
            <DistanceMeters>NAN</DistanceMeters>
          </Trackpoint>
          <Trackpoint>
            <Time>2021-08-01T14:56:37.000Z</Time>
            <Position>
              <LatitudeDegrees>-15.36762778647243976593017578125</LatitudeDegrees>
              <LongitudeDegrees>37.08951995708048343658447265625</LongitudeDegrees>
            </Position>
            <AltitudeMeters>1106</AltitudeMeters>
            <DistanceMeters>NAN</DistanceMeters>
          </Trackpoint>
          <Trackpoint>
            <Time>2021-08-01T14:56:38.000Z</Time>
            <Position>
              <LatitudeDegrees>-15.367613621056079864501953125</LatitudeDegrees>
              <LongitudeDegrees>37.0895203761756420135498046875</LongitudeDegrees>
            </Position>
            <AltitudeMeters>1105.800048828125</AltitudeMeters>
            <DistanceMeters>NAN</DistanceMeters>
          </Trackpoint>
          <Trackpoint>
            <Time>2021-08-01T14:56:39.000Z</Time>
            <Position>
              <LatitudeDegrees>-15.36760264076292514801025390625</LatitudeDegrees>
              <LongitudeDegrees>37.0895210467278957366943359375</LongitudeDegrees>
            </Position>
            <AltitudeMeters>1105.5999755859375</AltitudeMeters>
            <DistanceMeters>NAN</DistanceMeters>
          </Trackpoint>
          <Trackpoint>
            <Time>2021-08-01T14:56:42.000Z</Time>
            <Position>
              <LatitudeDegrees>-15.36757062189280986785888671875</LatitudeDegrees>
              <LongitudeDegrees>37.08951777778565883636474609375</LongitudeDegrees>
            </Position>
            <AltitudeMeters>1105.199951171875</AltitudeMeters>
            <DistanceMeters>NAN</DistanceMeters>
          </Trackpoint>
          <Trackpoint>
            <Time>2021-08-01T14:56:45.000Z</Time>
            <Position>
              <LatitudeDegrees>-15.3675289638340473175048828125</LatitudeDegrees>
              <LongitudeDegrees>37.08951777778565883636474609375</LongitudeDegrees>
            </Position>
            <AltitudeMeters>1105.199951171875</AltitudeMeters>
            <DistanceMeters>NAN</DistanceMeters>
          </Trackpoint>
          <Trackpoint>
            <Time>2021-08-01T14:56:51.000Z</Time>
            <Position>
              <LatitudeDegrees>-15.367456041276454925537109375</LatitudeDegrees>
              <LongitudeDegrees>37.08952196873724460601806640625</LongitudeDegrees>
            </Position>
            <AltitudeMeters>1104.5999755859375</AltitudeMeters>
            <DistanceMeters>NAN</DistanceMeters>
          </Trackpoint>
          <Trackpoint>
            <Time>2021-08-01T14:56:55.000Z</Time>
            <Position>
              <LatitudeDegrees>-15.36740935407578945159912109375</LatitudeDegrees>
              <LongitudeDegrees>37.089544348418712615966796875</LongitudeDegrees>
            </Position>
            <AltitudeMeters>1104.4000244140625</AltitudeMeters>
            <DistanceMeters>NAN</DistanceMeters>
          </Trackpoint>
          <Trackpoint>
            <Time>2021-08-01T14:56:58.000Z</Time>
            <Position>
              <LatitudeDegrees>-15.36737859249114990234375</LatitudeDegrees>
              <LongitudeDegrees>37.0895542390644550323486328125</LongitudeDegrees>
            </Position>
            <AltitudeMeters>1104.199951171875</AltitudeMeters>
            <DistanceMeters>NAN</DistanceMeters>
          </Trackpoint>
          <Trackpoint>
            <Time>2021-08-01T14:57:01.000Z</Time>
            <Position>
              <LatitudeDegrees>-15.36733492277562618255615234375</LatitudeDegrees>
              <LongitudeDegrees>37.08955968730151653289794921875</LongitudeDegrees>
            </Position>
            <AltitudeMeters>1104.199951171875</AltitudeMeters>
            <DistanceMeters>NAN</DistanceMeters>
          </Trackpoint>
          <Trackpoint>
            <Time>2021-08-01T14:57:05.000Z</Time>
            <Position>
              <LatitudeDegrees>-15.36728060804307460784912109375</LatitudeDegrees>
              <LongitudeDegrees>37.08954996429383754730224609375</LongitudeDegrees>
            </Position>
            <AltitudeMeters>1104</AltitudeMeters>
            <DistanceMeters>NAN</DistanceMeters>
          </Trackpoint>
          <Trackpoint>
            <Time>2021-08-01T14:57:12.000Z</Time>
            <Position>
              <LatitudeDegrees>-15.36720550619065761566162109375</LatitudeDegrees>
              <LongitudeDegrees>37.08958902396261692047119140625</LongitudeDegrees>
            </Position>
            <AltitudeMeters>1104.199951171875</AltitudeMeters>
            <DistanceMeters>NAN</DistanceMeters>
          </Trackpoint>
          <Trackpoint>
            <Time>2021-08-01T14:57:14.000Z</Time>
            <Position>
              <LatitudeDegrees>-15.367188155651092529296875</LatitudeDegrees>
              <LongitudeDegrees>37.08959899842739105224609375</LongitudeDegrees>
            </Position>
            <AltitudeMeters>1104.199951171875</AltitudeMeters>
            <DistanceMeters>NAN</DistanceMeters>
          </Trackpoint>
          <Trackpoint>
            <Time>2021-08-01T14:57:23.000Z</Time>
            <Position>
              <LatitudeDegrees>-15.3670884110033512115478515625</LatitudeDegrees>
              <LongitudeDegrees>37.08962582051753997802734375</LongitudeDegrees>
            </Position>
            <AltitudeMeters>1104.5999755859375</AltitudeMeters>
            <DistanceMeters>NAN</DistanceMeters>
          </Trackpoint>
          <Trackpoint>
            <Time>2021-08-01T14:57:31.000Z</Time>
            <Position>
              <LatitudeDegrees>-15.3669936954975128173828125</LatitudeDegrees>
              <LongitudeDegrees>37.08963797427713871002197265625</LongitudeDegrees>
            </Position>
            <AltitudeMeters>1104.800048828125</AltitudeMeters>
            <DistanceMeters>NAN</DistanceMeters>
          </Trackpoint>
          <Trackpoint>
            <Time>2021-08-01T14:57:41.000Z</Time>
            <Position>
              <LatitudeDegrees>-15.36687861196696758270263671875</LatitudeDegrees>
              <LongitudeDegrees>37.0896216295659542083740234375</LongitudeDegrees>
            </Position>
            <AltitudeMeters>1105.199951171875</AltitudeMeters>
            <DistanceMeters>NAN</DistanceMeters>
          </Trackpoint>
          <Trackpoint>
            <Time>2021-08-01T14:57:44.000Z</Time>
            <Position>
              <LatitudeDegrees>-15.366847179830074310302734375</LatitudeDegrees>
              <LongitudeDegrees>37.08961240947246551513671875</LongitudeDegrees>
            </Position>
            <AltitudeMeters>1105.199951171875</AltitudeMeters>
            <DistanceMeters>NAN</DistanceMeters>
          </Trackpoint>
          <Trackpoint>
            <Time>2021-08-01T14:57:48.000Z</Time>
            <Position>
              <LatitudeDegrees>-15.36680795252323150634765625</LatitudeDegrees>
              <LongitudeDegrees>37.08958826959133148193359375</LongitudeDegrees>
            </Position>
            <AltitudeMeters>1105.5999755859375</AltitudeMeters>
            <DistanceMeters>NAN</DistanceMeters>
          </Trackpoint>
          <Trackpoint>
            <Time>2021-08-01T14:57:55.000Z</Time>
            <Position>
              <LatitudeDegrees>-15.366752631962299346923828125</LatitudeDegrees>
              <LongitudeDegrees>37.08955281414091587066650390625</LongitudeDegrees>
            </Position>
            <AltitudeMeters>1106.5999755859375</AltitudeMeters>
            <DistanceMeters>NAN</DistanceMeters>
          </Trackpoint>
          <Trackpoint>
            <Time>2021-08-01T14:57:56.000Z</Time>
            <Position>
              <LatitudeDegrees>-15.366742908954620361328125</LatitudeDegrees>
              <LongitudeDegrees>37.08954728208482265472412109375</LongitudeDegrees>
            </Position>
            <AltitudeMeters>1106.5999755859375</AltitudeMeters>
            <DistanceMeters>NAN</DistanceMeters>
          </Trackpoint>
          <Trackpoint>
            <Time>2021-08-01T14:58:03.000Z</Time>
            <Position>
              <LatitudeDegrees>-15.36667786538600921630859375</LatitudeDegrees>
              <LongitudeDegrees>37.08951576612889766693115234375</LongitudeDegrees>
            </Position>
            <AltitudeMeters>1107.800048828125</AltitudeMeters>
            <DistanceMeters>NAN</DistanceMeters>
          </Trackpoint>
          <Trackpoint>
            <Time>2021-08-01T14:58:06.000Z</Time>
            <Position>
              <LatitudeDegrees>-15.36664743907749652862548828125</LatitudeDegrees>
              <LongitudeDegrees>37.089512161910533905029296875</LongitudeDegrees>
            </Position>
            <AltitudeMeters>1108</AltitudeMeters>
            <DistanceMeters>NAN</DistanceMeters>
          </Trackpoint>
          <Trackpoint>
            <Time>2021-08-01T14:58:08.000Z</Time>
            <Position>
              <LatitudeDegrees>-15.3666260652244091033935546875</LatitudeDegrees>
              <LongitudeDegrees>37.0895197056233882904052734375</LongitudeDegrees>
            </Position>
            <AltitudeMeters>1108.199951171875</AltitudeMeters>
            <DistanceMeters>NAN</DistanceMeters>
          </Trackpoint>
          <Trackpoint>
            <Time>2021-08-01T14:58:14.000Z</Time>
            <Position>
              <LatitudeDegrees>-15.36657284013926982879638671875</LatitudeDegrees>
              <LongitudeDegrees>37.08956203423440456390380859375</LongitudeDegrees>
            </Position>
            <AltitudeMeters>1108.4000244140625</AltitudeMeters>
            <DistanceMeters>NAN</DistanceMeters>
          </Trackpoint>
          <Trackpoint>
            <Time>2021-08-01T14:58:19.000Z</Time>
            <Position>
              <LatitudeDegrees>-15.36652808077633380889892578125</LatitudeDegrees>
              <LongitudeDegrees>37.08959891460835933685302734375</LongitudeDegrees>
            </Position>
            <AltitudeMeters>1108.5999755859375</AltitudeMeters>
            <DistanceMeters>NAN</DistanceMeters>
          </Trackpoint>
          <Trackpoint>
            <Time>2021-08-01T14:58:25.000Z</Time>
            <Position>
              <LatitudeDegrees>-15.366473682224750518798828125</LatitudeDegrees>
              <LongitudeDegrees>37.0896333642303943634033203125</LongitudeDegrees>
            </Position>
            <AltitudeMeters>1108.4000244140625</AltitudeMeters>
            <DistanceMeters>NAN</DistanceMeters>
          </Trackpoint>
          <Trackpoint>
            <Time>2021-08-01T14:58:26.000Z</Time>
            <Position>
              <LatitudeDegrees>-15.36646555177867412567138671875</LatitudeDegrees>
              <LongitudeDegrees>37.08964015357196331024169921875</LongitudeDegrees>
            </Position>
            <AltitudeMeters>1108.4000244140625</AltitudeMeters>
            <DistanceMeters>NAN</DistanceMeters>
          </Trackpoint>
          <Trackpoint>
            <Time>2021-08-01T14:58:37.000Z</Time>
            <Position>
              <LatitudeDegrees>-15.36635038442909717559814453125</LatitudeDegrees>
              <LongitudeDegrees>37.08969396539032459259033203125</LongitudeDegrees>
            </Position>
            <AltitudeMeters>1107.199951171875</AltitudeMeters>
            <DistanceMeters>NAN</DistanceMeters>
          </Trackpoint>
          <Trackpoint>
            <Time>2021-08-01T14:58:43.000Z</Time>
            <Position>
              <LatitudeDegrees>-15.366301350295543670654296875</LatitudeDegrees>
              <LongitudeDegrees>37.0896970666944980621337890625</LongitudeDegrees>
            </Position>
            <AltitudeMeters>1107.4000244140625</AltitudeMeters>
            <DistanceMeters>NAN</DistanceMeters>
          </Trackpoint>
          <Trackpoint>
            <Time>2021-08-01T14:58:45.000Z</Time>
            <Position>
              <LatitudeDegrees>-15.3662991710007190704345703125</LatitudeDegrees>
              <LongitudeDegrees>37.08969916217029094696044921875</LongitudeDegrees>
            </Position>
            <AltitudeMeters>1107.199951171875</AltitudeMeters>
            <DistanceMeters>NAN</DistanceMeters>
          </Trackpoint>
          <Trackpoint>
            <Time>2021-08-01T14:58:49.000Z</Time>
            <Position>
              <LatitudeDegrees>-15.36626958288252353668212890625</LatitudeDegrees>
              <LongitudeDegrees>37.08969815634191036224365234375</LongitudeDegrees>
            </Position>
            <AltitudeMeters>1107.199951171875</AltitudeMeters>
            <DistanceMeters>NAN</DistanceMeters>
          </Trackpoint>
          <Trackpoint>
            <Time>2021-08-01T14:58:51.000Z</Time>
            <Position>
              <LatitudeDegrees>-15.3662525676190853118896484375</LatitudeDegrees>
              <LongitudeDegrees>37.0896950550377368927001953125</LongitudeDegrees>
            </Position>
            <AltitudeMeters>1107</AltitudeMeters>
            <DistanceMeters>NAN</DistanceMeters>
          </Trackpoint>
          <Trackpoint>
            <Time>2021-08-01T14:58:55.000Z</Time>
            <Position>
              <LatitudeDegrees>-15.3662130050361156463623046875</LatitudeDegrees>
              <LongitudeDegrees>37.08968793042004108428955078125</LongitudeDegrees>
            </Position>
            <AltitudeMeters>1107</AltitudeMeters>
            <DistanceMeters>NAN</DistanceMeters>
          </Trackpoint>
          <Trackpoint>
            <Time>2021-08-01T14:58:58.000Z</Time>
            <Position>
              <LatitudeDegrees>-15.366175286471843719482421875</LatitudeDegrees>
              <LongitudeDegrees>37.0896823145449161529541015625</LongitudeDegrees>
            </Position>
            <AltitudeMeters>1106.5999755859375</AltitudeMeters>
            <DistanceMeters>NAN</DistanceMeters>
          </Trackpoint>
          <Trackpoint>
            <Time>2021-08-01T14:59:01.000Z</Time>
            <Position>
              <LatitudeDegrees>-15.36614804528653621673583984375</LatitudeDegrees>
              <LongitudeDegrees>37.08967678248882293701171875</LongitudeDegrees>
            </Position>
            <AltitudeMeters>1105.800048828125</AltitudeMeters>
            <DistanceMeters>NAN</DistanceMeters>
          </Trackpoint>
          <Trackpoint>
            <Time>2021-08-01T14:59:04.000Z</Time>
            <Position>
              <LatitudeDegrees>-15.36612122319638729095458984375</LatitudeDegrees>
              <LongitudeDegrees>37.08967275917530059814453125</LongitudeDegrees>
            </Position>
            <AltitudeMeters>1105.800048828125</AltitudeMeters>
            <DistanceMeters>NAN</DistanceMeters>
          </Trackpoint>
          <Trackpoint>
            <Time>2021-08-01T14:59:05.000Z</Time>
            <Position>
              <LatitudeDegrees>-15.36611191928386688232421875</LatitudeDegrees>
              <LongitudeDegrees>37.08967317827045917510986328125</LongitudeDegrees>
            </Position>
            <AltitudeMeters>1105.5999755859375</AltitudeMeters>
            <DistanceMeters>NAN</DistanceMeters>
          </Trackpoint>
          <Trackpoint>
            <Time>2021-08-01T14:59:08.000Z</Time>
            <Position>
              <LatitudeDegrees>-15.36607847549021244049072265625</LatitudeDegrees>
              <LongitudeDegrees>37.0896749384701251983642578125</LongitudeDegrees>
            </Position>
            <AltitudeMeters>1104.4000244140625</AltitudeMeters>
            <DistanceMeters>NAN</DistanceMeters>
          </Trackpoint>
          <Trackpoint>
            <Time>2021-08-01T14:59:13.000Z</Time>
            <Position>
              <LatitudeDegrees>-15.366043858230113983154296875</LatitudeDegrees>
              <LongitudeDegrees>37.08965775556862354278564453125</LongitudeDegrees>
            </Position>
            <AltitudeMeters>1103.4000244140625</AltitudeMeters>
            <DistanceMeters>NAN</DistanceMeters>
          </Trackpoint>
          <Trackpoint>
            <Time>2021-08-01T14:59:14.000Z</Time>
            <Position>
              <LatitudeDegrees>-15.36604293622076511383056640625</LatitudeDegrees>
              <LongitudeDegrees>37.0896575041115283966064453125</LongitudeDegrees>
            </Position>
            <AltitudeMeters>1103.4000244140625</AltitudeMeters>
            <DistanceMeters>NAN</DistanceMeters>
          </Trackpoint>
          <Trackpoint>
            <Time>2021-08-01T14:59:22.000Z</Time>
            <Position>
              <LatitudeDegrees>-15.36603857763111591339111328125</LatitudeDegrees>
              <LongitudeDegrees>37.0896551571786403656005859375</LongitudeDegrees>
            </Position>
            <AltitudeMeters>1103.4000244140625</AltitudeMeters>
            <DistanceMeters>NAN</DistanceMeters>
          </Trackpoint>
          <Trackpoint>
            <Time>2021-08-01T14:59:24.000Z</Time>
            <Position>
              <LatitudeDegrees>-15.36603069864213466644287109375</LatitudeDegrees>
              <LongitudeDegrees>37.08964836783707141876220703125</LongitudeDegrees>
            </Position>
            <AltitudeMeters>1103.4000244140625</AltitudeMeters>
            <DistanceMeters>NAN</DistanceMeters>
          </Trackpoint>
          <Trackpoint>
            <Time>2021-08-01T14:59:25.000Z</Time>
            <Position>
              <LatitudeDegrees>-15.36602416075766086578369140625</LatitudeDegrees>
              <LongitudeDegrees>37.08963981829583644866943359375</LongitudeDegrees>
            </Position>
            <AltitudeMeters>1102.800048828125</AltitudeMeters>
            <DistanceMeters>NAN</DistanceMeters>
          </Trackpoint>
          <Trackpoint>
            <Time>2021-08-01T14:59:30.000Z</Time>
            <Position>
              <LatitudeDegrees>-15.36598451435565948486328125</LatitudeDegrees>
              <LongitudeDegrees>37.089598663151264190673828125</LongitudeDegrees>
            </Position>
            <AltitudeMeters>1102.4000244140625</AltitudeMeters>
            <DistanceMeters>NAN</DistanceMeters>
          </Trackpoint>
          <Trackpoint>
            <Time>2021-08-01T14:59:31.000Z</Time>
            <Position>
              <LatitudeDegrees>-15.36597789265215396881103515625</LatitudeDegrees>
              <LongitudeDegrees>37.08958826959133148193359375</LongitudeDegrees>
            </Position>
            <AltitudeMeters>1102.199951171875</AltitudeMeters>
            <DistanceMeters>NAN</DistanceMeters>
          </Trackpoint>
          <Trackpoint>
            <Time>2021-08-01T14:59:36.000Z</Time>
            <Position>
              <LatitudeDegrees>-15.36597286351025104522705078125</LatitudeDegrees>
              <LongitudeDegrees>37.08954208530485630035400390625</LongitudeDegrees>
            </Position>
            <AltitudeMeters>1101.800048828125</AltitudeMeters>
            <DistanceMeters>NAN</DistanceMeters>
          </Trackpoint>
          <Trackpoint>
            <Time>2021-08-01T14:59:39.000Z</Time>
            <Position>
              <LatitudeDegrees>-15.3659632243216037750244140625</LatitudeDegrees>
              <LongitudeDegrees>37.0895103178918361663818359375</LongitudeDegrees>
            </Position>
            <AltitudeMeters>1101.800048828125</AltitudeMeters>
            <DistanceMeters>NAN</DistanceMeters>
          </Trackpoint>
          <Trackpoint>
            <Time>2021-08-01T14:59:47.000Z</Time>
            <Position>
              <LatitudeDegrees>-15.365876220166683197021484375</LatitudeDegrees>
              <LongitudeDegrees>37.08947201259434223175048828125</LongitudeDegrees>
            </Position>
            <AltitudeMeters>1102.4000244140625</AltitudeMeters>
            <DistanceMeters>NAN</DistanceMeters>
          </Trackpoint>
          <Trackpoint>
            <Time>2021-08-01T14:59:57.000Z</Time>
            <Position>
              <LatitudeDegrees>-15.3657600469887256622314453125</LatitudeDegrees>
              <LongitudeDegrees>37.0894399099051952362060546875</LongitudeDegrees>
            </Position>
            <AltitudeMeters>1103.4000244140625</AltitudeMeters>
            <DistanceMeters>NAN</DistanceMeters>
          </Trackpoint>
          <Trackpoint>
            <Time>2021-08-01T14:59:58.000Z</Time>
            <Position>
              <LatitudeDegrees>-15.36574956960976123809814453125</LatitudeDegrees>
              <LongitudeDegrees>37.0894368924200534820556640625</LongitudeDegrees>
            </Position>
            <AltitudeMeters>1103.4000244140625</AltitudeMeters>
            <DistanceMeters>NAN</DistanceMeters>
          </Trackpoint>
          <Trackpoint>
            <Time>2021-08-01T15:00:01.000Z</Time>
            <Position>
              <LatitudeDegrees>-15.36571855656802654266357421875</LatitudeDegrees>
              <LongitudeDegrees>37.08943261764943599700927734375</LongitudeDegrees>
            </Position>
            <AltitudeMeters>1104.4000244140625</AltitudeMeters>
            <DistanceMeters>NAN</DistanceMeters>
          </Trackpoint>
          <Trackpoint>
            <Time>2021-08-01T15:00:07.000Z</Time>
            <Position>
              <LatitudeDegrees>-15.36566256545484066009521484375</LatitudeDegrees>
              <LongitudeDegrees>37.0894244872033596038818359375</LongitudeDegrees>
            </Position>
            <AltitudeMeters>1105.800048828125</AltitudeMeters>
            <DistanceMeters>NAN</DistanceMeters>
          </Trackpoint>
          <Trackpoint>
            <Time>2021-08-01T15:00:12.000Z</Time>
            <Position>
              <LatitudeDegrees>-15.3656098432838916778564453125</LatitudeDegrees>
              <LongitudeDegrees>37.08941434510052204132080078125</LongitudeDegrees>
            </Position>
            <AltitudeMeters>1106.800048828125</AltitudeMeters>
            <DistanceMeters>NAN</DistanceMeters>
          </Trackpoint>
          <Trackpoint>
            <Time>2021-08-01T15:00:15.000Z</Time>
            <Position>
              <LatitudeDegrees>-15.3655766509473323822021484375</LatitudeDegrees>
              <LongitudeDegrees>37.08940696902573108673095703125</LongitudeDegrees>
            </Position>
            <AltitudeMeters>1107.199951171875</AltitudeMeters>
            <DistanceMeters>NAN</DistanceMeters>
          </Trackpoint>
          <Trackpoint>
            <Time>2021-08-01T15:00:17.000Z</Time>
            <Position>
              <LatitudeDegrees>-15.3655605576932430267333984375</LatitudeDegrees>
              <LongitudeDegrees>37.0894043706357479095458984375</LongitudeDegrees>
            </Position>
            <AltitudeMeters>1107.4000244140625</AltitudeMeters>
            <DistanceMeters>NAN</DistanceMeters>
          </Trackpoint>
          <Trackpoint>
            <Time>2021-08-01T15:00:20.000Z</Time>
            <Position>
              <LatitudeDegrees>-15.3655354119837284088134765625</LatitudeDegrees>
              <LongitudeDegrees>37.089399509131908416748046875</LongitudeDegrees>
            </Position>
            <AltitudeMeters>1107.5999755859375</AltitudeMeters>
            <DistanceMeters>NAN</DistanceMeters>
          </Trackpoint>
          <Trackpoint>
            <Time>2021-08-01T15:00:22.000Z</Time>
            <Position>
              <LatitudeDegrees>-15.36551621742546558380126953125</LatitudeDegrees>
              <LongitudeDegrees>37.08939607255160808563232421875</LongitudeDegrees>
            </Position>
            <AltitudeMeters>1107.800048828125</AltitudeMeters>
            <DistanceMeters>NAN</DistanceMeters>
          </Trackpoint>
          <Trackpoint>
            <Time>2021-08-01T15:00:25.000Z</Time>
            <Position>
              <LatitudeDegrees>-15.36549325101077556610107421875</LatitudeDegrees>
              <LongitudeDegrees>37.08939204923808574676513671875</LongitudeDegrees>
            </Position>
            <AltitudeMeters>1107.800048828125</AltitudeMeters>
            <DistanceMeters>NAN</DistanceMeters>
          </Trackpoint>
          <Trackpoint>
            <Time>2021-08-01T15:00:29.000Z</Time>
            <Position>
              <LatitudeDegrees>-15.3654499165713787078857421875</LatitudeDegrees>
              <LongitudeDegrees>37.08937260322272777557373046875</LongitudeDegrees>
            </Position>
            <AltitudeMeters>1107.800048828125</AltitudeMeters>
            <DistanceMeters>NAN</DistanceMeters>
          </Trackpoint>
          <Trackpoint>
            <Time>2021-08-01T15:00:34.000Z</Time>
            <Position>
              <LatitudeDegrees>-15.36539752967655658721923828125</LatitudeDegrees>
              <LongitudeDegrees>37.0893587730824947357177734375</LongitudeDegrees>
            </Position>
            <AltitudeMeters>1107.5999755859375</AltitudeMeters>
            <DistanceMeters>NAN</DistanceMeters>
          </Trackpoint>
          <Trackpoint>
            <Time>2021-08-01T15:00:36.000Z</Time>
            <Position>
              <LatitudeDegrees>-15.3653778322041034698486328125</LatitudeDegrees>
              <LongitudeDegrees>37.08935868926346302032470703125</LongitudeDegrees>
            </Position>
            <AltitudeMeters>1107.5999755859375</AltitudeMeters>
            <DistanceMeters>NAN</DistanceMeters>
          </Trackpoint>
          <Trackpoint>
            <Time>2021-08-01T15:00:39.000Z</Time>
            <Position>
              <LatitudeDegrees>-15.365375988185405731201171875</LatitudeDegrees>
              <LongitudeDegrees>37.089364640414714813232421875</LongitudeDegrees>
            </Position>
            <AltitudeMeters>1107.4000244140625</AltitudeMeters>
            <DistanceMeters>NAN</DistanceMeters>
          </Trackpoint>
          <Trackpoint>
            <Time>2021-08-01T15:00:40.000Z</Time>
            <Position>
              <LatitudeDegrees>-15.36537431180477142333984375</LatitudeDegrees>
              <LongitudeDegrees>37.089362628757953643798828125</LongitudeDegrees>
            </Position>
            <AltitudeMeters>1107.4000244140625</AltitudeMeters>
            <DistanceMeters>NAN</DistanceMeters>
          </Trackpoint>
          <Trackpoint>
            <Time>2021-08-01T15:00:43.000Z</Time>
            <Position>
              <LatitudeDegrees>-15.36535151302814483642578125</LatitudeDegrees>
              <LongitudeDegrees>37.0893520675599575042724609375</LongitudeDegrees>
            </Position>
            <AltitudeMeters>1107.4000244140625</AltitudeMeters>
            <DistanceMeters>NAN</DistanceMeters>
          </Trackpoint>
          <Trackpoint>
            <Time>2021-08-01T15:00:46.000Z</Time>
            <Position>
              <LatitudeDegrees>-15.365317650139331817626953125</LatitudeDegrees>
              <LongitudeDegrees>37.08933337591588497161865234375</LongitudeDegrees>
            </Position>
            <AltitudeMeters>1107.4000244140625</AltitudeMeters>
            <DistanceMeters>NAN</DistanceMeters>
          </Trackpoint>
          <Trackpoint>
            <Time>2021-08-01T15:00:48.000Z</Time>
            <Position>
              <LatitudeDegrees>-15.365291498601436614990234375</LatitudeDegrees>
              <LongitudeDegrees>37.08932013250887393951416015625</LongitudeDegrees>
            </Position>
            <AltitudeMeters>1107.4000244140625</AltitudeMeters>
            <DistanceMeters>NAN</DistanceMeters>
          </Trackpoint>
          <Trackpoint>
            <Time>2021-08-01T15:00:55.000Z</Time>
            <Position>
              <LatitudeDegrees>-15.3652091883122920989990234375</LatitudeDegrees>
              <LongitudeDegrees>37.089287526905536651611328125</LongitudeDegrees>
            </Position>
            <AltitudeMeters>1107.4000244140625</AltitudeMeters>
            <DistanceMeters>NAN</DistanceMeters>
          </Trackpoint>
          <Trackpoint>
            <Time>2021-08-01T15:00:57.000Z</Time>
            <Position>
              <LatitudeDegrees>-15.3651894070208072662353515625</LatitudeDegrees>
              <LongitudeDegrees>37.0892789773643016815185546875</LongitudeDegrees>
            </Position>
            <AltitudeMeters>1107.4000244140625</AltitudeMeters>
            <DistanceMeters>NAN</DistanceMeters>
          </Trackpoint>
          <Trackpoint>
            <Time>2021-08-01T15:01:01.000Z</Time>
            <Position>
              <LatitudeDegrees>-15.36514724604785442352294921875</LatitudeDegrees>
              <LongitudeDegrees>37.08928115665912628173828125</LongitudeDegrees>
            </Position>
            <AltitudeMeters>1107.5999755859375</AltitudeMeters>
            <DistanceMeters>NAN</DistanceMeters>
          </Trackpoint>
          <Trackpoint>
            <Time>2021-08-01T15:01:03.000Z</Time>
            <Position>
              <LatitudeDegrees>-15.36512344144284725189208984375</LatitudeDegrees>
              <LongitudeDegrees>37.08928777836263179779052734375</LongitudeDegrees>
            </Position>
            <AltitudeMeters>1107.5999755859375</AltitudeMeters>
            <DistanceMeters>NAN</DistanceMeters>
          </Trackpoint>
          <Trackpoint>
            <Time>2021-08-01T15:01:05.000Z</Time>
            <Position>
              <LatitudeDegrees>-15.36510215140879154205322265625</LatitudeDegrees>
              <LongitudeDegrees>37.08929632790386676788330078125</LongitudeDegrees>
            </Position>
            <AltitudeMeters>1107.5999755859375</AltitudeMeters>
            <DistanceMeters>NAN</DistanceMeters>
          </Trackpoint>
          <Trackpoint>
            <Time>2021-08-01T15:01:07.000Z</Time>
            <Position>
              <LatitudeDegrees>-15.3650824539363384246826171875</LatitudeDegrees>
              <LongitudeDegrees>37.08930202759802341461181640625</LongitudeDegrees>
            </Position>
            <AltitudeMeters>1107.800048828125</AltitudeMeters>
            <DistanceMeters>NAN</DistanceMeters>
          </Trackpoint>
          <Trackpoint>
            <Time>2021-08-01T15:01:09.000Z</Time>
            <Position>
              <LatitudeDegrees>-15.36506141535937786102294921875</LatitudeDegrees>
              <LongitudeDegrees>37.08930202759802341461181640625</LongitudeDegrees>
            </Position>
            <AltitudeMeters>1107.800048828125</AltitudeMeters>
            <DistanceMeters>NAN</DistanceMeters>
          </Trackpoint>
          <Trackpoint>
            <Time>2021-08-01T15:01:12.000Z</Time>
            <Position>
              <LatitudeDegrees>-15.36503157578408718109130859375</LatitudeDegrees>
              <LongitudeDegrees>37.0892979204654693603515625</LongitudeDegrees>
            </Position>
            <AltitudeMeters>1108.4000244140625</AltitudeMeters>
            <DistanceMeters>NAN</DistanceMeters>
          </Trackpoint>
          <Trackpoint>
            <Time>2021-08-01T15:01:13.000Z</Time>
            <Position>
              <LatitudeDegrees>-15.36502352915704250335693359375</LatitudeDegrees>
              <LongitudeDegrees>37.0892974175512790679931640625</LongitudeDegrees>
            </Position>
            <AltitudeMeters>1109</AltitudeMeters>
            <DistanceMeters>NAN</DistanceMeters>
          </Trackpoint>
          <Trackpoint>
            <Time>2021-08-01T15:01:18.000Z</Time>
            <Position>
              <LatitudeDegrees>-15.36498698405921459197998046875</LatitudeDegrees>
              <LongitudeDegrees>37.08929699845612049102783203125</LongitudeDegrees>
            </Position>
            <AltitudeMeters>1109.5999755859375</AltitudeMeters>
            <DistanceMeters>NAN</DistanceMeters>
          </Trackpoint>
          <Trackpoint>
            <Time>2021-08-01T15:01:20.000Z</Time>
            <Position>
              <LatitudeDegrees>-15.36495999433100223541259765625</LatitudeDegrees>
              <LongitudeDegrees>37.0893014408648014068603515625</LongitudeDegrees>
            </Position>
            <AltitudeMeters>1110</AltitudeMeters>
            <DistanceMeters>NAN</DistanceMeters>
          </Trackpoint>
          <Trackpoint>
            <Time>2021-08-01T15:01:23.000Z</Time>
            <Position>
              <LatitudeDegrees>-15.36493887193500995635986328125</LatitudeDegrees>
              <LongitudeDegrees>37.08931309171020984649658203125</LongitudeDegrees>
            </Position>
            <AltitudeMeters>1110.5999755859375</AltitudeMeters>
            <DistanceMeters>NAN</DistanceMeters>
          </Trackpoint>
          <Trackpoint>
            <Time>2021-08-01T15:01:25.000Z</Time>
            <Position>
              <LatitudeDegrees>-15.36492562852799892425537109375</LatitudeDegrees>
              <LongitudeDegrees>37.08931527100503444671630859375</LongitudeDegrees>
            </Position>
            <AltitudeMeters>1111.199951171875</AltitudeMeters>
            <DistanceMeters>NAN</DistanceMeters>
          </Trackpoint>
          <Trackpoint>
            <Time>2021-08-01T15:01:27.000Z</Time>
            <Position>
              <LatitudeDegrees>-15.364911966025829315185546875</LatitudeDegrees>
              <LongitudeDegrees>37.089307308197021484375</LongitudeDegrees>
            </Position>
            <AltitudeMeters>1111.5999755859375</AltitudeMeters>
            <DistanceMeters>NAN</DistanceMeters>
          </Trackpoint>
          <Trackpoint>
            <Time>2021-08-01T15:01:30.000Z</Time>
            <Position>
              <LatitudeDegrees>-15.36488723941147327423095703125</LatitudeDegrees>
              <LongitudeDegrees>37.0893121697008609771728515625</LongitudeDegrees>
            </Position>
            <AltitudeMeters>1112.4000244140625</AltitudeMeters>
            <DistanceMeters>NAN</DistanceMeters>
          </Trackpoint>
          <Trackpoint>
            <Time>2021-08-01T15:01:34.000Z</Time>
            <Position>
              <LatitudeDegrees>-15.3648413904011249542236328125</LatitudeDegrees>
              <LongitudeDegrees>37.08932985551655292510986328125</LongitudeDegrees>
            </Position>
            <AltitudeMeters>1112.800048828125</AltitudeMeters>
            <DistanceMeters>NAN</DistanceMeters>
          </Trackpoint>
          <Trackpoint>
            <Time>2021-08-01T15:01:37.000Z</Time>
            <Position>
              <LatitudeDegrees>-15.36479922942817211151123046875</LatitudeDegrees>
              <LongitudeDegrees>37.08934175781905651092529296875</LongitudeDegrees>
            </Position>
            <AltitudeMeters>1112.800048828125</AltitudeMeters>
            <DistanceMeters>NAN</DistanceMeters>
          </Trackpoint>
          <Trackpoint>
            <Time>2021-08-01T15:01:40.000Z</Time>
            <Position>
              <LatitudeDegrees>-15.3647609241306781768798828125</LatitudeDegrees>
              <LongitudeDegrees>37.08935030736029148101806640625</LongitudeDegrees>
            </Position>
            <AltitudeMeters>1113.4000244140625</AltitudeMeters>
            <DistanceMeters>NAN</DistanceMeters>
          </Trackpoint>
          <Trackpoint>
            <Time>2021-08-01T15:01:43.000Z</Time>
            <Position>
              <LatitudeDegrees>-15.36472898907959461212158203125</LatitudeDegrees>
              <LongitudeDegrees>37.08936338312923908233642578125</LongitudeDegrees>
            </Position>
            <AltitudeMeters>1113.5999755859375</AltitudeMeters>
            <DistanceMeters>NAN</DistanceMeters>
          </Trackpoint>
          <Trackpoint>
            <Time>2021-08-01T15:01:48.000Z</Time>
            <Position>
              <LatitudeDegrees>-15.364682972431182861328125</LatitudeDegrees>
              <LongitudeDegrees>37.0893721841275691986083984375</LongitudeDegrees>
            </Position>
            <AltitudeMeters>1114.5999755859375</AltitudeMeters>
            <DistanceMeters>NAN</DistanceMeters>
          </Trackpoint>
          <Trackpoint>
            <Time>2021-08-01T15:01:51.000Z</Time>
            <Position>
              <LatitudeDegrees>-15.3646516241133213043212890625</LatitudeDegrees>
              <LongitudeDegrees>37.08937310613691806793212890625</LongitudeDegrees>
            </Position>
            <AltitudeMeters>1114.800048828125</AltitudeMeters>
            <DistanceMeters>NAN</DistanceMeters>
          </Trackpoint>
          <Trackpoint>
            <Time>2021-08-01T15:01:59.000Z</Time>
            <Position>
              <LatitudeDegrees>-15.3645661287009716033935546875</LatitudeDegrees>
              <LongitudeDegrees>37.08936162292957305908203125</LongitudeDegrees>
            </Position>
            <AltitudeMeters>1114.800048828125</AltitudeMeters>
            <DistanceMeters>NAN</DistanceMeters>
          </Trackpoint>
          <Trackpoint>
            <Time>2021-08-01T15:02:03.000Z</Time>
            <Position>
              <LatitudeDegrees>-15.3645212016999721527099609375</LatitudeDegrees>
              <LongitudeDegrees>37.0893554203212261199951171875</LongitudeDegrees>
            </Position>
            <AltitudeMeters>1114.800048828125</AltitudeMeters>
            <DistanceMeters>NAN</DistanceMeters>
          </Trackpoint>
          <Trackpoint>
            <Time>2021-08-01T15:02:08.000Z</Time>
            <Position>
              <LatitudeDegrees>-15.36447099409997463226318359375</LatitudeDegrees>
              <LongitudeDegrees>37.08937109448015689849853515625</LongitudeDegrees>
            </Position>
            <AltitudeMeters>1115.199951171875</AltitudeMeters>
            <DistanceMeters>NAN</DistanceMeters>
          </Trackpoint>
          <Trackpoint>
            <Time>2021-08-01T15:02:14.000Z</Time>
            <Position>
              <LatitudeDegrees>-15.364405699074268341064453125</LatitudeDegrees>
              <LongitudeDegrees>37.08938098512589931488037109375</LongitudeDegrees>
            </Position>
            <AltitudeMeters>1115.4000244140625</AltitudeMeters>
            <DistanceMeters>NAN</DistanceMeters>
          </Trackpoint>
          <Trackpoint>
            <Time>2021-08-01T15:02:15.000Z</Time>
            <Position>
              <LatitudeDegrees>-15.364396311342716217041015625</LatitudeDegrees>
              <LongitudeDegrees>37.08937997929751873016357421875</LongitudeDegrees>
            </Position>
            <AltitudeMeters>1115.5999755859375</AltitudeMeters>
            <DistanceMeters>NAN</DistanceMeters>
          </Trackpoint>
          <Trackpoint>
            <Time>2021-08-01T15:02:17.000Z</Time>
            <Position>
              <LatitudeDegrees>-15.36437694914638996124267578125</LatitudeDegrees>
              <LongitudeDegrees>37.08938249386847019195556640625</LongitudeDegrees>
            </Position>
            <AltitudeMeters>1115.800048828125</AltitudeMeters>
            <DistanceMeters>NAN</DistanceMeters>
          </Trackpoint>
          <Trackpoint>
            <Time>2021-08-01T15:02:20.000Z</Time>
            <Position>
              <LatitudeDegrees>-15.36435448564589023590087890625</LatitudeDegrees>
              <LongitudeDegrees>37.0893886126577854156494140625</LongitudeDegrees>
            </Position>
            <AltitudeMeters>1116.199951171875</AltitudeMeters>
            <DistanceMeters>NAN</DistanceMeters>
          </Trackpoint>
          <Trackpoint>
            <Time>2021-08-01T15:02:25.000Z</Time>
            <Position>
              <LatitudeDegrees>-15.36431081593036651611328125</LatitudeDegrees>
              <LongitudeDegrees>37.089411914348602294921875</LongitudeDegrees>
            </Position>
            <AltitudeMeters>1116.5999755859375</AltitudeMeters>
            <DistanceMeters>NAN</DistanceMeters>
          </Trackpoint>
          <Trackpoint>
            <Time>2021-08-01T15:02:26.000Z</Time>
            <Position>
              <LatitudeDegrees>-15.36430251784622669219970703125</LatitudeDegrees>
              <LongitudeDegrees>37.08941400982439517974853515625</LongitudeDegrees>
            </Position>
            <AltitudeMeters>1116.800048828125</AltitudeMeters>
            <DistanceMeters>NAN</DistanceMeters>
          </Trackpoint>
          <Trackpoint>
            <Time>2021-08-01T15:02:35.000Z</Time>
            <Position>
              <LatitudeDegrees>-15.36421953700482845306396484375</LatitudeDegrees>
              <LongitudeDegrees>37.0894405804574489593505859375</LongitudeDegrees>
            </Position>
            <AltitudeMeters>1117.5999755859375</AltitudeMeters>
            <DistanceMeters>NAN</DistanceMeters>
          </Trackpoint>
          <Trackpoint>
            <Time>2021-08-01T15:02:37.000Z</Time>
            <Position>
              <LatitudeDegrees>-15.3641956485807895660400390625</LatitudeDegrees>
              <LongitudeDegrees>37.08944602869451045989990234375</LongitudeDegrees>
            </Position>
            <AltitudeMeters>1117.800048828125</AltitudeMeters>
            <DistanceMeters>NAN</DistanceMeters>
          </Trackpoint>
          <Trackpoint>
            <Time>2021-08-01T15:02:38.000Z</Time>
            <Position>
              <LatitudeDegrees>-15.364184081554412841796875</LatitudeDegrees>
              <LongitudeDegrees>37.08945013582706451416015625</LongitudeDegrees>
            </Position>
            <AltitudeMeters>1118</AltitudeMeters>
            <DistanceMeters>NAN</DistanceMeters>
          </Trackpoint>
          <Trackpoint>
            <Time>2021-08-01T15:02:44.000Z</Time>
            <Position>
              <LatitudeDegrees>-15.36412448622286319732666015625</LatitudeDegrees>
              <LongitudeDegrees>37.089454494416713714599609375</LongitudeDegrees>
            </Position>
            <AltitudeMeters>1119</AltitudeMeters>
            <DistanceMeters>NAN</DistanceMeters>
          </Trackpoint>
          <Trackpoint>
            <Time>2021-08-01T15:02:52.000Z</Time>
            <Position>
              <LatitudeDegrees>-15.36403832025825977325439453125</LatitudeDegrees>
              <LongitudeDegrees>37.08949447609484195709228515625</LongitudeDegrees>
            </Position>
            <AltitudeMeters>1120</AltitudeMeters>
            <DistanceMeters>NAN</DistanceMeters>
          </Trackpoint>
          <Trackpoint>
            <Time>2021-08-01T15:02:53.000Z</Time>
            <Position>
              <LatitudeDegrees>-15.364028178155422210693359375</LatitudeDegrees>
              <LongitudeDegrees>37.0894962362945079803466796875</LongitudeDegrees>
            </Position>
            <AltitudeMeters>1120.199951171875</AltitudeMeters>
            <DistanceMeters>NAN</DistanceMeters>
          </Trackpoint>
          <Trackpoint>
            <Time>2021-08-01T15:02:56.000Z</Time>
            <Position>
              <LatitudeDegrees>-15.36399993114173412322998046875</LatitudeDegrees>
              <LongitudeDegrees>37.08949967287480831146240234375</LongitudeDegrees>
            </Position>
            <AltitudeMeters>1120.800048828125</AltitudeMeters>
            <DistanceMeters>NAN</DistanceMeters>
          </Trackpoint>
          <Trackpoint>
            <Time>2021-08-01T15:02:59.000Z</Time>
            <Position>
              <LatitudeDegrees>-15.36397553980350494384765625</LatitudeDegrees>
              <LongitudeDegrees>37.08949984051287174224853515625</LongitudeDegrees>
            </Position>
            <AltitudeMeters>1121</AltitudeMeters>
            <DistanceMeters>NAN</DistanceMeters>
          </Trackpoint>
          <Trackpoint>
            <Time>2021-08-01T15:03:04.000Z</Time>
            <Position>
              <LatitudeDegrees>-15.3639371506869792938232421875</LatitudeDegrees>
              <LongitudeDegrees>37.08949841558933258056640625</LongitudeDegrees>
            </Position>
            <AltitudeMeters>1120.800048828125</AltitudeMeters>
            <DistanceMeters>NAN</DistanceMeters>
          </Trackpoint>
          <Trackpoint>
            <Time>2021-08-01T15:03:07.000Z</Time>
            <Position>
              <LatitudeDegrees>-15.36390806548297405242919921875</LatitudeDegrees>
              <LongitudeDegrees>37.08950201980769634246826171875</LongitudeDegrees>
            </Position>
            <AltitudeMeters>1120.800048828125</AltitudeMeters>
            <DistanceMeters>NAN</DistanceMeters>
          </Trackpoint>
          <Trackpoint>
            <Time>2021-08-01T15:03:15.000Z</Time>
            <Position>
              <LatitudeDegrees>-15.36381385289132595062255859375</LatitudeDegrees>
              <LongitudeDegrees>37.08946983329951763153076171875</LongitudeDegrees>
            </Position>
            <AltitudeMeters>1120.4000244140625</AltitudeMeters>
            <DistanceMeters>NAN</DistanceMeters>
          </Trackpoint>
          <Trackpoint>
            <Time>2021-08-01T15:03:24.000Z</Time>
            <Position>
              <LatitudeDegrees>-15.363713689148426055908203125</LatitudeDegrees>
              <LongitudeDegrees>37.08943613804876804351806640625</LongitudeDegrees>
            </Position>
            <AltitudeMeters>1120.5999755859375</AltitudeMeters>
            <DistanceMeters>NAN</DistanceMeters>
          </Trackpoint>
          <Trackpoint>
            <Time>2021-08-01T15:03:30.000Z</Time>
            <Position>
              <LatitudeDegrees>-15.36366230808198451995849609375</LatitudeDegrees>
              <LongitudeDegrees>37.08940495736896991729736328125</LongitudeDegrees>
            </Position>
            <AltitudeMeters>1121.5999755859375</AltitudeMeters>
            <DistanceMeters>NAN</DistanceMeters>
          </Trackpoint>
          <Trackpoint>
            <Time>2021-08-01T15:03:32.000Z</Time>
            <Position>
              <LatitudeDegrees>-15.36364705301821231842041015625</LatitudeDegrees>
              <LongitudeDegrees>37.089394815266132354736328125</LongitudeDegrees>
            </Position>
            <AltitudeMeters>1122</AltitudeMeters>
            <DistanceMeters>NAN</DistanceMeters>
          </Trackpoint>
          <Trackpoint>
            <Time>2021-08-01T15:03:39.000Z</Time>
            <Position>
              <LatitudeDegrees>-15.363571532070636749267578125</LatitudeDegrees>
              <LongitudeDegrees>37.0893802307546138763427734375</LongitudeDegrees>
            </Position>
            <AltitudeMeters>1122.5999755859375</AltitudeMeters>
            <DistanceMeters>NAN</DistanceMeters>
          </Trackpoint>
          <Trackpoint>
            <Time>2021-08-01T15:03:43.000Z</Time>
            <Position>
              <LatitudeDegrees>-15.363529287278652191162109375</LatitudeDegrees>
              <LongitudeDegrees>37.08937444724142551422119140625</LongitudeDegrees>
            </Position>
            <AltitudeMeters>1122.5999755859375</AltitudeMeters>
            <DistanceMeters>NAN</DistanceMeters>
          </Trackpoint>
          <Trackpoint>
            <Time>2021-08-01T15:03:54.000Z</Time>
            <Position>
              <LatitudeDegrees>-15.363421328365802764892578125</LatitudeDegrees>
              <LongitudeDegrees>37.08933480083942413330078125</LongitudeDegrees>
            </Position>
            <AltitudeMeters>1123.199951171875</AltitudeMeters>
            <DistanceMeters>NAN</DistanceMeters>
          </Trackpoint>
          <Trackpoint>
            <Time>2021-08-01T15:03:57.000Z</Time>
            <Position>
              <LatitudeDegrees>-15.36339190788567066192626953125</LatitudeDegrees>
              <LongitudeDegrees>37.08931560628116130828857421875</LongitudeDegrees>
            </Position>
            <AltitudeMeters>1123</AltitudeMeters>
            <DistanceMeters>NAN</DistanceMeters>
          </Trackpoint>
          <Trackpoint>
            <Time>2021-08-01T15:04:03.000Z</Time>
            <Position>
              <LatitudeDegrees>-15.3633370064198970794677734375</LatitudeDegrees>
              <LongitudeDegrees>37.0892952382564544677734375</LongitudeDegrees>
            </Position>
            <AltitudeMeters>1122.5999755859375</AltitudeMeters>
            <DistanceMeters>NAN</DistanceMeters>
          </Trackpoint>
          <Trackpoint>
            <Time>2021-08-01T15:04:05.000Z</Time>
            <Position>
              <LatitudeDegrees>-15.3633158840239048004150390625</LatitudeDegrees>
              <LongitudeDegrees>37.08928920328617095947265625</LongitudeDegrees>
            </Position>
            <AltitudeMeters>1121.5999755859375</AltitudeMeters>
            <DistanceMeters>NAN</DistanceMeters>
          </Trackpoint>
          <Trackpoint>
            <Time>2021-08-01T15:04:06.000Z</Time>
            <Position>
              <LatitudeDegrees>-15.3633014671504497528076171875</LatitudeDegrees>
              <LongitudeDegrees>37.08928526379168033599853515625</LongitudeDegrees>
            </Position>
            <AltitudeMeters>1121.199951171875</AltitudeMeters>
            <DistanceMeters>NAN</DistanceMeters>
          </Trackpoint>
          <Trackpoint>
            <Time>2021-08-01T15:04:12.000Z</Time>
            <Position>
              <LatitudeDegrees>-15.36321924068033695220947265625</LatitudeDegrees>
              <LongitudeDegrees>37.08926917053759098052978515625</LongitudeDegrees>
            </Position>
            <AltitudeMeters>1120.4000244140625</AltitudeMeters>
            <DistanceMeters>NAN</DistanceMeters>
          </Trackpoint>
          <Trackpoint>
            <Time>2021-08-01T15:04:13.000Z</Time>
            <Position>
              <LatitudeDegrees>-15.36320851184427738189697265625</LatitudeDegrees>
              <LongitudeDegrees>37.08927034400403499603271484375</LongitudeDegrees>
            </Position>
            <AltitudeMeters>1120</AltitudeMeters>
            <DistanceMeters>NAN</DistanceMeters>
          </Trackpoint>
          <Trackpoint>
            <Time>2021-08-01T15:04:19.000Z</Time>
            <Position>
              <LatitudeDegrees>-15.3631428815424442291259765625</LatitudeDegrees>
              <LongitudeDegrees>37.08927487023174762725830078125</LongitudeDegrees>
            </Position>
            <AltitudeMeters>1119.199951171875</AltitudeMeters>
            <DistanceMeters>NAN</DistanceMeters>
          </Trackpoint>
          <Trackpoint>
            <Time>2021-08-01T15:04:20.000Z</Time>
            <Position>
              <LatitudeDegrees>-15.3631284646689891815185546875</LatitudeDegrees>
              <LongitudeDegrees>37.08927554078400135040283203125</LongitudeDegrees>
            </Position>
            <AltitudeMeters>1119</AltitudeMeters>
            <DistanceMeters>NAN</DistanceMeters>
          </Trackpoint>
          <Trackpoint>
            <Time>2021-08-01T15:04:28.000Z</Time>
            <Position>
              <LatitudeDegrees>-15.363016314804553985595703125</LatitudeDegrees>
              <LongitudeDegrees>37.08929163403809070587158203125</LongitudeDegrees>
            </Position>
            <AltitudeMeters>1117.5999755859375</AltitudeMeters>
            <DistanceMeters>NAN</DistanceMeters>
          </Trackpoint>
          <Trackpoint>
            <Time>2021-08-01T15:04:38.000Z</Time>
            <Position>
              <LatitudeDegrees>-15.3629034943878650665283203125</LatitudeDegrees>
              <LongitudeDegrees>37.08929817192256450653076171875</LongitudeDegrees>
            </Position>
            <AltitudeMeters>1117</AltitudeMeters>
            <DistanceMeters>NAN</DistanceMeters>
          </Trackpoint>
          <Trackpoint>
            <Time>2021-08-01T15:04:42.000Z</Time>
            <Position>
              <LatitudeDegrees>-15.362856388092041015625</LatitudeDegrees>
              <LongitudeDegrees>37.0892974175512790679931640625</LongitudeDegrees>
            </Position>
            <AltitudeMeters>1116.5999755859375</AltitudeMeters>
            <DistanceMeters>NAN</DistanceMeters>
          </Trackpoint>
          <Trackpoint>
            <Time>2021-08-01T15:04:44.000Z</Time>
            <Position>
              <LatitudeDegrees>-15.3628320805728435516357421875</LatitudeDegrees>
              <LongitudeDegrees>37.0892917178571224212646484375</LongitudeDegrees>
            </Position>
            <AltitudeMeters>1116.4000244140625</AltitudeMeters>
            <DistanceMeters>NAN</DistanceMeters>
          </Trackpoint>
          <Trackpoint>
            <Time>2021-08-01T15:04:47.000Z</Time>
            <Position>
              <LatitudeDegrees>-15.36279402673244476318359375</LatitudeDegrees>
              <LongitudeDegrees>37.0892769657075405120849609375</LongitudeDegrees>
            </Position>
            <AltitudeMeters>1116.4000244140625</AltitudeMeters>
            <DistanceMeters>NAN</DistanceMeters>
          </Trackpoint>
          <Trackpoint>
            <Time>2021-08-01T15:04:50.000Z</Time>
            <Position>
              <LatitudeDegrees>-15.36275924183428287506103515625</LatitudeDegrees>
              <LongitudeDegrees>37.0892751216888427734375</LongitudeDegrees>
            </Position>
            <AltitudeMeters>1116.199951171875</AltitudeMeters>
            <DistanceMeters>NAN</DistanceMeters>
          </Trackpoint>
          <Trackpoint>
            <Time>2021-08-01T15:04:59.000Z</Time>
            <Position>
              <LatitudeDegrees>-15.3626565635204315185546875</LatitudeDegrees>
              <LongitudeDegrees>37.089260034263134002685546875</LongitudeDegrees>
            </Position>
            <AltitudeMeters>1116.199951171875</AltitudeMeters>
            <DistanceMeters>NAN</DistanceMeters>
          </Trackpoint>
          <Trackpoint>
            <Time>2021-08-01T15:05:09.000Z</Time>
            <Position>
              <LatitudeDegrees>-15.36253326572477817535400390625</LatitudeDegrees>
              <LongitudeDegrees>37.08925123326480388641357421875</LongitudeDegrees>
            </Position>
            <AltitudeMeters>1116.4000244140625</AltitudeMeters>
            <DistanceMeters>NAN</DistanceMeters>
          </Trackpoint>
          <Trackpoint>
            <Time>2021-08-01T15:05:20.000Z</Time>
            <Position>
              <LatitudeDegrees>-15.36239228211343288421630859375</LatitudeDegrees>
              <LongitudeDegrees>37.08925559185445308685302734375</LongitudeDegrees>
            </Position>
            <AltitudeMeters>1116.5999755859375</AltitudeMeters>
            <DistanceMeters>NAN</DistanceMeters>
          </Trackpoint>
          <Trackpoint>
            <Time>2021-08-01T15:05:30.000Z</Time>
            <Position>
              <LatitudeDegrees>-15.36227895878255367279052734375</LatitudeDegrees>
              <LongitudeDegrees>37.0892115868628025054931640625</LongitudeDegrees>
            </Position>
            <AltitudeMeters>1117.4000244140625</AltitudeMeters>
            <DistanceMeters>NAN</DistanceMeters>
          </Trackpoint>
          <Trackpoint>
            <Time>2021-08-01T15:05:31.000Z</Time>
            <Position>
              <LatitudeDegrees>-15.3622681461274623870849609375</LatitudeDegrees>
              <LongitudeDegrees>37.089206390082836151123046875</LongitudeDegrees>
            </Position>
            <AltitudeMeters>1117.4000244140625</AltitudeMeters>
            <DistanceMeters>NAN</DistanceMeters>
          </Trackpoint>
          <Trackpoint>
            <Time>2021-08-01T15:05:33.000Z</Time>
            <Position>
              <LatitudeDegrees>-15.3622488677501678466796875</LatitudeDegrees>
              <LongitudeDegrees>37.08919457159936428070068359375</LongitudeDegrees>
            </Position>
            <AltitudeMeters>1117.5999755859375</AltitudeMeters>
            <DistanceMeters>NAN</DistanceMeters>
          </Trackpoint>
          <Trackpoint>
            <Time>2021-08-01T15:05:39.000Z</Time>
            <Position>
              <LatitudeDegrees>-15.3621799685060977935791015625</LatitudeDegrees>
              <LongitudeDegrees>37.0891669951379299163818359375</LongitudeDegrees>
            </Position>
            <AltitudeMeters>1118</AltitudeMeters>
            <DistanceMeters>NAN</DistanceMeters>
          </Trackpoint>
          <Trackpoint>
            <Time>2021-08-01T15:05:42.000Z</Time>
            <Position>
              <LatitudeDegrees>-15.362146608531475067138671875</LatitudeDegrees>
              <LongitudeDegrees>37.089155428111553192138671875</LongitudeDegrees>
            </Position>
            <AltitudeMeters>1118</AltitudeMeters>
            <DistanceMeters>NAN</DistanceMeters>
          </Trackpoint>
          <Trackpoint>
            <Time>2021-08-01T15:05:50.000Z</Time>
            <Position>
              <LatitudeDegrees>-15.36205952055752277374267578125</LatitudeDegrees>
              <LongitudeDegrees>37.089127600193023681640625</LongitudeDegrees>
            </Position>
            <AltitudeMeters>1118.4000244140625</AltitudeMeters>
            <DistanceMeters>NAN</DistanceMeters>
          </Trackpoint>
          <Trackpoint>
            <Time>2021-08-01T15:05:52.000Z</Time>
            <Position>
              <LatitudeDegrees>-15.36203219555318355560302734375</LatitudeDegrees>
              <LongitudeDegrees>37.0891180448234081268310546875</LongitudeDegrees>
            </Position>
            <AltitudeMeters>1118.5999755859375</AltitudeMeters>
            <DistanceMeters>NAN</DistanceMeters>
          </Trackpoint>
          <Trackpoint>
            <Time>2021-08-01T15:06:02.000Z</Time>
            <Position>
              <LatitudeDegrees>-15.36191535182297229766845703125</LatitudeDegrees>
              <LongitudeDegrees>37.08908426575362682342529296875</LongitudeDegrees>
            </Position>
            <AltitudeMeters>1119.4000244140625</AltitudeMeters>
            <DistanceMeters>NAN</DistanceMeters>
          </Trackpoint>
          <Trackpoint>
            <Time>2021-08-01T15:06:06.000Z</Time>
            <Position>
              <LatitudeDegrees>-15.36187863908708095550537109375</LatitudeDegrees>
              <LongitudeDegrees>37.089080996811389923095703125</LongitudeDegrees>
            </Position>
            <AltitudeMeters>1119.800048828125</AltitudeMeters>
            <DistanceMeters>NAN</DistanceMeters>
          </Trackpoint>
          <Trackpoint>
            <Time>2021-08-01T15:06:12.000Z</Time>
            <Position>
              <LatitudeDegrees>-15.36181527189910411834716796875</LatitudeDegrees>
              <LongitudeDegrees>37.089069597423076629638671875</LongitudeDegrees>
            </Position>
            <AltitudeMeters>1120.199951171875</AltitudeMeters>
            <DistanceMeters>NAN</DistanceMeters>
          </Trackpoint>
          <Trackpoint>
            <Time>2021-08-01T15:06:13.000Z</Time>
            <Position>
              <LatitudeDegrees>-15.36180504597723484039306640625</LatitudeDegrees>
              <LongitudeDegrees>37.08906532265245914459228515625</LongitudeDegrees>
            </Position>
            <AltitudeMeters>1120.199951171875</AltitudeMeters>
            <DistanceMeters>NAN</DistanceMeters>
          </Trackpoint>
          <Trackpoint>
            <Time>2021-08-01T15:06:18.000Z</Time>
            <Position>
              <LatitudeDegrees>-15.36177922971546649932861328125</LatitudeDegrees>
              <LongitudeDegrees>37.08906264044344425201416015625</LongitudeDegrees>
            </Position>
            <AltitudeMeters>1120.800048828125</AltitudeMeters>
            <DistanceMeters>NAN</DistanceMeters>
          </Trackpoint>
          <Trackpoint>
            <Time>2021-08-01T15:06:20.000Z</Time>
            <Position>
              <LatitudeDegrees>-15.36176380701363086700439453125</LatitudeDegrees>
              <LongitudeDegrees>37.08905610255897045135498046875</LongitudeDegrees>
            </Position>
            <AltitudeMeters>1121</AltitudeMeters>
            <DistanceMeters>NAN</DistanceMeters>
          </Trackpoint>
          <Trackpoint>
            <Time>2021-08-01T15:06:23.000Z</Time>
            <Position>
              <LatitudeDegrees>-15.36173296160995960235595703125</LatitudeDegrees>
              <LongitudeDegrees>37.08905090577900409698486328125</LongitudeDegrees>
            </Position>
            <AltitudeMeters>1121.199951171875</AltitudeMeters>
            <DistanceMeters>NAN</DistanceMeters>
          </Trackpoint>
          <Trackpoint>
            <Time>2021-08-01T15:06:26.000Z</Time>
            <Position>
              <LatitudeDegrees>-15.361703373491764068603515625</LatitudeDegrees>
              <LongitudeDegrees>37.08903715945780277252197265625</LongitudeDegrees>
            </Position>
            <AltitudeMeters>1121.4000244140625</AltitudeMeters>
            <DistanceMeters>NAN</DistanceMeters>
          </Trackpoint>
          <Trackpoint>
            <Time>2021-08-01T15:06:29.000Z</Time>
            <Position>
              <LatitudeDegrees>-15.36167412064969539642333984375</LatitudeDegrees>
              <LongitudeDegrees>37.08901687525212764739990234375</LongitudeDegrees>
            </Position>
            <AltitudeMeters>1121.800048828125</AltitudeMeters>
            <DistanceMeters>NAN</DistanceMeters>
          </Trackpoint>
          <Trackpoint>
            <Time>2021-08-01T15:06:31.000Z</Time>
            <Position>
              <LatitudeDegrees>-15.36165534518659114837646484375</LatitudeDegrees>
              <LongitudeDegrees>37.08900262601673603057861328125</LongitudeDegrees>
            </Position>
            <AltitudeMeters>1122</AltitudeMeters>
            <DistanceMeters>NAN</DistanceMeters>
          </Trackpoint>
          <Trackpoint>
            <Time>2021-08-01T15:06:39.000Z</Time>
            <Position>
              <LatitudeDegrees>-15.36157605238258838653564453125</LatitudeDegrees>
              <LongitudeDegrees>37.088972032070159912109375</LongitudeDegrees>
            </Position>
            <AltitudeMeters>1122.199951171875</AltitudeMeters>
            <DistanceMeters>NAN</DistanceMeters>
          </Trackpoint>
          <Trackpoint>
            <Time>2021-08-01T15:06:43.000Z</Time>
            <Position>
              <LatitudeDegrees>-15.3615466319024562835693359375</LatitudeDegrees>
              <LongitudeDegrees>37.08894227631390094757080078125</LongitudeDegrees>
            </Position>
            <AltitudeMeters>1122.199951171875</AltitudeMeters>
            <DistanceMeters>NAN</DistanceMeters>
          </Trackpoint>
          <Trackpoint>
            <Time>2021-08-01T15:06:45.000Z</Time>
            <Position>
              <LatitudeDegrees>-15.36153011955320835113525390625</LatitudeDegrees>
              <LongitudeDegrees>37.0889250934123992919921875</LongitudeDegrees>
            </Position>
            <AltitudeMeters>1122.199951171875</AltitudeMeters>
            <DistanceMeters>NAN</DistanceMeters>
          </Trackpoint>
          <Trackpoint>
            <Time>2021-08-01T15:06:47.000Z</Time>
            <Position>
              <LatitudeDegrees>-15.3615161217749118804931640625</LatitudeDegrees>
              <LongitudeDegrees>37.0889088325202465057373046875</LongitudeDegrees>
            </Position>
            <AltitudeMeters>1122.199951171875</AltitudeMeters>
            <DistanceMeters>NAN</DistanceMeters>
          </Trackpoint>
          <Trackpoint>
            <Time>2021-08-01T15:06:48.000Z</Time>
            <Position>
              <LatitudeDegrees>-15.3615087457001209259033203125</LatitudeDegrees>
              <LongitudeDegrees>37.08890162408351898193359375</LongitudeDegrees>
            </Position>
            <AltitudeMeters>1122</AltitudeMeters>
            <DistanceMeters>NAN</DistanceMeters>
          </Trackpoint>
          <Trackpoint>
            <Time>2021-08-01T15:06:50.000Z</Time>
            <Position>
              <LatitudeDegrees>-15.361486785113811492919921875</LatitudeDegrees>
              <LongitudeDegrees>37.08888896740972995758056640625</LongitudeDegrees>
            </Position>
            <AltitudeMeters>1122</AltitudeMeters>
            <DistanceMeters>NAN</DistanceMeters>
          </Trackpoint>
          <Trackpoint>
            <Time>2021-08-01T15:06:51.000Z</Time>
            <Position>
              <LatitudeDegrees>-15.3614790737628936767578125</LatitudeDegrees>
              <LongitudeDegrees>37.08888418972492218017578125</LongitudeDegrees>
            </Position>
            <AltitudeMeters>1122.199951171875</AltitudeMeters>
            <DistanceMeters>NAN</DistanceMeters>
          </Trackpoint>
          <Trackpoint>
            <Time>2021-08-01T15:06:52.000Z</Time>
            <Position>
              <LatitudeDegrees>-15.36146993748843669891357421875</LatitudeDegrees>
              <LongitudeDegrees>37.08887656219303607940673828125</LongitudeDegrees>
            </Position>
            <AltitudeMeters>1122.199951171875</AltitudeMeters>
            <DistanceMeters>NAN</DistanceMeters>
          </Trackpoint>
          <Trackpoint>
            <Time>2021-08-01T15:06:55.000Z</Time>
            <Position>
              <LatitudeDegrees>-15.36144227720797061920166015625</LatitudeDegrees>
              <LongitudeDegrees>37.08885946311056613922119140625</LongitudeDegrees>
            </Position>
            <AltitudeMeters>1122.4000244140625</AltitudeMeters>
            <DistanceMeters>NAN</DistanceMeters>
          </Trackpoint>
          <Trackpoint>
            <Time>2021-08-01T15:06:59.000Z</Time>
            <Position>
              <LatitudeDegrees>-15.3614125214517116546630859375</LatitudeDegrees>
              <LongitudeDegrees>37.08884202875196933746337890625</LongitudeDegrees>
            </Position>
            <AltitudeMeters>1122.5999755859375</AltitudeMeters>
            <DistanceMeters>NAN</DistanceMeters>
          </Trackpoint>
          <Trackpoint>
            <Time>2021-08-01T15:07:00.000Z</Time>
            <Position>
              <LatitudeDegrees>-15.36140657030045986175537109375</LatitudeDegrees>
              <LongitudeDegrees>37.0888392627239227294921875</LongitudeDegrees>
            </Position>
            <AltitudeMeters>1123</AltitudeMeters>
            <DistanceMeters>NAN</DistanceMeters>
          </Trackpoint>
          <Trackpoint>
            <Time>2021-08-01T15:07:03.000Z</Time>
            <Position>
              <LatitudeDegrees>-15.36138863302767276763916015625</LatitudeDegrees>
              <LongitudeDegrees>37.0888240076601505279541015625</LongitudeDegrees>
            </Position>
            <AltitudeMeters>1123.4000244140625</AltitudeMeters>
            <DistanceMeters>NAN</DistanceMeters>
          </Trackpoint>
          <Trackpoint>
            <Time>2021-08-01T15:07:04.000Z</Time>
            <Position>
              <LatitudeDegrees>-15.36138125695288181304931640625</LatitudeDegrees>
              <LongitudeDegrees>37.0888226665556430816650390625</LongitudeDegrees>
            </Position>
            <AltitudeMeters>1124</AltitudeMeters>
            <DistanceMeters>NAN</DistanceMeters>
          </Trackpoint>
          <Trackpoint>
            <Time>2021-08-01T15:07:06.000Z</Time>
            <Position>
              <LatitudeDegrees>-15.36136466078460216522216796875</LatitudeDegrees>
              <LongitudeDegrees>37.08881956525146961212158203125</LongitudeDegrees>
            </Position>
            <AltitudeMeters>1124.199951171875</AltitudeMeters>
            <DistanceMeters>NAN</DistanceMeters>
          </Trackpoint>
          <Trackpoint>
            <Time>2021-08-01T15:07:12.000Z</Time>
            <Position>
              <LatitudeDegrees>-15.361299701035022735595703125</LatitudeDegrees>
              <LongitudeDegrees>37.088828869163990020751953125</LongitudeDegrees>
            </Position>
            <AltitudeMeters>1125.199951171875</AltitudeMeters>
            <DistanceMeters>NAN</DistanceMeters>
          </Trackpoint>
          <Trackpoint>
            <Time>2021-08-01T15:07:13.000Z</Time>
            <Position>
              <LatitudeDegrees>-15.361292324960231781005859375</LatitudeDegrees>
              <LongitudeDegrees>37.08882610313594341278076171875</LongitudeDegrees>
            </Position>
            <AltitudeMeters>1125.4000244140625</AltitudeMeters>
            <DistanceMeters>NAN</DistanceMeters>
          </Trackpoint>
          <Trackpoint>
            <Time>2021-08-01T15:07:17.000Z</Time>
            <Position>
              <LatitudeDegrees>-15.36126122809946537017822265625</LatitudeDegrees>
              <LongitudeDegrees>37.08881839178502559661865234375</LongitudeDegrees>
            </Position>
            <AltitudeMeters>1125.5999755859375</AltitudeMeters>
            <DistanceMeters>NAN</DistanceMeters>
          </Trackpoint>
          <Trackpoint>
            <Time>2021-08-01T15:07:20.000Z</Time>
            <Position>
              <LatitudeDegrees>-15.3612375073134899139404296875</LatitudeDegrees>
              <LongitudeDegrees>37.0888092555105686187744140625</LongitudeDegrees>
            </Position>
            <AltitudeMeters>1126.199951171875</AltitudeMeters>
            <DistanceMeters>NAN</DistanceMeters>
          </Trackpoint>
          <Trackpoint>
            <Time>2021-08-01T15:07:23.000Z</Time>
            <Position>
              <LatitudeDegrees>-15.36121848039329051971435546875</LatitudeDegrees>
              <LongitudeDegrees>37.088785283267498016357421875</LongitudeDegrees>
            </Position>
            <AltitudeMeters>1126.5999755859375</AltitudeMeters>
            <DistanceMeters>NAN</DistanceMeters>
          </Trackpoint>
          <Trackpoint>
            <Time>2021-08-01T15:07:25.000Z</Time>
            <Position>
              <LatitudeDegrees>-15.36120104603469371795654296875</LatitudeDegrees>
              <LongitudeDegrees>37.08877287805080413818359375</LongitudeDegrees>
            </Position>
            <AltitudeMeters>1126.800048828125</AltitudeMeters>
            <DistanceMeters>NAN</DistanceMeters>
          </Trackpoint>
          <Trackpoint>
            <Time>2021-08-01T15:07:27.000Z</Time>
            <Position>
              <LatitudeDegrees>-15.36118729971349239349365234375</LatitudeDegrees>
              <LongitudeDegrees>37.08876173011958599090576171875</LongitudeDegrees>
            </Position>
            <AltitudeMeters>1127.4000244140625</AltitudeMeters>
            <DistanceMeters>NAN</DistanceMeters>
          </Trackpoint>
          <Trackpoint>
            <Time>2021-08-01T15:07:30.000Z</Time>
            <Position>
              <LatitudeDegrees>-15.361166261136531829833984375</LatitudeDegrees>
              <LongitudeDegrees>37.08874764852225780487060546875</LongitudeDegrees>
            </Position>
            <AltitudeMeters>1127.800048828125</AltitudeMeters>
            <DistanceMeters>NAN</DistanceMeters>
          </Trackpoint>
          <Trackpoint>
            <Time>2021-08-01T15:07:36.000Z</Time>
            <Position>
              <LatitudeDegrees>-15.36110817454755306243896484375</LatitudeDegrees>
              <LongitudeDegrees>37.08871898241341114044189453125</LongitudeDegrees>
            </Position>
            <AltitudeMeters>1128.800048828125</AltitudeMeters>
            <DistanceMeters>NAN</DistanceMeters>
          </Trackpoint>
          <Trackpoint>
            <Time>2021-08-01T15:07:37.000Z</Time>
            <Position>
              <LatitudeDegrees>-15.36109878681600093841552734375</LatitudeDegrees>
              <LongitudeDegrees>37.08871697075664997100830078125</LongitudeDegrees>
            </Position>
            <AltitudeMeters>1129.199951171875</AltitudeMeters>
            <DistanceMeters>NAN</DistanceMeters>
          </Trackpoint>
          <Trackpoint>
            <Time>2021-08-01T15:07:41.000Z</Time>
            <Position>
              <LatitudeDegrees>-15.3610579669475555419921875</LatitudeDegrees>
              <LongitudeDegrees>37.0887113548815250396728515625</LongitudeDegrees>
            </Position>
            <AltitudeMeters>1130</AltitudeMeters>
            <DistanceMeters>NAN</DistanceMeters>
          </Trackpoint>
          <Trackpoint>
            <Time>2021-08-01T15:07:47.000Z</Time>
            <Position>
              <LatitudeDegrees>-15.361001975834369659423828125</LatitudeDegrees>
              <LongitudeDegrees>37.0886778272688388824462890625</LongitudeDegrees>
            </Position>
            <AltitudeMeters>1130.5999755859375</AltitudeMeters>
            <DistanceMeters>NAN</DistanceMeters>
          </Trackpoint>
          <Trackpoint>
            <Time>2021-08-01T15:07:51.000Z</Time>
            <Position>
              <LatitudeDegrees>-15.3609726391732692718505859375</LatitudeDegrees>
              <LongitudeDegrees>37.0886550284922122955322265625</LongitudeDegrees>
            </Position>
            <AltitudeMeters>1131</AltitudeMeters>
            <DistanceMeters>NAN</DistanceMeters>
          </Trackpoint>
          <Trackpoint>
            <Time>2021-08-01T15:07:56.000Z</Time>
            <Position>
              <LatitudeDegrees>-15.360926873981952667236328125</LatitudeDegrees>
              <LongitudeDegrees>37.08864144980907440185546875</LongitudeDegrees>
            </Position>
            <AltitudeMeters>1131.5999755859375</AltitudeMeters>
            <DistanceMeters>NAN</DistanceMeters>
          </Trackpoint>
          <Trackpoint>
            <Time>2021-08-01T15:08:03.000Z</Time>
            <Position>
              <LatitudeDegrees>-15.36087029613554477691650390625</LatitudeDegrees>
              <LongitudeDegrees>37.08860465325415134429931640625</LongitudeDegrees>
            </Position>
            <AltitudeMeters>1132.199951171875</AltitudeMeters>
            <DistanceMeters>NAN</DistanceMeters>
          </Trackpoint>
          <Trackpoint>
            <Time>2021-08-01T15:08:07.000Z</Time>
            <Position>
              <LatitudeDegrees>-15.36082855425775051116943359375</LatitudeDegrees>
              <LongitudeDegrees>37.08859660662710666656494140625</LongitudeDegrees>
            </Position>
            <AltitudeMeters>1132</AltitudeMeters>
            <DistanceMeters>NAN</DistanceMeters>
          </Trackpoint>
          <Trackpoint>
            <Time>2021-08-01T15:08:17.000Z</Time>
            <Position>
              <LatitudeDegrees>-15.36072746850550174713134765625</LatitudeDegrees>
              <LongitudeDegrees>37.08856777288019657135009765625</LongitudeDegrees>
            </Position>
            <AltitudeMeters>1132</AltitudeMeters>
            <DistanceMeters>NAN</DistanceMeters>
          </Trackpoint>
          <Trackpoint>
            <Time>2021-08-01T15:08:21.000Z</Time>
            <Position>
              <LatitudeDegrees>-15.3606878221035003662109375</LatitudeDegrees>
              <LongitudeDegrees>37.0885437168180942535400390625</LongitudeDegrees>
            </Position>
            <AltitudeMeters>1131.5999755859375</AltitudeMeters>
            <DistanceMeters>NAN</DistanceMeters>
          </Trackpoint>
          <Trackpoint>
            <Time>2021-08-01T15:08:24.000Z</Time>
            <Position>
              <LatitudeDegrees>-15.360657982528209686279296875</LatitudeDegrees>
              <LongitudeDegrees>37.0885205827653408050537109375</LongitudeDegrees>
            </Position>
            <AltitudeMeters>1131.4000244140625</AltitudeMeters>
            <DistanceMeters>NAN</DistanceMeters>
          </Trackpoint>
          <Trackpoint>
            <Time>2021-08-01T15:08:30.000Z</Time>
            <Position>
              <LatitudeDegrees>-15.3606065176427364349365234375</LatitudeDegrees>
              <LongitudeDegrees>37.08847456611692905426025390625</LongitudeDegrees>
            </Position>
            <AltitudeMeters>1131.4000244140625</AltitudeMeters>
            <DistanceMeters>NAN</DistanceMeters>
          </Trackpoint>
          <Trackpoint>
            <Time>2021-08-01T15:08:34.000Z</Time>
            <Position>
              <LatitudeDegrees>-15.36057625897228717803955078125</LatitudeDegrees>
              <LongitudeDegrees>37.0884357579052448272705078125</LongitudeDegrees>
            </Position>
            <AltitudeMeters>1131</AltitudeMeters>
            <DistanceMeters>NAN</DistanceMeters>
          </Trackpoint>
          <Trackpoint>
            <Time>2021-08-01T15:08:36.000Z</Time>
            <Position>
              <LatitudeDegrees>-15.360562764108180999755859375</LatitudeDegrees>
              <LongitudeDegrees>37.0884163118898868560791015625</LongitudeDegrees>
            </Position>
            <AltitudeMeters>1130.800048828125</AltitudeMeters>
            <DistanceMeters>NAN</DistanceMeters>
          </Trackpoint>
          <Trackpoint>
            <Time>2021-08-01T15:08:41.000Z</Time>
            <Position>
              <LatitudeDegrees>-15.36052546463906764984130859375</LatitudeDegrees>
              <LongitudeDegrees>37.0883733965456485748291015625</LongitudeDegrees>
            </Position>
            <AltitudeMeters>1130.800048828125</AltitudeMeters>
            <DistanceMeters>NAN</DistanceMeters>
          </Trackpoint>
          <Trackpoint>
            <Time>2021-08-01T15:08:44.000Z</Time>
            <Position>
              <LatitudeDegrees>-15.3605015762150287628173828125</LatitudeDegrees>
              <LongitudeDegrees>37.08835587836802005767822265625</LongitudeDegrees>
            </Position>
            <AltitudeMeters>1130.800048828125</AltitudeMeters>
            <DistanceMeters>NAN</DistanceMeters>
          </Trackpoint>
          <Trackpoint>
            <Time>2021-08-01T15:08:48.000Z</Time>
            <Position>
              <LatitudeDegrees>-15.360486321151256561279296875</LatitudeDegrees>
              <LongitudeDegrees>37.08834749646484851837158203125</LongitudeDegrees>
            </Position>
            <AltitudeMeters>1131.199951171875</AltitudeMeters>
            <DistanceMeters>NAN</DistanceMeters>
          </Trackpoint>
          <Trackpoint>
            <Time>2021-08-01T15:08:49.000Z</Time>
            <Position>
              <LatitudeDegrees>-15.3604811243712902069091796875</LatitudeDegrees>
              <LongitudeDegrees>37.08834766410291194915771484375</LongitudeDegrees>
            </Position>
            <AltitudeMeters>1131.199951171875</AltitudeMeters>
            <DistanceMeters>NAN</DistanceMeters>
          </Trackpoint>
          <Trackpoint>
            <Time>2021-08-01T15:08:51.000Z</Time>
            <Position>
              <LatitudeDegrees>-15.36046008579432964324951171875</LatitudeDegrees>
              <LongitudeDegrees>37.08834514953196048736572265625</LongitudeDegrees>
            </Position>
            <AltitudeMeters>1131</AltitudeMeters>
            <DistanceMeters>NAN</DistanceMeters>
          </Trackpoint>
          <Trackpoint>
            <Time>2021-08-01T15:08:55.000Z</Time>
            <Position>
              <LatitudeDegrees>-15.360411219298839569091796875</LatitudeDegrees>
              <LongitudeDegrees>37.08833207376301288604736328125</LongitudeDegrees>
            </Position>
            <AltitudeMeters>1131.199951171875</AltitudeMeters>
            <DistanceMeters>NAN</DistanceMeters>
          </Trackpoint>
          <Trackpoint>
            <Time>2021-08-01T15:08:56.000Z</Time>
            <Position>
              <LatitudeDegrees>-15.36039822734892368316650390625</LatitudeDegrees>
              <LongitudeDegrees>37.08832972683012485504150390625</LongitudeDegrees>
            </Position>
            <AltitudeMeters>1131.199951171875</AltitudeMeters>
            <DistanceMeters>NAN</DistanceMeters>
          </Trackpoint>
          <Trackpoint>
            <Time>2021-08-01T15:09:06.000Z</Time>
            <Position>
              <LatitudeDegrees>-15.36028054542839527130126953125</LatitudeDegrees>
              <LongitudeDegrees>37.08831581287086009979248046875</LongitudeDegrees>
            </Position>
            <AltitudeMeters>1131.800048828125</AltitudeMeters>
            <DistanceMeters>NAN</DistanceMeters>
          </Trackpoint>
          <Trackpoint>
            <Time>2021-08-01T15:09:11.000Z</Time>
            <Position>
              <LatitudeDegrees>-15.36022639833390712738037109375</LatitudeDegrees>
              <LongitudeDegrees>37.08829955197870731353759765625</LongitudeDegrees>
            </Position>
            <AltitudeMeters>1132.199951171875</AltitudeMeters>
            <DistanceMeters>NAN</DistanceMeters>
          </Trackpoint>
          <Trackpoint>
            <Time>2021-08-01T15:09:17.000Z</Time>
            <Position>
              <LatitudeDegrees>-15.36015280522406101226806640625</LatitudeDegrees>
              <LongitudeDegrees>37.08828203380107879638671875</LongitudeDegrees>
            </Position>
            <AltitudeMeters>1132.4000244140625</AltitudeMeters>
            <DistanceMeters>NAN</DistanceMeters>
          </Trackpoint>
          <Trackpoint>
            <Time>2021-08-01T15:09:23.000Z</Time>
            <Position>
              <LatitudeDegrees>-15.36009170114994049072265625</LatitudeDegrees>
              <LongitudeDegrees>37.08827532827854156494140625</LongitudeDegrees>
            </Position>
            <AltitudeMeters>1132.5999755859375</AltitudeMeters>
            <DistanceMeters>NAN</DistanceMeters>
          </Trackpoint>
          <Trackpoint>
            <Time>2021-08-01T15:09:32.000Z</Time>
            <Position>
              <LatitudeDegrees>-15.3599931299686431884765625</LatitudeDegrees>
              <LongitudeDegrees>37.08827541209757328033447265625</LongitudeDegrees>
            </Position>
            <AltitudeMeters>1132</AltitudeMeters>
            <DistanceMeters>NAN</DistanceMeters>
          </Trackpoint>
          <Trackpoint>
            <Time>2021-08-01T15:09:40.000Z</Time>
            <Position>
              <LatitudeDegrees>-15.35991224460303783416748046875</LatitudeDegrees>
              <LongitudeDegrees>37.08826786838471889495849609375</LongitudeDegrees>
            </Position>
            <AltitudeMeters>1131.800048828125</AltitudeMeters>
            <DistanceMeters>NAN</DistanceMeters>
          </Trackpoint>
          <Trackpoint>
            <Time>2021-08-01T15:09:42.000Z</Time>
            <Position>
              <LatitudeDegrees>-15.35989648662507534027099609375</LatitudeDegrees>
              <LongitudeDegrees>37.08826451562345027923583984375</LongitudeDegrees>
            </Position>
            <AltitudeMeters>1132.199951171875</AltitudeMeters>
            <DistanceMeters>NAN</DistanceMeters>
          </Trackpoint>
          <Trackpoint>
            <Time>2021-08-01T15:09:47.000Z</Time>
            <Position>
              <LatitudeDegrees>-15.35984627902507781982421875</LatitudeDegrees>
              <LongitudeDegrees>37.088250853121280670166015625</LongitudeDegrees>
            </Position>
            <AltitudeMeters>1132.4000244140625</AltitudeMeters>
            <DistanceMeters>NAN</DistanceMeters>
          </Trackpoint>
          <Trackpoint>
            <Time>2021-08-01T15:09:53.000Z</Time>
            <Position>
              <LatitudeDegrees>-15.35980847664177417755126953125</LatitudeDegrees>
              <LongitudeDegrees>37.08822864107787609100341796875</LongitudeDegrees>
            </Position>
            <AltitudeMeters>1132.199951171875</AltitudeMeters>
            <DistanceMeters>NAN</DistanceMeters>
          </Trackpoint>
          <Trackpoint>
            <Time>2021-08-01T15:09:58.000Z</Time>
            <Position>
              <LatitudeDegrees>-15.35979271866381168365478515625</LatitudeDegrees>
              <LongitudeDegrees>37.08823509514331817626953125</LongitudeDegrees>
            </Position>
            <AltitudeMeters>1132</AltitudeMeters>
            <DistanceMeters>NAN</DistanceMeters>
          </Trackpoint>
          <Trackpoint>
            <Time>2021-08-01T15:09:59.000Z</Time>
            <Position>
              <LatitudeDegrees>-15.35979087464511394500732421875</LatitudeDegrees>
              <LongitudeDegrees>37.08823484368622303009033203125</LongitudeDegrees>
            </Position>
            <AltitudeMeters>1131.800048828125</AltitudeMeters>
            <DistanceMeters>NAN</DistanceMeters>
          </Trackpoint>
          <Trackpoint>
            <Time>2021-08-01T15:10:05.000Z</Time>
            <Position>
              <LatitudeDegrees>-15.359759442508220672607421875</LatitudeDegrees>
              <LongitudeDegrees>37.08822579123079776763916015625</LongitudeDegrees>
            </Position>
            <AltitudeMeters>1131.800048828125</AltitudeMeters>
            <DistanceMeters>NAN</DistanceMeters>
          </Trackpoint>
          <Trackpoint>
            <Time>2021-08-01T15:10:11.000Z</Time>
            <Position>
              <LatitudeDegrees>-15.35971879027783870697021484375</LatitudeDegrees>
              <LongitudeDegrees>37.088219337165355682373046875</LongitudeDegrees>
            </Position>
            <AltitudeMeters>1132.199951171875</AltitudeMeters>
            <DistanceMeters>NAN</DistanceMeters>
          </Trackpoint>
          <Trackpoint>
            <Time>2021-08-01T15:10:12.000Z</Time>
            <Position>
              <LatitudeDegrees>-15.359709821641445159912109375</LatitudeDegrees>
              <LongitudeDegrees>37.08821606822311878204345703125</LongitudeDegrees>
            </Position>
            <AltitudeMeters>1132.199951171875</AltitudeMeters>
            <DistanceMeters>NAN</DistanceMeters>
          </Trackpoint>
          <Trackpoint>
            <Time>2021-08-01T15:10:17.000Z</Time>
            <Position>
              <LatitudeDegrees>-15.359660200774669647216796875</LatitudeDegrees>
              <LongitudeDegrees>37.08821640349924564361572265625</LongitudeDegrees>
            </Position>
            <AltitudeMeters>1133.199951171875</AltitudeMeters>
            <DistanceMeters>NAN</DistanceMeters>
          </Trackpoint>
          <Trackpoint>
            <Time>2021-08-01T15:10:19.000Z</Time>
            <Position>
              <LatitudeDegrees>-15.35964243113994598388671875</LatitudeDegrees>
              <LongitudeDegrees>37.08821606822311878204345703125</LongitudeDegrees>
            </Position>
            <AltitudeMeters>1133.4000244140625</AltitudeMeters>
            <DistanceMeters>NAN</DistanceMeters>
          </Trackpoint>
          <Trackpoint>
            <Time>2021-08-01T15:10:23.000Z</Time>
            <Position>
              <LatitudeDegrees>-15.35960982553660869598388671875</LatitudeDegrees>
              <LongitudeDegrees>37.0882124640047550201416015625</LongitudeDegrees>
            </Position>
            <AltitudeMeters>1134.199951171875</AltitudeMeters>
            <DistanceMeters>NAN</DistanceMeters>
          </Trackpoint>
          <Trackpoint>
            <Time>2021-08-01T15:10:26.000Z</Time>
            <Position>
              <LatitudeDegrees>-15.35958434455096721649169921875</LatitudeDegrees>
              <LongitudeDegrees>37.08822495304048061370849609375</LongitudeDegrees>
            </Position>
            <AltitudeMeters>1134.800048828125</AltitudeMeters>
            <DistanceMeters>NAN</DistanceMeters>
          </Trackpoint>
          <Trackpoint>
            <Time>2021-08-01T15:10:34.000Z</Time>
            <Position>
              <LatitudeDegrees>-15.35951829515397548675537109375</LatitudeDegrees>
              <LongitudeDegrees>37.0882681198418140411376953125</LongitudeDegrees>
            </Position>
            <AltitudeMeters>1135.199951171875</AltitudeMeters>
            <DistanceMeters>NAN</DistanceMeters>
          </Trackpoint>
          <Trackpoint>
            <Time>2021-08-01T15:10:35.000Z</Time>
            <Position>
              <LatitudeDegrees>-15.35950974561274051666259765625</LatitudeDegrees>
              <LongitudeDegrees>37.08827105350792407989501953125</LongitudeDegrees>
            </Position>
            <AltitudeMeters>1135.4000244140625</AltitudeMeters>
            <DistanceMeters>NAN</DistanceMeters>
          </Trackpoint>
          <Trackpoint>
            <Time>2021-08-01T15:10:36.000Z</Time>
            <Position>
              <LatitudeDegrees>-15.35950019024312496185302734375</LatitudeDegrees>
              <LongitudeDegrees>37.08827289752662181854248046875</LongitudeDegrees>
            </Position>
            <AltitudeMeters>1135.5999755859375</AltitudeMeters>
            <DistanceMeters>NAN</DistanceMeters>
          </Trackpoint>
          <Trackpoint>
            <Time>2021-08-01T15:10:38.000Z</Time>
            <Position>
              <LatitudeDegrees>-15.3594816662371158599853515625</LatitudeDegrees>
              <LongitudeDegrees>37.088277675211429595947265625</LongitudeDegrees>
            </Position>
            <AltitudeMeters>1135.800048828125</AltitudeMeters>
            <DistanceMeters>NAN</DistanceMeters>
          </Trackpoint>
          <Trackpoint>
            <Time>2021-08-01T15:10:41.000Z</Time>
            <Position>
              <LatitudeDegrees>-15.359455682337284088134765625</LatitudeDegrees>
              <LongitudeDegrees>37.0882922597229480743408203125</LongitudeDegrees>
            </Position>
            <AltitudeMeters>1136.199951171875</AltitudeMeters>
            <DistanceMeters>NAN</DistanceMeters>
          </Trackpoint>
          <Trackpoint>
            <Time>2021-08-01T15:10:42.000Z</Time>
            <Position>
              <LatitudeDegrees>-15.359447635710239410400390625</LatitudeDegrees>
              <LongitudeDegrees>37.08829452283680438995361328125</LongitudeDegrees>
            </Position>
            <AltitudeMeters>1136.4000244140625</AltitudeMeters>
            <DistanceMeters>NAN</DistanceMeters>
          </Trackpoint>
          <Trackpoint>
            <Time>2021-08-01T15:10:43.000Z</Time>
            <Position>
              <LatitudeDegrees>-15.35943900234997272491455078125</LatitudeDegrees>
              <LongitudeDegrees>37.0882972888648509979248046875</LongitudeDegrees>
            </Position>
            <AltitudeMeters>1136.800048828125</AltitudeMeters>
            <DistanceMeters>NAN</DistanceMeters>
          </Trackpoint>
          <Trackpoint>
            <Time>2021-08-01T15:10:46.000Z</Time>
            <Position>
              <LatitudeDegrees>-15.359406061470508575439453125</LatitudeDegrees>
              <LongitudeDegrees>37.08830349147319793701171875</LongitudeDegrees>
            </Position>
            <AltitudeMeters>1137.4000244140625</AltitudeMeters>
            <DistanceMeters>NAN</DistanceMeters>
          </Trackpoint>
          <Trackpoint>
            <Time>2021-08-01T15:10:47.000Z</Time>
            <Position>
              <LatitudeDegrees>-15.35939558409154415130615234375</LatitudeDegrees>
              <LongitudeDegrees>37.0883006416261196136474609375</LongitudeDegrees>
            </Position>
            <AltitudeMeters>1137.4000244140625</AltitudeMeters>
            <DistanceMeters>NAN</DistanceMeters>
          </Trackpoint>
          <Trackpoint>
            <Time>2021-08-01T15:10:48.000Z</Time>
            <Position>
              <LatitudeDegrees>-15.35938938148319721221923828125</LatitudeDegrees>
              <LongitudeDegrees>37.0882962830364704132080078125</LongitudeDegrees>
            </Position>
            <AltitudeMeters>1137.5999755859375</AltitudeMeters>
            <DistanceMeters>NAN</DistanceMeters>
          </Trackpoint>
          <Trackpoint>
            <Time>2021-08-01T15:10:54.000Z</Time>
            <Position>
              <LatitudeDegrees>-15.35932953469455242156982421875</LatitudeDegrees>
              <LongitudeDegrees>37.08829083479940891265869140625</LongitudeDegrees>
            </Position>
            <AltitudeMeters>1138.5999755859375</AltitudeMeters>
            <DistanceMeters>NAN</DistanceMeters>
          </Trackpoint>
          <Trackpoint>
            <Time>2021-08-01T15:10:57.000Z</Time>
            <Position>
              <LatitudeDegrees>-15.3592935763299465179443359375</LatitudeDegrees>
              <LongitudeDegrees>37.08830558694899082183837890625</LongitudeDegrees>
            </Position>
            <AltitudeMeters>1138.800048828125</AltitudeMeters>
            <DistanceMeters>NAN</DistanceMeters>
          </Trackpoint>
          <Trackpoint>
            <Time>2021-08-01T15:10:59.000Z</Time>
            <Position>
              <LatitudeDegrees>-15.35928058438003063201904296875</LatitudeDegrees>
              <LongitudeDegrees>37.088314555585384368896484375</LongitudeDegrees>
            </Position>
            <AltitudeMeters>1139.5999755859375</AltitudeMeters>
            <DistanceMeters>NAN</DistanceMeters>
          </Trackpoint>
          <Trackpoint>
            <Time>2021-08-01T15:11:04.000Z</Time>
            <Position>
              <LatitudeDegrees>-15.35925694741308689117431640625</LatitudeDegrees>
              <LongitudeDegrees>37.08834582008421421051025390625</LongitudeDegrees>
            </Position>
            <AltitudeMeters>1140.5999755859375</AltitudeMeters>
            <DistanceMeters>NAN</DistanceMeters>
          </Trackpoint>
          <Trackpoint>
            <Time>2021-08-01T15:11:05.000Z</Time>
            <Position>
              <LatitudeDegrees>-15.3592536784708499908447265625</LatitudeDegrees>
              <LongitudeDegrees>37.08835219033062458038330078125</LongitudeDegrees>
            </Position>
            <AltitudeMeters>1140.800048828125</AltitudeMeters>
            <DistanceMeters>NAN</DistanceMeters>
          </Trackpoint>
          <Trackpoint>
            <Time>2021-08-01T15:11:11.000Z</Time>
            <Position>
              <LatitudeDegrees>-15.35922559909522533416748046875</LatitudeDegrees>
              <LongitudeDegrees>37.0883737318217754364013671875</LongitudeDegrees>
            </Position>
            <AltitudeMeters>1141.800048828125</AltitudeMeters>
            <DistanceMeters>NAN</DistanceMeters>
          </Trackpoint>
          <Trackpoint>
            <Time>2021-08-01T15:11:16.000Z</Time>
            <Position>
              <LatitudeDegrees>-15.35919710062444210052490234375</LatitudeDegrees>
              <LongitudeDegrees>37.08837666548788547515869140625</LongitudeDegrees>
            </Position>
            <AltitudeMeters>1143.4000244140625</AltitudeMeters>
            <DistanceMeters>NAN</DistanceMeters>
          </Trackpoint>
          <Trackpoint>
            <Time>2021-08-01T15:11:19.000Z</Time>
            <Position>
              <LatitudeDegrees>-15.359174050390720367431640625</LatitudeDegrees>
              <LongitudeDegrees>37.08839879371225833892822265625</LongitudeDegrees>
            </Position>
            <AltitudeMeters>1143.800048828125</AltitudeMeters>
            <DistanceMeters>NAN</DistanceMeters>
          </Trackpoint>
          <Trackpoint>
            <Time>2021-08-01T15:11:22.000Z</Time>
            <Position>
              <LatitudeDegrees>-15.359161309897899627685546875</LatitudeDegrees>
              <LongitudeDegrees>37.08842217922210693359375</LongitudeDegrees>
            </Position>
            <AltitudeMeters>1144.5999755859375</AltitudeMeters>
            <DistanceMeters>NAN</DistanceMeters>
          </Trackpoint>
          <Trackpoint>
            <Time>2021-08-01T15:11:25.000Z</Time>
            <Position>
              <LatitudeDegrees>-15.35914261825382709503173828125</LatitudeDegrees>
              <LongitudeDegrees>37.08843399770557880401611328125</LongitudeDegrees>
            </Position>
            <AltitudeMeters>1145.800048828125</AltitudeMeters>
            <DistanceMeters>NAN</DistanceMeters>
          </Trackpoint>
          <Trackpoint>
            <Time>2021-08-01T15:11:27.000Z</Time>
            <Position>
              <LatitudeDegrees>-15.3591302968561649322509765625</LatitudeDegrees>
              <LongitudeDegrees>37.088447995483875274658203125</LongitudeDegrees>
            </Position>
            <AltitudeMeters>1146</AltitudeMeters>
            <DistanceMeters>NAN</DistanceMeters>
          </Trackpoint>
          <Trackpoint>
            <Time>2021-08-01T15:11:30.000Z</Time>
            <Position>
              <LatitudeDegrees>-15.35910942591726779937744140625</LatitudeDegrees>
              <LongitudeDegrees>37.08845914341509342193603515625</LongitudeDegrees>
            </Position>
            <AltitudeMeters>1146.800048828125</AltitudeMeters>
            <DistanceMeters>NAN</DistanceMeters>
          </Trackpoint>
          <Trackpoint>
            <Time>2021-08-01T15:11:35.000Z</Time>
            <Position>
              <LatitudeDegrees>-15.3590691089630126953125</LatitudeDegrees>
              <LongitudeDegrees>37.0884505100548267364501953125</LongitudeDegrees>
            </Position>
            <AltitudeMeters>1147.4000244140625</AltitudeMeters>
            <DistanceMeters>NAN</DistanceMeters>
          </Trackpoint>
          <Trackpoint>
            <Time>2021-08-01T15:11:37.000Z</Time>
            <Position>
              <LatitudeDegrees>-15.35905770957469940185546875</LatitudeDegrees>
              <LongitudeDegrees>37.088443301618099212646484375</LongitudeDegrees>
            </Position>
            <AltitudeMeters>1147.800048828125</AltitudeMeters>
            <DistanceMeters>NAN</DistanceMeters>
          </Trackpoint>
          <Trackpoint>
            <Time>2021-08-01T15:11:41.000Z</Time>
            <Position>
              <LatitudeDegrees>-15.3590310551226139068603515625</LatitudeDegrees>
              <LongitudeDegrees>37.0884173177182674407958984375</LongitudeDegrees>
            </Position>
            <AltitudeMeters>1148.800048828125</AltitudeMeters>
            <DistanceMeters>NAN</DistanceMeters>
          </Trackpoint>
          <Trackpoint>
            <Time>2021-08-01T15:11:42.000Z</Time>
            <Position>
              <LatitudeDegrees>-15.3590236790478229522705078125</LatitudeDegrees>
              <LongitudeDegrees>37.0884139649569988250732421875</LongitudeDegrees>
            </Position>
            <AltitudeMeters>1148.800048828125</AltitudeMeters>
            <DistanceMeters>NAN</DistanceMeters>
          </Trackpoint>
          <Trackpoint>
            <Time>2021-08-01T15:11:43.000Z</Time>
            <Position>
              <LatitudeDegrees>-15.35901219584047794342041015625</LatitudeDegrees>
              <LongitudeDegrees>37.0884122885763645172119140625</LongitudeDegrees>
            </Position>
            <AltitudeMeters>1149</AltitudeMeters>
            <DistanceMeters>NAN</DistanceMeters>
          </Trackpoint>
          <Trackpoint>
            <Time>2021-08-01T15:11:46.000Z</Time>
            <Position>
              <LatitudeDegrees>-15.35898604430258274078369140625</LatitudeDegrees>
              <LongitudeDegrees>37.08841723389923572540283203125</LongitudeDegrees>
            </Position>
            <AltitudeMeters>1149.800048828125</AltitudeMeters>
            <DistanceMeters>NAN</DistanceMeters>
          </Trackpoint>
          <Trackpoint>
            <Time>2021-08-01T15:11:50.000Z</Time>
            <Position>
              <LatitudeDegrees>-15.3589616529643535614013671875</LatitudeDegrees>
              <LongitudeDegrees>37.08843198604881763458251953125</LongitudeDegrees>
            </Position>
            <AltitudeMeters>1150.5999755859375</AltitudeMeters>
            <DistanceMeters>NAN</DistanceMeters>
          </Trackpoint>
          <Trackpoint>
            <Time>2021-08-01T15:11:52.000Z</Time>
            <Position>
              <LatitudeDegrees>-15.35895050503313541412353515625</LatitudeDegrees>
              <LongitudeDegrees>37.08843617700040340423583984375</LongitudeDegrees>
            </Position>
            <AltitudeMeters>1150.800048828125</AltitudeMeters>
            <DistanceMeters>NAN</DistanceMeters>
          </Trackpoint>
          <Trackpoint>
            <Time>2021-08-01T15:11:53.000Z</Time>
            <Position>
              <LatitudeDegrees>-15.35894312895834445953369140625</LatitudeDegrees>
              <LongitudeDegrees>37.08844296634197235107421875</LongitudeDegrees>
            </Position>
            <AltitudeMeters>1151.199951171875</AltitudeMeters>
            <DistanceMeters>NAN</DistanceMeters>
          </Trackpoint>
          <Trackpoint>
            <Time>2021-08-01T15:11:57.000Z</Time>
            <Position>
              <LatitudeDegrees>-15.35891421139240264892578125</LatitudeDegrees>
              <LongitudeDegrees>37.088455371558666229248046875</LongitudeDegrees>
            </Position>
            <AltitudeMeters>1152.199951171875</AltitudeMeters>
            <DistanceMeters>NAN</DistanceMeters>
          </Trackpoint>
          <Trackpoint>
            <Time>2021-08-01T15:11:59.000Z</Time>
            <Position>
              <LatitudeDegrees>-15.3588982857763767242431640625</LatitudeDegrees>
              <LongitudeDegrees>37.08844942040741443634033203125</LongitudeDegrees>
            </Position>
            <AltitudeMeters>1152.5999755859375</AltitudeMeters>
            <DistanceMeters>NAN</DistanceMeters>
          </Trackpoint>
          <Trackpoint>
            <Time>2021-08-01T15:12:00.000Z</Time>
            <Position>
              <LatitudeDegrees>-15.35889501683413982391357421875</LatitudeDegrees>
              <LongitudeDegrees>37.08844774402678012847900390625</LongitudeDegrees>
            </Position>
            <AltitudeMeters>1152.5999755859375</AltitudeMeters>
            <DistanceMeters>NAN</DistanceMeters>
          </Trackpoint>
          <Trackpoint>
            <Time>2021-08-01T15:12:08.000Z</Time>
            <Position>
              <LatitudeDegrees>-15.35884472541511058807373046875</LatitudeDegrees>
              <LongitudeDegrees>37.088452018797397613525390625</LongitudeDegrees>
            </Position>
            <AltitudeMeters>1153.199951171875</AltitudeMeters>
            <DistanceMeters>NAN</DistanceMeters>
          </Trackpoint>
          <Trackpoint>
            <Time>2021-08-01T15:12:09.000Z</Time>
            <Position>
              <LatitudeDegrees>-15.3588409535586833953857421875</LatitudeDegrees>
              <LongitudeDegrees>37.08845545537769794464111328125</LongitudeDegrees>
            </Position>
            <AltitudeMeters>1153.199951171875</AltitudeMeters>
            <DistanceMeters>NAN</DistanceMeters>
          </Trackpoint>
          <Trackpoint>
            <Time>2021-08-01T15:12:16.000Z</Time>
            <Position>
              <LatitudeDegrees>-15.3587940149009227752685546875</LatitudeDegrees>
              <LongitudeDegrees>37.0884800143539905548095703125</LongitudeDegrees>
            </Position>
            <AltitudeMeters>1153.4000244140625</AltitudeMeters>
            <DistanceMeters>NAN</DistanceMeters>
          </Trackpoint>
          <Trackpoint>
            <Time>2021-08-01T15:12:19.000Z</Time>
            <Position>
              <LatitudeDegrees>-15.35876358859241008758544921875</LatitudeDegrees>
              <LongitudeDegrees>37.08848395384848117828369140625</LongitudeDegrees>
            </Position>
            <AltitudeMeters>1153.4000244140625</AltitudeMeters>
            <DistanceMeters>NAN</DistanceMeters>
          </Trackpoint>
          <Trackpoint>
            <Time>2021-08-01T15:12:26.000Z</Time>
            <Position>
              <LatitudeDegrees>-15.3586766682565212249755859375</LatitudeDegrees>
              <LongitudeDegrees>37.08847691304981708526611328125</LongitudeDegrees>
            </Position>
            <AltitudeMeters>1154</AltitudeMeters>
            <DistanceMeters>NAN</DistanceMeters>
          </Trackpoint>
          <Trackpoint>
            <Time>2021-08-01T15:12:31.000Z</Time>
            <Position>
              <LatitudeDegrees>-15.3586277179419994354248046875</LatitudeDegrees>
              <LongitudeDegrees>37.0884588919579982757568359375</LongitudeDegrees>
            </Position>
            <AltitudeMeters>1154.199951171875</AltitudeMeters>
            <DistanceMeters>NAN</DistanceMeters>
          </Trackpoint>
          <Trackpoint>
            <Time>2021-08-01T15:12:33.000Z</Time>
            <Position>
              <LatitudeDegrees>-15.35860517062246799468994140625</LatitudeDegrees>
              <LongitudeDegrees>37.088456042110919952392578125</LongitudeDegrees>
            </Position>
            <AltitudeMeters>1154.4000244140625</AltitudeMeters>
            <DistanceMeters>NAN</DistanceMeters>
          </Trackpoint>
          <Trackpoint>
            <Time>2021-08-01T15:12:35.000Z</Time>
            <Position>
              <LatitudeDegrees>-15.35858253948390483856201171875</LatitudeDegrees>
              <LongitudeDegrees>37.08845009095966815948486328125</LongitudeDegrees>
            </Position>
            <AltitudeMeters>1154.4000244140625</AltitudeMeters>
            <DistanceMeters>NAN</DistanceMeters>
          </Trackpoint>
          <Trackpoint>
            <Time>2021-08-01T15:12:40.000Z</Time>
            <Position>
              <LatitudeDegrees>-15.3585281409323215484619140625</LatitudeDegrees>
              <LongitudeDegrees>37.0884476602077484130859375</LongitudeDegrees>
            </Position>
            <AltitudeMeters>1154.5999755859375</AltitudeMeters>
            <DistanceMeters>NAN</DistanceMeters>
          </Trackpoint>
          <Trackpoint>
            <Time>2021-08-01T15:12:49.000Z</Time>
            <Position>
              <LatitudeDegrees>-15.35842747427523136138916015625</LatitudeDegrees>
              <LongitudeDegrees>37.08843651227653026580810546875</LongitudeDegrees>
            </Position>
            <AltitudeMeters>1155</AltitudeMeters>
            <DistanceMeters>NAN</DistanceMeters>
          </Trackpoint>
          <Trackpoint>
            <Time>2021-08-01T15:12:52.000Z</Time>
            <Position>
              <LatitudeDegrees>-15.35839729942381381988525390625</LatitudeDegrees>
              <LongitudeDegrees>37.0884273760020732879638671875</LongitudeDegrees>
            </Position>
            <AltitudeMeters>1155.4000244140625</AltitudeMeters>
            <DistanceMeters>NAN</DistanceMeters>
          </Trackpoint>
          <Trackpoint>
            <Time>2021-08-01T15:12:59.000Z</Time>
            <Position>
              <LatitudeDegrees>-15.35831482149660587310791015625</LatitudeDegrees>
              <LongitudeDegrees>37.0884146355092525482177734375</LongitudeDegrees>
            </Position>
            <AltitudeMeters>1156.199951171875</AltitudeMeters>
            <DistanceMeters>NAN</DistanceMeters>
          </Trackpoint>
          <Trackpoint>
            <Time>2021-08-01T15:13:00.000Z</Time>
            <Position>
              <LatitudeDegrees>-15.358307696878910064697265625</LatitudeDegrees>
              <LongitudeDegrees>37.0884089358150959014892578125</LongitudeDegrees>
            </Position>
            <AltitudeMeters>1156.199951171875</AltitudeMeters>
            <DistanceMeters>NAN</DistanceMeters>
          </Trackpoint>
          <Trackpoint>
            <Time>2021-08-01T15:13:03.000Z</Time>
            <Position>
              <LatitudeDegrees>-15.3582783602178096771240234375</LatitudeDegrees>
              <LongitudeDegrees>37.08839946426451206207275390625</LongitudeDegrees>
            </Position>
            <AltitudeMeters>1156.4000244140625</AltitudeMeters>
            <DistanceMeters>NAN</DistanceMeters>
          </Trackpoint>
          <Trackpoint>
            <Time>2021-08-01T15:13:04.000Z</Time>
            <Position>
              <LatitudeDegrees>-15.3582703135907649993896484375</LatitudeDegrees>
              <LongitudeDegrees>37.08839594386518001556396484375</LongitudeDegrees>
            </Position>
            <AltitudeMeters>1156.4000244140625</AltitudeMeters>
            <DistanceMeters>NAN</DistanceMeters>
          </Trackpoint>
          <Trackpoint>
            <Time>2021-08-01T15:13:08.000Z</Time>
            <Position>
              <LatitudeDegrees>-15.3582347743213176727294921875</LatitudeDegrees>
              <LongitudeDegrees>37.08838320337235927581787109375</LongitudeDegrees>
            </Position>
            <AltitudeMeters>1157</AltitudeMeters>
            <DistanceMeters>NAN</DistanceMeters>
          </Trackpoint>
          <Trackpoint>
            <Time>2021-08-01T15:13:10.000Z</Time>
            <Position>
              <LatitudeDegrees>-15.3582146577537059783935546875</LatitudeDegrees>
              <LongitudeDegrees>37.08837314508855342864990234375</LongitudeDegrees>
            </Position>
            <AltitudeMeters>1157.199951171875</AltitudeMeters>
            <DistanceMeters>NAN</DistanceMeters>
          </Trackpoint>
          <Trackpoint>
            <Time>2021-08-01T15:13:15.000Z</Time>
            <Position>
              <LatitudeDegrees>-15.3581584990024566650390625</LatitudeDegrees>
              <LongitudeDegrees>37.08834615536034107208251953125</LongitudeDegrees>
            </Position>
            <AltitudeMeters>1157.5999755859375</AltitudeMeters>
            <DistanceMeters>NAN</DistanceMeters>
          </Trackpoint>
          <Trackpoint>
            <Time>2021-08-01T15:13:21.000Z</Time>
            <Position>
              <LatitudeDegrees>-15.35808281041681766510009765625</LatitudeDegrees>
              <LongitudeDegrees>37.08833031356334686279296875</LongitudeDegrees>
            </Position>
            <AltitudeMeters>1158</AltitudeMeters>
            <DistanceMeters>NAN</DistanceMeters>
          </Trackpoint>
          <Trackpoint>
            <Time>2021-08-01T15:13:22.000Z</Time>
            <Position>
              <LatitudeDegrees>-15.35807065665721893310546875</LatitudeDegrees>
              <LongitudeDegrees>37.08832553587853908538818359375</LongitudeDegrees>
            </Position>
            <AltitudeMeters>1157.800048828125</AltitudeMeters>
            <DistanceMeters>NAN</DistanceMeters>
          </Trackpoint>
          <Trackpoint>
            <Time>2021-08-01T15:13:28.000Z</Time>
            <Position>
              <LatitudeDegrees>-15.358001254498958587646484375</LatitudeDegrees>
              <LongitudeDegrees>37.08831413649022579193115234375</LongitudeDegrees>
            </Position>
            <AltitudeMeters>1158.4000244140625</AltitudeMeters>
            <DistanceMeters>NAN</DistanceMeters>
          </Trackpoint>
          <Trackpoint>
            <Time>2021-08-01T15:13:29.000Z</Time>
            <Position>
              <LatitudeDegrees>-15.35798658616840839385986328125</LatitudeDegrees>
              <LongitudeDegrees>37.08830877207219600677490234375</LongitudeDegrees>
            </Position>
            <AltitudeMeters>1158.5999755859375</AltitudeMeters>
            <DistanceMeters>NAN</DistanceMeters>
          </Trackpoint>
          <Trackpoint>
            <Time>2021-08-01T15:13:33.000Z</Time>
            <Position>
              <LatitudeDegrees>-15.3579412400722503662109375</LatitudeDegrees>
              <LongitudeDegrees>37.088306508958339691162109375</LongitudeDegrees>
            </Position>
            <AltitudeMeters>1158.800048828125</AltitudeMeters>
            <DistanceMeters>NAN</DistanceMeters>
          </Trackpoint>
          <Trackpoint>
            <Time>2021-08-01T15:13:34.000Z</Time>
            <Position>
              <LatitudeDegrees>-15.35792975686490535736083984375</LatitudeDegrees>
              <LongitudeDegrees>37.08830709569156169891357421875</LongitudeDegrees>
            </Position>
            <AltitudeMeters>1159</AltitudeMeters>
            <DistanceMeters>NAN</DistanceMeters>
          </Trackpoint>
          <Trackpoint>
            <Time>2021-08-01T15:13:42.000Z</Time>
            <Position>
              <LatitudeDegrees>-15.357838980853557586669921875</LatitudeDegrees>
              <LongitudeDegrees>37.08829904906451702117919921875</LongitudeDegrees>
            </Position>
            <AltitudeMeters>1159.5999755859375</AltitudeMeters>
            <DistanceMeters>NAN</DistanceMeters>
          </Trackpoint>
          <Trackpoint>
            <Time>2021-08-01T15:13:45.000Z</Time>
            <Position>
              <LatitudeDegrees>-15.35780587233603000640869140625</LatitudeDegrees>
              <LongitudeDegrees>37.08829678595066070556640625</LongitudeDegrees>
            </Position>
            <AltitudeMeters>1159.800048828125</AltitudeMeters>
            <DistanceMeters>NAN</DistanceMeters>
          </Trackpoint>
          <Trackpoint>
            <Time>2021-08-01T15:13:55.000Z</Time>
            <Position>
              <LatitudeDegrees>-15.3576946444809436798095703125</LatitudeDegrees>
              <LongitudeDegrees>37.088286392390727996826171875</LongitudeDegrees>
            </Position>
            <AltitudeMeters>1160.5999755859375</AltitudeMeters>
            <DistanceMeters>NAN</DistanceMeters>
          </Trackpoint>
          <Trackpoint>
            <Time>2021-08-01T15:13:56.000Z</Time>
            <Position>
              <LatitudeDegrees>-15.35768366418778896331787109375</LatitudeDegrees>
              <LongitudeDegrees>37.08828848786652088165283203125</LongitudeDegrees>
            </Position>
            <AltitudeMeters>1160.5999755859375</AltitudeMeters>
            <DistanceMeters>NAN</DistanceMeters>
          </Trackpoint>
          <Trackpoint>
            <Time>2021-08-01T15:14:02.000Z</Time>
            <Position>
              <LatitudeDegrees>-15.35764728672802448272705078125</LatitudeDegrees>
              <LongitudeDegrees>37.08829888142645359039306640625</LongitudeDegrees>
            </Position>
            <AltitudeMeters>1160.800048828125</AltitudeMeters>
            <DistanceMeters>NAN</DistanceMeters>
          </Trackpoint>
          <Trackpoint>
            <Time>2021-08-01T15:14:08.000Z</Time>
            <Position>
              <LatitudeDegrees>-15.357651226222515106201171875</LatitudeDegrees>
              <LongitudeDegrees>37.08830324001610279083251953125</LongitudeDegrees>
            </Position>
            <AltitudeMeters>1160.800048828125</AltitudeMeters>
            <DistanceMeters>NAN</DistanceMeters>
          </Trackpoint>
          <Trackpoint>
            <Time>2021-08-01T15:14:16.000Z</Time>
            <Position>
              <LatitudeDegrees>-15.35765759646892547607421875</LatitudeDegrees>
              <LongitudeDegrees>37.08830726332962512969970703125</LongitudeDegrees>
            </Position>
            <AltitudeMeters>1160.5999755859375</AltitudeMeters>
            <DistanceMeters>NAN</DistanceMeters>
          </Trackpoint>
          <Trackpoint>
            <Time>2021-08-01T15:14:23.000Z</Time>
            <Position>
              <LatitudeDegrees>-15.35765759646892547607421875</LatitudeDegrees>
              <LongitudeDegrees>37.08830726332962512969970703125</LongitudeDegrees>
            </Position>
            <AltitudeMeters>1160.5999755859375</AltitudeMeters>
            <DistanceMeters>NAN</DistanceMeters>
          </Trackpoint>
          <Trackpoint>
            <Time>2021-08-01T15:14:41.000Z</Time>
            <Position>
              <LatitudeDegrees>-15.357655249536037445068359375</LatitudeDegrees>
              <LongitudeDegrees>37.08831614814698696136474609375</LongitudeDegrees>
            </Position>
            <AltitudeMeters>1160.800048828125</AltitudeMeters>
            <DistanceMeters>NAN</DistanceMeters>
          </Trackpoint>
          <Trackpoint>
            <Time>2021-08-01T15:14:45.000Z</Time>
            <Position>
              <LatitudeDegrees>-15.35759246908128261566162109375</LatitudeDegrees>
              <LongitudeDegrees>37.08833827637135982513427734375</LongitudeDegrees>
            </Position>
            <AltitudeMeters>1161</AltitudeMeters>
            <DistanceMeters>NAN</DistanceMeters>
          </Trackpoint>
          <Trackpoint>
            <Time>2021-08-01T15:14:48.000Z</Time>
            <Position>
              <LatitudeDegrees>-15.3575508110225200653076171875</LatitudeDegrees>
              <LongitudeDegrees>37.0883613266050815582275390625</LongitudeDegrees>
            </Position>
            <AltitudeMeters>1161.199951171875</AltitudeMeters>
            <DistanceMeters>NAN</DistanceMeters>
          </Trackpoint>
          <Trackpoint>
            <Time>2021-08-01T15:14:54.000Z</Time>
            <Position>
              <LatitudeDegrees>-15.3574760444462299346923828125</LatitudeDegrees>
              <LongitudeDegrees>37.08839594386518001556396484375</LongitudeDegrees>
            </Position>
            <AltitudeMeters>1161.800048828125</AltitudeMeters>
            <DistanceMeters>NAN</DistanceMeters>
          </Trackpoint>
          <Trackpoint>
            <Time>2021-08-01T15:14:55.000Z</Time>
            <Position>
              <LatitudeDegrees>-15.35746707580983638763427734375</LatitudeDegrees>
              <LongitudeDegrees>37.08840231411159038543701171875</LongitudeDegrees>
            </Position>
            <AltitudeMeters>1161.800048828125</AltitudeMeters>
            <DistanceMeters>NAN</DistanceMeters>
          </Trackpoint>
          <Trackpoint>
            <Time>2021-08-01T15:15:03.000Z</Time>
            <Position>
              <LatitudeDegrees>-15.357388369739055633544921875</LatitudeDegrees>
              <LongitudeDegrees>37.08844824694097042083740234375</LongitudeDegrees>
            </Position>
            <AltitudeMeters>1162.5999755859375</AltitudeMeters>
            <DistanceMeters>NAN</DistanceMeters>
          </Trackpoint>
          <Trackpoint>
            <Time>2021-08-01T15:15:08.000Z</Time>
            <Position>
              <LatitudeDegrees>-15.357347466051578521728515625</LatitudeDegrees>
              <LongitudeDegrees>37.08849216811358928680419921875</LongitudeDegrees>
            </Position>
            <AltitudeMeters>1162.800048828125</AltitudeMeters>
            <DistanceMeters>NAN</DistanceMeters>
          </Trackpoint>
          <Trackpoint>
            <Time>2021-08-01T15:15:12.000Z</Time>
            <Position>
              <LatitudeDegrees>-15.35731494426727294921875</LatitudeDegrees>
              <LongitudeDegrees>37.088524438440799713134765625</LongitudeDegrees>
            </Position>
            <AltitudeMeters>1163.199951171875</AltitudeMeters>
            <DistanceMeters>NAN</DistanceMeters>
          </Trackpoint>
          <Trackpoint>
            <Time>2021-08-01T15:15:20.000Z</Time>
            <Position>
              <LatitudeDegrees>-15.35724830813705921173095703125</LatitudeDegrees>
              <LongitudeDegrees>37.08860700018703937530517578125</LongitudeDegrees>
            </Position>
            <AltitudeMeters>1163.4000244140625</AltitudeMeters>
            <DistanceMeters>NAN</DistanceMeters>
          </Trackpoint>
          <Trackpoint>
            <Time>2021-08-01T15:15:23.000Z</Time>
            <Position>
              <LatitudeDegrees>-15.35724696703255176544189453125</LatitudeDegrees>
              <LongitudeDegrees>37.08861504681408405303955078125</LongitudeDegrees>
            </Position>
            <AltitudeMeters>1163</AltitudeMeters>
            <DistanceMeters>NAN</DistanceMeters>
          </Trackpoint>
          <Trackpoint>
            <Time>2021-08-01T15:15:25.000Z</Time>
            <Position>
              <LatitudeDegrees>-15.35725015215575695037841796875</LatitudeDegrees>
              <LongitudeDegrees>37.0886127837002277374267578125</LongitudeDegrees>
            </Position>
            <AltitudeMeters>1163</AltitudeMeters>
            <DistanceMeters>NAN</DistanceMeters>
          </Trackpoint>
          <Trackpoint>
            <Time>2021-08-01T15:15:30.000Z</Time>
            <Position>
              <LatitudeDegrees>-15.357245542109012603759765625</LatitudeDegrees>
              <LongitudeDegrees>37.0886228419840335845947265625</LongitudeDegrees>
            </Position>
            <AltitudeMeters>1163</AltitudeMeters>
            <DistanceMeters>NAN</DistanceMeters>
          </Trackpoint>
          <Trackpoint>
            <Time>2021-08-01T15:15:41.000Z</Time>
            <Position>
              <LatitudeDegrees>-15.35726599395275115966796875</LatitudeDegrees>
              <LongitudeDegrees>37.08859962411224842071533203125</LongitudeDegrees>
            </Position>
            <AltitudeMeters>1163.4000244140625</AltitudeMeters>
            <DistanceMeters>NAN</DistanceMeters>
          </Trackpoint>
          <Trackpoint>
            <Time>2021-08-01T15:15:43.000Z</Time>
            <Position>
              <LatitudeDegrees>-15.35728015936911106109619140625</LatitudeDegrees>
              <LongitudeDegrees>37.08858403377234935760498046875</LongitudeDegrees>
            </Position>
            <AltitudeMeters>1163.4000244140625</AltitudeMeters>
            <DistanceMeters>NAN</DistanceMeters>
          </Trackpoint>
          <Trackpoint>
            <Time>2021-08-01T15:15:48.000Z</Time>
            <Position>
              <LatitudeDegrees>-15.357287786900997161865234375</LatitudeDegrees>
              <LongitudeDegrees>37.088564001023769378662109375</LongitudeDegrees>
            </Position>
            <AltitudeMeters>1163.4000244140625</AltitudeMeters>
            <DistanceMeters>NAN</DistanceMeters>
          </Trackpoint>
          <Trackpoint>
            <Time>2021-08-01T15:15:53.000Z</Time>
            <Position>
              <LatitudeDegrees>-15.3572680056095123291015625</LatitudeDegrees>
              <LongitudeDegrees>37.08857531659305095672607421875</LongitudeDegrees>
            </Position>
            <AltitudeMeters>1163.5999755859375</AltitudeMeters>
            <DistanceMeters>NAN</DistanceMeters>
          </Trackpoint>
          <Trackpoint>
            <Time>2021-08-01T15:15:55.000Z</Time>
            <Position>
              <LatitudeDegrees>-15.35725392401218414306640625</LatitudeDegrees>
              <LongitudeDegrees>37.08859317004680633544921875</LongitudeDegrees>
            </Position>
            <AltitudeMeters>1163.5999755859375</AltitudeMeters>
            <DistanceMeters>NAN</DistanceMeters>
          </Trackpoint>
          <Trackpoint>
            <Time>2021-08-01T15:16:02.000Z</Time>
            <Position>
              <LatitudeDegrees>-15.3572155348956584930419921875</LatitudeDegrees>
              <LongitudeDegrees>37.08865511231124401092529296875</LongitudeDegrees>
            </Position>
            <AltitudeMeters>1163.5999755859375</AltitudeMeters>
            <DistanceMeters>NAN</DistanceMeters>
          </Trackpoint>
          <Trackpoint>
            <Time>2021-08-01T15:16:03.000Z</Time>
            <Position>
              <LatitudeDegrees>-15.35720941610634326934814453125</LatitudeDegrees>
              <LongitudeDegrees>37.08866148255765438079833984375</LongitudeDegrees>
            </Position>
            <AltitudeMeters>1163.5999755859375</AltitudeMeters>
            <DistanceMeters>NAN</DistanceMeters>
          </Trackpoint>
          <Trackpoint>
            <Time>2021-08-01T15:16:11.000Z</Time>
            <Position>
              <LatitudeDegrees>-15.35715644247829914093017578125</LatitudeDegrees>
              <LongitudeDegrees>37.0887292921543121337890625</LongitudeDegrees>
            </Position>
            <AltitudeMeters>1163.800048828125</AltitudeMeters>
            <DistanceMeters>NAN</DistanceMeters>
          </Trackpoint>
          <Trackpoint>
            <Time>2021-08-01T15:16:13.000Z</Time>
            <Position>
              <LatitudeDegrees>-15.35714386962354183197021484375</LatitudeDegrees>
              <LongitudeDegrees>37.08874647505581378936767578125</LongitudeDegrees>
            </Position>
            <AltitudeMeters>1164.199951171875</AltitudeMeters>
            <DistanceMeters>NAN</DistanceMeters>
          </Trackpoint>
          <Trackpoint>
            <Time>2021-08-01T15:16:18.000Z</Time>
            <Position>
              <LatitudeDegrees>-15.35710430704057216644287109375</LatitudeDegrees>
              <LongitudeDegrees>37.08878285251557826995849609375</LongitudeDegrees>
            </Position>
            <AltitudeMeters>1164.800048828125</AltitudeMeters>
            <DistanceMeters>NAN</DistanceMeters>
          </Trackpoint>
          <Trackpoint>
            <Time>2021-08-01T15:16:21.000Z</Time>
            <Position>
              <LatitudeDegrees>-15.3570861183106899261474609375</LatitudeDegrees>
              <LongitudeDegrees>37.08880917169153690338134765625</LongitudeDegrees>
            </Position>
            <AltitudeMeters>1165.199951171875</AltitudeMeters>
            <DistanceMeters>NAN</DistanceMeters>
          </Trackpoint>
          <Trackpoint>
            <Time>2021-08-01T15:16:26.000Z</Time>
            <Position>
              <LatitudeDegrees>-15.35706373862922191619873046875</LatitudeDegrees>
              <LongitudeDegrees>37.08886583335697650909423828125</LongitudeDegrees>
            </Position>
            <AltitudeMeters>1165.5999755859375</AltitudeMeters>
            <DistanceMeters>NAN</DistanceMeters>
          </Trackpoint>
          <Trackpoint>
            <Time>2021-08-01T15:16:29.000Z</Time>
            <Position>
              <LatitudeDegrees>-15.35704814828932285308837890625</LatitudeDegrees>
              <LongitudeDegrees>37.08889625966548919677734375</LongitudeDegrees>
            </Position>
            <AltitudeMeters>1165.800048828125</AltitudeMeters>
            <DistanceMeters>NAN</DistanceMeters>
          </Trackpoint>
          <Trackpoint>
            <Time>2021-08-01T15:16:30.000Z</Time>
            <Position>
              <LatitudeDegrees>-15.35704026930034160614013671875</LatitudeDegrees>
              <LongitudeDegrees>37.08890497684478759765625</LongitudeDegrees>
            </Position>
            <AltitudeMeters>1165.800048828125</AltitudeMeters>
            <DistanceMeters>NAN</DistanceMeters>
          </Trackpoint>
          <Trackpoint>
            <Time>2021-08-01T15:16:34.000Z</Time>
            <Position>
              <LatitudeDegrees>-15.3570100106298923492431640625</LatitudeDegrees>
              <LongitudeDegrees>37.0889252610504627227783203125</LongitudeDegrees>
            </Position>
            <AltitudeMeters>1166.5999755859375</AltitudeMeters>
            <DistanceMeters>NAN</DistanceMeters>
          </Trackpoint>
          <Trackpoint>
            <Time>2021-08-01T15:16:36.000Z</Time>
            <Position>
              <LatitudeDegrees>-15.35699081607162952423095703125</LatitudeDegrees>
              <LongitudeDegrees>37.0889530889689922332763671875</LongitudeDegrees>
            </Position>
            <AltitudeMeters>1166.5999755859375</AltitudeMeters>
            <DistanceMeters>NAN</DistanceMeters>
          </Trackpoint>
          <Trackpoint>
            <Time>2021-08-01T15:16:44.000Z</Time>
            <Position>
              <LatitudeDegrees>-15.3569372557103633880615234375</LatitudeDegrees>
              <LongitudeDegrees>37.0890296995639801025390625</LongitudeDegrees>
            </Position>
            <AltitudeMeters>1167</AltitudeMeters>
            <DistanceMeters>NAN</DistanceMeters>
          </Trackpoint>
          <Trackpoint>
            <Time>2021-08-01T15:16:48.000Z</Time>
            <Position>
              <LatitudeDegrees>-15.3569151274859905242919921875</LatitudeDegrees>
              <LongitudeDegrees>37.089070267975330352783203125</LongitudeDegrees>
            </Position>
            <AltitudeMeters>1167.199951171875</AltitudeMeters>
            <DistanceMeters>NAN</DistanceMeters>
          </Trackpoint>
          <Trackpoint>
            <Time>2021-08-01T15:16:53.000Z</Time>
            <Position>
              <LatitudeDegrees>-15.3568909876048564910888671875</LatitudeDegrees>
              <LongitudeDegrees>37.0891039632260799407958984375</LongitudeDegrees>
            </Position>
            <AltitudeMeters>1167.5999755859375</AltitudeMeters>
            <DistanceMeters>NAN</DistanceMeters>
          </Trackpoint>
          <Trackpoint>
            <Time>2021-08-01T15:16:55.000Z</Time>
            <Position>
              <LatitudeDegrees>-15.35688403062522411346435546875</LatitudeDegrees>
              <LongitudeDegrees>37.08911997266113758087158203125</LongitudeDegrees>
            </Position>
            <AltitudeMeters>1167.800048828125</AltitudeMeters>
            <DistanceMeters>NAN</DistanceMeters>
          </Trackpoint>
          <Trackpoint>
            <Time>2021-08-01T15:17:03.000Z</Time>
            <Position>
              <LatitudeDegrees>-15.3568410314619541168212890625</LatitudeDegrees>
              <LongitudeDegrees>37.08919507451355457305908203125</LongitudeDegrees>
            </Position>
            <AltitudeMeters>1168.800048828125</AltitudeMeters>
            <DistanceMeters>NAN</DistanceMeters>
          </Trackpoint>
          <Trackpoint>
            <Time>2021-08-01T15:17:11.000Z</Time>
            <Position>
              <LatitudeDegrees>-15.3568071685731410980224609375</LatitudeDegrees>
              <LongitudeDegrees>37.0892751216888427734375</LongitudeDegrees>
            </Position>
            <AltitudeMeters>1169.199951171875</AltitudeMeters>
            <DistanceMeters>NAN</DistanceMeters>
          </Trackpoint>
          <Trackpoint>
            <Time>2021-08-01T15:17:16.000Z</Time>
            <Position>
              <LatitudeDegrees>-15.35677623935043811798095703125</LatitudeDegrees>
              <LongitudeDegrees>37.0893609523773193359375</LongitudeDegrees>
            </Position>
            <AltitudeMeters>1169.800048828125</AltitudeMeters>
            <DistanceMeters>NAN</DistanceMeters>
          </Trackpoint>
          <Trackpoint>
            <Time>2021-08-01T15:17:18.000Z</Time>
            <Position>
              <LatitudeDegrees>-15.35677850246429443359375</LatitudeDegrees>
              <LongitudeDegrees>37.08938785828649997711181640625</LongitudeDegrees>
            </Position>
            <AltitudeMeters>1170.199951171875</AltitudeMeters>
            <DistanceMeters>NAN</DistanceMeters>
          </Trackpoint>
          <Trackpoint>
            <Time>2021-08-01T15:17:24.000Z</Time>
            <Position>
              <LatitudeDegrees>-15.3567826934158802032470703125</LatitudeDegrees>
              <LongitudeDegrees>37.08945424295961856842041015625</LongitudeDegrees>
            </Position>
            <AltitudeMeters>1170.4000244140625</AltitudeMeters>
            <DistanceMeters>NAN</DistanceMeters>
          </Trackpoint>
          <Trackpoint>
            <Time>2021-08-01T15:17:26.000Z</Time>
            <Position>
              <LatitudeDegrees>-15.35677942447364330291748046875</LatitudeDegrees>
              <LongitudeDegrees>37.08947402425110340118408203125</LongitudeDegrees>
            </Position>
            <AltitudeMeters>1170.800048828125</AltitudeMeters>
            <DistanceMeters>NAN</DistanceMeters>
          </Trackpoint>
          <Trackpoint>
            <Time>2021-08-01T15:17:28.000Z</Time>
            <Position>
              <LatitudeDegrees>-15.3567766584455966949462890625</LatitudeDegrees>
              <LongitudeDegrees>37.0894915424287319183349609375</LongitudeDegrees>
            </Position>
            <AltitudeMeters>1171</AltitudeMeters>
            <DistanceMeters>NAN</DistanceMeters>
          </Trackpoint>
          <Trackpoint>
            <Time>2021-08-01T15:17:35.000Z</Time>
            <Position>
              <LatitudeDegrees>-15.35676400177180767059326171875</LatitudeDegrees>
              <LongitudeDegrees>37.0895505510270595550537109375</LongitudeDegrees>
            </Position>
            <AltitudeMeters>1172.199951171875</AltitudeMeters>
            <DistanceMeters>NAN</DistanceMeters>
          </Trackpoint>
          <Trackpoint>
            <Time>2021-08-01T15:17:40.000Z</Time>
            <Position>
              <LatitudeDegrees>-15.35675830207765102386474609375</LatitudeDegrees>
              <LongitudeDegrees>37.08959941752254962921142578125</LongitudeDegrees>
            </Position>
            <AltitudeMeters>1173.5999755859375</AltitudeMeters>
            <DistanceMeters>NAN</DistanceMeters>
          </Trackpoint>
          <Trackpoint>
            <Time>2021-08-01T15:17:45.000Z</Time>
            <Position>
              <LatitudeDegrees>-15.35674891434609889984130859375</LatitudeDegrees>
              <LongitudeDegrees>37.08964870311319828033447265625</LongitudeDegrees>
            </Position>
            <AltitudeMeters>1174.4000244140625</AltitudeMeters>
            <DistanceMeters>NAN</DistanceMeters>
          </Trackpoint>
          <Trackpoint>
            <Time>2021-08-01T15:17:46.000Z</Time>
            <Position>
              <LatitudeDegrees>-15.35674623213708400726318359375</LatitudeDegrees>
              <LongitudeDegrees>37.0896591804921627044677734375</LongitudeDegrees>
            </Position>
            <AltitudeMeters>1174.5999755859375</AltitudeMeters>
            <DistanceMeters>NAN</DistanceMeters>
          </Trackpoint>
          <Trackpoint>
            <Time>2021-08-01T15:17:50.000Z</Time>
            <Position>
              <LatitudeDegrees>-15.35673600621521472930908203125</LatitudeDegrees>
              <LongitudeDegrees>37.0896987430751323699951171875</LongitudeDegrees>
            </Position>
            <AltitudeMeters>1175.4000244140625</AltitudeMeters>
            <DistanceMeters>NAN</DistanceMeters>
          </Trackpoint>
          <Trackpoint>
            <Time>2021-08-01T15:17:51.000Z</Time>
            <Position>
              <LatitudeDegrees>-15.35673449747264385223388671875</LatitudeDegrees>
              <LongitudeDegrees>37.0897067897021770477294921875</LongitudeDegrees>
            </Position>
            <AltitudeMeters>1175.800048828125</AltitudeMeters>
            <DistanceMeters>NAN</DistanceMeters>
          </Trackpoint>
          <Trackpoint>
            <Time>2021-08-01T15:17:57.000Z</Time>
            <Position>
              <LatitudeDegrees>-15.3567226789891719818115234375</LatitudeDegrees>
              <LongitudeDegrees>37.08976621739566326141357421875</LongitudeDegrees>
            </Position>
            <AltitudeMeters>1176.800048828125</AltitudeMeters>
            <DistanceMeters>NAN</DistanceMeters>
          </Trackpoint>
          <Trackpoint>
            <Time>2021-08-01T15:17:59.000Z</Time>
            <Position>
              <LatitudeDegrees>-15.3567129559814929962158203125</LatitudeDegrees>
              <LongitudeDegrees>37.08978935144841670989990234375</LongitudeDegrees>
            </Position>
            <AltitudeMeters>1176.800048828125</AltitudeMeters>
            <DistanceMeters>NAN</DistanceMeters>
          </Trackpoint>
          <Trackpoint>
            <Time>2021-08-01T15:18:04.000Z</Time>
            <Position>
              <LatitudeDegrees>-15.3566938452422618865966796875</LatitudeDegrees>
              <LongitudeDegrees>37.08983109332621097564697265625</LongitudeDegrees>
            </Position>
            <AltitudeMeters>1178</AltitudeMeters>
            <DistanceMeters>NAN</DistanceMeters>
          </Trackpoint>
          <Trackpoint>
            <Time>2021-08-01T15:18:08.000Z</Time>
            <Position>
              <LatitudeDegrees>-15.3566698729991912841796875</LatitudeDegrees>
              <LongitudeDegrees>37.0898640342056751251220703125</LongitudeDegrees>
            </Position>
            <AltitudeMeters>1178.199951171875</AltitudeMeters>
            <DistanceMeters>NAN</DistanceMeters>
          </Trackpoint>
          <Trackpoint>
            <Time>2021-08-01T15:18:09.000Z</Time>
            <Position>
              <LatitudeDegrees>-15.35666274838149547576904296875</LatitudeDegrees>
              <LongitudeDegrees>37.08987149409949779510498046875</LongitudeDegrees>
            </Position>
            <AltitudeMeters>1178.199951171875</AltitudeMeters>
            <DistanceMeters>NAN</DistanceMeters>
          </Trackpoint>
          <Trackpoint>
            <Time>2021-08-01T15:18:17.000Z</Time>
            <Position>
              <LatitudeDegrees>-15.35657859407365322113037109375</LatitudeDegrees>
              <LongitudeDegrees>37.0898764394223690032958984375</LongitudeDegrees>
            </Position>
            <AltitudeMeters>1179</AltitudeMeters>
            <DistanceMeters>NAN</DistanceMeters>
          </Trackpoint>
          <Trackpoint>
            <Time>2021-08-01T15:18:18.000Z</Time>
            <Position>
              <LatitudeDegrees>-15.35656987689435482025146484375</LatitudeDegrees>
              <LongitudeDegrees>37.08987526595592498779296875</LongitudeDegrees>
            </Position>
            <AltitudeMeters>1179.199951171875</AltitudeMeters>
            <DistanceMeters>NAN</DistanceMeters>
          </Trackpoint>
          <Trackpoint>
            <Time>2021-08-01T15:18:26.000Z</Time>
            <Position>
              <LatitudeDegrees>-15.35651899874210357666015625</LatitudeDegrees>
              <LongitudeDegrees>37.08982656709849834442138671875</LongitudeDegrees>
            </Position>
            <AltitudeMeters>1180.199951171875</AltitudeMeters>
            <DistanceMeters>NAN</DistanceMeters>
          </Trackpoint>
          <Trackpoint>
            <Time>2021-08-01T15:18:28.000Z</Time>
            <Position>
              <LatitudeDegrees>-15.356517322361469268798828125</LatitudeDegrees>
              <LongitudeDegrees>37.0898154191672801971435546875</LongitudeDegrees>
            </Position>
            <AltitudeMeters>1180.4000244140625</AltitudeMeters>
            <DistanceMeters>NAN</DistanceMeters>
          </Trackpoint>
          <Trackpoint>
            <Time>2021-08-01T15:18:29.000Z</Time>
            <Position>
              <LatitudeDegrees>-15.35651438869535923004150390625</LatitudeDegrees>
              <LongitudeDegrees>37.0898063667118549346923828125</LongitudeDegrees>
            </Position>
            <AltitudeMeters>1180.4000244140625</AltitudeMeters>
            <DistanceMeters>NAN</DistanceMeters>
          </Trackpoint>
          <Trackpoint>
            <Time>2021-08-01T15:18:31.000Z</Time>
            <Position>
              <LatitudeDegrees>-15.35650533623993396759033203125</LatitudeDegrees>
              <LongitudeDegrees>37.08979169838130474090576171875</LongitudeDegrees>
            </Position>
            <AltitudeMeters>1180.5999755859375</AltitudeMeters>
            <DistanceMeters>NAN</DistanceMeters>
          </Trackpoint>
          <Trackpoint>
            <Time>2021-08-01T15:18:33.000Z</Time>
            <Position>
              <LatitudeDegrees>-15.3564955294132232666015625</LatitudeDegrees>
              <LongitudeDegrees>37.0897765271365642547607421875</LongitudeDegrees>
            </Position>
            <AltitudeMeters>1180.800048828125</AltitudeMeters>
            <DistanceMeters>NAN</DistanceMeters>
          </Trackpoint>
          <Trackpoint>
            <Time>2021-08-01T15:18:36.000Z</Time>
            <Position>
              <LatitudeDegrees>-15.3564802743494510650634765625</LatitudeDegrees>
              <LongitudeDegrees>37.08975180052220821380615234375</LongitudeDegrees>
            </Position>
            <AltitudeMeters>1181</AltitudeMeters>
            <DistanceMeters>NAN</DistanceMeters>
          </Trackpoint>
          <Trackpoint>
            <Time>2021-08-01T15:18:37.000Z</Time>
            <Position>
              <LatitudeDegrees>-15.35647516138851642608642578125</LatitudeDegrees>
              <LongitudeDegrees>37.08974425680935382843017578125</LongitudeDegrees>
            </Position>
            <AltitudeMeters>1181.4000244140625</AltitudeMeters>
            <DistanceMeters>NAN</DistanceMeters>
          </Trackpoint>
          <Trackpoint>
            <Time>2021-08-01T15:18:47.000Z</Time>
            <Position>
              <LatitudeDegrees>-15.35642721690237522125244140625</LatitudeDegrees>
              <LongitudeDegrees>37.089660353958606719970703125</LongitudeDegrees>
            </Position>
            <AltitudeMeters>1182.4000244140625</AltitudeMeters>
            <DistanceMeters>NAN</DistanceMeters>
          </Trackpoint>
          <Trackpoint>
            <Time>2021-08-01T15:18:48.000Z</Time>
            <Position>
              <LatitudeDegrees>-15.35642243921756744384765625</LatitudeDegrees>
              <LongitudeDegrees>37.08965222351253032684326171875</LongitudeDegrees>
            </Position>
            <AltitudeMeters>1182.4000244140625</AltitudeMeters>
            <DistanceMeters>NAN</DistanceMeters>
          </Trackpoint>
          <Trackpoint>
            <Time>2021-08-01T15:18:55.000Z</Time>
            <Position>
              <LatitudeDegrees>-15.35639561712741851806640625</LatitudeDegrees>
              <LongitudeDegrees>37.08958433009684085845947265625</LongitudeDegrees>
            </Position>
            <AltitudeMeters>1183.4000244140625</AltitudeMeters>
            <DistanceMeters>NAN</DistanceMeters>
          </Trackpoint>
          <Trackpoint>
            <Time>2021-08-01T15:18:59.000Z</Time>
            <Position>
              <LatitudeDegrees>-15.356377847492694854736328125</LatitudeDegrees>
              <LongitudeDegrees>37.08954510278999805450439453125</LongitudeDegrees>
            </Position>
            <AltitudeMeters>1184.199951171875</AltitudeMeters>
            <DistanceMeters>NAN</DistanceMeters>
          </Trackpoint>
          <Trackpoint>
            <Time>2021-08-01T15:19:05.000Z</Time>
            <Position>
              <LatitudeDegrees>-15.356342978775501251220703125</LatitudeDegrees>
              <LongitudeDegrees>37.08948927931487560272216796875</LongitudeDegrees>
            </Position>
            <AltitudeMeters>1184.5999755859375</AltitudeMeters>
            <DistanceMeters>NAN</DistanceMeters>
          </Trackpoint>
          <Trackpoint>
            <Time>2021-08-01T15:19:09.000Z</Time>
            <Position>
              <LatitudeDegrees>-15.3563265502452850341796875</LatitudeDegrees>
              <LongitudeDegrees>37.08943915553390979766845703125</LongitudeDegrees>
            </Position>
            <AltitudeMeters>1185</AltitudeMeters>
            <DistanceMeters>NAN</DistanceMeters>
          </Trackpoint>
          <Trackpoint>
            <Time>2021-08-01T15:19:16.000Z</Time>
            <Position>
              <LatitudeDegrees>-15.3562952019274234771728515625</LatitudeDegrees>
              <LongitudeDegrees>37.08938567899167537689208984375</LongitudeDegrees>
            </Position>
            <AltitudeMeters>1185.5999755859375</AltitudeMeters>
            <DistanceMeters>NAN</DistanceMeters>
          </Trackpoint>
          <Trackpoint>
            <Time>2021-08-01T15:19:18.000Z</Time>
            <Position>
              <LatitudeDegrees>-15.35628707148134708404541015625</LatitudeDegrees>
              <LongitudeDegrees>37.08937310613691806793212890625</LongitudeDegrees>
            </Position>
            <AltitudeMeters>1186</AltitudeMeters>
            <DistanceMeters>NAN</DistanceMeters>
          </Trackpoint>
          <Trackpoint>
            <Time>2021-08-01T15:19:21.000Z</Time>
            <Position>
              <LatitudeDegrees>-15.35627366043627262115478515625</LatitudeDegrees>
              <LongitudeDegrees>37.0893493853509426116943359375</LongitudeDegrees>
            </Position>
            <AltitudeMeters>1186.800048828125</AltitudeMeters>
            <DistanceMeters>NAN</DistanceMeters>
          </Trackpoint>
          <Trackpoint>
            <Time>2021-08-01T15:19:28.000Z</Time>
            <Position>
              <LatitudeDegrees>-15.35623141564428806304931640625</LatitudeDegrees>
              <LongitudeDegrees>37.08928626962006092071533203125</LongitudeDegrees>
            </Position>
            <AltitudeMeters>1188</AltitudeMeters>
            <DistanceMeters>NAN</DistanceMeters>
          </Trackpoint>
          <Trackpoint>
            <Time>2021-08-01T15:19:32.000Z</Time>
            <Position>
              <LatitudeDegrees>-15.35620895214378833770751953125</LatitudeDegrees>
              <LongitudeDegrees>37.08925374783575534820556640625</LongitudeDegrees>
            </Position>
            <AltitudeMeters>1188.5999755859375</AltitudeMeters>
            <DistanceMeters>NAN</DistanceMeters>
          </Trackpoint>
          <Trackpoint>
            <Time>2021-08-01T15:19:37.000Z</Time>
            <Position>
              <LatitudeDegrees>-15.35618213005363941192626953125</LatitudeDegrees>
              <LongitudeDegrees>37.08920831792056560516357421875</LongitudeDegrees>
            </Position>
            <AltitudeMeters>1189</AltitudeMeters>
            <DistanceMeters>NAN</DistanceMeters>
          </Trackpoint>
          <Trackpoint>
            <Time>2021-08-01T15:19:40.000Z</Time>
            <Position>
              <LatitudeDegrees>-15.35616762936115264892578125</LatitudeDegrees>
              <LongitudeDegrees>37.08918518386781215667724609375</LongitudeDegrees>
            </Position>
            <AltitudeMeters>1189.4000244140625</AltitudeMeters>
            <DistanceMeters>NAN</DistanceMeters>
          </Trackpoint>
          <Trackpoint>
            <Time>2021-08-01T15:19:48.000Z</Time>
            <Position>
              <LatitudeDegrees>-15.3561265580356121063232421875</LatitudeDegrees>
              <LongitudeDegrees>37.08911829628050327301025390625</LongitudeDegrees>
            </Position>
            <AltitudeMeters>1190.199951171875</AltitudeMeters>
            <DistanceMeters>NAN</DistanceMeters>
          </Trackpoint>
          <Trackpoint>
            <Time>2021-08-01T15:19:49.000Z</Time>
            <Position>
              <LatitudeDegrees>-15.35612161271274089813232421875</LatitudeDegrees>
              <LongitudeDegrees>37.0891130156815052032470703125</LongitudeDegrees>
            </Position>
            <AltitudeMeters>1190.5999755859375</AltitudeMeters>
            <DistanceMeters>NAN</DistanceMeters>
          </Trackpoint>
          <Trackpoint>
            <Time>2021-08-01T15:19:55.000Z</Time>
            <Position>
              <LatitudeDegrees>-15.3560937009751796722412109375</LatitudeDegrees>
              <LongitudeDegrees>37.08906364627182483673095703125</LongitudeDegrees>
            </Position>
            <AltitudeMeters>1191.5999755859375</AltitudeMeters>
            <DistanceMeters>NAN</DistanceMeters>
          </Trackpoint>
          <Trackpoint>
            <Time>2021-08-01T15:19:56.000Z</Time>
            <Position>
              <LatitudeDegrees>-15.356089174747467041015625</LatitudeDegrees>
              <LongitudeDegrees>37.08905585110187530517578125</LongitudeDegrees>
            </Position>
            <AltitudeMeters>1192</AltitudeMeters>
            <DistanceMeters>NAN</DistanceMeters>
          </Trackpoint>
          <Trackpoint>
            <Time>2021-08-01T15:19:58.000Z</Time>
            <Position>
              <LatitudeDegrees>-15.3560776077210903167724609375</LatitudeDegrees>
              <LongitudeDegrees>37.08903850056231021881103515625</LongitudeDegrees>
            </Position>
            <AltitudeMeters>1192</AltitudeMeters>
            <DistanceMeters>NAN</DistanceMeters>
          </Trackpoint>
          <Trackpoint>
            <Time>2021-08-01T15:19:59.000Z</Time>
            <Position>
              <LatitudeDegrees>-15.35607199184596538543701171875</LatitudeDegrees>
              <LongitudeDegrees>37.08903062157332897186279296875</LongitudeDegrees>
            </Position>
            <AltitudeMeters>1192</AltitudeMeters>
            <DistanceMeters>NAN</DistanceMeters>
          </Trackpoint>
          <Trackpoint>
            <Time>2021-08-01T15:20:03.000Z</Time>
            <Position>
              <LatitudeDegrees>-15.35605221055448055267333984375</LatitudeDegrees>
              <LongitudeDegrees>37.0889980159699916839599609375</LongitudeDegrees>
            </Position>
            <AltitudeMeters>1192.800048828125</AltitudeMeters>
            <DistanceMeters>NAN</DistanceMeters>
          </Trackpoint>
          <Trackpoint>
            <Time>2021-08-01T15:20:06.000Z</Time>
            <Position>
              <LatitudeDegrees>-15.3560393862426280975341796875</LatitudeDegrees>
              <LongitudeDegrees>37.0889728702604770660400390625</LongitudeDegrees>
            </Position>
            <AltitudeMeters>1193.199951171875</AltitudeMeters>
            <DistanceMeters>NAN</DistanceMeters>
          </Trackpoint>
          <Trackpoint>
            <Time>2021-08-01T15:20:10.000Z</Time>
            <Position>
              <LatitudeDegrees>-15.3560189343988895416259765625</LatitudeDegrees>
              <LongitudeDegrees>37.088943533599376678466796875</LongitudeDegrees>
            </Position>
            <AltitudeMeters>1193.800048828125</AltitudeMeters>
            <DistanceMeters>NAN</DistanceMeters>
          </Trackpoint>
          <Trackpoint>
            <Time>2021-08-01T15:20:15.000Z</Time>
            <Position>
              <LatitudeDegrees>-15.35599370487034320831298828125</LatitudeDegrees>
              <LongitudeDegrees>37.08890791051089763641357421875</LongitudeDegrees>
            </Position>
            <AltitudeMeters>1195</AltitudeMeters>
            <DistanceMeters>NAN</DistanceMeters>
          </Trackpoint>
          <Trackpoint>
            <Time>2021-08-01T15:20:17.000Z</Time>
            <Position>
              <LatitudeDegrees>-15.35598599351942539215087890625</LatitudeDegrees>
              <LongitudeDegrees>37.08889366127550601959228515625</LongitudeDegrees>
            </Position>
            <AltitudeMeters>1195</AltitudeMeters>
            <DistanceMeters>NAN</DistanceMeters>
          </Trackpoint>
          <Trackpoint>
            <Time>2021-08-01T15:20:23.000Z</Time>
            <Position>
              <LatitudeDegrees>-15.355959422886371612548828125</LatitudeDegrees>
              <LongitudeDegrees>37.08885041065514087677001953125</LongitudeDegrees>
            </Position>
            <AltitudeMeters>1196.199951171875</AltitudeMeters>
            <DistanceMeters>NAN</DistanceMeters>
          </Trackpoint>
          <Trackpoint>
            <Time>2021-08-01T15:20:25.000Z</Time>
            <Position>
              <LatitudeDegrees>-15.35594902932643890380859375</LatitudeDegrees>
              <LongitudeDegrees>37.08883213810622692108154296875</LongitudeDegrees>
            </Position>
            <AltitudeMeters>1196.5999755859375</AltitudeMeters>
            <DistanceMeters>NAN</DistanceMeters>
          </Trackpoint>
          <Trackpoint>
            <Time>2021-08-01T15:20:31.000Z</Time>
            <Position>
              <LatitudeDegrees>-15.3559180162847042083740234375</LatitudeDegrees>
              <LongitudeDegrees>37.0887824334204196929931640625</LongitudeDegrees>
            </Position>
            <AltitudeMeters>1197.4000244140625</AltitudeMeters>
            <DistanceMeters>NAN</DistanceMeters>
          </Trackpoint>
          <Trackpoint>
            <Time>2021-08-01T15:20:33.000Z</Time>
            <Position>
              <LatitudeDegrees>-15.3559113107621669769287109375</LatitudeDegrees>
              <LongitudeDegrees>37.0887666754424571990966796875</LongitudeDegrees>
            </Position>
            <AltitudeMeters>1197.5999755859375</AltitudeMeters>
            <DistanceMeters>NAN</DistanceMeters>
          </Trackpoint>
          <Trackpoint>
            <Time>2021-08-01T15:20:38.000Z</Time>
            <Position>
              <LatitudeDegrees>-15.3558786213397979736328125</LatitudeDegrees>
              <LongitudeDegrees>37.088735997676849365234375</LongitudeDegrees>
            </Position>
            <AltitudeMeters>1198.4000244140625</AltitudeMeters>
            <DistanceMeters>NAN</DistanceMeters>
          </Trackpoint>
          <Trackpoint>
            <Time>2021-08-01T15:20:40.000Z</Time>
            <Position>
              <LatitudeDegrees>-15.3558660484850406646728515625</LatitudeDegrees>
              <LongitudeDegrees>37.0887177251279354095458984375</LongitudeDegrees>
            </Position>
            <AltitudeMeters>1198.800048828125</AltitudeMeters>
            <DistanceMeters>NAN</DistanceMeters>
          </Trackpoint>
          <Trackpoint>
            <Time>2021-08-01T15:20:43.000Z</Time>
            <Position>
              <LatitudeDegrees>-15.35585473291575908660888671875</LatitudeDegrees>
              <LongitudeDegrees>37.088695429265499114990234375</LongitudeDegrees>
            </Position>
            <AltitudeMeters>1199.4000244140625</AltitudeMeters>
            <DistanceMeters>NAN</DistanceMeters>
          </Trackpoint>
          <Trackpoint>
            <Time>2021-08-01T15:20:52.000Z</Time>
            <Position>
              <LatitudeDegrees>-15.35580217838287353515625</LatitudeDegrees>
              <LongitudeDegrees>37.08863063715398311614990234375</LongitudeDegrees>
            </Position>
            <AltitudeMeters>1200.5999755859375</AltitudeMeters>
            <DistanceMeters>NAN</DistanceMeters>
          </Trackpoint>
          <Trackpoint>
            <Time>2021-08-01T15:20:53.000Z</Time>
            <Position>
              <LatitudeDegrees>-15.3557993285357952117919921875</LatitudeDegrees>
              <LongitudeDegrees>37.08862443454563617706298828125</LongitudeDegrees>
            </Position>
            <AltitudeMeters>1200.800048828125</AltitudeMeters>
            <DistanceMeters>NAN</DistanceMeters>
          </Trackpoint>
          <Trackpoint>
            <Time>2021-08-01T15:20:59.000Z</Time>
            <Position>
              <LatitudeDegrees>-15.355768315494060516357421875</LatitudeDegrees>
              <LongitudeDegrees>37.08858571015298366546630859375</LongitudeDegrees>
            </Position>
            <AltitudeMeters>1201.5999755859375</AltitudeMeters>
            <DistanceMeters>NAN</DistanceMeters>
          </Trackpoint>
          <Trackpoint>
            <Time>2021-08-01T15:21:02.000Z</Time>
            <Position>
              <LatitudeDegrees>-15.3557607717812061309814453125</LatitudeDegrees>
              <LongitudeDegrees>37.08856760524213314056396484375</LongitudeDegrees>
            </Position>
            <AltitudeMeters>1202</AltitudeMeters>
            <DistanceMeters>NAN</DistanceMeters>
          </Trackpoint>
          <Trackpoint>
            <Time>2021-08-01T15:21:06.000Z</Time>
            <Position>
              <LatitudeDegrees>-15.35574660636484622955322265625</LatitudeDegrees>
              <LongitudeDegrees>37.08853055723011493682861328125</LongitudeDegrees>
            </Position>
            <AltitudeMeters>1202.800048828125</AltitudeMeters>
            <DistanceMeters>NAN</DistanceMeters>
          </Trackpoint>
          <Trackpoint>
            <Time>2021-08-01T15:21:11.000Z</Time>
            <Position>
              <LatitudeDegrees>-15.3557128272950649261474609375</LatitudeDegrees>
              <LongitudeDegrees>37.08848412148654460906982421875</LongitudeDegrees>
            </Position>
            <AltitudeMeters>1203</AltitudeMeters>
            <DistanceMeters>NAN</DistanceMeters>
          </Trackpoint>
          <Trackpoint>
            <Time>2021-08-01T15:21:18.000Z</Time>
            <Position>
              <LatitudeDegrees>-15.3556856699287891387939453125</LatitudeDegrees>
              <LongitudeDegrees>37.088474817574024200439453125</LongitudeDegrees>
            </Position>
            <AltitudeMeters>1203.800048828125</AltitudeMeters>
            <DistanceMeters>NAN</DistanceMeters>
          </Trackpoint>
          <Trackpoint>
            <Time>2021-08-01T15:21:24.000Z</Time>
            <Position>
              <LatitudeDegrees>-15.35562557168304920196533203125</LatitudeDegrees>
              <LongitudeDegrees>37.08843902684748172760009765625</LongitudeDegrees>
            </Position>
            <AltitudeMeters>1204.800048828125</AltitudeMeters>
            <DistanceMeters>NAN</DistanceMeters>
          </Trackpoint>
          <Trackpoint>
            <Time>2021-08-01T15:21:25.000Z</Time>
            <Position>
              <LatitudeDegrees>-15.3556184470653533935546875</LatitudeDegrees>
              <LongitudeDegrees>37.08843014203011989593505859375</LongitudeDegrees>
            </Position>
            <AltitudeMeters>1205</AltitudeMeters>
            <DistanceMeters>NAN</DistanceMeters>
          </Trackpoint>
          <Trackpoint>
            <Time>2021-08-01T15:21:27.000Z</Time>
            <Position>
              <LatitudeDegrees>-15.35559858195483684539794921875</LatitudeDegrees>
              <LongitudeDegrees>37.08841874264180660247802734375</LongitudeDegrees>
            </Position>
            <AltitudeMeters>1205</AltitudeMeters>
            <DistanceMeters>NAN</DistanceMeters>
          </Trackpoint>
          <Trackpoint>
            <Time>2021-08-01T15:21:32.000Z</Time>
            <Position>
              <LatitudeDegrees>-15.35555432550609111785888671875</LatitudeDegrees>
              <LongitudeDegrees>37.0883913338184356689453125</LongitudeDegrees>
            </Position>
            <AltitudeMeters>1205.800048828125</AltitudeMeters>
            <DistanceMeters>NAN</DistanceMeters>
          </Trackpoint>
          <Trackpoint>
            <Time>2021-08-01T15:21:33.000Z</Time>
            <Position>
              <LatitudeDegrees>-15.355541668832302093505859375</LatitudeDegrees>
              <LongitudeDegrees>37.0883881486952304840087890625</LongitudeDegrees>
            </Position>
            <AltitudeMeters>1206</AltitudeMeters>
            <DistanceMeters>NAN</DistanceMeters>
          </Trackpoint>
          <Trackpoint>
            <Time>2021-08-01T15:21:34.000Z</Time>
            <Position>
              <LatitudeDegrees>-15.35553337074816226959228515625</LatitudeDegrees>
              <LongitudeDegrees>37.08838521502912044525146484375</LongitudeDegrees>
            </Position>
            <AltitudeMeters>1206.199951171875</AltitudeMeters>
            <DistanceMeters>NAN</DistanceMeters>
          </Trackpoint>
          <Trackpoint>
            <Time>2021-08-01T15:21:35.000Z</Time>
            <Position>
              <LatitudeDegrees>-15.35552549175918102264404296875</LatitudeDegrees>
              <LongitudeDegrees>37.08838219754397869110107421875</LongitudeDegrees>
            </Position>
            <AltitudeMeters>1206.4000244140625</AltitudeMeters>
            <DistanceMeters>NAN</DistanceMeters>
          </Trackpoint>
          <Trackpoint>
            <Time>2021-08-01T15:21:39.000Z</Time>
            <Position>
              <LatitudeDegrees>-15.35548827610909938812255859375</LatitudeDegrees>
              <LongitudeDegrees>37.08836509846150875091552734375</LongitudeDegrees>
            </Position>
            <AltitudeMeters>1207.199951171875</AltitudeMeters>
            <DistanceMeters>NAN</DistanceMeters>
          </Trackpoint>
          <Trackpoint>
            <Time>2021-08-01T15:21:41.000Z</Time>
            <Position>
              <LatitudeDegrees>-15.35546950064599514007568359375</LatitudeDegrees>
              <LongitudeDegrees>37.08834649063646793365478515625</LongitudeDegrees>
            </Position>
            <AltitudeMeters>1207.4000244140625</AltitudeMeters>
            <DistanceMeters>NAN</DistanceMeters>
          </Trackpoint>
          <Trackpoint>
            <Time>2021-08-01T15:21:43.000Z</Time>
            <Position>
              <LatitudeDegrees>-15.35545860417187213897705078125</LatitudeDegrees>
              <LongitudeDegrees>37.08833760581910610198974609375</LongitudeDegrees>
            </Position>
            <AltitudeMeters>1207.800048828125</AltitudeMeters>
            <DistanceMeters>NAN</DistanceMeters>
          </Trackpoint>
          <Trackpoint>
            <Time>2021-08-01T15:21:44.000Z</Time>
            <Position>
              <LatitudeDegrees>-15.355451144278049468994140625</LatitudeDegrees>
              <LongitudeDegrees>37.08833760581910610198974609375</LongitudeDegrees>
            </Position>
            <AltitudeMeters>1208</AltitudeMeters>
            <DistanceMeters>NAN</DistanceMeters>
          </Trackpoint>
          <Trackpoint>
            <Time>2021-08-01T15:21:46.000Z</Time>
            <Position>
              <LatitudeDegrees>-15.35542859695851802825927734375</LatitudeDegrees>
              <LongitudeDegrees>37.08833559416234493255615234375</LongitudeDegrees>
            </Position>
            <AltitudeMeters>1208</AltitudeMeters>
            <DistanceMeters>NAN</DistanceMeters>
          </Trackpoint>
          <Trackpoint>
            <Time>2021-08-01T15:21:49.000Z</Time>
            <Position>
              <LatitudeDegrees>-15.3554065525531768798828125</LatitudeDegrees>
              <LongitudeDegrees>37.08832897245883941650390625</LongitudeDegrees>
            </Position>
            <AltitudeMeters>1208.199951171875</AltitudeMeters>
            <DistanceMeters>NAN</DistanceMeters>
          </Trackpoint>
          <Trackpoint>
            <Time>2021-08-01T15:21:50.000Z</Time>
            <Position>
              <LatitudeDegrees>-15.355403535068035125732421875</LatitudeDegrees>
              <LongitudeDegrees>37.0883274637162685394287109375</LongitudeDegrees>
            </Position>
            <AltitudeMeters>1208.199951171875</AltitudeMeters>
            <DistanceMeters>NAN</DistanceMeters>
          </Trackpoint>
          <Trackpoint>
            <Time>2021-08-01T15:21:58.000Z</Time>
            <Position>
              <LatitudeDegrees>-15.35534259863197803497314453125</LatitudeDegrees>
              <LongitudeDegrees>37.08830173127353191375732421875</LongitudeDegrees>
            </Position>
            <AltitudeMeters>1209</AltitudeMeters>
            <DistanceMeters>NAN</DistanceMeters>
          </Trackpoint>
          <Trackpoint>
            <Time>2021-08-01T15:21:59.000Z</Time>
            <Position>
              <LatitudeDegrees>-15.3553312830626964569091796875</LatitudeDegrees>
              <LongitudeDegrees>37.0882982946932315826416015625</LongitudeDegrees>
            </Position>
            <AltitudeMeters>1209.199951171875</AltitudeMeters>
            <DistanceMeters>NAN</DistanceMeters>
          </Trackpoint>
          <Trackpoint>
            <Time>2021-08-01T15:22:02.000Z</Time>
            <Position>
              <LatitudeDegrees>-15.3553058020770549774169921875</LatitudeDegrees>
              <LongitudeDegrees>37.0882982946932315826416015625</LongitudeDegrees>
            </Position>
            <AltitudeMeters>1209.199951171875</AltitudeMeters>
            <DistanceMeters>NAN</DistanceMeters>
          </Trackpoint>
          <Trackpoint>
            <Time>2021-08-01T15:22:03.000Z</Time>
            <Position>
              <LatitudeDegrees>-15.35529800690710544586181640625</LatitudeDegrees>
              <LongitudeDegrees>37.08830206654965877532958984375</LongitudeDegrees>
            </Position>
            <AltitudeMeters>1209.4000244140625</AltitudeMeters>
            <DistanceMeters>NAN</DistanceMeters>
          </Trackpoint>
          <Trackpoint>
            <Time>2021-08-01T15:22:08.000Z</Time>
            <Position>
              <LatitudeDegrees>-15.355268418788909912109375</LatitudeDegrees>
              <LongitudeDegrees>37.08831178955733776092529296875</LongitudeDegrees>
            </Position>
            <AltitudeMeters>1209.800048828125</AltitudeMeters>
            <DistanceMeters>NAN</DistanceMeters>
          </Trackpoint>
          <Trackpoint>
            <Time>2021-08-01T15:22:09.000Z</Time>
            <Position>
              <LatitudeDegrees>-15.3552622161805629730224609375</LatitudeDegrees>
              <LongitudeDegrees>37.08830810151994228363037109375</LongitudeDegrees>
            </Position>
            <AltitudeMeters>1210</AltitudeMeters>
            <DistanceMeters>NAN</DistanceMeters>
          </Trackpoint>
          <Trackpoint>
            <Time>2021-08-01T15:22:11.000Z</Time>
            <Position>
              <LatitudeDegrees>-15.35524738021194934844970703125</LatitudeDegrees>
              <LongitudeDegrees>37.08830357529222965240478515625</LongitudeDegrees>
            </Position>
            <AltitudeMeters>1210.199951171875</AltitudeMeters>
            <DistanceMeters>NAN</DistanceMeters>
          </Trackpoint>
          <Trackpoint>
            <Time>2021-08-01T15:22:12.000Z</Time>
            <Position>
              <LatitudeDegrees>-15.3552360646426677703857421875</LatitudeDegrees>
              <LongitudeDegrees>37.088297791779041290283203125</LongitudeDegrees>
            </Position>
            <AltitudeMeters>1210.4000244140625</AltitudeMeters>
            <DistanceMeters>NAN</DistanceMeters>
          </Trackpoint>
          <Trackpoint>
            <Time>2021-08-01T15:22:14.000Z</Time>
            <Position>
              <LatitudeDegrees>-15.35521502606570720672607421875</LatitudeDegrees>
              <LongitudeDegrees>37.08828739821910858154296875</LongitudeDegrees>
            </Position>
            <AltitudeMeters>1210.5999755859375</AltitudeMeters>
            <DistanceMeters>NAN</DistanceMeters>
          </Trackpoint>
          <Trackpoint>
            <Time>2021-08-01T15:22:16.000Z</Time>
            <Position>
              <LatitudeDegrees>-15.355186276137828826904296875</LatitudeDegrees>
              <LongitudeDegrees>37.08828027360141277313232421875</LongitudeDegrees>
            </Position>
            <AltitudeMeters>1210.800048828125</AltitudeMeters>
            <DistanceMeters>NAN</DistanceMeters>
          </Trackpoint>
          <Trackpoint>
            <Time>2021-08-01T15:22:18.000Z</Time>
            <Position>
              <LatitudeDegrees>-15.3551716916263103485107421875</LatitudeDegrees>
              <LongitudeDegrees>37.08828664384782314300537109375</LongitudeDegrees>
            </Position>
            <AltitudeMeters>1211</AltitudeMeters>
            <DistanceMeters>NAN</DistanceMeters>
          </Trackpoint>
          <Trackpoint>
            <Time>2021-08-01T15:22:20.000Z</Time>
            <Position>
              <LatitudeDegrees>-15.355151407420635223388671875</LatitudeDegrees>
              <LongitudeDegrees>37.0882677845656871795654296875</LongitudeDegrees>
            </Position>
            <AltitudeMeters>1211.199951171875</AltitudeMeters>
            <DistanceMeters>NAN</DistanceMeters>
          </Trackpoint>
          <Trackpoint>
            <Time>2021-08-01T15:22:22.000Z</Time>
            <Position>
              <LatitudeDegrees>-15.35513170994818210601806640625</LatitudeDegrees>
              <LongitudeDegrees>37.088247500360012054443359375</LongitudeDegrees>
            </Position>
            <AltitudeMeters>1211.5999755859375</AltitudeMeters>
            <DistanceMeters>NAN</DistanceMeters>
          </Trackpoint>
          <Trackpoint>
            <Time>2021-08-01T15:22:25.000Z</Time>
            <Position>
              <LatitudeDegrees>-15.3551046364009380340576171875</LatitudeDegrees>
              <LongitudeDegrees>37.0882171578705310821533203125</LongitudeDegrees>
            </Position>
            <AltitudeMeters>1212</AltitudeMeters>
            <DistanceMeters>NAN</DistanceMeters>
          </Trackpoint>
          <Trackpoint>
            <Time>2021-08-01T15:22:26.000Z</Time>
            <Position>
              <LatitudeDegrees>-15.35509700886905193328857421875</LatitudeDegrees>
              <LongitudeDegrees>37.08821523003280162811279296875</LongitudeDegrees>
            </Position>
            <AltitudeMeters>1212.4000244140625</AltitudeMeters>
            <DistanceMeters>NAN</DistanceMeters>
          </Trackpoint>
          <Trackpoint>
            <Time>2021-08-01T15:22:33.000Z</Time>
            <Position>
              <LatitudeDegrees>-15.3550171293318271636962890625</LatitudeDegrees>
              <LongitudeDegrees>37.0881873182952404022216796875</LongitudeDegrees>
            </Position>
            <AltitudeMeters>1213.4000244140625</AltitudeMeters>
            <DistanceMeters>NAN</DistanceMeters>
          </Trackpoint>
          <Trackpoint>
            <Time>2021-08-01T15:22:34.000Z</Time>
            <Position>
              <LatitudeDegrees>-15.35500380210578441619873046875</LatitudeDegrees>
              <LongitudeDegrees>37.08818337880074977874755859375</LongitudeDegrees>
            </Position>
            <AltitudeMeters>1213.4000244140625</AltitudeMeters>
            <DistanceMeters>NAN</DistanceMeters>
          </Trackpoint>
          <Trackpoint>
            <Time>2021-08-01T15:22:36.000Z</Time>
            <Position>
              <LatitudeDegrees>-15.354980416595935821533203125</LatitudeDegrees>
              <LongitudeDegrees>37.08818287588655948638916015625</LongitudeDegrees>
            </Position>
            <AltitudeMeters>1213.4000244140625</AltitudeMeters>
            <DistanceMeters>NAN</DistanceMeters>
          </Trackpoint>
          <Trackpoint>
            <Time>2021-08-01T15:22:39.000Z</Time>
            <Position>
              <LatitudeDegrees>-15.3549510799348354339599609375</LatitudeDegrees>
              <LongitudeDegrees>37.0881822891533374786376953125</LongitudeDegrees>
            </Position>
            <AltitudeMeters>1213.5999755859375</AltitudeMeters>
            <DistanceMeters>NAN</DistanceMeters>
          </Trackpoint>
          <Trackpoint>
            <Time>2021-08-01T15:22:42.000Z</Time>
            <Position>
              <LatitudeDegrees>-15.3549252636730670928955078125</LatitudeDegrees>
              <LongitudeDegrees>37.08818606100976467132568359375</LongitudeDegrees>
            </Position>
            <AltitudeMeters>1214</AltitudeMeters>
            <DistanceMeters>NAN</DistanceMeters>
          </Trackpoint>
          <Trackpoint>
            <Time>2021-08-01T15:22:45.000Z</Time>
            <Position>
              <LatitudeDegrees>-15.3548994474112987518310546875</LatitudeDegrees>
              <LongitudeDegrees>37.08818069659173488616943359375</LongitudeDegrees>
            </Position>
            <AltitudeMeters>1214.199951171875</AltitudeMeters>
            <DistanceMeters>NAN</DistanceMeters>
          </Trackpoint>
          <Trackpoint>
            <Time>2021-08-01T15:22:46.000Z</Time>
            <Position>
              <LatitudeDegrees>-15.35489131696522235870361328125</LatitudeDegrees>
              <LongitudeDegrees>37.08817608654499053955078125</LongitudeDegrees>
            </Position>
            <AltitudeMeters>1214.4000244140625</AltitudeMeters>
            <DistanceMeters>NAN</DistanceMeters>
          </Trackpoint>
          <Trackpoint>
            <Time>2021-08-01T15:22:52.000Z</Time>
            <Position>
              <LatitudeDegrees>-15.35484404303133487701416015625</LatitudeDegrees>
              <LongitudeDegrees>37.0881472527980804443359375</LongitudeDegrees>
            </Position>
            <AltitudeMeters>1215.199951171875</AltitudeMeters>
            <DistanceMeters>NAN</DistanceMeters>
          </Trackpoint>
          <Trackpoint>
            <Time>2021-08-01T15:22:53.000Z</Time>
            <Position>
              <LatitudeDegrees>-15.3548350743949413299560546875</LatitudeDegrees>
              <LongitudeDegrees>37.0881410501897335052490234375</LongitudeDegrees>
            </Position>
            <AltitudeMeters>1215.4000244140625</AltitudeMeters>
            <DistanceMeters>NAN</DistanceMeters>
          </Trackpoint>
          <Trackpoint>
            <Time>2021-08-01T15:23:01.000Z</Time>
            <Position>
              <LatitudeDegrees>-15.35478386096656322479248046875</LatitudeDegrees>
              <LongitudeDegrees>37.088130153715610504150390625</LongitudeDegrees>
            </Position>
            <AltitudeMeters>1216.4000244140625</AltitudeMeters>
            <DistanceMeters>NAN</DistanceMeters>
          </Trackpoint>
          <Trackpoint>
            <Time>2021-08-01T15:23:04.000Z</Time>
            <Position>
              <LatitudeDegrees>-15.35477514378726482391357421875</LatitudeDegrees>
              <LongitudeDegrees>37.0881433971226215362548828125</LongitudeDegrees>
            </Position>
            <AltitudeMeters>1216.5999755859375</AltitudeMeters>
            <DistanceMeters>NAN</DistanceMeters>
          </Trackpoint>
          <Trackpoint>
            <Time>2021-08-01T15:23:08.000Z</Time>
            <Position>
              <LatitudeDegrees>-15.354757793247699737548828125</LatitudeDegrees>
              <LongitudeDegrees>37.0881078578531742095947265625</LongitudeDegrees>
            </Position>
            <AltitudeMeters>1216.800048828125</AltitudeMeters>
            <DistanceMeters>NAN</DistanceMeters>
          </Trackpoint>
          <Trackpoint>
            <Time>2021-08-01T15:23:10.000Z</Time>
            <Position>
              <LatitudeDegrees>-15.35474094562232494354248046875</LatitudeDegrees>
              <LongitudeDegrees>37.08809603936970233917236328125</LongitudeDegrees>
            </Position>
            <AltitudeMeters>1217</AltitudeMeters>
            <DistanceMeters>NAN</DistanceMeters>
          </Trackpoint>
          <Trackpoint>
            <Time>2021-08-01T15:23:13.000Z</Time>
            <Position>
              <LatitudeDegrees>-15.354712195694446563720703125</LatitudeDegrees>
              <LongitudeDegrees>37.0880803652107715606689453125</LongitudeDegrees>
            </Position>
            <AltitudeMeters>1217.4000244140625</AltitudeMeters>
            <DistanceMeters>NAN</DistanceMeters>
          </Trackpoint>
          <Trackpoint>
            <Time>2021-08-01T15:23:15.000Z</Time>
            <Position>
              <LatitudeDegrees>-15.35469149239361286163330078125</LatitudeDegrees>
              <LongitudeDegrees>37.08807282149791717529296875</LongitudeDegrees>
            </Position>
            <AltitudeMeters>1217.5999755859375</AltitudeMeters>
            <DistanceMeters>NAN</DistanceMeters>
          </Trackpoint>
          <Trackpoint>
            <Time>2021-08-01T15:23:18.000Z</Time>
            <Position>
              <LatitudeDegrees>-15.3546657599508762359619140625</LatitudeDegrees>
              <LongitudeDegrees>37.0880694687366485595703125</LongitudeDegrees>
            </Position>
            <AltitudeMeters>1218.199951171875</AltitudeMeters>
            <DistanceMeters>NAN</DistanceMeters>
          </Trackpoint>
          <Trackpoint>
            <Time>2021-08-01T15:23:20.000Z</Time>
            <Position>
              <LatitudeDegrees>-15.3546479903161525726318359375</LatitudeDegrees>
              <LongitudeDegrees>37.0880669541656970977783203125</LongitudeDegrees>
            </Position>
            <AltitudeMeters>1218.4000244140625</AltitudeMeters>
            <DistanceMeters>NAN</DistanceMeters>
          </Trackpoint>
          <Trackpoint>
            <Time>2021-08-01T15:23:22.000Z</Time>
            <Position>
              <LatitudeDegrees>-15.35462963394820690155029296875</LatitudeDegrees>
              <LongitudeDegrees>37.088063769042491912841796875</LongitudeDegrees>
            </Position>
            <AltitudeMeters>1218.5999755859375</AltitudeMeters>
            <DistanceMeters>NAN</DistanceMeters>
          </Trackpoint>
          <Trackpoint>
            <Time>2021-08-01T15:23:26.000Z</Time>
            <Position>
              <LatitudeDegrees>-15.35458621568977832794189453125</LatitudeDegrees>
              <LongitudeDegrees>37.08804658614099025726318359375</LongitudeDegrees>
            </Position>
            <AltitudeMeters>1219</AltitudeMeters>
            <DistanceMeters>NAN</DistanceMeters>
          </Trackpoint>
          <Trackpoint>
            <Time>2021-08-01T15:23:32.000Z</Time>
            <Position>
              <LatitudeDegrees>-15.3545266203582286834716796875</LatitudeDegrees>
              <LongitudeDegrees>37.088043652474880218505859375</LongitudeDegrees>
            </Position>
            <AltitudeMeters>1219.5999755859375</AltitudeMeters>
            <DistanceMeters>NAN</DistanceMeters>
          </Trackpoint>
          <Trackpoint>
            <Time>2021-08-01T15:23:33.000Z</Time>
            <Position>
              <LatitudeDegrees>-15.35451983101665973663330078125</LatitudeDegrees>
              <LongitudeDegrees>37.08804340101778507232666015625</LongitudeDegrees>
            </Position>
            <AltitudeMeters>1219.800048828125</AltitudeMeters>
            <DistanceMeters>NAN</DistanceMeters>
          </Trackpoint>
          <Trackpoint>
            <Time>2021-08-01T15:23:34.000Z</Time>
            <Position>
              <LatitudeDegrees>-15.35451111383736133575439453125</LatitudeDegrees>
              <LongitudeDegrees>37.08804541267454624176025390625</LongitudeDegrees>
            </Position>
            <AltitudeMeters>1220</AltitudeMeters>
            <DistanceMeters>NAN</DistanceMeters>
          </Trackpoint>
          <Trackpoint>
            <Time>2021-08-01T15:23:41.000Z</Time>
            <Position>
              <LatitudeDegrees>-15.35443332977592945098876953125</LatitudeDegrees>
              <LongitudeDegrees>37.08801540546119213104248046875</LongitudeDegrees>
            </Position>
            <AltitudeMeters>1220.5999755859375</AltitudeMeters>
            <DistanceMeters>NAN</DistanceMeters>
          </Trackpoint>
          <Trackpoint>
            <Time>2021-08-01T15:23:43.000Z</Time>
            <Position>
              <LatitudeDegrees>-15.35441203974187374114990234375</LatitudeDegrees>
              <LongitudeDegrees>37.08800769411027431488037109375</LongitudeDegrees>
            </Position>
            <AltitudeMeters>1220.800048828125</AltitudeMeters>
            <DistanceMeters>NAN</DistanceMeters>
          </Trackpoint>
          <Trackpoint>
            <Time>2021-08-01T15:23:52.000Z</Time>
            <Position>
              <LatitudeDegrees>-15.354331322014331817626953125</LatitudeDegrees>
              <LongitudeDegrees>37.08798120729625225067138671875</LongitudeDegrees>
            </Position>
            <AltitudeMeters>1221.5999755859375</AltitudeMeters>
            <DistanceMeters>NAN</DistanceMeters>
          </Trackpoint>
          <Trackpoint>
            <Time>2021-08-01T15:23:57.000Z</Time>
            <Position>
              <LatitudeDegrees>-15.3542835451662540435791015625</LatitudeDegrees>
              <LongitudeDegrees>37.08797919563949108123779296875</LongitudeDegrees>
            </Position>
            <AltitudeMeters>1221.800048828125</AltitudeMeters>
            <DistanceMeters>NAN</DistanceMeters>
          </Trackpoint>
          <Trackpoint>
            <Time>2021-08-01T15:23:59.000Z</Time>
            <Position>
              <LatitudeDegrees>-15.3542604111135005950927734375</LatitudeDegrees>
              <LongitudeDegrees>37.087966538965702056884765625</LongitudeDegrees>
            </Position>
            <AltitudeMeters>1222.199951171875</AltitudeMeters>
            <DistanceMeters>NAN</DistanceMeters>
          </Trackpoint>
          <Trackpoint>
            <Time>2021-08-01T15:24:01.000Z</Time>
            <Position>
              <LatitudeDegrees>-15.3542362712323665618896484375</LatitudeDegrees>
              <LongitudeDegrees>37.08795287646353244781494140625</LongitudeDegrees>
            </Position>
            <AltitudeMeters>1222.199951171875</AltitudeMeters>
            <DistanceMeters>NAN</DistanceMeters>
          </Trackpoint>
          <Trackpoint>
            <Time>2021-08-01T15:24:06.000Z</Time>
            <Position>
              <LatitudeDegrees>-15.35418304614722728729248046875</LatitudeDegrees>
              <LongitudeDegrees>37.08793292753398418426513671875</LongitudeDegrees>
            </Position>
            <AltitudeMeters>1222.5999755859375</AltitudeMeters>
            <DistanceMeters>NAN</DistanceMeters>
          </Trackpoint>
          <Trackpoint>
            <Time>2021-08-01T15:24:10.000Z</Time>
            <Position>
              <LatitudeDegrees>-15.35413778387010097503662109375</LatitudeDegrees>
              <LongitudeDegrees>37.08790727891027927398681640625</LongitudeDegrees>
            </Position>
            <AltitudeMeters>1223</AltitudeMeters>
            <DistanceMeters>NAN</DistanceMeters>
          </Trackpoint>
          <Trackpoint>
            <Time>2021-08-01T15:24:11.000Z</Time>
            <Position>
              <LatitudeDegrees>-15.35412671975791454315185546875</LatitudeDegrees>
              <LongitudeDegrees>37.0879023335874080657958984375</LongitudeDegrees>
            </Position>
            <AltitudeMeters>1223.199951171875</AltitudeMeters>
            <DistanceMeters>NAN</DistanceMeters>
          </Trackpoint>
          <Trackpoint>
            <Time>2021-08-01T15:24:18.000Z</Time>
            <Position>
              <LatitudeDegrees>-15.35405631177127361297607421875</LatitudeDegrees>
              <LongitudeDegrees>37.08790342323482036590576171875</LongitudeDegrees>
            </Position>
            <AltitudeMeters>1223.5999755859375</AltitudeMeters>
            <DistanceMeters>NAN</DistanceMeters>
          </Trackpoint>
          <Trackpoint>
            <Time>2021-08-01T15:24:19.000Z</Time>
            <Position>
              <LatitudeDegrees>-15.35404357127845287322998046875</LatitudeDegrees>
              <LongitudeDegrees>37.08790090866386890411376953125</LongitudeDegrees>
            </Position>
            <AltitudeMeters>1223.5999755859375</AltitudeMeters>
            <DistanceMeters>NAN</DistanceMeters>
          </Trackpoint>
          <Trackpoint>
            <Time>2021-08-01T15:24:24.000Z</Time>
            <Position>
              <LatitudeDegrees>-15.35398959182202816009521484375</LatitudeDegrees>
              <LongitudeDegrees>37.08788699470460414886474609375</LongitudeDegrees>
            </Position>
            <AltitudeMeters>1224</AltitudeMeters>
            <DistanceMeters>NAN</DistanceMeters>
          </Trackpoint>
          <Trackpoint>
            <Time>2021-08-01T15:24:29.000Z</Time>
            <Position>
              <LatitudeDegrees>-15.3539415635168552398681640625</LatitudeDegrees>
              <LongitudeDegrees>37.08787023089826107025146484375</LongitudeDegrees>
            </Position>
            <AltitudeMeters>1224.199951171875</AltitudeMeters>
            <DistanceMeters>NAN</DistanceMeters>
          </Trackpoint>
          <Trackpoint>
            <Time>2021-08-01T15:24:30.000Z</Time>
            <Position>
              <LatitudeDegrees>-15.35392907448112964630126953125</LatitudeDegrees>
              <LongitudeDegrees>37.08786704577505588531494140625</LongitudeDegrees>
            </Position>
            <AltitudeMeters>1224.4000244140625</AltitudeMeters>
            <DistanceMeters>NAN</DistanceMeters>
          </Trackpoint>
          <Trackpoint>
            <Time>2021-08-01T15:24:33.000Z</Time>
            <Position>
              <LatitudeDegrees>-15.35389035008847713470458984375</LatitudeDegrees>
              <LongitudeDegrees>37.0878517068922519683837890625</LongitudeDegrees>
            </Position>
            <AltitudeMeters>1224.4000244140625</AltitudeMeters>
            <DistanceMeters>NAN</DistanceMeters>
          </Trackpoint>
          <Trackpoint>
            <Time>2021-08-01T15:24:41.000Z</Time>
            <Position>
              <LatitudeDegrees>-15.3538181819021701812744140625</LatitudeDegrees>
              <LongitudeDegrees>37.0878416486084461212158203125</LongitudeDegrees>
            </Position>
            <AltitudeMeters>1224.199951171875</AltitudeMeters>
            <DistanceMeters>NAN</DistanceMeters>
          </Trackpoint>
          <Trackpoint>
            <Time>2021-08-01T15:24:43.000Z</Time>
            <Position>
              <LatitudeDegrees>-15.353794880211353302001953125</LatitudeDegrees>
              <LongitudeDegrees>37.08783402107656002044677734375</LongitudeDegrees>
            </Position>
            <AltitudeMeters>1224.199951171875</AltitudeMeters>
            <DistanceMeters>NAN</DistanceMeters>
          </Trackpoint>
          <Trackpoint>
            <Time>2021-08-01T15:24:45.000Z</Time>
            <Position>
              <LatitudeDegrees>-15.3537652082741260528564453125</LatitudeDegrees>
              <LongitudeDegrees>37.087821029126644134521484375</LongitudeDegrees>
            </Position>
            <AltitudeMeters>1224</AltitudeMeters>
            <DistanceMeters>NAN</DistanceMeters>
          </Trackpoint>
          <Trackpoint>
            <Time>2021-08-01T15:24:47.000Z</Time>
            <Position>
              <LatitudeDegrees>-15.35374366678297519683837890625</LatitudeDegrees>
              <LongitudeDegrees>37.0878158323466777801513671875</LongitudeDegrees>
            </Position>
            <AltitudeMeters>1224.199951171875</AltitudeMeters>
            <DistanceMeters>NAN</DistanceMeters>
          </Trackpoint>
          <Trackpoint>
            <Time>2021-08-01T15:24:48.000Z</Time>
            <Position>
              <LatitudeDegrees>-15.35373411141335964202880859375</LatitudeDegrees>
              <LongitudeDegrees>37.087811641395092010498046875</LongitudeDegrees>
            </Position>
            <AltitudeMeters>1224</AltitudeMeters>
            <DistanceMeters>NAN</DistanceMeters>
          </Trackpoint>
          <Trackpoint>
            <Time>2021-08-01T15:24:49.000Z</Time>
            <Position>
              <LatitudeDegrees>-15.353723801672458648681640625</LatitudeDegrees>
              <LongitudeDegrees>37.08780334331095218658447265625</LongitudeDegrees>
            </Position>
            <AltitudeMeters>1224</AltitudeMeters>
            <DistanceMeters>NAN</DistanceMeters>
          </Trackpoint>
          <Trackpoint>
            <Time>2021-08-01T15:24:55.000Z</Time>
            <Position>
              <LatitudeDegrees>-15.35365984775125980377197265625</LatitudeDegrees>
              <LongitudeDegrees>37.087792195379734039306640625</LongitudeDegrees>
            </Position>
            <AltitudeMeters>1224</AltitudeMeters>
            <DistanceMeters>NAN</DistanceMeters>
          </Trackpoint>
          <Trackpoint>
            <Time>2021-08-01T15:25:04.000Z</Time>
            <Position>
              <LatitudeDegrees>-15.3535667248070240020751953125</LatitudeDegrees>
              <LongitudeDegrees>37.08778607659041881561279296875</LongitudeDegrees>
            </Position>
            <AltitudeMeters>1224.199951171875</AltitudeMeters>
            <DistanceMeters>NAN</DistanceMeters>
          </Trackpoint>
          <Trackpoint>
            <Time>2021-08-01T15:25:11.000Z</Time>
            <Position>
              <LatitudeDegrees>-15.35348148085176944732666015625</LatitudeDegrees>
              <LongitudeDegrees>37.0877730846405029296875</LongitudeDegrees>
            </Position>
            <AltitudeMeters>1224.199951171875</AltitudeMeters>
            <DistanceMeters>NAN</DistanceMeters>
          </Trackpoint>
          <Trackpoint>
            <Time>2021-08-01T15:25:15.000Z</Time>
            <Position>
              <LatitudeDegrees>-15.353437475860118865966796875</LatitudeDegrees>
              <LongitudeDegrees>37.087768055498600006103515625</LongitudeDegrees>
            </Position>
            <AltitudeMeters>1224.4000244140625</AltitudeMeters>
            <DistanceMeters>NAN</DistanceMeters>
          </Trackpoint>
          <Trackpoint>
            <Time>2021-08-01T15:25:23.000Z</Time>
            <Position>
              <LatitudeDegrees>-15.35334435291588306427001953125</LatitudeDegrees>
              <LongitudeDegrees>37.08776227198541164398193359375</LongitudeDegrees>
            </Position>
            <AltitudeMeters>1224.4000244140625</AltitudeMeters>
            <DistanceMeters>NAN</DistanceMeters>
          </Trackpoint>
          <Trackpoint>
            <Time>2021-08-01T15:25:24.000Z</Time>
            <Position>
              <LatitudeDegrees>-15.3533333726227283477783203125</LatitudeDegrees>
              <LongitudeDegrees>37.0877583324909210205078125</LongitudeDegrees>
            </Position>
            <AltitudeMeters>1224.4000244140625</AltitudeMeters>
            <DistanceMeters>NAN</DistanceMeters>
          </Trackpoint>
          <Trackpoint>
            <Time>2021-08-01T15:25:26.000Z</Time>
            <Position>
              <LatitudeDegrees>-15.35331049002707004547119140625</LatitudeDegrees>
              <LongitudeDegrees>37.08775104023516178131103515625</LongitudeDegrees>
            </Position>
            <AltitudeMeters>1224.4000244140625</AltitudeMeters>
            <DistanceMeters>NAN</DistanceMeters>
          </Trackpoint>
          <Trackpoint>
            <Time>2021-08-01T15:25:28.000Z</Time>
            <Position>
              <LatitudeDegrees>-15.35328618250787258148193359375</LatitudeDegrees>
              <LongitudeDegrees>37.08775355480611324310302734375</LongitudeDegrees>
            </Position>
            <AltitudeMeters>1224.4000244140625</AltitudeMeters>
            <DistanceMeters>NAN</DistanceMeters>
          </Trackpoint>
          <Trackpoint>
            <Time>2021-08-01T15:25:35.000Z</Time>
            <Position>
              <LatitudeDegrees>-15.353203117847442626953125</LatitudeDegrees>
              <LongitudeDegrees>37.08773109130561351776123046875</LongitudeDegrees>
            </Position>
            <AltitudeMeters>1224.199951171875</AltitudeMeters>
            <DistanceMeters>NAN</DistanceMeters>
          </Trackpoint>
          <Trackpoint>
            <Time>2021-08-01T15:25:36.000Z</Time>
            <Position>
              <LatitudeDegrees>-15.35319079644978046417236328125</LatitudeDegrees>
              <LongitudeDegrees>37.08772740326821804046630859375</LongitudeDegrees>
            </Position>
            <AltitudeMeters>1224.199951171875</AltitudeMeters>
            <DistanceMeters>NAN</DistanceMeters>
          </Trackpoint>
          <Trackpoint>
            <Time>2021-08-01T15:25:37.000Z</Time>
            <Position>
              <LatitudeDegrees>-15.35317973233759403228759765625</LatitudeDegrees>
              <LongitudeDegrees>37.08773025311529636383056640625</LongitudeDegrees>
            </Position>
            <AltitudeMeters>1224.199951171875</AltitudeMeters>
            <DistanceMeters>NAN</DistanceMeters>
          </Trackpoint>
          <Trackpoint>
            <Time>2021-08-01T15:25:38.000Z</Time>
            <Position>
              <LatitudeDegrees>-15.35317026078701019287109375</LatitudeDegrees>
              <LongitudeDegrees>37.08773083984851837158203125</LongitudeDegrees>
            </Position>
            <AltitudeMeters>1224.199951171875</AltitudeMeters>
            <DistanceMeters>NAN</DistanceMeters>
          </Trackpoint>
          <Trackpoint>
            <Time>2021-08-01T15:25:40.000Z</Time>
            <Position>
              <LatitudeDegrees>-15.3531469590961933135986328125</LatitudeDegrees>
              <LongitudeDegrees>37.08773260004818439483642578125</LongitudeDegrees>
            </Position>
            <AltitudeMeters>1224.199951171875</AltitudeMeters>
            <DistanceMeters>NAN</DistanceMeters>
          </Trackpoint>
          <Trackpoint>
            <Time>2021-08-01T15:25:41.000Z</Time>
            <Position>
              <LatitudeDegrees>-15.35313363187015056610107421875</LatitudeDegrees>
              <LongitudeDegrees>37.08772949874401092529296875</LongitudeDegrees>
            </Position>
            <AltitudeMeters>1224.199951171875</AltitudeMeters>
            <DistanceMeters>NAN</DistanceMeters>
          </Trackpoint>
          <Trackpoint>
            <Time>2021-08-01T15:25:45.000Z</Time>
            <Position>
              <LatitudeDegrees>-15.353092812001705169677734375</LatitudeDegrees>
              <LongitudeDegrees>37.08772706799209117889404296875</LongitudeDegrees>
            </Position>
            <AltitudeMeters>1224.4000244140625</AltitudeMeters>
            <DistanceMeters>NAN</DistanceMeters>
          </Trackpoint>
          <Trackpoint>
            <Time>2021-08-01T15:25:47.000Z</Time>
            <Position>
              <LatitudeDegrees>-15.353072024881839752197265625</LatitudeDegrees>
              <LongitudeDegrees>37.08773796446621417999267578125</LongitudeDegrees>
            </Position>
            <AltitudeMeters>1224.5999755859375</AltitudeMeters>
            <DistanceMeters>NAN</DistanceMeters>
          </Trackpoint>
          <Trackpoint>
            <Time>2021-08-01T15:25:49.000Z</Time>
            <Position>
              <LatitudeDegrees>-15.353052914142608642578125</LatitudeDegrees>
              <LongitudeDegrees>37.0877390541136264801025390625</LongitudeDegrees>
            </Position>
            <AltitudeMeters>1224.5999755859375</AltitudeMeters>
            <DistanceMeters>NAN</DistanceMeters>
          </Trackpoint>
          <Trackpoint>
            <Time>2021-08-01T15:25:53.000Z</Time>
            <Position>
              <LatitudeDegrees>-15.3530192188918590545654296875</LatitudeDegrees>
              <LongitudeDegrees>37.08774383179843425750732421875</LongitudeDegrees>
            </Position>
            <AltitudeMeters>1225</AltitudeMeters>
            <DistanceMeters>NAN</DistanceMeters>
          </Trackpoint>
          <Trackpoint>
            <Time>2021-08-01T15:25:54.000Z</Time>
            <Position>
              <LatitudeDegrees>-15.3530111722648143768310546875</LatitudeDegrees>
              <LongitudeDegrees>37.08774517290294170379638671875</LongitudeDegrees>
            </Position>
            <AltitudeMeters>1225</AltitudeMeters>
            <DistanceMeters>NAN</DistanceMeters>
          </Trackpoint>
          <Trackpoint>
            <Time>2021-08-01T15:25:56.000Z</Time>
            <Position>
              <LatitudeDegrees>-15.35299113951623439788818359375</LatitudeDegrees>
              <LongitudeDegrees>37.08773980848491191864013671875</LongitudeDegrees>
            </Position>
            <AltitudeMeters>1225.199951171875</AltitudeMeters>
            <DistanceMeters>NAN</DistanceMeters>
          </Trackpoint>
          <Trackpoint>
            <Time>2021-08-01T15:26:00.000Z</Time>
            <Position>
              <LatitudeDegrees>-15.352947972714900970458984375</LatitudeDegrees>
              <LongitudeDegrees>37.08772421814501285552978515625</LongitudeDegrees>
            </Position>
            <AltitudeMeters>1225.5999755859375</AltitudeMeters>
            <DistanceMeters>NAN</DistanceMeters>
          </Trackpoint>
          <Trackpoint>
            <Time>2021-08-01T15:26:02.000Z</Time>
            <Position>
              <LatitudeDegrees>-15.35292224027216434478759765625</LatitudeDegrees>
              <LongitudeDegrees>37.087715081870555877685546875</LongitudeDegrees>
            </Position>
            <AltitudeMeters>1225.5999755859375</AltitudeMeters>
            <DistanceMeters>NAN</DistanceMeters>
          </Trackpoint>
          <Trackpoint>
            <Time>2021-08-01T15:26:04.000Z</Time>
            <Position>
              <LatitudeDegrees>-15.352903045713901519775390625</LatitudeDegrees>
              <LongitudeDegrees>37.08771248348057270050048828125</LongitudeDegrees>
            </Position>
            <AltitudeMeters>1225.5999755859375</AltitudeMeters>
            <DistanceMeters>NAN</DistanceMeters>
          </Trackpoint>
          <Trackpoint>
            <Time>2021-08-01T15:26:06.000Z</Time>
            <Position>
              <LatitudeDegrees>-15.3528852760791778564453125</LatitudeDegrees>
              <LongitudeDegrees>37.0877175964415073394775390625</LongitudeDegrees>
            </Position>
            <AltitudeMeters>1225.800048828125</AltitudeMeters>
            <DistanceMeters>NAN</DistanceMeters>
          </Trackpoint>
          <Trackpoint>
            <Time>2021-08-01T15:26:07.000Z</Time>
            <Position>
              <LatitudeDegrees>-15.352878570556640625</LatitudeDegrees>
              <LongitudeDegrees>37.0877152495086193084716796875</LongitudeDegrees>
            </Position>
            <AltitudeMeters>1226</AltitudeMeters>
            <DistanceMeters>NAN</DistanceMeters>
          </Trackpoint>
          <Trackpoint>
            <Time>2021-08-01T15:26:11.000Z</Time>
            <Position>
              <LatitudeDegrees>-15.3528418578207492828369140625</LatitudeDegrees>
              <LongitudeDegrees>37.0877085439860820770263671875</LongitudeDegrees>
            </Position>
            <AltitudeMeters>1226.199951171875</AltitudeMeters>
            <DistanceMeters>NAN</DistanceMeters>
          </Trackpoint>
          <Trackpoint>
            <Time>2021-08-01T15:26:14.000Z</Time>
            <Position>
              <LatitudeDegrees>-15.35278947092592716217041015625</LatitudeDegrees>
              <LongitudeDegrees>37.087698318064212799072265625</LongitudeDegrees>
            </Position>
            <AltitudeMeters>1226.5999755859375</AltitudeMeters>
            <DistanceMeters>NAN</DistanceMeters>
          </Trackpoint>
          <Trackpoint>
            <Time>2021-08-01T15:26:15.000Z</Time>
            <Position>
              <LatitudeDegrees>-15.3527707792818546295166015625</LatitudeDegrees>
              <LongitudeDegrees>37.08769328892230987548828125</LongitudeDegrees>
            </Position>
            <AltitudeMeters>1226.5999755859375</AltitudeMeters>
            <DistanceMeters>NAN</DistanceMeters>
          </Trackpoint>
          <Trackpoint>
            <Time>2021-08-01T15:26:20.000Z</Time>
            <Position>
              <LatitudeDegrees>-15.3527100943028926849365234375</LatitudeDegrees>
              <LongitudeDegrees>37.08768197335302829742431640625</LongitudeDegrees>
            </Position>
            <AltitudeMeters>1227.199951171875</AltitudeMeters>
            <DistanceMeters>NAN</DistanceMeters>
          </Trackpoint>
          <Trackpoint>
            <Time>2021-08-01T15:26:22.000Z</Time>
            <Position>
              <LatitudeDegrees>-15.352698527276515960693359375</LatitudeDegrees>
              <LongitudeDegrees>37.08767828531563282012939453125</LongitudeDegrees>
            </Position>
            <AltitudeMeters>1227.4000244140625</AltitudeMeters>
            <DistanceMeters>NAN</DistanceMeters>
          </Trackpoint>
          <Trackpoint>
            <Time>2021-08-01T15:26:24.000Z</Time>
            <Position>
              <LatitudeDegrees>-15.3526842780411243438720703125</LatitudeDegrees>
              <LongitudeDegrees>37.08766990341246128082275390625</LongitudeDegrees>
            </Position>
            <AltitudeMeters>1227.5999755859375</AltitudeMeters>
            <DistanceMeters>NAN</DistanceMeters>
          </Trackpoint>
          <Trackpoint>
            <Time>2021-08-01T15:26:25.000Z</Time>
            <Position>
              <LatitudeDegrees>-15.352671705186367034912109375</LatitudeDegrees>
              <LongitudeDegrees>37.0876582525670528411865234375</LongitudeDegrees>
            </Position>
            <AltitudeMeters>1227.800048828125</AltitudeMeters>
            <DistanceMeters>NAN</DistanceMeters>
          </Trackpoint>
          <Trackpoint>
            <Time>2021-08-01T15:26:28.000Z</Time>
            <Position>
              <LatitudeDegrees>-15.35263725556433200836181640625</LatitudeDegrees>
              <LongitudeDegrees>37.087645344436168670654296875</LongitudeDegrees>
            </Position>
            <AltitudeMeters>1228</AltitudeMeters>
            <DistanceMeters>NAN</DistanceMeters>
          </Trackpoint>
          <Trackpoint>
            <Time>2021-08-01T15:26:32.000Z</Time>
            <Position>
              <LatitudeDegrees>-15.35258729942142963409423828125</LatitudeDegrees>
              <LongitudeDegrees>37.0876428298652172088623046875</LongitudeDegrees>
            </Position>
            <AltitudeMeters>1228.800048828125</AltitudeMeters>
            <DistanceMeters>NAN</DistanceMeters>
          </Trackpoint>
          <Trackpoint>
            <Time>2021-08-01T15:26:33.000Z</Time>
            <Position>
              <LatitudeDegrees>-15.3525749780237674713134765625</LatitudeDegrees>
              <LongitudeDegrees>37.087635956704616546630859375</LongitudeDegrees>
            </Position>
            <AltitudeMeters>1228.800048828125</AltitudeMeters>
            <DistanceMeters>NAN</DistanceMeters>
          </Trackpoint>
          <Trackpoint>
            <Time>2021-08-01T15:26:34.000Z</Time>
            <Position>
              <LatitudeDegrees>-15.35256600938737392425537109375</LatitudeDegrees>
              <LongitudeDegrees>37.087632603943347930908203125</LongitudeDegrees>
            </Position>
            <AltitudeMeters>1228.800048828125</AltitudeMeters>
            <DistanceMeters>NAN</DistanceMeters>
          </Trackpoint>
          <Trackpoint>
            <Time>2021-08-01T15:26:35.000Z</Time>
            <Position>
              <LatitudeDegrees>-15.35255645401775836944580078125</LatitudeDegrees>
              <LongitudeDegrees>37.0876321010291576385498046875</LongitudeDegrees>
            </Position>
            <AltitudeMeters>1229</AltitudeMeters>
            <DistanceMeters>NAN</DistanceMeters>
          </Trackpoint>
          <Trackpoint>
            <Time>2021-08-01T15:26:39.000Z</Time>
            <Position>
              <LatitudeDegrees>-15.35250951535999774932861328125</LatitudeDegrees>
              <LongitudeDegrees>37.08763168193399906158447265625</LongitudeDegrees>
            </Position>
            <AltitudeMeters>1229.5999755859375</AltitudeMeters>
            <DistanceMeters>NAN</DistanceMeters>
          </Trackpoint>
          <Trackpoint>
            <Time>2021-08-01T15:26:40.000Z</Time>
            <Position>
              <LatitudeDegrees>-15.3524992056190967559814453125</LatitudeDegrees>
              <LongitudeDegrees>37.087635286152362823486328125</LongitudeDegrees>
            </Position>
            <AltitudeMeters>1229.5999755859375</AltitudeMeters>
            <DistanceMeters>NAN</DistanceMeters>
          </Trackpoint>
          <Trackpoint>
            <Time>2021-08-01T15:26:41.000Z</Time>
            <Position>
              <LatitudeDegrees>-15.35249057225883007049560546875</LatitudeDegrees>
              <LongitudeDegrees>37.0876401476562023162841796875</LongitudeDegrees>
            </Position>
            <AltitudeMeters>1229.800048828125</AltitudeMeters>
            <DistanceMeters>NAN</DistanceMeters>
          </Trackpoint>
          <Trackpoint>
            <Time>2021-08-01T15:26:44.000Z</Time>
            <Position>
              <LatitudeDegrees>-15.35246022976934909820556640625</LatitudeDegrees>
              <LongitudeDegrees>37.0876394771039485931396484375</LongitudeDegrees>
            </Position>
            <AltitudeMeters>1230</AltitudeMeters>
            <DistanceMeters>NAN</DistanceMeters>
          </Trackpoint>
          <Trackpoint>
            <Time>2021-08-01T15:26:45.000Z</Time>
            <Position>
              <LatitudeDegrees>-15.3524489142000675201416015625</LatitudeDegrees>
              <LongitudeDegrees>37.08763419650495052337646484375</LongitudeDegrees>
            </Position>
            <AltitudeMeters>1230.199951171875</AltitudeMeters>
            <DistanceMeters>NAN</DistanceMeters>
          </Trackpoint>
          <Trackpoint>
            <Time>2021-08-01T15:26:52.000Z</Time>
            <Position>
              <LatitudeDegrees>-15.35236023366451263427734375</LatitudeDegrees>
              <LongitudeDegrees>37.08760268054902553558349609375</LongitudeDegrees>
            </Position>
            <AltitudeMeters>1231.199951171875</AltitudeMeters>
            <DistanceMeters>NAN</DistanceMeters>
          </Trackpoint>
          <Trackpoint>
            <Time>2021-08-01T15:26:58.000Z</Time>
            <Position>
              <LatitudeDegrees>-15.3523101098835468292236328125</LatitudeDegrees>
              <LongitudeDegrees>37.087569572031497955322265625</LongitudeDegrees>
            </Position>
            <AltitudeMeters>1231.800048828125</AltitudeMeters>
            <DistanceMeters>NAN</DistanceMeters>
          </Trackpoint>
          <Trackpoint>
            <Time>2021-08-01T15:27:00.000Z</Time>
            <Position>
              <LatitudeDegrees>-15.3522876463830471038818359375</LatitudeDegrees>
              <LongitudeDegrees>37.087574265897274017333984375</LongitudeDegrees>
            </Position>
            <AltitudeMeters>1232.199951171875</AltitudeMeters>
            <DistanceMeters>NAN</DistanceMeters>
          </Trackpoint>
          <Trackpoint>
            <Time>2021-08-01T15:27:05.000Z</Time>
            <Position>
              <LatitudeDegrees>-15.35223492421209812164306640625</LatitudeDegrees>
              <LongitudeDegrees>37.0875673927366733551025390625</LongitudeDegrees>
            </Position>
            <AltitudeMeters>1232.800048828125</AltitudeMeters>
            <DistanceMeters>NAN</DistanceMeters>
          </Trackpoint>
          <Trackpoint>
            <Time>2021-08-01T15:27:06.000Z</Time>
            <Position>
              <LatitudeDegrees>-15.35222369246184825897216796875</LatitudeDegrees>
              <LongitudeDegrees>37.08756345324218273162841796875</LongitudeDegrees>
            </Position>
            <AltitudeMeters>1233</AltitudeMeters>
            <DistanceMeters>NAN</DistanceMeters>
          </Trackpoint>
          <Trackpoint>
            <Time>2021-08-01T15:27:10.000Z</Time>
            <Position>
              <LatitudeDegrees>-15.3521890752017498016357421875</LatitudeDegrees>
              <LongitudeDegrees>37.0875650458037853240966796875</LongitudeDegrees>
            </Position>
            <AltitudeMeters>1233.4000244140625</AltitudeMeters>
            <DistanceMeters>NAN</DistanceMeters>
          </Trackpoint>
          <Trackpoint>
            <Time>2021-08-01T15:27:12.000Z</Time>
            <Position>
              <LatitudeDegrees>-15.352167449891567230224609375</LatitudeDegrees>
              <LongitudeDegrees>37.08755674771964550018310546875</LongitudeDegrees>
            </Position>
            <AltitudeMeters>1233.5999755859375</AltitudeMeters>
            <DistanceMeters>NAN</DistanceMeters>
          </Trackpoint>
          <Trackpoint>
            <Time>2021-08-01T15:27:17.000Z</Time>
            <Position>
              <LatitudeDegrees>-15.352124534547328948974609375</LatitudeDegrees>
              <LongitudeDegrees>37.08755808882415294647216796875</LongitudeDegrees>
            </Position>
            <AltitudeMeters>1233.5999755859375</AltitudeMeters>
            <DistanceMeters>NAN</DistanceMeters>
          </Trackpoint>
          <Trackpoint>
            <Time>2021-08-01T15:27:20.000Z</Time>
            <Position>
              <LatitudeDegrees>-15.35209327004849910736083984375</LatitudeDegrees>
              <LongitudeDegrees>37.08754434250295162200927734375</LongitudeDegrees>
            </Position>
            <AltitudeMeters>1233.5999755859375</AltitudeMeters>
            <DistanceMeters>NAN</DistanceMeters>
          </Trackpoint>
          <Trackpoint>
            <Time>2021-08-01T15:27:23.000Z</Time>
            <Position>
              <LatitudeDegrees>-15.3520591557025909423828125</LatitudeDegrees>
              <LongitudeDegrees>37.08753168582916259765625</LongitudeDegrees>
            </Position>
            <AltitudeMeters>1233.800048828125</AltitudeMeters>
            <DistanceMeters>NAN</DistanceMeters>
          </Trackpoint>
          <Trackpoint>
            <Time>2021-08-01T15:27:26.000Z</Time>
            <Position>
              <LatitudeDegrees>-15.35202470608055591583251953125</LatitudeDegrees>
              <LongitudeDegrees>37.0875154249370098114013671875</LongitudeDegrees>
            </Position>
            <AltitudeMeters>1233.800048828125</AltitudeMeters>
            <DistanceMeters>NAN</DistanceMeters>
          </Trackpoint>
          <Trackpoint>
            <Time>2021-08-01T15:27:27.000Z</Time>
            <Position>
              <LatitudeDegrees>-15.35201448015868663787841796875</LatitudeDegrees>
              <LongitudeDegrees>37.08751349709928035736083984375</LongitudeDegrees>
            </Position>
            <AltitudeMeters>1233.800048828125</AltitudeMeters>
            <DistanceMeters>NAN</DistanceMeters>
          </Trackpoint>
          <Trackpoint>
            <Time>2021-08-01T15:27:29.000Z</Time>
            <Position>
              <LatitudeDegrees>-15.35200215876102447509765625</LatitudeDegrees>
              <LongitudeDegrees>37.08750930614769458770751953125</LongitudeDegrees>
            </Position>
            <AltitudeMeters>1234</AltitudeMeters>
            <DistanceMeters>NAN</DistanceMeters>
          </Trackpoint>
          <Trackpoint>
            <Time>2021-08-01T15:27:31.000Z</Time>
            <Position>
              <LatitudeDegrees>-15.35198070108890533447265625</LatitudeDegrees>
              <LongitudeDegrees>37.08751299418509006500244140625</LongitudeDegrees>
            </Position>
            <AltitudeMeters>1234.199951171875</AltitudeMeters>
            <DistanceMeters>NAN</DistanceMeters>
          </Trackpoint>
          <Trackpoint>
            <Time>2021-08-01T15:27:32.000Z</Time>
            <Position>
              <LatitudeDegrees>-15.3519684635102748870849609375</LatitudeDegrees>
              <LongitudeDegrees>37.08751752041280269622802734375</LongitudeDegrees>
            </Position>
            <AltitudeMeters>1234.5999755859375</AltitudeMeters>
            <DistanceMeters>NAN</DistanceMeters>
          </Trackpoint>
          <Trackpoint>
            <Time>2021-08-01T15:27:35.000Z</Time>
            <Position>
              <LatitudeDegrees>-15.3519262187182903289794921875</LatitudeDegrees>
              <LongitudeDegrees>37.08751534111797809600830078125</LongitudeDegrees>
            </Position>
            <AltitudeMeters>1234.800048828125</AltitudeMeters>
            <DistanceMeters>NAN</DistanceMeters>
          </Trackpoint>
          <Trackpoint>
            <Time>2021-08-01T15:27:37.000Z</Time>
            <Position>
              <LatitudeDegrees>-15.3519035875797271728515625</LatitudeDegrees>
              <LongitudeDegrees>37.08752154372632503509521484375</LongitudeDegrees>
            </Position>
            <AltitudeMeters>1235</AltitudeMeters>
            <DistanceMeters>NAN</DistanceMeters>
          </Trackpoint>
          <Trackpoint>
            <Time>2021-08-01T15:27:41.000Z</Time>
            <Position>
              <LatitudeDegrees>-15.3518553078174591064453125</LatitudeDegrees>
              <LongitudeDegrees>37.0875214599072933197021484375</LongitudeDegrees>
            </Position>
            <AltitudeMeters>1236</AltitudeMeters>
            <DistanceMeters>NAN</DistanceMeters>
          </Trackpoint>
          <Trackpoint>
            <Time>2021-08-01T15:27:45.000Z</Time>
            <Position>
              <LatitudeDegrees>-15.35181616432964801788330078125</LatitudeDegrees>
              <LongitudeDegrees>37.08752254955470561981201171875</LongitudeDegrees>
            </Position>
            <AltitudeMeters>1236.5999755859375</AltitudeMeters>
            <DistanceMeters>NAN</DistanceMeters>
          </Trackpoint>
          <Trackpoint>
            <Time>2021-08-01T15:27:49.000Z</Time>
            <Position>
              <LatitudeDegrees>-15.351785235106945037841796875</LatitudeDegrees>
              <LongitudeDegrees>37.08752070553600788116455078125</LongitudeDegrees>
            </Position>
            <AltitudeMeters>1237</AltitudeMeters>
            <DistanceMeters>NAN</DistanceMeters>
          </Trackpoint>
          <Trackpoint>
            <Time>2021-08-01T15:27:54.000Z</Time>
            <Position>
              <LatitudeDegrees>-15.35173787735402584075927734375</LatitudeDegrees>
              <LongitudeDegrees>37.08751752041280269622802734375</LongitudeDegrees>
            </Position>
            <AltitudeMeters>1238</AltitudeMeters>
            <DistanceMeters>NAN</DistanceMeters>
          </Trackpoint>
          <Trackpoint>
            <Time>2021-08-01T15:27:59.000Z</Time>
            <Position>
              <LatitudeDegrees>-15.35169278271496295928955078125</LatitudeDegrees>
              <LongitudeDegrees>37.08751148544251918792724609375</LongitudeDegrees>
            </Position>
            <AltitudeMeters>1239</AltitudeMeters>
            <DistanceMeters>NAN</DistanceMeters>
          </Trackpoint>
          <Trackpoint>
            <Time>2021-08-01T15:28:04.000Z</Time>
            <Position>
              <LatitudeDegrees>-15.35164215601980686187744140625</LatitudeDegrees>
              <LongitudeDegrees>37.0875073783099651336669921875</LongitudeDegrees>
            </Position>
            <AltitudeMeters>1239.5999755859375</AltitudeMeters>
            <DistanceMeters>NAN</DistanceMeters>
          </Trackpoint>
          <Trackpoint>
            <Time>2021-08-01T15:28:08.000Z</Time>
            <Position>
              <LatitudeDegrees>-15.35160125233232975006103515625</LatitudeDegrees>
              <LongitudeDegrees>37.0874983258545398712158203125</LongitudeDegrees>
            </Position>
            <AltitudeMeters>1240.199951171875</AltitudeMeters>
            <DistanceMeters>NAN</DistanceMeters>
          </Trackpoint>
          <Trackpoint>
            <Time>2021-08-01T15:28:12.000Z</Time>
            <Position>
              <LatitudeDegrees>-15.3515637852251529693603515625</LatitudeDegrees>
              <LongitudeDegrees>37.08749078214168548583984375</LongitudeDegrees>
            </Position>
            <AltitudeMeters>1240.5999755859375</AltitudeMeters>
            <DistanceMeters>NAN</DistanceMeters>
          </Trackpoint>
          <Trackpoint>
            <Time>2021-08-01T15:28:15.000Z</Time>
            <Position>
              <LatitudeDegrees>-15.3515356220304965972900390625</LatitudeDegrees>
              <LongitudeDegrees>37.08748650737106800079345703125</LongitudeDegrees>
            </Position>
            <AltitudeMeters>1240.800048828125</AltitudeMeters>
            <DistanceMeters>NAN</DistanceMeters>
          </Trackpoint>
          <Trackpoint>
            <Time>2021-08-01T15:28:18.000Z</Time>
            <Position>
              <LatitudeDegrees>-15.35151223652064800262451171875</LatitudeDegrees>
              <LongitudeDegrees>37.08748315460979938507080078125</LongitudeDegrees>
            </Position>
            <AltitudeMeters>1241.4000244140625</AltitudeMeters>
            <DistanceMeters>NAN</DistanceMeters>
          </Trackpoint>
          <Trackpoint>
            <Time>2021-08-01T15:28:21.000Z</Time>
            <Position>
              <LatitudeDegrees>-15.3514792956411838531494140625</LatitudeDegrees>
              <LongitudeDegrees>37.08747343160212039947509765625</LongitudeDegrees>
            </Position>
            <AltitudeMeters>1241.800048828125</AltitudeMeters>
            <DistanceMeters>NAN</DistanceMeters>
          </Trackpoint>
          <Trackpoint>
            <Time>2021-08-01T15:28:26.000Z</Time>
            <Position>
              <LatitudeDegrees>-15.35143344663083553314208984375</LatitudeDegrees>
              <LongitudeDegrees>37.08747108466923236846923828125</LongitudeDegrees>
            </Position>
            <AltitudeMeters>1242.5999755859375</AltitudeMeters>
            <DistanceMeters>NAN</DistanceMeters>
          </Trackpoint>
          <Trackpoint>
            <Time>2021-08-01T15:28:29.000Z</Time>
            <Position>
              <LatitudeDegrees>-15.3514058701694011688232421875</LatitudeDegrees>
              <LongitudeDegrees>37.08747058175504207611083984375</LongitudeDegrees>
            </Position>
            <AltitudeMeters>1243.199951171875</AltitudeMeters>
            <DistanceMeters>NAN</DistanceMeters>
          </Trackpoint>
          <Trackpoint>
            <Time>2021-08-01T15:28:33.000Z</Time>
            <Position>
              <LatitudeDegrees>-15.35136639140546321868896484375</LatitudeDegrees>
              <LongitudeDegrees>37.0874601043760776519775390625</LongitudeDegrees>
            </Position>
            <AltitudeMeters>1243.5999755859375</AltitudeMeters>
            <DistanceMeters>NAN</DistanceMeters>
          </Trackpoint>
          <Trackpoint>
            <Time>2021-08-01T15:28:36.000Z</Time>
            <Position>
              <LatitudeDegrees>-15.35133470781147480010986328125</LatitudeDegrees>
              <LongitudeDegrees>37.0874659717082977294921875</LongitudeDegrees>
            </Position>
            <AltitudeMeters>1244.4000244140625</AltitudeMeters>
            <DistanceMeters>NAN</DistanceMeters>
          </Trackpoint>
          <Trackpoint>
            <Time>2021-08-01T15:28:38.000Z</Time>
            <Position>
              <LatitudeDegrees>-15.35132129676640033721923828125</LatitudeDegrees>
              <LongitudeDegrees>37.0874621160328388214111328125</LongitudeDegrees>
            </Position>
            <AltitudeMeters>1244.5999755859375</AltitudeMeters>
            <DistanceMeters>NAN</DistanceMeters>
          </Trackpoint>
          <Trackpoint>
            <Time>2021-08-01T15:28:40.000Z</Time>
            <Position>
              <LatitudeDegrees>-15.3513099811971187591552734375</LatitudeDegrees>
              <LongitudeDegrees>37.0874567516148090362548828125</LongitudeDegrees>
            </Position>
            <AltitudeMeters>1245</AltitudeMeters>
            <DistanceMeters>NAN</DistanceMeters>
          </Trackpoint>
          <Trackpoint>
            <Time>2021-08-01T15:28:42.000Z</Time>
            <Position>
              <LatitudeDegrees>-15.3512901999056339263916015625</LatitudeDegrees>
              <LongitudeDegrees>37.08745683543384075164794921875</LongitudeDegrees>
            </Position>
            <AltitudeMeters>1245.5999755859375</AltitudeMeters>
            <DistanceMeters>NAN</DistanceMeters>
          </Trackpoint>
          <Trackpoint>
            <Time>2021-08-01T15:28:43.000Z</Time>
            <Position>
              <LatitudeDegrees>-15.351277291774749755859375</LatitudeDegrees>
              <LongitudeDegrees>37.08745650015771389007568359375</LongitudeDegrees>
            </Position>
            <AltitudeMeters>1245.800048828125</AltitudeMeters>
            <DistanceMeters>NAN</DistanceMeters>
          </Trackpoint>
          <Trackpoint>
            <Time>2021-08-01T15:28:45.000Z</Time>
            <Position>
              <LatitudeDegrees>-15.3512536548078060150146484375</LatitudeDegrees>
              <LongitudeDegrees>37.0874547399580478668212890625</LongitudeDegrees>
            </Position>
            <AltitudeMeters>1246.4000244140625</AltitudeMeters>
            <DistanceMeters>NAN</DistanceMeters>
          </Trackpoint>
          <Trackpoint>
            <Time>2021-08-01T15:28:47.000Z</Time>
            <Position>
              <LatitudeDegrees>-15.3512276709079742431640625</LatitudeDegrees>
              <LongitudeDegrees>37.08746069110929965972900390625</LongitudeDegrees>
            </Position>
            <AltitudeMeters>1246.5999755859375</AltitudeMeters>
            <DistanceMeters>NAN</DistanceMeters>
          </Trackpoint>
          <Trackpoint>
            <Time>2021-08-01T15:28:49.000Z</Time>
            <Position>
              <LatitudeDegrees>-15.3511990047991275787353515625</LatitudeDegrees>
              <LongitudeDegrees>37.08748248405754566192626953125</LongitudeDegrees>
            </Position>
            <AltitudeMeters>1246.800048828125</AltitudeMeters>
            <DistanceMeters>NAN</DistanceMeters>
          </Trackpoint>
          <Trackpoint>
            <Time>2021-08-01T15:28:51.000Z</Time>
            <Position>
              <LatitudeDegrees>-15.3511762060225009918212890625</LatitudeDegrees>
              <LongitudeDegrees>37.08748483099043369293212890625</LongitudeDegrees>
            </Position>
            <AltitudeMeters>1247.199951171875</AltitudeMeters>
            <DistanceMeters>NAN</DistanceMeters>
          </Trackpoint>
          <Trackpoint>
            <Time>2021-08-01T15:28:57.000Z</Time>
            <Position>
              <LatitudeDegrees>-15.3511410020291805267333984375</LatitudeDegrees>
              <LongitudeDegrees>37.087491452693939208984375</LongitudeDegrees>
            </Position>
            <AltitudeMeters>1247.5999755859375</AltitudeMeters>
            <DistanceMeters>NAN</DistanceMeters>
          </Trackpoint>
          <Trackpoint>
            <Time>2021-08-01T15:28:58.000Z</Time>
            <Position>
              <LatitudeDegrees>-15.35113454796373844146728515625</LatitudeDegrees>
              <LongitudeDegrees>37.0874932967126369476318359375</LongitudeDegrees>
            </Position>
            <AltitudeMeters>1247.5999755859375</AltitudeMeters>
            <DistanceMeters>NAN</DistanceMeters>
          </Trackpoint>
          <Trackpoint>
            <Time>2021-08-01T15:29:01.000Z</Time>
            <Position>
              <LatitudeDegrees>-15.35110940225422382354736328125</LatitudeDegrees>
              <LongitudeDegrees>37.087503857910633087158203125</LongitudeDegrees>
            </Position>
            <AltitudeMeters>1247.800048828125</AltitudeMeters>
            <DistanceMeters>NAN</DistanceMeters>
          </Trackpoint>
          <Trackpoint>
            <Time>2021-08-01T15:29:06.000Z</Time>
            <Position>
              <LatitudeDegrees>-15.351068414747714996337890625</LatitudeDegrees>
              <LongitudeDegrees>37.08753210492432117462158203125</LongitudeDegrees>
            </Position>
            <AltitudeMeters>1248</AltitudeMeters>
            <DistanceMeters>NAN</DistanceMeters>
          </Trackpoint>
          <Trackpoint>
            <Time>2021-08-01T15:29:14.000Z</Time>
            <Position>
              <LatitudeDegrees>-15.3509871102869510650634765625</LatitudeDegrees>
              <LongitudeDegrees>37.08754400722682476043701171875</LongitudeDegrees>
            </Position>
            <AltitudeMeters>1248.5999755859375</AltitudeMeters>
            <DistanceMeters>NAN</DistanceMeters>
          </Trackpoint>
          <Trackpoint>
            <Time>2021-08-01T15:29:17.000Z</Time>
            <Position>
              <LatitudeDegrees>-15.3509991802275180816650390625</LatitudeDegrees>
              <LongitudeDegrees>37.0875502936542034149169921875</LongitudeDegrees>
            </Position>
            <AltitudeMeters>1248.800048828125</AltitudeMeters>
            <DistanceMeters>NAN</DistanceMeters>
          </Trackpoint>
          <Trackpoint>
            <Time>2021-08-01T15:29:19.000Z</Time>
            <Position>
              <LatitudeDegrees>-15.3510223142802715301513671875</LatitudeDegrees>
              <LongitudeDegrees>37.08755113184452056884765625</LongitudeDegrees>
            </Position>
            <AltitudeMeters>1248.800048828125</AltitudeMeters>
            <DistanceMeters>NAN</DistanceMeters>
          </Trackpoint>
          <Trackpoint>
            <Time>2021-08-01T15:29:23.000Z</Time>
            <Position>
              <LatitudeDegrees>-15.35104771144688129425048828125</LatitudeDegrees>
              <LongitudeDegrees>37.08755423314869403839111328125</LongitudeDegrees>
            </Position>
            <AltitudeMeters>1248.800048828125</AltitudeMeters>
            <DistanceMeters>NAN</DistanceMeters>
          </Trackpoint>
          <Trackpoint>
            <Time>2021-08-01T15:29:24.000Z</Time>
            <Position>
              <LatitudeDegrees>-15.3510363958775997161865234375</LatitudeDegrees>
              <LongitudeDegrees>37.08755155093967914581298828125</LongitudeDegrees>
            </Position>
            <AltitudeMeters>1248.800048828125</AltitudeMeters>
            <DistanceMeters>NAN</DistanceMeters>
          </Trackpoint>
          <Trackpoint>
            <Time>2021-08-01T15:29:26.000Z</Time>
            <Position>
              <LatitudeDegrees>-15.35101116634905338287353515625</LatitudeDegrees>
              <LongitudeDegrees>37.0875559933483600616455078125</LongitudeDegrees>
            </Position>
            <AltitudeMeters>1248.800048828125</AltitudeMeters>
            <DistanceMeters>NAN</DistanceMeters>
          </Trackpoint>
          <Trackpoint>
            <Time>2021-08-01T15:29:28.000Z</Time>
            <Position>
              <LatitudeDegrees>-15.3509837575256824493408203125</LatitudeDegrees>
              <LongitudeDegrees>37.08755289204418659210205078125</LongitudeDegrees>
            </Position>
            <AltitudeMeters>1249</AltitudeMeters>
            <DistanceMeters>NAN</DistanceMeters>
          </Trackpoint>
          <Trackpoint>
            <Time>2021-08-01T15:29:32.000Z</Time>
            <Position>
              <LatitudeDegrees>-15.35094226710498332977294921875</LatitudeDegrees>
              <LongitudeDegrees>37.0875585079193115234375</LongitudeDegrees>
            </Position>
            <AltitudeMeters>1249.199951171875</AltitudeMeters>
            <DistanceMeters>NAN</DistanceMeters>
          </Trackpoint>
          <Trackpoint>
            <Time>2021-08-01T15:29:37.000Z</Time>
            <Position>
              <LatitudeDegrees>-15.3508838452398777008056640625</LatitudeDegrees>
              <LongitudeDegrees>37.087564207613468170166015625</LongitudeDegrees>
            </Position>
            <AltitudeMeters>1249.800048828125</AltitudeMeters>
            <DistanceMeters>NAN</DistanceMeters>
          </Trackpoint>
          <Trackpoint>
            <Time>2021-08-01T15:29:42.000Z</Time>
            <Position>
              <LatitudeDegrees>-15.350845120847225189208984375</LatitudeDegrees>
              <LongitudeDegrees>37.08756814710795879364013671875</LongitudeDegrees>
            </Position>
            <AltitudeMeters>1250.199951171875</AltitudeMeters>
            <DistanceMeters>NAN</DistanceMeters>
          </Trackpoint>
          <Trackpoint>
            <Time>2021-08-01T15:29:48.000Z</Time>
            <Position>
              <LatitudeDegrees>-15.3508065640926361083984375</LatitudeDegrees>
              <LongitudeDegrees>37.0875891856849193572998046875</LongitudeDegrees>
            </Position>
            <AltitudeMeters>1251</AltitudeMeters>
            <DistanceMeters>NAN</DistanceMeters>
          </Trackpoint>
          <Trackpoint>
            <Time>2021-08-01T15:29:49.000Z</Time>
            <Position>
              <LatitudeDegrees>-15.350800193846225738525390625</LatitudeDegrees>
              <LongitudeDegrees>37.087593041360378265380859375</LongitudeDegrees>
            </Position>
            <AltitudeMeters>1251</AltitudeMeters>
            <DistanceMeters>NAN</DistanceMeters>
          </Trackpoint>
          <Trackpoint>
            <Time>2021-08-01T15:29:57.000Z</Time>
            <Position>
              <LatitudeDegrees>-15.3507148660719394683837890625</LatitudeDegrees>
              <LongitudeDegrees>37.0876096375286579132080078125</LongitudeDegrees>
            </Position>
            <AltitudeMeters>1252</AltitudeMeters>
            <DistanceMeters>NAN</DistanceMeters>
          </Trackpoint>
          <Trackpoint>
            <Time>2021-08-01T15:29:58.000Z</Time>
            <Position>
              <LatitudeDegrees>-15.35070388577878475189208984375</LatitudeDegrees>
              <LongitudeDegrees>37.08761148154735565185546875</LongitudeDegrees>
            </Position>
            <AltitudeMeters>1252</AltitudeMeters>
            <DistanceMeters>NAN</DistanceMeters>
          </Trackpoint>
          <Trackpoint>
            <Time>2021-08-01T15:30:01.000Z</Time>
            <Position>
              <LatitudeDegrees>-15.35067119635641574859619140625</LatitudeDegrees>
              <LongitudeDegrees>37.08761458285152912139892578125</LongitudeDegrees>
            </Position>
            <AltitudeMeters>1252.199951171875</AltitudeMeters>
            <DistanceMeters>NAN</DistanceMeters>
          </Trackpoint>
          <Trackpoint>
            <Time>2021-08-01T15:30:05.000Z</Time>
            <Position>
              <LatitudeDegrees>-15.35063783638179302215576171875</LatitudeDegrees>
              <LongitudeDegrees>37.08761676214635372161865234375</LongitudeDegrees>
            </Position>
            <AltitudeMeters>1252.800048828125</AltitudeMeters>
            <DistanceMeters>NAN</DistanceMeters>
          </Trackpoint>
          <Trackpoint>
            <Time>2021-08-01T15:30:07.000Z</Time>
            <Position>
              <LatitudeDegrees>-15.35061771981418132781982421875</LatitudeDegrees>
              <LongitudeDegrees>37.087615840137004852294921875</LongitudeDegrees>
            </Position>
            <AltitudeMeters>1253.199951171875</AltitudeMeters>
            <DistanceMeters>NAN</DistanceMeters>
          </Trackpoint>
          <Trackpoint>
            <Time>2021-08-01T15:30:10.000Z</Time>
            <Position>
              <LatitudeDegrees>-15.35059408284723758697509765625</LatitudeDegrees>
              <LongitudeDegrees>37.087611816823482513427734375</LongitudeDegrees>
            </Position>
            <AltitudeMeters>1253.4000244140625</AltitudeMeters>
            <DistanceMeters>NAN</DistanceMeters>
          </Trackpoint>
          <Trackpoint>
            <Time>2021-08-01T15:30:17.000Z</Time>
            <Position>
              <LatitudeDegrees>-15.3505437076091766357421875</LatitudeDegrees>
              <LongitudeDegrees>37.0876300893723964691162109375</LongitudeDegrees>
            </Position>
            <AltitudeMeters>1254</AltitudeMeters>
            <DistanceMeters>NAN</DistanceMeters>
          </Trackpoint>
          <Trackpoint>
            <Time>2021-08-01T15:30:22.000Z</Time>
            <Position>
              <LatitudeDegrees>-15.35052333958446979522705078125</LatitudeDegrees>
              <LongitudeDegrees>37.08761575631797313690185546875</LongitudeDegrees>
            </Position>
            <AltitudeMeters>1253.800048828125</AltitudeMeters>
            <DistanceMeters>NAN</DistanceMeters>
          </Trackpoint>
          <Trackpoint>
            <Time>2021-08-01T15:30:23.000Z</Time>
            <Position>
              <LatitudeDegrees>-15.35051680169999599456787109375</LatitudeDegrees>
              <LongitudeDegrees>37.0876123197376728057861328125</LongitudeDegrees>
            </Position>
            <AltitudeMeters>1253.4000244140625</AltitudeMeters>
            <DistanceMeters>NAN</DistanceMeters>
          </Trackpoint>
          <Trackpoint>
            <Time>2021-08-01T15:30:29.000Z</Time>
            <Position>
              <LatitudeDegrees>-15.3504868783056735992431640625</LatitudeDegrees>
              <LongitudeDegrees>37.08757300861179828643798828125</LongitudeDegrees>
            </Position>
            <AltitudeMeters>1253</AltitudeMeters>
            <DistanceMeters>NAN</DistanceMeters>
          </Trackpoint>
          <Trackpoint>
            <Time>2021-08-01T15:30:34.000Z</Time>
            <Position>
              <LatitudeDegrees>-15.35046164877712726593017578125</LatitudeDegrees>
              <LongitudeDegrees>37.08752422593533992767333984375</LongitudeDegrees>
            </Position>
            <AltitudeMeters>1253.199951171875</AltitudeMeters>
            <DistanceMeters>NAN</DistanceMeters>
          </Trackpoint>
          <Trackpoint>
            <Time>2021-08-01T15:30:35.000Z</Time>
            <Position>
              <LatitudeDegrees>-15.3504578769207000732421875</LatitudeDegrees>
              <LongitudeDegrees>37.08751534111797809600830078125</LongitudeDegrees>
            </Position>
            <AltitudeMeters>1253.199951171875</AltitudeMeters>
            <DistanceMeters>NAN</DistanceMeters>
          </Trackpoint>
          <Trackpoint>
            <Time>2021-08-01T15:30:42.000Z</Time>
            <Position>
              <LatitudeDegrees>-15.3504328988492488861083984375</LatitudeDegrees>
              <LongitudeDegrees>37.0874637924134731292724609375</LongitudeDegrees>
            </Position>
            <AltitudeMeters>1253</AltitudeMeters>
            <DistanceMeters>NAN</DistanceMeters>
          </Trackpoint>
          <Trackpoint>
            <Time>2021-08-01T15:30:43.000Z</Time>
            <Position>
              <LatitudeDegrees>-15.3504256904125213623046875</LatitudeDegrees>
              <LongitudeDegrees>37.08745457231998443603515625</LongitudeDegrees>
            </Position>
            <AltitudeMeters>1252.800048828125</AltitudeMeters>
            <DistanceMeters>NAN</DistanceMeters>
          </Trackpoint>
          <Trackpoint>
            <Time>2021-08-01T15:30:47.000Z</Time>
            <Position>
              <LatitudeDegrees>-15.35040800459682941436767578125</LatitudeDegrees>
              <LongitudeDegrees>37.08743705414235591888427734375</LongitudeDegrees>
            </Position>
            <AltitudeMeters>1252.5999755859375</AltitudeMeters>
            <DistanceMeters>NAN</DistanceMeters>
          </Trackpoint>
          <Trackpoint>
            <Time>2021-08-01T15:30:49.000Z</Time>
            <Position>
              <LatitudeDegrees>-15.35041571594774723052978515625</LatitudeDegrees>
              <LongitudeDegrees>37.087461948394775390625</LongitudeDegrees>
            </Position>
            <AltitudeMeters>1253</AltitudeMeters>
            <DistanceMeters>NAN</DistanceMeters>
          </Trackpoint>
          <Trackpoint>
            <Time>2021-08-01T15:30:52.000Z</Time>
            <Position>
              <LatitudeDegrees>-15.3504178114235401153564453125</LatitudeDegrees>
              <LongitudeDegrees>37.0875120721757411956787109375</LongitudeDegrees>
            </Position>
            <AltitudeMeters>1253.4000244140625</AltitudeMeters>
            <DistanceMeters>NAN</DistanceMeters>
          </Trackpoint>
          <Trackpoint>
            <Time>2021-08-01T15:30:53.000Z</Time>
            <Position>
              <LatitudeDegrees>-15.3504151292145252227783203125</LatitudeDegrees>
              <LongitudeDegrees>37.08752355538308620452880859375</LongitudeDegrees>
            </Position>
            <AltitudeMeters>1253.4000244140625</AltitudeMeters>
            <DistanceMeters>NAN</DistanceMeters>
          </Trackpoint>
          <Trackpoint>
            <Time>2021-08-01T15:31:02.000Z</Time>
            <Position>
              <LatitudeDegrees>-15.35040180198848247528076171875</LatitudeDegrees>
              <LongitudeDegrees>37.08762883208692073822021484375</LongitudeDegrees>
            </Position>
            <AltitudeMeters>1253.800048828125</AltitudeMeters>
            <DistanceMeters>NAN</DistanceMeters>
          </Trackpoint>
          <Trackpoint>
            <Time>2021-08-01T15:31:03.000Z</Time>
            <Position>
              <LatitudeDegrees>-15.35040222108364105224609375</LatitudeDegrees>
              <LongitudeDegrees>37.08763486705720424652099609375</LongitudeDegrees>
            </Position>
            <AltitudeMeters>1253.800048828125</AltitudeMeters>
            <DistanceMeters>NAN</DistanceMeters>
          </Trackpoint>
          <Trackpoint>
            <Time>2021-08-01T15:31:05.000Z</Time>
            <Position>
              <LatitudeDegrees>-15.35040490329265594482421875</LatitudeDegrees>
              <LongitudeDegrees>37.0876495353877544403076171875</LongitudeDegrees>
            </Position>
            <AltitudeMeters>1253.800048828125</AltitudeMeters>
            <DistanceMeters>NAN</DistanceMeters>
          </Trackpoint>
          <Trackpoint>
            <Time>2021-08-01T15:31:08.000Z</Time>
            <Position>
              <LatitudeDegrees>-15.35042770206928253173828125</LatitudeDegrees>
              <LongitudeDegrees>37.08767627365887165069580078125</LongitudeDegrees>
            </Position>
            <AltitudeMeters>1253.800048828125</AltitudeMeters>
            <DistanceMeters>NAN</DistanceMeters>
          </Trackpoint>
          <Trackpoint>
            <Time>2021-08-01T15:31:15.000Z</Time>
            <Position>
              <LatitudeDegrees>-15.35044907592236995697021484375</LatitudeDegrees>
              <LongitudeDegrees>37.08773779682815074920654296875</LongitudeDegrees>
            </Position>
            <AltitudeMeters>1252.800048828125</AltitudeMeters>
            <DistanceMeters>NAN</DistanceMeters>
          </Trackpoint>
          <Trackpoint>
            <Time>2021-08-01T15:31:19.000Z</Time>
            <Position>
              <LatitudeDegrees>-15.350435413420200347900390625</LatitudeDegrees>
              <LongitudeDegrees>37.08777467720210552215576171875</LongitudeDegrees>
            </Position>
            <AltitudeMeters>1252.4000244140625</AltitudeMeters>
            <DistanceMeters>NAN</DistanceMeters>
          </Trackpoint>
          <Trackpoint>
            <Time>2021-08-01T15:31:20.000Z</Time>
            <Position>
              <LatitudeDegrees>-15.35043046809732913970947265625</LatitudeDegrees>
              <LongitudeDegrees>37.08778222091495990753173828125</LongitudeDegrees>
            </Position>
            <AltitudeMeters>1252.199951171875</AltitudeMeters>
            <DistanceMeters>NAN</DistanceMeters>
          </Trackpoint>
          <Trackpoint>
            <Time>2021-08-01T15:31:21.000Z</Time>
            <Position>
              <LatitudeDegrees>-15.35042711533606052398681640625</LatitudeDegrees>
              <LongitudeDegrees>37.08778741769492626190185546875</LongitudeDegrees>
            </Position>
            <AltitudeMeters>1252</AltitudeMeters>
            <DistanceMeters>NAN</DistanceMeters>
          </Trackpoint>
          <Trackpoint>
            <Time>2021-08-01T15:31:26.000Z</Time>
            <Position>
              <LatitudeDegrees>-15.35042510367929935455322265625</LatitudeDegrees>
              <LongitudeDegrees>37.0878119766712188720703125</LongitudeDegrees>
            </Position>
            <AltitudeMeters>1251.800048828125</AltitudeMeters>
            <DistanceMeters>NAN</DistanceMeters>
          </Trackpoint>
          <Trackpoint>
            <Time>2021-08-01T15:31:30.000Z</Time>
            <Position>
              <LatitudeDegrees>-15.350438095629215240478515625</LatitudeDegrees>
              <LongitudeDegrees>37.08777870051562786102294921875</LongitudeDegrees>
            </Position>
            <AltitudeMeters>1251.4000244140625</AltitudeMeters>
            <DistanceMeters>NAN</DistanceMeters>
          </Trackpoint>
          <Trackpoint>
            <Time>2021-08-01T15:31:35.000Z</Time>
            <Position>
              <LatitudeDegrees>-15.35042325966060161590576171875</LatitudeDegrees>
              <LongitudeDegrees>37.0877635292708873748779296875</LongitudeDegrees>
            </Position>
            <AltitudeMeters>1252</AltitudeMeters>
            <DistanceMeters>NAN</DistanceMeters>
          </Trackpoint>
          <Trackpoint>
            <Time>2021-08-01T15:31:39.000Z</Time>
            <Position>
              <LatitudeDegrees>-15.35039157606661319732666015625</LatitudeDegrees>
              <LongitudeDegrees>37.087762355804443359375</LongitudeDegrees>
            </Position>
            <AltitudeMeters>1251.800048828125</AltitudeMeters>
            <DistanceMeters>NAN</DistanceMeters>
          </Trackpoint>
          <Trackpoint>
            <Time>2021-08-01T15:31:41.000Z</Time>
            <Position>
              <LatitudeDegrees>-15.35037145949900150299072265625</LatitudeDegrees>
              <LongitudeDegrees>37.0877581648528575897216796875</LongitudeDegrees>
            </Position>
            <AltitudeMeters>1251.5999755859375</AltitudeMeters>
            <DistanceMeters>NAN</DistanceMeters>
          </Trackpoint>
          <Trackpoint>
            <Time>2021-08-01T15:31:42.000Z</Time>
            <Position>
              <LatitudeDegrees>-15.3503675200045108795166015625</LatitudeDegrees>
              <LongitudeDegrees>37.0877548120915889739990234375</LongitudeDegrees>
            </Position>
            <AltitudeMeters>1251.5999755859375</AltitudeMeters>
            <DistanceMeters>NAN</DistanceMeters>
          </Trackpoint>
          <Trackpoint>
            <Time>2021-08-01T15:31:48.000Z</Time>
            <Position>
              <LatitudeDegrees>-15.35038570873439311981201171875</LatitudeDegrees>
              <LongitudeDegrees>37.0877722464501857757568359375</LongitudeDegrees>
            </Position>
            <AltitudeMeters>1251.5999755859375</AltitudeMeters>
            <DistanceMeters>NAN</DistanceMeters>
          </Trackpoint>
          <Trackpoint>
            <Time>2021-08-01T15:31:51.000Z</Time>
            <Position>
              <LatitudeDegrees>-15.35041454248130321502685546875</LatitudeDegrees>
              <LongitudeDegrees>37.08777015097439289093017578125</LongitudeDegrees>
            </Position>
            <AltitudeMeters>1251.800048828125</AltitudeMeters>
            <DistanceMeters>NAN</DistanceMeters>
          </Trackpoint>
          <Trackpoint>
            <Time>2021-08-01T15:31:55.000Z</Time>
            <Position>
              <LatitudeDegrees>-15.3504444658756256103515625</LatitudeDegrees>
              <LongitudeDegrees>37.08776847459375858306884765625</LongitudeDegrees>
            </Position>
            <AltitudeMeters>1252</AltitudeMeters>
            <DistanceMeters>NAN</DistanceMeters>
          </Trackpoint>
          <Trackpoint>
            <Time>2021-08-01T15:32:02.000Z</Time>
            <Position>
              <LatitudeDegrees>-15.350456871092319488525390625</LatitudeDegrees>
              <LongitudeDegrees>37.0877551473677158355712890625</LongitudeDegrees>
            </Position>
            <AltitudeMeters>1251.4000244140625</AltitudeMeters>
            <DistanceMeters>NAN</DistanceMeters>
          </Trackpoint>
          <Trackpoint>
            <Time>2021-08-01T15:32:03.000Z</Time>
            <Position>
              <LatitudeDegrees>-15.3504573740065097808837890625</LatitudeDegrees>
              <LongitudeDegrees>37.087753303349018096923828125</LongitudeDegrees>
            </Position>
            <AltitudeMeters>1251.4000244140625</AltitudeMeters>
            <DistanceMeters>NAN</DistanceMeters>
          </Trackpoint>
          <Trackpoint>
            <Time>2021-08-01T15:32:10.000Z</Time>
            <Position>
              <LatitudeDegrees>-15.35045259632170200347900390625</LatitudeDegrees>
              <LongitudeDegrees>37.0877601765096187591552734375</LongitudeDegrees>
            </Position>
            <AltitudeMeters>1251.199951171875</AltitudeMeters>
            <DistanceMeters>NAN</DistanceMeters>
          </Trackpoint>
          <Trackpoint>
            <Time>2021-08-01T15:32:11.000Z</Time>
            <Position>
              <LatitudeDegrees>-15.350448153913021087646484375</LatitudeDegrees>
              <LongitudeDegrees>37.0877672173082828521728515625</LongitudeDegrees>
            </Position>
            <AltitudeMeters>1251.199951171875</AltitudeMeters>
            <DistanceMeters>NAN</DistanceMeters>
          </Trackpoint>
          <Trackpoint>
            <Time>2021-08-01T15:32:12.000Z</Time>
            <Position>
              <LatitudeDegrees>-15.3504419513046741485595703125</LatitudeDegrees>
              <LongitudeDegrees>37.08777769468724727630615234375</LongitudeDegrees>
            </Position>
            <AltitudeMeters>1251.199951171875</AltitudeMeters>
            <DistanceMeters>NAN</DistanceMeters>
          </Trackpoint>
          <Trackpoint>
            <Time>2021-08-01T15:32:13.000Z</Time>
            <Position>
              <LatitudeDegrees>-15.35043700598180294036865234375</LatitudeDegrees>
              <LongitudeDegrees>37.08778984844684600830078125</LongitudeDegrees>
            </Position>
            <AltitudeMeters>1251</AltitudeMeters>
            <DistanceMeters>NAN</DistanceMeters>
          </Trackpoint>
          <Trackpoint>
            <Time>2021-08-01T15:32:18.000Z</Time>
            <Position>
              <LatitudeDegrees>-15.350416637957096099853515625</LatitudeDegrees>
              <LongitudeDegrees>37.0878507010638713836669921875</LongitudeDegrees>
            </Position>
            <AltitudeMeters>1250.4000244140625</AltitudeMeters>
            <DistanceMeters>NAN</DistanceMeters>
          </Trackpoint>
          <Trackpoint>
            <Time>2021-08-01T15:32:20.000Z</Time>
            <Position>
              <LatitudeDegrees>-15.35040951333940029144287109375</LatitudeDegrees>
              <LongitudeDegrees>37.08787743933498859405517578125</LongitudeDegrees>
            </Position>
            <AltitudeMeters>1249.800048828125</AltitudeMeters>
            <DistanceMeters>NAN</DistanceMeters>
          </Trackpoint>
          <Trackpoint>
            <Time>2021-08-01T15:32:27.000Z</Time>
            <Position>
              <LatitudeDegrees>-15.350397191941738128662109375</LatitudeDegrees>
              <LongitudeDegrees>37.08796226419508457183837890625</LongitudeDegrees>
            </Position>
            <AltitudeMeters>1248.800048828125</AltitudeMeters>
            <DistanceMeters>NAN</DistanceMeters>
          </Trackpoint>
          <Trackpoint>
            <Time>2021-08-01T15:32:33.000Z</Time>
            <Position>
              <LatitudeDegrees>-15.35037850029766559600830078125</LatitudeDegrees>
              <LongitudeDegrees>37.08802831359207630157470703125</LongitudeDegrees>
            </Position>
            <AltitudeMeters>1247.5999755859375</AltitudeMeters>
            <DistanceMeters>NAN</DistanceMeters>
          </Trackpoint>
          <Trackpoint>
            <Time>2021-08-01T15:32:36.000Z</Time>
            <Position>
              <LatitudeDegrees>-15.35037330351769924163818359375</LatitudeDegrees>
              <LongitudeDegrees>37.088055051863193511962890625</LongitudeDegrees>
            </Position>
            <AltitudeMeters>1246.800048828125</AltitudeMeters>
            <DistanceMeters>NAN</DistanceMeters>
          </Trackpoint>
          <Trackpoint>
            <Time>2021-08-01T15:32:37.000Z</Time>
            <Position>
              <LatitudeDegrees>-15.35037062130868434906005859375</LatitudeDegrees>
              <LongitudeDegrees>37.0880649425089359283447265625</LongitudeDegrees>
            </Position>
            <AltitudeMeters>1246.5999755859375</AltitudeMeters>
            <DistanceMeters>NAN</DistanceMeters>
          </Trackpoint>
          <Trackpoint>
            <Time>2021-08-01T15:32:44.000Z</Time>
            <Position>
              <LatitudeDegrees>-15.350351594388484954833984375</LatitudeDegrees>
              <LongitudeDegrees>37.088141553103923797607421875</LongitudeDegrees>
            </Position>
            <AltitudeMeters>1245.199951171875</AltitudeMeters>
            <DistanceMeters>NAN</DistanceMeters>
          </Trackpoint>
          <Trackpoint>
            <Time>2021-08-01T15:32:46.000Z</Time>
            <Position>
              <LatitudeDegrees>-15.3503479063510894775390625</LatitudeDegrees>
              <LongitudeDegrees>37.088165692985057830810546875</LongitudeDegrees>
            </Position>
            <AltitudeMeters>1244.800048828125</AltitudeMeters>
            <DistanceMeters>NAN</DistanceMeters>
          </Trackpoint>
          <Trackpoint>
            <Time>2021-08-01T15:32:50.000Z</Time>
            <Position>
              <LatitudeDegrees>-15.3503373451530933380126953125</LatitudeDegrees>
              <LongitudeDegrees>37.08821087144315242767333984375</LongitudeDegrees>
            </Position>
            <AltitudeMeters>1244.4000244140625</AltitudeMeters>
            <DistanceMeters>NAN</DistanceMeters>
          </Trackpoint>
          <Trackpoint>
            <Time>2021-08-01T15:32:52.000Z</Time>
            <Position>
              <LatitudeDegrees>-15.35033407621085643768310546875</LatitudeDegrees>
              <LongitudeDegrees>37.08823333494365215301513671875</LongitudeDegrees>
            </Position>
            <AltitudeMeters>1244</AltitudeMeters>
            <DistanceMeters>NAN</DistanceMeters>
          </Trackpoint>
          <Trackpoint>
            <Time>2021-08-01T15:32:55.000Z</Time>
            <Position>
              <LatitudeDegrees>-15.35032368265092372894287109375</LatitudeDegrees>
              <LongitudeDegrees>37.08826552145183086395263671875</LongitudeDegrees>
            </Position>
            <AltitudeMeters>1243</AltitudeMeters>
            <DistanceMeters>NAN</DistanceMeters>
          </Trackpoint>
          <Trackpoint>
            <Time>2021-08-01T15:32:59.000Z</Time>
            <Position>
              <LatitudeDegrees>-15.35030993632972240447998046875</LatitudeDegrees>
              <LongitudeDegrees>37.08831145428121089935302734375</LongitudeDegrees>
            </Position>
            <AltitudeMeters>1242.4000244140625</AltitudeMeters>
            <DistanceMeters>NAN</DistanceMeters>
          </Trackpoint>
          <Trackpoint>
            <Time>2021-08-01T15:33:00.000Z</Time>
            <Position>
              <LatitudeDegrees>-15.35030624829232692718505859375</LatitudeDegrees>
              <LongitudeDegrees>37.0883237756788730621337890625</LongitudeDegrees>
            </Position>
            <AltitudeMeters>1242.4000244140625</AltitudeMeters>
            <DistanceMeters>NAN</DistanceMeters>
          </Trackpoint>
          <Trackpoint>
            <Time>2021-08-01T15:33:01.000Z</Time>
            <Position>
              <LatitudeDegrees>-15.350301973521709442138671875</LatitudeDegrees>
              <LongitudeDegrees>37.0883375220000743865966796875</LongitudeDegrees>
            </Position>
            <AltitudeMeters>1242.4000244140625</AltitudeMeters>
            <DistanceMeters>NAN</DistanceMeters>
          </Trackpoint>
          <Trackpoint>
            <Time>2021-08-01T15:33:03.000Z</Time>
            <Position>
              <LatitudeDegrees>-15.35029065795242786407470703125</LatitudeDegrees>
              <LongitudeDegrees>37.08835923112928867340087890625</LongitudeDegrees>
            </Position>
            <AltitudeMeters>1242.199951171875</AltitudeMeters>
            <DistanceMeters>NAN</DistanceMeters>
          </Trackpoint>
          <Trackpoint>
            <Time>2021-08-01T15:33:06.000Z</Time>
            <Position>
              <LatitudeDegrees>-15.35028554499149322509765625</LatitudeDegrees>
              <LongitudeDegrees>37.0883720554411411285400390625</LongitudeDegrees>
            </Position>
            <AltitudeMeters>1242</AltitudeMeters>
            <DistanceMeters>NAN</DistanceMeters>
          </Trackpoint>
          <Trackpoint>
            <Time>2021-08-01T15:33:07.000Z</Time>
            <Position>
              <LatitudeDegrees>-15.3502823598682880401611328125</LatitudeDegrees>
              <LongitudeDegrees>37.0883767493069171905517578125</LongitudeDegrees>
            </Position>
            <AltitudeMeters>1242</AltitudeMeters>
            <DistanceMeters>NAN</DistanceMeters>
          </Trackpoint>
          <Trackpoint>
            <Time>2021-08-01T15:33:08.000Z</Time>
            <Position>
              <LatitudeDegrees>-15.3502823598682880401611328125</LatitudeDegrees>
              <LongitudeDegrees>37.088385634124279022216796875</LongitudeDegrees>
            </Position>
            <AltitudeMeters>1242</AltitudeMeters>
            <DistanceMeters>NAN</DistanceMeters>
          </Trackpoint>
          <Trackpoint>
            <Time>2021-08-01T15:33:16.000Z</Time>
            <Position>
              <LatitudeDegrees>-15.35026869736611843109130859375</LatitudeDegrees>
              <LongitudeDegrees>37.08847221918404102325439453125</LongitudeDegrees>
            </Position>
            <AltitudeMeters>1240.800048828125</AltitudeMeters>
            <DistanceMeters>NAN</DistanceMeters>
          </Trackpoint>
          <Trackpoint>
            <Time>2021-08-01T15:33:20.000Z</Time>
            <Position>
              <LatitudeDegrees>-15.3502548672258853912353515625</LatitudeDegrees>
              <LongitudeDegrees>37.0885215885937213897705078125</LongitudeDegrees>
            </Position>
            <AltitudeMeters>1240.5999755859375</AltitudeMeters>
            <DistanceMeters>NAN</DistanceMeters>
          </Trackpoint>
          <Trackpoint>
            <Time>2021-08-01T15:33:22.000Z</Time>
            <Position>
              <LatitudeDegrees>-15.35024665296077728271484375</LatitudeDegrees>
              <LongitudeDegrees>37.08854849450290203094482421875</LongitudeDegrees>
            </Position>
            <AltitudeMeters>1240.199951171875</AltitudeMeters>
            <DistanceMeters>NAN</DistanceMeters>
          </Trackpoint>
          <Trackpoint>
            <Time>2021-08-01T15:33:28.000Z</Time>
            <Position>
              <LatitudeDegrees>-15.35022259689867496490478515625</LatitudeDegrees>
              <LongitudeDegrees>37.0886181481182575225830078125</LongitudeDegrees>
            </Position>
            <AltitudeMeters>1239.800048828125</AltitudeMeters>
            <DistanceMeters>NAN</DistanceMeters>
          </Trackpoint>
          <Trackpoint>
            <Time>2021-08-01T15:33:30.000Z</Time>
            <Position>
              <LatitudeDegrees>-15.3502179868519306182861328125</LatitudeDegrees>
              <LongitudeDegrees>37.08863583393394947052001953125</LongitudeDegrees>
            </Position>
            <AltitudeMeters>1239.800048828125</AltitudeMeters>
            <DistanceMeters>NAN</DistanceMeters>
          </Trackpoint>
          <Trackpoint>
            <Time>2021-08-01T15:33:33.000Z</Time>
            <Position>
              <LatitudeDegrees>-15.350208096206188201904296875</LatitudeDegrees>
              <LongitudeDegrees>37.08867095410823822021484375</LongitudeDegrees>
            </Position>
            <AltitudeMeters>1239.4000244140625</AltitudeMeters>
            <DistanceMeters>NAN</DistanceMeters>
          </Trackpoint>
          <Trackpoint>
            <Time>2021-08-01T15:33:43.000Z</Time>
            <Position>
              <LatitudeDegrees>-15.3502072580158710479736328125</LatitudeDegrees>
              <LongitudeDegrees>37.08879676647484302520751953125</LongitudeDegrees>
            </Position>
            <AltitudeMeters>1239.4000244140625</AltitudeMeters>
            <DistanceMeters>NAN</DistanceMeters>
          </Trackpoint>
          <Trackpoint>
            <Time>2021-08-01T15:33:53.000Z</Time>
            <Position>
              <LatitudeDegrees>-15.3502149693667888641357421875</LatitudeDegrees>
              <LongitudeDegrees>37.08887488581240177154541015625</LongitudeDegrees>
            </Position>
            <AltitudeMeters>1239.5999755859375</AltitudeMeters>
            <DistanceMeters>NAN</DistanceMeters>
          </Trackpoint>
          <Trackpoint>
            <Time>2021-08-01T15:34:02.000Z</Time>
            <Position>
              <LatitudeDegrees>-15.35021253861486911773681640625</LatitudeDegrees>
              <LongitudeDegrees>37.088879831135272979736328125</LongitudeDegrees>
            </Position>
            <AltitudeMeters>1239.5999755859375</AltitudeMeters>
            <DistanceMeters>NAN</DistanceMeters>
          </Trackpoint>
          <Trackpoint>
            <Time>2021-08-01T15:34:06.000Z</Time>
            <Position>
              <LatitudeDegrees>-15.35022075287997722625732421875</LatitudeDegrees>
              <LongitudeDegrees>37.0888830162584781646728515625</LongitudeDegrees>
            </Position>
            <AltitudeMeters>1239.4000244140625</AltitudeMeters>
            <DistanceMeters>NAN</DistanceMeters>
          </Trackpoint>
          <Trackpoint>
            <Time>2021-08-01T15:34:10.000Z</Time>
            <Position>
              <LatitudeDegrees>-15.3502367623150348663330078125</LatitudeDegrees>
              <LongitudeDegrees>37.088875472545623779296875</LongitudeDegrees>
            </Position>
            <AltitudeMeters>1239.4000244140625</AltitudeMeters>
            <DistanceMeters>NAN</DistanceMeters>
          </Trackpoint>
          <Trackpoint>
            <Time>2021-08-01T15:34:14.000Z</Time>
            <Position>
              <LatitudeDegrees>-15.3502421267330646514892578125</LatitudeDegrees>
              <LongitudeDegrees>37.08887555636465549468994140625</LongitudeDegrees>
            </Position>
            <AltitudeMeters>1239.5999755859375</AltitudeMeters>
            <DistanceMeters>NAN</DistanceMeters>
          </Trackpoint>
          <Trackpoint>
            <Time>2021-08-01T15:34:18.000Z</Time>
            <Position>
              <LatitudeDegrees>-15.3502421267330646514892578125</LatitudeDegrees>
              <LongitudeDegrees>37.08887555636465549468994140625</LongitudeDegrees>
            </Position>
            <AltitudeMeters>1239.4000244140625</AltitudeMeters>
            <DistanceMeters>NAN</DistanceMeters>
          </Trackpoint>
          <Trackpoint>
            <Time>2021-08-01T15:34:19.000Z</Time>
            <Position>
              <LatitudeDegrees>-15.3502421267330646514892578125</LatitudeDegrees>
              <LongitudeDegrees>37.08887555636465549468994140625</LongitudeDegrees>
            </Position>
            <AltitudeMeters>1239.4000244140625</AltitudeMeters>
            <DistanceMeters>NAN</DistanceMeters>
          </Trackpoint>
          <Trackpoint>
            <Time>2021-08-02T04:32:30.000Z</Time>
            <Position>
              <LatitudeDegrees>-15.35036140121519565582275390625</LatitudeDegrees>
              <LongitudeDegrees>37.08886968903243541717529296875</LongitudeDegrees>
            </Position>
            <AltitudeMeters>1239.5999755859375</AltitudeMeters>
            <DistanceMeters>NAN</DistanceMeters>
          </Trackpoint>
          <Trackpoint>
            <Time>2021-08-02T04:32:31.000Z</Time>
            <Position>
              <LatitudeDegrees>-15.35036626271903514862060546875</LatitudeDegrees>
              <LongitudeDegrees>37.08887186832726001739501953125</LongitudeDegrees>
            </Position>
            <AltitudeMeters>1239.5999755859375</AltitudeMeters>
            <DistanceMeters>NAN</DistanceMeters>
          </Trackpoint>
          <Trackpoint>
            <Time>2021-08-02T04:32:33.000Z</Time>
            <Position>
              <LatitudeDegrees>-15.3503681905567646026611328125</LatitudeDegrees>
              <LongitudeDegrees>37.088882513344287872314453125</LongitudeDegrees>
            </Position>
            <AltitudeMeters>1239.4000244140625</AltitudeMeters>
            <DistanceMeters>NAN</DistanceMeters>
          </Trackpoint>
          <Trackpoint>
            <Time>2021-08-02T04:32:39.000Z</Time>
            <Position>
              <LatitudeDegrees>-15.35033826716244220733642578125</LatitudeDegrees>
              <LongitudeDegrees>37.0888105966150760650634765625</LongitudeDegrees>
            </Position>
            <AltitudeMeters>1239.199951171875</AltitudeMeters>
            <DistanceMeters>NAN</DistanceMeters>
          </Trackpoint>
          <Trackpoint>
            <Time>2021-08-02T04:32:41.000Z</Time>
            <Position>
              <LatitudeDegrees>-15.35032452084124088287353515625</LatitudeDegrees>
              <LongitudeDegrees>37.08878318779170513153076171875</LongitudeDegrees>
            </Position>
            <AltitudeMeters>1239</AltitudeMeters>
            <DistanceMeters>NAN</DistanceMeters>
          </Trackpoint>
          <Trackpoint>
            <Time>2021-08-02T04:32:52.000Z</Time>
            <Position>
              <LatitudeDegrees>-15.350291244685649871826171875</LatitudeDegrees>
              <LongitudeDegrees>37.0886681042611598968505859375</LongitudeDegrees>
            </Position>
            <AltitudeMeters>1239.5999755859375</AltitudeMeters>
            <DistanceMeters>NAN</DistanceMeters>
          </Trackpoint>
          <Trackpoint>
            <Time>2021-08-02T04:32:57.000Z</Time>
            <Position>
              <LatitudeDegrees>-15.35027791745960712432861328125</LatitudeDegrees>
              <LongitudeDegrees>37.0885953493416309356689453125</LongitudeDegrees>
            </Position>
            <AltitudeMeters>1239.4000244140625</AltitudeMeters>
            <DistanceMeters>NAN</DistanceMeters>
          </Trackpoint>
          <Trackpoint>
            <Time>2021-08-02T04:33:02.000Z</Time>
            <Position>
              <LatitudeDegrees>-15.35026651807129383087158203125</LatitudeDegrees>
              <LongitudeDegrees>37.08852049894630908966064453125</LongitudeDegrees>
            </Position>
            <AltitudeMeters>1239.800048828125</AltitudeMeters>
            <DistanceMeters>NAN</DistanceMeters>
          </Trackpoint>
          <Trackpoint>
            <Time>2021-08-02T04:33:09.000Z</Time>
            <Position>
              <LatitudeDegrees>-15.35028495825827121734619140625</LatitudeDegrees>
              <LongitudeDegrees>37.08844992332160472869873046875</LongitudeDegrees>
            </Position>
            <AltitudeMeters>1240.800048828125</AltitudeMeters>
            <DistanceMeters>NAN</DistanceMeters>
          </Trackpoint>
          <Trackpoint>
            <Time>2021-08-02T04:33:13.000Z</Time>
            <Position>
              <LatitudeDegrees>-15.35029836930334568023681640625</LatitudeDegrees>
              <LongitudeDegrees>37.08840667270123958587646484375</LongitudeDegrees>
            </Position>
            <AltitudeMeters>1240.800048828125</AltitudeMeters>
            <DistanceMeters>NAN</DistanceMeters>
          </Trackpoint>
          <Trackpoint>
            <Time>2021-08-02T04:33:16.000Z</Time>
            <Position>
              <LatitudeDegrees>-15.35030423663556575775146484375</LatitudeDegrees>
              <LongitudeDegrees>37.08837599493563175201416015625</LongitudeDegrees>
            </Position>
            <AltitudeMeters>1241.199951171875</AltitudeMeters>
            <DistanceMeters>NAN</DistanceMeters>
          </Trackpoint>
          <Trackpoint>
            <Time>2021-08-02T04:33:24.000Z</Time>
            <Position>
              <LatitudeDegrees>-15.35032921470701694488525390625</LatitudeDegrees>
              <LongitudeDegrees>37.0882952772080898284912109375</LongitudeDegrees>
            </Position>
            <AltitudeMeters>1241.800048828125</AltitudeMeters>
            <DistanceMeters>NAN</DistanceMeters>
          </Trackpoint>
          <Trackpoint>
            <Time>2021-08-02T04:33:26.000Z</Time>
            <Position>
              <LatitudeDegrees>-15.3503371775150299072265625</LatitudeDegrees>
              <LongitudeDegrees>37.08827340044081211090087890625</LongitudeDegrees>
            </Position>
            <AltitudeMeters>1242</AltitudeMeters>
            <DistanceMeters>NAN</DistanceMeters>
          </Trackpoint>
          <Trackpoint>
            <Time>2021-08-02T04:33:33.000Z</Time>
            <Position>
              <LatitudeDegrees>-15.35035687498748302459716796875</LatitudeDegrees>
              <LongitudeDegrees>37.08821170963346958160400390625</LongitudeDegrees>
            </Position>
            <AltitudeMeters>1242.800048828125</AltitudeMeters>
            <DistanceMeters>NAN</DistanceMeters>
          </Trackpoint>
          <Trackpoint>
            <Time>2021-08-02T04:33:38.000Z</Time>
            <Position>
              <LatitudeDegrees>-15.35036475397646427154541015625</LatitudeDegrees>
              <LongitudeDegrees>37.08816929720342159271240234375</LongitudeDegrees>
            </Position>
            <AltitudeMeters>1243.199951171875</AltitudeMeters>
            <DistanceMeters>NAN</DistanceMeters>
          </Trackpoint>
          <Trackpoint>
            <Time>2021-08-02T04:33:40.000Z</Time>
            <Position>
              <LatitudeDegrees>-15.350371040403842926025390625</LatitudeDegrees>
              <LongitudeDegrees>37.08815387450158596038818359375</LongitudeDegrees>
            </Position>
            <AltitudeMeters>1243.4000244140625</AltitudeMeters>
            <DistanceMeters>NAN</DistanceMeters>
          </Trackpoint>
          <Trackpoint>
            <Time>2021-08-02T04:33:44.000Z</Time>
            <Position>
              <LatitudeDegrees>-15.35037011839449405670166015625</LatitudeDegrees>
              <LongitudeDegrees>37.088122777640819549560546875</LongitudeDegrees>
            </Position>
            <AltitudeMeters>1244.199951171875</AltitudeMeters>
            <DistanceMeters>NAN</DistanceMeters>
          </Trackpoint>
          <Trackpoint>
            <Time>2021-08-02T04:33:48.000Z</Time>
            <Position>
              <LatitudeDegrees>-15.35037799738347530364990234375</LatitudeDegrees>
              <LongitudeDegrees>37.0880920998752117156982421875</LongitudeDegrees>
            </Position>
            <AltitudeMeters>1244.800048828125</AltitudeMeters>
            <DistanceMeters>NAN</DistanceMeters>
          </Trackpoint>
          <Trackpoint>
            <Time>2021-08-02T04:33:51.000Z</Time>
            <Position>
              <LatitudeDegrees>-15.350380428135395050048828125</LatitudeDegrees>
              <LongitudeDegrees>37.08807684481143951416015625</LongitudeDegrees>
            </Position>
            <AltitudeMeters>1245.199951171875</AltitudeMeters>
            <DistanceMeters>NAN</DistanceMeters>
          </Trackpoint>
          <Trackpoint>
            <Time>2021-08-02T04:33:58.000Z</Time>
            <Position>
              <LatitudeDegrees>-15.35039777867496013641357421875</LatitudeDegrees>
              <LongitudeDegrees>37.0880190096795558929443359375</LongitudeDegrees>
            </Position>
            <AltitudeMeters>1245.5999755859375</AltitudeMeters>
            <DistanceMeters>NAN</DistanceMeters>
          </Trackpoint>
          <Trackpoint>
            <Time>2021-08-02T04:34:03.000Z</Time>
            <Position>
              <LatitudeDegrees>-15.35041186027228832244873046875</LatitudeDegrees>
              <LongitudeDegrees>37.08797768689692020416259765625</LongitudeDegrees>
            </Position>
            <AltitudeMeters>1246.4000244140625</AltitudeMeters>
            <DistanceMeters>NAN</DistanceMeters>
          </Trackpoint>
          <Trackpoint>
            <Time>2021-08-02T04:34:10.000Z</Time>
            <Position>
              <LatitudeDegrees>-15.3504194878041744232177734375</LatitudeDegrees>
              <LongitudeDegrees>37.0879085361957550048828125</LongitudeDegrees>
            </Position>
            <AltitudeMeters>1247</AltitudeMeters>
            <DistanceMeters>NAN</DistanceMeters>
          </Trackpoint>
          <Trackpoint>
            <Time>2021-08-02T04:34:12.000Z</Time>
            <Position>
              <LatitudeDegrees>-15.35042627714574337005615234375</LatitudeDegrees>
              <LongitudeDegrees>37.08789219148457050323486328125</LongitudeDegrees>
            </Position>
            <AltitudeMeters>1247.4000244140625</AltitudeMeters>
            <DistanceMeters>NAN</DistanceMeters>
          </Trackpoint>
          <Trackpoint>
            <Time>2021-08-02T04:34:19.000Z</Time>
            <Position>
              <LatitudeDegrees>-15.3504687733948230743408203125</LatitudeDegrees>
              <LongitudeDegrees>37.087854556739330291748046875</LongitudeDegrees>
            </Position>
            <AltitudeMeters>1248.199951171875</AltitudeMeters>
            <DistanceMeters>NAN</DistanceMeters>
          </Trackpoint>
          <Trackpoint>
            <Time>2021-08-02T04:34:21.000Z</Time>
            <Position>
              <LatitudeDegrees>-15.35049333237111568450927734375</LatitudeDegrees>
              <LongitudeDegrees>37.0878352783620357513427734375</LongitudeDegrees>
            </Position>
            <AltitudeMeters>1248.4000244140625</AltitudeMeters>
            <DistanceMeters>NAN</DistanceMeters>
          </Trackpoint>
          <Trackpoint>
            <Time>2021-08-02T04:34:25.000Z</Time>
            <Position>
              <LatitudeDegrees>-15.350501798093318939208984375</LatitudeDegrees>
              <LongitudeDegrees>37.08780904300510883331298828125</LongitudeDegrees>
            </Position>
            <AltitudeMeters>1248.800048828125</AltitudeMeters>
            <DistanceMeters>NAN</DistanceMeters>
          </Trackpoint>
          <Trackpoint>
            <Time>2021-08-02T04:34:27.000Z</Time>
            <Position>
              <LatitudeDegrees>-15.35050355829298496246337890625</LatitudeDegrees>
              <LongitudeDegrees>37.08780082874000072479248046875</LongitudeDegrees>
            </Position>
            <AltitudeMeters>1249.4000244140625</AltitudeMeters>
            <DistanceMeters>NAN</DistanceMeters>
          </Trackpoint>
          <Trackpoint>
            <Time>2021-08-02T04:34:28.000Z</Time>
            <Position>
              <LatitudeDegrees>-15.350505821406841278076171875</LatitudeDegrees>
              <LongitudeDegrees>37.08779378794133663177490234375</LongitudeDegrees>
            </Position>
            <AltitudeMeters>1249.800048828125</AltitudeMeters>
            <DistanceMeters>NAN</DistanceMeters>
          </Trackpoint>
          <Trackpoint>
            <Time>2021-08-02T04:34:31.000Z</Time>
            <Position>
              <LatitudeDegrees>-15.35050875507295131683349609375</LatitudeDegrees>
              <LongitudeDegrees>37.08775036968290805816650390625</LongitudeDegrees>
            </Position>
            <AltitudeMeters>1249.800048828125</AltitudeMeters>
            <DistanceMeters>NAN</DistanceMeters>
          </Trackpoint>
          <Trackpoint>
            <Time>2021-08-02T04:34:33.000Z</Time>
            <Position>
              <LatitudeDegrees>-15.35050858743488788604736328125</LatitudeDegrees>
              <LongitudeDegrees>37.08773192949593067169189453125</LongitudeDegrees>
            </Position>
            <AltitudeMeters>1250.199951171875</AltitudeMeters>
            <DistanceMeters>NAN</DistanceMeters>
          </Trackpoint>
          <Trackpoint>
            <Time>2021-08-02T04:34:36.000Z</Time>
            <Position>
              <LatitudeDegrees>-15.35051948390901088714599609375</LatitudeDegrees>
              <LongitudeDegrees>37.08770745433866977691650390625</LongitudeDegrees>
            </Position>
            <AltitudeMeters>1250.4000244140625</AltitudeMeters>
            <DistanceMeters>NAN</DistanceMeters>
          </Trackpoint>
          <Trackpoint>
            <Time>2021-08-02T04:34:37.000Z</Time>
            <Position>
              <LatitudeDegrees>-15.350517220795154571533203125</LatitudeDegrees>
              <LongitudeDegrees>37.08769689314067363739013671875</LongitudeDegrees>
            </Position>
            <AltitudeMeters>1250.4000244140625</AltitudeMeters>
            <DistanceMeters>NAN</DistanceMeters>
          </Trackpoint>
          <Trackpoint>
            <Time>2021-08-02T04:34:43.000Z</Time>
            <Position>
              <LatitudeDegrees>-15.35049500875174999237060546875</LatitudeDegrees>
              <LongitudeDegrees>37.0876495353877544403076171875</LongitudeDegrees>
            </Position>
            <AltitudeMeters>1251.199951171875</AltitudeMeters>
            <DistanceMeters>NAN</DistanceMeters>
          </Trackpoint>
          <Trackpoint>
            <Time>2021-08-02T04:34:48.000Z</Time>
            <Position>
              <LatitudeDegrees>-15.35047061741352081298828125</LatitudeDegrees>
              <LongitudeDegrees>37.0875975675880908966064453125</LongitudeDegrees>
            </Position>
            <AltitudeMeters>1251.4000244140625</AltitudeMeters>
            <DistanceMeters>NAN</DistanceMeters>
          </Trackpoint>
          <Trackpoint>
            <Time>2021-08-02T04:34:49.000Z</Time>
            <Position>
              <LatitudeDegrees>-15.3504701144993305206298828125</LatitudeDegrees>
              <LongitudeDegrees>37.08758734166622161865234375</LongitudeDegrees>
            </Position>
            <AltitudeMeters>1251.4000244140625</AltitudeMeters>
            <DistanceMeters>NAN</DistanceMeters>
          </Trackpoint>
          <Trackpoint>
            <Time>2021-08-02T04:34:56.000Z</Time>
            <Position>
              <LatitudeDegrees>-15.3504613973200321197509765625</LatitudeDegrees>
              <LongitudeDegrees>37.087513245642185211181640625</LongitudeDegrees>
            </Position>
            <AltitudeMeters>1251</AltitudeMeters>
            <DistanceMeters>NAN</DistanceMeters>
          </Trackpoint>
          <Trackpoint>
            <Time>2021-08-02T04:35:00.000Z</Time>
            <Position>
              <LatitudeDegrees>-15.3504634089767932891845703125</LatitudeDegrees>
              <LongitudeDegrees>37.0874906145036220550537109375</LongitudeDegrees>
            </Position>
            <AltitudeMeters>1250.800048828125</AltitudeMeters>
            <DistanceMeters>NAN</DistanceMeters>
          </Trackpoint>
          <Trackpoint>
            <Time>2021-08-02T04:35:03.000Z</Time>
            <Position>
              <LatitudeDegrees>-15.35046919248998165130615234375</LatitudeDegrees>
              <LongitudeDegrees>37.08749086596071720123291015625</LongitudeDegrees>
            </Position>
            <AltitudeMeters>1250.5999755859375</AltitudeMeters>
            <DistanceMeters>NAN</DistanceMeters>
          </Trackpoint>
          <Trackpoint>
            <Time>2021-08-02T04:35:10.000Z</Time>
            <Position>
              <LatitudeDegrees>-15.350464247167110443115234375</LatitudeDegrees>
              <LongitudeDegrees>37.087501846253871917724609375</LongitudeDegrees>
            </Position>
            <AltitudeMeters>1250.4000244140625</AltitudeMeters>
            <DistanceMeters>NAN</DistanceMeters>
          </Trackpoint>
          <Trackpoint>
            <Time>2021-08-02T04:35:16.000Z</Time>
            <Position>
              <LatitudeDegrees>-15.35046449862420558929443359375</LatitudeDegrees>
              <LongitudeDegrees>37.08750125952064990997314453125</LongitudeDegrees>
            </Position>
            <AltitudeMeters>1250</AltitudeMeters>
            <DistanceMeters>NAN</DistanceMeters>
          </Trackpoint>
          <Trackpoint>
            <Time>2021-08-02T04:35:19.000Z</Time>
            <Position>
              <LatitudeDegrees>-15.35046449862420558929443359375</LatitudeDegrees>
              <LongitudeDegrees>37.08750125952064990997314453125</LongitudeDegrees>
            </Position>
            <AltitudeMeters>1250</AltitudeMeters>
            <DistanceMeters>NAN</DistanceMeters>
          </Trackpoint>
          <Trackpoint>
            <Time>2021-08-02T04:35:36.000Z</Time>
            <Position>
              <LatitudeDegrees>-15.35045628435909748077392578125</LatitudeDegrees>
              <LongitudeDegrees>37.08748013712465763092041015625</LongitudeDegrees>
            </Position>
            <AltitudeMeters>1249.800048828125</AltitudeMeters>
            <DistanceMeters>NAN</DistanceMeters>
          </Trackpoint>
          <Trackpoint>
            <Time>2021-08-02T04:35:37.000Z</Time>
            <Position>
              <LatitudeDegrees>-15.35045628435909748077392578125</LatitudeDegrees>
              <LongitudeDegrees>37.08748013712465763092041015625</LongitudeDegrees>
            </Position>
            <AltitudeMeters>1249.800048828125</AltitudeMeters>
            <DistanceMeters>NAN</DistanceMeters>
          </Trackpoint>
          <Trackpoint>
            <Time>2021-08-02T04:35:56.000Z</Time>
            <Position>
              <LatitudeDegrees>-15.350460894405841827392578125</LatitudeDegrees>
              <LongitudeDegrees>37.0874822326004505157470703125</LongitudeDegrees>
            </Position>
            <AltitudeMeters>1249.5999755859375</AltitudeMeters>
            <DistanceMeters>NAN</DistanceMeters>
          </Trackpoint>
          <Trackpoint>
            <Time>2021-08-02T04:35:59.000Z</Time>
            <Position>
              <LatitudeDegrees>-15.35046600736677646636962890625</LatitudeDegrees>
              <LongitudeDegrees>37.087483070790767669677734375</LongitudeDegrees>
            </Position>
            <AltitudeMeters>1249.4000244140625</AltitudeMeters>
            <DistanceMeters>NAN</DistanceMeters>
          </Trackpoint>
          <Trackpoint>
            <Time>2021-08-02T04:36:22.000Z</Time>
            <Position>
              <LatitudeDegrees>-15.35047254525125026702880859375</LatitudeDegrees>
              <LongitudeDegrees>37.08748684264719486236572265625</LongitudeDegrees>
            </Position>
            <AltitudeMeters>1249.800048828125</AltitudeMeters>
            <DistanceMeters>NAN</DistanceMeters>
          </Trackpoint>
          <Trackpoint>
            <Time>2021-08-02T04:36:27.000Z</Time>
            <Position>
              <LatitudeDegrees>-15.35044974647462368011474609375</LatitudeDegrees>
              <LongitudeDegrees>37.08746018819510936737060546875</LongitudeDegrees>
            </Position>
            <AltitudeMeters>1249.800048828125</AltitudeMeters>
            <DistanceMeters>NAN</DistanceMeters>
          </Trackpoint>
          <Trackpoint>
            <Time>2021-08-02T04:36:34.000Z</Time>
            <Position>
              <LatitudeDegrees>-15.35041102208197116851806640625</LatitudeDegrees>
              <LongitudeDegrees>37.0873481221497058868408203125</LongitudeDegrees>
            </Position>
            <AltitudeMeters>1249.800048828125</AltitudeMeters>
            <DistanceMeters>NAN</DistanceMeters>
          </Trackpoint>
          <Trackpoint>
            <Time>2021-08-02T04:36:35.000Z</Time>
            <Position>
              <LatitudeDegrees>-15.35040498711168766021728515625</LatitudeDegrees>
              <LongitudeDegrees>37.0873323641717433929443359375</LongitudeDegrees>
            </Position>
            <AltitudeMeters>1249.800048828125</AltitudeMeters>
            <DistanceMeters>NAN</DistanceMeters>
          </Trackpoint>
          <Trackpoint>
            <Time>2021-08-02T04:36:42.000Z</Time>
            <Position>
              <LatitudeDegrees>-15.35037003457546234130859375</LatitudeDegrees>
              <LongitudeDegrees>37.087253071367740631103515625</LongitudeDegrees>
            </Position>
            <AltitudeMeters>1249.4000244140625</AltitudeMeters>
            <DistanceMeters>NAN</DistanceMeters>
          </Trackpoint>
          <Trackpoint>
            <Time>2021-08-02T04:36:46.000Z</Time>
            <Position>
              <LatitudeDegrees>-15.35035804845392704010009765625</LatitudeDegrees>
              <LongitudeDegrees>37.08720982074737548828125</LongitudeDegrees>
            </Position>
            <AltitudeMeters>1248.4000244140625</AltitudeMeters>
            <DistanceMeters>NAN</DistanceMeters>
          </Trackpoint>
          <Trackpoint>
            <Time>2021-08-02T04:36:54.000Z</Time>
            <Position>
              <LatitudeDegrees>-15.350328795611858367919921875</LatitudeDegrees>
              <LongitudeDegrees>37.08710990846157073974609375</LongitudeDegrees>
            </Position>
            <AltitudeMeters>1248</AltitudeMeters>
            <DistanceMeters>NAN</DistanceMeters>
          </Trackpoint>
          <Trackpoint>
            <Time>2021-08-02T04:36:56.000Z</Time>
            <Position>
              <LatitudeDegrees>-15.35032041370868682861328125</LatitudeDegrees>
              <LongitudeDegrees>37.0870782248675823211669921875</LongitudeDegrees>
            </Position>
            <AltitudeMeters>1247.4000244140625</AltitudeMeters>
            <DistanceMeters>NAN</DistanceMeters>
          </Trackpoint>
          <Trackpoint>
            <Time>2021-08-02T04:37:03.000Z</Time>
            <Position>
              <LatitudeDegrees>-15.3502974472939968109130859375</LatitudeDegrees>
              <LongitudeDegrees>37.0870046317577362060546875</LongitudeDegrees>
            </Position>
            <AltitudeMeters>1246.4000244140625</AltitudeMeters>
            <DistanceMeters>NAN</DistanceMeters>
          </Trackpoint>
          <Trackpoint>
            <Time>2021-08-02T04:37:04.000Z</Time>
            <Position>
              <LatitudeDegrees>-15.35029149614274501800537109375</LatitudeDegrees>
              <LongitudeDegrees>37.0869866944849491119384765625</LongitudeDegrees>
            </Position>
            <AltitudeMeters>1246.4000244140625</AltitudeMeters>
            <DistanceMeters>NAN</DistanceMeters>
          </Trackpoint>
          <Trackpoint>
            <Time>2021-08-02T04:37:12.000Z</Time>
            <Position>
              <LatitudeDegrees>-15.35026484169065952301025390625</LatitudeDegrees>
              <LongitudeDegrees>37.08690731786191463470458984375</LongitudeDegrees>
            </Position>
            <AltitudeMeters>1245</AltitudeMeters>
            <DistanceMeters>NAN</DistanceMeters>
          </Trackpoint>
          <Trackpoint>
            <Time>2021-08-02T04:37:15.000Z</Time>
            <Position>
              <LatitudeDegrees>-15.35024128854274749755859375</LatitudeDegrees>
              <LongitudeDegrees>37.08688301034271717071533203125</LongitudeDegrees>
            </Position>
            <AltitudeMeters>1244.800048828125</AltitudeMeters>
            <DistanceMeters>NAN</DistanceMeters>
          </Trackpoint>
          <Trackpoint>
            <Time>2021-08-02T04:37:19.000Z</Time>
            <Position>
              <LatitudeDegrees>-15.35021639429032802581787109375</LatitudeDegrees>
              <LongitudeDegrees>37.08683523349463939666748046875</LongitudeDegrees>
            </Position>
            <AltitudeMeters>1244</AltitudeMeters>
            <DistanceMeters>NAN</DistanceMeters>
          </Trackpoint>
          <Trackpoint>
            <Time>2021-08-02T04:37:22.000Z</Time>
            <Position>
              <LatitudeDegrees>-15.3502059169113636016845703125</LatitudeDegrees>
              <LongitudeDegrees>37.08682450465857982635498046875</LongitudeDegrees>
            </Position>
            <AltitudeMeters>1243.800048828125</AltitudeMeters>
            <DistanceMeters>NAN</DistanceMeters>
          </Trackpoint>
          <Trackpoint>
            <Time>2021-08-02T04:37:30.000Z</Time>
            <Position>
              <LatitudeDegrees>-15.35014632157981395721435546875</LatitudeDegrees>
              <LongitudeDegrees>37.0867432840168476104736328125</LongitudeDegrees>
            </Position>
            <AltitudeMeters>1243.199951171875</AltitudeMeters>
            <DistanceMeters>NAN</DistanceMeters>
          </Trackpoint>
          <Trackpoint>
            <Time>2021-08-02T04:37:34.000Z</Time>
            <Position>
              <LatitudeDegrees>-15.35012201406061649322509765625</LatitudeDegrees>
              <LongitudeDegrees>37.08671185187995433807373046875</LongitudeDegrees>
            </Position>
            <AltitudeMeters>1243</AltitudeMeters>
            <DistanceMeters>NAN</DistanceMeters>
          </Trackpoint>
          <Trackpoint>
            <Time>2021-08-02T04:37:35.000Z</Time>
            <Position>
              <LatitudeDegrees>-15.35011396743357181549072265625</LatitudeDegrees>
              <LongitudeDegrees>37.08670221269130706787109375</LongitudeDegrees>
            </Position>
            <AltitudeMeters>1243</AltitudeMeters>
            <DistanceMeters>NAN</DistanceMeters>
          </Trackpoint>
          <Trackpoint>
            <Time>2021-08-02T04:37:38.000Z</Time>
            <Position>
              <LatitudeDegrees>-15.35009100101888179779052734375</LatitudeDegrees>
              <LongitudeDegrees>37.0866748876869678497314453125</LongitudeDegrees>
            </Position>
            <AltitudeMeters>1243</AltitudeMeters>
            <DistanceMeters>NAN</DistanceMeters>
          </Trackpoint>
          <Trackpoint>
            <Time>2021-08-02T04:37:39.000Z</Time>
            <Position>
              <LatitudeDegrees>-15.35008161328732967376708984375</LatitudeDegrees>
              <LongitudeDegrees>37.086668349802494049072265625</LongitudeDegrees>
            </Position>
            <AltitudeMeters>1243</AltitudeMeters>
            <DistanceMeters>NAN</DistanceMeters>
          </Trackpoint>
          <Trackpoint>
            <Time>2021-08-02T04:37:42.000Z</Time>
            <Position>
              <LatitudeDegrees>-15.35005998797714710235595703125</LatitudeDegrees>
              <LongitudeDegrees>37.0866634882986545562744140625</LongitudeDegrees>
            </Position>
            <AltitudeMeters>1243</AltitudeMeters>
            <DistanceMeters>NAN</DistanceMeters>
          </Trackpoint>
          <Trackpoint>
            <Time>2021-08-02T04:37:45.000Z</Time>
            <Position>
              <LatitudeDegrees>-15.35001640208065509796142578125</LatitudeDegrees>
              <LongitudeDegrees>37.086640186607837677001953125</LongitudeDegrees>
            </Position>
            <AltitudeMeters>1243</AltitudeMeters>
            <DistanceMeters>NAN</DistanceMeters>
          </Trackpoint>
          <Trackpoint>
            <Time>2021-08-02T04:37:50.000Z</Time>
            <Position>
              <LatitudeDegrees>-15.3499799408018589019775390625</LatitudeDegrees>
              <LongitudeDegrees>37.0865974389016628265380859375</LongitudeDegrees>
            </Position>
            <AltitudeMeters>1243.199951171875</AltitudeMeters>
            <DistanceMeters>NAN</DistanceMeters>
          </Trackpoint>
          <Trackpoint>
            <Time>2021-08-02T04:37:54.000Z</Time>
            <Position>
              <LatitudeDegrees>-15.3499256260693073272705078125</LatitudeDegrees>
              <LongitudeDegrees>37.0865830220282077789306640625</LongitudeDegrees>
            </Position>
            <AltitudeMeters>1243.199951171875</AltitudeMeters>
            <DistanceMeters>NAN</DistanceMeters>
          </Trackpoint>
          <Trackpoint>
            <Time>2021-08-02T04:38:05.000Z</Time>
            <Position>
              <LatitudeDegrees>-15.3498451597988605499267578125</LatitudeDegrees>
              <LongitudeDegrees>37.0865298807621002197265625</LongitudeDegrees>
            </Position>
            <AltitudeMeters>1243.5999755859375</AltitudeMeters>
            <DistanceMeters>NAN</DistanceMeters>
          </Trackpoint>
          <Trackpoint>
            <Time>2021-08-02T04:38:08.000Z</Time>
            <Position>
              <LatitudeDegrees>-15.34984859637916088104248046875</LatitudeDegrees>
              <LongitudeDegrees>37.08650238811969757080078125</LongitudeDegrees>
            </Position>
            <AltitudeMeters>1244</AltitudeMeters>
            <DistanceMeters>NAN</DistanceMeters>
          </Trackpoint>
          <Trackpoint>
            <Time>2021-08-02T04:38:11.000Z</Time>
            <Position>
              <LatitudeDegrees>-15.34984960220754146575927734375</LatitudeDegrees>
              <LongitudeDegrees>37.08648419938981533050537109375</LongitudeDegrees>
            </Position>
            <AltitudeMeters>1244.5999755859375</AltitudeMeters>
            <DistanceMeters>NAN</DistanceMeters>
          </Trackpoint>
          <Trackpoint>
            <Time>2021-08-02T04:38:13.000Z</Time>
            <Position>
              <LatitudeDegrees>-15.34984038211405277252197265625</LatitudeDegrees>
              <LongitudeDegrees>37.08645536564290523529052734375</LongitudeDegrees>
            </Position>
            <AltitudeMeters>1245.199951171875</AltitudeMeters>
            <DistanceMeters>NAN</DistanceMeters>
          </Trackpoint>
          <Trackpoint>
            <Time>2021-08-02T04:38:18.000Z</Time>
            <Position>
              <LatitudeDegrees>-15.34985245205461978912353515625</LatitudeDegrees>
              <LongitudeDegrees>37.08642133511602878570556640625</LongitudeDegrees>
            </Position>
            <AltitudeMeters>1245.5999755859375</AltitudeMeters>
            <DistanceMeters>NAN</DistanceMeters>
          </Trackpoint>
          <Trackpoint>
            <Time>2021-08-02T04:38:21.000Z</Time>
            <Position>
              <LatitudeDegrees>-15.34984976984560489654541015625</LatitudeDegrees>
              <LongitudeDegrees>37.0864046551287174224853515625</LongitudeDegrees>
            </Position>
            <AltitudeMeters>1246.199951171875</AltitudeMeters>
            <DistanceMeters>NAN</DistanceMeters>
          </Trackpoint>
          <Trackpoint>
            <Time>2021-08-02T04:38:26.000Z</Time>
            <Position>
              <LatitudeDegrees>-15.3498418070375919342041015625</LatitudeDegrees>
              <LongitudeDegrees>37.08637389354407787322998046875</LongitudeDegrees>
            </Position>
            <AltitudeMeters>1247</AltitudeMeters>
            <DistanceMeters>NAN</DistanceMeters>
          </Trackpoint>
          <Trackpoint>
            <Time>2021-08-02T04:38:29.000Z</Time>
            <Position>
              <LatitudeDegrees>-15.349839963018894195556640625</LatitudeDegrees>
              <LongitudeDegrees>37.08637003786861896514892578125</LongitudeDegrees>
            </Position>
            <AltitudeMeters>1247.199951171875</AltitudeMeters>
            <DistanceMeters>NAN</DistanceMeters>
          </Trackpoint>
          <Trackpoint>
            <Time>2021-08-02T04:38:36.000Z</Time>
            <Position>
              <LatitudeDegrees>-15.3498394601047039031982421875</LatitudeDegrees>
              <LongitudeDegrees>37.08633651025593280792236328125</LongitudeDegrees>
            </Position>
            <AltitudeMeters>1247.800048828125</AltitudeMeters>
            <DistanceMeters>NAN</DistanceMeters>
          </Trackpoint>
          <Trackpoint>
            <Time>2021-08-02T04:38:43.000Z</Time>
            <Position>
              <LatitudeDegrees>-15.3498436510562896728515625</LatitudeDegrees>
              <LongitudeDegrees>37.08634070120751857757568359375</LongitudeDegrees>
            </Position>
            <AltitudeMeters>1248.199951171875</AltitudeMeters>
            <DistanceMeters>NAN</DistanceMeters>
          </Trackpoint>
          <Trackpoint>
            <Time>2021-08-02T04:38:44.000Z</Time>
            <Position>
              <LatitudeDegrees>-15.3498436510562896728515625</LatitudeDegrees>
              <LongitudeDegrees>37.08634070120751857757568359375</LongitudeDegrees>
            </Position>
            <AltitudeMeters>1248.5999755859375</AltitudeMeters>
            <DistanceMeters>NAN</DistanceMeters>
          </Trackpoint>
          <Trackpoint>
            <Time>2021-08-02T04:38:45.000Z</Time>
            <Position>
              <LatitudeDegrees>-15.3498436510562896728515625</LatitudeDegrees>
              <LongitudeDegrees>37.08634070120751857757568359375</LongitudeDegrees>
            </Position>
            <AltitudeMeters>1248.5999755859375</AltitudeMeters>
            <DistanceMeters>NAN</DistanceMeters>
          </Trackpoint>
          <Trackpoint>
            <Time>2021-08-02T04:38:46.000Z</Time>
            <Position>
              <LatitudeDegrees>-15.34984004683792591094970703125</LatitudeDegrees>
              <LongitudeDegrees>37.0863238535821437835693359375</LongitudeDegrees>
            </Position>
            <AltitudeMeters>1248.5999755859375</AltitudeMeters>
            <DistanceMeters>NAN</DistanceMeters>
          </Trackpoint>
          <Trackpoint>
            <Time>2021-08-02T04:38:50.000Z</Time>
            <Position>
              <LatitudeDegrees>-15.34983099438250064849853515625</LatitudeDegrees>
              <LongitudeDegrees>37.086274735629558563232421875</LongitudeDegrees>
            </Position>
            <AltitudeMeters>1249.5999755859375</AltitudeMeters>
            <DistanceMeters>NAN</DistanceMeters>
          </Trackpoint>
          <Trackpoint>
            <Time>2021-08-02T04:38:51.000Z</Time>
            <Position>
              <LatitudeDegrees>-15.3498304076492786407470703125</LatitudeDegrees>
              <LongitudeDegrees>37.08626342006027698516845703125</LongitudeDegrees>
            </Position>
            <AltitudeMeters>1249.800048828125</AltitudeMeters>
            <DistanceMeters>NAN</DistanceMeters>
          </Trackpoint>
          <Trackpoint>
            <Time>2021-08-02T04:39:01.000Z</Time>
            <Position>
              <LatitudeDegrees>-15.34981976263225078582763671875</LatitudeDegrees>
              <LongitudeDegrees>37.0861900784075260162353515625</LongitudeDegrees>
            </Position>
            <AltitudeMeters>1250.5999755859375</AltitudeMeters>
            <DistanceMeters>NAN</DistanceMeters>
          </Trackpoint>
          <Trackpoint>
            <Time>2021-08-02T04:39:02.000Z</Time>
            <Position>
              <LatitudeDegrees>-15.34981976263225078582763671875</LatitudeDegrees>
              <LongitudeDegrees>37.0861900784075260162353515625</LongitudeDegrees>
            </Position>
            <AltitudeMeters>1250.800048828125</AltitudeMeters>
            <DistanceMeters>NAN</DistanceMeters>
          </Trackpoint>
          <Trackpoint>
            <Time>2021-08-02T04:39:05.000Z</Time>
            <Position>
              <LatitudeDegrees>-15.3498304076492786407470703125</LatitudeDegrees>
              <LongitudeDegrees>37.08616199903190135955810546875</LongitudeDegrees>
            </Position>
            <AltitudeMeters>1251.199951171875</AltitudeMeters>
            <DistanceMeters>NAN</DistanceMeters>
          </Trackpoint>
          <Trackpoint>
            <Time>2021-08-02T04:39:06.000Z</Time>
            <Position>
              <LatitudeDegrees>-15.34983493387699127197265625</LatitudeDegrees>
              <LongitudeDegrees>37.08615462295711040496826171875</LongitudeDegrees>
            </Position>
            <AltitudeMeters>1251.800048828125</AltitudeMeters>
            <DistanceMeters>NAN</DistanceMeters>
          </Trackpoint>
          <Trackpoint>
            <Time>2021-08-02T04:39:11.000Z</Time>
            <Position>
              <LatitudeDegrees>-15.3498186729848384857177734375</LatitudeDegrees>
              <LongitudeDegrees>37.086116485297679901123046875</LongitudeDegrees>
            </Position>
            <AltitudeMeters>1252.800048828125</AltitudeMeters>
            <DistanceMeters>NAN</DistanceMeters>
          </Trackpoint>
          <Trackpoint>
            <Time>2021-08-02T04:39:12.000Z</Time>
            <Position>
              <LatitudeDegrees>-15.34981573931872844696044921875</LatitudeDegrees>
              <LongitudeDegrees>37.08610349334776401519775390625</LongitudeDegrees>
            </Position>
            <AltitudeMeters>1253.199951171875</AltitudeMeters>
            <DistanceMeters>NAN</DistanceMeters>
          </Trackpoint>
          <Trackpoint>
            <Time>2021-08-02T04:39:17.000Z</Time>
            <Position>
              <LatitudeDegrees>-15.3497980535030364990234375</LatitudeDegrees>
              <LongitudeDegrees>37.08608672954142093658447265625</LongitudeDegrees>
            </Position>
            <AltitudeMeters>1253.4000244140625</AltitudeMeters>
            <DistanceMeters>NAN</DistanceMeters>
          </Trackpoint>
          <Trackpoint>
            <Time>2021-08-02T04:39:26.000Z</Time>
            <Position>
              <LatitudeDegrees>-15.34976377151906490325927734375</LatitudeDegrees>
              <LongitudeDegrees>37.0860653556883335113525390625</LongitudeDegrees>
            </Position>
            <AltitudeMeters>1254</AltitudeMeters>
            <DistanceMeters>NAN</DistanceMeters>
          </Trackpoint>
          <Trackpoint>
            <Time>2021-08-02T04:39:31.000Z</Time>
            <Position>
              <LatitudeDegrees>-15.3497556410729885101318359375</LatitudeDegrees>
              <LongitudeDegrees>37.0860683731734752655029296875</LongitudeDegrees>
            </Position>
            <AltitudeMeters>1254.4000244140625</AltitudeMeters>
            <DistanceMeters>NAN</DistanceMeters>
          </Trackpoint>
          <Trackpoint>
            <Time>2021-08-02T04:39:35.000Z</Time>
            <Position>
              <LatitudeDegrees>-15.34974734298884868621826171875</LatitudeDegrees>
              <LongitudeDegrees>37.08606258966028690338134765625</LongitudeDegrees>
            </Position>
            <AltitudeMeters>1254.4000244140625</AltitudeMeters>
            <DistanceMeters>NAN</DistanceMeters>
          </Trackpoint>
          <Trackpoint>
            <Time>2021-08-02T04:39:38.000Z</Time>
            <Position>
              <LatitudeDegrees>-15.34973661415278911590576171875</LatitudeDegrees>
              <LongitudeDegrees>37.08604783751070499420166015625</LongitudeDegrees>
            </Position>
            <AltitudeMeters>1254.4000244140625</AltitudeMeters>
            <DistanceMeters>NAN</DistanceMeters>
          </Trackpoint>
          <Trackpoint>
            <Time>2021-08-02T04:39:42.000Z</Time>
            <Position>
              <LatitudeDegrees>-15.34973309375345706939697265625</LatitudeDegrees>
              <LongitudeDegrees>37.0860512740910053253173828125</LongitudeDegrees>
            </Position>
            <AltitudeMeters>1254.4000244140625</AltitudeMeters>
            <DistanceMeters>NAN</DistanceMeters>
          </Trackpoint>
          <Trackpoint>
            <Time>2021-08-02T04:39:44.000Z</Time>
            <Position>
              <LatitudeDegrees>-15.34973661415278911590576171875</LatitudeDegrees>
              <LongitudeDegrees>37.08604984916746616363525390625</LongitudeDegrees>
            </Position>
            <AltitudeMeters>1254.4000244140625</AltitudeMeters>
            <DistanceMeters>NAN</DistanceMeters>
          </Trackpoint>
          <Trackpoint>
            <Time>2021-08-02T04:39:48.000Z</Time>
            <Position>
              <LatitudeDegrees>-15.3497328422963619232177734375</LatitudeDegrees>
              <LongitudeDegrees>37.08605177700519561767578125</LongitudeDegrees>
            </Position>
            <AltitudeMeters>1254.4000244140625</AltitudeMeters>
            <DistanceMeters>NAN</DistanceMeters>
          </Trackpoint>
          <Trackpoint>
            <Time>2021-08-02T04:39:52.000Z</Time>
            <Position>
              <LatitudeDegrees>-15.3497328422963619232177734375</LatitudeDegrees>
              <LongitudeDegrees>37.08605177700519561767578125</LongitudeDegrees>
            </Position>
            <AltitudeMeters>1254.4000244140625</AltitudeMeters>
            <DistanceMeters>NAN</DistanceMeters>
          </Trackpoint>
          <Trackpoint>
            <Time>2021-08-02T04:40:03.000Z</Time>
            <Position>
              <LatitudeDegrees>-15.3497338481247425079345703125</LatitudeDegrees>
              <LongitudeDegrees>37.08605177700519561767578125</LongitudeDegrees>
            </Position>
            <AltitudeMeters>1254.4000244140625</AltitudeMeters>
            <DistanceMeters>NAN</DistanceMeters>
          </Trackpoint>
          <Trackpoint>
            <Time>2021-08-02T04:40:06.000Z</Time>
            <Position>
              <LatitudeDegrees>-15.3497341834008693695068359375</LatitudeDegrees>
              <LongitudeDegrees>37.08605135791003704071044921875</LongitudeDegrees>
            </Position>
            <AltitudeMeters>1254.4000244140625</AltitudeMeters>
            <DistanceMeters>NAN</DistanceMeters>
          </Trackpoint>
          <Trackpoint>
            <Time>2021-08-02T04:40:09.000Z</Time>
            <Position>
              <LatitudeDegrees>-15.3497341834008693695068359375</LatitudeDegrees>
              <LongitudeDegrees>37.0860512740910053253173828125</LongitudeDegrees>
            </Position>
            <AltitudeMeters>1254.4000244140625</AltitudeMeters>
            <DistanceMeters>NAN</DistanceMeters>
          </Trackpoint>
          <Trackpoint>
            <Time>2021-08-02T04:40:13.000Z</Time>
            <Position>
              <LatitudeDegrees>-15.349735356867313385009765625</LatitudeDegrees>
              <LongitudeDegrees>37.086049430072307586669921875</LongitudeDegrees>
            </Position>
            <AltitudeMeters>1254.4000244140625</AltitudeMeters>
            <DistanceMeters>NAN</DistanceMeters>
          </Trackpoint>
          <Trackpoint>
            <Time>2021-08-02T04:40:18.000Z</Time>
            <Position>
              <LatitudeDegrees>-15.349738039076328277587890625</LatitudeDegrees>
              <LongitudeDegrees>37.08604104816913604736328125</LongitudeDegrees>
            </Position>
            <AltitudeMeters>1254.4000244140625</AltitudeMeters>
            <DistanceMeters>NAN</DistanceMeters>
          </Trackpoint>
          <Trackpoint>
            <Time>2021-08-02T04:40:31.000Z</Time>
            <Position>
              <LatitudeDegrees>-15.34973812289535999298095703125</LatitudeDegrees>
              <LongitudeDegrees>37.08603861741721630096435546875</LongitudeDegrees>
            </Position>
            <AltitudeMeters>1254.5999755859375</AltitudeMeters>
            <DistanceMeters>NAN</DistanceMeters>
          </Trackpoint>
          <Trackpoint>
            <Time>2021-08-02T04:40:33.000Z</Time>
            <Position>
              <LatitudeDegrees>-15.34973812289535999298095703125</LatitudeDegrees>
              <LongitudeDegrees>37.08603861741721630096435546875</LongitudeDegrees>
            </Position>
            <AltitudeMeters>1254.5999755859375</AltitudeMeters>
            <DistanceMeters>NAN</DistanceMeters>
          </Trackpoint>
          <Trackpoint>
            <Time>2021-08-02T04:40:42.000Z</Time>
            <Position>
              <LatitudeDegrees>-15.34973426721990108489990234375</LatitudeDegrees>
              <LongitudeDegrees>37.08604213781654834747314453125</LongitudeDegrees>
            </Position>
            <AltitudeMeters>1255</AltitudeMeters>
            <DistanceMeters>NAN</DistanceMeters>
          </Trackpoint>
          <Trackpoint>
            <Time>2021-08-02T04:40:55.000Z</Time>
            <Position>
              <LatitudeDegrees>-15.349764861166477203369140625</LatitudeDegrees>
              <LongitudeDegrees>37.086097039282321929931640625</LongitudeDegrees>
            </Position>
            <AltitudeMeters>1254.5999755859375</AltitudeMeters>
            <DistanceMeters>NAN</DistanceMeters>
          </Trackpoint>
          <Trackpoint>
            <Time>2021-08-02T04:40:57.000Z</Time>
            <Position>
              <LatitudeDegrees>-15.34977366216480731964111328125</LatitudeDegrees>
              <LongitudeDegrees>37.08611304871737957000732421875</LongitudeDegrees>
            </Position>
            <AltitudeMeters>1254.4000244140625</AltitudeMeters>
            <DistanceMeters>NAN</DistanceMeters>
          </Trackpoint>
          <Trackpoint>
            <Time>2021-08-02T04:41:01.000Z</Time>
            <Position>
              <LatitudeDegrees>-15.3497787751257419586181640625</LatitudeDegrees>
              <LongitudeDegrees>37.08617138676345348358154296875</LongitudeDegrees>
            </Position>
            <AltitudeMeters>1253.800048828125</AltitudeMeters>
            <DistanceMeters>NAN</DistanceMeters>
          </Trackpoint>
          <Trackpoint>
            <Time>2021-08-02T04:41:03.000Z</Time>
            <Position>
              <LatitudeDegrees>-15.34976813010871410369873046875</LatitudeDegrees>
              <LongitudeDegrees>37.0862125419080257415771484375</LongitudeDegrees>
            </Position>
            <AltitudeMeters>1253.800048828125</AltitudeMeters>
            <DistanceMeters>NAN</DistanceMeters>
          </Trackpoint>
          <Trackpoint>
            <Time>2021-08-02T04:41:04.000Z</Time>
            <Position>
              <LatitudeDegrees>-15.34977064467966556549072265625</LatitudeDegrees>
              <LongitudeDegrees>37.0862242765724658966064453125</LongitudeDegrees>
            </Position>
            <AltitudeMeters>1253.4000244140625</AltitudeMeters>
            <DistanceMeters>NAN</DistanceMeters>
          </Trackpoint>
          <Trackpoint>
            <Time>2021-08-02T04:41:05.000Z</Time>
            <Position>
              <LatitudeDegrees>-15.34977064467966556549072265625</LatitudeDegrees>
              <LongitudeDegrees>37.0862242765724658966064453125</LongitudeDegrees>
            </Position>
            <AltitudeMeters>1253</AltitudeMeters>
            <DistanceMeters>NAN</DistanceMeters>
          </Trackpoint>
          <Trackpoint>
            <Time>2021-08-02T04:41:08.000Z</Time>
            <Position>
              <LatitudeDegrees>-15.34976125694811344146728515625</LatitudeDegrees>
              <LongitudeDegrees>37.08626342006027698516845703125</LongitudeDegrees>
            </Position>
            <AltitudeMeters>1252</AltitudeMeters>
            <DistanceMeters>NAN</DistanceMeters>
          </Trackpoint>
          <Trackpoint>
            <Time>2021-08-02T04:41:10.000Z</Time>
            <Position>
              <LatitudeDegrees>-15.34976092167198657989501953125</LatitudeDegrees>
              <LongitudeDegrees>37.08628487773239612579345703125</LongitudeDegrees>
            </Position>
            <AltitudeMeters>1251.800048828125</AltitudeMeters>
            <DistanceMeters>NAN</DistanceMeters>
          </Trackpoint>
          <Trackpoint>
            <Time>2021-08-02T04:41:12.000Z</Time>
            <Position>
              <LatitudeDegrees>-15.3497658669948577880859375</LatitudeDegrees>
              <LongitudeDegrees>37.08630600012838840484619140625</LongitudeDegrees>
            </Position>
            <AltitudeMeters>1251.5999755859375</AltitudeMeters>
            <DistanceMeters>NAN</DistanceMeters>
          </Trackpoint>
          <Trackpoint>
            <Time>2021-08-02T04:41:14.000Z</Time>
            <Position>
              <LatitudeDegrees>-15.34977064467966556549072265625</LatitudeDegrees>
              <LongitudeDegrees>37.086317650973796844482421875</LongitudeDegrees>
            </Position>
            <AltitudeMeters>1251.199951171875</AltitudeMeters>
            <DistanceMeters>NAN</DistanceMeters>
          </Trackpoint>
          <Trackpoint>
            <Time>2021-08-02T04:41:16.000Z</Time>
            <Position>
              <LatitudeDegrees>-15.34978740848600864410400390625</LatitudeDegrees>
              <LongitudeDegrees>37.08634405396878719329833984375</LongitudeDegrees>
            </Position>
            <AltitudeMeters>1251</AltitudeMeters>
            <DistanceMeters>NAN</DistanceMeters>
          </Trackpoint>
          <Trackpoint>
            <Time>2021-08-02T04:41:17.000Z</Time>
            <Position>
              <LatitudeDegrees>-15.349794365465641021728515625</LatitudeDegrees>
              <LongitudeDegrees>37.08635486662387847900390625</LongitudeDegrees>
            </Position>
            <AltitudeMeters>1250.4000244140625</AltitudeMeters>
            <DistanceMeters>NAN</DistanceMeters>
          </Trackpoint>
          <Trackpoint>
            <Time>2021-08-02T04:41:22.000Z</Time>
            <Position>
              <LatitudeDegrees>-15.34979411400854587554931640625</LatitudeDegrees>
              <LongitudeDegrees>37.086407840251922607421875</LongitudeDegrees>
            </Position>
            <AltitudeMeters>1249.199951171875</AltitudeMeters>
            <DistanceMeters>NAN</DistanceMeters>
          </Trackpoint>
          <Trackpoint>
            <Time>2021-08-02T04:41:25.000Z</Time>
            <Position>
              <LatitudeDegrees>-15.34979294054210186004638671875</LatitudeDegrees>
              <LongitudeDegrees>37.086430303752422332763671875</LongitudeDegrees>
            </Position>
            <AltitudeMeters>1248.800048828125</AltitudeMeters>
            <DistanceMeters>NAN</DistanceMeters>
          </Trackpoint>
          <Trackpoint>
            <Time>2021-08-02T04:41:28.000Z</Time>
            <Position>
              <LatitudeDegrees>-15.34977567382156848907470703125</LatitudeDegrees>
              <LongitudeDegrees>37.08647497929632663726806640625</LongitudeDegrees>
            </Position>
            <AltitudeMeters>1248.4000244140625</AltitudeMeters>
            <DistanceMeters>NAN</DistanceMeters>
          </Trackpoint>
          <Trackpoint>
            <Time>2021-08-02T04:41:30.000Z</Time>
            <Position>
              <LatitudeDegrees>-15.349769890308380126953125</LatitudeDegrees>
              <LongitudeDegrees>37.08649677224457263946533203125</LongitudeDegrees>
            </Position>
            <AltitudeMeters>1248</AltitudeMeters>
            <DistanceMeters>NAN</DistanceMeters>
          </Trackpoint>
          <Trackpoint>
            <Time>2021-08-02T04:41:34.000Z</Time>
            <Position>
              <LatitudeDegrees>-15.3497703932225704193115234375</LatitudeDegrees>
              <LongitudeDegrees>37.08651856519281864166259765625</LongitudeDegrees>
            </Position>
            <AltitudeMeters>1247</AltitudeMeters>
            <DistanceMeters>NAN</DistanceMeters>
          </Trackpoint>
          <Trackpoint>
            <Time>2021-08-02T04:41:35.000Z</Time>
            <Position>
              <LatitudeDegrees>-15.3497631847858428955078125</LatitudeDegrees>
              <LongitudeDegrees>37.08652384579181671142578125</LongitudeDegrees>
            </Position>
            <AltitudeMeters>1246.800048828125</AltitudeMeters>
            <DistanceMeters>NAN</DistanceMeters>
          </Trackpoint>
          <Trackpoint>
            <Time>2021-08-02T04:41:36.000Z</Time>
            <Position>
              <LatitudeDegrees>-15.34975304268300533294677734375</LatitudeDegrees>
              <LongitudeDegrees>37.0865240134298801422119140625</LongitudeDegrees>
            </Position>
            <AltitudeMeters>1246.5999755859375</AltitudeMeters>
            <DistanceMeters>NAN</DistanceMeters>
          </Trackpoint>
          <Trackpoint>
            <Time>2021-08-02T04:41:40.000Z</Time>
            <Position>
              <LatitudeDegrees>-15.3497093729674816131591796875</LatitudeDegrees>
              <LongitudeDegrees>37.08651839755475521087646484375</LongitudeDegrees>
            </Position>
            <AltitudeMeters>1245.800048828125</AltitudeMeters>
            <DistanceMeters>NAN</DistanceMeters>
          </Trackpoint>
          <Trackpoint>
            <Time>2021-08-02T04:41:48.000Z</Time>
            <Position>
              <LatitudeDegrees>-15.3496396355330944061279296875</LatitudeDegrees>
              <LongitudeDegrees>37.0864851213991641998291015625</LongitudeDegrees>
            </Position>
            <AltitudeMeters>1246</AltitudeMeters>
            <DistanceMeters>NAN</DistanceMeters>
          </Trackpoint>
          <Trackpoint>
            <Time>2021-08-02T04:41:59.000Z</Time>
            <Position>
              <LatitudeDegrees>-15.34952907823026180267333984375</LatitudeDegrees>
              <LongitudeDegrees>37.0864519290626049041748046875</LongitudeDegrees>
            </Position>
            <AltitudeMeters>1246.5999755859375</AltitudeMeters>
            <DistanceMeters>NAN</DistanceMeters>
          </Trackpoint>
          <Trackpoint>
            <Time>2021-08-02T04:42:06.000Z</Time>
            <Position>
              <LatitudeDegrees>-15.3494414873421192169189453125</LatitudeDegrees>
              <LongitudeDegrees>37.08642250858247280120849609375</LongitudeDegrees>
            </Position>
            <AltitudeMeters>1246.5999755859375</AltitudeMeters>
            <DistanceMeters>NAN</DistanceMeters>
          </Trackpoint>
          <Trackpoint>
            <Time>2021-08-02T04:42:10.000Z</Time>
            <Position>
              <LatitudeDegrees>-15.34939949400722980499267578125</LatitudeDegrees>
              <LongitudeDegrees>37.086412198841571807861328125</LongitudeDegrees>
            </Position>
            <AltitudeMeters>1246.5999755859375</AltitudeMeters>
            <DistanceMeters>NAN</DistanceMeters>
          </Trackpoint>
          <Trackpoint>
            <Time>2021-08-02T04:42:22.000Z</Time>
            <Position>
              <LatitudeDegrees>-15.3492899425327777862548828125</LatitudeDegrees>
              <LongitudeDegrees>37.086365260183811187744140625</LongitudeDegrees>
            </Position>
            <AltitudeMeters>1245.800048828125</AltitudeMeters>
            <DistanceMeters>NAN</DistanceMeters>
          </Trackpoint>
          <Trackpoint>
            <Time>2021-08-02T04:42:24.000Z</Time>
            <Position>
              <LatitudeDegrees>-15.34926622174680233001708984375</LatitudeDegrees>
              <LongitudeDegrees>37.08634891547262668609619140625</LongitudeDegrees>
            </Position>
            <AltitudeMeters>1245.5999755859375</AltitudeMeters>
            <DistanceMeters>NAN</DistanceMeters>
          </Trackpoint>
          <Trackpoint>
            <Time>2021-08-02T04:42:29.000Z</Time>
            <Position>
              <LatitudeDegrees>-15.34923386760056018829345703125</LatitudeDegrees>
              <LongitudeDegrees>37.0863322354853153228759765625</LongitudeDegrees>
            </Position>
            <AltitudeMeters>1244.4000244140625</AltitudeMeters>
            <DistanceMeters>NAN</DistanceMeters>
          </Trackpoint>
          <Trackpoint>
            <Time>2021-08-02T04:42:31.000Z</Time>
            <Position>
              <LatitudeDegrees>-15.34922540187835693359375</LatitudeDegrees>
              <LongitudeDegrees>37.0863255299627780914306640625</LongitudeDegrees>
            </Position>
            <AltitudeMeters>1244.4000244140625</AltitudeMeters>
            <DistanceMeters>NAN</DistanceMeters>
          </Trackpoint>
          <Trackpoint>
            <Time>2021-08-02T04:42:32.000Z</Time>
            <Position>
              <LatitudeDegrees>-15.3492202050983905792236328125</LatitudeDegrees>
              <LongitudeDegrees>37.08631639368832111358642578125</LongitudeDegrees>
            </Position>
            <AltitudeMeters>1244.4000244140625</AltitudeMeters>
            <DistanceMeters>NAN</DistanceMeters>
          </Trackpoint>
          <Trackpoint>
            <Time>2021-08-02T04:42:37.000Z</Time>
            <Position>
              <LatitudeDegrees>-15.34917921759188175201416015625</LatitudeDegrees>
              <LongitudeDegrees>37.08626325242221355438232421875</LongitudeDegrees>
            </Position>
            <AltitudeMeters>1243.5999755859375</AltitudeMeters>
            <DistanceMeters>NAN</DistanceMeters>
          </Trackpoint>
          <Trackpoint>
            <Time>2021-08-02T04:42:38.000Z</Time>
            <Position>
              <LatitudeDegrees>-15.349172092974185943603515625</LatitudeDegrees>
              <LongitudeDegrees>37.08625889383256435394287109375</LongitudeDegrees>
            </Position>
            <AltitudeMeters>1243.4000244140625</AltitudeMeters>
            <DistanceMeters>NAN</DistanceMeters>
          </Trackpoint>
          <Trackpoint>
            <Time>2021-08-02T04:42:42.000Z</Time>
            <Position>
              <LatitudeDegrees>-15.34914116375148296356201171875</LatitudeDegrees>
              <LongitudeDegrees>37.0862239412963390350341796875</LongitudeDegrees>
            </Position>
            <AltitudeMeters>1242.4000244140625</AltitudeMeters>
            <DistanceMeters>NAN</DistanceMeters>
          </Trackpoint>
          <Trackpoint>
            <Time>2021-08-02T04:42:46.000Z</Time>
            <Position>
              <LatitudeDegrees>-15.34910713322460651397705078125</LatitudeDegrees>
              <LongitudeDegrees>37.086185552179813385009765625</LongitudeDegrees>
            </Position>
            <AltitudeMeters>1241.800048828125</AltitudeMeters>
            <DistanceMeters>NAN</DistanceMeters>
          </Trackpoint>
          <Trackpoint>
            <Time>2021-08-02T04:42:55.000Z</Time>
            <Position>
              <LatitudeDegrees>-15.3490049578249454498291015625</LatitudeDegrees>
              <LongitudeDegrees>37.086070887744426727294921875</LongitudeDegrees>
            </Position>
            <AltitudeMeters>1241.4000244140625</AltitudeMeters>
            <DistanceMeters>NAN</DistanceMeters>
          </Trackpoint>
          <Trackpoint>
            <Time>2021-08-02T04:42:56.000Z</Time>
            <Position>
              <LatitudeDegrees>-15.3490049578249454498291015625</LatitudeDegrees>
              <LongitudeDegrees>37.086070887744426727294921875</LongitudeDegrees>
            </Position>
            <AltitudeMeters>1241</AltitudeMeters>
            <DistanceMeters>NAN</DistanceMeters>
          </Trackpoint>
          <Trackpoint>
            <Time>2021-08-02T04:42:57.000Z</Time>
            <Position>
              <LatitudeDegrees>-15.348989032208919525146484375</LatitudeDegrees>
              <LongitudeDegrees>37.08606326021254062652587890625</LongitudeDegrees>
            </Position>
            <AltitudeMeters>1241</AltitudeMeters>
            <DistanceMeters>NAN</DistanceMeters>
          </Trackpoint>
          <Trackpoint>
            <Time>2021-08-02T04:43:05.000Z</Time>
            <Position>
              <LatitudeDegrees>-15.34887738525867462158203125</LatitudeDegrees>
              <LongitudeDegrees>37.08603174425661563873291015625</LongitudeDegrees>
            </Position>
            <AltitudeMeters>1241</AltitudeMeters>
            <DistanceMeters>NAN</DistanceMeters>
          </Trackpoint>
          <Trackpoint>
            <Time>2021-08-02T04:43:13.000Z</Time>
            <Position>
              <LatitudeDegrees>-15.34876875579357147216796875</LatitudeDegrees>
              <LongitudeDegrees>37.08605135791003704071044921875</LongitudeDegrees>
            </Position>
            <AltitudeMeters>1240.199951171875</AltitudeMeters>
            <DistanceMeters>NAN</DistanceMeters>
          </Trackpoint>
          <Trackpoint>
            <Time>2021-08-02T04:43:14.000Z</Time>
            <Position>
              <LatitudeDegrees>-15.3487546741962432861328125</LatitudeDegrees>
              <LongitudeDegrees>37.08605588413774967193603515625</LongitudeDegrees>
            </Position>
            <AltitudeMeters>1240</AltitudeMeters>
            <DistanceMeters>NAN</DistanceMeters>
          </Trackpoint>
          <Trackpoint>
            <Time>2021-08-02T04:43:21.000Z</Time>
            <Position>
              <LatitudeDegrees>-15.3486723639070987701416015625</LatitudeDegrees>
              <LongitudeDegrees>37.0860992185771465301513671875</LongitudeDegrees>
            </Position>
            <AltitudeMeters>1238.4000244140625</AltitudeMeters>
            <DistanceMeters>NAN</DistanceMeters>
          </Trackpoint>
          <Trackpoint>
            <Time>2021-08-02T04:43:23.000Z</Time>
            <Position>
              <LatitudeDegrees>-15.34866138361394405364990234375</LatitudeDegrees>
              <LongitudeDegrees>37.08611522801220417022705078125</LongitudeDegrees>
            </Position>
            <AltitudeMeters>1238.199951171875</AltitudeMeters>
            <DistanceMeters>NAN</DistanceMeters>
          </Trackpoint>
          <Trackpoint>
            <Time>2021-08-02T04:43:28.000Z</Time>
            <Position>
              <LatitudeDegrees>-15.34861662425100803375244140625</LatitudeDegrees>
              <LongitudeDegrees>37.08615328185260295867919921875</LongitudeDegrees>
            </Position>
            <AltitudeMeters>1237</AltitudeMeters>
            <DistanceMeters>NAN</DistanceMeters>
          </Trackpoint>
          <Trackpoint>
            <Time>2021-08-02T04:43:31.000Z</Time>
            <Position>
              <LatitudeDegrees>-15.34859432838857173919677734375</LatitudeDegrees>
              <LongitudeDegrees>37.08616334013640880584716796875</LongitudeDegrees>
            </Position>
            <AltitudeMeters>1236.199951171875</AltitudeMeters>
            <DistanceMeters>NAN</DistanceMeters>
          </Trackpoint>
          <Trackpoint>
            <Time>2021-08-02T04:43:32.000Z</Time>
            <Position>
              <LatitudeDegrees>-15.34857354126870632171630859375</LatitudeDegrees>
              <LongitudeDegrees>37.08616183139383792877197265625</LongitudeDegrees>
            </Position>
            <AltitudeMeters>1236</AltitudeMeters>
            <DistanceMeters>NAN</DistanceMeters>
          </Trackpoint>
          <Trackpoint>
            <Time>2021-08-02T04:43:41.000Z</Time>
            <Position>
              <LatitudeDegrees>-15.34847497008740901947021484375</LatitudeDegrees>
              <LongitudeDegrees>37.086232490837574005126953125</LongitudeDegrees>
            </Position>
            <AltitudeMeters>1234.800048828125</AltitudeMeters>
            <DistanceMeters>NAN</DistanceMeters>
          </Trackpoint>
          <Trackpoint>
            <Time>2021-08-02T04:43:43.000Z</Time>
            <Position>
              <LatitudeDegrees>-15.348454602062702178955078125</LatitudeDegrees>
              <LongitudeDegrees>37.08623760379850864410400390625</LongitudeDegrees>
            </Position>
            <AltitudeMeters>1234.199951171875</AltitudeMeters>
            <DistanceMeters>NAN</DistanceMeters>
          </Trackpoint>
          <Trackpoint>
            <Time>2021-08-02T04:43:55.000Z</Time>
            <Position>
              <LatitudeDegrees>-15.3483099304139614105224609375</LatitudeDegrees>
              <LongitudeDegrees>37.08628420718014240264892578125</LongitudeDegrees>
            </Position>
            <AltitudeMeters>1233.800048828125</AltitudeMeters>
            <DistanceMeters>NAN</DistanceMeters>
          </Trackpoint>
          <Trackpoint>
            <Time>2021-08-02T04:43:56.000Z</Time>
            <Position>
              <LatitudeDegrees>-15.34829895012080669403076171875</LatitudeDegrees>
              <LongitudeDegrees>37.08628437481820583343505859375</LongitudeDegrees>
            </Position>
            <AltitudeMeters>1233.5999755859375</AltitudeMeters>
            <DistanceMeters>NAN</DistanceMeters>
          </Trackpoint>
          <Trackpoint>
            <Time>2021-08-02T04:44:01.000Z</Time>
            <Position>
              <LatitudeDegrees>-15.348236672580242156982421875</LatitudeDegrees>
              <LongitudeDegrees>37.086281441152095794677734375</LongitudeDegrees>
            </Position>
            <AltitudeMeters>1232.4000244140625</AltitudeMeters>
            <DistanceMeters>NAN</DistanceMeters>
          </Trackpoint>
          <Trackpoint>
            <Time>2021-08-02T04:44:03.000Z</Time>
            <Position>
              <LatitudeDegrees>-15.348213203251361846923828125</LatitudeDegrees>
              <LongitudeDegrees>37.086285464465618133544921875</LongitudeDegrees>
            </Position>
            <AltitudeMeters>1231.800048828125</AltitudeMeters>
            <DistanceMeters>NAN</DistanceMeters>
          </Trackpoint>
          <Trackpoint>
            <Time>2021-08-02T04:44:06.000Z</Time>
            <Position>
              <LatitudeDegrees>-15.3481905721127986907958984375</LatitudeDegrees>
              <LongitudeDegrees>37.08628655411303043365478515625</LongitudeDegrees>
            </Position>
            <AltitudeMeters>1231.800048828125</AltitudeMeters>
            <DistanceMeters>NAN</DistanceMeters>
          </Trackpoint>
          <Trackpoint>
            <Time>2021-08-02T04:44:12.000Z</Time>
            <Position>
              <LatitudeDegrees>-15.34811639226973056793212890625</LatitudeDegrees>
              <LongitudeDegrees>37.0862769149243831634521484375</LongitudeDegrees>
            </Position>
            <AltitudeMeters>1231.4000244140625</AltitudeMeters>
            <DistanceMeters>NAN</DistanceMeters>
          </Trackpoint>
          <Trackpoint>
            <Time>2021-08-02T04:44:15.000Z</Time>
            <Position>
              <LatitudeDegrees>-15.348074734210968017578125</LatitudeDegrees>
              <LongitudeDegrees>37.08628705702722072601318359375</LongitudeDegrees>
            </Position>
            <AltitudeMeters>1231.199951171875</AltitudeMeters>
            <DistanceMeters>NAN</DistanceMeters>
          </Trackpoint>
          <Trackpoint>
            <Time>2021-08-02T04:44:20.000Z</Time>
            <Position>
              <LatitudeDegrees>-15.3480088524520397186279296875</LatitudeDegrees>
              <LongitudeDegrees>37.0862826146185398101806640625</LongitudeDegrees>
            </Position>
            <AltitudeMeters>1230.5999755859375</AltitudeMeters>
            <DistanceMeters>NAN</DistanceMeters>
          </Trackpoint>
          <Trackpoint>
            <Time>2021-08-02T04:44:24.000Z</Time>
            <Position>
              <LatitudeDegrees>-15.3479501791298389434814453125</LatitudeDegrees>
              <LongitudeDegrees>37.08630750887095928192138671875</LongitudeDegrees>
            </Position>
            <AltitudeMeters>1230.4000244140625</AltitudeMeters>
            <DistanceMeters>NAN</DistanceMeters>
          </Trackpoint>
          <Trackpoint>
            <Time>2021-08-02T04:44:26.000Z</Time>
            <Position>
              <LatitudeDegrees>-15.347919501364231109619140625</LatitudeDegrees>
              <LongitudeDegrees>37.086315639317035675048828125</LongitudeDegrees>
            </Position>
            <AltitudeMeters>1229.5999755859375</AltitudeMeters>
            <DistanceMeters>NAN</DistanceMeters>
          </Trackpoint>
          <Trackpoint>
            <Time>2021-08-02T04:44:27.000Z</Time>
            <Position>
              <LatitudeDegrees>-15.34790617413818836212158203125</LatitudeDegrees>
              <LongitudeDegrees>37.08631874062120914459228515625</LongitudeDegrees>
            </Position>
            <AltitudeMeters>1229.5999755859375</AltitudeMeters>
            <DistanceMeters>NAN</DistanceMeters>
          </Trackpoint>
          <Trackpoint>
            <Time>2021-08-02T04:44:35.000Z</Time>
            <Position>
              <LatitudeDegrees>-15.34780777059495449066162109375</LatitudeDegrees>
              <LongitudeDegrees>37.0863345824182033538818359375</LongitudeDegrees>
            </Position>
            <AltitudeMeters>1229.4000244140625</AltitudeMeters>
            <DistanceMeters>NAN</DistanceMeters>
          </Trackpoint>
          <Trackpoint>
            <Time>2021-08-02T04:44:36.000Z</Time>
            <Position>
              <LatitudeDegrees>-15.34778840839862823486328125</LatitudeDegrees>
              <LongitudeDegrees>37.08633533678948879241943359375</LongitudeDegrees>
            </Position>
            <AltitudeMeters>1229.4000244140625</AltitudeMeters>
            <DistanceMeters>NAN</DistanceMeters>
          </Trackpoint>
          <Trackpoint>
            <Time>2021-08-02T04:44:39.000Z</Time>
            <Position>
              <LatitudeDegrees>-15.3477449901401996612548828125</LatitudeDegrees>
              <LongitudeDegrees>37.0863352529704570770263671875</LongitudeDegrees>
            </Position>
            <AltitudeMeters>1228.800048828125</AltitudeMeters>
            <DistanceMeters>NAN</DistanceMeters>
          </Trackpoint>
          <Trackpoint>
            <Time>2021-08-02T04:44:40.000Z</Time>
            <Position>
              <LatitudeDegrees>-15.34773484803736209869384765625</LatitudeDegrees>
              <LongitudeDegrees>37.0863362587988376617431640625</LongitudeDegrees>
            </Position>
            <AltitudeMeters>1228.5999755859375</AltitudeMeters>
            <DistanceMeters>NAN</DistanceMeters>
          </Trackpoint>
          <Trackpoint>
            <Time>2021-08-02T04:44:44.000Z</Time>
            <Position>
              <LatitudeDegrees>-15.3476769290864467620849609375</LatitudeDegrees>
              <LongitudeDegrees>37.08635310642421245574951171875</LongitudeDegrees>
            </Position>
            <AltitudeMeters>1228.4000244140625</AltitudeMeters>
            <DistanceMeters>NAN</DistanceMeters>
          </Trackpoint>
          <Trackpoint>
            <Time>2021-08-02T04:44:49.000Z</Time>
            <Position>
              <LatitudeDegrees>-15.3476125560700893402099609375</LatitudeDegrees>
              <LongitudeDegrees>37.08636282943189144134521484375</LongitudeDegrees>
            </Position>
            <AltitudeMeters>1228</AltitudeMeters>
            <DistanceMeters>NAN</DistanceMeters>
          </Trackpoint>
          <Trackpoint>
            <Time>2021-08-02T04:44:56.000Z</Time>
            <Position>
              <LatitudeDegrees>-15.347534604370594024658203125</LatitudeDegrees>
              <LongitudeDegrees>37.08636836148798465728759765625</LongitudeDegrees>
            </Position>
            <AltitudeMeters>1227.5999755859375</AltitudeMeters>
            <DistanceMeters>NAN</DistanceMeters>
          </Trackpoint>
          <Trackpoint>
            <Time>2021-08-02T04:44:58.000Z</Time>
            <Position>
              <LatitudeDegrees>-15.34750132821500301361083984375</LatitudeDegrees>
              <LongitudeDegrees>37.086375318467617034912109375</LongitudeDegrees>
            </Position>
            <AltitudeMeters>1227.5999755859375</AltitudeMeters>
            <DistanceMeters>NAN</DistanceMeters>
          </Trackpoint>
          <Trackpoint>
            <Time>2021-08-02T04:45:09.000Z</Time>
            <Position>
              <LatitudeDegrees>-15.3473825566470623016357421875</LatitudeDegrees>
              <LongitudeDegrees>37.08639501594007015228271484375</LongitudeDegrees>
            </Position>
            <AltitudeMeters>1227.4000244140625</AltitudeMeters>
            <DistanceMeters>NAN</DistanceMeters>
          </Trackpoint>
          <Trackpoint>
            <Time>2021-08-02T04:45:18.000Z</Time>
            <Position>
              <LatitudeDegrees>-15.34727334044873714447021484375</LatitudeDegrees>
              <LongitudeDegrees>37.086408846080303192138671875</LongitudeDegrees>
            </Position>
            <AltitudeMeters>1227.4000244140625</AltitudeMeters>
            <DistanceMeters>NAN</DistanceMeters>
          </Trackpoint>
          <Trackpoint>
            <Time>2021-08-02T04:45:21.000Z</Time>
            <Position>
              <LatitudeDegrees>-15.34721332602202892303466796875</LatitudeDegrees>
              <LongitudeDegrees>37.0864212512969970703125</LongitudeDegrees>
            </Position>
            <AltitudeMeters>1227.4000244140625</AltitudeMeters>
            <DistanceMeters>NAN</DistanceMeters>
          </Trackpoint>
          <Trackpoint>
            <Time>2021-08-02T04:45:22.000Z</Time>
            <Position>
              <LatitudeDegrees>-15.3471981547772884368896484375</LatitudeDegrees>
              <LongitudeDegrees>37.08642167039215564727783203125</LongitudeDegrees>
            </Position>
            <AltitudeMeters>1227.4000244140625</AltitudeMeters>
            <DistanceMeters>NAN</DistanceMeters>
          </Trackpoint>
          <Trackpoint>
            <Time>2021-08-02T04:45:33.000Z</Time>
            <Position>
              <LatitudeDegrees>-15.3470821492373943328857421875</LatitudeDegrees>
              <LongitudeDegrees>37.08646073006093502044677734375</LongitudeDegrees>
            </Position>
            <AltitudeMeters>1227.199951171875</AltitudeMeters>
            <DistanceMeters>NAN</DistanceMeters>
          </Trackpoint>
          <Trackpoint>
            <Time>2021-08-02T04:45:46.000Z</Time>
            <Position>
              <LatitudeDegrees>-15.34690101630985736846923828125</LatitudeDegrees>
              <LongitudeDegrees>37.08646391518414020538330078125</LongitudeDegrees>
            </Position>
            <AltitudeMeters>1227.4000244140625</AltitudeMeters>
            <DistanceMeters>NAN</DistanceMeters>
          </Trackpoint>
          <Trackpoint>
            <Time>2021-08-02T04:45:51.000Z</Time>
            <Position>
              <LatitudeDegrees>-15.34685055725276470184326171875</LatitudeDegrees>
              <LongitudeDegrees>37.08646458573639392852783203125</LongitudeDegrees>
            </Position>
            <AltitudeMeters>1227.199951171875</AltitudeMeters>
            <DistanceMeters>NAN</DistanceMeters>
          </Trackpoint>
          <Trackpoint>
            <Time>2021-08-02T04:45:58.000Z</Time>
            <Position>
              <LatitudeDegrees>-15.34675383009016513824462890625</LatitudeDegrees>
              <LongitudeDegrees>37.086474560201168060302734375</LongitudeDegrees>
            </Position>
            <AltitudeMeters>1227.199951171875</AltitudeMeters>
            <DistanceMeters>NAN</DistanceMeters>
          </Trackpoint>
          <Trackpoint>
            <Time>2021-08-02T04:46:04.000Z</Time>
            <Position>
              <LatitudeDegrees>-15.3466757945716381072998046875</LatitudeDegrees>
              <LongitudeDegrees>37.0864827744662761688232421875</LongitudeDegrees>
            </Position>
            <AltitudeMeters>1227.199951171875</AltitudeMeters>
            <DistanceMeters>NAN</DistanceMeters>
          </Trackpoint>
          <Trackpoint>
            <Time>2021-08-02T04:46:11.000Z</Time>
            <Position>
              <LatitudeDegrees>-15.34660178236663341522216796875</LatitudeDegrees>
              <LongitudeDegrees>37.08649878390133380889892578125</LongitudeDegrees>
            </Position>
            <AltitudeMeters>1227</AltitudeMeters>
            <DistanceMeters>NAN</DistanceMeters>
          </Trackpoint>
          <Trackpoint>
            <Time>2021-08-02T04:46:16.000Z</Time>
            <Position>
              <LatitudeDegrees>-15.3465393371880054473876953125</LatitudeDegrees>
              <LongitudeDegrees>37.0865126140415668487548828125</LongitudeDegrees>
            </Position>
            <AltitudeMeters>1227.199951171875</AltitudeMeters>
            <DistanceMeters>NAN</DistanceMeters>
          </Trackpoint>
          <Trackpoint>
            <Time>2021-08-02T04:46:24.000Z</Time>
            <Position>
              <LatitudeDegrees>-15.3464354015886783599853515625</LatitudeDegrees>
              <LongitudeDegrees>37.0865367539227008819580078125</LongitudeDegrees>
            </Position>
            <AltitudeMeters>1228</AltitudeMeters>
            <DistanceMeters>NAN</DistanceMeters>
          </Trackpoint>
          <Trackpoint>
            <Time>2021-08-02T04:46:32.000Z</Time>
            <Position>
              <LatitudeDegrees>-15.34635183401405811309814453125</LatitudeDegrees>
              <LongitudeDegrees>37.0865521766245365142822265625</LongitudeDegrees>
            </Position>
            <AltitudeMeters>1228.5999755859375</AltitudeMeters>
            <DistanceMeters>NAN</DistanceMeters>
          </Trackpoint>
          <Trackpoint>
            <Time>2021-08-02T04:46:37.000Z</Time>
            <Position>
              <LatitudeDegrees>-15.346278659999370574951171875</LatitudeDegrees>
              <LongitudeDegrees>37.08657086826860904693603515625</LongitudeDegrees>
            </Position>
            <AltitudeMeters>1228.800048828125</AltitudeMeters>
            <DistanceMeters>NAN</DistanceMeters>
          </Trackpoint>
          <Trackpoint>
            <Time>2021-08-02T04:46:46.000Z</Time>
            <Position>
              <LatitudeDegrees>-15.34617329947650432586669921875</LatitudeDegrees>
              <LongitudeDegrees>37.086588554084300994873046875</LongitudeDegrees>
            </Position>
            <AltitudeMeters>1229.800048828125</AltitudeMeters>
            <DistanceMeters>NAN</DistanceMeters>
          </Trackpoint>
          <Trackpoint>
            <Time>2021-08-02T04:46:47.000Z</Time>
            <Position>
              <LatitudeDegrees>-15.346160642802715301513671875</LatitudeDegrees>
              <LongitudeDegrees>37.08658880554139614105224609375</LongitudeDegrees>
            </Position>
            <AltitudeMeters>1229.800048828125</AltitudeMeters>
            <DistanceMeters>NAN</DistanceMeters>
          </Trackpoint>
          <Trackpoint>
            <Time>2021-08-02T04:46:52.000Z</Time>
            <Position>
              <LatitudeDegrees>-15.34609199501574039459228515625</LatitudeDegrees>
              <LongitudeDegrees>37.08659819327294826507568359375</LongitudeDegrees>
            </Position>
            <AltitudeMeters>1230.800048828125</AltitudeMeters>
            <DistanceMeters>NAN</DistanceMeters>
          </Trackpoint>
          <Trackpoint>
            <Time>2021-08-02T04:46:57.000Z</Time>
            <Position>
              <LatitudeDegrees>-15.34604094922542572021484375</LatitudeDegrees>
              <LongitudeDegrees>37.08661059848964214324951171875</LongitudeDegrees>
            </Position>
            <AltitudeMeters>1230.800048828125</AltitudeMeters>
            <DistanceMeters>NAN</DistanceMeters>
          </Trackpoint>
          <Trackpoint>
            <Time>2021-08-02T04:46:59.000Z</Time>
            <Position>
              <LatitudeDegrees>-15.3460240177810192108154296875</LatitudeDegrees>
              <LongitudeDegrees>37.08661680109798908233642578125</LongitudeDegrees>
            </Position>
            <AltitudeMeters>1230.800048828125</AltitudeMeters>
            <DistanceMeters>NAN</DistanceMeters>
          </Trackpoint>
          <Trackpoint>
            <Time>2021-08-02T04:47:03.000Z</Time>
            <Position>
              <LatitudeDegrees>-15.3459616564214229583740234375</LatitudeDegrees>
              <LongitudeDegrees>37.08664546720683574676513671875</LongitudeDegrees>
            </Position>
            <AltitudeMeters>1231</AltitudeMeters>
            <DistanceMeters>NAN</DistanceMeters>
          </Trackpoint>
          <Trackpoint>
            <Time>2021-08-02T04:47:06.000Z</Time>
            <Position>
              <LatitudeDegrees>-15.34593525342643260955810546875</LatitudeDegrees>
              <LongitudeDegrees>37.0866551063954830169677734375</LongitudeDegrees>
            </Position>
            <AltitudeMeters>1231</AltitudeMeters>
            <DistanceMeters>NAN</DistanceMeters>
          </Trackpoint>
          <Trackpoint>
            <Time>2021-08-02T04:47:11.000Z</Time>
            <Position>
              <LatitudeDegrees>-15.3458791784942150115966796875</LatitudeDegrees>
              <LongitudeDegrees>37.08665669895708560943603515625</LongitudeDegrees>
            </Position>
            <AltitudeMeters>1231.4000244140625</AltitudeMeters>
            <DistanceMeters>NAN</DistanceMeters>
          </Trackpoint>
          <Trackpoint>
            <Time>2021-08-02T04:47:14.000Z</Time>
            <Position>
              <LatitudeDegrees>-15.3458466567099094390869140625</LatitudeDegrees>
              <LongitudeDegrees>37.08664714358747005462646484375</LongitudeDegrees>
            </Position>
            <AltitudeMeters>1231.4000244140625</AltitudeMeters>
            <DistanceMeters>NAN</DistanceMeters>
          </Trackpoint>
          <Trackpoint>
            <Time>2021-08-02T04:47:16.000Z</Time>
            <Position>
              <LatitudeDegrees>-15.34582746215164661407470703125</LatitudeDegrees>
              <LongitudeDegrees>37.0866480655968189239501953125</LongitudeDegrees>
            </Position>
            <AltitudeMeters>1231.4000244140625</AltitudeMeters>
            <DistanceMeters>NAN</DistanceMeters>
          </Trackpoint>
          <Trackpoint>
            <Time>2021-08-02T04:47:19.000Z</Time>
            <Position>
              <LatitudeDegrees>-15.3457846306264400482177734375</LatitudeDegrees>
              <LongitudeDegrees>37.08664714358747005462646484375</LongitudeDegrees>
            </Position>
            <AltitudeMeters>1231</AltitudeMeters>
            <DistanceMeters>NAN</DistanceMeters>
          </Trackpoint>
          <Trackpoint>
            <Time>2021-08-02T04:47:24.000Z</Time>
            <Position>
              <LatitudeDegrees>-15.34570835530757904052734375</LatitudeDegrees>
              <LongitudeDegrees>37.0866142027080059051513671875</LongitudeDegrees>
            </Position>
            <AltitudeMeters>1229.800048828125</AltitudeMeters>
            <DistanceMeters>NAN</DistanceMeters>
          </Trackpoint>
          <Trackpoint>
            <Time>2021-08-02T04:47:26.000Z</Time>
            <Position>
              <LatitudeDegrees>-15.34569066949188709259033203125</LatitudeDegrees>
              <LongitudeDegrees>37.0866041444242000579833984375</LongitudeDegrees>
            </Position>
            <AltitudeMeters>1229.199951171875</AltitudeMeters>
            <DistanceMeters>NAN</DistanceMeters>
          </Trackpoint>
          <Trackpoint>
            <Time>2021-08-02T04:47:32.000Z</Time>
            <Position>
              <LatitudeDegrees>-15.34561925567686557769775390625</LatitudeDegrees>
              <LongitudeDegrees>37.086569778621196746826171875</LongitudeDegrees>
            </Position>
            <AltitudeMeters>1228.5999755859375</AltitudeMeters>
            <DistanceMeters>NAN</DistanceMeters>
          </Trackpoint>
          <Trackpoint>
            <Time>2021-08-02T04:47:36.000Z</Time>
            <Position>
              <LatitudeDegrees>-15.3455546312034130096435546875</LatitudeDegrees>
              <LongitudeDegrees>37.0865515060722827911376953125</LongitudeDegrees>
            </Position>
            <AltitudeMeters>1228.4000244140625</AltitudeMeters>
            <DistanceMeters>NAN</DistanceMeters>
          </Trackpoint>
          <Trackpoint>
            <Time>2021-08-02T04:47:43.000Z</Time>
            <Position>
              <LatitudeDegrees>-15.345469303429126739501953125</LatitudeDegrees>
              <LongitudeDegrees>37.0865515060722827911376953125</LongitudeDegrees>
            </Position>
            <AltitudeMeters>1228.4000244140625</AltitudeMeters>
            <DistanceMeters>NAN</DistanceMeters>
          </Trackpoint>
          <Trackpoint>
            <Time>2021-08-02T04:47:44.000Z</Time>
            <Position>
              <LatitudeDegrees>-15.34545681439340114593505859375</LatitudeDegrees>
              <LongitudeDegrees>37.08655737340450286865234375</LongitudeDegrees>
            </Position>
            <AltitudeMeters>1228.4000244140625</AltitudeMeters>
            <DistanceMeters>NAN</DistanceMeters>
          </Trackpoint>
          <Trackpoint>
            <Time>2021-08-02T04:47:45.000Z</Time>
            <Position>
              <LatitudeDegrees>-15.34544407390058040618896484375</LatitudeDegrees>
              <LongitudeDegrees>37.086564414203166961669921875</LongitudeDegrees>
            </Position>
            <AltitudeMeters>1228.4000244140625</AltitudeMeters>
            <DistanceMeters>NAN</DistanceMeters>
          </Trackpoint>
          <Trackpoint>
            <Time>2021-08-02T04:47:55.000Z</Time>
            <Position>
              <LatitudeDegrees>-15.34532253630459308624267578125</LatitudeDegrees>
              <LongitudeDegrees>37.08663121797144412994384765625</LongitudeDegrees>
            </Position>
            <AltitudeMeters>1229.4000244140625</AltitudeMeters>
            <DistanceMeters>NAN</DistanceMeters>
          </Trackpoint>
          <Trackpoint>
            <Time>2021-08-02T04:47:58.000Z</Time>
            <Position>
              <LatitudeDegrees>-15.3453035093843936920166015625</LatitudeDegrees>
              <LongitudeDegrees>37.08664814941585063934326171875</LongitudeDegrees>
            </Position>
            <AltitudeMeters>1229.800048828125</AltitudeMeters>
            <DistanceMeters>NAN</DistanceMeters>
          </Trackpoint>
          <Trackpoint>
            <Time>2021-08-02T04:48:04.000Z</Time>
            <Position>
              <LatitudeDegrees>-15.3452341072261333465576171875</LatitudeDegrees>
              <LongitudeDegrees>37.0866986922919750213623046875</LongitudeDegrees>
            </Position>
            <AltitudeMeters>1230.4000244140625</AltitudeMeters>
            <DistanceMeters>NAN</DistanceMeters>
          </Trackpoint>
          <Trackpoint>
            <Time>2021-08-02T04:48:07.000Z</Time>
            <Position>
              <LatitudeDegrees>-15.34520133398473262786865234375</LatitudeDegrees>
              <LongitudeDegrees>37.086715959012508392333984375</LongitudeDegrees>
            </Position>
            <AltitudeMeters>1230.800048828125</AltitudeMeters>
            <DistanceMeters>NAN</DistanceMeters>
          </Trackpoint>
          <Trackpoint>
            <Time>2021-08-02T04:48:08.000Z</Time>
            <Position>
              <LatitudeDegrees>-15.34520133398473262786865234375</LatitudeDegrees>
              <LongitudeDegrees>37.086715959012508392333984375</LongitudeDegrees>
            </Position>
            <AltitudeMeters>1230.800048828125</AltitudeMeters>
            <DistanceMeters>NAN</DistanceMeters>
          </Trackpoint>
          <Trackpoint>
            <Time>2021-08-02T04:48:16.000Z</Time>
            <Position>
              <LatitudeDegrees>-15.34510812722146511077880859375</LatitudeDegrees>
              <LongitudeDegrees>37.08673917688429355621337890625</LongitudeDegrees>
            </Position>
            <AltitudeMeters>1230.800048828125</AltitudeMeters>
            <DistanceMeters>NAN</DistanceMeters>
          </Trackpoint>
          <Trackpoint>
            <Time>2021-08-02T04:48:20.000Z</Time>
            <Position>
              <LatitudeDegrees>-15.34505263902246952056884765625</LatitudeDegrees>
              <LongitudeDegrees>37.08674420602619647979736328125</LongitudeDegrees>
            </Position>
            <AltitudeMeters>1230.800048828125</AltitudeMeters>
            <DistanceMeters>NAN</DistanceMeters>
          </Trackpoint>
          <Trackpoint>
            <Time>2021-08-02T04:48:22.000Z</Time>
            <Position>
              <LatitudeDegrees>-15.345028750598430633544921875</LatitudeDegrees>
              <LongitudeDegrees>37.08674915134906768798828125</LongitudeDegrees>
            </Position>
            <AltitudeMeters>1230.5999755859375</AltitudeMeters>
            <DistanceMeters>NAN</DistanceMeters>
          </Trackpoint>
          <Trackpoint>
            <Time>2021-08-02T04:48:25.000Z</Time>
            <Position>
              <LatitudeDegrees>-15.3449860028922557830810546875</LatitudeDegrees>
              <LongitudeDegrees>37.0867551863193511962890625</LongitudeDegrees>
            </Position>
            <AltitudeMeters>1230.5999755859375</AltitudeMeters>
            <DistanceMeters>NAN</DistanceMeters>
          </Trackpoint>
          <Trackpoint>
            <Time>2021-08-02T04:48:27.000Z</Time>
            <Position>
              <LatitudeDegrees>-15.3449719212949275970458984375</LatitudeDegrees>
              <LongitudeDegrees>37.086757533252239227294921875</LongitudeDegrees>
            </Position>
            <AltitudeMeters>1230.800048828125</AltitudeMeters>
            <DistanceMeters>NAN</DistanceMeters>
          </Trackpoint>
          <Trackpoint>
            <Time>2021-08-02T04:48:29.000Z</Time>
            <Position>
              <LatitudeDegrees>-15.34493629820644855499267578125</LatitudeDegrees>
              <LongitudeDegrees>37.08676465786993503570556640625</LongitudeDegrees>
            </Position>
            <AltitudeMeters>1230.800048828125</AltitudeMeters>
            <DistanceMeters>NAN</DistanceMeters>
          </Trackpoint>
          <Trackpoint>
            <Time>2021-08-02T04:48:31.000Z</Time>
            <Position>
              <LatitudeDegrees>-15.3449129126965999603271484375</LatitudeDegrees>
              <LongitudeDegrees>37.08676834590733051300048828125</LongitudeDegrees>
            </Position>
            <AltitudeMeters>1230.5999755859375</AltitudeMeters>
            <DistanceMeters>NAN</DistanceMeters>
          </Trackpoint>
          <Trackpoint>
            <Time>2021-08-02T04:48:39.000Z</Time>
            <Position>
              <LatitudeDegrees>-15.34481777809560298919677734375</LatitudeDegrees>
              <LongitudeDegrees>37.08679600618779659271240234375</LongitudeDegrees>
            </Position>
            <AltitudeMeters>1231</AltitudeMeters>
            <DistanceMeters>NAN</DistanceMeters>
          </Trackpoint>
          <Trackpoint>
            <Time>2021-08-02T04:48:41.000Z</Time>
            <Position>
              <LatitudeDegrees>-15.34480839036405086517333984375</LatitudeDegrees>
              <LongitudeDegrees>37.0867972634732723236083984375</LongitudeDegrees>
            </Position>
            <AltitudeMeters>1231</AltitudeMeters>
            <DistanceMeters>NAN</DistanceMeters>
          </Trackpoint>
          <Trackpoint>
            <Time>2021-08-02T04:48:46.000Z</Time>
            <Position>
              <LatitudeDegrees>-15.34473764710128307342529296875</LatitudeDegrees>
              <LongitudeDegrees>37.08681763149797916412353515625</LongitudeDegrees>
            </Position>
            <AltitudeMeters>1231.199951171875</AltitudeMeters>
            <DistanceMeters>NAN</DistanceMeters>
          </Trackpoint>
          <Trackpoint>
            <Time>2021-08-02T04:48:51.000Z</Time>
            <Position>
              <LatitudeDegrees>-15.34468232654035091400146484375</LatitudeDegrees>
              <LongitudeDegrees>37.08683556877076625823974609375</LongitudeDegrees>
            </Position>
            <AltitudeMeters>1231.5999755859375</AltitudeMeters>
            <DistanceMeters>NAN</DistanceMeters>
          </Trackpoint>
          <Trackpoint>
            <Time>2021-08-02T04:48:55.000Z</Time>
            <Position>
              <LatitudeDegrees>-15.34464217722415924072265625</LatitudeDegrees>
              <LongitudeDegrees>37.08684663288295269012451171875</LongitudeDegrees>
            </Position>
            <AltitudeMeters>1232</AltitudeMeters>
            <DistanceMeters>NAN</DistanceMeters>
          </Trackpoint>
          <Trackpoint>
            <Time>2021-08-02T04:49:01.000Z</Time>
            <Position>
              <LatitudeDegrees>-15.3445826657116413116455078125</LatitudeDegrees>
              <LongitudeDegrees>37.08686448633670806884765625</LongitudeDegrees>
            </Position>
            <AltitudeMeters>1233.199951171875</AltitudeMeters>
            <DistanceMeters>NAN</DistanceMeters>
          </Trackpoint>
          <Trackpoint>
            <Time>2021-08-02T04:49:02.000Z</Time>
            <Position>
              <LatitudeDegrees>-15.34457369707524776458740234375</LatitudeDegrees>
              <LongitudeDegrees>37.0868666656315326690673828125</LongitudeDegrees>
            </Position>
            <AltitudeMeters>1233.199951171875</AltitudeMeters>
            <DistanceMeters>NAN</DistanceMeters>
          </Trackpoint>
          <Trackpoint>
            <Time>2021-08-02T04:49:07.000Z</Time>
            <Position>
              <LatitudeDegrees>-15.34454427659511566162109375</LatitudeDegrees>
              <LongitudeDegrees>37.086880914866924285888671875</LongitudeDegrees>
            </Position>
            <AltitudeMeters>1234.4000244140625</AltitudeMeters>
            <DistanceMeters>NAN</DistanceMeters>
          </Trackpoint>
          <Trackpoint>
            <Time>2021-08-02T04:49:15.000Z</Time>
            <Position>
              <LatitudeDegrees>-15.344468839466571807861328125</LatitudeDegrees>
              <LongitudeDegrees>37.0869095809757709503173828125</LongitudeDegrees>
            </Position>
            <AltitudeMeters>1235.5999755859375</AltitudeMeters>
            <DistanceMeters>NAN</DistanceMeters>
          </Trackpoint>
          <Trackpoint>
            <Time>2021-08-02T04:49:21.000Z</Time>
            <Position>
              <LatitudeDegrees>-15.34441410563886165618896484375</LatitudeDegrees>
              <LongitudeDegrees>37.0869307033717632293701171875</LongitudeDegrees>
            </Position>
            <AltitudeMeters>1236.800048828125</AltitudeMeters>
            <DistanceMeters>NAN</DistanceMeters>
          </Trackpoint>
          <Trackpoint>
            <Time>2021-08-02T04:49:28.000Z</Time>
            <Position>
              <LatitudeDegrees>-15.34435677342116832733154296875</LatitudeDegrees>
              <LongitudeDegrees>37.08695299923419952392578125</LongitudeDegrees>
            </Position>
            <AltitudeMeters>1237.800048828125</AltitudeMeters>
            <DistanceMeters>NAN</DistanceMeters>
          </Trackpoint>
          <Trackpoint>
            <Time>2021-08-02T04:49:30.000Z</Time>
            <Position>
              <LatitudeDegrees>-15.34432693384587764739990234375</LatitudeDegrees>
              <LongitudeDegrees>37.0869590342044830322265625</LongitudeDegrees>
            </Position>
            <AltitudeMeters>1238</AltitudeMeters>
            <DistanceMeters>NAN</DistanceMeters>
          </Trackpoint>
          <Trackpoint>
            <Time>2021-08-02T04:49:38.000Z</Time>
            <Position>
              <LatitudeDegrees>-15.344241522252559661865234375</LatitudeDegrees>
              <LongitudeDegrees>37.0869602076709270477294921875</LongitudeDegrees>
            </Position>
            <AltitudeMeters>1238.800048828125</AltitudeMeters>
            <DistanceMeters>NAN</DistanceMeters>
          </Trackpoint>
          <Trackpoint>
            <Time>2021-08-02T04:49:41.000Z</Time>
            <Position>
              <LatitudeDegrees>-15.34422199241816997528076171875</LatitudeDegrees>
              <LongitudeDegrees>37.08695308305323123931884765625</LongitudeDegrees>
            </Position>
            <AltitudeMeters>1239</AltitudeMeters>
            <DistanceMeters>NAN</DistanceMeters>
          </Trackpoint>
          <Trackpoint>
            <Time>2021-08-02T04:49:46.000Z</Time>
            <Position>
              <LatitudeDegrees>-15.34416751004755496978759765625</LatitudeDegrees>
              <LongitudeDegrees>37.0869243331253528594970703125</LongitudeDegrees>
            </Position>
            <AltitudeMeters>1240.199951171875</AltitudeMeters>
            <DistanceMeters>NAN</DistanceMeters>
          </Trackpoint>
          <Trackpoint>
            <Time>2021-08-02T04:49:50.000Z</Time>
            <Position>
              <LatitudeDegrees>-15.34413783811032772064208984375</LatitudeDegrees>
              <LongitudeDegrees>37.0868892967700958251953125</LongitudeDegrees>
            </Position>
            <AltitudeMeters>1240.5999755859375</AltitudeMeters>
            <DistanceMeters>NAN</DistanceMeters>
          </Trackpoint>
          <Trackpoint>
            <Time>2021-08-02T04:49:51.000Z</Time>
            <Position>
              <LatitudeDegrees>-15.34413783811032772064208984375</LatitudeDegrees>
              <LongitudeDegrees>37.0868892967700958251953125</LongitudeDegrees>
            </Position>
            <AltitudeMeters>1241</AltitudeMeters>
            <DistanceMeters>NAN</DistanceMeters>
          </Trackpoint>
          <Trackpoint>
            <Time>2021-08-02T04:49:52.000Z</Time>
            <Position>
              <LatitudeDegrees>-15.34412878565490245819091796875</LatitudeDegrees>
              <LongitudeDegrees>37.08687462843954563140869140625</LongitudeDegrees>
            </Position>
            <AltitudeMeters>1241.199951171875</AltitudeMeters>
            <DistanceMeters>NAN</DistanceMeters>
          </Trackpoint>
          <Trackpoint>
            <Time>2021-08-02T04:50:00.000Z</Time>
            <Position>
              <LatitudeDegrees>-15.3440837748348712921142578125</LatitudeDegrees>
              <LongitudeDegrees>37.08680405281484127044677734375</LongitudeDegrees>
            </Position>
            <AltitudeMeters>1242.5999755859375</AltitudeMeters>
            <DistanceMeters>NAN</DistanceMeters>
          </Trackpoint>
          <Trackpoint>
            <Time>2021-08-02T04:50:02.000Z</Time>
            <Position>
              <LatitudeDegrees>-15.3440804220736026763916015625</LatitudeDegrees>
              <LongitudeDegrees>37.08679399453103542327880859375</LongitudeDegrees>
            </Position>
            <AltitudeMeters>1243.199951171875</AltitudeMeters>
            <DistanceMeters>NAN</DistanceMeters>
          </Trackpoint>
          <Trackpoint>
            <Time>2021-08-02T04:50:05.000Z</Time>
            <Position>
              <LatitudeDegrees>-15.34405770711600780487060546875</LatitudeDegrees>
              <LongitudeDegrees>37.08675711415708065032958984375</LongitudeDegrees>
            </Position>
            <AltitudeMeters>1243.800048828125</AltitudeMeters>
            <DistanceMeters>NAN</DistanceMeters>
          </Trackpoint>
          <Trackpoint>
            <Time>2021-08-02T04:50:11.000Z</Time>
            <Position>
              <LatitudeDegrees>-15.3440365009009838104248046875</LatitudeDegrees>
              <LongitudeDegrees>37.08671269007027149200439453125</LongitudeDegrees>
            </Position>
            <AltitudeMeters>1244.800048828125</AltitudeMeters>
            <DistanceMeters>NAN</DistanceMeters>
          </Trackpoint>
          <Trackpoint>
            <Time>2021-08-02T04:50:13.000Z</Time>
            <Position>
              <LatitudeDegrees>-15.3440344892442226409912109375</LatitudeDegrees>
              <LongitudeDegrees>37.0867037214338779449462890625</LongitudeDegrees>
            </Position>
            <AltitudeMeters>1245</AltitudeMeters>
            <DistanceMeters>NAN</DistanceMeters>
          </Trackpoint>
          <Trackpoint>
            <Time>2021-08-02T04:50:14.000Z</Time>
            <Position>
              <LatitudeDegrees>-15.34402635879814624786376953125</LatitudeDegrees>
              <LongitudeDegrees>37.08668201230466365814208984375</LongitudeDegrees>
            </Position>
            <AltitudeMeters>1245.4000244140625</AltitudeMeters>
            <DistanceMeters>NAN</DistanceMeters>
          </Trackpoint>
          <Trackpoint>
            <Time>2021-08-02T04:50:16.000Z</Time>
            <Position>
              <LatitudeDegrees>-15.34402065910398960113525390625</LatitudeDegrees>
              <LongitudeDegrees>37.0866628177464008331298828125</LongitudeDegrees>
            </Position>
            <AltitudeMeters>1245.800048828125</AltitudeMeters>
            <DistanceMeters>NAN</DistanceMeters>
          </Trackpoint>
          <Trackpoint>
            <Time>2021-08-02T04:50:17.000Z</Time>
            <Position>
              <LatitudeDegrees>-15.344016887247562408447265625</LatitudeDegrees>
              <LongitudeDegrees>37.08665661513805389404296875</LongitudeDegrees>
            </Position>
            <AltitudeMeters>1246</AltitudeMeters>
            <DistanceMeters>NAN</DistanceMeters>
          </Trackpoint>
          <Trackpoint>
            <Time>2021-08-02T04:50:20.000Z</Time>
            <Position>
              <LatitudeDegrees>-15.344016551971435546875</LatitudeDegrees>
              <LongitudeDegrees>37.08664194680750370025634765625</LongitudeDegrees>
            </Position>
            <AltitudeMeters>1246.199951171875</AltitudeMeters>
            <DistanceMeters>NAN</DistanceMeters>
          </Trackpoint>
          <Trackpoint>
            <Time>2021-08-02T04:50:28.000Z</Time>
            <Position>
              <LatitudeDegrees>-15.34400238655507564544677734375</LatitudeDegrees>
              <LongitudeDegrees>37.08658293820917606353759765625</LongitudeDegrees>
            </Position>
            <AltitudeMeters>1247.199951171875</AltitudeMeters>
            <DistanceMeters>NAN</DistanceMeters>
          </Trackpoint>
          <Trackpoint>
            <Time>2021-08-02T04:50:31.000Z</Time>
            <Position>
              <LatitudeDegrees>-15.34398897551000118255615234375</LatitudeDegrees>
              <LongitudeDegrees>37.08654396235942840576171875</LongitudeDegrees>
            </Position>
            <AltitudeMeters>1247.5999755859375</AltitudeMeters>
            <DistanceMeters>NAN</DistanceMeters>
          </Trackpoint>
          <Trackpoint>
            <Time>2021-08-02T04:50:35.000Z</Time>
            <Position>
              <LatitudeDegrees>-15.34397975541651248931884765625</LatitudeDegrees>
              <LongitudeDegrees>37.08650867454707622528076171875</LongitudeDegrees>
            </Position>
            <AltitudeMeters>1248.4000244140625</AltitudeMeters>
            <DistanceMeters>NAN</DistanceMeters>
          </Trackpoint>
          <Trackpoint>
            <Time>2021-08-02T04:50:42.000Z</Time>
            <Position>
              <LatitudeDegrees>-15.3439600579440593719482421875</LatitudeDegrees>
              <LongitudeDegrees>37.0864378474652767181396484375</LongitudeDegrees>
            </Position>
            <AltitudeMeters>1249.4000244140625</AltitudeMeters>
            <DistanceMeters>NAN</DistanceMeters>
          </Trackpoint>
          <Trackpoint>
            <Time>2021-08-02T04:50:43.000Z</Time>
            <Position>
              <LatitudeDegrees>-15.34395779483020305633544921875</LatitudeDegrees>
              <LongitudeDegrees>37.08642661571502685546875</LongitudeDegrees>
            </Position>
            <AltitudeMeters>1249.4000244140625</AltitudeMeters>
            <DistanceMeters>NAN</DistanceMeters>
          </Trackpoint>
          <Trackpoint>
            <Time>2021-08-02T04:50:47.000Z</Time>
            <Position>
              <LatitudeDegrees>-15.34395016729831695556640625</LatitudeDegrees>
              <LongitudeDegrees>37.08638629876077175140380859375</LongitudeDegrees>
            </Position>
            <AltitudeMeters>1249.800048828125</AltitudeMeters>
            <DistanceMeters>NAN</DistanceMeters>
          </Trackpoint>
          <Trackpoint>
            <Time>2021-08-02T04:50:50.000Z</Time>
            <Position>
              <LatitudeDegrees>-15.3439419530332088470458984375</LatitudeDegrees>
              <LongitudeDegrees>37.086356543004512786865234375</LongitudeDegrees>
            </Position>
            <AltitudeMeters>1250.199951171875</AltitudeMeters>
            <DistanceMeters>NAN</DistanceMeters>
          </Trackpoint>
          <Trackpoint>
            <Time>2021-08-02T04:50:52.000Z</Time>
            <Position>
              <LatitudeDegrees>-15.3439396061003208160400390625</LatitudeDegrees>
              <LongitudeDegrees>37.086348831653594970703125</LongitudeDegrees>
            </Position>
            <AltitudeMeters>1250.4000244140625</AltitudeMeters>
            <DistanceMeters>NAN</DistanceMeters>
          </Trackpoint>
          <Trackpoint>
            <Time>2021-08-02T04:50:54.000Z</Time>
            <Position>
              <LatitudeDegrees>-15.3439329005777835845947265625</LatitudeDegrees>
              <LongitudeDegrees>37.08631974644958972930908203125</LongitudeDegrees>
            </Position>
            <AltitudeMeters>1250.800048828125</AltitudeMeters>
            <DistanceMeters>NAN</DistanceMeters>
          </Trackpoint>
          <Trackpoint>
            <Time>2021-08-02T04:50:56.000Z</Time>
            <Position>
              <LatitudeDegrees>-15.34392862580716609954833984375</LatitudeDegrees>
              <LongitudeDegrees>37.08629711531102657318115234375</LongitudeDegrees>
            </Position>
            <AltitudeMeters>1251.199951171875</AltitudeMeters>
            <DistanceMeters>NAN</DistanceMeters>
          </Trackpoint>
          <Trackpoint>
            <Time>2021-08-02T04:51:01.000Z</Time>
            <Position>
              <LatitudeDegrees>-15.3439174778759479522705078125</LatitudeDegrees>
              <LongitudeDegrees>37.08623961545526981353759765625</LongitudeDegrees>
            </Position>
            <AltitudeMeters>1251.5999755859375</AltitudeMeters>
            <DistanceMeters>NAN</DistanceMeters>
          </Trackpoint>
          <Trackpoint>
            <Time>2021-08-02T04:51:09.000Z</Time>
            <Position>
              <LatitudeDegrees>-15.34389526583254337310791015625</LatitudeDegrees>
              <LongitudeDegrees>37.08616401068866252899169921875</LongitudeDegrees>
            </Position>
            <AltitudeMeters>1252.199951171875</AltitudeMeters>
            <DistanceMeters>NAN</DistanceMeters>
          </Trackpoint>
          <Trackpoint>
            <Time>2021-08-02T04:51:13.000Z</Time>
            <Position>
              <LatitudeDegrees>-15.34387498162686824798583984375</LatitudeDegrees>
              <LongitudeDegrees>37.086107432842254638671875</LongitudeDegrees>
            </Position>
            <AltitudeMeters>1252.5999755859375</AltitudeMeters>
            <DistanceMeters>NAN</DistanceMeters>
          </Trackpoint>
          <Trackpoint>
            <Time>2021-08-02T04:51:20.000Z</Time>
            <Position>
              <LatitudeDegrees>-15.34384765662252902984619140625</LatitudeDegrees>
              <LongitudeDegrees>37.0860311575233936309814453125</LongitudeDegrees>
            </Position>
            <AltitudeMeters>1253.199951171875</AltitudeMeters>
            <DistanceMeters>NAN</DistanceMeters>
          </Trackpoint>
          <Trackpoint>
            <Time>2021-08-02T04:51:21.000Z</Time>
            <Position>
              <LatitudeDegrees>-15.34384765662252902984619140625</LatitudeDegrees>
              <LongitudeDegrees>37.0860311575233936309814453125</LongitudeDegrees>
            </Position>
            <AltitudeMeters>1253.4000244140625</AltitudeMeters>
            <DistanceMeters>NAN</DistanceMeters>
          </Trackpoint>
          <Trackpoint>
            <Time>2021-08-02T04:51:25.000Z</Time>
            <Position>
              <LatitudeDegrees>-15.34382343292236328125</LatitudeDegrees>
              <LongitudeDegrees>37.08597893826663494110107421875</LongitudeDegrees>
            </Position>
            <AltitudeMeters>1253.800048828125</AltitudeMeters>
            <DistanceMeters>NAN</DistanceMeters>
          </Trackpoint>
          <Trackpoint>
            <Time>2021-08-02T04:51:31.000Z</Time>
            <Position>
              <LatitudeDegrees>-15.34379686228930950164794921875</LatitudeDegrees>
              <LongitudeDegrees>37.0859268866479396820068359375</LongitudeDegrees>
            </Position>
            <AltitudeMeters>1254.199951171875</AltitudeMeters>
            <DistanceMeters>NAN</DistanceMeters>
          </Trackpoint>
          <Trackpoint>
            <Time>2021-08-02T04:51:32.000Z</Time>
            <Position>
              <LatitudeDegrees>-15.34379183314740657806396484375</LatitudeDegrees>
              <LongitudeDegrees>37.08591657690703868865966796875</LongitudeDegrees>
            </Position>
            <AltitudeMeters>1254.199951171875</AltitudeMeters>
            <DistanceMeters>NAN</DistanceMeters>
          </Trackpoint>
          <Trackpoint>
            <Time>2021-08-02T04:51:38.000Z</Time>
            <Position>
              <LatitudeDegrees>-15.3437458164989948272705078125</LatitudeDegrees>
              <LongitudeDegrees>37.08584616892039775848388671875</LongitudeDegrees>
            </Position>
            <AltitudeMeters>1254.800048828125</AltitudeMeters>
            <DistanceMeters>NAN</DistanceMeters>
          </Trackpoint>
          <Trackpoint>
            <Time>2021-08-02T04:51:43.000Z</Time>
            <Position>
              <LatitudeDegrees>-15.3436985425651073455810546875</LatitudeDegrees>
              <LongitudeDegrees>37.085801325738430023193359375</LongitudeDegrees>
            </Position>
            <AltitudeMeters>1254.800048828125</AltitudeMeters>
            <DistanceMeters>NAN</DistanceMeters>
          </Trackpoint>
          <Trackpoint>
            <Time>2021-08-02T04:51:53.000Z</Time>
            <Position>
              <LatitudeDegrees>-15.34359502606093883514404296875</LatitudeDegrees>
              <LongitudeDegrees>37.085752375423908233642578125</LongitudeDegrees>
            </Position>
            <AltitudeMeters>1254.800048828125</AltitudeMeters>
            <DistanceMeters>NAN</DistanceMeters>
          </Trackpoint>
          <Trackpoint>
            <Time>2021-08-02T04:52:03.000Z</Time>
            <Position>
              <LatitudeDegrees>-15.34345923922955989837646484375</LatitudeDegrees>
              <LongitudeDegrees>37.085753381252288818359375</LongitudeDegrees>
            </Position>
            <AltitudeMeters>1254.800048828125</AltitudeMeters>
            <DistanceMeters>NAN</DistanceMeters>
          </Trackpoint>
          <Trackpoint>
            <Time>2021-08-02T04:52:04.000Z</Time>
            <Position>
              <LatitudeDegrees>-15.34344549290835857391357421875</LatitudeDegrees>
              <LongitudeDegrees>37.085755728185176849365234375</LongitudeDegrees>
            </Position>
            <AltitudeMeters>1254.800048828125</AltitudeMeters>
            <DistanceMeters>NAN</DistanceMeters>
          </Trackpoint>
          <Trackpoint>
            <Time>2021-08-02T04:52:13.000Z</Time>
            <Position>
              <LatitudeDegrees>-15.34333527088165283203125</LatitudeDegrees>
              <LongitudeDegrees>37.08578313700854778289794921875</LongitudeDegrees>
            </Position>
            <AltitudeMeters>1255</AltitudeMeters>
            <DistanceMeters>NAN</DistanceMeters>
          </Trackpoint>
          <Trackpoint>
            <Time>2021-08-02T04:52:20.000Z</Time>
            <Position>
              <LatitudeDegrees>-15.34325354732573032379150390625</LatitudeDegrees>
              <LongitudeDegrees>37.08579001016914844512939453125</LongitudeDegrees>
            </Position>
            <AltitudeMeters>1254.800048828125</AltitudeMeters>
            <DistanceMeters>NAN</DistanceMeters>
          </Trackpoint>
          <Trackpoint>
            <Time>2021-08-02T04:52:24.000Z</Time>
            <Position>
              <LatitudeDegrees>-15.34319604746997356414794921875</LatitudeDegrees>
              <LongitudeDegrees>37.08580057136714458465576171875</LongitudeDegrees>
            </Position>
            <AltitudeMeters>1254.800048828125</AltitudeMeters>
            <DistanceMeters>NAN</DistanceMeters>
          </Trackpoint>
          <Trackpoint>
            <Time>2021-08-02T04:52:32.000Z</Time>
            <Position>
              <LatitudeDegrees>-15.3430960513651371002197265625</LatitudeDegrees>
              <LongitudeDegrees>37.0858219452202320098876953125</LongitudeDegrees>
            </Position>
            <AltitudeMeters>1254</AltitudeMeters>
            <DistanceMeters>NAN</DistanceMeters>
          </Trackpoint>
          <Trackpoint>
            <Time>2021-08-02T04:52:33.000Z</Time>
            <Position>
              <LatitudeDegrees>-15.34308389760553836822509765625</LatitudeDegrees>
              <LongitudeDegrees>37.08582756109535694122314453125</LongitudeDegrees>
            </Position>
            <AltitudeMeters>1253.800048828125</AltitudeMeters>
            <DistanceMeters>NAN</DistanceMeters>
          </Trackpoint>
          <Trackpoint>
            <Time>2021-08-02T04:52:44.000Z</Time>
            <Position>
              <LatitudeDegrees>-15.34295196644961833953857421875</LatitudeDegrees>
              <LongitudeDegrees>37.0858719013631343841552734375</LongitudeDegrees>
            </Position>
            <AltitudeMeters>1253.199951171875</AltitudeMeters>
            <DistanceMeters>NAN</DistanceMeters>
          </Trackpoint>
          <Trackpoint>
            <Time>2021-08-02T04:52:51.000Z</Time>
            <Position>
              <LatitudeDegrees>-15.3428754396736621856689453125</LatitudeDegrees>
              <LongitudeDegrees>37.08591121248900890350341796875</LongitudeDegrees>
            </Position>
            <AltitudeMeters>1253.4000244140625</AltitudeMeters>
            <DistanceMeters>NAN</DistanceMeters>
          </Trackpoint>
          <Trackpoint>
            <Time>2021-08-02T04:52:56.000Z</Time>
            <Position>
              <LatitudeDegrees>-15.34280645661056041717529296875</LatitudeDegrees>
              <LongitudeDegrees>37.0859463326632976531982421875</LongitudeDegrees>
            </Position>
            <AltitudeMeters>1253.4000244140625</AltitudeMeters>
            <DistanceMeters>NAN</DistanceMeters>
          </Trackpoint>
          <Trackpoint>
            <Time>2021-08-02T04:53:03.000Z</Time>
            <Position>
              <LatitudeDegrees>-15.34273101948201656341552734375</LatitudeDegrees>
              <LongitudeDegrees>37.08598597906529903411865234375</LongitudeDegrees>
            </Position>
            <AltitudeMeters>1253.5999755859375</AltitudeMeters>
            <DistanceMeters>NAN</DistanceMeters>
          </Trackpoint>
          <Trackpoint>
            <Time>2021-08-02T04:53:12.000Z</Time>
            <Position>
              <LatitudeDegrees>-15.34262943081557750701904296875</LatitudeDegrees>
              <LongitudeDegrees>37.08603509701788425445556640625</LongitudeDegrees>
            </Position>
            <AltitudeMeters>1253.800048828125</AltitudeMeters>
            <DistanceMeters>NAN</DistanceMeters>
          </Trackpoint>
          <Trackpoint>
            <Time>2021-08-02T04:53:24.000Z</Time>
            <Position>
              <LatitudeDegrees>-15.34249330870807170867919921875</LatitudeDegrees>
              <LongitudeDegrees>37.08608304150402545928955078125</LongitudeDegrees>
            </Position>
            <AltitudeMeters>1252.5999755859375</AltitudeMeters>
            <DistanceMeters>NAN</DistanceMeters>
          </Trackpoint>
          <Trackpoint>
            <Time>2021-08-02T04:53:32.000Z</Time>
            <Position>
              <LatitudeDegrees>-15.34238719381392002105712890625</LatitudeDegrees>
              <LongitudeDegrees>37.0860888250172138214111328125</LongitudeDegrees>
            </Position>
            <AltitudeMeters>1251.5999755859375</AltitudeMeters>
            <DistanceMeters>NAN</DistanceMeters>
          </Trackpoint>
          <Trackpoint>
            <Time>2021-08-02T04:53:35.000Z</Time>
            <Position>
              <LatitudeDegrees>-15.34232751466333866119384765625</LatitudeDegrees>
              <LongitudeDegrees>37.086070217192173004150390625</LongitudeDegrees>
            </Position>
            <AltitudeMeters>1250.4000244140625</AltitudeMeters>
            <DistanceMeters>NAN</DistanceMeters>
          </Trackpoint>
          <Trackpoint>
            <Time>2021-08-02T04:53:36.000Z</Time>
            <Position>
              <LatitudeDegrees>-15.342313013970851898193359375</LatitudeDegrees>
              <LongitudeDegrees>37.08606476895511150360107421875</LongitudeDegrees>
            </Position>
            <AltitudeMeters>1250.4000244140625</AltitudeMeters>
            <DistanceMeters>NAN</DistanceMeters>
          </Trackpoint>
          <Trackpoint>
            <Time>2021-08-02T04:53:39.000Z</Time>
            <Position>
              <LatitudeDegrees>-15.3422850184142589569091796875</LatitudeDegrees>
              <LongitudeDegrees>37.0860449038445949554443359375</LongitudeDegrees>
            </Position>
            <AltitudeMeters>1249.800048828125</AltitudeMeters>
            <DistanceMeters>NAN</DistanceMeters>
          </Trackpoint>
          <Trackpoint>
            <Time>2021-08-02T04:53:41.000Z</Time>
            <Position>
              <LatitudeDegrees>-15.342274792492389678955078125</LatitudeDegrees>
              <LongitudeDegrees>37.08603794686496257781982421875</LongitudeDegrees>
            </Position>
            <AltitudeMeters>1249</AltitudeMeters>
            <DistanceMeters>NAN</DistanceMeters>
          </Trackpoint>
          <Trackpoint>
            <Time>2021-08-02T04:53:44.000Z</Time>
            <Position>
              <LatitudeDegrees>-15.34222676418721675872802734375</LatitudeDegrees>
              <LongitudeDegrees>37.086001150310039520263671875</LongitudeDegrees>
            </Position>
            <AltitudeMeters>1248.800048828125</AltitudeMeters>
            <DistanceMeters>NAN</DistanceMeters>
          </Trackpoint>
          <Trackpoint>
            <Time>2021-08-02T04:53:48.000Z</Time>
            <Position>
              <LatitudeDegrees>-15.34219658933579921722412109375</LatitudeDegrees>
              <LongitudeDegrees>37.0859775133430957794189453125</LongitudeDegrees>
            </Position>
            <AltitudeMeters>1248</AltitudeMeters>
            <DistanceMeters>NAN</DistanceMeters>
          </Trackpoint>
          <Trackpoint>
            <Time>2021-08-02T04:53:55.000Z</Time>
            <Position>
              <LatitudeDegrees>-15.3421203978359699249267578125</LatitudeDegrees>
              <LongitudeDegrees>37.08592236042022705078125</LongitudeDegrees>
            </Position>
            <AltitudeMeters>1247.5999755859375</AltitudeMeters>
            <DistanceMeters>NAN</DistanceMeters>
          </Trackpoint>
          <Trackpoint>
            <Time>2021-08-02T04:53:59.000Z</Time>
            <Position>
              <LatitudeDegrees>-15.34208200871944427490234375</LatitudeDegrees>
              <LongitudeDegrees>37.0858933590352535247802734375</LongitudeDegrees>
            </Position>
            <AltitudeMeters>1246.4000244140625</AltitudeMeters>
            <DistanceMeters>NAN</DistanceMeters>
          </Trackpoint>
          <Trackpoint>
            <Time>2021-08-02T04:54:07.000Z</Time>
            <Position>
              <LatitudeDegrees>-15.34199081361293792724609375</LatitudeDegrees>
              <LongitudeDegrees>37.08580191247165203094482421875</LongitudeDegrees>
            </Position>
            <AltitudeMeters>1245.5999755859375</AltitudeMeters>
            <DistanceMeters>NAN</DistanceMeters>
          </Trackpoint>
          <Trackpoint>
            <Time>2021-08-02T04:54:09.000Z</Time>
            <Position>
              <LatitudeDegrees>-15.34198402427136898040771484375</LatitudeDegrees>
              <LongitudeDegrees>37.0857947878539562225341796875</LongitudeDegrees>
            </Position>
            <AltitudeMeters>1245.4000244140625</AltitudeMeters>
            <DistanceMeters>NAN</DistanceMeters>
          </Trackpoint>
          <Trackpoint>
            <Time>2021-08-02T04:54:17.000Z</Time>
            <Position>
              <LatitudeDegrees>-15.341887213289737701416015625</LatitudeDegrees>
              <LongitudeDegrees>37.0857216976583003997802734375</LongitudeDegrees>
            </Position>
            <AltitudeMeters>1244.199951171875</AltitudeMeters>
            <DistanceMeters>NAN</DistanceMeters>
          </Trackpoint>
          <Trackpoint>
            <Time>2021-08-02T04:54:24.000Z</Time>
            <Position>
              <LatitudeDegrees>-15.3418196551501750946044921875</LatitudeDegrees>
              <LongitudeDegrees>37.08565137349069118499755859375</LongitudeDegrees>
            </Position>
            <AltitudeMeters>1243.5999755859375</AltitudeMeters>
            <DistanceMeters>NAN</DistanceMeters>
          </Trackpoint>
          <Trackpoint>
            <Time>2021-08-02T04:54:25.000Z</Time>
            <Position>
              <LatitudeDegrees>-15.3418196551501750946044921875</LatitudeDegrees>
              <LongitudeDegrees>37.08565137349069118499755859375</LongitudeDegrees>
            </Position>
            <AltitudeMeters>1243.5999755859375</AltitudeMeters>
            <DistanceMeters>NAN</DistanceMeters>
          </Trackpoint>
          <Trackpoint>
            <Time>2021-08-02T04:54:28.000Z</Time>
            <Position>
              <LatitudeDegrees>-15.341794006526470184326171875</LatitudeDegrees>
              <LongitudeDegrees>37.0856308378279209136962890625</LongitudeDegrees>
            </Position>
            <AltitudeMeters>1243</AltitudeMeters>
            <DistanceMeters>NAN</DistanceMeters>
          </Trackpoint>
          <Trackpoint>
            <Time>2021-08-02T04:54:29.000Z</Time>
            <Position>
              <LatitudeDegrees>-15.3417777456343173980712890625</LatitudeDegrees>
              <LongitudeDegrees>37.08561734296381473541259765625</LongitudeDegrees>
            </Position>
            <AltitudeMeters>1243</AltitudeMeters>
            <DistanceMeters>NAN</DistanceMeters>
          </Trackpoint>
          <Trackpoint>
            <Time>2021-08-02T04:54:37.000Z</Time>
            <Position>
              <LatitudeDegrees>-15.34169132821261882781982421875</LatitudeDegrees>
              <LongitudeDegrees>37.0855372957885265350341796875</LongitudeDegrees>
            </Position>
            <AltitudeMeters>1241.800048828125</AltitudeMeters>
            <DistanceMeters>NAN</DistanceMeters>
          </Trackpoint>
          <Trackpoint>
            <Time>2021-08-02T04:54:43.000Z</Time>
            <Position>
              <LatitudeDegrees>-15.341627039015293121337890625</LatitudeDegrees>
              <LongitudeDegrees>37.08548809401690959930419921875</LongitudeDegrees>
            </Position>
            <AltitudeMeters>1240.800048828125</AltitudeMeters>
            <DistanceMeters>NAN</DistanceMeters>
          </Trackpoint>
          <Trackpoint>
            <Time>2021-08-02T04:54:46.000Z</Time>
            <Position>
              <LatitudeDegrees>-15.34160415641963481903076171875</LatitudeDegrees>
              <LongitudeDegrees>37.08546278066933155059814453125</LongitudeDegrees>
            </Position>
            <AltitudeMeters>1240.800048828125</AltitudeMeters>
            <DistanceMeters>NAN</DistanceMeters>
          </Trackpoint>
          <Trackpoint>
            <Time>2021-08-02T04:54:54.000Z</Time>
            <Position>
              <LatitudeDegrees>-15.34154028631746768951416015625</LatitudeDegrees>
              <LongitudeDegrees>37.08540645428001880645751953125</LongitudeDegrees>
            </Position>
            <AltitudeMeters>1240.4000244140625</AltitudeMeters>
            <DistanceMeters>NAN</DistanceMeters>
          </Trackpoint>
          <Trackpoint>
            <Time>2021-08-02T04:55:05.000Z</Time>
            <Position>
              <LatitudeDegrees>-15.341435931622982025146484375</LatitudeDegrees>
              <LongitudeDegrees>37.0853022672235965728759765625</LongitudeDegrees>
            </Position>
            <AltitudeMeters>1240.800048828125</AltitudeMeters>
            <DistanceMeters>NAN</DistanceMeters>
          </Trackpoint>
          <Trackpoint>
            <Time>2021-08-02T04:55:06.000Z</Time>
            <Position>
              <LatitudeDegrees>-15.34141707234084606170654296875</LatitudeDegrees>
              <LongitudeDegrees>37.0852821506559848785400390625</LongitudeDegrees>
            </Position>
            <AltitudeMeters>1240.800048828125</AltitudeMeters>
            <DistanceMeters>NAN</DistanceMeters>
          </Trackpoint>
          <Trackpoint>
            <Time>2021-08-02T04:55:17.000Z</Time>
            <Position>
              <LatitudeDegrees>-15.34130659885704517364501953125</LatitudeDegrees>
              <LongitudeDegrees>37.08518886007368564605712890625</LongitudeDegrees>
            </Position>
            <AltitudeMeters>1240.800048828125</AltitudeMeters>
            <DistanceMeters>NAN</DistanceMeters>
          </Trackpoint>
          <Trackpoint>
            <Time>2021-08-02T04:55:32.000Z</Time>
            <Position>
              <LatitudeDegrees>-15.34115907736122608184814453125</LatitudeDegrees>
              <LongitudeDegrees>37.08505894057452678680419921875</LongitudeDegrees>
            </Position>
            <AltitudeMeters>1241.5999755859375</AltitudeMeters>
            <DistanceMeters>NAN</DistanceMeters>
          </Trackpoint>
          <Trackpoint>
            <Time>2021-08-02T04:55:37.000Z</Time>
            <Position>
              <LatitudeDegrees>-15.34111901186406612396240234375</LatitudeDegrees>
              <LongitudeDegrees>37.08502591587603092193603515625</LongitudeDegrees>
            </Position>
            <AltitudeMeters>1241.800048828125</AltitudeMeters>
            <DistanceMeters>NAN</DistanceMeters>
          </Trackpoint>
          <Trackpoint>
            <Time>2021-08-02T04:55:50.000Z</Time>
            <Position>
              <LatitudeDegrees>-15.34097693860530853271484375</LatitudeDegrees>
              <LongitudeDegrees>37.0849166996777057647705078125</LongitudeDegrees>
            </Position>
            <AltitudeMeters>1242.199951171875</AltitudeMeters>
            <DistanceMeters>NAN</DistanceMeters>
          </Trackpoint>
          <Trackpoint>
            <Time>2021-08-02T04:56:02.000Z</Time>
            <Position>
              <LatitudeDegrees>-15.34086839295923709869384765625</LatitudeDegrees>
              <LongitudeDegrees>37.08482475019991397857666015625</LongitudeDegrees>
            </Position>
            <AltitudeMeters>1242.800048828125</AltitudeMeters>
            <DistanceMeters>NAN</DistanceMeters>
          </Trackpoint>
          <Trackpoint>
            <Time>2021-08-02T04:56:06.000Z</Time>
            <Position>
              <LatitudeDegrees>-15.3408034332096576690673828125</LatitudeDegrees>
              <LongitudeDegrees>37.08477529697120189666748046875</LongitudeDegrees>
            </Position>
            <AltitudeMeters>1243</AltitudeMeters>
            <DistanceMeters>NAN</DistanceMeters>
          </Trackpoint>
          <Trackpoint>
            <Time>2021-08-02T04:56:12.000Z</Time>
            <Position>
              <LatitudeDegrees>-15.34075205214321613311767578125</LatitudeDegrees>
              <LongitudeDegrees>37.08473171107470989227294921875</LongitudeDegrees>
            </Position>
            <AltitudeMeters>1243.4000244140625</AltitudeMeters>
            <DistanceMeters>NAN</DistanceMeters>
          </Trackpoint>
          <Trackpoint>
            <Time>2021-08-02T04:56:18.000Z</Time>
            <Position>
              <LatitudeDegrees>-15.34070259891450405120849609375</LatitudeDegrees>
              <LongitudeDegrees>37.08468225784599781036376953125</LongitudeDegrees>
            </Position>
            <AltitudeMeters>1244</AltitudeMeters>
            <DistanceMeters>NAN</DistanceMeters>
          </Trackpoint>
          <Trackpoint>
            <Time>2021-08-02T04:56:34.000Z</Time>
            <Position>
              <LatitudeDegrees>-15.34055138938128948211669921875</LatitudeDegrees>
              <LongitudeDegrees>37.084543704986572265625</LongitudeDegrees>
            </Position>
            <AltitudeMeters>1244.5999755859375</AltitudeMeters>
            <DistanceMeters>NAN</DistanceMeters>
          </Trackpoint>
          <Trackpoint>
            <Time>2021-08-02T04:56:45.000Z</Time>
            <Position>
              <LatitudeDegrees>-15.3404436819255352020263671875</LatitudeDegrees>
              <LongitudeDegrees>37.08445594646036624908447265625</LongitudeDegrees>
            </Position>
            <AltitudeMeters>1245</AltitudeMeters>
            <DistanceMeters>NAN</DistanceMeters>
          </Trackpoint>
          <Trackpoint>
            <Time>2021-08-02T04:56:48.000Z</Time>
            <Position>
              <LatitudeDegrees>-15.340423397719860076904296875</LatitudeDegrees>
              <LongitudeDegrees>37.084442116320133209228515625</LongitudeDegrees>
            </Position>
            <AltitudeMeters>1244.800048828125</AltitudeMeters>
            <DistanceMeters>NAN</DistanceMeters>
          </Trackpoint>
          <Trackpoint>
            <Time>2021-08-02T04:56:59.000Z</Time>
            <Position>
              <LatitudeDegrees>-15.34030814655125141143798828125</LatitudeDegrees>
              <LongitudeDegrees>37.08435100503265857696533203125</LongitudeDegrees>
            </Position>
            <AltitudeMeters>1244.800048828125</AltitudeMeters>
            <DistanceMeters>NAN</DistanceMeters>
          </Trackpoint>
          <Trackpoint>
            <Time>2021-08-02T04:57:11.000Z</Time>
            <Position>
              <LatitudeDegrees>-15.34019113518297672271728515625</LatitudeDegrees>
              <LongitudeDegrees>37.0842768251895904541015625</LongitudeDegrees>
            </Position>
            <AltitudeMeters>1245.4000244140625</AltitudeMeters>
            <DistanceMeters>NAN</DistanceMeters>
          </Trackpoint>
          <Trackpoint>
            <Time>2021-08-02T04:57:20.000Z</Time>
            <Position>
              <LatitudeDegrees>-15.340089462697505950927734375</LatitudeDegrees>
              <LongitudeDegrees>37.0842186547815799713134765625</LongitudeDegrees>
            </Position>
            <AltitudeMeters>1246</AltitudeMeters>
            <DistanceMeters>NAN</DistanceMeters>
          </Trackpoint>
          <Trackpoint>
            <Time>2021-08-02T04:57:25.000Z</Time>
            <Position>
              <LatitudeDegrees>-15.340036489069461822509765625</LatitudeDegrees>
              <LongitudeDegrees>37.084186635911464691162109375</LongitudeDegrees>
            </Position>
            <AltitudeMeters>1246.4000244140625</AltitudeMeters>
            <DistanceMeters>NAN</DistanceMeters>
          </Trackpoint>
          <Trackpoint>
            <Time>2021-08-02T04:57:33.000Z</Time>
            <Position>
              <LatitudeDegrees>-15.3399454616010189056396484375</LatitudeDegrees>
              <LongitudeDegrees>37.08415369503200054168701171875</LongitudeDegrees>
            </Position>
            <AltitudeMeters>1246.800048828125</AltitudeMeters>
            <DistanceMeters>NAN</DistanceMeters>
          </Trackpoint>
          <Trackpoint>
            <Time>2021-08-02T04:57:35.000Z</Time>
            <Position>
              <LatitudeDegrees>-15.33992794342339038848876953125</LatitudeDegrees>
              <LongitudeDegrees>37.0841425471007823944091796875</LongitudeDegrees>
            </Position>
            <AltitudeMeters>1247</AltitudeMeters>
            <DistanceMeters>NAN</DistanceMeters>
          </Trackpoint>
          <Trackpoint>
            <Time>2021-08-02T04:57:39.000Z</Time>
            <Position>
              <LatitudeDegrees>-15.339882262051105499267578125</LatitudeDegrees>
              <LongitudeDegrees>37.08412201143801212310791015625</LongitudeDegrees>
            </Position>
            <AltitudeMeters>1247.199951171875</AltitudeMeters>
            <DistanceMeters>NAN</DistanceMeters>
          </Trackpoint>
          <Trackpoint>
            <Time>2021-08-02T04:57:49.000Z</Time>
            <Position>
              <LatitudeDegrees>-15.33977388404309749603271484375</LatitudeDegrees>
              <LongitudeDegrees>37.084058560431003570556640625</LongitudeDegrees>
            </Position>
            <AltitudeMeters>1248.4000244140625</AltitudeMeters>
            <DistanceMeters>NAN</DistanceMeters>
          </Trackpoint>
          <Trackpoint>
            <Time>2021-08-02T04:57:50.000Z</Time>
            <Position>
              <LatitudeDegrees>-15.33976256847381591796875</LatitudeDegrees>
              <LongitudeDegrees>37.08405428566038608551025390625</LongitudeDegrees>
            </Position>
            <AltitudeMeters>1248.4000244140625</AltitudeMeters>
            <DistanceMeters>NAN</DistanceMeters>
          </Trackpoint>
          <Trackpoint>
            <Time>2021-08-02T04:58:00.000Z</Time>
            <Position>
              <LatitudeDegrees>-15.339667014777660369873046875</LatitudeDegrees>
              <LongitudeDegrees>37.08400449715554714202880859375</LongitudeDegrees>
            </Position>
            <AltitudeMeters>1248.4000244140625</AltitudeMeters>
            <DistanceMeters>NAN</DistanceMeters>
          </Trackpoint>
          <Trackpoint>
            <Time>2021-08-02T04:58:08.000Z</Time>
            <Position>
              <LatitudeDegrees>-15.33957925625145435333251953125</LatitudeDegrees>
              <LongitudeDegrees>37.083953283727169036865234375</LongitudeDegrees>
            </Position>
            <AltitudeMeters>1248.5999755859375</AltitudeMeters>
            <DistanceMeters>NAN</DistanceMeters>
          </Trackpoint>
          <Trackpoint>
            <Time>2021-08-02T04:58:11.000Z</Time>
            <Position>
              <LatitudeDegrees>-15.339551679790019989013671875</LatitudeDegrees>
              <LongitudeDegrees>37.083934843540191650390625</LongitudeDegrees>
            </Position>
            <AltitudeMeters>1248.800048828125</AltitudeMeters>
            <DistanceMeters>NAN</DistanceMeters>
          </Trackpoint>
          <Trackpoint>
            <Time>2021-08-02T04:58:13.000Z</Time>
            <Position>
              <LatitudeDegrees>-15.33953198231756687164306640625</LatitudeDegrees>
              <LongitudeDegrees>37.08392051048576831817626953125</LongitudeDegrees>
            </Position>
            <AltitudeMeters>1248.800048828125</AltitudeMeters>
            <DistanceMeters>NAN</DistanceMeters>
          </Trackpoint>
          <Trackpoint>
            <Time>2021-08-02T04:58:21.000Z</Time>
            <Position>
              <LatitudeDegrees>-15.3394391946494579315185546875</LatitudeDegrees>
              <LongitudeDegrees>37.08385127596557140350341796875</LongitudeDegrees>
            </Position>
            <AltitudeMeters>1248.5999755859375</AltitudeMeters>
            <DistanceMeters>NAN</DistanceMeters>
          </Trackpoint>
          <Trackpoint>
            <Time>2021-08-02T04:58:35.000Z</Time>
            <Position>
              <LatitudeDegrees>-15.33930189907550811767578125</LatitudeDegrees>
              <LongitudeDegrees>37.0837284810841083526611328125</LongitudeDegrees>
            </Position>
            <AltitudeMeters>1248.199951171875</AltitudeMeters>
            <DistanceMeters>NAN</DistanceMeters>
          </Trackpoint>
          <Trackpoint>
            <Time>2021-08-02T04:58:46.000Z</Time>
            <Position>
              <LatitudeDegrees>-15.33921606838703155517578125</LatitudeDegrees>
              <LongitudeDegrees>37.0836121402680873870849609375</LongitudeDegrees>
            </Position>
            <AltitudeMeters>1247.800048828125</AltitudeMeters>
            <DistanceMeters>NAN</DistanceMeters>
          </Trackpoint>
          <Trackpoint>
            <Time>2021-08-02T04:58:52.000Z</Time>
            <Position>
              <LatitudeDegrees>-15.33916686661541461944580078125</LatitudeDegrees>
              <LongitudeDegrees>37.083561010658740997314453125</LongitudeDegrees>
            </Position>
            <AltitudeMeters>1247.199951171875</AltitudeMeters>
            <DistanceMeters>NAN</DistanceMeters>
          </Trackpoint>
          <Trackpoint>
            <Time>2021-08-02T04:58:57.000Z</Time>
            <Position>
              <LatitudeDegrees>-15.33914230763912200927734375</LatitudeDegrees>
              <LongitudeDegrees>37.0835177600383758544921875</LongitudeDegrees>
            </Position>
            <AltitudeMeters>1246.800048828125</AltitudeMeters>
            <DistanceMeters>NAN</DistanceMeters>
          </Trackpoint>
          <Trackpoint>
            <Time>2021-08-02T04:59:03.000Z</Time>
            <Position>
              <LatitudeDegrees>-15.3391263820230960845947265625</LatitudeDegrees>
              <LongitudeDegrees>37.0834813825786113739013671875</LongitudeDegrees>
            </Position>
            <AltitudeMeters>1246.800048828125</AltitudeMeters>
            <DistanceMeters>NAN</DistanceMeters>
          </Trackpoint>
          <Trackpoint>
            <Time>2021-08-02T04:59:21.000Z</Time>
            <Position>
              <LatitudeDegrees>-15.33912830986082553863525390625</LatitudeDegrees>
              <LongitudeDegrees>37.08347895182669162750244140625</LongitudeDegrees>
            </Position>
            <AltitudeMeters>1246.800048828125</AltitudeMeters>
            <DistanceMeters>NAN</DistanceMeters>
          </Trackpoint>
          <Trackpoint>
            <Time>2021-08-02T04:59:30.000Z</Time>
            <Position>
              <LatitudeDegrees>-15.3391282260417938232421875</LatitudeDegrees>
              <LongitudeDegrees>37.08348481915891170501708984375</LongitudeDegrees>
            </Position>
            <AltitudeMeters>1246.5999755859375</AltitudeMeters>
            <DistanceMeters>NAN</DistanceMeters>
          </Trackpoint>
          <Trackpoint>
            <Time>2021-08-02T04:59:44.000Z</Time>
            <Position>
              <LatitudeDegrees>-15.33911087550222873687744140625</LatitudeDegrees>
              <LongitudeDegrees>37.0834713242948055267333984375</LongitudeDegrees>
            </Position>
            <AltitudeMeters>1246.4000244140625</AltitudeMeters>
            <DistanceMeters>NAN</DistanceMeters>
          </Trackpoint>
          <Trackpoint>
            <Time>2021-08-02T04:59:47.000Z</Time>
            <Position>
              <LatitudeDegrees>-15.339081622660160064697265625</LatitudeDegrees>
              <LongitudeDegrees>37.0834314264357089996337890625</LongitudeDegrees>
            </Position>
            <AltitudeMeters>1246.4000244140625</AltitudeMeters>
            <DistanceMeters>NAN</DistanceMeters>
          </Trackpoint>
          <Trackpoint>
            <Time>2021-08-02T04:59:48.000Z</Time>
            <Position>
              <LatitudeDegrees>-15.33907030709087848663330078125</LatitudeDegrees>
              <LongitudeDegrees>37.0834153331816196441650390625</LongitudeDegrees>
            </Position>
            <AltitudeMeters>1246.199951171875</AltitudeMeters>
            <DistanceMeters>NAN</DistanceMeters>
          </Trackpoint>
          <Trackpoint>
            <Time>2021-08-02T04:59:55.000Z</Time>
            <Position>
              <LatitudeDegrees>-15.33901783637702465057373046875</LatitudeDegrees>
              <LongitudeDegrees>37.083320282399654388427734375</LongitudeDegrees>
            </Position>
            <AltitudeMeters>1245.800048828125</AltitudeMeters>
            <DistanceMeters>NAN</DistanceMeters>
          </Trackpoint>
          <Trackpoint>
            <Time>2021-08-02T04:59:59.000Z</Time>
            <Position>
              <LatitudeDegrees>-15.33900006674230098724365234375</LatitudeDegrees>
              <LongitudeDegrees>37.08328667096793651580810546875</LongitudeDegrees>
            </Position>
            <AltitudeMeters>1245.4000244140625</AltitudeMeters>
            <DistanceMeters>NAN</DistanceMeters>
          </Trackpoint>
          <Trackpoint>
            <Time>2021-08-02T05:00:00.000Z</Time>
            <Position>
              <LatitudeDegrees>-15.33898296765983104705810546875</LatitudeDegrees>
              <LongitudeDegrees>37.083260603249073028564453125</LongitudeDegrees>
            </Position>
            <AltitudeMeters>1245.199951171875</AltitudeMeters>
            <DistanceMeters>NAN</DistanceMeters>
          </Trackpoint>
          <Trackpoint>
            <Time>2021-08-02T05:00:01.000Z</Time>
            <Position>
              <LatitudeDegrees>-15.33898296765983104705810546875</LatitudeDegrees>
              <LongitudeDegrees>37.083260603249073028564453125</LongitudeDegrees>
            </Position>
            <AltitudeMeters>1245</AltitudeMeters>
            <DistanceMeters>NAN</DistanceMeters>
          </Trackpoint>
          <Trackpoint>
            <Time>2021-08-02T05:00:04.000Z</Time>
            <Position>
              <LatitudeDegrees>-15.3389493562281131744384765625</LatitudeDegrees>
              <LongitudeDegrees>37.083210982382297515869140625</LongitudeDegrees>
            </Position>
            <AltitudeMeters>1244.800048828125</AltitudeMeters>
            <DistanceMeters>NAN</DistanceMeters>
          </Trackpoint>
          <Trackpoint>
            <Time>2021-08-02T05:00:08.000Z</Time>
            <Position>
              <LatitudeDegrees>-15.3389175049960613250732421875</LatitudeDegrees>
              <LongitudeDegrees>37.08315725438296794891357421875</LongitudeDegrees>
            </Position>
            <AltitudeMeters>1244.5999755859375</AltitudeMeters>
            <DistanceMeters>NAN</DistanceMeters>
          </Trackpoint>
          <Trackpoint>
            <Time>2021-08-02T05:00:12.000Z</Time>
            <Position>
              <LatitudeDegrees>-15.3388937003910541534423828125</LatitudeDegrees>
              <LongitudeDegrees>37.0831154286861419677734375</LongitudeDegrees>
            </Position>
            <AltitudeMeters>1244.199951171875</AltitudeMeters>
            <DistanceMeters>NAN</DistanceMeters>
          </Trackpoint>
          <Trackpoint>
            <Time>2021-08-02T05:00:20.000Z</Time>
            <Position>
              <LatitudeDegrees>-15.33883762545883655548095703125</LatitudeDegrees>
              <LongitudeDegrees>37.0830242335796356201171875</LongitudeDegrees>
            </Position>
            <AltitudeMeters>1244.199951171875</AltitudeMeters>
            <DistanceMeters>NAN</DistanceMeters>
          </Trackpoint>
          <Trackpoint>
            <Time>2021-08-02T05:00:21.000Z</Time>
            <Position>
              <LatitudeDegrees>-15.33883159048855304718017578125</LatitudeDegrees>
              <LongitudeDegrees>37.08300973288714885711669921875</LongitudeDegrees>
            </Position>
            <AltitudeMeters>1244.199951171875</AltitudeMeters>
            <DistanceMeters>NAN</DistanceMeters>
          </Trackpoint>
          <Trackpoint>
            <Time>2021-08-02T05:00:22.000Z</Time>
            <Position>
              <LatitudeDegrees>-15.33883159048855304718017578125</LatitudeDegrees>
              <LongitudeDegrees>37.08300973288714885711669921875</LongitudeDegrees>
            </Position>
            <AltitudeMeters>1244</AltitudeMeters>
            <DistanceMeters>NAN</DistanceMeters>
          </Trackpoint>
          <Trackpoint>
            <Time>2021-08-02T05:00:30.000Z</Time>
            <Position>
              <LatitudeDegrees>-15.33877945505082607269287109375</LatitudeDegrees>
              <LongitudeDegrees>37.082906551659107208251953125</LongitudeDegrees>
            </Position>
            <AltitudeMeters>1244</AltitudeMeters>
            <DistanceMeters>NAN</DistanceMeters>
          </Trackpoint>
          <Trackpoint>
            <Time>2021-08-02T05:00:39.000Z</Time>
            <Position>
              <LatitudeDegrees>-15.3387196920812129974365234375</LatitudeDegrees>
              <LongitudeDegrees>37.08280018530786037445068359375</LongitudeDegrees>
            </Position>
            <AltitudeMeters>1244.4000244140625</AltitudeMeters>
            <DistanceMeters>NAN</DistanceMeters>
          </Trackpoint>
          <Trackpoint>
            <Time>2021-08-02T05:00:44.000Z</Time>
            <Position>
              <LatitudeDegrees>-15.338679961860179901123046875</LatitudeDegrees>
              <LongitudeDegrees>37.082744278013706207275390625</LongitudeDegrees>
            </Position>
            <AltitudeMeters>1244.800048828125</AltitudeMeters>
            <DistanceMeters>NAN</DistanceMeters>
          </Trackpoint>
          <Trackpoint>
            <Time>2021-08-02T05:00:48.000Z</Time>
            <Position>
              <LatitudeDegrees>-15.3386462666094303131103515625</LatitudeDegrees>
              <LongitudeDegrees>37.08270463161170482635498046875</LongitudeDegrees>
            </Position>
            <AltitudeMeters>1245.199951171875</AltitudeMeters>
            <DistanceMeters>NAN</DistanceMeters>
          </Trackpoint>
          <Trackpoint>
            <Time>2021-08-02T05:00:55.000Z</Time>
            <Position>
              <LatitudeDegrees>-15.33860594965517520904541015625</LatitudeDegrees>
              <LongitudeDegrees>37.08262818865478038787841796875</LongitudeDegrees>
            </Position>
            <AltitudeMeters>1245.5999755859375</AltitudeMeters>
            <DistanceMeters>NAN</DistanceMeters>
          </Trackpoint>
          <Trackpoint>
            <Time>2021-08-02T05:01:02.000Z</Time>
            <Position>
              <LatitudeDegrees>-15.3385668061673641204833984375</LatitudeDegrees>
              <LongitudeDegrees>37.082545794546604156494140625</LongitudeDegrees>
            </Position>
            <AltitudeMeters>1245.800048828125</AltitudeMeters>
            <DistanceMeters>NAN</DistanceMeters>
          </Trackpoint>
          <Trackpoint>
            <Time>2021-08-02T05:01:08.000Z</Time>
            <Position>
              <LatitudeDegrees>-15.33852565102279186248779296875</LatitudeDegrees>
              <LongitudeDegrees>37.0824665017426013946533203125</LongitudeDegrees>
            </Position>
            <AltitudeMeters>1245.5999755859375</AltitudeMeters>
            <DistanceMeters>NAN</DistanceMeters>
          </Trackpoint>
          <Trackpoint>
            <Time>2021-08-02T05:01:19.000Z</Time>
            <Position>
              <LatitudeDegrees>-15.338475443422794342041015625</LatitudeDegrees>
              <LongitudeDegrees>37.08235971629619598388671875</LongitudeDegrees>
            </Position>
            <AltitudeMeters>1245.4000244140625</AltitudeMeters>
            <DistanceMeters>NAN</DistanceMeters>
          </Trackpoint>
          <Trackpoint>
            <Time>2021-08-02T05:01:21.000Z</Time>
            <Position>
              <LatitudeDegrees>-15.33846178092062473297119140625</LatitudeDegrees>
              <LongitudeDegrees>37.08233297802507877349853515625</LongitudeDegrees>
            </Position>
            <AltitudeMeters>1245.4000244140625</AltitudeMeters>
            <DistanceMeters>NAN</DistanceMeters>
          </Trackpoint>
          <Trackpoint>
            <Time>2021-08-02T05:01:27.000Z</Time>
            <Position>
              <LatitudeDegrees>-15.33842305652797222137451171875</LatitudeDegrees>
              <LongitudeDegrees>37.0822571218013763427734375</LongitudeDegrees>
            </Position>
            <AltitudeMeters>1245.5999755859375</AltitudeMeters>
            <DistanceMeters>NAN</DistanceMeters>
          </Trackpoint>
          <Trackpoint>
            <Time>2021-08-02T05:01:37.000Z</Time>
            <Position>
              <LatitudeDegrees>-15.3383813984692096710205078125</LatitudeDegrees>
              <LongitudeDegrees>37.08215075545012950897216796875</LongitudeDegrees>
            </Position>
            <AltitudeMeters>1245.5999755859375</AltitudeMeters>
            <DistanceMeters>NAN</DistanceMeters>
          </Trackpoint>
          <Trackpoint>
            <Time>2021-08-02T05:01:41.000Z</Time>
            <Position>
              <LatitudeDegrees>-15.3383589349687099456787109375</LatitudeDegrees>
              <LongitudeDegrees>37.0820988714694976806640625</LongitudeDegrees>
            </Position>
            <AltitudeMeters>1245.5999755859375</AltitudeMeters>
            <DistanceMeters>NAN</DistanceMeters>
          </Trackpoint>
          <Trackpoint>
            <Time>2021-08-02T05:01:43.000Z</Time>
            <Position>
              <LatitudeDegrees>-15.33834527246654033660888671875</LatitudeDegrees>
              <LongitudeDegrees>37.0820795930922031402587890625</LongitudeDegrees>
            </Position>
            <AltitudeMeters>1246.199951171875</AltitudeMeters>
            <DistanceMeters>NAN</DistanceMeters>
          </Trackpoint>
          <Trackpoint>
            <Time>2021-08-02T05:01:51.000Z</Time>
            <Position>
              <LatitudeDegrees>-15.33829581923782825469970703125</LatitudeDegrees>
              <LongitudeDegrees>37.08199585787951946258544921875</LongitudeDegrees>
            </Position>
            <AltitudeMeters>1246.4000244140625</AltitudeMeters>
            <DistanceMeters>NAN</DistanceMeters>
          </Trackpoint>
          <Trackpoint>
            <Time>2021-08-02T05:01:55.000Z</Time>
            <Position>
              <LatitudeDegrees>-15.33827587030827999114990234375</LatitudeDegrees>
              <LongitudeDegrees>37.08196199499070644378662109375</LongitudeDegrees>
            </Position>
            <AltitudeMeters>1246.4000244140625</AltitudeMeters>
            <DistanceMeters>NAN</DistanceMeters>
          </Trackpoint>
          <Trackpoint>
            <Time>2021-08-02T05:01:57.000Z</Time>
            <Position>
              <LatitudeDegrees>-15.33825072459876537322998046875</LatitudeDegrees>
              <LongitudeDegrees>37.08192494697868824005126953125</LongitudeDegrees>
            </Position>
            <AltitudeMeters>1246.4000244140625</AltitudeMeters>
            <DistanceMeters>NAN</DistanceMeters>
          </Trackpoint>
          <Trackpoint>
            <Time>2021-08-02T05:01:59.000Z</Time>
            <Position>
              <LatitudeDegrees>-15.3382358886301517486572265625</LatitudeDegrees>
              <LongitudeDegrees>37.08190080709755420684814453125</LongitudeDegrees>
            </Position>
            <AltitudeMeters>1246.4000244140625</AltitudeMeters>
            <DistanceMeters>NAN</DistanceMeters>
          </Trackpoint>
          <Trackpoint>
            <Time>2021-08-02T05:02:02.000Z</Time>
            <Position>
              <LatitudeDegrees>-15.33820345066487789154052734375</LatitudeDegrees>
              <LongitudeDegrees>37.08187884651124477386474609375</LongitudeDegrees>
            </Position>
            <AltitudeMeters>1246.4000244140625</AltitudeMeters>
            <DistanceMeters>NAN</DistanceMeters>
          </Trackpoint>
          <Trackpoint>
            <Time>2021-08-02T05:02:04.000Z</Time>
            <Position>
              <LatitudeDegrees>-15.3381939791142940521240234375</LatitudeDegrees>
              <LongitudeDegrees>37.08187079988420009613037109375</LongitudeDegrees>
            </Position>
            <AltitudeMeters>1246.4000244140625</AltitudeMeters>
            <DistanceMeters>NAN</DistanceMeters>
          </Trackpoint>
          <Trackpoint>
            <Time>2021-08-02T05:02:13.000Z</Time>
            <Position>
              <LatitudeDegrees>-15.33809264190495014190673828125</LatitudeDegrees>
              <LongitudeDegrees>37.0817962847650051116943359375</LongitudeDegrees>
            </Position>
            <AltitudeMeters>1246.800048828125</AltitudeMeters>
            <DistanceMeters>NAN</DistanceMeters>
          </Trackpoint>
          <Trackpoint>
            <Time>2021-08-02T05:02:15.000Z</Time>
            <Position>
              <LatitudeDegrees>-15.33807721920311450958251953125</LatitudeDegrees>
              <LongitudeDegrees>37.08178396336734294891357421875</LongitudeDegrees>
            </Position>
            <AltitudeMeters>1246.800048828125</AltitudeMeters>
            <DistanceMeters>NAN</DistanceMeters>
          </Trackpoint>
          <Trackpoint>
            <Time>2021-08-02T05:02:18.000Z</Time>
            <Position>
              <LatitudeDegrees>-15.3380719386041164398193359375</LatitudeDegrees>
              <LongitudeDegrees>37.08178211934864521026611328125</LongitudeDegrees>
            </Position>
            <AltitudeMeters>1246.800048828125</AltitudeMeters>
            <DistanceMeters>NAN</DistanceMeters>
          </Trackpoint>
          <Trackpoint>
            <Time>2021-08-02T05:02:19.000Z</Time>
            <Position>
              <LatitudeDegrees>-15.338072441518306732177734375</LatitudeDegrees>
              <LongitudeDegrees>37.081782706081867218017578125</LongitudeDegrees>
            </Position>
            <AltitudeMeters>1246.800048828125</AltitudeMeters>
            <DistanceMeters>NAN</DistanceMeters>
          </Trackpoint>
          <Trackpoint>
            <Time>2021-08-02T05:02:20.000Z</Time>
            <Position>
              <LatitudeDegrees>-15.33807386644184589385986328125</LatitudeDegrees>
              <LongitudeDegrees>37.081782035529613494873046875</LongitudeDegrees>
            </Position>
            <AltitudeMeters>1246.800048828125</AltitudeMeters>
            <DistanceMeters>NAN</DistanceMeters>
          </Trackpoint>
          <Trackpoint>
            <Time>2021-08-02T05:02:22.000Z</Time>
            <Position>
              <LatitudeDegrees>-15.33807453699409961700439453125</LatitudeDegrees>
              <LongitudeDegrees>37.08178228698670864105224609375</LongitudeDegrees>
            </Position>
            <AltitudeMeters>1246.800048828125</AltitudeMeters>
            <DistanceMeters>NAN</DistanceMeters>
          </Trackpoint>
          <Trackpoint>
            <Time>2021-08-02T05:02:28.000Z</Time>
            <Position>
              <LatitudeDegrees>-15.33807554282248020172119140625</LatitudeDegrees>
              <LongitudeDegrees>37.081791423261165618896484375</LongitudeDegrees>
            </Position>
            <AltitudeMeters>1247</AltitudeMeters>
            <DistanceMeters>NAN</DistanceMeters>
          </Trackpoint>
          <Trackpoint>
            <Time>2021-08-02T05:02:47.000Z</Time>
            <Position>
              <LatitudeDegrees>-15.3380719386041164398193359375</LatitudeDegrees>
              <LongitudeDegrees>37.0817979611456394195556640625</LongitudeDegrees>
            </Position>
            <AltitudeMeters>1247</AltitudeMeters>
            <DistanceMeters>NAN</DistanceMeters>
          </Trackpoint>
          <Trackpoint>
            <Time>2021-08-02T05:02:55.000Z</Time>
            <Position>
              <LatitudeDegrees>-15.33807277679443359375</LatitudeDegrees>
              <LongitudeDegrees>37.08180055953562259674072265625</LongitudeDegrees>
            </Position>
            <AltitudeMeters>1247.199951171875</AltitudeMeters>
            <DistanceMeters>NAN</DistanceMeters>
          </Trackpoint>
          <Trackpoint>
            <Time>2021-08-02T05:02:58.000Z</Time>
            <Position>
              <LatitudeDegrees>-15.33807277679443359375</LatitudeDegrees>
              <LongitudeDegrees>37.08180055953562259674072265625</LongitudeDegrees>
            </Position>
            <AltitudeMeters>1247.199951171875</AltitudeMeters>
            <DistanceMeters>NAN</DistanceMeters>
          </Trackpoint>
          <Trackpoint>
            <Time>2021-08-02T05:03:04.000Z</Time>
            <Position>
              <LatitudeDegrees>-15.33808157779276371002197265625</LatitudeDegrees>
              <LongitudeDegrees>37.08180055953562259674072265625</LongitudeDegrees>
            </Position>
            <AltitudeMeters>1247.199951171875</AltitudeMeters>
            <DistanceMeters>NAN</DistanceMeters>
          </Trackpoint>
          <Trackpoint>
            <Time>2021-08-02T05:03:05.000Z</Time>
            <Position>
              <LatitudeDegrees>-15.33808283507823944091796875</LatitudeDegrees>
              <LongitudeDegrees>37.08180055953562259674072265625</LongitudeDegrees>
            </Position>
            <AltitudeMeters>1247.199951171875</AltitudeMeters>
            <DistanceMeters>NAN</DistanceMeters>
          </Trackpoint>
          <Trackpoint>
            <Time>2021-08-02T05:03:08.000Z</Time>
            <Position>
              <LatitudeDegrees>-15.33808358944952487945556640625</LatitudeDegrees>
              <LongitudeDegrees>37.08180055953562259674072265625</LongitudeDegrees>
            </Position>
            <AltitudeMeters>1247.4000244140625</AltitudeMeters>
            <DistanceMeters>NAN</DistanceMeters>
          </Trackpoint>
          <Trackpoint>
            <Time>2021-08-02T05:03:11.000Z</Time>
            <Position>
              <LatitudeDegrees>-15.3380836732685565948486328125</LatitudeDegrees>
              <LongitudeDegrees>37.08179871551692485809326171875</LongitudeDegrees>
            </Position>
            <AltitudeMeters>1247.5999755859375</AltitudeMeters>
            <DistanceMeters>NAN</DistanceMeters>
          </Trackpoint>
          <Trackpoint>
            <Time>2021-08-02T05:03:22.000Z</Time>
            <Position>
              <LatitudeDegrees>-15.3380835056304931640625</LatitudeDegrees>
              <LongitudeDegrees>37.08179569803178310394287109375</LongitudeDegrees>
            </Position>
            <AltitudeMeters>1247.800048828125</AltitudeMeters>
            <DistanceMeters>NAN</DistanceMeters>
          </Trackpoint>
          <Trackpoint>
            <Time>2021-08-02T05:03:28.000Z</Time>
            <Position>
              <LatitudeDegrees>-15.3380794823169708251953125</LatitudeDegrees>
              <LongitudeDegrees>37.08179569803178310394287109375</LongitudeDegrees>
            </Position>
            <AltitudeMeters>1247.800048828125</AltitudeMeters>
            <DistanceMeters>NAN</DistanceMeters>
          </Trackpoint>
          <Trackpoint>
            <Time>2021-08-02T05:03:30.000Z</Time>
            <Position>
              <LatitudeDegrees>-15.3380752913653850555419921875</LatitudeDegrees>
              <LongitudeDegrees>37.08179620094597339630126953125</LongitudeDegrees>
            </Position>
            <AltitudeMeters>1247.800048828125</AltitudeMeters>
            <DistanceMeters>NAN</DistanceMeters>
          </Trackpoint>
          <Trackpoint>
            <Time>2021-08-02T05:03:34.000Z</Time>
            <Position>
              <LatitudeDegrees>-15.33802089281380176544189453125</LatitudeDegrees>
              <LongitudeDegrees>37.08179108798503875732421875</LongitudeDegrees>
            </Position>
            <AltitudeMeters>1247.800048828125</AltitudeMeters>
            <DistanceMeters>NAN</DistanceMeters>
          </Trackpoint>
          <Trackpoint>
            <Time>2021-08-02T05:03:38.000Z</Time>
            <Position>
              <LatitudeDegrees>-15.33798535354435443878173828125</LatitudeDegrees>
              <LongitudeDegrees>37.08178765140473842620849609375</LongitudeDegrees>
            </Position>
            <AltitudeMeters>1248.4000244140625</AltitudeMeters>
            <DistanceMeters>NAN</DistanceMeters>
          </Trackpoint>
          <Trackpoint>
            <Time>2021-08-02T05:03:43.000Z</Time>
            <Position>
              <LatitudeDegrees>-15.337939672172069549560546875</LatitudeDegrees>
              <LongitudeDegrees>37.081805169582366943359375</LongitudeDegrees>
            </Position>
            <AltitudeMeters>1249.4000244140625</AltitudeMeters>
            <DistanceMeters>NAN</DistanceMeters>
          </Trackpoint>
          <Trackpoint>
            <Time>2021-08-02T05:03:44.000Z</Time>
            <Position>
              <LatitudeDegrees>-15.33792014233767986297607421875</LatitudeDegrees>
              <LongitudeDegrees>37.08181631751358509063720703125</LongitudeDegrees>
            </Position>
            <AltitudeMeters>1249.4000244140625</AltitudeMeters>
            <DistanceMeters>NAN</DistanceMeters>
          </Trackpoint>
          <Trackpoint>
            <Time>2021-08-02T05:03:51.000Z</Time>
            <Position>
              <LatitudeDegrees>-15.337845124304294586181640625</LatitudeDegrees>
              <LongitudeDegrees>37.08186074160039424896240234375</LongitudeDegrees>
            </Position>
            <AltitudeMeters>1250.199951171875</AltitudeMeters>
            <DistanceMeters>NAN</DistanceMeters>
          </Trackpoint>
          <Trackpoint>
            <Time>2021-08-02T05:03:59.000Z</Time>
            <Position>
              <LatitudeDegrees>-15.3377547673881053924560546875</LatitudeDegrees>
              <LongitudeDegrees>37.08191321231424808502197265625</LongitudeDegrees>
            </Position>
            <AltitudeMeters>1249.4000244140625</AltitudeMeters>
            <DistanceMeters>NAN</DistanceMeters>
          </Trackpoint>
          <Trackpoint>
            <Time>2021-08-02T05:04:01.000Z</Time>
            <Position>
              <LatitudeDegrees>-15.3377326391637325286865234375</LatitudeDegrees>
              <LongitudeDegrees>37.0819300599396228790283203125</LongitudeDegrees>
            </Position>
            <AltitudeMeters>1249.199951171875</AltitudeMeters>
            <DistanceMeters>NAN</DistanceMeters>
          </Trackpoint>
          <Trackpoint>
            <Time>2021-08-02T05:04:04.000Z</Time>
            <Position>
              <LatitudeDegrees>-15.3377001173794269561767578125</LatitudeDegrees>
              <LongitudeDegrees>37.0819541998207569122314453125</LongitudeDegrees>
            </Position>
            <AltitudeMeters>1249</AltitudeMeters>
            <DistanceMeters>NAN</DistanceMeters>
          </Trackpoint>
          <Trackpoint>
            <Time>2021-08-02T05:04:06.000Z</Time>
            <Position>
              <LatitudeDegrees>-15.337678827345371246337890625</LatitudeDegrees>
              <LongitudeDegrees>37.08196953870356082916259765625</LongitudeDegrees>
            </Position>
            <AltitudeMeters>1249.199951171875</AltitudeMeters>
            <DistanceMeters>NAN</DistanceMeters>
          </Trackpoint>
          <Trackpoint>
            <Time>2021-08-02T05:04:15.000Z</Time>
            <Position>
              <LatitudeDegrees>-15.33759609796106815338134765625</LatitudeDegrees>
              <LongitudeDegrees>37.082053609192371368408203125</LongitudeDegrees>
            </Position>
            <AltitudeMeters>1249</AltitudeMeters>
            <DistanceMeters>NAN</DistanceMeters>
          </Trackpoint>
          <Trackpoint>
            <Time>2021-08-02T05:04:30.000Z</Time>
            <Position>
              <LatitudeDegrees>-15.337462909519672393798828125</LatitudeDegrees>
              <LongitudeDegrees>37.08221613429486751556396484375</LongitudeDegrees>
            </Position>
            <AltitudeMeters>1249</AltitudeMeters>
            <DistanceMeters>NAN</DistanceMeters>
          </Trackpoint>
          <Trackpoint>
            <Time>2021-08-02T05:04:38.000Z</Time>
            <Position>
              <LatitudeDegrees>-15.33740230835974216461181640625</LatitudeDegrees>
              <LongitudeDegrees>37.08230364136397838592529296875</LongitudeDegrees>
            </Position>
            <AltitudeMeters>1249</AltitudeMeters>
            <DistanceMeters>NAN</DistanceMeters>
          </Trackpoint>
          <Trackpoint>
            <Time>2021-08-02T05:04:47.000Z</Time>
            <Position>
              <LatitudeDegrees>-15.3373225964605808258056640625</LatitudeDegrees>
              <LongitudeDegrees>37.0824074931442737579345703125</LongitudeDegrees>
            </Position>
            <AltitudeMeters>1249.199951171875</AltitudeMeters>
            <DistanceMeters>NAN</DistanceMeters>
          </Trackpoint>
          <Trackpoint>
            <Time>2021-08-02T05:04:52.000Z</Time>
            <Position>
              <LatitudeDegrees>-15.33727741800248622894287109375</LatitudeDegrees>
              <LongitudeDegrees>37.08245585672557353973388671875</LongitudeDegrees>
            </Position>
            <AltitudeMeters>1249.199951171875</AltitudeMeters>
            <DistanceMeters>NAN</DistanceMeters>
          </Trackpoint>
          <Trackpoint>
            <Time>2021-08-02T05:05:02.000Z</Time>
            <Position>
              <LatitudeDegrees>-15.3371982090175151824951171875</LatitudeDegrees>
              <LongitudeDegrees>37.08255107514560222625732421875</LongitudeDegrees>
            </Position>
            <AltitudeMeters>1249.199951171875</AltitudeMeters>
            <DistanceMeters>NAN</DistanceMeters>
          </Trackpoint>
          <Trackpoint>
            <Time>2021-08-02T05:05:09.000Z</Time>
            <Position>
              <LatitudeDegrees>-15.337147414684295654296875</LatitudeDegrees>
              <LongitudeDegrees>37.0826126821339130401611328125</LongitudeDegrees>
            </Position>
            <AltitudeMeters>1249.800048828125</AltitudeMeters>
            <DistanceMeters>NAN</DistanceMeters>
          </Trackpoint>
          <Trackpoint>
            <Time>2021-08-02T05:05:14.000Z</Time>
            <Position>
              <LatitudeDegrees>-15.337098799645900726318359375</LatitudeDegrees>
              <LongitudeDegrees>37.08267110399901866912841796875</LongitudeDegrees>
            </Position>
            <AltitudeMeters>1250</AltitudeMeters>
            <DistanceMeters>NAN</DistanceMeters>
          </Trackpoint>
          <Trackpoint>
            <Time>2021-08-02T05:05:18.000Z</Time>
            <Position>
              <LatitudeDegrees>-15.3370724804699420928955078125</LatitudeDegrees>
              <LongitudeDegrees>37.08271779119968414306640625</LongitudeDegrees>
            </Position>
            <AltitudeMeters>1250.199951171875</AltitudeMeters>
            <DistanceMeters>NAN</DistanceMeters>
          </Trackpoint>
          <Trackpoint>
            <Time>2021-08-02T05:05:21.000Z</Time>
            <Position>
              <LatitudeDegrees>-15.33705781213939189910888671875</LatitudeDegrees>
              <LongitudeDegrees>37.0827481336891651153564453125</LongitudeDegrees>
            </Position>
            <AltitudeMeters>1250.199951171875</AltitudeMeters>
            <DistanceMeters>NAN</DistanceMeters>
          </Trackpoint>
          <Trackpoint>
            <Time>2021-08-02T05:05:25.000Z</Time>
            <Position>
              <LatitudeDegrees>-15.33702931366860866546630859375</LatitudeDegrees>
              <LongitudeDegrees>37.08278895355761051177978515625</LongitudeDegrees>
            </Position>
            <AltitudeMeters>1250.5999755859375</AltitudeMeters>
            <DistanceMeters>NAN</DistanceMeters>
          </Trackpoint>
          <Trackpoint>
            <Time>2021-08-02T05:05:26.000Z</Time>
            <Position>
              <LatitudeDegrees>-15.33702931366860866546630859375</LatitudeDegrees>
              <LongitudeDegrees>37.08278895355761051177978515625</LongitudeDegrees>
            </Position>
            <AltitudeMeters>1250.5999755859375</AltitudeMeters>
            <DistanceMeters>NAN</DistanceMeters>
          </Trackpoint>
          <Trackpoint>
            <Time>2021-08-02T05:05:38.000Z</Time>
            <Position>
              <LatitudeDegrees>-15.336962677538394927978515625</LatitudeDegrees>
              <LongitudeDegrees>37.082915268838405609130859375</LongitudeDegrees>
            </Position>
            <AltitudeMeters>1251.4000244140625</AltitudeMeters>
            <DistanceMeters>NAN</DistanceMeters>
          </Trackpoint>
          <Trackpoint>
            <Time>2021-08-02T05:05:44.000Z</Time>
            <Position>
              <LatitudeDegrees>-15.33696996979415416717529296875</LatitudeDegrees>
              <LongitudeDegrees>37.08290764130651950836181640625</LongitudeDegrees>
            </Position>
            <AltitudeMeters>1251.4000244140625</AltitudeMeters>
            <DistanceMeters>NAN</DistanceMeters>
          </Trackpoint>
          <Trackpoint>
            <Time>2021-08-02T05:05:46.000Z</Time>
            <Position>
              <LatitudeDegrees>-15.33698086626827716827392578125</LatitudeDegrees>
              <LongitudeDegrees>37.08289221860468387603759765625</LongitudeDegrees>
            </Position>
            <AltitudeMeters>1251.4000244140625</AltitudeMeters>
            <DistanceMeters>NAN</DistanceMeters>
          </Trackpoint>
          <Trackpoint>
            <Time>2021-08-02T05:05:47.000Z</Time>
            <Position>
              <LatitudeDegrees>-15.33698740415275096893310546875</LatitudeDegrees>
              <LongitudeDegrees>37.0828802324831485748291015625</LongitudeDegrees>
            </Position>
            <AltitudeMeters>1251.4000244140625</AltitudeMeters>
            <DistanceMeters>NAN</DistanceMeters>
          </Trackpoint>
          <Trackpoint>
            <Time>2021-08-02T05:05:50.000Z</Time>
            <Position>
              <LatitudeDegrees>-15.3370017372071743011474609375</LatitudeDegrees>
              <LongitudeDegrees>37.08285785280168056488037109375</LongitudeDegrees>
            </Position>
            <AltitudeMeters>1251.199951171875</AltitudeMeters>
            <DistanceMeters>NAN</DistanceMeters>
          </Trackpoint>
          <Trackpoint>
            <Time>2021-08-02T05:05:54.000Z</Time>
            <Position>
              <LatitudeDegrees>-15.33702126704156398773193359375</LatitudeDegrees>
              <LongitudeDegrees>37.0828115008771419525146484375</LongitudeDegrees>
            </Position>
            <AltitudeMeters>1251</AltitudeMeters>
            <DistanceMeters>NAN</DistanceMeters>
          </Trackpoint>
          <Trackpoint>
            <Time>2021-08-02T05:05:58.000Z</Time>
            <Position>
              <LatitudeDegrees>-15.33704750239849090576171875</LatitudeDegrees>
              <LongitudeDegrees>37.08277202211320400238037109375</LongitudeDegrees>
            </Position>
            <AltitudeMeters>1250.5999755859375</AltitudeMeters>
            <DistanceMeters>NAN</DistanceMeters>
          </Trackpoint>
          <Trackpoint>
            <Time>2021-08-02T05:06:06.000Z</Time>
            <Position>
              <LatitudeDegrees>-15.33710340969264507293701171875</LatitudeDegrees>
              <LongitudeDegrees>37.08267227746546268463134765625</LongitudeDegrees>
            </Position>
            <AltitudeMeters>1249.5999755859375</AltitudeMeters>
            <DistanceMeters>NAN</DistanceMeters>
          </Trackpoint>
          <Trackpoint>
            <Time>2021-08-02T05:06:09.000Z</Time>
            <Position>
              <LatitudeDegrees>-15.33712252043187618255615234375</LatitudeDegrees>
              <LongitudeDegrees>37.08264897577464580535888671875</LongitudeDegrees>
            </Position>
            <AltitudeMeters>1249.5999755859375</AltitudeMeters>
            <DistanceMeters>NAN</DistanceMeters>
          </Trackpoint>
          <Trackpoint>
            <Time>2021-08-02T05:06:10.000Z</Time>
            <Position>
              <LatitudeDegrees>-15.33712252043187618255615234375</LatitudeDegrees>
              <LongitudeDegrees>37.08264897577464580535888671875</LongitudeDegrees>
            </Position>
            <AltitudeMeters>1249.5999755859375</AltitudeMeters>
            <DistanceMeters>NAN</DistanceMeters>
          </Trackpoint>
          <Trackpoint>
            <Time>2021-08-02T05:06:11.000Z</Time>
            <Position>
              <LatitudeDegrees>-15.3371177427470684051513671875</LatitudeDegrees>
              <LongitudeDegrees>37.08263707347214221954345703125</LongitudeDegrees>
            </Position>
            <AltitudeMeters>1249.5999755859375</AltitudeMeters>
            <DistanceMeters>NAN</DistanceMeters>
          </Trackpoint>
          <Trackpoint>
            <Time>2021-08-02T05:06:14.000Z</Time>
            <Position>
              <LatitudeDegrees>-15.33709150739014148712158203125</LatitudeDegrees>
              <LongitudeDegrees>37.08263455890119075775146484375</LongitudeDegrees>
            </Position>
            <AltitudeMeters>1249.5999755859375</AltitudeMeters>
            <DistanceMeters>NAN</DistanceMeters>
          </Trackpoint>
          <Trackpoint>
            <Time>2021-08-02T05:06:19.000Z</Time>
            <Position>
              <LatitudeDegrees>-15.337039120495319366455078125</LatitudeDegrees>
              <LongitudeDegrees>37.0826219022274017333984375</LongitudeDegrees>
            </Position>
            <AltitudeMeters>1250.4000244140625</AltitudeMeters>
            <DistanceMeters>NAN</DistanceMeters>
          </Trackpoint>
          <Trackpoint>
            <Time>2021-08-02T05:06:22.000Z</Time>
            <Position>
              <LatitudeDegrees>-15.33702260814607143402099609375</LatitudeDegrees>
              <LongitudeDegrees>37.0826324634253978729248046875</LongitudeDegrees>
            </Position>
            <AltitudeMeters>1250.800048828125</AltitudeMeters>
            <DistanceMeters>NAN</DistanceMeters>
          </Trackpoint>
          <Trackpoint>
            <Time>2021-08-02T05:06:23.000Z</Time>
            <Position>
              <LatitudeDegrees>-15.33700324594974517822265625</LatitudeDegrees>
              <LongitudeDegrees>37.082649730145931243896484375</LongitudeDegrees>
            </Position>
            <AltitudeMeters>1250.800048828125</AltitudeMeters>
            <DistanceMeters>NAN</DistanceMeters>
          </Trackpoint>
          <Trackpoint>
            <Time>2021-08-02T05:06:34.000Z</Time>
            <Position>
              <LatitudeDegrees>-15.33689218573272228240966796875</LatitudeDegrees>
              <LongitudeDegrees>37.0827327109873294830322265625</LongitudeDegrees>
            </Position>
            <AltitudeMeters>1251.800048828125</AltitudeMeters>
            <DistanceMeters>NAN</DistanceMeters>
          </Trackpoint>
          <Trackpoint>
            <Time>2021-08-02T05:06:36.000Z</Time>
            <Position>
              <LatitudeDegrees>-15.33687491901218891143798828125</LatitudeDegrees>
              <LongitudeDegrees>37.08274989388883113861083984375</LongitudeDegrees>
            </Position>
            <AltitudeMeters>1251.800048828125</AltitudeMeters>
            <DistanceMeters>NAN</DistanceMeters>
          </Trackpoint>
          <Trackpoint>
            <Time>2021-08-02T05:06:38.000Z</Time>
            <Position>
              <LatitudeDegrees>-15.33686821348965167999267578125</LatitudeDegrees>
              <LongitudeDegrees>37.082756347954273223876953125</LongitudeDegrees>
            </Position>
            <AltitudeMeters>1252.199951171875</AltitudeMeters>
            <DistanceMeters>NAN</DistanceMeters>
          </Trackpoint>
          <Trackpoint>
            <Time>2021-08-02T05:06:40.000Z</Time>
            <Position>
              <LatitudeDegrees>-15.33684365451335906982421875</LatitudeDegrees>
              <LongitudeDegrees>37.0827716030180454254150390625</LongitudeDegrees>
            </Position>
            <AltitudeMeters>1252.4000244140625</AltitudeMeters>
            <DistanceMeters>NAN</DistanceMeters>
          </Trackpoint>
          <Trackpoint>
            <Time>2021-08-02T05:06:42.000Z</Time>
            <Position>
              <LatitudeDegrees>-15.33682714216411113739013671875</LatitudeDegrees>
              <LongitudeDegrees>37.08278459496796131134033203125</LongitudeDegrees>
            </Position>
            <AltitudeMeters>1252.800048828125</AltitudeMeters>
            <DistanceMeters>NAN</DistanceMeters>
          </Trackpoint>
          <Trackpoint>
            <Time>2021-08-02T05:06:45.000Z</Time>
            <Position>
              <LatitudeDegrees>-15.33679939806461334228515625</LatitudeDegrees>
              <LongitudeDegrees>37.08280052058398723602294921875</LongitudeDegrees>
            </Position>
            <AltitudeMeters>1253</AltitudeMeters>
            <DistanceMeters>NAN</DistanceMeters>
          </Trackpoint>
          <Trackpoint>
            <Time>2021-08-02T05:06:49.000Z</Time>
            <Position>
              <LatitudeDegrees>-15.3367623500525951385498046875</LatitudeDegrees>
              <LongitudeDegrees>37.08282683975994586944580078125</LongitudeDegrees>
            </Position>
            <AltitudeMeters>1254</AltitudeMeters>
            <DistanceMeters>NAN</DistanceMeters>
          </Trackpoint>
          <Trackpoint>
            <Time>2021-08-02T05:06:55.000Z</Time>
            <Position>
              <LatitudeDegrees>-15.33671163953840732574462890625</LatitudeDegrees>
              <LongitudeDegrees>37.08286908455193042755126953125</LongitudeDegrees>
            </Position>
            <AltitudeMeters>1254.4000244140625</AltitudeMeters>
            <DistanceMeters>NAN</DistanceMeters>
          </Trackpoint>
          <Trackpoint>
            <Time>2021-08-02T05:06:56.000Z</Time>
            <Position>
              <LatitudeDegrees>-15.336703173816204071044921875</LatitudeDegrees>
              <LongitudeDegrees>37.082876376807689666748046875</LongitudeDegrees>
            </Position>
            <AltitudeMeters>1254.5999755859375</AltitudeMeters>
            <DistanceMeters>NAN</DistanceMeters>
          </Trackpoint>
          <Trackpoint>
            <Time>2021-08-02T05:06:58.000Z</Time>
            <Position>
              <LatitudeDegrees>-15.33669210970401763916015625</LatitudeDegrees>
              <LongitudeDegrees>37.08288517780601978302001953125</LongitudeDegrees>
            </Position>
            <AltitudeMeters>1255.199951171875</AltitudeMeters>
            <DistanceMeters>NAN</DistanceMeters>
          </Trackpoint>
          <Trackpoint>
            <Time>2021-08-02T05:07:07.000Z</Time>
            <Position>
              <LatitudeDegrees>-15.3366069495677947998046875</LatitudeDegrees>
              <LongitudeDegrees>37.0829519815742969512939453125</LongitudeDegrees>
            </Position>
            <AltitudeMeters>1256.199951171875</AltitudeMeters>
            <DistanceMeters>NAN</DistanceMeters>
          </Trackpoint>
          <Trackpoint>
            <Time>2021-08-02T05:07:11.000Z</Time>
            <Position>
              <LatitudeDegrees>-15.33657669089734554290771484375</LatitudeDegrees>
              <LongitudeDegrees>37.082977630198001861572265625</LongitudeDegrees>
            </Position>
            <AltitudeMeters>1256.5999755859375</AltitudeMeters>
            <DistanceMeters>NAN</DistanceMeters>
          </Trackpoint>
          <Trackpoint>
            <Time>2021-08-02T05:07:12.000Z</Time>
            <Position>
              <LatitudeDegrees>-15.33657669089734554290771484375</LatitudeDegrees>
              <LongitudeDegrees>37.082977630198001861572265625</LongitudeDegrees>
            </Position>
            <AltitudeMeters>1256.800048828125</AltitudeMeters>
            <DistanceMeters>NAN</DistanceMeters>
          </Trackpoint>
          <Trackpoint>
            <Time>2021-08-02T05:07:15.000Z</Time>
            <Position>
              <LatitudeDegrees>-15.33654995262622833251953125</LatitudeDegrees>
              <LongitudeDegrees>37.083003781735897064208984375</LongitudeDegrees>
            </Position>
            <AltitudeMeters>1257.4000244140625</AltitudeMeters>
            <DistanceMeters>NAN</DistanceMeters>
          </Trackpoint>
          <Trackpoint>
            <Time>2021-08-02T05:07:19.000Z</Time>
            <Position>
              <LatitudeDegrees>-15.3365303389728069305419921875</LatitudeDegrees>
              <LongitudeDegrees>37.08302264101803302764892578125</LongitudeDegrees>
            </Position>
            <AltitudeMeters>1257.800048828125</AltitudeMeters>
            <DistanceMeters>NAN</DistanceMeters>
          </Trackpoint>
          <Trackpoint>
            <Time>2021-08-02T05:07:23.000Z</Time>
            <Position>
              <LatitudeDegrees>-15.33648717217147350311279296875</LatitudeDegrees>
              <LongitudeDegrees>37.08305750973522663116455078125</LongitudeDegrees>
            </Position>
            <AltitudeMeters>1258.5999755859375</AltitudeMeters>
            <DistanceMeters>NAN</DistanceMeters>
          </Trackpoint>
          <Trackpoint>
            <Time>2021-08-02T05:07:30.000Z</Time>
            <Position>
              <LatitudeDegrees>-15.336424894630908966064453125</LatitudeDegrees>
              <LongitudeDegrees>37.0831020176410675048828125</LongitudeDegrees>
            </Position>
            <AltitudeMeters>1259.199951171875</AltitudeMeters>
            <DistanceMeters>NAN</DistanceMeters>
          </Trackpoint>
          <Trackpoint>
            <Time>2021-08-02T05:07:31.000Z</Time>
            <Position>
              <LatitudeDegrees>-15.3364190272986888885498046875</LatitudeDegrees>
              <LongitudeDegrees>37.08310897462069988250732421875</LongitudeDegrees>
            </Position>
            <AltitudeMeters>1259.5999755859375</AltitudeMeters>
            <DistanceMeters>NAN</DistanceMeters>
          </Trackpoint>
          <Trackpoint>
            <Time>2021-08-02T05:07:40.000Z</Time>
            <Position>
              <LatitudeDegrees>-15.33635389991104602813720703125</LatitudeDegrees>
              <LongitudeDegrees>37.08315473981201648712158203125</LongitudeDegrees>
            </Position>
            <AltitudeMeters>1260.5999755859375</AltitudeMeters>
            <DistanceMeters>NAN</DistanceMeters>
          </Trackpoint>
          <Trackpoint>
            <Time>2021-08-02T05:07:41.000Z</Time>
            <Position>
              <LatitudeDegrees>-15.336351804435253143310546875</LatitudeDegrees>
              <LongitudeDegrees>37.0831554941833019256591796875</LongitudeDegrees>
            </Position>
            <AltitudeMeters>1260.800048828125</AltitudeMeters>
            <DistanceMeters>NAN</DistanceMeters>
          </Trackpoint>
          <Trackpoint>
            <Time>2021-08-02T05:07:47.000Z</Time>
            <Position>
              <LatitudeDegrees>-15.33630327321588993072509765625</LatitudeDegrees>
              <LongitudeDegrees>37.08313613198697566986083984375</LongitudeDegrees>
            </Position>
            <AltitudeMeters>1261.199951171875</AltitudeMeters>
            <DistanceMeters>NAN</DistanceMeters>
          </Trackpoint>
          <Trackpoint>
            <Time>2021-08-02T05:07:50.000Z</Time>
            <Position>
              <LatitudeDegrees>-15.336273349821567535400390625</LatitudeDegrees>
              <LongitudeDegrees>37.083125151693820953369140625</LongitudeDegrees>
            </Position>
            <AltitudeMeters>1261.800048828125</AltitudeMeters>
            <DistanceMeters>NAN</DistanceMeters>
          </Trackpoint>
          <Trackpoint>
            <Time>2021-08-02T05:07:53.000Z</Time>
            <Position>
              <LatitudeDegrees>-15.33623747527599334716796875</LatitudeDegrees>
              <LongitudeDegrees>37.08311132155358791351318359375</LongitudeDegrees>
            </Position>
            <AltitudeMeters>1262</AltitudeMeters>
            <DistanceMeters>NAN</DistanceMeters>
          </Trackpoint>
          <Trackpoint>
            <Time>2021-08-02T05:07:55.000Z</Time>
            <Position>
              <LatitudeDegrees>-15.33621341921389102935791015625</LatitudeDegrees>
              <LongitudeDegrees>37.0831075496971607208251953125</LongitudeDegrees>
            </Position>
            <AltitudeMeters>1262.4000244140625</AltitudeMeters>
            <DistanceMeters>NAN</DistanceMeters>
          </Trackpoint>
          <Trackpoint>
            <Time>2021-08-02T05:07:58.000Z</Time>
            <Position>
              <LatitudeDegrees>-15.336183495819568634033203125</LatitudeDegrees>
              <LongitudeDegrees>37.08309573121368885040283203125</LongitudeDegrees>
            </Position>
            <AltitudeMeters>1262.5999755859375</AltitudeMeters>
            <DistanceMeters>NAN</DistanceMeters>
          </Trackpoint>
          <Trackpoint>
            <Time>2021-08-02T05:08:02.000Z</Time>
            <Position>
              <LatitudeDegrees>-15.33613529987633228302001953125</LatitudeDegrees>
              <LongitudeDegrees>37.083082236349582672119140625</LongitudeDegrees>
            </Position>
            <AltitudeMeters>1262.800048828125</AltitudeMeters>
            <DistanceMeters>NAN</DistanceMeters>
          </Trackpoint>
          <Trackpoint>
            <Time>2021-08-02T05:08:03.000Z</Time>
            <Position>
              <LatitudeDegrees>-15.336122810840606689453125</LatitudeDegrees>
              <LongitudeDegrees>37.08307997323572635650634765625</LongitudeDegrees>
            </Position>
            <AltitudeMeters>1263</AltitudeMeters>
            <DistanceMeters>NAN</DistanceMeters>
          </Trackpoint>
          <Trackpoint>
            <Time>2021-08-02T05:08:06.000Z</Time>
            <Position>
              <LatitudeDegrees>-15.33609322272241115570068359375</LatitudeDegrees>
              <LongitudeDegrees>37.08306790329515933990478515625</LongitudeDegrees>
            </Position>
            <AltitudeMeters>1263.199951171875</AltitudeMeters>
            <DistanceMeters>NAN</DistanceMeters>
          </Trackpoint>
          <Trackpoint>
            <Time>2021-08-02T05:08:07.000Z</Time>
            <Position>
              <LatitudeDegrees>-15.33608299680054187774658203125</LatitudeDegrees>
              <LongitudeDegrees>37.08306253887712955474853515625</LongitudeDegrees>
            </Position>
            <AltitudeMeters>1263.199951171875</AltitudeMeters>
            <DistanceMeters>NAN</DistanceMeters>
          </Trackpoint>
          <Trackpoint>
            <Time>2021-08-02T05:08:12.000Z</Time>
            <Position>
              <LatitudeDegrees>-15.336028598248958587646484375</LatitudeDegrees>
              <LongitudeDegrees>37.08305147476494312286376953125</LongitudeDegrees>
            </Position>
            <AltitudeMeters>1263.800048828125</AltitudeMeters>
            <DistanceMeters>NAN</DistanceMeters>
          </Trackpoint>
          <Trackpoint>
            <Time>2021-08-02T05:08:15.000Z</Time>
            <Position>
              <LatitudeDegrees>-15.3359995968639850616455078125</LatitudeDegrees>
              <LongitudeDegrees>37.08305382169783115386962890625</LongitudeDegrees>
            </Position>
            <AltitudeMeters>1264</AltitudeMeters>
            <DistanceMeters>NAN</DistanceMeters>
          </Trackpoint>
          <Trackpoint>
            <Time>2021-08-02T05:08:16.000Z</Time>
            <Position>
              <LatitudeDegrees>-15.3359995968639850616455078125</LatitudeDegrees>
              <LongitudeDegrees>37.08305382169783115386962890625</LongitudeDegrees>
            </Position>
            <AltitudeMeters>1264</AltitudeMeters>
            <DistanceMeters>NAN</DistanceMeters>
          </Trackpoint>
          <Trackpoint>
            <Time>2021-08-02T05:08:17.000Z</Time>
            <Position>
              <LatitudeDegrees>-15.33599213697016239166259765625</LatitudeDegrees>
              <LongitudeDegrees>37.08305130712687969207763671875</LongitudeDegrees>
            </Position>
            <AltitudeMeters>1264</AltitudeMeters>
            <DistanceMeters>NAN</DistanceMeters>
          </Trackpoint>
          <Trackpoint>
            <Time>2021-08-02T05:08:20.000Z</Time>
            <Position>
              <LatitudeDegrees>-15.33597889356315135955810546875</LatitudeDegrees>
              <LongitudeDegrees>37.08302565850317478179931640625</LongitudeDegrees>
            </Position>
            <AltitudeMeters>1264.4000244140625</AltitudeMeters>
            <DistanceMeters>NAN</DistanceMeters>
          </Trackpoint>
          <Trackpoint>
            <Time>2021-08-02T05:08:28.000Z</Time>
            <Position>
              <LatitudeDegrees>-15.3359016962349414825439453125</LatitudeDegrees>
              <LongitudeDegrees>37.08295290358364582061767578125</LongitudeDegrees>
            </Position>
            <AltitudeMeters>1264.800048828125</AltitudeMeters>
            <DistanceMeters>NAN</DistanceMeters>
          </Trackpoint>
          <Trackpoint>
            <Time>2021-08-02T05:08:34.000Z</Time>
            <Position>
              <LatitudeDegrees>-15.335887111723423004150390625</LatitudeDegrees>
              <LongitudeDegrees>37.08293178118765354156494140625</LongitudeDegrees>
            </Position>
            <AltitudeMeters>1265</AltitudeMeters>
            <DistanceMeters>NAN</DistanceMeters>
          </Trackpoint>
          <Trackpoint>
            <Time>2021-08-02T05:08:35.000Z</Time>
            <Position>
              <LatitudeDegrees>-15.335887111723423004150390625</LatitudeDegrees>
              <LongitudeDegrees>37.08293178118765354156494140625</LongitudeDegrees>
            </Position>
            <AltitudeMeters>1265</AltitudeMeters>
            <DistanceMeters>NAN</DistanceMeters>
          </Trackpoint>
          <Trackpoint>
            <Time>2021-08-02T05:08:36.000Z</Time>
            <Position>
              <LatitudeDegrees>-15.33588803373277187347412109375</LatitudeDegrees>
              <LongitudeDegrees>37.08293228410184383392333984375</LongitudeDegrees>
            </Position>
            <AltitudeMeters>1265</AltitudeMeters>
            <DistanceMeters>NAN</DistanceMeters>
          </Trackpoint>
          <Trackpoint>
            <Time>2021-08-02T05:08:39.000Z</Time>
            <Position>
              <LatitudeDegrees>-15.33588535152375698089599609375</LatitudeDegrees>
              <LongitudeDegrees>37.08293370902538299560546875</LongitudeDegrees>
            </Position>
            <AltitudeMeters>1265</AltitudeMeters>
            <DistanceMeters>NAN</DistanceMeters>
          </Trackpoint>
          <Trackpoint>
            <Time>2021-08-02T05:08:42.000Z</Time>
            <Position>
              <LatitudeDegrees>-15.3358644805848598480224609375</LatitudeDegrees>
              <LongitudeDegrees>37.0829570107161998748779296875</LongitudeDegrees>
            </Position>
            <AltitudeMeters>1264.800048828125</AltitudeMeters>
            <DistanceMeters>NAN</DistanceMeters>
          </Trackpoint>
          <Trackpoint>
            <Time>2021-08-02T05:08:44.000Z</Time>
            <Position>
              <LatitudeDegrees>-15.33586355857551097869873046875</LatitudeDegrees>
              <LongitudeDegrees>37.082981653511524200439453125</LongitudeDegrees>
            </Position>
            <AltitudeMeters>1264.800048828125</AltitudeMeters>
            <DistanceMeters>NAN</DistanceMeters>
          </Trackpoint>
          <Trackpoint>
            <Time>2021-08-02T05:08:46.000Z</Time>
            <Position>
              <LatitudeDegrees>-15.3358617983758449554443359375</LatitudeDegrees>
              <LongitudeDegrees>37.0830036140978336334228515625</LongitudeDegrees>
            </Position>
            <AltitudeMeters>1264.800048828125</AltitudeMeters>
            <DistanceMeters>NAN</DistanceMeters>
          </Trackpoint>
          <Trackpoint>
            <Time>2021-08-02T05:08:52.000Z</Time>
            <Position>
              <LatitudeDegrees>-15.33586188219487667083740234375</LatitudeDegrees>
              <LongitudeDegrees>37.08308768458664417266845703125</LongitudeDegrees>
            </Position>
            <AltitudeMeters>1264.800048828125</AltitudeMeters>
            <DistanceMeters>NAN</DistanceMeters>
          </Trackpoint>
          <Trackpoint>
            <Time>2021-08-02T05:08:54.000Z</Time>
            <Position>
              <LatitudeDegrees>-15.33585526049137115478515625</LatitudeDegrees>
              <LongitudeDegrees>37.083113081753253936767578125</LongitudeDegrees>
            </Position>
            <AltitudeMeters>1264.800048828125</AltitudeMeters>
            <DistanceMeters>NAN</DistanceMeters>
          </Trackpoint>
          <Trackpoint>
            <Time>2021-08-02T05:08:59.000Z</Time>
            <Position>
              <LatitudeDegrees>-15.335854254662990570068359375</LatitudeDegrees>
              <LongitudeDegrees>37.08317376673221588134765625</LongitudeDegrees>
            </Position>
            <AltitudeMeters>1264.800048828125</AltitudeMeters>
            <DistanceMeters>NAN</DistanceMeters>
          </Trackpoint>
          <Trackpoint>
            <Time>2021-08-02T05:09:03.000Z</Time>
            <Position>
              <LatitudeDegrees>-15.33585350029170513153076171875</LatitudeDegrees>
              <LongitudeDegrees>37.08321291022002696990966796875</LongitudeDegrees>
            </Position>
            <AltitudeMeters>1264.800048828125</AltitudeMeters>
            <DistanceMeters>NAN</DistanceMeters>
          </Trackpoint>
          <Trackpoint>
            <Time>2021-08-02T05:09:07.000Z</Time>
            <Position>
              <LatitudeDegrees>-15.3358478844165802001953125</LatitudeDegrees>
              <LongitudeDegrees>37.08328315056860446929931640625</LongitudeDegrees>
            </Position>
            <AltitudeMeters>1264.4000244140625</AltitudeMeters>
            <DistanceMeters>NAN</DistanceMeters>
          </Trackpoint>
          <Trackpoint>
            <Time>2021-08-02T05:09:15.000Z</Time>
            <Position>
              <LatitudeDegrees>-15.33583187498152256011962890625</LatitudeDegrees>
              <LongitudeDegrees>37.08337417803704738616943359375</LongitudeDegrees>
            </Position>
            <AltitudeMeters>1264.5999755859375</AltitudeMeters>
            <DistanceMeters>NAN</DistanceMeters>
          </Trackpoint>
          <Trackpoint>
            <Time>2021-08-02T05:09:19.000Z</Time>
            <Position>
              <LatitudeDegrees>-15.335826091468334197998046875</LatitudeDegrees>
              <LongitudeDegrees>37.08342279307544231414794921875</LongitudeDegrees>
            </Position>
            <AltitudeMeters>1264.5999755859375</AltitudeMeters>
            <DistanceMeters>NAN</DistanceMeters>
          </Trackpoint>
          <Trackpoint>
            <Time>2021-08-02T05:09:27.000Z</Time>
            <Position>
              <LatitudeDegrees>-15.3358178772032260894775390625</LatitudeDegrees>
              <LongitudeDegrees>37.0835326798260211944580078125</LongitudeDegrees>
            </Position>
            <AltitudeMeters>1264.5999755859375</AltitudeMeters>
            <DistanceMeters>NAN</DistanceMeters>
          </Trackpoint>
          <Trackpoint>
            <Time>2021-08-02T05:09:37.000Z</Time>
            <Position>
              <LatitudeDegrees>-15.33581326715648174285888671875</LatitudeDegrees>
              <LongitudeDegrees>37.083650194108486175537109375</LongitudeDegrees>
            </Position>
            <AltitudeMeters>1264.4000244140625</AltitudeMeters>
            <DistanceMeters>NAN</DistanceMeters>
          </Trackpoint>
          <Trackpoint>
            <Time>2021-08-02T05:09:38.000Z</Time>
            <Position>
              <LatitudeDegrees>-15.335814021527767181396484375</LatitudeDegrees>
              <LongitudeDegrees>37.0836647786200046539306640625</LongitudeDegrees>
            </Position>
            <AltitudeMeters>1264.4000244140625</AltitudeMeters>
            <DistanceMeters>NAN</DistanceMeters>
          </Trackpoint>
          <Trackpoint>
            <Time>2021-08-02T05:09:50.000Z</Time>
            <Position>
              <LatitudeDegrees>-15.33578845672309398651123046875</LatitudeDegrees>
              <LongitudeDegrees>37.08383903838694095611572265625</LongitudeDegrees>
            </Position>
            <AltitudeMeters>1264.800048828125</AltitudeMeters>
            <DistanceMeters>NAN</DistanceMeters>
          </Trackpoint>
          <Trackpoint>
            <Time>2021-08-02T05:10:02.000Z</Time>
            <Position>
              <LatitudeDegrees>-15.335765071213245391845703125</LatitudeDegrees>
              <LongitudeDegrees>37.0840003900229930877685546875</LongitudeDegrees>
            </Position>
            <AltitudeMeters>1264.4000244140625</AltitudeMeters>
            <DistanceMeters>NAN</DistanceMeters>
          </Trackpoint>
          <Trackpoint>
            <Time>2021-08-02T05:10:13.000Z</Time>
            <Position>
              <LatitudeDegrees>-15.3358232416212558746337890625</LatitudeDegrees>
              <LongitudeDegrees>37.0841288007795810699462890625</LongitudeDegrees>
            </Position>
            <AltitudeMeters>1264.199951171875</AltitudeMeters>
            <DistanceMeters>NAN</DistanceMeters>
          </Trackpoint>
          <Trackpoint>
            <Time>2021-08-02T05:10:23.000Z</Time>
            <Position>
              <LatitudeDegrees>-15.33593304455280303955078125</LatitudeDegrees>
              <LongitudeDegrees>37.084189988672733306884765625</LongitudeDegrees>
            </Position>
            <AltitudeMeters>1264.199951171875</AltitudeMeters>
            <DistanceMeters>NAN</DistanceMeters>
          </Trackpoint>
          <Trackpoint>
            <Time>2021-08-02T05:10:25.000Z</Time>
            <Position>
              <LatitudeDegrees>-15.3359524905681610107421875</LatitudeDegrees>
              <LongitudeDegrees>37.08419912494719028472900390625</LongitudeDegrees>
            </Position>
            <AltitudeMeters>1264</AltitudeMeters>
            <DistanceMeters>NAN</DistanceMeters>
          </Trackpoint>
          <Trackpoint>
            <Time>2021-08-02T05:10:32.000Z</Time>
            <Position>
              <LatitudeDegrees>-15.33597805537283420562744140625</LatitudeDegrees>
              <LongitudeDegrees>37.08422251045703887939453125</LongitudeDegrees>
            </Position>
            <AltitudeMeters>1264</AltitudeMeters>
            <DistanceMeters>NAN</DistanceMeters>
          </Trackpoint>
          <Trackpoint>
            <Time>2021-08-02T05:10:33.000Z</Time>
            <Position>
              <LatitudeDegrees>-15.33597788773477077484130859375</LatitudeDegrees>
              <LongitudeDegrees>37.08422108553349971771240234375</LongitudeDegrees>
            </Position>
            <AltitudeMeters>1263.800048828125</AltitudeMeters>
            <DistanceMeters>NAN</DistanceMeters>
          </Trackpoint>
          <Trackpoint>
            <Time>2021-08-02T05:10:46.000Z</Time>
            <Position>
              <LatitudeDegrees>-15.33598073758184909820556640625</LatitudeDegrees>
              <LongitudeDegrees>37.08422779105603694915771484375</LongitudeDegrees>
            </Position>
            <AltitudeMeters>1263.800048828125</AltitudeMeters>
            <DistanceMeters>NAN</DistanceMeters>
          </Trackpoint>
          <Trackpoint>
            <Time>2021-08-02T05:11:55.000Z</Time>
            <Position>
              <LatitudeDegrees>-15.3359912149608135223388671875</LatitudeDegrees>
              <LongitudeDegrees>37.08419912494719028472900390625</LongitudeDegrees>
            </Position>
            <AltitudeMeters>1263.800048828125</AltitudeMeters>
            <DistanceMeters>NAN</DistanceMeters>
          </Trackpoint>
          <Trackpoint>
            <Time>2021-08-02T05:12:04.000Z</Time>
            <Position>
              <LatitudeDegrees>-15.3359912149608135223388671875</LatitudeDegrees>
              <LongitudeDegrees>37.08420046605169773101806640625</LongitudeDegrees>
            </Position>
            <AltitudeMeters>1263.800048828125</AltitudeMeters>
            <DistanceMeters>NAN</DistanceMeters>
          </Trackpoint>
          <Trackpoint>
            <Time>2021-08-02T05:12:09.000Z</Time>
            <Position>
              <LatitudeDegrees>-15.33599263988435268402099609375</LatitudeDegrees>
              <LongitudeDegrees>37.08420180715620517730712890625</LongitudeDegrees>
            </Position>
            <AltitudeMeters>1263.800048828125</AltitudeMeters>
            <DistanceMeters>NAN</DistanceMeters>
          </Trackpoint>
          <Trackpoint>
            <Time>2021-08-02T05:12:21.000Z</Time>
            <Position>
              <LatitudeDegrees>-15.33599331043660640716552734375</LatitudeDegrees>
              <LongitudeDegrees>37.084202058613300323486328125</LongitudeDegrees>
            </Position>
            <AltitudeMeters>1263.800048828125</AltitudeMeters>
            <DistanceMeters>NAN</DistanceMeters>
          </Trackpoint>
          <Trackpoint>
            <Time>2021-08-02T05:12:28.000Z</Time>
            <Position>
              <LatitudeDegrees>-15.33599331043660640716552734375</LatitudeDegrees>
              <LongitudeDegrees>37.084204740822315216064453125</LongitudeDegrees>
            </Position>
            <AltitudeMeters>1263.800048828125</AltitudeMeters>
            <DistanceMeters>NAN</DistanceMeters>
          </Trackpoint>
          <Trackpoint>
            <Time>2021-08-02T05:12:56.000Z</Time>
            <Position>
              <LatitudeDegrees>-15.33598861657083034515380859375</LatitudeDegrees>
              <LongitudeDegrees>37.0842012204229831695556640625</LongitudeDegrees>
            </Position>
            <AltitudeMeters>1263.800048828125</AltitudeMeters>
            <DistanceMeters>NAN</DistanceMeters>
          </Trackpoint>
          <Trackpoint>
            <Time>2021-08-02T05:12:58.000Z</Time>
            <Position>
              <LatitudeDegrees>-15.33598794601857662200927734375</LatitudeDegrees>
              <LongitudeDegrees>37.08419837057590484619140625</LongitudeDegrees>
            </Position>
            <AltitudeMeters>1263.800048828125</AltitudeMeters>
            <DistanceMeters>NAN</DistanceMeters>
          </Trackpoint>
          <Trackpoint>
            <Time>2021-08-02T05:13:08.000Z</Time>
            <Position>
              <LatitudeDegrees>-15.33598476089537143707275390625</LatitudeDegrees>
              <LongitudeDegrees>37.08419593982398509979248046875</LongitudeDegrees>
            </Position>
            <AltitudeMeters>1263.800048828125</AltitudeMeters>
            <DistanceMeters>NAN</DistanceMeters>
          </Trackpoint>
          <Trackpoint>
            <Time>2021-08-02T05:13:10.000Z</Time>
            <Position>
              <LatitudeDegrees>-15.33598291687667369842529296875</LatitudeDegrees>
              <LongitudeDegrees>37.08419560454785823822021484375</LongitudeDegrees>
            </Position>
            <AltitudeMeters>1263.800048828125</AltitudeMeters>
            <DistanceMeters>NAN</DistanceMeters>
          </Trackpoint>
          <Trackpoint>
            <Time>2021-08-02T05:13:13.000Z</Time>
            <Position>
              <LatitudeDegrees>-15.3359818272292613983154296875</LatitudeDegrees>
              <LongitudeDegrees>37.08419510163366794586181640625</LongitudeDegrees>
            </Position>
            <AltitudeMeters>1263.800048828125</AltitudeMeters>
            <DistanceMeters>NAN</DistanceMeters>
          </Trackpoint>
          <Trackpoint>
            <Time>2021-08-02T05:13:34.000Z</Time>
            <Position>
              <LatitudeDegrees>-15.3359804861247539520263671875</LatitudeDegrees>
              <LongitudeDegrees>37.08419040776789188385009765625</LongitudeDegrees>
            </Position>
            <AltitudeMeters>1263.800048828125</AltitudeMeters>
            <DistanceMeters>NAN</DistanceMeters>
          </Trackpoint>
          <Trackpoint>
            <Time>2021-08-02T05:13:39.000Z</Time>
            <Position>
              <LatitudeDegrees>-15.3359811566770076751708984375</LatitudeDegrees>
              <LongitudeDegrees>37.0841898210346698760986328125</LongitudeDegrees>
            </Position>
            <AltitudeMeters>1263.800048828125</AltitudeMeters>
            <DistanceMeters>NAN</DistanceMeters>
          </Trackpoint>
          <Trackpoint>
            <Time>2021-08-02T05:13:40.000Z</Time>
            <Position>
              <LatitudeDegrees>-15.33598140813410282135009765625</LatitudeDegrees>
              <LongitudeDegrees>37.08418973721563816070556640625</LongitudeDegrees>
            </Position>
            <AltitudeMeters>1263.800048828125</AltitudeMeters>
            <DistanceMeters>NAN</DistanceMeters>
          </Trackpoint>
          <Trackpoint>
            <Time>2021-08-02T05:13:47.000Z</Time>
            <Position>
              <LatitudeDegrees>-15.33598325215280055999755859375</LatitudeDegrees>
              <LongitudeDegrees>37.08419024012982845306396484375</LongitudeDegrees>
            </Position>
            <AltitudeMeters>1263.800048828125</AltitudeMeters>
            <DistanceMeters>NAN</DistanceMeters>
          </Trackpoint>
          <Trackpoint>
            <Time>2021-08-02T05:13:50.000Z</Time>
            <Position>
              <LatitudeDegrees>-15.335983671247959136962890625</LatitudeDegrees>
              <LongitudeDegrees>37.0841904915869235992431640625</LongitudeDegrees>
            </Position>
            <AltitudeMeters>1263.800048828125</AltitudeMeters>
            <DistanceMeters>NAN</DistanceMeters>
          </Trackpoint>
          <Trackpoint>
            <Time>2021-08-02T05:14:14.000Z</Time>
            <Position>
              <LatitudeDegrees>-15.3359845094382762908935546875</LatitudeDegrees>
              <LongitudeDegrees>37.08419308997690677642822265625</LongitudeDegrees>
            </Position>
            <AltitudeMeters>1263.800048828125</AltitudeMeters>
            <DistanceMeters>NAN</DistanceMeters>
          </Trackpoint>
          <Trackpoint>
            <Time>2021-08-02T05:14:18.000Z</Time>
            <Position>
              <LatitudeDegrees>-15.3359845094382762908935546875</LatitudeDegrees>
              <LongitudeDegrees>37.08419325761497020721435546875</LongitudeDegrees>
            </Position>
            <AltitudeMeters>1263.800048828125</AltitudeMeters>
            <DistanceMeters>NAN</DistanceMeters>
          </Trackpoint>
          <Trackpoint>
            <Time>2021-08-02T05:14:31.000Z</Time>
            <Position>
              <LatitudeDegrees>-15.33598442561924457550048828125</LatitudeDegrees>
              <LongitudeDegrees>37.0841936767101287841796875</LongitudeDegrees>
            </Position>
            <AltitudeMeters>1263.800048828125</AltitudeMeters>
            <DistanceMeters>NAN</DistanceMeters>
          </Trackpoint>
          <Trackpoint>
            <Time>2021-08-02T05:14:56.000Z</Time>
            <Position>
              <LatitudeDegrees>-15.3359841741621494293212890625</LatitudeDegrees>
              <LongitudeDegrees>37.08419459871947765350341796875</LongitudeDegrees>
            </Position>
            <AltitudeMeters>1263.800048828125</AltitudeMeters>
            <DistanceMeters>NAN</DistanceMeters>
          </Trackpoint>
          <Trackpoint>
            <Time>2021-08-02T05:15:59.000Z</Time>
            <Position>
              <LatitudeDegrees>-15.33598308451473712921142578125</LatitudeDegrees>
              <LongitudeDegrees>37.084196694195270538330078125</LongitudeDegrees>
            </Position>
            <AltitudeMeters>1263.800048828125</AltitudeMeters>
            <DistanceMeters>NAN</DistanceMeters>
          </Trackpoint>
          <Trackpoint>
            <Time>2021-08-02T05:16:04.000Z</Time>
            <Position>
              <LatitudeDegrees>-15.33598308451473712921142578125</LatitudeDegrees>
              <LongitudeDegrees>37.0841968618333339691162109375</LongitudeDegrees>
            </Position>
            <AltitudeMeters>1263.800048828125</AltitudeMeters>
            <DistanceMeters>NAN</DistanceMeters>
          </Trackpoint>
          <Trackpoint>
            <Time>2021-08-02T05:16:31.000Z</Time>
            <Position>
              <LatitudeDegrees>-15.3359415940940380096435546875</LatitudeDegrees>
              <LongitudeDegrees>37.08429836668074131011962890625</LongitudeDegrees>
            </Position>
            <AltitudeMeters>1263.800048828125</AltitudeMeters>
            <DistanceMeters>NAN</DistanceMeters>
          </Trackpoint>
          <Trackpoint>
            <Time>2021-08-02T05:16:34.000Z</Time>
            <Position>
              <LatitudeDegrees>-15.335931368172168731689453125</LatitudeDegrees>
              <LongitudeDegrees>37.08434455096721649169921875</LongitudeDegrees>
            </Position>
            <AltitudeMeters>1263.800048828125</AltitudeMeters>
            <DistanceMeters>NAN</DistanceMeters>
          </Trackpoint>
          <Trackpoint>
            <Time>2021-08-02T05:16:41.000Z</Time>
            <Position>
              <LatitudeDegrees>-15.3359503112733364105224609375</LatitudeDegrees>
              <LongitudeDegrees>37.08444471471011638641357421875</LongitudeDegrees>
            </Position>
            <AltitudeMeters>1264</AltitudeMeters>
            <DistanceMeters>NAN</DistanceMeters>
          </Trackpoint>
          <Trackpoint>
            <Time>2021-08-02T05:16:42.000Z</Time>
            <Position>
              <LatitudeDegrees>-15.3359503112733364105224609375</LatitudeDegrees>
              <LongitudeDegrees>37.08444471471011638641357421875</LongitudeDegrees>
            </Position>
            <AltitudeMeters>1264</AltitudeMeters>
            <DistanceMeters>NAN</DistanceMeters>
          </Trackpoint>
          <Trackpoint>
            <Time>2021-08-02T05:16:48.000Z</Time>
            <Position>
              <LatitudeDegrees>-15.33596196211874485015869140625</LatitudeDegrees>
              <LongitudeDegrees>37.0844476483762264251708984375</LongitudeDegrees>
            </Position>
            <AltitudeMeters>1263.800048828125</AltitudeMeters>
            <DistanceMeters>NAN</DistanceMeters>
          </Trackpoint>
          <Trackpoint>
            <Time>2021-08-02T05:16:54.000Z</Time>
            <Position>
              <LatitudeDegrees>-15.33591301180422306060791015625</LatitudeDegrees>
              <LongitudeDegrees>37.08443951793015003204345703125</LongitudeDegrees>
            </Position>
            <AltitudeMeters>1264</AltitudeMeters>
            <DistanceMeters>NAN</DistanceMeters>
          </Trackpoint>
          <Trackpoint>
            <Time>2021-08-02T05:16:55.000Z</Time>
            <Position>
              <LatitudeDegrees>-15.33590488135814666748046875</LatitudeDegrees>
              <LongitudeDegrees>37.08444756455719470977783203125</LongitudeDegrees>
            </Position>
            <AltitudeMeters>1264</AltitudeMeters>
            <DistanceMeters>NAN</DistanceMeters>
          </Trackpoint>
          <Trackpoint>
            <Time>2021-08-02T05:17:05.000Z</Time>
            <Position>
              <LatitudeDegrees>-15.3358892910182476043701171875</LatitudeDegrees>
              <LongitudeDegrees>37.084503136575222015380859375</LongitudeDegrees>
            </Position>
            <AltitudeMeters>1264</AltitudeMeters>
            <DistanceMeters>NAN</DistanceMeters>
          </Trackpoint>
          <Trackpoint>
            <Time>2021-08-02T05:17:11.000Z</Time>
            <Position>
              <LatitudeDegrees>-15.33591401763260364532470703125</LatitudeDegrees>
              <LongitudeDegrees>37.08447908051311969757080078125</LongitudeDegrees>
            </Position>
            <AltitudeMeters>1264</AltitudeMeters>
            <DistanceMeters>NAN</DistanceMeters>
          </Trackpoint>
          <Trackpoint>
            <Time>2021-08-02T05:17:17.000Z</Time>
            <Position>
              <LatitudeDegrees>-15.33593438565731048583984375</LatitudeDegrees>
              <LongitudeDegrees>37.08442174829542636871337890625</LongitudeDegrees>
            </Position>
            <AltitudeMeters>1263.5999755859375</AltitudeMeters>
            <DistanceMeters>NAN</DistanceMeters>
          </Trackpoint>
          <Trackpoint>
            <Time>2021-08-02T05:17:18.000Z</Time>
            <Position>
              <LatitudeDegrees>-15.335938744246959686279296875</LatitudeDegrees>
              <LongitudeDegrees>37.08441236056387424468994140625</LongitudeDegrees>
            </Position>
            <AltitudeMeters>1263.5999755859375</AltitudeMeters>
            <DistanceMeters>NAN</DistanceMeters>
          </Trackpoint>
          <Trackpoint>
            <Time>2021-08-02T05:17:20.000Z</Time>
            <Position>
              <LatitudeDegrees>-15.3359452821314334869384765625</LatitudeDegrees>
              <LongitudeDegrees>37.08439123816788196563720703125</LongitudeDegrees>
            </Position>
            <AltitudeMeters>1263.5999755859375</AltitudeMeters>
            <DistanceMeters>NAN</DistanceMeters>
          </Trackpoint>
          <Trackpoint>
            <Time>2021-08-02T05:17:28.000Z</Time>
            <Position>
              <LatitudeDegrees>-15.33596925437450408935546875</LatitudeDegrees>
              <LongitudeDegrees>37.08432711660861968994140625</LongitudeDegrees>
            </Position>
            <AltitudeMeters>1264</AltitudeMeters>
            <DistanceMeters>NAN</DistanceMeters>
          </Trackpoint>
          <Trackpoint>
            <Time>2021-08-02T05:17:34.000Z</Time>
            <Position>
              <LatitudeDegrees>-15.3359841741621494293212890625</LatitudeDegrees>
              <LongitudeDegrees>37.0843014679849147796630859375</LongitudeDegrees>
            </Position>
            <AltitudeMeters>1264.199951171875</AltitudeMeters>
            <DistanceMeters>NAN</DistanceMeters>
          </Trackpoint>
          <Trackpoint>
            <Time>2021-08-02T05:17:35.000Z</Time>
            <Position>
              <LatitudeDegrees>-15.3359885327517986297607421875</LatitudeDegrees>
              <LongitudeDegrees>37.08429685793817043304443359375</LongitudeDegrees>
            </Position>
            <AltitudeMeters>1264.199951171875</AltitudeMeters>
            <DistanceMeters>NAN</DistanceMeters>
          </Trackpoint>
          <Trackpoint>
            <Time>2021-08-02T05:17:38.000Z</Time>
            <Position>
              <LatitudeDegrees>-15.33599331043660640716552734375</LatitudeDegrees>
              <LongitudeDegrees>37.084279842674732208251953125</LongitudeDegrees>
            </Position>
            <AltitudeMeters>1264.199951171875</AltitudeMeters>
            <DistanceMeters>NAN</DistanceMeters>
          </Trackpoint>
          <Trackpoint>
            <Time>2021-08-02T05:17:45.000Z</Time>
            <Position>
              <LatitudeDegrees>-15.33599884249269962310791015625</LatitudeDegrees>
              <LongitudeDegrees>37.08426014520227909088134765625</LongitudeDegrees>
            </Position>
            <AltitudeMeters>1264</AltitudeMeters>
            <DistanceMeters>NAN</DistanceMeters>
          </Trackpoint>
          <Trackpoint>
            <Time>2021-08-02T05:17:56.000Z</Time>
            <Position>
              <LatitudeDegrees>-15.33599817194044589996337890625</LatitudeDegrees>
              <LongitudeDegrees>37.08426064811646938323974609375</LongitudeDegrees>
            </Position>
            <AltitudeMeters>1264</AltitudeMeters>
            <DistanceMeters>NAN</DistanceMeters>
          </Trackpoint>
          <Trackpoint>
            <Time>2021-08-02T05:18:04.000Z</Time>
            <Position>
              <LatitudeDegrees>-15.33599817194044589996337890625</LatitudeDegrees>
              <LongitudeDegrees>37.08426064811646938323974609375</LongitudeDegrees>
            </Position>
            <AltitudeMeters>1264</AltitudeMeters>
            <DistanceMeters>NAN</DistanceMeters>
          </Trackpoint>
          <Trackpoint>
            <Time>2021-08-02T05:18:20.000Z</Time>
            <Position>
              <LatitudeDegrees>-15.33599582500755786895751953125</LatitudeDegrees>
              <LongitudeDegrees>37.0842682756483554840087890625</LongitudeDegrees>
            </Position>
            <AltitudeMeters>1264</AltitudeMeters>
            <DistanceMeters>NAN</DistanceMeters>
          </Trackpoint>
          <Trackpoint>
            <Time>2021-08-02T05:18:22.000Z</Time>
            <Position>
              <LatitudeDegrees>-15.33599565736949443817138671875</LatitudeDegrees>
              <LongitudeDegrees>37.0842682756483554840087890625</LongitudeDegrees>
            </Position>
            <AltitudeMeters>1264</AltitudeMeters>
            <DistanceMeters>NAN</DistanceMeters>
          </Trackpoint>
          <Trackpoint>
            <Time>2021-08-02T05:18:28.000Z</Time>
            <Position>
              <LatitudeDegrees>-15.3359925560653209686279296875</LatitudeDegrees>
              <LongitudeDegrees>37.084267772734165191650390625</LongitudeDegrees>
            </Position>
            <AltitudeMeters>1264</AltitudeMeters>
            <DistanceMeters>NAN</DistanceMeters>
          </Trackpoint>
          <Trackpoint>
            <Time>2021-08-02T05:18:43.000Z</Time>
            <Position>
              <LatitudeDegrees>-15.33596380613744258880615234375</LatitudeDegrees>
              <LongitudeDegrees>37.08421689458191394805908203125</LongitudeDegrees>
            </Position>
            <AltitudeMeters>1264</AltitudeMeters>
            <DistanceMeters>NAN</DistanceMeters>
          </Trackpoint>
          <Trackpoint>
            <Time>2021-08-02T05:18:48.000Z</Time>
            <Position>
              <LatitudeDegrees>-15.33596296794712543487548828125</LatitudeDegrees>
              <LongitudeDegrees>37.0842153020203113555908203125</LongitudeDegrees>
            </Position>
            <AltitudeMeters>1264</AltitudeMeters>
            <DistanceMeters>NAN</DistanceMeters>
          </Trackpoint>
          <Trackpoint>
            <Time>2021-08-02T05:19:13.000Z</Time>
            <Position>
              <LatitudeDegrees>-15.3359580226242542266845703125</LatitudeDegrees>
              <LongitudeDegrees>37.08420951850712299346923828125</LongitudeDegrees>
            </Position>
            <AltitudeMeters>1264</AltitudeMeters>
            <DistanceMeters>NAN</DistanceMeters>
          </Trackpoint>
          <Trackpoint>
            <Time>2021-08-02T05:19:20.000Z</Time>
            <Position>
              <LatitudeDegrees>-15.3359536640346050262451171875</LatitudeDegrees>
              <LongitudeDegrees>37.08420985378324985504150390625</LongitudeDegrees>
            </Position>
            <AltitudeMeters>1264</AltitudeMeters>
            <DistanceMeters>NAN</DistanceMeters>
          </Trackpoint>
          <Trackpoint>
            <Time>2021-08-02T05:19:24.000Z</Time>
            <Position>
              <LatitudeDegrees>-15.33595257438719272613525390625</LatitudeDegrees>
              <LongitudeDegrees>37.08420985378324985504150390625</LongitudeDegrees>
            </Position>
            <AltitudeMeters>1264</AltitudeMeters>
            <DistanceMeters>NAN</DistanceMeters>
          </Trackpoint>
          <Trackpoint>
            <Time>2021-08-02T05:19:28.000Z</Time>
            <Position>
              <LatitudeDegrees>-15.33595324493944644927978515625</LatitudeDegrees>
              <LongitudeDegrees>37.08421253599226474761962890625</LongitudeDegrees>
            </Position>
            <AltitudeMeters>1264</AltitudeMeters>
            <DistanceMeters>NAN</DistanceMeters>
          </Trackpoint>
          <Trackpoint>
            <Time>2021-08-02T05:19:32.000Z</Time>
            <Position>
              <LatitudeDegrees>-15.3359536640346050262451171875</LatitudeDegrees>
              <LongitudeDegrees>37.0842109434306621551513671875</LongitudeDegrees>
            </Position>
            <AltitudeMeters>1264</AltitudeMeters>
            <DistanceMeters>NAN</DistanceMeters>
          </Trackpoint>
          <Trackpoint>
            <Time>2021-08-02T05:19:33.000Z</Time>
            <Position>
              <LatitudeDegrees>-15.3359536640346050262451171875</LatitudeDegrees>
              <LongitudeDegrees>37.0842102728784084320068359375</LongitudeDegrees>
            </Position>
            <AltitudeMeters>1264</AltitudeMeters>
            <DistanceMeters>NAN</DistanceMeters>
          </Trackpoint>
          <Trackpoint>
            <Time>2021-08-02T05:19:39.000Z</Time>
            <Position>
              <LatitudeDegrees>-15.33595358021557331085205078125</LatitudeDegrees>
              <LongitudeDegrees>37.08420884795486927032470703125</LongitudeDegrees>
            </Position>
            <AltitudeMeters>1264</AltitudeMeters>
            <DistanceMeters>NAN</DistanceMeters>
          </Trackpoint>
          <Trackpoint>
            <Time>2021-08-02T05:19:41.000Z</Time>
            <Position>
              <LatitudeDegrees>-15.33595358021557331085205078125</LatitudeDegrees>
              <LongitudeDegrees>37.08420767448842525482177734375</LongitudeDegrees>
            </Position>
            <AltitudeMeters>1264</AltitudeMeters>
            <DistanceMeters>NAN</DistanceMeters>
          </Trackpoint>
          <Trackpoint>
            <Time>2021-08-02T05:19:45.000Z</Time>
            <Position>
              <LatitudeDegrees>-15.3359536640346050262451171875</LatitudeDegrees>
              <LongitudeDegrees>37.08420700393617153167724609375</LongitudeDegrees>
            </Position>
            <AltitudeMeters>1264</AltitudeMeters>
            <DistanceMeters>NAN</DistanceMeters>
          </Trackpoint>
          <Trackpoint>
            <Time>2021-08-02T05:19:47.000Z</Time>
            <Position>
              <LatitudeDegrees>-15.33595374785363674163818359375</LatitudeDegrees>
              <LongitudeDegrees>37.084206752479076385498046875</LongitudeDegrees>
            </Position>
            <AltitudeMeters>1264</AltitudeMeters>
            <DistanceMeters>NAN</DistanceMeters>
          </Trackpoint>
          <Trackpoint>
            <Time>2021-08-02T05:19:49.000Z</Time>
            <Position>
              <LatitudeDegrees>-15.33595391549170017242431640625</LatitudeDegrees>
              <LongitudeDegrees>37.0842062495648860931396484375</LongitudeDegrees>
            </Position>
            <AltitudeMeters>1264</AltitudeMeters>
            <DistanceMeters>NAN</DistanceMeters>
          </Trackpoint>
          <Trackpoint>
            <Time>2021-08-02T05:19:55.000Z</Time>
            <Position>
              <LatitudeDegrees>-15.33595383167266845703125</LatitudeDegrees>
              <LongitudeDegrees>37.08420566283166408538818359375</LongitudeDegrees>
            </Position>
            <AltitudeMeters>1264</AltitudeMeters>
            <DistanceMeters>NAN</DistanceMeters>
          </Trackpoint>
          <Trackpoint>
            <Time>2021-08-02T05:20:01.000Z</Time>
            <Position>
              <LatitudeDegrees>-15.335953496396541595458984375</LatitudeDegrees>
              <LongitudeDegrees>37.08420331589877605438232421875</LongitudeDegrees>
            </Position>
            <AltitudeMeters>1264</AltitudeMeters>
            <DistanceMeters>NAN</DistanceMeters>
          </Trackpoint>
          <Trackpoint>
            <Time>2021-08-02T05:20:03.000Z</Time>
            <Position>
              <LatitudeDegrees>-15.33595156855881214141845703125</LatitudeDegrees>
              <LongitudeDegrees>37.08420298062264919281005859375</LongitudeDegrees>
            </Position>
            <AltitudeMeters>1264</AltitudeMeters>
            <DistanceMeters>NAN</DistanceMeters>
          </Trackpoint>
          <Trackpoint>
            <Time>2021-08-02T05:20:04.000Z</Time>
            <Position>
              <LatitudeDegrees>-15.33594938926398754119873046875</LatitudeDegrees>
              <LongitudeDegrees>37.08420281298458576202392578125</LongitudeDegrees>
            </Position>
            <AltitudeMeters>1264</AltitudeMeters>
            <DistanceMeters>NAN</DistanceMeters>
          </Trackpoint>
          <Trackpoint>
            <Time>2021-08-02T05:20:10.000Z</Time>
            <Position>
              <LatitudeDegrees>-15.3359363973140716552734375</LatitudeDegrees>
              <LongitudeDegrees>37.0841971971094608306884765625</LongitudeDegrees>
            </Position>
            <AltitudeMeters>1264</AltitudeMeters>
            <DistanceMeters>NAN</DistanceMeters>
          </Trackpoint>
          <Trackpoint>
            <Time>2021-08-02T05:20:17.000Z</Time>
            <Position>
              <LatitudeDegrees>-15.3359161131083965301513671875</LatitudeDegrees>
              <LongitudeDegrees>37.08417699672281742095947265625</LongitudeDegrees>
            </Position>
            <AltitudeMeters>1264</AltitudeMeters>
            <DistanceMeters>NAN</DistanceMeters>
          </Trackpoint>
          <Trackpoint>
            <Time>2021-08-02T05:20:21.000Z</Time>
            <Position>
              <LatitudeDegrees>-15.335897840559482574462890625</LatitudeDegrees>
              <LongitudeDegrees>37.08416727371513843536376953125</LongitudeDegrees>
            </Position>
            <AltitudeMeters>1264</AltitudeMeters>
            <DistanceMeters>NAN</DistanceMeters>
          </Trackpoint>
          <Trackpoint>
            <Time>2021-08-02T05:20:24.000Z</Time>
            <Position>
              <LatitudeDegrees>-15.33586062490940093994140625</LatitudeDegrees>
              <LongitudeDegrees>37.0841936767101287841796875</LongitudeDegrees>
            </Position>
            <AltitudeMeters>1264</AltitudeMeters>
            <DistanceMeters>NAN</DistanceMeters>
          </Trackpoint>
          <Trackpoint>
            <Time>2021-08-02T05:20:26.000Z</Time>
            <Position>
              <LatitudeDegrees>-15.3358423523604869842529296875</LatitudeDegrees>
              <LongitudeDegrees>37.08421471528708934783935546875</LongitudeDegrees>
            </Position>
            <AltitudeMeters>1264</AltitudeMeters>
            <DistanceMeters>NAN</DistanceMeters>
          </Trackpoint>
          <Trackpoint>
            <Time>2021-08-02T05:20:31.000Z</Time>
            <Position>
              <LatitudeDegrees>-15.33582416363060474395751953125</LatitudeDegrees>
              <LongitudeDegrees>37.08423315547406673431396484375</LongitudeDegrees>
            </Position>
            <AltitudeMeters>1264</AltitudeMeters>
            <DistanceMeters>NAN</DistanceMeters>
          </Trackpoint>
          <Trackpoint>
            <Time>2021-08-02T05:20:35.000Z</Time>
            <Position>
              <LatitudeDegrees>-15.335814692080020904541015625</LatitudeDegrees>
              <LongitudeDegrees>37.08426634781062602996826171875</LongitudeDegrees>
            </Position>
            <AltitudeMeters>1264</AltitudeMeters>
            <DistanceMeters>NAN</DistanceMeters>
          </Trackpoint>
          <Trackpoint>
            <Time>2021-08-02T05:20:40.000Z</Time>
            <Position>
              <LatitudeDegrees>-15.33579600043594837188720703125</LatitudeDegrees>
              <LongitudeDegrees>37.08430708386003971099853515625</LongitudeDegrees>
            </Position>
            <AltitudeMeters>1264</AltitudeMeters>
            <DistanceMeters>NAN</DistanceMeters>
          </Trackpoint>
          <Trackpoint>
            <Time>2021-08-02T05:20:46.000Z</Time>
            <Position>
              <LatitudeDegrees>-15.33578158356249332427978515625</LatitudeDegrees>
              <LongitudeDegrees>37.08435117267072200775146484375</LongitudeDegrees>
            </Position>
            <AltitudeMeters>1264.199951171875</AltitudeMeters>
            <DistanceMeters>NAN</DistanceMeters>
          </Trackpoint>
          <Trackpoint>
            <Time>2021-08-02T05:20:48.000Z</Time>
            <Position>
              <LatitudeDegrees>-15.33577119000256061553955078125</LatitudeDegrees>
              <LongitudeDegrees>37.0843760669231414794921875</LongitudeDegrees>
            </Position>
            <AltitudeMeters>1264.199951171875</AltitudeMeters>
            <DistanceMeters>NAN</DistanceMeters>
          </Trackpoint>
          <Trackpoint>
            <Time>2021-08-02T05:20:50.000Z</Time>
            <Position>
              <LatitudeDegrees>-15.3357679210603237152099609375</LatitudeDegrees>
              <LongitudeDegrees>37.08439107052981853485107421875</LongitudeDegrees>
            </Position>
            <AltitudeMeters>1264.199951171875</AltitudeMeters>
            <DistanceMeters>NAN</DistanceMeters>
          </Trackpoint>
          <Trackpoint>
            <Time>2021-08-02T05:20:51.000Z</Time>
            <Position>
              <LatitudeDegrees>-15.3357695974409580230712890625</LatitudeDegrees>
              <LongitudeDegrees>37.08439643494784832000732421875</LongitudeDegrees>
            </Position>
            <AltitudeMeters>1264.199951171875</AltitudeMeters>
            <DistanceMeters>NAN</DistanceMeters>
          </Trackpoint>
          <Trackpoint>
            <Time>2021-08-02T05:20:52.000Z</Time>
            <Position>
              <LatitudeDegrees>-15.33576808869838714599609375</LatitudeDegrees>
              <LongitudeDegrees>37.08440515212714672088623046875</LongitudeDegrees>
            </Position>
            <AltitudeMeters>1264</AltitudeMeters>
            <DistanceMeters>NAN</DistanceMeters>
          </Trackpoint>
          <Trackpoint>
            <Time>2021-08-02T05:20:53.000Z</Time>
            <Position>
              <LatitudeDegrees>-15.33576498739421367645263671875</LatitudeDegrees>
              <LongitudeDegrees>37.08441286347806453704833984375</LongitudeDegrees>
            </Position>
            <AltitudeMeters>1264</AltitudeMeters>
            <DistanceMeters>NAN</DistanceMeters>
          </Trackpoint>
          <Trackpoint>
            <Time>2021-08-02T05:21:03.000Z</Time>
            <Position>
              <LatitudeDegrees>-15.3357578627765178680419921875</LatitudeDegrees>
              <LongitudeDegrees>37.08449743688106536865234375</LongitudeDegrees>
            </Position>
            <AltitudeMeters>1264</AltitudeMeters>
            <DistanceMeters>NAN</DistanceMeters>
          </Trackpoint>
          <Trackpoint>
            <Time>2021-08-02T05:21:08.000Z</Time>
            <Position>
              <LatitudeDegrees>-15.3357709385454654693603515625</LatitudeDegrees>
              <LongitudeDegrees>37.08453440107405185699462890625</LongitudeDegrees>
            </Position>
            <AltitudeMeters>1263.800048828125</AltitudeMeters>
            <DistanceMeters>NAN</DistanceMeters>
          </Trackpoint>
          <Trackpoint>
            <Time>2021-08-02T05:21:09.000Z</Time>
            <Position>
              <LatitudeDegrees>-15.33578510396182537078857421875</LatitudeDegrees>
              <LongitudeDegrees>37.08454999141395092010498046875</LongitudeDegrees>
            </Position>
            <AltitudeMeters>1263.800048828125</AltitudeMeters>
            <DistanceMeters>NAN</DistanceMeters>
          </Trackpoint>
          <Trackpoint>
            <Time>2021-08-02T05:21:12.000Z</Time>
            <Position>
              <LatitudeDegrees>-15.33580362796783447265625</LatitudeDegrees>
              <LongitudeDegrees>37.0845539309084415435791015625</LongitudeDegrees>
            </Position>
            <AltitudeMeters>1263.800048828125</AltitudeMeters>
            <DistanceMeters>NAN</DistanceMeters>
          </Trackpoint>
          <Trackpoint>
            <Time>2021-08-02T05:21:19.000Z</Time>
            <Position>
              <LatitudeDegrees>-15.33581770956516265869140625</LatitudeDegrees>
              <LongitudeDegrees>37.08454412408173084259033203125</LongitudeDegrees>
            </Position>
            <AltitudeMeters>1263.800048828125</AltitudeMeters>
            <DistanceMeters>NAN</DistanceMeters>
          </Trackpoint>
          <Trackpoint>
            <Time>2021-08-02T05:21:26.000Z</Time>
            <Position>
              <LatitudeDegrees>-15.33583916723728179931640625</LatitudeDegrees>
              <LongitudeDegrees>37.0845425315201282501220703125</LongitudeDegrees>
            </Position>
            <AltitudeMeters>1263.800048828125</AltitudeMeters>
            <DistanceMeters>NAN</DistanceMeters>
          </Trackpoint>
          <Trackpoint>
            <Time>2021-08-02T05:21:30.000Z</Time>
            <Position>
              <LatitudeDegrees>-15.3358393348753452301025390625</LatitudeDegrees>
              <LongitudeDegrees>37.084547393023967742919921875</LongitudeDegrees>
            </Position>
            <AltitudeMeters>1263.800048828125</AltitudeMeters>
            <DistanceMeters>NAN</DistanceMeters>
          </Trackpoint>
          <Trackpoint>
            <Time>2021-08-02T05:21:33.000Z</Time>
            <Position>
              <LatitudeDegrees>-15.3358393348753452301025390625</LatitudeDegrees>
              <LongitudeDegrees>37.08454705774784088134765625</LongitudeDegrees>
            </Position>
            <AltitudeMeters>1263.800048828125</AltitudeMeters>
            <DistanceMeters>NAN</DistanceMeters>
          </Trackpoint>
          <Trackpoint>
            <Time>2021-08-02T05:21:36.000Z</Time>
            <Position>
              <LatitudeDegrees>-15.3358393348753452301025390625</LatitudeDegrees>
              <LongitudeDegrees>37.08454705774784088134765625</LongitudeDegrees>
            </Position>
            <AltitudeMeters>1263.800048828125</AltitudeMeters>
            <DistanceMeters>NAN</DistanceMeters>
          </Trackpoint>
          <Trackpoint>
            <Time>2021-08-02T05:21:41.000Z</Time>
            <Position>
              <LatitudeDegrees>-15.3358393348753452301025390625</LatitudeDegrees>
              <LongitudeDegrees>37.08454429171979427337646484375</LongitudeDegrees>
            </Position>
            <AltitudeMeters>1263.800048828125</AltitudeMeters>
            <DistanceMeters>NAN</DistanceMeters>
          </Trackpoint>
          <Trackpoint>
            <Time>2021-08-02T05:21:48.000Z</Time>
            <Position>
              <LatitudeDegrees>-15.33588987775146961212158203125</LatitudeDegrees>
              <LongitudeDegrees>37.08448377437889575958251953125</LongitudeDegrees>
            </Position>
            <AltitudeMeters>1263.800048828125</AltitudeMeters>
            <DistanceMeters>NAN</DistanceMeters>
          </Trackpoint>
          <Trackpoint>
            <Time>2021-08-02T05:21:55.000Z</Time>
            <Position>
              <LatitudeDegrees>-15.335941426455974578857421875</LatitudeDegrees>
              <LongitudeDegrees>37.08441118709743022918701171875</LongitudeDegrees>
            </Position>
            <AltitudeMeters>1263.800048828125</AltitudeMeters>
            <DistanceMeters>NAN</DistanceMeters>
          </Trackpoint>
          <Trackpoint>
            <Time>2021-08-02T05:22:05.000Z</Time>
            <Position>
              <LatitudeDegrees>-15.33596045337617397308349609375</LatitudeDegrees>
              <LongitudeDegrees>37.0843313075602054595947265625</LongitudeDegrees>
            </Position>
            <AltitudeMeters>1263.800048828125</AltitudeMeters>
            <DistanceMeters>NAN</DistanceMeters>
          </Trackpoint>
          <Trackpoint>
            <Time>2021-08-02T05:22:08.000Z</Time>
            <Position>
              <LatitudeDegrees>-15.33596497960388660430908203125</LatitudeDegrees>
              <LongitudeDegrees>37.0843168906867504119873046875</LongitudeDegrees>
            </Position>
            <AltitudeMeters>1264</AltitudeMeters>
            <DistanceMeters>NAN</DistanceMeters>
          </Trackpoint>
          <Trackpoint>
            <Time>2021-08-02T05:22:15.000Z</Time>
            <Position>
              <LatitudeDegrees>-15.33597252331674098968505859375</LatitudeDegrees>
              <LongitudeDegrees>37.08429367281496524810791015625</LongitudeDegrees>
            </Position>
            <AltitudeMeters>1263.800048828125</AltitudeMeters>
            <DistanceMeters>NAN</DistanceMeters>
          </Trackpoint>
          <Trackpoint>
            <Time>2021-08-02T05:22:23.000Z</Time>
            <Position>
              <LatitudeDegrees>-15.33596388995647430419921875</LatitudeDegrees>
              <LongitudeDegrees>37.0842511765658855438232421875</LongitudeDegrees>
            </Position>
            <AltitudeMeters>1263.800048828125</AltitudeMeters>
            <DistanceMeters>NAN</DistanceMeters>
          </Trackpoint>
          <Trackpoint>
            <Time>2021-08-02T05:22:30.000Z</Time>
            <Position>
              <LatitudeDegrees>-15.33596925437450408935546875</LatitudeDegrees>
              <LongitudeDegrees>37.08422695286571979522705078125</LongitudeDegrees>
            </Position>
            <AltitudeMeters>1263.800048828125</AltitudeMeters>
            <DistanceMeters>NAN</DistanceMeters>
          </Trackpoint>
          <Trackpoint>
            <Time>2021-08-02T05:22:33.000Z</Time>
            <Position>
              <LatitudeDegrees>-15.33596866764128208160400390625</LatitudeDegrees>
              <LongitudeDegrees>37.0842220075428485870361328125</LongitudeDegrees>
            </Position>
            <AltitudeMeters>1263.800048828125</AltitudeMeters>
            <DistanceMeters>NAN</DistanceMeters>
          </Trackpoint>
          <Trackpoint>
            <Time>2021-08-02T05:22:38.000Z</Time>
            <Position>
              <LatitudeDegrees>-15.3359677456319332122802734375</LatitudeDegrees>
              <LongitudeDegrees>37.084220163524150848388671875</LongitudeDegrees>
            </Position>
            <AltitudeMeters>1263.800048828125</AltitudeMeters>
            <DistanceMeters>NAN</DistanceMeters>
          </Trackpoint>
          <Trackpoint>
            <Time>2021-08-02T05:22:53.000Z</Time>
            <Position>
              <LatitudeDegrees>-15.3359677456319332122802734375</LatitudeDegrees>
              <LongitudeDegrees>37.084220163524150848388671875</LongitudeDegrees>
            </Position>
            <AltitudeMeters>1263.800048828125</AltitudeMeters>
            <DistanceMeters>NAN</DistanceMeters>
          </Trackpoint>
          <Trackpoint>
            <Time>2021-08-02T05:22:56.000Z</Time>
            <Position>
              <LatitudeDegrees>-15.3359677456319332122802734375</LatitudeDegrees>
              <LongitudeDegrees>37.08422125317156314849853515625</LongitudeDegrees>
            </Position>
            <AltitudeMeters>1263.800048828125</AltitudeMeters>
            <DistanceMeters>NAN</DistanceMeters>
          </Trackpoint>
          <Trackpoint>
            <Time>2021-08-02T05:23:27.000Z</Time>
            <Position>
              <LatitudeDegrees>-15.33596632070839405059814453125</LatitudeDegrees>
              <LongitudeDegrees>37.08421974442899227142333984375</LongitudeDegrees>
            </Position>
            <AltitudeMeters>1263.800048828125</AltitudeMeters>
            <DistanceMeters>NAN</DistanceMeters>
          </Trackpoint>
          <Trackpoint>
            <Time>2021-08-02T05:23:32.000Z</Time>
            <Position>
              <LatitudeDegrees>-15.33596632070839405059814453125</LatitudeDegrees>
              <LongitudeDegrees>37.08421974442899227142333984375</LongitudeDegrees>
            </Position>
            <AltitudeMeters>1263.800048828125</AltitudeMeters>
            <DistanceMeters>NAN</DistanceMeters>
          </Trackpoint>
          <Trackpoint>
            <Time>2021-08-02T05:23:37.000Z</Time>
            <Position>
              <LatitudeDegrees>-15.33596632070839405059814453125</LatitudeDegrees>
              <LongitudeDegrees>37.08421873860061168670654296875</LongitudeDegrees>
            </Position>
            <AltitudeMeters>1263.800048828125</AltitudeMeters>
            <DistanceMeters>NAN</DistanceMeters>
          </Trackpoint>
          <Trackpoint>
            <Time>2021-08-02T05:23:46.000Z</Time>
            <Position>
              <LatitudeDegrees>-15.3359664045274257659912109375</LatitudeDegrees>
              <LongitudeDegrees>37.0842166431248188018798828125</LongitudeDegrees>
            </Position>
            <AltitudeMeters>1263.800048828125</AltitudeMeters>
            <DistanceMeters>NAN</DistanceMeters>
          </Trackpoint>
          <Trackpoint>
            <Time>2021-08-02T05:23:58.000Z</Time>
            <Position>
              <LatitudeDegrees>-15.33597193658351898193359375</LatitudeDegrees>
              <LongitudeDegrees>37.084216140210628509521484375</LongitudeDegrees>
            </Position>
            <AltitudeMeters>1263.800048828125</AltitudeMeters>
            <DistanceMeters>NAN</DistanceMeters>
          </Trackpoint>
          <Trackpoint>
            <Time>2021-08-02T05:24:21.000Z</Time>
            <Position>
              <LatitudeDegrees>-15.3359771333634853363037109375</LatitudeDegrees>
              <LongitudeDegrees>37.08421555347740650177001953125</LongitudeDegrees>
            </Position>
            <AltitudeMeters>1263.800048828125</AltitudeMeters>
            <DistanceMeters>NAN</DistanceMeters>
          </Trackpoint>
          <Trackpoint>
            <Time>2021-08-02T05:24:42.000Z</Time>
            <Position>
              <LatitudeDegrees>-15.3359771333634853363037109375</LatitudeDegrees>
              <LongitudeDegrees>37.0842149667441844940185546875</LongitudeDegrees>
            </Position>
            <AltitudeMeters>1263.800048828125</AltitudeMeters>
            <DistanceMeters>NAN</DistanceMeters>
          </Trackpoint>
          <Trackpoint>
            <Time>2021-08-02T05:24:57.000Z</Time>
            <Position>
              <LatitudeDegrees>-15.3359767980873584747314453125</LatitudeDegrees>
              <LongitudeDegrees>37.0842146314680576324462890625</LongitudeDegrees>
            </Position>
            <AltitudeMeters>1263.800048828125</AltitudeMeters>
            <DistanceMeters>NAN</DistanceMeters>
          </Trackpoint>
          <Trackpoint>
            <Time>2021-08-02T05:25:05.000Z</Time>
            <Position>
              <LatitudeDegrees>-15.33597369678318500518798828125</LatitudeDegrees>
              <LongitudeDegrees>37.08421521820127964019775390625</LongitudeDegrees>
            </Position>
            <AltitudeMeters>1263.800048828125</AltitudeMeters>
            <DistanceMeters>NAN</DistanceMeters>
          </Trackpoint>
          <Trackpoint>
            <Time>2021-08-02T05:25:18.000Z</Time>
            <Position>
              <LatitudeDegrees>-15.33596883527934551239013671875</LatitudeDegrees>
              <LongitudeDegrees>37.08421773277223110198974609375</LongitudeDegrees>
            </Position>
            <AltitudeMeters>1263.800048828125</AltitudeMeters>
            <DistanceMeters>NAN</DistanceMeters>
          </Trackpoint>
          <Trackpoint>
            <Time>2021-08-02T05:25:21.000Z</Time>
            <Position>
              <LatitudeDegrees>-15.33596816472709178924560546875</LatitudeDegrees>
              <LongitudeDegrees>37.08421890623867511749267578125</LongitudeDegrees>
            </Position>
            <AltitudeMeters>1263.800048828125</AltitudeMeters>
            <DistanceMeters>NAN</DistanceMeters>
          </Trackpoint>
          <Trackpoint>
            <Time>2021-08-02T05:25:27.000Z</Time>
            <Position>
              <LatitudeDegrees>-15.3359667398035526275634765625</LatitudeDegrees>
              <LongitudeDegrees>37.08422209136188030242919921875</LongitudeDegrees>
            </Position>
            <AltitudeMeters>1263.800048828125</AltitudeMeters>
            <DistanceMeters>NAN</DistanceMeters>
          </Trackpoint>
          <Trackpoint>
            <Time>2021-08-02T05:25:30.000Z</Time>
            <Position>
              <LatitudeDegrees>-15.33596632070839405059814453125</LatitudeDegrees>
              <LongitudeDegrees>37.08422292955219745635986328125</LongitudeDegrees>
            </Position>
            <AltitudeMeters>1263.800048828125</AltitudeMeters>
            <DistanceMeters>NAN</DistanceMeters>
          </Trackpoint>
          <Trackpoint>
            <Time>2021-08-02T05:25:34.000Z</Time>
            <Position>
              <LatitudeDegrees>-15.3359660692512989044189453125</LatitudeDegrees>
              <LongitudeDegrees>37.0842236839234828948974609375</LongitudeDegrees>
            </Position>
            <AltitudeMeters>1263.800048828125</AltitudeMeters>
            <DistanceMeters>NAN</DistanceMeters>
          </Trackpoint>
          <Trackpoint>
            <Time>2021-08-02T05:25:46.000Z</Time>
            <Position>
              <LatitudeDegrees>-15.33596497960388660430908203125</LatitudeDegrees>
              <LongitudeDegrees>37.0842243544757366180419921875</LongitudeDegrees>
            </Position>
            <AltitudeMeters>1263.800048828125</AltitudeMeters>
            <DistanceMeters>NAN</DistanceMeters>
          </Trackpoint>
          <Trackpoint>
            <Time>2021-08-02T05:25:53.000Z</Time>
            <Position>
              <LatitudeDegrees>-15.33596430905163288116455078125</LatitudeDegrees>
              <LongitudeDegrees>37.0842243544757366180419921875</LongitudeDegrees>
            </Position>
            <AltitudeMeters>1263.800048828125</AltitudeMeters>
            <DistanceMeters>NAN</DistanceMeters>
          </Trackpoint>
          <Trackpoint>
            <Time>2021-08-02T05:25:56.000Z</Time>
            <Position>
              <LatitudeDegrees>-15.33596414141356945037841796875</LatitudeDegrees>
              <LongitudeDegrees>37.0842243544757366180419921875</LongitudeDegrees>
            </Position>
            <AltitudeMeters>1263.800048828125</AltitudeMeters>
            <DistanceMeters>NAN</DistanceMeters>
          </Trackpoint>
          <Trackpoint>
            <Time>2021-08-02T05:26:03.000Z</Time>
            <Position>
              <LatitudeDegrees>-15.3359640575945377349853515625</LatitudeDegrees>
              <LongitudeDegrees>37.0842243544757366180419921875</LongitudeDegrees>
            </Position>
            <AltitudeMeters>1263.800048828125</AltitudeMeters>
            <DistanceMeters>NAN</DistanceMeters>
          </Trackpoint>
          <Trackpoint>
            <Time>2021-08-02T05:26:16.000Z</Time>
            <Position>
              <LatitudeDegrees>-15.33596397377550601959228515625</LatitudeDegrees>
              <LongitudeDegrees>37.084224186837673187255859375</LongitudeDegrees>
            </Position>
            <AltitudeMeters>1263.800048828125</AltitudeMeters>
            <DistanceMeters>NAN</DistanceMeters>
          </Trackpoint>
          <Trackpoint>
            <Time>2021-08-02T05:26:26.000Z</Time>
            <Position>
              <LatitudeDegrees>-15.33596388995647430419921875</LatitudeDegrees>
              <LongitudeDegrees>37.0842240191996097564697265625</LongitudeDegrees>
            </Position>
            <AltitudeMeters>1263.800048828125</AltitudeMeters>
            <DistanceMeters>NAN</DistanceMeters>
          </Trackpoint>
          <Trackpoint>
            <Time>2021-08-02T05:26:52.000Z</Time>
            <Position>
              <LatitudeDegrees>-15.3359674103558063507080078125</LatitudeDegrees>
              <LongitudeDegrees>37.08422519266605377197265625</LongitudeDegrees>
            </Position>
            <AltitudeMeters>1263.800048828125</AltitudeMeters>
            <DistanceMeters>NAN</DistanceMeters>
          </Trackpoint>
          <Trackpoint>
            <Time>2021-08-02T05:26:53.000Z</Time>
            <Position>
              <LatitudeDegrees>-15.3359788097441196441650390625</LatitudeDegrees>
              <LongitudeDegrees>37.08423315547406673431396484375</LongitudeDegrees>
            </Position>
            <AltitudeMeters>1263.800048828125</AltitudeMeters>
            <DistanceMeters>NAN</DistanceMeters>
          </Trackpoint>
          <Trackpoint>
            <Time>2021-08-02T05:26:56.000Z</Time>
            <Position>
              <LatitudeDegrees>-15.33599917776882648468017578125</LatitudeDegrees>
              <LongitudeDegrees>37.08426131866872310638427734375</LongitudeDegrees>
            </Position>
            <AltitudeMeters>1263.800048828125</AltitudeMeters>
            <DistanceMeters>NAN</DistanceMeters>
          </Trackpoint>
          <Trackpoint>
            <Time>2021-08-02T05:27:00.000Z</Time>
            <Position>
              <LatitudeDegrees>-15.33601929433643817901611328125</LatitudeDegrees>
              <LongitudeDegrees>37.0842652581632137298583984375</LongitudeDegrees>
            </Position>
            <AltitudeMeters>1263.4000244140625</AltitudeMeters>
            <DistanceMeters>NAN</DistanceMeters>
          </Trackpoint>
          <Trackpoint>
            <Time>2021-08-02T05:27:06.000Z</Time>
            <Position>
              <LatitudeDegrees>-15.3359841741621494293212890625</LatitudeDegrees>
              <LongitudeDegrees>37.0842736400663852691650390625</LongitudeDegrees>
            </Position>
            <AltitudeMeters>1263.5999755859375</AltitudeMeters>
            <DistanceMeters>NAN</DistanceMeters>
          </Trackpoint>
          <Trackpoint>
            <Time>2021-08-02T05:27:14.000Z</Time>
            <Position>
              <LatitudeDegrees>-15.33596749417483806610107421875</LatitudeDegrees>
              <LongitudeDegrees>37.084255032241344451904296875</LongitudeDegrees>
            </Position>
            <AltitudeMeters>1263.5999755859375</AltitudeMeters>
            <DistanceMeters>NAN</DistanceMeters>
          </Trackpoint>
          <Trackpoint>
            <Time>2021-08-02T05:27:19.000Z</Time>
            <Position>
              <LatitudeDegrees>-15.33596749417483806610107421875</LatitudeDegrees>
              <LongitudeDegrees>37.084255032241344451904296875</LongitudeDegrees>
            </Position>
            <AltitudeMeters>1263.5999755859375</AltitudeMeters>
            <DistanceMeters>NAN</DistanceMeters>
          </Trackpoint>
          <Trackpoint>
            <Time>2021-08-02T05:27:53.000Z</Time>
            <Position>
              <LatitudeDegrees>-15.335946120321750640869140625</LatitudeDegrees>
              <LongitudeDegrees>37.08422829397022724151611328125</LongitudeDegrees>
            </Position>
            <AltitudeMeters>1263.5999755859375</AltitudeMeters>
            <DistanceMeters>NAN</DistanceMeters>
          </Trackpoint>
          <Trackpoint>
            <Time>2021-08-02T05:27:57.000Z</Time>
            <Position>
              <LatitudeDegrees>-15.33598593436181545257568359375</LatitudeDegrees>
              <LongitudeDegrees>37.08426550962030887603759765625</LongitudeDegrees>
            </Position>
            <AltitudeMeters>1263.5999755859375</AltitudeMeters>
            <DistanceMeters>NAN</DistanceMeters>
          </Trackpoint>
          <Trackpoint>
            <Time>2021-08-02T05:28:05.000Z</Time>
            <Position>
              <LatitudeDegrees>-15.33602558076381683349609375</LatitudeDegrees>
              <LongitudeDegrees>37.08431395702064037322998046875</LongitudeDegrees>
            </Position>
            <AltitudeMeters>1263</AltitudeMeters>
            <DistanceMeters>NAN</DistanceMeters>
          </Trackpoint>
          <Trackpoint>
            <Time>2021-08-02T05:28:07.000Z</Time>
            <Position>
              <LatitudeDegrees>-15.3360257484018802642822265625</LatitudeDegrees>
              <LongitudeDegrees>37.08431529812514781951904296875</LongitudeDegrees>
            </Position>
            <AltitudeMeters>1263</AltitudeMeters>
            <DistanceMeters>NAN</DistanceMeters>
          </Trackpoint>
          <Trackpoint>
            <Time>2021-08-02T05:28:14.000Z</Time>
            <Position>
              <LatitudeDegrees>-15.336009822785854339599609375</LatitudeDegrees>
              <LongitudeDegrees>37.0843205787241458892822265625</LongitudeDegrees>
            </Position>
            <AltitudeMeters>1263</AltitudeMeters>
            <DistanceMeters>NAN</DistanceMeters>
          </Trackpoint>
          <Trackpoint>
            <Time>2021-08-02T05:28:19.000Z</Time>
            <Position>
              <LatitudeDegrees>-15.336009822785854339599609375</LatitudeDegrees>
              <LongitudeDegrees>37.0843205787241458892822265625</LongitudeDegrees>
            </Position>
            <AltitudeMeters>1263</AltitudeMeters>
            <DistanceMeters>NAN</DistanceMeters>
          </Trackpoint>
          <Trackpoint>
            <Time>2021-08-02T05:28:22.000Z</Time>
            <Position>
              <LatitudeDegrees>-15.336009822785854339599609375</LatitudeDegrees>
              <LongitudeDegrees>37.0843205787241458892822265625</LongitudeDegrees>
            </Position>
            <AltitudeMeters>1263</AltitudeMeters>
            <DistanceMeters>NAN</DistanceMeters>
          </Trackpoint>
          <Trackpoint>
            <Time>2021-08-02T05:28:24.000Z</Time>
            <Position>
              <LatitudeDegrees>-15.336009822785854339599609375</LatitudeDegrees>
              <LongitudeDegrees>37.0843205787241458892822265625</LongitudeDegrees>
            </Position>
            <AltitudeMeters>1263</AltitudeMeters>
            <DistanceMeters>NAN</DistanceMeters>
          </Trackpoint>
          <Trackpoint>
            <Time>2021-08-02T05:28:27.000Z</Time>
            <Position>
              <LatitudeDegrees>-15.336009822785854339599609375</LatitudeDegrees>
              <LongitudeDegrees>37.0843205787241458892822265625</LongitudeDegrees>
            </Position>
            <AltitudeMeters>1263</AltitudeMeters>
            <DistanceMeters>NAN</DistanceMeters>
          </Trackpoint>
          <Trackpoint>
            <Time>2021-08-02T05:28:32.000Z</Time>
            <Position>
              <LatitudeDegrees>-15.3360039554536342620849609375</LatitudeDegrees>
              <LongitudeDegrees>37.08432217128574848175048828125</LongitudeDegrees>
            </Position>
            <AltitudeMeters>1263</AltitudeMeters>
            <DistanceMeters>NAN</DistanceMeters>
          </Trackpoint>
          <Trackpoint>
            <Time>2021-08-02T05:28:53.000Z</Time>
            <Position>
              <LatitudeDegrees>-15.33598861657083034515380859375</LatitudeDegrees>
              <LongitudeDegrees>37.08431999199092388153076171875</LongitudeDegrees>
            </Position>
            <AltitudeMeters>1263</AltitudeMeters>
            <DistanceMeters>NAN</DistanceMeters>
          </Trackpoint>
          <Trackpoint>
            <Time>2021-08-03T03:47:43.000Z</Time>
            <Position>
              <LatitudeDegrees>-15.33625097014009952545166015625</LatitudeDegrees>
              <LongitudeDegrees>37.08317133598029613494873046875</LongitudeDegrees>
            </Position>
            <AltitudeMeters>1267.5999755859375</AltitudeMeters>
            <DistanceMeters>NAN</DistanceMeters>
          </Trackpoint>
          <Trackpoint>
            <Time>2021-08-03T03:47:45.000Z</Time>
            <Position>
              <LatitudeDegrees>-15.3362651355564594268798828125</LatitudeDegrees>
              <LongitudeDegrees>37.0831886865198612213134765625</LongitudeDegrees>
            </Position>
            <AltitudeMeters>1267.199951171875</AltitudeMeters>
            <DistanceMeters>NAN</DistanceMeters>
          </Trackpoint>
          <Trackpoint>
            <Time>2021-08-03T03:47:47.000Z</Time>
            <Position>
              <LatitudeDegrees>-15.33628550358116626739501953125</LatitudeDegrees>
              <LongitudeDegrees>37.08318424411118030548095703125</LongitudeDegrees>
            </Position>
            <AltitudeMeters>1266.800048828125</AltitudeMeters>
            <DistanceMeters>NAN</DistanceMeters>
          </Trackpoint>
          <Trackpoint>
            <Time>2021-08-03T03:47:53.000Z</Time>
            <Position>
              <LatitudeDegrees>-15.3363600187003612518310546875</LatitudeDegrees>
              <LongitudeDegrees>37.08319849334657192230224609375</LongitudeDegrees>
            </Position>
            <AltitudeMeters>1265.5999755859375</AltitudeMeters>
            <DistanceMeters>NAN</DistanceMeters>
          </Trackpoint>
          <Trackpoint>
            <Time>2021-08-03T03:47:55.000Z</Time>
            <Position>
              <LatitudeDegrees>-15.3363923728466033935546875</LatitudeDegrees>
              <LongitudeDegrees>37.08319279365241527557373046875</LongitudeDegrees>
            </Position>
            <AltitudeMeters>1265.4000244140625</AltitudeMeters>
            <DistanceMeters>NAN</DistanceMeters>
          </Trackpoint>
          <Trackpoint>
            <Time>2021-08-03T03:48:02.000Z</Time>
            <Position>
              <LatitudeDegrees>-15.33648314885795116424560546875</LatitudeDegrees>
              <LongitudeDegrees>37.08320838399231433868408203125</LongitudeDegrees>
            </Position>
            <AltitudeMeters>1264.4000244140625</AltitudeMeters>
            <DistanceMeters>NAN</DistanceMeters>
          </Trackpoint>
          <Trackpoint>
            <Time>2021-08-03T03:48:04.000Z</Time>
            <Position>
              <LatitudeDegrees>-15.33650879748165607452392578125</LatitudeDegrees>
              <LongitudeDegrees>37.0831927098333835601806640625</LongitudeDegrees>
            </Position>
            <AltitudeMeters>1263.800048828125</AltitudeMeters>
            <DistanceMeters>NAN</DistanceMeters>
          </Trackpoint>
          <Trackpoint>
            <Time>2021-08-03T03:48:05.000Z</Time>
            <Position>
              <LatitudeDegrees>-15.3365238010883331298828125</LatitudeDegrees>
              <LongitudeDegrees>37.08317242562770843505859375</LongitudeDegrees>
            </Position>
            <AltitudeMeters>1263</AltitudeMeters>
            <DistanceMeters>NAN</DistanceMeters>
          </Trackpoint>
          <Trackpoint>
            <Time>2021-08-03T03:48:06.000Z</Time>
            <Position>
              <LatitudeDegrees>-15.336536206305027008056640625</LatitudeDegrees>
              <LongitudeDegrees>37.08316572010517120361328125</LongitudeDegrees>
            </Position>
            <AltitudeMeters>1263</AltitudeMeters>
            <DistanceMeters>NAN</DistanceMeters>
          </Trackpoint>
          <Trackpoint>
            <Time>2021-08-03T03:48:11.000Z</Time>
            <Position>
              <LatitudeDegrees>-15.33658792264759540557861328125</LatitudeDegrees>
              <LongitudeDegrees>37.08313059993088245391845703125</LongitudeDegrees>
            </Position>
            <AltitudeMeters>1262.5999755859375</AltitudeMeters>
            <DistanceMeters>NAN</DistanceMeters>
          </Trackpoint>
          <Trackpoint>
            <Time>2021-08-03T03:48:16.000Z</Time>
            <Position>
              <LatitudeDegrees>-15.3366205282509326934814453125</LatitudeDegrees>
              <LongitudeDegrees>37.08307444117963314056396484375</LongitudeDegrees>
            </Position>
            <AltitudeMeters>1262</AltitudeMeters>
            <DistanceMeters>NAN</DistanceMeters>
          </Trackpoint>
          <Trackpoint>
            <Time>2021-08-03T03:48:18.000Z</Time>
            <Position>
              <LatitudeDegrees>-15.33663804642856121063232421875</LatitudeDegrees>
              <LongitudeDegrees>37.08306203596293926239013671875</LongitudeDegrees>
            </Position>
            <AltitudeMeters>1261.800048828125</AltitudeMeters>
            <DistanceMeters>NAN</DistanceMeters>
          </Trackpoint>
          <Trackpoint>
            <Time>2021-08-03T03:48:21.000Z</Time>
            <Position>
              <LatitudeDegrees>-15.3366755135357379913330078125</LatitudeDegrees>
              <LongitudeDegrees>37.0830322802066802978515625</LongitudeDegrees>
            </Position>
            <AltitudeMeters>1260.5999755859375</AltitudeMeters>
            <DistanceMeters>NAN</DistanceMeters>
          </Trackpoint>
          <Trackpoint>
            <Time>2021-08-03T03:48:26.000Z</Time>
            <Position>
              <LatitudeDegrees>-15.3367224521934986114501953125</LatitudeDegrees>
              <LongitudeDegrees>37.082999758422374725341796875</LongitudeDegrees>
            </Position>
            <AltitudeMeters>1259.800048828125</AltitudeMeters>
            <DistanceMeters>NAN</DistanceMeters>
          </Trackpoint>
          <Trackpoint>
            <Time>2021-08-03T03:48:27.000Z</Time>
            <Position>
              <LatitudeDegrees>-15.33673544414341449737548828125</LatitudeDegrees>
              <LongitudeDegrees>37.08298601210117340087890625</LongitudeDegrees>
            </Position>
            <AltitudeMeters>1259.5999755859375</AltitudeMeters>
            <DistanceMeters>NAN</DistanceMeters>
          </Trackpoint>
          <Trackpoint>
            <Time>2021-08-03T03:48:29.000Z</Time>
            <Position>
              <LatitudeDegrees>-15.336760170757770538330078125</LatitudeDegrees>
              <LongitudeDegrees>37.082980312407016754150390625</LongitudeDegrees>
            </Position>
            <AltitudeMeters>1259</AltitudeMeters>
            <DistanceMeters>NAN</DistanceMeters>
          </Trackpoint>
          <Trackpoint>
            <Time>2021-08-03T03:48:30.000Z</Time>
            <Position>
              <LatitudeDegrees>-15.33677265979349613189697265625</LatitudeDegrees>
              <LongitudeDegrees>37.08297084085643291473388671875</LongitudeDegrees>
            </Position>
            <AltitudeMeters>1258.800048828125</AltitudeMeters>
            <DistanceMeters>NAN</DistanceMeters>
          </Trackpoint>
          <Trackpoint>
            <Time>2021-08-03T03:48:39.000Z</Time>
            <Position>
              <LatitudeDegrees>-15.3368525393307209014892578125</LatitudeDegrees>
              <LongitudeDegrees>37.08289892412722110748291015625</LongitudeDegrees>
            </Position>
            <AltitudeMeters>1257.5999755859375</AltitudeMeters>
            <DistanceMeters>NAN</DistanceMeters>
          </Trackpoint>
          <Trackpoint>
            <Time>2021-08-03T03:48:43.000Z</Time>
            <Position>
              <LatitudeDegrees>-15.33689654432237148284912109375</LatitudeDegrees>
              <LongitudeDegrees>37.08286237902939319610595703125</LongitudeDegrees>
            </Position>
            <AltitudeMeters>1257</AltitudeMeters>
            <DistanceMeters>NAN</DistanceMeters>
          </Trackpoint>
          <Trackpoint>
            <Time>2021-08-03T03:48:46.000Z</Time>
            <Position>
              <LatitudeDegrees>-15.3369273059070110321044921875</LatitudeDegrees>
              <LongitudeDegrees>37.08284125663340091705322265625</LongitudeDegrees>
            </Position>
            <AltitudeMeters>1256.4000244140625</AltitudeMeters>
            <DistanceMeters>NAN</DistanceMeters>
          </Trackpoint>
          <Trackpoint>
            <Time>2021-08-03T03:48:50.000Z</Time>
            <Position>
              <LatitudeDegrees>-15.336967371404170989990234375</LatitudeDegrees>
              <LongitudeDegrees>37.08280722610652446746826171875</LongitudeDegrees>
            </Position>
            <AltitudeMeters>1256.199951171875</AltitudeMeters>
            <DistanceMeters>NAN</DistanceMeters>
          </Trackpoint>
          <Trackpoint>
            <Time>2021-08-03T03:48:53.000Z</Time>
            <Position>
              <LatitudeDegrees>-15.33699494786560535430908203125</LatitudeDegrees>
              <LongitudeDegrees>37.082772441208362579345703125</LongitudeDegrees>
            </Position>
            <AltitudeMeters>1255.5999755859375</AltitudeMeters>
            <DistanceMeters>NAN</DistanceMeters>
          </Trackpoint>
          <Trackpoint>
            <Time>2021-08-03T03:48:55.000Z</Time>
            <Position>
              <LatitudeDegrees>-15.337012298405170440673828125</LatitudeDegrees>
              <LongitudeDegrees>37.08275576122105121612548828125</LongitudeDegrees>
            </Position>
            <AltitudeMeters>1255</AltitudeMeters>
            <DistanceMeters>NAN</DistanceMeters>
          </Trackpoint>
          <Trackpoint>
            <Time>2021-08-03T03:48:57.000Z</Time>
            <Position>
              <LatitudeDegrees>-15.33703316934406757354736328125</LatitudeDegrees>
              <LongitudeDegrees>37.08273430354893207550048828125</LongitudeDegrees>
            </Position>
            <AltitudeMeters>1254.800048828125</AltitudeMeters>
            <DistanceMeters>NAN</DistanceMeters>
          </Trackpoint>
          <Trackpoint>
            <Time>2021-08-03T03:48:59.000Z</Time>
            <Position>
              <LatitudeDegrees>-15.33704808913171291351318359375</LatitudeDegrees>
              <LongitudeDegrees>37.08271586336195468902587890625</LongitudeDegrees>
            </Position>
            <AltitudeMeters>1254</AltitudeMeters>
            <DistanceMeters>NAN</DistanceMeters>
          </Trackpoint>
          <Trackpoint>
            <Time>2021-08-03T03:49:03.000Z</Time>
            <Position>
              <LatitudeDegrees>-15.337076671421527862548828125</LatitudeDegrees>
              <LongitudeDegrees>37.08266741596162319183349609375</LongitudeDegrees>
            </Position>
            <AltitudeMeters>1253.5999755859375</AltitudeMeters>
            <DistanceMeters>NAN</DistanceMeters>
          </Trackpoint>
          <Trackpoint>
            <Time>2021-08-03T03:49:08.000Z</Time>
            <Position>
              <LatitudeDegrees>-15.3371107019484043121337890625</LatitudeDegrees>
              <LongitudeDegrees>37.08261745981872081756591796875</LongitudeDegrees>
            </Position>
            <AltitudeMeters>1253.199951171875</AltitudeMeters>
            <DistanceMeters>NAN</DistanceMeters>
          </Trackpoint>
          <Trackpoint>
            <Time>2021-08-03T03:49:10.000Z</Time>
            <Position>
              <LatitudeDegrees>-15.33712034113705158233642578125</LatitudeDegrees>
              <LongitudeDegrees>37.0826049707829952239990234375</LongitudeDegrees>
            </Position>
            <AltitudeMeters>1252.800048828125</AltitudeMeters>
            <DistanceMeters>NAN</DistanceMeters>
          </Trackpoint>
          <Trackpoint>
            <Time>2021-08-03T03:49:12.000Z</Time>
            <Position>
              <LatitudeDegrees>-15.33712788484990596771240234375</LatitudeDegrees>
              <LongitudeDegrees>37.082598097622394561767578125</LongitudeDegrees>
            </Position>
            <AltitudeMeters>1252.5999755859375</AltitudeMeters>
            <DistanceMeters>NAN</DistanceMeters>
          </Trackpoint>
          <Trackpoint>
            <Time>2021-08-03T03:49:16.000Z</Time>
            <Position>
              <LatitudeDegrees>-15.33713827840983867645263671875</LatitudeDegrees>
              <LongitudeDegrees>37.08258091472089290618896484375</LongitudeDegrees>
            </Position>
            <AltitudeMeters>1252.199951171875</AltitudeMeters>
            <DistanceMeters>NAN</DistanceMeters>
          </Trackpoint>
          <Trackpoint>
            <Time>2021-08-03T03:49:19.000Z</Time>
            <Position>
              <LatitudeDegrees>-15.3371583111584186553955078125</LatitudeDegrees>
              <LongitudeDegrees>37.082590050995349884033203125</LongitudeDegrees>
            </Position>
            <AltitudeMeters>1251.5999755859375</AltitudeMeters>
            <DistanceMeters>NAN</DistanceMeters>
          </Trackpoint>
          <Trackpoint>
            <Time>2021-08-03T03:49:22.000Z</Time>
            <Position>
              <LatitudeDegrees>-15.33718454651534557342529296875</LatitudeDegrees>
              <LongitudeDegrees>37.08259147591888904571533203125</LongitudeDegrees>
            </Position>
            <AltitudeMeters>1251.5999755859375</AltitudeMeters>
            <DistanceMeters>NAN</DistanceMeters>
          </Trackpoint>
          <Trackpoint>
            <Time>2021-08-03T03:49:30.000Z</Time>
            <Position>
              <LatitudeDegrees>-15.33724137581884860992431640625</LatitudeDegrees>
              <LongitudeDegrees>37.0825374126434326171875</LongitudeDegrees>
            </Position>
            <AltitudeMeters>1251</AltitudeMeters>
            <DistanceMeters>NAN</DistanceMeters>
          </Trackpoint>
          <Trackpoint>
            <Time>2021-08-03T03:49:37.000Z</Time>
            <Position>
              <LatitudeDegrees>-15.3372702933847904205322265625</LatitudeDegrees>
              <LongitudeDegrees>37.0825084112584590911865234375</LongitudeDegrees>
            </Position>
            <AltitudeMeters>1250.800048828125</AltitudeMeters>
            <DistanceMeters>NAN</DistanceMeters>
          </Trackpoint>
          <Trackpoint>
            <Time>2021-08-03T03:49:40.000Z</Time>
            <Position>
              <LatitudeDegrees>-15.33728144131600856781005859375</LatitudeDegrees>
              <LongitudeDegrees>37.082491479814052581787109375</LongitudeDegrees>
            </Position>
            <AltitudeMeters>1250.5999755859375</AltitudeMeters>
            <DistanceMeters>NAN</DistanceMeters>
          </Trackpoint>
          <Trackpoint>
            <Time>2021-08-03T03:49:41.000Z</Time>
            <Position>
              <LatitudeDegrees>-15.3372877277433872222900390625</LatitudeDegrees>
              <LongitudeDegrees>37.08248167298734188079833984375</LongitudeDegrees>
            </Position>
            <AltitudeMeters>1250.5999755859375</AltitudeMeters>
            <DistanceMeters>NAN</DistanceMeters>
          </Trackpoint>
          <Trackpoint>
            <Time>2021-08-03T03:49:44.000Z</Time>
            <Position>
              <LatitudeDegrees>-15.3373075090348720550537109375</LatitudeDegrees>
              <LongitudeDegrees>37.08245300687849521636962890625</LongitudeDegrees>
            </Position>
            <AltitudeMeters>1250.4000244140625</AltitudeMeters>
            <DistanceMeters>NAN</DistanceMeters>
          </Trackpoint>
          <Trackpoint>
            <Time>2021-08-03T03:49:46.000Z</Time>
            <Position>
              <LatitudeDegrees>-15.33731915988028049468994140625</LatitudeDegrees>
              <LongitudeDegrees>37.08243238739669322967529296875</LongitudeDegrees>
            </Position>
            <AltitudeMeters>1250.5999755859375</AltitudeMeters>
            <DistanceMeters>NAN</DistanceMeters>
          </Trackpoint>
          <Trackpoint>
            <Time>2021-08-03T03:49:52.000Z</Time>
            <Position>
              <LatitudeDegrees>-15.33733609132468700408935546875</LatitudeDegrees>
              <LongitudeDegrees>37.0824126899242401123046875</LongitudeDegrees>
            </Position>
            <AltitudeMeters>1250.5999755859375</AltitudeMeters>
            <DistanceMeters>NAN</DistanceMeters>
          </Trackpoint>
          <Trackpoint>
            <Time>2021-08-03T03:49:59.000Z</Time>
            <Position>
              <LatitudeDegrees>-15.33735101111233234405517578125</LatitudeDegrees>
              <LongitudeDegrees>37.08236566744744777679443359375</LongitudeDegrees>
            </Position>
            <AltitudeMeters>1250.4000244140625</AltitudeMeters>
            <DistanceMeters>NAN</DistanceMeters>
          </Trackpoint>
          <Trackpoint>
            <Time>2021-08-03T03:50:13.000Z</Time>
            <Position>
              <LatitudeDegrees>-15.3374161384999752044677734375</LatitudeDegrees>
              <LongitudeDegrees>37.08228067494928836822509765625</LongitudeDegrees>
            </Position>
            <AltitudeMeters>1250.199951171875</AltitudeMeters>
            <DistanceMeters>NAN</DistanceMeters>
          </Trackpoint>
          <Trackpoint>
            <Time>2021-08-03T03:50:15.000Z</Time>
            <Position>
              <LatitudeDegrees>-15.33742443658411502838134765625</LatitudeDegrees>
              <LongitudeDegrees>37.08226474933326244354248046875</LongitudeDegrees>
            </Position>
            <AltitudeMeters>1250.4000244140625</AltitudeMeters>
            <DistanceMeters>NAN</DistanceMeters>
          </Trackpoint>
          <Trackpoint>
            <Time>2021-08-03T03:50:19.000Z</Time>
            <Position>
              <LatitudeDegrees>-15.3374573774635791778564453125</LatitudeDegrees>
              <LongitudeDegrees>37.0822329819202423095703125</LongitudeDegrees>
            </Position>
            <AltitudeMeters>1250.4000244140625</AltitudeMeters>
            <DistanceMeters>NAN</DistanceMeters>
          </Trackpoint>
          <Trackpoint>
            <Time>2021-08-03T03:50:23.000Z</Time>
            <Position>
              <LatitudeDegrees>-15.337491072714328765869140625</LatitudeDegrees>
              <LongitudeDegrees>37.0821949280798435211181640625</LongitudeDegrees>
            </Position>
            <AltitudeMeters>1250.5999755859375</AltitudeMeters>
            <DistanceMeters>NAN</DistanceMeters>
          </Trackpoint>
          <Trackpoint>
            <Time>2021-08-03T03:50:33.000Z</Time>
            <Position>
              <LatitudeDegrees>-15.33754798583686351776123046875</LatitudeDegrees>
              <LongitudeDegrees>37.08209509961307048797607421875</LongitudeDegrees>
            </Position>
            <AltitudeMeters>1250.4000244140625</AltitudeMeters>
            <DistanceMeters>NAN</DistanceMeters>
          </Trackpoint>
          <Trackpoint>
            <Time>2021-08-03T03:50:34.000Z</Time>
            <Position>
              <LatitudeDegrees>-15.33755620010197162628173828125</LatitudeDegrees>
              <LongitudeDegrees>37.082091160118579864501953125</LongitudeDegrees>
            </Position>
            <AltitudeMeters>1250.4000244140625</AltitudeMeters>
            <DistanceMeters>NAN</DistanceMeters>
          </Trackpoint>
          <Trackpoint>
            <Time>2021-08-03T03:50:42.000Z</Time>
            <Position>
              <LatitudeDegrees>-15.33760950900614261627197265625</LatitudeDegrees>
              <LongitudeDegrees>37.0820291340351104736328125</LongitudeDegrees>
            </Position>
            <AltitudeMeters>1250.5999755859375</AltitudeMeters>
            <DistanceMeters>NAN</DistanceMeters>
          </Trackpoint>
          <Trackpoint>
            <Time>2021-08-03T03:50:45.000Z</Time>
            <Position>
              <LatitudeDegrees>-15.33762929029762744903564453125</LatitudeDegrees>
              <LongitudeDegrees>37.08200910128653049468994140625</LongitudeDegrees>
            </Position>
            <AltitudeMeters>1250.800048828125</AltitudeMeters>
            <DistanceMeters>NAN</DistanceMeters>
          </Trackpoint>
          <Trackpoint>
            <Time>2021-08-03T03:50:47.000Z</Time>
            <Position>
              <LatitudeDegrees>-15.337643958628177642822265625</LatitudeDegrees>
              <LongitudeDegrees>37.08199183456599712371826171875</LongitudeDegrees>
            </Position>
            <AltitudeMeters>1250.800048828125</AltitudeMeters>
            <DistanceMeters>NAN</DistanceMeters>
          </Trackpoint>
          <Trackpoint>
            <Time>2021-08-03T03:50:53.000Z</Time>
            <Position>
              <LatitudeDegrees>-15.33767220564186573028564453125</LatitudeDegrees>
              <LongitudeDegrees>37.081946991384029388427734375</LongitudeDegrees>
            </Position>
            <AltitudeMeters>1250.800048828125</AltitudeMeters>
            <DistanceMeters>NAN</DistanceMeters>
          </Trackpoint>
          <Trackpoint>
            <Time>2021-08-03T03:50:55.000Z</Time>
            <Position>
              <LatitudeDegrees>-15.33768494613468647003173828125</LatitudeDegrees>
              <LongitudeDegrees>37.0819334127008914947509765625</LongitudeDegrees>
            </Position>
            <AltitudeMeters>1251</AltitudeMeters>
            <DistanceMeters>NAN</DistanceMeters>
          </Trackpoint>
          <Trackpoint>
            <Time>2021-08-03T03:50:58.000Z</Time>
            <Position>
              <LatitudeDegrees>-15.3377044759690761566162109375</LatitudeDegrees>
              <LongitudeDegrees>37.0819136314094066619873046875</LongitudeDegrees>
            </Position>
            <AltitudeMeters>1251.199951171875</AltitudeMeters>
            <DistanceMeters>NAN</DistanceMeters>
          </Trackpoint>
          <Trackpoint>
            <Time>2021-08-03T03:51:02.000Z</Time>
            <Position>
              <LatitudeDegrees>-15.3377437032759189605712890625</LatitudeDegrees>
              <LongitudeDegrees>37.081885635852813720703125</LongitudeDegrees>
            </Position>
            <AltitudeMeters>1251.4000244140625</AltitudeMeters>
            <DistanceMeters>NAN</DistanceMeters>
          </Trackpoint>
          <Trackpoint>
            <Time>2021-08-03T03:51:04.000Z</Time>
            <Position>
              <LatitudeDegrees>-15.33775988034904003143310546875</LatitudeDegrees>
              <LongitudeDegrees>37.08187130279839038848876953125</LongitudeDegrees>
            </Position>
            <AltitudeMeters>1251.5999755859375</AltitudeMeters>
            <DistanceMeters>NAN</DistanceMeters>
          </Trackpoint>
          <Trackpoint>
            <Time>2021-08-03T03:51:06.000Z</Time>
            <Position>
              <LatitudeDegrees>-15.33777127973735332489013671875</LatitudeDegrees>
              <LongitudeDegrees>37.08185839466750621795654296875</LongitudeDegrees>
            </Position>
            <AltitudeMeters>1251.5999755859375</AltitudeMeters>
            <DistanceMeters>NAN</DistanceMeters>
          </Trackpoint>
          <Trackpoint>
            <Time>2021-08-03T03:51:12.000Z</Time>
            <Position>
              <LatitudeDegrees>-15.33781570382416248321533203125</LatitudeDegrees>
              <LongitudeDegrees>37.08183274604380130767822265625</LongitudeDegrees>
            </Position>
            <AltitudeMeters>1252.199951171875</AltitudeMeters>
            <DistanceMeters>NAN</DistanceMeters>
          </Trackpoint>
          <Trackpoint>
            <Time>2021-08-03T03:51:15.000Z</Time>
            <Position>
              <LatitudeDegrees>-15.3378385864198207855224609375</LatitudeDegrees>
              <LongitudeDegrees>37.08181799389421939849853515625</LongitudeDegrees>
            </Position>
            <AltitudeMeters>1252.4000244140625</AltitudeMeters>
            <DistanceMeters>NAN</DistanceMeters>
          </Trackpoint>
          <Trackpoint>
            <Time>2021-08-03T03:51:19.000Z</Time>
            <Position>
              <LatitudeDegrees>-15.33788812346756458282470703125</LatitudeDegrees>
              <LongitudeDegrees>37.08178848959505558013916015625</LongitudeDegrees>
            </Position>
            <AltitudeMeters>1252.800048828125</AltitudeMeters>
            <DistanceMeters>NAN</DistanceMeters>
          </Trackpoint>
          <Trackpoint>
            <Time>2021-08-03T03:51:23.000Z</Time>
            <Position>
              <LatitudeDegrees>-15.33793841488659381866455078125</LatitudeDegrees>
              <LongitudeDegrees>37.081761248409748077392578125</LongitudeDegrees>
            </Position>
            <AltitudeMeters>1252.800048828125</AltitudeMeters>
            <DistanceMeters>NAN</DistanceMeters>
          </Trackpoint>
          <Trackpoint>
            <Time>2021-08-03T03:51:28.000Z</Time>
            <Position>
              <LatitudeDegrees>-15.33799390308558940887451171875</LatitudeDegrees>
              <LongitudeDegrees>37.08173702470958232879638671875</LongitudeDegrees>
            </Position>
            <AltitudeMeters>1252.5999755859375</AltitudeMeters>
            <DistanceMeters>NAN</DistanceMeters>
          </Trackpoint>
          <Trackpoint>
            <Time>2021-08-03T03:51:31.000Z</Time>
            <Position>
              <LatitudeDegrees>-15.338020138442516326904296875</LatitudeDegrees>
              <LongitudeDegrees>37.08172344602644443511962890625</LongitudeDegrees>
            </Position>
            <AltitudeMeters>1252</AltitudeMeters>
            <DistanceMeters>NAN</DistanceMeters>
          </Trackpoint>
          <Trackpoint>
            <Time>2021-08-03T03:51:33.000Z</Time>
            <Position>
              <LatitudeDegrees>-15.33804218284785747528076171875</LatitudeDegrees>
              <LongitudeDegrees>37.0817205123603343963623046875</LongitudeDegrees>
            </Position>
            <AltitudeMeters>1251.800048828125</AltitudeMeters>
            <DistanceMeters>NAN</DistanceMeters>
          </Trackpoint>
          <Trackpoint>
            <Time>2021-08-03T03:51:34.000Z</Time>
            <Position>
              <LatitudeDegrees>-15.33805475570261478424072265625</LatitudeDegrees>
              <LongitudeDegrees>37.08172537386417388916015625</LongitudeDegrees>
            </Position>
            <AltitudeMeters>1251.4000244140625</AltitudeMeters>
            <DistanceMeters>NAN</DistanceMeters>
          </Trackpoint>
          <Trackpoint>
            <Time>2021-08-03T03:51:41.000Z</Time>
            <Position>
              <LatitudeDegrees>-15.3381084837019443511962890625</LatitudeDegrees>
              <LongitudeDegrees>37.08174473606050014495849609375</LongitudeDegrees>
            </Position>
            <AltitudeMeters>1250.4000244140625</AltitudeMeters>
            <DistanceMeters>NAN</DistanceMeters>
          </Trackpoint>
          <Trackpoint>
            <Time>2021-08-03T03:51:42.000Z</Time>
            <Position>
              <LatitudeDegrees>-15.338119380176067352294921875</LatitudeDegrees>
              <LongitudeDegrees>37.081748507916927337646484375</LongitudeDegrees>
            </Position>
            <AltitudeMeters>1250.4000244140625</AltitudeMeters>
            <DistanceMeters>NAN</DistanceMeters>
          </Trackpoint>
          <Trackpoint>
            <Time>2021-08-03T03:51:43.000Z</Time>
            <Position>
              <LatitudeDegrees>-15.33812818117439746856689453125</LatitudeDegrees>
              <LongitudeDegrees>37.0817530341446399688720703125</LongitudeDegrees>
            </Position>
            <AltitudeMeters>1250.199951171875</AltitudeMeters>
            <DistanceMeters>NAN</DistanceMeters>
          </Trackpoint>
          <Trackpoint>
            <Time>2021-08-03T03:51:45.000Z</Time>
            <Position>
              <LatitudeDegrees>-15.33814452588558197021484375</LatitudeDegrees>
              <LongitudeDegrees>37.08176753483712673187255859375</LongitudeDegrees>
            </Position>
            <AltitudeMeters>1250</AltitudeMeters>
            <DistanceMeters>NAN</DistanceMeters>
          </Trackpoint>
          <Trackpoint>
            <Time>2021-08-03T03:51:54.000Z</Time>
            <Position>
              <LatitudeDegrees>-15.338228680193424224853515625</LatitudeDegrees>
              <LongitudeDegrees>37.08183894865214824676513671875</LongitudeDegrees>
            </Position>
            <AltitudeMeters>1250.4000244140625</AltitudeMeters>
            <DistanceMeters>NAN</DistanceMeters>
          </Trackpoint>
          <Trackpoint>
            <Time>2021-08-03T03:52:02.000Z</Time>
            <Position>
              <LatitudeDegrees>-15.3382791392505168914794921875</LatitudeDegrees>
              <LongitudeDegrees>37.08180324174463748931884765625</LongitudeDegrees>
            </Position>
            <AltitudeMeters>1250.5999755859375</AltitudeMeters>
            <DistanceMeters>NAN</DistanceMeters>
          </Trackpoint>
          <Trackpoint>
            <Time>2021-08-03T03:52:08.000Z</Time>
            <Position>
              <LatitudeDegrees>-15.338327251374721527099609375</LatitudeDegrees>
              <LongitudeDegrees>37.08174339495599269866943359375</LongitudeDegrees>
            </Position>
            <AltitudeMeters>1251.199951171875</AltitudeMeters>
            <DistanceMeters>NAN</DistanceMeters>
          </Trackpoint>
          <Trackpoint>
            <Time>2021-08-03T03:52:11.000Z</Time>
            <Position>
              <LatitudeDegrees>-15.33835197798907756805419921875</LatitudeDegrees>
              <LongitudeDegrees>37.08173752762377262115478515625</LongitudeDegrees>
            </Position>
            <AltitudeMeters>1251.4000244140625</AltitudeMeters>
            <DistanceMeters>NAN</DistanceMeters>
          </Trackpoint>
          <Trackpoint>
            <Time>2021-08-03T03:52:12.000Z</Time>
            <Position>
              <LatitudeDegrees>-15.33836069516837596893310546875</LatitudeDegrees>
              <LongitudeDegrees>37.0817345939576625823974609375</LongitudeDegrees>
            </Position>
            <AltitudeMeters>1251.5999755859375</AltitudeMeters>
            <DistanceMeters>NAN</DistanceMeters>
          </Trackpoint>
          <Trackpoint>
            <Time>2021-08-03T03:52:17.000Z</Time>
            <Position>
              <LatitudeDegrees>-15.3383839130401611328125</LatitudeDegrees>
              <LongitudeDegrees>37.08170701749622821807861328125</LongitudeDegrees>
            </Position>
            <AltitudeMeters>1252.5999755859375</AltitudeMeters>
            <DistanceMeters>NAN</DistanceMeters>
          </Trackpoint>
          <Trackpoint>
            <Time>2021-08-03T03:52:18.000Z</Time>
            <Position>
              <LatitudeDegrees>-15.3383887745440006256103515625</LatitudeDegrees>
              <LongitudeDegrees>37.08169695921242237091064453125</LongitudeDegrees>
            </Position>
            <AltitudeMeters>1252.800048828125</AltitudeMeters>
            <DistanceMeters>NAN</DistanceMeters>
          </Trackpoint>
          <Trackpoint>
            <Time>2021-08-03T03:52:22.000Z</Time>
            <Position>
              <LatitudeDegrees>-15.33840377815067768096923828125</LatitudeDegrees>
              <LongitudeDegrees>37.081665694713592529296875</LongitudeDegrees>
            </Position>
            <AltitudeMeters>1253.5999755859375</AltitudeMeters>
            <DistanceMeters>NAN</DistanceMeters>
          </Trackpoint>
          <Trackpoint>
            <Time>2021-08-03T03:52:24.000Z</Time>
            <Position>
              <LatitudeDegrees>-15.33841467462480068206787109375</LatitudeDegrees>
              <LongitudeDegrees>37.08164935000240802764892578125</LongitudeDegrees>
            </Position>
            <AltitudeMeters>1254.4000244140625</AltitudeMeters>
            <DistanceMeters>NAN</DistanceMeters>
          </Trackpoint>
          <Trackpoint>
            <Time>2021-08-03T03:52:27.000Z</Time>
            <Position>
              <LatitudeDegrees>-15.33843428827822208404541015625</LatitudeDegrees>
              <LongitudeDegrees>37.08162554539740085601806640625</LongitudeDegrees>
            </Position>
            <AltitudeMeters>1255</AltitudeMeters>
            <DistanceMeters>NAN</DistanceMeters>
          </Trackpoint>
          <Trackpoint>
            <Time>2021-08-03T03:52:30.000Z</Time>
            <Position>
              <LatitudeDegrees>-15.33845272846519947052001953125</LatitudeDegrees>
              <LongitudeDegrees>37.0816024951636791229248046875</LongitudeDegrees>
            </Position>
            <AltitudeMeters>1255.800048828125</AltitudeMeters>
            <DistanceMeters>NAN</DistanceMeters>
          </Trackpoint>
          <Trackpoint>
            <Time>2021-08-03T03:52:32.000Z</Time>
            <Position>
              <LatitudeDegrees>-15.33845809288322925567626953125</LatitudeDegrees>
              <LongitudeDegrees>37.08158497698605060577392578125</LongitudeDegrees>
            </Position>
            <AltitudeMeters>1256</AltitudeMeters>
            <DistanceMeters>NAN</DistanceMeters>
          </Trackpoint>
          <Trackpoint>
            <Time>2021-08-03T03:52:33.000Z</Time>
            <Position>
              <LatitudeDegrees>-15.3384635411202907562255859375</LatitudeDegrees>
              <LongitudeDegrees>37.0815785229206085205078125</LongitudeDegrees>
            </Position>
            <AltitudeMeters>1256.5999755859375</AltitudeMeters>
            <DistanceMeters>NAN</DistanceMeters>
          </Trackpoint>
          <Trackpoint>
            <Time>2021-08-03T03:52:35.000Z</Time>
            <Position>
              <LatitudeDegrees>-15.33847351558506488800048828125</LatitudeDegrees>
              <LongitudeDegrees>37.0815642736852169036865234375</LongitudeDegrees>
            </Position>
            <AltitudeMeters>1257</AltitudeMeters>
            <DistanceMeters>NAN</DistanceMeters>
          </Trackpoint>
          <Trackpoint>
            <Time>2021-08-03T03:52:38.000Z</Time>
            <Position>
              <LatitudeDegrees>-15.33848742954432964324951171875</LatitudeDegrees>
              <LongitudeDegrees>37.0815354399383068084716796875</LongitudeDegrees>
            </Position>
            <AltitudeMeters>1257.5999755859375</AltitudeMeters>
            <DistanceMeters>NAN</DistanceMeters>
          </Trackpoint>
          <Trackpoint>
            <Time>2021-08-03T03:52:39.000Z</Time>
            <Position>
              <LatitudeDegrees>-15.3384900279343128204345703125</LatitudeDegrees>
              <LongitudeDegrees>37.081526219844818115234375</LongitudeDegrees>
            </Position>
            <AltitudeMeters>1257.800048828125</AltitudeMeters>
            <DistanceMeters>NAN</DistanceMeters>
          </Trackpoint>
          <Trackpoint>
            <Time>2021-08-03T03:52:45.000Z</Time>
            <Position>
              <LatitudeDegrees>-15.3385094739496707916259765625</LatitudeDegrees>
              <LongitudeDegrees>37.08147936500608921051025390625</LongitudeDegrees>
            </Position>
            <AltitudeMeters>1259.199951171875</AltitudeMeters>
            <DistanceMeters>NAN</DistanceMeters>
          </Trackpoint>
          <Trackpoint>
            <Time>2021-08-03T03:52:48.000Z</Time>
            <Position>
              <LatitudeDegrees>-15.3385222144424915313720703125</LatitudeDegrees>
              <LongitudeDegrees>37.081450112164020538330078125</LongitudeDegrees>
            </Position>
            <AltitudeMeters>1259.800048828125</AltitudeMeters>
            <DistanceMeters>NAN</DistanceMeters>
          </Trackpoint>
          <Trackpoint>
            <Time>2021-08-03T03:52:49.000Z</Time>
            <Position>
              <LatitudeDegrees>-15.3385248966515064239501953125</LatitudeDegrees>
              <LongitudeDegrees>37.08143846131861209869384765625</LongitudeDegrees>
            </Position>
            <AltitudeMeters>1260.199951171875</AltitudeMeters>
            <DistanceMeters>NAN</DistanceMeters>
          </Trackpoint>
          <Trackpoint>
            <Time>2021-08-03T03:52:50.000Z</Time>
            <Position>
              <LatitudeDegrees>-15.3385247290134429931640625</LatitudeDegrees>
              <LongitudeDegrees>37.08142387680709362030029296875</LongitudeDegrees>
            </Position>
            <AltitudeMeters>1260.199951171875</AltitudeMeters>
            <DistanceMeters>NAN</DistanceMeters>
          </Trackpoint>
          <Trackpoint>
            <Time>2021-08-03T03:52:56.000Z</Time>
            <Position>
              <LatitudeDegrees>-15.3385621123015880584716796875</LatitudeDegrees>
              <LongitudeDegrees>37.08138179965317249298095703125</LongitudeDegrees>
            </Position>
            <AltitudeMeters>1261.4000244140625</AltitudeMeters>
            <DistanceMeters>NAN</DistanceMeters>
          </Trackpoint>
          <Trackpoint>
            <Time>2021-08-03T03:53:03.000Z</Time>
            <Position>
              <LatitudeDegrees>-15.338574685156345367431640625</LatitudeDegrees>
              <LongitudeDegrees>37.08131742663681507110595703125</LongitudeDegrees>
            </Position>
            <AltitudeMeters>1262.5999755859375</AltitudeMeters>
            <DistanceMeters>NAN</DistanceMeters>
          </Trackpoint>
          <Trackpoint>
            <Time>2021-08-03T03:53:06.000Z</Time>
            <Position>
              <LatitudeDegrees>-15.33858172595500946044921875</LatitudeDegrees>
              <LongitudeDegrees>37.0812813006341457366943359375</LongitudeDegrees>
            </Position>
            <AltitudeMeters>1262.800048828125</AltitudeMeters>
            <DistanceMeters>NAN</DistanceMeters>
          </Trackpoint>
          <Trackpoint>
            <Time>2021-08-03T03:53:08.000Z</Time>
            <Position>
              <LatitudeDegrees>-15.33859237097203731536865234375</LatitudeDegrees>
              <LongitudeDegrees>37.08126596175134181976318359375</LongitudeDegrees>
            </Position>
            <AltitudeMeters>1263.4000244140625</AltitudeMeters>
            <DistanceMeters>NAN</DistanceMeters>
          </Trackpoint>
          <Trackpoint>
            <Time>2021-08-03T03:53:10.000Z</Time>
            <Position>
              <LatitudeDegrees>-15.33860578201711177825927734375</LatitudeDegrees>
              <LongitudeDegrees>37.08126344718039035797119140625</LongitudeDegrees>
            </Position>
            <AltitudeMeters>1263.800048828125</AltitudeMeters>
            <DistanceMeters>NAN</DistanceMeters>
          </Trackpoint>
          <Trackpoint>
            <Time>2021-08-03T03:53:14.000Z</Time>
            <Position>
              <LatitudeDegrees>-15.338635034859180450439453125</LatitudeDegrees>
              <LongitudeDegrees>37.08124601282179355621337890625</LongitudeDegrees>
            </Position>
            <AltitudeMeters>1264.4000244140625</AltitudeMeters>
            <DistanceMeters>NAN</DistanceMeters>
          </Trackpoint>
          <Trackpoint>
            <Time>2021-08-03T03:53:15.000Z</Time>
            <Position>
              <LatitudeDegrees>-15.33864148892462253570556640625</LatitudeDegrees>
              <LongitudeDegrees>37.081243582069873809814453125</LongitudeDegrees>
            </Position>
            <AltitudeMeters>1264.800048828125</AltitudeMeters>
            <DistanceMeters>NAN</DistanceMeters>
          </Trackpoint>
          <Trackpoint>
            <Time>2021-08-03T03:53:18.000Z</Time>
            <Position>
              <LatitudeDegrees>-15.33866227604448795318603515625</LatitudeDegrees>
              <LongitudeDegrees>37.0812330208718776702880859375</LongitudeDegrees>
            </Position>
            <AltitudeMeters>1265.199951171875</AltitudeMeters>
            <DistanceMeters>NAN</DistanceMeters>
          </Trackpoint>
          <Trackpoint>
            <Time>2021-08-03T03:53:21.000Z</Time>
            <Position>
              <LatitudeDegrees>-15.33868289552628993988037109375</LatitudeDegrees>
              <LongitudeDegrees>37.08121231757104396820068359375</LongitudeDegrees>
            </Position>
            <AltitudeMeters>1266</AltitudeMeters>
            <DistanceMeters>NAN</DistanceMeters>
          </Trackpoint>
          <Trackpoint>
            <Time>2021-08-03T03:53:27.000Z</Time>
            <Position>
              <LatitudeDegrees>-15.33871608786284923553466796875</LatitudeDegrees>
              <LongitudeDegrees>37.08117359317839145660400390625</LongitudeDegrees>
            </Position>
            <AltitudeMeters>1267</AltitudeMeters>
            <DistanceMeters>NAN</DistanceMeters>
          </Trackpoint>
          <Trackpoint>
            <Time>2021-08-03T03:53:28.000Z</Time>
            <Position>
              <LatitudeDegrees>-15.3387223742902278900146484375</LatitudeDegrees>
              <LongitudeDegrees>37.0811693184077739715576171875</LongitudeDegrees>
            </Position>
            <AltitudeMeters>1267.5999755859375</AltitudeMeters>
            <DistanceMeters>NAN</DistanceMeters>
          </Trackpoint>
          <Trackpoint>
            <Time>2021-08-03T03:53:29.000Z</Time>
            <Position>
              <LatitudeDegrees>-15.33873134292662143707275390625</LatitudeDegrees>
              <LongitudeDegrees>37.0811639539897441864013671875</LongitudeDegrees>
            </Position>
            <AltitudeMeters>1268</AltitudeMeters>
            <DistanceMeters>NAN</DistanceMeters>
          </Trackpoint>
          <Trackpoint>
            <Time>2021-08-03T03:53:33.000Z</Time>
            <Position>
              <LatitudeDegrees>-15.33876545727252960205078125</LatitudeDegrees>
              <LongitudeDegrees>37.0811451785266399383544921875</LongitudeDegrees>
            </Position>
            <AltitudeMeters>1269</AltitudeMeters>
            <DistanceMeters>NAN</DistanceMeters>
          </Trackpoint>
          <Trackpoint>
            <Time>2021-08-03T03:53:38.000Z</Time>
            <Position>
              <LatitudeDegrees>-15.3387941233813762664794921875</LatitudeDegrees>
              <LongitudeDegrees>37.08111919462680816650390625</LongitudeDegrees>
            </Position>
            <AltitudeMeters>1269.800048828125</AltitudeMeters>
            <DistanceMeters>NAN</DistanceMeters>
          </Trackpoint>
          <Trackpoint>
            <Time>2021-08-03T03:53:40.000Z</Time>
            <Position>
              <LatitudeDegrees>-15.338806696236133575439453125</LatitudeDegrees>
              <LongitudeDegrees>37.081108801066875457763671875</LongitudeDegrees>
            </Position>
            <AltitudeMeters>1270.199951171875</AltitudeMeters>
            <DistanceMeters>NAN</DistanceMeters>
          </Trackpoint>
          <Trackpoint>
            <Time>2021-08-03T03:53:45.000Z</Time>
            <Position>
              <LatitudeDegrees>-15.33883427269756793975830078125</LatitudeDegrees>
              <LongitudeDegrees>37.08107904531061649322509765625</LongitudeDegrees>
            </Position>
            <AltitudeMeters>1271.4000244140625</AltitudeMeters>
            <DistanceMeters>NAN</DistanceMeters>
          </Trackpoint>
          <Trackpoint>
            <Time>2021-08-03T03:53:49.000Z</Time>
            <Position>
              <LatitudeDegrees>-15.33886469900608062744140625</LatitudeDegrees>
              <LongitudeDegrees>37.08105993457138538360595703125</LongitudeDegrees>
            </Position>
            <AltitudeMeters>1272.199951171875</AltitudeMeters>
            <DistanceMeters>NAN</DistanceMeters>
          </Trackpoint>
          <Trackpoint>
            <Time>2021-08-03T03:53:50.000Z</Time>
            <Position>
              <LatitudeDegrees>-15.33887274563312530517578125</LatitudeDegrees>
              <LongitudeDegrees>37.08105750381946563720703125</LongitudeDegrees>
            </Position>
            <AltitudeMeters>1272.5999755859375</AltitudeMeters>
            <DistanceMeters>NAN</DistanceMeters>
          </Trackpoint>
          <Trackpoint>
            <Time>2021-08-03T03:53:54.000Z</Time>
            <Position>
              <LatitudeDegrees>-15.3388916887342929840087890625</LatitudeDegrees>
              <LongitudeDegrees>37.0810439251363277435302734375</LongitudeDegrees>
            </Position>
            <AltitudeMeters>1273.800048828125</AltitudeMeters>
            <DistanceMeters>NAN</DistanceMeters>
          </Trackpoint>
          <Trackpoint>
            <Time>2021-08-03T03:54:00.000Z</Time>
            <Position>
              <LatitudeDegrees>-15.3389203548431396484375</LatitudeDegrees>
              <LongitudeDegrees>37.08098583854734897613525390625</LongitudeDegrees>
            </Position>
            <AltitudeMeters>1275.4000244140625</AltitudeMeters>
            <DistanceMeters>NAN</DistanceMeters>
          </Trackpoint>
          <Trackpoint>
            <Time>2021-08-03T03:54:01.000Z</Time>
            <Position>
              <LatitudeDegrees>-15.33892613835632801055908203125</LatitudeDegrees>
              <LongitudeDegrees>37.08097837865352630615234375</LongitudeDegrees>
            </Position>
            <AltitudeMeters>1275.5999755859375</AltitudeMeters>
            <DistanceMeters>NAN</DistanceMeters>
          </Trackpoint>
          <Trackpoint>
            <Time>2021-08-03T03:54:05.000Z</Time>
            <Position>
              <LatitudeDegrees>-15.33893980085849761962890625</LatitudeDegrees>
              <LongitudeDegrees>37.08094778470695018768310546875</LongitudeDegrees>
            </Position>
            <AltitudeMeters>1276.199951171875</AltitudeMeters>
            <DistanceMeters>NAN</DistanceMeters>
          </Trackpoint>
          <Trackpoint>
            <Time>2021-08-03T03:54:07.000Z</Time>
            <Position>
              <LatitudeDegrees>-15.33895187079906463623046875</LatitudeDegrees>
              <LongitudeDegrees>37.080943845212459564208984375</LongitudeDegrees>
            </Position>
            <AltitudeMeters>1276.5999755859375</AltitudeMeters>
            <DistanceMeters>NAN</DistanceMeters>
          </Trackpoint>
          <Trackpoint>
            <Time>2021-08-03T03:54:10.000Z</Time>
            <Position>
              <LatitudeDegrees>-15.3389791958034038543701171875</LatitudeDegrees>
              <LongitudeDegrees>37.080933116376399993896484375</LongitudeDegrees>
            </Position>
            <AltitudeMeters>1277</AltitudeMeters>
            <DistanceMeters>NAN</DistanceMeters>
          </Trackpoint>
          <Trackpoint>
            <Time>2021-08-03T03:54:12.000Z</Time>
            <Position>
              <LatitudeDegrees>-15.3390073589980602264404296875</LatitudeDegrees>
              <LongitudeDegrees>37.08092347718775272369384765625</LongitudeDegrees>
            </Position>
            <AltitudeMeters>1277.800048828125</AltitudeMeters>
            <DistanceMeters>NAN</DistanceMeters>
          </Trackpoint>
          <Trackpoint>
            <Time>2021-08-03T03:54:14.000Z</Time>
            <Position>
              <LatitudeDegrees>-15.33902437426149845123291015625</LatitudeDegrees>
              <LongitudeDegrees>37.0809114910662174224853515625</LongitudeDegrees>
            </Position>
            <AltitudeMeters>1278.4000244140625</AltitudeMeters>
            <DistanceMeters>NAN</DistanceMeters>
          </Trackpoint>
          <Trackpoint>
            <Time>2021-08-03T03:54:16.000Z</Time>
            <Position>
              <LatitudeDegrees>-15.3390375338494777679443359375</LatitudeDegrees>
              <LongitudeDegrees>37.08090017549693584442138671875</LongitudeDegrees>
            </Position>
            <AltitudeMeters>1278.800048828125</AltitudeMeters>
            <DistanceMeters>NAN</DistanceMeters>
          </Trackpoint>
          <Trackpoint>
            <Time>2021-08-03T03:54:17.000Z</Time>
            <Position>
              <LatitudeDegrees>-15.339045412838459014892578125</LatitudeDegrees>
              <LongitudeDegrees>37.0808920450508594512939453125</LongitudeDegrees>
            </Position>
            <AltitudeMeters>1279</AltitudeMeters>
            <DistanceMeters>NAN</DistanceMeters>
          </Trackpoint>
          <Trackpoint>
            <Time>2021-08-03T03:54:19.000Z</Time>
            <Position>
              <LatitudeDegrees>-15.3390553034842014312744140625</LatitudeDegrees>
              <LongitudeDegrees>37.08088173530995845794677734375</LongitudeDegrees>
            </Position>
            <AltitudeMeters>1280</AltitudeMeters>
            <DistanceMeters>NAN</DistanceMeters>
          </Trackpoint>
          <Trackpoint>
            <Time>2021-08-03T03:54:22.000Z</Time>
            <Position>
              <LatitudeDegrees>-15.3390781022608280181884765625</LatitudeDegrees>
              <LongitudeDegrees>37.080863378942012786865234375</LongitudeDegrees>
            </Position>
            <AltitudeMeters>1280.199951171875</AltitudeMeters>
            <DistanceMeters>NAN</DistanceMeters>
          </Trackpoint>
          <Trackpoint>
            <Time>2021-08-03T03:54:26.000Z</Time>
            <Position>
              <LatitudeDegrees>-15.3390965424478054046630859375</LatitudeDegrees>
              <LongitudeDegrees>37.080838568508625030517578125</LongitudeDegrees>
            </Position>
            <AltitudeMeters>1281</AltitudeMeters>
            <DistanceMeters>NAN</DistanceMeters>
          </Trackpoint>
          <Trackpoint>
            <Time>2021-08-03T03:54:29.000Z</Time>
            <Position>
              <LatitudeDegrees>-15.33911070786416530609130859375</LatitudeDegrees>
              <LongitudeDegrees>37.0808248221874237060546875</LongitudeDegrees>
            </Position>
            <AltitudeMeters>1281.800048828125</AltitudeMeters>
            <DistanceMeters>NAN</DistanceMeters>
          </Trackpoint>
          <Trackpoint>
            <Time>2021-08-03T03:54:31.000Z</Time>
            <Position>
              <LatitudeDegrees>-15.3391226939857006072998046875</LatitudeDegrees>
              <LongitudeDegrees>37.0808162726461887359619140625</LongitudeDegrees>
            </Position>
            <AltitudeMeters>1282.199951171875</AltitudeMeters>
            <DistanceMeters>NAN</DistanceMeters>
          </Trackpoint>
          <Trackpoint>
            <Time>2021-08-03T03:54:35.000Z</Time>
            <Position>
              <LatitudeDegrees>-15.3391575627028942108154296875</LatitudeDegrees>
              <LongitudeDegrees>37.08083563484251499176025390625</LongitudeDegrees>
            </Position>
            <AltitudeMeters>1283.199951171875</AltitudeMeters>
            <DistanceMeters>NAN</DistanceMeters>
          </Trackpoint>
          <Trackpoint>
            <Time>2021-08-03T03:54:36.000Z</Time>
            <Position>
              <LatitudeDegrees>-15.3391652740538120269775390625</LatitudeDegrees>
              <LongitudeDegrees>37.08083848468959331512451171875</LongitudeDegrees>
            </Position>
            <AltitudeMeters>1283.5999755859375</AltitudeMeters>
            <DistanceMeters>NAN</DistanceMeters>
          </Trackpoint>
          <Trackpoint>
            <Time>2021-08-03T03:54:39.000Z</Time>
            <Position>
              <LatitudeDegrees>-15.339186228811740875244140625</LatitudeDegrees>
              <LongitudeDegrees>37.0808504708111286163330078125</LongitudeDegrees>
            </Position>
            <AltitudeMeters>1284.199951171875</AltitudeMeters>
            <DistanceMeters>NAN</DistanceMeters>
          </Trackpoint>
          <Trackpoint>
            <Time>2021-08-03T03:54:40.000Z</Time>
            <Position>
              <LatitudeDegrees>-15.339194275438785552978515625</LatitudeDegrees>
              <LongitudeDegrees>37.08085290156304836273193359375</LongitudeDegrees>
            </Position>
            <AltitudeMeters>1284.4000244140625</AltitudeMeters>
            <DistanceMeters>NAN</DistanceMeters>
          </Trackpoint>
          <Trackpoint>
            <Time>2021-08-03T03:54:41.000Z</Time>
            <Position>
              <LatitudeDegrees>-15.33919888548552989959716796875</LatitudeDegrees>
              <LongitudeDegrees>37.08085306920111179351806640625</LongitudeDegrees>
            </Position>
            <AltitudeMeters>1285</AltitudeMeters>
            <DistanceMeters>NAN</DistanceMeters>
          </Trackpoint>
          <Trackpoint>
            <Time>2021-08-03T03:54:46.000Z</Time>
            <Position>
              <LatitudeDegrees>-15.33923107199370861053466796875</LatitudeDegrees>
              <LongitudeDegrees>37.0808558352291584014892578125</LongitudeDegrees>
            </Position>
            <AltitudeMeters>1286</AltitudeMeters>
            <DistanceMeters>NAN</DistanceMeters>
          </Trackpoint>
          <Trackpoint>
            <Time>2021-08-03T03:54:51.000Z</Time>
            <Position>
              <LatitudeDegrees>-15.33926208503544330596923828125</LatitudeDegrees>
              <LongitudeDegrees>37.080876789987087249755859375</LongitudeDegrees>
            </Position>
            <AltitudeMeters>1287</AltitudeMeters>
            <DistanceMeters>NAN</DistanceMeters>
          </Trackpoint>
          <Trackpoint>
            <Time>2021-08-03T03:54:56.000Z</Time>
            <Position>
              <LatitudeDegrees>-15.33930131234228610992431640625</LatitudeDegrees>
              <LongitudeDegrees>37.0809000916779041290283203125</LongitudeDegrees>
            </Position>
            <AltitudeMeters>1288.199951171875</AltitudeMeters>
            <DistanceMeters>NAN</DistanceMeters>
          </Trackpoint>
          <Trackpoint>
            <Time>2021-08-03T03:54:57.000Z</Time>
            <Position>
              <LatitudeDegrees>-15.33930801786482334136962890625</LatitudeDegrees>
              <LongitudeDegrees>37.08090553991496562957763671875</LongitudeDegrees>
            </Position>
            <AltitudeMeters>1288.4000244140625</AltitudeMeters>
            <DistanceMeters>NAN</DistanceMeters>
          </Trackpoint>
          <Trackpoint>
            <Time>2021-08-03T03:55:02.000Z</Time>
            <Position>
              <LatitudeDegrees>-15.33934347331523895263671875</LatitudeDegrees>
              <LongitudeDegrees>37.0809321105480194091796875</LongitudeDegrees>
            </Position>
            <AltitudeMeters>1289.199951171875</AltitudeMeters>
            <DistanceMeters>NAN</DistanceMeters>
          </Trackpoint>
          <Trackpoint>
            <Time>2021-08-03T03:55:04.000Z</Time>
            <Position>
              <LatitudeDegrees>-15.33935730345547199249267578125</LatitudeDegrees>
              <LongitudeDegrees>37.08094359375536441802978515625</LongitudeDegrees>
            </Position>
            <AltitudeMeters>1289.5999755859375</AltitudeMeters>
            <DistanceMeters>NAN</DistanceMeters>
          </Trackpoint>
          <Trackpoint>
            <Time>2021-08-03T03:55:07.000Z</Time>
            <Position>
              <LatitudeDegrees>-15.339378677308559417724609375</LatitudeDegrees>
              <LongitudeDegrees>37.08096270449459552764892578125</LongitudeDegrees>
            </Position>
            <AltitudeMeters>1290.4000244140625</AltitudeMeters>
            <DistanceMeters>NAN</DistanceMeters>
          </Trackpoint>
          <Trackpoint>
            <Time>2021-08-03T03:55:11.000Z</Time>
            <Position>
              <LatitudeDegrees>-15.33940189518034458160400390625</LatitudeDegrees>
              <LongitudeDegrees>37.0809862576425075531005859375</LongitudeDegrees>
            </Position>
            <AltitudeMeters>1291</AltitudeMeters>
            <DistanceMeters>NAN</DistanceMeters>
          </Trackpoint>
          <Trackpoint>
            <Time>2021-08-03T03:55:13.000Z</Time>
            <Position>
              <LatitudeDegrees>-15.33941061235964298248291015625</LatitudeDegrees>
              <LongitudeDegrees>37.08099757321178913116455078125</LongitudeDegrees>
            </Position>
            <AltitudeMeters>1291.800048828125</AltitudeMeters>
            <DistanceMeters>NAN</DistanceMeters>
          </Trackpoint>
          <Trackpoint>
            <Time>2021-08-03T03:55:17.000Z</Time>
            <Position>
              <LatitudeDegrees>-15.33943642862141132354736328125</LatitudeDegrees>
              <LongitudeDegrees>37.0810248143970966339111328125</LongitudeDegrees>
            </Position>
            <AltitudeMeters>1292.800048828125</AltitudeMeters>
            <DistanceMeters>NAN</DistanceMeters>
          </Trackpoint>
          <Trackpoint>
            <Time>2021-08-03T03:55:22.000Z</Time>
            <Position>
              <LatitudeDegrees>-15.33947356045246124267578125</LatitudeDegrees>
              <LongitudeDegrees>37.0810345374047756195068359375</LongitudeDegrees>
            </Position>
            <AltitudeMeters>1293.5999755859375</AltitudeMeters>
            <DistanceMeters>NAN</DistanceMeters>
          </Trackpoint>
          <Trackpoint>
            <Time>2021-08-03T03:55:25.000Z</Time>
            <Position>
              <LatitudeDegrees>-15.3394881449639797210693359375</LatitudeDegrees>
              <LongitudeDegrees>37.0810325257480144500732421875</LongitudeDegrees>
            </Position>
            <AltitudeMeters>1294</AltitudeMeters>
            <DistanceMeters>NAN</DistanceMeters>
          </Trackpoint>
          <Trackpoint>
            <Time>2021-08-03T03:55:28.000Z</Time>
            <Position>
              <LatitudeDegrees>-15.339510440826416015625</LatitudeDegrees>
              <LongitudeDegrees>37.08103612996637821197509765625</LongitudeDegrees>
            </Position>
            <AltitudeMeters>1294.800048828125</AltitudeMeters>
            <DistanceMeters>NAN</DistanceMeters>
          </Trackpoint>
          <Trackpoint>
            <Time>2021-08-03T03:55:30.000Z</Time>
            <Position>
              <LatitudeDegrees>-15.3395273722708225250244140625</LatitudeDegrees>
              <LongitudeDegrees>37.0810456015169620513916015625</LongitudeDegrees>
            </Position>
            <AltitudeMeters>1295.199951171875</AltitudeMeters>
            <DistanceMeters>NAN</DistanceMeters>
          </Trackpoint>
          <Trackpoint>
            <Time>2021-08-03T03:55:31.000Z</Time>
            <Position>
              <LatitudeDegrees>-15.3395374305546283721923828125</LatitudeDegrees>
              <LongitudeDegrees>37.08105373196303844451904296875</LongitudeDegrees>
            </Position>
            <AltitudeMeters>1295.199951171875</AltitudeMeters>
            <DistanceMeters>NAN</DistanceMeters>
          </Trackpoint>
          <Trackpoint>
            <Time>2021-08-03T03:55:34.000Z</Time>
            <Position>
              <LatitudeDegrees>-15.33955670893192291259765625</LatitudeDegrees>
              <LongitudeDegrees>37.08106345497071743011474609375</LongitudeDegrees>
            </Position>
            <AltitudeMeters>1296.4000244140625</AltitudeMeters>
            <DistanceMeters>NAN</DistanceMeters>
          </Trackpoint>
          <Trackpoint>
            <Time>2021-08-03T03:55:36.000Z</Time>
            <Position>
              <LatitudeDegrees>-15.33956953324377536773681640625</LatitudeDegrees>
              <LongitudeDegrees>37.08107166923582553863525390625</LongitudeDegrees>
            </Position>
            <AltitudeMeters>1296.800048828125</AltitudeMeters>
            <DistanceMeters>NAN</DistanceMeters>
          </Trackpoint>
          <Trackpoint>
            <Time>2021-08-03T03:55:39.000Z</Time>
            <Position>
              <LatitudeDegrees>-15.339594595134258270263671875</LatitudeDegrees>
              <LongitudeDegrees>37.08107200451195240020751953125</LongitudeDegrees>
            </Position>
            <AltitudeMeters>1297.199951171875</AltitudeMeters>
            <DistanceMeters>NAN</DistanceMeters>
          </Trackpoint>
          <Trackpoint>
            <Time>2021-08-03T03:55:40.000Z</Time>
            <Position>
              <LatitudeDegrees>-15.33960021100938320159912109375</LatitudeDegrees>
              <LongitudeDegrees>37.08107091486454010009765625</LongitudeDegrees>
            </Position>
            <AltitudeMeters>1297.5999755859375</AltitudeMeters>
            <DistanceMeters>NAN</DistanceMeters>
          </Trackpoint>
          <Trackpoint>
            <Time>2021-08-03T03:55:42.000Z</Time>
            <Position>
              <LatitudeDegrees>-15.33961228094995021820068359375</LatitudeDegrees>
              <LongitudeDegrees>37.08107066340744495391845703125</LongitudeDegrees>
            </Position>
            <AltitudeMeters>1298.199951171875</AltitudeMeters>
            <DistanceMeters>NAN</DistanceMeters>
          </Trackpoint>
          <Trackpoint>
            <Time>2021-08-03T03:55:45.000Z</Time>
            <Position>
              <LatitudeDegrees>-15.3396316431462764739990234375</LatitudeDegrees>
              <LongitudeDegrees>37.08106932230293750762939453125</LongitudeDegrees>
            </Position>
            <AltitudeMeters>1299</AltitudeMeters>
            <DistanceMeters>NAN</DistanceMeters>
          </Trackpoint>
          <Trackpoint>
            <Time>2021-08-03T03:55:47.000Z</Time>
            <Position>
              <LatitudeDegrees>-15.33964731730520725250244140625</LatitudeDegrees>
              <LongitudeDegrees>37.0810734294354915618896484375</LongitudeDegrees>
            </Position>
            <AltitudeMeters>1299.4000244140625</AltitudeMeters>
            <DistanceMeters>NAN</DistanceMeters>
          </Trackpoint>
          <Trackpoint>
            <Time>2021-08-03T03:55:51.000Z</Time>
            <Position>
              <LatitudeDegrees>-15.33968168310821056365966796875</LatitudeDegrees>
              <LongitudeDegrees>37.08107887767255306243896484375</LongitudeDegrees>
            </Position>
            <AltitudeMeters>1300.199951171875</AltitudeMeters>
            <DistanceMeters>NAN</DistanceMeters>
          </Trackpoint>
          <Trackpoint>
            <Time>2021-08-03T03:55:52.000Z</Time>
            <Position>
              <LatitudeDegrees>-15.33969006501138210296630859375</LatitudeDegrees>
              <LongitudeDegrees>37.0810811407864093780517578125</LongitudeDegrees>
            </Position>
            <AltitudeMeters>1300.4000244140625</AltitudeMeters>
            <DistanceMeters>NAN</DistanceMeters>
          </Trackpoint>
          <Trackpoint>
            <Time>2021-08-03T03:55:53.000Z</Time>
            <Position>
              <LatitudeDegrees>-15.3397030569612979888916015625</LatitudeDegrees>
              <LongitudeDegrees>37.081089355051517486572265625</LongitudeDegrees>
            </Position>
            <AltitudeMeters>1300.800048828125</AltitudeMeters>
            <DistanceMeters>NAN</DistanceMeters>
          </Trackpoint>
          <Trackpoint>
            <Time>2021-08-03T03:55:57.000Z</Time>
            <Position>
              <LatitudeDegrees>-15.339732058346271514892578125</LatitudeDegrees>
              <LongitudeDegrees>37.0811143331229686737060546875</LongitudeDegrees>
            </Position>
            <AltitudeMeters>1301.199951171875</AltitudeMeters>
            <DistanceMeters>NAN</DistanceMeters>
          </Trackpoint>
          <Trackpoint>
            <Time>2021-08-03T03:56:01.000Z</Time>
            <Position>
              <LatitudeDegrees>-15.33976768143475055694580078125</LatitudeDegrees>
              <LongitudeDegrees>37.0811203680932521820068359375</LongitudeDegrees>
            </Position>
            <AltitudeMeters>1302.199951171875</AltitudeMeters>
            <DistanceMeters>NAN</DistanceMeters>
          </Trackpoint>
          <Trackpoint>
            <Time>2021-08-03T03:56:04.000Z</Time>
            <Position>
              <LatitudeDegrees>-15.3397952578961849212646484375</LatitudeDegrees>
              <LongitudeDegrees>37.08112397231161594390869140625</LongitudeDegrees>
            </Position>
            <AltitudeMeters>1302.800048828125</AltitudeMeters>
            <DistanceMeters>NAN</DistanceMeters>
          </Trackpoint>
          <Trackpoint>
            <Time>2021-08-03T03:56:07.000Z</Time>
            <Position>
              <LatitudeDegrees>-15.3398068249225616455078125</LatitudeDegrees>
              <LongitudeDegrees>37.08113034255802631378173828125</LongitudeDegrees>
            </Position>
            <AltitudeMeters>1303.4000244140625</AltitudeMeters>
            <DistanceMeters>NAN</DistanceMeters>
          </Trackpoint>
          <Trackpoint>
            <Time>2021-08-03T03:56:08.000Z</Time>
            <Position>
              <LatitudeDegrees>-15.33981344662606716156005859375</LatitudeDegrees>
              <LongitudeDegrees>37.08113537169992923736572265625</LongitudeDegrees>
            </Position>
            <AltitudeMeters>1303.5999755859375</AltitudeMeters>
            <DistanceMeters>NAN</DistanceMeters>
          </Trackpoint>
          <Trackpoint>
            <Time>2021-08-03T03:56:13.000Z</Time>
            <Position>
              <LatitudeDegrees>-15.33984915353357791900634765625</LatitudeDegrees>
              <LongitudeDegrees>37.0811592601239681243896484375</LongitudeDegrees>
            </Position>
            <AltitudeMeters>1304.4000244140625</AltitudeMeters>
            <DistanceMeters>NAN</DistanceMeters>
          </Trackpoint>
          <Trackpoint>
            <Time>2021-08-03T03:56:16.000Z</Time>
            <Position>
              <LatitudeDegrees>-15.33986650407314300537109375</LatitudeDegrees>
              <LongitudeDegrees>37.08117417991161346435546875</LongitudeDegrees>
            </Position>
            <AltitudeMeters>1305</AltitudeMeters>
            <DistanceMeters>NAN</DistanceMeters>
          </Trackpoint>
          <Trackpoint>
            <Time>2021-08-03T03:56:20.000Z</Time>
            <Position>
              <LatitudeDegrees>-15.3398931585252285003662109375</LatitudeDegrees>
              <LongitudeDegrees>37.08118231035768985748291015625</LongitudeDegrees>
            </Position>
            <AltitudeMeters>1305.5999755859375</AltitudeMeters>
            <DistanceMeters>NAN</DistanceMeters>
          </Trackpoint>
          <Trackpoint>
            <Time>2021-08-03T03:56:23.000Z</Time>
            <Position>
              <LatitudeDegrees>-15.3399248421192169189453125</LatitudeDegrees>
              <LongitudeDegrees>37.08119186572730541229248046875</LongitudeDegrees>
            </Position>
            <AltitudeMeters>1306</AltitudeMeters>
            <DistanceMeters>NAN</DistanceMeters>
          </Trackpoint>
          <Trackpoint>
            <Time>2021-08-03T03:56:26.000Z</Time>
            <Position>
              <LatitudeDegrees>-15.3399484790861606597900390625</LatitudeDegrees>
              <LongitudeDegrees>37.08118884824216365814208984375</LongitudeDegrees>
            </Position>
            <AltitudeMeters>1306.5999755859375</AltitudeMeters>
            <DistanceMeters>NAN</DistanceMeters>
          </Trackpoint>
          <Trackpoint>
            <Time>2021-08-03T03:56:29.000Z</Time>
            <Position>
              <LatitudeDegrees>-15.33998225815594196319580078125</LatitudeDegrees>
              <LongitudeDegrees>37.08117820322513580322265625</LongitudeDegrees>
            </Position>
            <AltitudeMeters>1307</AltitudeMeters>
            <DistanceMeters>NAN</DistanceMeters>
          </Trackpoint>
          <Trackpoint>
            <Time>2021-08-03T03:56:31.000Z</Time>
            <Position>
              <LatitudeDegrees>-15.34000136889517307281494140625</LatitudeDegrees>
              <LongitudeDegrees>37.08117376081645488739013671875</LongitudeDegrees>
            </Position>
            <AltitudeMeters>1307.199951171875</AltitudeMeters>
            <DistanceMeters>NAN</DistanceMeters>
          </Trackpoint>
          <Trackpoint>
            <Time>2021-08-03T03:56:34.000Z</Time>
            <Position>
              <LatitudeDegrees>-15.340025089681148529052734375</LatitudeDegrees>
              <LongitudeDegrees>37.08116839639842510223388671875</LongitudeDegrees>
            </Position>
            <AltitudeMeters>1308</AltitudeMeters>
            <DistanceMeters>NAN</DistanceMeters>
          </Trackpoint>
          <Trackpoint>
            <Time>2021-08-03T03:56:38.000Z</Time>
            <Position>
              <LatitudeDegrees>-15.34005023539066314697265625</LatitudeDegrees>
              <LongitudeDegrees>37.08117543719708919525146484375</LongitudeDegrees>
            </Position>
            <AltitudeMeters>1309.199951171875</AltitudeMeters>
            <DistanceMeters>NAN</DistanceMeters>
          </Trackpoint>
          <Trackpoint>
            <Time>2021-08-03T03:56:44.000Z</Time>
            <Position>
              <LatitudeDegrees>-15.3401006944477558135986328125</LatitudeDegrees>
              <LongitudeDegrees>37.08121784962713718414306640625</LongitudeDegrees>
            </Position>
            <AltitudeMeters>1310.4000244140625</AltitudeMeters>
            <DistanceMeters>NAN</DistanceMeters>
          </Trackpoint>
          <Trackpoint>
            <Time>2021-08-03T03:56:49.000Z</Time>
            <Position>
              <LatitudeDegrees>-15.3401352278888225555419921875</LatitudeDegrees>
              <LongitudeDegrees>37.08120427094399929046630859375</LongitudeDegrees>
            </Position>
            <AltitudeMeters>1311</AltitudeMeters>
            <DistanceMeters>NAN</DistanceMeters>
          </Trackpoint>
          <Trackpoint>
            <Time>2021-08-03T03:56:51.000Z</Time>
            <Position>
              <LatitudeDegrees>-15.3401573561131954193115234375</LatitudeDegrees>
              <LongitudeDegrees>37.0811949670314788818359375</LongitudeDegrees>
            </Position>
            <AltitudeMeters>1311.5999755859375</AltitudeMeters>
            <DistanceMeters>NAN</DistanceMeters>
          </Trackpoint>
          <Trackpoint>
            <Time>2021-08-03T03:56:56.000Z</Time>
            <Position>
              <LatitudeDegrees>-15.340206809341907501220703125</LatitudeDegrees>
              <LongitudeDegrees>37.0811954699456691741943359375</LongitudeDegrees>
            </Position>
            <AltitudeMeters>1313</AltitudeMeters>
            <DistanceMeters>NAN</DistanceMeters>
          </Trackpoint>
          <Trackpoint>
            <Time>2021-08-03T03:56:59.000Z</Time>
            <Position>
              <LatitudeDegrees>-15.34022550098598003387451171875</LatitudeDegrees>
              <LongitudeDegrees>37.08119236864149570465087890625</LongitudeDegrees>
            </Position>
            <AltitudeMeters>1313.199951171875</AltitudeMeters>
            <DistanceMeters>NAN</DistanceMeters>
          </Trackpoint>
          <Trackpoint>
            <Time>2021-08-03T03:57:01.000Z</Time>
            <Position>
              <LatitudeDegrees>-15.3402378223836421966552734375</LatitudeDegrees>
              <LongitudeDegrees>37.08118381910026073455810546875</LongitudeDegrees>
            </Position>
            <AltitudeMeters>1314</AltitudeMeters>
            <DistanceMeters>NAN</DistanceMeters>
          </Trackpoint>
          <Trackpoint>
            <Time>2021-08-03T03:57:06.000Z</Time>
            <Position>
              <LatitudeDegrees>-15.340281911194324493408203125</LatitudeDegrees>
              <LongitudeDegrees>37.0811654627323150634765625</LongitudeDegrees>
            </Position>
            <AltitudeMeters>1315.199951171875</AltitudeMeters>
            <DistanceMeters>NAN</DistanceMeters>
          </Trackpoint>
          <Trackpoint>
            <Time>2021-08-03T03:57:08.000Z</Time>
            <Position>
              <LatitudeDegrees>-15.3403028659522533416748046875</LatitudeDegrees>
              <LongitudeDegrees>37.08115833811461925506591796875</LongitudeDegrees>
            </Position>
            <AltitudeMeters>1315.800048828125</AltitudeMeters>
            <DistanceMeters>NAN</DistanceMeters>
          </Trackpoint>
          <Trackpoint>
            <Time>2021-08-03T03:57:10.000Z</Time>
            <Position>
              <LatitudeDegrees>-15.34032340161502361297607421875</LatitudeDegrees>
              <LongitudeDegrees>37.0811602659523487091064453125</LongitudeDegrees>
            </Position>
            <AltitudeMeters>1316</AltitudeMeters>
            <DistanceMeters>NAN</DistanceMeters>
          </Trackpoint>
          <Trackpoint>
            <Time>2021-08-03T03:57:11.000Z</Time>
            <Position>
              <LatitudeDegrees>-15.3403310291469097137451171875</LatitudeDegrees>
              <LongitudeDegrees>37.0811565779149532318115234375</LongitudeDegrees>
            </Position>
            <AltitudeMeters>1316.5999755859375</AltitudeMeters>
            <DistanceMeters>NAN</DistanceMeters>
          </Trackpoint>
          <Trackpoint>
            <Time>2021-08-03T03:57:15.000Z</Time>
            <Position>
              <LatitudeDegrees>-15.34036514349281787872314453125</LatitudeDegrees>
              <LongitudeDegrees>37.08114459179341793060302734375</LongitudeDegrees>
            </Position>
            <AltitudeMeters>1317.5999755859375</AltitudeMeters>
            <DistanceMeters>NAN</DistanceMeters>
          </Trackpoint>
          <Trackpoint>
            <Time>2021-08-03T03:57:16.000Z</Time>
            <Position>
              <LatitudeDegrees>-15.340371765196323394775390625</LatitudeDegrees>
              <LongitudeDegrees>37.0811398141086101531982421875</LongitudeDegrees>
            </Position>
            <AltitudeMeters>1317.5999755859375</AltitudeMeters>
            <DistanceMeters>NAN</DistanceMeters>
          </Trackpoint>
          <Trackpoint>
            <Time>2021-08-03T03:57:19.000Z</Time>
            <Position>
              <LatitudeDegrees>-15.34038408659398555755615234375</LatitudeDegrees>
              <LongitudeDegrees>37.081127576529979705810546875</LongitudeDegrees>
            </Position>
            <AltitudeMeters>1318.4000244140625</AltitudeMeters>
            <DistanceMeters>NAN</DistanceMeters>
          </Trackpoint>
          <Trackpoint>
            <Time>2021-08-03T03:57:21.000Z</Time>
            <Position>
              <LatitudeDegrees>-15.340396575629711151123046875</LatitudeDegrees>
              <LongitudeDegrees>37.0811190269887447357177734375</LongitudeDegrees>
            </Position>
            <AltitudeMeters>1318.5999755859375</AltitudeMeters>
            <DistanceMeters>NAN</DistanceMeters>
          </Trackpoint>
          <Trackpoint>
            <Time>2021-08-03T03:57:25.000Z</Time>
            <Position>
              <LatitudeDegrees>-15.3404223918914794921875</LatitudeDegrees>
              <LongitudeDegrees>37.08110737614333629608154296875</LongitudeDegrees>
            </Position>
            <AltitudeMeters>1319.800048828125</AltitudeMeters>
            <DistanceMeters>NAN</DistanceMeters>
          </Trackpoint>
          <Trackpoint>
            <Time>2021-08-03T03:57:29.000Z</Time>
            <Position>
              <LatitudeDegrees>-15.34045214764773845672607421875</LatitudeDegrees>
              <LongitudeDegrees>37.08108943887054920196533203125</LongitudeDegrees>
            </Position>
            <AltitudeMeters>1320.4000244140625</AltitudeMeters>
            <DistanceMeters>NAN</DistanceMeters>
          </Trackpoint>
          <Trackpoint>
            <Time>2021-08-03T03:57:30.000Z</Time>
            <Position>
              <LatitudeDegrees>-15.3404612839221954345703125</LatitudeDegrees>
              <LongitudeDegrees>37.081086337566375732421875</LongitudeDegrees>
            </Position>
            <AltitudeMeters>1321</AltitudeMeters>
            <DistanceMeters>NAN</DistanceMeters>
          </Trackpoint>
          <Trackpoint>
            <Time>2021-08-03T03:57:37.000Z</Time>
            <Position>
              <LatitudeDegrees>-15.340514592826366424560546875</LatitudeDegrees>
              <LongitudeDegrees>37.081069909036159515380859375</LongitudeDegrees>
            </Position>
            <AltitudeMeters>1322.4000244140625</AltitudeMeters>
            <DistanceMeters>NAN</DistanceMeters>
          </Trackpoint>
          <Trackpoint>
            <Time>2021-08-03T03:57:39.000Z</Time>
            <Position>
              <LatitudeDegrees>-15.34053127281367778778076171875</LatitudeDegrees>
              <LongitudeDegrees>37.08106043748557567596435546875</LongitudeDegrees>
            </Position>
            <AltitudeMeters>1323</AltitudeMeters>
            <DistanceMeters>NAN</DistanceMeters>
          </Trackpoint>
          <Trackpoint>
            <Time>2021-08-03T03:57:43.000Z</Time>
            <Position>
              <LatitudeDegrees>-15.3405643813312053680419921875</LatitudeDegrees>
              <LongitudeDegrees>37.081039063632488250732421875</LongitudeDegrees>
            </Position>
            <AltitudeMeters>1323.5999755859375</AltitudeMeters>
            <DistanceMeters>NAN</DistanceMeters>
          </Trackpoint>
          <Trackpoint>
            <Time>2021-08-03T03:57:47.000Z</Time>
            <Position>
              <LatitudeDegrees>-15.34058676101267337799072265625</LatitudeDegrees>
              <LongitudeDegrees>37.08102338947355747222900390625</LongitudeDegrees>
            </Position>
            <AltitudeMeters>1324.800048828125</AltitudeMeters>
            <DistanceMeters>NAN</DistanceMeters>
          </Trackpoint>
          <Trackpoint>
            <Time>2021-08-03T03:57:50.000Z</Time>
            <Position>
              <LatitudeDegrees>-15.34060872159898281097412109375</LatitudeDegrees>
              <LongitudeDegrees>37.0810110680758953094482421875</LongitudeDegrees>
            </Position>
            <AltitudeMeters>1325.4000244140625</AltitudeMeters>
            <DistanceMeters>NAN</DistanceMeters>
          </Trackpoint>
          <Trackpoint>
            <Time>2021-08-03T03:57:51.000Z</Time>
            <Position>
              <LatitudeDegrees>-15.3406141698360443115234375</LatitudeDegrees>
              <LongitudeDegrees>37.0810057036578655242919921875</LongitudeDegrees>
            </Position>
            <AltitudeMeters>1325.800048828125</AltitudeMeters>
            <DistanceMeters>NAN</DistanceMeters>
          </Trackpoint>
          <Trackpoint>
            <Time>2021-08-03T03:57:54.000Z</Time>
            <Position>
              <LatitudeDegrees>-15.340635292232036590576171875</LatitudeDegrees>
              <LongitudeDegrees>37.0809911191463470458984375</LongitudeDegrees>
            </Position>
            <AltitudeMeters>1327</AltitudeMeters>
            <DistanceMeters>NAN</DistanceMeters>
          </Trackpoint>
          <Trackpoint>
            <Time>2021-08-03T03:58:01.000Z</Time>
            <Position>
              <LatitudeDegrees>-15.340684242546558380126953125</LatitudeDegrees>
              <LongitudeDegrees>37.080963291227817535400390625</LongitudeDegrees>
            </Position>
            <AltitudeMeters>1328.5999755859375</AltitudeMeters>
            <DistanceMeters>NAN</DistanceMeters>
          </Trackpoint>
          <Trackpoint>
            <Time>2021-08-03T03:58:05.000Z</Time>
            <Position>
              <LatitudeDegrees>-15.34070611931383609771728515625</LatitudeDegrees>
              <LongitudeDegrees>37.080948539078235626220703125</LongitudeDegrees>
            </Position>
            <AltitudeMeters>1329.5999755859375</AltitudeMeters>
            <DistanceMeters>NAN</DistanceMeters>
          </Trackpoint>
          <Trackpoint>
            <Time>2021-08-03T03:58:06.000Z</Time>
            <Position>
              <LatitudeDegrees>-15.3407129086554050445556640625</LatitudeDegrees>
              <LongitudeDegrees>37.08094325847923755645751953125</LongitudeDegrees>
            </Position>
            <AltitudeMeters>1329.800048828125</AltitudeMeters>
            <DistanceMeters>NAN</DistanceMeters>
          </Trackpoint>
          <Trackpoint>
            <Time>2021-08-03T03:58:07.000Z</Time>
            <Position>
              <LatitudeDegrees>-15.3407187759876251220703125</LatitudeDegrees>
              <LongitudeDegrees>37.080939821898937225341796875</LongitudeDegrees>
            </Position>
            <AltitudeMeters>1330</AltitudeMeters>
            <DistanceMeters>NAN</DistanceMeters>
          </Trackpoint>
          <Trackpoint>
            <Time>2021-08-03T03:58:10.000Z</Time>
            <Position>
              <LatitudeDegrees>-15.34074182622134685516357421875</LatitudeDegrees>
              <LongitudeDegrees>37.0809306018054485321044921875</LongitudeDegrees>
            </Position>
            <AltitudeMeters>1330.5999755859375</AltitudeMeters>
            <DistanceMeters>NAN</DistanceMeters>
          </Trackpoint>
          <Trackpoint>
            <Time>2021-08-03T03:58:11.000Z</Time>
            <Position>
              <LatitudeDegrees>-15.34074953757226467132568359375</LatitudeDegrees>
              <LongitudeDegrees>37.0809280872344970703125</LongitudeDegrees>
            </Position>
            <AltitudeMeters>1330.800048828125</AltitudeMeters>
            <DistanceMeters>NAN</DistanceMeters>
          </Trackpoint>
          <Trackpoint>
            <Time>2021-08-03T03:58:16.000Z</Time>
            <Position>
              <LatitudeDegrees>-15.34078541211783885955810546875</LatitudeDegrees>
              <LongitudeDegrees>37.080915011465549468994140625</LongitudeDegrees>
            </Position>
            <AltitudeMeters>1331.800048828125</AltitudeMeters>
            <DistanceMeters>NAN</DistanceMeters>
          </Trackpoint>
          <Trackpoint>
            <Time>2021-08-03T03:58:20.000Z</Time>
            <Position>
              <LatitudeDegrees>-15.34081508405506610870361328125</LatitudeDegrees>
              <LongitudeDegrees>37.08089229650795459747314453125</LongitudeDegrees>
            </Position>
            <AltitudeMeters>1333</AltitudeMeters>
            <DistanceMeters>NAN</DistanceMeters>
          </Trackpoint>
          <Trackpoint>
            <Time>2021-08-03T03:58:23.000Z</Time>
            <Position>
              <LatitudeDegrees>-15.340835787355899810791015625</LatitudeDegrees>
              <LongitudeDegrees>37.0808796398341655731201171875</LongitudeDegrees>
            </Position>
            <AltitudeMeters>1333.800048828125</AltitudeMeters>
            <DistanceMeters>NAN</DistanceMeters>
          </Trackpoint>
          <Trackpoint>
            <Time>2021-08-03T03:58:25.000Z</Time>
            <Position>
              <LatitudeDegrees>-15.3408436663448810577392578125</LatitudeDegrees>
              <LongitudeDegrees>37.08087402395904064178466796875</LongitudeDegrees>
            </Position>
            <AltitudeMeters>1334</AltitudeMeters>
            <DistanceMeters>NAN</DistanceMeters>
          </Trackpoint>
          <Trackpoint>
            <Time>2021-08-03T03:58:28.000Z</Time>
            <Position>
              <LatitudeDegrees>-15.34085565246641635894775390625</LatitudeDegrees>
              <LongitudeDegrees>37.0808692462742328643798828125</LongitudeDegrees>
            </Position>
            <AltitudeMeters>1334.800048828125</AltitudeMeters>
            <DistanceMeters>NAN</DistanceMeters>
          </Trackpoint>
          <Trackpoint>
            <Time>2021-08-03T03:58:29.000Z</Time>
            <Position>
              <LatitudeDegrees>-15.3408570773899555206298828125</LatitudeDegrees>
              <LongitudeDegrees>37.0808722637593746185302734375</LongitudeDegrees>
            </Position>
            <AltitudeMeters>1335</AltitudeMeters>
            <DistanceMeters>NAN</DistanceMeters>
          </Trackpoint>
          <Trackpoint>
            <Time>2021-08-03T03:58:31.000Z</Time>
            <Position>
              <LatitudeDegrees>-15.34085984341800212860107421875</LatitudeDegrees>
              <LongitudeDegrees>37.08087980747222900390625</LongitudeDegrees>
            </Position>
            <AltitudeMeters>1335.199951171875</AltitudeMeters>
            <DistanceMeters>NAN</DistanceMeters>
          </Trackpoint>
          <Trackpoint>
            <Time>2021-08-03T03:58:32.000Z</Time>
            <Position>
              <LatitudeDegrees>-15.34086319617927074432373046875</LatitudeDegrees>
              <LongitudeDegrees>37.0808833278715610504150390625</LongitudeDegrees>
            </Position>
            <AltitudeMeters>1335.199951171875</AltitudeMeters>
            <DistanceMeters>NAN</DistanceMeters>
          </Trackpoint>
          <Trackpoint>
            <Time>2021-08-03T03:58:53.000Z</Time>
            <Position>
              <LatitudeDegrees>-15.34087509848177433013916015625</LatitudeDegrees>
              <LongitudeDegrees>37.08090872503817081451416015625</LongitudeDegrees>
            </Position>
            <AltitudeMeters>1335.5999755859375</AltitudeMeters>
            <DistanceMeters>NAN</DistanceMeters>
          </Trackpoint>
          <Trackpoint>
            <Time>2021-08-03T03:58:57.000Z</Time>
            <Position>
              <LatitudeDegrees>-15.3409103862941265106201171875</LatitudeDegrees>
              <LongitudeDegrees>37.08094661124050617218017578125</LongitudeDegrees>
            </Position>
            <AltitudeMeters>1336</AltitudeMeters>
            <DistanceMeters>NAN</DistanceMeters>
          </Trackpoint>
          <Trackpoint>
            <Time>2021-08-03T03:58:59.000Z</Time>
            <Position>
              <LatitudeDegrees>-15.340929329395294189453125</LatitudeDegrees>
              <LongitudeDegrees>37.0809624530375003814697265625</LongitudeDegrees>
            </Position>
            <AltitudeMeters>1336</AltitudeMeters>
            <DistanceMeters>NAN</DistanceMeters>
          </Trackpoint>
          <Trackpoint>
            <Time>2021-08-03T03:59:00.000Z</Time>
            <Position>
              <LatitudeDegrees>-15.340938381850719451904296875</LatitudeDegrees>
              <LongitudeDegrees>37.0809704996645450592041015625</LongitudeDegrees>
            </Position>
            <AltitudeMeters>1336.199951171875</AltitudeMeters>
            <DistanceMeters>NAN</DistanceMeters>
          </Trackpoint>
          <Trackpoint>
            <Time>2021-08-03T03:59:02.000Z</Time>
            <Position>
              <LatitudeDegrees>-15.3409574925899505615234375</LatitudeDegrees>
              <LongitudeDegrees>37.08098567090928554534912109375</LongitudeDegrees>
            </Position>
            <AltitudeMeters>1336.4000244140625</AltitudeMeters>
            <DistanceMeters>NAN</DistanceMeters>
          </Trackpoint>
          <Trackpoint>
            <Time>2021-08-03T03:59:05.000Z</Time>
            <Position>
              <LatitudeDegrees>-15.340983979403972625732421875</LatitudeDegrees>
              <LongitudeDegrees>37.0809728465974330902099609375</LongitudeDegrees>
            </Position>
            <AltitudeMeters>1336.800048828125</AltitudeMeters>
            <DistanceMeters>NAN</DistanceMeters>
          </Trackpoint>
          <Trackpoint>
            <Time>2021-08-03T03:59:08.000Z</Time>
            <Position>
              <LatitudeDegrees>-15.34100837074220180511474609375</LatitudeDegrees>
              <LongitudeDegrees>37.08095935173332691192626953125</LongitudeDegrees>
            </Position>
            <AltitudeMeters>1337.800048828125</AltitudeMeters>
            <DistanceMeters>NAN</DistanceMeters>
          </Trackpoint>
          <Trackpoint>
            <Time>2021-08-03T03:59:12.000Z</Time>
            <Position>
              <LatitudeDegrees>-15.34104474820196628570556640625</LatitudeDegrees>
              <LongitudeDegrees>37.0809396542608737945556640625</LongitudeDegrees>
            </Position>
            <AltitudeMeters>1338.4000244140625</AltitudeMeters>
            <DistanceMeters>NAN</DistanceMeters>
          </Trackpoint>
          <Trackpoint>
            <Time>2021-08-03T03:59:13.000Z</Time>
            <Position>
              <LatitudeDegrees>-15.34105279482901096343994140625</LatitudeDegrees>
              <LongitudeDegrees>37.0809339545667171478271484375</LongitudeDegrees>
            </Position>
            <AltitudeMeters>1339</AltitudeMeters>
            <DistanceMeters>NAN</DistanceMeters>
          </Trackpoint>
          <Trackpoint>
            <Time>2021-08-03T03:59:15.000Z</Time>
            <Position>
              <LatitudeDegrees>-15.341065116226673126220703125</LatitudeDegrees>
              <LongitudeDegrees>37.0809222199022769927978515625</LongitudeDegrees>
            </Position>
            <AltitudeMeters>1339.4000244140625</AltitudeMeters>
            <DistanceMeters>NAN</DistanceMeters>
          </Trackpoint>
          <Trackpoint>
            <Time>2021-08-03T03:59:18.000Z</Time>
            <Position>
              <LatitudeDegrees>-15.341084562242031097412109375</LatitudeDegrees>
              <LongitudeDegrees>37.08090403117239475250244140625</LongitudeDegrees>
            </Position>
            <AltitudeMeters>1340.199951171875</AltitudeMeters>
            <DistanceMeters>NAN</DistanceMeters>
          </Trackpoint>
          <Trackpoint>
            <Time>2021-08-03T03:59:21.000Z</Time>
            <Position>
              <LatitudeDegrees>-15.3411108814179897308349609375</LatitudeDegrees>
              <LongitudeDegrees>37.080891542136669158935546875</LongitudeDegrees>
            </Position>
            <AltitudeMeters>1340.800048828125</AltitudeMeters>
            <DistanceMeters>NAN</DistanceMeters>
          </Trackpoint>
          <Trackpoint>
            <Time>2021-08-03T03:59:23.000Z</Time>
            <Position>
              <LatitudeDegrees>-15.34113510511815547943115234375</LatitudeDegrees>
              <LongitudeDegrees>37.0808829925954341888427734375</LongitudeDegrees>
            </Position>
            <AltitudeMeters>1341.800048828125</AltitudeMeters>
            <DistanceMeters>NAN</DistanceMeters>
          </Trackpoint>
          <Trackpoint>
            <Time>2021-08-03T03:59:25.000Z</Time>
            <Position>
              <LatitudeDegrees>-15.341142900288105010986328125</LatitudeDegrees>
              <LongitudeDegrees>37.08087217994034290313720703125</LongitudeDegrees>
            </Position>
            <AltitudeMeters>1342</AltitudeMeters>
            <DistanceMeters>NAN</DistanceMeters>
          </Trackpoint>
          <Trackpoint>
            <Time>2021-08-03T03:59:28.000Z</Time>
            <Position>
              <LatitudeDegrees>-15.34115522168576717376708984375</LatitudeDegrees>
              <LongitudeDegrees>37.08085843361914157867431640625</LongitudeDegrees>
            </Position>
            <AltitudeMeters>1343</AltitudeMeters>
            <DistanceMeters>NAN</DistanceMeters>
          </Trackpoint>
          <Trackpoint>
            <Time>2021-08-03T03:59:33.000Z</Time>
            <Position>
              <LatitudeDegrees>-15.341191180050373077392578125</LatitudeDegrees>
              <LongitudeDegrees>37.08084753714501857757568359375</LongitudeDegrees>
            </Position>
            <AltitudeMeters>1344</AltitudeMeters>
            <DistanceMeters>NAN</DistanceMeters>
          </Trackpoint>
          <Trackpoint>
            <Time>2021-08-03T03:59:37.000Z</Time>
            <Position>
              <LatitudeDegrees>-15.341215319931507110595703125</LatitudeDegrees>
              <LongitudeDegrees>37.08083379082381725311279296875</LongitudeDegrees>
            </Position>
            <AltitudeMeters>1344.800048828125</AltitudeMeters>
            <DistanceMeters>NAN</DistanceMeters>
          </Trackpoint>
          <Trackpoint>
            <Time>2021-08-03T03:59:38.000Z</Time>
            <Position>
              <LatitudeDegrees>-15.3412228636443614959716796875</LatitudeDegrees>
              <LongitudeDegrees>37.080830521881580352783203125</LongitudeDegrees>
            </Position>
            <AltitudeMeters>1345.199951171875</AltitudeMeters>
            <DistanceMeters>NAN</DistanceMeters>
          </Trackpoint>
          <Trackpoint>
            <Time>2021-08-03T03:59:43.000Z</Time>
            <Position>
              <LatitudeDegrees>-15.34125328995287418365478515625</LatitudeDegrees>
              <LongitudeDegrees>37.08080311305820941925048828125</LongitudeDegrees>
            </Position>
            <AltitudeMeters>1346.4000244140625</AltitudeMeters>
            <DistanceMeters>NAN</DistanceMeters>
          </Trackpoint>
          <Trackpoint>
            <Time>2021-08-03T03:59:48.000Z</Time>
            <Position>
              <LatitudeDegrees>-15.34128664992749691009521484375</LatitudeDegrees>
              <LongitudeDegrees>37.08077964372932910919189453125</LongitudeDegrees>
            </Position>
            <AltitudeMeters>1347.5999755859375</AltitudeMeters>
            <DistanceMeters>NAN</DistanceMeters>
          </Trackpoint>
          <Trackpoint>
            <Time>2021-08-03T03:59:49.000Z</Time>
            <Position>
              <LatitudeDegrees>-15.34129369072616100311279296875</LatitudeDegrees>
              <LongitudeDegrees>37.080777548253536224365234375</LongitudeDegrees>
            </Position>
            <AltitudeMeters>1347.800048828125</AltitudeMeters>
            <DistanceMeters>NAN</DistanceMeters>
          </Trackpoint>
          <Trackpoint>
            <Time>2021-08-03T03:59:52.000Z</Time>
            <Position>
              <LatitudeDegrees>-15.34131783060729503631591796875</LatitudeDegrees>
              <LongitudeDegrees>37.0807881094515323638916015625</LongitudeDegrees>
            </Position>
            <AltitudeMeters>1348.4000244140625</AltitudeMeters>
            <DistanceMeters>NAN</DistanceMeters>
          </Trackpoint>
          <Trackpoint>
            <Time>2021-08-03T03:59:53.000Z</Time>
            <Position>
              <LatitudeDegrees>-15.34132520668208599090576171875</LatitudeDegrees>
              <LongitudeDegrees>37.08079397678375244140625</LongitudeDegrees>
            </Position>
            <AltitudeMeters>1348.4000244140625</AltitudeMeters>
            <DistanceMeters>NAN</DistanceMeters>
          </Trackpoint>
          <Trackpoint>
            <Time>2021-08-03T03:59:56.000Z</Time>
            <Position>
              <LatitudeDegrees>-15.34134440124034881591796875</LatitudeDegrees>
              <LongitudeDegrees>37.08080344833433628082275390625</LongitudeDegrees>
            </Position>
            <AltitudeMeters>1348.5999755859375</AltitudeMeters>
            <DistanceMeters>NAN</DistanceMeters>
          </Trackpoint>
          <Trackpoint>
            <Time>2021-08-03T03:59:57.000Z</Time>
            <Position>
              <LatitudeDegrees>-15.34134951420128345489501953125</LatitudeDegrees>
              <LongitudeDegrees>37.0808005146682262420654296875</LongitudeDegrees>
            </Position>
            <AltitudeMeters>1348.800048828125</AltitudeMeters>
            <DistanceMeters>NAN</DistanceMeters>
          </Trackpoint>
          <Trackpoint>
            <Time>2021-08-03T04:00:01.000Z</Time>
            <Position>
              <LatitudeDegrees>-15.34138723276555538177490234375</LatitudeDegrees>
              <LongitudeDegrees>37.0807914622128009796142578125</LongitudeDegrees>
            </Position>
            <AltitudeMeters>1349.800048828125</AltitudeMeters>
            <DistanceMeters>NAN</DistanceMeters>
          </Trackpoint>
          <Trackpoint>
            <Time>2021-08-03T04:00:06.000Z</Time>
            <Position>
              <LatitudeDegrees>-15.34142260439693927764892578125</LatitudeDegrees>
              <LongitudeDegrees>37.0807693339884281158447265625</LongitudeDegrees>
            </Position>
            <AltitudeMeters>1351</AltitudeMeters>
            <DistanceMeters>NAN</DistanceMeters>
          </Trackpoint>
          <Trackpoint>
            <Time>2021-08-03T04:00:11.000Z</Time>
            <Position>
              <LatitudeDegrees>-15.34145965240895748138427734375</LatitudeDegrees>
              <LongitudeDegrees>37.08074494265019893646240234375</LongitudeDegrees>
            </Position>
            <AltitudeMeters>1352</AltitudeMeters>
            <DistanceMeters>NAN</DistanceMeters>
          </Trackpoint>
          <Trackpoint>
            <Time>2021-08-03T04:00:16.000Z</Time>
            <Position>
              <LatitudeDegrees>-15.3414939343929290771484375</LatitudeDegrees>
              <LongitudeDegrees>37.08075977861881256103515625</LongitudeDegrees>
            </Position>
            <AltitudeMeters>1353.199951171875</AltitudeMeters>
            <DistanceMeters>NAN</DistanceMeters>
          </Trackpoint>
          <Trackpoint>
            <Time>2021-08-03T04:00:18.000Z</Time>
            <Position>
              <LatitudeDegrees>-15.3415091894567012786865234375</LatitudeDegrees>
              <LongitudeDegrees>37.08077075891196727752685546875</LongitudeDegrees>
            </Position>
            <AltitudeMeters>1353.199951171875</AltitudeMeters>
            <DistanceMeters>NAN</DistanceMeters>
          </Trackpoint>
          <Trackpoint>
            <Time>2021-08-03T04:00:23.000Z</Time>
            <Position>
              <LatitudeDegrees>-15.34153961576521396636962890625</LatitudeDegrees>
              <LongitudeDegrees>37.08076640032231807708740234375</LongitudeDegrees>
            </Position>
            <AltitudeMeters>1353.800048828125</AltitudeMeters>
            <DistanceMeters>NAN</DistanceMeters>
          </Trackpoint>
          <Trackpoint>
            <Time>2021-08-03T04:00:26.000Z</Time>
            <Position>
              <LatitudeDegrees>-15.34156157635152339935302734375</LatitudeDegrees>
              <LongitudeDegrees>37.08075265400111675262451171875</LongitudeDegrees>
            </Position>
            <AltitudeMeters>1354.199951171875</AltitudeMeters>
            <DistanceMeters>NAN</DistanceMeters>
          </Trackpoint>
          <Trackpoint>
            <Time>2021-08-03T04:00:32.000Z</Time>
            <Position>
              <LatitudeDegrees>-15.34160968847572803497314453125</LatitudeDegrees>
              <LongitudeDegrees>37.08072298206388950347900390625</LongitudeDegrees>
            </Position>
            <AltitudeMeters>1355.4000244140625</AltitudeMeters>
            <DistanceMeters>NAN</DistanceMeters>
          </Trackpoint>
          <Trackpoint>
            <Time>2021-08-03T04:00:35.000Z</Time>
            <Position>
              <LatitudeDegrees>-15.34162611700594425201416015625</LatitudeDegrees>
              <LongitudeDegrees>37.0807120017707347869873046875</LongitudeDegrees>
            </Position>
            <AltitudeMeters>1356.5999755859375</AltitudeMeters>
            <DistanceMeters>NAN</DistanceMeters>
          </Trackpoint>
          <Trackpoint>
            <Time>2021-08-03T04:00:36.000Z</Time>
            <Position>
              <LatitudeDegrees>-15.341632068157196044921875</LatitudeDegrees>
              <LongitudeDegrees>37.08071057684719562530517578125</LongitudeDegrees>
            </Position>
            <AltitudeMeters>1356.800048828125</AltitudeMeters>
            <DistanceMeters>NAN</DistanceMeters>
          </Trackpoint>
          <Trackpoint>
            <Time>2021-08-03T04:00:42.000Z</Time>
            <Position>
              <LatitudeDegrees>-15.341679342091083526611328125</LatitudeDegrees>
              <LongitudeDegrees>37.08068274892866611480712890625</LongitudeDegrees>
            </Position>
            <AltitudeMeters>1357.800048828125</AltitudeMeters>
            <DistanceMeters>NAN</DistanceMeters>
          </Trackpoint>
          <Trackpoint>
            <Time>2021-08-03T04:00:44.000Z</Time>
            <Position>
              <LatitudeDegrees>-15.3416915796697139739990234375</LatitudeDegrees>
              <LongitudeDegrees>37.08068191073834896087646484375</LongitudeDegrees>
            </Position>
            <AltitudeMeters>1358.199951171875</AltitudeMeters>
            <DistanceMeters>NAN</DistanceMeters>
          </Trackpoint>
          <Trackpoint>
            <Time>2021-08-03T04:00:46.000Z</Time>
            <Position>
              <LatitudeDegrees>-15.3417023085057735443115234375</LatitudeDegrees>
              <LongitudeDegrees>37.080675624310970306396484375</LongitudeDegrees>
            </Position>
            <AltitudeMeters>1359</AltitudeMeters>
            <DistanceMeters>NAN</DistanceMeters>
          </Trackpoint>
          <Trackpoint>
            <Time>2021-08-03T04:00:50.000Z</Time>
            <Position>
              <LatitudeDegrees>-15.34172586165368556976318359375</LatitudeDegrees>
              <LongitudeDegrees>37.080644778907299041748046875</LongitudeDegrees>
            </Position>
            <AltitudeMeters>1359.800048828125</AltitudeMeters>
            <DistanceMeters>NAN</DistanceMeters>
          </Trackpoint>
          <Trackpoint>
            <Time>2021-08-03T04:00:52.000Z</Time>
            <Position>
              <LatitudeDegrees>-15.341739356517791748046875</LatitudeDegrees>
              <LongitudeDegrees>37.08063413389027118682861328125</LongitudeDegrees>
            </Position>
            <AltitudeMeters>1360</AltitudeMeters>
            <DistanceMeters>NAN</DistanceMeters>
          </Trackpoint>
          <Trackpoint>
            <Time>2021-08-03T04:00:54.000Z</Time>
            <Position>
              <LatitudeDegrees>-15.34175075590610504150390625</LatitudeDegrees>
              <LongitudeDegrees>37.08063581027090549468994140625</LongitudeDegrees>
            </Position>
            <AltitudeMeters>1360.199951171875</AltitudeMeters>
            <DistanceMeters>NAN</DistanceMeters>
          </Trackpoint>
          <Trackpoint>
            <Time>2021-08-03T04:00:57.000Z</Time>
            <Position>
              <LatitudeDegrees>-15.3417764045298099517822265625</LatitudeDegrees>
              <LongitudeDegrees>37.08064687438309192657470703125</LongitudeDegrees>
            </Position>
            <AltitudeMeters>1361.199951171875</AltitudeMeters>
            <DistanceMeters>NAN</DistanceMeters>
          </Trackpoint>
          <Trackpoint>
            <Time>2021-08-03T04:01:02.000Z</Time>
            <Position>
              <LatitudeDegrees>-15.3418038971722126007080078125</LatitudeDegrees>
              <LongitudeDegrees>37.0806452818214893341064453125</LongitudeDegrees>
            </Position>
            <AltitudeMeters>1362.199951171875</AltitudeMeters>
            <DistanceMeters>NAN</DistanceMeters>
          </Trackpoint>
          <Trackpoint>
            <Time>2021-08-03T04:01:04.000Z</Time>
            <Position>
              <LatitudeDegrees>-15.34180884249508380889892578125</LatitudeDegrees>
              <LongitudeDegrees>37.08064184524118900299072265625</LongitudeDegrees>
            </Position>
            <AltitudeMeters>1362.800048828125</AltitudeMeters>
            <DistanceMeters>NAN</DistanceMeters>
          </Trackpoint>
          <Trackpoint>
            <Time>2021-08-03T04:01:05.000Z</Time>
            <Position>
              <LatitudeDegrees>-15.34181303344666957855224609375</LatitudeDegrees>
              <LongitudeDegrees>37.0806459523737430572509765625</LongitudeDegrees>
            </Position>
            <AltitudeMeters>1363.199951171875</AltitudeMeters>
            <DistanceMeters>NAN</DistanceMeters>
          </Trackpoint>
          <Trackpoint>
            <Time>2021-08-03T04:01:06.000Z</Time>
            <Position>
              <LatitudeDegrees>-15.3418131172657012939453125</LatitudeDegrees>
              <LongitudeDegrees>37.080650143325328826904296875</LongitudeDegrees>
            </Position>
            <AltitudeMeters>1363.4000244140625</AltitudeMeters>
            <DistanceMeters>NAN</DistanceMeters>
          </Trackpoint>
          <Trackpoint>
            <Time>2021-08-03T04:01:11.000Z</Time>
            <Position>
              <LatitudeDegrees>-15.34183180890977382659912109375</LatitudeDegrees>
              <LongitudeDegrees>37.08066523075103759765625</LongitudeDegrees>
            </Position>
            <AltitudeMeters>1364.800048828125</AltitudeMeters>
            <DistanceMeters>NAN</DistanceMeters>
          </Trackpoint>
          <Trackpoint>
            <Time>2021-08-03T04:01:17.000Z</Time>
            <Position>
              <LatitudeDegrees>-15.341836921870708465576171875</LatitudeDegrees>
              <LongitudeDegrees>37.08067084662616252899169921875</LongitudeDegrees>
            </Position>
            <AltitudeMeters>1365</AltitudeMeters>
            <DistanceMeters>NAN</DistanceMeters>
          </Trackpoint>
          <Trackpoint>
            <Time>2021-08-03T04:01:23.000Z</Time>
            <Position>
              <LatitudeDegrees>-15.34183549694716930389404296875</LatitudeDegrees>
              <LongitudeDegrees>37.08067084662616252899169921875</LongitudeDegrees>
            </Position>
            <AltitudeMeters>1366</AltitudeMeters>
            <DistanceMeters>NAN</DistanceMeters>
          </Trackpoint>
          <Trackpoint>
            <Time>2021-08-03T04:01:28.000Z</Time>
            <Position>
              <LatitudeDegrees>-15.34183532930910587310791015625</LatitudeDegrees>
              <LongitudeDegrees>37.08067084662616252899169921875</LongitudeDegrees>
            </Position>
            <AltitudeMeters>1366</AltitudeMeters>
            <DistanceMeters>NAN</DistanceMeters>
          </Trackpoint>
          <Trackpoint>
            <Time>2021-08-03T04:01:40.000Z</Time>
            <Position>
              <LatitudeDegrees>-15.3418345749378204345703125</LatitudeDegrees>
              <LongitudeDegrees>37.0806808210909366607666015625</LongitudeDegrees>
            </Position>
            <AltitudeMeters>1365.800048828125</AltitudeMeters>
            <DistanceMeters>NAN</DistanceMeters>
          </Trackpoint>
          <Trackpoint>
            <Time>2021-08-03T04:01:43.000Z</Time>
            <Position>
              <LatitudeDegrees>-15.34183432348072528839111328125</LatitudeDegrees>
              <LongitudeDegrees>37.08068576641380786895751953125</LongitudeDegrees>
            </Position>
            <AltitudeMeters>1365.5999755859375</AltitudeMeters>
            <DistanceMeters>NAN</DistanceMeters>
          </Trackpoint>
          <Trackpoint>
            <Time>2021-08-03T04:01:47.000Z</Time>
            <Position>
              <LatitudeDegrees>-15.34183180890977382659912109375</LatitudeDegrees>
              <LongitudeDegrees>37.0806925557553768157958984375</LongitudeDegrees>
            </Position>
            <AltitudeMeters>1365.4000244140625</AltitudeMeters>
            <DistanceMeters>NAN</DistanceMeters>
          </Trackpoint>
          <Trackpoint>
            <Time>2021-08-03T04:01:51.000Z</Time>
            <Position>
              <LatitudeDegrees>-15.341827534139156341552734375</LatitudeDegrees>
              <LongitudeDegrees>37.0806925557553768157958984375</LongitudeDegrees>
            </Position>
            <AltitudeMeters>1365</AltitudeMeters>
            <DistanceMeters>NAN</DistanceMeters>
          </Trackpoint>
          <Trackpoint>
            <Time>2021-08-03T04:01:52.000Z</Time>
            <Position>
              <LatitudeDegrees>-15.34182510338723659515380859375</LatitudeDegrees>
              <LongitudeDegrees>37.0806925557553768157958984375</LongitudeDegrees>
            </Position>
            <AltitudeMeters>1365</AltitudeMeters>
            <DistanceMeters>NAN</DistanceMeters>
          </Trackpoint>
          <Trackpoint>
            <Time>2021-08-03T04:02:03.000Z</Time>
            <Position>
              <LatitudeDegrees>-15.3418206609785556793212890625</LatitudeDegrees>
              <LongitudeDegrees>37.08069398067891597747802734375</LongitudeDegrees>
            </Position>
            <AltitudeMeters>1364.4000244140625</AltitudeMeters>
            <DistanceMeters>NAN</DistanceMeters>
          </Trackpoint>
          <Trackpoint>
            <Time>2021-08-03T04:02:07.000Z</Time>
            <Position>
              <LatitudeDegrees>-15.3418206609785556793212890625</LatitudeDegrees>
              <LongitudeDegrees>37.08069448359310626983642578125</LongitudeDegrees>
            </Position>
            <AltitudeMeters>1364</AltitudeMeters>
            <DistanceMeters>NAN</DistanceMeters>
          </Trackpoint>
          <Trackpoint>
            <Time>2021-08-03T04:02:08.000Z</Time>
            <Position>
              <LatitudeDegrees>-15.3418206609785556793212890625</LatitudeDegrees>
              <LongitudeDegrees>37.08069448359310626983642578125</LongitudeDegrees>
            </Position>
            <AltitudeMeters>1364</AltitudeMeters>
            <DistanceMeters>NAN</DistanceMeters>
          </Trackpoint>
          <Trackpoint>
            <Time>2021-08-03T04:02:09.000Z</Time>
            <Position>
              <LatitudeDegrees>-15.34182108007371425628662109375</LatitudeDegrees>
              <LongitudeDegrees>37.08069448359310626983642578125</LongitudeDegrees>
            </Position>
            <AltitudeMeters>1363.800048828125</AltitudeMeters>
            <DistanceMeters>NAN</DistanceMeters>
          </Trackpoint>
          <Trackpoint>
            <Time>2021-08-03T04:02:22.000Z</Time>
            <Position>
              <LatitudeDegrees>-15.3418277017772197723388671875</LatitudeDegrees>
              <LongitudeDegrees>37.08071149885654449462890625</LongitudeDegrees>
            </Position>
            <AltitudeMeters>1364.199951171875</AltitudeMeters>
            <DistanceMeters>NAN</DistanceMeters>
          </Trackpoint>
          <Trackpoint>
            <Time>2021-08-03T04:02:24.000Z</Time>
            <Position>
              <LatitudeDegrees>-15.34183046780526638031005859375</LatitudeDegrees>
              <LongitudeDegrees>37.0807187072932720184326171875</LongitudeDegrees>
            </Position>
            <AltitudeMeters>1364.4000244140625</AltitudeMeters>
            <DistanceMeters>NAN</DistanceMeters>
          </Trackpoint>
          <Trackpoint>
            <Time>2021-08-03T04:02:29.000Z</Time>
            <Position>
              <LatitudeDegrees>-15.34183046780526638031005859375</LatitudeDegrees>
              <LongitudeDegrees>37.0807187072932720184326171875</LongitudeDegrees>
            </Position>
            <AltitudeMeters>1363.800048828125</AltitudeMeters>
            <DistanceMeters>NAN</DistanceMeters>
          </Trackpoint>
          <Trackpoint>
            <Time>2021-08-03T04:02:39.000Z</Time>
            <Position>
              <LatitudeDegrees>-15.34184337593615055084228515625</LatitudeDegrees>
              <LongitudeDegrees>37.08073563873767852783203125</LongitudeDegrees>
            </Position>
            <AltitudeMeters>1363.5999755859375</AltitudeMeters>
            <DistanceMeters>NAN</DistanceMeters>
          </Trackpoint>
          <Trackpoint>
            <Time>2021-08-03T04:02:40.000Z</Time>
            <Position>
              <LatitudeDegrees>-15.34184354357421398162841796875</LatitudeDegrees>
              <LongitudeDegrees>37.08073563873767852783203125</LongitudeDegrees>
            </Position>
            <AltitudeMeters>1363.4000244140625</AltitudeMeters>
            <DistanceMeters>NAN</DistanceMeters>
          </Trackpoint>
          <Trackpoint>
            <Time>2021-08-03T04:03:31.000Z</Time>
            <Position>
              <LatitudeDegrees>-15.3418649174273014068603515625</LatitudeDegrees>
              <LongitudeDegrees>37.0807314477860927581787109375</LongitudeDegrees>
            </Position>
            <AltitudeMeters>1363.5999755859375</AltitudeMeters>
            <DistanceMeters>NAN</DistanceMeters>
          </Trackpoint>
          <Trackpoint>
            <Time>2021-08-03T04:03:32.000Z</Time>
            <Position>
              <LatitudeDegrees>-15.3418649174273014068603515625</LatitudeDegrees>
              <LongitudeDegrees>37.08073136396706104278564453125</LongitudeDegrees>
            </Position>
            <AltitudeMeters>1363.5999755859375</AltitudeMeters>
            <DistanceMeters>NAN</DistanceMeters>
          </Trackpoint>
          <Trackpoint>
            <Time>2021-08-03T04:03:36.000Z</Time>
            <Position>
              <LatitudeDegrees>-15.3418655879795551300048828125</LatitudeDegrees>
              <LongitudeDegrees>37.08073136396706104278564453125</LongitudeDegrees>
            </Position>
            <AltitudeMeters>1363.800048828125</AltitudeMeters>
            <DistanceMeters>NAN</DistanceMeters>
          </Trackpoint>
          <Trackpoint>
            <Time>2021-08-03T04:03:49.000Z</Time>
            <Position>
              <LatitudeDegrees>-15.34188461489975452423095703125</LatitudeDegrees>
              <LongitudeDegrees>37.08073756657540798187255859375</LongitudeDegrees>
            </Position>
            <AltitudeMeters>1363.5999755859375</AltitudeMeters>
            <DistanceMeters>NAN</DistanceMeters>
          </Trackpoint>
          <Trackpoint>
            <Time>2021-08-03T04:03:53.000Z</Time>
            <Position>
              <LatitudeDegrees>-15.34187556244432926177978515625</LatitudeDegrees>
              <LongitudeDegrees>37.0806684158742427825927734375</LongitudeDegrees>
            </Position>
            <AltitudeMeters>1363.5999755859375</AltitudeMeters>
            <DistanceMeters>NAN</DistanceMeters>
          </Trackpoint>
          <Trackpoint>
            <Time>2021-08-03T04:04:00.000Z</Time>
            <Position>
              <LatitudeDegrees>-15.3418806754052639007568359375</LatitudeDegrees>
              <LongitudeDegrees>37.08057445473968982696533203125</LongitudeDegrees>
            </Position>
            <AltitudeMeters>1364.4000244140625</AltitudeMeters>
            <DistanceMeters>NAN</DistanceMeters>
          </Trackpoint>
          <Trackpoint>
            <Time>2021-08-03T04:04:01.000Z</Time>
            <Position>
              <LatitudeDegrees>-15.34188360907137393951416015625</LatitudeDegrees>
              <LongitudeDegrees>37.080564983189105987548828125</LongitudeDegrees>
            </Position>
            <AltitudeMeters>1364.5999755859375</AltitudeMeters>
            <DistanceMeters>NAN</DistanceMeters>
          </Trackpoint>
          <Trackpoint>
            <Time>2021-08-03T04:04:05.000Z</Time>
            <Position>
              <LatitudeDegrees>-15.34191093407571315765380859375</LatitudeDegrees>
              <LongitudeDegrees>37.0805244147777557373046875</LongitudeDegrees>
            </Position>
            <AltitudeMeters>1365</AltitudeMeters>
            <DistanceMeters>NAN</DistanceMeters>
          </Trackpoint>
          <Trackpoint>
            <Time>2021-08-03T04:04:09.000Z</Time>
            <Position>
              <LatitudeDegrees>-15.3419445455074310302734375</LatitudeDegrees>
              <LongitudeDegrees>37.0804816670715808868408203125</LongitudeDegrees>
            </Position>
            <AltitudeMeters>1365.800048828125</AltitudeMeters>
            <DistanceMeters>NAN</DistanceMeters>
          </Trackpoint>
          <Trackpoint>
            <Time>2021-08-03T04:04:10.000Z</Time>
            <Position>
              <LatitudeDegrees>-15.34195418469607830047607421875</LatitudeDegrees>
              <LongitudeDegrees>37.0804746262729167938232421875</LongitudeDegrees>
            </Position>
            <AltitudeMeters>1366</AltitudeMeters>
            <DistanceMeters>NAN</DistanceMeters>
          </Trackpoint>
          <Trackpoint>
            <Time>2021-08-03T04:04:15.000Z</Time>
            <Position>
              <LatitudeDegrees>-15.341999866068363189697265625</LatitudeDegrees>
              <LongitudeDegrees>37.08044185303151607513427734375</LongitudeDegrees>
            </Position>
            <AltitudeMeters>1367.199951171875</AltitudeMeters>
            <DistanceMeters>NAN</DistanceMeters>
          </Trackpoint>
          <Trackpoint>
            <Time>2021-08-03T04:04:18.000Z</Time>
            <Position>
              <LatitudeDegrees>-15.3420251794159412384033203125</LatitudeDegrees>
              <LongitudeDegrees>37.08041913807392120361328125</LongitudeDegrees>
            </Position>
            <AltitudeMeters>1367.800048828125</AltitudeMeters>
            <DistanceMeters>NAN</DistanceMeters>
          </Trackpoint>
          <Trackpoint>
            <Time>2021-08-03T04:04:23.000Z</Time>
            <Position>
              <LatitudeDegrees>-15.342056192457675933837890625</LatitudeDegrees>
              <LongitudeDegrees>37.08036775700747966766357421875</LongitudeDegrees>
            </Position>
            <AltitudeMeters>1368.4000244140625</AltitudeMeters>
            <DistanceMeters>NAN</DistanceMeters>
          </Trackpoint>
          <Trackpoint>
            <Time>2021-08-03T04:04:26.000Z</Time>
            <Position>
              <LatitudeDegrees>-15.3420811705291271209716796875</LatitudeDegrees>
              <LongitudeDegrees>37.0803420245647430419921875</LongitudeDegrees>
            </Position>
            <AltitudeMeters>1368.800048828125</AltitudeMeters>
            <DistanceMeters>NAN</DistanceMeters>
          </Trackpoint>
          <Trackpoint>
            <Time>2021-08-03T04:04:31.000Z</Time>
            <Position>
              <LatitudeDegrees>-15.34210740588605403900146484375</LatitudeDegrees>
              <LongitudeDegrees>37.080287374556064605712890625</LongitudeDegrees>
            </Position>
            <AltitudeMeters>1369.199951171875</AltitudeMeters>
            <DistanceMeters>NAN</DistanceMeters>
          </Trackpoint>
          <Trackpoint>
            <Time>2021-08-03T04:04:33.000Z</Time>
            <Position>
              <LatitudeDegrees>-15.342121906578540802001953125</LatitudeDegrees>
              <LongitudeDegrees>37.0802737958729267120361328125</LongitudeDegrees>
            </Position>
            <AltitudeMeters>1370</AltitudeMeters>
            <DistanceMeters>NAN</DistanceMeters>
          </Trackpoint>
          <Trackpoint>
            <Time>2021-08-03T04:04:35.000Z</Time>
            <Position>
              <LatitudeDegrees>-15.342130959033966064453125</LatitudeDegrees>
              <LongitudeDegrees>37.08025862462818622589111328125</LongitudeDegrees>
            </Position>
            <AltitudeMeters>1370</AltitudeMeters>
            <DistanceMeters>NAN</DistanceMeters>
          </Trackpoint>
          <Trackpoint>
            <Time>2021-08-03T04:04:37.000Z</Time>
            <Position>
              <LatitudeDegrees>-15.3421331383287906646728515625</LatitudeDegrees>
              <LongitudeDegrees>37.080244123935699462890625</LongitudeDegrees>
            </Position>
            <AltitudeMeters>1370.5999755859375</AltitudeMeters>
            <DistanceMeters>NAN</DistanceMeters>
          </Trackpoint>
          <Trackpoint>
            <Time>2021-08-03T04:04:40.000Z</Time>
            <Position>
              <LatitudeDegrees>-15.3421385027468204498291015625</LatitudeDegrees>
              <LongitudeDegrees>37.08020665682852268218994140625</LongitudeDegrees>
            </Position>
            <AltitudeMeters>1371</AltitudeMeters>
            <DistanceMeters>NAN</DistanceMeters>
          </Trackpoint>
          <Trackpoint>
            <Time>2021-08-03T04:04:44.000Z</Time>
            <Position>
              <LatitudeDegrees>-15.342159457504749298095703125</LatitudeDegrees>
              <LongitudeDegrees>37.080169022083282470703125</LongitudeDegrees>
            </Position>
            <AltitudeMeters>1372.199951171875</AltitudeMeters>
            <DistanceMeters>NAN</DistanceMeters>
          </Trackpoint>
          <Trackpoint>
            <Time>2021-08-03T04:04:48.000Z</Time>
            <Position>
              <LatitudeDegrees>-15.34216524101793766021728515625</LatitudeDegrees>
              <LongitudeDegrees>37.08012417890131473541259765625</LongitudeDegrees>
            </Position>
            <AltitudeMeters>1373.199951171875</AltitudeMeters>
            <DistanceMeters>NAN</DistanceMeters>
          </Trackpoint>
          <Trackpoint>
            <Time>2021-08-03T04:04:51.000Z</Time>
            <Position>
              <LatitudeDegrees>-15.34217647276818752288818359375</LatitudeDegrees>
              <LongitudeDegrees>37.0800883881747722625732421875</LongitudeDegrees>
            </Position>
            <AltitudeMeters>1373.4000244140625</AltitudeMeters>
            <DistanceMeters>NAN</DistanceMeters>
          </Trackpoint>
          <Trackpoint>
            <Time>2021-08-03T04:04:54.000Z</Time>
            <Position>
              <LatitudeDegrees>-15.3421891294419765472412109375</LatitudeDegrees>
              <LongitudeDegrees>37.08007623441517353057861328125</LongitudeDegrees>
            </Position>
            <AltitudeMeters>1374.5999755859375</AltitudeMeters>
            <DistanceMeters>NAN</DistanceMeters>
          </Trackpoint>
          <Trackpoint>
            <Time>2021-08-03T04:04:57.000Z</Time>
            <Position>
              <LatitudeDegrees>-15.3421897999942302703857421875</LatitudeDegrees>
              <LongitudeDegrees>37.08003063686192035675048828125</LongitudeDegrees>
            </Position>
            <AltitudeMeters>1374.800048828125</AltitudeMeters>
            <DistanceMeters>NAN</DistanceMeters>
          </Trackpoint>
          <Trackpoint>
            <Time>2021-08-03T04:04:59.000Z</Time>
            <Position>
              <LatitudeDegrees>-15.34218619577586650848388671875</LatitudeDegrees>
              <LongitudeDegrees>37.0800025574862957000732421875</LongitudeDegrees>
            </Position>
            <AltitudeMeters>1375.199951171875</AltitudeMeters>
            <DistanceMeters>NAN</DistanceMeters>
          </Trackpoint>
          <Trackpoint>
            <Time>2021-08-03T04:05:01.000Z</Time>
            <Position>
              <LatitudeDegrees>-15.34219189547002315521240234375</LatitudeDegrees>
              <LongitudeDegrees>37.0799867995083332061767578125</LongitudeDegrees>
            </Position>
            <AltitudeMeters>1375.800048828125</AltitudeMeters>
            <DistanceMeters>NAN</DistanceMeters>
          </Trackpoint>
          <Trackpoint>
            <Time>2021-08-03T04:05:02.000Z</Time>
            <Position>
              <LatitudeDegrees>-15.3421981818974018096923828125</LatitudeDegrees>
              <LongitudeDegrees>37.079975903034210205078125</LongitudeDegrees>
            </Position>
            <AltitudeMeters>1376</AltitudeMeters>
            <DistanceMeters>NAN</DistanceMeters>
          </Trackpoint>
          <Trackpoint>
            <Time>2021-08-03T04:05:05.000Z</Time>
            <Position>
              <LatitudeDegrees>-15.342212431132793426513671875</LatitudeDegrees>
              <LongitudeDegrees>37.07995201461017131805419921875</LongitudeDegrees>
            </Position>
            <AltitudeMeters>1376.800048828125</AltitudeMeters>
            <DistanceMeters>NAN</DistanceMeters>
          </Trackpoint>
          <Trackpoint>
            <Time>2021-08-03T04:05:06.000Z</Time>
            <Position>
              <LatitudeDegrees>-15.3422139398753643035888671875</LatitudeDegrees>
              <LongitudeDegrees>37.079940699040889739990234375</LongitudeDegrees>
            </Position>
            <AltitudeMeters>1377.199951171875</AltitudeMeters>
            <DistanceMeters>NAN</DistanceMeters>
          </Trackpoint>
          <Trackpoint>
            <Time>2021-08-03T04:05:11.000Z</Time>
            <Position>
              <LatitudeDegrees>-15.342231206595897674560546875</LatitudeDegrees>
              <LongitudeDegrees>37.079895101487636566162109375</LongitudeDegrees>
            </Position>
            <AltitudeMeters>1378.4000244140625</AltitudeMeters>
            <DistanceMeters>NAN</DistanceMeters>
          </Trackpoint>
          <Trackpoint>
            <Time>2021-08-03T04:05:17.000Z</Time>
            <Position>
              <LatitudeDegrees>-15.342253334820270538330078125</LatitudeDegrees>
              <LongitudeDegrees>37.07981823943555355072021484375</LongitudeDegrees>
            </Position>
            <AltitudeMeters>1379.4000244140625</AltitudeMeters>
            <DistanceMeters>NAN</DistanceMeters>
          </Trackpoint>
          <Trackpoint>
            <Time>2021-08-03T04:05:23.000Z</Time>
            <Position>
              <LatitudeDegrees>-15.342265069484710693359375</LatitudeDegrees>
              <LongitudeDegrees>37.07974581979215145111083984375</LongitudeDegrees>
            </Position>
            <AltitudeMeters>1380.5999755859375</AltitudeMeters>
            <DistanceMeters>NAN</DistanceMeters>
          </Trackpoint>
          <Trackpoint>
            <Time>2021-08-03T04:05:30.000Z</Time>
            <Position>
              <LatitudeDegrees>-15.342246629297733306884765625</LatitudeDegrees>
              <LongitudeDegrees>37.0796699635684490203857421875</LongitudeDegrees>
            </Position>
            <AltitudeMeters>1381.5999755859375</AltitudeMeters>
            <DistanceMeters>NAN</DistanceMeters>
          </Trackpoint>
          <Trackpoint>
            <Time>2021-08-03T04:05:31.000Z</Time>
            <Position>
              <LatitudeDegrees>-15.34224805422127246856689453125</LatitudeDegrees>
              <LongitudeDegrees>37.07966007292270660400390625</LongitudeDegrees>
            </Position>
            <AltitudeMeters>1381.5999755859375</AltitudeMeters>
            <DistanceMeters>NAN</DistanceMeters>
          </Trackpoint>
          <Trackpoint>
            <Time>2021-08-03T04:05:33.000Z</Time>
            <Position>
              <LatitudeDegrees>-15.34225375391542911529541015625</LatitudeDegrees>
              <LongitudeDegrees>37.0796441473066806793212890625</LongitudeDegrees>
            </Position>
            <AltitudeMeters>1382</AltitudeMeters>
            <DistanceMeters>NAN</DistanceMeters>
          </Trackpoint>
          <Trackpoint>
            <Time>2021-08-03T04:05:36.000Z</Time>
            <Position>
              <LatitudeDegrees>-15.34226708114147186279296875</LatitudeDegrees>
              <LongitudeDegrees>37.079616822302341461181640625</LongitudeDegrees>
            </Position>
            <AltitudeMeters>1383.199951171875</AltitudeMeters>
            <DistanceMeters>NAN</DistanceMeters>
          </Trackpoint>
          <Trackpoint>
            <Time>2021-08-03T04:05:41.000Z</Time>
            <Position>
              <LatitudeDegrees>-15.34228577278554439544677734375</LatitudeDegrees>
              <LongitudeDegrees>37.07957114093005657196044921875</LongitudeDegrees>
            </Position>
            <AltitudeMeters>1384.199951171875</AltitudeMeters>
            <DistanceMeters>NAN</DistanceMeters>
          </Trackpoint>
          <Trackpoint>
            <Time>2021-08-03T04:05:42.000Z</Time>
            <Position>
              <LatitudeDegrees>-15.34228987991809844970703125</LatitudeDegrees>
              <LongitudeDegrees>37.079562507569789886474609375</LongitudeDegrees>
            </Position>
            <AltitudeMeters>1384.4000244140625</AltitudeMeters>
            <DistanceMeters>NAN</DistanceMeters>
          </Trackpoint>
          <Trackpoint>
            <Time>2021-08-03T04:05:44.000Z</Time>
            <Position>
              <LatitudeDegrees>-15.34229935146868228912353515625</LatitudeDegrees>
              <LongitudeDegrees>37.07955085672438144683837890625</LongitudeDegrees>
            </Position>
            <AltitudeMeters>1384.800048828125</AltitudeMeters>
            <DistanceMeters>NAN</DistanceMeters>
          </Trackpoint>
          <Trackpoint>
            <Time>2021-08-03T04:05:45.000Z</Time>
            <Position>
              <LatitudeDegrees>-15.34230287186801433563232421875</LatitudeDegrees>
              <LongitudeDegrees>37.07953937351703643798828125</LongitudeDegrees>
            </Position>
            <AltitudeMeters>1385</AltitudeMeters>
            <DistanceMeters>NAN</DistanceMeters>
          </Trackpoint>
          <Trackpoint>
            <Time>2021-08-03T04:05:46.000Z</Time>
            <Position>
              <LatitudeDegrees>-15.3423047997057437896728515625</LatitudeDegrees>
              <LongitudeDegrees>37.0795281417667865753173828125</LongitudeDegrees>
            </Position>
            <AltitudeMeters>1385.199951171875</AltitudeMeters>
            <DistanceMeters>NAN</DistanceMeters>
          </Trackpoint>
          <Trackpoint>
            <Time>2021-08-03T04:05:47.000Z</Time>
            <Position>
              <LatitudeDegrees>-15.34231058321893215179443359375</LatitudeDegrees>
              <LongitudeDegrees>37.07952059805393218994140625</LongitudeDegrees>
            </Position>
            <AltitudeMeters>1385.4000244140625</AltitudeMeters>
            <DistanceMeters>NAN</DistanceMeters>
          </Trackpoint>
          <Trackpoint>
            <Time>2021-08-03T04:05:50.000Z</Time>
            <Position>
              <LatitudeDegrees>-15.3423265926539897918701171875</LatitudeDegrees>
              <LongitudeDegrees>37.07949453033506870269775390625</LongitudeDegrees>
            </Position>
            <AltitudeMeters>1386</AltitudeMeters>
            <DistanceMeters>NAN</DistanceMeters>
          </Trackpoint>
          <Trackpoint>
            <Time>2021-08-03T04:05:52.000Z</Time>
            <Position>
              <LatitudeDegrees>-15.3423322923481464385986328125</LatitudeDegrees>
              <LongitudeDegrees>37.07947877235710620880126953125</LongitudeDegrees>
            </Position>
            <AltitudeMeters>1386.4000244140625</AltitudeMeters>
            <DistanceMeters>NAN</DistanceMeters>
          </Trackpoint>
          <Trackpoint>
            <Time>2021-08-03T04:05:57.000Z</Time>
            <Position>
              <LatitudeDegrees>-15.34233220852911472320556640625</LatitudeDegrees>
              <LongitudeDegrees>37.079433090984821319580078125</LongitudeDegrees>
            </Position>
            <AltitudeMeters>1387.5999755859375</AltitudeMeters>
            <DistanceMeters>NAN</DistanceMeters>
          </Trackpoint>
          <Trackpoint>
            <Time>2021-08-03T04:06:01.000Z</Time>
            <Position>
              <LatitudeDegrees>-15.3423332981765270233154296875</LatitudeDegrees>
              <LongitudeDegrees>37.079385817050933837890625</LongitudeDegrees>
            </Position>
            <AltitudeMeters>1388.5999755859375</AltitudeMeters>
            <DistanceMeters>NAN</DistanceMeters>
          </Trackpoint>
          <Trackpoint>
            <Time>2021-08-03T04:06:03.000Z</Time>
            <Position>
              <LatitudeDegrees>-15.34233841113746166229248046875</LatitudeDegrees>
              <LongitudeDegrees>37.07936326973140239715576171875</LongitudeDegrees>
            </Position>
            <AltitudeMeters>1388.5999755859375</AltitudeMeters>
            <DistanceMeters>NAN</DistanceMeters>
          </Trackpoint>
          <Trackpoint>
            <Time>2021-08-03T04:06:06.000Z</Time>
            <Position>
              <LatitudeDegrees>-15.34234394319355487823486328125</LatitudeDegrees>
              <LongitudeDegrees>37.0793281495571136474609375</LongitudeDegrees>
            </Position>
            <AltitudeMeters>1389.5999755859375</AltitudeMeters>
            <DistanceMeters>NAN</DistanceMeters>
          </Trackpoint>
          <Trackpoint>
            <Time>2021-08-03T04:06:10.000Z</Time>
            <Position>
              <LatitudeDegrees>-15.34235551021993160247802734375</LatitudeDegrees>
              <LongitudeDegrees>37.07928414456546306610107421875</LongitudeDegrees>
            </Position>
            <AltitudeMeters>1390.199951171875</AltitudeMeters>
            <DistanceMeters>NAN</DistanceMeters>
          </Trackpoint>
          <Trackpoint>
            <Time>2021-08-03T04:06:12.000Z</Time>
            <Position>
              <LatitudeDegrees>-15.3423644788563251495361328125</LatitudeDegrees>
              <LongitudeDegrees>37.07926754839718341827392578125</LongitudeDegrees>
            </Position>
            <AltitudeMeters>1390.800048828125</AltitudeMeters>
            <DistanceMeters>NAN</DistanceMeters>
          </Trackpoint>
          <Trackpoint>
            <Time>2021-08-03T04:06:16.000Z</Time>
            <Position>
              <LatitudeDegrees>-15.342384092509746551513671875</LatitudeDegrees>
              <LongitudeDegrees>37.079230248928070068359375</LongitudeDegrees>
            </Position>
            <AltitudeMeters>1392</AltitudeMeters>
            <DistanceMeters>NAN</DistanceMeters>
          </Trackpoint>
          <Trackpoint>
            <Time>2021-08-03T04:06:19.000Z</Time>
            <Position>
              <LatitudeDegrees>-15.34239959903061389923095703125</LatitudeDegrees>
              <LongitudeDegrees>37.0792074501514434814453125</LongitudeDegrees>
            </Position>
            <AltitudeMeters>1392.199951171875</AltitudeMeters>
            <DistanceMeters>NAN</DistanceMeters>
          </Trackpoint>
          <Trackpoint>
            <Time>2021-08-03T04:06:23.000Z</Time>
            <Position>
              <LatitudeDegrees>-15.34242038615047931671142578125</LatitudeDegrees>
              <LongitudeDegrees>37.07917861640453338623046875</LongitudeDegrees>
            </Position>
            <AltitudeMeters>1393.199951171875</AltitudeMeters>
            <DistanceMeters>NAN</DistanceMeters>
          </Trackpoint>
          <Trackpoint>
            <Time>2021-08-03T04:06:28.000Z</Time>
            <Position>
              <LatitudeDegrees>-15.34244620241224765777587890625</LatitudeDegrees>
              <LongitudeDegrees>37.07913838326930999755859375</LongitudeDegrees>
            </Position>
            <AltitudeMeters>1394.800048828125</AltitudeMeters>
            <DistanceMeters>NAN</DistanceMeters>
          </Trackpoint>
          <Trackpoint>
            <Time>2021-08-03T04:06:34.000Z</Time>
            <Position>
              <LatitudeDegrees>-15.34247168339788913726806640625</LatitudeDegrees>
              <LongitudeDegrees>37.07908817566931247711181640625</LongitudeDegrees>
            </Position>
            <AltitudeMeters>1396.199951171875</AltitudeMeters>
            <DistanceMeters>NAN</DistanceMeters>
          </Trackpoint>
          <Trackpoint>
            <Time>2021-08-03T04:06:36.000Z</Time>
            <Position>
              <LatitudeDegrees>-15.34248375333845615386962890625</LatitudeDegrees>
              <LongitudeDegrees>37.07907308824360370635986328125</LongitudeDegrees>
            </Position>
            <AltitudeMeters>1396.4000244140625</AltitudeMeters>
            <DistanceMeters>NAN</DistanceMeters>
          </Trackpoint>
          <Trackpoint>
            <Time>2021-08-03T04:06:38.000Z</Time>
            <Position>
              <LatitudeDegrees>-15.342501103878021240234375</LatitudeDegrees>
              <LongitudeDegrees>37.07905096001923084259033203125</LongitudeDegrees>
            </Position>
            <AltitudeMeters>1397.5999755859375</AltitudeMeters>
            <DistanceMeters>NAN</DistanceMeters>
          </Trackpoint>
          <Trackpoint>
            <Time>2021-08-03T04:06:40.000Z</Time>
            <Position>
              <LatitudeDegrees>-15.3425096534192562103271484375</LatitudeDegrees>
              <LongitudeDegrees>37.0790372975170612335205078125</LongitudeDegrees>
            </Position>
            <AltitudeMeters>1397.5999755859375</AltitudeMeters>
            <DistanceMeters>NAN</DistanceMeters>
          </Trackpoint>
          <Trackpoint>
            <Time>2021-08-03T04:06:43.000Z</Time>
            <Position>
              <LatitudeDegrees>-15.34251107834279537200927734375</LatitudeDegrees>
              <LongitudeDegrees>37.07901609130203723907470703125</LongitudeDegrees>
            </Position>
            <AltitudeMeters>1398.5999755859375</AltitudeMeters>
            <DistanceMeters>NAN</DistanceMeters>
          </Trackpoint>
          <Trackpoint>
            <Time>2021-08-03T04:06:46.000Z</Time>
            <Position>
              <LatitudeDegrees>-15.34251392818987369537353515625</LatitudeDegrees>
              <LongitudeDegrees>37.0789896883070468902587890625</LongitudeDegrees>
            </Position>
            <AltitudeMeters>1399</AltitudeMeters>
            <DistanceMeters>NAN</DistanceMeters>
          </Trackpoint>
          <Trackpoint>
            <Time>2021-08-03T04:06:49.000Z</Time>
            <Position>
              <LatitudeDegrees>-15.34252666868269443511962890625</LatitudeDegrees>
              <LongitudeDegrees>37.0789628662168979644775390625</LongitudeDegrees>
            </Position>
            <AltitudeMeters>1399.5999755859375</AltitudeMeters>
            <DistanceMeters>NAN</DistanceMeters>
          </Trackpoint>
          <Trackpoint>
            <Time>2021-08-03T04:06:54.000Z</Time>
            <Position>
              <LatitudeDegrees>-15.34254737198352813720703125</LatitudeDegrees>
              <LongitudeDegrees>37.07892321981489658355712890625</LongitudeDegrees>
            </Position>
            <AltitudeMeters>1400.800048828125</AltitudeMeters>
            <DistanceMeters>NAN</DistanceMeters>
          </Trackpoint>
          <Trackpoint>
            <Time>2021-08-03T04:06:56.000Z</Time>
            <Position>
              <LatitudeDegrees>-15.3425492160022258758544921875</LatitudeDegrees>
              <LongitudeDegrees>37.078899331390857696533203125</LongitudeDegrees>
            </Position>
            <AltitudeMeters>1401.4000244140625</AltitudeMeters>
            <DistanceMeters>NAN</DistanceMeters>
          </Trackpoint>
          <Trackpoint>
            <Time>2021-08-03T04:07:00.000Z</Time>
            <Position>
              <LatitudeDegrees>-15.34255835227668285369873046875</LatitudeDegrees>
              <LongitudeDegrees>37.07886236719787120819091796875</LongitudeDegrees>
            </Position>
            <AltitudeMeters>1402.199951171875</AltitudeMeters>
            <DistanceMeters>NAN</DistanceMeters>
          </Trackpoint>
          <Trackpoint>
            <Time>2021-08-03T04:07:06.000Z</Time>
            <Position>
              <LatitudeDegrees>-15.34258483909070491790771484375</LatitudeDegrees>
              <LongitudeDegrees>37.07881987094879150390625</LongitudeDegrees>
            </Position>
            <AltitudeMeters>1403.4000244140625</AltitudeMeters>
            <DistanceMeters>NAN</DistanceMeters>
          </Trackpoint>
          <Trackpoint>
            <Time>2021-08-03T04:07:08.000Z</Time>
            <Position>
              <LatitudeDegrees>-15.3425907902419567108154296875</LatitudeDegrees>
              <LongitudeDegrees>37.07880201749503612518310546875</LongitudeDegrees>
            </Position>
            <AltitudeMeters>1404</AltitudeMeters>
            <DistanceMeters>NAN</DistanceMeters>
          </Trackpoint>
          <Trackpoint>
            <Time>2021-08-03T04:07:12.000Z</Time>
            <Position>
              <LatitudeDegrees>-15.34261316992342472076416015625</LatitudeDegrees>
              <LongitudeDegrees>37.078771255910396575927734375</LongitudeDegrees>
            </Position>
            <AltitudeMeters>1404.800048828125</AltitudeMeters>
            <DistanceMeters>NAN</DistanceMeters>
          </Trackpoint>
          <Trackpoint>
            <Time>2021-08-03T04:07:16.000Z</Time>
            <Position>
              <LatitudeDegrees>-15.3426306881010532379150390625</LatitudeDegrees>
              <LongitudeDegrees>37.07873873412609100341796875</LongitudeDegrees>
            </Position>
            <AltitudeMeters>1405.4000244140625</AltitudeMeters>
            <DistanceMeters>NAN</DistanceMeters>
          </Trackpoint>
          <Trackpoint>
            <Time>2021-08-03T04:07:18.000Z</Time>
            <Position>
              <LatitudeDegrees>-15.342634879052639007568359375</LatitudeDegrees>
              <LongitudeDegrees>37.0787221379578113555908203125</LongitudeDegrees>
            </Position>
            <AltitudeMeters>1406.199951171875</AltitudeMeters>
            <DistanceMeters>NAN</DistanceMeters>
          </Trackpoint>
          <Trackpoint>
            <Time>2021-08-03T04:07:19.000Z</Time>
            <Position>
              <LatitudeDegrees>-15.34263697452843189239501953125</LatitudeDegrees>
              <LongitudeDegrees>37.07871417514979839324951171875</LongitudeDegrees>
            </Position>
            <AltitudeMeters>1406.4000244140625</AltitudeMeters>
            <DistanceMeters>NAN</DistanceMeters>
          </Trackpoint>
          <Trackpoint>
            <Time>2021-08-03T04:07:24.000Z</Time>
            <Position>
              <LatitudeDegrees>-15.342655666172504425048828125</LatitudeDegrees>
              <LongitudeDegrees>37.0786768756806850433349609375</LongitudeDegrees>
            </Position>
            <AltitudeMeters>1407.4000244140625</AltitudeMeters>
            <DistanceMeters>NAN</DistanceMeters>
          </Trackpoint>
          <Trackpoint>
            <Time>2021-08-03T04:07:28.000Z</Time>
            <Position>
              <LatitudeDegrees>-15.34267268143594264984130859375</LatitudeDegrees>
              <LongitudeDegrees>37.0786410011351108551025390625</LongitudeDegrees>
            </Position>
            <AltitudeMeters>1408.199951171875</AltitudeMeters>
            <DistanceMeters>NAN</DistanceMeters>
          </Trackpoint>
          <Trackpoint>
            <Time>2021-08-03T04:07:29.000Z</Time>
            <Position>
              <LatitudeDegrees>-15.34267653711140155792236328125</LatitudeDegrees>
              <LongitudeDegrees>37.0786322839558124542236328125</LongitudeDegrees>
            </Position>
            <AltitudeMeters>1408.5999755859375</AltitudeMeters>
            <DistanceMeters>NAN</DistanceMeters>
          </Trackpoint>
          <Trackpoint>
            <Time>2021-08-03T04:07:30.000Z</Time>
            <Position>
              <LatitudeDegrees>-15.3426821529865264892578125</LatitudeDegrees>
              <LongitudeDegrees>37.07862616516649723052978515625</LongitudeDegrees>
            </Position>
            <AltitudeMeters>1408.5999755859375</AltitudeMeters>
            <DistanceMeters>NAN</DistanceMeters>
          </Trackpoint>
          <Trackpoint>
            <Time>2021-08-03T04:07:32.000Z</Time>
            <Position>
              <LatitudeDegrees>-15.342684499919414520263671875</LatitudeDegrees>
              <LongitudeDegrees>37.07860621623694896697998046875</LongitudeDegrees>
            </Position>
            <AltitudeMeters>1409.4000244140625</AltitudeMeters>
            <DistanceMeters>NAN</DistanceMeters>
          </Trackpoint>
          <Trackpoint>
            <Time>2021-08-03T04:07:33.000Z</Time>
            <Position>
              <LatitudeDegrees>-15.34268525429069995880126953125</LatitudeDegrees>
              <LongitudeDegrees>37.078597247600555419921875</LongitudeDegrees>
            </Position>
            <AltitudeMeters>1409.800048828125</AltitudeMeters>
            <DistanceMeters>NAN</DistanceMeters>
          </Trackpoint>
          <Trackpoint>
            <Time>2021-08-03T04:07:36.000Z</Time>
            <Position>
              <LatitudeDegrees>-15.34269464202225208282470703125</LatitudeDegrees>
              <LongitudeDegrees>37.07857537083327770233154296875</LongitudeDegrees>
            </Position>
            <AltitudeMeters>1410.199951171875</AltitudeMeters>
            <DistanceMeters>NAN</DistanceMeters>
          </Trackpoint>
          <Trackpoint>
            <Time>2021-08-03T04:07:40.000Z</Time>
            <Position>
              <LatitudeDegrees>-15.34269397146999835968017578125</LatitudeDegrees>
              <LongitudeDegrees>37.0785315334796905517578125</LongitudeDegrees>
            </Position>
            <AltitudeMeters>1411</AltitudeMeters>
            <DistanceMeters>NAN</DistanceMeters>
          </Trackpoint>
          <Trackpoint>
            <Time>2021-08-03T04:07:44.000Z</Time>
            <Position>
              <LatitudeDegrees>-15.34270704723894596099853515625</LatitudeDegrees>
              <LongitudeDegrees>37.078495323657989501953125</LongitudeDegrees>
            </Position>
            <AltitudeMeters>1412.199951171875</AltitudeMeters>
            <DistanceMeters>NAN</DistanceMeters>
          </Trackpoint>
          <Trackpoint>
            <Time>2021-08-03T04:07:46.000Z</Time>
            <Position>
              <LatitudeDegrees>-15.34271794371306896209716796875</LatitudeDegrees>
              <LongitudeDegrees>37.07847855985164642333984375</LongitudeDegrees>
            </Position>
            <AltitudeMeters>1412.5999755859375</AltitudeMeters>
            <DistanceMeters>NAN</DistanceMeters>
          </Trackpoint>
          <Trackpoint>
            <Time>2021-08-03T04:07:47.000Z</Time>
            <Position>
              <LatitudeDegrees>-15.3427250683307647705078125</LatitudeDegrees>
              <LongitudeDegrees>37.07847730256617069244384765625</LongitudeDegrees>
            </Position>
            <AltitudeMeters>1412.800048828125</AltitudeMeters>
            <DistanceMeters>NAN</DistanceMeters>
          </Trackpoint>
          <Trackpoint>
            <Time>2021-08-03T04:07:50.000Z</Time>
            <Position>
              <LatitudeDegrees>-15.34275390207767486572265625</LatitudeDegrees>
              <LongitudeDegrees>37.078466825187206268310546875</LongitudeDegrees>
            </Position>
            <AltitudeMeters>1413.199951171875</AltitudeMeters>
            <DistanceMeters>NAN</DistanceMeters>
          </Trackpoint>
          <Trackpoint>
            <Time>2021-08-03T04:07:55.000Z</Time>
            <Position>
              <LatitudeDegrees>-15.34278072416782379150390625</LatitudeDegrees>
              <LongitudeDegrees>37.07842969335615634918212890625</LongitudeDegrees>
            </Position>
            <AltitudeMeters>1414.4000244140625</AltitudeMeters>
            <DistanceMeters>NAN</DistanceMeters>
          </Trackpoint>
          <Trackpoint>
            <Time>2021-08-03T04:07:58.000Z</Time>
            <Position>
              <LatitudeDegrees>-15.34279413521289825439453125</LatitudeDegrees>
              <LongitudeDegrees>37.07840672694146633148193359375</LongitudeDegrees>
            </Position>
            <AltitudeMeters>1415.4000244140625</AltitudeMeters>
            <DistanceMeters>NAN</DistanceMeters>
          </Trackpoint>
          <Trackpoint>
            <Time>2021-08-03T04:07:59.000Z</Time>
            <Position>
              <LatitudeDegrees>-15.34279623068869113922119140625</LatitudeDegrees>
              <LongitudeDegrees>37.0784001052379608154296875</LongitudeDegrees>
            </Position>
            <AltitudeMeters>1415.5999755859375</AltitudeMeters>
            <DistanceMeters>NAN</DistanceMeters>
          </Trackpoint>
          <Trackpoint>
            <Time>2021-08-03T04:08:04.000Z</Time>
            <Position>
              <LatitudeDegrees>-15.34281131811439990997314453125</LatitudeDegrees>
              <LongitudeDegrees>37.0783670805394649505615234375</LongitudeDegrees>
            </Position>
            <AltitudeMeters>1417</AltitudeMeters>
            <DistanceMeters>NAN</DistanceMeters>
          </Trackpoint>
          <Trackpoint>
            <Time>2021-08-03T04:08:09.000Z</Time>
            <Position>
              <LatitudeDegrees>-15.34283244051039218902587890625</LatitudeDegrees>
              <LongitudeDegrees>37.0783317089080810546875</LongitudeDegrees>
            </Position>
            <AltitudeMeters>1418</AltitudeMeters>
            <DistanceMeters>NAN</DistanceMeters>
          </Trackpoint>
          <Trackpoint>
            <Time>2021-08-03T04:08:14.000Z</Time>
            <Position>
              <LatitudeDegrees>-15.3428430855274200439453125</LatitudeDegrees>
              <LongitudeDegrees>37.07829273305833339691162109375</LongitudeDegrees>
            </Position>
            <AltitudeMeters>1419.199951171875</AltitudeMeters>
            <DistanceMeters>NAN</DistanceMeters>
          </Trackpoint>
          <Trackpoint>
            <Time>2021-08-03T04:08:19.000Z</Time>
            <Position>
              <LatitudeDegrees>-15.34285976551473140716552734375</LatitudeDegrees>
              <LongitudeDegrees>37.07825325429439544677734375</LongitudeDegrees>
            </Position>
            <AltitudeMeters>1420.4000244140625</AltitudeMeters>
            <DistanceMeters>NAN</DistanceMeters>
          </Trackpoint>
          <Trackpoint>
            <Time>2021-08-03T04:08:26.000Z</Time>
            <Position>
              <LatitudeDegrees>-15.34287753514945507049560546875</LatitudeDegrees>
              <LongitudeDegrees>37.078195251524448394775390625</LongitudeDegrees>
            </Position>
            <AltitudeMeters>1421.800048828125</AltitudeMeters>
            <DistanceMeters>NAN</DistanceMeters>
          </Trackpoint>
          <Trackpoint>
            <Time>2021-08-03T04:08:30.000Z</Time>
            <Position>
              <LatitudeDegrees>-15.3428948856890201568603515625</LatitudeDegrees>
              <LongitudeDegrees>37.0781672559678554534912109375</LongitudeDegrees>
            </Position>
            <AltitudeMeters>1422.800048828125</AltitudeMeters>
            <DistanceMeters>NAN</DistanceMeters>
          </Trackpoint>
          <Trackpoint>
            <Time>2021-08-03T04:08:33.000Z</Time>
            <Position>
              <LatitudeDegrees>-15.34289664588868618011474609375</LatitudeDegrees>
              <LongitudeDegrees>37.07814194262027740478515625</LongitudeDegrees>
            </Position>
            <AltitudeMeters>1423.4000244140625</AltitudeMeters>
            <DistanceMeters>NAN</DistanceMeters>
          </Trackpoint>
          <Trackpoint>
            <Time>2021-08-03T04:08:36.000Z</Time>
            <Position>
              <LatitudeDegrees>-15.34290083684027194976806640625</LatitudeDegrees>
              <LongitudeDegrees>37.078109085559844970703125</LongitudeDegrees>
            </Position>
            <AltitudeMeters>1424.199951171875</AltitudeMeters>
            <DistanceMeters>NAN</DistanceMeters>
          </Trackpoint>
          <Trackpoint>
            <Time>2021-08-03T04:08:41.000Z</Time>
            <Position>
              <LatitudeDegrees>-15.3429180197417736053466796875</LatitudeDegrees>
              <LongitudeDegrees>37.07806457765400409698486328125</LongitudeDegrees>
            </Position>
            <AltitudeMeters>1425.4000244140625</AltitudeMeters>
            <DistanceMeters>NAN</DistanceMeters>
          </Trackpoint>
          <Trackpoint>
            <Time>2021-08-03T04:08:43.000Z</Time>
            <Position>
              <LatitudeDegrees>-15.3429324366152286529541015625</LatitudeDegrees>
              <LongitudeDegrees>37.07805116660892963409423828125</LongitudeDegrees>
            </Position>
            <AltitudeMeters>1425.800048828125</AltitudeMeters>
            <DistanceMeters>NAN</DistanceMeters>
          </Trackpoint>
          <Trackpoint>
            <Time>2021-08-03T04:08:45.000Z</Time>
            <Position>
              <LatitudeDegrees>-15.34294702112674713134765625</LatitudeDegrees>
              <LongitudeDegrees>37.0780406892299652099609375</LongitudeDegrees>
            </Position>
            <AltitudeMeters>1426.199951171875</AltitudeMeters>
            <DistanceMeters>NAN</DistanceMeters>
          </Trackpoint>
          <Trackpoint>
            <Time>2021-08-03T04:08:46.000Z</Time>
            <Position>
              <LatitudeDegrees>-15.34295280463993549346923828125</LatitudeDegrees>
              <LongitudeDegrees>37.07803255878388881683349609375</LongitudeDegrees>
            </Position>
            <AltitudeMeters>1426.800048828125</AltitudeMeters>
            <DistanceMeters>NAN</DistanceMeters>
          </Trackpoint>
          <Trackpoint>
            <Time>2021-08-03T04:08:52.000Z</Time>
            <Position>
              <LatitudeDegrees>-15.342981554567813873291015625</LatitudeDegrees>
              <LongitudeDegrees>37.07798729650676250457763671875</LongitudeDegrees>
            </Position>
            <AltitudeMeters>1428</AltitudeMeters>
            <DistanceMeters>NAN</DistanceMeters>
          </Trackpoint>
          <Trackpoint>
            <Time>2021-08-03T04:08:55.000Z</Time>
            <Position>
              <LatitudeDegrees>-15.34299890510737895965576171875</LatitudeDegrees>
              <LongitudeDegrees>37.07796500064432621002197265625</LongitudeDegrees>
            </Position>
            <AltitudeMeters>1428.800048828125</AltitudeMeters>
            <DistanceMeters>NAN</DistanceMeters>
          </Trackpoint>
          <Trackpoint>
            <Time>2021-08-03T04:08:56.000Z</Time>
            <Position>
              <LatitudeDegrees>-15.3430031798779964447021484375</LatitudeDegrees>
              <LongitudeDegrees>37.07795619964599609375</LongitudeDegrees>
            </Position>
            <AltitudeMeters>1429</AltitudeMeters>
            <DistanceMeters>NAN</DistanceMeters>
          </Trackpoint>
          <Trackpoint>
            <Time>2021-08-03T04:09:02.000Z</Time>
            <Position>
              <LatitudeDegrees>-15.34302153624594211578369140625</LatitudeDegrees>
              <LongitudeDegrees>37.0779060758650302886962890625</LongitudeDegrees>
            </Position>
            <AltitudeMeters>1430.4000244140625</AltitudeMeters>
            <DistanceMeters>NAN</DistanceMeters>
          </Trackpoint>
          <Trackpoint>
            <Time>2021-08-03T04:09:05.000Z</Time>
            <Position>
              <LatitudeDegrees>-15.34302639774978160858154296875</LatitudeDegrees>
              <LongitudeDegrees>37.077878750860691070556640625</LongitudeDegrees>
            </Position>
            <AltitudeMeters>1431.199951171875</AltitudeMeters>
            <DistanceMeters>NAN</DistanceMeters>
          </Trackpoint>
          <Trackpoint>
            <Time>2021-08-03T04:09:06.000Z</Time>
            <Position>
              <LatitudeDegrees>-15.343029499053955078125</LatitudeDegrees>
              <LongitudeDegrees>37.07786978222429752349853515625</LongitudeDegrees>
            </Position>
            <AltitudeMeters>1431.4000244140625</AltitudeMeters>
            <DistanceMeters>NAN</DistanceMeters>
          </Trackpoint>
          <Trackpoint>
            <Time>2021-08-03T04:09:12.000Z</Time>
            <Position>
              <LatitudeDegrees>-15.34305573441088199615478515625</LatitudeDegrees>
              <LongitudeDegrees>37.07782946527004241943359375</LongitudeDegrees>
            </Position>
            <AltitudeMeters>1432.800048828125</AltitudeMeters>
            <DistanceMeters>NAN</DistanceMeters>
          </Trackpoint>
          <Trackpoint>
            <Time>2021-08-03T04:09:15.000Z</Time>
            <Position>
              <LatitudeDegrees>-15.3430702351033687591552734375</LatitudeDegrees>
              <LongitudeDegrees>37.07781136035919189453125</LongitudeDegrees>
            </Position>
            <AltitudeMeters>1433.5999755859375</AltitudeMeters>
            <DistanceMeters>NAN</DistanceMeters>
          </Trackpoint>
          <Trackpoint>
            <Time>2021-08-03T04:09:16.000Z</Time>
            <Position>
              <LatitudeDegrees>-15.3430729173123836517333984375</LatitudeDegrees>
              <LongitudeDegrees>37.07780373282730579376220703125</LongitudeDegrees>
            </Position>
            <AltitudeMeters>1434.199951171875</AltitudeMeters>
            <DistanceMeters>NAN</DistanceMeters>
          </Trackpoint>
          <Trackpoint>
            <Time>2021-08-03T04:09:18.000Z</Time>
            <Position>
              <LatitudeDegrees>-15.34307216294109821319580078125</LatitudeDegrees>
              <LongitudeDegrees>37.077782191336154937744140625</LongitudeDegrees>
            </Position>
            <AltitudeMeters>1434.4000244140625</AltitudeMeters>
            <DistanceMeters>NAN</DistanceMeters>
          </Trackpoint>
          <Trackpoint>
            <Time>2021-08-03T04:09:21.000Z</Time>
            <Position>
              <LatitudeDegrees>-15.34307098947465419769287109375</LatitudeDegrees>
              <LongitudeDegrees>37.07776643335819244384765625</LongitudeDegrees>
            </Position>
            <AltitudeMeters>1435.199951171875</AltitudeMeters>
            <DistanceMeters>NAN</DistanceMeters>
          </Trackpoint>
          <Trackpoint>
            <Time>2021-08-03T04:09:23.000Z</Time>
            <Position>
              <LatitudeDegrees>-15.34306503832340240478515625</LatitudeDegrees>
              <LongitudeDegrees>37.07775302231311798095703125</LongitudeDegrees>
            </Position>
            <AltitudeMeters>1436</AltitudeMeters>
            <DistanceMeters>NAN</DistanceMeters>
          </Trackpoint>
          <Trackpoint>
            <Time>2021-08-03T04:09:29.000Z</Time>
            <Position>
              <LatitudeDegrees>-15.34305565059185028076171875</LatitudeDegrees>
              <LongitudeDegrees>37.0777059160172939300537109375</LongitudeDegrees>
            </Position>
            <AltitudeMeters>1436.199951171875</AltitudeMeters>
            <DistanceMeters>NAN</DistanceMeters>
          </Trackpoint>
          <Trackpoint>
            <Time>2021-08-03T04:09:30.000Z</Time>
            <Position>
              <LatitudeDegrees>-15.34305573441088199615478515625</LatitudeDegrees>
              <LongitudeDegrees>37.07769376225769519805908203125</LongitudeDegrees>
            </Position>
            <AltitudeMeters>1436.199951171875</AltitudeMeters>
            <DistanceMeters>NAN</DistanceMeters>
          </Trackpoint>
          <Trackpoint>
            <Time>2021-08-03T04:09:31.000Z</Time>
            <Position>
              <LatitudeDegrees>-15.34305741079151630401611328125</LatitudeDegrees>
              <LongitudeDegrees>37.07768202759325504302978515625</LongitudeDegrees>
            </Position>
            <AltitudeMeters>1436.199951171875</AltitudeMeters>
            <DistanceMeters>NAN</DistanceMeters>
          </Trackpoint>
          <Trackpoint>
            <Time>2021-08-03T04:09:35.000Z</Time>
            <Position>
              <LatitudeDegrees>-15.3430522978305816650390625</LatitudeDegrees>
              <LongitudeDegrees>37.07763927988708019256591796875</LongitudeDegrees>
            </Position>
            <AltitudeMeters>1437.5999755859375</AltitudeMeters>
            <DistanceMeters>NAN</DistanceMeters>
          </Trackpoint>
          <Trackpoint>
            <Time>2021-08-03T04:09:40.000Z</Time>
            <Position>
              <LatitudeDegrees>-15.34304919652640819549560546875</LatitudeDegrees>
              <LongitudeDegrees>37.07759284414350986480712890625</LongitudeDegrees>
            </Position>
            <AltitudeMeters>1438.5999755859375</AltitudeMeters>
            <DistanceMeters>NAN</DistanceMeters>
          </Trackpoint>
          <Trackpoint>
            <Time>2021-08-03T04:09:45.000Z</Time>
            <Position>
              <LatitudeDegrees>-15.34304768778383731842041015625</LatitudeDegrees>
              <LongitudeDegrees>37.07754322327673435211181640625</LongitudeDegrees>
            </Position>
            <AltitudeMeters>1439.5999755859375</AltitudeMeters>
            <DistanceMeters>NAN</DistanceMeters>
          </Trackpoint>
          <Trackpoint>
            <Time>2021-08-03T04:09:48.000Z</Time>
            <Position>
              <LatitudeDegrees>-15.3430424071848392486572265625</LatitudeDegrees>
              <LongitudeDegrees>37.07751086913049221038818359375</LongitudeDegrees>
            </Position>
            <AltitudeMeters>1439.800048828125</AltitudeMeters>
            <DistanceMeters>NAN</DistanceMeters>
          </Trackpoint>
          <Trackpoint>
            <Time>2021-08-03T04:09:52.000Z</Time>
            <Position>
              <LatitudeDegrees>-15.34305204637348651885986328125</LatitudeDegrees>
              <LongitudeDegrees>37.07747851498425006866455078125</LongitudeDegrees>
            </Position>
            <AltitudeMeters>1440.4000244140625</AltitudeMeters>
            <DistanceMeters>NAN</DistanceMeters>
          </Trackpoint>
          <Trackpoint>
            <Time>2021-08-03T04:09:53.000Z</Time>
            <Position>
              <LatitudeDegrees>-15.3430561535060405731201171875</LatitudeDegrees>
              <LongitudeDegrees>37.07747130654752254486083984375</LongitudeDegrees>
            </Position>
            <AltitudeMeters>1441</AltitudeMeters>
            <DistanceMeters>NAN</DistanceMeters>
          </Trackpoint>
          <Trackpoint>
            <Time>2021-08-03T04:09:56.000Z</Time>
            <Position>
              <LatitudeDegrees>-15.343080461025238037109375</LatitudeDegrees>
              <LongitudeDegrees>37.0774571411311626434326171875</LongitudeDegrees>
            </Position>
            <AltitudeMeters>1441.4000244140625</AltitudeMeters>
            <DistanceMeters>NAN</DistanceMeters>
          </Trackpoint>
          <Trackpoint>
            <Time>2021-08-03T04:09:58.000Z</Time>
            <Position>
              <LatitudeDegrees>-15.34308959729969501495361328125</LatitudeDegrees>
              <LongitudeDegrees>37.07743895240128040313720703125</LongitudeDegrees>
            </Position>
            <AltitudeMeters>1442</AltitudeMeters>
            <DistanceMeters>NAN</DistanceMeters>
          </Trackpoint>
          <Trackpoint>
            <Time>2021-08-03T04:10:04.000Z</Time>
            <Position>
              <LatitudeDegrees>-15.34312832169234752655029296875</LatitudeDegrees>
              <LongitudeDegrees>37.07741833291947841644287109375</LongitudeDegrees>
            </Position>
            <AltitudeMeters>1443.199951171875</AltitudeMeters>
            <DistanceMeters>NAN</DistanceMeters>
          </Trackpoint>
          <Trackpoint>
            <Time>2021-08-03T04:10:08.000Z</Time>
            <Position>
              <LatitudeDegrees>-15.34315447323024272918701171875</LatitudeDegrees>
              <LongitudeDegrees>37.07739570178091526031494140625</LongitudeDegrees>
            </Position>
            <AltitudeMeters>1444.199951171875</AltitudeMeters>
            <DistanceMeters>NAN</DistanceMeters>
          </Trackpoint>
          <Trackpoint>
            <Time>2021-08-03T04:10:11.000Z</Time>
            <Position>
              <LatitudeDegrees>-15.3431651182472705841064453125</LatitudeDegrees>
              <LongitudeDegrees>37.07737709395587444305419921875</LongitudeDegrees>
            </Position>
            <AltitudeMeters>1444.800048828125</AltitudeMeters>
            <DistanceMeters>NAN</DistanceMeters>
          </Trackpoint>
          <Trackpoint>
            <Time>2021-08-03T04:10:13.000Z</Time>
            <Position>
              <LatitudeDegrees>-15.343177355825901031494140625</LatitudeDegrees>
              <LongitudeDegrees>37.0773632638156414031982421875</LongitudeDegrees>
            </Position>
            <AltitudeMeters>1445.199951171875</AltitudeMeters>
            <DistanceMeters>NAN</DistanceMeters>
          </Trackpoint>
          <Trackpoint>
            <Time>2021-08-03T04:10:14.000Z</Time>
            <Position>
              <LatitudeDegrees>-15.34318439662456512451171875</LatitudeDegrees>
              <LongitudeDegrees>37.07735613919794559478759765625</LongitudeDegrees>
            </Position>
            <AltitudeMeters>1445.4000244140625</AltitudeMeters>
            <DistanceMeters>NAN</DistanceMeters>
          </Trackpoint>
          <Trackpoint>
            <Time>2021-08-03T04:10:18.000Z</Time>
            <Position>
              <LatitudeDegrees>-15.34320174716413021087646484375</LatitudeDegrees>
              <LongitudeDegrees>37.0773099549114704132080078125</LongitudeDegrees>
            </Position>
            <AltitudeMeters>1446.4000244140625</AltitudeMeters>
            <DistanceMeters>NAN</DistanceMeters>
          </Trackpoint>
          <Trackpoint>
            <Time>2021-08-03T04:10:22.000Z</Time>
            <Position>
              <LatitudeDegrees>-15.34323393367230892181396484375</LatitudeDegrees>
              <LongitudeDegrees>37.07729662768542766571044921875</LongitudeDegrees>
            </Position>
            <AltitudeMeters>1447.4000244140625</AltitudeMeters>
            <DistanceMeters>NAN</DistanceMeters>
          </Trackpoint>
          <Trackpoint>
            <Time>2021-08-03T04:10:24.000Z</Time>
            <Position>
              <LatitudeDegrees>-15.34324600361287593841552734375</LatitudeDegrees>
              <LongitudeDegrees>37.07728229463100433349609375</LongitudeDegrees>
            </Position>
            <AltitudeMeters>1448</AltitudeMeters>
            <DistanceMeters>NAN</DistanceMeters>
          </Trackpoint>
          <Trackpoint>
            <Time>2021-08-03T04:10:27.000Z</Time>
            <Position>
              <LatitudeDegrees>-15.343245752155780792236328125</LatitudeDegrees>
              <LongitudeDegrees>37.07725773565471172332763671875</LongitudeDegrees>
            </Position>
            <AltitudeMeters>1448.4000244140625</AltitudeMeters>
            <DistanceMeters>NAN</DistanceMeters>
          </Trackpoint>
          <Trackpoint>
            <Time>2021-08-03T04:10:30.000Z</Time>
            <Position>
              <LatitudeDegrees>-15.3432378731667995452880859375</LatitudeDegrees>
              <LongitudeDegrees>37.07723275758326053619384765625</LongitudeDegrees>
            </Position>
            <AltitudeMeters>1450</AltitudeMeters>
            <DistanceMeters>NAN</DistanceMeters>
          </Trackpoint>
          <Trackpoint>
            <Time>2021-08-03T04:10:35.000Z</Time>
            <Position>
              <LatitudeDegrees>-15.34325681626796722412109375</LatitudeDegrees>
              <LongitudeDegrees>37.07718682475388050079345703125</LongitudeDegrees>
            </Position>
            <AltitudeMeters>1451.199951171875</AltitudeMeters>
            <DistanceMeters>NAN</DistanceMeters>
          </Trackpoint>
          <Trackpoint>
            <Time>2021-08-03T04:10:38.000Z</Time>
            <Position>
              <LatitudeDegrees>-15.3432848118245601654052734375</LatitudeDegrees>
              <LongitudeDegrees>37.0771755091845989227294921875</LongitudeDegrees>
            </Position>
            <AltitudeMeters>1452.4000244140625</AltitudeMeters>
            <DistanceMeters>NAN</DistanceMeters>
          </Trackpoint>
          <Trackpoint>
            <Time>2021-08-03T04:10:39.000Z</Time>
            <Position>
              <LatitudeDegrees>-15.34329495392739772796630859375</LatitudeDegrees>
              <LongitudeDegrees>37.0771688036620616912841796875</LongitudeDegrees>
            </Position>
            <AltitudeMeters>1452.4000244140625</AltitudeMeters>
            <DistanceMeters>NAN</DistanceMeters>
          </Trackpoint>
          <Trackpoint>
            <Time>2021-08-03T04:10:41.000Z</Time>
            <Position>
              <LatitudeDegrees>-15.34331020899116992950439453125</LatitudeDegrees>
              <LongitudeDegrees>37.077160589396953582763671875</LongitudeDegrees>
            </Position>
            <AltitudeMeters>1453</AltitudeMeters>
            <DistanceMeters>NAN</DistanceMeters>
          </Trackpoint>
          <Trackpoint>
            <Time>2021-08-03T04:10:43.000Z</Time>
            <Position>
              <LatitudeDegrees>-15.3433260507881641387939453125</LatitudeDegrees>
              <LongitudeDegrees>37.0771567337214946746826171875</LongitudeDegrees>
            </Position>
            <AltitudeMeters>1453.4000244140625</AltitudeMeters>
            <DistanceMeters>NAN</DistanceMeters>
          </Trackpoint>
          <Trackpoint>
            <Time>2021-08-03T04:10:48.000Z</Time>
            <Position>
              <LatitudeDegrees>-15.343363098800182342529296875</LatitudeDegrees>
              <LongitudeDegrees>37.07713267765939235687255859375</LongitudeDegrees>
            </Position>
            <AltitudeMeters>1454.5999755859375</AltitudeMeters>
            <DistanceMeters>NAN</DistanceMeters>
          </Trackpoint>
          <Trackpoint>
            <Time>2021-08-03T04:10:49.000Z</Time>
            <Position>
              <LatitudeDegrees>-15.343367792665958404541015625</LatitudeDegrees>
              <LongitudeDegrees>37.07712404429912567138671875</LongitudeDegrees>
            </Position>
            <AltitudeMeters>1455</AltitudeMeters>
            <DistanceMeters>NAN</DistanceMeters>
          </Trackpoint>
          <Trackpoint>
            <Time>2021-08-03T04:10:52.000Z</Time>
            <Position>
              <LatitudeDegrees>-15.3433817066252231597900390625</LatitudeDegrees>
              <LongitudeDegrees>37.07710468210279941558837890625</LongitudeDegrees>
            </Position>
            <AltitudeMeters>1455.5999755859375</AltitudeMeters>
            <DistanceMeters>NAN</DistanceMeters>
          </Trackpoint>
          <Trackpoint>
            <Time>2021-08-03T04:10:56.000Z</Time>
            <Position>
              <LatitudeDegrees>-15.34339855425059795379638671875</LatitudeDegrees>
              <LongitudeDegrees>37.07708104513585567474365234375</LongitudeDegrees>
            </Position>
            <AltitudeMeters>1456.5999755859375</AltitudeMeters>
            <DistanceMeters>NAN</DistanceMeters>
          </Trackpoint>
          <Trackpoint>
            <Time>2021-08-03T04:10:58.000Z</Time>
            <Position>
              <LatitudeDegrees>-15.34340894781053066253662109375</LatitudeDegrees>
              <LongitudeDegrees>37.07706545479595661163330078125</LongitudeDegrees>
            </Position>
            <AltitudeMeters>1457.199951171875</AltitudeMeters>
            <DistanceMeters>NAN</DistanceMeters>
          </Trackpoint>
          <Trackpoint>
            <Time>2021-08-03T04:11:01.000Z</Time>
            <Position>
              <LatitudeDegrees>-15.343418419361114501953125</LatitudeDegrees>
              <LongitudeDegrees>37.07704064436256885528564453125</LongitudeDegrees>
            </Position>
            <AltitudeMeters>1457.800048828125</AltitudeMeters>
            <DistanceMeters>NAN</DistanceMeters>
          </Trackpoint>
          <Trackpoint>
            <Time>2021-08-03T04:11:03.000Z</Time>
            <Position>
              <LatitudeDegrees>-15.34342587925493717193603515625</LatitudeDegrees>
              <LongitudeDegrees>37.0770269818603992462158203125</LongitudeDegrees>
            </Position>
            <AltitudeMeters>1458.5999755859375</AltitudeMeters>
            <DistanceMeters>NAN</DistanceMeters>
          </Trackpoint>
          <Trackpoint>
            <Time>2021-08-03T04:11:05.000Z</Time>
            <Position>
              <LatitudeDegrees>-15.34343107603490352630615234375</LatitudeDegrees>
              <LongitudeDegrees>37.07701549865305423736572265625</LongitudeDegrees>
            </Position>
            <AltitudeMeters>1459.199951171875</AltitudeMeters>
            <DistanceMeters>NAN</DistanceMeters>
          </Trackpoint>
          <Trackpoint>
            <Time>2021-08-03T04:11:11.000Z</Time>
            <Position>
              <LatitudeDegrees>-15.34345454536378383636474609375</LatitudeDegrees>
              <LongitudeDegrees>37.07698322832584381103515625</LongitudeDegrees>
            </Position>
            <AltitudeMeters>1460.5999755859375</AltitudeMeters>
            <DistanceMeters>NAN</DistanceMeters>
          </Trackpoint>
          <Trackpoint>
            <Time>2021-08-03T04:11:14.000Z</Time>
            <Position>
              <LatitudeDegrees>-15.34346862696111202239990234375</LatitudeDegrees>
              <LongitudeDegrees>37.07696101628243923187255859375</LongitudeDegrees>
            </Position>
            <AltitudeMeters>1461.5999755859375</AltitudeMeters>
            <DistanceMeters>NAN</DistanceMeters>
          </Trackpoint>
          <Trackpoint>
            <Time>2021-08-03T04:11:15.000Z</Time>
            <Position>
              <LatitudeDegrees>-15.343475751578807830810546875</LatitudeDegrees>
              <LongitudeDegrees>37.07695498131215572357177734375</LongitudeDegrees>
            </Position>
            <AltitudeMeters>1461.800048828125</AltitudeMeters>
            <DistanceMeters>NAN</DistanceMeters>
          </Trackpoint>
          <Trackpoint>
            <Time>2021-08-03T04:11:19.000Z</Time>
            <Position>
              <LatitudeDegrees>-15.34349461086094379425048828125</LatitudeDegrees>
              <LongitudeDegrees>37.07692681811749935150146484375</LongitudeDegrees>
            </Position>
            <AltitudeMeters>1463</AltitudeMeters>
            <DistanceMeters>NAN</DistanceMeters>
          </Trackpoint>
          <Trackpoint>
            <Time>2021-08-03T04:11:24.000Z</Time>
            <Position>
              <LatitudeDegrees>-15.34352445043623447418212890625</LatitudeDegrees>
              <LongitudeDegrees>37.0768995769321918487548828125</LongitudeDegrees>
            </Position>
            <AltitudeMeters>1464.4000244140625</AltitudeMeters>
            <DistanceMeters>NAN</DistanceMeters>
          </Trackpoint>
          <Trackpoint>
            <Time>2021-08-03T04:11:27.000Z</Time>
            <Position>
              <LatitudeDegrees>-15.34354222007095813751220703125</LatitudeDegrees>
              <LongitudeDegrees>37.076878957450389862060546875</LongitudeDegrees>
            </Position>
            <AltitudeMeters>1465</AltitudeMeters>
            <DistanceMeters>NAN</DistanceMeters>
          </Trackpoint>
          <Trackpoint>
            <Time>2021-08-03T04:11:28.000Z</Time>
            <Position>
              <LatitudeDegrees>-15.3435459919273853302001953125</LatitudeDegrees>
              <LongitudeDegrees>37.07687099464237689971923828125</LongitudeDegrees>
            </Position>
            <AltitudeMeters>1465.5999755859375</AltitudeMeters>
            <DistanceMeters>NAN</DistanceMeters>
          </Trackpoint>
          <Trackpoint>
            <Time>2021-08-03T04:11:32.000Z</Time>
            <Position>
              <LatitudeDegrees>-15.34357306547462940216064453125</LatitudeDegrees>
              <LongitudeDegrees>37.076852805912494659423828125</LongitudeDegrees>
            </Position>
            <AltitudeMeters>1466.5999755859375</AltitudeMeters>
            <DistanceMeters>NAN</DistanceMeters>
          </Trackpoint>
          <Trackpoint>
            <Time>2021-08-03T04:11:36.000Z</Time>
            <Position>
              <LatitudeDegrees>-15.34360039047896862030029296875</LatitudeDegrees>
              <LongitudeDegrees>37.07682573236525058746337890625</LongitudeDegrees>
            </Position>
            <AltitudeMeters>1468</AltitudeMeters>
            <DistanceMeters>NAN</DistanceMeters>
          </Trackpoint>
          <Trackpoint>
            <Time>2021-08-03T04:11:38.000Z</Time>
            <Position>
              <LatitudeDegrees>-15.34360961057245731353759765625</LatitudeDegrees>
              <LongitudeDegrees>37.07681517116725444793701171875</LongitudeDegrees>
            </Position>
            <AltitudeMeters>1468.199951171875</AltitudeMeters>
            <DistanceMeters>NAN</DistanceMeters>
          </Trackpoint>
          <Trackpoint>
            <Time>2021-08-03T04:11:40.000Z</Time>
            <Position>
              <LatitudeDegrees>-15.34362168051302433013916015625</LatitudeDegrees>
              <LongitudeDegrees>37.07680528052151203155517578125</LongitudeDegrees>
            </Position>
            <AltitudeMeters>1469.199951171875</AltitudeMeters>
            <DistanceMeters>NAN</DistanceMeters>
          </Trackpoint>
          <Trackpoint>
            <Time>2021-08-03T04:11:44.000Z</Time>
            <Position>
              <LatitudeDegrees>-15.34364716149866580963134765625</LatitudeDegrees>
              <LongitudeDegrees>37.07678264938294887542724609375</LongitudeDegrees>
            </Position>
            <AltitudeMeters>1470.4000244140625</AltitudeMeters>
            <DistanceMeters>NAN</DistanceMeters>
          </Trackpoint>
          <Trackpoint>
            <Time>2021-08-03T04:11:46.000Z</Time>
            <Position>
              <LatitudeDegrees>-15.34365780651569366455078125</LatitudeDegrees>
              <LongitudeDegrees>37.0767654664814472198486328125</LongitudeDegrees>
            </Position>
            <AltitudeMeters>1470.800048828125</AltitudeMeters>
            <DistanceMeters>NAN</DistanceMeters>
          </Trackpoint>
          <Trackpoint>
            <Time>2021-08-03T04:11:49.000Z</Time>
            <Position>
              <LatitudeDegrees>-15.34367633052170276641845703125</LatitudeDegrees>
              <LongitudeDegrees>37.07674794830381870269775390625</LongitudeDegrees>
            </Position>
            <AltitudeMeters>1471.5999755859375</AltitudeMeters>
            <DistanceMeters>NAN</DistanceMeters>
          </Trackpoint>
          <Trackpoint>
            <Time>2021-08-03T04:11:54.000Z</Time>
            <Position>
              <LatitudeDegrees>-15.34369996748864650726318359375</LatitudeDegrees>
              <LongitudeDegrees>37.0767129957675933837890625</LongitudeDegrees>
            </Position>
            <AltitudeMeters>1473</AltitudeMeters>
            <DistanceMeters>NAN</DistanceMeters>
          </Trackpoint>
          <Trackpoint>
            <Time>2021-08-03T04:11:57.000Z</Time>
            <Position>
              <LatitudeDegrees>-15.34371002577245235443115234375</LatitudeDegrees>
              <LongitudeDegrees>37.07668692804872989654541015625</LongitudeDegrees>
            </Position>
            <AltitudeMeters>1474</AltitudeMeters>
            <DistanceMeters>NAN</DistanceMeters>
          </Trackpoint>
          <Trackpoint>
            <Time>2021-08-03T04:11:58.000Z</Time>
            <Position>
              <LatitudeDegrees>-15.34371145069599151611328125</LatitudeDegrees>
              <LongitudeDegrees>37.07668072544038295745849609375</LongitudeDegrees>
            </Position>
            <AltitudeMeters>1474.199951171875</AltitudeMeters>
            <DistanceMeters>NAN</DistanceMeters>
          </Trackpoint>
          <Trackpoint>
            <Time>2021-08-03T04:12:01.000Z</Time>
            <Position>
              <LatitudeDegrees>-15.34371639601886272430419921875</LatitudeDegrees>
              <LongitudeDegrees>37.07666563801467418670654296875</LongitudeDegrees>
            </Position>
            <AltitudeMeters>1474.5999755859375</AltitudeMeters>
            <DistanceMeters>NAN</DistanceMeters>
          </Trackpoint>
          <Trackpoint>
            <Time>2021-08-03T04:12:02.000Z</Time>
            <Position>
              <LatitudeDegrees>-15.3437210060656070709228515625</LatitudeDegrees>
              <LongitudeDegrees>37.0766620337963104248046875</LongitudeDegrees>
            </Position>
            <AltitudeMeters>1475.4000244140625</AltitudeMeters>
            <DistanceMeters>NAN</DistanceMeters>
          </Trackpoint>
          <Trackpoint>
            <Time>2021-08-03T04:12:03.000Z</Time>
            <Position>
              <LatitudeDegrees>-15.3437260352075099945068359375</LatitudeDegrees>
              <LongitudeDegrees>37.07665960304439067840576171875</LongitudeDegrees>
            </Position>
            <AltitudeMeters>1475.4000244140625</AltitudeMeters>
            <DistanceMeters>NAN</DistanceMeters>
          </Trackpoint>
          <Trackpoint>
            <Time>2021-08-03T04:12:09.000Z</Time>
            <Position>
              <LatitudeDegrees>-15.3437515161931514739990234375</LatitudeDegrees>
              <LongitudeDegrees>37.07663445733487606048583984375</LongitudeDegrees>
            </Position>
            <AltitudeMeters>1476.4000244140625</AltitudeMeters>
            <DistanceMeters>NAN</DistanceMeters>
          </Trackpoint>
          <Trackpoint>
            <Time>2021-08-03T04:12:13.000Z</Time>
            <Position>
              <LatitudeDegrees>-15.3437729738652706146240234375</LatitudeDegrees>
              <LongitudeDegrees>37.07661501131951808929443359375</LongitudeDegrees>
            </Position>
            <AltitudeMeters>1477</AltitudeMeters>
            <DistanceMeters>NAN</DistanceMeters>
          </Trackpoint>
          <Trackpoint>
            <Time>2021-08-03T04:12:14.000Z</Time>
            <Position>
              <LatitudeDegrees>-15.34377858974039554595947265625</LatitudeDegrees>
              <LongitudeDegrees>37.0766092278063297271728515625</LongitudeDegrees>
            </Position>
            <AltitudeMeters>1477.4000244140625</AltitudeMeters>
            <DistanceMeters>NAN</DistanceMeters>
          </Trackpoint>
          <Trackpoint>
            <Time>2021-08-03T04:12:19.000Z</Time>
            <Position>
              <LatitudeDegrees>-15.34380122087895870208740234375</LatitudeDegrees>
              <LongitudeDegrees>37.07659606821835041046142578125</LongitudeDegrees>
            </Position>
            <AltitudeMeters>1478.800048828125</AltitudeMeters>
            <DistanceMeters>NAN</DistanceMeters>
          </Trackpoint>
          <Trackpoint>
            <Time>2021-08-03T04:12:22.000Z</Time>
            <Position>
              <LatitudeDegrees>-15.34380189143121242523193359375</LatitudeDegrees>
              <LongitudeDegrees>37.076604031026363372802734375</LongitudeDegrees>
            </Position>
            <AltitudeMeters>1478.800048828125</AltitudeMeters>
            <DistanceMeters>NAN</DistanceMeters>
          </Trackpoint>
          <Trackpoint>
            <Time>2021-08-03T04:12:30.000Z</Time>
            <Position>
              <LatitudeDegrees>-15.3438105247914791107177734375</LatitudeDegrees>
              <LongitudeDegrees>37.07662473432719707489013671875</LongitudeDegrees>
            </Position>
            <AltitudeMeters>1478.800048828125</AltitudeMeters>
            <DistanceMeters>NAN</DistanceMeters>
          </Trackpoint>
          <Trackpoint>
            <Time>2021-08-03T04:12:36.000Z</Time>
            <Position>
              <LatitudeDegrees>-15.3438329882919788360595703125</LatitudeDegrees>
              <LongitudeDegrees>37.0765817351639270782470703125</LongitudeDegrees>
            </Position>
            <AltitudeMeters>1480</AltitudeMeters>
            <DistanceMeters>NAN</DistanceMeters>
          </Trackpoint>
          <Trackpoint>
            <Time>2021-08-03T04:12:40.000Z</Time>
            <Position>
              <LatitudeDegrees>-15.34385587088763713836669921875</LatitudeDegrees>
              <LongitudeDegrees>37.07655851729214191436767578125</LongitudeDegrees>
            </Position>
            <AltitudeMeters>1481</AltitudeMeters>
            <DistanceMeters>NAN</DistanceMeters>
          </Trackpoint>
          <Trackpoint>
            <Time>2021-08-03T04:12:41.000Z</Time>
            <Position>
              <LatitudeDegrees>-15.3438648395240306854248046875</LatitudeDegrees>
              <LongitudeDegrees>37.07655541598796844482421875</LongitudeDegrees>
            </Position>
            <AltitudeMeters>1481</AltitudeMeters>
            <DistanceMeters>NAN</DistanceMeters>
          </Trackpoint>
          <Trackpoint>
            <Time>2021-08-03T04:12:45.000Z</Time>
            <Position>
              <LatitudeDegrees>-15.34389174543321132659912109375</LatitudeDegrees>
              <LongitudeDegrees>37.07653622142970561981201171875</LongitudeDegrees>
            </Position>
            <AltitudeMeters>1482.199951171875</AltitudeMeters>
            <DistanceMeters>NAN</DistanceMeters>
          </Trackpoint>
          <Trackpoint>
            <Time>2021-08-03T04:12:48.000Z</Time>
            <Position>
              <LatitudeDegrees>-15.343910269439220428466796875</LatitudeDegrees>
              <LongitudeDegrees>37.07652767188847064971923828125</LongitudeDegrees>
            </Position>
            <AltitudeMeters>1483.199951171875</AltitudeMeters>
            <DistanceMeters>NAN</DistanceMeters>
          </Trackpoint>
          <Trackpoint>
            <Time>2021-08-03T04:12:50.000Z</Time>
            <Position>
              <LatitudeDegrees>-15.34392242319881916046142578125</LatitudeDegrees>
              <LongitudeDegrees>37.0765287615358829498291015625</LongitudeDegrees>
            </Position>
            <AltitudeMeters>1484</AltitudeMeters>
            <DistanceMeters>NAN</DistanceMeters>
          </Trackpoint>
          <Trackpoint>
            <Time>2021-08-03T04:12:52.000Z</Time>
            <Position>
              <LatitudeDegrees>-15.34393046982586383819580078125</LatitudeDegrees>
              <LongitudeDegrees>37.07652247510850429534912109375</LongitudeDegrees>
            </Position>
            <AltitudeMeters>1484.4000244140625</AltitudeMeters>
            <DistanceMeters>NAN</DistanceMeters>
          </Trackpoint>
          <Trackpoint>
            <Time>2021-08-03T04:12:55.000Z</Time>
            <Position>
              <LatitudeDegrees>-15.34394673071801662445068359375</LatitudeDegrees>
              <LongitudeDegrees>37.076513506472110748291015625</LongitudeDegrees>
            </Position>
            <AltitudeMeters>1484.800048828125</AltitudeMeters>
            <DistanceMeters>NAN</DistanceMeters>
          </Trackpoint>
          <Trackpoint>
            <Time>2021-08-03T04:12:56.000Z</Time>
            <Position>
              <LatitudeDegrees>-15.34395326860249042510986328125</LatitudeDegrees>
              <LongitudeDegrees>37.076508142054080963134765625</LongitudeDegrees>
            </Position>
            <AltitudeMeters>1485.199951171875</AltitudeMeters>
            <DistanceMeters>NAN</DistanceMeters>
          </Trackpoint>
          <Trackpoint>
            <Time>2021-08-03T04:12:57.000Z</Time>
            <Position>
              <LatitudeDegrees>-15.343959219753742218017578125</LatitudeDegrees>
              <LongitudeDegrees>37.0765019394457340240478515625</LongitudeDegrees>
            </Position>
            <AltitudeMeters>1485.4000244140625</AltitudeMeters>
            <DistanceMeters>NAN</DistanceMeters>
          </Trackpoint>
          <Trackpoint>
            <Time>2021-08-03T04:13:02.000Z</Time>
            <Position>
              <LatitudeDegrees>-15.343994759023189544677734375</LatitudeDegrees>
              <LongitudeDegrees>37.07648978568613529205322265625</LongitudeDegrees>
            </Position>
            <AltitudeMeters>1486.800048828125</AltitudeMeters>
            <DistanceMeters>NAN</DistanceMeters>
          </Trackpoint>
          <Trackpoint>
            <Time>2021-08-03T04:13:06.000Z</Time>
            <Position>
              <LatitudeDegrees>-15.34402300603687763214111328125</LatitudeDegrees>
              <LongitudeDegrees>37.0764848403632640838623046875</LongitudeDegrees>
            </Position>
            <AltitudeMeters>1487.800048828125</AltitudeMeters>
            <DistanceMeters>NAN</DistanceMeters>
          </Trackpoint>
          <Trackpoint>
            <Time>2021-08-03T04:13:07.000Z</Time>
            <Position>
              <LatitudeDegrees>-15.3440339863300323486328125</LatitudeDegrees>
              <LongitudeDegrees>37.07648877985775470733642578125</LongitudeDegrees>
            </Position>
            <AltitudeMeters>1488.199951171875</AltitudeMeters>
            <DistanceMeters>NAN</DistanceMeters>
          </Trackpoint>
          <Trackpoint>
            <Time>2021-08-03T04:13:09.000Z</Time>
            <Position>
              <LatitudeDegrees>-15.34404882229864597320556640625</LatitudeDegrees>
              <LongitudeDegrees>37.0764865167438983917236328125</LongitudeDegrees>
            </Position>
            <AltitudeMeters>1488.5999755859375</AltitudeMeters>
            <DistanceMeters>NAN</DistanceMeters>
          </Trackpoint>
          <Trackpoint>
            <Time>2021-08-03T04:13:11.000Z</Time>
            <Position>
              <LatitudeDegrees>-15.3440633229911327362060546875</LatitudeDegrees>
              <LongitudeDegrees>37.076480649411678314208984375</LongitudeDegrees>
            </Position>
            <AltitudeMeters>1489.4000244140625</AltitudeMeters>
            <DistanceMeters>NAN</DistanceMeters>
          </Trackpoint>
          <Trackpoint>
            <Time>2021-08-03T04:13:14.000Z</Time>
            <Position>
              <LatitudeDegrees>-15.3440822660923004150390625</LatitudeDegrees>
              <LongitudeDegrees>37.07646547816693782806396484375</LongitudeDegrees>
            </Position>
            <AltitudeMeters>1490</AltitudeMeters>
            <DistanceMeters>NAN</DistanceMeters>
          </Trackpoint>
          <Trackpoint>
            <Time>2021-08-03T04:13:15.000Z</Time>
            <Position>
              <LatitudeDegrees>-15.3440876305103302001953125</LatitudeDegrees>
              <LongitudeDegrees>37.07646296359598636627197265625</LongitudeDegrees>
            </Position>
            <AltitudeMeters>1490.4000244140625</AltitudeMeters>
            <DistanceMeters>NAN</DistanceMeters>
          </Trackpoint>
          <Trackpoint>
            <Time>2021-08-03T04:13:16.000Z</Time>
            <Position>
              <LatitudeDegrees>-15.3440951742231845855712890625</LatitudeDegrees>
              <LongitudeDegrees>37.076464556157588958740234375</LongitudeDegrees>
            </Position>
            <AltitudeMeters>1490.800048828125</AltitudeMeters>
            <DistanceMeters>NAN</DistanceMeters>
          </Trackpoint>
          <Trackpoint>
            <Time>2021-08-03T04:13:21.000Z</Time>
            <Position>
              <LatitudeDegrees>-15.34412073902785778045654296875</LatitudeDegrees>
              <LongitudeDegrees>37.07645927555859088897705078125</LongitudeDegrees>
            </Position>
            <AltitudeMeters>1492</AltitudeMeters>
            <DistanceMeters>NAN</DistanceMeters>
          </Trackpoint>
          <Trackpoint>
            <Time>2021-08-03T04:13:24.000Z</Time>
            <Position>
              <LatitudeDegrees>-15.3441411070525646209716796875</LatitudeDegrees>
              <LongitudeDegrees>37.0764526538550853729248046875</LongitudeDegrees>
            </Position>
            <AltitudeMeters>1492.5999755859375</AltitudeMeters>
            <DistanceMeters>NAN</DistanceMeters>
          </Trackpoint>
          <Trackpoint>
            <Time>2021-08-03T04:13:25.000Z</Time>
            <Position>
              <LatitudeDegrees>-15.34414873458445072174072265625</LatitudeDegrees>
              <LongitudeDegrees>37.07645240239799022674560546875</LongitudeDegrees>
            </Position>
            <AltitudeMeters>1493.5999755859375</AltitudeMeters>
            <DistanceMeters>NAN</DistanceMeters>
          </Trackpoint>
          <Trackpoint>
            <Time>2021-08-03T04:13:29.000Z</Time>
            <Position>
              <LatitudeDegrees>-15.3441887162625789642333984375</LatitudeDegrees>
              <LongitudeDegrees>37.07645039074122905731201171875</LongitudeDegrees>
            </Position>
            <AltitudeMeters>1494.4000244140625</AltitudeMeters>
            <DistanceMeters>NAN</DistanceMeters>
          </Trackpoint>
          <Trackpoint>
            <Time>2021-08-03T04:13:30.000Z</Time>
            <Position>
              <LatitudeDegrees>-15.3441964276134967803955078125</LatitudeDegrees>
              <LongitudeDegrees>37.076454497873783111572265625</LongitudeDegrees>
            </Position>
            <AltitudeMeters>1494.800048828125</AltitudeMeters>
            <DistanceMeters>NAN</DistanceMeters>
          </Trackpoint>
          <Trackpoint>
            <Time>2021-08-03T04:13:31.000Z</Time>
            <Position>
              <LatitudeDegrees>-15.344206653535366058349609375</LatitudeDegrees>
              <LongitudeDegrees>37.0764583535492420196533203125</LongitudeDegrees>
            </Position>
            <AltitudeMeters>1495.199951171875</AltitudeMeters>
            <DistanceMeters>NAN</DistanceMeters>
          </Trackpoint>
          <Trackpoint>
            <Time>2021-08-03T04:13:32.000Z</Time>
            <Position>
              <LatitudeDegrees>-15.34421595744788646697998046875</LatitudeDegrees>
              <LongitudeDegrees>37.0764620415866374969482421875</LongitudeDegrees>
            </Position>
            <AltitudeMeters>1495.199951171875</AltitudeMeters>
            <DistanceMeters>NAN</DistanceMeters>
          </Trackpoint>
          <Trackpoint>
            <Time>2021-08-03T04:13:37.000Z</Time>
            <Position>
              <LatitudeDegrees>-15.34424227662384510040283203125</LatitudeDegrees>
              <LongitudeDegrees>37.076458521187305450439453125</LongitudeDegrees>
            </Position>
            <AltitudeMeters>1496.4000244140625</AltitudeMeters>
            <DistanceMeters>NAN</DistanceMeters>
          </Trackpoint>
          <Trackpoint>
            <Time>2021-08-03T04:13:38.000Z</Time>
            <Position>
              <LatitudeDegrees>-15.34425602294504642486572265625</LatitudeDegrees>
              <LongitudeDegrees>37.07647386007010936737060546875</LongitudeDegrees>
            </Position>
            <AltitudeMeters>1496.5999755859375</AltitudeMeters>
            <DistanceMeters>NAN</DistanceMeters>
          </Trackpoint>
          <Trackpoint>
            <Time>2021-08-03T04:13:41.000Z</Time>
            <Position>
              <LatitudeDegrees>-15.3442695178091526031494140625</LatitudeDegrees>
              <LongitudeDegrees>37.07646413706243038177490234375</LongitudeDegrees>
            </Position>
            <AltitudeMeters>1497.5999755859375</AltitudeMeters>
            <DistanceMeters>NAN</DistanceMeters>
          </Trackpoint>
          <Trackpoint>
            <Time>2021-08-03T04:13:44.000Z</Time>
            <Position>
              <LatitudeDegrees>-15.34428586252033710479736328125</LatitudeDegrees>
              <LongitudeDegrees>37.07646598108112812042236328125</LongitudeDegrees>
            </Position>
            <AltitudeMeters>1498.4000244140625</AltitudeMeters>
            <DistanceMeters>NAN</DistanceMeters>
          </Trackpoint>
          <Trackpoint>
            <Time>2021-08-03T04:13:45.000Z</Time>
            <Position>
              <LatitudeDegrees>-15.34428820945322513580322265625</LatitudeDegrees>
              <LongitudeDegrees>37.07645793445408344268798828125</LongitudeDegrees>
            </Position>
            <AltitudeMeters>1498.5999755859375</AltitudeMeters>
            <DistanceMeters>NAN</DistanceMeters>
          </Trackpoint>
          <Trackpoint>
            <Time>2021-08-03T04:13:50.000Z</Time>
            <Position>
              <LatitudeDegrees>-15.34432433545589447021484375</LatitudeDegrees>
              <LongitudeDegrees>37.07644670270383358001708984375</LongitudeDegrees>
            </Position>
            <AltitudeMeters>1500</AltitudeMeters>
            <DistanceMeters>NAN</DistanceMeters>
          </Trackpoint>
          <Trackpoint>
            <Time>2021-08-03T04:13:52.000Z</Time>
            <Position>
              <LatitudeDegrees>-15.34433581866323947906494140625</LatitudeDegrees>
              <LongitudeDegrees>37.0764422602951526641845703125</LongitudeDegrees>
            </Position>
            <AltitudeMeters>1500.199951171875</AltitudeMeters>
            <DistanceMeters>NAN</DistanceMeters>
          </Trackpoint>
          <Trackpoint>
            <Time>2021-08-03T04:13:55.000Z</Time>
            <Position>
              <LatitudeDegrees>-15.3443600423634052276611328125</LatitudeDegrees>
              <LongitudeDegrees>37.0764395780861377716064453125</LongitudeDegrees>
            </Position>
            <AltitudeMeters>1501.199951171875</AltitudeMeters>
            <DistanceMeters>NAN</DistanceMeters>
          </Trackpoint>
          <Trackpoint>
            <Time>2021-08-03T04:13:59.000Z</Time>
            <Position>
              <LatitudeDegrees>-15.3443815000355243682861328125</LatitudeDegrees>
              <LongitudeDegrees>37.07644678652286529541015625</LongitudeDegrees>
            </Position>
            <AltitudeMeters>1502.4000244140625</AltitudeMeters>
            <DistanceMeters>NAN</DistanceMeters>
          </Trackpoint>
          <Trackpoint>
            <Time>2021-08-03T04:14:01.000Z</Time>
            <Position>
              <LatitudeDegrees>-15.34439113922417163848876953125</LatitudeDegrees>
              <LongitudeDegrees>37.0764519833028316497802734375</LongitudeDegrees>
            </Position>
            <AltitudeMeters>1502.800048828125</AltitudeMeters>
            <DistanceMeters>NAN</DistanceMeters>
          </Trackpoint>
          <Trackpoint>
            <Time>2021-08-03T04:14:04.000Z</Time>
            <Position>
              <LatitudeDegrees>-15.34441477619111537933349609375</LatitudeDegrees>
              <LongitudeDegrees>37.07645525224506855010986328125</LongitudeDegrees>
            </Position>
            <AltitudeMeters>1503.5999755859375</AltitudeMeters>
            <DistanceMeters>NAN</DistanceMeters>
          </Trackpoint>
          <Trackpoint>
            <Time>2021-08-03T04:14:07.000Z</Time>
            <Position>
              <LatitudeDegrees>-15.3444361500442028045654296875</LatitudeDegrees>
              <LongitudeDegrees>37.07645944319665431976318359375</LongitudeDegrees>
            </Position>
            <AltitudeMeters>1504.199951171875</AltitudeMeters>
            <DistanceMeters>NAN</DistanceMeters>
          </Trackpoint>
          <Trackpoint>
            <Time>2021-08-03T04:14:08.000Z</Time>
            <Position>
              <LatitudeDegrees>-15.344442687928676605224609375</LatitudeDegrees>
              <LongitudeDegrees>37.07645860500633716583251953125</LongitudeDegrees>
            </Position>
            <AltitudeMeters>1504.199951171875</AltitudeMeters>
            <DistanceMeters>NAN</DistanceMeters>
          </Trackpoint>
          <Trackpoint>
            <Time>2021-08-03T04:14:10.000Z</Time>
            <Position>
              <LatitudeDegrees>-15.3444564342498779296875</LatitudeDegrees>
              <LongitudeDegrees>37.07645709626376628875732421875</LongitudeDegrees>
            </Position>
            <AltitudeMeters>1504.800048828125</AltitudeMeters>
            <DistanceMeters>NAN</DistanceMeters>
          </Trackpoint>
          <Trackpoint>
            <Time>2021-08-03T04:14:14.000Z</Time>
            <Position>
              <LatitudeDegrees>-15.344479568302631378173828125</LatitudeDegrees>
              <LongitudeDegrees>37.0764533244073390960693359375</LongitudeDegrees>
            </Position>
            <AltitudeMeters>1506</AltitudeMeters>
            <DistanceMeters>NAN</DistanceMeters>
          </Trackpoint>
          <Trackpoint>
            <Time>2021-08-03T04:14:18.000Z</Time>
            <Position>
              <LatitudeDegrees>-15.3445033729076385498046875</LatitudeDegrees>
              <LongitudeDegrees>37.076437063515186309814453125</LongitudeDegrees>
            </Position>
            <AltitudeMeters>1507</AltitudeMeters>
            <DistanceMeters>NAN</DistanceMeters>
          </Trackpoint>
          <Trackpoint>
            <Time>2021-08-03T04:14:21.000Z</Time>
            <Position>
              <LatitudeDegrees>-15.3445249982178211212158203125</LatitudeDegrees>
              <LongitudeDegrees>37.0764399133622646331787109375</LongitudeDegrees>
            </Position>
            <AltitudeMeters>1508.199951171875</AltitudeMeters>
            <DistanceMeters>NAN</DistanceMeters>
          </Trackpoint>
          <Trackpoint>
            <Time>2021-08-03T04:14:26.000Z</Time>
            <Position>
              <LatitudeDegrees>-15.3445632196962833404541015625</LatitudeDegrees>
              <LongitudeDegrees>37.07643530331552028656005859375</LongitudeDegrees>
            </Position>
            <AltitudeMeters>1509.4000244140625</AltitudeMeters>
            <DistanceMeters>NAN</DistanceMeters>
          </Trackpoint>
          <Trackpoint>
            <Time>2021-08-03T04:14:30.000Z</Time>
            <Position>
              <LatitudeDegrees>-15.3445903770625591278076171875</LatitudeDegrees>
              <LongitudeDegrees>37.07641786895692348480224609375</LongitudeDegrees>
            </Position>
            <AltitudeMeters>1511</AltitudeMeters>
            <DistanceMeters>NAN</DistanceMeters>
          </Trackpoint>
          <Trackpoint>
            <Time>2021-08-03T04:14:35.000Z</Time>
            <Position>
              <LatitudeDegrees>-15.34461627714335918426513671875</LatitudeDegrees>
              <LongitudeDegrees>37.076399512588977813720703125</LongitudeDegrees>
            </Position>
            <AltitudeMeters>1512</AltitudeMeters>
            <DistanceMeters>NAN</DistanceMeters>
          </Trackpoint>
          <Trackpoint>
            <Time>2021-08-03T04:14:37.000Z</Time>
            <Position>
              <LatitudeDegrees>-15.3446339629590511322021484375</LatitudeDegrees>
              <LongitudeDegrees>37.07639984786510467529296875</LongitudeDegrees>
            </Position>
            <AltitudeMeters>1512.4000244140625</AltitudeMeters>
            <DistanceMeters>NAN</DistanceMeters>
          </Trackpoint>
          <Trackpoint>
            <Time>2021-08-03T04:14:39.000Z</Time>
            <Position>
              <LatitudeDegrees>-15.3446477092802524566650390625</LatitudeDegrees>
              <LongitudeDegrees>37.0763939805328845977783203125</LongitudeDegrees>
            </Position>
            <AltitudeMeters>1513.199951171875</AltitudeMeters>
            <DistanceMeters>NAN</DistanceMeters>
          </Trackpoint>
          <Trackpoint>
            <Time>2021-08-03T04:14:42.000Z</Time>
            <Position>
              <LatitudeDegrees>-15.344669334590435028076171875</LatitudeDegrees>
              <LongitudeDegrees>37.0763892866671085357666015625</LongitudeDegrees>
            </Position>
            <AltitudeMeters>1514.4000244140625</AltitudeMeters>
            <DistanceMeters>NAN</DistanceMeters>
          </Trackpoint>
          <Trackpoint>
            <Time>2021-08-03T04:14:45.000Z</Time>
            <Position>
              <LatitudeDegrees>-15.344693474471569061279296875</LatitudeDegrees>
              <LongitudeDegrees>37.07638015039265155792236328125</LongitudeDegrees>
            </Position>
            <AltitudeMeters>1515.199951171875</AltitudeMeters>
            <DistanceMeters>NAN</DistanceMeters>
          </Trackpoint>
          <Trackpoint>
            <Time>2021-08-03T04:14:46.000Z</Time>
            <Position>
              <LatitudeDegrees>-15.34470009617507457733154296875</LatitudeDegrees>
              <LongitudeDegrees>37.0763790607452392578125</LongitudeDegrees>
            </Position>
            <AltitudeMeters>1515.4000244140625</AltitudeMeters>
            <DistanceMeters>NAN</DistanceMeters>
          </Trackpoint>
          <Trackpoint>
            <Time>2021-08-03T04:14:48.000Z</Time>
            <Position>
              <LatitudeDegrees>-15.3447094000875949859619140625</LatitudeDegrees>
              <LongitudeDegrees>37.0763785578310489654541015625</LongitudeDegrees>
            </Position>
            <AltitudeMeters>1516.5999755859375</AltitudeMeters>
            <DistanceMeters>NAN</DistanceMeters>
          </Trackpoint>
          <Trackpoint>
            <Time>2021-08-03T04:14:51.000Z</Time>
            <Position>
              <LatitudeDegrees>-15.3447107411921024322509765625</LatitudeDegrees>
              <LongitudeDegrees>37.0763812400400638580322265625</LongitudeDegrees>
            </Position>
            <AltitudeMeters>1517</AltitudeMeters>
            <DistanceMeters>NAN</DistanceMeters>
          </Trackpoint>
          <Trackpoint>
            <Time>2021-08-03T04:15:09.000Z</Time>
            <Position>
              <LatitudeDegrees>-15.34471116028726100921630859375</LatitudeDegrees>
              <LongitudeDegrees>37.076391465961933135986328125</LongitudeDegrees>
            </Position>
            <AltitudeMeters>1517.5999755859375</AltitudeMeters>
            <DistanceMeters>NAN</DistanceMeters>
          </Trackpoint>
          <Trackpoint>
            <Time>2021-08-03T04:15:16.000Z</Time>
            <Position>
              <LatitudeDegrees>-15.34470965154469013214111328125</LatitudeDegrees>
              <LongitudeDegrees>37.07639188505709171295166015625</LongitudeDegrees>
            </Position>
            <AltitudeMeters>1517.4000244140625</AltitudeMeters>
            <DistanceMeters>NAN</DistanceMeters>
          </Trackpoint>
          <Trackpoint>
            <Time>2021-08-03T04:15:19.000Z</Time>
            <Position>
              <LatitudeDegrees>-15.3447099030017852783203125</LatitudeDegrees>
              <LongitudeDegrees>37.07639188505709171295166015625</LongitudeDegrees>
            </Position>
            <AltitudeMeters>1517.4000244140625</AltitudeMeters>
            <DistanceMeters>NAN</DistanceMeters>
          </Trackpoint>
          <Trackpoint>
            <Time>2021-08-03T04:15:22.000Z</Time>
            <Position>
              <LatitudeDegrees>-15.34470998682081699371337890625</LatitudeDegrees>
              <LongitudeDegrees>37.07639188505709171295166015625</LongitudeDegrees>
            </Position>
            <AltitudeMeters>1517.199951171875</AltitudeMeters>
            <DistanceMeters>NAN</DistanceMeters>
          </Trackpoint>
          <Trackpoint>
            <Time>2021-08-03T04:15:28.000Z</Time>
            <Position>
              <LatitudeDegrees>-15.34470914863049983978271484375</LatitudeDegrees>
              <LongitudeDegrees>37.07639171741902828216552734375</LongitudeDegrees>
            </Position>
            <AltitudeMeters>1516.800048828125</AltitudeMeters>
            <DistanceMeters>NAN</DistanceMeters>
          </Trackpoint>
          <Trackpoint>
            <Time>2021-08-03T04:15:38.000Z</Time>
            <Position>
              <LatitudeDegrees>-15.34470696933567523956298828125</LatitudeDegrees>
              <LongitudeDegrees>37.0763866044580936431884765625</LongitudeDegrees>
            </Position>
            <AltitudeMeters>1516.5999755859375</AltitudeMeters>
            <DistanceMeters>NAN</DistanceMeters>
          </Trackpoint>
          <Trackpoint>
            <Time>2021-08-03T04:15:41.000Z</Time>
            <Position>
              <LatitudeDegrees>-15.34471753053367137908935546875</LatitudeDegrees>
              <LongitudeDegrees>37.076364643871784210205078125</LongitudeDegrees>
            </Position>
            <AltitudeMeters>1516.800048828125</AltitudeMeters>
            <DistanceMeters>NAN</DistanceMeters>
          </Trackpoint>
          <Trackpoint>
            <Time>2021-08-03T04:15:47.000Z</Time>
            <Position>
              <LatitudeDegrees>-15.3447447717189788818359375</LatitudeDegrees>
              <LongitudeDegrees>37.07633824087679386138916015625</LongitudeDegrees>
            </Position>
            <AltitudeMeters>1517.5999755859375</AltitudeMeters>
            <DistanceMeters>NAN</DistanceMeters>
          </Trackpoint>
          <Trackpoint>
            <Time>2021-08-03T04:15:48.000Z</Time>
            <Position>
              <LatitudeDegrees>-15.3447482921183109283447265625</LatitudeDegrees>
              <LongitudeDegrees>37.07633539102971553802490234375</LongitudeDegrees>
            </Position>
            <AltitudeMeters>1517.800048828125</AltitudeMeters>
            <DistanceMeters>NAN</DistanceMeters>
          </Trackpoint>
          <Trackpoint>
            <Time>2021-08-03T04:15:50.000Z</Time>
            <Position>
              <LatitudeDegrees>-15.34476195462048053741455078125</LatitudeDegrees>
              <LongitudeDegrees>37.0763309486210346221923828125</LongitudeDegrees>
            </Position>
            <AltitudeMeters>1518.800048828125</AltitudeMeters>
            <DistanceMeters>NAN</DistanceMeters>
          </Trackpoint>
          <Trackpoint>
            <Time>2021-08-03T04:15:52.000Z</Time>
            <Position>
              <LatitudeDegrees>-15.3447808139026165008544921875</LatitudeDegrees>
              <LongitudeDegrees>37.0763240754604339599609375</LongitudeDegrees>
            </Position>
            <AltitudeMeters>1519.199951171875</AltitudeMeters>
            <DistanceMeters>NAN</DistanceMeters>
          </Trackpoint>
          <Trackpoint>
            <Time>2021-08-03T04:15:54.000Z</Time>
            <Position>
              <LatitudeDegrees>-15.344794727861881256103515625</LatitudeDegrees>
              <LongitudeDegrees>37.07631845958530902862548828125</LongitudeDegrees>
            </Position>
            <AltitudeMeters>1519.800048828125</AltitudeMeters>
            <DistanceMeters>NAN</DistanceMeters>
          </Trackpoint>
          <Trackpoint>
            <Time>2021-08-03T04:15:55.000Z</Time>
            <Position>
              <LatitudeDegrees>-15.34480537287890911102294921875</LatitudeDegrees>
              <LongitudeDegrees>37.07630865275859832763671875</LongitudeDegrees>
            </Position>
            <AltitudeMeters>1520</AltitudeMeters>
            <DistanceMeters>NAN</DistanceMeters>
          </Trackpoint>
          <Trackpoint>
            <Time>2021-08-03T04:15:59.000Z</Time>
            <Position>
              <LatitudeDegrees>-15.34482381306588649749755859375</LatitudeDegrees>
              <LongitudeDegrees>37.07626976072788238525390625</LongitudeDegrees>
            </Position>
            <AltitudeMeters>1520.5999755859375</AltitudeMeters>
            <DistanceMeters>NAN</DistanceMeters>
          </Trackpoint>
          <Trackpoint>
            <Time>2021-08-03T04:16:00.000Z</Time>
            <Position>
              <LatitudeDegrees>-15.34483286552131175994873046875</LatitudeDegrees>
              <LongitudeDegrees>37.076263725757598876953125</LongitudeDegrees>
            </Position>
            <AltitudeMeters>1520.800048828125</AltitudeMeters>
            <DistanceMeters>NAN</DistanceMeters>
          </Trackpoint>
          <Trackpoint>
            <Time>2021-08-03T04:16:02.000Z</Time>
            <Position>
              <LatitudeDegrees>-15.344843678176403045654296875</LatitudeDegrees>
              <LongitudeDegrees>37.07625232636928558349609375</LongitudeDegrees>
            </Position>
            <AltitudeMeters>1521.4000244140625</AltitudeMeters>
            <DistanceMeters>NAN</DistanceMeters>
          </Trackpoint>
          <Trackpoint>
            <Time>2021-08-03T04:16:04.000Z</Time>
            <Position>
              <LatitudeDegrees>-15.34485583193600177764892578125</LatitudeDegrees>
              <LongitudeDegrees>37.07624754868447780609130859375</LongitudeDegrees>
            </Position>
            <AltitudeMeters>1521.800048828125</AltitudeMeters>
            <DistanceMeters>NAN</DistanceMeters>
          </Trackpoint>
          <Trackpoint>
            <Time>2021-08-03T04:16:05.000Z</Time>
            <Position>
              <LatitudeDegrees>-15.34486211836338043212890625</LatitudeDegrees>
              <LongitudeDegrees>37.07624704577028751373291015625</LongitudeDegrees>
            </Position>
            <AltitudeMeters>1522</AltitudeMeters>
            <DistanceMeters>NAN</DistanceMeters>
          </Trackpoint>
          <Trackpoint>
            <Time>2021-08-03T04:16:09.000Z</Time>
            <Position>
              <LatitudeDegrees>-15.3448847495019435882568359375</LatitudeDegrees>
              <LongitudeDegrees>37.07624025642871856689453125</LongitudeDegrees>
            </Position>
            <AltitudeMeters>1523.199951171875</AltitudeMeters>
            <DistanceMeters>NAN</DistanceMeters>
          </Trackpoint>
          <Trackpoint>
            <Time>2021-08-03T04:16:11.000Z</Time>
            <Position>
              <LatitudeDegrees>-15.3448988310992717742919921875</LatitudeDegrees>
              <LongitudeDegrees>37.07623380236327648162841796875</LongitudeDegrees>
            </Position>
            <AltitudeMeters>1523.800048828125</AltitudeMeters>
            <DistanceMeters>NAN</DistanceMeters>
          </Trackpoint>
          <Trackpoint>
            <Time>2021-08-03T04:16:13.000Z</Time>
            <Position>
              <LatitudeDegrees>-15.34490905702114105224609375</LatitudeDegrees>
              <LongitudeDegrees>37.0762340538203716278076171875</LongitudeDegrees>
            </Position>
            <AltitudeMeters>1524.5999755859375</AltitudeMeters>
            <DistanceMeters>NAN</DistanceMeters>
          </Trackpoint>
          <Trackpoint>
            <Time>2021-08-03T04:16:17.000Z</Time>
            <Position>
              <LatitudeDegrees>-15.34492389298975467681884765625</LatitudeDegrees>
              <LongitudeDegrees>37.0762152783572673797607421875</LongitudeDegrees>
            </Position>
            <AltitudeMeters>1525.4000244140625</AltitudeMeters>
            <DistanceMeters>NAN</DistanceMeters>
          </Trackpoint>
          <Trackpoint>
            <Time>2021-08-03T04:16:18.000Z</Time>
            <Position>
              <LatitudeDegrees>-15.34493294544517993927001953125</LatitudeDegrees>
              <LongitudeDegrees>37.076213099062442779541015625</LongitudeDegrees>
            </Position>
            <AltitudeMeters>1526</AltitudeMeters>
            <DistanceMeters>NAN</DistanceMeters>
          </Trackpoint>
          <Trackpoint>
            <Time>2021-08-03T04:16:22.000Z</Time>
            <Position>
              <LatitudeDegrees>-15.344963036477565765380859375</LatitudeDegrees>
              <LongitudeDegrees>37.07621854729950428009033203125</LongitudeDegrees>
            </Position>
            <AltitudeMeters>1527</AltitudeMeters>
            <DistanceMeters>NAN</DistanceMeters>
          </Trackpoint>
          <Trackpoint>
            <Time>2021-08-03T04:16:23.000Z</Time>
            <Position>
              <LatitudeDegrees>-15.34497468732297420501708984375</LatitudeDegrees>
              <LongitudeDegrees>37.076220810413360595703125</LongitudeDegrees>
            </Position>
            <AltitudeMeters>1527</AltitudeMeters>
            <DistanceMeters>NAN</DistanceMeters>
          </Trackpoint>
          <Trackpoint>
            <Time>2021-08-03T04:16:24.000Z</Time>
            <Position>
              <LatitudeDegrees>-15.34498608671128749847412109375</LatitudeDegrees>
              <LongitudeDegrees>37.07622407935559749603271484375</LongitudeDegrees>
            </Position>
            <AltitudeMeters>1527.199951171875</AltitudeMeters>
            <DistanceMeters>NAN</DistanceMeters>
          </Trackpoint>
          <Trackpoint>
            <Time>2021-08-03T04:16:27.000Z</Time>
            <Position>
              <LatitudeDegrees>-15.34501156769692897796630859375</LatitudeDegrees>
              <LongitudeDegrees>37.076220810413360595703125</LongitudeDegrees>
            </Position>
            <AltitudeMeters>1528.199951171875</AltitudeMeters>
            <DistanceMeters>NAN</DistanceMeters>
          </Trackpoint>
          <Trackpoint>
            <Time>2021-08-03T04:16:31.000Z</Time>
            <Position>
              <LatitudeDegrees>-15.34503235481679439544677734375</LatitudeDegrees>
              <LongitudeDegrees>37.07620077766478061676025390625</LongitudeDegrees>
            </Position>
            <AltitudeMeters>1529.199951171875</AltitudeMeters>
            <DistanceMeters>NAN</DistanceMeters>
          </Trackpoint>
          <Trackpoint>
            <Time>2021-08-03T04:16:36.000Z</Time>
            <Position>
              <LatitudeDegrees>-15.3450570814311504364013671875</LatitudeDegrees>
              <LongitudeDegrees>37.076167501509189605712890625</LongitudeDegrees>
            </Position>
            <AltitudeMeters>1530.800048828125</AltitudeMeters>
            <DistanceMeters>NAN</DistanceMeters>
          </Trackpoint>
          <Trackpoint>
            <Time>2021-08-03T04:16:37.000Z</Time>
            <Position>
              <LatitudeDegrees>-15.345064289867877960205078125</LatitudeDegrees>
              <LongitudeDegrees>37.07616507075726985931396484375</LongitudeDegrees>
            </Position>
            <AltitudeMeters>1531</AltitudeMeters>
            <DistanceMeters>NAN</DistanceMeters>
          </Trackpoint>
          <Trackpoint>
            <Time>2021-08-03T04:16:41.000Z</Time>
            <Position>
              <LatitudeDegrees>-15.34509153105318546295166015625</LatitudeDegrees>
              <LongitudeDegrees>37.07614998333156108856201171875</LongitudeDegrees>
            </Position>
            <AltitudeMeters>1532</AltitudeMeters>
            <DistanceMeters>NAN</DistanceMeters>
          </Trackpoint>
          <Trackpoint>
            <Time>2021-08-03T04:16:44.000Z</Time>
            <Position>
              <LatitudeDegrees>-15.3451050259172916412353515625</LatitudeDegrees>
              <LongitudeDegrees>37.0761363208293914794921875</LongitudeDegrees>
            </Position>
            <AltitudeMeters>1533.199951171875</AltitudeMeters>
            <DistanceMeters>NAN</DistanceMeters>
          </Trackpoint>
          <Trackpoint>
            <Time>2021-08-03T04:16:47.000Z</Time>
            <Position>
              <LatitudeDegrees>-15.3451281599700450897216796875</LatitudeDegrees>
              <LongitudeDegrees>37.076117210090160369873046875</LongitudeDegrees>
            </Position>
            <AltitudeMeters>1534</AltitudeMeters>
            <DistanceMeters>NAN</DistanceMeters>
          </Trackpoint>
          <Trackpoint>
            <Time>2021-08-03T04:16:49.000Z</Time>
            <Position>
              <LatitudeDegrees>-15.34513880498707294464111328125</LatitudeDegrees>
              <LongitudeDegrees>37.076111175119876861572265625</LongitudeDegrees>
            </Position>
            <AltitudeMeters>1534.199951171875</AltitudeMeters>
            <DistanceMeters>NAN</DistanceMeters>
          </Trackpoint>
          <Trackpoint>
            <Time>2021-08-03T04:16:54.000Z</Time>
            <Position>
              <LatitudeDegrees>-15.345154814422130584716796875</LatitudeDegrees>
              <LongitudeDegrees>37.0760965906083583831787109375</LongitudeDegrees>
            </Position>
            <AltitudeMeters>1535.4000244140625</AltitudeMeters>
            <DistanceMeters>NAN</DistanceMeters>
          </Trackpoint>
          <Trackpoint>
            <Time>2021-08-03T04:16:57.000Z</Time>
            <Position>
              <LatitudeDegrees>-15.34516730345785617828369140625</LatitudeDegrees>
              <LongitudeDegrees>37.076092064380645751953125</LongitudeDegrees>
            </Position>
            <AltitudeMeters>1536.5999755859375</AltitudeMeters>
            <DistanceMeters>NAN</DistanceMeters>
          </Trackpoint>
          <Trackpoint>
            <Time>2021-08-03T04:16:59.000Z</Time>
            <Position>
              <LatitudeDegrees>-15.34517652355134487152099609375</LatitudeDegrees>
              <LongitudeDegrees>37.0760821737349033355712890625</LongitudeDegrees>
            </Position>
            <AltitudeMeters>1537.199951171875</AltitudeMeters>
            <DistanceMeters>NAN</DistanceMeters>
          </Trackpoint>
          <Trackpoint>
            <Time>2021-08-03T04:17:00.000Z</Time>
            <Position>
              <LatitudeDegrees>-15.34518322907388210296630859375</LatitudeDegrees>
              <LongitudeDegrees>37.07607538439333438873291015625</LongitudeDegrees>
            </Position>
            <AltitudeMeters>1537.199951171875</AltitudeMeters>
            <DistanceMeters>NAN</DistanceMeters>
          </Trackpoint>
          <Trackpoint>
            <Time>2021-08-03T04:17:02.000Z</Time>
            <Position>
              <LatitudeDegrees>-15.34519596956670284271240234375</LatitudeDegrees>
              <LongitudeDegrees>37.076070271432399749755859375</LongitudeDegrees>
            </Position>
            <AltitudeMeters>1538.4000244140625</AltitudeMeters>
            <DistanceMeters>NAN</DistanceMeters>
          </Trackpoint>
          <Trackpoint>
            <Time>2021-08-03T04:17:05.000Z</Time>
            <Position>
              <LatitudeDegrees>-15.3452166728675365447998046875</LatitudeDegrees>
              <LongitudeDegrees>37.07606230862438678741455078125</LongitudeDegrees>
            </Position>
            <AltitudeMeters>1538.800048828125</AltitudeMeters>
            <DistanceMeters>NAN</DistanceMeters>
          </Trackpoint>
          <Trackpoint>
            <Time>2021-08-03T04:17:07.000Z</Time>
            <Position>
              <LatitudeDegrees>-15.34522597678005695343017578125</LatitudeDegrees>
              <LongitudeDegrees>37.07606054842472076416015625</LongitudeDegrees>
            </Position>
            <AltitudeMeters>1539.800048828125</AltitudeMeters>
            <DistanceMeters>NAN</DistanceMeters>
          </Trackpoint>
          <Trackpoint>
            <Time>2021-08-03T04:17:12.000Z</Time>
            <Position>
              <LatitudeDegrees>-15.34525774419307708740234375</LatitudeDegrees>
              <LongitudeDegrees>37.07605258561670780181884765625</LongitudeDegrees>
            </Position>
            <AltitudeMeters>1541.5999755859375</AltitudeMeters>
            <DistanceMeters>NAN</DistanceMeters>
          </Trackpoint>
          <Trackpoint>
            <Time>2021-08-03T04:17:15.000Z</Time>
            <Position>
              <LatitudeDegrees>-15.3452812135219573974609375</LatitudeDegrees>
              <LongitudeDegrees>37.07606297917664051055908203125</LongitudeDegrees>
            </Position>
            <AltitudeMeters>1542.199951171875</AltitudeMeters>
            <DistanceMeters>NAN</DistanceMeters>
          </Trackpoint>
          <Trackpoint>
            <Time>2021-08-03T04:17:16.000Z</Time>
            <Position>
              <LatitudeDegrees>-15.34528817050158977508544921875</LatitudeDegrees>
              <LongitudeDegrees>37.076065577566623687744140625</LongitudeDegrees>
            </Position>
            <AltitudeMeters>1542.800048828125</AltitudeMeters>
            <DistanceMeters>NAN</DistanceMeters>
          </Trackpoint>
          <Trackpoint>
            <Time>2021-08-03T04:17:19.000Z</Time>
            <Position>
              <LatitudeDegrees>-15.34530141390860080718994140625</LatitudeDegrees>
              <LongitudeDegrees>37.0760530047118663787841796875</LongitudeDegrees>
            </Position>
            <AltitudeMeters>1543.5999755859375</AltitudeMeters>
            <DistanceMeters>NAN</DistanceMeters>
          </Trackpoint>
          <Trackpoint>
            <Time>2021-08-03T04:17:21.000Z</Time>
            <Position>
              <LatitudeDegrees>-15.34531935118138790130615234375</LatitudeDegrees>
              <LongitudeDegrees>37.07605124451220035552978515625</LongitudeDegrees>
            </Position>
            <AltitudeMeters>1544.199951171875</AltitudeMeters>
            <DistanceMeters>NAN</DistanceMeters>
          </Trackpoint>
          <Trackpoint>
            <Time>2021-08-03T04:17:25.000Z</Time>
            <Position>
              <LatitudeDegrees>-15.34534248523414134979248046875</LatitudeDegrees>
              <LongitudeDegrees>37.07603967748582363128662109375</LongitudeDegrees>
            </Position>
            <AltitudeMeters>1545.4000244140625</AltitudeMeters>
            <DistanceMeters>NAN</DistanceMeters>
          </Trackpoint>
          <Trackpoint>
            <Time>2021-08-03T04:17:26.000Z</Time>
            <Position>
              <LatitudeDegrees>-15.34534751437604427337646484375</LatitudeDegrees>
              <LongitudeDegrees>37.07603682763874530792236328125</LongitudeDegrees>
            </Position>
            <AltitudeMeters>1545.5999755859375</AltitudeMeters>
            <DistanceMeters>NAN</DistanceMeters>
          </Trackpoint>
          <Trackpoint>
            <Time>2021-08-03T04:17:30.000Z</Time>
            <Position>
              <LatitudeDegrees>-15.3453635238111019134521484375</LatitudeDegrees>
              <LongitudeDegrees>37.07602299749851226806640625</LongitudeDegrees>
            </Position>
            <AltitudeMeters>1546.5999755859375</AltitudeMeters>
            <DistanceMeters>NAN</DistanceMeters>
          </Trackpoint>
          <Trackpoint>
            <Time>2021-08-03T04:17:32.000Z</Time>
            <Position>
              <LatitudeDegrees>-15.34537718631327152252197265625</LatitudeDegrees>
              <LongitudeDegrees>37.07602324895560741424560546875</LongitudeDegrees>
            </Position>
            <AltitudeMeters>1547.199951171875</AltitudeMeters>
            <DistanceMeters>NAN</DistanceMeters>
          </Trackpoint>
          <Trackpoint>
            <Time>2021-08-03T04:17:35.000Z</Time>
            <Position>
              <LatitudeDegrees>-15.345390178263187408447265625</LatitudeDegrees>
              <LongitudeDegrees>37.0760047249495983123779296875</LongitudeDegrees>
            </Position>
            <AltitudeMeters>1547.5999755859375</AltitudeMeters>
            <DistanceMeters>NAN</DistanceMeters>
          </Trackpoint>
          <Trackpoint>
            <Time>2021-08-03T04:17:38.000Z</Time>
            <Position>
              <LatitudeDegrees>-15.3454067744314670562744140625</LatitudeDegrees>
              <LongitudeDegrees>37.075988464057445526123046875</LongitudeDegrees>
            </Position>
            <AltitudeMeters>1548.800048828125</AltitudeMeters>
            <DistanceMeters>NAN</DistanceMeters>
          </Trackpoint>
          <Trackpoint>
            <Time>2021-08-03T04:17:43.000Z</Time>
            <Position>
              <LatitudeDegrees>-15.3454342670738697052001953125</LatitudeDegrees>
              <LongitudeDegrees>37.07597916014492511749267578125</LongitudeDegrees>
            </Position>
            <AltitudeMeters>1549.800048828125</AltitudeMeters>
            <DistanceMeters>NAN</DistanceMeters>
          </Trackpoint>
          <Trackpoint>
            <Time>2021-08-03T04:17:47.000Z</Time>
            <Position>
              <LatitudeDegrees>-15.34546368755400180816650390625</LatitudeDegrees>
              <LongitudeDegrees>37.07597815431654453277587890625</LongitudeDegrees>
            </Position>
            <AltitudeMeters>1551.199951171875</AltitudeMeters>
            <DistanceMeters>NAN</DistanceMeters>
          </Trackpoint>
          <Trackpoint>
            <Time>2021-08-03T04:17:49.000Z</Time>
            <Position>
              <LatitudeDegrees>-15.34547575749456882476806640625</LatitudeDegrees>
              <LongitudeDegrees>37.07597798667848110198974609375</LongitudeDegrees>
            </Position>
            <AltitudeMeters>1551.800048828125</AltitudeMeters>
            <DistanceMeters>NAN</DistanceMeters>
          </Trackpoint>
          <Trackpoint>
            <Time>2021-08-03T04:17:51.000Z</Time>
            <Position>
              <LatitudeDegrees>-15.34548883326351642608642578125</LatitudeDegrees>
              <LongitudeDegrees>37.07598117180168628692626953125</LongitudeDegrees>
            </Position>
            <AltitudeMeters>1552.199951171875</AltitudeMeters>
            <DistanceMeters>NAN</DistanceMeters>
          </Trackpoint>
          <Trackpoint>
            <Time>2021-08-03T04:17:54.000Z</Time>
            <Position>
              <LatitudeDegrees>-15.34550559706985950469970703125</LatitudeDegrees>
              <LongitudeDegrees>37.0759768970310688018798828125</LongitudeDegrees>
            </Position>
            <AltitudeMeters>1553.199951171875</AltitudeMeters>
            <DistanceMeters>NAN</DistanceMeters>
          </Trackpoint>
          <Trackpoint>
            <Time>2021-08-03T04:17:55.000Z</Time>
            <Position>
              <LatitudeDegrees>-15.3455118834972381591796875</LatitudeDegrees>
              <LongitudeDegrees>37.07597798667848110198974609375</LongitudeDegrees>
            </Position>
            <AltitudeMeters>1553.199951171875</AltitudeMeters>
            <DistanceMeters>NAN</DistanceMeters>
          </Trackpoint>
          <Trackpoint>
            <Time>2021-08-03T04:17:57.000Z</Time>
            <Position>
              <LatitudeDegrees>-15.34552873112261295318603515625</LatitudeDegrees>
              <LongitudeDegrees>37.075975723564624786376953125</LongitudeDegrees>
            </Position>
            <AltitudeMeters>1554.199951171875</AltitudeMeters>
            <DistanceMeters>NAN</DistanceMeters>
          </Trackpoint>
          <Trackpoint>
            <Time>2021-08-03T04:18:01.000Z</Time>
            <Position>
              <LatitudeDegrees>-15.3455653600394725799560546875</LatitudeDegrees>
              <LongitudeDegrees>37.07597429864108562469482421875</LongitudeDegrees>
            </Position>
            <AltitudeMeters>1555.199951171875</AltitudeMeters>
            <DistanceMeters>NAN</DistanceMeters>
          </Trackpoint>
          <Trackpoint>
            <Time>2021-08-03T04:18:04.000Z</Time>
            <Position>
              <LatitudeDegrees>-15.34558086656033992767333984375</LatitudeDegrees>
              <LongitudeDegrees>37.07597245462238788604736328125</LongitudeDegrees>
            </Position>
            <AltitudeMeters>1556.4000244140625</AltitudeMeters>
            <DistanceMeters>NAN</DistanceMeters>
          </Trackpoint>
          <Trackpoint>
            <Time>2021-08-03T04:18:08.000Z</Time>
            <Position>
              <LatitudeDegrees>-15.34559712745249271392822265625</LatitudeDegrees>
              <LongitudeDegrees>37.075971700251102447509765625</LongitudeDegrees>
            </Position>
            <AltitudeMeters>1557.800048828125</AltitudeMeters>
            <DistanceMeters>NAN</DistanceMeters>
          </Trackpoint>
          <Trackpoint>
            <Time>2021-08-03T04:18:10.000Z</Time>
            <Position>
              <LatitudeDegrees>-15.3456138074398040771484375</LatitudeDegrees>
              <LongitudeDegrees>37.07596424035727977752685546875</LongitudeDegrees>
            </Position>
            <AltitudeMeters>1558.4000244140625</AltitudeMeters>
            <DistanceMeters>NAN</DistanceMeters>
          </Trackpoint>
          <Trackpoint>
            <Time>2021-08-03T04:18:12.000Z</Time>
            <Position>
              <LatitudeDegrees>-15.3456277213990688323974609375</LatitudeDegrees>
              <LongitudeDegrees>37.075965665280818939208984375</LongitudeDegrees>
            </Position>
            <AltitudeMeters>1558.800048828125</AltitudeMeters>
            <DistanceMeters>NAN</DistanceMeters>
          </Trackpoint>
          <Trackpoint>
            <Time>2021-08-03T04:18:14.000Z</Time>
            <Position>
              <LatitudeDegrees>-15.34563903696835041046142578125</LatitudeDegrees>
              <LongitudeDegrees>37.075964324176311492919921875</LongitudeDegrees>
            </Position>
            <AltitudeMeters>1559</AltitudeMeters>
            <DistanceMeters>NAN</DistanceMeters>
          </Trackpoint>
          <Trackpoint>
            <Time>2021-08-03T04:18:17.000Z</Time>
            <Position>
              <LatitudeDegrees>-15.3456562198698520660400390625</LatitudeDegrees>
              <LongitudeDegrees>37.0759675092995166778564453125</LongitudeDegrees>
            </Position>
            <AltitudeMeters>1560.199951171875</AltitudeMeters>
            <DistanceMeters>NAN</DistanceMeters>
          </Trackpoint>
          <Trackpoint>
            <Time>2021-08-03T04:18:20.000Z</Time>
            <Position>
              <LatitudeDegrees>-15.34567080438137054443359375</LatitudeDegrees>
              <LongitudeDegrees>37.0759618096053600311279296875</LongitudeDegrees>
            </Position>
            <AltitudeMeters>1561.4000244140625</AltitudeMeters>
            <DistanceMeters>NAN</DistanceMeters>
          </Trackpoint>
          <Trackpoint>
            <Time>2021-08-03T04:18:21.000Z</Time>
            <Position>
              <LatitudeDegrees>-15.345676504075527191162109375</LatitudeDegrees>
              <LongitudeDegrees>37.07595820538699626922607421875</LongitudeDegrees>
            </Position>
            <AltitudeMeters>1561.4000244140625</AltitudeMeters>
            <DistanceMeters>NAN</DistanceMeters>
          </Trackpoint>
          <Trackpoint>
            <Time>2021-08-03T04:18:24.000Z</Time>
            <Position>
              <LatitudeDegrees>-15.34569402225315570831298828125</LatitudeDegrees>
              <LongitudeDegrees>37.07595728337764739990234375</LongitudeDegrees>
            </Position>
            <AltitudeMeters>1562.4000244140625</AltitudeMeters>
            <DistanceMeters>NAN</DistanceMeters>
          </Trackpoint>
          <Trackpoint>
            <Time>2021-08-03T04:18:28.000Z</Time>
            <Position>
              <LatitudeDegrees>-15.34571447409689426422119140625</LatitudeDegrees>
              <LongitudeDegrees>37.0759611390531063079833984375</LongitudeDegrees>
            </Position>
            <AltitudeMeters>1563.199951171875</AltitudeMeters>
            <DistanceMeters>NAN</DistanceMeters>
          </Trackpoint>
          <Trackpoint>
            <Time>2021-08-03T04:18:29.000Z</Time>
            <Position>
              <LatitudeDegrees>-15.34571665339171886444091796875</LatitudeDegrees>
              <LongitudeDegrees>37.07596222870051860809326171875</LongitudeDegrees>
            </Position>
            <AltitudeMeters>1563.800048828125</AltitudeMeters>
            <DistanceMeters>NAN</DistanceMeters>
          </Trackpoint>
          <Trackpoint>
            <Time>2021-08-03T04:18:34.000Z</Time>
            <Position>
              <LatitudeDegrees>-15.3457148931920528411865234375</LatitudeDegrees>
              <LongitudeDegrees>37.07597144879400730133056640625</LongitudeDegrees>
            </Position>
            <AltitudeMeters>1564.199951171875</AltitudeMeters>
            <DistanceMeters>NAN</DistanceMeters>
          </Trackpoint>
          <Trackpoint>
            <Time>2021-08-03T04:18:35.000Z</Time>
            <Position>
              <LatitudeDegrees>-15.34571464173495769500732421875</LatitudeDegrees>
              <LongitudeDegrees>37.07597262226045131683349609375</LongitudeDegrees>
            </Position>
            <AltitudeMeters>1564.199951171875</AltitudeMeters>
            <DistanceMeters>NAN</DistanceMeters>
          </Trackpoint>
          <Trackpoint>
            <Time>2021-08-03T04:18:40.000Z</Time>
            <Position>
              <LatitudeDegrees>-15.34571581520140171051025390625</LatitudeDegrees>
              <LongitudeDegrees>37.07597295753657817840576171875</LongitudeDegrees>
            </Position>
            <AltitudeMeters>1564</AltitudeMeters>
            <DistanceMeters>NAN</DistanceMeters>
          </Trackpoint>
          <Trackpoint>
            <Time>2021-08-03T04:18:43.000Z</Time>
            <Position>
              <LatitudeDegrees>-15.34571581520140171051025390625</LatitudeDegrees>
              <LongitudeDegrees>37.07597295753657817840576171875</LongitudeDegrees>
            </Position>
            <AltitudeMeters>1564</AltitudeMeters>
            <DistanceMeters>NAN</DistanceMeters>
          </Trackpoint>
          <Trackpoint>
            <Time>2021-08-03T04:18:52.000Z</Time>
            <Position>
              <LatitudeDegrees>-15.34571581520140171051025390625</LatitudeDegrees>
              <LongitudeDegrees>37.0759742148220539093017578125</LongitudeDegrees>
            </Position>
            <AltitudeMeters>1564</AltitudeMeters>
            <DistanceMeters>NAN</DistanceMeters>
          </Trackpoint>
          <Trackpoint>
            <Time>2021-08-03T04:19:07.000Z</Time>
            <Position>
              <LatitudeDegrees>-15.34571598283946514129638671875</LatitudeDegrees>
              <LongitudeDegrees>37.0759842731058597564697265625</LongitudeDegrees>
            </Position>
            <AltitudeMeters>1564.199951171875</AltitudeMeters>
            <DistanceMeters>NAN</DistanceMeters>
          </Trackpoint>
          <Trackpoint>
            <Time>2021-08-03T04:19:16.000Z</Time>
            <Position>
              <LatitudeDegrees>-15.34571698866784572601318359375</LatitudeDegrees>
              <LongitudeDegrees>37.07598435692489147186279296875</LongitudeDegrees>
            </Position>
            <AltitudeMeters>1563.5999755859375</AltitudeMeters>
            <DistanceMeters>NAN</DistanceMeters>
          </Trackpoint>
          <Trackpoint>
            <Time>2021-08-03T04:19:22.000Z</Time>
            <Position>
              <LatitudeDegrees>-15.3457192517817020416259765625</LatitudeDegrees>
              <LongitudeDegrees>37.07598410546779632568359375</LongitudeDegrees>
            </Position>
            <AltitudeMeters>1564</AltitudeMeters>
            <DistanceMeters>NAN</DistanceMeters>
          </Trackpoint>
          <Trackpoint>
            <Time>2021-08-03T04:19:25.000Z</Time>
            <Position>
              <LatitudeDegrees>-15.3457192517817020416259765625</LatitudeDegrees>
              <LongitudeDegrees>37.07598385401070117950439453125</LongitudeDegrees>
            </Position>
            <AltitudeMeters>1563.800048828125</AltitudeMeters>
            <DistanceMeters>NAN</DistanceMeters>
          </Trackpoint>
          <Trackpoint>
            <Time>2021-08-03T04:19:31.000Z</Time>
            <Position>
              <LatitudeDegrees>-15.34571950323879718780517578125</LatitudeDegrees>
              <LongitudeDegrees>37.075979076325893402099609375</LongitudeDegrees>
            </Position>
            <AltitudeMeters>1563.800048828125</AltitudeMeters>
            <DistanceMeters>NAN</DistanceMeters>
          </Trackpoint>
          <Trackpoint>
            <Time>2021-08-03T04:19:40.000Z</Time>
            <Position>
              <LatitudeDegrees>-15.3457219339907169342041015625</LatitudeDegrees>
              <LongitudeDegrees>37.07597765140235424041748046875</LongitudeDegrees>
            </Position>
            <AltitudeMeters>1565.199951171875</AltitudeMeters>
            <DistanceMeters>NAN</DistanceMeters>
          </Trackpoint>
          <Trackpoint>
            <Time>2021-08-03T04:19:44.000Z</Time>
            <Position>
              <LatitudeDegrees>-15.34572285600006580352783203125</LatitudeDegrees>
              <LongitudeDegrees>37.07597739994525909423828125</LongitudeDegrees>
            </Position>
            <AltitudeMeters>1565.800048828125</AltitudeMeters>
            <DistanceMeters>NAN</DistanceMeters>
          </Trackpoint>
          <Trackpoint>
            <Time>2021-08-03T04:19:56.000Z</Time>
            <Position>
              <LatitudeDegrees>-15.34574716351926326751708984375</LatitudeDegrees>
              <LongitudeDegrees>37.07597698085010051727294921875</LongitudeDegrees>
            </Position>
            <AltitudeMeters>1565.4000244140625</AltitudeMeters>
            <DistanceMeters>NAN</DistanceMeters>
          </Trackpoint>
          <Trackpoint>
            <Time>2021-08-03T04:20:06.000Z</Time>
            <Position>
              <LatitudeDegrees>-15.3457682020962238311767578125</LatitudeDegrees>
              <LongitudeDegrees>37.075977064669132232666015625</LongitudeDegrees>
            </Position>
            <AltitudeMeters>1566.199951171875</AltitudeMeters>
            <DistanceMeters>NAN</DistanceMeters>
          </Trackpoint>
          <Trackpoint>
            <Time>2021-08-03T04:20:07.000Z</Time>
            <Position>
              <LatitudeDegrees>-15.3457685373723506927490234375</LatitudeDegrees>
              <LongitudeDegrees>37.075977064669132232666015625</LongitudeDegrees>
            </Position>
            <AltitudeMeters>1566.4000244140625</AltitudeMeters>
            <DistanceMeters>NAN</DistanceMeters>
          </Trackpoint>
          <Trackpoint>
            <Time>2021-08-03T04:20:11.000Z</Time>
            <Position>
              <LatitudeDegrees>-15.345769040286540985107421875</LatitudeDegrees>
              <LongitudeDegrees>37.075977735221385955810546875</LongitudeDegrees>
            </Position>
            <AltitudeMeters>1566.4000244140625</AltitudeMeters>
            <DistanceMeters>NAN</DistanceMeters>
          </Trackpoint>
          <Trackpoint>
            <Time>2021-08-03T04:20:15.000Z</Time>
            <Position>
              <LatitudeDegrees>-15.34576912410557270050048828125</LatitudeDegrees>
              <LongitudeDegrees>37.07597832195460796356201171875</LongitudeDegrees>
            </Position>
            <AltitudeMeters>1566.4000244140625</AltitudeMeters>
            <DistanceMeters>NAN</DistanceMeters>
          </Trackpoint>
          <Trackpoint>
            <Time>2021-08-03T04:20:19.000Z</Time>
            <Position>
              <LatitudeDegrees>-15.34576929174363613128662109375</LatitudeDegrees>
              <LongitudeDegrees>37.0759785734117031097412109375</LongitudeDegrees>
            </Position>
            <AltitudeMeters>1566.199951171875</AltitudeMeters>
            <DistanceMeters>NAN</DistanceMeters>
          </Trackpoint>
          <Trackpoint>
            <Time>2021-08-03T04:20:28.000Z</Time>
            <Position>
              <LatitudeDegrees>-15.3457695432007312774658203125</LatitudeDegrees>
              <LongitudeDegrees>37.07597899250686168670654296875</LongitudeDegrees>
            </Position>
            <AltitudeMeters>1565.800048828125</AltitudeMeters>
            <DistanceMeters>NAN</DistanceMeters>
          </Trackpoint>
          <Trackpoint>
            <Time>2021-08-03T04:20:54.000Z</Time>
            <Position>
              <LatitudeDegrees>-15.34577063284814357757568359375</LatitudeDegrees>
              <LongitudeDegrees>37.07597312517464160919189453125</LongitudeDegrees>
            </Position>
            <AltitudeMeters>1565.4000244140625</AltitudeMeters>
            <DistanceMeters>NAN</DistanceMeters>
          </Trackpoint>
          <Trackpoint>
            <Time>2021-08-03T04:20:57.000Z</Time>
            <Position>
              <LatitudeDegrees>-15.3457705490291118621826171875</LatitudeDegrees>
              <LongitudeDegrees>37.07597312517464160919189453125</LongitudeDegrees>
            </Position>
            <AltitudeMeters>1565.4000244140625</AltitudeMeters>
            <DistanceMeters>NAN</DistanceMeters>
          </Trackpoint>
          <Trackpoint>
            <Time>2021-08-03T04:20:59.000Z</Time>
            <Position>
              <LatitudeDegrees>-15.34577046521008014678955078125</LatitudeDegrees>
              <LongitudeDegrees>37.0759738795459270477294921875</LongitudeDegrees>
            </Position>
            <AltitudeMeters>1565.4000244140625</AltitudeMeters>
            <DistanceMeters>NAN</DistanceMeters>
          </Trackpoint>
          <Trackpoint>
            <Time>2021-08-03T04:21:01.000Z</Time>
            <Position>
              <LatitudeDegrees>-15.345770381391048431396484375</LatitudeDegrees>
              <LongitudeDegrees>37.07597446627914905548095703125</LongitudeDegrees>
            </Position>
            <AltitudeMeters>1565.4000244140625</AltitudeMeters>
            <DistanceMeters>NAN</DistanceMeters>
          </Trackpoint>
          <Trackpoint>
            <Time>2021-08-03T04:21:02.000Z</Time>
            <Position>
              <LatitudeDegrees>-15.345770381391048431396484375</LatitudeDegrees>
              <LongitudeDegrees>37.07597471773624420166015625</LongitudeDegrees>
            </Position>
            <AltitudeMeters>1565.4000244140625</AltitudeMeters>
            <DistanceMeters>NAN</DistanceMeters>
          </Trackpoint>
          <Trackpoint>
            <Time>2021-08-03T04:21:04.000Z</Time>
            <Position>
              <LatitudeDegrees>-15.3457702137529850006103515625</LatitudeDegrees>
              <LongitudeDegrees>37.07597513683140277862548828125</LongitudeDegrees>
            </Position>
            <AltitudeMeters>1565.199951171875</AltitudeMeters>
            <DistanceMeters>NAN</DistanceMeters>
          </Trackpoint>
          <Trackpoint>
            <Time>2021-08-03T04:21:18.000Z</Time>
            <Position>
              <LatitudeDegrees>-15.345769040286540985107421875</LatitudeDegrees>
              <LongitudeDegrees>37.0759775675833225250244140625</LongitudeDegrees>
            </Position>
            <AltitudeMeters>1565.4000244140625</AltitudeMeters>
            <DistanceMeters>NAN</DistanceMeters>
          </Trackpoint>
          <Trackpoint>
            <Time>2021-08-03T04:21:23.000Z</Time>
            <Position>
              <LatitudeDegrees>-15.345768034458160400390625</LatitudeDegrees>
              <LongitudeDegrees>37.075978405773639678955078125</LongitudeDegrees>
            </Position>
            <AltitudeMeters>1565.4000244140625</AltitudeMeters>
            <DistanceMeters>NAN</DistanceMeters>
          </Trackpoint>
          <Trackpoint>
            <Time>2021-08-03T04:21:27.000Z</Time>
            <Position>
              <LatitudeDegrees>-15.3457675315439701080322265625</LatitudeDegrees>
              <LongitudeDegrees>37.07597882486879825592041015625</LongitudeDegrees>
            </Position>
            <AltitudeMeters>1565.4000244140625</AltitudeMeters>
            <DistanceMeters>NAN</DistanceMeters>
          </Trackpoint>
          <Trackpoint>
            <Time>2021-08-03T04:21:36.000Z</Time>
            <Position>
              <LatitudeDegrees>-15.345767028629779815673828125</LatitudeDegrees>
              <LongitudeDegrees>37.07597949542105197906494140625</LongitudeDegrees>
            </Position>
            <AltitudeMeters>1565.199951171875</AltitudeMeters>
            <DistanceMeters>NAN</DistanceMeters>
          </Trackpoint>
          <Trackpoint>
            <Time>2021-08-03T04:21:45.000Z</Time>
            <Position>
              <LatitudeDegrees>-15.345767028629779815673828125</LatitudeDegrees>
              <LongitudeDegrees>37.075980417430400848388671875</LongitudeDegrees>
            </Position>
            <AltitudeMeters>1565.199951171875</AltitudeMeters>
            <DistanceMeters>NAN</DistanceMeters>
          </Trackpoint>
          <Trackpoint>
            <Time>2021-08-03T04:21:47.000Z</Time>
            <Position>
              <LatitudeDegrees>-15.34576711244881153106689453125</LatitudeDegrees>
              <LongitudeDegrees>37.0759805850684642791748046875</LongitudeDegrees>
            </Position>
            <AltitudeMeters>1565.199951171875</AltitudeMeters>
            <DistanceMeters>NAN</DistanceMeters>
          </Trackpoint>
          <Trackpoint>
            <Time>2021-08-03T04:21:49.000Z</Time>
            <Position>
              <LatitudeDegrees>-15.34576728008687496185302734375</LatitudeDegrees>
              <LongitudeDegrees>37.07598066888749599456787109375</LongitudeDegrees>
            </Position>
            <AltitudeMeters>1565.199951171875</AltitudeMeters>
            <DistanceMeters>NAN</DistanceMeters>
          </Trackpoint>
          <Trackpoint>
            <Time>2021-08-03T04:21:51.000Z</Time>
            <Position>
              <LatitudeDegrees>-15.34576744772493839263916015625</LatitudeDegrees>
              <LongitudeDegrees>37.07598083652555942535400390625</LongitudeDegrees>
            </Position>
            <AltitudeMeters>1565</AltitudeMeters>
            <DistanceMeters>NAN</DistanceMeters>
          </Trackpoint>
          <Trackpoint>
            <Time>2021-08-03T04:21:54.000Z</Time>
            <Position>
              <LatitudeDegrees>-15.34576761536300182342529296875</LatitudeDegrees>
              <LongitudeDegrees>37.0759809203445911407470703125</LongitudeDegrees>
            </Position>
            <AltitudeMeters>1565.5999755859375</AltitudeMeters>
            <DistanceMeters>NAN</DistanceMeters>
          </Trackpoint>
          <Trackpoint>
            <Time>2021-08-03T04:21:58.000Z</Time>
            <Position>
              <LatitudeDegrees>-15.345767699182033538818359375</LatitudeDegrees>
              <LongitudeDegrees>37.0759809203445911407470703125</LongitudeDegrees>
            </Position>
            <AltitudeMeters>1565.5999755859375</AltitudeMeters>
            <DistanceMeters>NAN</DistanceMeters>
          </Trackpoint>
          <Trackpoint>
            <Time>2021-08-03T04:22:07.000Z</Time>
            <Position>
              <LatitudeDegrees>-15.34576778300106525421142578125</LatitudeDegrees>
              <LongitudeDegrees>37.0759809203445911407470703125</LongitudeDegrees>
            </Position>
            <AltitudeMeters>1565.199951171875</AltitudeMeters>
            <DistanceMeters>NAN</DistanceMeters>
          </Trackpoint>
          <Trackpoint>
            <Time>2021-08-03T04:22:11.000Z</Time>
            <Position>
              <LatitudeDegrees>-15.34576778300106525421142578125</LatitudeDegrees>
              <LongitudeDegrees>37.07598100416362285614013671875</LongitudeDegrees>
            </Position>
            <AltitudeMeters>1565.4000244140625</AltitudeMeters>
            <DistanceMeters>NAN</DistanceMeters>
          </Trackpoint>
          <Trackpoint>
            <Time>2021-08-03T04:22:12.000Z</Time>
            <Position>
              <LatitudeDegrees>-15.34576778300106525421142578125</LatitudeDegrees>
              <LongitudeDegrees>37.07598100416362285614013671875</LongitudeDegrees>
            </Position>
            <AltitudeMeters>1565.199951171875</AltitudeMeters>
            <DistanceMeters>NAN</DistanceMeters>
          </Trackpoint>
          <Trackpoint>
            <Time>2021-08-03T04:22:19.000Z</Time>
            <Position>
              <LatitudeDegrees>-15.3457678668200969696044921875</LatitudeDegrees>
              <LongitudeDegrees>37.07598100416362285614013671875</LongitudeDegrees>
            </Position>
            <AltitudeMeters>1565.199951171875</AltitudeMeters>
            <DistanceMeters>NAN</DistanceMeters>
          </Trackpoint>
          <Trackpoint>
            <Time>2021-08-03T04:22:30.000Z</Time>
            <Position>
              <LatitudeDegrees>-15.3457678668200969696044921875</LatitudeDegrees>
              <LongitudeDegrees>37.07598100416362285614013671875</LongitudeDegrees>
            </Position>
            <AltitudeMeters>1566.199951171875</AltitudeMeters>
            <DistanceMeters>NAN</DistanceMeters>
          </Trackpoint>
          <Trackpoint>
            <Time>2021-08-03T04:22:47.000Z</Time>
            <Position>
              <LatitudeDegrees>-15.34576778300106525421142578125</LatitudeDegrees>
              <LongitudeDegrees>37.07598117180168628692626953125</LongitudeDegrees>
            </Position>
            <AltitudeMeters>1566.199951171875</AltitudeMeters>
            <DistanceMeters>NAN</DistanceMeters>
          </Trackpoint>
          <Trackpoint>
            <Time>2021-08-03T04:22:50.000Z</Time>
            <Position>
              <LatitudeDegrees>-15.34576778300106525421142578125</LatitudeDegrees>
              <LongitudeDegrees>37.07598117180168628692626953125</LongitudeDegrees>
            </Position>
            <AltitudeMeters>1566.199951171875</AltitudeMeters>
            <DistanceMeters>NAN</DistanceMeters>
          </Trackpoint>
          <Trackpoint>
            <Time>2021-08-03T04:22:55.000Z</Time>
            <Position>
              <LatitudeDegrees>-15.34576778300106525421142578125</LatitudeDegrees>
              <LongitudeDegrees>37.0759812556207180023193359375</LongitudeDegrees>
            </Position>
            <AltitudeMeters>1566.199951171875</AltitudeMeters>
            <DistanceMeters>NAN</DistanceMeters>
          </Trackpoint>
          <Trackpoint>
            <Time>2021-08-03T04:22:58.000Z</Time>
            <Position>
              <LatitudeDegrees>-15.34576778300106525421142578125</LatitudeDegrees>
              <LongitudeDegrees>37.0759812556207180023193359375</LongitudeDegrees>
            </Position>
            <AltitudeMeters>1566</AltitudeMeters>
            <DistanceMeters>NAN</DistanceMeters>
          </Trackpoint>
          <Trackpoint>
            <Time>2021-08-03T04:23:05.000Z</Time>
            <Position>
              <LatitudeDegrees>-15.34576778300106525421142578125</LatitudeDegrees>
              <LongitudeDegrees>37.07598133943974971771240234375</LongitudeDegrees>
            </Position>
            <AltitudeMeters>1565.800048828125</AltitudeMeters>
            <DistanceMeters>NAN</DistanceMeters>
          </Trackpoint>
          <Trackpoint>
            <Time>2021-08-03T04:23:14.000Z</Time>
            <Position>
              <LatitudeDegrees>-15.3457678668200969696044921875</LatitudeDegrees>
              <LongitudeDegrees>37.07598142325878143310546875</LongitudeDegrees>
            </Position>
            <AltitudeMeters>1565</AltitudeMeters>
            <DistanceMeters>NAN</DistanceMeters>
          </Trackpoint>
          <Trackpoint>
            <Time>2021-08-03T04:23:19.000Z</Time>
            <Position>
              <LatitudeDegrees>-15.34576795063912868499755859375</LatitudeDegrees>
              <LongitudeDegrees>37.07598150707781314849853515625</LongitudeDegrees>
            </Position>
            <AltitudeMeters>1565.5999755859375</AltitudeMeters>
            <DistanceMeters>NAN</DistanceMeters>
          </Trackpoint>
          <Trackpoint>
            <Time>2021-08-03T04:23:29.000Z</Time>
            <Position>
              <LatitudeDegrees>-15.345768034458160400390625</LatitudeDegrees>
              <LongitudeDegrees>37.0759815908968448638916015625</LongitudeDegrees>
            </Position>
            <AltitudeMeters>1565.4000244140625</AltitudeMeters>
            <DistanceMeters>NAN</DistanceMeters>
          </Trackpoint>
          <Trackpoint>
            <Time>2021-08-03T04:23:38.000Z</Time>
            <Position>
              <LatitudeDegrees>-15.34576811827719211578369140625</LatitudeDegrees>
              <LongitudeDegrees>37.07598167471587657928466796875</LongitudeDegrees>
            </Position>
            <AltitudeMeters>1566.199951171875</AltitudeMeters>
            <DistanceMeters>NAN</DistanceMeters>
          </Trackpoint>
          <Trackpoint>
            <Time>2021-08-03T04:23:41.000Z</Time>
            <Position>
              <LatitudeDegrees>-15.34576811827719211578369140625</LatitudeDegrees>
              <LongitudeDegrees>37.07598167471587657928466796875</LongitudeDegrees>
            </Position>
            <AltitudeMeters>1566.4000244140625</AltitudeMeters>
            <DistanceMeters>NAN</DistanceMeters>
          </Trackpoint>
          <Trackpoint>
            <Time>2021-08-03T04:23:43.000Z</Time>
            <Position>
              <LatitudeDegrees>-15.34576811827719211578369140625</LatitudeDegrees>
              <LongitudeDegrees>37.075981758534908294677734375</LongitudeDegrees>
            </Position>
            <AltitudeMeters>1566.5999755859375</AltitudeMeters>
            <DistanceMeters>NAN</DistanceMeters>
          </Trackpoint>
          <Trackpoint>
            <Time>2021-08-03T04:23:47.000Z</Time>
            <Position>
              <LatitudeDegrees>-15.34576811827719211578369140625</LatitudeDegrees>
              <LongitudeDegrees>37.075981758534908294677734375</LongitudeDegrees>
            </Position>
            <AltitudeMeters>1567.4000244140625</AltitudeMeters>
            <DistanceMeters>NAN</DistanceMeters>
          </Trackpoint>
          <Trackpoint>
            <Time>2021-08-03T04:23:48.000Z</Time>
            <Position>
              <LatitudeDegrees>-15.34576811827719211578369140625</LatitudeDegrees>
              <LongitudeDegrees>37.075981758534908294677734375</LongitudeDegrees>
            </Position>
            <AltitudeMeters>1568.5999755859375</AltitudeMeters>
            <DistanceMeters>NAN</DistanceMeters>
          </Trackpoint>
          <Trackpoint>
            <Time>2021-08-03T04:23:50.000Z</Time>
            <Position>
              <LatitudeDegrees>-15.34576811827719211578369140625</LatitudeDegrees>
              <LongitudeDegrees>37.075981758534908294677734375</LongitudeDegrees>
            </Position>
            <AltitudeMeters>1568.5999755859375</AltitudeMeters>
            <DistanceMeters>NAN</DistanceMeters>
          </Trackpoint>
          <Trackpoint>
            <Time>2021-08-03T04:23:53.000Z</Time>
            <Position>
              <LatitudeDegrees>-15.34578538499772548675537109375</LatitudeDegrees>
              <LongitudeDegrees>37.0759839378297328948974609375</LongitudeDegrees>
            </Position>
            <AltitudeMeters>1569.800048828125</AltitudeMeters>
            <DistanceMeters>NAN</DistanceMeters>
          </Trackpoint>
          <Trackpoint>
            <Time>2021-08-03T04:23:55.000Z</Time>
            <Position>
              <LatitudeDegrees>-15.34580835141241550445556640625</LatitudeDegrees>
              <LongitudeDegrees>37.0759832672774791717529296875</LongitudeDegrees>
            </Position>
            <AltitudeMeters>1570.4000244140625</AltitudeMeters>
            <DistanceMeters>NAN</DistanceMeters>
          </Trackpoint>
          <Trackpoint>
            <Time>2021-08-03T04:23:57.000Z</Time>
            <Position>
              <LatitudeDegrees>-15.34583098255097866058349609375</LatitudeDegrees>
              <LongitudeDegrees>37.07598184235394001007080078125</LongitudeDegrees>
            </Position>
            <AltitudeMeters>1571</AltitudeMeters>
            <DistanceMeters>NAN</DistanceMeters>
          </Trackpoint>
          <Trackpoint>
            <Time>2021-08-03T04:23:58.000Z</Time>
            <Position>
              <LatitudeDegrees>-15.34584322012960910797119140625</LatitudeDegrees>
              <LongitudeDegrees>37.0759825967252254486083984375</LongitudeDegrees>
            </Position>
            <AltitudeMeters>1571.4000244140625</AltitudeMeters>
            <DistanceMeters>NAN</DistanceMeters>
          </Trackpoint>
          <Trackpoint>
            <Time>2021-08-03T04:24:01.000Z</Time>
            <Position>
              <LatitudeDegrees>-15.34587658010423183441162109375</LatitudeDegrees>
              <LongitudeDegrees>37.07598687149584293365478515625</LongitudeDegrees>
            </Position>
            <AltitudeMeters>1572</AltitudeMeters>
            <DistanceMeters>NAN</DistanceMeters>
          </Trackpoint>
          <Trackpoint>
            <Time>2021-08-03T04:24:06.000Z</Time>
            <Position>
              <LatitudeDegrees>-15.345899127423763275146484375</LatitudeDegrees>
              <LongitudeDegrees>37.07598946988582611083984375</LongitudeDegrees>
            </Position>
            <AltitudeMeters>1573.5999755859375</AltitudeMeters>
            <DistanceMeters>NAN</DistanceMeters>
          </Trackpoint>
          <Trackpoint>
            <Time>2021-08-03T04:24:09.000Z</Time>
            <Position>
              <LatitudeDegrees>-15.3459143824875354766845703125</LatitudeDegrees>
              <LongitudeDegrees>37.0759896375238895416259765625</LongitudeDegrees>
            </Position>
            <AltitudeMeters>1574</AltitudeMeters>
            <DistanceMeters>NAN</DistanceMeters>
          </Trackpoint>
          <Trackpoint>
            <Time>2021-08-03T04:24:12.000Z</Time>
            <Position>
              <LatitudeDegrees>-15.3459276258945465087890625</LatitudeDegrees>
              <LongitudeDegrees>37.07599617540836334228515625</LongitudeDegrees>
            </Position>
            <AltitudeMeters>1574.5999755859375</AltitudeMeters>
            <DistanceMeters>NAN</DistanceMeters>
          </Trackpoint>
          <Trackpoint>
            <Time>2021-08-03T04:24:16.000Z</Time>
            <Position>
              <LatitudeDegrees>-15.34594413824379444122314453125</LatitudeDegrees>
              <LongitudeDegrees>37.076002545654773712158203125</LongitudeDegrees>
            </Position>
            <AltitudeMeters>1575.800048828125</AltitudeMeters>
            <DistanceMeters>NAN</DistanceMeters>
          </Trackpoint>
          <Trackpoint>
            <Time>2021-08-03T04:24:21.000Z</Time>
            <Position>
              <LatitudeDegrees>-15.3459680266678333282470703125</LatitudeDegrees>
              <LongitudeDegrees>37.07601570524275302886962890625</LongitudeDegrees>
            </Position>
            <AltitudeMeters>1577</AltitudeMeters>
            <DistanceMeters>NAN</DistanceMeters>
          </Trackpoint>
          <Trackpoint>
            <Time>2021-08-03T04:24:25.000Z</Time>
            <Position>
              <LatitudeDegrees>-15.34599208272993564605712890625</LatitudeDegrees>
              <LongitudeDegrees>37.07602056674659252166748046875</LongitudeDegrees>
            </Position>
            <AltitudeMeters>1577.800048828125</AltitudeMeters>
            <DistanceMeters>NAN</DistanceMeters>
          </Trackpoint>
          <Trackpoint>
            <Time>2021-08-03T04:24:26.000Z</Time>
            <Position>
              <LatitudeDegrees>-15.34599811770021915435791015625</LatitudeDegrees>
              <LongitudeDegrees>37.07601905800402164459228515625</LongitudeDegrees>
            </Position>
            <AltitudeMeters>1578.199951171875</AltitudeMeters>
            <DistanceMeters>NAN</DistanceMeters>
          </Trackpoint>
          <Trackpoint>
            <Time>2021-08-03T04:24:30.000Z</Time>
            <Position>
              <LatitudeDegrees>-15.34602041356265544891357421875</LatitudeDegrees>
              <LongitudeDegrees>37.076022326946258544921875</LongitudeDegrees>
            </Position>
            <AltitudeMeters>1579.4000244140625</AltitudeMeters>
            <DistanceMeters>NAN</DistanceMeters>
          </Trackpoint>
          <Trackpoint>
            <Time>2021-08-03T04:24:34.000Z</Time>
            <Position>
              <LatitudeDegrees>-15.3460357524454593658447265625</LatitudeDegrees>
              <LongitudeDegrees>37.07603146322071552276611328125</LongitudeDegrees>
            </Position>
            <AltitudeMeters>1580.5999755859375</AltitudeMeters>
            <DistanceMeters>NAN</DistanceMeters>
          </Trackpoint>
          <Trackpoint>
            <Time>2021-08-03T04:24:38.000Z</Time>
            <Position>
              <LatitudeDegrees>-15.34605846740305423736572265625</LatitudeDegrees>
              <LongitudeDegrees>37.0760369114577770233154296875</LongitudeDegrees>
            </Position>
            <AltitudeMeters>1581.199951171875</AltitudeMeters>
            <DistanceMeters>NAN</DistanceMeters>
          </Trackpoint>
          <Trackpoint>
            <Time>2021-08-03T04:24:41.000Z</Time>
            <Position>
              <LatitudeDegrees>-15.3460729680955410003662109375</LatitudeDegrees>
              <LongitudeDegrees>37.07604018040001392364501953125</LongitudeDegrees>
            </Position>
            <AltitudeMeters>1582</AltitudeMeters>
            <DistanceMeters>NAN</DistanceMeters>
          </Trackpoint>
          <Trackpoint>
            <Time>2021-08-03T04:24:46.000Z</Time>
            <Position>
              <LatitudeDegrees>-15.34611068665981292724609375</LatitudeDegrees>
              <LongitudeDegrees>37.0760419405996799468994140625</LongitudeDegrees>
            </Position>
            <AltitudeMeters>1583.199951171875</AltitudeMeters>
            <DistanceMeters>NAN</DistanceMeters>
          </Trackpoint>
          <Trackpoint>
            <Time>2021-08-03T04:24:47.000Z</Time>
            <Position>
              <LatitudeDegrees>-15.34611563198268413543701171875</LatitudeDegrees>
              <LongitudeDegrees>37.07604085095226764678955078125</LongitudeDegrees>
            </Position>
            <AltitudeMeters>1583.5999755859375</AltitudeMeters>
            <DistanceMeters>NAN</DistanceMeters>
          </Trackpoint>
          <Trackpoint>
            <Time>2021-08-03T04:24:51.000Z</Time>
            <Position>
              <LatitudeDegrees>-15.34612812101840972900390625</LatitudeDegrees>
              <LongitudeDegrees>37.0760412700474262237548828125</LongitudeDegrees>
            </Position>
            <AltitudeMeters>1584.5999755859375</AltitudeMeters>
            <DistanceMeters>NAN</DistanceMeters>
          </Trackpoint>
          <Trackpoint>
            <Time>2021-08-03T04:24:54.000Z</Time>
            <Position>
              <LatitudeDegrees>-15.3461608104407787322998046875</LatitudeDegrees>
              <LongitudeDegrees>37.07603372633457183837890625</LongitudeDegrees>
            </Position>
            <AltitudeMeters>1585.199951171875</AltitudeMeters>
            <DistanceMeters>NAN</DistanceMeters>
          </Trackpoint>
          <Trackpoint>
            <Time>2021-08-03T04:24:56.000Z</Time>
            <Position>
              <LatitudeDegrees>-15.34618034027516841888427734375</LatitudeDegrees>
              <LongitudeDegrees>37.07603598944842815399169921875</LongitudeDegrees>
            </Position>
            <AltitudeMeters>1585.5999755859375</AltitudeMeters>
            <DistanceMeters>NAN</DistanceMeters>
          </Trackpoint>
          <Trackpoint>
            <Time>2021-08-03T04:25:00.000Z</Time>
            <Position>
              <LatitudeDegrees>-15.3462033905088901519775390625</LatitudeDegrees>
              <LongitudeDegrees>37.07603515125811100006103515625</LongitudeDegrees>
            </Position>
            <AltitudeMeters>1586.5999755859375</AltitudeMeters>
            <DistanceMeters>NAN</DistanceMeters>
          </Trackpoint>
          <Trackpoint>
            <Time>2021-08-03T04:25:02.000Z</Time>
            <Position>
              <LatitudeDegrees>-15.34622241742908954620361328125</LatitudeDegrees>
              <LongitudeDegrees>37.07603037357330322265625</LongitudeDegrees>
            </Position>
            <AltitudeMeters>1586.800048828125</AltitudeMeters>
            <DistanceMeters>NAN</DistanceMeters>
          </Trackpoint>
          <Trackpoint>
            <Time>2021-08-03T04:25:04.000Z</Time>
            <Position>
              <LatitudeDegrees>-15.3462399356067180633544921875</LatitudeDegrees>
              <LongitudeDegrees>37.0760359056293964385986328125</LongitudeDegrees>
            </Position>
            <AltitudeMeters>1587.5999755859375</AltitudeMeters>
            <DistanceMeters>NAN</DistanceMeters>
          </Trackpoint>
          <Trackpoint>
            <Time>2021-08-03T04:25:10.000Z</Time>
            <Position>
              <LatitudeDegrees>-15.34626893699169158935546875</LatitudeDegrees>
              <LongitudeDegrees>37.076028026640415191650390625</LongitudeDegrees>
            </Position>
            <AltitudeMeters>1589</AltitudeMeters>
            <DistanceMeters>NAN</DistanceMeters>
          </Trackpoint>
          <Trackpoint>
            <Time>2021-08-03T04:25:12.000Z</Time>
            <Position>
              <LatitudeDegrees>-15.34627824090421199798583984375</LatitudeDegrees>
              <LongitudeDegrees>37.0760258473455905914306640625</LongitudeDegrees>
            </Position>
            <AltitudeMeters>1589.4000244140625</AltitudeMeters>
            <DistanceMeters>NAN</DistanceMeters>
          </Trackpoint>
          <Trackpoint>
            <Time>2021-08-03T04:25:16.000Z</Time>
            <Position>
              <LatitudeDegrees>-15.346291400492191314697265625</LatitudeDegrees>
              <LongitudeDegrees>37.0760315470397472381591796875</LongitudeDegrees>
            </Position>
            <AltitudeMeters>1590.4000244140625</AltitudeMeters>
            <DistanceMeters>NAN</DistanceMeters>
          </Trackpoint>
          <Trackpoint>
            <Time>2021-08-03T04:25:19.000Z</Time>
            <Position>
              <LatitudeDegrees>-15.3463036380708217620849609375</LatitudeDegrees>
              <LongitudeDegrees>37.076036743819713592529296875</LongitudeDegrees>
            </Position>
            <AltitudeMeters>1590.800048828125</AltitudeMeters>
            <DistanceMeters>NAN</DistanceMeters>
          </Trackpoint>
          <Trackpoint>
            <Time>2021-08-03T04:25:21.000Z</Time>
            <Position>
              <LatitudeDegrees>-15.34631042741239070892333984375</LatitudeDegrees>
              <LongitudeDegrees>37.07602911628782749176025390625</LongitudeDegrees>
            </Position>
            <AltitudeMeters>1591.5999755859375</AltitudeMeters>
            <DistanceMeters>NAN</DistanceMeters>
          </Trackpoint>
          <Trackpoint>
            <Time>2021-08-03T04:25:26.000Z</Time>
            <Position>
              <LatitudeDegrees>-15.34634194336831569671630859375</LatitudeDegrees>
              <LongitudeDegrees>37.076027691364288330078125</LongitudeDegrees>
            </Position>
            <AltitudeMeters>1592.800048828125</AltitudeMeters>
            <DistanceMeters>NAN</DistanceMeters>
          </Trackpoint>
          <Trackpoint>
            <Time>2021-08-03T04:25:27.000Z</Time>
            <Position>
              <LatitudeDegrees>-15.346345715224742889404296875</LatitudeDegrees>
              <LongitudeDegrees>37.07602995447814464569091796875</LongitudeDegrees>
            </Position>
            <AltitudeMeters>1592.800048828125</AltitudeMeters>
            <DistanceMeters>NAN</DistanceMeters>
          </Trackpoint>
          <Trackpoint>
            <Time>2021-08-03T04:25:32.000Z</Time>
            <Position>
              <LatitudeDegrees>-15.346371866762638092041015625</LatitudeDegrees>
              <LongitudeDegrees>37.0760308764874935150146484375</LongitudeDegrees>
            </Position>
            <AltitudeMeters>1594.199951171875</AltitudeMeters>
            <DistanceMeters>NAN</DistanceMeters>
          </Trackpoint>
          <Trackpoint>
            <Time>2021-08-03T04:25:36.000Z</Time>
            <Position>
              <LatitudeDegrees>-15.34639298915863037109375</LatitudeDegrees>
              <LongitudeDegrees>37.07603330723941326141357421875</LongitudeDegrees>
            </Position>
            <AltitudeMeters>1595.199951171875</AltitudeMeters>
            <DistanceMeters>NAN</DistanceMeters>
          </Trackpoint>
          <Trackpoint>
            <Time>2021-08-03T04:25:37.000Z</Time>
            <Position>
              <LatitudeDegrees>-15.3464005328714847564697265625</LatitudeDegrees>
              <LongitudeDegrees>37.07603330723941326141357421875</LongitudeDegrees>
            </Position>
            <AltitudeMeters>1595.4000244140625</AltitudeMeters>
            <DistanceMeters>NAN</DistanceMeters>
          </Trackpoint>
          <Trackpoint>
            <Time>2021-08-03T04:25:41.000Z</Time>
            <Position>
              <LatitudeDegrees>-15.34643263556063175201416015625</LatitudeDegrees>
              <LongitudeDegrees>37.07603230141103267669677734375</LongitudeDegrees>
            </Position>
            <AltitudeMeters>1596.5999755859375</AltitudeMeters>
            <DistanceMeters>NAN</DistanceMeters>
          </Trackpoint>
          <Trackpoint>
            <Time>2021-08-03T04:25:42.000Z</Time>
            <Position>
              <LatitudeDegrees>-15.34643615595996379852294921875</LatitudeDegrees>
              <LongitudeDegrees>37.07603464834392070770263671875</LongitudeDegrees>
            </Position>
            <AltitudeMeters>1596.5999755859375</AltitudeMeters>
            <DistanceMeters>NAN</DistanceMeters>
          </Trackpoint>
          <Trackpoint>
            <Time>2021-08-03T04:25:46.000Z</Time>
            <Position>
              <LatitudeDegrees>-15.34644906409084796905517578125</LatitudeDegrees>
              <LongitudeDegrees>37.07604621537029743194580078125</LongitudeDegrees>
            </Position>
            <AltitudeMeters>1597.800048828125</AltitudeMeters>
            <DistanceMeters>NAN</DistanceMeters>
          </Trackpoint>
          <Trackpoint>
            <Time>2021-08-03T04:25:50.000Z</Time>
            <Position>
              <LatitudeDegrees>-15.34646876156330108642578125</LatitudeDegrees>
              <LongitudeDegrees>37.0760536752641201019287109375</LongitudeDegrees>
            </Position>
            <AltitudeMeters>1599</AltitudeMeters>
            <DistanceMeters>NAN</DistanceMeters>
          </Trackpoint>
          <Trackpoint>
            <Time>2021-08-03T04:25:54.000Z</Time>
            <Position>
              <LatitudeDegrees>-15.34648510627448558807373046875</LatitudeDegrees>
              <LongitudeDegrees>37.0760571956634521484375</LongitudeDegrees>
            </Position>
            <AltitudeMeters>1599.800048828125</AltitudeMeters>
            <DistanceMeters>NAN</DistanceMeters>
          </Trackpoint>
          <Trackpoint>
            <Time>2021-08-03T04:25:55.000Z</Time>
            <Position>
              <LatitudeDegrees>-15.34648980014026165008544921875</LatitudeDegrees>
              <LongitudeDegrees>37.07605929113924503326416015625</LongitudeDegrees>
            </Position>
            <AltitudeMeters>1600</AltitudeMeters>
            <DistanceMeters>NAN</DistanceMeters>
          </Trackpoint>
          <Trackpoint>
            <Time>2021-08-03T04:26:00.000Z</Time>
            <Position>
              <LatitudeDegrees>-15.3465141914784908294677734375</LatitudeDegrees>
              <LongitudeDegrees>37.07606054842472076416015625</LongitudeDegrees>
            </Position>
            <AltitudeMeters>1601.4000244140625</AltitudeMeters>
            <DistanceMeters>NAN</DistanceMeters>
          </Trackpoint>
          <Trackpoint>
            <Time>2021-08-03T04:26:02.000Z</Time>
            <Position>
              <LatitudeDegrees>-15.34652232192456722259521484375</LatitudeDegrees>
              <LongitudeDegrees>37.07606079988181591033935546875</LongitudeDegrees>
            </Position>
            <AltitudeMeters>1601.800048828125</AltitudeMeters>
            <DistanceMeters>NAN</DistanceMeters>
          </Trackpoint>
          <Trackpoint>
            <Time>2021-08-03T04:26:06.000Z</Time>
            <Position>
              <LatitudeDegrees>-15.34655450843274593353271484375</LatitudeDegrees>
              <LongitudeDegrees>37.076062224805355072021484375</LongitudeDegrees>
            </Position>
            <AltitudeMeters>1602.5999755859375</AltitudeMeters>
            <DistanceMeters>NAN</DistanceMeters>
          </Trackpoint>
          <Trackpoint>
            <Time>2021-08-03T04:26:11.000Z</Time>
            <Position>
              <LatitudeDegrees>-15.34657630138099193572998046875</LatitudeDegrees>
              <LongitudeDegrees>37.07604973576962947845458984375</LongitudeDegrees>
            </Position>
            <AltitudeMeters>1603.800048828125</AltitudeMeters>
            <DistanceMeters>NAN</DistanceMeters>
          </Trackpoint>
          <Trackpoint>
            <Time>2021-08-03T04:26:12.000Z</Time>
            <Position>
              <LatitudeDegrees>-15.34658166579902172088623046875</LatitudeDegrees>
              <LongitudeDegrees>37.0760486461222171783447265625</LongitudeDegrees>
            </Position>
            <AltitudeMeters>1604.199951171875</AltitudeMeters>
            <DistanceMeters>NAN</DistanceMeters>
          </Trackpoint>
          <Trackpoint>
            <Time>2021-08-03T04:26:16.000Z</Time>
            <Position>
              <LatitudeDegrees>-15.3466033749282360076904296875</LatitudeDegrees>
              <LongitudeDegrees>37.07604847848415374755859375</LongitudeDegrees>
            </Position>
            <AltitudeMeters>1605</AltitudeMeters>
            <DistanceMeters>NAN</DistanceMeters>
          </Trackpoint>
          <Trackpoint>
            <Time>2021-08-03T04:26:19.000Z</Time>
            <Position>
              <LatitudeDegrees>-15.34661971963942050933837890625</LatitudeDegrees>
              <LongitudeDegrees>37.07605191506445407867431640625</LongitudeDegrees>
            </Position>
            <AltitudeMeters>1605.5999755859375</AltitudeMeters>
            <DistanceMeters>NAN</DistanceMeters>
          </Trackpoint>
          <Trackpoint>
            <Time>2021-08-03T04:26:20.000Z</Time>
            <Position>
              <LatitudeDegrees>-15.3466265089809894561767578125</LatitudeDegrees>
              <LongitudeDegrees>37.07605359144508838653564453125</LongitudeDegrees>
            </Position>
            <AltitudeMeters>1606</AltitudeMeters>
            <DistanceMeters>NAN</DistanceMeters>
          </Trackpoint>
          <Trackpoint>
            <Time>2021-08-03T04:26:25.000Z</Time>
            <Position>
              <LatitudeDegrees>-15.34665425308048725128173828125</LatitudeDegrees>
              <LongitudeDegrees>37.0760563574731349945068359375</LongitudeDegrees>
            </Position>
            <AltitudeMeters>1607</AltitudeMeters>
            <DistanceMeters>NAN</DistanceMeters>
          </Trackpoint>
          <Trackpoint>
            <Time>2021-08-03T04:26:28.000Z</Time>
            <Position>
              <LatitudeDegrees>-15.346669256687164306640625</LatitudeDegrees>
              <LongitudeDegrees>37.07605912350118160247802734375</LongitudeDegrees>
            </Position>
            <AltitudeMeters>1607.800048828125</AltitudeMeters>
            <DistanceMeters>NAN</DistanceMeters>
          </Trackpoint>
          <Trackpoint>
            <Time>2021-08-03T04:26:29.000Z</Time>
            <Position>
              <LatitudeDegrees>-15.346674285829067230224609375</LatitudeDegrees>
              <LongitudeDegrees>37.07605996169149875640869140625</LongitudeDegrees>
            </Position>
            <AltitudeMeters>1608.199951171875</AltitudeMeters>
            <DistanceMeters>NAN</DistanceMeters>
          </Trackpoint>
          <Trackpoint>
            <Time>2021-08-03T04:26:35.000Z</Time>
            <Position>
              <LatitudeDegrees>-15.34670923836529254913330078125</LatitudeDegrees>
              <LongitudeDegrees>37.07606130279600620269775390625</LongitudeDegrees>
            </Position>
            <AltitudeMeters>1609.199951171875</AltitudeMeters>
            <DistanceMeters>NAN</DistanceMeters>
          </Trackpoint>
          <Trackpoint>
            <Time>2021-08-03T04:26:38.000Z</Time>
            <Position>
              <LatitudeDegrees>-15.34672625362873077392578125</LatitudeDegrees>
              <LongitudeDegrees>37.07606323063373565673828125</LongitudeDegrees>
            </Position>
            <AltitudeMeters>1610.199951171875</AltitudeMeters>
            <DistanceMeters>NAN</DistanceMeters>
          </Trackpoint>
          <Trackpoint>
            <Time>2021-08-03T04:26:43.000Z</Time>
            <Position>
              <LatitudeDegrees>-15.34674796275794506072998046875</LatitudeDegrees>
              <LongitudeDegrees>37.0760533399879932403564453125</LongitudeDegrees>
            </Position>
            <AltitudeMeters>1611.199951171875</AltitudeMeters>
            <DistanceMeters>NAN</DistanceMeters>
          </Trackpoint>
          <Trackpoint>
            <Time>2021-08-03T04:26:46.000Z</Time>
            <Position>
              <LatitudeDegrees>-15.346764139831066131591796875</LatitudeDegrees>
              <LongitudeDegrees>37.07604520954191684722900390625</LongitudeDegrees>
            </Position>
            <AltitudeMeters>1611.800048828125</AltitudeMeters>
            <DistanceMeters>NAN</DistanceMeters>
          </Trackpoint>
          <Trackpoint>
            <Time>2021-08-03T04:26:48.000Z</Time>
            <Position>
              <LatitudeDegrees>-15.346778891980648040771484375</LatitudeDegrees>
              <LongitudeDegrees>37.07604018040001392364501953125</LongitudeDegrees>
            </Position>
            <AltitudeMeters>1612.4000244140625</AltitudeMeters>
            <DistanceMeters>NAN</DistanceMeters>
          </Trackpoint>
          <Trackpoint>
            <Time>2021-08-03T04:26:53.000Z</Time>
            <Position>
              <LatitudeDegrees>-15.34680915065109729766845703125</LatitudeDegrees>
              <LongitudeDegrees>37.07602970302104949951171875</LongitudeDegrees>
            </Position>
            <AltitudeMeters>1613.4000244140625</AltitudeMeters>
            <DistanceMeters>NAN</DistanceMeters>
          </Trackpoint>
          <Trackpoint>
            <Time>2021-08-03T04:26:56.000Z</Time>
            <Position>
              <LatitudeDegrees>-15.346826501190662384033203125</LatitudeDegrees>
              <LongitudeDegrees>37.07602442242205142974853515625</LongitudeDegrees>
            </Position>
            <AltitudeMeters>1614</AltitudeMeters>
            <DistanceMeters>NAN</DistanceMeters>
          </Trackpoint>
          <Trackpoint>
            <Time>2021-08-03T04:26:57.000Z</Time>
            <Position>
              <LatitudeDegrees>-15.3468330390751361846923828125</LatitudeDegrees>
              <LongitudeDegrees>37.07602224312722682952880859375</LongitudeDegrees>
            </Position>
            <AltitudeMeters>1614.4000244140625</AltitudeMeters>
            <DistanceMeters>NAN</DistanceMeters>
          </Trackpoint>
          <Trackpoint>
            <Time>2021-08-03T04:26:58.000Z</Time>
            <Position>
              <LatitudeDegrees>-15.34683982841670513153076171875</LatitudeDegrees>
              <LongitudeDegrees>37.0760191418230533599853515625</LongitudeDegrees>
            </Position>
            <AltitudeMeters>1614.5999755859375</AltitudeMeters>
            <DistanceMeters>NAN</DistanceMeters>
          </Trackpoint>
          <Trackpoint>
            <Time>2021-08-03T04:27:01.000Z</Time>
            <Position>
              <LatitudeDegrees>-15.34685659222304821014404296875</LatitudeDegrees>
              <LongitudeDegrees>37.0760070718824863433837890625</LongitudeDegrees>
            </Position>
            <AltitudeMeters>1615.4000244140625</AltitudeMeters>
            <DistanceMeters>NAN</DistanceMeters>
          </Trackpoint>
          <Trackpoint>
            <Time>2021-08-03T04:27:05.000Z</Time>
            <Position>
              <LatitudeDegrees>-15.3468803130090236663818359375</LatitudeDegrees>
              <LongitudeDegrees>37.075993828475475311279296875</LongitudeDegrees>
            </Position>
            <AltitudeMeters>1615.800048828125</AltitudeMeters>
            <DistanceMeters>NAN</DistanceMeters>
          </Trackpoint>
          <Trackpoint>
            <Time>2021-08-03T04:27:07.000Z</Time>
            <Position>
              <LatitudeDegrees>-15.3468920476734638214111328125</LatitudeDegrees>
              <LongitudeDegrees>37.0759923197329044342041015625</LongitudeDegrees>
            </Position>
            <AltitudeMeters>1616.4000244140625</AltitudeMeters>
            <DistanceMeters>NAN</DistanceMeters>
          </Trackpoint>
          <Trackpoint>
            <Time>2021-08-03T04:27:09.000Z</Time>
            <Position>
              <LatitudeDegrees>-15.346906967461109161376953125</LatitudeDegrees>
              <LongitudeDegrees>37.07599173299968242645263671875</LongitudeDegrees>
            </Position>
            <AltitudeMeters>1617</AltitudeMeters>
            <DistanceMeters>NAN</DistanceMeters>
          </Trackpoint>
          <Trackpoint>
            <Time>2021-08-03T04:27:14.000Z</Time>
            <Position>
              <LatitudeDegrees>-15.346948206424713134765625</LatitudeDegrees>
              <LongitudeDegrees>37.07598770968616008758544921875</LongitudeDegrees>
            </Position>
            <AltitudeMeters>1618.199951171875</AltitudeMeters>
            <DistanceMeters>NAN</DistanceMeters>
          </Trackpoint>
          <Trackpoint>
            <Time>2021-08-03T04:27:16.000Z</Time>
            <Position>
              <LatitudeDegrees>-15.3469624556601047515869140625</LatitudeDegrees>
              <LongitudeDegrees>37.0759869553148746490478515625</LongitudeDegrees>
            </Position>
            <AltitudeMeters>1618.5999755859375</AltitudeMeters>
            <DistanceMeters>NAN</DistanceMeters>
          </Trackpoint>
          <Trackpoint>
            <Time>2021-08-03T04:27:17.000Z</Time>
            <Position>
              <LatitudeDegrees>-15.3469664789736270904541015625</LatitudeDegrees>
              <LongitudeDegrees>37.07598603330552577972412109375</LongitudeDegrees>
            </Position>
            <AltitudeMeters>1619</AltitudeMeters>
            <DistanceMeters>NAN</DistanceMeters>
          </Trackpoint>
          <Trackpoint>
            <Time>2021-08-03T04:27:18.000Z</Time>
            <Position>
              <LatitudeDegrees>-15.346972011029720306396484375</LatitudeDegrees>
              <LongitudeDegrees>37.07598276436328887939453125</LongitudeDegrees>
            </Position>
            <AltitudeMeters>1619.4000244140625</AltitudeMeters>
            <DistanceMeters>NAN</DistanceMeters>
          </Trackpoint>
          <Trackpoint>
            <Time>2021-08-03T04:27:19.000Z</Time>
            <Position>
              <LatitudeDegrees>-15.34697880037128925323486328125</LatitudeDegrees>
              <LongitudeDegrees>37.075979746878147125244140625</LongitudeDegrees>
            </Position>
            <AltitudeMeters>1619.5999755859375</AltitudeMeters>
            <DistanceMeters>NAN</DistanceMeters>
          </Trackpoint>
          <Trackpoint>
            <Time>2021-08-03T04:27:21.000Z</Time>
            <Position>
              <LatitudeDegrees>-15.3469916246831417083740234375</LatitudeDegrees>
              <LongitudeDegrees>37.07597748376429080963134765625</LongitudeDegrees>
            </Position>
            <AltitudeMeters>1620.199951171875</AltitudeMeters>
            <DistanceMeters>NAN</DistanceMeters>
          </Trackpoint>
          <Trackpoint>
            <Time>2021-08-03T04:27:23.000Z</Time>
            <Position>
              <LatitudeDegrees>-15.347000844776630401611328125</LatitudeDegrees>
              <LongitudeDegrees>37.07598485983908176422119140625</LongitudeDegrees>
            </Position>
            <AltitudeMeters>1620.5999755859375</AltitudeMeters>
            <DistanceMeters>NAN</DistanceMeters>
          </Trackpoint>
          <Trackpoint>
            <Time>2021-08-03T04:27:25.000Z</Time>
            <Position>
              <LatitudeDegrees>-15.3470053710043430328369140625</LatitudeDegrees>
              <LongitudeDegrees>37.075991816818714141845703125</LongitudeDegrees>
            </Position>
            <AltitudeMeters>1621.199951171875</AltitudeMeters>
            <DistanceMeters>NAN</DistanceMeters>
          </Trackpoint>
          <Trackpoint>
            <Time>2021-08-03T04:27:27.000Z</Time>
            <Position>
              <LatitudeDegrees>-15.34701366908848285675048828125</LatitudeDegrees>
              <LongitudeDegrees>37.0759963430464267730712890625</LongitudeDegrees>
            </Position>
            <AltitudeMeters>1621.800048828125</AltitudeMeters>
            <DistanceMeters>NAN</DistanceMeters>
          </Trackpoint>
          <Trackpoint>
            <Time>2021-08-03T04:27:28.000Z</Time>
            <Position>
              <LatitudeDegrees>-15.34701819531619548797607421875</LatitudeDegrees>
              <LongitudeDegrees>37.0760003663599491119384765625</LongitudeDegrees>
            </Position>
            <AltitudeMeters>1622</AltitudeMeters>
            <DistanceMeters>NAN</DistanceMeters>
          </Trackpoint>
          <Trackpoint>
            <Time>2021-08-03T04:27:31.000Z</Time>
            <Position>
              <LatitudeDegrees>-15.34702875651419162750244140625</LatitudeDegrees>
              <LongitudeDegrees>37.07602023147046566009521484375</LongitudeDegrees>
            </Position>
            <AltitudeMeters>1622.800048828125</AltitudeMeters>
            <DistanceMeters>NAN</DistanceMeters>
          </Trackpoint>
          <Trackpoint>
            <Time>2021-08-03T04:27:33.000Z</Time>
            <Position>
              <LatitudeDegrees>-15.34703336656093597412109375</LatitudeDegrees>
              <LongitudeDegrees>37.07602626644074916839599609375</LongitudeDegrees>
            </Position>
            <AltitudeMeters>1623.199951171875</AltitudeMeters>
            <DistanceMeters>NAN</DistanceMeters>
          </Trackpoint>
          <Trackpoint>
            <Time>2021-08-03T04:27:35.000Z</Time>
            <Position>
              <LatitudeDegrees>-15.3470432572066783905029296875</LatitudeDegrees>
              <LongitudeDegrees>37.07603833638131618499755859375</LongitudeDegrees>
            </Position>
            <AltitudeMeters>1624</AltitudeMeters>
            <DistanceMeters>NAN</DistanceMeters>
          </Trackpoint>
          <Trackpoint>
            <Time>2021-08-03T04:27:40.000Z</Time>
            <Position>
              <LatitudeDegrees>-15.3470536507666110992431640625</LatitudeDegrees>
              <LongitudeDegrees>37.07606264390051364898681640625</LongitudeDegrees>
            </Position>
            <AltitudeMeters>1625.199951171875</AltitudeMeters>
            <DistanceMeters>NAN</DistanceMeters>
          </Trackpoint>
          <Trackpoint>
            <Time>2021-08-03T04:27:44.000Z</Time>
            <Position>
              <LatitudeDegrees>-15.34706597216427326202392578125</LatitudeDegrees>
              <LongitudeDegrees>37.07607932388782501220703125</LongitudeDegrees>
            </Position>
            <AltitudeMeters>1626.199951171875</AltitudeMeters>
            <DistanceMeters>NAN</DistanceMeters>
          </Trackpoint>
          <Trackpoint>
            <Time>2021-08-03T04:27:49.000Z</Time>
            <Position>
              <LatitudeDegrees>-15.34707820974290370941162109375</LatitudeDegrees>
              <LongitudeDegrees>37.0760727860033512115478515625</LongitudeDegrees>
            </Position>
            <AltitudeMeters>1627.4000244140625</AltitudeMeters>
            <DistanceMeters>NAN</DistanceMeters>
          </Trackpoint>
          <Trackpoint>
            <Time>2021-08-03T04:27:50.000Z</Time>
            <Position>
              <LatitudeDegrees>-15.34708022139966487884521484375</LatitudeDegrees>
              <LongitudeDegrees>37.0760701037943363189697265625</LongitudeDegrees>
            </Position>
            <AltitudeMeters>1627.4000244140625</AltitudeMeters>
            <DistanceMeters>NAN</DistanceMeters>
          </Trackpoint>
          <Trackpoint>
            <Time>2021-08-03T04:27:57.000Z</Time>
            <Position>
              <LatitudeDegrees>-15.34710452891886234283447265625</LatitudeDegrees>
              <LongitudeDegrees>37.07608024589717388153076171875</LongitudeDegrees>
            </Position>
            <AltitudeMeters>1628.5999755859375</AltitudeMeters>
            <DistanceMeters>NAN</DistanceMeters>
          </Trackpoint>
          <Trackpoint>
            <Time>2021-08-03T04:28:01.000Z</Time>
            <Position>
              <LatitudeDegrees>-15.34711190499365329742431640625</LatitudeDegrees>
              <LongitudeDegrees>37.07608963362872600555419921875</LongitudeDegrees>
            </Position>
            <AltitudeMeters>1629.5999755859375</AltitudeMeters>
            <DistanceMeters>NAN</DistanceMeters>
          </Trackpoint>
          <Trackpoint>
            <Time>2021-08-03T04:28:02.000Z</Time>
            <Position>
              <LatitudeDegrees>-15.3471150062978267669677734375</LatitudeDegrees>
              <LongitudeDegrees>37.07609198056161403656005859375</LongitudeDegrees>
            </Position>
            <AltitudeMeters>1629.800048828125</AltitudeMeters>
            <DistanceMeters>NAN</DistanceMeters>
          </Trackpoint>
          <Trackpoint>
            <Time>2021-08-03T04:28:06.000Z</Time>
            <Position>
              <LatitudeDegrees>-15.3471247293055057525634765625</LatitudeDegrees>
              <LongitudeDegrees>37.0761066488921642303466796875</LongitudeDegrees>
            </Position>
            <AltitudeMeters>1630.5999755859375</AltitudeMeters>
            <DistanceMeters>NAN</DistanceMeters>
          </Trackpoint>
          <Trackpoint>
            <Time>2021-08-03T04:28:09.000Z</Time>
            <Position>
              <LatitudeDegrees>-15.34713570959866046905517578125</LatitudeDegrees>
              <LongitudeDegrees>37.07611679099500179290771484375</LongitudeDegrees>
            </Position>
            <AltitudeMeters>1631</AltitudeMeters>
            <DistanceMeters>NAN</DistanceMeters>
          </Trackpoint>
          <Trackpoint>
            <Time>2021-08-03T04:28:13.000Z</Time>
            <Position>
              <LatitudeDegrees>-15.347154401242733001708984375</LatitudeDegrees>
              <LongitudeDegrees>37.07613891921937465667724609375</LongitudeDegrees>
            </Position>
            <AltitudeMeters>1632.199951171875</AltitudeMeters>
            <DistanceMeters>NAN</DistanceMeters>
          </Trackpoint>
          <Trackpoint>
            <Time>2021-08-03T04:28:15.000Z</Time>
            <Position>
              <LatitudeDegrees>-15.347168482840061187744140625</LatitudeDegrees>
              <LongitudeDegrees>37.07613908685743808746337890625</LongitudeDegrees>
            </Position>
            <AltitudeMeters>1632.5999755859375</AltitudeMeters>
            <DistanceMeters>NAN</DistanceMeters>
          </Trackpoint>
          <Trackpoint>
            <Time>2021-08-03T04:28:17.000Z</Time>
            <Position>
              <LatitudeDegrees>-15.3471787087619304656982421875</LatitudeDegrees>
              <LongitudeDegrees>37.07613523118197917938232421875</LongitudeDegrees>
            </Position>
            <AltitudeMeters>1633.199951171875</AltitudeMeters>
            <DistanceMeters>NAN</DistanceMeters>
          </Trackpoint>
          <Trackpoint>
            <Time>2021-08-03T04:28:18.000Z</Time>
            <Position>
              <LatitudeDegrees>-15.34718449227511882781982421875</LatitudeDegrees>
              <LongitudeDegrees>37.076135985553264617919921875</LongitudeDegrees>
            </Position>
            <AltitudeMeters>1633.800048828125</AltitudeMeters>
            <DistanceMeters>NAN</DistanceMeters>
          </Trackpoint>
          <Trackpoint>
            <Time>2021-08-03T04:28:23.000Z</Time>
            <Position>
              <LatitudeDegrees>-15.34720377065241336822509765625</LatitudeDegrees>
              <LongitudeDegrees>37.07615710794925689697265625</LongitudeDegrees>
            </Position>
            <AltitudeMeters>1634.800048828125</AltitudeMeters>
            <DistanceMeters>NAN</DistanceMeters>
          </Trackpoint>
          <Trackpoint>
            <Time>2021-08-03T04:28:25.000Z</Time>
            <Position>
              <LatitudeDegrees>-15.3472105599939823150634765625</LatitudeDegrees>
              <LongitudeDegrees>37.076166160404682159423828125</LongitudeDegrees>
            </Position>
            <AltitudeMeters>1635.199951171875</AltitudeMeters>
            <DistanceMeters>NAN</DistanceMeters>
          </Trackpoint>
          <Trackpoint>
            <Time>2021-08-03T04:28:27.000Z</Time>
            <Position>
              <LatitudeDegrees>-15.34721869044005870819091796875</LatitudeDegrees>
              <LongitudeDegrees>37.07617194391787052154541015625</LongitudeDegrees>
            </Position>
            <AltitudeMeters>1635.800048828125</AltitudeMeters>
            <DistanceMeters>NAN</DistanceMeters>
          </Trackpoint>
          <Trackpoint>
            <Time>2021-08-03T04:28:28.000Z</Time>
            <Position>
              <LatitudeDegrees>-15.3472246415913105010986328125</LatitudeDegrees>
              <LongitudeDegrees>37.0761760510504245758056640625</LongitudeDegrees>
            </Position>
            <AltitudeMeters>1635.800048828125</AltitudeMeters>
            <DistanceMeters>NAN</DistanceMeters>
          </Trackpoint>
          <Trackpoint>
            <Time>2021-08-03T04:28:32.000Z</Time>
            <Position>
              <LatitudeDegrees>-15.3472390584647655487060546875</LatitudeDegrees>
              <LongitudeDegrees>37.07618384622037410736083984375</LongitudeDegrees>
            </Position>
            <AltitudeMeters>1637</AltitudeMeters>
            <DistanceMeters>NAN</DistanceMeters>
          </Trackpoint>
          <Trackpoint>
            <Time>2021-08-03T04:28:33.000Z</Time>
            <Position>
              <LatitudeDegrees>-15.34723981283605098724365234375</LatitudeDegrees>
              <LongitudeDegrees>37.07618250511586666107177734375</LongitudeDegrees>
            </Position>
            <AltitudeMeters>1637</AltitudeMeters>
            <DistanceMeters>NAN</DistanceMeters>
          </Trackpoint>
          <Trackpoint>
            <Time>2021-08-03T04:28:38.000Z</Time>
            <Position>
              <LatitudeDegrees>-15.34725070931017398834228515625</LatitudeDegrees>
              <LongitudeDegrees>37.07618183456361293792724609375</LongitudeDegrees>
            </Position>
            <AltitudeMeters>1638.4000244140625</AltitudeMeters>
            <DistanceMeters>NAN</DistanceMeters>
          </Trackpoint>
          <Trackpoint>
            <Time>2021-08-03T04:28:42.000Z</Time>
            <Position>
              <LatitudeDegrees>-15.3472660481929779052734375</LatitudeDegrees>
              <LongitudeDegrees>37.07618569023907184600830078125</LongitudeDegrees>
            </Position>
            <AltitudeMeters>1639.5999755859375</AltitudeMeters>
            <DistanceMeters>NAN</DistanceMeters>
          </Trackpoint>
          <Trackpoint>
            <Time>2021-08-03T04:28:43.000Z</Time>
            <Position>
              <LatitudeDegrees>-15.3472766093909740447998046875</LatitudeDegrees>
              <LongitudeDegrees>37.07618703134357929229736328125</LongitudeDegrees>
            </Position>
            <AltitudeMeters>1639.5999755859375</AltitudeMeters>
            <DistanceMeters>NAN</DistanceMeters>
          </Trackpoint>
          <Trackpoint>
            <Time>2021-08-03T04:28:46.000Z</Time>
            <Position>
              <LatitudeDegrees>-15.347287841141223907470703125</LatitudeDegrees>
              <LongitudeDegrees>37.07619323395192623138427734375</LongitudeDegrees>
            </Position>
            <AltitudeMeters>1640.4000244140625</AltitudeMeters>
            <DistanceMeters>NAN</DistanceMeters>
          </Trackpoint>
          <Trackpoint>
            <Time>2021-08-03T04:28:48.000Z</Time>
            <Position>
              <LatitudeDegrees>-15.34729328937828540802001953125</LatitudeDegrees>
              <LongitudeDegrees>37.076192982494831085205078125</LongitudeDegrees>
            </Position>
            <AltitudeMeters>1640.800048828125</AltitudeMeters>
            <DistanceMeters>NAN</DistanceMeters>
          </Trackpoint>
          <Trackpoint>
            <Time>2021-08-03T04:28:51.000Z</Time>
            <Position>
              <LatitudeDegrees>-15.3473062813282012939453125</LatitudeDegrees>
              <LongitudeDegrees>37.07620798610150814056396484375</LongitudeDegrees>
            </Position>
            <AltitudeMeters>1641.800048828125</AltitudeMeters>
            <DistanceMeters>NAN</DistanceMeters>
          </Trackpoint>
          <Trackpoint>
            <Time>2021-08-03T04:28:52.000Z</Time>
            <Position>
              <LatitudeDegrees>-15.3473089635372161865234375</LatitudeDegrees>
              <LongitudeDegrees>37.076209746301174163818359375</LongitudeDegrees>
            </Position>
            <AltitudeMeters>1642</AltitudeMeters>
            <DistanceMeters>NAN</DistanceMeters>
          </Trackpoint>
          <Trackpoint>
            <Time>2021-08-03T04:28:54.000Z</Time>
            <Position>
              <LatitudeDegrees>-15.3473195247352123260498046875</LatitudeDegrees>
              <LongitudeDegrees>37.076213769614696502685546875</LongitudeDegrees>
            </Position>
            <AltitudeMeters>1642.4000244140625</AltitudeMeters>
            <DistanceMeters>NAN</DistanceMeters>
          </Trackpoint>
          <Trackpoint>
            <Time>2021-08-03T04:28:56.000Z</Time>
            <Position>
              <LatitudeDegrees>-15.347324721515178680419921875</LatitudeDegrees>
              <LongitudeDegrees>37.07622223533689975738525390625</LongitudeDegrees>
            </Position>
            <AltitudeMeters>1642.800048828125</AltitudeMeters>
            <DistanceMeters>NAN</DistanceMeters>
          </Trackpoint>
          <Trackpoint>
            <Time>2021-08-03T04:28:57.000Z</Time>
            <Position>
              <LatitudeDegrees>-15.34732681699097156524658203125</LatitudeDegrees>
              <LongitudeDegrees>37.07622684538364410400390625</LongitudeDegrees>
            </Position>
            <AltitudeMeters>1643</AltitudeMeters>
            <DistanceMeters>NAN</DistanceMeters>
          </Trackpoint>
          <Trackpoint>
            <Time>2021-08-03T04:28:58.000Z</Time>
            <Position>
              <LatitudeDegrees>-15.34732916392385959625244140625</LatitudeDegrees>
              <LongitudeDegrees>37.0762307010591030120849609375</LongitudeDegrees>
            </Position>
            <AltitudeMeters>1643.5999755859375</AltitudeMeters>
            <DistanceMeters>NAN</DistanceMeters>
          </Trackpoint>
          <Trackpoint>
            <Time>2021-08-03T04:28:59.000Z</Time>
            <Position>
              <LatitudeDegrees>-15.34733251668512821197509765625</LatitudeDegrees>
              <LongitudeDegrees>37.07623464055359363555908203125</LongitudeDegrees>
            </Position>
            <AltitudeMeters>1643.800048828125</AltitudeMeters>
            <DistanceMeters>NAN</DistanceMeters>
          </Trackpoint>
          <Trackpoint>
            <Time>2021-08-03T04:29:00.000Z</Time>
            <Position>
              <LatitudeDegrees>-15.34733503125607967376708984375</LatitudeDegrees>
              <LongitudeDegrees>37.07624000497162342071533203125</LongitudeDegrees>
            </Position>
            <AltitudeMeters>1644.4000244140625</AltitudeMeters>
            <DistanceMeters>NAN</DistanceMeters>
          </Trackpoint>
          <Trackpoint>
            <Time>2021-08-03T04:29:02.000Z</Time>
            <Position>
              <LatitudeDegrees>-15.34734039567410945892333984375</LatitudeDegrees>
              <LongitudeDegrees>37.07625475712120532989501953125</LongitudeDegrees>
            </Position>
            <AltitudeMeters>1644.800048828125</AltitudeMeters>
            <DistanceMeters>NAN</DistanceMeters>
          </Trackpoint>
          <Trackpoint>
            <Time>2021-08-03T04:29:03.000Z</Time>
            <Position>
              <LatitudeDegrees>-15.3473429940640926361083984375</LatitudeDegrees>
              <LongitudeDegrees>37.07625911571085453033447265625</LongitudeDegrees>
            </Position>
            <AltitudeMeters>1645.4000244140625</AltitudeMeters>
            <DistanceMeters>NAN</DistanceMeters>
          </Trackpoint>
          <Trackpoint>
            <Time>2021-08-03T04:29:04.000Z</Time>
            <Position>
              <LatitudeDegrees>-15.3473456762731075286865234375</LatitudeDegrees>
              <LongitudeDegrees>37.07626297138631343841552734375</LongitudeDegrees>
            </Position>
            <AltitudeMeters>1645.4000244140625</AltitudeMeters>
            <DistanceMeters>NAN</DistanceMeters>
          </Trackpoint>
          <Trackpoint>
            <Time>2021-08-03T04:29:07.000Z</Time>
            <Position>
              <LatitudeDegrees>-15.34735766239464282989501953125</LatitudeDegrees>
              <LongitudeDegrees>37.076277472078800201416015625</LongitudeDegrees>
            </Position>
            <AltitudeMeters>1646.4000244140625</AltitudeMeters>
            <DistanceMeters>NAN</DistanceMeters>
          </Trackpoint>
          <Trackpoint>
            <Time>2021-08-03T04:29:12.000Z</Time>
            <Position>
              <LatitudeDegrees>-15.3473624400794506072998046875</LatitudeDegrees>
              <LongitudeDegrees>37.076297588646411895751953125</LongitudeDegrees>
            </Position>
            <AltitudeMeters>1647.199951171875</AltitudeMeters>
            <DistanceMeters>NAN</DistanceMeters>
          </Trackpoint>
          <Trackpoint>
            <Time>2021-08-03T04:29:13.000Z</Time>
            <Position>
              <LatitudeDegrees>-15.3473664633929729461669921875</LatitudeDegrees>
              <LongitudeDegrees>37.07630060613155364990234375</LongitudeDegrees>
            </Position>
            <AltitudeMeters>1647.800048828125</AltitudeMeters>
            <DistanceMeters>NAN</DistanceMeters>
          </Trackpoint>
          <Trackpoint>
            <Time>2021-08-03T04:29:16.000Z</Time>
            <Position>
              <LatitudeDegrees>-15.3473688103258609771728515625</LatitudeDegrees>
              <LongitudeDegrees>37.07630856893956661224365234375</LongitudeDegrees>
            </Position>
            <AltitudeMeters>1648</AltitudeMeters>
            <DistanceMeters>NAN</DistanceMeters>
          </Trackpoint>
          <Trackpoint>
            <Time>2021-08-03T04:29:19.000Z</Time>
            <Position>
              <LatitudeDegrees>-15.347375683486461639404296875</LatitudeDegrees>
              <LongitudeDegrees>37.0763155259191989898681640625</LongitudeDegrees>
            </Position>
            <AltitudeMeters>1648.5999755859375</AltitudeMeters>
            <DistanceMeters>NAN</DistanceMeters>
          </Trackpoint>
          <Trackpoint>
            <Time>2021-08-03T04:29:20.000Z</Time>
            <Position>
              <LatitudeDegrees>-15.3473813831806182861328125</LatitudeDegrees>
              <LongitudeDegrees>37.076317705214023590087890625</LongitudeDegrees>
            </Position>
            <AltitudeMeters>1649</AltitudeMeters>
            <DistanceMeters>NAN</DistanceMeters>
          </Trackpoint>
          <Trackpoint>
            <Time>2021-08-03T04:29:23.000Z</Time>
            <Position>
              <LatitudeDegrees>-15.34738800488412380218505859375</LatitudeDegrees>
              <LongitudeDegrees>37.07631192170083522796630859375</LongitudeDegrees>
            </Position>
            <AltitudeMeters>1649.5999755859375</AltitudeMeters>
            <DistanceMeters>NAN</DistanceMeters>
          </Trackpoint>
          <Trackpoint>
            <Time>2021-08-03T04:29:24.000Z</Time>
            <Position>
              <LatitudeDegrees>-15.34738632850348949432373046875</LatitudeDegrees>
              <LongitudeDegrees>37.076310329139232635498046875</LongitudeDegrees>
            </Position>
            <AltitudeMeters>1650.4000244140625</AltitudeMeters>
            <DistanceMeters>NAN</DistanceMeters>
          </Trackpoint>
          <Trackpoint>
            <Time>2021-08-03T04:29:27.000Z</Time>
            <Position>
              <LatitudeDegrees>-15.34740376286208629608154296875</LatitudeDegrees>
              <LongitudeDegrees>37.0763041265308856964111328125</LongitudeDegrees>
            </Position>
            <AltitudeMeters>1651</AltitudeMeters>
            <DistanceMeters>NAN</DistanceMeters>
          </Trackpoint>
          <Trackpoint>
            <Time>2021-08-03T04:29:30.000Z</Time>
            <Position>
              <LatitudeDegrees>-15.3474170900881290435791015625</LatitudeDegrees>
              <LongitudeDegrees>37.0762974210083484649658203125</LongitudeDegrees>
            </Position>
            <AltitudeMeters>1652</AltitudeMeters>
            <DistanceMeters>NAN</DistanceMeters>
          </Trackpoint>
          <Trackpoint>
            <Time>2021-08-03T04:29:33.000Z</Time>
            <Position>
              <LatitudeDegrees>-15.34741901792585849761962890625</LatitudeDegrees>
              <LongitudeDegrees>37.0762826688587665557861328125</LongitudeDegrees>
            </Position>
            <AltitudeMeters>1652.800048828125</AltitudeMeters>
            <DistanceMeters>NAN</DistanceMeters>
          </Trackpoint>
          <Trackpoint>
            <Time>2021-08-03T04:29:36.000Z</Time>
            <Position>
              <LatitudeDegrees>-15.34743226133286952972412109375</LatitudeDegrees>
              <LongitudeDegrees>37.07627403549849987030029296875</LongitudeDegrees>
            </Position>
            <AltitudeMeters>1653.199951171875</AltitudeMeters>
            <DistanceMeters>NAN</DistanceMeters>
          </Trackpoint>
          <Trackpoint>
            <Time>2021-08-03T04:29:39.000Z</Time>
            <Position>
              <LatitudeDegrees>-15.34744315780699253082275390625</LatitudeDegrees>
              <LongitudeDegrees>37.07627638243138790130615234375</LongitudeDegrees>
            </Position>
            <AltitudeMeters>1654</AltitudeMeters>
            <DistanceMeters>NAN</DistanceMeters>
          </Trackpoint>
          <Trackpoint>
            <Time>2021-08-03T04:29:40.000Z</Time>
            <Position>
              <LatitudeDegrees>-15.3474452532827854156494140625</LatitudeDegrees>
              <LongitudeDegrees>37.07627504132688045501708984375</LongitudeDegrees>
            </Position>
            <AltitudeMeters>1654.5999755859375</AltitudeMeters>
            <DistanceMeters>NAN</DistanceMeters>
          </Trackpoint>
          <Trackpoint>
            <Time>2021-08-03T04:29:45.000Z</Time>
            <Position>
              <LatitudeDegrees>-15.34746243618428707122802734375</LatitudeDegrees>
              <LongitudeDegrees>37.07625098526477813720703125</LongitudeDegrees>
            </Position>
            <AltitudeMeters>1656</AltitudeMeters>
            <DistanceMeters>NAN</DistanceMeters>
          </Trackpoint>
          <Trackpoint>
            <Time>2021-08-03T04:29:46.000Z</Time>
            <Position>
              <LatitudeDegrees>-15.3474737517535686492919921875</LatitudeDegrees>
              <LongitudeDegrees>37.0762543380260467529296875</LongitudeDegrees>
            </Position>
            <AltitudeMeters>1656.199951171875</AltitudeMeters>
            <DistanceMeters>NAN</DistanceMeters>
          </Trackpoint>
          <Trackpoint>
            <Time>2021-08-03T04:29:49.000Z</Time>
            <Position>
              <LatitudeDegrees>-15.347492694854736328125</LatitudeDegrees>
              <LongitudeDegrees>37.0762608759105205535888671875</LongitudeDegrees>
            </Position>
            <AltitudeMeters>1656.5999755859375</AltitudeMeters>
            <DistanceMeters>NAN</DistanceMeters>
          </Trackpoint>
          <Trackpoint>
            <Time>2021-08-03T04:29:50.000Z</Time>
            <Position>
              <LatitudeDegrees>-15.34749277867376804351806640625</LatitudeDegrees>
              <LongitudeDegrees>37.07626347430050373077392578125</LongitudeDegrees>
            </Position>
            <AltitudeMeters>1657.4000244140625</AltitudeMeters>
            <DistanceMeters>NAN</DistanceMeters>
          </Trackpoint>
          <Trackpoint>
            <Time>2021-08-03T04:29:52.000Z</Time>
            <Position>
              <LatitudeDegrees>-15.34749931655824184417724609375</LatitudeDegrees>
              <LongitudeDegrees>37.07626732997596263885498046875</LongitudeDegrees>
            </Position>
            <AltitudeMeters>1657.800048828125</AltitudeMeters>
            <DistanceMeters>NAN</DistanceMeters>
          </Trackpoint>
          <Trackpoint>
            <Time>2021-08-03T04:29:54.000Z</Time>
            <Position>
              <LatitudeDegrees>-15.3475102968513965606689453125</LatitudeDegrees>
              <LongitudeDegrees>37.0762650668621063232421875</LongitudeDegrees>
            </Position>
            <AltitudeMeters>1658.199951171875</AltitudeMeters>
            <DistanceMeters>NAN</DistanceMeters>
          </Trackpoint>
          <Trackpoint>
            <Time>2021-08-03T04:29:55.000Z</Time>
            <Position>
              <LatitudeDegrees>-15.3475123085081577301025390625</LatitudeDegrees>
              <LongitudeDegrees>37.07626448012888431549072265625</LongitudeDegrees>
            </Position>
            <AltitudeMeters>1658.4000244140625</AltitudeMeters>
            <DistanceMeters>NAN</DistanceMeters>
          </Trackpoint>
          <Trackpoint>
            <Time>2021-08-03T04:29:56.000Z</Time>
            <Position>
              <LatitudeDegrees>-15.34751172177493572235107421875</LatitudeDegrees>
              <LongitudeDegrees>37.0762648992240428924560546875</LongitudeDegrees>
            </Position>
            <AltitudeMeters>1659</AltitudeMeters>
            <DistanceMeters>NAN</DistanceMeters>
          </Trackpoint>
          <Trackpoint>
            <Time>2021-08-03T04:29:58.000Z</Time>
            <Position>
              <LatitudeDegrees>-15.34751490689814090728759765625</LatitudeDegrees>
              <LongitudeDegrees>37.076264061033725738525390625</LongitudeDegrees>
            </Position>
            <AltitudeMeters>1659.800048828125</AltitudeMeters>
            <DistanceMeters>NAN</DistanceMeters>
          </Trackpoint>
          <Trackpoint>
            <Time>2021-08-03T04:30:01.000Z</Time>
            <Position>
              <LatitudeDegrees>-15.3475247137248516082763671875</LatitudeDegrees>
              <LongitudeDegrees>37.07626246847212314605712890625</LongitudeDegrees>
            </Position>
            <AltitudeMeters>1660</AltitudeMeters>
            <DistanceMeters>NAN</DistanceMeters>
          </Trackpoint>
          <Trackpoint>
            <Time>2021-08-03T04:30:02.000Z</Time>
            <Position>
              <LatitudeDegrees>-15.34752697683870792388916015625</LatitudeDegrees>
              <LongitudeDegrees>37.0762628875672817230224609375</LongitudeDegrees>
            </Position>
            <AltitudeMeters>1660.5999755859375</AltitudeMeters>
            <DistanceMeters>NAN</DistanceMeters>
          </Trackpoint>
          <Trackpoint>
            <Time>2021-08-03T04:30:03.000Z</Time>
            <Position>
              <LatitudeDegrees>-15.34753301180899143218994140625</LatitudeDegrees>
              <LongitudeDegrees>37.07626163028180599212646484375</LongitudeDegrees>
            </Position>
            <AltitudeMeters>1661.199951171875</AltitudeMeters>
            <DistanceMeters>NAN</DistanceMeters>
          </Trackpoint>
          <Trackpoint>
            <Time>2021-08-03T04:30:06.000Z</Time>
            <Position>
              <LatitudeDegrees>-15.347548685967922210693359375</LatitudeDegrees>
              <LongitudeDegrees>37.0762565173208713531494140625</LongitudeDegrees>
            </Position>
            <AltitudeMeters>1661.800048828125</AltitudeMeters>
            <DistanceMeters>NAN</DistanceMeters>
          </Trackpoint>
          <Trackpoint>
            <Time>2021-08-03T04:30:08.000Z</Time>
            <Position>
              <LatitudeDegrees>-15.34755212254822254180908203125</LatitudeDegrees>
              <LongitudeDegrees>37.07625023089349269866943359375</LongitudeDegrees>
            </Position>
            <AltitudeMeters>1662.5999755859375</AltitudeMeters>
            <DistanceMeters>NAN</DistanceMeters>
          </Trackpoint>
          <Trackpoint>
            <Time>2021-08-03T04:30:12.000Z</Time>
            <Position>
              <LatitudeDegrees>-15.3475632704794406890869140625</LatitudeDegrees>
              <LongitudeDegrees>37.0762414298951625823974609375</LongitudeDegrees>
            </Position>
            <AltitudeMeters>1663.199951171875</AltitudeMeters>
            <DistanceMeters>NAN</DistanceMeters>
          </Trackpoint>
          <Trackpoint>
            <Time>2021-08-03T04:30:13.000Z</Time>
            <Position>
              <LatitudeDegrees>-15.34756586886942386627197265625</LatitudeDegrees>
              <LongitudeDegrees>37.07624084316194057464599609375</LongitudeDegrees>
            </Position>
            <AltitudeMeters>1663.800048828125</AltitudeMeters>
            <DistanceMeters>NAN</DistanceMeters>
          </Trackpoint>
          <Trackpoint>
            <Time>2021-08-03T04:30:17.000Z</Time>
            <Position>
              <LatitudeDegrees>-15.34758632071316242218017578125</LatitudeDegrees>
              <LongitudeDegrees>37.0762303657829761505126953125</LongitudeDegrees>
            </Position>
            <AltitudeMeters>1665.4000244140625</AltitudeMeters>
            <DistanceMeters>NAN</DistanceMeters>
          </Trackpoint>
          <Trackpoint>
            <Time>2021-08-03T04:30:19.000Z</Time>
            <Position>
              <LatitudeDegrees>-15.34758833236992359161376953125</LatitudeDegrees>
              <LongitudeDegrees>37.07623363472521305084228515625</LongitudeDegrees>
            </Position>
            <AltitudeMeters>1666.4000244140625</AltitudeMeters>
            <DistanceMeters>NAN</DistanceMeters>
          </Trackpoint>
          <Trackpoint>
            <Time>2021-08-03T04:30:23.000Z</Time>
            <Position>
              <LatitudeDegrees>-15.347591936588287353515625</LatitudeDegrees>
              <LongitudeDegrees>37.0762226544320583343505859375</LongitudeDegrees>
            </Position>
            <AltitudeMeters>1666.800048828125</AltitudeMeters>
            <DistanceMeters>NAN</DistanceMeters>
          </Trackpoint>
          <Trackpoint>
            <Time>2021-08-03T04:30:24.000Z</Time>
            <Position>
              <LatitudeDegrees>-15.347597636282444000244140625</LatitudeDegrees>
              <LongitudeDegrees>37.07622005604207515716552734375</LongitudeDegrees>
            </Position>
            <AltitudeMeters>1667</AltitudeMeters>
            <DistanceMeters>NAN</DistanceMeters>
          </Trackpoint>
          <Trackpoint>
            <Time>2021-08-03T04:30:28.000Z</Time>
            <Position>
              <LatitudeDegrees>-15.3476209379732608795166015625</LatitudeDegrees>
              <LongitudeDegrees>37.0762132667005062103271484375</LongitudeDegrees>
            </Position>
            <AltitudeMeters>1667.4000244140625</AltitudeMeters>
            <DistanceMeters>NAN</DistanceMeters>
          </Trackpoint>
          <Trackpoint>
            <Time>2021-08-03T04:30:29.000Z</Time>
            <Position>
              <LatitudeDegrees>-15.3476256318390369415283203125</LatitudeDegrees>
              <LongitudeDegrees>37.07620672881603240966796875</LongitudeDegrees>
            </Position>
            <AltitudeMeters>1667.4000244140625</AltitudeMeters>
            <DistanceMeters>NAN</DistanceMeters>
          </Trackpoint>
          <Trackpoint>
            <Time>2021-08-03T04:30:32.000Z</Time>
            <Position>
              <LatitudeDegrees>-15.347631834447383880615234375</LatitudeDegrees>
              <LongitudeDegrees>37.07618854008615016937255859375</LongitudeDegrees>
            </Position>
            <AltitudeMeters>1668.5999755859375</AltitudeMeters>
            <DistanceMeters>NAN</DistanceMeters>
          </Trackpoint>
          <Trackpoint>
            <Time>2021-08-03T04:30:35.000Z</Time>
            <Position>
              <LatitudeDegrees>-15.34763418138027191162109375</LatitudeDegrees>
              <LongitudeDegrees>37.07617211155593395233154296875</LongitudeDegrees>
            </Position>
            <AltitudeMeters>1669.199951171875</AltitudeMeters>
            <DistanceMeters>NAN</DistanceMeters>
          </Trackpoint>
          <Trackpoint>
            <Time>2021-08-03T04:30:36.000Z</Time>
            <Position>
              <LatitudeDegrees>-15.3476323373615741729736328125</LatitudeDegrees>
              <LongitudeDegrees>37.07616942934691905975341796875</LongitudeDegrees>
            </Position>
            <AltitudeMeters>1669.5999755859375</AltitudeMeters>
            <DistanceMeters>NAN</DistanceMeters>
          </Trackpoint>
          <Trackpoint>
            <Time>2021-08-03T04:30:43.000Z</Time>
            <Position>
              <LatitudeDegrees>-15.34767466597259044647216796875</LatitudeDegrees>
              <LongitudeDegrees>37.07615702413022518157958984375</LongitudeDegrees>
            </Position>
            <AltitudeMeters>1671</AltitudeMeters>
            <DistanceMeters>NAN</DistanceMeters>
          </Trackpoint>
          <Trackpoint>
            <Time>2021-08-03T04:30:45.000Z</Time>
            <Position>
              <LatitudeDegrees>-15.347681455314159393310546875</LatitudeDegrees>
              <LongitudeDegrees>37.07615802995860576629638671875</LongitudeDegrees>
            </Position>
            <AltitudeMeters>1672</AltitudeMeters>
            <DistanceMeters>NAN</DistanceMeters>
          </Trackpoint>
          <Trackpoint>
            <Time>2021-08-03T04:30:47.000Z</Time>
            <Position>
              <LatitudeDegrees>-15.347687490284442901611328125</LatitudeDegrees>
              <LongitudeDegrees>37.07615266554057598114013671875</LongitudeDegrees>
            </Position>
            <AltitudeMeters>1672.199951171875</AltitudeMeters>
            <DistanceMeters>NAN</DistanceMeters>
          </Trackpoint>
          <Trackpoint>
            <Time>2021-08-03T04:30:50.000Z</Time>
            <Position>
              <LatitudeDegrees>-15.3477074392139911651611328125</LatitudeDegrees>
              <LongitudeDegrees>37.07614101469516754150390625</LongitudeDegrees>
            </Position>
            <AltitudeMeters>1673.199951171875</AltitudeMeters>
            <DistanceMeters>NAN</DistanceMeters>
          </Trackpoint>
          <Trackpoint>
            <Time>2021-08-03T04:30:55.000Z</Time>
            <Position>
              <LatitudeDegrees>-15.34774172119796276092529296875</LatitudeDegrees>
              <LongitudeDegrees>37.0761395059525966644287109375</LongitudeDegrees>
            </Position>
            <AltitudeMeters>1674.199951171875</AltitudeMeters>
            <DistanceMeters>NAN</DistanceMeters>
          </Trackpoint>
          <Trackpoint>
            <Time>2021-08-03T04:30:58.000Z</Time>
            <Position>
              <LatitudeDegrees>-15.3477684594690799713134765625</LatitudeDegrees>
              <LongitudeDegrees>37.07614327780902385711669921875</LongitudeDegrees>
            </Position>
            <AltitudeMeters>1675</AltitudeMeters>
            <DistanceMeters>NAN</DistanceMeters>
          </Trackpoint>
          <Trackpoint>
            <Time>2021-08-03T04:31:00.000Z</Time>
            <Position>
              <LatitudeDegrees>-15.3477781824767589569091796875</LatitudeDegrees>
              <LongitudeDegrees>37.07613958977162837982177734375</LongitudeDegrees>
            </Position>
            <AltitudeMeters>1675.4000244140625</AltitudeMeters>
            <DistanceMeters>NAN</DistanceMeters>
          </Trackpoint>
          <Trackpoint>
            <Time>2021-08-03T04:31:04.000Z</Time>
            <Position>
              <LatitudeDegrees>-15.34778664819896221160888671875</LatitudeDegrees>
              <LongitudeDegrees>37.0761314593255519866943359375</LongitudeDegrees>
            </Position>
            <AltitudeMeters>1676.800048828125</AltitudeMeters>
            <DistanceMeters>NAN</DistanceMeters>
          </Trackpoint>
          <Trackpoint>
            <Time>2021-08-03T04:31:06.000Z</Time>
            <Position>
              <LatitudeDegrees>-15.3477875702083110809326171875</LatitudeDegrees>
              <LongitudeDegrees>37.07612450234591960906982421875</LongitudeDegrees>
            </Position>
            <AltitudeMeters>1677.199951171875</AltitudeMeters>
            <DistanceMeters>NAN</DistanceMeters>
          </Trackpoint>
          <Trackpoint>
            <Time>2021-08-03T04:31:12.000Z</Time>
            <Position>
              <LatitudeDegrees>-15.347801148891448974609375</LatitudeDegrees>
              <LongitudeDegrees>37.0761041343212127685546875</LongitudeDegrees>
            </Position>
            <AltitudeMeters>1678.199951171875</AltitudeMeters>
            <DistanceMeters>NAN</DistanceMeters>
          </Trackpoint>
          <Trackpoint>
            <Time>2021-08-03T04:31:15.000Z</Time>
            <Position>
              <LatitudeDegrees>-15.3478036634624004364013671875</LatitudeDegrees>
              <LongitudeDegrees>37.0760949142277240753173828125</LongitudeDegrees>
            </Position>
            <AltitudeMeters>1679</AltitudeMeters>
            <DistanceMeters>NAN</DistanceMeters>
          </Trackpoint>
          <Trackpoint>
            <Time>2021-08-03T04:31:16.000Z</Time>
            <Position>
              <LatitudeDegrees>-15.34780718386173248291015625</LatitudeDegrees>
              <LongitudeDegrees>37.07609583623707294464111328125</LongitudeDegrees>
            </Position>
            <AltitudeMeters>1679.199951171875</AltitudeMeters>
            <DistanceMeters>NAN</DistanceMeters>
          </Trackpoint>
          <Trackpoint>
            <Time>2021-08-03T04:31:22.000Z</Time>
            <Position>
              <LatitudeDegrees>-15.3478267975151538848876953125</LatitudeDegrees>
              <LongitudeDegrees>37.07612249068915843963623046875</LongitudeDegrees>
            </Position>
            <AltitudeMeters>1680.5999755859375</AltitudeMeters>
            <DistanceMeters>NAN</DistanceMeters>
          </Trackpoint>
          <Trackpoint>
            <Time>2021-08-03T04:31:26.000Z</Time>
            <Position>
              <LatitudeDegrees>-15.34783224575221538543701171875</LatitudeDegrees>
              <LongitudeDegrees>37.07614143379032611846923828125</LongitudeDegrees>
            </Position>
            <AltitudeMeters>1681.5999755859375</AltitudeMeters>
            <DistanceMeters>NAN</DistanceMeters>
          </Trackpoint>
          <Trackpoint>
            <Time>2021-08-03T04:31:28.000Z</Time>
            <Position>
              <LatitudeDegrees>-15.34784196875989437103271484375</LatitudeDegrees>
              <LongitudeDegrees>37.076131291687488555908203125</LongitudeDegrees>
            </Position>
            <AltitudeMeters>1681.800048828125</AltitudeMeters>
            <DistanceMeters>NAN</DistanceMeters>
          </Trackpoint>
          <Trackpoint>
            <Time>2021-08-03T04:31:31.000Z</Time>
            <Position>
              <LatitudeDegrees>-15.34785722382366657257080078125</LatitudeDegrees>
              <LongitudeDegrees>37.0761341415345668792724609375</LongitudeDegrees>
            </Position>
            <AltitudeMeters>1682.800048828125</AltitudeMeters>
            <DistanceMeters>NAN</DistanceMeters>
          </Trackpoint>
          <Trackpoint>
            <Time>2021-08-03T04:31:35.000Z</Time>
            <Position>
              <LatitudeDegrees>-15.34786778502166271209716796875</LatitudeDegrees>
              <LongitudeDegrees>37.07613690756261348724365234375</LongitudeDegrees>
            </Position>
            <AltitudeMeters>1684</AltitudeMeters>
            <DistanceMeters>NAN</DistanceMeters>
          </Trackpoint>
          <Trackpoint>
            <Time>2021-08-03T04:31:38.000Z</Time>
            <Position>
              <LatitudeDegrees>-15.347881615161895751953125</LatitudeDegrees>
              <LongitudeDegrees>37.07614495418965816497802734375</LongitudeDegrees>
            </Position>
            <AltitudeMeters>1684.4000244140625</AltitudeMeters>
            <DistanceMeters>NAN</DistanceMeters>
          </Trackpoint>
          <Trackpoint>
            <Time>2021-08-03T04:31:40.000Z</Time>
            <Position>
              <LatitudeDegrees>-15.34789293073117733001708984375</LatitudeDegrees>
              <LongitudeDegrees>37.07614763639867305755615234375</LongitudeDegrees>
            </Position>
            <AltitudeMeters>1685.4000244140625</AltitudeMeters>
            <DistanceMeters>NAN</DistanceMeters>
          </Trackpoint>
          <Trackpoint>
            <Time>2021-08-03T04:31:41.000Z</Time>
            <Position>
              <LatitudeDegrees>-15.34789963625371456146240234375</LatitudeDegrees>
              <LongitudeDegrees>37.076148055493831634521484375</LongitudeDegrees>
            </Position>
            <AltitudeMeters>1685.800048828125</AltitudeMeters>
            <DistanceMeters>NAN</DistanceMeters>
          </Trackpoint>
          <Trackpoint>
            <Time>2021-08-03T04:31:43.000Z</Time>
            <Position>
              <LatitudeDegrees>-15.347907431423664093017578125</LatitudeDegrees>
              <LongitudeDegrees>37.07614713348448276519775390625</LongitudeDegrees>
            </Position>
            <AltitudeMeters>1686.4000244140625</AltitudeMeters>
            <DistanceMeters>NAN</DistanceMeters>
          </Trackpoint>
          <Trackpoint>
            <Time>2021-08-03T04:31:48.000Z</Time>
            <Position>
              <LatitudeDegrees>-15.34791447222232818603515625</LatitudeDegrees>
              <LongitudeDegrees>37.0761301182210445404052734375</LongitudeDegrees>
            </Position>
            <AltitudeMeters>1687.4000244140625</AltitudeMeters>
            <DistanceMeters>NAN</DistanceMeters>
          </Trackpoint>
          <Trackpoint>
            <Time>2021-08-03T04:31:52.000Z</Time>
            <Position>
              <LatitudeDegrees>-15.3479220159351825714111328125</LatitudeDegrees>
              <LongitudeDegrees>37.07612358033657073974609375</LongitudeDegrees>
            </Position>
            <AltitudeMeters>1688.800048828125</AltitudeMeters>
            <DistanceMeters>NAN</DistanceMeters>
          </Trackpoint>
          <Trackpoint>
            <Time>2021-08-03T04:31:55.000Z</Time>
            <Position>
              <LatitudeDegrees>-15.3479297272861003875732421875</LatitudeDegrees>
              <LongitudeDegrees>37.076112516224384307861328125</LongitudeDegrees>
            </Position>
            <AltitudeMeters>1689.4000244140625</AltitudeMeters>
            <DistanceMeters>NAN</DistanceMeters>
          </Trackpoint>
          <Trackpoint>
            <Time>2021-08-03T04:31:58.000Z</Time>
            <Position>
              <LatitudeDegrees>-15.34793819300830364227294921875</LatitudeDegrees>
              <LongitudeDegrees>37.07610975019633769989013671875</LongitudeDegrees>
            </Position>
            <AltitudeMeters>1690</AltitudeMeters>
            <DistanceMeters>NAN</DistanceMeters>
          </Trackpoint>
          <Trackpoint>
            <Time>2021-08-03T04:32:02.000Z</Time>
            <Position>
              <LatitudeDegrees>-15.34794053994119167327880859375</LatitudeDegrees>
              <LongitudeDegrees>37.0760939083993434906005859375</LongitudeDegrees>
            </Position>
            <AltitudeMeters>1691.4000244140625</AltitudeMeters>
            <DistanceMeters>NAN</DistanceMeters>
          </Trackpoint>
          <Trackpoint>
            <Time>2021-08-03T04:32:07.000Z</Time>
            <Position>
              <LatitudeDegrees>-15.34794003702700138092041015625</LatitudeDegrees>
              <LongitudeDegrees>37.07607437856495380401611328125</LongitudeDegrees>
            </Position>
            <AltitudeMeters>1692.5999755859375</AltitudeMeters>
            <DistanceMeters>NAN</DistanceMeters>
          </Trackpoint>
          <Trackpoint>
            <Time>2021-08-03T04:32:10.000Z</Time>
            <Position>
              <LatitudeDegrees>-15.3479446470737457275390625</LatitudeDegrees>
              <LongitudeDegrees>37.07607018761336803436279296875</LongitudeDegrees>
            </Position>
            <AltitudeMeters>1692.5999755859375</AltitudeMeters>
            <DistanceMeters>NAN</DistanceMeters>
          </Trackpoint>
          <Trackpoint>
            <Time>2021-08-03T04:32:14.000Z</Time>
            <Position>
              <LatitudeDegrees>-15.34794942475855350494384765625</LatitudeDegrees>
              <LongitudeDegrees>37.07608602941036224365234375</LongitudeDegrees>
            </Position>
            <AltitudeMeters>1692.5999755859375</AltitudeMeters>
            <DistanceMeters>NAN</DistanceMeters>
          </Trackpoint>
          <Trackpoint>
            <Time>2021-08-03T04:32:18.000Z</Time>
            <Position>
              <LatitudeDegrees>-15.34794389270246028900146484375</LatitudeDegrees>
              <LongitudeDegrees>37.07607530057430267333984375</LongitudeDegrees>
            </Position>
            <AltitudeMeters>1693.199951171875</AltitudeMeters>
            <DistanceMeters>NAN</DistanceMeters>
          </Trackpoint>
          <Trackpoint>
            <Time>2021-08-03T04:32:29.000Z</Time>
            <Position>
              <LatitudeDegrees>-15.34793484024703502655029296875</LatitudeDegrees>
              <LongitudeDegrees>37.07607655785977840423583984375</LongitudeDegrees>
            </Position>
            <AltitudeMeters>1693.199951171875</AltitudeMeters>
            <DistanceMeters>NAN</DistanceMeters>
          </Trackpoint>
          <Trackpoint>
            <Time>2021-08-03T04:32:43.000Z</Time>
            <Position>
              <LatitudeDegrees>-15.3479387797415256500244140625</LatitudeDegrees>
              <LongitudeDegrees>37.07607655785977840423583984375</LongitudeDegrees>
            </Position>
            <AltitudeMeters>1693.199951171875</AltitudeMeters>
            <DistanceMeters>NAN</DistanceMeters>
          </Trackpoint>
          <Trackpoint>
            <Time>2021-08-03T04:32:44.000Z</Time>
            <Position>
              <LatitudeDegrees>-15.347938947379589080810546875</LatitudeDegrees>
              <LongitudeDegrees>37.07607655785977840423583984375</LongitudeDegrees>
            </Position>
            <AltitudeMeters>1693</AltitudeMeters>
            <DistanceMeters>NAN</DistanceMeters>
          </Trackpoint>
          <Trackpoint>
            <Time>2021-08-03T04:32:48.000Z</Time>
            <Position>
              <LatitudeDegrees>-15.34793852828443050384521484375</LatitudeDegrees>
              <LongitudeDegrees>37.0760768093168735504150390625</LongitudeDegrees>
            </Position>
            <AltitudeMeters>1693</AltitudeMeters>
            <DistanceMeters>NAN</DistanceMeters>
          </Trackpoint>
          <Trackpoint>
            <Time>2021-08-03T04:32:52.000Z</Time>
            <Position>
              <LatitudeDegrees>-15.34793852828443050384521484375</LatitudeDegrees>
              <LongitudeDegrees>37.0760773122310638427734375</LongitudeDegrees>
            </Position>
            <AltitudeMeters>1693</AltitudeMeters>
            <DistanceMeters>NAN</DistanceMeters>
          </Trackpoint>
          <Trackpoint>
            <Time>2021-08-03T04:33:00.000Z</Time>
            <Position>
              <LatitudeDegrees>-15.3479391150176525115966796875</LatitudeDegrees>
              <LongitudeDegrees>37.0760801620781421661376953125</LongitudeDegrees>
            </Position>
            <AltitudeMeters>1692.800048828125</AltitudeMeters>
            <DistanceMeters>NAN</DistanceMeters>
          </Trackpoint>
          <Trackpoint>
            <Time>2021-08-03T04:33:05.000Z</Time>
            <Position>
              <LatitudeDegrees>-15.3479397855699062347412109375</LatitudeDegrees>
              <LongitudeDegrees>37.076081000268459320068359375</LongitudeDegrees>
            </Position>
            <AltitudeMeters>1693</AltitudeMeters>
            <DistanceMeters>NAN</DistanceMeters>
          </Trackpoint>
          <Trackpoint>
            <Time>2021-08-03T04:33:08.000Z</Time>
            <Position>
              <LatitudeDegrees>-15.347940623760223388671875</LatitudeDegrees>
              <LongitudeDegrees>37.0760821737349033355712890625</LongitudeDegrees>
            </Position>
            <AltitudeMeters>1693</AltitudeMeters>
            <DistanceMeters>NAN</DistanceMeters>
          </Trackpoint>
          <Trackpoint>
            <Time>2021-08-03T04:33:21.000Z</Time>
            <Position>
              <LatitudeDegrees>-15.34794221632182598114013671875</LatitudeDegrees>
              <LongitudeDegrees>37.07608678378164768218994140625</LongitudeDegrees>
            </Position>
            <AltitudeMeters>1693</AltitudeMeters>
            <DistanceMeters>NAN</DistanceMeters>
          </Trackpoint>
          <Trackpoint>
            <Time>2021-08-03T04:33:32.000Z</Time>
            <Position>
              <LatitudeDegrees>-15.34794372506439685821533203125</LatitudeDegrees>
              <LongitudeDegrees>37.0760902203619480133056640625</LongitudeDegrees>
            </Position>
            <AltitudeMeters>1693</AltitudeMeters>
            <DistanceMeters>NAN</DistanceMeters>
          </Trackpoint>
          <Trackpoint>
            <Time>2021-08-03T04:33:35.000Z</Time>
            <Position>
              <LatitudeDegrees>-15.3479438088834285736083984375</LatitudeDegrees>
              <LongitudeDegrees>37.07609063945710659027099609375</LongitudeDegrees>
            </Position>
            <AltitudeMeters>1692.800048828125</AltitudeMeters>
            <DistanceMeters>NAN</DistanceMeters>
          </Trackpoint>
          <Trackpoint>
            <Time>2021-08-03T04:33:37.000Z</Time>
            <Position>
              <LatitudeDegrees>-15.3479438088834285736083984375</LatitudeDegrees>
              <LongitudeDegrees>37.07609080709517002105712890625</LongitudeDegrees>
            </Position>
            <AltitudeMeters>1692.5999755859375</AltitudeMeters>
            <DistanceMeters>NAN</DistanceMeters>
          </Trackpoint>
          <Trackpoint>
            <Time>2021-08-03T04:33:42.000Z</Time>
            <Position>
              <LatitudeDegrees>-15.34794397652149200439453125</LatitudeDegrees>
              <LongitudeDegrees>37.07609114237129688262939453125</LongitudeDegrees>
            </Position>
            <AltitudeMeters>1692.5999755859375</AltitudeMeters>
            <DistanceMeters>NAN</DistanceMeters>
          </Trackpoint>
          <Trackpoint>
            <Time>2021-08-03T04:33:56.000Z</Time>
            <Position>
              <LatitudeDegrees>-15.3479474969208240509033203125</LatitudeDegrees>
              <LongitudeDegrees>37.07608846016228199005126953125</LongitudeDegrees>
            </Position>
            <AltitudeMeters>1692.4000244140625</AltitudeMeters>
            <DistanceMeters>NAN</DistanceMeters>
          </Trackpoint>
          <Trackpoint>
            <Time>2021-08-03T04:34:01.000Z</Time>
            <Position>
              <LatitudeDegrees>-15.3479474969208240509033203125</LatitudeDegrees>
              <LongitudeDegrees>37.07608401775360107421875</LongitudeDegrees>
            </Position>
            <AltitudeMeters>1692.5999755859375</AltitudeMeters>
            <DistanceMeters>NAN</DistanceMeters>
          </Trackpoint>
          <Trackpoint>
            <Time>2021-08-03T04:34:04.000Z</Time>
            <Position>
              <LatitudeDegrees>-15.3479474969208240509033203125</LatitudeDegrees>
              <LongitudeDegrees>37.07608309574425220489501953125</LongitudeDegrees>
            </Position>
            <AltitudeMeters>1692.5999755859375</AltitudeMeters>
            <DistanceMeters>NAN</DistanceMeters>
          </Trackpoint>
          <Trackpoint>
            <Time>2021-08-03T04:34:10.000Z</Time>
            <Position>
              <LatitudeDegrees>-15.34794523380696773529052734375</LatitudeDegrees>
              <LongitudeDegrees>37.07608292810618877410888671875</LongitudeDegrees>
            </Position>
            <AltitudeMeters>1692.800048828125</AltitudeMeters>
            <DistanceMeters>NAN</DistanceMeters>
          </Trackpoint>
          <Trackpoint>
            <Time>2021-08-03T04:34:15.000Z</Time>
            <Position>
              <LatitudeDegrees>-15.3479428030550479888916015625</LatitudeDegrees>
              <LongitudeDegrees>37.076083011925220489501953125</LongitudeDegrees>
            </Position>
            <AltitudeMeters>1692.800048828125</AltitudeMeters>
            <DistanceMeters>NAN</DistanceMeters>
          </Trackpoint>
          <Trackpoint>
            <Time>2021-08-03T04:34:20.000Z</Time>
            <Position>
              <LatitudeDegrees>-15.3479411266744136810302734375</LatitudeDegrees>
              <LongitudeDegrees>37.07608510740101337432861328125</LongitudeDegrees>
            </Position>
            <AltitudeMeters>1693</AltitudeMeters>
            <DistanceMeters>NAN</DistanceMeters>
          </Trackpoint>
          <Trackpoint>
            <Time>2021-08-03T04:34:40.000Z</Time>
            <Position>
              <LatitudeDegrees>-15.34793685190379619598388671875</LatitudeDegrees>
              <LongitudeDegrees>37.0760918967425823211669921875</LongitudeDegrees>
            </Position>
            <AltitudeMeters>1692.800048828125</AltitudeMeters>
            <DistanceMeters>NAN</DistanceMeters>
          </Trackpoint>
          <Trackpoint>
            <Time>2021-08-03T04:34:47.000Z</Time>
            <Position>
              <LatitudeDegrees>-15.347936935722827911376953125</LatitudeDegrees>
              <LongitudeDegrees>37.07609181292355060577392578125</LongitudeDegrees>
            </Position>
            <AltitudeMeters>1692.5999755859375</AltitudeMeters>
            <DistanceMeters>NAN</DistanceMeters>
          </Trackpoint>
          <Trackpoint>
            <Time>2021-08-03T04:34:51.000Z</Time>
            <Position>
              <LatitudeDegrees>-15.34793735481798648834228515625</LatitudeDegrees>
              <LongitudeDegrees>37.0760915614664554595947265625</LongitudeDegrees>
            </Position>
            <AltitudeMeters>1692.5999755859375</AltitudeMeters>
            <DistanceMeters>NAN</DistanceMeters>
          </Trackpoint>
          <Trackpoint>
            <Time>2021-08-03T04:35:00.000Z</Time>
            <Position>
              <LatitudeDegrees>-15.347941629588603973388671875</LatitudeDegrees>
              <LongitudeDegrees>37.0760892145335674285888671875</LongitudeDegrees>
            </Position>
            <AltitudeMeters>1692.4000244140625</AltitudeMeters>
            <DistanceMeters>NAN</DistanceMeters>
          </Trackpoint>
          <Trackpoint>
            <Time>2021-08-03T04:35:18.000Z</Time>
            <Position>
              <LatitudeDegrees>-15.34794665873050689697265625</LatitudeDegrees>
              <LongitudeDegrees>37.07608871161937713623046875</LongitudeDegrees>
            </Position>
            <AltitudeMeters>1692.4000244140625</AltitudeMeters>
            <DistanceMeters>NAN</DistanceMeters>
          </Trackpoint>
          <Trackpoint>
            <Time>2021-08-03T04:35:46.000Z</Time>
            <Position>
              <LatitudeDegrees>-15.347944982349872589111328125</LatitudeDegrees>
              <LongitudeDegrees>37.07608963362872600555419921875</LongitudeDegrees>
            </Position>
            <AltitudeMeters>1692.199951171875</AltitudeMeters>
            <DistanceMeters>NAN</DistanceMeters>
          </Trackpoint>
          <Trackpoint>
            <Time>2021-08-03T04:36:18.000Z</Time>
            <Position>
              <LatitudeDegrees>-15.34794506616890430450439453125</LatitudeDegrees>
              <LongitudeDegrees>37.076089382171630859375</LongitudeDegrees>
            </Position>
            <AltitudeMeters>1692.199951171875</AltitudeMeters>
            <DistanceMeters>NAN</DistanceMeters>
          </Trackpoint>
          <Trackpoint>
            <Time>2021-08-03T04:36:38.000Z</Time>
            <Position>
              <LatitudeDegrees>-15.34794456325471401214599609375</LatitudeDegrees>
              <LongitudeDegrees>37.07608946599066257476806640625</LongitudeDegrees>
            </Position>
            <AltitudeMeters>1691.800048828125</AltitudeMeters>
            <DistanceMeters>NAN</DistanceMeters>
          </Trackpoint>
          <Trackpoint>
            <Time>2021-08-03T04:36:41.000Z</Time>
            <Position>
              <LatitudeDegrees>-15.3479444794356822967529296875</LatitudeDegrees>
              <LongitudeDegrees>37.07608946599066257476806640625</LongitudeDegrees>
            </Position>
            <AltitudeMeters>1691.5999755859375</AltitudeMeters>
            <DistanceMeters>NAN</DistanceMeters>
          </Trackpoint>
          <Trackpoint>
            <Time>2021-08-03T04:36:42.000Z</Time>
            <Position>
              <LatitudeDegrees>-15.3479444794356822967529296875</LatitudeDegrees>
              <LongitudeDegrees>37.07608946599066257476806640625</LongitudeDegrees>
            </Position>
            <AltitudeMeters>1691.5999755859375</AltitudeMeters>
            <DistanceMeters>NAN</DistanceMeters>
          </Trackpoint>
          <Trackpoint>
            <Time>2021-08-03T04:37:02.000Z</Time>
            <Position>
              <LatitudeDegrees>-15.34794397652149200439453125</LatitudeDegrees>
              <LongitudeDegrees>37.07608946599066257476806640625</LongitudeDegrees>
            </Position>
            <AltitudeMeters>1691.800048828125</AltitudeMeters>
            <DistanceMeters>NAN</DistanceMeters>
          </Trackpoint>
          <Trackpoint>
            <Time>2021-08-03T04:37:14.000Z</Time>
            <Position>
              <LatitudeDegrees>-15.3479438088834285736083984375</LatitudeDegrees>
              <LongitudeDegrees>37.07608946599066257476806640625</LongitudeDegrees>
            </Position>
            <AltitudeMeters>1692.4000244140625</AltitudeMeters>
            <DistanceMeters>NAN</DistanceMeters>
          </Trackpoint>
          <Trackpoint>
            <Time>2021-08-03T04:37:37.000Z</Time>
            <Position>
              <LatitudeDegrees>-15.3479434736073017120361328125</LatitudeDegrees>
              <LongitudeDegrees>37.07608929835259914398193359375</LongitudeDegrees>
            </Position>
            <AltitudeMeters>1691.800048828125</AltitudeMeters>
            <DistanceMeters>NAN</DistanceMeters>
          </Trackpoint>
          <Trackpoint>
            <Time>2021-08-03T04:37:46.000Z</Time>
            <Position>
              <LatitudeDegrees>-15.34794322215020656585693359375</LatitudeDegrees>
              <LongitudeDegrees>37.07608913071453571319580078125</LongitudeDegrees>
            </Position>
            <AltitudeMeters>1692</AltitudeMeters>
            <DistanceMeters>NAN</DistanceMeters>
          </Trackpoint>
          <Trackpoint>
            <Time>2021-08-03T04:37:52.000Z</Time>
            <Position>
              <LatitudeDegrees>-15.3479431383311748504638671875</LatitudeDegrees>
              <LongitudeDegrees>37.076089046895503997802734375</LongitudeDegrees>
            </Position>
            <AltitudeMeters>1692</AltitudeMeters>
            <DistanceMeters>NAN</DistanceMeters>
          </Trackpoint>
          <Trackpoint>
            <Time>2021-08-03T04:38:09.000Z</Time>
            <Position>
              <LatitudeDegrees>-15.34794271923601627349853515625</LatitudeDegrees>
              <LongitudeDegrees>37.07608879543840885162353515625</LongitudeDegrees>
            </Position>
            <AltitudeMeters>1692</AltitudeMeters>
            <DistanceMeters>NAN</DistanceMeters>
          </Trackpoint>
          <Trackpoint>
            <Time>2021-08-03T04:38:25.000Z</Time>
            <Position>
              <LatitudeDegrees>-15.34794238395988941192626953125</LatitudeDegrees>
              <LongitudeDegrees>37.0760885439813137054443359375</LongitudeDegrees>
            </Position>
            <AltitudeMeters>1692</AltitudeMeters>
            <DistanceMeters>NAN</DistanceMeters>
          </Trackpoint>
          <Trackpoint>
            <Time>2021-08-03T04:38:40.000Z</Time>
            <Position>
              <LatitudeDegrees>-15.34794263541698455810546875</LatitudeDegrees>
              <LongitudeDegrees>37.0760882087051868438720703125</LongitudeDegrees>
            </Position>
            <AltitudeMeters>1692</AltitudeMeters>
            <DistanceMeters>NAN</DistanceMeters>
          </Trackpoint>
          <Trackpoint>
            <Time>2021-08-03T04:38:43.000Z</Time>
            <Position>
              <LatitudeDegrees>-15.34794271923601627349853515625</LatitudeDegrees>
              <LongitudeDegrees>37.0760880410671234130859375</LongitudeDegrees>
            </Position>
            <AltitudeMeters>1697.5999755859375</AltitudeMeters>
            <DistanceMeters>NAN</DistanceMeters>
          </Trackpoint>
          <Trackpoint>
            <Time>2021-08-03T04:38:50.000Z</Time>
            <Position>
              <LatitudeDegrees>-15.34794322215020656585693359375</LatitudeDegrees>
              <LongitudeDegrees>37.0760875381529331207275390625</LongitudeDegrees>
            </Position>
            <AltitudeMeters>1698.5999755859375</AltitudeMeters>
            <DistanceMeters>NAN</DistanceMeters>
          </Trackpoint>
          <Trackpoint>
            <Time>2021-08-03T04:38:56.000Z</Time>
            <Position>
              <LatitudeDegrees>-15.3479438088834285736083984375</LatitudeDegrees>
              <LongitudeDegrees>37.076087035238742828369140625</LongitudeDegrees>
            </Position>
            <AltitudeMeters>1700</AltitudeMeters>
            <DistanceMeters>NAN</DistanceMeters>
          </Trackpoint>
          <Trackpoint>
            <Time>2021-08-03T04:39:02.000Z</Time>
            <Position>
              <LatitudeDegrees>-15.34794456325471401214599609375</LatitudeDegrees>
              <LongitudeDegrees>37.07608644850552082061767578125</LongitudeDegrees>
            </Position>
            <AltitudeMeters>1701.199951171875</AltitudeMeters>
            <DistanceMeters>NAN</DistanceMeters>
          </Trackpoint>
          <Trackpoint>
            <Time>2021-08-03T04:39:08.000Z</Time>
            <Position>
              <LatitudeDegrees>-15.34794540144503116607666015625</LatitudeDegrees>
              <LongitudeDegrees>37.0760858617722988128662109375</LongitudeDegrees>
            </Position>
            <AltitudeMeters>1702.4000244140625</AltitudeMeters>
            <DistanceMeters>NAN</DistanceMeters>
          </Trackpoint>
          <Trackpoint>
            <Time>2021-08-03T04:39:11.000Z</Time>
            <Position>
              <LatitudeDegrees>-15.34794590435922145843505859375</LatitudeDegrees>
              <LongitudeDegrees>37.07608544267714023590087890625</LongitudeDegrees>
            </Position>
            <AltitudeMeters>1702.800048828125</AltitudeMeters>
            <DistanceMeters>NAN</DistanceMeters>
          </Trackpoint>
          <Trackpoint>
            <Time>2021-08-03T04:39:14.000Z</Time>
            <Position>
              <LatitudeDegrees>-15.3479464910924434661865234375</LatitudeDegrees>
              <LongitudeDegrees>37.076085023581981658935546875</LongitudeDegrees>
            </Position>
            <AltitudeMeters>1703.5999755859375</AltitudeMeters>
            <DistanceMeters>NAN</DistanceMeters>
          </Trackpoint>
          <Trackpoint>
            <Time>2021-08-03T04:39:17.000Z</Time>
            <Position>
              <LatitudeDegrees>-15.3479471616446971893310546875</LatitudeDegrees>
              <LongitudeDegrees>37.07608460448682308197021484375</LongitudeDegrees>
            </Position>
            <AltitudeMeters>1704</AltitudeMeters>
            <DistanceMeters>NAN</DistanceMeters>
          </Trackpoint>
          <Trackpoint>
            <Time>2021-08-03T04:39:19.000Z</Time>
            <Position>
              <LatitudeDegrees>-15.34794758073985576629638671875</LatitudeDegrees>
              <LongitudeDegrees>37.0760841853916645050048828125</LongitudeDegrees>
            </Position>
            <AltitudeMeters>1704.199951171875</AltitudeMeters>
            <DistanceMeters>NAN</DistanceMeters>
          </Trackpoint>
          <Trackpoint>
            <Time>2021-08-03T04:39:20.000Z</Time>
            <Position>
              <LatitudeDegrees>-15.3479478321969509124755859375</LatitudeDegrees>
              <LongitudeDegrees>37.07608401775360107421875</LongitudeDegrees>
            </Position>
            <AltitudeMeters>1704.5999755859375</AltitudeMeters>
            <DistanceMeters>NAN</DistanceMeters>
          </Trackpoint>
          <Trackpoint>
            <Time>2021-08-03T04:39:21.000Z</Time>
            <Position>
              <LatitudeDegrees>-15.34794799983501434326171875</LatitudeDegrees>
              <LongitudeDegrees>37.0760838501155376434326171875</LongitudeDegrees>
            </Position>
            <AltitudeMeters>1704.5999755859375</AltitudeMeters>
            <DistanceMeters>NAN</DistanceMeters>
          </Trackpoint>
          <Trackpoint>
            <Time>2021-08-03T04:39:22.000Z</Time>
            <Position>
              <LatitudeDegrees>-15.34794825129210948944091796875</LatitudeDegrees>
              <LongitudeDegrees>37.07608359865844249725341796875</LongitudeDegrees>
            </Position>
            <AltitudeMeters>1704.800048828125</AltitudeMeters>
            <DistanceMeters>NAN</DistanceMeters>
          </Trackpoint>
          <Trackpoint>
            <Time>2021-08-03T04:39:23.000Z</Time>
            <Position>
              <LatitudeDegrees>-15.3479485027492046356201171875</LatitudeDegrees>
              <LongitudeDegrees>37.07608343102037906646728515625</LongitudeDegrees>
            </Position>
            <AltitudeMeters>1704.800048828125</AltitudeMeters>
            <DistanceMeters>NAN</DistanceMeters>
          </Trackpoint>
          <Trackpoint>
            <Time>2021-08-03T04:39:24.000Z</Time>
            <Position>
              <LatitudeDegrees>-15.34794875420629978179931640625</LatitudeDegrees>
              <LongitudeDegrees>37.0760831795632839202880859375</LongitudeDegrees>
            </Position>
            <AltitudeMeters>1705</AltitudeMeters>
            <DistanceMeters>NAN</DistanceMeters>
          </Trackpoint>
          <Trackpoint>
            <Time>2021-08-03T04:39:25.000Z</Time>
            <Position>
              <LatitudeDegrees>-15.347949005663394927978515625</LatitudeDegrees>
              <LongitudeDegrees>37.07608292810618877410888671875</LongitudeDegrees>
            </Position>
            <AltitudeMeters>1705.199951171875</AltitudeMeters>
            <DistanceMeters>NAN</DistanceMeters>
          </Trackpoint>
          <Trackpoint>
            <Time>2021-08-03T04:39:26.000Z</Time>
            <Position>
              <LatitudeDegrees>-15.34794925712049007415771484375</LatitudeDegrees>
              <LongitudeDegrees>37.07608276046812534332275390625</LongitudeDegrees>
            </Position>
            <AltitudeMeters>1705.199951171875</AltitudeMeters>
            <DistanceMeters>NAN</DistanceMeters>
          </Trackpoint>
          <Trackpoint>
            <Time>2021-08-03T04:39:27.000Z</Time>
            <Position>
              <LatitudeDegrees>-15.3479495085775852203369140625</LatitudeDegrees>
              <LongitudeDegrees>37.0760825090110301971435546875</LongitudeDegrees>
            </Position>
            <AltitudeMeters>1705.4000244140625</AltitudeMeters>
            <DistanceMeters>NAN</DistanceMeters>
          </Trackpoint>
          <Trackpoint>
            <Time>2021-08-03T04:39:29.000Z</Time>
            <Position>
              <LatitudeDegrees>-15.3479500114917755126953125</LatitudeDegrees>
              <LongitudeDegrees>37.07608208991587162017822265625</LongitudeDegrees>
            </Position>
            <AltitudeMeters>1705.800048828125</AltitudeMeters>
            <DistanceMeters>NAN</DistanceMeters>
          </Trackpoint>
          <Trackpoint>
            <Time>2021-08-03T04:39:31.000Z</Time>
            <Position>
              <LatitudeDegrees>-15.34795059822499752044677734375</LatitudeDegrees>
              <LongitudeDegrees>37.076081670820713043212890625</LongitudeDegrees>
            </Position>
            <AltitudeMeters>1706</AltitudeMeters>
            <DistanceMeters>NAN</DistanceMeters>
          </Trackpoint>
          <Trackpoint>
            <Time>2021-08-03T04:39:35.000Z</Time>
            <Position>
              <LatitudeDegrees>-15.347951687872409820556640625</LatitudeDegrees>
              <LongitudeDegrees>37.07608074881136417388916015625</LongitudeDegrees>
            </Position>
            <AltitudeMeters>1706.800048828125</AltitudeMeters>
            <DistanceMeters>NAN</DistanceMeters>
          </Trackpoint>
          <Trackpoint>
            <Time>2021-08-03T04:39:37.000Z</Time>
            <Position>
              <LatitudeDegrees>-15.34795227460563182830810546875</LatitudeDegrees>
              <LongitudeDegrees>37.076080329716205596923828125</LongitudeDegrees>
            </Position>
            <AltitudeMeters>1707.199951171875</AltitudeMeters>
            <DistanceMeters>NAN</DistanceMeters>
          </Trackpoint>
          <Trackpoint>
            <Time>2021-08-03T04:39:43.000Z</Time>
            <Position>
              <LatitudeDegrees>-15.3479540348052978515625</LatitudeDegrees>
              <LongitudeDegrees>37.076078988611698150634765625</LongitudeDegrees>
            </Position>
            <AltitudeMeters>1708.199951171875</AltitudeMeters>
            <DistanceMeters>NAN</DistanceMeters>
          </Trackpoint>
          <Trackpoint>
            <Time>2021-08-03T04:39:48.000Z</Time>
            <Position>
              <LatitudeDegrees>-15.34795562736690044403076171875</LatitudeDegrees>
              <LongitudeDegrees>37.07607789896428585052490234375</LongitudeDegrees>
            </Position>
            <AltitudeMeters>1709.4000244140625</AltitudeMeters>
            <DistanceMeters>NAN</DistanceMeters>
          </Trackpoint>
          <Trackpoint>
            <Time>2021-08-03T04:39:53.000Z</Time>
            <Position>
              <LatitudeDegrees>-15.34795730374753475189208984375</LatitudeDegrees>
              <LongitudeDegrees>37.0760768093168735504150390625</LongitudeDegrees>
            </Position>
            <AltitudeMeters>1710.5999755859375</AltitudeMeters>
            <DistanceMeters>NAN</DistanceMeters>
          </Trackpoint>
          <Trackpoint>
            <Time>2021-08-03T04:39:55.000Z</Time>
            <Position>
              <LatitudeDegrees>-15.34795797429978847503662109375</LatitudeDegrees>
              <LongitudeDegrees>37.076076306402683258056640625</LongitudeDegrees>
            </Position>
            <AltitudeMeters>1711</AltitudeMeters>
            <DistanceMeters>NAN</DistanceMeters>
          </Trackpoint>
          <Trackpoint>
            <Time>2021-08-03T04:39:59.000Z</Time>
            <Position>
              <LatitudeDegrees>-15.34795939922332763671875</LatitudeDegrees>
              <LongitudeDegrees>37.0760754682123661041259765625</LongitudeDegrees>
            </Position>
            <AltitudeMeters>1711.800048828125</AltitudeMeters>
            <DistanceMeters>NAN</DistanceMeters>
          </Trackpoint>
          <Trackpoint>
            <Time>2021-08-03T04:40:08.000Z</Time>
            <Position>
              <LatitudeDegrees>-15.34796283580362796783447265625</LatitudeDegrees>
              <LongitudeDegrees>37.07607328891754150390625</LongitudeDegrees>
            </Position>
            <AltitudeMeters>1713</AltitudeMeters>
            <DistanceMeters>NAN</DistanceMeters>
          </Trackpoint>
          <Trackpoint>
            <Time>2021-08-03T04:40:12.000Z</Time>
            <Position>
              <LatitudeDegrees>-15.34796451218426227569580078125</LatitudeDegrees>
              <LongitudeDegrees>37.07607236690819263458251953125</LongitudeDegrees>
            </Position>
            <AltitudeMeters>1714.4000244140625</AltitudeMeters>
            <DistanceMeters>NAN</DistanceMeters>
          </Trackpoint>
          <Trackpoint>
            <Time>2021-08-03T04:40:18.000Z</Time>
            <Position>
              <LatitudeDegrees>-15.3479669429361820220947265625</LatitudeDegrees>
              <LongitudeDegrees>37.076070941984653472900390625</LongitudeDegrees>
            </Position>
            <AltitudeMeters>1715.4000244140625</AltitudeMeters>
            <DistanceMeters>NAN</DistanceMeters>
          </Trackpoint>
          <Trackpoint>
            <Time>2021-08-03T04:40:26.000Z</Time>
            <Position>
              <LatitudeDegrees>-15.347970463335514068603515625</LatitudeDegrees>
              <LongitudeDegrees>37.0760690979659557342529296875</LongitudeDegrees>
            </Position>
            <AltitudeMeters>1716.5999755859375</AltitudeMeters>
            <DistanceMeters>NAN</DistanceMeters>
          </Trackpoint>
          <Trackpoint>
            <Time>2021-08-03T04:40:27.000Z</Time>
            <Position>
              <LatitudeDegrees>-15.34797088243067264556884765625</LatitudeDegrees>
              <LongitudeDegrees>37.076068930327892303466796875</LongitudeDegrees>
            </Position>
            <AltitudeMeters>1716.5999755859375</AltitudeMeters>
            <DistanceMeters>NAN</DistanceMeters>
          </Trackpoint>
          <Trackpoint>
            <Time>2021-08-03T04:40:33.000Z</Time>
            <Position>
              <LatitudeDegrees>-15.34797373227775096893310546875</LatitudeDegrees>
              <LongitudeDegrees>37.07606767304241657257080078125</LongitudeDegrees>
            </Position>
            <AltitudeMeters>1717.5999755859375</AltitudeMeters>
            <DistanceMeters>NAN</DistanceMeters>
          </Trackpoint>
          <Trackpoint>
            <Time>2021-08-03T04:40:38.000Z</Time>
            <Position>
              <LatitudeDegrees>-15.34797624684870243072509765625</LatitudeDegrees>
              <LongitudeDegrees>37.07606666721403598785400390625</LongitudeDegrees>
            </Position>
            <AltitudeMeters>1718.5999755859375</AltitudeMeters>
            <DistanceMeters>NAN</DistanceMeters>
          </Trackpoint>
          <Trackpoint>
            <Time>2021-08-03T04:40:43.000Z</Time>
            <Position>
              <LatitudeDegrees>-15.34797884523868560791015625</LatitudeDegrees>
              <LongitudeDegrees>37.0760657452046871185302734375</LongitudeDegrees>
            </Position>
            <AltitudeMeters>1719.800048828125</AltitudeMeters>
            <DistanceMeters>NAN</DistanceMeters>
          </Trackpoint>
          <Trackpoint>
            <Time>2021-08-03T04:40:51.000Z</Time>
            <Position>
              <LatitudeDegrees>-15.348023436963558197021484375</LatitudeDegrees>
              <LongitudeDegrees>37.07605610601603984832763671875</LongitudeDegrees>
            </Position>
            <AltitudeMeters>1720.800048828125</AltitudeMeters>
            <DistanceMeters>NAN</DistanceMeters>
          </Trackpoint>
          <Trackpoint>
            <Time>2021-08-03T04:40:57.000Z</Time>
            <Position>
              <LatitudeDegrees>-15.348299033939838409423828125</LatitudeDegrees>
              <LongitudeDegrees>37.0760290324687957763671875</LongitudeDegrees>
            </Position>
            <AltitudeMeters>1722</AltitudeMeters>
            <DistanceMeters>NAN</DistanceMeters>
          </Trackpoint>
          <Trackpoint>
            <Time>2021-08-03T04:41:02.000Z</Time>
            <Position>
              <LatitudeDegrees>-15.34843808971345424652099609375</LatitudeDegrees>
              <LongitudeDegrees>37.07602190785109996795654296875</LongitudeDegrees>
            </Position>
            <AltitudeMeters>1723.199951171875</AltitudeMeters>
            <DistanceMeters>NAN</DistanceMeters>
          </Trackpoint>
          <Trackpoint>
            <Time>2021-08-03T04:41:05.000Z</Time>
            <Position>
              <LatitudeDegrees>-15.3484537638723850250244140625</LatitudeDegrees>
              <LongitudeDegrees>37.07603682763874530792236328125</LongitudeDegrees>
            </Position>
            <AltitudeMeters>1723.5999755859375</AltitudeMeters>
            <DistanceMeters>NAN</DistanceMeters>
          </Trackpoint>
          <Trackpoint>
            <Time>2021-08-03T04:41:08.000Z</Time>
            <Position>
              <LatitudeDegrees>-15.34846910275518894195556640625</LatitudeDegrees>
              <LongitudeDegrees>37.076040096580982208251953125</LongitudeDegrees>
            </Position>
            <AltitudeMeters>1724.4000244140625</AltitudeMeters>
            <DistanceMeters>NAN</DistanceMeters>
          </Trackpoint>
          <Trackpoint>
            <Time>2021-08-03T04:41:11.000Z</Time>
            <Position>
              <LatitudeDegrees>-15.348481424152851104736328125</LatitudeDegrees>
              <LongitudeDegrees>37.07604839466512203216552734375</LongitudeDegrees>
            </Position>
            <AltitudeMeters>1725</AltitudeMeters>
            <DistanceMeters>NAN</DistanceMeters>
          </Trackpoint>
          <Trackpoint>
            <Time>2021-08-03T04:41:16.000Z</Time>
            <Position>
              <LatitudeDegrees>-15.3484983555972576141357421875</LatitudeDegrees>
              <LongitudeDegrees>37.07605644129216670989990234375</LongitudeDegrees>
            </Position>
            <AltitudeMeters>1725.4000244140625</AltitudeMeters>
            <DistanceMeters>NAN</DistanceMeters>
          </Trackpoint>
          <Trackpoint>
            <Time>2021-08-03T04:41:18.000Z</Time>
            <Position>
              <LatitudeDegrees>-15.34850589931011199951171875</LatitudeDegrees>
              <LongitudeDegrees>37.076056189835071563720703125</LongitudeDegrees>
            </Position>
            <AltitudeMeters>1725.4000244140625</AltitudeMeters>
            <DistanceMeters>NAN</DistanceMeters>
          </Trackpoint>
          <Trackpoint>
            <Time>2021-08-03T04:41:25.000Z</Time>
            <Position>
              <LatitudeDegrees>-15.34853934310376644134521484375</LatitudeDegrees>
              <LongitudeDegrees>37.0760486461222171783447265625</LongitudeDegrees>
            </Position>
            <AltitudeMeters>1726.800048828125</AltitudeMeters>
            <DistanceMeters>NAN</DistanceMeters>
          </Trackpoint>
          <Trackpoint>
            <Time>2021-08-03T04:41:27.000Z</Time>
            <Position>
              <LatitudeDegrees>-15.348546467721462249755859375</LatitudeDegrees>
              <LongitudeDegrees>37.0760478079319000244140625</LongitudeDegrees>
            </Position>
            <AltitudeMeters>1727.5999755859375</AltitudeMeters>
            <DistanceMeters>NAN</DistanceMeters>
          </Trackpoint>
          <Trackpoint>
            <Time>2021-08-03T04:41:28.000Z</Time>
            <Position>
              <LatitudeDegrees>-15.34854948520660400390625</LatitudeDegrees>
              <LongitudeDegrees>37.07604504190385341644287109375</LongitudeDegrees>
            </Position>
            <AltitudeMeters>1727.800048828125</AltitudeMeters>
            <DistanceMeters>NAN</DistanceMeters>
          </Trackpoint>
          <Trackpoint>
            <Time>2021-08-03T04:41:30.000Z</Time>
            <Position>
              <LatitudeDegrees>-15.3485607169568538665771484375</LatitudeDegrees>
              <LongitudeDegrees>37.07604370079934597015380859375</LongitudeDegrees>
            </Position>
            <AltitudeMeters>1728.199951171875</AltitudeMeters>
            <DistanceMeters>NAN</DistanceMeters>
          </Trackpoint>
          <Trackpoint>
            <Time>2021-08-03T04:41:34.000Z</Time>
            <Position>
              <LatitudeDegrees>-15.34858527593314647674560546875</LatitudeDegrees>
              <LongitudeDegrees>37.0760603807866573333740234375</LongitudeDegrees>
            </Position>
            <AltitudeMeters>1729.199951171875</AltitudeMeters>
            <DistanceMeters>NAN</DistanceMeters>
          </Trackpoint>
          <Trackpoint>
            <Time>2021-08-03T04:41:36.000Z</Time>
            <Position>
              <LatitudeDegrees>-15.34859441220760345458984375</LatitudeDegrees>
              <LongitudeDegrees>37.0760640688240528106689453125</LongitudeDegrees>
            </Position>
            <AltitudeMeters>1730.4000244140625</AltitudeMeters>
            <DistanceMeters>NAN</DistanceMeters>
          </Trackpoint>
          <Trackpoint>
            <Time>2021-08-03T04:41:37.000Z</Time>
            <Position>
              <LatitudeDegrees>-15.34860069863498210906982421875</LatitudeDegrees>
              <LongitudeDegrees>37.076068930327892303466796875</LongitudeDegrees>
            </Position>
            <AltitudeMeters>1730.4000244140625</AltitudeMeters>
            <DistanceMeters>NAN</DistanceMeters>
          </Trackpoint>
          <Trackpoint>
            <Time>2021-08-03T04:41:44.000Z</Time>
            <Position>
              <LatitudeDegrees>-15.34862182103097438812255859375</LatitudeDegrees>
              <LongitudeDegrees>37.07608963362872600555419921875</LongitudeDegrees>
            </Position>
            <AltitudeMeters>1731.5999755859375</AltitudeMeters>
            <DistanceMeters>NAN</DistanceMeters>
          </Trackpoint>
          <Trackpoint>
            <Time>2021-08-03T04:41:46.000Z</Time>
            <Position>
              <LatitudeDegrees>-15.3486260958015918731689453125</LatitudeDegrees>
              <LongitudeDegrees>37.0760818384587764739990234375</LongitudeDegrees>
            </Position>
            <AltitudeMeters>1732.4000244140625</AltitudeMeters>
            <DistanceMeters>NAN</DistanceMeters>
          </Trackpoint>
          <Trackpoint>
            <Time>2021-08-03T04:41:47.000Z</Time>
            <Position>
              <LatitudeDegrees>-15.34862768836319446563720703125</LatitudeDegrees>
              <LongitudeDegrees>37.07607538439333438873291015625</LongitudeDegrees>
            </Position>
            <AltitudeMeters>1732.4000244140625</AltitudeMeters>
            <DistanceMeters>NAN</DistanceMeters>
          </Trackpoint>
          <Trackpoint>
            <Time>2021-08-03T04:41:48.000Z</Time>
            <Position>
              <LatitudeDegrees>-15.3486307896673679351806640625</LatitudeDegrees>
              <LongitudeDegrees>37.0760741271078586578369140625</LongitudeDegrees>
            </Position>
            <AltitudeMeters>1732.5999755859375</AltitudeMeters>
            <DistanceMeters>NAN</DistanceMeters>
          </Trackpoint>
          <Trackpoint>
            <Time>2021-08-03T04:41:53.000Z</Time>
            <Position>
              <LatitudeDegrees>-15.34864394925534725189208984375</LatitudeDegrees>
              <LongitudeDegrees>37.07609617151319980621337890625</LongitudeDegrees>
            </Position>
            <AltitudeMeters>1733</AltitudeMeters>
            <DistanceMeters>NAN</DistanceMeters>
          </Trackpoint>
          <Trackpoint>
            <Time>2021-08-03T04:41:56.000Z</Time>
            <Position>
              <LatitudeDegrees>-15.34865476191043853759765625</LatitudeDegrees>
              <LongitudeDegrees>37.07610136829316616058349609375</LongitudeDegrees>
            </Position>
            <AltitudeMeters>1734</AltitudeMeters>
            <DistanceMeters>NAN</DistanceMeters>
          </Trackpoint>
          <Trackpoint>
            <Time>2021-08-03T04:42:02.000Z</Time>
            <Position>
              <LatitudeDegrees>-15.34867596812546253204345703125</LatitudeDegrees>
              <LongitudeDegrees>37.0760858617722988128662109375</LongitudeDegrees>
            </Position>
            <AltitudeMeters>1735</AltitudeMeters>
            <DistanceMeters>NAN</DistanceMeters>
          </Trackpoint>
          <Trackpoint>
            <Time>2021-08-03T04:42:09.000Z</Time>
            <Position>
              <LatitudeDegrees>-15.3487045504152774810791015625</LatitudeDegrees>
              <LongitudeDegrees>37.0760786533355712890625</LongitudeDegrees>
            </Position>
            <AltitudeMeters>1736.199951171875</AltitudeMeters>
            <DistanceMeters>NAN</DistanceMeters>
          </Trackpoint>
          <Trackpoint>
            <Time>2021-08-03T04:42:10.000Z</Time>
            <Position>
              <LatitudeDegrees>-15.348709411919116973876953125</LatitudeDegrees>
              <LongitudeDegrees>37.07607530057430267333984375</LongitudeDegrees>
            </Position>
            <AltitudeMeters>1736.4000244140625</AltitudeMeters>
            <DistanceMeters>NAN</DistanceMeters>
          </Trackpoint>
          <Trackpoint>
            <Time>2021-08-03T04:42:14.000Z</Time>
            <Position>
              <LatitudeDegrees>-15.34872424788773059844970703125</LatitudeDegrees>
              <LongitudeDegrees>37.0760573633015155792236328125</LongitudeDegrees>
            </Position>
            <AltitudeMeters>1737.5999755859375</AltitudeMeters>
            <DistanceMeters>NAN</DistanceMeters>
          </Trackpoint>
          <Trackpoint>
            <Time>2021-08-03T04:42:19.000Z</Time>
            <Position>
              <LatitudeDegrees>-15.34873925149440765380859375</LatitudeDegrees>
              <LongitudeDegrees>37.07603213377296924591064453125</LongitudeDegrees>
            </Position>
            <AltitudeMeters>1738.4000244140625</AltitudeMeters>
            <DistanceMeters>NAN</DistanceMeters>
          </Trackpoint>
          <Trackpoint>
            <Time>2021-08-03T04:42:20.000Z</Time>
            <Position>
              <LatitudeDegrees>-15.348741598427295684814453125</LatitudeDegrees>
              <LongitudeDegrees>37.076027691364288330078125</LongitudeDegrees>
            </Position>
            <AltitudeMeters>1738.800048828125</AltitudeMeters>
            <DistanceMeters>NAN</DistanceMeters>
          </Trackpoint>
          <Trackpoint>
            <Time>2021-08-03T04:42:25.000Z</Time>
            <Position>
              <LatitudeDegrees>-15.348760373890399932861328125</LatitudeDegrees>
              <LongitudeDegrees>37.07602308131754398345947265625</LongitudeDegrees>
            </Position>
            <AltitudeMeters>1739.800048828125</AltitudeMeters>
            <DistanceMeters>NAN</DistanceMeters>
          </Trackpoint>
          <Trackpoint>
            <Time>2021-08-03T04:42:30.000Z</Time>
            <Position>
              <LatitudeDegrees>-15.34877705387771129608154296875</LatitudeDegrees>
              <LongitudeDegrees>37.07600648514926433563232421875</LongitudeDegrees>
            </Position>
            <AltitudeMeters>1740.800048828125</AltitudeMeters>
            <DistanceMeters>NAN</DistanceMeters>
          </Trackpoint>
          <Trackpoint>
            <Time>2021-08-03T04:42:31.000Z</Time>
            <Position>
              <LatitudeDegrees>-15.34877889789640903472900390625</LatitudeDegrees>
              <LongitudeDegrees>37.07600497640669345855712890625</LongitudeDegrees>
            </Position>
            <AltitudeMeters>1741</AltitudeMeters>
            <DistanceMeters>NAN</DistanceMeters>
          </Trackpoint>
          <Trackpoint>
            <Time>2021-08-03T04:42:37.000Z</Time>
            <Position>
              <LatitudeDegrees>-15.348791889846324920654296875</LatitudeDegrees>
              <LongitudeDegrees>37.07599039189517498016357421875</LongitudeDegrees>
            </Position>
            <AltitudeMeters>1742</AltitudeMeters>
            <DistanceMeters>NAN</DistanceMeters>
          </Trackpoint>
          <Trackpoint>
            <Time>2021-08-03T04:42:39.000Z</Time>
            <Position>
              <LatitudeDegrees>-15.34879691898822784423828125</LatitudeDegrees>
              <LongitudeDegrees>37.07599123008549213409423828125</LongitudeDegrees>
            </Position>
            <AltitudeMeters>1742</AltitudeMeters>
            <DistanceMeters>NAN</DistanceMeters>
          </Trackpoint>
          <Trackpoint>
            <Time>2021-08-03T04:42:44.000Z</Time>
            <Position>
              <LatitudeDegrees>-15.34881795756518840789794921875</LatitudeDegrees>
              <LongitudeDegrees>37.07598385401070117950439453125</LongitudeDegrees>
            </Position>
            <AltitudeMeters>1743</AltitudeMeters>
            <DistanceMeters>NAN</DistanceMeters>
          </Trackpoint>
          <Trackpoint>
            <Time>2021-08-03T04:42:48.000Z</Time>
            <Position>
              <LatitudeDegrees>-15.34883178770542144775390625</LatitudeDegrees>
              <LongitudeDegrees>37.07599475048482418060302734375</LongitudeDegrees>
            </Position>
            <AltitudeMeters>1744.199951171875</AltitudeMeters>
            <DistanceMeters>NAN</DistanceMeters>
          </Trackpoint>
          <Trackpoint>
            <Time>2021-08-03T04:42:49.000Z</Time>
            <Position>
              <LatitudeDegrees>-15.348834805190563201904296875</LatitudeDegrees>
              <LongitudeDegrees>37.075995169579982757568359375</LongitudeDegrees>
            </Position>
            <AltitudeMeters>1744.199951171875</AltitudeMeters>
            <DistanceMeters>NAN</DistanceMeters>
          </Trackpoint>
          <Trackpoint>
            <Time>2021-08-03T04:42:56.000Z</Time>
            <Position>
              <LatitudeDegrees>-15.34885467030107975006103515625</LatitudeDegrees>
              <LongitudeDegrees>37.07598385401070117950439453125</LongitudeDegrees>
            </Position>
            <AltitudeMeters>1745.5999755859375</AltitudeMeters>
            <DistanceMeters>NAN</DistanceMeters>
          </Trackpoint>
          <Trackpoint>
            <Time>2021-08-03T04:43:01.000Z</Time>
            <Position>
              <LatitudeDegrees>-15.34886305220425128936767578125</LatitudeDegrees>
              <LongitudeDegrees>37.0760050602257251739501953125</LongitudeDegrees>
            </Position>
            <AltitudeMeters>1746.5999755859375</AltitudeMeters>
            <DistanceMeters>NAN</DistanceMeters>
          </Trackpoint>
          <Trackpoint>
            <Time>2021-08-03T04:43:04.000Z</Time>
            <Position>
              <LatitudeDegrees>-15.34886992536485195159912109375</LatitudeDegrees>
              <LongitudeDegrees>37.0760047249495983123779296875</LongitudeDegrees>
            </Position>
            <AltitudeMeters>1747.199951171875</AltitudeMeters>
            <DistanceMeters>NAN</DistanceMeters>
          </Trackpoint>
          <Trackpoint>
            <Time>2021-08-03T04:43:07.000Z</Time>
            <Position>
              <LatitudeDegrees>-15.3488738648593425750732421875</LatitudeDegrees>
              <LongitudeDegrees>37.075995840132236480712890625</LongitudeDegrees>
            </Position>
            <AltitudeMeters>1747.800048828125</AltitudeMeters>
            <DistanceMeters>NAN</DistanceMeters>
          </Trackpoint>
          <Trackpoint>
            <Time>2021-08-03T04:43:12.000Z</Time>
            <Position>
              <LatitudeDegrees>-15.34888870082795619964599609375</LatitudeDegrees>
              <LongitudeDegrees>37.075985781848430633544921875</LongitudeDegrees>
            </Position>
            <AltitudeMeters>1748.800048828125</AltitudeMeters>
            <DistanceMeters>NAN</DistanceMeters>
          </Trackpoint>
          <Trackpoint>
            <Time>2021-08-03T04:43:19.000Z</Time>
            <Position>
              <LatitudeDegrees>-15.348917953670024871826171875</LatitudeDegrees>
              <LongitudeDegrees>37.0759718678891658782958984375</LongitudeDegrees>
            </Position>
            <AltitudeMeters>1749.800048828125</AltitudeMeters>
            <DistanceMeters>NAN</DistanceMeters>
          </Trackpoint>
          <Trackpoint>
            <Time>2021-08-03T04:43:21.000Z</Time>
            <Position>
              <LatitudeDegrees>-15.34892155788838863372802734375</LatitudeDegrees>
              <LongitudeDegrees>37.07598083652555942535400390625</LongitudeDegrees>
            </Position>
            <AltitudeMeters>1750.4000244140625</AltitudeMeters>
            <DistanceMeters>NAN</DistanceMeters>
          </Trackpoint>
          <Trackpoint>
            <Time>2021-08-03T04:43:25.000Z</Time>
            <Position>
              <LatitudeDegrees>-15.34893614239990711212158203125</LatitudeDegrees>
              <LongitudeDegrees>37.0759752206504344940185546875</LongitudeDegrees>
            </Position>
            <AltitudeMeters>1751.199951171875</AltitudeMeters>
            <DistanceMeters>NAN</DistanceMeters>
          </Trackpoint>
          <Trackpoint>
            <Time>2021-08-03T04:43:27.000Z</Time>
            <Position>
              <LatitudeDegrees>-15.3489456139504909515380859375</LatitudeDegrees>
              <LongitudeDegrees>37.07597731612622737884521484375</LongitudeDegrees>
            </Position>
            <AltitudeMeters>1751.800048828125</AltitudeMeters>
            <DistanceMeters>NAN</DistanceMeters>
          </Trackpoint>
          <Trackpoint>
            <Time>2021-08-03T04:43:28.000Z</Time>
            <Position>
              <LatitudeDegrees>-15.348949469625949859619140625</LatitudeDegrees>
              <LongitudeDegrees>37.07597681321203708648681640625</LongitudeDegrees>
            </Position>
            <AltitudeMeters>1752.199951171875</AltitudeMeters>
            <DistanceMeters>NAN</DistanceMeters>
          </Trackpoint>
          <Trackpoint>
            <Time>2021-08-03T04:43:34.000Z</Time>
            <Position>
              <LatitudeDegrees>-15.3489700891077518463134765625</LatitudeDegrees>
              <LongitudeDegrees>37.07596524618566036224365234375</LongitudeDegrees>
            </Position>
            <AltitudeMeters>1753.199951171875</AltitudeMeters>
            <DistanceMeters>NAN</DistanceMeters>
          </Trackpoint>
          <Trackpoint>
            <Time>2021-08-03T04:43:36.000Z</Time>
            <Position>
              <LatitudeDegrees>-15.348977632820606231689453125</LatitudeDegrees>
              <LongitudeDegrees>37.075960636138916015625</LongitudeDegrees>
            </Position>
            <AltitudeMeters>1753.800048828125</AltitudeMeters>
            <DistanceMeters>NAN</DistanceMeters>
          </Trackpoint>
          <Trackpoint>
            <Time>2021-08-03T04:43:40.000Z</Time>
            <Position>
              <LatitudeDegrees>-15.34899012185633182525634765625</LatitudeDegrees>
              <LongitudeDegrees>37.075944878160953521728515625</LongitudeDegrees>
            </Position>
            <AltitudeMeters>1754.800048828125</AltitudeMeters>
            <DistanceMeters>NAN</DistanceMeters>
          </Trackpoint>
          <Trackpoint>
            <Time>2021-08-03T04:43:43.000Z</Time>
            <Position>
              <LatitudeDegrees>-15.34900076687335968017578125</LatitudeDegrees>
              <LongitudeDegrees>37.07594110630452632904052734375</LongitudeDegrees>
            </Position>
            <AltitudeMeters>1755</AltitudeMeters>
            <DistanceMeters>NAN</DistanceMeters>
          </Trackpoint>
          <Trackpoint>
            <Time>2021-08-03T04:43:50.000Z</Time>
            <Position>
              <LatitudeDegrees>-15.34901811741292476654052734375</LatitudeDegrees>
              <LongitudeDegrees>37.07595066167414188385009765625</LongitudeDegrees>
            </Position>
            <AltitudeMeters>1756.4000244140625</AltitudeMeters>
            <DistanceMeters>NAN</DistanceMeters>
          </Trackpoint>
          <Trackpoint>
            <Time>2021-08-03T04:43:51.000Z</Time>
            <Position>
              <LatitudeDegrees>-15.34902197308838367462158203125</LatitudeDegrees>
              <LongitudeDegrees>37.0759485661983489990234375</LongitudeDegrees>
            </Position>
            <AltitudeMeters>1756.4000244140625</AltitudeMeters>
            <DistanceMeters>NAN</DistanceMeters>
          </Trackpoint>
          <Trackpoint>
            <Time>2021-08-03T04:43:54.000Z</Time>
            <Position>
              <LatitudeDegrees>-15.34903454594314098358154296875</LatitudeDegrees>
              <LongitudeDegrees>37.07593171857297420501708984375</LongitudeDegrees>
            </Position>
            <AltitudeMeters>1758.199951171875</AltitudeMeters>
            <DistanceMeters>NAN</DistanceMeters>
          </Trackpoint>
          <Trackpoint>
            <Time>2021-08-03T04:43:58.000Z</Time>
            <Position>
              <LatitudeDegrees>-15.34905164502561092376708984375</LatitudeDegrees>
              <LongitudeDegrees>37.07591059617698192596435546875</LongitudeDegrees>
            </Position>
            <AltitudeMeters>1758.800048828125</AltitudeMeters>
            <DistanceMeters>NAN</DistanceMeters>
          </Trackpoint>
          <Trackpoint>
            <Time>2021-08-03T04:44:01.000Z</Time>
            <Position>
              <LatitudeDegrees>-15.3490599431097507476806640625</LatitudeDegrees>
              <LongitudeDegrees>37.07589617930352687835693359375</LongitudeDegrees>
            </Position>
            <AltitudeMeters>1759.4000244140625</AltitudeMeters>
            <DistanceMeters>NAN</DistanceMeters>
          </Trackpoint>
          <Trackpoint>
            <Time>2021-08-03T04:44:04.000Z</Time>
            <Position>
              <LatitudeDegrees>-15.34906790591776371002197265625</LatitudeDegrees>
              <LongitudeDegrees>37.07588645629584789276123046875</LongitudeDegrees>
            </Position>
            <AltitudeMeters>1760.5999755859375</AltitudeMeters>
            <DistanceMeters>NAN</DistanceMeters>
          </Trackpoint>
          <Trackpoint>
            <Time>2021-08-03T04:44:06.000Z</Time>
            <Position>
              <LatitudeDegrees>-15.34907226450741291046142578125</LatitudeDegrees>
              <LongitudeDegrees>37.0758877135813236236572265625</LongitudeDegrees>
            </Position>
            <AltitudeMeters>1760.800048828125</AltitudeMeters>
            <DistanceMeters>NAN</DistanceMeters>
          </Trackpoint>
          <Trackpoint>
            <Time>2021-08-03T04:44:09.000Z</Time>
            <Position>
              <LatitudeDegrees>-15.349082909524440765380859375</LatitudeDegrees>
              <LongitudeDegrees>37.0758776552975177764892578125</LongitudeDegrees>
            </Position>
            <AltitudeMeters>1761.4000244140625</AltitudeMeters>
            <DistanceMeters>NAN</DistanceMeters>
          </Trackpoint>
          <Trackpoint>
            <Time>2021-08-03T04:44:10.000Z</Time>
            <Position>
              <LatitudeDegrees>-15.34908584319055080413818359375</LatitudeDegrees>
              <LongitudeDegrees>37.0758749730885028839111328125</LongitudeDegrees>
            </Position>
            <AltitudeMeters>1761.5999755859375</AltitudeMeters>
            <DistanceMeters>NAN</DistanceMeters>
          </Trackpoint>
          <Trackpoint>
            <Time>2021-08-03T04:44:13.000Z</Time>
            <Position>
              <LatitudeDegrees>-15.34910176880657672882080078125</LatitudeDegrees>
              <LongitudeDegrees>37.0758642442524433135986328125</LongitudeDegrees>
            </Position>
            <AltitudeMeters>1762.199951171875</AltitudeMeters>
            <DistanceMeters>NAN</DistanceMeters>
          </Trackpoint>
          <Trackpoint>
            <Time>2021-08-03T04:44:14.000Z</Time>
            <Position>
              <LatitudeDegrees>-15.3491088934242725372314453125</LatitudeDegrees>
              <LongitudeDegrees>37.0758608914911746978759765625</LongitudeDegrees>
            </Position>
            <AltitudeMeters>1762.5999755859375</AltitudeMeters>
            <DistanceMeters>NAN</DistanceMeters>
          </Trackpoint>
          <Trackpoint>
            <Time>2021-08-03T04:44:19.000Z</Time>
            <Position>
              <LatitudeDegrees>-15.3491229750216007232666015625</LatitudeDegrees>
              <LongitudeDegrees>37.0758390985429286956787109375</LongitudeDegrees>
            </Position>
            <AltitudeMeters>1763.800048828125</AltitudeMeters>
            <DistanceMeters>NAN</DistanceMeters>
          </Trackpoint>
          <Trackpoint>
            <Time>2021-08-03T04:44:23.000Z</Time>
            <Position>
              <LatitudeDegrees>-15.34914451651275157928466796875</LatitudeDegrees>
              <LongitudeDegrees>37.07583901472389698028564453125</LongitudeDegrees>
            </Position>
            <AltitudeMeters>1764</AltitudeMeters>
            <DistanceMeters>NAN</DistanceMeters>
          </Trackpoint>
          <Trackpoint>
            <Time>2021-08-03T04:44:24.000Z</Time>
            <Position>
              <LatitudeDegrees>-15.34914686344563961029052734375</LatitudeDegrees>
              <LongitudeDegrees>37.07583817653357982635498046875</LongitudeDegrees>
            </Position>
            <AltitudeMeters>1765</AltitudeMeters>
            <DistanceMeters>NAN</DistanceMeters>
          </Trackpoint>
          <Trackpoint>
            <Time>2021-08-03T04:44:29.000Z</Time>
            <Position>
              <LatitudeDegrees>-15.34915541298687458038330078125</LatitudeDegrees>
              <LongitudeDegrees>37.07581554539501667022705078125</LongitudeDegrees>
            </Position>
            <AltitudeMeters>1765.800048828125</AltitudeMeters>
            <DistanceMeters>NAN</DistanceMeters>
          </Trackpoint>
          <Trackpoint>
            <Time>2021-08-03T04:44:31.000Z</Time>
            <Position>
              <LatitudeDegrees>-15.349159352481365203857421875</LatitudeDegrees>
              <LongitudeDegrees>37.0757997035980224609375</LongitudeDegrees>
            </Position>
            <AltitudeMeters>1766.199951171875</AltitudeMeters>
            <DistanceMeters>NAN</DistanceMeters>
          </Trackpoint>
          <Trackpoint>
            <Time>2021-08-03T04:44:36.000Z</Time>
            <Position>
              <LatitudeDegrees>-15.34917242825031280517578125</LatitudeDegrees>
              <LongitudeDegrees>37.0757800899446010589599609375</LongitudeDegrees>
            </Position>
            <AltitudeMeters>1767.199951171875</AltitudeMeters>
            <DistanceMeters>NAN</DistanceMeters>
          </Trackpoint>
          <Trackpoint>
            <Time>2021-08-03T04:44:37.000Z</Time>
            <Position>
              <LatitudeDegrees>-15.34917703829705715179443359375</LatitudeDegrees>
              <LongitudeDegrees>37.07577782683074474334716796875</LongitudeDegrees>
            </Position>
            <AltitudeMeters>1767.199951171875</AltitudeMeters>
            <DistanceMeters>NAN</DistanceMeters>
          </Trackpoint>
          <Trackpoint>
            <Time>2021-08-03T04:44:42.000Z</Time>
            <Position>
              <LatitudeDegrees>-15.349199585616588592529296875</LatitudeDegrees>
              <LongitudeDegrees>37.0757884718477725982666015625</LongitudeDegrees>
            </Position>
            <AltitudeMeters>1768.4000244140625</AltitudeMeters>
            <DistanceMeters>NAN</DistanceMeters>
          </Trackpoint>
          <Trackpoint>
            <Time>2021-08-03T04:44:43.000Z</Time>
            <Position>
              <LatitudeDegrees>-15.34920184873044490814208984375</LatitudeDegrees>
              <LongitudeDegrees>37.07578889094293117523193359375</LongitudeDegrees>
            </Position>
            <AltitudeMeters>1768.4000244140625</AltitudeMeters>
            <DistanceMeters>NAN</DistanceMeters>
          </Trackpoint>
          <Trackpoint>
            <Time>2021-08-03T04:44:47.000Z</Time>
            <Position>
              <LatitudeDegrees>-15.34921861253678798675537109375</LatitudeDegrees>
              <LongitudeDegrees>37.075775228440761566162109375</LongitudeDegrees>
            </Position>
            <AltitudeMeters>1769.800048828125</AltitudeMeters>
            <DistanceMeters>NAN</DistanceMeters>
          </Trackpoint>
          <Trackpoint>
            <Time>2021-08-03T04:44:51.000Z</Time>
            <Position>
              <LatitudeDegrees>-15.34923470579087734222412109375</LatitudeDegrees>
              <LongitudeDegrees>37.07575854845345020294189453125</LongitudeDegrees>
            </Position>
            <AltitudeMeters>1770.5999755859375</AltitudeMeters>
            <DistanceMeters>NAN</DistanceMeters>
          </Trackpoint>
          <Trackpoint>
            <Time>2021-08-03T04:44:52.000Z</Time>
            <Position>
              <LatitudeDegrees>-15.34923923201858997344970703125</LatitudeDegrees>
              <LongitudeDegrees>37.075751759111881256103515625</LongitudeDegrees>
            </Position>
            <AltitudeMeters>1771</AltitudeMeters>
            <DistanceMeters>NAN</DistanceMeters>
          </Trackpoint>
          <Trackpoint>
            <Time>2021-08-03T04:44:57.000Z</Time>
            <Position>
              <LatitudeDegrees>-15.34926337189972400665283203125</LatitudeDegrees>
              <LongitudeDegrees>37.0757693611085414886474609375</LongitudeDegrees>
            </Position>
            <AltitudeMeters>1771.800048828125</AltitudeMeters>
            <DistanceMeters>NAN</DistanceMeters>
          </Trackpoint>
          <Trackpoint>
            <Time>2021-08-03T04:44:59.000Z</Time>
            <Position>
              <LatitudeDegrees>-15.3492668084800243377685546875</LatitudeDegrees>
              <LongitudeDegrees>37.0757733844220638275146484375</LongitudeDegrees>
            </Position>
            <AltitudeMeters>1772.199951171875</AltitudeMeters>
            <DistanceMeters>NAN</DistanceMeters>
          </Trackpoint>
          <Trackpoint>
            <Time>2021-08-03T04:45:02.000Z</Time>
            <Position>
              <LatitudeDegrees>-15.349276028573513031005859375</LatitudeDegrees>
              <LongitudeDegrees>37.07577145658433437347412109375</LongitudeDegrees>
            </Position>
            <AltitudeMeters>1772.5999755859375</AltitudeMeters>
            <DistanceMeters>NAN</DistanceMeters>
          </Trackpoint>
          <Trackpoint>
            <Time>2021-08-03T04:45:05.000Z</Time>
            <Position>
              <LatitudeDegrees>-15.34928751178085803985595703125</LatitudeDegrees>
              <LongitudeDegrees>37.07575687207281589508056640625</LongitudeDegrees>
            </Position>
            <AltitudeMeters>1773.4000244140625</AltitudeMeters>
            <DistanceMeters>NAN</DistanceMeters>
          </Trackpoint>
          <Trackpoint>
            <Time>2021-08-03T04:45:10.000Z</Time>
            <Position>
              <LatitudeDegrees>-15.3493000008165836334228515625</LatitudeDegrees>
              <LongitudeDegrees>37.0757418684661388397216796875</LongitudeDegrees>
            </Position>
            <AltitudeMeters>1773.800048828125</AltitudeMeters>
            <DistanceMeters>NAN</DistanceMeters>
          </Trackpoint>
          <Trackpoint>
            <Time>2021-08-03T04:45:11.000Z</Time>
            <Position>
              <LatitudeDegrees>-15.34930427558720111846923828125</LatitudeDegrees>
              <LongitudeDegrees>37.075737006962299346923828125</LongitudeDegrees>
            </Position>
            <AltitudeMeters>1774.4000244140625</AltitudeMeters>
            <DistanceMeters>NAN</DistanceMeters>
          </Trackpoint>
          <Trackpoint>
            <Time>2021-08-03T04:45:12.000Z</Time>
            <Position>
              <LatitudeDegrees>-15.34930829890072345733642578125</LatitudeDegrees>
              <LongitudeDegrees>37.0757297985255718231201171875</LongitudeDegrees>
            </Position>
            <AltitudeMeters>1774.4000244140625</AltitudeMeters>
            <DistanceMeters>NAN</DistanceMeters>
          </Trackpoint>
          <Trackpoint>
            <Time>2021-08-03T04:45:17.000Z</Time>
            <Position>
              <LatitudeDegrees>-15.34933310933411121368408203125</LatitudeDegrees>
              <LongitudeDegrees>37.0756992883980274200439453125</LongitudeDegrees>
            </Position>
            <AltitudeMeters>1775.5999755859375</AltitudeMeters>
            <DistanceMeters>NAN</DistanceMeters>
          </Trackpoint>
          <Trackpoint>
            <Time>2021-08-03T04:45:18.000Z</Time>
            <Position>
              <LatitudeDegrees>-15.34933847375214099884033203125</LatitudeDegrees>
              <LongitudeDegrees>37.07569635473191738128662109375</LongitudeDegrees>
            </Position>
            <AltitudeMeters>1775.5999755859375</AltitudeMeters>
            <DistanceMeters>NAN</DistanceMeters>
          </Trackpoint>
          <Trackpoint>
            <Time>2021-08-03T04:45:22.000Z</Time>
            <Position>
              <LatitudeDegrees>-15.34935087896883487701416015625</LatitudeDegrees>
              <LongitudeDegrees>37.075681351125240325927734375</LongitudeDegrees>
            </Position>
            <AltitudeMeters>1776.5999755859375</AltitudeMeters>
            <DistanceMeters>NAN</DistanceMeters>
          </Trackpoint>
          <Trackpoint>
            <Time>2021-08-03T04:45:24.000Z</Time>
            <Position>
              <LatitudeDegrees>-15.34935808740556240081787109375</LatitudeDegrees>
              <LongitudeDegrees>37.07567305304110050201416015625</LongitudeDegrees>
            </Position>
            <AltitudeMeters>1777</AltitudeMeters>
            <DistanceMeters>NAN</DistanceMeters>
          </Trackpoint>
          <Trackpoint>
            <Time>2021-08-03T04:45:26.000Z</Time>
            <Position>
              <LatitudeDegrees>-15.349367894232273101806640625</LatitudeDegrees>
              <LongitudeDegrees>37.07566349767148494720458984375</LongitudeDegrees>
            </Position>
            <AltitudeMeters>1777.5999755859375</AltitudeMeters>
            <DistanceMeters>NAN</DistanceMeters>
          </Trackpoint>
          <Trackpoint>
            <Time>2021-08-03T04:45:28.000Z</Time>
            <Position>
              <LatitudeDegrees>-15.349377952516078948974609375</LatitudeDegrees>
              <LongitudeDegrees>37.0756506733596324920654296875</LongitudeDegrees>
            </Position>
            <AltitudeMeters>1778.800048828125</AltitudeMeters>
            <DistanceMeters>NAN</DistanceMeters>
          </Trackpoint>
          <Trackpoint>
            <Time>2021-08-03T04:45:33.000Z</Time>
            <Position>
              <LatitudeDegrees>-15.3494052775204181671142578125</LatitudeDegrees>
              <LongitudeDegrees>37.0756231807172298431396484375</LongitudeDegrees>
            </Position>
            <AltitudeMeters>1779.800048828125</AltitudeMeters>
            <DistanceMeters>NAN</DistanceMeters>
          </Trackpoint>
          <Trackpoint>
            <Time>2021-08-03T04:45:36.000Z</Time>
            <Position>
              <LatitudeDegrees>-15.34942162223160266876220703125</LatitudeDegrees>
              <LongitudeDegrees>37.0756111107766628265380859375</LongitudeDegrees>
            </Position>
            <AltitudeMeters>1780.5999755859375</AltitudeMeters>
            <DistanceMeters>NAN</DistanceMeters>
          </Trackpoint>
          <Trackpoint>
            <Time>2021-08-03T04:45:38.000Z</Time>
            <Position>
              <LatitudeDegrees>-15.3494341112673282623291015625</LatitudeDegrees>
              <LongitudeDegrees>37.07559711299836635589599609375</LongitudeDegrees>
            </Position>
            <AltitudeMeters>1781</AltitudeMeters>
            <DistanceMeters>NAN</DistanceMeters>
          </Trackpoint>
          <Trackpoint>
            <Time>2021-08-03T04:45:44.000Z</Time>
            <Position>
              <LatitudeDegrees>-15.3494652919471263885498046875</LatitudeDegrees>
              <LongitudeDegrees>37.0755594782531261444091796875</LongitudeDegrees>
            </Position>
            <AltitudeMeters>1782</AltitudeMeters>
            <DistanceMeters>NAN</DistanceMeters>
          </Trackpoint>
          <Trackpoint>
            <Time>2021-08-03T04:45:45.000Z</Time>
            <Position>
              <LatitudeDegrees>-15.34947141073644161224365234375</LatitudeDegrees>
              <LongitudeDegrees>37.07555604167282581329345703125</LongitudeDegrees>
            </Position>
            <AltitudeMeters>1782</AltitudeMeters>
            <DistanceMeters>NAN</DistanceMeters>
          </Trackpoint>
          <Trackpoint>
            <Time>2021-08-03T04:45:46.000Z</Time>
            <Position>
              <LatitudeDegrees>-15.34948113374412059783935546875</LatitudeDegrees>
              <LongitudeDegrees>37.0755517669022083282470703125</LongitudeDegrees>
            </Position>
            <AltitudeMeters>1782.4000244140625</AltitudeMeters>
            <DistanceMeters>NAN</DistanceMeters>
          </Trackpoint>
          <Trackpoint>
            <Time>2021-08-03T04:45:51.000Z</Time>
            <Position>
              <LatitudeDegrees>-15.3495035134255886077880859375</LatitudeDegrees>
              <LongitudeDegrees>37.07553525455296039581298828125</LongitudeDegrees>
            </Position>
            <AltitudeMeters>1783</AltitudeMeters>
            <DistanceMeters>NAN</DistanceMeters>
          </Trackpoint>
          <Trackpoint>
            <Time>2021-08-03T04:45:58.000Z</Time>
            <Position>
              <LatitudeDegrees>-15.34952673129737377166748046875</LatitudeDegrees>
              <LongitudeDegrees>37.07548798061907291412353515625</LongitudeDegrees>
            </Position>
            <AltitudeMeters>1784</AltitudeMeters>
            <DistanceMeters>NAN</DistanceMeters>
          </Trackpoint>
          <Trackpoint>
            <Time>2021-08-03T04:45:59.000Z</Time>
            <Position>
              <LatitudeDegrees>-15.34953075461089611053466796875</LatitudeDegrees>
              <LongitudeDegrees>37.07547850906848907470703125</LongitudeDegrees>
            </Position>
            <AltitudeMeters>1784</AltitudeMeters>
            <DistanceMeters>NAN</DistanceMeters>
          </Trackpoint>
          <Trackpoint>
            <Time>2021-08-03T04:46:03.000Z</Time>
            <Position>
              <LatitudeDegrees>-15.34954953007400035858154296875</LatitudeDegrees>
              <LongitudeDegrees>37.07545227371156215667724609375</LongitudeDegrees>
            </Position>
            <AltitudeMeters>1784.800048828125</AltitudeMeters>
            <DistanceMeters>NAN</DistanceMeters>
          </Trackpoint>
          <Trackpoint>
            <Time>2021-08-03T04:46:06.000Z</Time>
            <Position>
              <LatitudeDegrees>-15.34956327639520168304443359375</LatitudeDegrees>
              <LongitudeDegrees>37.0754404552280902862548828125</LongitudeDegrees>
            </Position>
            <AltitudeMeters>1785</AltitudeMeters>
            <DistanceMeters>NAN</DistanceMeters>
          </Trackpoint>
          <Trackpoint>
            <Time>2021-08-03T04:46:07.000Z</Time>
            <Position>
              <LatitudeDegrees>-15.3495729155838489532470703125</LatitudeDegrees>
              <LongitudeDegrees>37.07543165422976016998291015625</LongitudeDegrees>
            </Position>
            <AltitudeMeters>1785.199951171875</AltitudeMeters>
            <DistanceMeters>NAN</DistanceMeters>
          </Trackpoint>
          <Trackpoint>
            <Time>2021-08-03T04:46:13.000Z</Time>
            <Position>
              <LatitudeDegrees>-15.3496076166629791259765625</LatitudeDegrees>
              <LongitudeDegrees>37.0754045806825160980224609375</LongitudeDegrees>
            </Position>
            <AltitudeMeters>1786.4000244140625</AltitudeMeters>
            <DistanceMeters>NAN</DistanceMeters>
          </Trackpoint>
          <Trackpoint>
            <Time>2021-08-03T04:46:16.000Z</Time>
            <Position>
              <LatitudeDegrees>-15.34962161444127559661865234375</LatitudeDegrees>
              <LongitudeDegrees>37.0753948576748371124267578125</LongitudeDegrees>
            </Position>
            <AltitudeMeters>1787</AltitudeMeters>
            <DistanceMeters>NAN</DistanceMeters>
          </Trackpoint>
          <Trackpoint>
            <Time>2021-08-03T04:46:17.000Z</Time>
            <Position>
              <LatitudeDegrees>-15.3496285714209079742431640625</LatitudeDegrees>
              <LongitudeDegrees>37.07539360038936138153076171875</LongitudeDegrees>
            </Position>
            <AltitudeMeters>1787.5999755859375</AltitudeMeters>
            <DistanceMeters>NAN</DistanceMeters>
          </Trackpoint>
          <Trackpoint>
            <Time>2021-08-03T04:46:22.000Z</Time>
            <Position>
              <LatitudeDegrees>-15.34964223392307758331298828125</LatitudeDegrees>
              <LongitudeDegrees>37.07538723014295101165771484375</LongitudeDegrees>
            </Position>
            <AltitudeMeters>1788.4000244140625</AltitudeMeters>
            <DistanceMeters>NAN</DistanceMeters>
          </Trackpoint>
          <Trackpoint>
            <Time>2021-08-03T04:46:25.000Z</Time>
            <Position>
              <LatitudeDegrees>-15.34964508377015590667724609375</LatitudeDegrees>
              <LongitudeDegrees>37.075376920402050018310546875</LongitudeDegrees>
            </Position>
            <AltitudeMeters>1788.5999755859375</AltitudeMeters>
            <DistanceMeters>NAN</DistanceMeters>
          </Trackpoint>
          <Trackpoint>
            <Time>2021-08-03T04:46:29.000Z</Time>
            <Position>
              <LatitudeDegrees>-15.34965765662491321563720703125</LatitudeDegrees>
              <LongitudeDegrees>37.07536040805280208587646484375</LongitudeDegrees>
            </Position>
            <AltitudeMeters>1788.800048828125</AltitudeMeters>
            <DistanceMeters>NAN</DistanceMeters>
          </Trackpoint>
          <Trackpoint>
            <Time>2021-08-03T04:46:36.000Z</Time>
            <Position>
              <LatitudeDegrees>-15.3496902622282505035400390625</LatitudeDegrees>
              <LongitudeDegrees>37.07530844025313854217529296875</LongitudeDegrees>
            </Position>
            <AltitudeMeters>1789.5999755859375</AltitudeMeters>
            <DistanceMeters>NAN</DistanceMeters>
          </Trackpoint>
          <Trackpoint>
            <Time>2021-08-03T04:46:42.000Z</Time>
            <Position>
              <LatitudeDegrees>-15.34971700049936771392822265625</LatitudeDegrees>
              <LongitudeDegrees>37.0752879045903682708740234375</LongitudeDegrees>
            </Position>
            <AltitudeMeters>1791</AltitudeMeters>
            <DistanceMeters>NAN</DistanceMeters>
          </Trackpoint>
          <Trackpoint>
            <Time>2021-08-03T04:46:44.000Z</Time>
            <Position>
              <LatitudeDegrees>-15.34973032772541046142578125</LatitudeDegrees>
              <LongitudeDegrees>37.07527457736432552337646484375</LongitudeDegrees>
            </Position>
            <AltitudeMeters>1791.199951171875</AltitudeMeters>
            <DistanceMeters>NAN</DistanceMeters>
          </Trackpoint>
          <Trackpoint>
            <Time>2021-08-03T04:46:47.000Z</Time>
            <Position>
              <LatitudeDegrees>-15.34974901936948299407958984375</LatitudeDegrees>
              <LongitudeDegrees>37.07525722682476043701171875</LongitudeDegrees>
            </Position>
            <AltitudeMeters>1792.4000244140625</AltitudeMeters>
            <DistanceMeters>NAN</DistanceMeters>
          </Trackpoint>
          <Trackpoint>
            <Time>2021-08-03T04:46:52.000Z</Time>
            <Position>
              <LatitudeDegrees>-15.3497754223644733428955078125</LatitudeDegrees>
              <LongitudeDegrees>37.07522965036332607269287109375</LongitudeDegrees>
            </Position>
            <AltitudeMeters>1793.5999755859375</AltitudeMeters>
            <DistanceMeters>NAN</DistanceMeters>
          </Trackpoint>
          <Trackpoint>
            <Time>2021-08-03T04:46:55.000Z</Time>
            <Position>
              <LatitudeDegrees>-15.34979193471372127532958984375</LatitudeDegrees>
              <LongitudeDegrees>37.07521372474730014801025390625</LongitudeDegrees>
            </Position>
            <AltitudeMeters>1794.800048828125</AltitudeMeters>
            <DistanceMeters>NAN</DistanceMeters>
          </Trackpoint>
          <Trackpoint>
            <Time>2021-08-03T04:46:57.000Z</Time>
            <Position>
              <LatitudeDegrees>-15.3498055972158908843994140625</LatitudeDegrees>
              <LongitudeDegrees>37.0752003975212574005126953125</LongitudeDegrees>
            </Position>
            <AltitudeMeters>1794.800048828125</AltitudeMeters>
            <DistanceMeters>NAN</DistanceMeters>
          </Trackpoint>
          <Trackpoint>
            <Time>2021-08-03T04:47:01.000Z</Time>
            <Position>
              <LatitudeDegrees>-15.34983485005795955657958984375</LatitudeDegrees>
              <LongitudeDegrees>37.07518489100039005279541015625</LongitudeDegrees>
            </Position>
            <AltitudeMeters>1795.5999755859375</AltitudeMeters>
            <DistanceMeters>NAN</DistanceMeters>
          </Trackpoint>
          <Trackpoint>
            <Time>2021-08-03T04:47:02.000Z</Time>
            <Position>
              <LatitudeDegrees>-15.349839963018894195556640625</LatitudeDegrees>
              <LongitudeDegrees>37.07518103532493114471435546875</LongitudeDegrees>
            </Position>
            <AltitudeMeters>1795.800048828125</AltitudeMeters>
            <DistanceMeters>NAN</DistanceMeters>
          </Trackpoint>
          <Trackpoint>
            <Time>2021-08-03T04:47:05.000Z</Time>
            <Position>
              <LatitudeDegrees>-15.3498568944633007049560546875</LatitudeDegrees>
              <LongitudeDegrees>37.07516946829855442047119140625</LongitudeDegrees>
            </Position>
            <AltitudeMeters>1796.800048828125</AltitudeMeters>
            <DistanceMeters>NAN</DistanceMeters>
          </Trackpoint>
          <Trackpoint>
            <Time>2021-08-03T04:47:10.000Z</Time>
            <Position>
              <LatitudeDegrees>-15.34988187253475189208984375</LatitudeDegrees>
              <LongitudeDegrees>37.07515404559671878814697265625</LongitudeDegrees>
            </Position>
            <AltitudeMeters>1797.800048828125</AltitudeMeters>
            <DistanceMeters>NAN</DistanceMeters>
          </Trackpoint>
          <Trackpoint>
            <Time>2021-08-03T04:47:13.000Z</Time>
            <Position>
              <LatitudeDegrees>-15.34989234991371631622314453125</LatitudeDegrees>
              <LongitudeDegrees>37.07514750771224498748779296875</LongitudeDegrees>
            </Position>
            <AltitudeMeters>1798.5999755859375</AltitudeMeters>
            <DistanceMeters>NAN</DistanceMeters>
          </Trackpoint>
          <Trackpoint>
            <Time>2021-08-03T04:47:14.000Z</Time>
            <Position>
              <LatitudeDegrees>-15.34989737905561923980712890625</LatitudeDegrees>
              <LongitudeDegrees>37.075142562389373779296875</LongitudeDegrees>
            </Position>
            <AltitudeMeters>1799.199951171875</AltitudeMeters>
            <DistanceMeters>NAN</DistanceMeters>
          </Trackpoint>
          <Trackpoint>
            <Time>2021-08-03T04:47:19.000Z</Time>
            <Position>
              <LatitudeDegrees>-15.34991674125194549560546875</LatitudeDegrees>
              <LongitudeDegrees>37.07513141445815563201904296875</LongitudeDegrees>
            </Position>
            <AltitudeMeters>1800.4000244140625</AltitudeMeters>
            <DistanceMeters>NAN</DistanceMeters>
          </Trackpoint>
          <Trackpoint>
            <Time>2021-08-03T04:47:22.000Z</Time>
            <Position>
              <LatitudeDegrees>-15.3499306552112102508544921875</LatitudeDegrees>
              <LongitudeDegrees>37.0751102082431316375732421875</LongitudeDegrees>
            </Position>
            <AltitudeMeters>1801</AltitudeMeters>
            <DistanceMeters>NAN</DistanceMeters>
          </Trackpoint>
          <Trackpoint>
            <Time>2021-08-03T04:47:23.000Z</Time>
            <Position>
              <LatitudeDegrees>-15.34993560053408145904541015625</LatitudeDegrees>
              <LongitudeDegrees>37.07510408945381641387939453125</LongitudeDegrees>
            </Position>
            <AltitudeMeters>1801</AltitudeMeters>
            <DistanceMeters>NAN</DistanceMeters>
          </Trackpoint>
          <Trackpoint>
            <Time>2021-08-03T04:47:28.000Z</Time>
            <Position>
              <LatitudeDegrees>-15.34996493719518184661865234375</LatitudeDegrees>
              <LongitudeDegrees>37.07508514635264873504638671875</LongitudeDegrees>
            </Position>
            <AltitudeMeters>1801.4000244140625</AltitudeMeters>
            <DistanceMeters>NAN</DistanceMeters>
          </Trackpoint>
          <Trackpoint>
            <Time>2021-08-03T04:47:32.000Z</Time>
            <Position>
              <LatitudeDegrees>-15.34998505376279354095458984375</LatitudeDegrees>
              <LongitudeDegrees>37.075073830783367156982421875</LongitudeDegrees>
            </Position>
            <AltitudeMeters>1802.4000244140625</AltitudeMeters>
            <DistanceMeters>NAN</DistanceMeters>
          </Trackpoint>
          <Trackpoint>
            <Time>2021-08-03T04:47:33.000Z</Time>
            <Position>
              <LatitudeDegrees>-15.34998916089534759521484375</LatitudeDegrees>
              <LongitudeDegrees>37.07506888546049594879150390625</LongitudeDegrees>
            </Position>
            <AltitudeMeters>1802.5999755859375</AltitudeMeters>
            <DistanceMeters>NAN</DistanceMeters>
          </Trackpoint>
          <Trackpoint>
            <Time>2021-08-03T04:47:35.000Z</Time>
            <Position>
              <LatitudeDegrees>-15.3499963693320751190185546875</LatitudeDegrees>
              <LongitudeDegrees>37.07506033591926097869873046875</LongitudeDegrees>
            </Position>
            <AltitudeMeters>1802.800048828125</AltitudeMeters>
            <DistanceMeters>NAN</DistanceMeters>
          </Trackpoint>
          <Trackpoint>
            <Time>2021-08-03T04:47:38.000Z</Time>
            <Position>
              <LatitudeDegrees>-15.350017659366130828857421875</LatitudeDegrees>
              <LongitudeDegrees>37.07504424266517162322998046875</LongitudeDegrees>
            </Position>
            <AltitudeMeters>1803</AltitudeMeters>
            <DistanceMeters>NAN</DistanceMeters>
          </Trackpoint>
          <Trackpoint>
            <Time>2021-08-03T04:47:39.000Z</Time>
            <Position>
              <LatitudeDegrees>-15.35002662800252437591552734375</LatitudeDegrees>
              <LongitudeDegrees>37.0750384591519832611083984375</LongitudeDegrees>
            </Position>
            <AltitudeMeters>1803.5999755859375</AltitudeMeters>
            <DistanceMeters>NAN</DistanceMeters>
          </Trackpoint>
          <Trackpoint>
            <Time>2021-08-03T04:47:41.000Z</Time>
            <Position>
              <LatitudeDegrees>-15.350041128695011138916015625</LatitudeDegrees>
              <LongitudeDegrees>37.07502462901175022125244140625</LongitudeDegrees>
            </Position>
            <AltitudeMeters>1804</AltitudeMeters>
            <DistanceMeters>NAN</DistanceMeters>
          </Trackpoint>
          <Trackpoint>
            <Time>2021-08-03T04:47:47.000Z</Time>
            <Position>
              <LatitudeDegrees>-15.35008932463824748992919921875</LatitudeDegrees>
              <LongitudeDegrees>37.07500585354864597320556640625</LongitudeDegrees>
            </Position>
            <AltitudeMeters>1804.800048828125</AltitudeMeters>
            <DistanceMeters>NAN</DistanceMeters>
          </Trackpoint>
          <Trackpoint>
            <Time>2021-08-03T04:47:51.000Z</Time>
            <Position>
              <LatitudeDegrees>-15.3501212596893310546875</LatitudeDegrees>
              <LongitudeDegrees>37.0749695599079132080078125</LongitudeDegrees>
            </Position>
            <AltitudeMeters>1805</AltitudeMeters>
            <DistanceMeters>NAN</DistanceMeters>
          </Trackpoint>
          <Trackpoint>
            <Time>2021-08-03T04:48:01.000Z</Time>
            <Position>
              <LatitudeDegrees>-15.3502156399190425872802734375</LatitudeDegrees>
              <LongitudeDegrees>37.074897475540637969970703125</LongitudeDegrees>
            </Position>
            <AltitudeMeters>1805.199951171875</AltitudeMeters>
            <DistanceMeters>NAN</DistanceMeters>
          </Trackpoint>
          <Trackpoint>
            <Time>2021-08-03T04:48:04.000Z</Time>
            <Position>
              <LatitudeDegrees>-15.35024288110435009002685546875</LatitudeDegrees>
              <LongitudeDegrees>37.0748852379620075225830078125</LongitudeDegrees>
            </Position>
            <AltitudeMeters>1805.800048828125</AltitudeMeters>
            <DistanceMeters>NAN</DistanceMeters>
          </Trackpoint>
          <Trackpoint>
            <Time>2021-08-03T04:48:10.000Z</Time>
            <Position>
              <LatitudeDegrees>-15.35029769875109195709228515625</LatitudeDegrees>
              <LongitudeDegrees>37.07486822269856929779052734375</LongitudeDegrees>
            </Position>
            <AltitudeMeters>1807</AltitudeMeters>
            <DistanceMeters>NAN</DistanceMeters>
          </Trackpoint>
          <Trackpoint>
            <Time>2021-08-03T04:48:11.000Z</Time>
            <Position>
              <LatitudeDegrees>-15.35030574537813663482666015625</LatitudeDegrees>
              <LongitudeDegrees>37.0748631097376346588134765625</LongitudeDegrees>
            </Position>
            <AltitudeMeters>1807.199951171875</AltitudeMeters>
            <DistanceMeters>NAN</DistanceMeters>
          </Trackpoint>
          <Trackpoint>
            <Time>2021-08-03T04:48:20.000Z</Time>
            <Position>
              <LatitudeDegrees>-15.35039492882788181304931640625</LatitudeDegrees>
              <LongitudeDegrees>37.0748121477663516998291015625</LongitudeDegrees>
            </Position>
            <AltitudeMeters>1808.4000244140625</AltitudeMeters>
            <DistanceMeters>NAN</DistanceMeters>
          </Trackpoint>
          <Trackpoint>
            <Time>2021-08-03T04:48:21.000Z</Time>
            <Position>
              <LatitudeDegrees>-15.35040431655943393707275390625</LatitudeDegrees>
              <LongitudeDegrees>37.0748059451580047607421875</LongitudeDegrees>
            </Position>
            <AltitudeMeters>1808.5999755859375</AltitudeMeters>
            <DistanceMeters>NAN</DistanceMeters>
          </Trackpoint>
          <Trackpoint>
            <Time>2021-08-03T04:48:29.000Z</Time>
            <Position>
              <LatitudeDegrees>-15.35048562102019786834716796875</LatitudeDegrees>
              <LongitudeDegrees>37.07480133511126041412353515625</LongitudeDegrees>
            </Position>
            <AltitudeMeters>1809.4000244140625</AltitudeMeters>
            <DistanceMeters>NAN</DistanceMeters>
          </Trackpoint>
          <Trackpoint>
            <Time>2021-08-03T04:48:31.000Z</Time>
            <Position>
              <LatitudeDegrees>-15.35050255246460437774658203125</LatitudeDegrees>
              <LongitudeDegrees>37.07479479722678661346435546875</LongitudeDegrees>
            </Position>
            <AltitudeMeters>1810</AltitudeMeters>
            <DistanceMeters>NAN</DistanceMeters>
          </Trackpoint>
          <Trackpoint>
            <Time>2021-08-03T04:48:35.000Z</Time>
            <Position>
              <LatitudeDegrees>-15.3505418635904788970947265625</LatitudeDegrees>
              <LongitudeDegrees>37.074786163866519927978515625</LongitudeDegrees>
            </Position>
            <AltitudeMeters>1810.4000244140625</AltitudeMeters>
            <DistanceMeters>NAN</DistanceMeters>
          </Trackpoint>
          <Trackpoint>
            <Time>2021-08-03T04:48:41.000Z</Time>
            <Position>
              <LatitudeDegrees>-15.35059391520917415618896484375</LatitudeDegrees>
              <LongitudeDegrees>37.07476110197603702545166015625</LongitudeDegrees>
            </Position>
            <AltitudeMeters>1810.5999755859375</AltitudeMeters>
            <DistanceMeters>NAN</DistanceMeters>
          </Trackpoint>
          <Trackpoint>
            <Time>2021-08-03T04:48:48.000Z</Time>
            <Position>
              <LatitudeDegrees>-15.3506588749587535858154296875</LatitudeDegrees>
              <LongitudeDegrees>37.07473377697169780731201171875</LongitudeDegrees>
            </Position>
            <AltitudeMeters>1811.199951171875</AltitudeMeters>
            <DistanceMeters>NAN</DistanceMeters>
          </Trackpoint>
          <Trackpoint>
            <Time>2021-08-03T04:48:50.000Z</Time>
            <Position>
              <LatitudeDegrees>-15.35067639313638210296630859375</LatitudeDegrees>
              <LongitudeDegrees>37.07472145557403564453125</LongitudeDegrees>
            </Position>
            <AltitudeMeters>1811</AltitudeMeters>
            <DistanceMeters>NAN</DistanceMeters>
          </Trackpoint>
          <Trackpoint>
            <Time>2021-08-03T04:48:59.000Z</Time>
            <Position>
              <LatitudeDegrees>-15.35077194683253765106201171875</LatitudeDegrees>
              <LongitudeDegrees>37.07467384636402130126953125</LongitudeDegrees>
            </Position>
            <AltitudeMeters>1811.199951171875</AltitudeMeters>
            <DistanceMeters>NAN</DistanceMeters>
          </Trackpoint>
          <Trackpoint>
            <Time>2021-08-03T04:49:01.000Z</Time>
            <Position>
              <LatitudeDegrees>-15.3507899679243564605712890625</LatitudeDegrees>
              <LongitudeDegrees>37.07466387189924716949462890625</LongitudeDegrees>
            </Position>
            <AltitudeMeters>1811.5999755859375</AltitudeMeters>
            <DistanceMeters>NAN</DistanceMeters>
          </Trackpoint>
          <Trackpoint>
            <Time>2021-08-03T04:49:09.000Z</Time>
            <Position>
              <LatitudeDegrees>-15.35085928626358509063720703125</LatitudeDegrees>
              <LongitudeDegrees>37.0746208727359771728515625</LongitudeDegrees>
            </Position>
            <AltitudeMeters>1813</AltitudeMeters>
            <DistanceMeters>NAN</DistanceMeters>
          </Trackpoint>
          <Trackpoint>
            <Time>2021-08-03T04:49:16.000Z</Time>
            <Position>
              <LatitudeDegrees>-15.3508982621133327484130859375</LatitudeDegrees>
              <LongitudeDegrees>37.07458667457103729248046875</LongitudeDegrees>
            </Position>
            <AltitudeMeters>1812.4000244140625</AltitudeMeters>
            <DistanceMeters>NAN</DistanceMeters>
          </Trackpoint>
          <Trackpoint>
            <Time>2021-08-03T04:49:17.000Z</Time>
            <Position>
              <LatitudeDegrees>-15.35090379416942596435546875</LatitudeDegrees>
              <LongitudeDegrees>37.0745798014104366302490234375</LongitudeDegrees>
            </Position>
            <AltitudeMeters>1812</AltitudeMeters>
            <DistanceMeters>NAN</DistanceMeters>
          </Trackpoint>
          <Trackpoint>
            <Time>2021-08-03T04:49:22.000Z</Time>
            <Position>
              <LatitudeDegrees>-15.35094696097075939178466796875</LatitudeDegrees>
              <LongitudeDegrees>37.074544765055179595947265625</LongitudeDegrees>
            </Position>
            <AltitudeMeters>1811.4000244140625</AltitudeMeters>
            <DistanceMeters>NAN</DistanceMeters>
          </Trackpoint>
          <Trackpoint>
            <Time>2021-08-03T04:49:23.000Z</Time>
            <Position>
              <LatitudeDegrees>-15.35095098428428173065185546875</LatitudeDegrees>
              <LongitudeDegrees>37.07453244365751743316650390625</LongitudeDegrees>
            </Position>
            <AltitudeMeters>1811.4000244140625</AltitudeMeters>
            <DistanceMeters>NAN</DistanceMeters>
          </Trackpoint>
          <Trackpoint>
            <Time>2021-08-03T04:49:25.000Z</Time>
            <Position>
              <LatitudeDegrees>-15.35096439532935619354248046875</LatitudeDegrees>
              <LongitudeDegrees>37.07451936788856983184814453125</LongitudeDegrees>
            </Position>
            <AltitudeMeters>1811.800048828125</AltitudeMeters>
            <DistanceMeters>NAN</DistanceMeters>
          </Trackpoint>
          <Trackpoint>
            <Time>2021-08-03T04:49:29.000Z</Time>
            <Position>
              <LatitudeDegrees>-15.35099976696074008941650390625</LatitudeDegrees>
              <LongitudeDegrees>37.07449615001678466796875</LongitudeDegrees>
            </Position>
            <AltitudeMeters>1812</AltitudeMeters>
            <DistanceMeters>NAN</DistanceMeters>
          </Trackpoint>
          <Trackpoint>
            <Time>2021-08-03T04:49:33.000Z</Time>
            <Position>
              <LatitudeDegrees>-15.35103212110698223114013671875</LatitudeDegrees>
              <LongitudeDegrees>37.0744711719453334808349609375</LongitudeDegrees>
            </Position>
            <AltitudeMeters>1813</AltitudeMeters>
            <DistanceMeters>NAN</DistanceMeters>
          </Trackpoint>
          <Trackpoint>
            <Time>2021-08-03T04:49:34.000Z</Time>
            <Position>
              <LatitudeDegrees>-15.351036898791790008544921875</LatitudeDegrees>
              <LongitudeDegrees>37.07446455024182796478271484375</LongitudeDegrees>
            </Position>
            <AltitudeMeters>1813.199951171875</AltitudeMeters>
            <DistanceMeters>NAN</DistanceMeters>
          </Trackpoint>
          <Trackpoint>
            <Time>2021-08-03T04:49:39.000Z</Time>
            <Position>
              <LatitudeDegrees>-15.35107268951833248138427734375</LatitudeDegrees>
              <LongitudeDegrees>37.0744322799146175384521484375</LongitudeDegrees>
            </Position>
            <AltitudeMeters>1813.4000244140625</AltitudeMeters>
            <DistanceMeters>NAN</DistanceMeters>
          </Trackpoint>
          <Trackpoint>
            <Time>2021-08-03T04:49:41.000Z</Time>
            <Position>
              <LatitudeDegrees>-15.35108392126858234405517578125</LatitudeDegrees>
              <LongitudeDegrees>37.07441610284149646759033203125</LongitudeDegrees>
            </Position>
            <AltitudeMeters>1814.199951171875</AltitudeMeters>
            <DistanceMeters>NAN</DistanceMeters>
          </Trackpoint>
          <Trackpoint>
            <Time>2021-08-03T04:49:48.000Z</Time>
            <Position>
              <LatitudeDegrees>-15.3511272557079792022705078125</LatitudeDegrees>
              <LongitudeDegrees>37.0743732713162899017333984375</LongitudeDegrees>
            </Position>
            <AltitudeMeters>1815</AltitudeMeters>
            <DistanceMeters>NAN</DistanceMeters>
          </Trackpoint>
          <Trackpoint>
            <Time>2021-08-03T04:49:49.000Z</Time>
            <Position>
              <LatitudeDegrees>-15.35113320685923099517822265625</LatitudeDegrees>
              <LongitudeDegrees>37.07437151111662387847900390625</LongitudeDegrees>
            </Position>
            <AltitudeMeters>1815.199951171875</AltitudeMeters>
            <DistanceMeters>NAN</DistanceMeters>
          </Trackpoint>
          <Trackpoint>
            <Time>2021-08-03T04:49:50.000Z</Time>
            <Position>
              <LatitudeDegrees>-15.351140834391117095947265625</LatitudeDegrees>
              <LongitudeDegrees>37.07436966709792613983154296875</LongitudeDegrees>
            </Position>
            <AltitudeMeters>1815.199951171875</AltitudeMeters>
            <DistanceMeters>NAN</DistanceMeters>
          </Trackpoint>
          <Trackpoint>
            <Time>2021-08-03T04:49:52.000Z</Time>
            <Position>
              <LatitudeDegrees>-15.35115131177008152008056640625</LatitudeDegrees>
              <LongitudeDegrees>37.074359022080898284912109375</LongitudeDegrees>
            </Position>
            <AltitudeMeters>1816.4000244140625</AltitudeMeters>
            <DistanceMeters>NAN</DistanceMeters>
          </Trackpoint>
          <Trackpoint>
            <Time>2021-08-03T04:49:57.000Z</Time>
            <Position>
              <LatitudeDegrees>-15.3511738590896129608154296875</LatitudeDegrees>
              <LongitudeDegrees>37.07433999516069889068603515625</LongitudeDegrees>
            </Position>
            <AltitudeMeters>1817.5999755859375</AltitudeMeters>
            <DistanceMeters>NAN</DistanceMeters>
          </Trackpoint>
          <Trackpoint>
            <Time>2021-08-03T04:49:58.000Z</Time>
            <Position>
              <LatitudeDegrees>-15.35117930732667446136474609375</LatitudeDegrees>
              <LongitudeDegrees>37.07433211617171764373779296875</LongitudeDegrees>
            </Position>
            <AltitudeMeters>1817.800048828125</AltitudeMeters>
            <DistanceMeters>NAN</DistanceMeters>
          </Trackpoint>
          <Trackpoint>
            <Time>2021-08-03T04:50:01.000Z</Time>
            <Position>
              <LatitudeDegrees>-15.3511933051049709320068359375</LatitudeDegrees>
              <LongitudeDegrees>37.07431401126086711883544921875</LongitudeDegrees>
            </Position>
            <AltitudeMeters>1818.5999755859375</AltitudeMeters>
            <DistanceMeters>NAN</DistanceMeters>
          </Trackpoint>
          <Trackpoint>
            <Time>2021-08-03T04:50:05.000Z</Time>
            <Position>
              <LatitudeDegrees>-15.35121317021548748016357421875</LatitudeDegrees>
              <LongitudeDegrees>37.074298001825809478759765625</LongitudeDegrees>
            </Position>
            <AltitudeMeters>1819.5999755859375</AltitudeMeters>
            <DistanceMeters>NAN</DistanceMeters>
          </Trackpoint>
          <Trackpoint>
            <Time>2021-08-03T04:50:07.000Z</Time>
            <Position>
              <LatitudeDegrees>-15.35123345442116260528564453125</LatitudeDegrees>
              <LongitudeDegrees>37.07428894937038421630859375</LongitudeDegrees>
            </Position>
            <AltitudeMeters>1820.4000244140625</AltitudeMeters>
            <DistanceMeters>NAN</DistanceMeters>
          </Trackpoint>
          <Trackpoint>
            <Time>2021-08-03T04:50:09.000Z</Time>
            <Position>
              <LatitudeDegrees>-15.35124602727591991424560546875</LatitudeDegrees>
              <LongitudeDegrees>37.074281238019466400146484375</LongitudeDegrees>
            </Position>
            <AltitudeMeters>1821</AltitudeMeters>
            <DistanceMeters>NAN</DistanceMeters>
          </Trackpoint>
          <Trackpoint>
            <Time>2021-08-03T04:50:11.000Z</Time>
            <Position>
              <LatitudeDegrees>-15.35125826485455036163330078125</LatitudeDegrees>
              <LongitudeDegrees>37.07426690496504306793212890625</LongitudeDegrees>
            </Position>
            <AltitudeMeters>1821.4000244140625</AltitudeMeters>
            <DistanceMeters>NAN</DistanceMeters>
          </Trackpoint>
          <Trackpoint>
            <Time>2021-08-03T04:50:14.000Z</Time>
            <Position>
              <LatitudeDegrees>-15.3512821532785892486572265625</LatitudeDegrees>
              <LongitudeDegrees>37.0742507278919219970703125</LongitudeDegrees>
            </Position>
            <AltitudeMeters>1822.800048828125</AltitudeMeters>
            <DistanceMeters>NAN</DistanceMeters>
          </Trackpoint>
          <Trackpoint>
            <Time>2021-08-03T04:50:16.000Z</Time>
            <Position>
              <LatitudeDegrees>-15.351291708648204803466796875</LatitudeDegrees>
              <LongitudeDegrees>37.0742394961416721343994140625</LongitudeDegrees>
            </Position>
            <AltitudeMeters>1822.800048828125</AltitudeMeters>
            <DistanceMeters>NAN</DistanceMeters>
          </Trackpoint>
          <Trackpoint>
            <Time>2021-08-03T04:50:22.000Z</Time>
            <Position>
              <LatitudeDegrees>-15.3513146750628948211669921875</LatitudeDegrees>
              <LongitudeDegrees>37.07421124912798404693603515625</LongitudeDegrees>
            </Position>
            <AltitudeMeters>1823.4000244140625</AltitudeMeters>
            <DistanceMeters>NAN</DistanceMeters>
          </Trackpoint>
          <Trackpoint>
            <Time>2021-08-03T04:50:24.000Z</Time>
            <Position>
              <LatitudeDegrees>-15.35131928510963916778564453125</LatitudeDegrees>
              <LongitudeDegrees>37.07419934682548046112060546875</LongitudeDegrees>
            </Position>
            <AltitudeMeters>1823.800048828125</AltitudeMeters>
            <DistanceMeters>NAN</DistanceMeters>
          </Trackpoint>
          <Trackpoint>
            <Time>2021-08-03T04:50:30.000Z</Time>
            <Position>
              <LatitudeDegrees>-15.35135574638843536376953125</LatitudeDegrees>
              <LongitudeDegrees>37.0741523243486881256103515625</LongitudeDegrees>
            </Position>
            <AltitudeMeters>1824.199951171875</AltitudeMeters>
            <DistanceMeters>NAN</DistanceMeters>
          </Trackpoint>
          <Trackpoint>
            <Time>2021-08-03T04:50:33.000Z</Time>
            <Position>
              <LatitudeDegrees>-15.35137544386088848114013671875</LatitudeDegrees>
              <LongitudeDegrees>37.07412977702915668487548828125</LongitudeDegrees>
            </Position>
            <AltitudeMeters>1825</AltitudeMeters>
            <DistanceMeters>NAN</DistanceMeters>
          </Trackpoint>
          <Trackpoint>
            <Time>2021-08-03T04:50:35.000Z</Time>
            <Position>
              <LatitudeDegrees>-15.35138650797307491302490234375</LatitudeDegrees>
              <LongitudeDegrees>37.07411234267055988311767578125</LongitudeDegrees>
            </Position>
            <AltitudeMeters>1825</AltitudeMeters>
            <DistanceMeters>NAN</DistanceMeters>
          </Trackpoint>
          <Trackpoint>
            <Time>2021-08-03T04:50:37.000Z</Time>
            <Position>
              <LatitudeDegrees>-15.351398997008800506591796875</LatitudeDegrees>
              <LongitudeDegrees>37.074097506701946258544921875</LongitudeDegrees>
            </Position>
            <AltitudeMeters>1825</AltitudeMeters>
            <DistanceMeters>NAN</DistanceMeters>
          </Trackpoint>
          <Trackpoint>
            <Time>2021-08-03T04:50:41.000Z</Time>
            <Position>
              <LatitudeDegrees>-15.35143059678375720977783203125</LatitudeDegrees>
              <LongitudeDegrees>37.07407495938241481781005859375</LongitudeDegrees>
            </Position>
            <AltitudeMeters>1826</AltitudeMeters>
            <DistanceMeters>NAN</DistanceMeters>
          </Trackpoint>
          <Trackpoint>
            <Time>2021-08-03T04:50:44.000Z</Time>
            <Position>
              <LatitudeDegrees>-15.35145171917974948883056640625</LatitudeDegrees>
              <LongitudeDegrees>37.0740629732608795166015625</LongitudeDegrees>
            </Position>
            <AltitudeMeters>1826.800048828125</AltitudeMeters>
            <DistanceMeters>NAN</DistanceMeters>
          </Trackpoint>
          <Trackpoint>
            <Time>2021-08-03T04:50:45.000Z</Time>
            <Position>
              <LatitudeDegrees>-15.3514578379690647125244140625</LatitudeDegrees>
              <LongitudeDegrees>37.0740624703466892242431640625</LongitudeDegrees>
            </Position>
            <AltitudeMeters>1827.199951171875</AltitudeMeters>
            <DistanceMeters>NAN</DistanceMeters>
          </Trackpoint>
          <Trackpoint>
            <Time>2021-08-03T04:50:50.000Z</Time>
            <Position>
              <LatitudeDegrees>-15.35147988237440586090087890625</LatitudeDegrees>
              <LongitudeDegrees>37.07407529465854167938232421875</LongitudeDegrees>
            </Position>
            <AltitudeMeters>1827.800048828125</AltitudeMeters>
            <DistanceMeters>NAN</DistanceMeters>
          </Trackpoint>
          <Trackpoint>
            <Time>2021-08-03T04:50:53.000Z</Time>
            <Position>
              <LatitudeDegrees>-15.3514873422682285308837890625</LatitudeDegrees>
              <LongitudeDegrees>37.07406842149794101715087890625</LongitudeDegrees>
            </Position>
            <AltitudeMeters>1828.199951171875</AltitudeMeters>
            <DistanceMeters>NAN</DistanceMeters>
          </Trackpoint>
          <Trackpoint>
            <Time>2021-08-03T04:50:56.000Z</Time>
            <Position>
              <LatitudeDegrees>-15.35150804556906223297119140625</LatitudeDegrees>
              <LongitudeDegrees>37.074070684611797332763671875</LongitudeDegrees>
            </Position>
            <AltitudeMeters>1829</AltitudeMeters>
            <DistanceMeters>NAN</DistanceMeters>
          </Trackpoint>
          <Trackpoint>
            <Time>2021-08-03T04:50:57.000Z</Time>
            <Position>
              <LatitudeDegrees>-15.3515111468732357025146484375</LatitudeDegrees>
              <LongitudeDegrees>37.07406976260244846343994140625</LongitudeDegrees>
            </Position>
            <AltitudeMeters>1829.4000244140625</AltitudeMeters>
            <DistanceMeters>NAN</DistanceMeters>
          </Trackpoint>
          <Trackpoint>
            <Time>2021-08-03T04:51:03.000Z</Time>
            <Position>
              <LatitudeDegrees>-15.35152212716639041900634765625</LatitudeDegrees>
              <LongitudeDegrees>37.0740862749516963958740234375</LongitudeDegrees>
            </Position>
            <AltitudeMeters>1830</AltitudeMeters>
            <DistanceMeters>NAN</DistanceMeters>
          </Trackpoint>
          <Trackpoint>
            <Time>2021-08-03T04:51:07.000Z</Time>
            <Position>
              <LatitudeDegrees>-15.35152137279510498046875</LatitudeDegrees>
              <LongitudeDegrees>37.0740933157503604888916015625</LongitudeDegrees>
            </Position>
            <AltitudeMeters>1830.199951171875</AltitudeMeters>
            <DistanceMeters>NAN</DistanceMeters>
          </Trackpoint>
          <Trackpoint>
            <Time>2021-08-03T04:51:09.000Z</Time>
            <Position>
              <LatitudeDegrees>-15.35152137279510498046875</LatitudeDegrees>
              <LongitudeDegrees>37.0740933157503604888916015625</LongitudeDegrees>
            </Position>
            <AltitudeMeters>1830.199951171875</AltitudeMeters>
            <DistanceMeters>NAN</DistanceMeters>
          </Trackpoint>
          <Trackpoint>
            <Time>2021-08-03T04:51:11.000Z</Time>
            <Position>
              <LatitudeDegrees>-15.35152137279510498046875</LatitudeDegrees>
              <LongitudeDegrees>37.0740933157503604888916015625</LongitudeDegrees>
            </Position>
            <AltitudeMeters>1830.199951171875</AltitudeMeters>
            <DistanceMeters>NAN</DistanceMeters>
          </Trackpoint>
          <Trackpoint>
            <Time>2021-08-03T04:51:12.000Z</Time>
            <Position>
              <LatitudeDegrees>-15.35152137279510498046875</LatitudeDegrees>
              <LongitudeDegrees>37.0740933157503604888916015625</LongitudeDegrees>
            </Position>
            <AltitudeMeters>1830.199951171875</AltitudeMeters>
            <DistanceMeters>NAN</DistanceMeters>
          </Trackpoint>
          <Trackpoint>
            <Time>2021-08-03T04:51:13.000Z</Time>
            <Position>
              <LatitudeDegrees>-15.35152137279510498046875</LatitudeDegrees>
              <LongitudeDegrees>37.0740933157503604888916015625</LongitudeDegrees>
            </Position>
            <AltitudeMeters>1830.199951171875</AltitudeMeters>
            <DistanceMeters>NAN</DistanceMeters>
          </Trackpoint>
          <Trackpoint>
            <Time>2021-08-03T04:51:15.000Z</Time>
            <Position>
              <LatitudeDegrees>-15.35152137279510498046875</LatitudeDegrees>
              <LongitudeDegrees>37.0740933157503604888916015625</LongitudeDegrees>
            </Position>
            <AltitudeMeters>1830.199951171875</AltitudeMeters>
            <DistanceMeters>NAN</DistanceMeters>
          </Trackpoint>
          <Trackpoint>
            <Time>2021-08-03T04:51:24.000Z</Time>
            <Position>
              <LatitudeDegrees>-15.3515215404331684112548828125</LatitudeDegrees>
              <LongitudeDegrees>37.07409046590328216552734375</LongitudeDegrees>
            </Position>
            <AltitudeMeters>1830.4000244140625</AltitudeMeters>
            <DistanceMeters>NAN</DistanceMeters>
          </Trackpoint>
          <Trackpoint>
            <Time>2021-08-03T04:51:25.000Z</Time>
            <Position>
              <LatitudeDegrees>-15.35152204334735870361328125</LatitudeDegrees>
              <LongitudeDegrees>37.074090130627155303955078125</LongitudeDegrees>
            </Position>
            <AltitudeMeters>1830.4000244140625</AltitudeMeters>
            <DistanceMeters>NAN</DistanceMeters>
          </Trackpoint>
          <Trackpoint>
            <Time>2021-08-03T04:51:41.000Z</Time>
            <Position>
              <LatitudeDegrees>-15.35152916796505451202392578125</LatitudeDegrees>
              <LongitudeDegrees>37.07408736459910869598388671875</LongitudeDegrees>
            </Position>
            <AltitudeMeters>1830.199951171875</AltitudeMeters>
            <DistanceMeters>NAN</DistanceMeters>
          </Trackpoint>
          <Trackpoint>
            <Time>2021-08-03T04:51:44.000Z</Time>
            <Position>
              <LatitudeDegrees>-15.3515305928885936737060546875</LatitudeDegrees>
              <LongitudeDegrees>37.07408736459910869598388671875</LongitudeDegrees>
            </Position>
            <AltitudeMeters>1830.199951171875</AltitudeMeters>
            <DistanceMeters>NAN</DistanceMeters>
          </Trackpoint>
          <Trackpoint>
            <Time>2021-08-03T04:51:46.000Z</Time>
            <Position>
              <LatitudeDegrees>-15.35153117962181568145751953125</LatitudeDegrees>
              <LongitudeDegrees>37.07408736459910869598388671875</LongitudeDegrees>
            </Position>
            <AltitudeMeters>1830.199951171875</AltitudeMeters>
            <DistanceMeters>NAN</DistanceMeters>
          </Trackpoint>
          <Trackpoint>
            <Time>2021-08-03T04:51:48.000Z</Time>
            <Position>
              <LatitudeDegrees>-15.35153134725987911224365234375</LatitudeDegrees>
              <LongitudeDegrees>37.07408736459910869598388671875</LongitudeDegrees>
            </Position>
            <AltitudeMeters>1830.199951171875</AltitudeMeters>
            <DistanceMeters>NAN</DistanceMeters>
          </Trackpoint>
          <Trackpoint>
            <Time>2021-08-03T04:51:51.000Z</Time>
            <Position>
              <LatitudeDegrees>-15.35153235308825969696044921875</LatitudeDegrees>
              <LongitudeDegrees>37.0740896277129650115966796875</LongitudeDegrees>
            </Position>
            <AltitudeMeters>1830.199951171875</AltitudeMeters>
            <DistanceMeters>NAN</DistanceMeters>
          </Trackpoint>
          <Trackpoint>
            <Time>2021-08-03T04:51:58.000Z</Time>
            <Position>
              <LatitudeDegrees>-15.35153520293533802032470703125</LatitudeDegrees>
              <LongitudeDegrees>37.07409105263650417327880859375</LongitudeDegrees>
            </Position>
            <AltitudeMeters>1830.199951171875</AltitudeMeters>
            <DistanceMeters>NAN</DistanceMeters>
          </Trackpoint>
          <Trackpoint>
            <Time>2021-08-03T04:52:05.000Z</Time>
            <Position>
              <LatitudeDegrees>-15.35153537057340145111083984375</LatitudeDegrees>
              <LongitudeDegrees>37.07409172318875789642333984375</LongitudeDegrees>
            </Position>
            <AltitudeMeters>1830</AltitudeMeters>
            <DistanceMeters>NAN</DistanceMeters>
          </Trackpoint>
          <Trackpoint>
            <Time>2021-08-03T04:52:07.000Z</Time>
            <Position>
              <LatitudeDegrees>-15.35153537057340145111083984375</LatitudeDegrees>
              <LongitudeDegrees>37.07409172318875789642333984375</LongitudeDegrees>
            </Position>
            <AltitudeMeters>1830</AltitudeMeters>
            <DistanceMeters>NAN</DistanceMeters>
          </Trackpoint>
          <Trackpoint>
            <Time>2021-08-03T04:52:15.000Z</Time>
            <Position>
              <LatitudeDegrees>-15.3515346162021160125732421875</LatitudeDegrees>
              <LongitudeDegrees>37.0740923099219799041748046875</LongitudeDegrees>
            </Position>
            <AltitudeMeters>1830</AltitudeMeters>
            <DistanceMeters>NAN</DistanceMeters>
          </Trackpoint>
          <Trackpoint>
            <Time>2021-08-03T04:52:17.000Z</Time>
            <Position>
              <LatitudeDegrees>-15.351532436907291412353515625</LatitudeDegrees>
              <LongitudeDegrees>37.07409180700778961181640625</LongitudeDegrees>
            </Position>
            <AltitudeMeters>1830</AltitudeMeters>
            <DistanceMeters>NAN</DistanceMeters>
          </Trackpoint>
          <Trackpoint>
            <Time>2021-08-03T04:52:19.000Z</Time>
            <Position>
              <LatitudeDegrees>-15.3515305928885936737060546875</LatitudeDegrees>
              <LongitudeDegrees>37.07409155555069446563720703125</LongitudeDegrees>
            </Position>
            <AltitudeMeters>1830.199951171875</AltitudeMeters>
            <DistanceMeters>NAN</DistanceMeters>
          </Trackpoint>
          <Trackpoint>
            <Time>2021-08-03T04:52:21.000Z</Time>
            <Position>
              <LatitudeDegrees>-15.35153034143149852752685546875</LatitudeDegrees>
              <LongitudeDegrees>37.07409105263650417327880859375</LongitudeDegrees>
            </Position>
            <AltitudeMeters>1831.199951171875</AltitudeMeters>
            <DistanceMeters>NAN</DistanceMeters>
          </Trackpoint>
          <Trackpoint>
            <Time>2021-08-03T04:52:22.000Z</Time>
            <Position>
              <LatitudeDegrees>-15.35153034143149852752685546875</LatitudeDegrees>
              <LongitudeDegrees>37.0740909688174724578857421875</LongitudeDegrees>
            </Position>
            <AltitudeMeters>1831.5999755859375</AltitudeMeters>
            <DistanceMeters>NAN</DistanceMeters>
          </Trackpoint>
          <Trackpoint>
            <Time>2021-08-03T04:52:26.000Z</Time>
            <Position>
              <LatitudeDegrees>-15.351546518504619598388671875</LatitudeDegrees>
              <LongitudeDegrees>37.07407814450562000274658203125</LongitudeDegrees>
            </Position>
            <AltitudeMeters>1832.5999755859375</AltitudeMeters>
            <DistanceMeters>NAN</DistanceMeters>
          </Trackpoint>
          <Trackpoint>
            <Time>2021-08-03T04:52:30.000Z</Time>
            <Position>
              <LatitudeDegrees>-15.35157945938408374786376953125</LatitudeDegrees>
              <LongitudeDegrees>37.07403556443750858306884765625</LongitudeDegrees>
            </Position>
            <AltitudeMeters>1832.5999755859375</AltitudeMeters>
            <DistanceMeters>NAN</DistanceMeters>
          </Trackpoint>
          <Trackpoint>
            <Time>2021-08-03T04:52:31.000Z</Time>
            <Position>
              <LatitudeDegrees>-15.35158867947757244110107421875</LatitudeDegrees>
              <LongitudeDegrees>37.07402852363884449005126953125</LongitudeDegrees>
            </Position>
            <AltitudeMeters>1832.800048828125</AltitudeMeters>
            <DistanceMeters>NAN</DistanceMeters>
          </Trackpoint>
          <Trackpoint>
            <Time>2021-08-03T04:52:34.000Z</Time>
            <Position>
              <LatitudeDegrees>-15.3516103886067867279052734375</LatitudeDegrees>
              <LongitudeDegrees>37.0740064792335033416748046875</LongitudeDegrees>
            </Position>
            <AltitudeMeters>1834.199951171875</AltitudeMeters>
            <DistanceMeters>NAN</DistanceMeters>
          </Trackpoint>
          <Trackpoint>
            <Time>2021-08-03T04:52:39.000Z</Time>
            <Position>
              <LatitudeDegrees>-15.3516194410622119903564453125</LatitudeDegrees>
              <LongitudeDegrees>37.0739756338298320770263671875</LongitudeDegrees>
            </Position>
            <AltitudeMeters>1835.4000244140625</AltitudeMeters>
            <DistanceMeters>NAN</DistanceMeters>
          </Trackpoint>
          <Trackpoint>
            <Time>2021-08-03T04:52:40.000Z</Time>
            <Position>
              <LatitudeDegrees>-15.351623632013797760009765625</LatitudeDegrees>
              <LongitudeDegrees>37.07397110760211944580078125</LongitudeDegrees>
            </Position>
            <AltitudeMeters>1835.4000244140625</AltitudeMeters>
            <DistanceMeters>NAN</DistanceMeters>
          </Trackpoint>
          <Trackpoint>
            <Time>2021-08-03T04:52:44.000Z</Time>
            <Position>
              <LatitudeDegrees>-15.3516395576298236846923828125</LatitudeDegrees>
              <LongitudeDegrees>37.0739664137363433837890625</LongitudeDegrees>
            </Position>
            <AltitudeMeters>1836.5999755859375</AltitudeMeters>
            <DistanceMeters>NAN</DistanceMeters>
          </Trackpoint>
          <Trackpoint>
            <Time>2021-08-03T04:52:47.000Z</Time>
            <Position>
              <LatitudeDegrees>-15.351655147969722747802734375</LatitudeDegrees>
              <LongitudeDegrees>37.07396750338375568389892578125</LongitudeDegrees>
            </Position>
            <AltitudeMeters>1837.5999755859375</AltitudeMeters>
            <DistanceMeters>NAN</DistanceMeters>
          </Trackpoint>
          <Trackpoint>
            <Time>2021-08-03T04:52:48.000Z</Time>
            <Position>
              <LatitudeDegrees>-15.3516596741974353790283203125</LatitudeDegrees>
              <LongitudeDegrees>37.073966078460216522216796875</LongitudeDegrees>
            </Position>
            <AltitudeMeters>1837.5999755859375</AltitudeMeters>
            <DistanceMeters>NAN</DistanceMeters>
          </Trackpoint>
          <Trackpoint>
            <Time>2021-08-03T04:52:49.000Z</Time>
            <Position>
              <LatitudeDegrees>-15.35166361369192600250244140625</LatitudeDegrees>
              <LongitudeDegrees>37.073962390422821044921875</LongitudeDegrees>
            </Position>
            <AltitudeMeters>1837.800048828125</AltitudeMeters>
            <DistanceMeters>NAN</DistanceMeters>
          </Trackpoint>
          <Trackpoint>
            <Time>2021-08-03T04:52:54.000Z</Time>
            <Position>
              <LatitudeDegrees>-15.35169177688658237457275390625</LatitudeDegrees>
              <LongitudeDegrees>37.0739548467099666595458984375</LongitudeDegrees>
            </Position>
            <AltitudeMeters>1839.199951171875</AltitudeMeters>
            <DistanceMeters>NAN</DistanceMeters>
          </Trackpoint>
          <Trackpoint>
            <Time>2021-08-03T04:52:59.000Z</Time>
            <Position>
              <LatitudeDegrees>-15.3517113067209720611572265625</LatitudeDegrees>
              <LongitudeDegrees>37.07394403405487537384033203125</LongitudeDegrees>
            </Position>
            <AltitudeMeters>1840.199951171875</AltitudeMeters>
            <DistanceMeters>NAN</DistanceMeters>
          </Trackpoint>
          <Trackpoint>
            <Time>2021-08-03T04:53:01.000Z</Time>
            <Position>
              <LatitudeDegrees>-15.35172346048057079315185546875</LatitudeDegrees>
              <LongitudeDegrees>37.07394939847290515899658203125</LongitudeDegrees>
            </Position>
            <AltitudeMeters>1840.5999755859375</AltitudeMeters>
            <DistanceMeters>NAN</DistanceMeters>
          </Trackpoint>
          <Trackpoint>
            <Time>2021-08-03T04:53:05.000Z</Time>
            <Position>
              <LatitudeDegrees>-15.3517431579530239105224609375</LatitudeDegrees>
              <LongitudeDegrees>37.07395995967090129852294921875</LongitudeDegrees>
            </Position>
            <AltitudeMeters>1841.5999755859375</AltitudeMeters>
            <DistanceMeters>NAN</DistanceMeters>
          </Trackpoint>
          <Trackpoint>
            <Time>2021-08-03T04:53:07.000Z</Time>
            <Position>
              <LatitudeDegrees>-15.351745672523975372314453125</LatitudeDegrees>
              <LongitudeDegrees>37.07394990138709545135498046875</LongitudeDegrees>
            </Position>
            <AltitudeMeters>1841.800048828125</AltitudeMeters>
            <DistanceMeters>NAN</DistanceMeters>
          </Trackpoint>
          <Trackpoint>
            <Time>2021-08-03T04:53:10.000Z</Time>
            <Position>
              <LatitudeDegrees>-15.35175095312297344207763671875</LatitudeDegrees>
              <LongitudeDegrees>37.0739414356648921966552734375</LongitudeDegrees>
            </Position>
            <AltitudeMeters>1842.800048828125</AltitudeMeters>
            <DistanceMeters>NAN</DistanceMeters>
          </Trackpoint>
          <Trackpoint>
            <Time>2021-08-03T04:53:14.000Z</Time>
            <Position>
              <LatitudeDegrees>-15.35176486708223819732666015625</LatitudeDegrees>
              <LongitudeDegrees>37.073946297168731689453125</LongitudeDegrees>
            </Position>
            <AltitudeMeters>1843.800048828125</AltitudeMeters>
            <DistanceMeters>NAN</DistanceMeters>
          </Trackpoint>
          <Trackpoint>
            <Time>2021-08-03T04:53:15.000Z</Time>
            <Position>
              <LatitudeDegrees>-15.35176821984350681304931640625</LatitudeDegrees>
              <LongitudeDegrees>37.073948644101619720458984375</LongitudeDegrees>
            </Position>
            <AltitudeMeters>1843.800048828125</AltitudeMeters>
            <DistanceMeters>NAN</DistanceMeters>
          </Trackpoint>
          <Trackpoint>
            <Time>2021-08-03T04:53:20.000Z</Time>
            <Position>
              <LatitudeDegrees>-15.35179185681045055389404296875</LatitudeDegrees>
              <LongitudeDegrees>37.07395710982382297515869140625</LongitudeDegrees>
            </Position>
            <AltitudeMeters>1845</AltitudeMeters>
            <DistanceMeters>NAN</DistanceMeters>
          </Trackpoint>
          <Trackpoint>
            <Time>2021-08-03T04:53:23.000Z</Time>
            <Position>
              <LatitudeDegrees>-15.3518070280551910400390625</LatitudeDegrees>
              <LongitudeDegrees>37.07396901212632656097412109375</LongitudeDegrees>
            </Position>
            <AltitudeMeters>1845.800048828125</AltitudeMeters>
            <DistanceMeters>NAN</DistanceMeters>
          </Trackpoint>
          <Trackpoint>
            <Time>2021-08-03T04:53:25.000Z</Time>
            <Position>
              <LatitudeDegrees>-15.3518179245293140411376953125</LatitudeDegrees>
              <LongitudeDegrees>37.073963396251201629638671875</LongitudeDegrees>
            </Position>
            <AltitudeMeters>1846.199951171875</AltitudeMeters>
            <DistanceMeters>NAN</DistanceMeters>
          </Trackpoint>
          <Trackpoint>
            <Time>2021-08-03T04:53:26.000Z</Time>
            <Position>
              <LatitudeDegrees>-15.35181867890059947967529296875</LatitudeDegrees>
              <LongitudeDegrees>37.07395727746188640594482421875</LongitudeDegrees>
            </Position>
            <AltitudeMeters>1846.5999755859375</AltitudeMeters>
            <DistanceMeters>NAN</DistanceMeters>
          </Trackpoint>
          <Trackpoint>
            <Time>2021-08-03T04:53:28.000Z</Time>
            <Position>
              <LatitudeDegrees>-15.3518269769847393035888671875</LatitudeDegrees>
              <LongitudeDegrees>37.0739524997770786285400390625</LongitudeDegrees>
            </Position>
            <AltitudeMeters>1847.4000244140625</AltitudeMeters>
            <DistanceMeters>NAN</DistanceMeters>
          </Trackpoint>
          <Trackpoint>
            <Time>2021-08-03T04:53:30.000Z</Time>
            <Position>
              <LatitudeDegrees>-15.35184332169592380523681640625</LatitudeDegrees>
              <LongitudeDegrees>37.0739474706351757049560546875</LongitudeDegrees>
            </Position>
            <AltitudeMeters>1847.800048828125</AltitudeMeters>
            <DistanceMeters>NAN</DistanceMeters>
          </Trackpoint>
          <Trackpoint>
            <Time>2021-08-03T04:53:32.000Z</Time>
            <Position>
              <LatitudeDegrees>-15.35185270942747592926025390625</LatitudeDegrees>
              <LongitudeDegrees>37.07394872792065143585205078125</LongitudeDegrees>
            </Position>
            <AltitudeMeters>1848.4000244140625</AltitudeMeters>
            <DistanceMeters>NAN</DistanceMeters>
          </Trackpoint>
          <Trackpoint>
            <Time>2021-08-03T04:53:34.000Z</Time>
            <Position>
              <LatitudeDegrees>-15.3518561460077762603759765625</LatitudeDegrees>
              <LongitudeDegrees>37.07394386641681194305419921875</LongitudeDegrees>
            </Position>
            <AltitudeMeters>1848.5999755859375</AltitudeMeters>
            <DistanceMeters>NAN</DistanceMeters>
          </Trackpoint>
          <Trackpoint>
            <Time>2021-08-03T04:53:36.000Z</Time>
            <Position>
              <LatitudeDegrees>-15.35186109133064746856689453125</LatitudeDegrees>
              <LongitudeDegrees>37.0739461295306682586669921875</LongitudeDegrees>
            </Position>
            <AltitudeMeters>1849</AltitudeMeters>
            <DistanceMeters>NAN</DistanceMeters>
          </Trackpoint>
          <Trackpoint>
            <Time>2021-08-03T04:53:38.000Z</Time>
            <Position>
              <LatitudeDegrees>-15.35186897031962871551513671875</LatitudeDegrees>
              <LongitudeDegrees>37.0739444531500339508056640625</LongitudeDegrees>
            </Position>
            <AltitudeMeters>1849</AltitudeMeters>
            <DistanceMeters>NAN</DistanceMeters>
          </Trackpoint>
          <Trackpoint>
            <Time>2021-08-03T04:53:40.000Z</Time>
            <Position>
              <LatitudeDegrees>-15.3518732450902462005615234375</LatitudeDegrees>
              <LongitudeDegrees>37.07394151948392391204833984375</LongitudeDegrees>
            </Position>
            <AltitudeMeters>1849.5999755859375</AltitudeMeters>
            <DistanceMeters>NAN</DistanceMeters>
          </Trackpoint>
          <Trackpoint>
            <Time>2021-08-03T04:53:43.000Z</Time>
            <Position>
              <LatitudeDegrees>-15.3518833033740520477294921875</LatitudeDegrees>
              <LongitudeDegrees>37.073935233056545257568359375</LongitudeDegrees>
            </Position>
            <AltitudeMeters>1850.4000244140625</AltitudeMeters>
            <DistanceMeters>NAN</DistanceMeters>
          </Trackpoint>
          <Trackpoint>
            <Time>2021-08-03T04:53:44.000Z</Time>
            <Position>
              <LatitudeDegrees>-15.35188573412597179412841796875</LatitudeDegrees>
              <LongitudeDegrees>37.0739303715527057647705078125</LongitudeDegrees>
            </Position>
            <AltitudeMeters>1850.800048828125</AltitudeMeters>
            <DistanceMeters>NAN</DistanceMeters>
          </Trackpoint>
          <Trackpoint>
            <Time>2021-08-03T04:53:47.000Z</Time>
            <Position>
              <LatitudeDegrees>-15.35189730115234851837158203125</LatitudeDegrees>
              <LongitudeDegrees>37.07391587086021900177001953125</LongitudeDegrees>
            </Position>
            <AltitudeMeters>1851</AltitudeMeters>
            <DistanceMeters>NAN</DistanceMeters>
          </Trackpoint>
          <Trackpoint>
            <Time>2021-08-03T04:53:49.000Z</Time>
            <Position>
              <LatitudeDegrees>-15.35190702416002750396728515625</LatitudeDegrees>
              <LongitudeDegrees>37.073913104832172393798828125</LongitudeDegrees>
            </Position>
            <AltitudeMeters>1851.800048828125</AltitudeMeters>
            <DistanceMeters>NAN</DistanceMeters>
          </Trackpoint>
          <Trackpoint>
            <Time>2021-08-03T04:53:55.000Z</Time>
            <Position>
              <LatitudeDegrees>-15.35193032585084438323974609375</LatitudeDegrees>
              <LongitudeDegrees>37.07392358221113681793212890625</LongitudeDegrees>
            </Position>
            <AltitudeMeters>1852.800048828125</AltitudeMeters>
            <DistanceMeters>NAN</DistanceMeters>
          </Trackpoint>
          <Trackpoint>
            <Time>2021-08-03T04:54:00.000Z</Time>
            <Position>
              <LatitudeDegrees>-15.3519255481660366058349609375</LatitudeDegrees>
              <LongitudeDegrees>37.07393079064786434173583984375</LongitudeDegrees>
            </Position>
            <AltitudeMeters>1852.800048828125</AltitudeMeters>
            <DistanceMeters>NAN</DistanceMeters>
          </Trackpoint>
          <Trackpoint>
            <Time>2021-08-03T04:54:02.000Z</Time>
            <Position>
              <LatitudeDegrees>-15.3519255481660366058349609375</LatitudeDegrees>
              <LongitudeDegrees>37.07393079064786434173583984375</LongitudeDegrees>
            </Position>
            <AltitudeMeters>1852.800048828125</AltitudeMeters>
            <DistanceMeters>NAN</DistanceMeters>
          </Trackpoint>
          <Trackpoint>
            <Time>2021-08-03T04:54:03.000Z</Time>
            <Position>
              <LatitudeDegrees>-15.3519255481660366058349609375</LatitudeDegrees>
              <LongitudeDegrees>37.07393079064786434173583984375</LongitudeDegrees>
            </Position>
            <AltitudeMeters>1853</AltitudeMeters>
            <DistanceMeters>NAN</DistanceMeters>
          </Trackpoint>
          <Trackpoint>
            <Time>2021-08-03T04:54:04.000Z</Time>
            <Position>
              <LatitudeDegrees>-15.3519255481660366058349609375</LatitudeDegrees>
              <LongitudeDegrees>37.07393079064786434173583984375</LongitudeDegrees>
            </Position>
            <AltitudeMeters>1853</AltitudeMeters>
            <DistanceMeters>NAN</DistanceMeters>
          </Trackpoint>
          <Trackpoint>
            <Time>2021-08-03T04:54:07.000Z</Time>
            <Position>
              <LatitudeDegrees>-15.3519255481660366058349609375</LatitudeDegrees>
              <LongitudeDegrees>37.07393079064786434173583984375</LongitudeDegrees>
            </Position>
            <AltitudeMeters>1853.199951171875</AltitudeMeters>
            <DistanceMeters>NAN</DistanceMeters>
          </Trackpoint>
          <Trackpoint>
            <Time>2021-08-03T04:54:09.000Z</Time>
            <Position>
              <LatitudeDegrees>-15.35192680545151233673095703125</LatitudeDegrees>
              <LongitudeDegrees>37.07393079064786434173583984375</LongitudeDegrees>
            </Position>
            <AltitudeMeters>1853</AltitudeMeters>
            <DistanceMeters>NAN</DistanceMeters>
          </Trackpoint>
          <Trackpoint>
            <Time>2021-08-03T04:54:13.000Z</Time>
            <Position>
              <LatitudeDegrees>-15.35192898474633693695068359375</LatitudeDegrees>
              <LongitudeDegrees>37.07393079064786434173583984375</LongitudeDegrees>
            </Position>
            <AltitudeMeters>1853</AltitudeMeters>
            <DistanceMeters>NAN</DistanceMeters>
          </Trackpoint>
          <Trackpoint>
            <Time>2021-08-03T04:54:17.000Z</Time>
            <Position>
              <LatitudeDegrees>-15.35193032585084438323974609375</LatitudeDegrees>
              <LongitudeDegrees>37.073938585817813873291015625</LongitudeDegrees>
            </Position>
            <AltitudeMeters>1853</AltitudeMeters>
            <DistanceMeters>NAN</DistanceMeters>
          </Trackpoint>
          <Trackpoint>
            <Time>2021-08-03T04:54:20.000Z</Time>
            <Position>
              <LatitudeDegrees>-15.35193183459341526031494140625</LatitudeDegrees>
              <LongitudeDegrees>37.073940597474575042724609375</LongitudeDegrees>
            </Position>
            <AltitudeMeters>1852.800048828125</AltitudeMeters>
            <DistanceMeters>NAN</DistanceMeters>
          </Trackpoint>
          <Trackpoint>
            <Time>2021-08-03T04:54:22.000Z</Time>
            <Position>
              <LatitudeDegrees>-15.35193183459341526031494140625</LatitudeDegrees>
              <LongitudeDegrees>37.073941938579082489013671875</LongitudeDegrees>
            </Position>
            <AltitudeMeters>1853</AltitudeMeters>
            <DistanceMeters>NAN</DistanceMeters>
          </Trackpoint>
          <Trackpoint>
            <Time>2021-08-03T04:54:34.000Z</Time>
            <Position>
              <LatitudeDegrees>-15.35193082876503467559814453125</LatitudeDegrees>
              <LongitudeDegrees>37.07394453696906566619873046875</LongitudeDegrees>
            </Position>
            <AltitudeMeters>1852.5999755859375</AltitudeMeters>
            <DistanceMeters>NAN</DistanceMeters>
          </Trackpoint>
          <Trackpoint>
            <Time>2021-08-03T04:54:38.000Z</Time>
            <Position>
              <LatitudeDegrees>-15.35192747600376605987548828125</LatitudeDegrees>
              <LongitudeDegrees>37.073944620788097381591796875</LongitudeDegrees>
            </Position>
            <AltitudeMeters>1852.4000244140625</AltitudeMeters>
            <DistanceMeters>NAN</DistanceMeters>
          </Trackpoint>
          <Trackpoint>
            <Time>2021-08-03T04:54:40.000Z</Time>
            <Position>
              <LatitudeDegrees>-15.35192747600376605987548828125</LatitudeDegrees>
              <LongitudeDegrees>37.073944620788097381591796875</LongitudeDegrees>
            </Position>
            <AltitudeMeters>1852.4000244140625</AltitudeMeters>
            <DistanceMeters>NAN</DistanceMeters>
          </Trackpoint>
          <Trackpoint>
            <Time>2021-08-03T04:54:44.000Z</Time>
            <Position>
              <LatitudeDegrees>-15.35192747600376605987548828125</LatitudeDegrees>
              <LongitudeDegrees>37.07394386641681194305419921875</LongitudeDegrees>
            </Position>
            <AltitudeMeters>1852.4000244140625</AltitudeMeters>
            <DistanceMeters>NAN</DistanceMeters>
          </Trackpoint>
          <Trackpoint>
            <Time>2021-08-03T04:54:47.000Z</Time>
            <Position>
              <LatitudeDegrees>-15.35192747600376605987548828125</LatitudeDegrees>
              <LongitudeDegrees>37.07394319586455821990966796875</LongitudeDegrees>
            </Position>
            <AltitudeMeters>1852.4000244140625</AltitudeMeters>
            <DistanceMeters>NAN</DistanceMeters>
          </Trackpoint>
          <Trackpoint>
            <Time>2021-08-03T04:54:48.000Z</Time>
            <Position>
              <LatitudeDegrees>-15.35192747600376605987548828125</LatitudeDegrees>
              <LongitudeDegrees>37.073942609131336212158203125</LongitudeDegrees>
            </Position>
            <AltitudeMeters>1852.4000244140625</AltitudeMeters>
            <DistanceMeters>NAN</DistanceMeters>
          </Trackpoint>
          <Trackpoint>
            <Time>2021-08-03T04:54:49.000Z</Time>
            <Position>
              <LatitudeDegrees>-15.35192747600376605987548828125</LatitudeDegrees>
              <LongitudeDegrees>37.0739422738552093505859375</LongitudeDegrees>
            </Position>
            <AltitudeMeters>1852.4000244140625</AltitudeMeters>
            <DistanceMeters>NAN</DistanceMeters>
          </Trackpoint>
          <Trackpoint>
            <Time>2021-08-03T04:54:50.000Z</Time>
            <Position>
              <LatitudeDegrees>-15.35192747600376605987548828125</LatitudeDegrees>
              <LongitudeDegrees>37.07394202239811420440673828125</LongitudeDegrees>
            </Position>
            <AltitudeMeters>1852.199951171875</AltitudeMeters>
            <DistanceMeters>NAN</DistanceMeters>
          </Trackpoint>
          <Trackpoint>
            <Time>2021-08-03T04:54:51.000Z</Time>
            <Position>
              <LatitudeDegrees>-15.35192881710827350616455078125</LatitudeDegrees>
              <LongitudeDegrees>37.073941938579082489013671875</LongitudeDegrees>
            </Position>
            <AltitudeMeters>1852.199951171875</AltitudeMeters>
            <DistanceMeters>NAN</DistanceMeters>
          </Trackpoint>
          <Trackpoint>
            <Time>2021-08-03T04:54:52.000Z</Time>
            <Position>
              <LatitudeDegrees>-15.3519305773079395294189453125</LatitudeDegrees>
              <LongitudeDegrees>37.07394185476005077362060546875</LongitudeDegrees>
            </Position>
            <AltitudeMeters>1852.199951171875</AltitudeMeters>
            <DistanceMeters>NAN</DistanceMeters>
          </Trackpoint>
          <Trackpoint>
            <Time>2021-08-03T04:54:54.000Z</Time>
            <Position>
              <LatitudeDegrees>-15.351932086050510406494140625</LatitudeDegrees>
              <LongitudeDegrees>37.07394185476005077362060546875</LongitudeDegrees>
            </Position>
            <AltitudeMeters>1852.199951171875</AltitudeMeters>
            <DistanceMeters>NAN</DistanceMeters>
          </Trackpoint>
          <Trackpoint>
            <Time>2021-08-03T04:55:02.000Z</Time>
            <Position>
              <LatitudeDegrees>-15.35193401388823986053466796875</LatitudeDegrees>
              <LongitudeDegrees>37.07394219003617763519287109375</LongitudeDegrees>
            </Position>
            <AltitudeMeters>1852.199951171875</AltitudeMeters>
            <DistanceMeters>NAN</DistanceMeters>
          </Trackpoint>
          <Trackpoint>
            <Time>2021-08-03T04:55:06.000Z</Time>
            <Position>
              <LatitudeDegrees>-15.35193401388823986053466796875</LatitudeDegrees>
              <LongitudeDegrees>37.0739461295306682586669921875</LongitudeDegrees>
            </Position>
            <AltitudeMeters>1852.199951171875</AltitudeMeters>
            <DistanceMeters>NAN</DistanceMeters>
          </Trackpoint>
          <Trackpoint>
            <Time>2021-08-03T04:55:13.000Z</Time>
            <Position>
              <LatitudeDegrees>-15.35193418152630329132080078125</LatitudeDegrees>
              <LongitudeDegrees>37.07395367324352264404296875</LongitudeDegrees>
            </Position>
            <AltitudeMeters>1852</AltitudeMeters>
            <DistanceMeters>NAN</DistanceMeters>
          </Trackpoint>
          <Trackpoint>
            <Time>2021-08-03T04:55:21.000Z</Time>
            <Position>
              <LatitudeDegrees>-15.35193250514566898345947265625</LatitudeDegrees>
              <LongitudeDegrees>37.07395442761480808258056640625</LongitudeDegrees>
            </Position>
            <AltitudeMeters>1852</AltitudeMeters>
            <DistanceMeters>NAN</DistanceMeters>
          </Trackpoint>
          <Trackpoint>
            <Time>2021-08-03T04:55:24.000Z</Time>
            <Position>
              <LatitudeDegrees>-15.351932086050510406494140625</LatitudeDegrees>
              <LongitudeDegrees>37.07395442761480808258056640625</LongitudeDegrees>
            </Position>
            <AltitudeMeters>1852</AltitudeMeters>
            <DistanceMeters>NAN</DistanceMeters>
          </Trackpoint>
          <Trackpoint>
            <Time>2021-08-03T04:55:27.000Z</Time>
            <Position>
              <LatitudeDegrees>-15.35193116404116153717041015625</LatitudeDegrees>
              <LongitudeDegrees>37.073954008519649505615234375</LongitudeDegrees>
            </Position>
            <AltitudeMeters>1852.199951171875</AltitudeMeters>
            <DistanceMeters>NAN</DistanceMeters>
          </Trackpoint>
          <Trackpoint>
            <Time>2021-08-03T04:55:31.000Z</Time>
            <Position>
              <LatitudeDegrees>-15.3519304096698760986328125</LatitudeDegrees>
              <LongitudeDegrees>37.0739538408815860748291015625</LongitudeDegrees>
            </Position>
            <AltitudeMeters>1852.199951171875</AltitudeMeters>
            <DistanceMeters>NAN</DistanceMeters>
          </Trackpoint>
          <Trackpoint>
            <Time>2021-08-03T04:55:48.000Z</Time>
            <Position>
              <LatitudeDegrees>-15.35191909410059452056884765625</LatitudeDegrees>
              <LongitudeDegrees>37.0739521645009517669677734375</LongitudeDegrees>
            </Position>
            <AltitudeMeters>1852</AltitudeMeters>
            <DistanceMeters>NAN</DistanceMeters>
          </Trackpoint>
          <Trackpoint>
            <Time>2021-08-03T04:55:54.000Z</Time>
            <Position>
              <LatitudeDegrees>-15.35191574133932590484619140625</LatitudeDegrees>
              <LongitudeDegrees>37.07395208068192005157470703125</LongitudeDegrees>
            </Position>
            <AltitudeMeters>1852</AltitudeMeters>
            <DistanceMeters>NAN</DistanceMeters>
          </Trackpoint>
          <Trackpoint>
            <Time>2021-08-03T04:56:00.000Z</Time>
            <Position>
              <LatitudeDegrees>-15.3519134782254695892333984375</LatitudeDegrees>
              <LongitudeDegrees>37.07395099103450775146484375</LongitudeDegrees>
            </Position>
            <AltitudeMeters>1852</AltitudeMeters>
            <DistanceMeters>NAN</DistanceMeters>
          </Trackpoint>
          <Trackpoint>
            <Time>2021-08-03T04:56:05.000Z</Time>
            <Position>
              <LatitudeDegrees>-15.35191222093999385833740234375</LatitudeDegrees>
              <LongitudeDegrees>37.07395006902515888214111328125</LongitudeDegrees>
            </Position>
            <AltitudeMeters>1852</AltitudeMeters>
            <DistanceMeters>NAN</DistanceMeters>
          </Trackpoint>
          <Trackpoint>
            <Time>2021-08-03T04:56:16.000Z</Time>
            <Position>
              <LatitudeDegrees>-15.3519084490835666656494140625</LatitudeDegrees>
              <LongitudeDegrees>37.0739464648067951202392578125</LongitudeDegrees>
            </Position>
            <AltitudeMeters>1852</AltitudeMeters>
            <DistanceMeters>NAN</DistanceMeters>
          </Trackpoint>
          <Trackpoint>
            <Time>2021-08-03T04:56:20.000Z</Time>
            <Position>
              <LatitudeDegrees>-15.3519077785313129425048828125</LatitudeDegrees>
              <LongitudeDegrees>37.07394562661647796630859375</LongitudeDegrees>
            </Position>
            <AltitudeMeters>1852</AltitudeMeters>
            <DistanceMeters>NAN</DistanceMeters>
          </Trackpoint>
          <Trackpoint>
            <Time>2021-08-03T04:56:36.000Z</Time>
            <Position>
              <LatitudeDegrees>-15.3519087843596935272216796875</LatitudeDegrees>
              <LongitudeDegrees>37.07394562661647796630859375</LongitudeDegrees>
            </Position>
            <AltitudeMeters>1852</AltitudeMeters>
            <DistanceMeters>NAN</DistanceMeters>
          </Trackpoint>
          <Trackpoint>
            <Time>2021-08-03T04:56:40.000Z</Time>
            <Position>
              <LatitudeDegrees>-15.35190953873097896575927734375</LatitudeDegrees>
              <LongitudeDegrees>37.0739468000829219818115234375</LongitudeDegrees>
            </Position>
            <AltitudeMeters>1852</AltitudeMeters>
            <DistanceMeters>NAN</DistanceMeters>
          </Trackpoint>
          <Trackpoint>
            <Time>2021-08-03T04:56:44.000Z</Time>
            <Position>
              <LatitudeDegrees>-15.351910293102264404296875</LatitudeDegrees>
              <LongitudeDegrees>37.07394906319677829742431640625</LongitudeDegrees>
            </Position>
            <AltitudeMeters>1852</AltitudeMeters>
            <DistanceMeters>NAN</DistanceMeters>
          </Trackpoint>
          <Trackpoint>
            <Time>2021-08-03T04:56:49.000Z</Time>
            <Position>
              <LatitudeDegrees>-15.3519111312925815582275390625</LatitudeDegrees>
              <LongitudeDegrees>37.0739511586725711822509765625</LongitudeDegrees>
            </Position>
            <AltitudeMeters>1852</AltitudeMeters>
            <DistanceMeters>NAN</DistanceMeters>
          </Trackpoint>
          <Trackpoint>
            <Time>2021-08-03T04:56:50.000Z</Time>
            <Position>
              <LatitudeDegrees>-15.35191138274967670440673828125</LatitudeDegrees>
              <LongitudeDegrees>37.073951326310634613037109375</LongitudeDegrees>
            </Position>
            <AltitudeMeters>1852</AltitudeMeters>
            <DistanceMeters>NAN</DistanceMeters>
          </Trackpoint>
          <Trackpoint>
            <Time>2021-08-03T04:56:52.000Z</Time>
            <Position>
              <LatitudeDegrees>-15.3519116342067718505859375</LatitudeDegrees>
              <LongitudeDegrees>37.07395174540579319000244140625</LongitudeDegrees>
            </Position>
            <AltitudeMeters>1852</AltitudeMeters>
            <DistanceMeters>NAN</DistanceMeters>
          </Trackpoint>
          <Trackpoint>
            <Time>2021-08-03T04:56:54.000Z</Time>
            <Position>
              <LatitudeDegrees>-15.35191171802580356597900390625</LatitudeDegrees>
              <LongitudeDegrees>37.073951996862888336181640625</LongitudeDegrees>
            </Position>
            <AltitudeMeters>1852</AltitudeMeters>
            <DistanceMeters>NAN</DistanceMeters>
          </Trackpoint>
          <Trackpoint>
            <Time>2021-08-03T04:56:57.000Z</Time>
            <Position>
              <LatitudeDegrees>-15.35191238857805728912353515625</LatitudeDegrees>
              <LongitudeDegrees>37.0739521645009517669677734375</LongitudeDegrees>
            </Position>
            <AltitudeMeters>1852</AltitudeMeters>
            <DistanceMeters>NAN</DistanceMeters>
          </Trackpoint>
          <Trackpoint>
            <Time>2021-08-03T04:57:05.000Z</Time>
            <Position>
              <LatitudeDegrees>-15.3519134782254695892333984375</LatitudeDegrees>
              <LongitudeDegrees>37.0739511586725711822509765625</LongitudeDegrees>
            </Position>
            <AltitudeMeters>1852</AltitudeMeters>
            <DistanceMeters>NAN</DistanceMeters>
          </Trackpoint>
          <Trackpoint>
            <Time>2021-08-03T04:57:12.000Z</Time>
            <Position>
              <LatitudeDegrees>-15.3519144840538501739501953125</LatitudeDegrees>
              <LongitudeDegrees>37.07394923083484172821044921875</LongitudeDegrees>
            </Position>
            <AltitudeMeters>1852</AltitudeMeters>
            <DistanceMeters>NAN</DistanceMeters>
          </Trackpoint>
          <Trackpoint>
            <Time>2021-08-03T04:57:16.000Z</Time>
            <Position>
              <LatitudeDegrees>-15.35191523842513561248779296875</LatitudeDegrees>
              <LongitudeDegrees>37.07394872792065143585205078125</LongitudeDegrees>
            </Position>
            <AltitudeMeters>1852</AltitudeMeters>
            <DistanceMeters>NAN</DistanceMeters>
          </Trackpoint>
          <Trackpoint>
            <Time>2021-08-03T04:57:21.000Z</Time>
            <Position>
              <LatitudeDegrees>-15.3519154898822307586669921875</LatitudeDegrees>
              <LongitudeDegrees>37.07394856028258800506591796875</LongitudeDegrees>
            </Position>
            <AltitudeMeters>1852</AltitudeMeters>
            <DistanceMeters>NAN</DistanceMeters>
          </Trackpoint>
          <Trackpoint>
            <Time>2021-08-03T04:57:36.000Z</Time>
            <Position>
              <LatitudeDegrees>-15.3519158251583576202392578125</LatitudeDegrees>
              <LongitudeDegrees>37.07394856028258800506591796875</LongitudeDegrees>
            </Position>
            <AltitudeMeters>1852</AltitudeMeters>
            <DistanceMeters>NAN</DistanceMeters>
          </Trackpoint>
          <Trackpoint>
            <Time>2021-08-03T04:57:46.000Z</Time>
            <Position>
              <LatitudeDegrees>-15.3519161604344844818115234375</LatitudeDegrees>
              <LongitudeDegrees>37.073948644101619720458984375</LongitudeDegrees>
            </Position>
            <AltitudeMeters>1852</AltitudeMeters>
            <DistanceMeters>NAN</DistanceMeters>
          </Trackpoint>
          <Trackpoint>
            <Time>2021-08-03T04:58:19.000Z</Time>
            <Position>
              <LatitudeDegrees>-15.35191674716770648956298828125</LatitudeDegrees>
              <LongitudeDegrees>37.07394897937774658203125</LongitudeDegrees>
            </Position>
            <AltitudeMeters>1852</AltitudeMeters>
            <DistanceMeters>NAN</DistanceMeters>
          </Trackpoint>
          <Trackpoint>
            <Time>2021-08-03T04:58:27.000Z</Time>
            <Position>
              <LatitudeDegrees>-15.35191691480576992034912109375</LatitudeDegrees>
              <LongitudeDegrees>37.07394906319677829742431640625</LongitudeDegrees>
            </Position>
            <AltitudeMeters>1852</AltitudeMeters>
            <DistanceMeters>NAN</DistanceMeters>
          </Trackpoint>
          <Trackpoint>
            <Time>2021-08-03T04:58:44.000Z</Time>
            <Position>
              <LatitudeDegrees>-15.3519169986248016357421875</LatitudeDegrees>
              <LongitudeDegrees>37.07394939847290515899658203125</LongitudeDegrees>
            </Position>
            <AltitudeMeters>1852</AltitudeMeters>
            <DistanceMeters>NAN</DistanceMeters>
          </Trackpoint>
          <Trackpoint>
            <Time>2021-08-03T04:59:03.000Z</Time>
            <Position>
              <LatitudeDegrees>-15.35191674716770648956298828125</LatitudeDegrees>
              <LongitudeDegrees>37.07394990138709545135498046875</LongitudeDegrees>
            </Position>
            <AltitudeMeters>1852</AltitudeMeters>
            <DistanceMeters>NAN</DistanceMeters>
          </Trackpoint>
          <Trackpoint>
            <Time>2021-08-03T04:59:06.000Z</Time>
            <Position>
              <LatitudeDegrees>-15.35191674716770648956298828125</LatitudeDegrees>
              <LongitudeDegrees>37.07394990138709545135498046875</LongitudeDegrees>
            </Position>
            <AltitudeMeters>1852</AltitudeMeters>
            <DistanceMeters>NAN</DistanceMeters>
          </Trackpoint>
          <Trackpoint>
            <Time>2021-08-03T04:59:11.000Z</Time>
            <Position>
              <LatitudeDegrees>-15.35191674716770648956298828125</LatitudeDegrees>
              <LongitudeDegrees>37.073949985206127166748046875</LongitudeDegrees>
            </Position>
            <AltitudeMeters>1852</AltitudeMeters>
            <DistanceMeters>NAN</DistanceMeters>
          </Trackpoint>
          <Trackpoint>
            <Time>2021-08-03T04:59:17.000Z</Time>
            <Position>
              <LatitudeDegrees>-15.351916663348674774169921875</LatitudeDegrees>
              <LongitudeDegrees>37.07395006902515888214111328125</LongitudeDegrees>
            </Position>
            <AltitudeMeters>1852</AltitudeMeters>
            <DistanceMeters>NAN</DistanceMeters>
          </Trackpoint>
          <Trackpoint>
            <Time>2021-08-03T04:59:21.000Z</Time>
            <Position>
              <LatitudeDegrees>-15.351916663348674774169921875</LatitudeDegrees>
              <LongitudeDegrees>37.07395006902515888214111328125</LongitudeDegrees>
            </Position>
            <AltitudeMeters>1852</AltitudeMeters>
            <DistanceMeters>NAN</DistanceMeters>
          </Trackpoint>
          <Trackpoint>
            <Time>2021-08-03T04:59:22.000Z</Time>
            <Position>
              <LatitudeDegrees>-15.35191657952964305877685546875</LatitudeDegrees>
              <LongitudeDegrees>37.07395006902515888214111328125</LongitudeDegrees>
            </Position>
            <AltitudeMeters>1852</AltitudeMeters>
            <DistanceMeters>NAN</DistanceMeters>
          </Trackpoint>
          <Trackpoint>
            <Time>2021-08-03T04:59:25.000Z</Time>
            <Position>
              <LatitudeDegrees>-15.35191657952964305877685546875</LatitudeDegrees>
              <LongitudeDegrees>37.073949985206127166748046875</LongitudeDegrees>
            </Position>
            <AltitudeMeters>1852</AltitudeMeters>
            <DistanceMeters>NAN</DistanceMeters>
          </Trackpoint>
          <Trackpoint>
            <Time>2021-08-03T04:59:31.000Z</Time>
            <Position>
              <LatitudeDegrees>-15.3519164957106113433837890625</LatitudeDegrees>
              <LongitudeDegrees>37.07394990138709545135498046875</LongitudeDegrees>
            </Position>
            <AltitudeMeters>1852</AltitudeMeters>
            <DistanceMeters>NAN</DistanceMeters>
          </Trackpoint>
          <Trackpoint>
            <Time>2021-08-03T05:00:14.000Z</Time>
            <Position>
              <LatitudeDegrees>-15.351916663348674774169921875</LatitudeDegrees>
              <LongitudeDegrees>37.07394973374903202056884765625</LongitudeDegrees>
            </Position>
            <AltitudeMeters>1852</AltitudeMeters>
            <DistanceMeters>NAN</DistanceMeters>
          </Trackpoint>
          <Trackpoint>
            <Time>2021-08-03T05:00:38.000Z</Time>
            <Position>
              <LatitudeDegrees>-15.3519169986248016357421875</LatitudeDegrees>
              <LongitudeDegrees>37.0739501528441905975341796875</LongitudeDegrees>
            </Position>
            <AltitudeMeters>1852</AltitudeMeters>
            <DistanceMeters>NAN</DistanceMeters>
          </Trackpoint>
          <Trackpoint>
            <Time>2021-08-03T05:01:06.000Z</Time>
            <Position>
              <LatitudeDegrees>-15.35191708244383335113525390625</LatitudeDegrees>
              <LongitudeDegrees>37.07395040430128574371337890625</LongitudeDegrees>
            </Position>
            <AltitudeMeters>1852</AltitudeMeters>
            <DistanceMeters>NAN</DistanceMeters>
          </Trackpoint>
          <Trackpoint>
            <Time>2021-08-03T05:01:16.000Z</Time>
            <Position>
              <LatitudeDegrees>-15.35191708244383335113525390625</LatitudeDegrees>
              <LongitudeDegrees>37.0739503204822540283203125</LongitudeDegrees>
            </Position>
            <AltitudeMeters>1852</AltitudeMeters>
            <DistanceMeters>NAN</DistanceMeters>
          </Trackpoint>
          <Trackpoint>
            <Time>2021-08-03T05:01:28.000Z</Time>
            <Position>
              <LatitudeDegrees>-15.3519171662628650665283203125</LatitudeDegrees>
              <LongitudeDegrees>37.0739501528441905975341796875</LongitudeDegrees>
            </Position>
            <AltitudeMeters>1852</AltitudeMeters>
            <DistanceMeters>NAN</DistanceMeters>
          </Trackpoint>
          <Trackpoint>
            <Time>2021-08-03T05:01:35.000Z</Time>
            <Position>
              <LatitudeDegrees>-15.35191725008189678192138671875</LatitudeDegrees>
              <LongitudeDegrees>37.073949985206127166748046875</LongitudeDegrees>
            </Position>
            <AltitudeMeters>1852</AltitudeMeters>
            <DistanceMeters>NAN</DistanceMeters>
          </Trackpoint>
          <Trackpoint>
            <Time>2021-08-03T05:01:42.000Z</Time>
            <Position>
              <LatitudeDegrees>-15.35191741771996021270751953125</LatitudeDegrees>
              <LongitudeDegrees>37.07394990138709545135498046875</LongitudeDegrees>
            </Position>
            <AltitudeMeters>1852</AltitudeMeters>
            <DistanceMeters>NAN</DistanceMeters>
          </Trackpoint>
          <Trackpoint>
            <Time>2021-08-03T05:01:53.000Z</Time>
            <Position>
              <LatitudeDegrees>-15.35191758535802364349365234375</LatitudeDegrees>
              <LongitudeDegrees>37.07394973374903202056884765625</LongitudeDegrees>
            </Position>
            <AltitudeMeters>1852</AltitudeMeters>
            <DistanceMeters>NAN</DistanceMeters>
          </Trackpoint>
          <Trackpoint>
            <Time>2021-08-03T05:01:59.000Z</Time>
            <Position>
              <LatitudeDegrees>-15.35191766917705535888671875</LatitudeDegrees>
              <LongitudeDegrees>37.07394964993000030517578125</LongitudeDegrees>
            </Position>
            <AltitudeMeters>1852</AltitudeMeters>
            <DistanceMeters>NAN</DistanceMeters>
          </Trackpoint>
          <Trackpoint>
            <Time>2021-08-03T05:02:02.000Z</Time>
            <Position>
              <LatitudeDegrees>-15.35191775299608707427978515625</LatitudeDegrees>
              <LongitudeDegrees>37.07394964993000030517578125</LongitudeDegrees>
            </Position>
            <AltitudeMeters>1848.800048828125</AltitudeMeters>
            <DistanceMeters>NAN</DistanceMeters>
          </Trackpoint>
          <Trackpoint>
            <Time>2021-08-03T05:02:24.000Z</Time>
            <Position>
              <LatitudeDegrees>-15.35191825591027736663818359375</LatitudeDegrees>
              <LongitudeDegrees>37.07394939847290515899658203125</LongitudeDegrees>
            </Position>
            <AltitudeMeters>1848.800048828125</AltitudeMeters>
            <DistanceMeters>NAN</DistanceMeters>
          </Trackpoint>
          <Trackpoint>
            <Time>2021-08-03T05:02:45.000Z</Time>
            <Position>
              <LatitudeDegrees>-15.351918675005435943603515625</LatitudeDegrees>
              <LongitudeDegrees>37.07394923083484172821044921875</LongitudeDegrees>
            </Position>
            <AltitudeMeters>1848.800048828125</AltitudeMeters>
            <DistanceMeters>NAN</DistanceMeters>
          </Trackpoint>
          <Trackpoint>
            <Time>2021-08-03T05:02:58.000Z</Time>
            <Position>
              <LatitudeDegrees>-15.35191892646253108978271484375</LatitudeDegrees>
              <LongitudeDegrees>37.0739491470158100128173828125</LongitudeDegrees>
            </Position>
            <AltitudeMeters>1848.5999755859375</AltitudeMeters>
            <DistanceMeters>NAN</DistanceMeters>
          </Trackpoint>
          <Trackpoint>
            <Time>2021-08-03T05:03:09.000Z</Time>
            <Position>
              <LatitudeDegrees>-15.35191909410059452056884765625</LatitudeDegrees>
              <LongitudeDegrees>37.07394889555871486663818359375</LongitudeDegrees>
            </Position>
            <AltitudeMeters>1848.5999755859375</AltitudeMeters>
            <DistanceMeters>NAN</DistanceMeters>
          </Trackpoint>
          <Trackpoint>
            <Time>2021-08-03T05:03:49.000Z</Time>
            <Position>
              <LatitudeDegrees>-15.3519195131957530975341796875</LatitudeDegrees>
              <LongitudeDegrees>37.0739481411874294281005859375</LongitudeDegrees>
            </Position>
            <AltitudeMeters>1848.5999755859375</AltitudeMeters>
            <DistanceMeters>NAN</DistanceMeters>
          </Trackpoint>
          <Trackpoint>
            <Time>2021-08-03T05:04:15.000Z</Time>
            <Position>
              <LatitudeDegrees>-15.35192278213798999786376953125</LatitudeDegrees>
              <LongitudeDegrees>37.07393825054168701171875</LongitudeDegrees>
            </Position>
            <AltitudeMeters>1848.5999755859375</AltitudeMeters>
            <DistanceMeters>NAN</DistanceMeters>
          </Trackpoint>
          <Trackpoint>
            <Time>2021-08-03T05:04:18.000Z</Time>
            <Position>
              <LatitudeDegrees>-15.35193719901144504547119140625</LatitudeDegrees>
              <LongitudeDegrees>37.07391838543117046356201171875</LongitudeDegrees>
            </Position>
            <AltitudeMeters>1848.5999755859375</AltitudeMeters>
            <DistanceMeters>NAN</DistanceMeters>
          </Trackpoint>
          <Trackpoint>
            <Time>2021-08-03T05:04:25.000Z</Time>
            <Position>
              <LatitudeDegrees>-15.3519741632044315338134765625</LatitudeDegrees>
              <LongitudeDegrees>37.0738613046705722808837890625</LongitudeDegrees>
            </Position>
            <AltitudeMeters>1848.5999755859375</AltitudeMeters>
            <DistanceMeters>NAN</DistanceMeters>
          </Trackpoint>
          <Trackpoint>
            <Time>2021-08-03T05:04:35.000Z</Time>
            <Position>
              <LatitudeDegrees>-15.352002494037151336669921875</LatitudeDegrees>
              <LongitudeDegrees>37.07382182590663433074951171875</LongitudeDegrees>
            </Position>
            <AltitudeMeters>1848.5999755859375</AltitudeMeters>
            <DistanceMeters>NAN</DistanceMeters>
          </Trackpoint>
          <Trackpoint>
            <Time>2021-08-03T05:04:42.000Z</Time>
            <Position>
              <LatitudeDegrees>-15.35201112739741802215576171875</LatitudeDegrees>
              <LongitudeDegrees>37.0738224126398563385009765625</LongitudeDegrees>
            </Position>
            <AltitudeMeters>1848.5999755859375</AltitudeMeters>
            <DistanceMeters>NAN</DistanceMeters>
          </Trackpoint>
          <Trackpoint>
            <Time>2021-08-03T05:04:49.000Z</Time>
            <Position>
              <LatitudeDegrees>-15.3520564734935760498046875</LatitudeDegrees>
              <LongitudeDegrees>37.0738244242966175079345703125</LongitudeDegrees>
            </Position>
            <AltitudeMeters>1848.5999755859375</AltitudeMeters>
            <DistanceMeters>NAN</DistanceMeters>
          </Trackpoint>
          <Trackpoint>
            <Time>2021-08-03T05:04:55.000Z</Time>
            <Position>
              <LatitudeDegrees>-15.35209125839173793792724609375</LatitudeDegrees>
              <LongitudeDegrees>37.07382752560079097747802734375</LongitudeDegrees>
            </Position>
            <AltitudeMeters>1848.5999755859375</AltitudeMeters>
            <DistanceMeters>NAN</DistanceMeters>
          </Trackpoint>
          <Trackpoint>
            <Time>2021-08-03T05:04:58.000Z</Time>
            <Position>
              <LatitudeDegrees>-15.3520995564758777618408203125</LatitudeDegrees>
              <LongitudeDegrees>37.0738188922405242919921875</LongitudeDegrees>
            </Position>
            <AltitudeMeters>1848.5999755859375</AltitudeMeters>
            <DistanceMeters>NAN</DistanceMeters>
          </Trackpoint>
          <Trackpoint>
            <Time>2021-08-03T05:05:01.000Z</Time>
            <Position>
              <LatitudeDegrees>-15.352109111845493316650390625</LatitudeDegrees>
              <LongitudeDegrees>37.073802463710308074951171875</LongitudeDegrees>
            </Position>
            <AltitudeMeters>1848.5999755859375</AltitudeMeters>
            <DistanceMeters>NAN</DistanceMeters>
          </Trackpoint>
          <Trackpoint>
            <Time>2021-08-03T05:05:05.000Z</Time>
            <Position>
              <LatitudeDegrees>-15.35211506299674510955810546875</LatitudeDegrees>
              <LongitudeDegrees>37.073777653276920318603515625</LongitudeDegrees>
            </Position>
            <AltitudeMeters>1860.5999755859375</AltitudeMeters>
            <DistanceMeters>NAN</DistanceMeters>
          </Trackpoint>
          <Trackpoint>
            <Time>2021-08-03T05:05:07.000Z</Time>
            <Position>
              <LatitudeDegrees>-15.35212629474699497222900390625</LatitudeDegrees>
              <LongitudeDegrees>37.07377002574503421783447265625</LongitudeDegrees>
            </Position>
            <AltitudeMeters>1860.5999755859375</AltitudeMeters>
            <DistanceMeters>NAN</DistanceMeters>
          </Trackpoint>
          <Trackpoint>
            <Time>2021-08-03T05:05:15.000Z</Time>
            <Position>
              <LatitudeDegrees>-15.35214909352362155914306640625</LatitudeDegrees>
              <LongitudeDegrees>37.07374152727425098419189453125</LongitudeDegrees>
            </Position>
            <AltitudeMeters>1862</AltitudeMeters>
            <DistanceMeters>NAN</DistanceMeters>
          </Trackpoint>
          <Trackpoint>
            <Time>2021-08-03T05:05:16.000Z</Time>
            <Position>
              <LatitudeDegrees>-15.35215412266552448272705078125</LatitudeDegrees>
              <LongitudeDegrees>37.0737345702946186065673828125</LongitudeDegrees>
            </Position>
            <AltitudeMeters>1862.4000244140625</AltitudeMeters>
            <DistanceMeters>NAN</DistanceMeters>
          </Trackpoint>
          <Trackpoint>
            <Time>2021-08-03T05:05:20.000Z</Time>
            <Position>
              <LatitudeDegrees>-15.35216510295867919921875</LatitudeDegrees>
              <LongitudeDegrees>37.073721326887607574462890625</LongitudeDegrees>
            </Position>
            <AltitudeMeters>1863</AltitudeMeters>
            <DistanceMeters>NAN</DistanceMeters>
          </Trackpoint>
          <Trackpoint>
            <Time>2021-08-03T05:05:26.000Z</Time>
            <Position>
              <LatitudeDegrees>-15.352189242839813232421875</LatitudeDegrees>
              <LongitudeDegrees>37.07371897995471954345703125</LongitudeDegrees>
            </Position>
            <AltitudeMeters>1864.4000244140625</AltitudeMeters>
            <DistanceMeters>NAN</DistanceMeters>
          </Trackpoint>
          <Trackpoint>
            <Time>2021-08-03T05:05:32.000Z</Time>
            <Position>
              <LatitudeDegrees>-15.35220332443714141845703125</LatitudeDegrees>
              <LongitudeDegrees>37.07369274459779262542724609375</LongitudeDegrees>
            </Position>
            <AltitudeMeters>1865.4000244140625</AltitudeMeters>
            <DistanceMeters>NAN</DistanceMeters>
          </Trackpoint>
          <Trackpoint>
            <Time>2021-08-03T05:05:35.000Z</Time>
            <Position>
              <LatitudeDegrees>-15.35221514292061328887939453125</LatitudeDegrees>
              <LongitudeDegrees>37.0736755616962909698486328125</LongitudeDegrees>
            </Position>
            <AltitudeMeters>1865.800048828125</AltitudeMeters>
            <DistanceMeters>NAN</DistanceMeters>
          </Trackpoint>
          <Trackpoint>
            <Time>2021-08-03T05:05:39.000Z</Time>
            <Position>
              <LatitudeDegrees>-15.35223282873630523681640625</LatitudeDegrees>
              <LongitudeDegrees>37.07366055808961391448974609375</LongitudeDegrees>
            </Position>
            <AltitudeMeters>1866.5999755859375</AltitudeMeters>
            <DistanceMeters>NAN</DistanceMeters>
          </Trackpoint>
          <Trackpoint>
            <Time>2021-08-03T05:05:43.000Z</Time>
            <Position>
              <LatitudeDegrees>-15.3522537834942340850830078125</LatitudeDegrees>
              <LongitudeDegrees>37.07365234382450580596923828125</LongitudeDegrees>
            </Position>
            <AltitudeMeters>1867.199951171875</AltitudeMeters>
            <DistanceMeters>NAN</DistanceMeters>
          </Trackpoint>
          <Trackpoint>
            <Time>2021-08-03T05:05:45.000Z</Time>
            <Position>
              <LatitudeDegrees>-15.352261997759342193603515625</LatitudeDegrees>
              <LongitudeDegrees>37.07364119589328765869140625</LongitudeDegrees>
            </Position>
            <AltitudeMeters>1868</AltitudeMeters>
            <DistanceMeters>NAN</DistanceMeters>
          </Trackpoint>
          <Trackpoint>
            <Time>2021-08-03T05:05:47.000Z</Time>
            <Position>
              <LatitudeDegrees>-15.35226945765316486358642578125</LatitudeDegrees>
              <LongitudeDegrees>37.07362686283886432647705078125</LongitudeDegrees>
            </Position>
            <AltitudeMeters>1868.199951171875</AltitudeMeters>
            <DistanceMeters>NAN</DistanceMeters>
          </Trackpoint>
          <Trackpoint>
            <Time>2021-08-03T05:05:48.000Z</Time>
            <Position>
              <LatitudeDegrees>-15.35227666608989238739013671875</LatitudeDegrees>
              <LongitudeDegrees>37.07362317480146884918212890625</LongitudeDegrees>
            </Position>
            <AltitudeMeters>1868.4000244140625</AltitudeMeters>
            <DistanceMeters>NAN</DistanceMeters>
          </Trackpoint>
          <Trackpoint>
            <Time>2021-08-03T05:05:50.000Z</Time>
            <Position>
              <LatitudeDegrees>-15.3522889874875545501708984375</LatitudeDegrees>
              <LongitudeDegrees>37.07361563108861446380615234375</LongitudeDegrees>
            </Position>
            <AltitudeMeters>1869.199951171875</AltitudeMeters>
            <DistanceMeters>NAN</DistanceMeters>
          </Trackpoint>
          <Trackpoint>
            <Time>2021-08-03T05:05:55.000Z</Time>
            <Position>
              <LatitudeDegrees>-15.35231438465416431427001953125</LatitudeDegrees>
              <LongitudeDegrees>37.0736011303961277008056640625</LongitudeDegrees>
            </Position>
            <AltitudeMeters>1870.4000244140625</AltitudeMeters>
            <DistanceMeters>NAN</DistanceMeters>
          </Trackpoint>
          <Trackpoint>
            <Time>2021-08-03T05:05:58.000Z</Time>
            <Position>
              <LatitudeDegrees>-15.352325029671192169189453125</LatitudeDegrees>
              <LongitudeDegrees>37.0735909044742584228515625</LongitudeDegrees>
            </Position>
            <AltitudeMeters>1871.199951171875</AltitudeMeters>
            <DistanceMeters>NAN</DistanceMeters>
          </Trackpoint>
          <Trackpoint>
            <Time>2021-08-03T05:05:59.000Z</Time>
            <Position>
              <LatitudeDegrees>-15.3523278795182704925537109375</LatitudeDegrees>
              <LongitudeDegrees>37.07358713261783123016357421875</LongitudeDegrees>
            </Position>
            <AltitudeMeters>1871.4000244140625</AltitudeMeters>
            <DistanceMeters>NAN</DistanceMeters>
          </Trackpoint>
          <Trackpoint>
            <Time>2021-08-03T05:06:02.000Z</Time>
            <Position>
              <LatitudeDegrees>-15.35234875045716762542724609375</LatitudeDegrees>
              <LongitudeDegrees>37.0735786668956279754638671875</LongitudeDegrees>
            </Position>
            <AltitudeMeters>1872.199951171875</AltitudeMeters>
            <DistanceMeters>NAN</DistanceMeters>
          </Trackpoint>
          <Trackpoint>
            <Time>2021-08-03T05:06:03.000Z</Time>
            <Position>
              <LatitudeDegrees>-15.35235621035099029541015625</LatitudeDegrees>
              <LongitudeDegrees>37.07357321865856647491455078125</LongitudeDegrees>
            </Position>
            <AltitudeMeters>1872.4000244140625</AltitudeMeters>
            <DistanceMeters>NAN</DistanceMeters>
          </Trackpoint>
          <Trackpoint>
            <Time>2021-08-03T05:06:04.000Z</Time>
            <Position>
              <LatitudeDegrees>-15.35236157476902008056640625</LatitudeDegrees>
              <LongitudeDegrees>37.07356852479279041290283203125</LongitudeDegrees>
            </Position>
            <AltitudeMeters>1872.5999755859375</AltitudeMeters>
            <DistanceMeters>NAN</DistanceMeters>
          </Trackpoint>
          <Trackpoint>
            <Time>2021-08-03T05:06:05.000Z</Time>
            <Position>
              <LatitudeDegrees>-15.35236584953963756561279296875</LatitudeDegrees>
              <LongitudeDegrees>37.0735640823841094970703125</LongitudeDegrees>
            </Position>
            <AltitudeMeters>1872.800048828125</AltitudeMeters>
            <DistanceMeters>NAN</DistanceMeters>
          </Trackpoint>
          <Trackpoint>
            <Time>2021-08-03T05:06:06.000Z</Time>
            <Position>
              <LatitudeDegrees>-15.3523714654147624969482421875</LatitudeDegrees>
              <LongitudeDegrees>37.0735605619847774505615234375</LongitudeDegrees>
            </Position>
            <AltitudeMeters>1873.4000244140625</AltitudeMeters>
            <DistanceMeters>NAN</DistanceMeters>
          </Trackpoint>
          <Trackpoint>
            <Time>2021-08-03T05:06:07.000Z</Time>
            <Position>
              <LatitudeDegrees>-15.35237506963312625885009765625</LatitudeDegrees>
              <LongitudeDegrees>37.073557041585445404052734375</LongitudeDegrees>
            </Position>
            <AltitudeMeters>1873.5999755859375</AltitudeMeters>
            <DistanceMeters>NAN</DistanceMeters>
          </Trackpoint>
          <Trackpoint>
            <Time>2021-08-03T05:06:08.000Z</Time>
            <Position>
              <LatitudeDegrees>-15.35237909294664859771728515625</LatitudeDegrees>
              <LongitudeDegrees>37.0735508389770984649658203125</LongitudeDegrees>
            </Position>
            <AltitudeMeters>1873.800048828125</AltitudeMeters>
            <DistanceMeters>NAN</DistanceMeters>
          </Trackpoint>
          <Trackpoint>
            <Time>2021-08-03T05:06:10.000Z</Time>
            <Position>
              <LatitudeDegrees>-15.35238781012594699859619140625</LatitudeDegrees>
              <LongitudeDegrees>37.0735421217978000640869140625</LongitudeDegrees>
            </Position>
            <AltitudeMeters>1874</AltitudeMeters>
            <DistanceMeters>NAN</DistanceMeters>
          </Trackpoint>
          <Trackpoint>
            <Time>2021-08-03T05:06:12.000Z</Time>
            <Position>
              <LatitudeDegrees>-15.3523939289152622222900390625</LatitudeDegrees>
              <LongitudeDegrees>37.07353818230330944061279296875</LongitudeDegrees>
            </Position>
            <AltitudeMeters>1875</AltitudeMeters>
            <DistanceMeters>NAN</DistanceMeters>
          </Trackpoint>
          <Trackpoint>
            <Time>2021-08-03T05:06:15.000Z</Time>
            <Position>
              <LatitudeDegrees>-15.35240985453128814697265625</LatitudeDegrees>
              <LongitudeDegrees>37.0735300518572330474853515625</LongitudeDegrees>
            </Position>
            <AltitudeMeters>1875.800048828125</AltitudeMeters>
            <DistanceMeters>NAN</DistanceMeters>
          </Trackpoint>
          <Trackpoint>
            <Time>2021-08-03T05:06:16.000Z</Time>
            <Position>
              <LatitudeDegrees>-15.35241362638771533966064453125</LatitudeDegrees>
              <LongitudeDegrees>37.0735292136669158935546875</LongitudeDegrees>
            </Position>
            <AltitudeMeters>1876</AltitudeMeters>
            <DistanceMeters>NAN</DistanceMeters>
          </Trackpoint>
          <Trackpoint>
            <Time>2021-08-03T05:06:19.000Z</Time>
            <Position>
              <LatitudeDegrees>-15.35242251120507717132568359375</LatitudeDegrees>
              <LongitudeDegrees>37.07352426834404468536376953125</LongitudeDegrees>
            </Position>
            <AltitudeMeters>1876.4000244140625</AltitudeMeters>
            <DistanceMeters>NAN</DistanceMeters>
          </Trackpoint>
          <Trackpoint>
            <Time>2021-08-03T05:06:23.000Z</Time>
            <Position>
              <LatitudeDegrees>-15.3524375148117542266845703125</LatitudeDegrees>
              <LongitudeDegrees>37.07351102493703365325927734375</LongitudeDegrees>
            </Position>
            <AltitudeMeters>1877.4000244140625</AltitudeMeters>
            <DistanceMeters>NAN</DistanceMeters>
          </Trackpoint>
          <Trackpoint>
            <Time>2021-08-03T05:06:31.000Z</Time>
            <Position>
              <LatitudeDegrees>-15.3524663485586643218994140625</LatitudeDegrees>
              <LongitudeDegrees>37.0734646730124950408935546875</LongitudeDegrees>
            </Position>
            <AltitudeMeters>1878.4000244140625</AltitudeMeters>
            <DistanceMeters>NAN</DistanceMeters>
          </Trackpoint>
          <Trackpoint>
            <Time>2021-08-03T05:06:33.000Z</Time>
            <Position>
              <LatitudeDegrees>-15.352477245032787322998046875</LatitudeDegrees>
              <LongitudeDegrees>37.07345603965222835540771484375</LongitudeDegrees>
            </Position>
            <AltitudeMeters>1879.199951171875</AltitudeMeters>
            <DistanceMeters>NAN</DistanceMeters>
          </Trackpoint>
          <Trackpoint>
            <Time>2021-08-03T05:06:35.000Z</Time>
            <Position>
              <LatitudeDegrees>-15.352487303316593170166015625</LatitudeDegrees>
              <LongitudeDegrees>37.07345168106257915496826171875</LongitudeDegrees>
            </Position>
            <AltitudeMeters>1879.5999755859375</AltitudeMeters>
            <DistanceMeters>NAN</DistanceMeters>
          </Trackpoint>
          <Trackpoint>
            <Time>2021-08-03T05:06:38.000Z</Time>
            <Position>
              <LatitudeDegrees>-15.352500043809413909912109375</LatitudeDegrees>
              <LongitudeDegrees>37.07344430498778820037841796875</LongitudeDegrees>
            </Position>
            <AltitudeMeters>1880</AltitudeMeters>
            <DistanceMeters>NAN</DistanceMeters>
          </Trackpoint>
          <Trackpoint>
            <Time>2021-08-03T05:06:40.000Z</Time>
            <Position>
              <LatitudeDegrees>-15.3525079227983951568603515625</LatitudeDegrees>
              <LongitudeDegrees>37.07343491725623607635498046875</LongitudeDegrees>
            </Position>
            <AltitudeMeters>1880.5999755859375</AltitudeMeters>
            <DistanceMeters>NAN</DistanceMeters>
          </Trackpoint>
          <Trackpoint>
            <Time>2021-08-03T05:06:41.000Z</Time>
            <Position>
              <LatitudeDegrees>-15.352511443197727203369140625</LatitudeDegrees>
              <LongitudeDegrees>37.07342955283820629119873046875</LongitudeDegrees>
            </Position>
            <AltitudeMeters>1880.800048828125</AltitudeMeters>
            <DistanceMeters>NAN</DistanceMeters>
          </Trackpoint>
          <Trackpoint>
            <Time>2021-08-03T05:06:43.000Z</Time>
            <Position>
              <LatitudeDegrees>-15.35252041183412075042724609375</LatitudeDegrees>
              <LongitudeDegrees>37.0734177343547344207763671875</LongitudeDegrees>
            </Position>
            <AltitudeMeters>1881.199951171875</AltitudeMeters>
            <DistanceMeters>NAN</DistanceMeters>
          </Trackpoint>
          <Trackpoint>
            <Time>2021-08-03T05:06:45.000Z</Time>
            <Position>
              <LatitudeDegrees>-15.35252845846116542816162109375</LatitudeDegrees>
              <LongitudeDegrees>37.07340658642351627349853515625</LongitudeDegrees>
            </Position>
            <AltitudeMeters>1881.5999755859375</AltitudeMeters>
            <DistanceMeters>NAN</DistanceMeters>
          </Trackpoint>
          <Trackpoint>
            <Time>2021-08-03T05:06:46.000Z</Time>
            <Position>
              <LatitudeDegrees>-15.3525327332317829132080078125</LatitudeDegrees>
              <LongitudeDegrees>37.0734009705483913421630859375</LongitudeDegrees>
            </Position>
            <AltitudeMeters>1882.199951171875</AltitudeMeters>
            <DistanceMeters>NAN</DistanceMeters>
          </Trackpoint>
          <Trackpoint>
            <Time>2021-08-03T05:06:50.000Z</Time>
            <Position>
              <LatitudeDegrees>-15.3525548614561557769775390625</LatitudeDegrees>
              <LongitudeDegrees>37.07338035106658935546875</LongitudeDegrees>
            </Position>
            <AltitudeMeters>1882.5999755859375</AltitudeMeters>
            <DistanceMeters>NAN</DistanceMeters>
          </Trackpoint>
          <Trackpoint>
            <Time>2021-08-03T05:06:51.000Z</Time>
            <Position>
              <LatitudeDegrees>-15.35256165079772472381591796875</LatitudeDegrees>
              <LongitudeDegrees>37.07337590865790843963623046875</LongitudeDegrees>
            </Position>
            <AltitudeMeters>1883</AltitudeMeters>
            <DistanceMeters>NAN</DistanceMeters>
          </Trackpoint>
          <Trackpoint>
            <Time>2021-08-03T05:06:52.000Z</Time>
            <Position>
              <LatitudeDegrees>-15.352566428482532501220703125</LatitudeDegrees>
              <LongitudeDegrees>37.0733714662492275238037109375</LongitudeDegrees>
            </Position>
            <AltitudeMeters>1883.199951171875</AltitudeMeters>
            <DistanceMeters>NAN</DistanceMeters>
          </Trackpoint>
          <Trackpoint>
            <Time>2021-08-03T05:06:56.000Z</Time>
            <Position>
              <LatitudeDegrees>-15.3525816835463047027587890625</LatitudeDegrees>
              <LongitudeDegrees>37.07335210405290126800537109375</LongitudeDegrees>
            </Position>
            <AltitudeMeters>1884.199951171875</AltitudeMeters>
            <DistanceMeters>NAN</DistanceMeters>
          </Trackpoint>
          <Trackpoint>
            <Time>2021-08-03T05:07:01.000Z</Time>
            <Position>
              <LatitudeDegrees>-15.352601967751979827880859375</LatitudeDegrees>
              <LongitudeDegrees>37.0733376033604145050048828125</LongitudeDegrees>
            </Position>
            <AltitudeMeters>1885.5999755859375</AltitudeMeters>
            <DistanceMeters>NAN</DistanceMeters>
          </Trackpoint>
          <Trackpoint>
            <Time>2021-08-03T05:07:06.000Z</Time>
            <Position>
              <LatitudeDegrees>-15.35261864773929119110107421875</LatitudeDegrees>
              <LongitudeDegrees>37.07331036217510700225830078125</LongitudeDegrees>
            </Position>
            <AltitudeMeters>1887</AltitudeMeters>
            <DistanceMeters>NAN</DistanceMeters>
          </Trackpoint>
          <Trackpoint>
            <Time>2021-08-03T05:07:07.000Z</Time>
            <Position>
              <LatitudeDegrees>-15.35262283869087696075439453125</LatitudeDegrees>
              <LongitudeDegrees>37.073304243385791778564453125</LongitudeDegrees>
            </Position>
            <AltitudeMeters>1887</AltitudeMeters>
            <DistanceMeters>NAN</DistanceMeters>
          </Trackpoint>
          <Trackpoint>
            <Time>2021-08-03T05:07:11.000Z</Time>
            <Position>
              <LatitudeDegrees>-15.35263859666883945465087890625</LatitudeDegrees>
              <LongitudeDegrees>37.0732904970645904541015625</LongitudeDegrees>
            </Position>
            <AltitudeMeters>1888</AltitudeMeters>
            <DistanceMeters>NAN</DistanceMeters>
          </Trackpoint>
          <Trackpoint>
            <Time>2021-08-03T05:07:16.000Z</Time>
            <Position>
              <LatitudeDegrees>-15.35266173072159290313720703125</LatitudeDegrees>
              <LongitudeDegrees>37.0732856355607509613037109375</LongitudeDegrees>
            </Position>
            <AltitudeMeters>1889.199951171875</AltitudeMeters>
            <DistanceMeters>NAN</DistanceMeters>
          </Trackpoint>
          <Trackpoint>
            <Time>2021-08-03T05:07:18.000Z</Time>
            <Position>
              <LatitudeDegrees>-15.3526618145406246185302734375</LatitudeDegrees>
              <LongitudeDegrees>37.0732886530458927154541015625</LongitudeDegrees>
            </Position>
            <AltitudeMeters>1889.4000244140625</AltitudeMeters>
            <DistanceMeters>NAN</DistanceMeters>
          </Trackpoint>
          <Trackpoint>
            <Time>2021-08-03T05:07:26.000Z</Time>
            <Position>
              <LatitudeDegrees>-15.35267078317701816558837890625</LatitudeDegrees>
              <LongitudeDegrees>37.0733119547367095947265625</LongitudeDegrees>
            </Position>
            <AltitudeMeters>1890.199951171875</AltitudeMeters>
            <DistanceMeters>NAN</DistanceMeters>
          </Trackpoint>
          <Trackpoint>
            <Time>2021-08-03T05:07:28.000Z</Time>
            <Position>
              <LatitudeDegrees>-15.3526760637760162353515625</LatitudeDegrees>
              <LongitudeDegrees>37.0733111165463924407958984375</LongitudeDegrees>
            </Position>
            <AltitudeMeters>1890.4000244140625</AltitudeMeters>
            <DistanceMeters>NAN</DistanceMeters>
          </Trackpoint>
          <Trackpoint>
            <Time>2021-08-03T05:07:34.000Z</Time>
            <Position>
              <LatitudeDegrees>-15.35269509069621562957763671875</LatitudeDegrees>
              <LongitudeDegrees>37.07329493947327136993408203125</LongitudeDegrees>
            </Position>
            <AltitudeMeters>1891.4000244140625</AltitudeMeters>
            <DistanceMeters>NAN</DistanceMeters>
          </Trackpoint>
          <Trackpoint>
            <Time>2021-08-03T05:07:39.000Z</Time>
            <Position>
              <LatitudeDegrees>-15.3527188114821910858154296875</LatitudeDegrees>
              <LongitudeDegrees>37.07330617122352123260498046875</LongitudeDegrees>
            </Position>
            <AltitudeMeters>1892.800048828125</AltitudeMeters>
            <DistanceMeters>NAN</DistanceMeters>
          </Trackpoint>
          <Trackpoint>
            <Time>2021-08-03T05:07:43.000Z</Time>
            <Position>
              <LatitudeDegrees>-15.3527372516691684722900390625</LatitudeDegrees>
              <LongitudeDegrees>37.0733278803527355194091796875</LongitudeDegrees>
            </Position>
            <AltitudeMeters>1893.5999755859375</AltitudeMeters>
            <DistanceMeters>NAN</DistanceMeters>
          </Trackpoint>
          <Trackpoint>
            <Time>2021-08-03T05:07:44.000Z</Time>
            <Position>
              <LatitudeDegrees>-15.35274186171591281890869140625</LatitudeDegrees>
              <LongitudeDegrees>37.073332406580448150634765625</LongitudeDegrees>
            </Position>
            <AltitudeMeters>1894</AltitudeMeters>
            <DistanceMeters>NAN</DistanceMeters>
          </Trackpoint>
          <Trackpoint>
            <Time>2021-08-03T05:07:49.000Z</Time>
            <Position>
              <LatitudeDegrees>-15.35275510512292385101318359375</LatitudeDegrees>
              <LongitudeDegrees>37.0733255334198474884033203125</LongitudeDegrees>
            </Position>
            <AltitudeMeters>1895</AltitudeMeters>
            <DistanceMeters>NAN</DistanceMeters>
          </Trackpoint>
          <Trackpoint>
            <Time>2021-08-03T05:07:53.000Z</Time>
            <Position>
              <LatitudeDegrees>-15.3527630679309368133544921875</LatitudeDegrees>
              <LongitudeDegrees>37.073308937251567840576171875</LongitudeDegrees>
            </Position>
            <AltitudeMeters>1896.199951171875</AltitudeMeters>
            <DistanceMeters>NAN</DistanceMeters>
          </Trackpoint>
          <Trackpoint>
            <Time>2021-08-03T05:07:57.000Z</Time>
            <Position>
              <LatitudeDegrees>-15.352768264710903167724609375</LatitudeDegrees>
              <LongitudeDegrees>37.07329074852168560028076171875</LongitudeDegrees>
            </Position>
            <AltitudeMeters>1896.800048828125</AltitudeMeters>
            <DistanceMeters>NAN</DistanceMeters>
          </Trackpoint>
          <Trackpoint>
            <Time>2021-08-03T05:08:01.000Z</Time>
            <Position>
              <LatitudeDegrees>-15.35277597606182098388671875</LatitudeDegrees>
              <LongitudeDegrees>37.07326157949864864349365234375</LongitudeDegrees>
            </Position>
            <AltitudeMeters>1897.5999755859375</AltitudeMeters>
            <DistanceMeters>NAN</DistanceMeters>
          </Trackpoint>
          <Trackpoint>
            <Time>2021-08-03T05:08:03.000Z</Time>
            <Position>
              <LatitudeDegrees>-15.3527778200805187225341796875</LatitudeDegrees>
              <LongitudeDegrees>37.07325101830065250396728515625</LongitudeDegrees>
            </Position>
            <AltitudeMeters>1897.800048828125</AltitudeMeters>
            <DistanceMeters>NAN</DistanceMeters>
          </Trackpoint>
          <Trackpoint>
            <Time>2021-08-03T05:08:05.000Z</Time>
            <Position>
              <LatitudeDegrees>-15.35278678871691226959228515625</LatitudeDegrees>
              <LongitudeDegrees>37.07324230112135410308837890625</LongitudeDegrees>
            </Position>
            <AltitudeMeters>1898</AltitudeMeters>
            <DistanceMeters>NAN</DistanceMeters>
          </Trackpoint>
          <Trackpoint>
            <Time>2021-08-03T05:08:07.000Z</Time>
            <Position>
              <LatitudeDegrees>-15.3527959249913692474365234375</LatitudeDegrees>
              <LongitudeDegrees>37.07323291338980197906494140625</LongitudeDegrees>
            </Position>
            <AltitudeMeters>1898.5999755859375</AltitudeMeters>
            <DistanceMeters>NAN</DistanceMeters>
          </Trackpoint>
          <Trackpoint>
            <Time>2021-08-03T05:08:12.000Z</Time>
            <Position>
              <LatitudeDegrees>-15.35280791111290454864501953125</LatitudeDegrees>
              <LongitudeDegrees>37.07320391200482845306396484375</LongitudeDegrees>
            </Position>
            <AltitudeMeters>1899.800048828125</AltitudeMeters>
            <DistanceMeters>NAN</DistanceMeters>
          </Trackpoint>
          <Trackpoint>
            <Time>2021-08-03T05:08:13.000Z</Time>
            <Position>
              <LatitudeDegrees>-15.35281009040772914886474609375</LatitudeDegrees>
              <LongitudeDegrees>37.073196955025196075439453125</LongitudeDegrees>
            </Position>
            <AltitudeMeters>1899.800048828125</AltitudeMeters>
            <DistanceMeters>NAN</DistanceMeters>
          </Trackpoint>
          <Trackpoint>
            <Time>2021-08-03T05:08:18.000Z</Time>
            <Position>
              <LatitudeDegrees>-15.35281294025480747222900390625</LatitudeDegrees>
              <LongitudeDegrees>37.0731656067073345184326171875</LongitudeDegrees>
            </Position>
            <AltitudeMeters>1900.800048828125</AltitudeMeters>
            <DistanceMeters>NAN</DistanceMeters>
          </Trackpoint>
          <Trackpoint>
            <Time>2021-08-03T05:08:25.000Z</Time>
            <Position>
              <LatitudeDegrees>-15.35281109623610973358154296875</LatitudeDegrees>
              <LongitudeDegrees>37.07313216291368007659912109375</LongitudeDegrees>
            </Position>
            <AltitudeMeters>1901.5999755859375</AltitudeMeters>
            <DistanceMeters>NAN</DistanceMeters>
          </Trackpoint>
          <Trackpoint>
            <Time>2021-08-03T05:08:27.000Z</Time>
            <Position>
              <LatitudeDegrees>-15.35281679593026638031005859375</LatitudeDegrees>
              <LongitudeDegrees>37.07312260754406452178955078125</LongitudeDegrees>
            </Position>
            <AltitudeMeters>1901.800048828125</AltitudeMeters>
            <DistanceMeters>NAN</DistanceMeters>
          </Trackpoint>
          <Trackpoint>
            <Time>2021-08-03T05:08:33.000Z</Time>
            <Position>
              <LatitudeDegrees>-15.3528374992311000823974609375</LatitudeDegrees>
              <LongitudeDegrees>37.0731082744896411895751953125</LongitudeDegrees>
            </Position>
            <AltitudeMeters>1903.199951171875</AltitudeMeters>
            <DistanceMeters>NAN</DistanceMeters>
          </Trackpoint>
          <Trackpoint>
            <Time>2021-08-03T05:08:34.000Z</Time>
            <Position>
              <LatitudeDegrees>-15.352838672697544097900390625</LatitudeDegrees>
              <LongitudeDegrees>37.073104418814182281494140625</LongitudeDegrees>
            </Position>
            <AltitudeMeters>1903.4000244140625</AltitudeMeters>
            <DistanceMeters>NAN</DistanceMeters>
          </Trackpoint>
          <Trackpoint>
            <Time>2021-08-03T05:08:39.000Z</Time>
            <Position>
              <LatitudeDegrees>-15.35285174846649169921875</LatitudeDegrees>
              <LongitudeDegrees>37.07307684235274791717529296875</LongitudeDegrees>
            </Position>
            <AltitudeMeters>1903.800048828125</AltitudeMeters>
            <DistanceMeters>NAN</DistanceMeters>
          </Trackpoint>
          <Trackpoint>
            <Time>2021-08-03T05:08:41.000Z</Time>
            <Position>
              <LatitudeDegrees>-15.3528572805225849151611328125</LatitudeDegrees>
              <LongitudeDegrees>37.07306242547929286956787109375</LongitudeDegrees>
            </Position>
            <AltitudeMeters>1904.4000244140625</AltitudeMeters>
            <DistanceMeters>NAN</DistanceMeters>
          </Trackpoint>
          <Trackpoint>
            <Time>2021-08-03T05:08:46.000Z</Time>
            <Position>
              <LatitudeDegrees>-15.3528800792992115020751953125</LatitudeDegrees>
              <LongitudeDegrees>37.07304130308330059051513671875</LongitudeDegrees>
            </Position>
            <AltitudeMeters>1905.199951171875</AltitudeMeters>
            <DistanceMeters>NAN</DistanceMeters>
          </Trackpoint>
          <Trackpoint>
            <Time>2021-08-03T05:08:47.000Z</Time>
            <Position>
              <LatitudeDegrees>-15.3528874553740024566650390625</LatitudeDegrees>
              <LongitudeDegrees>37.07303778268396854400634765625</LongitudeDegrees>
            </Position>
            <AltitudeMeters>1905.4000244140625</AltitudeMeters>
            <DistanceMeters>NAN</DistanceMeters>
          </Trackpoint>
          <Trackpoint>
            <Time>2021-08-03T05:08:53.000Z</Time>
            <Position>
              <LatitudeDegrees>-15.35290447063744068145751953125</LatitudeDegrees>
              <LongitudeDegrees>37.0730035006999969482421875</LongitudeDegrees>
            </Position>
            <AltitudeMeters>1906.5999755859375</AltitudeMeters>
            <DistanceMeters>NAN</DistanceMeters>
          </Trackpoint>
          <Trackpoint>
            <Time>2021-08-03T05:08:54.000Z</Time>
            <Position>
              <LatitudeDegrees>-15.352905057370662689208984375</LatitudeDegrees>
              <LongitudeDegrees>37.07299637608230113983154296875</LongitudeDegrees>
            </Position>
            <AltitudeMeters>1906.800048828125</AltitudeMeters>
            <DistanceMeters>NAN</DistanceMeters>
          </Trackpoint>
          <Trackpoint>
            <Time>2021-08-03T05:09:00.000Z</Time>
            <Position>
              <LatitudeDegrees>-15.352918468415737152099609375</LatitudeDegrees>
              <LongitudeDegrees>37.0729647763073444366455078125</LongitudeDegrees>
            </Position>
            <AltitudeMeters>1907.800048828125</AltitudeMeters>
            <DistanceMeters>NAN</DistanceMeters>
          </Trackpoint>
          <Trackpoint>
            <Time>2021-08-03T05:09:03.000Z</Time>
            <Position>
              <LatitudeDegrees>-15.35292676649987697601318359375</LatitudeDegrees>
              <LongitudeDegrees>37.0729605853557586669921875</LongitudeDegrees>
            </Position>
            <AltitudeMeters>1908.199951171875</AltitudeMeters>
            <DistanceMeters>NAN</DistanceMeters>
          </Trackpoint>
          <Trackpoint>
            <Time>2021-08-03T05:09:05.000Z</Time>
            <Position>
              <LatitudeDegrees>-15.35293020308017730712890625</LatitudeDegrees>
              <LongitudeDegrees>37.07296066917479038238525390625</LongitudeDegrees>
            </Position>
            <AltitudeMeters>1908.800048828125</AltitudeMeters>
            <DistanceMeters>NAN</DistanceMeters>
          </Trackpoint>
          <Trackpoint>
            <Time>2021-08-03T05:09:09.000Z</Time>
            <Position>
              <LatitudeDegrees>-15.3529481403529644012451171875</LatitudeDegrees>
              <LongitudeDegrees>37.07294524647295475006103515625</LongitudeDegrees>
            </Position>
            <AltitudeMeters>1909.5999755859375</AltitudeMeters>
            <DistanceMeters>NAN</DistanceMeters>
          </Trackpoint>
          <Trackpoint>
            <Time>2021-08-03T05:09:11.000Z</Time>
            <Position>
              <LatitudeDegrees>-15.3529578633606433868408203125</LatitudeDegrees>
              <LongitudeDegrees>37.07293518818914890289306640625</LongitudeDegrees>
            </Position>
            <AltitudeMeters>1910</AltitudeMeters>
            <DistanceMeters>NAN</DistanceMeters>
          </Trackpoint>
          <Trackpoint>
            <Time>2021-08-03T05:09:15.000Z</Time>
            <Position>
              <LatitudeDegrees>-15.3529816679656505584716796875</LatitudeDegrees>
              <LongitudeDegrees>37.0729372836649417877197265625</LongitudeDegrees>
            </Position>
            <AltitudeMeters>1911</AltitudeMeters>
            <DistanceMeters>NAN</DistanceMeters>
          </Trackpoint>
          <Trackpoint>
            <Time>2021-08-03T05:09:16.000Z</Time>
            <Position>
              <LatitudeDegrees>-15.35298527218401432037353515625</LatitudeDegrees>
              <LongitudeDegrees>37.07293988205492496490478515625</LongitudeDegrees>
            </Position>
            <AltitudeMeters>1911.4000244140625</AltitudeMeters>
            <DistanceMeters>NAN</DistanceMeters>
          </Trackpoint>
          <Trackpoint>
            <Time>2021-08-03T05:09:19.000Z</Time>
            <Position>
              <LatitudeDegrees>-15.35300086252391338348388671875</LatitudeDegrees>
              <LongitudeDegrees>37.07294357009232044219970703125</LongitudeDegrees>
            </Position>
            <AltitudeMeters>1912</AltitudeMeters>
            <DistanceMeters>NAN</DistanceMeters>
          </Trackpoint>
          <Trackpoint>
            <Time>2021-08-03T05:09:20.000Z</Time>
            <Position>
              <LatitudeDegrees>-15.35300530493259429931640625</LatitudeDegrees>
              <LongitudeDegrees>37.072944156825542449951171875</LongitudeDegrees>
            </Position>
            <AltitudeMeters>1912.199951171875</AltitudeMeters>
            <DistanceMeters>NAN</DistanceMeters>
          </Trackpoint>
          <Trackpoint>
            <Time>2021-08-03T05:09:25.000Z</Time>
            <Position>
              <LatitudeDegrees>-15.35301745869219303131103515625</LatitudeDegrees>
              <LongitudeDegrees>37.07295614294707775115966796875</LongitudeDegrees>
            </Position>
            <AltitudeMeters>1913.199951171875</AltitudeMeters>
            <DistanceMeters>NAN</DistanceMeters>
          </Trackpoint>
          <Trackpoint>
            <Time>2021-08-03T05:09:31.000Z</Time>
            <Position>
              <LatitudeDegrees>-15.3530185483396053314208984375</LatitudeDegrees>
              <LongitudeDegrees>37.072956226766109466552734375</LongitudeDegrees>
            </Position>
            <AltitudeMeters>1913.800048828125</AltitudeMeters>
            <DistanceMeters>NAN</DistanceMeters>
          </Trackpoint>
          <Trackpoint>
            <Time>2021-08-03T05:09:35.000Z</Time>
            <Position>
              <LatitudeDegrees>-15.3530185483396053314208984375</LatitudeDegrees>
              <LongitudeDegrees>37.072956226766109466552734375</LongitudeDegrees>
            </Position>
            <AltitudeMeters>1912.800048828125</AltitudeMeters>
            <DistanceMeters>NAN</DistanceMeters>
          </Trackpoint>
          <Trackpoint>
            <Time>2021-08-03T05:09:49.000Z</Time>
            <Position>
              <LatitudeDegrees>-15.3530185483396053314208984375</LatitudeDegrees>
              <LongitudeDegrees>37.07295714877545833587646484375</LongitudeDegrees>
            </Position>
            <AltitudeMeters>1913.800048828125</AltitudeMeters>
            <DistanceMeters>NAN</DistanceMeters>
          </Trackpoint>
          <Trackpoint>
            <Time>2021-08-03T05:10:31.000Z</Time>
            <Position>
              <LatitudeDegrees>-15.35302416421473026275634765625</LatitudeDegrees>
              <LongitudeDegrees>37.07296603359282016754150390625</LongitudeDegrees>
            </Position>
            <AltitudeMeters>1912.5999755859375</AltitudeMeters>
            <DistanceMeters>NAN</DistanceMeters>
          </Trackpoint>
          <Trackpoint>
            <Time>2021-08-03T05:10:59.000Z</Time>
            <Position>
              <LatitudeDegrees>-15.353021733462810516357421875</LatitudeDegrees>
              <LongitudeDegrees>37.0729473419487476348876953125</LongitudeDegrees>
            </Position>
            <AltitudeMeters>1913.4000244140625</AltitudeMeters>
            <DistanceMeters>NAN</DistanceMeters>
          </Trackpoint>
          <Trackpoint>
            <Time>2021-08-03T05:11:06.000Z</Time>
            <Position>
              <LatitudeDegrees>-15.3530198894441127777099609375</LatitudeDegrees>
              <LongitudeDegrees>37.07294792868196964263916015625</LongitudeDegrees>
            </Position>
            <AltitudeMeters>1913.5999755859375</AltitudeMeters>
            <DistanceMeters>NAN</DistanceMeters>
          </Trackpoint>
          <Trackpoint>
            <Time>2021-08-03T05:11:08.000Z</Time>
            <Position>
              <LatitudeDegrees>-15.35302064381539821624755859375</LatitudeDegrees>
              <LongitudeDegrees>37.07294809632003307342529296875</LongitudeDegrees>
            </Position>
            <AltitudeMeters>1914.199951171875</AltitudeMeters>
            <DistanceMeters>NAN</DistanceMeters>
          </Trackpoint>
          <Trackpoint>
            <Time>2021-08-03T05:11:11.000Z</Time>
            <Position>
              <LatitudeDegrees>-15.35302273929119110107421875</LatitudeDegrees>
              <LongitudeDegrees>37.07294826395809650421142578125</LongitudeDegrees>
            </Position>
            <AltitudeMeters>1915.4000244140625</AltitudeMeters>
            <DistanceMeters>NAN</DistanceMeters>
          </Trackpoint>
          <Trackpoint>
            <Time>2021-08-03T05:11:16.000Z</Time>
            <Position>
              <LatitudeDegrees>-15.3530483879148960113525390625</LatitudeDegrees>
              <LongitudeDegrees>37.07291473634541034698486328125</LongitudeDegrees>
            </Position>
            <AltitudeMeters>1916.800048828125</AltitudeMeters>
            <DistanceMeters>NAN</DistanceMeters>
          </Trackpoint>
          <Trackpoint>
            <Time>2021-08-03T05:11:17.000Z</Time>
            <Position>
              <LatitudeDegrees>-15.3530611284077167510986328125</LatitudeDegrees>
              <LongitudeDegrees>37.0729047618806362152099609375</LongitudeDegrees>
            </Position>
            <AltitudeMeters>1916.800048828125</AltitudeMeters>
            <DistanceMeters>NAN</DistanceMeters>
          </Trackpoint>
          <Trackpoint>
            <Time>2021-08-03T05:11:22.000Z</Time>
            <Position>
              <LatitudeDegrees>-15.35308283753693103790283203125</LatitudeDegrees>
              <LongitudeDegrees>37.07286444492638111114501953125</LongitudeDegrees>
            </Position>
            <AltitudeMeters>1917.800048828125</AltitudeMeters>
            <DistanceMeters>NAN</DistanceMeters>
          </Trackpoint>
          <Trackpoint>
            <Time>2021-08-03T05:11:26.000Z</Time>
            <Position>
              <LatitudeDegrees>-15.353103540837764739990234375</LatitudeDegrees>
              <LongitudeDegrees>37.0728403888642787933349609375</LongitudeDegrees>
            </Position>
            <AltitudeMeters>1918.4000244140625</AltitudeMeters>
            <DistanceMeters>NAN</DistanceMeters>
          </Trackpoint>
          <Trackpoint>
            <Time>2021-08-03T05:11:28.000Z</Time>
            <Position>
              <LatitudeDegrees>-15.3531087376177310943603515625</LatitudeDegrees>
              <LongitudeDegrees>37.07283527590334415435791015625</LongitudeDegrees>
            </Position>
            <AltitudeMeters>1918.800048828125</AltitudeMeters>
            <DistanceMeters>NAN</DistanceMeters>
          </Trackpoint>
          <Trackpoint>
            <Time>2021-08-03T05:11:34.000Z</Time>
            <Position>
              <LatitudeDegrees>-15.35312424413859844207763671875</LatitudeDegrees>
              <LongitudeDegrees>37.07280158065259456634521484375</LongitudeDegrees>
            </Position>
            <AltitudeMeters>1920</AltitudeMeters>
            <DistanceMeters>NAN</DistanceMeters>
          </Trackpoint>
          <Trackpoint>
            <Time>2021-08-03T05:11:35.000Z</Time>
            <Position>
              <LatitudeDegrees>-15.35312734544277191162109375</LatitudeDegrees>
              <LongitudeDegrees>37.07279554568231105804443359375</LongitudeDegrees>
            </Position>
            <AltitudeMeters>1920.199951171875</AltitudeMeters>
            <DistanceMeters>NAN</DistanceMeters>
          </Trackpoint>
          <Trackpoint>
            <Time>2021-08-03T05:11:40.000Z</Time>
            <Position>
              <LatitudeDegrees>-15.353151820600032806396484375</LatitudeDegrees>
              <LongitudeDegrees>37.0727793686091899871826171875</LongitudeDegrees>
            </Position>
            <AltitudeMeters>1921.199951171875</AltitudeMeters>
            <DistanceMeters>NAN</DistanceMeters>
          </Trackpoint>
          <Trackpoint>
            <Time>2021-08-03T05:11:43.000Z</Time>
            <Position>
              <LatitudeDegrees>-15.35316347144544124603271484375</LatitudeDegrees>
              <LongitudeDegrees>37.07276218570768833160400390625</LongitudeDegrees>
            </Position>
            <AltitudeMeters>1921.800048828125</AltitudeMeters>
            <DistanceMeters>NAN</DistanceMeters>
          </Trackpoint>
          <Trackpoint>
            <Time>2021-08-03T05:11:48.000Z</Time>
            <Position>
              <LatitudeDegrees>-15.3531912155449390411376953125</LatitudeDegrees>
              <LongitudeDegrees>37.0727374590933322906494140625</LongitudeDegrees>
            </Position>
            <AltitudeMeters>1922.5999755859375</AltitudeMeters>
            <DistanceMeters>NAN</DistanceMeters>
          </Trackpoint>
          <Trackpoint>
            <Time>2021-08-03T05:11:50.000Z</Time>
            <Position>
              <LatitudeDegrees>-15.3532046265900135040283203125</LatitudeDegrees>
              <LongitudeDegrees>37.07272698171436786651611328125</LongitudeDegrees>
            </Position>
            <AltitudeMeters>1923.5999755859375</AltitudeMeters>
            <DistanceMeters>NAN</DistanceMeters>
          </Trackpoint>
          <Trackpoint>
            <Time>2021-08-03T05:11:53.000Z</Time>
            <Position>
              <LatitudeDegrees>-15.35321963019669055938720703125</LatitudeDegrees>
              <LongitudeDegrees>37.07272094674408435821533203125</LongitudeDegrees>
            </Position>
            <AltitudeMeters>1924</AltitudeMeters>
            <DistanceMeters>NAN</DistanceMeters>
          </Trackpoint>
          <Trackpoint>
            <Time>2021-08-03T05:11:54.000Z</Time>
            <Position>
              <LatitudeDegrees>-15.35322398878633975982666015625</LatitudeDegrees>
              <LongitudeDegrees>37.07272119820117950439453125</LongitudeDegrees>
            </Position>
            <AltitudeMeters>1924.199951171875</AltitudeMeters>
            <DistanceMeters>NAN</DistanceMeters>
          </Trackpoint>
          <Trackpoint>
            <Time>2021-08-03T05:11:56.000Z</Time>
            <Position>
              <LatitudeDegrees>-15.35323589108884334564208984375</LatitudeDegrees>
              <LongitudeDegrees>37.0727206952869892120361328125</LongitudeDegrees>
            </Position>
            <AltitudeMeters>1925</AltitudeMeters>
            <DistanceMeters>NAN</DistanceMeters>
          </Trackpoint>
          <Trackpoint>
            <Time>2021-08-03T05:12:01.000Z</Time>
            <Position>
              <LatitudeDegrees>-15.353267155587673187255859375</LatitudeDegrees>
              <LongitudeDegrees>37.0727103017270565032958984375</LongitudeDegrees>
            </Position>
            <AltitudeMeters>1926.199951171875</AltitudeMeters>
            <DistanceMeters>NAN</DistanceMeters>
          </Trackpoint>
          <Trackpoint>
            <Time>2021-08-03T05:12:04.000Z</Time>
            <Position>
              <LatitudeDegrees>-15.3532837517559528350830078125</LatitudeDegrees>
              <LongitudeDegrees>37.0727111399173736572265625</LongitudeDegrees>
            </Position>
            <AltitudeMeters>1926.5999755859375</AltitudeMeters>
            <DistanceMeters>NAN</DistanceMeters>
          </Trackpoint>
          <Trackpoint>
            <Time>2021-08-03T05:12:07.000Z</Time>
            <Position>
              <LatitudeDegrees>-15.35329188220202922821044921875</LatitudeDegrees>
              <LongitudeDegrees>37.07271449267864227294921875</LongitudeDegrees>
            </Position>
            <AltitudeMeters>1927.4000244140625</AltitudeMeters>
            <DistanceMeters>NAN</DistanceMeters>
          </Trackpoint>
          <Trackpoint>
            <Time>2021-08-03T05:12:11.000Z</Time>
            <Position>
              <LatitudeDegrees>-15.35330344922840595245361328125</LatitudeDegrees>
              <LongitudeDegrees>37.07270116545259952545166015625</LongitudeDegrees>
            </Position>
            <AltitudeMeters>1927.800048828125</AltitudeMeters>
            <DistanceMeters>NAN</DistanceMeters>
          </Trackpoint>
          <Trackpoint>
            <Time>2021-08-03T05:12:15.000Z</Time>
            <Position>
              <LatitudeDegrees>-15.35332054831087589263916015625</LatitudeDegrees>
              <LongitudeDegrees>37.072696387767791748046875</LongitudeDegrees>
            </Position>
            <AltitudeMeters>1928.4000244140625</AltitudeMeters>
            <DistanceMeters>NAN</DistanceMeters>
          </Trackpoint>
          <Trackpoint>
            <Time>2021-08-03T05:12:19.000Z</Time>
            <Position>
              <LatitudeDegrees>-15.35332306288182735443115234375</LatitudeDegrees>
              <LongitudeDegrees>37.07269161008298397064208984375</LongitudeDegrees>
            </Position>
            <AltitudeMeters>1929.4000244140625</AltitudeMeters>
            <DistanceMeters>NAN</DistanceMeters>
          </Trackpoint>
          <Trackpoint>
            <Time>2021-08-03T05:12:23.000Z</Time>
            <Position>
              <LatitudeDegrees>-15.353334881365299224853515625</LatitudeDegrees>
              <LongitudeDegrees>37.07267132587730884552001953125</LongitudeDegrees>
            </Position>
            <AltitudeMeters>1930</AltitudeMeters>
            <DistanceMeters>NAN</DistanceMeters>
          </Trackpoint>
          <Trackpoint>
            <Time>2021-08-03T05:12:25.000Z</Time>
            <Position>
              <LatitudeDegrees>-15.35334368236362934112548828125</LatitudeDegrees>
              <LongitudeDegrees>37.0726630277931690216064453125</LongitudeDegrees>
            </Position>
            <AltitudeMeters>1930.4000244140625</AltitudeMeters>
            <DistanceMeters>NAN</DistanceMeters>
          </Trackpoint>
          <Trackpoint>
            <Time>2021-08-03T05:12:32.000Z</Time>
            <Position>
              <LatitudeDegrees>-15.353360362350940704345703125</LatitudeDegrees>
              <LongitudeDegrees>37.0726321823894977569580078125</LongitudeDegrees>
            </Position>
            <AltitudeMeters>1931.800048828125</AltitudeMeters>
            <DistanceMeters>NAN</DistanceMeters>
          </Trackpoint>
          <Trackpoint>
            <Time>2021-08-03T05:12:34.000Z</Time>
            <Position>
              <LatitudeDegrees>-15.35336715169250965118408203125</LatitudeDegrees>
              <LongitudeDegrees>37.072621285915374755859375</LongitudeDegrees>
            </Position>
            <AltitudeMeters>1932.4000244140625</AltitudeMeters>
            <DistanceMeters>NAN</DistanceMeters>
          </Trackpoint>
          <Trackpoint>
            <Time>2021-08-03T05:12:36.000Z</Time>
            <Position>
              <LatitudeDegrees>-15.35337218083441257476806640625</LatitudeDegrees>
              <LongitudeDegrees>37.07260929979383945465087890625</LongitudeDegrees>
            </Position>
            <AltitudeMeters>1932.800048828125</AltitudeMeters>
            <DistanceMeters>NAN</DistanceMeters>
          </Trackpoint>
          <Trackpoint>
            <Time>2021-08-03T05:12:39.000Z</Time>
            <Position>
              <LatitudeDegrees>-15.35337503068149089813232421875</LatitudeDegrees>
              <LongitudeDegrees>37.0725936256349086761474609375</LongitudeDegrees>
            </Position>
            <AltitudeMeters>1933</AltitudeMeters>
            <DistanceMeters>NAN</DistanceMeters>
          </Trackpoint>
          <Trackpoint>
            <Time>2021-08-03T05:12:42.000Z</Time>
            <Position>
              <LatitudeDegrees>-15.3533846698701381683349609375</LatitudeDegrees>
              <LongitudeDegrees>37.0725738443434238433837890625</LongitudeDegrees>
            </Position>
            <AltitudeMeters>1933.4000244140625</AltitudeMeters>
            <DistanceMeters>NAN</DistanceMeters>
          </Trackpoint>
          <Trackpoint>
            <Time>2021-08-03T05:12:43.000Z</Time>
            <Position>
              <LatitudeDegrees>-15.353386513888835906982421875</LatitudeDegrees>
              <LongitudeDegrees>37.07257040776312351226806640625</LongitudeDegrees>
            </Position>
            <AltitudeMeters>1934</AltitudeMeters>
            <DistanceMeters>NAN</DistanceMeters>
          </Trackpoint>
          <Trackpoint>
            <Time>2021-08-03T05:12:50.000Z</Time>
            <Position>
              <LatitudeDegrees>-15.35340671427547931671142578125</LatitudeDegrees>
              <LongitudeDegrees>37.0725314319133758544921875</LongitudeDegrees>
            </Position>
            <AltitudeMeters>1935</AltitudeMeters>
            <DistanceMeters>NAN</DistanceMeters>
          </Trackpoint>
          <Trackpoint>
            <Time>2021-08-03T05:12:51.000Z</Time>
            <Position>
              <LatitudeDegrees>-15.3534083068370819091796875</LatitudeDegrees>
              <LongitudeDegrees>37.072525061666965484619140625</LongitudeDegrees>
            </Position>
            <AltitudeMeters>1935.199951171875</AltitudeMeters>
            <DistanceMeters>NAN</DistanceMeters>
          </Trackpoint>
          <Trackpoint>
            <Time>2021-08-03T05:12:55.000Z</Time>
            <Position>
              <LatitudeDegrees>-15.35341165959835052490234375</LatitudeDegrees>
              <LongitudeDegrees>37.072492875158786773681640625</LongitudeDegrees>
            </Position>
            <AltitudeMeters>1936.199951171875</AltitudeMeters>
            <DistanceMeters>NAN</DistanceMeters>
          </Trackpoint>
          <Trackpoint>
            <Time>2021-08-03T05:12:59.000Z</Time>
            <Position>
              <LatitudeDegrees>-15.3534215502440929412841796875</LatitudeDegrees>
              <LongitudeDegrees>37.07247418351471424102783203125</LongitudeDegrees>
            </Position>
            <AltitudeMeters>1936.800048828125</AltitudeMeters>
            <DistanceMeters>NAN</DistanceMeters>
          </Trackpoint>
          <Trackpoint>
            <Time>2021-08-03T05:13:01.000Z</Time>
            <Position>
              <LatitudeDegrees>-15.35342641174793243408203125</LatitudeDegrees>
              <LongitudeDegrees>37.07246194593608379364013671875</LongitudeDegrees>
            </Position>
            <AltitudeMeters>1937.4000244140625</AltitudeMeters>
            <DistanceMeters>NAN</DistanceMeters>
          </Trackpoint>
          <Trackpoint>
            <Time>2021-08-03T05:13:07.000Z</Time>
            <Position>
              <LatitudeDegrees>-15.35343353636562824249267578125</LatitudeDegrees>
              <LongitudeDegrees>37.07242791540920734405517578125</LongitudeDegrees>
            </Position>
            <AltitudeMeters>1938.4000244140625</AltitudeMeters>
            <DistanceMeters>NAN</DistanceMeters>
          </Trackpoint>
          <Trackpoint>
            <Time>2021-08-03T05:13:08.000Z</Time>
            <Position>
              <LatitudeDegrees>-15.35343336872756481170654296875</LatitudeDegrees>
              <LongitudeDegrees>37.07242347300052642822265625</LongitudeDegrees>
            </Position>
            <AltitudeMeters>1939</AltitudeMeters>
            <DistanceMeters>NAN</DistanceMeters>
          </Trackpoint>
          <Trackpoint>
            <Time>2021-08-03T05:13:12.000Z</Time>
            <Position>
              <LatitudeDegrees>-15.3534379787743091583251953125</LatitudeDegrees>
              <LongitudeDegrees>37.0723941363394260406494140625</LongitudeDegrees>
            </Position>
            <AltitudeMeters>1939.5999755859375</AltitudeMeters>
            <DistanceMeters>NAN</DistanceMeters>
          </Trackpoint>
          <Trackpoint>
            <Time>2021-08-03T05:13:18.000Z</Time>
            <Position>
              <LatitudeDegrees>-15.3534470312297344207763671875</LatitudeDegrees>
              <LongitudeDegrees>37.07236069254577159881591796875</LongitudeDegrees>
            </Position>
            <AltitudeMeters>1940.5999755859375</AltitudeMeters>
            <DistanceMeters>NAN</DistanceMeters>
          </Trackpoint>
          <Trackpoint>
            <Time>2021-08-03T05:13:19.000Z</Time>
            <Position>
              <LatitudeDegrees>-15.353448875248432159423828125</LatitudeDegrees>
              <LongitudeDegrees>37.0723575912415981292724609375</LongitudeDegrees>
            </Position>
            <AltitudeMeters>1941.199951171875</AltitudeMeters>
            <DistanceMeters>NAN</DistanceMeters>
          </Trackpoint>
          <Trackpoint>
            <Time>2021-08-03T05:13:24.000Z</Time>
            <Position>
              <LatitudeDegrees>-15.35345549695193767547607421875</LatitudeDegrees>
              <LongitudeDegrees>37.07232750020921230316162109375</LongitudeDegrees>
            </Position>
            <AltitudeMeters>1941.800048828125</AltitudeMeters>
            <DistanceMeters>NAN</DistanceMeters>
          </Trackpoint>
          <Trackpoint>
            <Time>2021-08-03T05:13:29.000Z</Time>
            <Position>
              <LatitudeDegrees>-15.3534493781626224517822265625</LatitudeDegrees>
              <LongitudeDegrees>37.07228458486497402191162109375</LongitudeDegrees>
            </Position>
            <AltitudeMeters>1942.800048828125</AltitudeMeters>
            <DistanceMeters>NAN</DistanceMeters>
          </Trackpoint>
          <Trackpoint>
            <Time>2021-08-03T05:13:30.000Z</Time>
            <Position>
              <LatitudeDegrees>-15.353449545800685882568359375</LatitudeDegrees>
              <LongitudeDegrees>37.0722777955234050750732421875</LongitudeDegrees>
            </Position>
            <AltitudeMeters>1943.199951171875</AltitudeMeters>
            <DistanceMeters>NAN</DistanceMeters>
          </Trackpoint>
          <Trackpoint>
            <Time>2021-08-03T05:13:32.000Z</Time>
            <Position>
              <LatitudeDegrees>-15.353453569114208221435546875</LatitudeDegrees>
              <LongitudeDegrees>37.072266899049282073974609375</LongitudeDegrees>
            </Position>
            <AltitudeMeters>1944</AltitudeMeters>
            <DistanceMeters>NAN</DistanceMeters>
          </Trackpoint>
          <Trackpoint>
            <Time>2021-08-03T05:13:35.000Z</Time>
            <Position>
              <LatitudeDegrees>-15.3534611128270626068115234375</LatitudeDegrees>
              <LongitudeDegrees>37.07225156016647815704345703125</LongitudeDegrees>
            </Position>
            <AltitudeMeters>1944.4000244140625</AltitudeMeters>
            <DistanceMeters>NAN</DistanceMeters>
          </Trackpoint>
          <Trackpoint>
            <Time>2021-08-03T05:13:38.000Z</Time>
            <Position>
              <LatitudeDegrees>-15.35347041673958301544189453125</LatitudeDegrees>
              <LongitudeDegrees>37.07223747856914997100830078125</LongitudeDegrees>
            </Position>
            <AltitudeMeters>1945</AltitudeMeters>
            <DistanceMeters>NAN</DistanceMeters>
          </Trackpoint>
          <Trackpoint>
            <Time>2021-08-03T05:13:40.000Z</Time>
            <Position>
              <LatitudeDegrees>-15.35347494296729564666748046875</LatitudeDegrees>
              <LongitudeDegrees>37.07222272641956806182861328125</LongitudeDegrees>
            </Position>
            <AltitudeMeters>1945.800048828125</AltitudeMeters>
            <DistanceMeters>NAN</DistanceMeters>
          </Trackpoint>
          <Trackpoint>
            <Time>2021-08-03T05:13:42.000Z</Time>
            <Position>
              <LatitudeDegrees>-15.35347611643373966217041015625</LatitudeDegrees>
              <LongitudeDegrees>37.0722140930593013763427734375</LongitudeDegrees>
            </Position>
            <AltitudeMeters>1946.199951171875</AltitudeMeters>
            <DistanceMeters>NAN</DistanceMeters>
          </Trackpoint>
          <Trackpoint>
            <Time>2021-08-03T05:13:48.000Z</Time>
            <Position>
              <LatitudeDegrees>-15.353481732308864593505859375</LatitudeDegrees>
              <LongitudeDegrees>37.0721718482673168182373046875</LongitudeDegrees>
            </Position>
            <AltitudeMeters>1947.4000244140625</AltitudeMeters>
            <DistanceMeters>NAN</DistanceMeters>
          </Trackpoint>
          <Trackpoint>
            <Time>2021-08-03T05:13:53.000Z</Time>
            <Position>
              <LatitudeDegrees>-15.35349187441170215606689453125</LatitudeDegrees>
              <LongitudeDegrees>37.07215416245162487030029296875</LongitudeDegrees>
            </Position>
            <AltitudeMeters>1948.4000244140625</AltitudeMeters>
            <DistanceMeters>NAN</DistanceMeters>
          </Trackpoint>
          <Trackpoint>
            <Time>2021-08-03T05:13:54.000Z</Time>
            <Position>
              <LatitudeDegrees>-15.35349371843039989471435546875</LatitudeDegrees>
              <LongitudeDegrees>37.07214930094778537750244140625</LongitudeDegrees>
            </Position>
            <AltitudeMeters>1948.5999755859375</AltitudeMeters>
            <DistanceMeters>NAN</DistanceMeters>
          </Trackpoint>
          <Trackpoint>
            <Time>2021-08-03T05:14:00.000Z</Time>
            <Position>
              <LatitudeDegrees>-15.3535114042460918426513671875</LatitudeDegrees>
              <LongitudeDegrees>37.07211879082024097442626953125</LongitudeDegrees>
            </Position>
            <AltitudeMeters>1950</AltitudeMeters>
            <DistanceMeters>NAN</DistanceMeters>
          </Trackpoint>
          <Trackpoint>
            <Time>2021-08-03T05:14:04.000Z</Time>
            <Position>
              <LatitudeDegrees>-15.35351551137864589691162109375</LatitudeDegrees>
              <LongitudeDegrees>37.0721031166613101959228515625</LongitudeDegrees>
            </Position>
            <AltitudeMeters>1950.800048828125</AltitudeMeters>
            <DistanceMeters>NAN</DistanceMeters>
          </Trackpoint>
          <Trackpoint>
            <Time>2021-08-03T05:14:05.000Z</Time>
            <Position>
              <LatitudeDegrees>-15.35351802594959735870361328125</LatitudeDegrees>
              <LongitudeDegrees>37.072101272642612457275390625</LongitudeDegrees>
            </Position>
            <AltitudeMeters>1951</AltitudeMeters>
            <DistanceMeters>NAN</DistanceMeters>
          </Trackpoint>
          <Trackpoint>
            <Time>2021-08-03T05:14:10.000Z</Time>
            <Position>
              <LatitudeDegrees>-15.35352339036762714385986328125</LatitudeDegrees>
              <LongitudeDegrees>37.07207017578184604644775390625</LongitudeDegrees>
            </Position>
            <AltitudeMeters>1952.4000244140625</AltitudeMeters>
            <DistanceMeters>NAN</DistanceMeters>
          </Trackpoint>
          <Trackpoint>
            <Time>2021-08-03T05:14:13.000Z</Time>
            <Position>
              <LatitudeDegrees>-15.35353512503206729888916015625</LatitudeDegrees>
              <LongitudeDegrees>37.07204989157617092132568359375</LongitudeDegrees>
            </Position>
            <AltitudeMeters>1953</AltitudeMeters>
            <DistanceMeters>NAN</DistanceMeters>
          </Trackpoint>
          <Trackpoint>
            <Time>2021-08-03T05:14:16.000Z</Time>
            <Position>
              <LatitudeDegrees>-15.35354501567780971527099609375</LatitudeDegrees>
              <LongitudeDegrees>37.07203547470271587371826171875</LongitudeDegrees>
            </Position>
            <AltitudeMeters>1953.5999755859375</AltitudeMeters>
            <DistanceMeters>NAN</DistanceMeters>
          </Trackpoint>
          <Trackpoint>
            <Time>2021-08-03T05:14:21.000Z</Time>
            <Position>
              <LatitudeDegrees>-15.353544093668460845947265625</LatitudeDegrees>
              <LongitudeDegrees>37.0720015279948711395263671875</LongitudeDegrees>
            </Position>
            <AltitudeMeters>1954.800048828125</AltitudeMeters>
            <DistanceMeters>NAN</DistanceMeters>
          </Trackpoint>
          <Trackpoint>
            <Time>2021-08-03T05:14:26.000Z</Time>
            <Position>
              <LatitudeDegrees>-15.35356395877897739410400390625</LatitudeDegrees>
              <LongitudeDegrees>37.0719938166439533233642578125</LongitudeDegrees>
            </Position>
            <AltitudeMeters>1955.800048828125</AltitudeMeters>
            <DistanceMeters>NAN</DistanceMeters>
          </Trackpoint>
          <Trackpoint>
            <Time>2021-08-03T05:14:27.000Z</Time>
            <Position>
              <LatitudeDegrees>-15.35356320440769195556640625</LatitudeDegrees>
              <LongitudeDegrees>37.07198895514011383056640625</LongitudeDegrees>
            </Position>
            <AltitudeMeters>1955.800048828125</AltitudeMeters>
            <DistanceMeters>NAN</DistanceMeters>
          </Trackpoint>
          <Trackpoint>
            <Time>2021-08-03T05:14:32.000Z</Time>
            <Position>
              <LatitudeDegrees>-15.35355960018932819366455078125</LatitudeDegrees>
              <LongitudeDegrees>37.07195584662258625030517578125</LongitudeDegrees>
            </Position>
            <AltitudeMeters>1956.800048828125</AltitudeMeters>
            <DistanceMeters>NAN</DistanceMeters>
          </Trackpoint>
          <Trackpoint>
            <Time>2021-08-03T05:14:37.000Z</Time>
            <Position>
              <LatitudeDegrees>-15.3535704128444194793701171875</LatitudeDegrees>
              <LongitudeDegrees>37.07193673588335514068603515625</LongitudeDegrees>
            </Position>
            <AltitudeMeters>1957.4000244140625</AltitudeMeters>
            <DistanceMeters>NAN</DistanceMeters>
          </Trackpoint>
          <Trackpoint>
            <Time>2021-08-03T05:14:42.000Z</Time>
            <Position>
              <LatitudeDegrees>-15.3535811416804790496826171875</LatitudeDegrees>
              <LongitudeDegrees>37.07190672867000102996826171875</LongitudeDegrees>
            </Position>
            <AltitudeMeters>1958.5999755859375</AltitudeMeters>
            <DistanceMeters>NAN</DistanceMeters>
          </Trackpoint>
          <Trackpoint>
            <Time>2021-08-03T05:14:44.000Z</Time>
            <Position>
              <LatitudeDegrees>-15.35358726046979427337646484375</LatitudeDegrees>
              <LongitudeDegrees>37.071900106966495513916015625</LongitudeDegrees>
            </Position>
            <AltitudeMeters>1959.4000244140625</AltitudeMeters>
            <DistanceMeters>NAN</DistanceMeters>
          </Trackpoint>
          <Trackpoint>
            <Time>2021-08-03T05:14:46.000Z</Time>
            <Position>
              <LatitudeDegrees>-15.35359161905944347381591796875</LatitudeDegrees>
              <LongitudeDegrees>37.071884013712406158447265625</LongitudeDegrees>
            </Position>
            <AltitudeMeters>1960.199951171875</AltitudeMeters>
            <DistanceMeters>NAN</DistanceMeters>
          </Trackpoint>
          <Trackpoint>
            <Time>2021-08-03T05:14:52.000Z</Time>
            <Position>
              <LatitudeDegrees>-15.3536126576364040374755859375</LatitudeDegrees>
              <LongitudeDegrees>37.0718530006706714630126953125</LongitudeDegrees>
            </Position>
            <AltitudeMeters>1961.199951171875</AltitudeMeters>
            <DistanceMeters>NAN</DistanceMeters>
          </Trackpoint>
          <Trackpoint>
            <Time>2021-08-03T05:14:56.000Z</Time>
            <Position>
              <LatitudeDegrees>-15.35362782888114452362060546875</LatitudeDegrees>
              <LongitudeDegrees>37.07185861654579639434814453125</LongitudeDegrees>
            </Position>
            <AltitudeMeters>1962.4000244140625</AltitudeMeters>
            <DistanceMeters>NAN</DistanceMeters>
          </Trackpoint>
          <Trackpoint>
            <Time>2021-08-03T05:15:00.000Z</Time>
            <Position>
              <LatitudeDegrees>-15.35362849943339824676513671875</LatitudeDegrees>
              <LongitudeDegrees>37.07184956409037113189697265625</LongitudeDegrees>
            </Position>
            <AltitudeMeters>1963.4000244140625</AltitudeMeters>
            <DistanceMeters>NAN</DistanceMeters>
          </Trackpoint>
          <Trackpoint>
            <Time>2021-08-03T05:15:01.000Z</Time>
            <Position>
              <LatitudeDegrees>-15.353623889386653900146484375</LatitudeDegrees>
              <LongitudeDegrees>37.07184009253978729248046875</LongitudeDegrees>
            </Position>
            <AltitudeMeters>1963.4000244140625</AltitudeMeters>
            <DistanceMeters>NAN</DistanceMeters>
          </Trackpoint>
          <Trackpoint>
            <Time>2021-08-03T05:15:07.000Z</Time>
            <Position>
              <LatitudeDegrees>-15.35363084636628627777099609375</LatitudeDegrees>
              <LongitudeDegrees>37.07180321216583251953125</LongitudeDegrees>
            </Position>
            <AltitudeMeters>1964.4000244140625</AltitudeMeters>
            <DistanceMeters>NAN</DistanceMeters>
          </Trackpoint>
          <Trackpoint>
            <Time>2021-08-03T05:15:08.000Z</Time>
            <Position>
              <LatitudeDegrees>-15.35363428294658660888671875</LatitudeDegrees>
              <LongitudeDegrees>37.0718013681471347808837890625</LongitudeDegrees>
            </Position>
            <AltitudeMeters>1964.4000244140625</AltitudeMeters>
            <DistanceMeters>NAN</DistanceMeters>
          </Trackpoint>
          <Trackpoint>
            <Time>2021-08-03T05:15:13.000Z</Time>
            <Position>
              <LatitudeDegrees>-15.35365683026611804962158203125</LatitudeDegrees>
              <LongitudeDegrees>37.071794830262660980224609375</LongitudeDegrees>
            </Position>
            <AltitudeMeters>1965.800048828125</AltitudeMeters>
            <DistanceMeters>NAN</DistanceMeters>
          </Trackpoint>
          <Trackpoint>
            <Time>2021-08-03T05:15:16.000Z</Time>
            <Position>
              <LatitudeDegrees>-15.35366646945476531982421875</LatitudeDegrees>
              <LongitudeDegrees>37.07178737036883831024169921875</LongitudeDegrees>
            </Position>
            <AltitudeMeters>1966.4000244140625</AltitudeMeters>
            <DistanceMeters>NAN</DistanceMeters>
          </Trackpoint>
          <Trackpoint>
            <Time>2021-08-03T05:15:18.000Z</Time>
            <Position>
              <LatitudeDegrees>-15.3536716662347316741943359375</LatitudeDegrees>
              <LongitudeDegrees>37.07178183831274509429931640625</LongitudeDegrees>
            </Position>
            <AltitudeMeters>1967</AltitudeMeters>
            <DistanceMeters>NAN</DistanceMeters>
          </Trackpoint>
          <Trackpoint>
            <Time>2021-08-03T05:15:23.000Z</Time>
            <Position>
              <LatitudeDegrees>-15.3536679781973361968994140625</LatitudeDegrees>
              <LongitudeDegrees>37.0717487297952175140380859375</LongitudeDegrees>
            </Position>
            <AltitudeMeters>1967.4000244140625</AltitudeMeters>
            <DistanceMeters>NAN</DistanceMeters>
          </Trackpoint>
          <Trackpoint>
            <Time>2021-08-03T05:15:25.000Z</Time>
            <Position>
              <LatitudeDegrees>-15.35366822965443134307861328125</LatitudeDegrees>
              <LongitudeDegrees>37.071732468903064727783203125</LongitudeDegrees>
            </Position>
            <AltitudeMeters>1968.199951171875</AltitudeMeters>
            <DistanceMeters>NAN</DistanceMeters>
          </Trackpoint>
          <Trackpoint>
            <Time>2021-08-03T05:15:27.000Z</Time>
            <Position>
              <LatitudeDegrees>-15.35367124713957309722900390625</LatitudeDegrees>
              <LongitudeDegrees>37.07172232680022716522216796875</LongitudeDegrees>
            </Position>
            <AltitudeMeters>1968.4000244140625</AltitudeMeters>
            <DistanceMeters>NAN</DistanceMeters>
          </Trackpoint>
          <Trackpoint>
            <Time>2021-08-03T05:15:32.000Z</Time>
            <Position>
              <LatitudeDegrees>-15.35370402038097381591796875</LatitudeDegrees>
              <LongitudeDegrees>37.07170388661324977874755859375</LongitudeDegrees>
            </Position>
            <AltitudeMeters>1969.199951171875</AltitudeMeters>
            <DistanceMeters>NAN</DistanceMeters>
          </Trackpoint>
          <Trackpoint>
            <Time>2021-08-03T05:15:35.000Z</Time>
            <Position>
              <LatitudeDegrees>-15.35372681915760040283203125</LatitudeDegrees>
              <LongitudeDegrees>37.07170673646032810211181640625</LongitudeDegrees>
            </Position>
            <AltitudeMeters>1970.4000244140625</AltitudeMeters>
            <DistanceMeters>NAN</DistanceMeters>
          </Trackpoint>
          <Trackpoint>
            <Time>2021-08-03T05:15:43.000Z</Time>
            <Position>
              <LatitudeDegrees>-15.35375523380935192108154296875</LatitudeDegrees>
              <LongitudeDegrees>37.0716892182826995849609375</LongitudeDegrees>
            </Position>
            <AltitudeMeters>1971.199951171875</AltitudeMeters>
            <DistanceMeters>NAN</DistanceMeters>
          </Trackpoint>
          <Trackpoint>
            <Time>2021-08-03T05:15:44.000Z</Time>
            <Position>
              <LatitudeDegrees>-15.3537531383335590362548828125</LatitudeDegrees>
              <LongitudeDegrees>37.07168092019855976104736328125</LongitudeDegrees>
            </Position>
            <AltitudeMeters>1971.800048828125</AltitudeMeters>
            <DistanceMeters>NAN</DistanceMeters>
          </Trackpoint>
          <Trackpoint>
            <Time>2021-08-03T05:15:49.000Z</Time>
            <Position>
              <LatitudeDegrees>-15.35376110114157199859619140625</LatitudeDegrees>
              <LongitudeDegrees>37.0716531760990619659423828125</LongitudeDegrees>
            </Position>
            <AltitudeMeters>1973</AltitudeMeters>
            <DistanceMeters>NAN</DistanceMeters>
          </Trackpoint>
          <Trackpoint>
            <Time>2021-08-03T05:15:54.000Z</Time>
            <Position>
              <LatitudeDegrees>-15.3537665493786334991455078125</LatitudeDegrees>
              <LongitudeDegrees>37.0716293714940547943115234375</LongitudeDegrees>
            </Position>
            <AltitudeMeters>1973.5999755859375</AltitudeMeters>
            <DistanceMeters>NAN</DistanceMeters>
          </Trackpoint>
          <Trackpoint>
            <Time>2021-08-03T05:15:55.000Z</Time>
            <Position>
              <LatitudeDegrees>-15.353772081434726715087890625</LatitudeDegrees>
              <LongitudeDegrees>37.0716260187327861785888671875</LongitudeDegrees>
            </Position>
            <AltitudeMeters>1974</AltitudeMeters>
            <DistanceMeters>NAN</DistanceMeters>
          </Trackpoint>
          <Trackpoint>
            <Time>2021-08-03T05:16:02.000Z</Time>
            <Position>
              <LatitudeDegrees>-15.35379831679165363311767578125</LatitudeDegrees>
              <LongitudeDegrees>37.07159911282360553741455078125</LongitudeDegrees>
            </Position>
            <AltitudeMeters>1975.199951171875</AltitudeMeters>
            <DistanceMeters>NAN</DistanceMeters>
          </Trackpoint>
          <Trackpoint>
            <Time>2021-08-03T05:16:03.000Z</Time>
            <Position>
              <LatitudeDegrees>-15.3537970595061779022216796875</LatitudeDegrees>
              <LongitudeDegrees>37.07159332931041717529296875</LongitudeDegrees>
            </Position>
            <AltitudeMeters>1975.4000244140625</AltitudeMeters>
            <DistanceMeters>NAN</DistanceMeters>
          </Trackpoint>
          <Trackpoint>
            <Time>2021-08-03T05:16:06.000Z</Time>
            <Position>
              <LatitudeDegrees>-15.35379496403038501739501953125</LatitudeDegrees>
              <LongitudeDegrees>37.07156759686768054962158203125</LongitudeDegrees>
            </Position>
            <AltitudeMeters>1976.199951171875</AltitudeMeters>
            <DistanceMeters>NAN</DistanceMeters>
          </Trackpoint>
          <Trackpoint>
            <Time>2021-08-03T05:16:13.000Z</Time>
            <Position>
              <LatitudeDegrees>-15.35380787216126918792724609375</LatitudeDegrees>
              <LongitudeDegrees>37.0715368352830410003662109375</LongitudeDegrees>
            </Position>
            <AltitudeMeters>1977.199951171875</AltitudeMeters>
            <DistanceMeters>NAN</DistanceMeters>
          </Trackpoint>
          <Trackpoint>
            <Time>2021-08-03T05:16:21.000Z</Time>
            <Position>
              <LatitudeDegrees>-15.35384039394557476043701171875</LatitudeDegrees>
              <LongitudeDegrees>37.07150640897452831268310546875</LongitudeDegrees>
            </Position>
            <AltitudeMeters>1978.5999755859375</AltitudeMeters>
            <DistanceMeters>NAN</DistanceMeters>
          </Trackpoint>
          <Trackpoint>
            <Time>2021-08-03T05:16:26.000Z</Time>
            <Position>
              <LatitudeDegrees>-15.353849194943904876708984375</LatitudeDegrees>
              <LongitudeDegrees>37.0714872144162654876708984375</LongitudeDegrees>
            </Position>
            <AltitudeMeters>1979.800048828125</AltitudeMeters>
            <DistanceMeters>NAN</DistanceMeters>
          </Trackpoint>
          <Trackpoint>
            <Time>2021-08-03T05:16:29.000Z</Time>
            <Position>
              <LatitudeDegrees>-15.35386419855058193206787109375</LatitudeDegrees>
              <LongitudeDegrees>37.0714761503040790557861328125</LongitudeDegrees>
            </Position>
            <AltitudeMeters>1979.800048828125</AltitudeMeters>
            <DistanceMeters>NAN</DistanceMeters>
          </Trackpoint>
          <Trackpoint>
            <Time>2021-08-03T05:16:32.000Z</Time>
            <Position>
              <LatitudeDegrees>-15.3538815490901470184326171875</LatitudeDegrees>
              <LongitudeDegrees>37.071473300457000732421875</LongitudeDegrees>
            </Position>
            <AltitudeMeters>1981</AltitudeMeters>
            <DistanceMeters>NAN</DistanceMeters>
          </Trackpoint>
          <Trackpoint>
            <Time>2021-08-03T05:16:37.000Z</Time>
            <Position>
              <LatitudeDegrees>-15.35388733260333538055419921875</LatitudeDegrees>
              <LongitudeDegrees>37.07144773565232753753662109375</LongitudeDegrees>
            </Position>
            <AltitudeMeters>1981.5999755859375</AltitudeMeters>
            <DistanceMeters>NAN</DistanceMeters>
          </Trackpoint>
          <Trackpoint>
            <Time>2021-08-03T05:16:39.000Z</Time>
            <Position>
              <LatitudeDegrees>-15.35388582386076450347900390625</LatitudeDegrees>
              <LongitudeDegrees>37.07143683917820453643798828125</LongitudeDegrees>
            </Position>
            <AltitudeMeters>1982.199951171875</AltitudeMeters>
            <DistanceMeters>NAN</DistanceMeters>
          </Trackpoint>
          <Trackpoint>
            <Time>2021-08-03T05:16:46.000Z</Time>
            <Position>
              <LatitudeDegrees>-15.35390116274356842041015625</LatitudeDegrees>
              <LongitudeDegrees>37.07139727659523487091064453125</LongitudeDegrees>
            </Position>
            <AltitudeMeters>1983.4000244140625</AltitudeMeters>
            <DistanceMeters>NAN</DistanceMeters>
          </Trackpoint>
          <Trackpoint>
            <Time>2021-08-03T05:16:47.000Z</Time>
            <Position>
              <LatitudeDegrees>-15.35390376113355159759521484375</LatitudeDegrees>
              <LongitudeDegrees>37.0713923312723636627197265625</LongitudeDegrees>
            </Position>
            <AltitudeMeters>1983.5999755859375</AltitudeMeters>
            <DistanceMeters>NAN</DistanceMeters>
          </Trackpoint>
          <Trackpoint>
            <Time>2021-08-03T05:16:51.000Z</Time>
            <Position>
              <LatitudeDegrees>-15.3539217822253704071044921875</LatitudeDegrees>
              <LongitudeDegrees>37.071383781731128692626953125</LongitudeDegrees>
            </Position>
            <AltitudeMeters>1984.5999755859375</AltitudeMeters>
            <DistanceMeters>NAN</DistanceMeters>
          </Trackpoint>
          <Trackpoint>
            <Time>2021-08-03T05:16:56.000Z</Time>
            <Position>
              <LatitudeDegrees>-15.35392932593822479248046875</LatitudeDegrees>
              <LongitudeDegrees>37.07135654054582118988037109375</LongitudeDegrees>
            </Position>
            <AltitudeMeters>1985.5999755859375</AltitudeMeters>
            <DistanceMeters>NAN</DistanceMeters>
          </Trackpoint>
          <Trackpoint>
            <Time>2021-08-03T05:16:57.000Z</Time>
            <Position>
              <LatitudeDegrees>-15.35392756573855876922607421875</LatitudeDegrees>
              <LongitudeDegrees>37.07134966738522052764892578125</LongitudeDegrees>
            </Position>
            <AltitudeMeters>1985.800048828125</AltitudeMeters>
            <DistanceMeters>NAN</DistanceMeters>
          </Trackpoint>
          <Trackpoint>
            <Time>2021-08-03T05:17:04.000Z</Time>
            <Position>
              <LatitudeDegrees>-15.3539321757853031158447265625</LatitudeDegrees>
              <LongitudeDegrees>37.07130608148872852325439453125</LongitudeDegrees>
            </Position>
            <AltitudeMeters>1987</AltitudeMeters>
            <DistanceMeters>NAN</DistanceMeters>
          </Trackpoint>
          <Trackpoint>
            <Time>2021-08-03T05:17:07.000Z</Time>
            <Position>
              <LatitudeDegrees>-15.3539331816136837005615234375</LatitudeDegrees>
              <LongitudeDegrees>37.07129283808171749114990234375</LongitudeDegrees>
            </Position>
            <AltitudeMeters>1987.5999755859375</AltitudeMeters>
            <DistanceMeters>NAN</DistanceMeters>
          </Trackpoint>
          <Trackpoint>
            <Time>2021-08-03T05:17:11.000Z</Time>
            <Position>
              <LatitudeDegrees>-15.35393125377595424652099609375</LatitudeDegrees>
              <LongitudeDegrees>37.0712672732770442962646484375</LongitudeDegrees>
            </Position>
            <AltitudeMeters>1988.199951171875</AltitudeMeters>
            <DistanceMeters>NAN</DistanceMeters>
          </Trackpoint>
          <Trackpoint>
            <Time>2021-08-03T05:17:15.000Z</Time>
            <Position>
              <LatitudeDegrees>-15.35393293015658855438232421875</LatitudeDegrees>
              <LongitudeDegrees>37.0712434686720371246337890625</LongitudeDegrees>
            </Position>
            <AltitudeMeters>1989.4000244140625</AltitudeMeters>
            <DistanceMeters>NAN</DistanceMeters>
          </Trackpoint>
          <Trackpoint>
            <Time>2021-08-03T05:17:22.000Z</Time>
            <Position>
              <LatitudeDegrees>-15.35393862985074520111083984375</LatitudeDegrees>
              <LongitudeDegrees>37.07120968960225582122802734375</LongitudeDegrees>
            </Position>
            <AltitudeMeters>1990.5999755859375</AltitudeMeters>
            <DistanceMeters>NAN</DistanceMeters>
          </Trackpoint>
          <Trackpoint>
            <Time>2021-08-03T05:17:24.000Z</Time>
            <Position>
              <LatitudeDegrees>-15.3539392165839672088623046875</LatitudeDegrees>
              <LongitudeDegrees>37.07119795493781566619873046875</LongitudeDegrees>
            </Position>
            <AltitudeMeters>1990.800048828125</AltitudeMeters>
            <DistanceMeters>NAN</DistanceMeters>
          </Trackpoint>
          <Trackpoint>
            <Time>2021-08-03T05:17:30.000Z</Time>
            <Position>
              <LatitudeDegrees>-15.3539449162781238555908203125</LatitudeDegrees>
              <LongitudeDegrees>37.071163170039653778076171875</LongitudeDegrees>
            </Position>
            <AltitudeMeters>1991.5999755859375</AltitudeMeters>
            <DistanceMeters>NAN</DistanceMeters>
          </Trackpoint>
          <Trackpoint>
            <Time>2021-08-03T05:17:35.000Z</Time>
            <Position>
              <LatitudeDegrees>-15.3539546392858028411865234375</LatitudeDegrees>
              <LongitudeDegrees>37.0711247809231281280517578125</LongitudeDegrees>
            </Position>
            <AltitudeMeters>1992.5999755859375</AltitudeMeters>
            <DistanceMeters>NAN</DistanceMeters>
          </Trackpoint>
          <Trackpoint>
            <Time>2021-08-03T05:17:42.000Z</Time>
            <Position>
              <LatitudeDegrees>-15.35399344749748706817626953125</LatitudeDegrees>
              <LongitudeDegrees>37.071114890277385711669921875</LongitudeDegrees>
            </Position>
            <AltitudeMeters>1993.800048828125</AltitudeMeters>
            <DistanceMeters>NAN</DistanceMeters>
          </Trackpoint>
          <Trackpoint>
            <Time>2021-08-03T05:17:49.000Z</Time>
            <Position>
              <LatitudeDegrees>-15.3539903461933135986328125</LatitudeDegrees>
              <LongitudeDegrees>37.07107205875217914581298828125</LongitudeDegrees>
            </Position>
            <AltitudeMeters>1995</AltitudeMeters>
            <DistanceMeters>NAN</DistanceMeters>
          </Trackpoint>
          <Trackpoint>
            <Time>2021-08-03T05:17:56.000Z</Time>
            <Position>
              <LatitudeDegrees>-15.35400065593421459197998046875</LatitudeDegrees>
              <LongitudeDegrees>37.07101305015385150909423828125</LongitudeDegrees>
            </Position>
            <AltitudeMeters>1996.199951171875</AltitudeMeters>
            <DistanceMeters>NAN</DistanceMeters>
          </Trackpoint>
          <Trackpoint>
            <Time>2021-08-03T05:17:57.000Z</Time>
            <Position>
              <LatitudeDegrees>-15.35400400869548320770263671875</LatitudeDegrees>
              <LongitudeDegrees>37.07100751809775829315185546875</LongitudeDegrees>
            </Position>
            <AltitudeMeters>1996.4000244140625</AltitudeMeters>
            <DistanceMeters>NAN</DistanceMeters>
          </Trackpoint>
          <Trackpoint>
            <Time>2021-08-03T05:18:04.000Z</Time>
            <Position>
              <LatitudeDegrees>-15.35402378998696804046630859375</LatitudeDegrees>
              <LongitudeDegrees>37.0709601603448390960693359375</LongitudeDegrees>
            </Position>
            <AltitudeMeters>1997.4000244140625</AltitudeMeters>
            <DistanceMeters>NAN</DistanceMeters>
          </Trackpoint>
          <Trackpoint>
            <Time>2021-08-03T05:18:05.000Z</Time>
            <Position>
              <LatitudeDegrees>-15.3540280647575855255126953125</LatitudeDegrees>
              <LongitudeDegrees>37.07095555029809474945068359375</LongitudeDegrees>
            </Position>
            <AltitudeMeters>1997.5999755859375</AltitudeMeters>
            <DistanceMeters>NAN</DistanceMeters>
          </Trackpoint>
          <Trackpoint>
            <Time>2021-08-03T05:18:09.000Z</Time>
            <Position>
              <LatitudeDegrees>-15.35404776223003864288330078125</LatitudeDegrees>
              <LongitudeDegrees>37.0709373615682125091552734375</LongitudeDegrees>
            </Position>
            <AltitudeMeters>1999</AltitudeMeters>
            <DistanceMeters>NAN</DistanceMeters>
          </Trackpoint>
          <Trackpoint>
            <Time>2021-08-03T05:18:14.000Z</Time>
            <Position>
              <LatitudeDegrees>-15.3540639393031597137451171875</LatitudeDegrees>
              <LongitudeDegrees>37.070907689630985260009765625</LongitudeDegrees>
            </Position>
            <AltitudeMeters>2000</AltitudeMeters>
            <DistanceMeters>NAN</DistanceMeters>
          </Trackpoint>
          <Trackpoint>
            <Time>2021-08-03T05:18:17.000Z</Time>
            <Position>
              <LatitudeDegrees>-15.35407575778663158416748046875</LatitudeDegrees>
              <LongitudeDegrees>37.07088933326303958892822265625</LongitudeDegrees>
            </Position>
            <AltitudeMeters>2000.5999755859375</AltitudeMeters>
            <DistanceMeters>NAN</DistanceMeters>
          </Trackpoint>
          <Trackpoint>
            <Time>2021-08-03T05:18:21.000Z</Time>
            <Position>
              <LatitudeDegrees>-15.35410257987678050994873046875</LatitudeDegrees>
              <LongitudeDegrees>37.07087583839893341064453125</LongitudeDegrees>
            </Position>
            <AltitudeMeters>2001.4000244140625</AltitudeMeters>
            <DistanceMeters>NAN</DistanceMeters>
          </Trackpoint>
          <Trackpoint>
            <Time>2021-08-03T05:18:25.000Z</Time>
            <Position>
              <LatitudeDegrees>-15.3541209362447261810302734375</LatitudeDegrees>
              <LongitudeDegrees>37.07085949368774890899658203125</LongitudeDegrees>
            </Position>
            <AltitudeMeters>2002</AltitudeMeters>
            <DistanceMeters>NAN</DistanceMeters>
          </Trackpoint>
          <Trackpoint>
            <Time>2021-08-03T05:18:28.000Z</Time>
            <Position>
              <LatitudeDegrees>-15.35414063371717929840087890625</LatitudeDegrees>
              <LongitudeDegrees>37.07084809429943561553955078125</LongitudeDegrees>
            </Position>
            <AltitudeMeters>2002.5999755859375</AltitudeMeters>
            <DistanceMeters>NAN</DistanceMeters>
          </Trackpoint>
          <Trackpoint>
            <Time>2021-08-03T05:18:33.000Z</Time>
            <Position>
              <LatitudeDegrees>-15.35416443832218647003173828125</LatitudeDegrees>
              <LongitudeDegrees>37.07081590779125690460205078125</LongitudeDegrees>
            </Position>
            <AltitudeMeters>2003.199951171875</AltitudeMeters>
            <DistanceMeters>NAN</DistanceMeters>
          </Trackpoint>
          <Trackpoint>
            <Time>2021-08-03T05:18:36.000Z</Time>
            <Position>
              <LatitudeDegrees>-15.3541812859475612640380859375</LatitudeDegrees>
              <LongitudeDegrees>37.07079780288040637969970703125</LongitudeDegrees>
            </Position>
            <AltitudeMeters>2004.199951171875</AltitudeMeters>
            <DistanceMeters>NAN</DistanceMeters>
          </Trackpoint>
          <Trackpoint>
            <Time>2021-08-03T05:18:44.000Z</Time>
            <Position>
              <LatitudeDegrees>-15.3542386181652545928955078125</LatitudeDegrees>
              <LongitudeDegrees>37.070781290531158447265625</LongitudeDegrees>
            </Position>
            <AltitudeMeters>2005.4000244140625</AltitudeMeters>
            <DistanceMeters>NAN</DistanceMeters>
          </Trackpoint>
          <Trackpoint>
            <Time>2021-08-03T05:18:46.000Z</Time>
            <Position>
              <LatitudeDegrees>-15.35425077192485332489013671875</LatitudeDegrees>
              <LongitudeDegrees>37.07077391445636749267578125</LongitudeDegrees>
            </Position>
            <AltitudeMeters>2005.5999755859375</AltitudeMeters>
            <DistanceMeters>NAN</DistanceMeters>
          </Trackpoint>
          <Trackpoint>
            <Time>2021-08-03T05:18:54.000Z</Time>
            <Position>
              <LatitudeDegrees>-15.3542741574347019195556640625</LatitudeDegrees>
              <LongitudeDegrees>37.07074013538658618927001953125</LongitudeDegrees>
            </Position>
            <AltitudeMeters>2006.199951171875</AltitudeMeters>
            <DistanceMeters>NAN</DistanceMeters>
          </Trackpoint>
          <Trackpoint>
            <Time>2021-08-03T05:18:59.000Z</Time>
            <Position>
              <LatitudeDegrees>-15.35427893511950969696044921875</LatitudeDegrees>
              <LongitudeDegrees>37.07074063830077648162841796875</LongitudeDegrees>
            </Position>
            <AltitudeMeters>2006.4000244140625</AltitudeMeters>
            <DistanceMeters>NAN</DistanceMeters>
          </Trackpoint>
          <Trackpoint>
            <Time>2021-08-03T05:19:03.000Z</Time>
            <Position>
              <LatitudeDegrees>-15.35428010858595371246337890625</LatitudeDegrees>
              <LongitudeDegrees>37.07074038684368133544921875</LongitudeDegrees>
            </Position>
            <AltitudeMeters>2006.5999755859375</AltitudeMeters>
            <DistanceMeters>NAN</DistanceMeters>
          </Trackpoint>
          <Trackpoint>
            <Time>2021-08-03T05:19:28.000Z</Time>
            <Position>
              <LatitudeDegrees>-15.35427935421466827392578125</LatitudeDegrees>
              <LongitudeDegrees>37.07074063830077648162841796875</LongitudeDegrees>
            </Position>
            <AltitudeMeters>2007.4000244140625</AltitudeMeters>
            <DistanceMeters>NAN</DistanceMeters>
          </Trackpoint>
          <Trackpoint>
            <Time>2021-08-03T05:19:41.000Z</Time>
            <Position>
              <LatitudeDegrees>-15.3542827069759368896484375</LatitudeDegrees>
              <LongitudeDegrees>37.070742733776569366455078125</LongitudeDegrees>
            </Position>
            <AltitudeMeters>2007.4000244140625</AltitudeMeters>
            <DistanceMeters>NAN</DistanceMeters>
          </Trackpoint>
          <Trackpoint>
            <Time>2021-08-03T05:19:43.000Z</Time>
            <Position>
              <LatitudeDegrees>-15.35428279079496860504150390625</LatitudeDegrees>
              <LongitudeDegrees>37.070742733776569366455078125</LongitudeDegrees>
            </Position>
            <AltitudeMeters>2007.4000244140625</AltitudeMeters>
            <DistanceMeters>NAN</DistanceMeters>
          </Trackpoint>
          <Trackpoint>
            <Time>2021-08-03T05:19:45.000Z</Time>
            <Position>
              <LatitudeDegrees>-15.35428362898528575897216796875</LatitudeDegrees>
              <LongitudeDegrees>37.070742733776569366455078125</LongitudeDegrees>
            </Position>
            <AltitudeMeters>2007.4000244140625</AltitudeMeters>
            <DistanceMeters>NAN</DistanceMeters>
          </Trackpoint>
          <Trackpoint>
            <Time>2021-08-03T05:20:16.000Z</Time>
            <Position>
              <LatitudeDegrees>-15.35427801311016082763671875</LatitudeDegrees>
              <LongitudeDegrees>37.0707423985004425048828125</LongitudeDegrees>
            </Position>
            <AltitudeMeters>2007.199951171875</AltitudeMeters>
            <DistanceMeters>NAN</DistanceMeters>
          </Trackpoint>
          <Trackpoint>
            <Time>2021-08-03T05:20:19.000Z</Time>
            <Position>
              <LatitudeDegrees>-15.35427692346274852752685546875</LatitudeDegrees>
              <LongitudeDegrees>37.0707418955862522125244140625</LongitudeDegrees>
            </Position>
            <AltitudeMeters>2006.199951171875</AltitudeMeters>
            <DistanceMeters>NAN</DistanceMeters>
          </Trackpoint>
          <Trackpoint>
            <Time>2021-08-03T05:20:23.000Z</Time>
            <Position>
              <LatitudeDegrees>-15.3542768396437168121337890625</LatitudeDegrees>
              <LongitudeDegrees>37.0707415603101253509521484375</LongitudeDegrees>
            </Position>
            <AltitudeMeters>2006.199951171875</AltitudeMeters>
            <DistanceMeters>NAN</DistanceMeters>
          </Trackpoint>
          <Trackpoint>
            <Time>2021-08-03T05:20:26.000Z</Time>
            <Position>
              <LatitudeDegrees>-15.3542768396437168121337890625</LatitudeDegrees>
              <LongitudeDegrees>37.07074164412915706634521484375</LongitudeDegrees>
            </Position>
            <AltitudeMeters>2006.5999755859375</AltitudeMeters>
            <DistanceMeters>NAN</DistanceMeters>
          </Trackpoint>
          <Trackpoint>
            <Time>2021-08-03T05:20:30.000Z</Time>
            <Position>
              <LatitudeDegrees>-15.3542768396437168121337890625</LatitudeDegrees>
              <LongitudeDegrees>37.07074130885303020477294921875</LongitudeDegrees>
            </Position>
            <AltitudeMeters>2006.5999755859375</AltitudeMeters>
            <DistanceMeters>NAN</DistanceMeters>
          </Trackpoint>
          <Trackpoint>
            <Time>2021-08-03T05:20:38.000Z</Time>
            <Position>
              <LatitudeDegrees>-15.35427843220531940460205078125</LatitudeDegrees>
              <LongitudeDegrees>37.07074105739593505859375</LongitudeDegrees>
            </Position>
            <AltitudeMeters>2006.800048828125</AltitudeMeters>
            <DistanceMeters>NAN</DistanceMeters>
          </Trackpoint>
          <Trackpoint>
            <Time>2021-08-03T05:20:41.000Z</Time>
            <Position>
              <LatitudeDegrees>-15.35427935421466827392578125</LatitudeDegrees>
              <LongitudeDegrees>37.070741392672061920166015625</LongitudeDegrees>
            </Position>
            <AltitudeMeters>2007.5999755859375</AltitudeMeters>
            <DistanceMeters>NAN</DistanceMeters>
          </Trackpoint>
          <Trackpoint>
            <Time>2021-08-03T05:20:47.000Z</Time>
            <Position>
              <LatitudeDegrees>-15.35428161732852458953857421875</LatitudeDegrees>
              <LongitudeDegrees>37.07074264995753765106201171875</LongitudeDegrees>
            </Position>
            <AltitudeMeters>2007.4000244140625</AltitudeMeters>
            <DistanceMeters>NAN</DistanceMeters>
          </Trackpoint>
          <Trackpoint>
            <Time>2021-08-03T05:20:51.000Z</Time>
            <Position>
              <LatitudeDegrees>-15.35427005030214786529541015625</LatitudeDegrees>
              <LongitudeDegrees>37.0707331784069538116455078125</LongitudeDegrees>
            </Position>
            <AltitudeMeters>2007.199951171875</AltitudeMeters>
            <DistanceMeters>NAN</DistanceMeters>
          </Trackpoint>
          <Trackpoint>
            <Time>2021-08-03T05:20:53.000Z</Time>
            <Position>
              <LatitudeDegrees>-15.35424850881099700927734375</LatitudeDegrees>
              <LongitudeDegrees>37.07072001881897449493408203125</LongitudeDegrees>
            </Position>
            <AltitudeMeters>2007.5999755859375</AltitudeMeters>
            <DistanceMeters>NAN</DistanceMeters>
          </Trackpoint>
          <Trackpoint>
            <Time>2021-08-03T05:21:00.000Z</Time>
            <Position>
              <LatitudeDegrees>-15.35423107445240020751953125</LatitudeDegrees>
              <LongitudeDegrees>37.07070685923099517822265625</LongitudeDegrees>
            </Position>
            <AltitudeMeters>2008.4000244140625</AltitudeMeters>
            <DistanceMeters>NAN</DistanceMeters>
          </Trackpoint>
          <Trackpoint>
            <Time>2021-08-03T05:21:06.000Z</Time>
            <Position>
              <LatitudeDegrees>-15.354231409728527069091796875</LatitudeDegrees>
              <LongitudeDegrees>37.07069168798625469207763671875</LongitudeDegrees>
            </Position>
            <AltitudeMeters>2008.199951171875</AltitudeMeters>
            <DistanceMeters>NAN</DistanceMeters>
          </Trackpoint>
          <Trackpoint>
            <Time>2021-08-03T05:21:10.000Z</Time>
            <Position>
              <LatitudeDegrees>-15.3542349301278591156005859375</LatitudeDegrees>
              <LongitudeDegrees>37.0706919394433498382568359375</LongitudeDegrees>
            </Position>
            <AltitudeMeters>2007</AltitudeMeters>
            <DistanceMeters>NAN</DistanceMeters>
          </Trackpoint>
          <Trackpoint>
            <Time>2021-08-03T05:21:17.000Z</Time>
            <Position>
              <LatitudeDegrees>-15.354268960654735565185546875</LatitudeDegrees>
              <LongitudeDegrees>37.07071012817323207855224609375</LongitudeDegrees>
            </Position>
            <AltitudeMeters>2006.199951171875</AltitudeMeters>
            <DistanceMeters>NAN</DistanceMeters>
          </Trackpoint>
          <Trackpoint>
            <Time>2021-08-03T05:21:26.000Z</Time>
            <Position>
              <LatitudeDegrees>-15.3542832098901271820068359375</LatitudeDegrees>
              <LongitudeDegrees>37.07073041237890720367431640625</LongitudeDegrees>
            </Position>
            <AltitudeMeters>2006.5999755859375</AltitudeMeters>
            <DistanceMeters>NAN</DistanceMeters>
          </Trackpoint>
          <Trackpoint>
            <Time>2021-08-03T05:21:57.000Z</Time>
            <Position>
              <LatitudeDegrees>-15.35427893511950969696044921875</LatitudeDegrees>
              <LongitudeDegrees>37.07073410041630268096923828125</LongitudeDegrees>
            </Position>
            <AltitudeMeters>2006.5999755859375</AltitudeMeters>
            <DistanceMeters>NAN</DistanceMeters>
          </Trackpoint>
          <Trackpoint>
            <Time>2021-08-03T05:22:04.000Z</Time>
            <Position>
              <LatitudeDegrees>-15.35427893511950969696044921875</LatitudeDegrees>
              <LongitudeDegrees>37.07073426805436611175537109375</LongitudeDegrees>
            </Position>
            <AltitudeMeters>2006.5999755859375</AltitudeMeters>
            <DistanceMeters>NAN</DistanceMeters>
          </Trackpoint>
          <Trackpoint>
            <Time>2021-08-03T05:22:07.000Z</Time>
            <Position>
              <LatitudeDegrees>-15.35427960567176342010498046875</LatitudeDegrees>
              <LongitudeDegrees>37.0707368664443492889404296875</LongitudeDegrees>
            </Position>
            <AltitudeMeters>2006.5999755859375</AltitudeMeters>
            <DistanceMeters>NAN</DistanceMeters>
          </Trackpoint>
          <Trackpoint>
            <Time>2021-08-03T05:22:10.000Z</Time>
            <Position>
              <LatitudeDegrees>-15.35427977330982685089111328125</LatitudeDegrees>
              <LongitudeDegrees>37.07074097357690334320068359375</LongitudeDegrees>
            </Position>
            <AltitudeMeters>2006.5999755859375</AltitudeMeters>
            <DistanceMeters>NAN</DistanceMeters>
          </Trackpoint>
          <Trackpoint>
            <Time>2021-08-03T05:22:15.000Z</Time>
            <Position>
              <LatitudeDegrees>-15.3542798571288585662841796875</LatitudeDegrees>
              <LongitudeDegrees>37.0707442425191402435302734375</LongitudeDegrees>
            </Position>
            <AltitudeMeters>2006.5999755859375</AltitudeMeters>
            <DistanceMeters>NAN</DistanceMeters>
          </Trackpoint>
          <Trackpoint>
            <Time>2021-08-03T05:22:23.000Z</Time>
            <Position>
              <LatitudeDegrees>-15.35427910275757312774658203125</LatitudeDegrees>
              <LongitudeDegrees>37.070746086537837982177734375</LongitudeDegrees>
            </Position>
            <AltitudeMeters>2006.5999755859375</AltitudeMeters>
            <DistanceMeters>NAN</DistanceMeters>
          </Trackpoint>
          <Trackpoint>
            <Time>2021-08-03T05:22:30.000Z</Time>
            <Position>
              <LatitudeDegrees>-15.3542704693973064422607421875</LatitudeDegrees>
              <LongitudeDegrees>37.07067777402698993682861328125</LongitudeDegrees>
            </Position>
            <AltitudeMeters>2006.5999755859375</AltitudeMeters>
            <DistanceMeters>NAN</DistanceMeters>
          </Trackpoint>
          <Trackpoint>
            <Time>2021-08-03T05:22:33.000Z</Time>
            <Position>
              <LatitudeDegrees>-15.35425781272351741790771484375</LatitudeDegrees>
              <LongitudeDegrees>37.07063804380595684051513671875</LongitudeDegrees>
            </Position>
            <AltitudeMeters>2006.5999755859375</AltitudeMeters>
            <DistanceMeters>NAN</DistanceMeters>
          </Trackpoint>
          <Trackpoint>
            <Time>2021-08-03T05:22:37.000Z</Time>
            <Position>
              <LatitudeDegrees>-15.35425429232418537139892578125</LatitudeDegrees>
              <LongitudeDegrees>37.07059093751013278961181640625</LongitudeDegrees>
            </Position>
            <AltitudeMeters>2006.800048828125</AltitudeMeters>
            <DistanceMeters>NAN</DistanceMeters>
          </Trackpoint>
          <Trackpoint>
            <Time>2021-08-03T05:22:39.000Z</Time>
            <Position>
              <LatitudeDegrees>-15.35425311885774135589599609375</LatitudeDegrees>
              <LongitudeDegrees>37.07057149149477481842041015625</LongitudeDegrees>
            </Position>
            <AltitudeMeters>2007</AltitudeMeters>
            <DistanceMeters>NAN</DistanceMeters>
          </Trackpoint>
          <Trackpoint>
            <Time>2021-08-03T05:22:41.000Z</Time>
            <Position>
              <LatitudeDegrees>-15.35425144247710704803466796875</LatitudeDegrees>
              <LongitudeDegrees>37.07055707462131977081298828125</LongitudeDegrees>
            </Position>
            <AltitudeMeters>2007.4000244140625</AltitudeMeters>
            <DistanceMeters>NAN</DistanceMeters>
          </Trackpoint>
          <Trackpoint>
            <Time>2021-08-03T05:22:45.000Z</Time>
            <Position>
              <LatitudeDegrees>-15.3542580641806125640869140625</LatitudeDegrees>
              <LongitudeDegrees>37.07052254118025302886962890625</LongitudeDegrees>
            </Position>
            <AltitudeMeters>2008.4000244140625</AltitudeMeters>
            <DistanceMeters>NAN</DistanceMeters>
          </Trackpoint>
          <Trackpoint>
            <Time>2021-08-03T05:22:48.000Z</Time>
            <Position>
              <LatitudeDegrees>-15.354267619550228118896484375</LatitudeDegrees>
              <LongitudeDegrees>37.0704983174800872802734375</LongitudeDegrees>
            </Position>
            <AltitudeMeters>2009.800048828125</AltitudeMeters>
            <DistanceMeters>NAN</DistanceMeters>
          </Trackpoint>
          <Trackpoint>
            <Time>2021-08-03T05:22:51.000Z</Time>
            <Position>
              <LatitudeDegrees>-15.3542738221585750579833984375</LatitudeDegrees>
              <LongitudeDegrees>37.07047660835087299346923828125</LongitudeDegrees>
            </Position>
            <AltitudeMeters>2010.800048828125</AltitudeMeters>
            <DistanceMeters>NAN</DistanceMeters>
          </Trackpoint>
          <Trackpoint>
            <Time>2021-08-03T05:22:57.000Z</Time>
            <Position>
              <LatitudeDegrees>-15.354273319244384765625</LatitudeDegrees>
              <LongitudeDegrees>37.07043536938726902008056640625</LongitudeDegrees>
            </Position>
            <AltitudeMeters>2012.199951171875</AltitudeMeters>
            <DistanceMeters>NAN</DistanceMeters>
          </Trackpoint>
          <Trackpoint>
            <Time>2021-08-03T05:23:00.000Z</Time>
            <Position>
              <LatitudeDegrees>-15.35426569171249866485595703125</LatitudeDegrees>
              <LongitudeDegrees>37.0704113133251667022705078125</LongitudeDegrees>
            </Position>
            <AltitudeMeters>2012.800048828125</AltitudeMeters>
            <DistanceMeters>NAN</DistanceMeters>
          </Trackpoint>
          <Trackpoint>
            <Time>2021-08-03T05:23:04.000Z</Time>
            <Position>
              <LatitudeDegrees>-15.35425948910415172576904296875</LatitudeDegrees>
              <LongitudeDegrees>37.07037753425538539886474609375</LongitudeDegrees>
            </Position>
            <AltitudeMeters>2013.199951171875</AltitudeMeters>
            <DistanceMeters>NAN</DistanceMeters>
          </Trackpoint>
          <Trackpoint>
            <Time>2021-08-03T05:23:08.000Z</Time>
            <Position>
              <LatitudeDegrees>-15.35425211302936077117919921875</LatitudeDegrees>
              <LongitudeDegrees>37.07034802995622158050537109375</LongitudeDegrees>
            </Position>
            <AltitudeMeters>2014</AltitudeMeters>
            <DistanceMeters>NAN</DistanceMeters>
          </Trackpoint>
          <Trackpoint>
            <Time>2021-08-03T05:23:09.000Z</Time>
            <Position>
              <LatitudeDegrees>-15.3542466647922992706298828125</LatitudeDegrees>
              <LongitudeDegrees>37.0703409053385257720947265625</LongitudeDegrees>
            </Position>
            <AltitudeMeters>2014.199951171875</AltitudeMeters>
            <DistanceMeters>NAN</DistanceMeters>
          </Trackpoint>
          <Trackpoint>
            <Time>2021-08-03T05:23:10.000Z</Time>
            <Position>
              <LatitudeDegrees>-15.35424121655523777008056640625</LatitudeDegrees>
              <LongitudeDegrees>37.070336379110813140869140625</LongitudeDegrees>
            </Position>
            <AltitudeMeters>2014.199951171875</AltitudeMeters>
            <DistanceMeters>NAN</DistanceMeters>
          </Trackpoint>
          <Trackpoint>
            <Time>2021-08-03T05:23:13.000Z</Time>
            <Position>
              <LatitudeDegrees>-15.354233421385288238525390625</LatitudeDegrees>
              <LongitudeDegrees>37.070318274199962615966796875</LongitudeDegrees>
            </Position>
            <AltitudeMeters>2014.5999755859375</AltitudeMeters>
            <DistanceMeters>NAN</DistanceMeters>
          </Trackpoint>
          <Trackpoint>
            <Time>2021-08-03T05:23:16.000Z</Time>
            <Position>
              <LatitudeDegrees>-15.35423266701400279998779296875</LatitudeDegrees>
              <LongitudeDegrees>37.070298157632350921630859375</LongitudeDegrees>
            </Position>
            <AltitudeMeters>2015.4000244140625</AltitudeMeters>
            <DistanceMeters>NAN</DistanceMeters>
          </Trackpoint>
          <Trackpoint>
            <Time>2021-08-03T05:23:19.000Z</Time>
            <Position>
              <LatitudeDegrees>-15.35423501394689083099365234375</LatitudeDegrees>
              <LongitudeDegrees>37.07028281874954700469970703125</LongitudeDegrees>
            </Position>
            <AltitudeMeters>2015.800048828125</AltitudeMeters>
            <DistanceMeters>NAN</DistanceMeters>
          </Trackpoint>
          <Trackpoint>
            <Time>2021-08-03T05:23:24.000Z</Time>
            <Position>
              <LatitudeDegrees>-15.35423618741333484649658203125</LatitudeDegrees>
              <LongitudeDegrees>37.07025985233485698699951171875</LongitudeDegrees>
            </Position>
            <AltitudeMeters>2017</AltitudeMeters>
            <DistanceMeters>NAN</DistanceMeters>
          </Trackpoint>
          <Trackpoint>
            <Time>2021-08-03T05:23:27.000Z</Time>
            <Position>
              <LatitudeDegrees>-15.35424171946942806243896484375</LatitudeDegrees>
              <LongitudeDegrees>37.07024929113686084747314453125</LongitudeDegrees>
            </Position>
            <AltitudeMeters>2017.4000244140625</AltitudeMeters>
            <DistanceMeters>NAN</DistanceMeters>
          </Trackpoint>
          <Trackpoint>
            <Time>2021-08-03T05:23:31.000Z</Time>
            <Position>
              <LatitudeDegrees>-15.3542272187769412994384765625</LatitudeDegrees>
              <LongitudeDegrees>37.07022984512150287628173828125</LongitudeDegrees>
            </Position>
            <AltitudeMeters>2018.4000244140625</AltitudeMeters>
            <DistanceMeters>NAN</DistanceMeters>
          </Trackpoint>
          <Trackpoint>
            <Time>2021-08-03T05:23:35.000Z</Time>
            <Position>
              <LatitudeDegrees>-15.3542211838066577911376953125</LatitudeDegrees>
              <LongitudeDegrees>37.07020620815455913543701171875</LongitudeDegrees>
            </Position>
            <AltitudeMeters>2019.4000244140625</AltitudeMeters>
            <DistanceMeters>NAN</DistanceMeters>
          </Trackpoint>
          <Trackpoint>
            <Time>2021-08-03T05:23:41.000Z</Time>
            <Position>
              <LatitudeDegrees>-15.35425362177193164825439453125</LatitudeDegrees>
              <LongitudeDegrees>37.07017980515956878662109375</LongitudeDegrees>
            </Position>
            <AltitudeMeters>2020.4000244140625</AltitudeMeters>
            <DistanceMeters>NAN</DistanceMeters>
          </Trackpoint>
          <Trackpoint>
            <Time>2021-08-03T05:23:42.000Z</Time>
            <Position>
              <LatitudeDegrees>-15.3542532026767730712890625</LatitudeDegrees>
              <LongitudeDegrees>37.0701729319989681243896484375</LongitudeDegrees>
            </Position>
            <AltitudeMeters>2020.800048828125</AltitudeMeters>
            <DistanceMeters>NAN</DistanceMeters>
          </Trackpoint>
          <Trackpoint>
            <Time>2021-08-03T05:23:46.000Z</Time>
            <Position>
              <LatitudeDegrees>-15.3542627580463886260986328125</LatitudeDegrees>
              <LongitudeDegrees>37.07015424035489559173583984375</LongitudeDegrees>
            </Position>
            <AltitudeMeters>2021.5999755859375</AltitudeMeters>
            <DistanceMeters>NAN</DistanceMeters>
          </Trackpoint>
          <Trackpoint>
            <Time>2021-08-03T05:23:49.000Z</Time>
            <Position>
              <LatitudeDegrees>-15.35427122376859188079833984375</LatitudeDegrees>
              <LongitudeDegrees>37.07013345323503017425537109375</LongitudeDegrees>
            </Position>
            <AltitudeMeters>2022.4000244140625</AltitudeMeters>
            <DistanceMeters>NAN</DistanceMeters>
          </Trackpoint>
          <Trackpoint>
            <Time>2021-08-03T05:23:50.000Z</Time>
            <Position>
              <LatitudeDegrees>-15.35427264869213104248046875</LatitudeDegrees>
              <LongitudeDegrees>37.0701243169605731964111328125</LongitudeDegrees>
            </Position>
            <AltitudeMeters>2022.800048828125</AltitudeMeters>
            <DistanceMeters>NAN</DistanceMeters>
          </Trackpoint>
          <Trackpoint>
            <Time>2021-08-03T05:23:51.000Z</Time>
            <Position>
              <LatitudeDegrees>-15.3542746603488922119140625</LatitudeDegrees>
              <LongitudeDegrees>37.07012121565639972686767578125</LongitudeDegrees>
            </Position>
            <AltitudeMeters>2022.800048828125</AltitudeMeters>
            <DistanceMeters>NAN</DistanceMeters>
          </Trackpoint>
          <Trackpoint>
            <Time>2021-08-03T05:23:55.000Z</Time>
            <Position>
              <LatitudeDegrees>-15.35429201088845729827880859375</LatitudeDegrees>
              <LongitudeDegrees>37.07011182792484760284423828125</LongitudeDegrees>
            </Position>
            <AltitudeMeters>2024</AltitudeMeters>
            <DistanceMeters>NAN</DistanceMeters>
          </Trackpoint>
          <Trackpoint>
            <Time>2021-08-03T05:24:00.000Z</Time>
            <Position>
              <LatitudeDegrees>-15.3542800247669219970703125</LatitudeDegrees>
              <LongitudeDegrees>37.07008349709212779998779296875</LongitudeDegrees>
            </Position>
            <AltitudeMeters>2024.800048828125</AltitudeMeters>
            <DistanceMeters>NAN</DistanceMeters>
          </Trackpoint>
          <Trackpoint>
            <Time>2021-08-03T05:24:02.000Z</Time>
            <Position>
              <LatitudeDegrees>-15.35427591763436794281005859375</LatitudeDegrees>
              <LongitudeDegrees>37.07007343880832195281982421875</LongitudeDegrees>
            </Position>
            <AltitudeMeters>2025.4000244140625</AltitudeMeters>
            <DistanceMeters>NAN</DistanceMeters>
          </Trackpoint>
          <Trackpoint>
            <Time>2021-08-03T05:24:04.000Z</Time>
            <Position>
              <LatitudeDegrees>-15.3542788513004779815673828125</LatitudeDegrees>
              <LongitudeDegrees>37.0700639672577381134033203125</LongitudeDegrees>
            </Position>
            <AltitudeMeters>2025.800048828125</AltitudeMeters>
            <DistanceMeters>NAN</DistanceMeters>
          </Trackpoint>
          <Trackpoint>
            <Time>2021-08-03T05:24:06.000Z</Time>
            <Position>
              <LatitudeDegrees>-15.35427927039563655853271484375</LatitudeDegrees>
              <LongitudeDegrees>37.07005382515490055084228515625</LongitudeDegrees>
            </Position>
            <AltitudeMeters>2026</AltitudeMeters>
            <DistanceMeters>NAN</DistanceMeters>
          </Trackpoint>
          <Trackpoint>
            <Time>2021-08-03T05:24:07.000Z</Time>
            <Position>
              <LatitudeDegrees>-15.3542798571288585662841796875</LatitudeDegrees>
              <LongitudeDegrees>37.07004745490849018096923828125</LongitudeDegrees>
            </Position>
            <AltitudeMeters>2026.800048828125</AltitudeMeters>
            <DistanceMeters>NAN</DistanceMeters>
          </Trackpoint>
          <Trackpoint>
            <Time>2021-08-03T05:24:09.000Z</Time>
            <Position>
              <LatitudeDegrees>-15.35427943803369998931884765625</LatitudeDegrees>
              <LongitudeDegrees>37.07003295421600341796875</LongitudeDegrees>
            </Position>
            <AltitudeMeters>2026.800048828125</AltitudeMeters>
            <DistanceMeters>NAN</DistanceMeters>
          </Trackpoint>
          <Trackpoint>
            <Time>2021-08-03T05:24:10.000Z</Time>
            <Position>
              <LatitudeDegrees>-15.354280360043048858642578125</LatitudeDegrees>
              <LongitudeDegrees>37.07002398557960987091064453125</LongitudeDegrees>
            </Position>
            <AltitudeMeters>2027</AltitudeMeters>
            <DistanceMeters>NAN</DistanceMeters>
          </Trackpoint>
          <Trackpoint>
            <Time>2021-08-03T05:24:12.000Z</Time>
            <Position>
              <LatitudeDegrees>-15.35428262315690517425537109375</LatitudeDegrees>
              <LongitudeDegrees>37.07000755704939365386962890625</LongitudeDegrees>
            </Position>
            <AltitudeMeters>2027.5999755859375</AltitudeMeters>
            <DistanceMeters>NAN</DistanceMeters>
          </Trackpoint>
          <Trackpoint>
            <Time>2021-08-03T05:24:13.000Z</Time>
            <Position>
              <LatitudeDegrees>-15.3542865626513957977294921875</LatitudeDegrees>
              <LongitudeDegrees>37.07000185735523700714111328125</LongitudeDegrees>
            </Position>
            <AltitudeMeters>2027.800048828125</AltitudeMeters>
            <DistanceMeters>NAN</DistanceMeters>
          </Trackpoint>
          <Trackpoint>
            <Time>2021-08-03T05:24:15.000Z</Time>
            <Position>
              <LatitudeDegrees>-15.35429544746875762939453125</LatitudeDegrees>
              <LongitudeDegrees>37.06999967806041240692138671875</LongitudeDegrees>
            </Position>
            <AltitudeMeters>2028.4000244140625</AltitudeMeters>
            <DistanceMeters>NAN</DistanceMeters>
          </Trackpoint>
          <Trackpoint>
            <Time>2021-08-03T05:24:18.000Z</Time>
            <Position>
              <LatitudeDegrees>-15.354308187961578369140625</LatitudeDegrees>
              <LongitudeDegrees>37.0699962414801120758056640625</LongitudeDegrees>
            </Position>
            <AltitudeMeters>2029</AltitudeMeters>
            <DistanceMeters>NAN</DistanceMeters>
          </Trackpoint>
          <Trackpoint>
            <Time>2021-08-03T05:24:22.000Z</Time>
            <Position>
              <LatitudeDegrees>-15.35430743359029293060302734375</LatitudeDegrees>
              <LongitudeDegrees>37.06997604109346866607666015625</LongitudeDegrees>
            </Position>
            <AltitudeMeters>2030</AltitudeMeters>
            <DistanceMeters>NAN</DistanceMeters>
          </Trackpoint>
          <Trackpoint>
            <Time>2021-08-03T05:24:25.000Z</Time>
            <Position>
              <LatitudeDegrees>-15.354313217103481292724609375</LatitudeDegrees>
              <LongitudeDegrees>37.06995860673487186431884765625</LongitudeDegrees>
            </Position>
            <AltitudeMeters>2030.4000244140625</AltitudeMeters>
            <DistanceMeters>NAN</DistanceMeters>
          </Trackpoint>
          <Trackpoint>
            <Time>2021-08-03T05:24:27.000Z</Time>
            <Position>
              <LatitudeDegrees>-15.35431564785540103912353515625</LatitudeDegrees>
              <LongitudeDegrees>37.06994670443236827850341796875</LongitudeDegrees>
            </Position>
            <AltitudeMeters>2031.199951171875</AltitudeMeters>
            <DistanceMeters>NAN</DistanceMeters>
          </Trackpoint>
          <Trackpoint>
            <Time>2021-08-03T05:24:32.000Z</Time>
            <Position>
              <LatitudeDegrees>-15.354344733059406280517578125</LatitudeDegrees>
              <LongitudeDegrees>37.0699338801205158233642578125</LongitudeDegrees>
            </Position>
            <AltitudeMeters>2032.4000244140625</AltitudeMeters>
            <DistanceMeters>NAN</DistanceMeters>
          </Trackpoint>
          <Trackpoint>
            <Time>2021-08-03T05:24:35.000Z</Time>
            <Position>
              <LatitudeDegrees>-15.3543495945632457733154296875</LatitudeDegrees>
              <LongitudeDegrees>37.069926001131534576416015625</LongitudeDegrees>
            </Position>
            <AltitudeMeters>2033</AltitudeMeters>
            <DistanceMeters>NAN</DistanceMeters>
          </Trackpoint>
          <Trackpoint>
            <Time>2021-08-03T05:24:36.000Z</Time>
            <Position>
              <LatitudeDegrees>-15.35435118712484836578369140625</LatitudeDegrees>
              <LongitudeDegrees>37.06992239691317081451416015625</LongitudeDegrees>
            </Position>
            <AltitudeMeters>2033.4000244140625</AltitudeMeters>
            <DistanceMeters>NAN</DistanceMeters>
          </Trackpoint>
          <Trackpoint>
            <Time>2021-08-03T05:24:41.000Z</Time>
            <Position>
              <LatitudeDegrees>-15.354351438581943511962890625</LatitudeDegrees>
              <LongitudeDegrees>37.0698926411569118499755859375</LongitudeDegrees>
            </Position>
            <AltitudeMeters>2034.4000244140625</AltitudeMeters>
            <DistanceMeters>NAN</DistanceMeters>
          </Trackpoint>
          <Trackpoint>
            <Time>2021-08-03T05:24:46.000Z</Time>
            <Position>
              <LatitudeDegrees>-15.35436308942735195159912109375</LatitudeDegrees>
              <LongitudeDegrees>37.069866321980953216552734375</LongitudeDegrees>
            </Position>
            <AltitudeMeters>2036</AltitudeMeters>
            <DistanceMeters>NAN</DistanceMeters>
          </Trackpoint>
          <Trackpoint>
            <Time>2021-08-03T05:24:52.000Z</Time>
            <Position>
              <LatitudeDegrees>-15.354373566806316375732421875</LatitudeDegrees>
              <LongitudeDegrees>37.0698349736630916595458984375</LongitudeDegrees>
            </Position>
            <AltitudeMeters>2037.4000244140625</AltitudeMeters>
            <DistanceMeters>NAN</DistanceMeters>
          </Trackpoint>
          <Trackpoint>
            <Time>2021-08-03T05:24:55.000Z</Time>
            <Position>
              <LatitudeDegrees>-15.35437834449112415313720703125</LatitudeDegrees>
              <LongitudeDegrees>37.0698121748864650726318359375</LongitudeDegrees>
            </Position>
            <AltitudeMeters>2038.199951171875</AltitudeMeters>
            <DistanceMeters>NAN</DistanceMeters>
          </Trackpoint>
          <Trackpoint>
            <Time>2021-08-03T05:24:56.000Z</Time>
            <Position>
              <LatitudeDegrees>-15.35437993705272674560546875</LatitudeDegrees>
              <LongitudeDegrees>37.06980228424072265625</LongitudeDegrees>
            </Position>
            <AltitudeMeters>2038.5999755859375</AltitudeMeters>
            <DistanceMeters>NAN</DistanceMeters>
          </Trackpoint>
          <Trackpoint>
            <Time>2021-08-03T05:25:01.000Z</Time>
            <Position>
              <LatitudeDegrees>-15.35438722930848598480224609375</LatitudeDegrees>
              <LongitudeDegrees>37.069767415523529052734375</LongitudeDegrees>
            </Position>
            <AltitudeMeters>2039.5999755859375</AltitudeMeters>
            <DistanceMeters>NAN</DistanceMeters>
          </Trackpoint>
          <Trackpoint>
            <Time>2021-08-03T05:25:05.000Z</Time>
            <Position>
              <LatitudeDegrees>-15.3543898276984691619873046875</LatitudeDegrees>
              <LongitudeDegrees>37.06973682157695293426513671875</LongitudeDegrees>
            </Position>
            <AltitudeMeters>2040.5999755859375</AltitudeMeters>
            <DistanceMeters>NAN</DistanceMeters>
          </Trackpoint>
          <Trackpoint>
            <Time>2021-08-03T05:25:11.000Z</Time>
            <Position>
              <LatitudeDegrees>-15.35440248437225818634033203125</LatitudeDegrees>
              <LongitudeDegrees>37.06970513798296451568603515625</LongitudeDegrees>
            </Position>
            <AltitudeMeters>2041.800048828125</AltitudeMeters>
            <DistanceMeters>NAN</DistanceMeters>
          </Trackpoint>
          <Trackpoint>
            <Time>2021-08-03T05:25:14.000Z</Time>
            <Position>
              <LatitudeDegrees>-15.354413799941539764404296875</LatitudeDegrees>
              <LongitudeDegrees>37.06968854181468486785888671875</LongitudeDegrees>
            </Position>
            <AltitudeMeters>2042.199951171875</AltitudeMeters>
            <DistanceMeters>NAN</DistanceMeters>
          </Trackpoint>
          <Trackpoint>
            <Time>2021-08-03T05:25:16.000Z</Time>
            <Position>
              <LatitudeDegrees>-15.35441757179796695709228515625</LatitudeDegrees>
              <LongitudeDegrees>37.06968351267278194427490234375</LongitudeDegrees>
            </Position>
            <AltitudeMeters>2043</AltitudeMeters>
            <DistanceMeters>NAN</DistanceMeters>
          </Trackpoint>
          <Trackpoint>
            <Time>2021-08-03T05:25:21.000Z</Time>
            <Position>
              <LatitudeDegrees>-15.3544139675796031951904296875</LatitudeDegrees>
              <LongitudeDegrees>37.0696968398988246917724609375</LongitudeDegrees>
            </Position>
            <AltitudeMeters>2043.4000244140625</AltitudeMeters>
            <DistanceMeters>NAN</DistanceMeters>
          </Trackpoint>
          <Trackpoint>
            <Time>2021-08-03T05:25:28.000Z</Time>
            <Position>
              <LatitudeDegrees>-15.35442444495856761932373046875</LatitudeDegrees>
              <LongitudeDegrees>37.06967395730316638946533203125</LongitudeDegrees>
            </Position>
            <AltitudeMeters>2042.800048828125</AltitudeMeters>
            <DistanceMeters>NAN</DistanceMeters>
          </Trackpoint>
          <Trackpoint>
            <Time>2021-08-03T05:25:29.000Z</Time>
            <Position>
              <LatitudeDegrees>-15.3544320724904537200927734375</LatitudeDegrees>
              <LongitudeDegrees>37.0696683414280414581298828125</LongitudeDegrees>
            </Position>
            <AltitudeMeters>2043</AltitudeMeters>
            <DistanceMeters>NAN</DistanceMeters>
          </Trackpoint>
          <Trackpoint>
            <Time>2021-08-03T05:25:32.000Z</Time>
            <Position>
              <LatitudeDegrees>-15.354435928165912628173828125</LatitudeDegrees>
              <LongitudeDegrees>37.06965333782136440277099609375</LongitudeDegrees>
            </Position>
            <AltitudeMeters>2044</AltitudeMeters>
            <DistanceMeters>NAN</DistanceMeters>
          </Trackpoint>
          <Trackpoint>
            <Time>2021-08-03T05:25:35.000Z</Time>
            <Position>
              <LatitudeDegrees>-15.354441292583942413330078125</LatitudeDegrees>
              <LongitudeDegrees>37.06963934004306793212890625</LongitudeDegrees>
            </Position>
            <AltitudeMeters>2044.5999755859375</AltitudeMeters>
            <DistanceMeters>NAN</DistanceMeters>
          </Trackpoint>
          <Trackpoint>
            <Time>2021-08-03T05:25:36.000Z</Time>
            <Position>
              <LatitudeDegrees>-15.3544434718787670135498046875</LatitudeDegrees>
              <LongitudeDegrees>37.0696341432631015777587890625</LongitudeDegrees>
            </Position>
            <AltitudeMeters>2045.199951171875</AltitudeMeters>
            <DistanceMeters>NAN</DistanceMeters>
          </Trackpoint>
          <Trackpoint>
            <Time>2021-08-03T05:25:41.000Z</Time>
            <Position>
              <LatitudeDegrees>-15.35445914603769779205322265625</LatitudeDegrees>
              <LongitudeDegrees>37.0696123503148555755615234375</LongitudeDegrees>
            </Position>
            <AltitudeMeters>2046.800048828125</AltitudeMeters>
            <DistanceMeters>NAN</DistanceMeters>
          </Trackpoint>
          <Trackpoint>
            <Time>2021-08-03T05:25:44.000Z</Time>
            <Position>
              <LatitudeDegrees>-15.35446174442768096923828125</LatitudeDegrees>
              <LongitudeDegrees>37.06959131173789501190185546875</LongitudeDegrees>
            </Position>
            <AltitudeMeters>2047.5999755859375</AltitudeMeters>
            <DistanceMeters>NAN</DistanceMeters>
          </Trackpoint>
          <Trackpoint>
            <Time>2021-08-03T05:25:46.000Z</Time>
            <Position>
              <LatitudeDegrees>-15.35446107387542724609375</LatitudeDegrees>
              <LongitudeDegrees>37.06958192400634288787841796875</LongitudeDegrees>
            </Position>
            <AltitudeMeters>2048</AltitudeMeters>
            <DistanceMeters>NAN</DistanceMeters>
          </Trackpoint>
          <Trackpoint>
            <Time>2021-08-03T05:25:48.000Z</Time>
            <Position>
              <LatitudeDegrees>-15.35446844995021820068359375</LatitudeDegrees>
              <LongitudeDegrees>37.0695731230080127716064453125</LongitudeDegrees>
            </Position>
            <AltitudeMeters>2049</AltitudeMeters>
            <DistanceMeters>NAN</DistanceMeters>
          </Trackpoint>
          <Trackpoint>
            <Time>2021-08-03T05:25:53.000Z</Time>
            <Position>
              <LatitudeDegrees>-15.3544883988797664642333984375</LatitudeDegrees>
              <LongitudeDegrees>37.0695469714701175689697265625</LongitudeDegrees>
            </Position>
            <AltitudeMeters>2050</AltitudeMeters>
            <DistanceMeters>NAN</DistanceMeters>
          </Trackpoint>
          <Trackpoint>
            <Time>2021-08-03T05:25:58.000Z</Time>
            <Position>
              <LatitudeDegrees>-15.3545175679028034210205078125</LatitudeDegrees>
              <LongitudeDegrees>37.069520652294158935546875</LongitudeDegrees>
            </Position>
            <AltitudeMeters>2052</AltitudeMeters>
            <DistanceMeters>NAN</DistanceMeters>
          </Trackpoint>
          <Trackpoint>
            <Time>2021-08-03T05:26:00.000Z</Time>
            <Position>
              <LatitudeDegrees>-15.35452075302600860595703125</LatitudeDegrees>
              <LongitudeDegrees>37.06951118074357509613037109375</LongitudeDegrees>
            </Position>
            <AltitudeMeters>2052.199951171875</AltitudeMeters>
            <DistanceMeters>NAN</DistanceMeters>
          </Trackpoint>
          <Trackpoint>
            <Time>2021-08-03T05:26:04.000Z</Time>
            <Position>
              <LatitudeDegrees>-15.35453206859529018402099609375</LatitudeDegrees>
              <LongitudeDegrees>37.06949056126177310943603515625</LongitudeDegrees>
            </Position>
            <AltitudeMeters>2053.199951171875</AltitudeMeters>
            <DistanceMeters>NAN</DistanceMeters>
          </Trackpoint>
          <Trackpoint>
            <Time>2021-08-03T05:26:08.000Z</Time>
            <Position>
              <LatitudeDegrees>-15.35456274636089801788330078125</LatitudeDegrees>
              <LongitudeDegrees>37.06947279162704944610595703125</LongitudeDegrees>
            </Position>
            <AltitudeMeters>2054.39990234375</AltitudeMeters>
            <DistanceMeters>NAN</DistanceMeters>
          </Trackpoint>
          <Trackpoint>
            <Time>2021-08-03T05:26:09.000Z</Time>
            <Position>
              <LatitudeDegrees>-15.3545692004263401031494140625</LatitudeDegrees>
              <LongitudeDegrees>37.06947036087512969970703125</LongitudeDegrees>
            </Position>
            <AltitudeMeters>2054.39990234375</AltitudeMeters>
            <DistanceMeters>NAN</DistanceMeters>
          </Trackpoint>
          <Trackpoint>
            <Time>2021-08-03T05:26:12.000Z</Time>
            <Position>
              <LatitudeDegrees>-15.35457498393952846527099609375</LatitudeDegrees>
              <LongitudeDegrees>37.0694708637893199920654296875</LongitudeDegrees>
            </Position>
            <AltitudeMeters>2055.39990234375</AltitudeMeters>
            <DistanceMeters>NAN</DistanceMeters>
          </Trackpoint>
          <Trackpoint>
            <Time>2021-08-03T05:26:15.000Z</Time>
            <Position>
              <LatitudeDegrees>-15.35456894896924495697021484375</LatitudeDegrees>
              <LongitudeDegrees>37.06946340389549732208251953125</LongitudeDegrees>
            </Position>
            <AltitudeMeters>2055.39990234375</AltitudeMeters>
            <DistanceMeters>NAN</DistanceMeters>
          </Trackpoint>
          <Trackpoint>
            <Time>2021-08-03T05:26:20.000Z</Time>
            <Position>
              <LatitudeDegrees>-15.354574061930179595947265625</LatitudeDegrees>
              <LongitudeDegrees>37.0694302953779697418212890625</LongitudeDegrees>
            </Position>
            <AltitudeMeters>2056.39990234375</AltitudeMeters>
            <DistanceMeters>NAN</DistanceMeters>
          </Trackpoint>
          <Trackpoint>
            <Time>2021-08-03T05:26:24.000Z</Time>
            <Position>
              <LatitudeDegrees>-15.35458646714687347412109375</LatitudeDegrees>
              <LongitudeDegrees>37.0694031380116939544677734375</LongitudeDegrees>
            </Position>
            <AltitudeMeters>2057.800048828125</AltitudeMeters>
            <DistanceMeters>NAN</DistanceMeters>
          </Trackpoint>
          <Trackpoint>
            <Time>2021-08-03T05:26:28.000Z</Time>
            <Position>
              <LatitudeDegrees>-15.35458101890981197357177734375</LatitudeDegrees>
              <LongitudeDegrees>37.06938184797763824462890625</LongitudeDegrees>
            </Position>
            <AltitudeMeters>2059</AltitudeMeters>
            <DistanceMeters>NAN</DistanceMeters>
          </Trackpoint>
          <Trackpoint>
            <Time>2021-08-03T05:26:31.000Z</Time>
            <Position>
              <LatitudeDegrees>-15.3545759059488773345947265625</LatitudeDegrees>
              <LongitudeDegrees>37.06937287934124469757080078125</LongitudeDegrees>
            </Position>
            <AltitudeMeters>2059.800048828125</AltitudeMeters>
            <DistanceMeters>NAN</DistanceMeters>
          </Trackpoint>
          <Trackpoint>
            <Time>2021-08-03T05:26:35.000Z</Time>
            <Position>
              <LatitudeDegrees>-15.354590825736522674560546875</LatitudeDegrees>
              <LongitudeDegrees>37.06936282105743885040283203125</LongitudeDegrees>
            </Position>
            <AltitudeMeters>2060.60009765625</AltitudeMeters>
            <DistanceMeters>NAN</DistanceMeters>
          </Trackpoint>
          <Trackpoint>
            <Time>2021-08-03T05:26:37.000Z</Time>
            <Position>
              <LatitudeDegrees>-15.3545909933745861053466796875</LatitudeDegrees>
              <LongitudeDegrees>37.06935795955359935760498046875</LongitudeDegrees>
            </Position>
            <AltitudeMeters>2061.60009765625</AltitudeMeters>
            <DistanceMeters>NAN</DistanceMeters>
          </Trackpoint>
          <Trackpoint>
            <Time>2021-08-03T05:26:39.000Z</Time>
            <Position>
              <LatitudeDegrees>-15.3545884788036346435546875</LatitudeDegrees>
              <LongitudeDegrees>37.069356702268123626708984375</LongitudeDegrees>
            </Position>
            <AltitudeMeters>2061.800048828125</AltitudeMeters>
            <DistanceMeters>NAN</DistanceMeters>
          </Trackpoint>
          <Trackpoint>
            <Time>2021-08-03T05:26:41.000Z</Time>
            <Position>
              <LatitudeDegrees>-15.35459409467875957489013671875</LatitudeDegrees>
              <LongitudeDegrees>37.06935410387814044952392578125</LongitudeDegrees>
            </Position>
            <AltitudeMeters>2062.39990234375</AltitudeMeters>
            <DistanceMeters>NAN</DistanceMeters>
          </Trackpoint>
          <Trackpoint>
            <Time>2021-08-03T05:26:43.000Z</Time>
            <Position>
              <LatitudeDegrees>-15.35459795035421848297119140625</LatitudeDegrees>
              <LongitudeDegrees>37.069343626499176025390625</LongitudeDegrees>
            </Position>
            <AltitudeMeters>2062.60009765625</AltitudeMeters>
            <DistanceMeters>NAN</DistanceMeters>
          </Trackpoint>
          <Trackpoint>
            <Time>2021-08-03T05:26:44.000Z</Time>
            <Position>
              <LatitudeDegrees>-15.35460348241031169891357421875</LatitudeDegrees>
              <LongitudeDegrees>37.06933784298598766326904296875</LongitudeDegrees>
            </Position>
            <AltitudeMeters>2062.60009765625</AltitudeMeters>
            <DistanceMeters>NAN</DistanceMeters>
          </Trackpoint>
          <Trackpoint>
            <Time>2021-08-03T05:26:45.000Z</Time>
            <Position>
              <LatitudeDegrees>-15.3546141274273395538330078125</LatitudeDegrees>
              <LongitudeDegrees>37.0693387649953365325927734375</LongitudeDegrees>
            </Position>
            <AltitudeMeters>2063.199951171875</AltitudeMeters>
            <DistanceMeters>NAN</DistanceMeters>
          </Trackpoint>
          <Trackpoint>
            <Time>2021-08-03T05:26:47.000Z</Time>
            <Position>
              <LatitudeDegrees>-15.35464522428810596466064453125</LatitudeDegrees>
              <LongitudeDegrees>37.0693409442901611328125</LongitudeDegrees>
            </Position>
            <AltitudeMeters>2064</AltitudeMeters>
            <DistanceMeters>NAN</DistanceMeters>
          </Trackpoint>
          <Trackpoint>
            <Time>2021-08-03T05:26:49.000Z</Time>
            <Position>
              <LatitudeDegrees>-15.35465209744870662689208984375</LatitudeDegrees>
              <LongitudeDegrees>37.0693476498126983642578125</LongitudeDegrees>
            </Position>
            <AltitudeMeters>2064.60009765625</AltitudeMeters>
            <DistanceMeters>NAN</DistanceMeters>
          </Trackpoint>
          <Trackpoint>
            <Time>2021-08-03T05:26:51.000Z</Time>
            <Position>
              <LatitudeDegrees>-15.35466165281832218170166015625</LatitudeDegrees>
              <LongitudeDegrees>37.06934421323239803314208984375</LongitudeDegrees>
            </Position>
            <AltitudeMeters>2064.800048828125</AltitudeMeters>
            <DistanceMeters>NAN</DistanceMeters>
          </Trackpoint>
          <Trackpoint>
            <Time>2021-08-03T05:26:52.000Z</Time>
            <Position>
              <LatitudeDegrees>-15.35466902889311313629150390625</LatitudeDegrees>
              <LongitudeDegrees>37.0693458057940006256103515625</LongitudeDegrees>
            </Position>
            <AltitudeMeters>2065</AltitudeMeters>
            <DistanceMeters>NAN</DistanceMeters>
          </Trackpoint>
          <Trackpoint>
            <Time>2021-08-03T05:26:53.000Z</Time>
            <Position>
              <LatitudeDegrees>-15.3546741418540477752685546875</LatitudeDegrees>
              <LongitudeDegrees>37.0693464763462543487548828125</LongitudeDegrees>
            </Position>
            <AltitudeMeters>2066</AltitudeMeters>
            <DistanceMeters>NAN</DistanceMeters>
          </Trackpoint>
          <Trackpoint>
            <Time>2021-08-03T05:26:57.000Z</Time>
            <Position>
              <LatitudeDegrees>-15.35469434224069118499755859375</LatitudeDegrees>
              <LongitudeDegrees>37.069345302879810333251953125</LongitudeDegrees>
            </Position>
            <AltitudeMeters>2067.199951171875</AltitudeMeters>
            <DistanceMeters>NAN</DistanceMeters>
          </Trackpoint>
          <Trackpoint>
            <Time>2021-08-03T05:26:58.000Z</Time>
            <Position>
              <LatitudeDegrees>-15.35469249822199344635009765625</LatitudeDegrees>
              <LongitudeDegrees>37.06934018991887569427490234375</LongitudeDegrees>
            </Position>
            <AltitudeMeters>2067.199951171875</AltitudeMeters>
            <DistanceMeters>NAN</DistanceMeters>
          </Trackpoint>
          <Trackpoint>
            <Time>2021-08-03T05:27:00.000Z</Time>
            <Position>
              <LatitudeDegrees>-15.35469107329845428466796875</LatitudeDegrees>
              <LongitudeDegrees>37.06934220157563686370849609375</LongitudeDegrees>
            </Position>
            <AltitudeMeters>2067.39990234375</AltitudeMeters>
            <DistanceMeters>NAN</DistanceMeters>
          </Trackpoint>
          <Trackpoint>
            <Time>2021-08-03T05:27:03.000Z</Time>
            <Position>
              <LatitudeDegrees>-15.35470741800963878631591796875</LatitudeDegrees>
              <LongitudeDegrees>37.069350667297840118408203125</LongitudeDegrees>
            </Position>
            <AltitudeMeters>2068.199951171875</AltitudeMeters>
            <DistanceMeters>NAN</DistanceMeters>
          </Trackpoint>
          <Trackpoint>
            <Time>2021-08-03T05:27:04.000Z</Time>
            <Position>
              <LatitudeDegrees>-15.3547153808176517486572265625</LatitudeDegrees>
              <LongitudeDegrees>37.06934873946011066436767578125</LongitudeDegrees>
            </Position>
            <AltitudeMeters>2068.199951171875</AltitudeMeters>
            <DistanceMeters>NAN</DistanceMeters>
          </Trackpoint>
          <Trackpoint>
            <Time>2021-08-03T05:27:08.000Z</Time>
            <Position>
              <LatitudeDegrees>-15.354731976985931396484375</LatitudeDegrees>
              <LongitudeDegrees>37.06934656016528606414794921875</LongitudeDegrees>
            </Position>
            <AltitudeMeters>2068.800048828125</AltitudeMeters>
            <DistanceMeters>NAN</DistanceMeters>
          </Trackpoint>
          <Trackpoint>
            <Time>2021-08-03T05:27:14.000Z</Time>
            <Position>
              <LatitudeDegrees>-15.35473264753818511962890625</LatitudeDegrees>
              <LongitudeDegrees>37.06935234367847442626953125</LongitudeDegrees>
            </Position>
            <AltitudeMeters>2069.39990234375</AltitudeMeters>
            <DistanceMeters>NAN</DistanceMeters>
          </Trackpoint>
          <Trackpoint>
            <Time>2021-08-03T05:27:15.000Z</Time>
            <Position>
              <LatitudeDegrees>-15.354730971157550811767578125</LatitudeDegrees>
              <LongitudeDegrees>37.06935175694525241851806640625</LongitudeDegrees>
            </Position>
            <AltitudeMeters>2069.60009765625</AltitudeMeters>
            <DistanceMeters>NAN</DistanceMeters>
          </Trackpoint>
          <Trackpoint>
            <Time>2021-08-03T05:27:19.000Z</Time>
            <Position>
              <LatitudeDegrees>-15.35472921095788478851318359375</LatitudeDegrees>
              <LongitudeDegrees>37.069352008402347564697265625</LongitudeDegrees>
            </Position>
            <AltitudeMeters>2070.199951171875</AltitudeMeters>
            <DistanceMeters>NAN</DistanceMeters>
          </Trackpoint>
          <Trackpoint>
            <Time>2021-08-03T05:27:24.000Z</Time>
            <Position>
              <LatitudeDegrees>-15.35472921095788478851318359375</LatitudeDegrees>
              <LongitudeDegrees>37.069352008402347564697265625</LongitudeDegrees>
            </Position>
            <AltitudeMeters>2069.39990234375</AltitudeMeters>
            <DistanceMeters>NAN</DistanceMeters>
          </Trackpoint>
          <Trackpoint>
            <Time>2021-08-03T05:27:28.000Z</Time>
            <Position>
              <LatitudeDegrees>-15.3547308035194873809814453125</LatitudeDegrees>
              <LongitudeDegrees>37.069352008402347564697265625</LongitudeDegrees>
            </Position>
            <AltitudeMeters>2070.39990234375</AltitudeMeters>
            <DistanceMeters>NAN</DistanceMeters>
          </Trackpoint>
          <Trackpoint>
            <Time>2021-08-03T05:27:31.000Z</Time>
            <Position>
              <LatitudeDegrees>-15.354730971157550811767578125</LatitudeDegrees>
              <LongitudeDegrees>37.069352008402347564697265625</LongitudeDegrees>
            </Position>
            <AltitudeMeters>2070.60009765625</AltitudeMeters>
            <DistanceMeters>NAN</DistanceMeters>
          </Trackpoint>
          <Trackpoint>
            <Time>2021-08-03T05:27:39.000Z</Time>
            <Position>
              <LatitudeDegrees>-15.3547311387956142425537109375</LatitudeDegrees>
              <LongitudeDegrees>37.0693565346300601959228515625</LongitudeDegrees>
            </Position>
            <AltitudeMeters>2070.199951171875</AltitudeMeters>
            <DistanceMeters>NAN</DistanceMeters>
          </Trackpoint>
          <Trackpoint>
            <Time>2021-08-03T05:27:40.000Z</Time>
            <Position>
              <LatitudeDegrees>-15.3547311387956142425537109375</LatitudeDegrees>
              <LongitudeDegrees>37.069356702268123626708984375</LongitudeDegrees>
            </Position>
            <AltitudeMeters>2070.199951171875</AltitudeMeters>
            <DistanceMeters>NAN</DistanceMeters>
          </Trackpoint>
          <Trackpoint>
            <Time>2021-08-03T05:27:42.000Z</Time>
            <Position>
              <LatitudeDegrees>-15.3547311387956142425537109375</LatitudeDegrees>
              <LongitudeDegrees>37.069358713924884796142578125</LongitudeDegrees>
            </Position>
            <AltitudeMeters>2070.199951171875</AltitudeMeters>
            <DistanceMeters>NAN</DistanceMeters>
          </Trackpoint>
          <Trackpoint>
            <Time>2021-08-03T05:27:45.000Z</Time>
            <Position>
              <LatitudeDegrees>-15.35474798642098903656005859375</LatitudeDegrees>
              <LongitudeDegrees>37.06937237642705440521240234375</LongitudeDegrees>
            </Position>
            <AltitudeMeters>2071.199951171875</AltitudeMeters>
            <DistanceMeters>NAN</DistanceMeters>
          </Trackpoint>
          <Trackpoint>
            <Time>2021-08-03T05:27:48.000Z</Time>
            <Position>
              <LatitudeDegrees>-15.3547743894159793853759765625</LatitudeDegrees>
              <LongitudeDegrees>37.069391570985317230224609375</LongitudeDegrees>
            </Position>
            <AltitudeMeters>2071.39990234375</AltitudeMeters>
            <DistanceMeters>NAN</DistanceMeters>
          </Trackpoint>
          <Trackpoint>
            <Time>2021-08-03T05:27:51.000Z</Time>
            <Position>
              <LatitudeDegrees>-15.35478788428008556365966796875</LatitudeDegrees>
              <LongitudeDegrees>37.0693897269666194915771484375</LongitudeDegrees>
            </Position>
            <AltitudeMeters>2072</AltitudeMeters>
            <DistanceMeters>NAN</DistanceMeters>
          </Trackpoint>
          <Trackpoint>
            <Time>2021-08-03T05:27:57.000Z</Time>
            <Position>
              <LatitudeDegrees>-15.3547935001552104949951171875</LatitudeDegrees>
              <LongitudeDegrees>37.069390900433063507080078125</LongitudeDegrees>
            </Position>
            <AltitudeMeters>2072.199951171875</AltitudeMeters>
            <DistanceMeters>NAN</DistanceMeters>
          </Trackpoint>
          <Trackpoint>
            <Time>2021-08-03T05:27:58.000Z</Time>
            <Position>
              <LatitudeDegrees>-15.3547924943268299102783203125</LatitudeDegrees>
              <LongitudeDegrees>37.0693930797278881072998046875</LongitudeDegrees>
            </Position>
            <AltitudeMeters>2072.199951171875</AltitudeMeters>
            <DistanceMeters>NAN</DistanceMeters>
          </Trackpoint>
          <Trackpoint>
            <Time>2021-08-03T05:28:25.000Z</Time>
            <Position>
              <LatitudeDegrees>-15.354789309203624725341796875</LatitudeDegrees>
              <LongitudeDegrees>37.06939701922237873077392578125</LongitudeDegrees>
            </Position>
            <AltitudeMeters>2071.60009765625</AltitudeMeters>
            <DistanceMeters>NAN</DistanceMeters>
          </Trackpoint>
          <Trackpoint>
            <Time>2021-08-03T05:28:32.000Z</Time>
            <Position>
              <LatitudeDegrees>-15.35478897392749786376953125</LatitudeDegrees>
              <LongitudeDegrees>37.069402299821376800537109375</LongitudeDegrees>
            </Position>
            <AltitudeMeters>2071.39990234375</AltitudeMeters>
            <DistanceMeters>NAN</DistanceMeters>
          </Trackpoint>
          <Trackpoint>
            <Time>2021-08-03T05:28:38.000Z</Time>
            <Position>
              <LatitudeDegrees>-15.35478889010846614837646484375</LatitudeDegrees>
              <LongitudeDegrees>37.0694078318774700164794921875</LongitudeDegrees>
            </Position>
            <AltitudeMeters>2070.60009765625</AltitudeMeters>
            <DistanceMeters>NAN</DistanceMeters>
          </Trackpoint>
          <Trackpoint>
            <Time>2021-08-03T05:28:40.000Z</Time>
            <Position>
              <LatitudeDegrees>-15.35478889010846614837646484375</LatitudeDegrees>
              <LongitudeDegrees>37.0694125257432460784912109375</LongitudeDegrees>
            </Position>
            <AltitudeMeters>2070.39990234375</AltitudeMeters>
            <DistanceMeters>NAN</DistanceMeters>
          </Trackpoint>
          <Trackpoint>
            <Time>2021-08-03T05:28:44.000Z</Time>
            <Position>
              <LatitudeDegrees>-15.35477631725370883941650390625</LatitudeDegrees>
              <LongitudeDegrees>37.0694162137806415557861328125</LongitudeDegrees>
            </Position>
            <AltitudeMeters>2070.199951171875</AltitudeMeters>
            <DistanceMeters>NAN</DistanceMeters>
          </Trackpoint>
          <Trackpoint>
            <Time>2021-08-03T05:28:47.000Z</Time>
            <Position>
              <LatitudeDegrees>-15.3547596372663974761962890625</LatitudeDegrees>
              <LongitudeDegrees>37.06940992735326290130615234375</LongitudeDegrees>
            </Position>
            <AltitudeMeters>2070.199951171875</AltitudeMeters>
            <DistanceMeters>NAN</DistanceMeters>
          </Trackpoint>
          <Trackpoint>
            <Time>2021-08-03T05:28:49.000Z</Time>
            <Position>
              <LatitudeDegrees>-15.35475184209644794464111328125</LatitudeDegrees>
              <LongitudeDegrees>37.06939852796494960784912109375</LongitudeDegrees>
            </Position>
            <AltitudeMeters>2070.39990234375</AltitudeMeters>
            <DistanceMeters>NAN</DistanceMeters>
          </Trackpoint>
          <Trackpoint>
            <Time>2021-08-03T05:28:53.000Z</Time>
            <Position>
              <LatitudeDegrees>-15.35475184209644794464111328125</LatitudeDegrees>
              <LongitudeDegrees>37.06938394345343112945556640625</LongitudeDegrees>
            </Position>
            <AltitudeMeters>2070.60009765625</AltitudeMeters>
            <DistanceMeters>NAN</DistanceMeters>
          </Trackpoint>
          <Trackpoint>
            <Time>2021-08-03T05:28:59.000Z</Time>
            <Position>
              <LatitudeDegrees>-15.354749076068401336669921875</LatitudeDegrees>
              <LongitudeDegrees>37.06937941722571849822998046875</LongitudeDegrees>
            </Position>
            <AltitudeMeters>2070.60009765625</AltitudeMeters>
            <DistanceMeters>NAN</DistanceMeters>
          </Trackpoint>
          <Trackpoint>
            <Time>2021-08-03T05:29:04.000Z</Time>
            <Position>
              <LatitudeDegrees>-15.35473960451781749725341796875</LatitudeDegrees>
              <LongitudeDegrees>37.06936382688581943511962890625</LongitudeDegrees>
            </Position>
            <AltitudeMeters>2070.199951171875</AltitudeMeters>
            <DistanceMeters>NAN</DistanceMeters>
          </Trackpoint>
          <Trackpoint>
            <Time>2021-08-03T05:29:09.000Z</Time>
            <Position>
              <LatitudeDegrees>-15.354726947844028472900390625</LatitudeDegrees>
              <LongitudeDegrees>37.06931211054325103759765625</LongitudeDegrees>
            </Position>
            <AltitudeMeters>2070.60009765625</AltitudeMeters>
            <DistanceMeters>NAN</DistanceMeters>
          </Trackpoint>
          <Trackpoint>
            <Time>2021-08-03T05:29:10.000Z</Time>
            <Position>
              <LatitudeDegrees>-15.3547247685492038726806640625</LatitudeDegrees>
              <LongitudeDegrees>37.0693015493452548980712890625</LongitudeDegrees>
            </Position>
            <AltitudeMeters>2070.60009765625</AltitudeMeters>
            <DistanceMeters>NAN</DistanceMeters>
          </Trackpoint>
          <Trackpoint>
            <Time>2021-08-03T05:29:16.000Z</Time>
            <Position>
              <LatitudeDegrees>-15.354739017784595489501953125</LatitudeDegrees>
              <LongitudeDegrees>37.0693194866180419921875</LongitudeDegrees>
            </Position>
            <AltitudeMeters>2070.60009765625</AltitudeMeters>
            <DistanceMeters>NAN</DistanceMeters>
          </Trackpoint>
          <Trackpoint>
            <Time>2021-08-03T05:29:17.000Z</Time>
            <Position>
              <LatitudeDegrees>-15.354737341403961181640625</LatitudeDegrees>
              <LongitudeDegrees>37.069329880177974700927734375</LongitudeDegrees>
            </Position>
            <AltitudeMeters>2070.60009765625</AltitudeMeters>
            <DistanceMeters>NAN</DistanceMeters>
          </Trackpoint>
          <Trackpoint>
            <Time>2021-08-03T05:29:19.000Z</Time>
            <Position>
              <LatitudeDegrees>-15.354734994471073150634765625</LatitudeDegrees>
              <LongitudeDegrees>37.06934505142271518707275390625</LongitudeDegrees>
            </Position>
            <AltitudeMeters>2070.199951171875</AltitudeMeters>
            <DistanceMeters>NAN</DistanceMeters>
          </Trackpoint>
          <Trackpoint>
            <Time>2021-08-03T05:29:22.000Z</Time>
            <Position>
              <LatitudeDegrees>-15.35473356954753398895263671875</LatitudeDegrees>
              <LongitudeDegrees>37.0693582110106945037841796875</LongitudeDegrees>
            </Position>
            <AltitudeMeters>2070</AltitudeMeters>
            <DistanceMeters>NAN</DistanceMeters>
          </Trackpoint>
          <Trackpoint>
            <Time>2021-08-03T05:29:23.000Z</Time>
            <Position>
              <LatitudeDegrees>-15.35473289899528026580810546875</LatitudeDegrees>
              <LongitudeDegrees>37.0693598873913288116455078125</LongitudeDegrees>
            </Position>
            <AltitudeMeters>2070</AltitudeMeters>
            <DistanceMeters>NAN</DistanceMeters>
          </Trackpoint>
          <Trackpoint>
            <Time>2021-08-03T05:29:31.000Z</Time>
            <Position>
              <LatitudeDegrees>-15.3547346591949462890625</LatitudeDegrees>
              <LongitudeDegrees>37.0693501643836498260498046875</LongitudeDegrees>
            </Position>
            <AltitudeMeters>2069.800048828125</AltitudeMeters>
            <DistanceMeters>NAN</DistanceMeters>
          </Trackpoint>
          <Trackpoint>
            <Time>2021-08-03T05:29:32.000Z</Time>
            <Position>
              <LatitudeDegrees>-15.35473507829010486602783203125</LatitudeDegrees>
              <LongitudeDegrees>37.069349326193332672119140625</LongitudeDegrees>
            </Position>
            <AltitudeMeters>2069.800048828125</AltitudeMeters>
            <DistanceMeters>NAN</DistanceMeters>
          </Trackpoint>
          <Trackpoint>
            <Time>2021-08-03T05:29:44.000Z</Time>
            <Position>
              <LatitudeDegrees>-15.35473189316689968109130859375</LatitudeDegrees>
              <LongitudeDegrees>37.06934823654592037200927734375</LongitudeDegrees>
            </Position>
            <AltitudeMeters>2070.39990234375</AltitudeMeters>
            <DistanceMeters>NAN</DistanceMeters>
          </Trackpoint>
          <Trackpoint>
            <Time>2021-08-03T05:29:47.000Z</Time>
            <Position>
              <LatitudeDegrees>-15.35472719930112361907958984375</LatitudeDegrees>
              <LongitudeDegrees>37.069323845207691192626953125</LongitudeDegrees>
            </Position>
            <AltitudeMeters>2070.60009765625</AltitudeMeters>
            <DistanceMeters>NAN</DistanceMeters>
          </Trackpoint>
          <Trackpoint>
            <Time>2021-08-03T05:29:49.000Z</Time>
            <Position>
              <LatitudeDegrees>-15.3547240979969501495361328125</LatitudeDegrees>
              <LongitudeDegrees>37.0693208277225494384765625</LongitudeDegrees>
            </Position>
            <AltitudeMeters>2071</AltitudeMeters>
            <DistanceMeters>NAN</DistanceMeters>
          </Trackpoint>
          <Trackpoint>
            <Time>2021-08-03T05:29:54.000Z</Time>
            <Position>
              <LatitudeDegrees>-15.3547240979969501495361328125</LatitudeDegrees>
              <LongitudeDegrees>37.0693208277225494384765625</LongitudeDegrees>
            </Position>
            <AltitudeMeters>2070.800048828125</AltitudeMeters>
            <DistanceMeters>NAN</DistanceMeters>
          </Trackpoint>
          <Trackpoint>
            <Time>2021-08-03T05:30:03.000Z</Time>
            <Position>
              <LatitudeDegrees>-15.3547240979969501495361328125</LatitudeDegrees>
              <LongitudeDegrees>37.069316804409027099609375</LongitudeDegrees>
            </Position>
            <AltitudeMeters>2070.60009765625</AltitudeMeters>
            <DistanceMeters>NAN</DistanceMeters>
          </Trackpoint>
          <Trackpoint>
            <Time>2021-08-03T05:30:05.000Z</Time>
            <Position>
              <LatitudeDegrees>-15.3547240979969501495361328125</LatitudeDegrees>
              <LongitudeDegrees>37.06931588239967823028564453125</LongitudeDegrees>
            </Position>
            <AltitudeMeters>2070.39990234375</AltitudeMeters>
            <DistanceMeters>NAN</DistanceMeters>
          </Trackpoint>
          <Trackpoint>
            <Time>2021-08-03T05:30:07.000Z</Time>
            <Position>
              <LatitudeDegrees>-15.354723595082759857177734375</LatitudeDegrees>
              <LongitudeDegrees>37.0693156309425830841064453125</LongitudeDegrees>
            </Position>
            <AltitudeMeters>2070.39990234375</AltitudeMeters>
            <DistanceMeters>NAN</DistanceMeters>
          </Trackpoint>
          <Trackpoint>
            <Time>2021-08-03T05:30:24.000Z</Time>
            <Position>
              <LatitudeDegrees>-15.35472669638693332672119140625</LatitudeDegrees>
              <LongitudeDegrees>37.0693072490394115447998046875</LongitudeDegrees>
            </Position>
            <AltitudeMeters>2070.60009765625</AltitudeMeters>
            <DistanceMeters>NAN</DistanceMeters>
          </Trackpoint>
          <Trackpoint>
            <Time>2021-08-03T05:30:28.000Z</Time>
            <Position>
              <LatitudeDegrees>-15.3547274507582187652587890625</LatitudeDegrees>
              <LongitudeDegrees>37.06930398009717464447021484375</LongitudeDegrees>
            </Position>
            <AltitudeMeters>2070.800048828125</AltitudeMeters>
            <DistanceMeters>NAN</DistanceMeters>
          </Trackpoint>
          <Trackpoint>
            <Time>2021-08-03T05:30:40.000Z</Time>
            <Position>
              <LatitudeDegrees>-15.35469434224069118499755859375</LatitudeDegrees>
              <LongitudeDegrees>37.06921144388616085052490234375</LongitudeDegrees>
            </Position>
            <AltitudeMeters>2070.60009765625</AltitudeMeters>
            <DistanceMeters>NAN</DistanceMeters>
          </Trackpoint>
          <Trackpoint>
            <Time>2021-08-03T05:30:46.000Z</Time>
            <Position>
              <LatitudeDegrees>-15.3546919114887714385986328125</LatitudeDegrees>
              <LongitudeDegrees>37.06915411166846752166748046875</LongitudeDegrees>
            </Position>
            <AltitudeMeters>2070.39990234375</AltitudeMeters>
            <DistanceMeters>NAN</DistanceMeters>
          </Trackpoint>
          <Trackpoint>
            <Time>2021-08-03T05:30:54.000Z</Time>
            <Position>
              <LatitudeDegrees>-15.35467439331114292144775390625</LatitudeDegrees>
              <LongitudeDegrees>37.06913935951888561248779296875</LongitudeDegrees>
            </Position>
            <AltitudeMeters>2070.199951171875</AltitudeMeters>
            <DistanceMeters>NAN</DistanceMeters>
          </Trackpoint>
          <Trackpoint>
            <Time>2021-08-03T05:30:56.000Z</Time>
            <Position>
              <LatitudeDegrees>-15.35466467030346393585205078125</LatitudeDegrees>
              <LongitudeDegrees>37.069135420024394989013671875</LongitudeDegrees>
            </Position>
            <AltitudeMeters>2070.199951171875</AltitudeMeters>
            <DistanceMeters>NAN</DistanceMeters>
          </Trackpoint>
          <Trackpoint>
            <Time>2021-08-03T05:31:08.000Z</Time>
            <Position>
              <LatitudeDegrees>-15.3546617366373538970947265625</LatitudeDegrees>
              <LongitudeDegrees>37.06913567148149013519287109375</LongitudeDegrees>
            </Position>
            <AltitudeMeters>2069.800048828125</AltitudeMeters>
            <DistanceMeters>NAN</DistanceMeters>
          </Trackpoint>
          <Trackpoint>
            <Time>2021-08-03T05:31:12.000Z</Time>
            <Position>
              <LatitudeDegrees>-15.3546617366373538970947265625</LatitudeDegrees>
              <LongitudeDegrees>37.06913567148149013519287109375</LongitudeDegrees>
            </Position>
            <AltitudeMeters>2069.199951171875</AltitudeMeters>
            <DistanceMeters>NAN</DistanceMeters>
          </Trackpoint>
          <Trackpoint>
            <Time>2021-08-03T05:31:26.000Z</Time>
            <Position>
              <LatitudeDegrees>-15.35464522428810596466064453125</LatitudeDegrees>
              <LongitudeDegrees>37.06911371089518070220947265625</LongitudeDegrees>
            </Position>
            <AltitudeMeters>2068.800048828125</AltitudeMeters>
            <DistanceMeters>NAN</DistanceMeters>
          </Trackpoint>
          <Trackpoint>
            <Time>2021-08-03T05:31:29.000Z</Time>
            <Position>
              <LatitudeDegrees>-15.3546396084129810333251953125</LatitudeDegrees>
              <LongitudeDegrees>37.069112956523895263671875</LongitudeDegrees>
            </Position>
            <AltitudeMeters>2068.800048828125</AltitudeMeters>
            <DistanceMeters>NAN</DistanceMeters>
          </Trackpoint>
          <Trackpoint>
            <Time>2021-08-03T05:31:32.000Z</Time>
            <Position>
              <LatitudeDegrees>-15.3546392731368541717529296875</LatitudeDegrees>
              <LongitudeDegrees>37.06911136396229267120361328125</LongitudeDegrees>
            </Position>
            <AltitudeMeters>2068.800048828125</AltitudeMeters>
            <DistanceMeters>NAN</DistanceMeters>
          </Trackpoint>
          <Trackpoint>
            <Time>2021-08-03T05:31:37.000Z</Time>
            <Position>
              <LatitudeDegrees>-15.35463918931782245635986328125</LatitudeDegrees>
              <LongitudeDegrees>37.0691070891916751861572265625</LongitudeDegrees>
            </Position>
            <AltitudeMeters>2069.60009765625</AltitudeMeters>
            <DistanceMeters>NAN</DistanceMeters>
          </Trackpoint>
          <Trackpoint>
            <Time>2021-08-03T05:31:39.000Z</Time>
            <Position>
              <LatitudeDegrees>-15.35463918931782245635986328125</LatitudeDegrees>
              <LongitudeDegrees>37.0691067539155483245849609375</LongitudeDegrees>
            </Position>
            <AltitudeMeters>2069.800048828125</AltitudeMeters>
            <DistanceMeters>NAN</DistanceMeters>
          </Trackpoint>
          <Trackpoint>
            <Time>2021-08-03T05:31:43.000Z</Time>
            <Position>
              <LatitudeDegrees>-15.35463935695588588714599609375</LatitudeDegrees>
              <LongitudeDegrees>37.06910616718232631683349609375</LongitudeDegrees>
            </Position>
            <AltitudeMeters>2070.199951171875</AltitudeMeters>
            <DistanceMeters>NAN</DistanceMeters>
          </Trackpoint>
          <Trackpoint>
            <Time>2021-08-03T05:31:45.000Z</Time>
            <Position>
              <LatitudeDegrees>-15.35463952459394931793212890625</LatitudeDegrees>
              <LongitudeDegrees>37.06910599954426288604736328125</LongitudeDegrees>
            </Position>
            <AltitudeMeters>2070.39990234375</AltitudeMeters>
            <DistanceMeters>NAN</DistanceMeters>
          </Trackpoint>
          <Trackpoint>
            <Time>2021-08-03T05:31:53.000Z</Time>
            <Position>
              <LatitudeDegrees>-15.35464438609778881072998046875</LatitudeDegrees>
              <LongitudeDegrees>37.06909560598433017730712890625</LongitudeDegrees>
            </Position>
            <AltitudeMeters>2070</AltitudeMeters>
            <DistanceMeters>NAN</DistanceMeters>
          </Trackpoint>
          <Trackpoint>
            <Time>2021-08-03T05:31:57.000Z</Time>
            <Position>
              <LatitudeDegrees>-15.35464572720229625701904296875</LatitudeDegrees>
              <LongitudeDegrees>37.069089151918888092041015625</LongitudeDegrees>
            </Position>
            <AltitudeMeters>2070</AltitudeMeters>
            <DistanceMeters>NAN</DistanceMeters>
          </Trackpoint>
          <Trackpoint>
            <Time>2021-08-03T05:32:03.000Z</Time>
            <Position>
              <LatitudeDegrees>-15.35464723594486713409423828125</LatitudeDegrees>
              <LongitudeDegrees>37.069085799157619476318359375</LongitudeDegrees>
            </Position>
            <AltitudeMeters>2070.199951171875</AltitudeMeters>
            <DistanceMeters>NAN</DistanceMeters>
          </Trackpoint>
          <Trackpoint>
            <Time>2021-08-03T05:32:30.000Z</Time>
            <Position>
              <LatitudeDegrees>-15.354651845991611480712890625</LatitudeDegrees>
              <LongitudeDegrees>37.06907783634960651397705078125</LongitudeDegrees>
            </Position>
            <AltitudeMeters>2070.199951171875</AltitudeMeters>
            <DistanceMeters>NAN</DistanceMeters>
          </Trackpoint>
          <Trackpoint>
            <Time>2021-08-03T05:32:45.000Z</Time>
            <Position>
              <LatitudeDegrees>-15.35465343855321407318115234375</LatitudeDegrees>
              <LongitudeDegrees>37.06907532177865505218505859375</LongitudeDegrees>
            </Position>
            <AltitudeMeters>2071.39990234375</AltitudeMeters>
            <DistanceMeters>NAN</DistanceMeters>
          </Trackpoint>
          <Trackpoint>
            <Time>2021-08-03T05:33:08.000Z</Time>
            <Position>
              <LatitudeDegrees>-15.354650504887104034423828125</LatitudeDegrees>
              <LongitudeDegrees>37.06905059516429901123046875</LongitudeDegrees>
            </Position>
            <AltitudeMeters>2071.60009765625</AltitudeMeters>
            <DistanceMeters>NAN</DistanceMeters>
          </Trackpoint>
          <Trackpoint>
            <Time>2021-08-03T05:33:14.000Z</Time>
            <Position>
              <LatitudeDegrees>-15.3546456433832645416259765625</LatitudeDegrees>
              <LongitudeDegrees>37.06904212944209575653076171875</LongitudeDegrees>
            </Position>
            <AltitudeMeters>2072.60009765625</AltitudeMeters>
            <DistanceMeters>NAN</DistanceMeters>
          </Trackpoint>
          <Trackpoint>
            <Time>2021-08-03T05:33:17.000Z</Time>
            <Position>
              <LatitudeDegrees>-15.35464371554553508758544921875</LatitudeDegrees>
              <LongitudeDegrees>37.0690299756824970245361328125</LongitudeDegrees>
            </Position>
            <AltitudeMeters>2073.800048828125</AltitudeMeters>
            <DistanceMeters>NAN</DistanceMeters>
          </Trackpoint>
          <Trackpoint>
            <Time>2021-08-03T05:33:19.000Z</Time>
            <Position>
              <LatitudeDegrees>-15.35464304499328136444091796875</LatitudeDegrees>
              <LongitudeDegrees>37.06900541670620441436767578125</LongitudeDegrees>
            </Position>
            <AltitudeMeters>2074.800048828125</AltitudeMeters>
            <DistanceMeters>NAN</DistanceMeters>
          </Trackpoint>
          <Trackpoint>
            <Time>2021-08-03T05:33:21.000Z</Time>
            <Position>
              <LatitudeDegrees>-15.35464338026940822601318359375</LatitudeDegrees>
              <LongitudeDegrees>37.0689803548157215118408203125</LongitudeDegrees>
            </Position>
            <AltitudeMeters>2076</AltitudeMeters>
            <DistanceMeters>NAN</DistanceMeters>
          </Trackpoint>
          <Trackpoint>
            <Time>2021-08-03T05:33:27.000Z</Time>
            <Position>
              <LatitudeDegrees>-15.35465427674353122711181640625</LatitudeDegrees>
              <LongitudeDegrees>37.06892595626413822174072265625</LongitudeDegrees>
            </Position>
            <AltitudeMeters>2076.60009765625</AltitudeMeters>
            <DistanceMeters>NAN</DistanceMeters>
          </Trackpoint>
          <Trackpoint>
            <Time>2021-08-03T05:33:31.000Z</Time>
            <Position>
              <LatitudeDegrees>-15.35466701723635196685791015625</LatitudeDegrees>
              <LongitudeDegrees>37.06892109476029872894287109375</LongitudeDegrees>
            </Position>
            <AltitudeMeters>2077</AltitudeMeters>
            <DistanceMeters>NAN</DistanceMeters>
          </Trackpoint>
          <Trackpoint>
            <Time>2021-08-03T05:33:33.000Z</Time>
            <Position>
              <LatitudeDegrees>-15.35466416738927364349365234375</LatitudeDegrees>
              <LongitudeDegrees>37.0689179934561252593994140625</LongitudeDegrees>
            </Position>
            <AltitudeMeters>2077.60009765625</AltitudeMeters>
            <DistanceMeters>NAN</DistanceMeters>
          </Trackpoint>
          <Trackpoint>
            <Time>2021-08-03T05:33:43.000Z</Time>
            <Position>
              <LatitudeDegrees>-15.35466492176055908203125</LatitudeDegrees>
              <LongitudeDegrees>37.0688656903803348541259765625</LongitudeDegrees>
            </Position>
            <AltitudeMeters>2077.60009765625</AltitudeMeters>
            <DistanceMeters>NAN</DistanceMeters>
          </Trackpoint>
          <Trackpoint>
            <Time>2021-08-03T05:33:45.000Z</Time>
            <Position>
              <LatitudeDegrees>-15.354671962559223175048828125</LatitudeDegrees>
              <LongitudeDegrees>37.0688630081713199615478515625</LongitudeDegrees>
            </Position>
            <AltitudeMeters>2078</AltitudeMeters>
            <DistanceMeters>NAN</DistanceMeters>
          </Trackpoint>
          <Trackpoint>
            <Time>2021-08-03T05:33:49.000Z</Time>
            <Position>
              <LatitudeDegrees>-15.3546882234513759613037109375</LatitudeDegrees>
              <LongitudeDegrees>37.0688616670668125152587890625</LongitudeDegrees>
            </Position>
            <AltitudeMeters>2078.800048828125</AltitudeMeters>
            <DistanceMeters>NAN</DistanceMeters>
          </Trackpoint>
          <Trackpoint>
            <Time>2021-08-03T05:33:57.000Z</Time>
            <Position>
              <LatitudeDegrees>-15.3546892292797565460205078125</LatitudeDegrees>
              <LongitudeDegrees>37.0688675343990325927734375</LongitudeDegrees>
            </Position>
            <AltitudeMeters>2079.199951171875</AltitudeMeters>
            <DistanceMeters>NAN</DistanceMeters>
          </Trackpoint>
          <Trackpoint>
            <Time>2021-08-03T05:34:00.000Z</Time>
            <Position>
              <LatitudeDegrees>-15.3546892292797565460205078125</LatitudeDegrees>
              <LongitudeDegrees>37.0688675343990325927734375</LongitudeDegrees>
            </Position>
            <AltitudeMeters>2079.800048828125</AltitudeMeters>
            <DistanceMeters>NAN</DistanceMeters>
          </Trackpoint>
          <Trackpoint>
            <Time>2021-08-03T05:34:02.000Z</Time>
            <Position>
              <LatitudeDegrees>-15.3546892292797565460205078125</LatitudeDegrees>
              <LongitudeDegrees>37.0688675343990325927734375</LongitudeDegrees>
            </Position>
            <AltitudeMeters>2080.199951171875</AltitudeMeters>
            <DistanceMeters>NAN</DistanceMeters>
          </Trackpoint>
          <Trackpoint>
            <Time>2021-08-03T05:34:10.000Z</Time>
            <Position>
              <LatitudeDegrees>-15.35469048656523227691650390625</LatitudeDegrees>
              <LongitudeDegrees>37.06886158324778079986572265625</LongitudeDegrees>
            </Position>
            <AltitudeMeters>2081.60009765625</AltitudeMeters>
            <DistanceMeters>NAN</DistanceMeters>
          </Trackpoint>
          <Trackpoint>
            <Time>2021-08-03T05:34:19.000Z</Time>
            <Position>
              <LatitudeDegrees>-15.354713536798954010009765625</LatitudeDegrees>
              <LongitudeDegrees>37.06884934566915035247802734375</LongitudeDegrees>
            </Position>
            <AltitudeMeters>2082.60009765625</AltitudeMeters>
            <DistanceMeters>NAN</DistanceMeters>
          </Trackpoint>
          <Trackpoint>
            <Time>2021-08-03T05:34:24.000Z</Time>
            <Position>
              <LatitudeDegrees>-15.3547601401805877685546875</LatitudeDegrees>
              <LongitudeDegrees>37.0688267983496189117431640625</LongitudeDegrees>
            </Position>
            <AltitudeMeters>2083.800048828125</AltitudeMeters>
            <DistanceMeters>NAN</DistanceMeters>
          </Trackpoint>
          <Trackpoint>
            <Time>2021-08-03T05:34:31.000Z</Time>
            <Position>
              <LatitudeDegrees>-15.35477480851113796234130859375</LatitudeDegrees>
              <LongitudeDegrees>37.06879771314561367034912109375</LongitudeDegrees>
            </Position>
            <AltitudeMeters>2084.199951171875</AltitudeMeters>
            <DistanceMeters>NAN</DistanceMeters>
          </Trackpoint>
          <Trackpoint>
            <Time>2021-08-03T05:34:34.000Z</Time>
            <Position>
              <LatitudeDegrees>-15.3547841124236583709716796875</LatitudeDegrees>
              <LongitudeDegrees>37.06878773868083953857421875</LongitudeDegrees>
            </Position>
            <AltitudeMeters>2085</AltitudeMeters>
            <DistanceMeters>NAN</DistanceMeters>
          </Trackpoint>
          <Trackpoint>
            <Time>2021-08-03T05:34:36.000Z</Time>
            <Position>
              <LatitudeDegrees>-15.35478352569043636322021484375</LatitudeDegrees>
              <LongitudeDegrees>37.06878840923309326171875</LongitudeDegrees>
            </Position>
            <AltitudeMeters>2085.199951171875</AltitudeMeters>
            <DistanceMeters>NAN</DistanceMeters>
          </Trackpoint>
          <Trackpoint>
            <Time>2021-08-03T05:34:49.000Z</Time>
            <Position>
              <LatitudeDegrees>-15.35478360950946807861328125</LatitudeDegrees>
              <LongitudeDegrees>37.068789415061473846435546875</LongitudeDegrees>
            </Position>
            <AltitudeMeters>2086.199951171875</AltitudeMeters>
            <DistanceMeters>NAN</DistanceMeters>
          </Trackpoint>
          <Trackpoint>
            <Time>2021-08-03T05:34:52.000Z</Time>
            <Position>
              <LatitudeDegrees>-15.35478360950946807861328125</LatitudeDegrees>
              <LongitudeDegrees>37.06878773868083953857421875</LongitudeDegrees>
            </Position>
            <AltitudeMeters>2087</AltitudeMeters>
            <DistanceMeters>NAN</DistanceMeters>
          </Trackpoint>
          <Trackpoint>
            <Time>2021-08-03T05:34:54.000Z</Time>
            <Position>
              <LatitudeDegrees>-15.35478360950946807861328125</LatitudeDegrees>
              <LongitudeDegrees>37.06878128461539745330810546875</LongitudeDegrees>
            </Position>
            <AltitudeMeters>2087</AltitudeMeters>
            <DistanceMeters>NAN</DistanceMeters>
          </Trackpoint>
          <Trackpoint>
            <Time>2021-08-03T05:34:55.000Z</Time>
            <Position>
              <LatitudeDegrees>-15.35478360950946807861328125</LatitudeDegrees>
              <LongitudeDegrees>37.06877692602574825286865234375</LongitudeDegrees>
            </Position>
            <AltitudeMeters>2087.199951171875</AltitudeMeters>
            <DistanceMeters>NAN</DistanceMeters>
          </Trackpoint>
          <Trackpoint>
            <Time>2021-08-03T05:34:58.000Z</Time>
            <Position>
              <LatitudeDegrees>-15.3547842800617218017578125</LatitudeDegrees>
              <LongitudeDegrees>37.06876762211322784423828125</LongitudeDegrees>
            </Position>
            <AltitudeMeters>2087.199951171875</AltitudeMeters>
            <DistanceMeters>NAN</DistanceMeters>
          </Trackpoint>
          <Trackpoint>
            <Time>2021-08-03T05:35:02.000Z</Time>
            <Position>
              <LatitudeDegrees>-15.3547923266887664794921875</LatitudeDegrees>
              <LongitudeDegrees>37.06876468844711780548095703125</LongitudeDegrees>
            </Position>
            <AltitudeMeters>2087.39990234375</AltitudeMeters>
            <DistanceMeters>NAN</DistanceMeters>
          </Trackpoint>
          <Trackpoint>
            <Time>2021-08-03T05:35:07.000Z</Time>
            <Position>
              <LatitudeDegrees>-15.3548119403421878814697265625</LatitudeDegrees>
              <LongitudeDegrees>37.06875362433493137359619140625</LongitudeDegrees>
            </Position>
            <AltitudeMeters>2088.39990234375</AltitudeMeters>
            <DistanceMeters>NAN</DistanceMeters>
          </Trackpoint>
          <Trackpoint>
            <Time>2021-08-03T05:35:12.000Z</Time>
            <Position>
              <LatitudeDegrees>-15.35483297891914844512939453125</LatitudeDegrees>
              <LongitudeDegrees>37.068744488060474395751953125</LongitudeDegrees>
            </Position>
            <AltitudeMeters>2089.199951171875</AltitudeMeters>
            <DistanceMeters>NAN</DistanceMeters>
          </Trackpoint>
          <Trackpoint>
            <Time>2021-08-03T05:35:13.000Z</Time>
            <Position>
              <LatitudeDegrees>-15.35483859479427337646484375</LatitudeDegrees>
              <LongitudeDegrees>37.0687402971088886260986328125</LongitudeDegrees>
            </Position>
            <AltitudeMeters>2089.39990234375</AltitudeMeters>
            <DistanceMeters>NAN</DistanceMeters>
          </Trackpoint>
          <Trackpoint>
            <Time>2021-08-03T05:35:19.000Z</Time>
            <Position>
              <LatitudeDegrees>-15.35487136803567409515380859375</LatitudeDegrees>
              <LongitudeDegrees>37.06872143782675266265869140625</LongitudeDegrees>
            </Position>
            <AltitudeMeters>2090.39990234375</AltitudeMeters>
            <DistanceMeters>NAN</DistanceMeters>
          </Trackpoint>
          <Trackpoint>
            <Time>2021-08-03T05:35:21.000Z</Time>
            <Position>
              <LatitudeDegrees>-15.354876816272735595703125</LatitudeDegrees>
              <LongitudeDegrees>37.06871087662875652313232421875</LongitudeDegrees>
            </Position>
            <AltitudeMeters>2090.39990234375</AltitudeMeters>
            <DistanceMeters>NAN</DistanceMeters>
          </Trackpoint>
          <Trackpoint>
            <Time>2021-08-03T05:35:29.000Z</Time>
            <Position>
              <LatitudeDegrees>-15.35488125868141651153564453125</LatitudeDegrees>
              <LongitudeDegrees>37.0687060989439487457275390625</LongitudeDegrees>
            </Position>
            <AltitudeMeters>2091.39990234375</AltitudeMeters>
            <DistanceMeters>NAN</DistanceMeters>
          </Trackpoint>
          <Trackpoint>
            <Time>2021-08-03T05:35:31.000Z</Time>
            <Position>
              <LatitudeDegrees>-15.35488259978592395782470703125</LatitudeDegrees>
              <LongitudeDegrees>37.0687117986381053924560546875</LongitudeDegrees>
            </Position>
            <AltitudeMeters>2091.39990234375</AltitudeMeters>
            <DistanceMeters>NAN</DistanceMeters>
          </Trackpoint>
          <Trackpoint>
            <Time>2021-08-03T05:35:36.000Z</Time>
            <Position>
              <LatitudeDegrees>-15.35487824119627475738525390625</LatitudeDegrees>
              <LongitudeDegrees>37.0686866529285907745361328125</LongitudeDegrees>
            </Position>
            <AltitudeMeters>2091.800048828125</AltitudeMeters>
            <DistanceMeters>NAN</DistanceMeters>
          </Trackpoint>
          <Trackpoint>
            <Time>2021-08-03T05:35:41.000Z</Time>
            <Position>
              <LatitudeDegrees>-15.35487723536789417266845703125</LatitudeDegrees>
              <LongitudeDegrees>37.06867516972124576568603515625</LongitudeDegrees>
            </Position>
            <AltitudeMeters>2092.60009765625</AltitudeMeters>
            <DistanceMeters>NAN</DistanceMeters>
          </Trackpoint>
          <Trackpoint>
            <Time>2021-08-03T05:35:42.000Z</Time>
            <Position>
              <LatitudeDegrees>-15.35487706772983074188232421875</LatitudeDegrees>
              <LongitudeDegrees>37.06867516972124576568603515625</LongitudeDegrees>
            </Position>
            <AltitudeMeters>2092.60009765625</AltitudeMeters>
            <DistanceMeters>NAN</DistanceMeters>
          </Trackpoint>
          <Trackpoint>
            <Time>2021-08-03T05:35:50.000Z</Time>
            <Position>
              <LatitudeDegrees>-15.3548766486346721649169921875</LatitudeDegrees>
              <LongitudeDegrees>37.06867483444511890411376953125</LongitudeDegrees>
            </Position>
            <AltitudeMeters>2093.39990234375</AltitudeMeters>
            <DistanceMeters>NAN</DistanceMeters>
          </Trackpoint>
          <Trackpoint>
            <Time>2021-08-03T05:36:01.000Z</Time>
            <Position>
              <LatitudeDegrees>-15.3548796661198139190673828125</LatitudeDegrees>
              <LongitudeDegrees>37.0686735771596431732177734375</LongitudeDegrees>
            </Position>
            <AltitudeMeters>2094</AltitudeMeters>
            <DistanceMeters>NAN</DistanceMeters>
          </Trackpoint>
          <Trackpoint>
            <Time>2021-08-03T05:36:05.000Z</Time>
            <Position>
              <LatitudeDegrees>-15.35491595976054668426513671875</LatitudeDegrees>
              <LongitudeDegrees>37.06865052692592144012451171875</LongitudeDegrees>
            </Position>
            <AltitudeMeters>2094.60009765625</AltitudeMeters>
            <DistanceMeters>NAN</DistanceMeters>
          </Trackpoint>
          <Trackpoint>
            <Time>2021-08-03T05:36:07.000Z</Time>
            <Position>
              <LatitudeDegrees>-15.35492585040628910064697265625</LatitudeDegrees>
              <LongitudeDegrees>37.0686484314501285552978515625</LongitudeDegrees>
            </Position>
            <AltitudeMeters>2095</AltitudeMeters>
            <DistanceMeters>NAN</DistanceMeters>
          </Trackpoint>
          <Trackpoint>
            <Time>2021-08-03T05:36:12.000Z</Time>
            <Position>
              <LatitudeDegrees>-15.35494311712682247161865234375</LatitudeDegrees>
              <LongitudeDegrees>37.068625800311565399169921875</LongitudeDegrees>
            </Position>
            <AltitudeMeters>2095.60009765625</AltitudeMeters>
            <DistanceMeters>NAN</DistanceMeters>
          </Trackpoint>
          <Trackpoint>
            <Time>2021-08-03T05:36:14.000Z</Time>
            <Position>
              <LatitudeDegrees>-15.3549494035542011260986328125</LatitudeDegrees>
              <LongitudeDegrees>37.068643234670162200927734375</LongitudeDegrees>
            </Position>
            <AltitudeMeters>2096.39990234375</AltitudeMeters>
            <DistanceMeters>NAN</DistanceMeters>
          </Trackpoint>
          <Trackpoint>
            <Time>2021-08-03T05:36:17.000Z</Time>
            <Position>
              <LatitudeDegrees>-15.35496105439960956573486328125</LatitudeDegrees>
              <LongitudeDegrees>37.06864248029887676239013671875</LongitudeDegrees>
            </Position>
            <AltitudeMeters>2096.800048828125</AltitudeMeters>
            <DistanceMeters>NAN</DistanceMeters>
          </Trackpoint>
          <Trackpoint>
            <Time>2021-08-03T05:36:22.000Z</Time>
            <Position>
              <LatitudeDegrees>-15.3549654968082904815673828125</LatitudeDegrees>
              <LongitudeDegrees>37.068620435893535614013671875</LongitudeDegrees>
            </Position>
            <AltitudeMeters>2097.39990234375</AltitudeMeters>
            <DistanceMeters>NAN</DistanceMeters>
          </Trackpoint>
          <Trackpoint>
            <Time>2021-08-03T05:36:23.000Z</Time>
            <Position>
              <LatitudeDegrees>-15.35496532917022705078125</LatitudeDegrees>
              <LongitudeDegrees>37.06861699931323528289794921875</LongitudeDegrees>
            </Position>
            <AltitudeMeters>2097.800048828125</AltitudeMeters>
            <DistanceMeters>NAN</DistanceMeters>
          </Trackpoint>
          <Trackpoint>
            <Time>2021-08-03T05:36:28.000Z</Time>
            <Position>
              <LatitudeDegrees>-15.35497413016855716705322265625</LatitudeDegrees>
              <LongitudeDegrees>37.06860375590622425079345703125</LongitudeDegrees>
            </Position>
            <AltitudeMeters>2098.800048828125</AltitudeMeters>
            <DistanceMeters>NAN</DistanceMeters>
          </Trackpoint>
          <Trackpoint>
            <Time>2021-08-03T05:36:30.000Z</Time>
            <Position>
              <LatitudeDegrees>-15.3549812547862529754638671875</LatitudeDegrees>
              <LongitudeDegrees>37.06859420053660869598388671875</LongitudeDegrees>
            </Position>
            <AltitudeMeters>2099</AltitudeMeters>
            <DistanceMeters>NAN</DistanceMeters>
          </Trackpoint>
          <Trackpoint>
            <Time>2021-08-03T05:36:37.000Z</Time>
            <Position>
              <LatitudeDegrees>-15.354981757700443267822265625</LatitudeDegrees>
              <LongitudeDegrees>37.0685740001499652862548828125</LongitudeDegrees>
            </Position>
            <AltitudeMeters>2100.199951171875</AltitudeMeters>
            <DistanceMeters>NAN</DistanceMeters>
          </Trackpoint>
          <Trackpoint>
            <Time>2021-08-03T05:36:38.000Z</Time>
            <Position>
              <LatitudeDegrees>-15.35498368553817272186279296875</LatitudeDegrees>
              <LongitudeDegrees>37.06857039593160152435302734375</LongitudeDegrees>
            </Position>
            <AltitudeMeters>2100.39990234375</AltitudeMeters>
            <DistanceMeters>NAN</DistanceMeters>
          </Trackpoint>
          <Trackpoint>
            <Time>2021-08-03T05:36:45.000Z</Time>
            <Position>
              <LatitudeDegrees>-15.3550047241151332855224609375</LatitudeDegrees>
              <LongitudeDegrees>37.06857441924512386322021484375</LongitudeDegrees>
            </Position>
            <AltitudeMeters>2100.800048828125</AltitudeMeters>
            <DistanceMeters>NAN</DistanceMeters>
          </Trackpoint>
          <Trackpoint>
            <Time>2021-08-03T05:36:51.000Z</Time>
            <Position>
              <LatitudeDegrees>-15.35500028170645236968994140625</LatitudeDegrees>
              <LongitudeDegrees>37.06858531571924686431884765625</LongitudeDegrees>
            </Position>
            <AltitudeMeters>2099.39990234375</AltitudeMeters>
            <DistanceMeters>NAN</DistanceMeters>
          </Trackpoint>
          <Trackpoint>
            <Time>2021-08-03T05:36:57.000Z</Time>
            <Position>
              <LatitudeDegrees>-15.3550043888390064239501953125</LatitudeDegrees>
              <LongitudeDegrees>37.0685642771422863006591796875</LongitudeDegrees>
            </Position>
            <AltitudeMeters>2100.199951171875</AltitudeMeters>
            <DistanceMeters>NAN</DistanceMeters>
          </Trackpoint>
          <Trackpoint>
            <Time>2021-08-03T05:37:04.000Z</Time>
            <Position>
              <LatitudeDegrees>-15.3550074063241481781005859375</LatitudeDegrees>
              <LongitudeDegrees>37.06853686831891536712646484375</LongitudeDegrees>
            </Position>
            <AltitudeMeters>2101</AltitudeMeters>
            <DistanceMeters>NAN</DistanceMeters>
          </Trackpoint>
          <Trackpoint>
            <Time>2021-08-03T05:37:05.000Z</Time>
            <Position>
              <LatitudeDegrees>-15.355007238686084747314453125</LatitudeDegrees>
              <LongitudeDegrees>37.06852815113961696624755859375</LongitudeDegrees>
            </Position>
            <AltitudeMeters>2101.199951171875</AltitudeMeters>
            <DistanceMeters>NAN</DistanceMeters>
          </Trackpoint>
          <Trackpoint>
            <Time>2021-08-03T05:37:07.000Z</Time>
            <Position>
              <LatitudeDegrees>-15.35500179044902324676513671875</LatitudeDegrees>
              <LongitudeDegrees>37.06852010451257228851318359375</LongitudeDegrees>
            </Position>
            <AltitudeMeters>2101.60009765625</AltitudeMeters>
            <DistanceMeters>NAN</DistanceMeters>
          </Trackpoint>
          <Trackpoint>
            <Time>2021-08-03T05:37:09.000Z</Time>
            <Position>
              <LatitudeDegrees>-15.35500179044902324676513671875</LatitudeDegrees>
              <LongitudeDegrees>37.06852010451257228851318359375</LongitudeDegrees>
            </Position>
            <AltitudeMeters>2101.60009765625</AltitudeMeters>
            <DistanceMeters>NAN</DistanceMeters>
          </Trackpoint>
          <Trackpoint>
            <Time>2021-08-03T05:37:11.000Z</Time>
            <Position>
              <LatitudeDegrees>-15.35500179044902324676513671875</LatitudeDegrees>
              <LongitudeDegrees>37.06852010451257228851318359375</LongitudeDegrees>
            </Position>
            <AltitudeMeters>2101.39990234375</AltitudeMeters>
            <DistanceMeters>NAN</DistanceMeters>
          </Trackpoint>
          <Trackpoint>
            <Time>2021-08-03T05:37:20.000Z</Time>
            <Position>
              <LatitudeDegrees>-15.35501905716955661773681640625</LatitudeDegrees>
              <LongitudeDegrees>37.06853938288986682891845703125</LongitudeDegrees>
            </Position>
            <AltitudeMeters>2100.800048828125</AltitudeMeters>
            <DistanceMeters>NAN</DistanceMeters>
          </Trackpoint>
          <Trackpoint>
            <Time>2021-08-03T05:37:21.000Z</Time>
            <Position>
              <LatitudeDegrees>-15.35502593033015727996826171875</LatitudeDegrees>
              <LongitudeDegrees>37.06853653304278850555419921875</LongitudeDegrees>
            </Position>
            <AltitudeMeters>2100.800048828125</AltitudeMeters>
            <DistanceMeters>NAN</DistanceMeters>
          </Trackpoint>
          <Trackpoint>
            <Time>2021-08-03T05:37:22.000Z</Time>
            <Position>
              <LatitudeDegrees>-15.35503850318491458892822265625</LatitudeDegrees>
              <LongitudeDegrees>37.06853770650923252105712890625</LongitudeDegrees>
            </Position>
            <AltitudeMeters>2100.800048828125</AltitudeMeters>
            <DistanceMeters>NAN</DistanceMeters>
          </Trackpoint>
          <Trackpoint>
            <Time>2021-08-03T05:37:24.000Z</Time>
            <Position>
              <LatitudeDegrees>-15.3550486452877521514892578125</LatitudeDegrees>
              <LongitudeDegrees>37.06854742951691150665283203125</LongitudeDegrees>
            </Position>
            <AltitudeMeters>2101</AltitudeMeters>
            <DistanceMeters>NAN</DistanceMeters>
          </Trackpoint>
          <Trackpoint>
            <Time>2021-08-03T05:37:26.000Z</Time>
            <Position>
              <LatitudeDegrees>-15.35505115985870361328125</LatitudeDegrees>
              <LongitudeDegrees>37.068559415638446807861328125</LongitudeDegrees>
            </Position>
            <AltitudeMeters>2101.39990234375</AltitudeMeters>
            <DistanceMeters>NAN</DistanceMeters>
          </Trackpoint>
          <Trackpoint>
            <Time>2021-08-03T05:37:30.000Z</Time>
            <Position>
              <LatitudeDegrees>-15.355059541761875152587890625</LatitudeDegrees>
              <LongitudeDegrees>37.0685515366494655609130859375</LongitudeDegrees>
            </Position>
            <AltitudeMeters>2101.39990234375</AltitudeMeters>
            <DistanceMeters>NAN</DistanceMeters>
          </Trackpoint>
          <Trackpoint>
            <Time>2021-08-03T05:37:37.000Z</Time>
            <Position>
              <LatitudeDegrees>-15.35504646599292755126953125</LatitudeDegrees>
              <LongitudeDegrees>37.0685341022908687591552734375</LongitudeDegrees>
            </Position>
            <AltitudeMeters>2101.60009765625</AltitudeMeters>
            <DistanceMeters>NAN</DistanceMeters>
          </Trackpoint>
          <Trackpoint>
            <Time>2021-08-03T05:37:45.000Z</Time>
            <Position>
              <LatitudeDegrees>-15.3550466336309909820556640625</LatitudeDegrees>
              <LongitudeDegrees>37.06852597184479236602783203125</LongitudeDegrees>
            </Position>
            <AltitudeMeters>2102</AltitudeMeters>
            <DistanceMeters>NAN</DistanceMeters>
          </Trackpoint>
          <Trackpoint>
            <Time>2021-08-03T05:37:47.000Z</Time>
            <Position>
              <LatitudeDegrees>-15.3550466336309909820556640625</LatitudeDegrees>
              <LongitudeDegrees>37.06852597184479236602783203125</LongitudeDegrees>
            </Position>
            <AltitudeMeters>2102</AltitudeMeters>
            <DistanceMeters>NAN</DistanceMeters>
          </Trackpoint>
          <Trackpoint>
            <Time>2021-08-03T05:37:54.000Z</Time>
            <Position>
              <LatitudeDegrees>-15.35504453815519809722900390625</LatitudeDegrees>
              <LongitudeDegrees>37.06852597184479236602783203125</LongitudeDegrees>
            </Position>
            <AltitudeMeters>2101.60009765625</AltitudeMeters>
            <DistanceMeters>NAN</DistanceMeters>
          </Trackpoint>
          <Trackpoint>
            <Time>2021-08-03T05:38:00.000Z</Time>
            <Position>
              <LatitudeDegrees>-15.35503414459526538848876953125</LatitudeDegrees>
              <LongitudeDegrees>37.0685176737606525421142578125</LongitudeDegrees>
            </Position>
            <AltitudeMeters>2102.39990234375</AltitudeMeters>
            <DistanceMeters>NAN</DistanceMeters>
          </Trackpoint>
          <Trackpoint>
            <Time>2021-08-03T05:38:20.000Z</Time>
            <Position>
              <LatitudeDegrees>-15.35503112711012363433837890625</LatitudeDegrees>
              <LongitudeDegrees>37.0685253851115703582763671875</LongitudeDegrees>
            </Position>
            <AltitudeMeters>2102.60009765625</AltitudeMeters>
            <DistanceMeters>NAN</DistanceMeters>
          </Trackpoint>
          <Trackpoint>
            <Time>2021-08-03T05:38:25.000Z</Time>
            <Position>
              <LatitudeDegrees>-15.35503062419593334197998046875</LatitudeDegrees>
              <LongitudeDegrees>37.06853418610990047454833984375</LongitudeDegrees>
            </Position>
            <AltitudeMeters>2102.39990234375</AltitudeMeters>
            <DistanceMeters>NAN</DistanceMeters>
          </Trackpoint>
          <Trackpoint>
            <Time>2021-08-03T05:38:29.000Z</Time>
            <Position>
              <LatitudeDegrees>-15.35502844490110874176025390625</LatitudeDegrees>
              <LongitudeDegrees>37.06853904761373996734619140625</LongitudeDegrees>
            </Position>
            <AltitudeMeters>2101.60009765625</AltitudeMeters>
            <DistanceMeters>NAN</DistanceMeters>
          </Trackpoint>
          <Trackpoint>
            <Time>2021-08-03T05:38:32.000Z</Time>
            <Position>
              <LatitudeDegrees>-15.35502676852047443389892578125</LatitudeDegrees>
              <LongitudeDegrees>37.068541310727596282958984375</LongitudeDegrees>
            </Position>
            <AltitudeMeters>2101.39990234375</AltitudeMeters>
            <DistanceMeters>NAN</DistanceMeters>
          </Trackpoint>
          <Trackpoint>
            <Time>2021-08-03T05:38:33.000Z</Time>
            <Position>
              <LatitudeDegrees>-15.35502643324434757232666015625</LatitudeDegrees>
              <LongitudeDegrees>37.06854340620338916778564453125</LongitudeDegrees>
            </Position>
            <AltitudeMeters>2101.39990234375</AltitudeMeters>
            <DistanceMeters>NAN</DistanceMeters>
          </Trackpoint>
          <Trackpoint>
            <Time>2021-08-03T05:38:42.000Z</Time>
            <Position>
              <LatitudeDegrees>-15.35502358339726924896240234375</LatitudeDegrees>
              <LongitudeDegrees>37.06855648197233676910400390625</LongitudeDegrees>
            </Position>
            <AltitudeMeters>2101.39990234375</AltitudeMeters>
            <DistanceMeters>NAN</DistanceMeters>
          </Trackpoint>
          <Trackpoint>
            <Time>2021-08-03T05:38:44.000Z</Time>
            <Position>
              <LatitudeDegrees>-15.35502257756888866424560546875</LatitudeDegrees>
              <LongitudeDegrees>37.06855840981006622314453125</LongitudeDegrees>
            </Position>
            <AltitudeMeters>2101.39990234375</AltitudeMeters>
            <DistanceMeters>NAN</DistanceMeters>
          </Trackpoint>
          <Trackpoint>
            <Time>2021-08-03T05:38:49.000Z</Time>
            <Position>
              <LatitudeDegrees>-15.3550201468169689178466796875</LatitudeDegrees>
              <LongitudeDegrees>37.06856486387550830841064453125</LongitudeDegrees>
            </Position>
            <AltitudeMeters>2101.39990234375</AltitudeMeters>
            <DistanceMeters>NAN</DistanceMeters>
          </Trackpoint>
          <Trackpoint>
            <Time>2021-08-03T05:38:55.000Z</Time>
            <Position>
              <LatitudeDegrees>-15.3550188057124614715576171875</LatitudeDegrees>
              <LongitudeDegrees>37.0685656182467937469482421875</LongitudeDegrees>
            </Position>
            <AltitudeMeters>2101.39990234375</AltitudeMeters>
            <DistanceMeters>NAN</DistanceMeters>
          </Trackpoint>
          <Trackpoint>
            <Time>2021-08-03T05:38:58.000Z</Time>
            <Position>
              <LatitudeDegrees>-15.3550171293318271636962890625</LatitudeDegrees>
              <LongitudeDegrees>37.0685656182467937469482421875</LongitudeDegrees>
            </Position>
            <AltitudeMeters>2101.39990234375</AltitudeMeters>
            <DistanceMeters>NAN</DistanceMeters>
          </Trackpoint>
          <Trackpoint>
            <Time>2021-08-03T05:39:17.000Z</Time>
            <Position>
              <LatitudeDegrees>-15.35501184873282909393310546875</LatitudeDegrees>
              <LongitudeDegrees>37.06855229102075099945068359375</LongitudeDegrees>
            </Position>
            <AltitudeMeters>2101.39990234375</AltitudeMeters>
            <DistanceMeters>NAN</DistanceMeters>
          </Trackpoint>
          <Trackpoint>
            <Time>2021-08-03T05:39:20.000Z</Time>
            <Position>
              <LatitudeDegrees>-15.3550121001899242401123046875</LatitudeDegrees>
              <LongitudeDegrees>37.06855170428752899169921875</LongitudeDegrees>
            </Position>
            <AltitudeMeters>2101.39990234375</AltitudeMeters>
            <DistanceMeters>NAN</DistanceMeters>
          </Trackpoint>
          <Trackpoint>
            <Time>2021-08-03T05:39:23.000Z</Time>
            <Position>
              <LatitudeDegrees>-15.35501335747539997100830078125</LatitudeDegrees>
              <LongitudeDegrees>37.06855279393494129180908203125</LongitudeDegrees>
            </Position>
            <AltitudeMeters>2101.39990234375</AltitudeMeters>
            <DistanceMeters>NAN</DistanceMeters>
          </Trackpoint>
          <Trackpoint>
            <Time>2021-08-03T05:39:25.000Z</Time>
            <Position>
              <LatitudeDegrees>-15.3550134412944316864013671875</LatitudeDegrees>
              <LongitudeDegrees>37.06855162046849727630615234375</LongitudeDegrees>
            </Position>
            <AltitudeMeters>2101.39990234375</AltitudeMeters>
            <DistanceMeters>NAN</DistanceMeters>
          </Trackpoint>
          <Trackpoint>
            <Time>2021-08-03T05:39:28.000Z</Time>
            <Position>
              <LatitudeDegrees>-15.3550291992723941802978515625</LatitudeDegrees>
              <LongitudeDegrees>37.06854742951691150665283203125</LongitudeDegrees>
            </Position>
            <AltitudeMeters>2101.39990234375</AltitudeMeters>
            <DistanceMeters>NAN</DistanceMeters>
          </Trackpoint>
          <Trackpoint>
            <Time>2021-08-03T05:39:31.000Z</Time>
            <Position>
              <LatitudeDegrees>-15.3550412692129611968994140625</LatitudeDegrees>
              <LongitudeDegrees>37.06854424439370632171630859375</LongitudeDegrees>
            </Position>
            <AltitudeMeters>2101.39990234375</AltitudeMeters>
            <DistanceMeters>NAN</DistanceMeters>
          </Trackpoint>
          <Trackpoint>
            <Time>2021-08-03T05:39:35.000Z</Time>
            <Position>
              <LatitudeDegrees>-15.35504118539392948150634765625</LatitudeDegrees>
              <LongitudeDegrees>37.0685733295977115631103515625</LongitudeDegrees>
            </Position>
            <AltitudeMeters>2101.39990234375</AltitudeMeters>
            <DistanceMeters>NAN</DistanceMeters>
          </Trackpoint>
          <Trackpoint>
            <Time>2021-08-03T05:39:36.000Z</Time>
            <Position>
              <LatitudeDegrees>-15.3550402633845806121826171875</LatitudeDegrees>
              <LongitudeDegrees>37.06857508979737758636474609375</LongitudeDegrees>
            </Position>
            <AltitudeMeters>2101.39990234375</AltitudeMeters>
            <DistanceMeters>NAN</DistanceMeters>
          </Trackpoint>
          <Trackpoint>
            <Time>2021-08-03T05:39:37.000Z</Time>
            <Position>
              <LatitudeDegrees>-15.35504789091646671295166015625</LatitudeDegrees>
              <LongitudeDegrees>37.06858213059604167938232421875</LongitudeDegrees>
            </Position>
            <AltitudeMeters>2101.39990234375</AltitudeMeters>
            <DistanceMeters>NAN</DistanceMeters>
          </Trackpoint>
          <Trackpoint>
            <Time>2021-08-03T05:39:39.000Z</Time>
            <Position>
              <LatitudeDegrees>-15.3550565242767333984375</LatitudeDegrees>
              <LongitudeDegrees>37.06859420053660869598388671875</LongitudeDegrees>
            </Position>
            <AltitudeMeters>2101.39990234375</AltitudeMeters>
            <DistanceMeters>NAN</DistanceMeters>
          </Trackpoint>
          <Trackpoint>
            <Time>2021-08-03T05:39:41.000Z</Time>
            <Position>
              <LatitudeDegrees>-15.35504235886037349700927734375</LatitudeDegrees>
              <LongitudeDegrees>37.06858498044312000274658203125</LongitudeDegrees>
            </Position>
            <AltitudeMeters>2101.800048828125</AltitudeMeters>
            <DistanceMeters>NAN</DistanceMeters>
          </Trackpoint>
          <Trackpoint>
            <Time>2021-08-03T05:39:42.000Z</Time>
            <Position>
              <LatitudeDegrees>-15.355030708014965057373046875</LatitudeDegrees>
              <LongitudeDegrees>37.0685807056725025177001953125</LongitudeDegrees>
            </Position>
            <AltitudeMeters>2103</AltitudeMeters>
            <DistanceMeters>NAN</DistanceMeters>
          </Trackpoint>
          <Trackpoint>
            <Time>2021-08-03T05:39:46.000Z</Time>
            <Position>
              <LatitudeDegrees>-15.35501293838024139404296875</LatitudeDegrees>
              <LongitudeDegrees>37.06859084777534008026123046875</LongitudeDegrees>
            </Position>
            <AltitudeMeters>2102.60009765625</AltitudeMeters>
            <DistanceMeters>NAN</DistanceMeters>
          </Trackpoint>
          <Trackpoint>
            <Time>2021-08-03T05:39:48.000Z</Time>
            <Position>
              <LatitudeDegrees>-15.35500891506671905517578125</LatitudeDegrees>
              <LongitudeDegrees>37.06859269179403781890869140625</LongitudeDegrees>
            </Position>
            <AltitudeMeters>2102.60009765625</AltitudeMeters>
            <DistanceMeters>NAN</DistanceMeters>
          </Trackpoint>
          <Trackpoint>
            <Time>2021-08-03T05:39:54.000Z</Time>
            <Position>
              <LatitudeDegrees>-15.3550157882273197174072265625</LatitudeDegrees>
              <LongitudeDegrees>37.06860174424946308135986328125</LongitudeDegrees>
            </Position>
            <AltitudeMeters>2101.60009765625</AltitudeMeters>
            <DistanceMeters>NAN</DistanceMeters>
          </Trackpoint>
          <Trackpoint>
            <Time>2021-08-03T05:39:55.000Z</Time>
            <Position>
              <LatitudeDegrees>-15.35501469857990741729736328125</LatitudeDegrees>
              <LongitudeDegrees>37.06860258243978023529052734375</LongitudeDegrees>
            </Position>
            <AltitudeMeters>2101.199951171875</AltitudeMeters>
            <DistanceMeters>NAN</DistanceMeters>
          </Trackpoint>
          <Trackpoint>
            <Time>2021-08-03T05:39:59.000Z</Time>
            <Position>
              <LatitudeDegrees>-15.35500413738191127777099609375</LatitudeDegrees>
              <LongitudeDegrees>37.0686296559870243072509765625</LongitudeDegrees>
            </Position>
            <AltitudeMeters>2100.800048828125</AltitudeMeters>
            <DistanceMeters>NAN</DistanceMeters>
          </Trackpoint>
          <Trackpoint>
            <Time>2021-08-03T05:40:01.000Z</Time>
            <Position>
              <LatitudeDegrees>-15.355002880096435546875</LatitudeDegrees>
              <LongitudeDegrees>37.06863493658602237701416015625</LongitudeDegrees>
            </Position>
            <AltitudeMeters>2100.39990234375</AltitudeMeters>
            <DistanceMeters>NAN</DistanceMeters>
          </Trackpoint>
          <Trackpoint>
            <Time>2021-08-03T05:40:02.000Z</Time>
            <Position>
              <LatitudeDegrees>-15.35499558784067630767822265625</LatitudeDegrees>
              <LongitudeDegrees>37.0686330087482929229736328125</LongitudeDegrees>
            </Position>
            <AltitudeMeters>2100.39990234375</AltitudeMeters>
            <DistanceMeters>NAN</DistanceMeters>
          </Trackpoint>
          <Trackpoint>
            <Time>2021-08-03T05:40:04.000Z</Time>
            <Position>
              <LatitudeDegrees>-15.3549899719655513763427734375</LatitudeDegrees>
              <LongitudeDegrees>37.06863342784345149993896484375</LongitudeDegrees>
            </Position>
            <AltitudeMeters>2100.39990234375</AltitudeMeters>
            <DistanceMeters>NAN</DistanceMeters>
          </Trackpoint>
          <Trackpoint>
            <Time>2021-08-03T05:40:08.000Z</Time>
            <Position>
              <LatitudeDegrees>-15.3549822606146335601806640625</LatitudeDegrees>
              <LongitudeDegrees>37.06862722523510456085205078125</LongitudeDegrees>
            </Position>
            <AltitudeMeters>2100.39990234375</AltitudeMeters>
            <DistanceMeters>NAN</DistanceMeters>
          </Trackpoint>
          <Trackpoint>
            <Time>2021-08-03T05:40:11.000Z</Time>
            <Position>
              <LatitudeDegrees>-15.35497345961630344390869140625</LatitudeDegrees>
              <LongitudeDegrees>37.06862538121640682220458984375</LongitudeDegrees>
            </Position>
            <AltitudeMeters>2100</AltitudeMeters>
            <DistanceMeters>NAN</DistanceMeters>
          </Trackpoint>
          <Trackpoint>
            <Time>2021-08-03T05:40:16.000Z</Time>
            <Position>
              <LatitudeDegrees>-15.35495837219059467315673828125</LatitudeDegrees>
              <LongitudeDegrees>37.06862621940672397613525390625</LongitudeDegrees>
            </Position>
            <AltitudeMeters>2099.39990234375</AltitudeMeters>
            <DistanceMeters>NAN</DistanceMeters>
          </Trackpoint>
          <Trackpoint>
            <Time>2021-08-03T05:40:18.000Z</Time>
            <Position>
              <LatitudeDegrees>-15.3549658320844173431396484375</LatitudeDegrees>
              <LongitudeDegrees>37.068629153072834014892578125</LongitudeDegrees>
            </Position>
            <AltitudeMeters>2098.60009765625</AltitudeMeters>
            <DistanceMeters>NAN</DistanceMeters>
          </Trackpoint>
          <Trackpoint>
            <Time>2021-08-03T05:40:24.000Z</Time>
            <Position>
              <LatitudeDegrees>-15.35499592311680316925048828125</LatitudeDegrees>
              <LongitudeDegrees>37.068632505834102630615234375</LongitudeDegrees>
            </Position>
            <AltitudeMeters>2098.39990234375</AltitudeMeters>
            <DistanceMeters>NAN</DistanceMeters>
          </Trackpoint>
          <Trackpoint>
            <Time>2021-08-03T05:40:25.000Z</Time>
            <Position>
              <LatitudeDegrees>-15.354996509850025177001953125</LatitudeDegrees>
              <LongitudeDegrees>37.06863275729119777679443359375</LongitudeDegrees>
            </Position>
            <AltitudeMeters>2098.39990234375</AltitudeMeters>
            <DistanceMeters>NAN</DistanceMeters>
          </Trackpoint>
          <Trackpoint>
            <Time>2021-08-03T05:40:29.000Z</Time>
            <Position>
              <LatitudeDegrees>-15.35499173216521739959716796875</LatitudeDegrees>
              <LongitudeDegrees>37.0686309970915317535400390625</LongitudeDegrees>
            </Position>
            <AltitudeMeters>2097.800048828125</AltitudeMeters>
            <DistanceMeters>NAN</DistanceMeters>
          </Trackpoint>
          <Trackpoint>
            <Time>2021-08-03T05:40:31.000Z</Time>
            <Position>
              <LatitudeDegrees>-15.354990474879741668701171875</LatitudeDegrees>
              <LongitudeDegrees>37.068635188043117523193359375</LongitudeDegrees>
            </Position>
            <AltitudeMeters>2097.60009765625</AltitudeMeters>
            <DistanceMeters>NAN</DistanceMeters>
          </Trackpoint>
          <Trackpoint>
            <Time>2021-08-03T05:40:34.000Z</Time>
            <Position>
              <LatitudeDegrees>-15.3549889661371707916259765625</LatitudeDegrees>
              <LongitudeDegrees>37.068637870252132415771484375</LongitudeDegrees>
            </Position>
            <AltitudeMeters>2097.199951171875</AltitudeMeters>
            <DistanceMeters>NAN</DistanceMeters>
          </Trackpoint>
          <Trackpoint>
            <Time>2021-08-03T05:40:36.000Z</Time>
            <Position>
              <LatitudeDegrees>-15.354989133775234222412109375</LatitudeDegrees>
              <LongitudeDegrees>37.06864449195563793182373046875</LongitudeDegrees>
            </Position>
            <AltitudeMeters>2097.199951171875</AltitudeMeters>
            <DistanceMeters>NAN</DistanceMeters>
          </Trackpoint>
          <Trackpoint>
            <Time>2021-08-03T05:40:44.000Z</Time>
            <Position>
              <LatitudeDegrees>-15.35498770885169506072998046875</LatitudeDegrees>
              <LongitudeDegrees>37.06864583306014537811279296875</LongitudeDegrees>
            </Position>
            <AltitudeMeters>2096.39990234375</AltitudeMeters>
            <DistanceMeters>NAN</DistanceMeters>
          </Trackpoint>
          <Trackpoint>
            <Time>2021-08-03T05:40:46.000Z</Time>
            <Position>
              <LatitudeDegrees>-15.35498770885169506072998046875</LatitudeDegrees>
              <LongitudeDegrees>37.06864583306014537811279296875</LongitudeDegrees>
            </Position>
            <AltitudeMeters>2096.199951171875</AltitudeMeters>
            <DistanceMeters>NAN</DistanceMeters>
          </Trackpoint>
          <Trackpoint>
            <Time>2021-08-03T05:40:53.000Z</Time>
            <Position>
              <LatitudeDegrees>-15.35498603247106075286865234375</LatitudeDegrees>
              <LongitudeDegrees>37.06864851526916027069091796875</LongitudeDegrees>
            </Position>
            <AltitudeMeters>2094.800048828125</AltitudeMeters>
            <DistanceMeters>NAN</DistanceMeters>
          </Trackpoint>
          <Trackpoint>
            <Time>2021-08-03T05:40:58.000Z</Time>
            <Position>
              <LatitudeDegrees>-15.35497806966304779052734375</LatitudeDegrees>
              <LongitudeDegrees>37.0686537958681583404541015625</LongitudeDegrees>
            </Position>
            <AltitudeMeters>2094.199951171875</AltitudeMeters>
            <DistanceMeters>NAN</DistanceMeters>
          </Trackpoint>
          <Trackpoint>
            <Time>2021-08-03T05:41:07.000Z</Time>
            <Position>
              <LatitudeDegrees>-15.3549661673605442047119140625</LatitudeDegrees>
              <LongitudeDegrees>37.06868925131857395172119140625</LongitudeDegrees>
            </Position>
            <AltitudeMeters>2094.199951171875</AltitudeMeters>
            <DistanceMeters>NAN</DistanceMeters>
          </Trackpoint>
          <Trackpoint>
            <Time>2021-08-03T05:41:11.000Z</Time>
            <Position>
              <LatitudeDegrees>-15.354960300028324127197265625</LatitudeDegrees>
              <LongitudeDegrees>37.06869595684111118316650390625</LongitudeDegrees>
            </Position>
            <AltitudeMeters>2093.39990234375</AltitudeMeters>
            <DistanceMeters>NAN</DistanceMeters>
          </Trackpoint>
          <Trackpoint>
            <Time>2021-08-03T05:41:16.000Z</Time>
            <Position>
              <LatitudeDegrees>-15.35495602525770664215087890625</LatitudeDegrees>
              <LongitudeDegrees>37.0687047578394412994384765625</LongitudeDegrees>
            </Position>
            <AltitudeMeters>2092.60009765625</AltitudeMeters>
            <DistanceMeters>NAN</DistanceMeters>
          </Trackpoint>
          <Trackpoint>
            <Time>2021-08-03T05:41:17.000Z</Time>
            <Position>
              <LatitudeDegrees>-15.35495334304869174957275390625</LatitudeDegrees>
              <LongitudeDegrees>37.0687158219516277313232421875</LongitudeDegrees>
            </Position>
            <AltitudeMeters>2092.199951171875</AltitudeMeters>
            <DistanceMeters>NAN</DistanceMeters>
          </Trackpoint>
          <Trackpoint>
            <Time>2021-08-03T05:41:21.000Z</Time>
            <Position>
              <LatitudeDegrees>-15.354939512908458709716796875</LatitudeDegrees>
              <LongitudeDegrees>37.0687523670494556427001953125</LongitudeDegrees>
            </Position>
            <AltitudeMeters>2091.199951171875</AltitudeMeters>
            <DistanceMeters>NAN</DistanceMeters>
          </Trackpoint>
          <Trackpoint>
            <Time>2021-08-03T05:41:22.000Z</Time>
            <Position>
              <LatitudeDegrees>-15.354942865669727325439453125</LatitudeDegrees>
              <LongitudeDegrees>37.0687600784003734588623046875</LongitudeDegrees>
            </Position>
            <AltitudeMeters>2091.199951171875</AltitudeMeters>
            <DistanceMeters>NAN</DistanceMeters>
          </Trackpoint>
          <Trackpoint>
            <Time>2021-08-03T05:41:25.000Z</Time>
            <Position>
              <LatitudeDegrees>-15.35491545684635639190673828125</LatitudeDegrees>
              <LongitudeDegrees>37.068763263523578643798828125</LongitudeDegrees>
            </Position>
            <AltitudeMeters>2091</AltitudeMeters>
            <DistanceMeters>NAN</DistanceMeters>
          </Trackpoint>
          <Trackpoint>
            <Time>2021-08-03T05:41:29.000Z</Time>
            <Position>
              <LatitudeDegrees>-15.35490967333316802978515625</LatitudeDegrees>
              <LongitudeDegrees>37.06874272786080837249755859375</LongitudeDegrees>
            </Position>
            <AltitudeMeters>2090.39990234375</AltitudeMeters>
            <DistanceMeters>NAN</DistanceMeters>
          </Trackpoint>
          <Trackpoint>
            <Time>2021-08-03T05:41:32.000Z</Time>
            <Position>
              <LatitudeDegrees>-15.35491579212248325347900390625</LatitudeDegrees>
              <LongitudeDegrees>37.06874473951756954193115234375</LongitudeDegrees>
            </Position>
            <AltitudeMeters>2090</AltitudeMeters>
            <DistanceMeters>NAN</DistanceMeters>
          </Trackpoint>
          <Trackpoint>
            <Time>2021-08-03T05:41:35.000Z</Time>
            <Position>
              <LatitudeDegrees>-15.3549084998667240142822265625</LatitudeDegrees>
              <LongitudeDegrees>37.0687433145940303802490234375</LongitudeDegrees>
            </Position>
            <AltitudeMeters>2090</AltitudeMeters>
            <DistanceMeters>NAN</DistanceMeters>
          </Trackpoint>
          <Trackpoint>
            <Time>2021-08-03T05:41:39.000Z</Time>
            <Position>
              <LatitudeDegrees>-15.3548907302320003509521484375</LatitudeDegrees>
              <LongitudeDegrees>37.06873669289052486419677734375</LongitudeDegrees>
            </Position>
            <AltitudeMeters>2089.800048828125</AltitudeMeters>
            <DistanceMeters>NAN</DistanceMeters>
          </Trackpoint>
          <Trackpoint>
            <Time>2021-08-03T05:41:44.000Z</Time>
            <Position>
              <LatitudeDegrees>-15.3548709489405155181884765625</LatitudeDegrees>
              <LongitudeDegrees>37.06874750554561614990234375</LongitudeDegrees>
            </Position>
            <AltitudeMeters>2089</AltitudeMeters>
            <DistanceMeters>NAN</DistanceMeters>
          </Trackpoint>
          <Trackpoint>
            <Time>2021-08-03T05:41:45.000Z</Time>
            <Position>
              <LatitudeDegrees>-15.35487203858792781829833984375</LatitudeDegrees>
              <LongitudeDegrees>37.06874482333660125732421875</LongitudeDegrees>
            </Position>
            <AltitudeMeters>2089</AltitudeMeters>
            <DistanceMeters>NAN</DistanceMeters>
          </Trackpoint>
          <Trackpoint>
            <Time>2021-08-03T05:41:53.000Z</Time>
            <Position>
              <LatitudeDegrees>-15.3548736311495304107666015625</LatitudeDegrees>
              <LongitudeDegrees>37.068747840821743011474609375</LongitudeDegrees>
            </Position>
            <AltitudeMeters>2088.39990234375</AltitudeMeters>
            <DistanceMeters>NAN</DistanceMeters>
          </Trackpoint>
          <Trackpoint>
            <Time>2021-08-03T05:41:57.000Z</Time>
            <Position>
              <LatitudeDegrees>-15.3548736311495304107666015625</LatitudeDegrees>
              <LongitudeDegrees>37.068747840821743011474609375</LongitudeDegrees>
            </Position>
            <AltitudeMeters>2088.199951171875</AltitudeMeters>
            <DistanceMeters>NAN</DistanceMeters>
          </Trackpoint>
          <Trackpoint>
            <Time>2021-08-03T05:42:00.000Z</Time>
            <Position>
              <LatitudeDegrees>-15.3548736311495304107666015625</LatitudeDegrees>
              <LongitudeDegrees>37.068747840821743011474609375</LongitudeDegrees>
            </Position>
            <AltitudeMeters>2088.199951171875</AltitudeMeters>
            <DistanceMeters>NAN</DistanceMeters>
          </Trackpoint>
          <Trackpoint>
            <Time>2021-08-03T05:42:02.000Z</Time>
            <Position>
              <LatitudeDegrees>-15.35487321205437183380126953125</LatitudeDegrees>
              <LongitudeDegrees>37.068747840821743011474609375</LongitudeDegrees>
            </Position>
            <AltitudeMeters>2088</AltitudeMeters>
            <DistanceMeters>NAN</DistanceMeters>
          </Trackpoint>
          <Trackpoint>
            <Time>2021-08-03T05:42:10.000Z</Time>
            <Position>
              <LatitudeDegrees>-15.354860387742519378662109375</LatitudeDegrees>
              <LongitudeDegrees>37.06876183860003948211669921875</LongitudeDegrees>
            </Position>
            <AltitudeMeters>2087</AltitudeMeters>
            <DistanceMeters>NAN</DistanceMeters>
          </Trackpoint>
          <Trackpoint>
            <Time>2021-08-03T05:42:11.000Z</Time>
            <Position>
              <LatitudeDegrees>-15.35485980100929737091064453125</LatitudeDegrees>
              <LongitudeDegrees>37.0687620900571346282958984375</LongitudeDegrees>
            </Position>
            <AltitudeMeters>2087</AltitudeMeters>
            <DistanceMeters>NAN</DistanceMeters>
          </Trackpoint>
          <Trackpoint>
            <Time>2021-08-03T05:42:19.000Z</Time>
            <Position>
              <LatitudeDegrees>-15.3548541851341724395751953125</LatitudeDegrees>
              <LongitudeDegrees>37.06878145225346088409423828125</LongitudeDegrees>
            </Position>
            <AltitudeMeters>2087</AltitudeMeters>
            <DistanceMeters>NAN</DistanceMeters>
          </Trackpoint>
          <Trackpoint>
            <Time>2021-08-03T05:42:29.000Z</Time>
            <Position>
              <LatitudeDegrees>-15.354840941727161407470703125</LatitudeDegrees>
              <LongitudeDegrees>37.06879578530788421630859375</LongitudeDegrees>
            </Position>
            <AltitudeMeters>2085.39990234375</AltitudeMeters>
            <DistanceMeters>NAN</DistanceMeters>
          </Trackpoint>
          <Trackpoint>
            <Time>2021-08-03T05:42:36.000Z</Time>
            <Position>
              <LatitudeDegrees>-15.3548377566039562225341796875</LatitudeDegrees>
              <LongitudeDegrees>37.06880810670554637908935546875</LongitudeDegrees>
            </Position>
            <AltitudeMeters>2084.800048828125</AltitudeMeters>
            <DistanceMeters>NAN</DistanceMeters>
          </Trackpoint>
          <Trackpoint>
            <Time>2021-08-03T05:42:39.000Z</Time>
            <Position>
              <LatitudeDegrees>-15.35483666695654392242431640625</LatitudeDegrees>
              <LongitudeDegrees>37.06881447695195674896240234375</LongitudeDegrees>
            </Position>
            <AltitudeMeters>2084.199951171875</AltitudeMeters>
            <DistanceMeters>NAN</DistanceMeters>
          </Trackpoint>
          <Trackpoint>
            <Time>2021-08-03T05:42:44.000Z</Time>
            <Position>
              <LatitudeDegrees>-15.3548478148877620697021484375</LatitudeDegrees>
              <LongitudeDegrees>37.06883643753826618194580078125</LongitudeDegrees>
            </Position>
            <AltitudeMeters>2083.800048828125</AltitudeMeters>
            <DistanceMeters>NAN</DistanceMeters>
          </Trackpoint>
          <Trackpoint>
            <Time>2021-08-03T05:42:50.000Z</Time>
            <Position>
              <LatitudeDegrees>-15.35485778935253620147705078125</LatitudeDegrees>
              <LongitudeDegrees>37.0688894949853420257568359375</LongitudeDegrees>
            </Position>
            <AltitudeMeters>2084</AltitudeMeters>
            <DistanceMeters>NAN</DistanceMeters>
          </Trackpoint>
          <Trackpoint>
            <Time>2021-08-03T05:42:56.000Z</Time>
            <Position>
              <LatitudeDegrees>-15.35486013628542423248291015625</LatitudeDegrees>
              <LongitudeDegrees>37.0689186640083789825439453125</LongitudeDegrees>
            </Position>
            <AltitudeMeters>2083.800048828125</AltitudeMeters>
            <DistanceMeters>NAN</DistanceMeters>
          </Trackpoint>
          <Trackpoint>
            <Time>2021-08-03T05:43:01.000Z</Time>
            <Position>
              <LatitudeDegrees>-15.35485737025737762451171875</LatitudeDegrees>
              <LongitudeDegrees>37.06894238479435443878173828125</LongitudeDegrees>
            </Position>
            <AltitudeMeters>2084</AltitudeMeters>
            <DistanceMeters>NAN</DistanceMeters>
          </Trackpoint>
          <Trackpoint>
            <Time>2021-08-03T05:43:02.000Z</Time>
            <Position>
              <LatitudeDegrees>-15.3548572026193141937255859375</LatitudeDegrees>
              <LongitudeDegrees>37.068953029811382293701171875</LongitudeDegrees>
            </Position>
            <AltitudeMeters>2084</AltitudeMeters>
            <DistanceMeters>NAN</DistanceMeters>
          </Trackpoint>
          <Trackpoint>
            <Time>2021-08-03T05:43:08.000Z</Time>
            <Position>
              <LatitudeDegrees>-15.3548565320670604705810546875</LatitudeDegrees>
              <LongitudeDegrees>37.068985216319561004638671875</LongitudeDegrees>
            </Position>
            <AltitudeMeters>2083</AltitudeMeters>
            <DistanceMeters>NAN</DistanceMeters>
          </Trackpoint>
          <Trackpoint>
            <Time>2021-08-03T05:43:09.000Z</Time>
            <Position>
              <LatitudeDegrees>-15.35485561005771160125732421875</LatitudeDegrees>
              <LongitudeDegrees>37.068993933498859405517578125</LongitudeDegrees>
            </Position>
            <AltitudeMeters>2083</AltitudeMeters>
            <DistanceMeters>NAN</DistanceMeters>
          </Trackpoint>
          <Trackpoint>
            <Time>2021-08-03T05:43:13.000Z</Time>
            <Position>
              <LatitudeDegrees>-15.3548454679548740386962890625</LatitudeDegrees>
              <LongitudeDegrees>37.0690242759883403778076171875</LongitudeDegrees>
            </Position>
            <AltitudeMeters>2082.39990234375</AltitudeMeters>
            <DistanceMeters>NAN</DistanceMeters>
          </Trackpoint>
          <Trackpoint>
            <Time>2021-08-03T05:43:15.000Z</Time>
            <Position>
              <LatitudeDegrees>-15.354838930070400238037109375</LatitudeDegrees>
              <LongitudeDegrees>37.06904481165111064910888671875</LongitudeDegrees>
            </Position>
            <AltitudeMeters>2082</AltitudeMeters>
            <DistanceMeters>NAN</DistanceMeters>
          </Trackpoint>
          <Trackpoint>
            <Time>2021-08-03T05:43:19.000Z</Time>
            <Position>
              <LatitudeDegrees>-15.35482912324368953704833984375</LatitudeDegrees>
              <LongitudeDegrees>37.0690692029893398284912109375</LongitudeDegrees>
            </Position>
            <AltitudeMeters>2080.60009765625</AltitudeMeters>
            <DistanceMeters>NAN</DistanceMeters>
          </Trackpoint>
          <Trackpoint>
            <Time>2021-08-03T05:43:20.000Z</Time>
            <Position>
              <LatitudeDegrees>-15.35483197309076786041259765625</LatitudeDegrees>
              <LongitudeDegrees>37.06907741725444793701171875</LongitudeDegrees>
            </Position>
            <AltitudeMeters>2080.39990234375</AltitudeMeters>
            <DistanceMeters>NAN</DistanceMeters>
          </Trackpoint>
          <Trackpoint>
            <Time>2021-08-03T05:43:22.000Z</Time>
            <Position>
              <LatitudeDegrees>-15.3548340685665607452392578125</LatitudeDegrees>
              <LongitudeDegrees>37.06909644417464733123779296875</LongitudeDegrees>
            </Position>
            <AltitudeMeters>2080</AltitudeMeters>
            <DistanceMeters>NAN</DistanceMeters>
          </Trackpoint>
          <Trackpoint>
            <Time>2021-08-03T05:43:25.000Z</Time>
            <Position>
              <LatitudeDegrees>-15.3548280335962772369384765625</LatitudeDegrees>
              <LongitudeDegrees>37.06911656074225902557373046875</LongitudeDegrees>
            </Position>
            <AltitudeMeters>2079.60009765625</AltitudeMeters>
            <DistanceMeters>NAN</DistanceMeters>
          </Trackpoint>
          <Trackpoint>
            <Time>2021-08-03T05:43:29.000Z</Time>
            <Position>
              <LatitudeDegrees>-15.3548280335962772369384765625</LatitudeDegrees>
              <LongitudeDegrees>37.06914606504142284393310546875</LongitudeDegrees>
            </Position>
            <AltitudeMeters>2079.199951171875</AltitudeMeters>
            <DistanceMeters>NAN</DistanceMeters>
          </Trackpoint>
          <Trackpoint>
            <Time>2021-08-03T05:43:35.000Z</Time>
            <Position>
              <LatitudeDegrees>-15.35481872968375682830810546875</LatitudeDegrees>
              <LongitudeDegrees>37.0691828615963459014892578125</LongitudeDegrees>
            </Position>
            <AltitudeMeters>2078.60009765625</AltitudeMeters>
            <DistanceMeters>NAN</DistanceMeters>
          </Trackpoint>
          <Trackpoint>
            <Time>2021-08-03T05:43:37.000Z</Time>
            <Position>
              <LatitudeDegrees>-15.3548233397305011749267578125</LatitudeDegrees>
              <LongitudeDegrees>37.06920272670686244964599609375</LongitudeDegrees>
            </Position>
            <AltitudeMeters>2078.60009765625</AltitudeMeters>
            <DistanceMeters>NAN</DistanceMeters>
          </Trackpoint>
          <Trackpoint>
            <Time>2021-08-03T05:43:38.000Z</Time>
            <Position>
              <LatitudeDegrees>-15.3548240102827548980712890625</LatitudeDegrees>
              <LongitudeDegrees>37.0692140422761440277099609375</LongitudeDegrees>
            </Position>
            <AltitudeMeters>2078.39990234375</AltitudeMeters>
            <DistanceMeters>NAN</DistanceMeters>
          </Trackpoint>
          <Trackpoint>
            <Time>2021-08-03T05:43:44.000Z</Time>
            <Position>
              <LatitudeDegrees>-15.3548082523047924041748046875</LatitudeDegrees>
              <LongitudeDegrees>37.0692445524036884307861328125</LongitudeDegrees>
            </Position>
            <AltitudeMeters>2077.60009765625</AltitudeMeters>
            <DistanceMeters>NAN</DistanceMeters>
          </Trackpoint>
          <Trackpoint>
            <Time>2021-08-03T05:43:46.000Z</Time>
            <Position>
              <LatitudeDegrees>-15.354799367487430572509765625</LatitudeDegrees>
              <LongitudeDegrees>37.06924664787948131561279296875</LongitudeDegrees>
            </Position>
            <AltitudeMeters>2077.199951171875</AltitudeMeters>
            <DistanceMeters>NAN</DistanceMeters>
          </Trackpoint>
          <Trackpoint>
            <Time>2021-08-03T05:43:49.000Z</Time>
            <Position>
              <LatitudeDegrees>-15.3547955118119716644287109375</LatitudeDegrees>
              <LongitudeDegrees>37.0692482404410839080810546875</LongitudeDegrees>
            </Position>
            <AltitudeMeters>2076.800048828125</AltitudeMeters>
            <DistanceMeters>NAN</DistanceMeters>
          </Trackpoint>
          <Trackpoint>
            <Time>2021-08-03T05:43:52.000Z</Time>
            <Position>
              <LatitudeDegrees>-15.354785285890102386474609375</LatitudeDegrees>
              <LongitudeDegrees>37.06925980746746063232421875</LongitudeDegrees>
            </Position>
            <AltitudeMeters>2076.199951171875</AltitudeMeters>
            <DistanceMeters>NAN</DistanceMeters>
          </Trackpoint>
          <Trackpoint>
            <Time>2021-08-03T05:43:55.000Z</Time>
            <Position>
              <LatitudeDegrees>-15.35477229394018650054931640625</LatitudeDegrees>
              <LongitudeDegrees>37.06927397288382053375244140625</LongitudeDegrees>
            </Position>
            <AltitudeMeters>2074.800048828125</AltitudeMeters>
            <DistanceMeters>NAN</DistanceMeters>
          </Trackpoint>
          <Trackpoint>
            <Time>2021-08-03T05:44:00.000Z</Time>
            <Position>
              <LatitudeDegrees>-15.35474999807775020599365234375</LatitudeDegrees>
              <LongitudeDegrees>37.06929107196629047393798828125</LongitudeDegrees>
            </Position>
            <AltitudeMeters>2074.199951171875</AltitudeMeters>
            <DistanceMeters>NAN</DistanceMeters>
          </Trackpoint>
          <Trackpoint>
            <Time>2021-08-03T05:44:03.000Z</Time>
            <Position>
              <LatitudeDegrees>-15.354732982814311981201171875</LatitudeDegrees>
              <LongitudeDegrees>37.0692988671362400054931640625</LongitudeDegrees>
            </Position>
            <AltitudeMeters>2073.199951171875</AltitudeMeters>
            <DistanceMeters>NAN</DistanceMeters>
          </Trackpoint>
          <Trackpoint>
            <Time>2021-08-03T05:44:07.000Z</Time>
            <Position>
              <LatitudeDegrees>-15.354742370545864105224609375</LatitudeDegrees>
              <LongitudeDegrees>37.0693302154541015625</LongitudeDegrees>
            </Position>
            <AltitudeMeters>2072.800048828125</AltitudeMeters>
            <DistanceMeters>NAN</DistanceMeters>
          </Trackpoint>
          <Trackpoint>
            <Time>2021-08-03T05:44:09.000Z</Time>
            <Position>
              <LatitudeDegrees>-15.354745388031005859375</LatitudeDegrees>
              <LongitudeDegrees>37.069349326193332672119140625</LongitudeDegrees>
            </Position>
            <AltitudeMeters>2072.199951171875</AltitudeMeters>
            <DistanceMeters>NAN</DistanceMeters>
          </Trackpoint>
          <Trackpoint>
            <Time>2021-08-03T05:44:11.000Z</Time>
            <Position>
              <LatitudeDegrees>-15.35474605858325958251953125</LatitudeDegrees>
              <LongitudeDegrees>37.0693572051823139190673828125</LongitudeDegrees>
            </Position>
            <AltitudeMeters>2070.800048828125</AltitudeMeters>
            <DistanceMeters>NAN</DistanceMeters>
          </Trackpoint>
          <Trackpoint>
            <Time>2021-08-03T05:44:13.000Z</Time>
            <Position>
              <LatitudeDegrees>-15.35474563948810100555419921875</LatitudeDegrees>
              <LongitudeDegrees>37.06936181522905826568603515625</LongitudeDegrees>
            </Position>
            <AltitudeMeters>2070.800048828125</AltitudeMeters>
            <DistanceMeters>NAN</DistanceMeters>
          </Trackpoint>
          <Trackpoint>
            <Time>2021-08-03T05:44:16.000Z</Time>
            <Position>
              <LatitudeDegrees>-15.3547458909451961517333984375</LatitudeDegrees>
              <LongitudeDegrees>37.0693605579435825347900390625</LongitudeDegrees>
            </Position>
            <AltitudeMeters>2071.199951171875</AltitudeMeters>
            <DistanceMeters>NAN</DistanceMeters>
          </Trackpoint>
          <Trackpoint>
            <Time>2021-08-03T05:44:27.000Z</Time>
            <Position>
              <LatitudeDegrees>-15.35473801195621490478515625</LatitudeDegrees>
              <LongitudeDegrees>37.0693652518093585968017578125</LongitudeDegrees>
            </Position>
            <AltitudeMeters>2071.199951171875</AltitudeMeters>
            <DistanceMeters>NAN</DistanceMeters>
          </Trackpoint>
          <Trackpoint>
            <Time>2021-08-03T05:44:33.000Z</Time>
            <Position>
              <LatitudeDegrees>-15.35474002361297607421875</LatitudeDegrees>
              <LongitudeDegrees>37.0693629048764705657958984375</LongitudeDegrees>
            </Position>
            <AltitudeMeters>2071.39990234375</AltitudeMeters>
            <DistanceMeters>NAN</DistanceMeters>
          </Trackpoint>
          <Trackpoint>
            <Time>2021-08-03T05:44:39.000Z</Time>
            <Position>
              <LatitudeDegrees>-15.35474228672683238983154296875</LatitudeDegrees>
              <LongitudeDegrees>37.06936248578131198883056640625</LongitudeDegrees>
            </Position>
            <AltitudeMeters>2071.800048828125</AltitudeMeters>
            <DistanceMeters>NAN</DistanceMeters>
          </Trackpoint>
          <Trackpoint>
            <Time>2021-08-03T05:44:42.000Z</Time>
            <Position>
              <LatitudeDegrees>-15.354742370545864105224609375</LatitudeDegrees>
              <LongitudeDegrees>37.06936248578131198883056640625</LongitudeDegrees>
            </Position>
            <AltitudeMeters>2071.60009765625</AltitudeMeters>
            <DistanceMeters>NAN</DistanceMeters>
          </Trackpoint>
          <Trackpoint>
            <Time>2021-08-03T05:44:45.000Z</Time>
            <Position>
              <LatitudeDegrees>-15.354742370545864105224609375</LatitudeDegrees>
              <LongitudeDegrees>37.06936349160969257354736328125</LongitudeDegrees>
            </Position>
            <AltitudeMeters>2071.39990234375</AltitudeMeters>
            <DistanceMeters>NAN</DistanceMeters>
          </Trackpoint>
          <Trackpoint>
            <Time>2021-08-03T05:44:52.000Z</Time>
            <Position>
              <LatitudeDegrees>-15.354742370545864105224609375</LatitudeDegrees>
              <LongitudeDegrees>37.06936382688581943511962890625</LongitudeDegrees>
            </Position>
            <AltitudeMeters>2072.199951171875</AltitudeMeters>
            <DistanceMeters>NAN</DistanceMeters>
          </Trackpoint>
          <Trackpoint>
            <Time>2021-08-03T05:45:00.000Z</Time>
            <Position>
              <LatitudeDegrees>-15.3547422029078006744384765625</LatitudeDegrees>
              <LongitudeDegrees>37.069364748895168304443359375</LongitudeDegrees>
            </Position>
            <AltitudeMeters>2072.60009765625</AltitudeMeters>
            <DistanceMeters>NAN</DistanceMeters>
          </Trackpoint>
          <Trackpoint>
            <Time>2021-08-03T05:45:01.000Z</Time>
            <Position>
              <LatitudeDegrees>-15.35474211908876895904541015625</LatitudeDegrees>
              <LongitudeDegrees>37.069364748895168304443359375</LongitudeDegrees>
            </Position>
            <AltitudeMeters>2072.60009765625</AltitudeMeters>
            <DistanceMeters>NAN</DistanceMeters>
          </Trackpoint>
          <Trackpoint>
            <Time>2021-08-03T05:45:04.000Z</Time>
            <Position>
              <LatitudeDegrees>-15.35474178381264209747314453125</LatitudeDegrees>
              <LongitudeDegrees>37.06936449743807315826416015625</LongitudeDegrees>
            </Position>
            <AltitudeMeters>2072.60009765625</AltitudeMeters>
            <DistanceMeters>NAN</DistanceMeters>
          </Trackpoint>
          <Trackpoint>
            <Time>2021-08-03T05:45:07.000Z</Time>
            <Position>
              <LatitudeDegrees>-15.35474178381264209747314453125</LatitudeDegrees>
              <LongitudeDegrees>37.0693635754287242889404296875</LongitudeDegrees>
            </Position>
            <AltitudeMeters>2072.60009765625</AltitudeMeters>
            <DistanceMeters>NAN</DistanceMeters>
          </Trackpoint>
          <Trackpoint>
            <Time>2021-08-03T05:45:14.000Z</Time>
            <Position>
              <LatitudeDegrees>-15.354742370545864105224609375</LatitudeDegrees>
              <LongitudeDegrees>37.06936231814324855804443359375</LongitudeDegrees>
            </Position>
            <AltitudeMeters>2072.39990234375</AltitudeMeters>
            <DistanceMeters>NAN</DistanceMeters>
          </Trackpoint>
          <Trackpoint>
            <Time>2021-08-03T05:45:17.000Z</Time>
            <Position>
              <LatitudeDegrees>-15.35474245436489582061767578125</LatitudeDegrees>
              <LongitudeDegrees>37.06936282105743885040283203125</LongitudeDegrees>
            </Position>
            <AltitudeMeters>2072.800048828125</AltitudeMeters>
            <DistanceMeters>NAN</DistanceMeters>
          </Trackpoint>
          <Trackpoint>
            <Time>2021-08-03T05:45:31.000Z</Time>
            <Position>
              <LatitudeDegrees>-15.3547505848109722137451171875</LatitudeDegrees>
              <LongitudeDegrees>37.069367431104183197021484375</LongitudeDegrees>
            </Position>
            <AltitudeMeters>2073.60009765625</AltitudeMeters>
            <DistanceMeters>NAN</DistanceMeters>
          </Trackpoint>
          <Trackpoint>
            <Time>2021-08-03T05:45:35.000Z</Time>
            <Position>
              <LatitudeDegrees>-15.35475184209644794464111328125</LatitudeDegrees>
              <LongitudeDegrees>37.06936843693256378173828125</LongitudeDegrees>
            </Position>
            <AltitudeMeters>2074.199951171875</AltitudeMeters>
            <DistanceMeters>NAN</DistanceMeters>
          </Trackpoint>
          <Trackpoint>
            <Time>2021-08-03T05:45:38.000Z</Time>
            <Position>
              <LatitudeDegrees>-15.35475284792482852935791015625</LatitudeDegrees>
              <LongitudeDegrees>37.06936852075159549713134765625</LongitudeDegrees>
            </Position>
            <AltitudeMeters>2074.199951171875</AltitudeMeters>
            <DistanceMeters>NAN</DistanceMeters>
          </Trackpoint>
          <Trackpoint>
            <Time>2021-08-03T05:45:44.000Z</Time>
            <Position>
              <LatitudeDegrees>-15.354764498770236968994140625</LatitudeDegrees>
              <LongitudeDegrees>37.06936852075159549713134765625</LongitudeDegrees>
            </Position>
            <AltitudeMeters>2073.39990234375</AltitudeMeters>
            <DistanceMeters>NAN</DistanceMeters>
          </Trackpoint>
          <Trackpoint>
            <Time>2021-08-03T05:45:50.000Z</Time>
            <Position>
              <LatitudeDegrees>-15.35476575605571269989013671875</LatitudeDegrees>
              <LongitudeDegrees>37.06936843693256378173828125</LongitudeDegrees>
            </Position>
            <AltitudeMeters>2073.199951171875</AltitudeMeters>
            <DistanceMeters>NAN</DistanceMeters>
          </Trackpoint>
          <Trackpoint>
            <Time>2021-08-03T05:45:57.000Z</Time>
            <Position>
              <LatitudeDegrees>-15.35476726479828357696533203125</LatitudeDegrees>
              <LongitudeDegrees>37.069341950118541717529296875</LongitudeDegrees>
            </Position>
            <AltitudeMeters>2072.60009765625</AltitudeMeters>
            <DistanceMeters>NAN</DistanceMeters>
          </Trackpoint>
          <Trackpoint>
            <Time>2021-08-03T05:46:16.000Z</Time>
            <Position>
              <LatitudeDegrees>-15.354764498770236968994140625</LatitudeDegrees>
              <LongitudeDegrees>37.069338597357273101806640625</LongitudeDegrees>
            </Position>
            <AltitudeMeters>2071.39990234375</AltitudeMeters>
            <DistanceMeters>NAN</DistanceMeters>
          </Trackpoint>
          <Trackpoint>
            <Time>2021-08-03T05:46:20.000Z</Time>
            <Position>
              <LatitudeDegrees>-15.3547633253037929534912109375</LatitudeDegrees>
              <LongitudeDegrees>37.06933868117630481719970703125</LongitudeDegrees>
            </Position>
            <AltitudeMeters>2070.60009765625</AltitudeMeters>
            <DistanceMeters>NAN</DistanceMeters>
          </Trackpoint>
          <Trackpoint>
            <Time>2021-08-03T05:46:21.000Z</Time>
            <Position>
              <LatitudeDegrees>-15.354763157665729522705078125</LatitudeDegrees>
              <LongitudeDegrees>37.06933851353824138641357421875</LongitudeDegrees>
            </Position>
            <AltitudeMeters>2070.199951171875</AltitudeMeters>
            <DistanceMeters>NAN</DistanceMeters>
          </Trackpoint>
          <Trackpoint>
            <Time>2021-08-03T05:46:26.000Z</Time>
            <Position>
              <LatitudeDegrees>-15.354760475456714630126953125</LatitudeDegrees>
              <LongitudeDegrees>37.06933834590017795562744140625</LongitudeDegrees>
            </Position>
            <AltitudeMeters>2069.800048828125</AltitudeMeters>
            <DistanceMeters>NAN</DistanceMeters>
          </Trackpoint>
          <Trackpoint>
            <Time>2021-08-03T05:46:30.000Z</Time>
            <Position>
              <LatitudeDegrees>-15.3547465614974498748779296875</LatitudeDegrees>
              <LongitudeDegrees>37.06933759152889251708984375</LongitudeDegrees>
            </Position>
            <AltitudeMeters>2070</AltitudeMeters>
            <DistanceMeters>NAN</DistanceMeters>
          </Trackpoint>
          <Trackpoint>
            <Time>2021-08-03T05:46:38.000Z</Time>
            <Position>
              <LatitudeDegrees>-15.3547261096537113189697265625</LatitudeDegrees>
              <LongitudeDegrees>37.06933625042438507080078125</LongitudeDegrees>
            </Position>
            <AltitudeMeters>2070</AltitudeMeters>
            <DistanceMeters>NAN</DistanceMeters>
          </Trackpoint>
          <Trackpoint>
            <Time>2021-08-03T05:46:45.000Z</Time>
            <Position>
              <LatitudeDegrees>-15.3547247685492038726806640625</LatitudeDegrees>
              <LongitudeDegrees>37.06933625042438507080078125</LongitudeDegrees>
            </Position>
            <AltitudeMeters>2069.39990234375</AltitudeMeters>
            <DistanceMeters>NAN</DistanceMeters>
          </Trackpoint>
          <Trackpoint>
            <Time>2021-08-03T05:46:49.000Z</Time>
            <Position>
              <LatitudeDegrees>-15.35472468473017215728759765625</LatitudeDegrees>
              <LongitudeDegrees>37.0693367533385753631591796875</LongitudeDegrees>
            </Position>
            <AltitudeMeters>2069.60009765625</AltitudeMeters>
            <DistanceMeters>NAN</DistanceMeters>
          </Trackpoint>
          <Trackpoint>
            <Time>2021-08-03T05:46:50.000Z</Time>
            <Position>
              <LatitudeDegrees>-15.35472518764436244964599609375</LatitudeDegrees>
              <LongitudeDegrees>37.0693369209766387939453125</LongitudeDegrees>
            </Position>
            <AltitudeMeters>2069.60009765625</AltitudeMeters>
            <DistanceMeters>NAN</DistanceMeters>
          </Trackpoint>
          <Trackpoint>
            <Time>2021-08-03T05:46:54.000Z</Time>
            <Position>
              <LatitudeDegrees>-15.35472652874886989593505859375</LatitudeDegrees>
              <LongitudeDegrees>37.06933817826211452484130859375</LongitudeDegrees>
            </Position>
            <AltitudeMeters>2069.60009765625</AltitudeMeters>
            <DistanceMeters>NAN</DistanceMeters>
          </Trackpoint>
          <Trackpoint>
            <Time>2021-08-03T05:47:12.000Z</Time>
            <Position>
              <LatitudeDegrees>-15.3547287918627262115478515625</LatitudeDegrees>
              <LongitudeDegrees>37.06935008056461811065673828125</LongitudeDegrees>
            </Position>
            <AltitudeMeters>2070.199951171875</AltitudeMeters>
            <DistanceMeters>NAN</DistanceMeters>
          </Trackpoint>
          <Trackpoint>
            <Time>2021-08-03T05:47:18.000Z</Time>
            <Position>
              <LatitudeDegrees>-15.3547308035194873809814453125</LatitudeDegrees>
              <LongitudeDegrees>37.06935544498264789581298828125</LongitudeDegrees>
            </Position>
            <AltitudeMeters>2070</AltitudeMeters>
            <DistanceMeters>NAN</DistanceMeters>
          </Trackpoint>
          <Trackpoint>
            <Time>2021-08-03T05:47:21.000Z</Time>
            <Position>
              <LatitudeDegrees>-15.3547328151762485504150390625</LatitudeDegrees>
              <LongitudeDegrees>37.06935678608715534210205078125</LongitudeDegrees>
            </Position>
            <AltitudeMeters>2069.800048828125</AltitudeMeters>
            <DistanceMeters>NAN</DistanceMeters>
          </Trackpoint>
          <Trackpoint>
            <Time>2021-08-03T05:47:24.000Z</Time>
            <Position>
              <LatitudeDegrees>-15.35473424009978771209716796875</LatitudeDegrees>
              <LongitudeDegrees>37.06935762427747249603271484375</LongitudeDegrees>
            </Position>
            <AltitudeMeters>2069.60009765625</AltitudeMeters>
            <DistanceMeters>NAN</DistanceMeters>
          </Trackpoint>
          <Trackpoint>
            <Time>2021-08-03T05:47:26.000Z</Time>
            <Position>
              <LatitudeDegrees>-15.35473524592816829681396484375</LatitudeDegrees>
              <LongitudeDegrees>37.069358043372631072998046875</LongitudeDegrees>
            </Position>
            <AltitudeMeters>2070</AltitudeMeters>
            <DistanceMeters>NAN</DistanceMeters>
          </Trackpoint>
          <Trackpoint>
            <Time>2021-08-03T05:47:30.000Z</Time>
            <Position>
              <LatitudeDegrees>-15.35473692230880260467529296875</LatitudeDegrees>
              <LongitudeDegrees>37.06935829482972621917724609375</LongitudeDegrees>
            </Position>
            <AltitudeMeters>2070.199951171875</AltitudeMeters>
            <DistanceMeters>NAN</DistanceMeters>
          </Trackpoint>
          <Trackpoint>
            <Time>2021-08-03T05:47:42.000Z</Time>
            <Position>
              <LatitudeDegrees>-15.354739017784595489501953125</LatitudeDegrees>
              <LongitudeDegrees>37.06935846246778964996337890625</LongitudeDegrees>
            </Position>
            <AltitudeMeters>2070.60009765625</AltitudeMeters>
            <DistanceMeters>NAN</DistanceMeters>
          </Trackpoint>
          <Trackpoint>
            <Time>2021-08-03T05:47:48.000Z</Time>
            <Position>
              <LatitudeDegrees>-15.35473910160362720489501953125</LatitudeDegrees>
              <LongitudeDegrees>37.06935846246778964996337890625</LongitudeDegrees>
            </Position>
            <AltitudeMeters>2070.39990234375</AltitudeMeters>
            <DistanceMeters>NAN</DistanceMeters>
          </Trackpoint>
          <Trackpoint>
            <Time>2021-08-03T05:47:51.000Z</Time>
            <Position>
              <LatitudeDegrees>-15.35473910160362720489501953125</LatitudeDegrees>
              <LongitudeDegrees>37.06935846246778964996337890625</LongitudeDegrees>
            </Position>
            <AltitudeMeters>2070.199951171875</AltitudeMeters>
            <DistanceMeters>NAN</DistanceMeters>
          </Trackpoint>
          <Trackpoint>
            <Time>2021-08-03T05:47:53.000Z</Time>
            <Position>
              <LatitudeDegrees>-15.35473910160362720489501953125</LatitudeDegrees>
              <LongitudeDegrees>37.06935846246778964996337890625</LongitudeDegrees>
            </Position>
            <AltitudeMeters>2070.39990234375</AltitudeMeters>
            <DistanceMeters>NAN</DistanceMeters>
          </Trackpoint>
          <Trackpoint>
            <Time>2021-08-03T05:47:58.000Z</Time>
            <Position>
              <LatitudeDegrees>-15.35473910160362720489501953125</LatitudeDegrees>
              <LongitudeDegrees>37.0693585462868213653564453125</LongitudeDegrees>
            </Position>
            <AltitudeMeters>2070.39990234375</AltitudeMeters>
            <DistanceMeters>NAN</DistanceMeters>
          </Trackpoint>
          <Trackpoint>
            <Time>2021-08-03T05:48:01.000Z</Time>
            <Position>
              <LatitudeDegrees>-15.3547391854226589202880859375</LatitudeDegrees>
              <LongitudeDegrees>37.06935863010585308074951171875</LongitudeDegrees>
            </Position>
            <AltitudeMeters>2070.39990234375</AltitudeMeters>
            <DistanceMeters>NAN</DistanceMeters>
          </Trackpoint>
          <Trackpoint>
            <Time>2021-08-03T05:48:03.000Z</Time>
            <Position>
              <LatitudeDegrees>-15.3547391854226589202880859375</LatitudeDegrees>
              <LongitudeDegrees>37.06935863010585308074951171875</LongitudeDegrees>
            </Position>
            <AltitudeMeters>2070.39990234375</AltitudeMeters>
            <DistanceMeters>NAN</DistanceMeters>
          </Trackpoint>
          <Trackpoint>
            <Time>2021-08-03T05:48:26.000Z</Time>
            <Position>
              <LatitudeDegrees>-15.35473926924169063568115234375</LatitudeDegrees>
              <LongitudeDegrees>37.06935879774391651153564453125</LongitudeDegrees>
            </Position>
            <AltitudeMeters>2071.199951171875</AltitudeMeters>
            <DistanceMeters>NAN</DistanceMeters>
          </Trackpoint>
          <Trackpoint>
            <Time>2021-08-03T05:48:32.000Z</Time>
            <Position>
              <LatitudeDegrees>-15.35473926924169063568115234375</LatitudeDegrees>
              <LongitudeDegrees>37.0693588815629482269287109375</LongitudeDegrees>
            </Position>
            <AltitudeMeters>2071.199951171875</AltitudeMeters>
            <DistanceMeters>NAN</DistanceMeters>
          </Trackpoint>
          <Trackpoint>
            <Time>2021-08-03T05:48:35.000Z</Time>
            <Position>
              <LatitudeDegrees>-15.35473926924169063568115234375</LatitudeDegrees>
              <LongitudeDegrees>37.0693588815629482269287109375</LongitudeDegrees>
            </Position>
            <AltitudeMeters>2071.199951171875</AltitudeMeters>
            <DistanceMeters>NAN</DistanceMeters>
          </Trackpoint>
          <Trackpoint>
            <Time>2021-08-03T05:48:40.000Z</Time>
            <Position>
              <LatitudeDegrees>-15.35473926924169063568115234375</LatitudeDegrees>
              <LongitudeDegrees>37.06935896538197994232177734375</LongitudeDegrees>
            </Position>
            <AltitudeMeters>2071</AltitudeMeters>
            <DistanceMeters>NAN</DistanceMeters>
          </Trackpoint>
          <Trackpoint>
            <Time>2021-08-03T05:48:42.000Z</Time>
            <Position>
              <LatitudeDegrees>-15.35473926924169063568115234375</LatitudeDegrees>
              <LongitudeDegrees>37.06935896538197994232177734375</LongitudeDegrees>
            </Position>
            <AltitudeMeters>2070.60009765625</AltitudeMeters>
            <DistanceMeters>NAN</DistanceMeters>
          </Trackpoint>
          <Trackpoint>
            <Time>2021-08-03T05:48:48.000Z</Time>
            <Position>
              <LatitudeDegrees>-15.35473926924169063568115234375</LatitudeDegrees>
              <LongitudeDegrees>37.06935896538197994232177734375</LongitudeDegrees>
            </Position>
            <AltitudeMeters>2071</AltitudeMeters>
            <DistanceMeters>NAN</DistanceMeters>
          </Trackpoint>
          <Trackpoint>
            <Time>2021-08-03T05:48:55.000Z</Time>
            <Position>
              <LatitudeDegrees>-15.35473926924169063568115234375</LatitudeDegrees>
              <LongitudeDegrees>37.06935896538197994232177734375</LongitudeDegrees>
            </Position>
            <AltitudeMeters>2071</AltitudeMeters>
            <DistanceMeters>NAN</DistanceMeters>
          </Trackpoint>
          <Trackpoint>
            <Time>2021-08-03T05:49:02.000Z</Time>
            <Position>
              <LatitudeDegrees>-15.35473926924169063568115234375</LatitudeDegrees>
              <LongitudeDegrees>37.0693588815629482269287109375</LongitudeDegrees>
            </Position>
            <AltitudeMeters>2070.199951171875</AltitudeMeters>
            <DistanceMeters>NAN</DistanceMeters>
          </Trackpoint>
          <Trackpoint>
            <Time>2021-08-03T05:49:19.000Z</Time>
            <Position>
              <LatitudeDegrees>-15.3547395206987857818603515625</LatitudeDegrees>
              <LongitudeDegrees>37.0693585462868213653564453125</LongitudeDegrees>
            </Position>
            <AltitudeMeters>2069.800048828125</AltitudeMeters>
            <DistanceMeters>NAN</DistanceMeters>
          </Trackpoint>
          <Trackpoint>
            <Time>2021-08-03T05:49:22.000Z</Time>
            <Position>
              <LatitudeDegrees>-15.3547395206987857818603515625</LatitudeDegrees>
              <LongitudeDegrees>37.06935846246778964996337890625</LongitudeDegrees>
            </Position>
            <AltitudeMeters>2069.800048828125</AltitudeMeters>
            <DistanceMeters>NAN</DistanceMeters>
          </Trackpoint>
          <Trackpoint>
            <Time>2021-08-03T05:49:31.000Z</Time>
            <Position>
              <LatitudeDegrees>-15.354739688336849212646484375</LatitudeDegrees>
              <LongitudeDegrees>37.06935829482972621917724609375</LongitudeDegrees>
            </Position>
            <AltitudeMeters>2069.800048828125</AltitudeMeters>
            <DistanceMeters>NAN</DistanceMeters>
          </Trackpoint>
          <Trackpoint>
            <Time>2021-08-03T05:49:39.000Z</Time>
            <Position>
              <LatitudeDegrees>-15.35473977215588092803955078125</LatitudeDegrees>
              <LongitudeDegrees>37.06935812719166278839111328125</LongitudeDegrees>
            </Position>
            <AltitudeMeters>2069.800048828125</AltitudeMeters>
            <DistanceMeters>NAN</DistanceMeters>
          </Trackpoint>
          <Trackpoint>
            <Time>2021-08-03T05:49:45.000Z</Time>
            <Position>
              <LatitudeDegrees>-15.3547398559749126434326171875</LatitudeDegrees>
              <LongitudeDegrees>37.069358043372631072998046875</LongitudeDegrees>
            </Position>
            <AltitudeMeters>2069.800048828125</AltitudeMeters>
            <DistanceMeters>NAN</DistanceMeters>
          </Trackpoint>
          <Trackpoint>
            <Time>2021-08-03T05:49:47.000Z</Time>
            <Position>
              <LatitudeDegrees>-15.35473993979394435882568359375</LatitudeDegrees>
              <LongitudeDegrees>37.069358043372631072998046875</LongitudeDegrees>
            </Position>
            <AltitudeMeters>2069.800048828125</AltitudeMeters>
            <DistanceMeters>NAN</DistanceMeters>
          </Trackpoint>
          <Trackpoint>
            <Time>2021-08-03T05:50:01.000Z</Time>
            <Position>
              <LatitudeDegrees>-15.35474002361297607421875</LatitudeDegrees>
              <LongitudeDegrees>37.06935770809650421142578125</LongitudeDegrees>
            </Position>
            <AltitudeMeters>2069.800048828125</AltitudeMeters>
            <DistanceMeters>NAN</DistanceMeters>
          </Trackpoint>
          <Trackpoint>
            <Time>2021-08-03T05:50:07.000Z</Time>
            <Position>
              <LatitudeDegrees>-15.35474010743200778961181640625</LatitudeDegrees>
              <LongitudeDegrees>37.06935762427747249603271484375</LongitudeDegrees>
            </Position>
            <AltitudeMeters>2069.800048828125</AltitudeMeters>
            <DistanceMeters>NAN</DistanceMeters>
          </Trackpoint>
          <Trackpoint>
            <Time>2021-08-03T05:50:15.000Z</Time>
            <Position>
              <LatitudeDegrees>-15.3547401912510395050048828125</LatitudeDegrees>
              <LongitudeDegrees>37.0693575404584407806396484375</LongitudeDegrees>
            </Position>
            <AltitudeMeters>2069.800048828125</AltitudeMeters>
            <DistanceMeters>NAN</DistanceMeters>
          </Trackpoint>
          <Trackpoint>
            <Time>2021-08-03T05:50:27.000Z</Time>
            <Position>
              <LatitudeDegrees>-15.354740358889102935791015625</LatitudeDegrees>
              <LongitudeDegrees>37.069357372820377349853515625</LongitudeDegrees>
            </Position>
            <AltitudeMeters>2069.800048828125</AltitudeMeters>
            <DistanceMeters>NAN</DistanceMeters>
          </Trackpoint>
          <Trackpoint>
            <Time>2021-08-03T05:50:52.000Z</Time>
            <Position>
              <LatitudeDegrees>-15.35474069416522979736328125</LatitudeDegrees>
              <LongitudeDegrees>37.0693568699061870574951171875</LongitudeDegrees>
            </Position>
            <AltitudeMeters>2069.800048828125</AltitudeMeters>
            <DistanceMeters>NAN</DistanceMeters>
          </Trackpoint>
          <Trackpoint>
            <Time>2021-08-03T05:50:58.000Z</Time>
            <Position>
              <LatitudeDegrees>-15.35474077798426151275634765625</LatitudeDegrees>
              <LongitudeDegrees>37.069356702268123626708984375</LongitudeDegrees>
            </Position>
            <AltitudeMeters>2069.800048828125</AltitudeMeters>
            <DistanceMeters>NAN</DistanceMeters>
          </Trackpoint>
          <Trackpoint>
            <Time>2021-08-03T05:51:29.000Z</Time>
            <Position>
              <LatitudeDegrees>-15.3547413647174835205078125</LatitudeDegrees>
              <LongitudeDegrees>37.0693561993539333343505859375</LongitudeDegrees>
            </Position>
            <AltitudeMeters>2069.800048828125</AltitudeMeters>
            <DistanceMeters>NAN</DistanceMeters>
          </Trackpoint>
          <Trackpoint>
            <Time>2021-08-03T05:51:37.000Z</Time>
            <Position>
              <LatitudeDegrees>-15.35474144853651523590087890625</LatitudeDegrees>
              <LongitudeDegrees>37.06935611553490161895751953125</LongitudeDegrees>
            </Position>
            <AltitudeMeters>2069.800048828125</AltitudeMeters>
            <DistanceMeters>NAN</DistanceMeters>
          </Trackpoint>
          <Trackpoint>
            <Time>2021-08-03T05:51:47.000Z</Time>
            <Position>
              <LatitudeDegrees>-15.35474161617457866668701171875</LatitudeDegrees>
              <LongitudeDegrees>37.069356031715869903564453125</LongitudeDegrees>
            </Position>
            <AltitudeMeters>2069.800048828125</AltitudeMeters>
            <DistanceMeters>NAN</DistanceMeters>
          </Trackpoint>
          <Trackpoint>
            <Time>2021-08-03T05:52:09.000Z</Time>
            <Position>
              <LatitudeDegrees>-15.35474195145070552825927734375</LatitudeDegrees>
              <LongitudeDegrees>37.06935594789683818817138671875</LongitudeDegrees>
            </Position>
            <AltitudeMeters>2069.800048828125</AltitudeMeters>
            <DistanceMeters>NAN</DistanceMeters>
          </Trackpoint>
          <Trackpoint>
            <Time>2021-08-03T05:52:12.000Z</Time>
            <Position>
              <LatitudeDegrees>-15.35474195145070552825927734375</LatitudeDegrees>
              <LongitudeDegrees>37.06935594789683818817138671875</LongitudeDegrees>
            </Position>
            <AltitudeMeters>2069.800048828125</AltitudeMeters>
            <DistanceMeters>NAN</DistanceMeters>
          </Trackpoint>
          <Trackpoint>
            <Time>2021-08-03T05:52:37.000Z</Time>
            <Position>
              <LatitudeDegrees>-15.35474228672683238983154296875</LatitudeDegrees>
              <LongitudeDegrees>37.0693558640778064727783203125</LongitudeDegrees>
            </Position>
            <AltitudeMeters>2069.800048828125</AltitudeMeters>
            <DistanceMeters>NAN</DistanceMeters>
          </Trackpoint>
          <Trackpoint>
            <Time>2021-08-03T05:52:44.000Z</Time>
            <Position>
              <LatitudeDegrees>-15.354742370545864105224609375</LatitudeDegrees>
              <LongitudeDegrees>37.06935594789683818817138671875</LongitudeDegrees>
            </Position>
            <AltitudeMeters>2069.800048828125</AltitudeMeters>
            <DistanceMeters>NAN</DistanceMeters>
          </Trackpoint>
          <Trackpoint>
            <Time>2021-08-03T05:52:54.000Z</Time>
            <Position>
              <LatitudeDegrees>-15.35474245436489582061767578125</LatitudeDegrees>
              <LongitudeDegrees>37.06935594789683818817138671875</LongitudeDegrees>
            </Position>
            <AltitudeMeters>2069.800048828125</AltitudeMeters>
            <DistanceMeters>NAN</DistanceMeters>
          </Trackpoint>
          <Trackpoint>
            <Time>2021-08-03T05:52:57.000Z</Time>
            <Position>
              <LatitudeDegrees>-15.3547425381839275360107421875</LatitudeDegrees>
              <LongitudeDegrees>37.06935594789683818817138671875</LongitudeDegrees>
            </Position>
            <AltitudeMeters>2069.800048828125</AltitudeMeters>
            <DistanceMeters>NAN</DistanceMeters>
          </Trackpoint>
          <Trackpoint>
            <Time>2021-08-03T05:53:01.000Z</Time>
            <Position>
              <LatitudeDegrees>-15.35474262200295925140380859375</LatitudeDegrees>
              <LongitudeDegrees>37.06935594789683818817138671875</LongitudeDegrees>
            </Position>
            <AltitudeMeters>2069.800048828125</AltitudeMeters>
            <DistanceMeters>NAN</DistanceMeters>
          </Trackpoint>
          <Trackpoint>
            <Time>2021-08-03T05:53:07.000Z</Time>
            <Position>
              <LatitudeDegrees>-15.354742705821990966796875</LatitudeDegrees>
              <LongitudeDegrees>37.06935594789683818817138671875</LongitudeDegrees>
            </Position>
            <AltitudeMeters>2069.800048828125</AltitudeMeters>
            <DistanceMeters>NAN</DistanceMeters>
          </Trackpoint>
          <Trackpoint>
            <Time>2021-08-03T05:53:13.000Z</Time>
            <Position>
              <LatitudeDegrees>-15.3547428734600543975830078125</LatitudeDegrees>
              <LongitudeDegrees>37.069356031715869903564453125</LongitudeDegrees>
            </Position>
            <AltitudeMeters>2069.800048828125</AltitudeMeters>
            <DistanceMeters>NAN</DistanceMeters>
          </Trackpoint>
          <Trackpoint>
            <Time>2021-08-03T05:53:21.000Z</Time>
            <Position>
              <LatitudeDegrees>-15.354743041098117828369140625</LatitudeDegrees>
              <LongitudeDegrees>37.069356031715869903564453125</LongitudeDegrees>
            </Position>
            <AltitudeMeters>2069.800048828125</AltitudeMeters>
            <DistanceMeters>NAN</DistanceMeters>
          </Trackpoint>
          <Trackpoint>
            <Time>2021-08-03T05:53:24.000Z</Time>
            <Position>
              <LatitudeDegrees>-15.354743041098117828369140625</LatitudeDegrees>
              <LongitudeDegrees>37.069356031715869903564453125</LongitudeDegrees>
            </Position>
            <AltitudeMeters>2069.800048828125</AltitudeMeters>
            <DistanceMeters>NAN</DistanceMeters>
          </Trackpoint>
          <Trackpoint>
            <Time>2021-08-03T05:53:32.000Z</Time>
            <Position>
              <LatitudeDegrees>-15.35474329255521297454833984375</LatitudeDegrees>
              <LongitudeDegrees>37.069356031715869903564453125</LongitudeDegrees>
            </Position>
            <AltitudeMeters>2069.800048828125</AltitudeMeters>
            <DistanceMeters>NAN</DistanceMeters>
          </Trackpoint>
          <Trackpoint>
            <Time>2021-08-03T05:53:49.000Z</Time>
            <Position>
              <LatitudeDegrees>-15.354743711650371551513671875</LatitudeDegrees>
              <LongitudeDegrees>37.069356031715869903564453125</LongitudeDegrees>
            </Position>
            <AltitudeMeters>2069.800048828125</AltitudeMeters>
            <DistanceMeters>NAN</DistanceMeters>
          </Trackpoint>
          <Trackpoint>
            <Time>2021-08-03T05:53:50.000Z</Time>
            <Position>
              <LatitudeDegrees>-15.354743711650371551513671875</LatitudeDegrees>
              <LongitudeDegrees>37.069356031715869903564453125</LongitudeDegrees>
            </Position>
            <AltitudeMeters>2069.800048828125</AltitudeMeters>
            <DistanceMeters>NAN</DistanceMeters>
          </Trackpoint>
          <Trackpoint>
            <Time>2021-08-03T05:54:13.000Z</Time>
            <Position>
              <LatitudeDegrees>-15.35474396310746669769287109375</LatitudeDegrees>
              <LongitudeDegrees>37.069356031715869903564453125</LongitudeDegrees>
            </Position>
            <AltitudeMeters>2069.800048828125</AltitudeMeters>
            <DistanceMeters>NAN</DistanceMeters>
          </Trackpoint>
          <Trackpoint>
            <Time>2021-08-03T05:54:16.000Z</Time>
            <Position>
              <LatitudeDegrees>-15.35474396310746669769287109375</LatitudeDegrees>
              <LongitudeDegrees>37.069356031715869903564453125</LongitudeDegrees>
            </Position>
            <AltitudeMeters>2069.800048828125</AltitudeMeters>
            <DistanceMeters>NAN</DistanceMeters>
          </Trackpoint>
          <Trackpoint>
            <Time>2021-08-03T05:54:18.000Z</Time>
            <Position>
              <LatitudeDegrees>-15.3547440469264984130859375</LatitudeDegrees>
              <LongitudeDegrees>37.06935611553490161895751953125</LongitudeDegrees>
            </Position>
            <AltitudeMeters>2069.800048828125</AltitudeMeters>
            <DistanceMeters>NAN</DistanceMeters>
          </Trackpoint>
          <Trackpoint>
            <Time>2021-08-03T05:54:31.000Z</Time>
            <Position>
              <LatitudeDegrees>-15.3547440469264984130859375</LatitudeDegrees>
              <LongitudeDegrees>37.0693561993539333343505859375</LongitudeDegrees>
            </Position>
            <AltitudeMeters>2069.800048828125</AltitudeMeters>
            <DistanceMeters>NAN</DistanceMeters>
          </Trackpoint>
          <Trackpoint>
            <Time>2021-08-03T05:54:40.000Z</Time>
            <Position>
              <LatitudeDegrees>-15.3547440469264984130859375</LatitudeDegrees>
              <LongitudeDegrees>37.06935636699199676513671875</LongitudeDegrees>
            </Position>
            <AltitudeMeters>2069.800048828125</AltitudeMeters>
            <DistanceMeters>NAN</DistanceMeters>
          </Trackpoint>
          <Trackpoint>
            <Time>2021-08-03T05:54:46.000Z</Time>
            <Position>
              <LatitudeDegrees>-15.3547440469264984130859375</LatitudeDegrees>
              <LongitudeDegrees>37.06935636699199676513671875</LongitudeDegrees>
            </Position>
            <AltitudeMeters>2069.800048828125</AltitudeMeters>
            <DistanceMeters>NAN</DistanceMeters>
          </Trackpoint>
          <Trackpoint>
            <Time>2021-08-03T05:54:49.000Z</Time>
            <Position>
              <LatitudeDegrees>-15.35474396310746669769287109375</LatitudeDegrees>
              <LongitudeDegrees>37.06935636699199676513671875</LongitudeDegrees>
            </Position>
            <AltitudeMeters>2069.800048828125</AltitudeMeters>
            <DistanceMeters>NAN</DistanceMeters>
          </Trackpoint>
          <Trackpoint>
            <Time>2021-08-03T05:54:54.000Z</Time>
            <Position>
              <LatitudeDegrees>-15.3547438792884349822998046875</LatitudeDegrees>
              <LongitudeDegrees>37.06935645081102848052978515625</LongitudeDegrees>
            </Position>
            <AltitudeMeters>2069.800048828125</AltitudeMeters>
            <DistanceMeters>NAN</DistanceMeters>
          </Trackpoint>
          <Trackpoint>
            <Time>2021-08-03T05:54:59.000Z</Time>
            <Position>
              <LatitudeDegrees>-15.35474362783133983612060546875</LatitudeDegrees>
              <LongitudeDegrees>37.06935645081102848052978515625</LongitudeDegrees>
            </Position>
            <AltitudeMeters>2069.800048828125</AltitudeMeters>
            <DistanceMeters>NAN</DistanceMeters>
          </Trackpoint>
          <Trackpoint>
            <Time>2021-08-03T05:55:06.000Z</Time>
            <Position>
              <LatitudeDegrees>-15.3547163866460323333740234375</LatitudeDegrees>
              <LongitudeDegrees>37.0693572051823139190673828125</LongitudeDegrees>
            </Position>
            <AltitudeMeters>2069.800048828125</AltitudeMeters>
            <DistanceMeters>NAN</DistanceMeters>
          </Trackpoint>
          <Trackpoint>
            <Time>2021-08-03T05:55:09.000Z</Time>
            <Position>
              <LatitudeDegrees>-15.3546717949211597442626953125</LatitudeDegrees>
              <LongitudeDegrees>37.0693664252758026123046875</LongitudeDegrees>
            </Position>
            <AltitudeMeters>2069.800048828125</AltitudeMeters>
            <DistanceMeters>NAN</DistanceMeters>
          </Trackpoint>
          <Trackpoint>
            <Time>2021-08-03T05:55:19.000Z</Time>
            <Position>
              <LatitudeDegrees>-15.3545930050313472747802734375</LatitudeDegrees>
              <LongitudeDegrees>37.06942342221736907958984375</LongitudeDegrees>
            </Position>
            <AltitudeMeters>2069.800048828125</AltitudeMeters>
            <DistanceMeters>NAN</DistanceMeters>
          </Trackpoint>
          <Trackpoint>
            <Time>2021-08-03T05:55:24.000Z</Time>
            <Position>
              <LatitudeDegrees>-15.35458772443234920501708984375</LatitudeDegrees>
              <LongitudeDegrees>37.0694433711469173431396484375</LongitudeDegrees>
            </Position>
            <AltitudeMeters>2069.800048828125</AltitudeMeters>
            <DistanceMeters>NAN</DistanceMeters>
          </Trackpoint>
          <Trackpoint>
            <Time>2021-08-03T05:55:25.000Z</Time>
            <Position>
              <LatitudeDegrees>-15.35458655096590518951416015625</LatitudeDegrees>
              <LongitudeDegrees>37.06944890320301055908203125</LongitudeDegrees>
            </Position>
            <AltitudeMeters>2055.39990234375</AltitudeMeters>
            <DistanceMeters>NAN</DistanceMeters>
          </Trackpoint>
          <Trackpoint>
            <Time>2021-08-03T05:55:27.000Z</Time>
            <Position>
              <LatitudeDegrees>-15.354587472975254058837890625</LatitudeDegrees>
              <LongitudeDegrees>37.06946440972387790679931640625</LongitudeDegrees>
            </Position>
            <AltitudeMeters>2055.39990234375</AltitudeMeters>
            <DistanceMeters>NAN</DistanceMeters>
          </Trackpoint>
          <Trackpoint>
            <Time>2021-08-03T05:55:32.000Z</Time>
            <Position>
              <LatitudeDegrees>-15.35457414574921131134033203125</LatitudeDegrees>
              <LongitudeDegrees>37.069475390017032623291015625</LongitudeDegrees>
            </Position>
            <AltitudeMeters>2054.199951171875</AltitudeMeters>
            <DistanceMeters>NAN</DistanceMeters>
          </Trackpoint>
          <Trackpoint>
            <Time>2021-08-03T05:55:35.000Z</Time>
            <Position>
              <LatitudeDegrees>-15.35456676967442035675048828125</LatitudeDegrees>
              <LongitudeDegrees>37.06948913633823394775390625</LongitudeDegrees>
            </Position>
            <AltitudeMeters>2053</AltitudeMeters>
            <DistanceMeters>NAN</DistanceMeters>
          </Trackpoint>
          <Trackpoint>
            <Time>2021-08-03T05:55:36.000Z</Time>
            <Position>
              <LatitudeDegrees>-15.354561321437358856201171875</LatitudeDegrees>
              <LongitudeDegrees>37.069493494927883148193359375</LongitudeDegrees>
            </Position>
            <AltitudeMeters>2052.39990234375</AltitudeMeters>
            <DistanceMeters>NAN</DistanceMeters>
          </Trackpoint>
          <Trackpoint>
            <Time>2021-08-03T05:55:39.000Z</Time>
            <Position>
              <LatitudeDegrees>-15.35455017350614070892333984375</LatitudeDegrees>
              <LongitudeDegrees>37.069515623152256011962890625</LongitudeDegrees>
            </Position>
            <AltitudeMeters>2052</AltitudeMeters>
            <DistanceMeters>NAN</DistanceMeters>
          </Trackpoint>
          <Trackpoint>
            <Time>2021-08-03T05:55:41.000Z</Time>
            <Position>
              <LatitudeDegrees>-15.35453793592751026153564453125</LatitudeDegrees>
              <LongitudeDegrees>37.06952744163572788238525390625</LongitudeDegrees>
            </Position>
            <AltitudeMeters>2050.39990234375</AltitudeMeters>
            <DistanceMeters>NAN</DistanceMeters>
          </Trackpoint>
          <Trackpoint>
            <Time>2021-08-03T05:55:42.000Z</Time>
            <Position>
              <LatitudeDegrees>-15.35453055985271930694580078125</LatitudeDegrees>
              <LongitudeDegrees>37.0695342309772968292236328125</LongitudeDegrees>
            </Position>
            <AltitudeMeters>2050.39990234375</AltitudeMeters>
            <DistanceMeters>NAN</DistanceMeters>
          </Trackpoint>
          <Trackpoint>
            <Time>2021-08-03T05:55:44.000Z</Time>
            <Position>
              <LatitudeDegrees>-15.35452016629278659820556640625</LatitudeDegrees>
              <LongitudeDegrees>37.0695459656417369842529296875</LongitudeDegrees>
            </Position>
            <AltitudeMeters>2050.199951171875</AltitudeMeters>
            <DistanceMeters>NAN</DistanceMeters>
          </Trackpoint>
          <Trackpoint>
            <Time>2021-08-03T05:55:45.000Z</Time>
            <Position>
              <LatitudeDegrees>-15.35451480187475681304931640625</LatitudeDegrees>
              <LongitudeDegrees>37.0695543475449085235595703125</LongitudeDegrees>
            </Position>
            <AltitudeMeters>2050.199951171875</AltitudeMeters>
            <DistanceMeters>NAN</DistanceMeters>
          </Trackpoint>
          <Trackpoint>
            <Time>2021-08-03T05:55:48.000Z</Time>
            <Position>
              <LatitudeDegrees>-15.35449518822133541107177734375</LatitudeDegrees>
              <LongitudeDegrees>37.06958175636827945709228515625</LongitudeDegrees>
            </Position>
            <AltitudeMeters>2047.5999755859375</AltitudeMeters>
            <DistanceMeters>NAN</DistanceMeters>
          </Trackpoint>
          <Trackpoint>
            <Time>2021-08-03T05:55:50.000Z</Time>
            <Position>
              <LatitudeDegrees>-15.3544887341558933258056640625</LatitudeDegrees>
              <LongitudeDegrees>37.06959734670817852020263671875</LongitudeDegrees>
            </Position>
            <AltitudeMeters>2047</AltitudeMeters>
            <DistanceMeters>NAN</DistanceMeters>
          </Trackpoint>
          <Trackpoint>
            <Time>2021-08-03T05:55:53.000Z</Time>
            <Position>
              <LatitudeDegrees>-15.354480184614658355712890625</LatitudeDegrees>
              <LongitudeDegrees>37.069616876542568206787109375</LongitudeDegrees>
            </Position>
            <AltitudeMeters>2046.199951171875</AltitudeMeters>
            <DistanceMeters>NAN</DistanceMeters>
          </Trackpoint>
          <Trackpoint>
            <Time>2021-08-03T05:55:56.000Z</Time>
            <Position>
              <LatitudeDegrees>-15.3544666059315204620361328125</LatitudeDegrees>
              <LongitudeDegrees>37.06963171251118183135986328125</LongitudeDegrees>
            </Position>
            <AltitudeMeters>2045</AltitudeMeters>
            <DistanceMeters>NAN</DistanceMeters>
          </Trackpoint>
          <Trackpoint>
            <Time>2021-08-03T05:55:57.000Z</Time>
            <Position>
              <LatitudeDegrees>-15.3544585593044757843017578125</LatitudeDegrees>
              <LongitudeDegrees>37.0696411840617656707763671875</LongitudeDegrees>
            </Position>
            <AltitudeMeters>2044.800048828125</AltitudeMeters>
            <DistanceMeters>NAN</DistanceMeters>
          </Trackpoint>
          <Trackpoint>
            <Time>2021-08-03T05:55:58.000Z</Time>
            <Position>
              <LatitudeDegrees>-15.35445160232484340667724609375</LatitudeDegrees>
              <LongitudeDegrees>37.0696512423455715179443359375</LongitudeDegrees>
            </Position>
            <AltitudeMeters>2044.199951171875</AltitudeMeters>
            <DistanceMeters>NAN</DistanceMeters>
          </Trackpoint>
          <Trackpoint>
            <Time>2021-08-03T05:56:00.000Z</Time>
            <Position>
              <LatitudeDegrees>-15.3544407896697521209716796875</LatitudeDegrees>
              <LongitudeDegrees>37.06966591067612171173095703125</LongitudeDegrees>
            </Position>
            <AltitudeMeters>2043.800048828125</AltitudeMeters>
            <DistanceMeters>NAN</DistanceMeters>
          </Trackpoint>
          <Trackpoint>
            <Time>2021-08-03T05:56:02.000Z</Time>
            <Position>
              <LatitudeDegrees>-15.35443383269011974334716796875</LatitudeDegrees>
              <LongitudeDegrees>37.06967898644506931304931640625</LongitudeDegrees>
            </Position>
            <AltitudeMeters>2042.800048828125</AltitudeMeters>
            <DistanceMeters>NAN</DistanceMeters>
          </Trackpoint>
          <Trackpoint>
            <Time>2021-08-03T05:56:05.000Z</Time>
            <Position>
              <LatitudeDegrees>-15.35441639833152294158935546875</LatitudeDegrees>
              <LongitudeDegrees>37.069699354469776153564453125</LongitudeDegrees>
            </Position>
            <AltitudeMeters>2041.800048828125</AltitudeMeters>
            <DistanceMeters>NAN</DistanceMeters>
          </Trackpoint>
          <Trackpoint>
            <Time>2021-08-03T05:56:08.000Z</Time>
            <Position>
              <LatitudeDegrees>-15.35440701059997081756591796875</LatitudeDegrees>
              <LongitudeDegrees>37.069724835455417633056640625</LongitudeDegrees>
            </Position>
            <AltitudeMeters>2040.800048828125</AltitudeMeters>
            <DistanceMeters>NAN</DistanceMeters>
          </Trackpoint>
          <Trackpoint>
            <Time>2021-08-03T05:56:12.000Z</Time>
            <Position>
              <LatitudeDegrees>-15.354404412209987640380859375</LatitudeDegrees>
              <LongitudeDegrees>37.06975199282169342041015625</LongitudeDegrees>
            </Position>
            <AltitudeMeters>2039.800048828125</AltitudeMeters>
            <DistanceMeters>NAN</DistanceMeters>
          </Trackpoint>
          <Trackpoint>
            <Time>2021-08-03T05:56:13.000Z</Time>
            <Position>
              <LatitudeDegrees>-15.35440416075289249420166015625</LatitudeDegrees>
              <LongitudeDegrees>37.06976045854389667510986328125</LongitudeDegrees>
            </Position>
            <AltitudeMeters>2039.199951171875</AltitudeMeters>
            <DistanceMeters>NAN</DistanceMeters>
          </Trackpoint>
          <Trackpoint>
            <Time>2021-08-03T05:56:16.000Z</Time>
            <Position>
              <LatitudeDegrees>-15.35440533421933650970458984375</LatitudeDegrees>
              <LongitudeDegrees>37.06978677771985530853271484375</LongitudeDegrees>
            </Position>
            <AltitudeMeters>2038</AltitudeMeters>
            <DistanceMeters>NAN</DistanceMeters>
          </Trackpoint>
          <Trackpoint>
            <Time>2021-08-03T05:56:19.000Z</Time>
            <Position>
              <LatitudeDegrees>-15.35439611412584781646728515625</LatitudeDegrees>
              <LongitudeDegrees>37.0698044635355472564697265625</LongitudeDegrees>
            </Position>
            <AltitudeMeters>2037.4000244140625</AltitudeMeters>
            <DistanceMeters>NAN</DistanceMeters>
          </Trackpoint>
          <Trackpoint>
            <Time>2021-08-03T05:56:20.000Z</Time>
            <Position>
              <LatitudeDegrees>-15.35439007915556430816650390625</LatitudeDegrees>
              <LongitudeDegrees>37.06980974413454532623291015625</LongitudeDegrees>
            </Position>
            <AltitudeMeters>2036.5999755859375</AltitudeMeters>
            <DistanceMeters>NAN</DistanceMeters>
          </Trackpoint>
          <Trackpoint>
            <Time>2021-08-03T05:56:24.000Z</Time>
            <Position>
              <LatitudeDegrees>-15.35438270308077335357666015625</LatitudeDegrees>
              <LongitudeDegrees>37.06982818432152271270751953125</LongitudeDegrees>
            </Position>
            <AltitudeMeters>2035.5999755859375</AltitudeMeters>
            <DistanceMeters>NAN</DistanceMeters>
          </Trackpoint>
          <Trackpoint>
            <Time>2021-08-03T05:56:26.000Z</Time>
            <Position>
              <LatitudeDegrees>-15.35438152961432933807373046875</LatitudeDegrees>
              <LongitudeDegrees>37.0698393322527408599853515625</LongitudeDegrees>
            </Position>
            <AltitudeMeters>2034.800048828125</AltitudeMeters>
            <DistanceMeters>NAN</DistanceMeters>
          </Trackpoint>
          <Trackpoint>
            <Time>2021-08-03T05:56:28.000Z</Time>
            <Position>
              <LatitudeDegrees>-15.354379601776599884033203125</LatitudeDegrees>
              <LongitudeDegrees>37.06985517404973506927490234375</LongitudeDegrees>
            </Position>
            <AltitudeMeters>2034.199951171875</AltitudeMeters>
            <DistanceMeters>NAN</DistanceMeters>
          </Trackpoint>
          <Trackpoint>
            <Time>2021-08-03T05:56:33.000Z</Time>
            <Position>
              <LatitudeDegrees>-15.35438253544270992279052734375</LatitudeDegrees>
              <LongitudeDegrees>37.06989674828946590423583984375</LongitudeDegrees>
            </Position>
            <AltitudeMeters>2033.5999755859375</AltitudeMeters>
            <DistanceMeters>NAN</DistanceMeters>
          </Trackpoint>
          <Trackpoint>
            <Time>2021-08-03T05:56:34.000Z</Time>
            <Position>
              <LatitudeDegrees>-15.35438505001366138458251953125</LatitudeDegrees>
              <LongitudeDegrees>37.0699028670787811279296875</LongitudeDegrees>
            </Position>
            <AltitudeMeters>2033.4000244140625</AltitudeMeters>
            <DistanceMeters>NAN</DistanceMeters>
          </Trackpoint>
          <Trackpoint>
            <Time>2021-08-03T05:56:38.000Z</Time>
            <Position>
              <LatitudeDegrees>-15.35438940860331058502197265625</LatitudeDegrees>
              <LongitudeDegrees>37.06991401500999927520751953125</LongitudeDegrees>
            </Position>
            <AltitudeMeters>2033</AltitudeMeters>
            <DistanceMeters>NAN</DistanceMeters>
          </Trackpoint>
          <Trackpoint>
            <Time>2021-08-03T05:56:39.000Z</Time>
            <Position>
              <LatitudeDegrees>-15.354390330612659454345703125</LatitudeDegrees>
              <LongitudeDegrees>37.06991468556225299835205078125</LongitudeDegrees>
            </Position>
            <AltitudeMeters>2033.199951171875</AltitudeMeters>
            <DistanceMeters>NAN</DistanceMeters>
          </Trackpoint>
          <Trackpoint>
            <Time>2021-08-03T05:56:43.000Z</Time>
            <Position>
              <LatitudeDegrees>-15.35439946688711643218994140625</LatitudeDegrees>
              <LongitudeDegrees>37.0699305273592472076416015625</LongitudeDegrees>
            </Position>
            <AltitudeMeters>2032</AltitudeMeters>
            <DistanceMeters>NAN</DistanceMeters>
          </Trackpoint>
          <Trackpoint>
            <Time>2021-08-03T05:56:48.000Z</Time>
            <Position>
              <LatitudeDegrees>-15.35440214909613132476806640625</LatitudeDegrees>
              <LongitudeDegrees>37.0699620433151721954345703125</LongitudeDegrees>
            </Position>
            <AltitudeMeters>2031.5999755859375</AltitudeMeters>
            <DistanceMeters>NAN</DistanceMeters>
          </Trackpoint>
          <Trackpoint>
            <Time>2021-08-03T05:56:49.000Z</Time>
            <Position>
              <LatitudeDegrees>-15.35440466366708278656005859375</LatitudeDegrees>
              <LongitudeDegrees>37.0699699223041534423828125</LongitudeDegrees>
            </Position>
            <AltitudeMeters>2031.199951171875</AltitudeMeters>
            <DistanceMeters>NAN</DistanceMeters>
          </Trackpoint>
          <Trackpoint>
            <Time>2021-08-03T05:56:51.000Z</Time>
            <Position>
              <LatitudeDegrees>-15.354405082762241363525390625</LatitudeDegrees>
              <LongitudeDegrees>37.06998257897794246673583984375</LongitudeDegrees>
            </Position>
            <AltitudeMeters>2030.800048828125</AltitudeMeters>
            <DistanceMeters>NAN</DistanceMeters>
          </Trackpoint>
          <Trackpoint>
            <Time>2021-08-03T05:56:53.000Z</Time>
            <Position>
              <LatitudeDegrees>-15.35440332256257534027099609375</LatitudeDegrees>
              <LongitudeDegrees>37.0699928887188434600830078125</LongitudeDegrees>
            </Position>
            <AltitudeMeters>2030.199951171875</AltitudeMeters>
            <DistanceMeters>NAN</DistanceMeters>
          </Trackpoint>
          <Trackpoint>
            <Time>2021-08-03T05:56:55.000Z</Time>
            <Position>
              <LatitudeDegrees>-15.35440198145806789398193359375</LatitudeDegrees>
              <LongitudeDegrees>37.0699985884130001068115234375</LongitudeDegrees>
            </Position>
            <AltitudeMeters>2029.4000244140625</AltitudeMeters>
            <DistanceMeters>NAN</DistanceMeters>
          </Trackpoint>
          <Trackpoint>
            <Time>2021-08-03T05:56:59.000Z</Time>
            <Position>
              <LatitudeDegrees>-15.35440273582935333251953125</LatitudeDegrees>
              <LongitudeDegrees>37.070016525685787200927734375</LongitudeDegrees>
            </Position>
            <AltitudeMeters>2028</AltitudeMeters>
            <DistanceMeters>NAN</DistanceMeters>
          </Trackpoint>
          <Trackpoint>
            <Time>2021-08-03T05:57:07.000Z</Time>
            <Position>
              <LatitudeDegrees>-15.3543864749372005462646484375</LatitudeDegrees>
              <LongitudeDegrees>37.07003337331116199493408203125</LongitudeDegrees>
            </Position>
            <AltitudeMeters>2027.4000244140625</AltitudeMeters>
            <DistanceMeters>NAN</DistanceMeters>
          </Trackpoint>
          <Trackpoint>
            <Time>2021-08-03T05:57:13.000Z</Time>
            <Position>
              <LatitudeDegrees>-15.35438664257526397705078125</LatitudeDegrees>
              <LongitudeDegrees>37.07003639079630374908447265625</LongitudeDegrees>
            </Position>
            <AltitudeMeters>2027.199951171875</AltitudeMeters>
            <DistanceMeters>NAN</DistanceMeters>
          </Trackpoint>
          <Trackpoint>
            <Time>2021-08-03T05:57:14.000Z</Time>
            <Position>
              <LatitudeDegrees>-15.354394018650054931640625</LatitudeDegrees>
              <LongitudeDegrees>37.07004225812852382659912109375</LongitudeDegrees>
            </Position>
            <AltitudeMeters>2026.4000244140625</AltitudeMeters>
            <DistanceMeters>NAN</DistanceMeters>
          </Trackpoint>
          <Trackpoint>
            <Time>2021-08-03T05:57:16.000Z</Time>
            <Position>
              <LatitudeDegrees>-15.3544099442660808563232421875</LatitudeDegrees>
              <LongitudeDegrees>37.07006807439029216766357421875</LongitudeDegrees>
            </Position>
            <AltitudeMeters>2026.199951171875</AltitudeMeters>
            <DistanceMeters>NAN</DistanceMeters>
          </Trackpoint>
          <Trackpoint>
            <Time>2021-08-03T05:57:18.000Z</Time>
            <Position>
              <LatitudeDegrees>-15.3544203378260135650634765625</LatitudeDegrees>
              <LongitudeDegrees>37.07008601166307926177978515625</LongitudeDegrees>
            </Position>
            <AltitudeMeters>2025.5999755859375</AltitudeMeters>
            <DistanceMeters>NAN</DistanceMeters>
          </Trackpoint>
          <Trackpoint>
            <Time>2021-08-03T05:57:19.000Z</Time>
            <Position>
              <LatitudeDegrees>-15.35442176274955272674560546875</LatitudeDegrees>
              <LongitudeDegrees>37.070095650851726531982421875</LongitudeDegrees>
            </Position>
            <AltitudeMeters>2024.800048828125</AltitudeMeters>
            <DistanceMeters>NAN</DistanceMeters>
          </Trackpoint>
          <Trackpoint>
            <Time>2021-08-03T05:57:23.000Z</Time>
            <Position>
              <LatitudeDegrees>-15.354411117732524871826171875</LatitudeDegrees>
              <LongitudeDegrees>37.07012356258928775787353515625</LongitudeDegrees>
            </Position>
            <AltitudeMeters>2023.800048828125</AltitudeMeters>
            <DistanceMeters>NAN</DistanceMeters>
          </Trackpoint>
          <Trackpoint>
            <Time>2021-08-03T05:57:24.000Z</Time>
            <Position>
              <LatitudeDegrees>-15.354413129389286041259765625</LatitudeDegrees>
              <LongitudeDegrees>37.07012892700731754302978515625</LongitudeDegrees>
            </Position>
            <AltitudeMeters>2023.4000244140625</AltitudeMeters>
            <DistanceMeters>NAN</DistanceMeters>
          </Trackpoint>
          <Trackpoint>
            <Time>2021-08-03T05:57:27.000Z</Time>
            <Position>
              <LatitudeDegrees>-15.35440851934254169464111328125</LatitudeDegrees>
              <LongitudeDegrees>37.0701404102146625518798828125</LongitudeDegrees>
            </Position>
            <AltitudeMeters>2022.5999755859375</AltitudeMeters>
            <DistanceMeters>NAN</DistanceMeters>
          </Trackpoint>
          <Trackpoint>
            <Time>2021-08-03T05:57:30.000Z</Time>
            <Position>
              <LatitudeDegrees>-15.3543980419635772705078125</LatitudeDegrees>
              <LongitudeDegrees>37.070153318345546722412109375</LongitudeDegrees>
            </Position>
            <AltitudeMeters>2021.5999755859375</AltitudeMeters>
            <DistanceMeters>NAN</DistanceMeters>
          </Trackpoint>
          <Trackpoint>
            <Time>2021-08-03T05:57:31.000Z</Time>
            <Position>
              <LatitudeDegrees>-15.3544049151241779327392578125</LatitudeDegrees>
              <LongitudeDegrees>37.07015742547810077667236328125</LongitudeDegrees>
            </Position>
            <AltitudeMeters>2021.5999755859375</AltitudeMeters>
            <DistanceMeters>NAN</DistanceMeters>
          </Trackpoint>
          <Trackpoint>
            <Time>2021-08-03T05:57:36.000Z</Time>
            <Position>
              <LatitudeDegrees>-15.35438706167042255401611328125</LatitudeDegrees>
              <LongitudeDegrees>37.07018106244504451751708984375</LongitudeDegrees>
            </Position>
            <AltitudeMeters>2020.800048828125</AltitudeMeters>
            <DistanceMeters>NAN</DistanceMeters>
          </Trackpoint>
          <Trackpoint>
            <Time>2021-08-03T05:57:37.000Z</Time>
            <Position>
              <LatitudeDegrees>-15.35438396036624908447265625</LatitudeDegrees>
              <LongitudeDegrees>37.0701853372156620025634765625</LongitudeDegrees>
            </Position>
            <AltitudeMeters>2020.5999755859375</AltitudeMeters>
            <DistanceMeters>NAN</DistanceMeters>
          </Trackpoint>
          <Trackpoint>
            <Time>2021-08-03T05:57:39.000Z</Time>
            <Position>
              <LatitudeDegrees>-15.354382954537868499755859375</LatitudeDegrees>
              <LongitudeDegrees>37.070185504853725433349609375</LongitudeDegrees>
            </Position>
            <AltitudeMeters>2020.4000244140625</AltitudeMeters>
            <DistanceMeters>NAN</DistanceMeters>
          </Trackpoint>
          <Trackpoint>
            <Time>2021-08-03T05:57:40.000Z</Time>
            <Position>
              <LatitudeDegrees>-15.35437993705272674560546875</LatitudeDegrees>
              <LongitudeDegrees>37.07018441520631313323974609375</LongitudeDegrees>
            </Position>
            <AltitudeMeters>2019.5999755859375</AltitudeMeters>
            <DistanceMeters>NAN</DistanceMeters>
          </Trackpoint>
          <Trackpoint>
            <Time>2021-08-03T05:57:41.000Z</Time>
            <Position>
              <LatitudeDegrees>-15.354377590119838714599609375</LatitudeDegrees>
              <LongitudeDegrees>37.0701871812343597412109375</LongitudeDegrees>
            </Position>
            <AltitudeMeters>2019.4000244140625</AltitudeMeters>
            <DistanceMeters>NAN</DistanceMeters>
          </Trackpoint>
          <Trackpoint>
            <Time>2021-08-03T05:57:44.000Z</Time>
            <Position>
              <LatitudeDegrees>-15.35436384379863739013671875</LatitudeDegrees>
              <LongitudeDegrees>37.07020252011716365814208984375</LongitudeDegrees>
            </Position>
            <AltitudeMeters>2019.199951171875</AltitudeMeters>
            <DistanceMeters>NAN</DistanceMeters>
          </Trackpoint>
          <Trackpoint>
            <Time>2021-08-03T05:57:46.000Z</Time>
            <Position>
              <LatitudeDegrees>-15.35435755737125873565673828125</LatitudeDegrees>
              <LongitudeDegrees>37.07020872272551059722900390625</LongitudeDegrees>
            </Position>
            <AltitudeMeters>2019.199951171875</AltitudeMeters>
            <DistanceMeters>NAN</DistanceMeters>
          </Trackpoint>
          <Trackpoint>
            <Time>2021-08-03T05:57:48.000Z</Time>
            <Position>
              <LatitudeDegrees>-15.3543552942574024200439453125</LatitudeDegrees>
              <LongitudeDegrees>37.07020972855389118194580078125</LongitudeDegrees>
            </Position>
            <AltitudeMeters>2018.4000244140625</AltitudeMeters>
            <DistanceMeters>NAN</DistanceMeters>
          </Trackpoint>
          <Trackpoint>
            <Time>2021-08-03T05:57:49.000Z</Time>
            <Position>
              <LatitudeDegrees>-15.35435219295322895050048828125</LatitudeDegrees>
              <LongitudeDegrees>37.0702084712684154510498046875</LongitudeDegrees>
            </Position>
            <AltitudeMeters>2018.4000244140625</AltitudeMeters>
            <DistanceMeters>NAN</DistanceMeters>
          </Trackpoint>
          <Trackpoint>
            <Time>2021-08-03T05:57:54.000Z</Time>
            <Position>
              <LatitudeDegrees>-15.35433559678494930267333984375</LatitudeDegrees>
              <LongitudeDegrees>37.07021542824804782867431640625</LongitudeDegrees>
            </Position>
            <AltitudeMeters>2018.5999755859375</AltitudeMeters>
            <DistanceMeters>NAN</DistanceMeters>
          </Trackpoint>
          <Trackpoint>
            <Time>2021-08-03T05:57:55.000Z</Time>
            <Position>
              <LatitudeDegrees>-15.35432897508144378662109375</LatitudeDegrees>
              <LongitudeDegrees>37.07022263668477535247802734375</LongitudeDegrees>
            </Position>
            <AltitudeMeters>2018.5999755859375</AltitudeMeters>
            <DistanceMeters>NAN</DistanceMeters>
          </Trackpoint>
          <Trackpoint>
            <Time>2021-08-03T05:57:59.000Z</Time>
            <Position>
              <LatitudeDegrees>-15.35430022515356540679931640625</LatitudeDegrees>
              <LongitudeDegrees>37.07023252733051776885986328125</LongitudeDegrees>
            </Position>
            <AltitudeMeters>2018.5999755859375</AltitudeMeters>
            <DistanceMeters>NAN</DistanceMeters>
          </Trackpoint>
          <Trackpoint>
            <Time>2021-08-03T05:58:01.000Z</Time>
            <Position>
              <LatitudeDegrees>-15.35429536364972591400146484375</LatitudeDegrees>
              <LongitudeDegrees>37.0702488720417022705078125</LongitudeDegrees>
            </Position>
            <AltitudeMeters>2017.4000244140625</AltitudeMeters>
            <DistanceMeters>NAN</DistanceMeters>
          </Trackpoint>
          <Trackpoint>
            <Time>2021-08-03T05:58:02.000Z</Time>
            <Position>
              <LatitudeDegrees>-15.35429553128778934478759765625</LatitudeDegrees>
              <LongitudeDegrees>37.07025750540196895599365234375</LongitudeDegrees>
            </Position>
            <AltitudeMeters>2017.199951171875</AltitudeMeters>
            <DistanceMeters>NAN</DistanceMeters>
          </Trackpoint>
          <Trackpoint>
            <Time>2021-08-03T05:58:05.000Z</Time>
            <Position>
              <LatitudeDegrees>-15.35429804585874080657958984375</LatitudeDegrees>
              <LongitudeDegrees>37.070286758244037628173828125</LongitudeDegrees>
            </Position>
            <AltitudeMeters>2016.199951171875</AltitudeMeters>
            <DistanceMeters>NAN</DistanceMeters>
          </Trackpoint>
          <Trackpoint>
            <Time>2021-08-03T05:58:06.000Z</Time>
            <Position>
              <LatitudeDegrees>-15.35429720766842365264892578125</LatitudeDegrees>
              <LongitudeDegrees>37.0702932961285114288330078125</LongitudeDegrees>
            </Position>
            <AltitudeMeters>2016</AltitudeMeters>
            <DistanceMeters>NAN</DistanceMeters>
          </Trackpoint>
          <Trackpoint>
            <Time>2021-08-03T05:58:09.000Z</Time>
            <Position>
              <LatitudeDegrees>-15.35429410636425018310546875</LatitudeDegrees>
              <LongitudeDegrees>37.07031986676156520843505859375</LongitudeDegrees>
            </Position>
            <AltitudeMeters>2015.4000244140625</AltitudeMeters>
            <DistanceMeters>NAN</DistanceMeters>
          </Trackpoint>
          <Trackpoint>
            <Time>2021-08-03T05:58:10.000Z</Time>
            <Position>
              <LatitudeDegrees>-15.35428798757493495941162109375</LatitudeDegrees>
              <LongitudeDegrees>37.07032556645572185516357421875</LongitudeDegrees>
            </Position>
            <AltitudeMeters>2014.199951171875</AltitudeMeters>
            <DistanceMeters>NAN</DistanceMeters>
          </Trackpoint>
          <Trackpoint>
            <Time>2021-08-03T05:58:12.000Z</Time>
            <Position>
              <LatitudeDegrees>-15.3542765043675899505615234375</LatitudeDegrees>
              <LongitudeDegrees>37.07033243961632251739501953125</LongitudeDegrees>
            </Position>
            <AltitudeMeters>2013.199951171875</AltitudeMeters>
            <DistanceMeters>NAN</DistanceMeters>
          </Trackpoint>
          <Trackpoint>
            <Time>2021-08-03T05:58:13.000Z</Time>
            <Position>
              <LatitudeDegrees>-15.3542719781398773193359375</LatitudeDegrees>
              <LongitudeDegrees>37.070337720215320587158203125</LongitudeDegrees>
            </Position>
            <AltitudeMeters>2013</AltitudeMeters>
            <DistanceMeters>NAN</DistanceMeters>
          </Trackpoint>
          <Trackpoint>
            <Time>2021-08-03T05:58:16.000Z</Time>
            <Position>
              <LatitudeDegrees>-15.35425848327577114105224609375</LatitudeDegrees>
              <LongitudeDegrees>37.0703690685331821441650390625</LongitudeDegrees>
            </Position>
            <AltitudeMeters>2012</AltitudeMeters>
            <DistanceMeters>NAN</DistanceMeters>
          </Trackpoint>
          <Trackpoint>
            <Time>2021-08-03T05:58:17.000Z</Time>
            <Position>
              <LatitudeDegrees>-15.35425161011517047882080078125</LatitudeDegrees>
              <LongitudeDegrees>37.07037451677024364471435546875</LongitudeDegrees>
            </Position>
            <AltitudeMeters>2011.800048828125</AltitudeMeters>
            <DistanceMeters>NAN</DistanceMeters>
          </Trackpoint>
          <Trackpoint>
            <Time>2021-08-03T05:58:19.000Z</Time>
            <Position>
              <LatitudeDegrees>-15.3542424738407135009765625</LatitudeDegrees>
              <LongitudeDegrees>37.070378623902797698974609375</LongitudeDegrees>
            </Position>
            <AltitudeMeters>2010.800048828125</AltitudeMeters>
            <DistanceMeters>NAN</DistanceMeters>
          </Trackpoint>
          <Trackpoint>
            <Time>2021-08-03T05:58:21.000Z</Time>
            <Position>
              <LatitudeDegrees>-15.3542272187769412994384765625</LatitudeDegrees>
              <LongitudeDegrees>37.07039379514753818511962890625</LongitudeDegrees>
            </Position>
            <AltitudeMeters>2010.5999755859375</AltitudeMeters>
            <DistanceMeters>NAN</DistanceMeters>
          </Trackpoint>
          <Trackpoint>
            <Time>2021-08-03T05:58:23.000Z</Time>
            <Position>
              <LatitudeDegrees>-15.35421892069280147552490234375</LatitudeDegrees>
              <LongitudeDegrees>37.07041223533451557159423828125</LongitudeDegrees>
            </Position>
            <AltitudeMeters>2010</AltitudeMeters>
            <DistanceMeters>NAN</DistanceMeters>
          </Trackpoint>
          <Trackpoint>
            <Time>2021-08-03T05:58:24.000Z</Time>
            <Position>
              <LatitudeDegrees>-15.35421975888311862945556640625</LatitudeDegrees>
              <LongitudeDegrees>37.0704213716089725494384765625</LongitudeDegrees>
            </Position>
            <AltitudeMeters>2009.5999755859375</AltitudeMeters>
            <DistanceMeters>NAN</DistanceMeters>
          </Trackpoint>
          <Trackpoint>
            <Time>2021-08-03T05:58:27.000Z</Time>
            <Position>
              <LatitudeDegrees>-15.354222021996974945068359375</LatitudeDegrees>
              <LongitudeDegrees>37.07044291310012340545654296875</LongitudeDegrees>
            </Position>
            <AltitudeMeters>2008.4000244140625</AltitudeMeters>
            <DistanceMeters>NAN</DistanceMeters>
          </Trackpoint>
          <Trackpoint>
            <Time>2021-08-03T05:58:30.000Z</Time>
            <Position>
              <LatitudeDegrees>-15.35422512330114841461181640625</LatitudeDegrees>
              <LongitudeDegrees>37.07045917399227619171142578125</LongitudeDegrees>
            </Position>
            <AltitudeMeters>2007.5999755859375</AltitudeMeters>
            <DistanceMeters>NAN</DistanceMeters>
          </Trackpoint>
          <Trackpoint>
            <Time>2021-08-03T05:58:31.000Z</Time>
            <Position>
              <LatitudeDegrees>-15.354224704205989837646484375</LatitudeDegrees>
              <LongitudeDegrees>37.07046621479094028472900390625</LongitudeDegrees>
            </Position>
            <AltitudeMeters>2007.199951171875</AltitudeMeters>
            <DistanceMeters>NAN</DistanceMeters>
          </Trackpoint>
          <Trackpoint>
            <Time>2021-08-03T05:58:36.000Z</Time>
            <Position>
              <LatitudeDegrees>-15.354214645922183990478515625</LatitudeDegrees>
              <LongitudeDegrees>37.07051080651581287384033203125</LongitudeDegrees>
            </Position>
            <AltitudeMeters>2006.5999755859375</AltitudeMeters>
            <DistanceMeters>NAN</DistanceMeters>
          </Trackpoint>
          <Trackpoint>
            <Time>2021-08-03T05:58:37.000Z</Time>
            <Position>
              <LatitudeDegrees>-15.35421204753220081329345703125</LatitudeDegrees>
              <LongitudeDegrees>37.070516087114810943603515625</LongitudeDegrees>
            </Position>
            <AltitudeMeters>2006.199951171875</AltitudeMeters>
            <DistanceMeters>NAN</DistanceMeters>
          </Trackpoint>
          <Trackpoint>
            <Time>2021-08-03T05:58:38.000Z</Time>
            <Position>
              <LatitudeDegrees>-15.35421053878962993621826171875</LatitudeDegrees>
              <LongitudeDegrees>37.070520780980587005615234375</LongitudeDegrees>
            </Position>
            <AltitudeMeters>2006</AltitudeMeters>
            <DistanceMeters>NAN</DistanceMeters>
          </Trackpoint>
          <Trackpoint>
            <Time>2021-08-03T05:58:42.000Z</Time>
            <Position>
              <LatitudeDegrees>-15.35419092513620853424072265625</LatitudeDegrees>
              <LongitudeDegrees>37.0705439150333404541015625</LongitudeDegrees>
            </Position>
            <AltitudeMeters>2005</AltitudeMeters>
            <DistanceMeters>NAN</DistanceMeters>
          </Trackpoint>
          <Trackpoint>
            <Time>2021-08-03T05:58:43.000Z</Time>
            <Position>
              <LatitudeDegrees>-15.35418790765106678009033203125</LatitudeDegrees>
              <LongitudeDegrees>37.07055271603167057037353515625</LongitudeDegrees>
            </Position>
            <AltitudeMeters>2005</AltitudeMeters>
            <DistanceMeters>NAN</DistanceMeters>
          </Trackpoint>
          <Trackpoint>
            <Time>2021-08-03T05:58:45.000Z</Time>
            <Position>
              <LatitudeDegrees>-15.3541832976043224334716796875</LatitudeDegrees>
              <LongitudeDegrees>37.0705668814480304718017578125</LongitudeDegrees>
            </Position>
            <AltitudeMeters>2004.5999755859375</AltitudeMeters>
            <DistanceMeters>NAN</DistanceMeters>
          </Trackpoint>
          <Trackpoint>
            <Time>2021-08-03T05:58:49.000Z</Time>
            <Position>
              <LatitudeDegrees>-15.35418338142335414886474609375</LatitudeDegrees>
              <LongitudeDegrees>37.07059688866138458251953125</LongitudeDegrees>
            </Position>
            <AltitudeMeters>2004.4000244140625</AltitudeMeters>
            <DistanceMeters>NAN</DistanceMeters>
          </Trackpoint>
          <Trackpoint>
            <Time>2021-08-03T05:58:50.000Z</Time>
            <Position>
              <LatitudeDegrees>-15.3541849739849567413330078125</LatitudeDegrees>
              <LongitudeDegrees>37.070602588355541229248046875</LongitudeDegrees>
            </Position>
            <AltitudeMeters>2004</AltitudeMeters>
            <DistanceMeters>NAN</DistanceMeters>
          </Trackpoint>
          <Trackpoint>
            <Time>2021-08-03T05:58:55.000Z</Time>
            <Position>
              <LatitudeDegrees>-15.354172401130199432373046875</LatitudeDegrees>
              <LongitudeDegrees>37.07063603214919567108154296875</LongitudeDegrees>
            </Position>
            <AltitudeMeters>2003.4000244140625</AltitudeMeters>
            <DistanceMeters>NAN</DistanceMeters>
          </Trackpoint>
          <Trackpoint>
            <Time>2021-08-03T05:58:57.000Z</Time>
            <Position>
              <LatitudeDegrees>-15.354169718921184539794921875</LatitudeDegrees>
              <LongitudeDegrees>37.070652879774570465087890625</LongitudeDegrees>
            </Position>
            <AltitudeMeters>2003</AltitudeMeters>
            <DistanceMeters>NAN</DistanceMeters>
          </Trackpoint>
          <Trackpoint>
            <Time>2021-08-03T05:58:58.000Z</Time>
            <Position>
              <LatitudeDegrees>-15.3541692160069942474365234375</LatitudeDegrees>
              <LongitudeDegrees>37.07065857946872711181640625</LongitudeDegrees>
            </Position>
            <AltitudeMeters>2002.4000244140625</AltitudeMeters>
            <DistanceMeters>NAN</DistanceMeters>
          </Trackpoint>
          <Trackpoint>
            <Time>2021-08-03T05:59:03.000Z</Time>
            <Position>
              <LatitudeDegrees>-15.35415505059063434600830078125</LatitudeDegrees>
              <LongitudeDegrees>37.0706895925104618072509765625</LongitudeDegrees>
            </Position>
            <AltitudeMeters>2001.4000244140625</AltitudeMeters>
            <DistanceMeters>NAN</DistanceMeters>
          </Trackpoint>
          <Trackpoint>
            <Time>2021-08-03T05:59:05.000Z</Time>
            <Position>
              <LatitudeDegrees>-15.35414633341133594512939453125</LatitudeDegrees>
              <LongitudeDegrees>37.070706188678741455078125</LongitudeDegrees>
            </Position>
            <AltitudeMeters>2000.800048828125</AltitudeMeters>
            <DistanceMeters>NAN</DistanceMeters>
          </Trackpoint>
          <Trackpoint>
            <Time>2021-08-03T05:59:09.000Z</Time>
            <Position>
              <LatitudeDegrees>-15.3541410528123378753662109375</LatitudeDegrees>
              <LongitudeDegrees>37.07074114121496677398681640625</LongitudeDegrees>
            </Position>
            <AltitudeMeters>2000</AltitudeMeters>
            <DistanceMeters>NAN</DistanceMeters>
          </Trackpoint>
          <Trackpoint>
            <Time>2021-08-03T05:59:10.000Z</Time>
            <Position>
              <LatitudeDegrees>-15.35414046607911586761474609375</LatitudeDegrees>
              <LongitudeDegrees>37.07075388170778751373291015625</LongitudeDegrees>
            </Position>
            <AltitudeMeters>1999.800048828125</AltitudeMeters>
            <DistanceMeters>NAN</DistanceMeters>
          </Trackpoint>
          <Trackpoint>
            <Time>2021-08-03T05:59:11.000Z</Time>
            <Position>
              <LatitudeDegrees>-15.35413920879364013671875</LatitudeDegrees>
              <LongitudeDegrees>37.070766203105449676513671875</LongitudeDegrees>
            </Position>
            <AltitudeMeters>1999.800048828125</AltitudeMeters>
            <DistanceMeters>NAN</DistanceMeters>
          </Trackpoint>
          <Trackpoint>
            <Time>2021-08-03T05:59:15.000Z</Time>
            <Position>
              <LatitudeDegrees>-15.35413091070950031280517578125</LatitudeDegrees>
              <LongitudeDegrees>37.07079134881496429443359375</LongitudeDegrees>
            </Position>
            <AltitudeMeters>1998.800048828125</AltitudeMeters>
            <DistanceMeters>NAN</DistanceMeters>
          </Trackpoint>
          <Trackpoint>
            <Time>2021-08-03T05:59:17.000Z</Time>
            <Position>
              <LatitudeDegrees>-15.354125797748565673828125</LatitudeDegrees>
              <LongitudeDegrees>37.07080517895519733428955078125</LongitudeDegrees>
            </Position>
            <AltitudeMeters>1998.800048828125</AltitudeMeters>
            <DistanceMeters>NAN</DistanceMeters>
          </Trackpoint>
          <Trackpoint>
            <Time>2021-08-03T05:59:23.000Z</Time>
            <Position>
              <LatitudeDegrees>-15.35413049161434173583984375</LatitudeDegrees>
              <LongitudeDegrees>37.07082043401896953582763671875</LongitudeDegrees>
            </Position>
            <AltitudeMeters>1998.199951171875</AltitudeMeters>
            <DistanceMeters>NAN</DistanceMeters>
          </Trackpoint>
          <Trackpoint>
            <Time>2021-08-03T05:59:25.000Z</Time>
            <Position>
              <LatitudeDegrees>-15.35413040779531002044677734375</LatitudeDegrees>
              <LongitudeDegrees>37.07083568908274173736572265625</LongitudeDegrees>
            </Position>
            <AltitudeMeters>1997.199951171875</AltitudeMeters>
            <DistanceMeters>NAN</DistanceMeters>
          </Trackpoint>
          <Trackpoint>
            <Time>2021-08-03T05:59:26.000Z</Time>
            <Position>
              <LatitudeDegrees>-15.354128144681453704833984375</LatitudeDegrees>
              <LongitudeDegrees>37.070843316614627838134765625</LongitudeDegrees>
            </Position>
            <AltitudeMeters>1997.199951171875</AltitudeMeters>
            <DistanceMeters>NAN</DistanceMeters>
          </Trackpoint>
          <Trackpoint>
            <Time>2021-08-03T05:59:29.000Z</Time>
            <Position>
              <LatitudeDegrees>-15.35410677082836627960205078125</LatitudeDegrees>
              <LongitudeDegrees>37.07086242735385894775390625</LongitudeDegrees>
            </Position>
            <AltitudeMeters>1996.800048828125</AltitudeMeters>
            <DistanceMeters>NAN</DistanceMeters>
          </Trackpoint>
          <Trackpoint>
            <Time>2021-08-03T05:59:30.000Z</Time>
            <Position>
              <LatitudeDegrees>-15.35410123877227306365966796875</LatitudeDegrees>
              <LongitudeDegrees>37.07086921669542789459228515625</LongitudeDegrees>
            </Position>
            <AltitudeMeters>1996.5999755859375</AltitudeMeters>
            <DistanceMeters>NAN</DistanceMeters>
          </Trackpoint>
          <Trackpoint>
            <Time>2021-08-03T05:59:33.000Z</Time>
            <Position>
              <LatitudeDegrees>-15.3541018255054950714111328125</LatitudeDegrees>
              <LongitudeDegrees>37.070900313556194305419921875</LongitudeDegrees>
            </Position>
            <AltitudeMeters>1996.199951171875</AltitudeMeters>
            <DistanceMeters>NAN</DistanceMeters>
          </Trackpoint>
          <Trackpoint>
            <Time>2021-08-03T05:59:34.000Z</Time>
            <Position>
              <LatitudeDegrees>-15.35410769283771514892578125</LatitudeDegrees>
              <LongitudeDegrees>37.07091607153415679931640625</LongitudeDegrees>
            </Position>
            <AltitudeMeters>1996</AltitudeMeters>
            <DistanceMeters>NAN</DistanceMeters>
          </Trackpoint>
          <Trackpoint>
            <Time>2021-08-03T05:59:35.000Z</Time>
            <Position>
              <LatitudeDegrees>-15.35410827957093715667724609375</LatitudeDegrees>
              <LongitudeDegrees>37.07093375734984874725341796875</LongitudeDegrees>
            </Position>
            <AltitudeMeters>1995.5999755859375</AltitudeMeters>
            <DistanceMeters>NAN</DistanceMeters>
          </Trackpoint>
          <Trackpoint>
            <Time>2021-08-03T05:59:38.000Z</Time>
            <Position>
              <LatitudeDegrees>-15.3540951199829578399658203125</LatitudeDegrees>
              <LongitudeDegrees>37.0709650218486785888671875</LongitudeDegrees>
            </Position>
            <AltitudeMeters>1994.800048828125</AltitudeMeters>
            <DistanceMeters>NAN</DistanceMeters>
          </Trackpoint>
          <Trackpoint>
            <Time>2021-08-03T05:59:39.000Z</Time>
            <Position>
              <LatitudeDegrees>-15.354091934859752655029296875</LatitudeDegrees>
              <LongitudeDegrees>37.07097373902797698974609375</LongitudeDegrees>
            </Position>
            <AltitudeMeters>1994.800048828125</AltitudeMeters>
            <DistanceMeters>NAN</DistanceMeters>
          </Trackpoint>
          <Trackpoint>
            <Time>2021-08-03T05:59:42.000Z</Time>
            <Position>
              <LatitudeDegrees>-15.35408967174589633941650390625</LatitudeDegrees>
              <LongitudeDegrees>37.07099460996687412261962890625</LongitudeDegrees>
            </Position>
            <AltitudeMeters>1994.199951171875</AltitudeMeters>
            <DistanceMeters>NAN</DistanceMeters>
          </Trackpoint>
          <Trackpoint>
            <Time>2021-08-03T05:59:44.000Z</Time>
            <Position>
              <LatitudeDegrees>-15.35408866591751575469970703125</LatitudeDegrees>
              <LongitudeDegrees>37.071015648543834686279296875</LongitudeDegrees>
            </Position>
            <AltitudeMeters>1993.199951171875</AltitudeMeters>
            <DistanceMeters>NAN</DistanceMeters>
          </Trackpoint>
          <Trackpoint>
            <Time>2021-08-03T05:59:47.000Z</Time>
            <Position>
              <LatitudeDegrees>-15.354082547128200531005859375</LatitudeDegrees>
              <LongitudeDegrees>37.071041129529476165771484375</LongitudeDegrees>
            </Position>
            <AltitudeMeters>1993</AltitudeMeters>
            <DistanceMeters>NAN</DistanceMeters>
          </Trackpoint>
          <Trackpoint>
            <Time>2021-08-03T05:59:51.000Z</Time>
            <Position>
              <LatitudeDegrees>-15.35407106392085552215576171875</LatitudeDegrees>
              <LongitudeDegrees>37.07108161412179470062255859375</LongitudeDegrees>
            </Position>
            <AltitudeMeters>1992.5999755859375</AltitudeMeters>
            <DistanceMeters>NAN</DistanceMeters>
          </Trackpoint>
          <Trackpoint>
            <Time>2021-08-03T05:59:52.000Z</Time>
            <Position>
              <LatitudeDegrees>-15.35406787879765033721923828125</LatitudeDegrees>
              <LongitudeDegrees>37.07109049893915653228759765625</LongitudeDegrees>
            </Position>
            <AltitudeMeters>1991.800048828125</AltitudeMeters>
            <DistanceMeters>NAN</DistanceMeters>
          </Trackpoint>
          <Trackpoint>
            <Time>2021-08-03T05:59:55.000Z</Time>
            <Position>
              <LatitudeDegrees>-15.354063771665096282958984375</LatitudeDegrees>
              <LongitudeDegrees>37.0711110346019268035888671875</LongitudeDegrees>
            </Position>
            <AltitudeMeters>1990.800048828125</AltitudeMeters>
            <DistanceMeters>NAN</DistanceMeters>
          </Trackpoint>
          <Trackpoint>
            <Time>2021-08-03T05:59:56.000Z</Time>
            <Position>
              <LatitudeDegrees>-15.35406251437962055206298828125</LatitudeDegrees>
              <LongitudeDegrees>37.07111966796219348907470703125</LongitudeDegrees>
            </Position>
            <AltitudeMeters>1989.800048828125</AltitudeMeters>
            <DistanceMeters>NAN</DistanceMeters>
          </Trackpoint>
          <Trackpoint>
            <Time>2021-08-03T05:59:57.000Z</Time>
            <Position>
              <LatitudeDegrees>-15.3540609218180179595947265625</LatitudeDegrees>
              <LongitudeDegrees>37.07112587057054042816162109375</LongitudeDegrees>
            </Position>
            <AltitudeMeters>1989.800048828125</AltitudeMeters>
            <DistanceMeters>NAN</DistanceMeters>
          </Trackpoint>
          <Trackpoint>
            <Time>2021-08-03T06:00:00.000Z</Time>
            <Position>
              <LatitudeDegrees>-15.35404600203037261962890625</LatitudeDegrees>
              <LongitudeDegrees>37.0711559616029262542724609375</LongitudeDegrees>
            </Position>
            <AltitudeMeters>1989</AltitudeMeters>
            <DistanceMeters>NAN</DistanceMeters>
          </Trackpoint>
          <Trackpoint>
            <Time>2021-08-03T06:00:02.000Z</Time>
            <Position>
              <LatitudeDegrees>-15.354040972888469696044921875</LatitudeDegrees>
              <LongitudeDegrees>37.0711787603795528411865234375</LongitudeDegrees>
            </Position>
            <AltitudeMeters>1988.800048828125</AltitudeMeters>
            <DistanceMeters>NAN</DistanceMeters>
          </Trackpoint>
          <Trackpoint>
            <Time>2021-08-03T06:00:04.000Z</Time>
            <Position>
              <LatitudeDegrees>-15.35403653047978878021240234375</LatitudeDegrees>
              <LongitudeDegrees>37.0711975358426570892333984375</LongitudeDegrees>
            </Position>
            <AltitudeMeters>1988.199951171875</AltitudeMeters>
            <DistanceMeters>NAN</DistanceMeters>
          </Trackpoint>
          <Trackpoint>
            <Time>2021-08-03T06:00:06.000Z</Time>
            <Position>
              <LatitudeDegrees>-15.35402798093855381011962890625</LatitudeDegrees>
              <LongitudeDegrees>37.0712077617645263671875</LongitudeDegrees>
            </Position>
            <AltitudeMeters>1987.5999755859375</AltitudeMeters>
            <DistanceMeters>NAN</DistanceMeters>
          </Trackpoint>
          <Trackpoint>
            <Time>2021-08-03T06:00:09.000Z</Time>
            <Position>
              <LatitudeDegrees>-15.35400979220867156982421875</LatitudeDegrees>
              <LongitudeDegrees>37.07124070264399051666259765625</LongitudeDegrees>
            </Position>
            <AltitudeMeters>1987</AltitudeMeters>
            <DistanceMeters>NAN</DistanceMeters>
          </Trackpoint>
          <Trackpoint>
            <Time>2021-08-03T06:00:10.000Z</Time>
            <Position>
              <LatitudeDegrees>-15.35400979220867156982421875</LatitudeDegrees>
              <LongitudeDegrees>37.07125143148005008697509765625</LongitudeDegrees>
            </Position>
            <AltitudeMeters>1986.4000244140625</AltitudeMeters>
            <DistanceMeters>NAN</DistanceMeters>
          </Trackpoint>
          <Trackpoint>
            <Time>2021-08-03T06:00:13.000Z</Time>
            <Position>
              <LatitudeDegrees>-15.35400719381868839263916015625</LatitudeDegrees>
              <LongitudeDegrees>37.07127573899924755096435546875</LongitudeDegrees>
            </Position>
            <AltitudeMeters>1985.4000244140625</AltitudeMeters>
            <DistanceMeters>NAN</DistanceMeters>
          </Trackpoint>
          <Trackpoint>
            <Time>2021-08-03T06:00:15.000Z</Time>
            <Position>
              <LatitudeDegrees>-15.35400434397161006927490234375</LatitudeDegrees>
              <LongitudeDegrees>37.07128881476819515228271484375</LongitudeDegrees>
            </Position>
            <AltitudeMeters>1984.800048828125</AltitudeMeters>
            <DistanceMeters>NAN</DistanceMeters>
          </Trackpoint>
          <Trackpoint>
            <Time>2021-08-03T06:00:17.000Z</Time>
            <Position>
              <LatitudeDegrees>-15.35400149412453174591064453125</LatitudeDegrees>
              <LongitudeDegrees>37.07130541093647480010986328125</LongitudeDegrees>
            </Position>
            <AltitudeMeters>1984.199951171875</AltitudeMeters>
            <DistanceMeters>NAN</DistanceMeters>
          </Trackpoint>
          <Trackpoint>
            <Time>2021-08-03T06:00:22.000Z</Time>
            <Position>
              <LatitudeDegrees>-15.3539930284023284912109375</LatitudeDegrees>
              <LongitudeDegrees>37.071356959640979766845703125</LongitudeDegrees>
            </Position>
            <AltitudeMeters>1982.800048828125</AltitudeMeters>
            <DistanceMeters>NAN</DistanceMeters>
          </Trackpoint>
          <Trackpoint>
            <Time>2021-08-03T06:00:26.000Z</Time>
            <Position>
              <LatitudeDegrees>-15.3539715707302093505859375</LatitudeDegrees>
              <LongitudeDegrees>37.07138302735984325408935546875</LongitudeDegrees>
            </Position>
            <AltitudeMeters>1981.199951171875</AltitudeMeters>
            <DistanceMeters>NAN</DistanceMeters>
          </Trackpoint>
          <Trackpoint>
            <Time>2021-08-03T06:00:28.000Z</Time>
            <Position>
              <LatitudeDegrees>-15.35396955907344818115234375</LatitudeDegrees>
              <LongitudeDegrees>37.07139543257653713226318359375</LongitudeDegrees>
            </Position>
            <AltitudeMeters>1980.4000244140625</AltitudeMeters>
            <DistanceMeters>NAN</DistanceMeters>
          </Trackpoint>
          <Trackpoint>
            <Time>2021-08-03T06:00:29.000Z</Time>
            <Position>
              <LatitudeDegrees>-15.35396897234022617340087890625</LatitudeDegrees>
              <LongitudeDegrees>37.07140347920358180999755859375</LongitudeDegrees>
            </Position>
            <AltitudeMeters>1980</AltitudeMeters>
            <DistanceMeters>NAN</DistanceMeters>
          </Trackpoint>
          <Trackpoint>
            <Time>2021-08-03T06:00:34.000Z</Time>
            <Position>
              <LatitudeDegrees>-15.3539529629051685333251953125</LatitudeDegrees>
              <LongitudeDegrees>37.07144455052912235260009765625</LongitudeDegrees>
            </Position>
            <AltitudeMeters>1978.4000244140625</AltitudeMeters>
            <DistanceMeters>NAN</DistanceMeters>
          </Trackpoint>
          <Trackpoint>
            <Time>2021-08-03T06:00:35.000Z</Time>
            <Position>
              <LatitudeDegrees>-15.35394986160099506378173828125</LatitudeDegrees>
              <LongitudeDegrees>37.0714486576616764068603515625</LongitudeDegrees>
            </Position>
            <AltitudeMeters>1978.4000244140625</AltitudeMeters>
            <DistanceMeters>NAN</DistanceMeters>
          </Trackpoint>
          <Trackpoint>
            <Time>2021-08-03T06:00:38.000Z</Time>
            <Position>
              <LatitudeDegrees>-15.3539351932704448699951171875</LatitudeDegrees>
              <LongitudeDegrees>37.07146483473479747772216796875</LongitudeDegrees>
            </Position>
            <AltitudeMeters>1977.199951171875</AltitudeMeters>
            <DistanceMeters>NAN</DistanceMeters>
          </Trackpoint>
          <Trackpoint>
            <Time>2021-08-03T06:00:41.000Z</Time>
            <Position>
              <LatitudeDegrees>-15.35393200814723968505859375</LatitudeDegrees>
              <LongitudeDegrees>37.0714932493865489959716796875</LongitudeDegrees>
            </Position>
            <AltitudeMeters>1976.800048828125</AltitudeMeters>
            <DistanceMeters>NAN</DistanceMeters>
          </Trackpoint>
          <Trackpoint>
            <Time>2021-08-03T06:00:42.000Z</Time>
            <Position>
              <LatitudeDegrees>-15.35393259488046169281005859375</LatitudeDegrees>
              <LongitudeDegrees>37.07150724716484546661376953125</LongitudeDegrees>
            </Position>
            <AltitudeMeters>1976.5999755859375</AltitudeMeters>
            <DistanceMeters>NAN</DistanceMeters>
          </Trackpoint>
          <Trackpoint>
            <Time>2021-08-03T06:00:44.000Z</Time>
            <Position>
              <LatitudeDegrees>-15.35393443889915943145751953125</LatitudeDegrees>
              <LongitudeDegrees>37.071531303226947784423828125</LongitudeDegrees>
            </Position>
            <AltitudeMeters>1976</AltitudeMeters>
            <DistanceMeters>NAN</DistanceMeters>
          </Trackpoint>
          <Trackpoint>
            <Time>2021-08-03T06:00:46.000Z</Time>
            <Position>
              <LatitudeDegrees>-15.35393075086176395416259765625</LatitudeDegrees>
              <LongitudeDegrees>37.07154295407235622406005859375</LongitudeDegrees>
            </Position>
            <AltitudeMeters>1975</AltitudeMeters>
            <DistanceMeters>NAN</DistanceMeters>
          </Trackpoint>
          <Trackpoint>
            <Time>2021-08-03T06:00:47.000Z</Time>
            <Position>
              <LatitudeDegrees>-15.353927649557590484619140625</LatitudeDegrees>
              <LongitudeDegrees>37.07154915668070316314697265625</LongitudeDegrees>
            </Position>
            <AltitudeMeters>1974.5999755859375</AltitudeMeters>
            <DistanceMeters>NAN</DistanceMeters>
          </Trackpoint>
          <Trackpoint>
            <Time>2021-08-03T06:00:49.000Z</Time>
            <Position>
              <LatitudeDegrees>-15.3539232909679412841796875</LatitudeDegrees>
              <LongitudeDegrees>37.0715626515448093414306640625</LongitudeDegrees>
            </Position>
            <AltitudeMeters>1974.4000244140625</AltitudeMeters>
            <DistanceMeters>NAN</DistanceMeters>
          </Trackpoint>
          <Trackpoint>
            <Time>2021-08-03T06:00:50.000Z</Time>
            <Position>
              <LatitudeDegrees>-15.35392018966376781463623046875</LatitudeDegrees>
              <LongitudeDegrees>37.071568183600902557373046875</LongitudeDegrees>
            </Position>
            <AltitudeMeters>1973.800048828125</AltitudeMeters>
            <DistanceMeters>NAN</DistanceMeters>
          </Trackpoint>
          <Trackpoint>
            <Time>2021-08-03T06:00:52.000Z</Time>
            <Position>
              <LatitudeDegrees>-15.35390141420066356658935546875</LatitudeDegrees>
              <LongitudeDegrees>37.07158503122627735137939453125</LongitudeDegrees>
            </Position>
            <AltitudeMeters>1973.4000244140625</AltitudeMeters>
            <DistanceMeters>NAN</DistanceMeters>
          </Trackpoint>
          <Trackpoint>
            <Time>2021-08-03T06:00:54.000Z</Time>
            <Position>
              <LatitudeDegrees>-15.35389152355492115020751953125</LatitudeDegrees>
              <LongitudeDegrees>37.07160229794681072235107421875</LongitudeDegrees>
            </Position>
            <AltitudeMeters>1972.5999755859375</AltitudeMeters>
            <DistanceMeters>NAN</DistanceMeters>
          </Trackpoint>
          <Trackpoint>
            <Time>2021-08-03T06:00:55.000Z</Time>
            <Position>
              <LatitudeDegrees>-15.35388934426009654998779296875</LatitudeDegrees>
              <LongitudeDegrees>37.07161302678287029266357421875</LongitudeDegrees>
            </Position>
            <AltitudeMeters>1972.5999755859375</AltitudeMeters>
            <DistanceMeters>NAN</DistanceMeters>
          </Trackpoint>
          <Trackpoint>
            <Time>2021-08-03T06:00:59.000Z</Time>
            <Position>
              <LatitudeDegrees>-15.35387123934924602508544921875</LatitudeDegrees>
              <LongitudeDegrees>37.0716382563114166259765625</LongitudeDegrees>
            </Position>
            <AltitudeMeters>1971.199951171875</AltitudeMeters>
            <DistanceMeters>NAN</DistanceMeters>
          </Trackpoint>
          <Trackpoint>
            <Time>2021-08-03T06:01:01.000Z</Time>
            <Position>
              <LatitudeDegrees>-15.35386838950216770172119140625</LatitudeDegrees>
              <LongitudeDegrees>37.071647979319095611572265625</LongitudeDegrees>
            </Position>
            <AltitudeMeters>1970.5999755859375</AltitudeMeters>
            <DistanceMeters>NAN</DistanceMeters>
          </Trackpoint>
          <Trackpoint>
            <Time>2021-08-03T06:01:02.000Z</Time>
            <Position>
              <LatitudeDegrees>-15.35386537201702594757080078125</LatitudeDegrees>
              <LongitudeDegrees>37.07165342755615711212158203125</LongitudeDegrees>
            </Position>
            <AltitudeMeters>1970.4000244140625</AltitudeMeters>
            <DistanceMeters>NAN</DistanceMeters>
          </Trackpoint>
          <Trackpoint>
            <Time>2021-08-03T06:01:03.000Z</Time>
            <Position>
              <LatitudeDegrees>-15.35386067815124988555908203125</LatitudeDegrees>
              <LongitudeDegrees>37.0716571994125843048095703125</LongitudeDegrees>
            </Position>
            <AltitudeMeters>1969.5999755859375</AltitudeMeters>
            <DistanceMeters>NAN</DistanceMeters>
          </Trackpoint>
          <Trackpoint>
            <Time>2021-08-03T06:01:04.000Z</Time>
            <Position>
              <LatitudeDegrees>-15.3538540564477443695068359375</LatitudeDegrees>
              <LongitudeDegrees>37.07166197709739208221435546875</LongitudeDegrees>
            </Position>
            <AltitudeMeters>1968.4000244140625</AltitudeMeters>
            <DistanceMeters>NAN</DistanceMeters>
          </Trackpoint>
          <Trackpoint>
            <Time>2021-08-03T06:01:08.000Z</Time>
            <Position>
              <LatitudeDegrees>-15.3538382984697818756103515625</LatitudeDegrees>
              <LongitudeDegrees>37.07169299013912677764892578125</LongitudeDegrees>
            </Position>
            <AltitudeMeters>1967.800048828125</AltitudeMeters>
            <DistanceMeters>NAN</DistanceMeters>
          </Trackpoint>
          <Trackpoint>
            <Time>2021-08-03T06:01:09.000Z</Time>
            <Position>
              <LatitudeDegrees>-15.35383486188948154449462890625</LatitudeDegrees>
              <LongitudeDegrees>37.07170388661324977874755859375</LongitudeDegrees>
            </Position>
            <AltitudeMeters>1967.5999755859375</AltitudeMeters>
            <DistanceMeters>NAN</DistanceMeters>
          </Trackpoint>
          <Trackpoint>
            <Time>2021-08-03T06:01:10.000Z</Time>
            <Position>
              <LatitudeDegrees>-15.3538295812904834747314453125</LatitudeDegrees>
              <LongitudeDegrees>37.07171327434480190277099609375</LongitudeDegrees>
            </Position>
            <AltitudeMeters>1967.4000244140625</AltitudeMeters>
            <DistanceMeters>NAN</DistanceMeters>
          </Trackpoint>
          <Trackpoint>
            <Time>2021-08-03T06:01:12.000Z</Time>
            <Position>
              <LatitudeDegrees>-15.35381994210183620452880859375</LatitudeDegrees>
              <LongitudeDegrees>37.07172299735248088836669921875</LongitudeDegrees>
            </Position>
            <AltitudeMeters>1967.4000244140625</AltitudeMeters>
            <DistanceMeters>NAN</DistanceMeters>
          </Trackpoint>
          <Trackpoint>
            <Time>2021-08-03T06:01:15.000Z</Time>
            <Position>
              <LatitudeDegrees>-15.35380636341869831085205078125</LatitudeDegrees>
              <LongitudeDegrees>37.07173414528369903564453125</LongitudeDegrees>
            </Position>
            <AltitudeMeters>1966</AltitudeMeters>
            <DistanceMeters>NAN</DistanceMeters>
          </Trackpoint>
          <Trackpoint>
            <Time>2021-08-03T06:01:16.000Z</Time>
            <Position>
              <LatitudeDegrees>-15.353804267942905426025390625</LatitudeDegrees>
              <LongitudeDegrees>37.0717386715114116668701171875</LongitudeDegrees>
            </Position>
            <AltitudeMeters>1966</AltitudeMeters>
            <DistanceMeters>NAN</DistanceMeters>
          </Trackpoint>
          <Trackpoint>
            <Time>2021-08-03T06:01:22.000Z</Time>
            <Position>
              <LatitudeDegrees>-15.35376545973122119903564453125</LatitudeDegrees>
              <LongitudeDegrees>37.0717591233551502227783203125</LongitudeDegrees>
            </Position>
            <AltitudeMeters>1964.199951171875</AltitudeMeters>
            <DistanceMeters>NAN</DistanceMeters>
          </Trackpoint>
          <Trackpoint>
            <Time>2021-08-03T06:01:25.000Z</Time>
            <Position>
              <LatitudeDegrees>-15.3537460975348949432373046875</LatitudeDegrees>
              <LongitudeDegrees>37.071767337620258331298828125</LongitudeDegrees>
            </Position>
            <AltitudeMeters>1963.199951171875</AltitudeMeters>
            <DistanceMeters>NAN</DistanceMeters>
          </Trackpoint>
          <Trackpoint>
            <Time>2021-08-03T06:01:31.000Z</Time>
            <Position>
              <LatitudeDegrees>-15.3537139110267162322998046875</LatitudeDegrees>
              <LongitudeDegrees>37.07178770564496517181396484375</LongitudeDegrees>
            </Position>
            <AltitudeMeters>1961.800048828125</AltitudeMeters>
            <DistanceMeters>NAN</DistanceMeters>
          </Trackpoint>
          <Trackpoint>
            <Time>2021-08-03T06:01:33.000Z</Time>
            <Position>
              <LatitudeDegrees>-15.35370142199099063873291015625</LatitudeDegrees>
              <LongitudeDegrees>37.07180388271808624267578125</LongitudeDegrees>
            </Position>
            <AltitudeMeters>1961.4000244140625</AltitudeMeters>
            <DistanceMeters>NAN</DistanceMeters>
          </Trackpoint>
          <Trackpoint>
            <Time>2021-08-03T06:01:36.000Z</Time>
            <Position>
              <LatitudeDegrees>-15.35368700511753559112548828125</LatitudeDegrees>
              <LongitudeDegrees>37.0718206465244293212890625</LongitudeDegrees>
            </Position>
            <AltitudeMeters>1960.800048828125</AltitudeMeters>
            <DistanceMeters>NAN</DistanceMeters>
          </Trackpoint>
          <Trackpoint>
            <Time>2021-08-03T06:01:38.000Z</Time>
            <Position>
              <LatitudeDegrees>-15.3536753542721271514892578125</LatitudeDegrees>
              <LongitudeDegrees>37.07182844169437885284423828125</LongitudeDegrees>
            </Position>
            <AltitudeMeters>1959.5999755859375</AltitudeMeters>
            <DistanceMeters>NAN</DistanceMeters>
          </Trackpoint>
          <Trackpoint>
            <Time>2021-08-03T06:01:40.000Z</Time>
            <Position>
              <LatitudeDegrees>-15.35366688854992389678955078125</LatitudeDegrees>
              <LongitudeDegrees>37.0718379132449626922607421875</LongitudeDegrees>
            </Position>
            <AltitudeMeters>1958.800048828125</AltitudeMeters>
            <DistanceMeters>NAN</DistanceMeters>
          </Trackpoint>
          <Trackpoint>
            <Time>2021-08-03T06:01:41.000Z</Time>
            <Position>
              <LatitudeDegrees>-15.35366571508347988128662109375</LatitudeDegrees>
              <LongitudeDegrees>37.071848809719085693359375</LongitudeDegrees>
            </Position>
            <AltitudeMeters>1958.5999755859375</AltitudeMeters>
            <DistanceMeters>NAN</DistanceMeters>
          </Trackpoint>
          <Trackpoint>
            <Time>2021-08-03T06:01:43.000Z</Time>
            <Position>
              <LatitudeDegrees>-15.35366403870284557342529296875</LatitudeDegrees>
              <LongitudeDegrees>37.0718717761337757110595703125</LongitudeDegrees>
            </Position>
            <AltitudeMeters>1957.5999755859375</AltitudeMeters>
            <DistanceMeters>NAN</DistanceMeters>
          </Trackpoint>
          <Trackpoint>
            <Time>2021-08-03T06:01:45.000Z</Time>
            <Position>
              <LatitudeDegrees>-15.3536604344844818115234375</LatitudeDegrees>
              <LongitudeDegrees>37.0718898810446262359619140625</LongitudeDegrees>
            </Position>
            <AltitudeMeters>1957.199951171875</AltitudeMeters>
            <DistanceMeters>NAN</DistanceMeters>
          </Trackpoint>
          <Trackpoint>
            <Time>2021-08-03T06:01:47.000Z</Time>
            <Position>
              <LatitudeDegrees>-15.35366018302738666534423828125</LatitudeDegrees>
              <LongitudeDegrees>37.07190220244228839874267578125</LongitudeDegrees>
            </Position>
            <AltitudeMeters>1957.199951171875</AltitudeMeters>
            <DistanceMeters>NAN</DistanceMeters>
          </Trackpoint>
          <Trackpoint>
            <Time>2021-08-03T06:01:49.000Z</Time>
            <Position>
              <LatitudeDegrees>-15.35366781055927276611328125</LatitudeDegrees>
              <LongitudeDegrees>37.07192701287567615509033203125</LongitudeDegrees>
            </Position>
            <AltitudeMeters>1956.4000244140625</AltitudeMeters>
            <DistanceMeters>NAN</DistanceMeters>
          </Trackpoint>
          <Trackpoint>
            <Time>2021-08-03T06:01:53.000Z</Time>
            <Position>
              <LatitudeDegrees>-15.3536733426153659820556640625</LatitudeDegrees>
              <LongitudeDegrees>37.071976549923419952392578125</LongitudeDegrees>
            </Position>
            <AltitudeMeters>1954.800048828125</AltitudeMeters>
            <DistanceMeters>NAN</DistanceMeters>
          </Trackpoint>
          <Trackpoint>
            <Time>2021-08-03T06:01:58.000Z</Time>
            <Position>
              <LatitudeDegrees>-15.353689603507518768310546875</LatitudeDegrees>
              <LongitudeDegrees>37.07202977500855922698974609375</LongitudeDegrees>
            </Position>
            <AltitudeMeters>1953.199951171875</AltitudeMeters>
            <DistanceMeters>NAN</DistanceMeters>
          </Trackpoint>
          <Trackpoint>
            <Time>2021-08-03T06:02:00.000Z</Time>
            <Position>
              <LatitudeDegrees>-15.35369354300200939178466796875</LatitudeDegrees>
              <LongitudeDegrees>37.07204368896782398223876953125</LongitudeDegrees>
            </Position>
            <AltitudeMeters>1952.800048828125</AltitudeMeters>
            <DistanceMeters>NAN</DistanceMeters>
          </Trackpoint>
          <Trackpoint>
            <Time>2021-08-03T06:02:01.000Z</Time>
            <Position>
              <LatitudeDegrees>-15.35369337536394596099853515625</LatitudeDegrees>
              <LongitudeDegrees>37.072048299014568328857421875</LongitudeDegrees>
            </Position>
            <AltitudeMeters>1952.4000244140625</AltitudeMeters>
            <DistanceMeters>NAN</DistanceMeters>
          </Trackpoint>
          <Trackpoint>
            <Time>2021-08-03T06:02:03.000Z</Time>
            <Position>
              <LatitudeDegrees>-15.35369404591619968414306640625</LatitudeDegrees>
              <LongitudeDegrees>37.07205626182258129119873046875</LongitudeDegrees>
            </Position>
            <AltitudeMeters>1952</AltitudeMeters>
            <DistanceMeters>NAN</DistanceMeters>
          </Trackpoint>
          <Trackpoint>
            <Time>2021-08-03T06:02:06.000Z</Time>
            <Position>
              <LatitudeDegrees>-15.3536921180784702301025390625</LatitudeDegrees>
              <LongitudeDegrees>37.072080485522747039794921875</LongitudeDegrees>
            </Position>
            <AltitudeMeters>1951.800048828125</AltitudeMeters>
            <DistanceMeters>NAN</DistanceMeters>
          </Trackpoint>
          <Trackpoint>
            <Time>2021-08-03T06:02:08.000Z</Time>
            <Position>
              <LatitudeDegrees>-15.35368851386010646820068359375</LatitudeDegrees>
              <LongitudeDegrees>37.07210026681423187255859375</LongitudeDegrees>
            </Position>
            <AltitudeMeters>1951.5999755859375</AltitudeMeters>
            <DistanceMeters>NAN</DistanceMeters>
          </Trackpoint>
          <Trackpoint>
            <Time>2021-08-03T06:02:10.000Z</Time>
            <Position>
              <LatitudeDegrees>-15.35368130542337894439697265625</LatitudeDegrees>
              <LongitudeDegrees>37.0721118338406085968017578125</LongitudeDegrees>
            </Position>
            <AltitudeMeters>1950.800048828125</AltitudeMeters>
            <DistanceMeters>NAN</DistanceMeters>
          </Trackpoint>
          <Trackpoint>
            <Time>2021-08-03T06:02:14.000Z</Time>
            <Position>
              <LatitudeDegrees>-15.3536629490554332733154296875</LatitudeDegrees>
              <LongitudeDegrees>37.07212633453309535980224609375</LongitudeDegrees>
            </Position>
            <AltitudeMeters>1949.800048828125</AltitudeMeters>
            <DistanceMeters>NAN</DistanceMeters>
          </Trackpoint>
          <Trackpoint>
            <Time>2021-08-03T06:02:15.000Z</Time>
            <Position>
              <LatitudeDegrees>-15.35365666262805461883544921875</LatitudeDegrees>
              <LongitudeDegrees>37.07213387824594974517822265625</LongitudeDegrees>
            </Position>
            <AltitudeMeters>1949.5999755859375</AltitudeMeters>
            <DistanceMeters>NAN</DistanceMeters>
          </Trackpoint>
          <Trackpoint>
            <Time>2021-08-03T06:02:16.000Z</Time>
            <Position>
              <LatitudeDegrees>-15.35365330986678600311279296875</LatitudeDegrees>
              <LongitudeDegrees>37.07214175723493099212646484375</LongitudeDegrees>
            </Position>
            <AltitudeMeters>1949.4000244140625</AltitudeMeters>
            <DistanceMeters>NAN</DistanceMeters>
          </Trackpoint>
          <Trackpoint>
            <Time>2021-08-03T06:02:20.000Z</Time>
            <Position>
              <LatitudeDegrees>-15.35364761017262935638427734375</LatitudeDegrees>
              <LongitudeDegrees>37.072168998420238494873046875</LongitudeDegrees>
            </Position>
            <AltitudeMeters>1949</AltitudeMeters>
            <DistanceMeters>NAN</DistanceMeters>
          </Trackpoint>
          <Trackpoint>
            <Time>2021-08-03T06:02:21.000Z</Time>
            <Position>
              <LatitudeDegrees>-15.3536428324878215789794921875</LatitudeDegrees>
              <LongitudeDegrees>37.072176039218902587890625</LongitudeDegrees>
            </Position>
            <AltitudeMeters>1948</AltitudeMeters>
            <DistanceMeters>NAN</DistanceMeters>
          </Trackpoint>
          <Trackpoint>
            <Time>2021-08-03T06:02:22.000Z</Time>
            <Position>
              <LatitudeDegrees>-15.353638641536235809326171875</LatitudeDegrees>
              <LongitudeDegrees>37.07218341529369354248046875</LongitudeDegrees>
            </Position>
            <AltitudeMeters>1947.800048828125</AltitudeMeters>
            <DistanceMeters>NAN</DistanceMeters>
          </Trackpoint>
          <Trackpoint>
            <Time>2021-08-03T06:02:30.000Z</Time>
            <Position>
              <LatitudeDegrees>-15.35362464375793933868408203125</LatitudeDegrees>
              <LongitudeDegrees>37.07219808362424373626708984375</LongitudeDegrees>
            </Position>
            <AltitudeMeters>1947.199951171875</AltitudeMeters>
            <DistanceMeters>NAN</DistanceMeters>
          </Trackpoint>
          <Trackpoint>
            <Time>2021-08-03T06:02:34.000Z</Time>
            <Position>
              <LatitudeDegrees>-15.3536180220544338226318359375</LatitudeDegrees>
              <LongitudeDegrees>37.072199843823909759521484375</LongitudeDegrees>
            </Position>
            <AltitudeMeters>1947</AltitudeMeters>
            <DistanceMeters>NAN</DistanceMeters>
          </Trackpoint>
          <Trackpoint>
            <Time>2021-08-03T06:02:38.000Z</Time>
            <Position>
              <LatitudeDegrees>-15.35361676476895809173583984375</LatitudeDegrees>
              <LongitudeDegrees>37.072197832167148590087890625</LongitudeDegrees>
            </Position>
            <AltitudeMeters>1947</AltitudeMeters>
            <DistanceMeters>NAN</DistanceMeters>
          </Trackpoint>
          <Trackpoint>
            <Time>2021-08-03T06:02:40.000Z</Time>
            <Position>
              <LatitudeDegrees>-15.35361676476895809173583984375</LatitudeDegrees>
              <LongitudeDegrees>37.072197832167148590087890625</LongitudeDegrees>
            </Position>
            <AltitudeMeters>1946.800048828125</AltitudeMeters>
            <DistanceMeters>NAN</DistanceMeters>
          </Trackpoint>
          <Trackpoint>
            <Time>2021-08-03T06:02:44.000Z</Time>
            <Position>
              <LatitudeDegrees>-15.35361676476895809173583984375</LatitudeDegrees>
              <LongitudeDegrees>37.072197832167148590087890625</LongitudeDegrees>
            </Position>
            <AltitudeMeters>1946.199951171875</AltitudeMeters>
            <DistanceMeters>NAN</DistanceMeters>
          </Trackpoint>
          <Trackpoint>
            <Time>2021-08-03T06:02:47.000Z</Time>
            <Position>
              <LatitudeDegrees>-15.35361676476895809173583984375</LatitudeDegrees>
              <LongitudeDegrees>37.0721979998052120208740234375</LongitudeDegrees>
            </Position>
            <AltitudeMeters>1946.199951171875</AltitudeMeters>
            <DistanceMeters>NAN</DistanceMeters>
          </Trackpoint>
          <Trackpoint>
            <Time>2021-08-03T06:02:48.000Z</Time>
            <Position>
              <LatitudeDegrees>-15.35361676476895809173583984375</LatitudeDegrees>
              <LongitudeDegrees>37.07219808362424373626708984375</LongitudeDegrees>
            </Position>
            <AltitudeMeters>1946</AltitudeMeters>
            <DistanceMeters>NAN</DistanceMeters>
          </Trackpoint>
          <Trackpoint>
            <Time>2021-08-03T06:02:54.000Z</Time>
            <Position>
              <LatitudeDegrees>-15.3536150045692920684814453125</LatitudeDegrees>
              <LongitudeDegrees>37.072200514376163482666015625</LongitudeDegrees>
            </Position>
            <AltitudeMeters>1945.800048828125</AltitudeMeters>
            <DistanceMeters>NAN</DistanceMeters>
          </Trackpoint>
          <Trackpoint>
            <Time>2021-08-03T06:03:05.000Z</Time>
            <Position>
              <LatitudeDegrees>-15.35360637120902538299560546875</LatitudeDegrees>
              <LongitudeDegrees>37.072218619287014007568359375</LongitudeDegrees>
            </Position>
            <AltitudeMeters>1944.800048828125</AltitudeMeters>
            <DistanceMeters>NAN</DistanceMeters>
          </Trackpoint>
          <Trackpoint>
            <Time>2021-08-03T06:03:08.000Z</Time>
            <Position>
              <LatitudeDegrees>-15.35360771231353282928466796875</LatitudeDegrees>
              <LongitudeDegrees>37.07222322933375835418701171875</LongitudeDegrees>
            </Position>
            <AltitudeMeters>1944.199951171875</AltitudeMeters>
            <DistanceMeters>NAN</DistanceMeters>
          </Trackpoint>
          <Trackpoint>
            <Time>2021-08-03T06:03:11.000Z</Time>
            <Position>
              <LatitudeDegrees>-15.35360603593289852142333984375</LatitudeDegrees>
              <LongitudeDegrees>37.0722553320229053497314453125</LongitudeDegrees>
            </Position>
            <AltitudeMeters>1943</AltitudeMeters>
            <DistanceMeters>NAN</DistanceMeters>
          </Trackpoint>
          <Trackpoint>
            <Time>2021-08-03T06:03:15.000Z</Time>
            <Position>
              <LatitudeDegrees>-15.35357854329049587249755859375</LatitudeDegrees>
              <LongitudeDegrees>37.0722761191427707672119140625</LongitudeDegrees>
            </Position>
            <AltitudeMeters>1942.199951171875</AltitudeMeters>
            <DistanceMeters>NAN</DistanceMeters>
          </Trackpoint>
          <Trackpoint>
            <Time>2021-08-03T06:03:16.000Z</Time>
            <Position>
              <LatitudeDegrees>-15.3535690717399120330810546875</LatitudeDegrees>
              <LongitudeDegrees>37.07228424958884716033935546875</LongitudeDegrees>
            </Position>
            <AltitudeMeters>1941.800048828125</AltitudeMeters>
            <DistanceMeters>NAN</DistanceMeters>
          </Trackpoint>
          <Trackpoint>
            <Time>2021-08-03T06:03:17.000Z</Time>
            <Position>
              <LatitudeDegrees>-15.3535627014935016632080078125</LatitudeDegrees>
              <LongitudeDegrees>37.07229682244360446929931640625</LongitudeDegrees>
            </Position>
            <AltitudeMeters>1941.199951171875</AltitudeMeters>
            <DistanceMeters>NAN</DistanceMeters>
          </Trackpoint>
          <Trackpoint>
            <Time>2021-08-03T06:03:19.000Z</Time>
            <Position>
              <LatitudeDegrees>-15.3535556606948375701904296875</LatitudeDegrees>
              <LongitudeDegrees>37.07231358624994754791259765625</LongitudeDegrees>
            </Position>
            <AltitudeMeters>1940.5999755859375</AltitudeMeters>
            <DistanceMeters>NAN</DistanceMeters>
          </Trackpoint>
          <Trackpoint>
            <Time>2021-08-03T06:03:23.000Z</Time>
            <Position>
              <LatitudeDegrees>-15.35355088301002979278564453125</LatitudeDegrees>
              <LongitudeDegrees>37.07235683687031269073486328125</LongitudeDegrees>
            </Position>
            <AltitudeMeters>1939.5999755859375</AltitudeMeters>
            <DistanceMeters>NAN</DistanceMeters>
          </Trackpoint>
          <Trackpoint>
            <Time>2021-08-03T06:03:24.000Z</Time>
            <Position>
              <LatitudeDegrees>-15.35354954190552234649658203125</LatitudeDegrees>
              <LongitudeDegrees>37.07237008027732372283935546875</LongitudeDegrees>
            </Position>
            <AltitudeMeters>1939.5999755859375</AltitudeMeters>
            <DistanceMeters>NAN</DistanceMeters>
          </Trackpoint>
          <Trackpoint>
            <Time>2021-08-03T06:03:26.000Z</Time>
            <Position>
              <LatitudeDegrees>-15.35354568623006343841552734375</LatitudeDegrees>
              <LongitudeDegrees>37.072392962872982025146484375</LongitudeDegrees>
            </Position>
            <AltitudeMeters>1938.4000244140625</AltitudeMeters>
            <DistanceMeters>NAN</DistanceMeters>
          </Trackpoint>
          <Trackpoint>
            <Time>2021-08-03T06:03:28.000Z</Time>
            <Position>
              <LatitudeDegrees>-15.35354367457330226898193359375</LatitudeDegrees>
              <LongitudeDegrees>37.0724142529070377349853515625</LongitudeDegrees>
            </Position>
            <AltitudeMeters>1937.4000244140625</AltitudeMeters>
            <DistanceMeters>NAN</DistanceMeters>
          </Trackpoint>
          <Trackpoint>
            <Time>2021-08-03T06:03:30.000Z</Time>
            <Position>
              <LatitudeDegrees>-15.3535291738808155059814453125</LatitudeDegrees>
              <LongitudeDegrees>37.072433196008205413818359375</LongitudeDegrees>
            </Position>
            <AltitudeMeters>1937.199951171875</AltitudeMeters>
            <DistanceMeters>NAN</DistanceMeters>
          </Trackpoint>
          <Trackpoint>
            <Time>2021-08-03T06:03:31.000Z</Time>
            <Position>
              <LatitudeDegrees>-15.353525318205356597900390625</LatitudeDegrees>
              <LongitudeDegrees>37.07244333811104297637939453125</LongitudeDegrees>
            </Position>
            <AltitudeMeters>1936.800048828125</AltitudeMeters>
            <DistanceMeters>NAN</DistanceMeters>
          </Trackpoint>
          <Trackpoint>
            <Time>2021-08-03T06:03:32.000Z</Time>
            <Position>
              <LatitudeDegrees>-15.3535217978060245513916015625</LatitudeDegrees>
              <LongitudeDegrees>37.07244987599551677703857421875</LongitudeDegrees>
            </Position>
            <AltitudeMeters>1935.4000244140625</AltitudeMeters>
            <DistanceMeters>NAN</DistanceMeters>
          </Trackpoint>
          <Trackpoint>
            <Time>2021-08-03T06:03:37.000Z</Time>
            <Position>
              <LatitudeDegrees>-15.3535120747983455657958984375</LatitudeDegrees>
              <LongitudeDegrees>37.07248516380786895751953125</LongitudeDegrees>
            </Position>
            <AltitudeMeters>1934.199951171875</AltitudeMeters>
            <DistanceMeters>NAN</DistanceMeters>
          </Trackpoint>
          <Trackpoint>
            <Time>2021-08-03T06:03:38.000Z</Time>
            <Position>
              <LatitudeDegrees>-15.35350662656128406524658203125</LatitudeDegrees>
              <LongitudeDegrees>37.07249321043491363525390625</LongitudeDegrees>
            </Position>
            <AltitudeMeters>1934.199951171875</AltitudeMeters>
            <DistanceMeters>NAN</DistanceMeters>
          </Trackpoint>
          <Trackpoint>
            <Time>2021-08-03T06:03:41.000Z</Time>
            <Position>
              <LatitudeDegrees>-15.35349304787814617156982421875</LatitudeDegrees>
              <LongitudeDegrees>37.072514332830905914306640625</LongitudeDegrees>
            </Position>
            <AltitudeMeters>1933.199951171875</AltitudeMeters>
            <DistanceMeters>NAN</DistanceMeters>
          </Trackpoint>
          <Trackpoint>
            <Time>2021-08-03T06:03:45.000Z</Time>
            <Position>
              <LatitudeDegrees>-15.35348600707948207855224609375</LatitudeDegrees>
              <LongitudeDegrees>37.07252950407564640045166015625</LongitudeDegrees>
            </Position>
            <AltitudeMeters>1932</AltitudeMeters>
            <DistanceMeters>NAN</DistanceMeters>
          </Trackpoint>
          <Trackpoint>
            <Time>2021-08-03T06:03:46.000Z</Time>
            <Position>
              <LatitudeDegrees>-15.35348583944141864776611328125</LatitudeDegrees>
              <LongitudeDegrees>37.07253352738916873931884765625</LongitudeDegrees>
            </Position>
            <AltitudeMeters>1931.800048828125</AltitudeMeters>
            <DistanceMeters>NAN</DistanceMeters>
          </Trackpoint>
          <Trackpoint>
            <Time>2021-08-03T06:03:48.000Z</Time>
            <Position>
              <LatitudeDegrees>-15.35347427241504192352294921875</LatitudeDegrees>
              <LongitudeDegrees>37.0725399814546108245849609375</LongitudeDegrees>
            </Position>
            <AltitudeMeters>1930.800048828125</AltitudeMeters>
            <DistanceMeters>NAN</DistanceMeters>
          </Trackpoint>
          <Trackpoint>
            <Time>2021-08-03T06:03:52.000Z</Time>
            <Position>
              <LatitudeDegrees>-15.35346019081771373748779296875</LatitudeDegrees>
              <LongitudeDegrees>37.07256152294576168060302734375</LongitudeDegrees>
            </Position>
            <AltitudeMeters>1930.4000244140625</AltitudeMeters>
            <DistanceMeters>NAN</DistanceMeters>
          </Trackpoint>
          <Trackpoint>
            <Time>2021-08-03T06:03:53.000Z</Time>
            <Position>
              <LatitudeDegrees>-15.35345725715160369873046875</LatitudeDegrees>
              <LongitudeDegrees>37.07257074303925037384033203125</LongitudeDegrees>
            </Position>
            <AltitudeMeters>1929.800048828125</AltitudeMeters>
            <DistanceMeters>NAN</DistanceMeters>
          </Trackpoint>
          <Trackpoint>
            <Time>2021-08-03T06:03:57.000Z</Time>
            <Position>
              <LatitudeDegrees>-15.3534513898193836212158203125</LatitudeDegrees>
              <LongitudeDegrees>37.072601504623889923095703125</LongitudeDegrees>
            </Position>
            <AltitudeMeters>1928.4000244140625</AltitudeMeters>
            <DistanceMeters>NAN</DistanceMeters>
          </Trackpoint>
          <Trackpoint>
            <Time>2021-08-03T06:03:59.000Z</Time>
            <Position>
              <LatitudeDegrees>-15.3534436784684658050537109375</LatitudeDegrees>
              <LongitudeDegrees>37.072610557079315185546875</LongitudeDegrees>
            </Position>
            <AltitudeMeters>1928.199951171875</AltitudeMeters>
            <DistanceMeters>NAN</DistanceMeters>
          </Trackpoint>
          <Trackpoint>
            <Time>2021-08-03T06:04:03.000Z</Time>
            <Position>
              <LatitudeDegrees>-15.35343823023140430450439453125</LatitudeDegrees>
              <LongitudeDegrees>37.07264735363423824310302734375</LongitudeDegrees>
            </Position>
            <AltitudeMeters>1927.4000244140625</AltitudeMeters>
            <DistanceMeters>NAN</DistanceMeters>
          </Trackpoint>
          <Trackpoint>
            <Time>2021-08-03T06:04:05.000Z</Time>
            <Position>
              <LatitudeDegrees>-15.3534352965652942657470703125</LatitudeDegrees>
              <LongitudeDegrees>37.0726663805544376373291015625</LongitudeDegrees>
            </Position>
            <AltitudeMeters>1927</AltitudeMeters>
            <DistanceMeters>NAN</DistanceMeters>
          </Trackpoint>
          <Trackpoint>
            <Time>2021-08-03T06:04:07.000Z</Time>
            <Position>
              <LatitudeDegrees>-15.35342917777597904205322265625</LatitudeDegrees>
              <LongitudeDegrees>37.07267853431403636932373046875</LongitudeDegrees>
            </Position>
            <AltitudeMeters>1925.5999755859375</AltitudeMeters>
            <DistanceMeters>NAN</DistanceMeters>
          </Trackpoint>
          <Trackpoint>
            <Time>2021-08-03T06:04:08.000Z</Time>
            <Position>
              <LatitudeDegrees>-15.353426076471805572509765625</LatitudeDegrees>
              <LongitudeDegrees>37.0726854912936687469482421875</LongitudeDegrees>
            </Position>
            <AltitudeMeters>1925.5999755859375</AltitudeMeters>
            <DistanceMeters>NAN</DistanceMeters>
          </Trackpoint>
          <Trackpoint>
            <Time>2021-08-03T06:04:11.000Z</Time>
            <Position>
              <LatitudeDegrees>-15.35341995768249034881591796875</LatitudeDegrees>
              <LongitudeDegrees>37.0727126486599445343017578125</LongitudeDegrees>
            </Position>
            <AltitudeMeters>1924.5999755859375</AltitudeMeters>
            <DistanceMeters>NAN</DistanceMeters>
          </Trackpoint>
          <Trackpoint>
            <Time>2021-08-03T06:04:12.000Z</Time>
            <Position>
              <LatitudeDegrees>-15.35341962240636348724365234375</LatitudeDegrees>
              <LongitudeDegrees>37.07272429950535297393798828125</LongitudeDegrees>
            </Position>
            <AltitudeMeters>1924.4000244140625</AltitudeMeters>
            <DistanceMeters>NAN</DistanceMeters>
          </Trackpoint>
          <Trackpoint>
            <Time>2021-08-03T06:04:15.000Z</Time>
            <Position>
              <LatitudeDegrees>-15.35341392271220684051513671875</LatitudeDegrees>
              <LongitudeDegrees>37.07275296561419963836669921875</LongitudeDegrees>
            </Position>
            <AltitudeMeters>1923.199951171875</AltitudeMeters>
            <DistanceMeters>NAN</DistanceMeters>
          </Trackpoint>
          <Trackpoint>
            <Time>2021-08-03T06:04:16.000Z</Time>
            <Position>
              <LatitudeDegrees>-15.35341006703674793243408203125</LatitudeDegrees>
              <LongitudeDegrees>37.0727567374706268310546875</LongitudeDegrees>
            </Position>
            <AltitudeMeters>1923</AltitudeMeters>
            <DistanceMeters>NAN</DistanceMeters>
          </Trackpoint>
          <Trackpoint>
            <Time>2021-08-03T06:04:19.000Z</Time>
            <Position>
              <LatitudeDegrees>-15.35339481197297573089599609375</LatitudeDegrees>
              <LongitudeDegrees>37.072772495448589324951171875</LongitudeDegrees>
            </Position>
            <AltitudeMeters>1921.800048828125</AltitudeMeters>
            <DistanceMeters>NAN</DistanceMeters>
          </Trackpoint>
          <Trackpoint>
            <Time>2021-08-03T06:04:20.000Z</Time>
            <Position>
              <LatitudeDegrees>-15.3533907048404216766357421875</LatitudeDegrees>
              <LongitudeDegrees>37.07277953624725341796875</LongitudeDegrees>
            </Position>
            <AltitudeMeters>1921.5999755859375</AltitudeMeters>
            <DistanceMeters>NAN</DistanceMeters>
          </Trackpoint>
          <Trackpoint>
            <Time>2021-08-03T06:04:23.000Z</Time>
            <Position>
              <LatitudeDegrees>-15.35338777117431163787841796875</LatitudeDegrees>
              <LongitudeDegrees>37.07280945964157581329345703125</LongitudeDegrees>
            </Position>
            <AltitudeMeters>1921.199951171875</AltitudeMeters>
            <DistanceMeters>NAN</DistanceMeters>
          </Trackpoint>
          <Trackpoint>
            <Time>2021-08-03T06:04:24.000Z</Time>
            <Position>
              <LatitudeDegrees>-15.35338751971721649169921875</LatitudeDegrees>
              <LongitudeDegrees>37.07281851209700107574462890625</LongitudeDegrees>
            </Position>
            <AltitudeMeters>1920.199951171875</AltitudeMeters>
            <DistanceMeters>NAN</DistanceMeters>
          </Trackpoint>
          <Trackpoint>
            <Time>2021-08-03T06:04:29.000Z</Time>
            <Position>
              <LatitudeDegrees>-15.3533679060637950897216796875</LatitudeDegrees>
              <LongitudeDegrees>37.072848267853260040283203125</LongitudeDegrees>
            </Position>
            <AltitudeMeters>1918.4000244140625</AltitudeMeters>
            <DistanceMeters>NAN</DistanceMeters>
          </Trackpoint>
          <Trackpoint>
            <Time>2021-08-03T06:04:30.000Z</Time>
            <Position>
              <LatitudeDegrees>-15.35336044616997241973876953125</LatitudeDegrees>
              <LongitudeDegrees>37.0728581584990024566650390625</LongitudeDegrees>
            </Position>
            <AltitudeMeters>1918.199951171875</AltitudeMeters>
            <DistanceMeters>NAN</DistanceMeters>
          </Trackpoint>
          <Trackpoint>
            <Time>2021-08-03T06:04:32.000Z</Time>
            <Position>
              <LatitudeDegrees>-15.35334904678165912628173828125</LatitudeDegrees>
              <LongitudeDegrees>37.0728772692382335662841796875</LongitudeDegrees>
            </Position>
            <AltitudeMeters>1918.199951171875</AltitudeMeters>
            <DistanceMeters>NAN</DistanceMeters>
          </Trackpoint>
          <Trackpoint>
            <Time>2021-08-03T06:04:36.000Z</Time>
            <Position>
              <LatitudeDegrees>-15.3533209674060344696044921875</LatitudeDegrees>
              <LongitudeDegrees>37.0729243755340576171875</LongitudeDegrees>
            </Position>
            <AltitudeMeters>1917.4000244140625</AltitudeMeters>
            <DistanceMeters>NAN</DistanceMeters>
          </Trackpoint>
          <Trackpoint>
            <Time>2021-08-03T06:04:37.000Z</Time>
            <Position>
              <LatitudeDegrees>-15.3533122502267360687255859375</LatitudeDegrees>
              <LongitudeDegrees>37.07293652929365634918212890625</LongitudeDegrees>
            </Position>
            <AltitudeMeters>1917</AltitudeMeters>
            <DistanceMeters>NAN</DistanceMeters>
          </Trackpoint>
          <Trackpoint>
            <Time>2021-08-03T06:04:40.000Z</Time>
            <Position>
              <LatitudeDegrees>-15.3532988391816616058349609375</LatitudeDegrees>
              <LongitudeDegrees>37.07296536304056644439697265625</LongitudeDegrees>
            </Position>
            <AltitudeMeters>1916.4000244140625</AltitudeMeters>
            <DistanceMeters>NAN</DistanceMeters>
          </Trackpoint>
          <Trackpoint>
            <Time>2021-08-03T06:04:44.000Z</Time>
            <Position>
              <LatitudeDegrees>-15.35330177284777164459228515625</LatitudeDegrees>
              <LongitudeDegrees>37.07301280461251735687255859375</LongitudeDegrees>
            </Position>
            <AltitudeMeters>1915.800048828125</AltitudeMeters>
            <DistanceMeters>NAN</DistanceMeters>
          </Trackpoint>
          <Trackpoint>
            <Time>2021-08-03T06:04:45.000Z</Time>
            <Position>
              <LatitudeDegrees>-15.35329691134393215179443359375</LatitudeDegrees>
              <LongitudeDegrees>37.07302562892436981201171875</LongitudeDegrees>
            </Position>
            <AltitudeMeters>1915</AltitudeMeters>
            <DistanceMeters>NAN</DistanceMeters>
          </Trackpoint>
          <Trackpoint>
            <Time>2021-08-03T06:04:48.000Z</Time>
            <Position>
              <LatitudeDegrees>-15.35327629186213016510009765625</LatitudeDegrees>
              <LongitudeDegrees>37.0730539597570896148681640625</LongitudeDegrees>
            </Position>
            <AltitudeMeters>1914</AltitudeMeters>
            <DistanceMeters>NAN</DistanceMeters>
          </Trackpoint>
          <Trackpoint>
            <Time>2021-08-03T06:04:50.000Z</Time>
            <Position>
              <LatitudeDegrees>-15.35325768403708934783935546875</LatitudeDegrees>
              <LongitudeDegrees>37.0730697177350521087646484375</LongitudeDegrees>
            </Position>
            <AltitudeMeters>1912.800048828125</AltitudeMeters>
            <DistanceMeters>NAN</DistanceMeters>
          </Trackpoint>
          <Trackpoint>
            <Time>2021-08-03T06:04:52.000Z</Time>
            <Position>
              <LatitudeDegrees>-15.353243350982666015625</LatitudeDegrees>
              <LongitudeDegrees>37.07308405078947544097900390625</LongitudeDegrees>
            </Position>
            <AltitudeMeters>1912.4000244140625</AltitudeMeters>
            <DistanceMeters>NAN</DistanceMeters>
          </Trackpoint>
          <Trackpoint>
            <Time>2021-08-03T06:04:54.000Z</Time>
            <Position>
              <LatitudeDegrees>-15.35323153249919414520263671875</LatitudeDegrees>
              <LongitudeDegrees>37.0731035806238651275634765625</LongitudeDegrees>
            </Position>
            <AltitudeMeters>1911.4000244140625</AltitudeMeters>
            <DistanceMeters>NAN</DistanceMeters>
          </Trackpoint>
          <Trackpoint>
            <Time>2021-08-03T06:04:57.000Z</Time>
            <Position>
              <LatitudeDegrees>-15.35320605151355266571044921875</LatitudeDegrees>
              <LongitudeDegrees>37.073120176792144775390625</LongitudeDegrees>
            </Position>
            <AltitudeMeters>1910.4000244140625</AltitudeMeters>
            <DistanceMeters>NAN</DistanceMeters>
          </Trackpoint>
          <Trackpoint>
            <Time>2021-08-03T06:04:59.000Z</Time>
            <Position>
              <LatitudeDegrees>-15.35318844951689243316650390625</LatitudeDegrees>
              <LongitudeDegrees>37.07312428392469882965087890625</LongitudeDegrees>
            </Position>
            <AltitudeMeters>1909.5999755859375</AltitudeMeters>
            <DistanceMeters>NAN</DistanceMeters>
          </Trackpoint>
          <Trackpoint>
            <Time>2021-08-03T06:05:00.000Z</Time>
            <Position>
              <LatitudeDegrees>-15.35317973233759403228759765625</LatitudeDegrees>
              <LongitudeDegrees>37.07312394864857196807861328125</LongitudeDegrees>
            </Position>
            <AltitudeMeters>1909</AltitudeMeters>
            <DistanceMeters>NAN</DistanceMeters>
          </Trackpoint>
          <Trackpoint>
            <Time>2021-08-03T06:05:03.000Z</Time>
            <Position>
              <LatitudeDegrees>-15.3531576879322528839111328125</LatitudeDegrees>
              <LongitudeDegrees>37.073133252561092376708984375</LongitudeDegrees>
            </Position>
            <AltitudeMeters>1907.5999755859375</AltitudeMeters>
            <DistanceMeters>NAN</DistanceMeters>
          </Trackpoint>
          <Trackpoint>
            <Time>2021-08-03T06:05:05.000Z</Time>
            <Position>
              <LatitudeDegrees>-15.35314570181071758270263671875</LatitudeDegrees>
              <LongitudeDegrees>37.07315244711935520172119140625</LongitudeDegrees>
            </Position>
            <AltitudeMeters>1907.4000244140625</AltitudeMeters>
            <DistanceMeters>NAN</DistanceMeters>
          </Trackpoint>
          <Trackpoint>
            <Time>2021-08-03T06:05:06.000Z</Time>
            <Position>
              <LatitudeDegrees>-15.3531369008123874664306640625</LatitudeDegrees>
              <LongitudeDegrees>37.07315839827060699462890625</LongitudeDegrees>
            </Position>
            <AltitudeMeters>1907.4000244140625</AltitudeMeters>
            <DistanceMeters>NAN</DistanceMeters>
          </Trackpoint>
          <Trackpoint>
            <Time>2021-08-03T06:05:08.000Z</Time>
            <Position>
              <LatitudeDegrees>-15.3531097434461116790771484375</LatitudeDegrees>
              <LongitudeDegrees>37.07316644489765167236328125</LongitudeDegrees>
            </Position>
            <AltitudeMeters>1905.800048828125</AltitudeMeters>
            <DistanceMeters>NAN</DistanceMeters>
          </Trackpoint>
          <Trackpoint>
            <Time>2021-08-03T06:05:11.000Z</Time>
            <Position>
              <LatitudeDegrees>-15.3530765511095523834228515625</LatitudeDegrees>
              <LongitudeDegrees>37.07317457534372806549072265625</LongitudeDegrees>
            </Position>
            <AltitudeMeters>1905.4000244140625</AltitudeMeters>
            <DistanceMeters>NAN</DistanceMeters>
          </Trackpoint>
          <Trackpoint>
            <Time>2021-08-03T06:05:13.000Z</Time>
            <Position>
              <LatitudeDegrees>-15.3530638106167316436767578125</LatitudeDegrees>
              <LongitudeDegrees>37.07318748347461223602294921875</LongitudeDegrees>
            </Position>
            <AltitudeMeters>1904.800048828125</AltitudeMeters>
            <DistanceMeters>NAN</DistanceMeters>
          </Trackpoint>
          <Trackpoint>
            <Time>2021-08-03T06:05:17.000Z</Time>
            <Position>
              <LatitudeDegrees>-15.35301729105412960052490234375</LatitudeDegrees>
              <LongitudeDegrees>37.07321204245090484619140625</LongitudeDegrees>
            </Position>
            <AltitudeMeters>1903.199951171875</AltitudeMeters>
            <DistanceMeters>NAN</DistanceMeters>
          </Trackpoint>
          <Trackpoint>
            <Time>2021-08-03T06:05:18.000Z</Time>
            <Position>
              <LatitudeDegrees>-15.3530098311603069305419921875</LatitudeDegrees>
              <LongitudeDegrees>37.07321380265057086944580078125</LongitudeDegrees>
            </Position>
            <AltitudeMeters>1902.4000244140625</AltitudeMeters>
            <DistanceMeters>NAN</DistanceMeters>
          </Trackpoint>
          <Trackpoint>
            <Time>2021-08-03T06:05:19.000Z</Time>
            <Position>
              <LatitudeDegrees>-15.3530031256377696990966796875</LatitudeDegrees>
              <LongitudeDegrees>37.07321749068796634674072265625</LongitudeDegrees>
            </Position>
            <AltitudeMeters>1902</AltitudeMeters>
            <DistanceMeters>NAN</DistanceMeters>
          </Trackpoint>
          <Trackpoint>
            <Time>2021-08-03T06:05:20.000Z</Time>
            <Position>
              <LatitudeDegrees>-15.35299725830554962158203125</LatitudeDegrees>
              <LongitudeDegrees>37.0732209272682666778564453125</LongitudeDegrees>
            </Position>
            <AltitudeMeters>1900.800048828125</AltitudeMeters>
            <DistanceMeters>NAN</DistanceMeters>
          </Trackpoint>
          <Trackpoint>
            <Time>2021-08-03T06:05:22.000Z</Time>
            <Position>
              <LatitudeDegrees>-15.35298711620271205902099609375</LatitudeDegrees>
              <LongitudeDegrees>37.073227800428867340087890625</LongitudeDegrees>
            </Position>
            <AltitudeMeters>1900.4000244140625</AltitudeMeters>
            <DistanceMeters>NAN</DistanceMeters>
          </Trackpoint>
          <Trackpoint>
            <Time>2021-08-03T06:05:25.000Z</Time>
            <Position>
              <LatitudeDegrees>-15.35296775400638580322265625</LatitudeDegrees>
              <LongitudeDegrees>37.07325018011033535003662109375</LongitudeDegrees>
            </Position>
            <AltitudeMeters>1900</AltitudeMeters>
            <DistanceMeters>NAN</DistanceMeters>
          </Trackpoint>
          <Trackpoint>
            <Time>2021-08-03T06:05:26.000Z</Time>
            <Position>
              <LatitudeDegrees>-15.352960713207721710205078125</LatitudeDegrees>
              <LongitudeDegrees>37.07325889728963375091552734375</LongitudeDegrees>
            </Position>
            <AltitudeMeters>1899.5999755859375</AltitudeMeters>
            <DistanceMeters>NAN</DistanceMeters>
          </Trackpoint>
          <Trackpoint>
            <Time>2021-08-03T06:05:31.000Z</Time>
            <Position>
              <LatitudeDegrees>-15.35292626358568668365478515625</LatitudeDegrees>
              <LongitudeDegrees>37.07330114208161830902099609375</LongitudeDegrees>
            </Position>
            <AltitudeMeters>1898.199951171875</AltitudeMeters>
            <DistanceMeters>NAN</DistanceMeters>
          </Trackpoint>
          <Trackpoint>
            <Time>2021-08-03T06:05:33.000Z</Time>
            <Position>
              <LatitudeDegrees>-15.352915115654468536376953125</LatitudeDegrees>
              <LongitudeDegrees>37.0733094401657581329345703125</LongitudeDegrees>
            </Position>
            <AltitudeMeters>1897.5999755859375</AltitudeMeters>
            <DistanceMeters>NAN</DistanceMeters>
          </Trackpoint>
          <Trackpoint>
            <Time>2021-08-03T06:05:34.000Z</Time>
            <Position>
              <LatitudeDegrees>-15.35291008651256561279296875</LatitudeDegrees>
              <LongitudeDegrees>37.07331002689898014068603515625</LongitudeDegrees>
            </Position>
            <AltitudeMeters>1896.800048828125</AltitudeMeters>
            <DistanceMeters>NAN</DistanceMeters>
          </Trackpoint>
          <Trackpoint>
            <Time>2021-08-03T06:05:37.000Z</Time>
            <Position>
              <LatitudeDegrees>-15.35288904793560504913330078125</LatitudeDegrees>
              <LongitudeDegrees>37.0733211748301982879638671875</LongitudeDegrees>
            </Position>
            <AltitudeMeters>1895.800048828125</AltitudeMeters>
            <DistanceMeters>NAN</DistanceMeters>
          </Trackpoint>
          <Trackpoint>
            <Time>2021-08-03T06:05:38.000Z</Time>
            <Position>
              <LatitudeDegrees>-15.35288468934595584869384765625</LatitudeDegrees>
              <LongitudeDegrees>37.073324359953403472900390625</LongitudeDegrees>
            </Position>
            <AltitudeMeters>1895.5999755859375</AltitudeMeters>
            <DistanceMeters>NAN</DistanceMeters>
          </Trackpoint>
          <Trackpoint>
            <Time>2021-08-03T06:05:39.000Z</Time>
            <Position>
              <LatitudeDegrees>-15.35288401879370212554931640625</LatitudeDegrees>
              <LongitudeDegrees>37.073329053819179534912109375</LongitudeDegrees>
            </Position>
            <AltitudeMeters>1895.4000244140625</AltitudeMeters>
            <DistanceMeters>NAN</DistanceMeters>
          </Trackpoint>
          <Trackpoint>
            <Time>2021-08-03T06:05:42.000Z</Time>
            <Position>
              <LatitudeDegrees>-15.3528703562915325164794921875</LatitudeDegrees>
              <LongitudeDegrees>37.07334087230265140533447265625</LongitudeDegrees>
            </Position>
            <AltitudeMeters>1893.800048828125</AltitudeMeters>
            <DistanceMeters>NAN</DistanceMeters>
          </Trackpoint>
          <Trackpoint>
            <Time>2021-08-03T06:05:46.000Z</Time>
            <Position>
              <LatitudeDegrees>-15.35284143872559070587158203125</LatitudeDegrees>
              <LongitudeDegrees>37.07333969883620738983154296875</LongitudeDegrees>
            </Position>
            <AltitudeMeters>1893.199951171875</AltitudeMeters>
            <DistanceMeters>NAN</DistanceMeters>
          </Trackpoint>
          <Trackpoint>
            <Time>2021-08-03T06:05:50.000Z</Time>
            <Position>
              <LatitudeDegrees>-15.35282903350889682769775390625</LatitudeDegrees>
              <LongitudeDegrees>37.07334405742585659027099609375</LongitudeDegrees>
            </Position>
            <AltitudeMeters>1892.5999755859375</AltitudeMeters>
            <DistanceMeters>NAN</DistanceMeters>
          </Trackpoint>
          <Trackpoint>
            <Time>2021-08-03T06:05:51.000Z</Time>
            <Position>
              <LatitudeDegrees>-15.352827608585357666015625</LatitudeDegrees>
              <LongitudeDegrees>37.07334439270198345184326171875</LongitudeDegrees>
            </Position>
            <AltitudeMeters>1892.199951171875</AltitudeMeters>
            <DistanceMeters>NAN</DistanceMeters>
          </Trackpoint>
          <Trackpoint>
            <Time>2021-08-03T06:05:53.000Z</Time>
            <Position>
              <LatitudeDegrees>-15.35281327553093433380126953125</LatitudeDegrees>
              <LongitudeDegrees>37.07334816455841064453125</LongitudeDegrees>
            </Position>
            <AltitudeMeters>1892.199951171875</AltitudeMeters>
            <DistanceMeters>NAN</DistanceMeters>
          </Trackpoint>
          <Trackpoint>
            <Time>2021-08-03T06:05:54.000Z</Time>
            <Position>
              <LatitudeDegrees>-15.35280858166515827178955078125</LatitudeDegrees>
              <LongitudeDegrees>37.0733536966145038604736328125</LongitudeDegrees>
            </Position>
            <AltitudeMeters>1892</AltitudeMeters>
            <DistanceMeters>NAN</DistanceMeters>
          </Trackpoint>
          <Trackpoint>
            <Time>2021-08-03T06:05:57.000Z</Time>
            <Position>
              <LatitudeDegrees>-15.35279349423944950103759765625</LatitudeDegrees>
              <LongitudeDegrees>37.07337297499179840087890625</LongitudeDegrees>
            </Position>
            <AltitudeMeters>1890.5999755859375</AltitudeMeters>
            <DistanceMeters>NAN</DistanceMeters>
          </Trackpoint>
          <Trackpoint>
            <Time>2021-08-03T06:05:58.000Z</Time>
            <Position>
              <LatitudeDegrees>-15.3527868725359439849853515625</LatitudeDegrees>
              <LongitudeDegrees>37.07338043488562107086181640625</LongitudeDegrees>
            </Position>
            <AltitudeMeters>1890</AltitudeMeters>
            <DistanceMeters>NAN</DistanceMeters>
          </Trackpoint>
          <Trackpoint>
            <Time>2021-08-03T06:06:00.000Z</Time>
            <Position>
              <LatitudeDegrees>-15.352771282196044921875</LatitudeDegrees>
              <LongitudeDegrees>37.07339250482618808746337890625</LongitudeDegrees>
            </Position>
            <AltitudeMeters>1889.4000244140625</AltitudeMeters>
            <DistanceMeters>NAN</DistanceMeters>
          </Trackpoint>
          <Trackpoint>
            <Time>2021-08-03T06:06:03.000Z</Time>
            <Position>
              <LatitudeDegrees>-15.35275124944746494293212890625</LatitudeDegrees>
              <LongitudeDegrees>37.073400802910327911376953125</LongitudeDegrees>
            </Position>
            <AltitudeMeters>1887.800048828125</AltitudeMeters>
            <DistanceMeters>NAN</DistanceMeters>
          </Trackpoint>
          <Trackpoint>
            <Time>2021-08-03T06:06:04.000Z</Time>
            <Position>
              <LatitudeDegrees>-15.35274353809654712677001953125</LatitudeDegrees>
              <LongitudeDegrees>37.0734058320522308349609375</LongitudeDegrees>
            </Position>
            <AltitudeMeters>1887.5999755859375</AltitudeMeters>
            <DistanceMeters>NAN</DistanceMeters>
          </Trackpoint>
          <Trackpoint>
            <Time>2021-08-03T06:06:07.000Z</Time>
            <Position>
              <LatitudeDegrees>-15.35272124223411083221435546875</LatitudeDegrees>
              <LongitudeDegrees>37.073420919477939605712890625</LongitudeDegrees>
            </Position>
            <AltitudeMeters>1886</AltitudeMeters>
            <DistanceMeters>NAN</DistanceMeters>
          </Trackpoint>
          <Trackpoint>
            <Time>2021-08-03T06:06:10.000Z</Time>
            <Position>
              <LatitudeDegrees>-15.35270095802843570709228515625</LatitudeDegrees>
              <LongitudeDegrees>37.073426283895969390869140625</LongitudeDegrees>
            </Position>
            <AltitudeMeters>1885</AltitudeMeters>
            <DistanceMeters>NAN</DistanceMeters>
          </Trackpoint>
          <Trackpoint>
            <Time>2021-08-03T06:06:11.000Z</Time>
            <Position>
              <LatitudeDegrees>-15.35269416868686676025390625</LatitudeDegrees>
              <LongitudeDegrees>37.07343324087560176849365234375</LongitudeDegrees>
            </Position>
            <AltitudeMeters>1883.5999755859375</AltitudeMeters>
            <DistanceMeters>NAN</DistanceMeters>
          </Trackpoint>
          <Trackpoint>
            <Time>2021-08-03T06:06:14.000Z</Time>
            <Position>
              <LatitudeDegrees>-15.35267262719571590423583984375</LatitudeDegrees>
              <LongitudeDegrees>37.0734512619674205780029296875</LongitudeDegrees>
            </Position>
            <AltitudeMeters>1882.199951171875</AltitudeMeters>
            <DistanceMeters>NAN</DistanceMeters>
          </Trackpoint>
          <Trackpoint>
            <Time>2021-08-03T06:06:16.000Z</Time>
            <Position>
              <LatitudeDegrees>-15.352658294141292572021484375</LatitudeDegrees>
              <LongitudeDegrees>37.07346090115606784820556640625</LongitudeDegrees>
            </Position>
            <AltitudeMeters>1881.800048828125</AltitudeMeters>
            <DistanceMeters>NAN</DistanceMeters>
          </Trackpoint>
          <Trackpoint>
            <Time>2021-08-03T06:06:17.000Z</Time>
            <Position>
              <LatitudeDegrees>-15.3526517562568187713623046875</LatitudeDegrees>
              <LongitudeDegrees>37.073463834822177886962890625</LongitudeDegrees>
            </Position>
            <AltitudeMeters>1880.800048828125</AltitudeMeters>
            <DistanceMeters>NAN</DistanceMeters>
          </Trackpoint>
          <Trackpoint>
            <Time>2021-08-03T06:06:18.000Z</Time>
            <Position>
              <LatitudeDegrees>-15.35264513455331325531005859375</LatitudeDegrees>
              <LongitudeDegrees>37.07346542738378047943115234375</LongitudeDegrees>
            </Position>
            <AltitudeMeters>1880.5999755859375</AltitudeMeters>
            <DistanceMeters>NAN</DistanceMeters>
          </Trackpoint>
          <Trackpoint>
            <Time>2021-08-03T06:06:20.000Z</Time>
            <Position>
              <LatitudeDegrees>-15.352636836469173431396484375</LatitudeDegrees>
              <LongitudeDegrees>37.0734693668782711029052734375</LongitudeDegrees>
            </Position>
            <AltitudeMeters>1879.199951171875</AltitudeMeters>
            <DistanceMeters>NAN</DistanceMeters>
          </Trackpoint>
          <Trackpoint>
            <Time>2021-08-03T06:06:22.000Z</Time>
            <Position>
              <LatitudeDegrees>-15.3526175580918788909912109375</LatitudeDegrees>
              <LongitudeDegrees>37.07347464747726917266845703125</LongitudeDegrees>
            </Position>
            <AltitudeMeters>1878.4000244140625</AltitudeMeters>
            <DistanceMeters>NAN</DistanceMeters>
          </Trackpoint>
          <Trackpoint>
            <Time>2021-08-03T06:06:24.000Z</Time>
            <Position>
              <LatitudeDegrees>-15.352599285542964935302734375</LatitudeDegrees>
              <LongitudeDegrees>37.07347800023853778839111328125</LongitudeDegrees>
            </Position>
            <AltitudeMeters>1878.199951171875</AltitudeMeters>
            <DistanceMeters>NAN</DistanceMeters>
          </Trackpoint>
          <Trackpoint>
            <Time>2021-08-03T06:06:25.000Z</Time>
            <Position>
              <LatitudeDegrees>-15.352591909468173980712890625</LatitudeDegrees>
              <LongitudeDegrees>37.07348537631332874298095703125</LongitudeDegrees>
            </Position>
            <AltitudeMeters>1878</AltitudeMeters>
            <DistanceMeters>NAN</DistanceMeters>
          </Trackpoint>
          <Trackpoint>
            <Time>2021-08-03T06:06:26.000Z</Time>
            <Position>
              <LatitudeDegrees>-15.35258679650723934173583984375</LatitudeDegrees>
              <LongitudeDegrees>37.07349459640681743621826171875</LongitudeDegrees>
            </Position>
            <AltitudeMeters>1877</AltitudeMeters>
            <DistanceMeters>NAN</DistanceMeters>
          </Trackpoint>
          <Trackpoint>
            <Time>2021-08-03T06:06:27.000Z</Time>
            <Position>
              <LatitudeDegrees>-15.3525783307850360870361328125</LatitudeDegrees>
              <LongitudeDegrees>37.07350180484354496002197265625</LongitudeDegrees>
            </Position>
            <AltitudeMeters>1876.5999755859375</AltitudeMeters>
            <DistanceMeters>NAN</DistanceMeters>
          </Trackpoint>
          <Trackpoint>
            <Time>2021-08-03T06:06:30.000Z</Time>
            <Position>
              <LatitudeDegrees>-15.35255662165582180023193359375</LatitudeDegrees>
              <LongitudeDegrees>37.07350306212902069091796875</LongitudeDegrees>
            </Position>
            <AltitudeMeters>1874.800048828125</AltitudeMeters>
            <DistanceMeters>NAN</DistanceMeters>
          </Trackpoint>
          <Trackpoint>
            <Time>2021-08-03T06:06:31.000Z</Time>
            <Position>
              <LatitudeDegrees>-15.35255058668553829193115234375</LatitudeDegrees>
              <LongitudeDegrees>37.07350683398544788360595703125</LongitudeDegrees>
            </Position>
            <AltitudeMeters>1874.5999755859375</AltitudeMeters>
            <DistanceMeters>NAN</DistanceMeters>
          </Trackpoint>
          <Trackpoint>
            <Time>2021-08-03T06:06:34.000Z</Time>
            <Position>
              <LatitudeDegrees>-15.35251571796834468841552734375</LatitudeDegrees>
              <LongitudeDegrees>37.073526866734027862548828125</LongitudeDegrees>
            </Position>
            <AltitudeMeters>1873.800048828125</AltitudeMeters>
            <DistanceMeters>NAN</DistanceMeters>
          </Trackpoint>
          <Trackpoint>
            <Time>2021-08-03T06:06:35.000Z</Time>
            <Position>
              <LatitudeDegrees>-15.3525002114474773406982421875</LatitudeDegrees>
              <LongitudeDegrees>37.07352980040013790130615234375</LongitudeDegrees>
            </Position>
            <AltitudeMeters>1873.5999755859375</AltitudeMeters>
            <DistanceMeters>NAN</DistanceMeters>
          </Trackpoint>
          <Trackpoint>
            <Time>2021-08-03T06:06:38.000Z</Time>
            <Position>
              <LatitudeDegrees>-15.35248403437435626983642578125</LatitudeDegrees>
              <LongitudeDegrees>37.0735424570739269256591796875</LongitudeDegrees>
            </Position>
            <AltitudeMeters>1872.199951171875</AltitudeMeters>
            <DistanceMeters>NAN</DistanceMeters>
          </Trackpoint>
          <Trackpoint>
            <Time>2021-08-03T06:06:41.000Z</Time>
            <Position>
              <LatitudeDegrees>-15.35246861167252063751220703125</LatitudeDegrees>
              <LongitudeDegrees>37.0735478214919567108154296875</LongitudeDegrees>
            </Position>
            <AltitudeMeters>1871.199951171875</AltitudeMeters>
            <DistanceMeters>NAN</DistanceMeters>
          </Trackpoint>
          <Trackpoint>
            <Time>2021-08-03T06:06:43.000Z</Time>
            <Position>
              <LatitudeDegrees>-15.3524526022374629974365234375</LatitudeDegrees>
              <LongitudeDegrees>37.0735494978725910186767578125</LongitudeDegrees>
            </Position>
            <AltitudeMeters>1870.199951171875</AltitudeMeters>
            <DistanceMeters>NAN</DistanceMeters>
          </Trackpoint>
          <Trackpoint>
            <Time>2021-08-03T06:06:44.000Z</Time>
            <Position>
              <LatitudeDegrees>-15.3524458967149257659912109375</LatitudeDegrees>
              <LongitudeDegrees>37.073550336062908172607421875</LongitudeDegrees>
            </Position>
            <AltitudeMeters>1870</AltitudeMeters>
            <DistanceMeters>NAN</DistanceMeters>
          </Trackpoint>
          <Trackpoint>
            <Time>2021-08-03T06:06:46.000Z</Time>
            <Position>
              <LatitudeDegrees>-15.35243340767920017242431640625</LatitudeDegrees>
              <LongitudeDegrees>37.0735588856041431427001953125</LongitudeDegrees>
            </Position>
            <AltitudeMeters>1869.4000244140625</AltitudeMeters>
            <DistanceMeters>NAN</DistanceMeters>
          </Trackpoint>
          <Trackpoint>
            <Time>2021-08-03T06:06:47.000Z</Time>
            <Position>
              <LatitudeDegrees>-15.35242988727986812591552734375</LatitudeDegrees>
              <LongitudeDegrees>37.07356768660247325897216796875</LongitudeDegrees>
            </Position>
            <AltitudeMeters>1868.5999755859375</AltitudeMeters>
            <DistanceMeters>NAN</DistanceMeters>
          </Trackpoint>
          <Trackpoint>
            <Time>2021-08-03T06:06:50.000Z</Time>
            <Position>
              <LatitudeDegrees>-15.35241731442511081695556640625</LatitudeDegrees>
              <LongitudeDegrees>37.0735877193510532379150390625</LongitudeDegrees>
            </Position>
            <AltitudeMeters>1868</AltitudeMeters>
            <DistanceMeters>NAN</DistanceMeters>
          </Trackpoint>
          <Trackpoint>
            <Time>2021-08-03T06:06:52.000Z</Time>
            <Position>
              <LatitudeDegrees>-15.352404154837131500244140625</LatitudeDegrees>
              <LongitudeDegrees>37.07360188476741313934326171875</LongitudeDegrees>
            </Position>
            <AltitudeMeters>1867.5999755859375</AltitudeMeters>
            <DistanceMeters>NAN</DistanceMeters>
          </Trackpoint>
          <Trackpoint>
            <Time>2021-08-03T06:06:53.000Z</Time>
            <Position>
              <LatitudeDegrees>-15.35239535383880138397216796875</LatitudeDegrees>
              <LongitudeDegrees>37.07361035048961639404296875</LongitudeDegrees>
            </Position>
            <AltitudeMeters>1867.4000244140625</AltitudeMeters>
            <DistanceMeters>NAN</DistanceMeters>
          </Trackpoint>
          <Trackpoint>
            <Time>2021-08-03T06:06:57.000Z</Time>
            <Position>
              <LatitudeDegrees>-15.35236903466284275054931640625</LatitudeDegrees>
              <LongitudeDegrees>37.07365267910063266754150390625</LongitudeDegrees>
            </Position>
            <AltitudeMeters>1866</AltitudeMeters>
            <DistanceMeters>NAN</DistanceMeters>
          </Trackpoint>
          <Trackpoint>
            <Time>2021-08-03T06:06:58.000Z</Time>
            <Position>
              <LatitudeDegrees>-15.35236082039773464202880859375</LatitudeDegrees>
              <LongitudeDegrees>37.07366156391799449920654296875</LongitudeDegrees>
            </Position>
            <AltitudeMeters>1865.800048828125</AltitudeMeters>
            <DistanceMeters>NAN</DistanceMeters>
          </Trackpoint>
          <Trackpoint>
            <Time>2021-08-03T06:07:00.000Z</Time>
            <Position>
              <LatitudeDegrees>-15.35234020091593265533447265625</LatitudeDegrees>
              <LongitudeDegrees>37.0736762322485446929931640625</LongitudeDegrees>
            </Position>
            <AltitudeMeters>1864.800048828125</AltitudeMeters>
            <DistanceMeters>NAN</DistanceMeters>
          </Trackpoint>
          <Trackpoint>
            <Time>2021-08-03T06:07:04.000Z</Time>
            <Position>
              <LatitudeDegrees>-15.352310277521610260009765625</LatitudeDegrees>
              <LongitudeDegrees>37.07370481453835964202880859375</LongitudeDegrees>
            </Position>
            <AltitudeMeters>1863.5999755859375</AltitudeMeters>
            <DistanceMeters>NAN</DistanceMeters>
          </Trackpoint>
          <Trackpoint>
            <Time>2021-08-03T06:07:06.000Z</Time>
            <Position>
              <LatitudeDegrees>-15.3523060865700244903564453125</LatitudeDegrees>
              <LongitudeDegrees>37.07372359000146389007568359375</LongitudeDegrees>
            </Position>
            <AltitudeMeters>1863.199951171875</AltitudeMeters>
            <DistanceMeters>NAN</DistanceMeters>
          </Trackpoint>
          <Trackpoint>
            <Time>2021-08-03T06:07:08.000Z</Time>
            <Position>
              <LatitudeDegrees>-15.3522973693907260894775390625</LatitudeDegrees>
              <LongitudeDegrees>37.0737449638545513153076171875</LongitudeDegrees>
            </Position>
            <AltitudeMeters>1862.199951171875</AltitudeMeters>
            <DistanceMeters>NAN</DistanceMeters>
          </Trackpoint>
          <Trackpoint>
            <Time>2021-08-03T06:07:11.000Z</Time>
            <Position>
              <LatitudeDegrees>-15.35226392559707164764404296875</LatitudeDegrees>
              <LongitudeDegrees>37.07377036102116107940673828125</LongitudeDegrees>
            </Position>
            <AltitudeMeters>1861</AltitudeMeters>
            <DistanceMeters>NAN</DistanceMeters>
          </Trackpoint>
          <Trackpoint>
            <Time>2021-08-03T06:07:14.000Z</Time>
            <Position>
              <LatitudeDegrees>-15.3522433899343013763427734375</LatitudeDegrees>
              <LongitudeDegrees>37.073789723217487335205078125</LongitudeDegrees>
            </Position>
            <AltitudeMeters>1860.4000244140625</AltitudeMeters>
            <DistanceMeters>NAN</DistanceMeters>
          </Trackpoint>
          <Trackpoint>
            <Time>2021-08-03T06:07:16.000Z</Time>
            <Position>
              <LatitudeDegrees>-15.3522360138595104217529296875</LatitudeDegrees>
              <LongitudeDegrees>37.0738029666244983673095703125</LongitudeDegrees>
            </Position>
            <AltitudeMeters>1859.800048828125</AltitudeMeters>
            <DistanceMeters>NAN</DistanceMeters>
          </Trackpoint>
          <Trackpoint>
            <Time>2021-08-03T06:07:17.000Z</Time>
            <Position>
              <LatitudeDegrees>-15.35223224200308322906494140625</LatitudeDegrees>
              <LongitudeDegrees>37.0738108456134796142578125</LongitudeDegrees>
            </Position>
            <AltitudeMeters>1858</AltitudeMeters>
            <DistanceMeters>NAN</DistanceMeters>
          </Trackpoint>
          <Trackpoint>
            <Time>2021-08-03T06:07:21.000Z</Time>
            <Position>
              <LatitudeDegrees>-15.3522105328738689422607421875</LatitudeDegrees>
              <LongitudeDegrees>37.0738296210765838623046875</LongitudeDegrees>
            </Position>
            <AltitudeMeters>1856.4000244140625</AltitudeMeters>
            <DistanceMeters>NAN</DistanceMeters>
          </Trackpoint>
          <Trackpoint>
            <Time>2021-08-03T06:07:26.000Z</Time>
            <Position>
              <LatitudeDegrees>-15.35218681208789348602294921875</LatitudeDegrees>
              <LongitudeDegrees>37.07386055029928684234619140625</LongitudeDegrees>
            </Position>
            <AltitudeMeters>1855.4000244140625</AltitudeMeters>
            <DistanceMeters>NAN</DistanceMeters>
          </Trackpoint>
          <Trackpoint>
            <Time>2021-08-03T06:07:27.000Z</Time>
            <Position>
              <LatitudeDegrees>-15.3521850518882274627685546875</LatitudeDegrees>
              <LongitudeDegrees>37.07386608235538005828857421875</LongitudeDegrees>
            </Position>
            <AltitudeMeters>1855.4000244140625</AltitudeMeters>
            <DistanceMeters>NAN</DistanceMeters>
          </Trackpoint>
          <Trackpoint>
            <Time>2021-08-03T06:07:30.000Z</Time>
            <Position>
              <LatitudeDegrees>-15.3521625883877277374267578125</LatitudeDegrees>
              <LongitudeDegrees>37.0738814212381839752197265625</LongitudeDegrees>
            </Position>
            <AltitudeMeters>1854</AltitudeMeters>
            <DistanceMeters>NAN</DistanceMeters>
          </Trackpoint>
          <Trackpoint>
            <Time>2021-08-03T06:07:31.000Z</Time>
            <Position>
              <LatitudeDegrees>-15.352158062160015106201171875</LatitudeDegrees>
              <LongitudeDegrees>37.073887288570404052734375</LongitudeDegrees>
            </Position>
            <AltitudeMeters>1854</AltitudeMeters>
            <DistanceMeters>NAN</DistanceMeters>
          </Trackpoint>
          <Trackpoint>
            <Time>2021-08-03T06:07:34.000Z</Time>
            <Position>
              <LatitudeDegrees>-15.35214372910559177398681640625</LatitudeDegrees>
              <LongitudeDegrees>37.0739015378057956695556640625</LongitudeDegrees>
            </Position>
            <AltitudeMeters>1853.5999755859375</AltitudeMeters>
            <DistanceMeters>NAN</DistanceMeters>
          </Trackpoint>
          <Trackpoint>
            <Time>2021-08-03T06:07:36.000Z</Time>
            <Position>
              <LatitudeDegrees>-15.3521270491182804107666015625</LatitudeDegrees>
              <LongitudeDegrees>37.07391033880412578582763671875</LongitudeDegrees>
            </Position>
            <AltitudeMeters>1852.5999755859375</AltitudeMeters>
            <DistanceMeters>NAN</DistanceMeters>
          </Trackpoint>
          <Trackpoint>
            <Time>2021-08-03T06:07:38.000Z</Time>
            <Position>
              <LatitudeDegrees>-15.3521129675209522247314453125</LatitudeDegrees>
              <LongitudeDegrees>37.07391553558409214019775390625</LongitudeDegrees>
            </Position>
            <AltitudeMeters>1850.800048828125</AltitudeMeters>
            <DistanceMeters>NAN</DistanceMeters>
          </Trackpoint>
          <Trackpoint>
            <Time>2021-08-03T06:07:42.000Z</Time>
            <Position>
              <LatitudeDegrees>-15.35209628753364086151123046875</LatitudeDegrees>
              <LongitudeDegrees>37.07391218282282352447509765625</LongitudeDegrees>
            </Position>
            <AltitudeMeters>1850.4000244140625</AltitudeMeters>
            <DistanceMeters>NAN</DistanceMeters>
          </Trackpoint>
          <Trackpoint>
            <Time>2021-08-03T06:07:56.000Z</Time>
            <Position>
              <LatitudeDegrees>-15.3520888276398181915283203125</LatitudeDegrees>
              <LongitudeDegrees>37.07389608956873416900634765625</LongitudeDegrees>
            </Position>
            <AltitudeMeters>1851</AltitudeMeters>
            <DistanceMeters>NAN</DistanceMeters>
          </Trackpoint>
          <Trackpoint>
            <Time>2021-08-03T06:07:58.000Z</Time>
            <Position>
              <LatitudeDegrees>-15.3520888276398181915283203125</LatitudeDegrees>
              <LongitudeDegrees>37.07389608956873416900634765625</LongitudeDegrees>
            </Position>
            <AltitudeMeters>1850.5999755859375</AltitudeMeters>
            <DistanceMeters>NAN</DistanceMeters>
          </Trackpoint>
          <Trackpoint>
            <Time>2021-08-03T06:08:16.000Z</Time>
            <Position>
              <LatitudeDegrees>-15.35207583568990230560302734375</LatitudeDegrees>
              <LongitudeDegrees>37.07388418726623058319091796875</LongitudeDegrees>
            </Position>
            <AltitudeMeters>1850</AltitudeMeters>
            <DistanceMeters>NAN</DistanceMeters>
          </Trackpoint>
          <Trackpoint>
            <Time>2021-08-03T06:08:17.000Z</Time>
            <Position>
              <LatitudeDegrees>-15.352075584232807159423828125</LatitudeDegrees>
              <LongitudeDegrees>37.07388418726623058319091796875</LongitudeDegrees>
            </Position>
            <AltitudeMeters>1849.5999755859375</AltitudeMeters>
            <DistanceMeters>NAN</DistanceMeters>
          </Trackpoint>
          <Trackpoint>
            <Time>2021-08-03T06:08:21.000Z</Time>
            <Position>
              <LatitudeDegrees>-15.3520586527884006500244140625</LatitudeDegrees>
              <LongitudeDegrees>37.0738944970071315765380859375</LongitudeDegrees>
            </Position>
            <AltitudeMeters>1848.4000244140625</AltitudeMeters>
            <DistanceMeters>NAN</DistanceMeters>
          </Trackpoint>
          <Trackpoint>
            <Time>2021-08-03T06:08:22.000Z</Time>
            <Position>
              <LatitudeDegrees>-15.35204197280108928680419921875</LatitudeDegrees>
              <LongitudeDegrees>37.073896341025829315185546875</LongitudeDegrees>
            </Position>
            <AltitudeMeters>1848</AltitudeMeters>
            <DistanceMeters>NAN</DistanceMeters>
          </Trackpoint>
          <Trackpoint>
            <Time>2021-08-03T06:08:24.000Z</Time>
            <Position>
              <LatitudeDegrees>-15.352006517350673675537109375</LatitudeDegrees>
              <LongitudeDegrees>37.07390815950930118560791015625</LongitudeDegrees>
            </Position>
            <AltitudeMeters>1847.4000244140625</AltitudeMeters>
            <DistanceMeters>NAN</DistanceMeters>
          </Trackpoint>
          <Trackpoint>
            <Time>2021-08-03T06:08:25.000Z</Time>
            <Position>
              <LatitudeDegrees>-15.35199168138206005096435546875</LatitudeDegrees>
              <LongitudeDegrees>37.07390883006155490875244140625</LongitudeDegrees>
            </Position>
            <AltitudeMeters>1847</AltitudeMeters>
            <DistanceMeters>NAN</DistanceMeters>
          </Trackpoint>
          <Trackpoint>
            <Time>2021-08-03T06:08:26.000Z</Time>
            <Position>
              <LatitudeDegrees>-15.351978354156017303466796875</LatitudeDegrees>
              <LongitudeDegrees>37.0739181339740753173828125</LongitudeDegrees>
            </Position>
            <AltitudeMeters>1846.5999755859375</AltitudeMeters>
            <DistanceMeters>NAN</DistanceMeters>
          </Trackpoint>
          <Trackpoint>
            <Time>2021-08-03T06:08:29.000Z</Time>
            <Position>
              <LatitudeDegrees>-15.35194809548556804656982421875</LatitudeDegrees>
              <LongitudeDegrees>37.0739449560642242431640625</LongitudeDegrees>
            </Position>
            <AltitudeMeters>1846</AltitudeMeters>
            <DistanceMeters>NAN</DistanceMeters>
          </Trackpoint>
          <Trackpoint>
            <Time>2021-08-03T06:08:32.000Z</Time>
            <Position>
              <LatitudeDegrees>-15.35193116404116153717041015625</LatitudeDegrees>
              <LongitudeDegrees>37.0739664137363433837890625</LongitudeDegrees>
            </Position>
            <AltitudeMeters>1845</AltitudeMeters>
            <DistanceMeters>NAN</DistanceMeters>
          </Trackpoint>
          <Trackpoint>
            <Time>2021-08-03T06:08:33.000Z</Time>
            <Position>
              <LatitudeDegrees>-15.3519248776137828826904296875</LatitudeDegrees>
              <LongitudeDegrees>37.07397286780178546905517578125</LongitudeDegrees>
            </Position>
            <AltitudeMeters>1844.4000244140625</AltitudeMeters>
            <DistanceMeters>NAN</DistanceMeters>
          </Trackpoint>
          <Trackpoint>
            <Time>2021-08-03T06:08:35.000Z</Time>
            <Position>
              <LatitudeDegrees>-15.35191372968256473541259765625</LatitudeDegrees>
              <LongitudeDegrees>37.0739816688001155853271484375</LongitudeDegrees>
            </Position>
            <AltitudeMeters>1843.4000244140625</AltitudeMeters>
            <DistanceMeters>NAN</DistanceMeters>
          </Trackpoint>
          <Trackpoint>
            <Time>2021-08-03T06:08:38.000Z</Time>
            <Position>
              <LatitudeDegrees>-15.35189487040042877197265625</LatitudeDegrees>
              <LongitudeDegrees>37.07399516366422176361083984375</LongitudeDegrees>
            </Position>
            <AltitudeMeters>1842</AltitudeMeters>
            <DistanceMeters>NAN</DistanceMeters>
          </Trackpoint>
          <Trackpoint>
            <Time>2021-08-03T06:08:40.000Z</Time>
            <Position>
              <LatitudeDegrees>-15.3518807888031005859375</LatitudeDegrees>
              <LongitudeDegrees>37.0740014500916004180908203125</LongitudeDegrees>
            </Position>
            <AltitudeMeters>1841.5999755859375</AltitudeMeters>
            <DistanceMeters>NAN</DistanceMeters>
          </Trackpoint>
          <Trackpoint>
            <Time>2021-08-03T06:08:42.000Z</Time>
            <Position>
              <LatitudeDegrees>-15.35187114961445331573486328125</LatitudeDegrees>
              <LongitudeDegrees>37.0740048028528690338134765625</LongitudeDegrees>
            </Position>
            <AltitudeMeters>1840.4000244140625</AltitudeMeters>
            <DistanceMeters>NAN</DistanceMeters>
          </Trackpoint>
          <Trackpoint>
            <Time>2021-08-03T06:08:44.000Z</Time>
            <Position>
              <LatitudeDegrees>-15.35185991786420345306396484375</LatitudeDegrees>
              <LongitudeDegrees>37.0740039646625518798828125</LongitudeDegrees>
            </Position>
            <AltitudeMeters>1839.199951171875</AltitudeMeters>
            <DistanceMeters>NAN</DistanceMeters>
          </Trackpoint>
          <Trackpoint>
            <Time>2021-08-03T06:08:47.000Z</Time>
            <Position>
              <LatitudeDegrees>-15.35184080712497234344482421875</LatitudeDegrees>
              <LongitudeDegrees>37.0740048028528690338134765625</LongitudeDegrees>
            </Position>
            <AltitudeMeters>1838.199951171875</AltitudeMeters>
            <DistanceMeters>NAN</DistanceMeters>
          </Trackpoint>
          <Trackpoint>
            <Time>2021-08-03T06:08:48.000Z</Time>
            <Position>
              <LatitudeDegrees>-15.35183359868824481964111328125</LatitudeDegrees>
              <LongitudeDegrees>37.0740044675767421722412109375</LongitudeDegrees>
            </Position>
            <AltitudeMeters>1838</AltitudeMeters>
            <DistanceMeters>NAN</DistanceMeters>
          </Trackpoint>
          <Trackpoint>
            <Time>2021-08-03T06:08:52.000Z</Time>
            <Position>
              <LatitudeDegrees>-15.351819097995758056640625</LatitudeDegrees>
              <LongitudeDegrees>37.0740024559199810028076171875</LongitudeDegrees>
            </Position>
            <AltitudeMeters>1837</AltitudeMeters>
            <DistanceMeters>NAN</DistanceMeters>
          </Trackpoint>
          <Trackpoint>
            <Time>2021-08-03T06:08:54.000Z</Time>
            <Position>
              <LatitudeDegrees>-15.35180711187422275543212890625</LatitudeDegrees>
              <LongitudeDegrees>37.07400103099644184112548828125</LongitudeDegrees>
            </Position>
            <AltitudeMeters>1836.199951171875</AltitudeMeters>
            <DistanceMeters>NAN</DistanceMeters>
          </Trackpoint>
          <Trackpoint>
            <Time>2021-08-03T06:08:55.000Z</Time>
            <Position>
              <LatitudeDegrees>-15.35179990343749523162841796875</LatitudeDegrees>
              <LongitudeDegrees>37.07400002516806125640869140625</LongitudeDegrees>
            </Position>
            <AltitudeMeters>1836</AltitudeMeters>
            <DistanceMeters>NAN</DistanceMeters>
          </Trackpoint>
          <Trackpoint>
            <Time>2021-08-03T06:08:56.000Z</Time>
            <Position>
              <LatitudeDegrees>-15.3517924435436725616455078125</LatitudeDegrees>
              <LongitudeDegrees>37.0739930681884288787841796875</LongitudeDegrees>
            </Position>
            <AltitudeMeters>1835.4000244140625</AltitudeMeters>
            <DistanceMeters>NAN</DistanceMeters>
          </Trackpoint>
          <Trackpoint>
            <Time>2021-08-03T06:08:57.000Z</Time>
            <Position>
              <LatitudeDegrees>-15.35178221762180328369140625</LatitudeDegrees>
              <LongitudeDegrees>37.07398896105587482452392578125</LongitudeDegrees>
            </Position>
            <AltitudeMeters>1834.199951171875</AltitudeMeters>
            <DistanceMeters>NAN</DistanceMeters>
          </Trackpoint>
          <Trackpoint>
            <Time>2021-08-03T06:08:59.000Z</Time>
            <Position>
              <LatitudeDegrees>-15.351768471300601959228515625</LatitudeDegrees>
              <LongitudeDegrees>37.07398720085620880126953125</LongitudeDegrees>
            </Position>
            <AltitudeMeters>1833</AltitudeMeters>
            <DistanceMeters>NAN</DistanceMeters>
          </Trackpoint>
          <Trackpoint>
            <Time>2021-08-03T06:09:02.000Z</Time>
            <Position>
              <LatitudeDegrees>-15.3517491929233074188232421875</LatitudeDegrees>
              <LongitudeDegrees>37.07399122416973114013671875</LongitudeDegrees>
            </Position>
            <AltitudeMeters>1832</AltitudeMeters>
            <DistanceMeters>NAN</DistanceMeters>
          </Trackpoint>
          <Trackpoint>
            <Time>2021-08-03T06:09:03.000Z</Time>
            <Position>
              <LatitudeDegrees>-15.3517424874007701873779296875</LatitudeDegrees>
              <LongitudeDegrees>37.0739910565316677093505859375</LongitudeDegrees>
            </Position>
            <AltitudeMeters>1831.5999755859375</AltitudeMeters>
            <DistanceMeters>NAN</DistanceMeters>
          </Trackpoint>
          <Trackpoint>
            <Time>2021-08-03T06:09:05.000Z</Time>
            <Position>
              <LatitudeDegrees>-15.3517351113259792327880859375</LatitudeDegrees>
              <LongitudeDegrees>37.074000947177410125732421875</LongitudeDegrees>
            </Position>
            <AltitudeMeters>1830.4000244140625</AltitudeMeters>
            <DistanceMeters>NAN</DistanceMeters>
          </Trackpoint>
          <Trackpoint>
            <Time>2021-08-03T06:09:08.000Z</Time>
            <Position>
              <LatitudeDegrees>-15.35172614268958568572998046875</LatitudeDegrees>
              <LongitudeDegrees>37.0740225724875926971435546875</LongitudeDegrees>
            </Position>
            <AltitudeMeters>1830.199951171875</AltitudeMeters>
            <DistanceMeters>NAN</DistanceMeters>
          </Trackpoint>
          <Trackpoint>
            <Time>2021-08-03T06:09:11.000Z</Time>
            <Position>
              <LatitudeDegrees>-15.3517103008925914764404296875</LatitudeDegrees>
              <LongitudeDegrees>37.0740390010178089141845703125</LongitudeDegrees>
            </Position>
            <AltitudeMeters>1828.5999755859375</AltitudeMeters>
            <DistanceMeters>NAN</DistanceMeters>
          </Trackpoint>
          <Trackpoint>
            <Time>2021-08-03T06:09:14.000Z</Time>
            <Position>
              <LatitudeDegrees>-15.351704098284244537353515625</LatitudeDegrees>
              <LongitudeDegrees>37.0740359835326671600341796875</LongitudeDegrees>
            </Position>
            <AltitudeMeters>1827.800048828125</AltitudeMeters>
            <DistanceMeters>NAN</DistanceMeters>
          </Trackpoint>
          <Trackpoint>
            <Time>2021-08-03T06:09:16.000Z</Time>
            <Position>
              <LatitudeDegrees>-15.35170317627489566802978515625</LatitudeDegrees>
              <LongitudeDegrees>37.07403858192265033721923828125</LongitudeDegrees>
            </Position>
            <AltitudeMeters>1827</AltitudeMeters>
            <DistanceMeters>NAN</DistanceMeters>
          </Trackpoint>
          <Trackpoint>
            <Time>2021-08-03T06:09:18.000Z</Time>
            <Position>
              <LatitudeDegrees>-15.3517052717506885528564453125</LatitudeDegrees>
              <LongitudeDegrees>37.0740426890552043914794921875</LongitudeDegrees>
            </Position>
            <AltitudeMeters>1826.4000244140625</AltitudeMeters>
            <DistanceMeters>NAN</DistanceMeters>
          </Trackpoint>
          <Trackpoint>
            <Time>2021-08-03T06:09:22.000Z</Time>
            <Position>
              <LatitudeDegrees>-15.3516898490488529205322265625</LatitudeDegrees>
              <LongitudeDegrees>37.07406842149794101715087890625</LongitudeDegrees>
            </Position>
            <AltitudeMeters>1826</AltitudeMeters>
            <DistanceMeters>NAN</DistanceMeters>
          </Trackpoint>
          <Trackpoint>
            <Time>2021-08-03T06:09:23.000Z</Time>
            <Position>
              <LatitudeDegrees>-15.35168431699275970458984375</LatitudeDegrees>
              <LongitudeDegrees>37.0740782283246517181396484375</LongitudeDegrees>
            </Position>
            <AltitudeMeters>1825.5999755859375</AltitudeMeters>
            <DistanceMeters>NAN</DistanceMeters>
          </Trackpoint>
          <Trackpoint>
            <Time>2021-08-03T06:09:25.000Z</Time>
            <Position>
              <LatitudeDegrees>-15.3516640327870845794677734375</LatitudeDegrees>
              <LongitudeDegrees>37.07409976981580257415771484375</LongitudeDegrees>
            </Position>
            <AltitudeMeters>1824.800048828125</AltitudeMeters>
            <DistanceMeters>NAN</DistanceMeters>
          </Trackpoint>
          <Trackpoint>
            <Time>2021-08-03T06:09:27.000Z</Time>
            <Position>
              <LatitudeDegrees>-15.351647101342678070068359375</LatitudeDegrees>
              <LongitudeDegrees>37.07410831935703754425048828125</LongitudeDegrees>
            </Position>
            <AltitudeMeters>1824.5999755859375</AltitudeMeters>
            <DistanceMeters>NAN</DistanceMeters>
          </Trackpoint>
          <Trackpoint>
            <Time>2021-08-03T06:09:28.000Z</Time>
            <Position>
              <LatitudeDegrees>-15.35163830034434795379638671875</LatitudeDegrees>
              <LongitudeDegrees>37.0741104148328304290771484375</LongitudeDegrees>
            </Position>
            <AltitudeMeters>1824.5999755859375</AltitudeMeters>
            <DistanceMeters>NAN</DistanceMeters>
          </Trackpoint>
          <Trackpoint>
            <Time>2021-08-03T06:09:31.000Z</Time>
            <Position>
              <LatitudeDegrees>-15.35161784850060939788818359375</LatitudeDegrees>
              <LongitudeDegrees>37.074110917747020721435546875</LongitudeDegrees>
            </Position>
            <AltitudeMeters>1823.800048828125</AltitudeMeters>
            <DistanceMeters>NAN</DistanceMeters>
          </Trackpoint>
          <Trackpoint>
            <Time>2021-08-03T06:09:33.000Z</Time>
            <Position>
              <LatitudeDegrees>-15.351606197655200958251953125</LatitudeDegrees>
              <LongitudeDegrees>37.074110247194766998291015625</LongitudeDegrees>
            </Position>
            <AltitudeMeters>1823.4000244140625</AltitudeMeters>
            <DistanceMeters>NAN</DistanceMeters>
          </Trackpoint>
          <Trackpoint>
            <Time>2021-08-03T06:09:37.000Z</Time>
            <Position>
              <LatitudeDegrees>-15.3515822254121303558349609375</LatitudeDegrees>
              <LongitudeDegrees>37.0741124264895915985107421875</LongitudeDegrees>
            </Position>
            <AltitudeMeters>1822.4000244140625</AltitudeMeters>
            <DistanceMeters>NAN</DistanceMeters>
          </Trackpoint>
          <Trackpoint>
            <Time>2021-08-03T06:09:41.000Z</Time>
            <Position>
              <LatitudeDegrees>-15.35156001336872577667236328125</LatitudeDegrees>
              <LongitudeDegrees>37.074101530015468597412109375</LongitudeDegrees>
            </Position>
            <AltitudeMeters>1821.4000244140625</AltitudeMeters>
            <DistanceMeters>NAN</DistanceMeters>
          </Trackpoint>
          <Trackpoint>
            <Time>2021-08-03T06:09:42.000Z</Time>
            <Position>
              <LatitudeDegrees>-15.3515567444264888763427734375</LatitudeDegrees>
              <LongitudeDegrees>37.0740973390638828277587890625</LongitudeDegrees>
            </Position>
            <AltitudeMeters>1821.4000244140625</AltitudeMeters>
            <DistanceMeters>NAN</DistanceMeters>
          </Trackpoint>
          <Trackpoint>
            <Time>2021-08-03T06:09:47.000Z</Time>
            <Position>
              <LatitudeDegrees>-15.3515305928885936737060546875</LatitudeDegrees>
              <LongitudeDegrees>37.07410521805286407470703125</LongitudeDegrees>
            </Position>
            <AltitudeMeters>1820.199951171875</AltitudeMeters>
            <DistanceMeters>NAN</DistanceMeters>
          </Trackpoint>
          <Trackpoint>
            <Time>2021-08-03T06:09:52.000Z</Time>
            <Position>
              <LatitudeDegrees>-15.35154861398041248321533203125</LatitudeDegrees>
              <LongitudeDegrees>37.0741192996501922607421875</LongitudeDegrees>
            </Position>
            <AltitudeMeters>1819</AltitudeMeters>
            <DistanceMeters>NAN</DistanceMeters>
          </Trackpoint>
          <Trackpoint>
            <Time>2021-08-03T06:09:57.000Z</Time>
            <Position>
              <LatitudeDegrees>-15.3515332750976085662841796875</LatitudeDegrees>
              <LongitudeDegrees>37.0741104148328304290771484375</LongitudeDegrees>
            </Position>
            <AltitudeMeters>1819</AltitudeMeters>
            <DistanceMeters>NAN</DistanceMeters>
          </Trackpoint>
          <Trackpoint>
            <Time>2021-08-03T06:10:04.000Z</Time>
            <Position>
              <LatitudeDegrees>-15.3515332750976085662841796875</LatitudeDegrees>
              <LongitudeDegrees>37.0741104148328304290771484375</LongitudeDegrees>
            </Position>
            <AltitudeMeters>1819</AltitudeMeters>
            <DistanceMeters>NAN</DistanceMeters>
          </Trackpoint>
          <Trackpoint>
            <Time>2021-08-03T06:10:24.000Z</Time>
            <Position>
              <LatitudeDegrees>-15.35151642747223377227783203125</LatitudeDegrees>
              <LongitudeDegrees>37.07410932518541812896728515625</LongitudeDegrees>
            </Position>
            <AltitudeMeters>1818.800048828125</AltitudeMeters>
            <DistanceMeters>NAN</DistanceMeters>
          </Trackpoint>
          <Trackpoint>
            <Time>2021-08-03T06:10:28.000Z</Time>
            <Position>
              <LatitudeDegrees>-15.351513661444187164306640625</LatitudeDegrees>
              <LongitudeDegrees>37.07410614006221294403076171875</LongitudeDegrees>
            </Position>
            <AltitudeMeters>1819</AltitudeMeters>
            <DistanceMeters>NAN</DistanceMeters>
          </Trackpoint>
          <Trackpoint>
            <Time>2021-08-03T06:10:54.000Z</Time>
            <Position>
              <LatitudeDegrees>-15.35151659511029720306396484375</LatitudeDegrees>
              <LongitudeDegrees>37.0740959979593753814697265625</LongitudeDegrees>
            </Position>
            <AltitudeMeters>1818.199951171875</AltitudeMeters>
            <DistanceMeters>NAN</DistanceMeters>
          </Trackpoint>
          <Trackpoint>
            <Time>2021-08-03T06:11:02.000Z</Time>
            <Position>
              <LatitudeDegrees>-15.35151860676705837249755859375</LatitudeDegrees>
              <LongitudeDegrees>37.07409448921680450439453125</LongitudeDegrees>
            </Position>
            <AltitudeMeters>1817.800048828125</AltitudeMeters>
            <DistanceMeters>NAN</DistanceMeters>
          </Trackpoint>
          <Trackpoint>
            <Time>2021-08-03T06:11:10.000Z</Time>
            <Position>
              <LatitudeDegrees>-15.35152204334735870361328125</LatitudeDegrees>
              <LongitudeDegrees>37.0740936510264873504638671875</LongitudeDegrees>
            </Position>
            <AltitudeMeters>1817.800048828125</AltitudeMeters>
            <DistanceMeters>NAN</DistanceMeters>
          </Trackpoint>
          <Trackpoint>
            <Time>2021-08-03T06:11:15.000Z</Time>
            <Position>
              <LatitudeDegrees>-15.35153168253600597381591796875</LatitudeDegrees>
              <LongitudeDegrees>37.074093483388423919677734375</LongitudeDegrees>
            </Position>
            <AltitudeMeters>1817.4000244140625</AltitudeMeters>
            <DistanceMeters>NAN</DistanceMeters>
          </Trackpoint>
          <Trackpoint>
            <Time>2021-08-03T06:11:20.000Z</Time>
            <Position>
              <LatitudeDegrees>-15.3515339456498622894287109375</LatitudeDegrees>
              <LongitudeDegrees>37.07409306429326534271240234375</LongitudeDegrees>
            </Position>
            <AltitudeMeters>1817.4000244140625</AltitudeMeters>
            <DistanceMeters>NAN</DistanceMeters>
          </Trackpoint>
          <Trackpoint>
            <Time>2021-08-03T06:11:26.000Z</Time>
            <Position>
              <LatitudeDegrees>-15.35153402946889400482177734375</LatitudeDegrees>
              <LongitudeDegrees>37.07409021444618701934814453125</LongitudeDegrees>
            </Position>
            <AltitudeMeters>1817.199951171875</AltitudeMeters>
            <DistanceMeters>NAN</DistanceMeters>
          </Trackpoint>
          <Trackpoint>
            <Time>2021-08-03T06:11:41.000Z</Time>
            <Position>
              <LatitudeDegrees>-15.35153252072632312774658203125</LatitudeDegrees>
              <LongitudeDegrees>37.07408987917006015777587890625</LongitudeDegrees>
            </Position>
            <AltitudeMeters>1817.4000244140625</AltitudeMeters>
            <DistanceMeters>NAN</DistanceMeters>
          </Trackpoint>
          <Trackpoint>
            <Time>2021-08-03T06:11:49.000Z</Time>
            <Position>
              <LatitudeDegrees>-15.35153201781213283538818359375</LatitudeDegrees>
              <LongitudeDegrees>37.07409138791263103485107421875</LongitudeDegrees>
            </Position>
            <AltitudeMeters>1817</AltitudeMeters>
            <DistanceMeters>NAN</DistanceMeters>
          </Trackpoint>
          <Trackpoint>
            <Time>2021-08-03T06:11:56.000Z</Time>
            <Position>
              <LatitudeDegrees>-15.35153201781213283538818359375</LatitudeDegrees>
              <LongitudeDegrees>37.0740929804742336273193359375</LongitudeDegrees>
            </Position>
            <AltitudeMeters>1817.199951171875</AltitudeMeters>
            <DistanceMeters>NAN</DistanceMeters>
          </Trackpoint>
          <Trackpoint>
            <Time>2021-08-03T06:12:06.000Z</Time>
            <Position>
              <LatitudeDegrees>-15.35153084434568881988525390625</LatitudeDegrees>
              <LongitudeDegrees>37.0740963332355022430419921875</LongitudeDegrees>
            </Position>
            <AltitudeMeters>1816.800048828125</AltitudeMeters>
            <DistanceMeters>NAN</DistanceMeters>
          </Trackpoint>
          <Trackpoint>
            <Time>2021-08-03T06:12:07.000Z</Time>
            <Position>
              <LatitudeDegrees>-15.3515305928885936737060546875</LatitudeDegrees>
              <LongitudeDegrees>37.07409658469259738922119140625</LongitudeDegrees>
            </Position>
            <AltitudeMeters>1816.5999755859375</AltitudeMeters>
            <DistanceMeters>NAN</DistanceMeters>
          </Trackpoint>
          <Trackpoint>
            <Time>2021-08-03T06:12:13.000Z</Time>
            <Position>
              <LatitudeDegrees>-15.35152782686054706573486328125</LatitudeDegrees>
              <LongitudeDegrees>37.0740980096161365509033203125</LongitudeDegrees>
            </Position>
            <AltitudeMeters>1816.4000244140625</AltitudeMeters>
            <DistanceMeters>NAN</DistanceMeters>
          </Trackpoint>
          <Trackpoint>
            <Time>2021-08-03T06:12:30.000Z</Time>
            <Position>
              <LatitudeDegrees>-15.351525060832500457763671875</LatitudeDegrees>
              <LongitudeDegrees>37.07410077564418315887451171875</LongitudeDegrees>
            </Position>
            <AltitudeMeters>1815.800048828125</AltitudeMeters>
            <DistanceMeters>NAN</DistanceMeters>
          </Trackpoint>
          <Trackpoint>
            <Time>2021-08-03T06:12:42.000Z</Time>
            <Position>
              <LatitudeDegrees>-15.35152531228959560394287109375</LatitudeDegrees>
              <LongitudeDegrees>37.07410111092031002044677734375</LongitudeDegrees>
            </Position>
            <AltitudeMeters>1815.5999755859375</AltitudeMeters>
            <DistanceMeters>NAN</DistanceMeters>
          </Trackpoint>
          <Trackpoint>
            <Time>2021-08-03T06:13:01.000Z</Time>
            <Position>
              <LatitudeDegrees>-15.3515272401273250579833984375</LatitudeDegrees>
              <LongitudeDegrees>37.0741006918251514434814453125</LongitudeDegrees>
            </Position>
            <AltitudeMeters>1815.199951171875</AltitudeMeters>
            <DistanceMeters>NAN</DistanceMeters>
          </Trackpoint>
          <Trackpoint>
            <Time>2021-08-03T06:13:04.000Z</Time>
            <Position>
              <LatitudeDegrees>-15.35152749158442020416259765625</LatitudeDegrees>
              <LongitudeDegrees>37.07410077564418315887451171875</LongitudeDegrees>
            </Position>
            <AltitudeMeters>1815.199951171875</AltitudeMeters>
            <DistanceMeters>NAN</DistanceMeters>
          </Trackpoint>
          <Trackpoint>
            <Time>2021-08-03T06:13:26.000Z</Time>
            <Position>
              <LatitudeDegrees>-15.35152866505086421966552734375</LatitudeDegrees>
              <LongitudeDegrees>37.0741005241870880126953125</LongitudeDegrees>
            </Position>
            <AltitudeMeters>1814.800048828125</AltitudeMeters>
            <DistanceMeters>NAN</DistanceMeters>
          </Trackpoint>
          <Trackpoint>
            <Time>2021-08-03T06:13:30.000Z</Time>
            <Position>
              <LatitudeDegrees>-15.35152866505086421966552734375</LatitudeDegrees>
              <LongitudeDegrees>37.07410044036805629730224609375</LongitudeDegrees>
            </Position>
            <AltitudeMeters>1814.800048828125</AltitudeMeters>
            <DistanceMeters>NAN</DistanceMeters>
          </Trackpoint>
          <Trackpoint>
            <Time>2021-08-03T06:13:40.000Z</Time>
            <Position>
              <LatitudeDegrees>-15.35152883268892765045166015625</LatitudeDegrees>
              <LongitudeDegrees>37.0741003565490245819091796875</LongitudeDegrees>
            </Position>
            <AltitudeMeters>1815.5999755859375</AltitudeMeters>
            <DistanceMeters>NAN</DistanceMeters>
          </Trackpoint>
          <Trackpoint>
            <Time>2021-08-03T06:13:55.000Z</Time>
            <Position>
              <LatitudeDegrees>-15.351529084146022796630859375</LatitudeDegrees>
              <LongitudeDegrees>37.07410027272999286651611328125</LongitudeDegrees>
            </Position>
            <AltitudeMeters>1815.5999755859375</AltitudeMeters>
            <DistanceMeters>NAN</DistanceMeters>
          </Trackpoint>
          <Trackpoint>
            <Time>2021-08-03T06:13:58.000Z</Time>
            <Position>
              <LatitudeDegrees>-15.351529084146022796630859375</LatitudeDegrees>
              <LongitudeDegrees>37.074100188910961151123046875</LongitudeDegrees>
            </Position>
            <AltitudeMeters>1815.5999755859375</AltitudeMeters>
            <DistanceMeters>NAN</DistanceMeters>
          </Trackpoint>
          <Trackpoint>
            <Time>2021-08-03T06:14:06.000Z</Time>
            <Position>
              <LatitudeDegrees>-15.35152916796505451202392578125</LatitudeDegrees>
              <LongitudeDegrees>37.074100188910961151123046875</LongitudeDegrees>
            </Position>
            <AltitudeMeters>1815.5999755859375</AltitudeMeters>
            <DistanceMeters>NAN</DistanceMeters>
          </Trackpoint>
          <Trackpoint>
            <Time>2021-08-03T06:14:08.000Z</Time>
            <Position>
              <LatitudeDegrees>-15.35152916796505451202392578125</LatitudeDegrees>
              <LongitudeDegrees>37.074100188910961151123046875</LongitudeDegrees>
            </Position>
            <AltitudeMeters>1815.5999755859375</AltitudeMeters>
            <DistanceMeters>NAN</DistanceMeters>
          </Trackpoint>
          <Trackpoint>
            <Time>2021-08-03T06:14:16.000Z</Time>
            <Position>
              <LatitudeDegrees>-15.35152916796505451202392578125</LatitudeDegrees>
              <LongitudeDegrees>37.07410010509192943572998046875</LongitudeDegrees>
            </Position>
            <AltitudeMeters>1815.5999755859375</AltitudeMeters>
            <DistanceMeters>NAN</DistanceMeters>
          </Trackpoint>
          <Trackpoint>
            <Time>2021-08-03T06:14:36.000Z</Time>
            <Position>
              <LatitudeDegrees>-15.351529084146022796630859375</LatitudeDegrees>
              <LongitudeDegrees>37.07409993745386600494384765625</LongitudeDegrees>
            </Position>
            <AltitudeMeters>1815.5999755859375</AltitudeMeters>
            <DistanceMeters>NAN</DistanceMeters>
          </Trackpoint>
          <Trackpoint>
            <Time>2021-08-03T06:14:41.000Z</Time>
            <Position>
              <LatitudeDegrees>-15.351529084146022796630859375</LatitudeDegrees>
              <LongitudeDegrees>37.07409993745386600494384765625</LongitudeDegrees>
            </Position>
            <AltitudeMeters>1815.5999755859375</AltitudeMeters>
            <DistanceMeters>NAN</DistanceMeters>
          </Trackpoint>
          <Trackpoint>
            <Time>2021-08-03T06:14:42.000Z</Time>
            <Position>
              <LatitudeDegrees>-15.351529084146022796630859375</LatitudeDegrees>
              <LongitudeDegrees>37.07409993745386600494384765625</LongitudeDegrees>
            </Position>
            <AltitudeMeters>1815.5999755859375</AltitudeMeters>
            <DistanceMeters>NAN</DistanceMeters>
          </Trackpoint>
          <Trackpoint>
            <Time>2021-08-03T06:14:50.000Z</Time>
            <Position>
              <LatitudeDegrees>-15.351529084146022796630859375</LatitudeDegrees>
              <LongitudeDegrees>37.07409985363483428955078125</LongitudeDegrees>
            </Position>
            <AltitudeMeters>1815.5999755859375</AltitudeMeters>
            <DistanceMeters>NAN</DistanceMeters>
          </Trackpoint>
          <Trackpoint>
            <Time>2021-08-03T06:14:52.000Z</Time>
            <Position>
              <LatitudeDegrees>-15.351529084146022796630859375</LatitudeDegrees>
              <LongitudeDegrees>37.07409985363483428955078125</LongitudeDegrees>
            </Position>
            <AltitudeMeters>1815.5999755859375</AltitudeMeters>
            <DistanceMeters>NAN</DistanceMeters>
          </Trackpoint>
          <Trackpoint>
            <Time>2021-08-03T06:14:55.000Z</Time>
            <Position>
              <LatitudeDegrees>-15.351529084146022796630859375</LatitudeDegrees>
              <LongitudeDegrees>37.07409976981580257415771484375</LongitudeDegrees>
            </Position>
            <AltitudeMeters>1815.5999755859375</AltitudeMeters>
            <DistanceMeters>NAN</DistanceMeters>
          </Trackpoint>
          <Trackpoint>
            <Time>2021-08-03T06:15:03.000Z</Time>
            <Position>
              <LatitudeDegrees>-15.35152900032699108123779296875</LatitudeDegrees>
              <LongitudeDegrees>37.07409976981580257415771484375</LongitudeDegrees>
            </Position>
            <AltitudeMeters>1815.5999755859375</AltitudeMeters>
            <DistanceMeters>NAN</DistanceMeters>
          </Trackpoint>
          <Trackpoint>
            <Time>2021-08-03T06:15:11.000Z</Time>
            <Position>
              <LatitudeDegrees>-15.35152900032699108123779296875</LatitudeDegrees>
              <LongitudeDegrees>37.07409985363483428955078125</LongitudeDegrees>
            </Position>
            <AltitudeMeters>1815.5999755859375</AltitudeMeters>
            <DistanceMeters>NAN</DistanceMeters>
          </Trackpoint>
          <Trackpoint>
            <Time>2021-08-03T06:15:16.000Z</Time>
            <Position>
              <LatitudeDegrees>-15.3515289165079593658447265625</LatitudeDegrees>
              <LongitudeDegrees>37.07409985363483428955078125</LongitudeDegrees>
            </Position>
            <AltitudeMeters>1815.5999755859375</AltitudeMeters>
            <DistanceMeters>NAN</DistanceMeters>
          </Trackpoint>
          <Trackpoint>
            <Time>2021-08-03T06:15:24.000Z</Time>
            <Position>
              <LatitudeDegrees>-15.3515289165079593658447265625</LatitudeDegrees>
              <LongitudeDegrees>37.07409993745386600494384765625</LongitudeDegrees>
            </Position>
            <AltitudeMeters>1815.5999755859375</AltitudeMeters>
            <DistanceMeters>NAN</DistanceMeters>
          </Trackpoint>
          <Trackpoint>
            <Time>2021-08-03T06:15:31.000Z</Time>
            <Position>
              <LatitudeDegrees>-15.35152900032699108123779296875</LatitudeDegrees>
              <LongitudeDegrees>37.0741000212728977203369140625</LongitudeDegrees>
            </Position>
            <AltitudeMeters>1815.5999755859375</AltitudeMeters>
            <DistanceMeters>NAN</DistanceMeters>
          </Trackpoint>
          <Trackpoint>
            <Time>2021-08-03T06:15:36.000Z</Time>
            <Position>
              <LatitudeDegrees>-15.35152900032699108123779296875</LatitudeDegrees>
              <LongitudeDegrees>37.0741000212728977203369140625</LongitudeDegrees>
            </Position>
            <AltitudeMeters>1815.5999755859375</AltitudeMeters>
            <DistanceMeters>NAN</DistanceMeters>
          </Trackpoint>
          <Trackpoint>
            <Time>2021-08-03T06:15:38.000Z</Time>
            <Position>
              <LatitudeDegrees>-15.35152900032699108123779296875</LatitudeDegrees>
              <LongitudeDegrees>37.0741000212728977203369140625</LongitudeDegrees>
            </Position>
            <AltitudeMeters>1815.5999755859375</AltitudeMeters>
            <DistanceMeters>NAN</DistanceMeters>
          </Trackpoint>
          <Trackpoint>
            <Time>2021-08-03T06:15:41.000Z</Time>
            <Position>
              <LatitudeDegrees>-15.35152900032699108123779296875</LatitudeDegrees>
              <LongitudeDegrees>37.07410010509192943572998046875</LongitudeDegrees>
            </Position>
            <AltitudeMeters>1813.199951171875</AltitudeMeters>
            <DistanceMeters>NAN</DistanceMeters>
          </Trackpoint>
          <Trackpoint>
            <Time>2021-08-03T06:15:43.000Z</Time>
            <Position>
              <LatitudeDegrees>-15.35152900032699108123779296875</LatitudeDegrees>
              <LongitudeDegrees>37.07410010509192943572998046875</LongitudeDegrees>
            </Position>
            <AltitudeMeters>1813.199951171875</AltitudeMeters>
            <DistanceMeters>NAN</DistanceMeters>
          </Trackpoint>
          <Trackpoint>
            <Time>2021-08-03T06:15:55.000Z</Time>
            <Position>
              <LatitudeDegrees>-15.35152900032699108123779296875</LatitudeDegrees>
              <LongitudeDegrees>37.07410010509192943572998046875</LongitudeDegrees>
            </Position>
            <AltitudeMeters>1813.199951171875</AltitudeMeters>
            <DistanceMeters>NAN</DistanceMeters>
          </Trackpoint>
          <Trackpoint>
            <Time>2021-08-03T06:16:24.000Z</Time>
            <Position>
              <LatitudeDegrees>-15.3515289165079593658447265625</LatitudeDegrees>
              <LongitudeDegrees>37.07409985363483428955078125</LongitudeDegrees>
            </Position>
            <AltitudeMeters>1812.5999755859375</AltitudeMeters>
            <DistanceMeters>NAN</DistanceMeters>
          </Trackpoint>
          <Trackpoint>
            <Time>2021-08-03T06:16:28.000Z</Time>
            <Position>
              <LatitudeDegrees>-15.35152883268892765045166015625</LatitudeDegrees>
              <LongitudeDegrees>37.07409985363483428955078125</LongitudeDegrees>
            </Position>
            <AltitudeMeters>1813.199951171875</AltitudeMeters>
            <DistanceMeters>NAN</DistanceMeters>
          </Trackpoint>
          <Trackpoint>
            <Time>2021-08-03T06:16:36.000Z</Time>
            <Position>
              <LatitudeDegrees>-15.35152866505086421966552734375</LatitudeDegrees>
              <LongitudeDegrees>37.07409993745386600494384765625</LongitudeDegrees>
            </Position>
            <AltitudeMeters>1812.800048828125</AltitudeMeters>
            <DistanceMeters>NAN</DistanceMeters>
          </Trackpoint>
          <Trackpoint>
            <Time>2021-08-03T06:16:53.000Z</Time>
            <Position>
              <LatitudeDegrees>-15.35152832977473735809326171875</LatitudeDegrees>
              <LongitudeDegrees>37.07409993745386600494384765625</LongitudeDegrees>
            </Position>
            <AltitudeMeters>1812</AltitudeMeters>
            <DistanceMeters>NAN</DistanceMeters>
          </Trackpoint>
          <Trackpoint>
            <Time>2021-08-03T06:16:54.000Z</Time>
            <Position>
              <LatitudeDegrees>-15.35152832977473735809326171875</LatitudeDegrees>
              <LongitudeDegrees>37.07409993745386600494384765625</LongitudeDegrees>
            </Position>
            <AltitudeMeters>1812</AltitudeMeters>
            <DistanceMeters>NAN</DistanceMeters>
          </Trackpoint>
          <Trackpoint>
            <Time>2021-08-03T06:17:06.000Z</Time>
            <Position>
              <LatitudeDegrees>-15.35152832977473735809326171875</LatitudeDegrees>
              <LongitudeDegrees>37.07409985363483428955078125</LongitudeDegrees>
            </Position>
            <AltitudeMeters>1812.199951171875</AltitudeMeters>
            <DistanceMeters>NAN</DistanceMeters>
          </Trackpoint>
          <Trackpoint>
            <Time>2021-08-03T06:17:10.000Z</Time>
            <Position>
              <LatitudeDegrees>-15.35152832977473735809326171875</LatitudeDegrees>
              <LongitudeDegrees>37.07409985363483428955078125</LongitudeDegrees>
            </Position>
            <AltitudeMeters>1812</AltitudeMeters>
            <DistanceMeters>NAN</DistanceMeters>
          </Trackpoint>
          <Trackpoint>
            <Time>2021-08-03T06:17:20.000Z</Time>
            <Position>
              <LatitudeDegrees>-15.35152832977473735809326171875</LatitudeDegrees>
              <LongitudeDegrees>37.07409985363483428955078125</LongitudeDegrees>
            </Position>
            <AltitudeMeters>1811.800048828125</AltitudeMeters>
            <DistanceMeters>NAN</DistanceMeters>
          </Trackpoint>
          <Trackpoint>
            <Time>2021-08-03T06:17:36.000Z</Time>
            <Position>
              <LatitudeDegrees>-15.35152832977473735809326171875</LatitudeDegrees>
              <LongitudeDegrees>37.07409985363483428955078125</LongitudeDegrees>
            </Position>
            <AltitudeMeters>1810.800048828125</AltitudeMeters>
            <DistanceMeters>NAN</DistanceMeters>
          </Trackpoint>
          <Trackpoint>
            <Time>2021-08-03T06:17:38.000Z</Time>
            <Position>
              <LatitudeDegrees>-15.3515282459557056427001953125</LatitudeDegrees>
              <LongitudeDegrees>37.07409985363483428955078125</LongitudeDegrees>
            </Position>
            <AltitudeMeters>1810.800048828125</AltitudeMeters>
            <DistanceMeters>NAN</DistanceMeters>
          </Trackpoint>
          <Trackpoint>
            <Time>2021-08-03T06:17:53.000Z</Time>
            <Position>
              <LatitudeDegrees>-15.3515280783176422119140625</LatitudeDegrees>
              <LongitudeDegrees>37.07409985363483428955078125</LongitudeDegrees>
            </Position>
            <AltitudeMeters>1810.800048828125</AltitudeMeters>
            <DistanceMeters>NAN</DistanceMeters>
          </Trackpoint>
          <Trackpoint>
            <Time>2021-08-03T06:18:04.000Z</Time>
            <Position>
              <LatitudeDegrees>-15.35152799449861049652099609375</LatitudeDegrees>
              <LongitudeDegrees>37.07409976981580257415771484375</LongitudeDegrees>
            </Position>
            <AltitudeMeters>1811.199951171875</AltitudeMeters>
            <DistanceMeters>NAN</DistanceMeters>
          </Trackpoint>
          <Trackpoint>
            <Time>2021-08-03T06:18:08.000Z</Time>
            <Position>
              <LatitudeDegrees>-15.35152799449861049652099609375</LatitudeDegrees>
              <LongitudeDegrees>37.07409976981580257415771484375</LongitudeDegrees>
            </Position>
            <AltitudeMeters>1811.199951171875</AltitudeMeters>
            <DistanceMeters>NAN</DistanceMeters>
          </Trackpoint>
          <Trackpoint>
            <Time>2021-08-03T06:18:40.000Z</Time>
            <Position>
              <LatitudeDegrees>-15.35152799449861049652099609375</LatitudeDegrees>
              <LongitudeDegrees>37.07409960217773914337158203125</LongitudeDegrees>
            </Position>
            <AltitudeMeters>1810.800048828125</AltitudeMeters>
            <DistanceMeters>NAN</DistanceMeters>
          </Trackpoint>
          <Trackpoint>
            <Time>2021-08-03T06:19:00.000Z</Time>
            <Position>
              <LatitudeDegrees>-15.35152782686054706573486328125</LatitudeDegrees>
              <LongitudeDegrees>37.074099518358707427978515625</LongitudeDegrees>
            </Position>
            <AltitudeMeters>1811.199951171875</AltitudeMeters>
            <DistanceMeters>NAN</DistanceMeters>
          </Trackpoint>
          <Trackpoint>
            <Time>2021-08-03T06:19:04.000Z</Time>
            <Position>
              <LatitudeDegrees>-15.35152782686054706573486328125</LatitudeDegrees>
              <LongitudeDegrees>37.074099518358707427978515625</LongitudeDegrees>
            </Position>
            <AltitudeMeters>1811.199951171875</AltitudeMeters>
            <DistanceMeters>NAN</DistanceMeters>
          </Trackpoint>
          <Trackpoint>
            <Time>2021-08-03T06:19:08.000Z</Time>
            <Position>
              <LatitudeDegrees>-15.35152782686054706573486328125</LatitudeDegrees>
              <LongitudeDegrees>37.074099518358707427978515625</LongitudeDegrees>
            </Position>
            <AltitudeMeters>1811.199951171875</AltitudeMeters>
            <DistanceMeters>NAN</DistanceMeters>
          </Trackpoint>
          <Trackpoint>
            <Time>2021-08-03T06:19:14.000Z</Time>
            <Position>
              <LatitudeDegrees>-15.351527743041515350341796875</LatitudeDegrees>
              <LongitudeDegrees>37.074099518358707427978515625</LongitudeDegrees>
            </Position>
            <AltitudeMeters>1811.199951171875</AltitudeMeters>
            <DistanceMeters>NAN</DistanceMeters>
          </Trackpoint>
          <Trackpoint>
            <Time>2021-08-03T06:19:17.000Z</Time>
            <Position>
              <LatitudeDegrees>-15.351527743041515350341796875</LatitudeDegrees>
              <LongitudeDegrees>37.074099518358707427978515625</LongitudeDegrees>
            </Position>
            <AltitudeMeters>1811.199951171875</AltitudeMeters>
            <DistanceMeters>NAN</DistanceMeters>
          </Trackpoint>
          <Trackpoint>
            <Time>2021-08-03T06:19:29.000Z</Time>
            <Position>
              <LatitudeDegrees>-15.3515275754034519195556640625</LatitudeDegrees>
              <LongitudeDegrees>37.07409943453967571258544921875</LongitudeDegrees>
            </Position>
            <AltitudeMeters>1811.199951171875</AltitudeMeters>
            <DistanceMeters>NAN</DistanceMeters>
          </Trackpoint>
          <Trackpoint>
            <Time>2021-08-03T06:19:38.000Z</Time>
            <Position>
              <LatitudeDegrees>-15.35152749158442020416259765625</LatitudeDegrees>
              <LongitudeDegrees>37.07409943453967571258544921875</LongitudeDegrees>
            </Position>
            <AltitudeMeters>1811.199951171875</AltitudeMeters>
            <DistanceMeters>NAN</DistanceMeters>
          </Trackpoint>
          <Trackpoint>
            <Time>2021-08-03T06:19:50.000Z</Time>
            <Position>
              <LatitudeDegrees>-15.35152740776538848876953125</LatitudeDegrees>
              <LongitudeDegrees>37.074099518358707427978515625</LongitudeDegrees>
            </Position>
            <AltitudeMeters>1811.199951171875</AltitudeMeters>
            <DistanceMeters>NAN</DistanceMeters>
          </Trackpoint>
          <Trackpoint>
            <Time>2021-08-03T06:20:08.000Z</Time>
            <Position>
              <LatitudeDegrees>-15.351527072489261627197265625</LatitudeDegrees>
              <LongitudeDegrees>37.0740996859967708587646484375</LongitudeDegrees>
            </Position>
            <AltitudeMeters>1811.199951171875</AltitudeMeters>
            <DistanceMeters>NAN</DistanceMeters>
          </Trackpoint>
          <Trackpoint>
            <Time>2021-08-03T06:20:11.000Z</Time>
            <Position>
              <LatitudeDegrees>-15.35152698867022991180419921875</LatitudeDegrees>
              <LongitudeDegrees>37.0740996859967708587646484375</LongitudeDegrees>
            </Position>
            <AltitudeMeters>1811.199951171875</AltitudeMeters>
            <DistanceMeters>NAN</DistanceMeters>
          </Trackpoint>
          <Trackpoint>
            <Time>2021-08-03T06:20:12.000Z</Time>
            <Position>
              <LatitudeDegrees>-15.35152698867022991180419921875</LatitudeDegrees>
              <LongitudeDegrees>37.0740996859967708587646484375</LongitudeDegrees>
            </Position>
            <AltitudeMeters>1811.199951171875</AltitudeMeters>
            <DistanceMeters>NAN</DistanceMeters>
          </Trackpoint>
          <Trackpoint>
            <Time>2021-08-03T06:20:20.000Z</Time>
            <Position>
              <LatitudeDegrees>-15.35152698867022991180419921875</LatitudeDegrees>
              <LongitudeDegrees>37.07409976981580257415771484375</LongitudeDegrees>
            </Position>
            <AltitudeMeters>1811.199951171875</AltitudeMeters>
            <DistanceMeters>NAN</DistanceMeters>
          </Trackpoint>
          <Trackpoint>
            <Time>2021-08-03T06:20:26.000Z</Time>
            <Position>
              <LatitudeDegrees>-15.35152698867022991180419921875</LatitudeDegrees>
              <LongitudeDegrees>37.07409976981580257415771484375</LongitudeDegrees>
            </Position>
            <AltitudeMeters>1811.199951171875</AltitudeMeters>
            <DistanceMeters>NAN</DistanceMeters>
          </Trackpoint>
          <Trackpoint>
            <Time>2021-08-03T06:20:32.000Z</Time>
            <Position>
              <LatitudeDegrees>-15.35152698867022991180419921875</LatitudeDegrees>
              <LongitudeDegrees>37.07409976981580257415771484375</LongitudeDegrees>
            </Position>
            <AltitudeMeters>1811.199951171875</AltitudeMeters>
            <DistanceMeters>NAN</DistanceMeters>
          </Trackpoint>
          <Trackpoint>
            <Time>2021-08-03T06:20:39.000Z</Time>
            <Position>
              <LatitudeDegrees>-15.35152698867022991180419921875</LatitudeDegrees>
              <LongitudeDegrees>37.07409976981580257415771484375</LongitudeDegrees>
            </Position>
            <AltitudeMeters>1811.199951171875</AltitudeMeters>
            <DistanceMeters>NAN</DistanceMeters>
          </Trackpoint>
          <Trackpoint>
            <Time>2021-08-03T06:20:46.000Z</Time>
            <Position>
              <LatitudeDegrees>-15.35152698867022991180419921875</LatitudeDegrees>
              <LongitudeDegrees>37.0740996859967708587646484375</LongitudeDegrees>
            </Position>
            <AltitudeMeters>1808.5999755859375</AltitudeMeters>
            <DistanceMeters>NAN</DistanceMeters>
          </Trackpoint>
          <Trackpoint>
            <Time>2021-08-03T06:20:50.000Z</Time>
            <Position>
              <LatitudeDegrees>-15.35148977302014827728271484375</LatitudeDegrees>
              <LongitudeDegrees>37.07412399351596832275390625</LongitudeDegrees>
            </Position>
            <AltitudeMeters>1807.5999755859375</AltitudeMeters>
            <DistanceMeters>NAN</DistanceMeters>
          </Trackpoint>
          <Trackpoint>
            <Time>2021-08-03T06:20:52.000Z</Time>
            <Position>
              <LatitudeDegrees>-15.3514730930328369140625</LatitudeDegrees>
              <LongitudeDegrees>37.0741407573223114013671875</LongitudeDegrees>
            </Position>
            <AltitudeMeters>1807.199951171875</AltitudeMeters>
            <DistanceMeters>NAN</DistanceMeters>
          </Trackpoint>
          <Trackpoint>
            <Time>2021-08-03T06:20:55.000Z</Time>
            <Position>
              <LatitudeDegrees>-15.3514320217072963714599609375</LatitudeDegrees>
              <LongitudeDegrees>37.0741583593189716339111328125</LongitudeDegrees>
            </Position>
            <AltitudeMeters>1806.5999755859375</AltitudeMeters>
            <DistanceMeters>NAN</DistanceMeters>
          </Trackpoint>
          <Trackpoint>
            <Time>2021-08-03T06:20:56.000Z</Time>
            <Position>
              <LatitudeDegrees>-15.35141567699611186981201171875</LatitudeDegrees>
              <LongitudeDegrees>37.07416883669793605804443359375</LongitudeDegrees>
            </Position>
            <AltitudeMeters>1806.5999755859375</AltitudeMeters>
            <DistanceMeters>NAN</DistanceMeters>
          </Trackpoint>
          <Trackpoint>
            <Time>2021-08-03T06:20:58.000Z</Time>
            <Position>
              <LatitudeDegrees>-15.35140545107424259185791015625</LatitudeDegrees>
              <LongitudeDegrees>37.07419264130294322967529296875</LongitudeDegrees>
            </Position>
            <AltitudeMeters>1806</AltitudeMeters>
            <DistanceMeters>NAN</DistanceMeters>
          </Trackpoint>
          <Trackpoint>
            <Time>2021-08-03T06:21:02.000Z</Time>
            <Position>
              <LatitudeDegrees>-15.35137661732733249664306640625</LatitudeDegrees>
              <LongitudeDegrees>37.07421577535569667816162109375</LongitudeDegrees>
            </Position>
            <AltitudeMeters>1805.4000244140625</AltitudeMeters>
            <DistanceMeters>NAN</DistanceMeters>
          </Trackpoint>
          <Trackpoint>
            <Time>2021-08-03T06:21:05.000Z</Time>
            <Position>
              <LatitudeDegrees>-15.3513542376458644866943359375</LatitudeDegrees>
              <LongitudeDegrees>37.07423857413232326507568359375</LongitudeDegrees>
            </Position>
            <AltitudeMeters>1805.199951171875</AltitudeMeters>
            <DistanceMeters>NAN</DistanceMeters>
          </Trackpoint>
          <Trackpoint>
            <Time>2021-08-03T06:21:11.000Z</Time>
            <Position>
              <LatitudeDegrees>-15.3513123281300067901611328125</LatitudeDegrees>
              <LongitudeDegrees>37.0742797292768955230712890625</LongitudeDegrees>
            </Position>
            <AltitudeMeters>1804.800048828125</AltitudeMeters>
            <DistanceMeters>NAN</DistanceMeters>
          </Trackpoint>
          <Trackpoint>
            <Time>2021-08-03T06:21:14.000Z</Time>
            <Position>
              <LatitudeDegrees>-15.35129665397107601165771484375</LatitudeDegrees>
              <LongitudeDegrees>37.074304036796092987060546875</LongitudeDegrees>
            </Position>
            <AltitudeMeters>1804.4000244140625</AltitudeMeters>
            <DistanceMeters>NAN</DistanceMeters>
          </Trackpoint>
          <Trackpoint>
            <Time>2021-08-03T06:21:17.000Z</Time>
            <Position>
              <LatitudeDegrees>-15.35128558985888957977294921875</LatitudeDegrees>
              <LongitudeDegrees>37.07432474009692668914794921875</LongitudeDegrees>
            </Position>
            <AltitudeMeters>1803.800048828125</AltitudeMeters>
            <DistanceMeters>NAN</DistanceMeters>
          </Trackpoint>
          <Trackpoint>
            <Time>2021-08-03T06:21:20.000Z</Time>
            <Position>
              <LatitudeDegrees>-15.35126849077641963958740234375</LatitudeDegrees>
              <LongitudeDegrees>37.07433848641812801361083984375</LongitudeDegrees>
            </Position>
            <AltitudeMeters>1803.4000244140625</AltitudeMeters>
            <DistanceMeters>NAN</DistanceMeters>
          </Trackpoint>
          <Trackpoint>
            <Time>2021-08-03T06:21:21.000Z</Time>
            <Position>
              <LatitudeDegrees>-15.351264886558055877685546875</LatitudeDegrees>
              <LongitudeDegrees>37.07434250973165035247802734375</LongitudeDegrees>
            </Position>
            <AltitudeMeters>1803.199951171875</AltitudeMeters>
            <DistanceMeters>NAN</DistanceMeters>
          </Trackpoint>
          <Trackpoint>
            <Time>2021-08-03T06:21:23.000Z</Time>
            <Position>
              <LatitudeDegrees>-15.351257510483264923095703125</LatitudeDegrees>
              <LongitudeDegrees>37.07435558550059795379638671875</LongitudeDegrees>
            </Position>
            <AltitudeMeters>1803.199951171875</AltitudeMeters>
            <DistanceMeters>NAN</DistanceMeters>
          </Trackpoint>
          <Trackpoint>
            <Time>2021-08-03T06:21:24.000Z</Time>
            <Position>
              <LatitudeDegrees>-15.3512526489794254302978515625</LatitudeDegrees>
              <LongitudeDegrees>37.07436530850827693939208984375</LongitudeDegrees>
            </Position>
            <AltitudeMeters>1803</AltitudeMeters>
            <DistanceMeters>NAN</DistanceMeters>
          </Trackpoint>
          <Trackpoint>
            <Time>2021-08-03T06:21:27.000Z</Time>
            <Position>
              <LatitudeDegrees>-15.3512315265834331512451171875</LatitudeDegrees>
              <LongitudeDegrees>37.0743875205516815185546875</LongitudeDegrees>
            </Position>
            <AltitudeMeters>1802.5999755859375</AltitudeMeters>
            <DistanceMeters>NAN</DistanceMeters>
          </Trackpoint>
          <Trackpoint>
            <Time>2021-08-03T06:21:28.000Z</Time>
            <Position>
              <LatitudeDegrees>-15.35122121684253215789794921875</LatitudeDegrees>
              <LongitudeDegrees>37.074389867484569549560546875</LongitudeDegrees>
            </Position>
            <AltitudeMeters>1802.4000244140625</AltitudeMeters>
            <DistanceMeters>NAN</DistanceMeters>
          </Trackpoint>
          <Trackpoint>
            <Time>2021-08-03T06:21:29.000Z</Time>
            <Position>
              <LatitudeDegrees>-15.3512150980532169342041015625</LatitudeDegrees>
              <LongitudeDegrees>37.0743886940181255340576171875</LongitudeDegrees>
            </Position>
            <AltitudeMeters>1802.199951171875</AltitudeMeters>
            <DistanceMeters>NAN</DistanceMeters>
          </Trackpoint>
          <Trackpoint>
            <Time>2021-08-03T06:21:30.000Z</Time>
            <Position>
              <LatitudeDegrees>-15.35121023654937744140625</LatitudeDegrees>
              <LongitudeDegrees>37.074388526380062103271484375</LongitudeDegrees>
            </Position>
            <AltitudeMeters>1800.800048828125</AltitudeMeters>
            <DistanceMeters>NAN</DistanceMeters>
          </Trackpoint>
          <Trackpoint>
            <Time>2021-08-03T06:21:31.000Z</Time>
            <Position>
              <LatitudeDegrees>-15.35120286047458648681640625</LatitudeDegrees>
              <LongitudeDegrees>37.07439146004617214202880859375</LongitudeDegrees>
            </Position>
            <AltitudeMeters>1800.800048828125</AltitudeMeters>
            <DistanceMeters>NAN</DistanceMeters>
          </Trackpoint>
          <Trackpoint>
            <Time>2021-08-03T06:21:34.000Z</Time>
            <Position>
              <LatitudeDegrees>-15.3511839173734188079833984375</LatitudeDegrees>
              <LongitudeDegrees>37.0744014345109462738037109375</LongitudeDegrees>
            </Position>
            <AltitudeMeters>1799.800048828125</AltitudeMeters>
            <DistanceMeters>NAN</DistanceMeters>
          </Trackpoint>
          <Trackpoint>
            <Time>2021-08-03T06:21:36.000Z</Time>
            <Position>
              <LatitudeDegrees>-15.35116891376674175262451171875</LatitudeDegrees>
              <LongitudeDegrees>37.0744027756154537200927734375</LongitudeDegrees>
            </Position>
            <AltitudeMeters>1798.800048828125</AltitudeMeters>
            <DistanceMeters>NAN</DistanceMeters>
          </Trackpoint>
          <Trackpoint>
            <Time>2021-08-03T06:21:38.000Z</Time>
            <Position>
              <LatitudeDegrees>-15.3511456958949565887451171875</LatitudeDegrees>
              <LongitudeDegrees>37.0744088105857372283935546875</LongitudeDegrees>
            </Position>
            <AltitudeMeters>1798.800048828125</AltitudeMeters>
            <DistanceMeters>NAN</DistanceMeters>
          </Trackpoint>
          <Trackpoint>
            <Time>2021-08-03T06:21:41.000Z</Time>
            <Position>
              <LatitudeDegrees>-15.35111837089061737060546875</LatitudeDegrees>
              <LongitudeDegrees>37.07442783750593662261962890625</LongitudeDegrees>
            </Position>
            <AltitudeMeters>1797.4000244140625</AltitudeMeters>
            <DistanceMeters>NAN</DistanceMeters>
          </Trackpoint>
          <Trackpoint>
            <Time>2021-08-03T06:21:43.000Z</Time>
            <Position>
              <LatitudeDegrees>-15.35110940225422382354736328125</LatitudeDegrees>
              <LongitudeDegrees>37.07444460131227970123291015625</LongitudeDegrees>
            </Position>
            <AltitudeMeters>1796.5999755859375</AltitudeMeters>
            <DistanceMeters>NAN</DistanceMeters>
          </Trackpoint>
          <Trackpoint>
            <Time>2021-08-03T06:21:50.000Z</Time>
            <Position>
              <LatitudeDegrees>-15.351063720881938934326171875</LatitudeDegrees>
              <LongitudeDegrees>37.07450243644416332244873046875</LongitudeDegrees>
            </Position>
            <AltitudeMeters>1796.800048828125</AltitudeMeters>
            <DistanceMeters>NAN</DistanceMeters>
          </Trackpoint>
          <Trackpoint>
            <Time>2021-08-03T06:21:51.000Z</Time>
            <Position>
              <LatitudeDegrees>-15.3510575182735919952392578125</LatitudeDegrees>
              <LongitudeDegrees>37.07450947724282741546630859375</LongitudeDegrees>
            </Position>
            <AltitudeMeters>1796.800048828125</AltitudeMeters>
            <DistanceMeters>NAN</DistanceMeters>
          </Trackpoint>
          <Trackpoint>
            <Time>2021-08-03T06:21:53.000Z</Time>
            <Position>
              <LatitudeDegrees>-15.3510407544672489166259765625</LatitudeDegrees>
              <LongitudeDegrees>37.0745171047747135162353515625</LongitudeDegrees>
            </Position>
            <AltitudeMeters>1796.800048828125</AltitudeMeters>
            <DistanceMeters>NAN</DistanceMeters>
          </Trackpoint>
          <Trackpoint>
            <Time>2021-08-03T06:21:56.000Z</Time>
            <Position>
              <LatitudeDegrees>-15.35101368092000484466552734375</LatitudeDegrees>
              <LongitudeDegrees>37.07453495822846889495849609375</LongitudeDegrees>
            </Position>
            <AltitudeMeters>1796.199951171875</AltitudeMeters>
            <DistanceMeters>NAN</DistanceMeters>
          </Trackpoint>
          <Trackpoint>
            <Time>2021-08-03T06:22:01.000Z</Time>
            <Position>
              <LatitudeDegrees>-15.35096556879580020904541015625</LatitudeDegrees>
              <LongitudeDegrees>37.07454979419708251953125</LongitudeDegrees>
            </Position>
            <AltitudeMeters>1795.800048828125</AltitudeMeters>
            <DistanceMeters>NAN</DistanceMeters>
          </Trackpoint>
          <Trackpoint>
            <Time>2021-08-03T06:22:05.000Z</Time>
            <Position>
              <LatitudeDegrees>-15.3509353101253509521484375</LatitudeDegrees>
              <LongitudeDegrees>37.07456680946052074432373046875</LongitudeDegrees>
            </Position>
            <AltitudeMeters>1795.199951171875</AltitudeMeters>
            <DistanceMeters>NAN</DistanceMeters>
          </Trackpoint>
          <Trackpoint>
            <Time>2021-08-03T06:22:06.000Z</Time>
            <Position>
              <LatitudeDegrees>-15.35092801786959171295166015625</LatitudeDegrees>
              <LongitudeDegrees>37.07457125186920166015625</LongitudeDegrees>
            </Position>
            <AltitudeMeters>1795.5999755859375</AltitudeMeters>
            <DistanceMeters>NAN</DistanceMeters>
          </Trackpoint>
          <Trackpoint>
            <Time>2021-08-03T06:22:07.000Z</Time>
            <Position>
              <LatitudeDegrees>-15.3509213961660861968994140625</LatitudeDegrees>
              <LongitudeDegrees>37.07457820884883403778076171875</LongitudeDegrees>
            </Position>
            <AltitudeMeters>1795</AltitudeMeters>
            <DistanceMeters>NAN</DistanceMeters>
          </Trackpoint>
          <Trackpoint>
            <Time>2021-08-03T06:22:13.000Z</Time>
            <Position>
              <LatitudeDegrees>-15.35088778473436832427978515625</LatitudeDegrees>
              <LongitudeDegrees>37.0746208727359771728515625</LongitudeDegrees>
            </Position>
            <AltitudeMeters>1795.5999755859375</AltitudeMeters>
            <DistanceMeters>NAN</DistanceMeters>
          </Trackpoint>
          <Trackpoint>
            <Time>2021-08-03T06:22:17.000Z</Time>
            <Position>
              <LatitudeDegrees>-15.35086221992969512939453125</LatitudeDegrees>
              <LongitudeDegrees>37.07464392296969890594482421875</LongitudeDegrees>
            </Position>
            <AltitudeMeters>1796.5999755859375</AltitudeMeters>
            <DistanceMeters>NAN</DistanceMeters>
          </Trackpoint>
          <Trackpoint>
            <Time>2021-08-03T06:22:20.000Z</Time>
            <Position>
              <LatitudeDegrees>-15.350835062563419342041015625</LatitudeDegrees>
              <LongitudeDegrees>37.07465850748121738433837890625</LongitudeDegrees>
            </Position>
            <AltitudeMeters>1796.4000244140625</AltitudeMeters>
            <DistanceMeters>NAN</DistanceMeters>
          </Trackpoint>
          <Trackpoint>
            <Time>2021-08-03T06:22:21.000Z</Time>
            <Position>
              <LatitudeDegrees>-15.3508288599550724029541015625</LatitudeDegrees>
              <LongitudeDegrees>37.0746592618525028228759765625</LongitudeDegrees>
            </Position>
            <AltitudeMeters>1796.4000244140625</AltitudeMeters>
            <DistanceMeters>NAN</DistanceMeters>
          </Trackpoint>
          <Trackpoint>
            <Time>2021-08-03T06:22:23.000Z</Time>
            <Position>
              <LatitudeDegrees>-15.35080580972135066986083984375</LatitudeDegrees>
              <LongitudeDegrees>37.0746716670691967010498046875</LongitudeDegrees>
            </Position>
            <AltitudeMeters>1795.800048828125</AltitudeMeters>
            <DistanceMeters>NAN</DistanceMeters>
          </Trackpoint>
          <Trackpoint>
            <Time>2021-08-03T06:22:26.000Z</Time>
            <Position>
              <LatitudeDegrees>-15.35077597014605998992919921875</LatitudeDegrees>
              <LongitudeDegrees>37.07469203509390354156494140625</LongitudeDegrees>
            </Position>
            <AltitudeMeters>1795.4000244140625</AltitudeMeters>
            <DistanceMeters>NAN</DistanceMeters>
          </Trackpoint>
          <Trackpoint>
            <Time>2021-08-03T06:22:27.000Z</Time>
            <Position>
              <LatitudeDegrees>-15.35076658241450786590576171875</LatitudeDegrees>
              <LongitudeDegrees>37.07468918524682521820068359375</LongitudeDegrees>
            </Position>
            <AltitudeMeters>1795.4000244140625</AltitudeMeters>
            <DistanceMeters>NAN</DistanceMeters>
          </Trackpoint>
          <Trackpoint>
            <Time>2021-08-03T06:22:32.000Z</Time>
            <Position>
              <LatitudeDegrees>-15.35070505924522876739501953125</LatitudeDegrees>
              <LongitudeDegrees>37.07472220994532108306884765625</LongitudeDegrees>
            </Position>
            <AltitudeMeters>1794.4000244140625</AltitudeMeters>
            <DistanceMeters>NAN</DistanceMeters>
          </Trackpoint>
          <Trackpoint>
            <Time>2021-08-03T06:22:33.000Z</Time>
            <Position>
              <LatitudeDegrees>-15.350694917142391204833984375</LatitudeDegrees>
              <LongitudeDegrees>37.074728496372699737548828125</LongitudeDegrees>
            </Position>
            <AltitudeMeters>1794.4000244140625</AltitudeMeters>
            <DistanceMeters>NAN</DistanceMeters>
          </Trackpoint>
          <Trackpoint>
            <Time>2021-08-03T06:22:36.000Z</Time>
            <Position>
              <LatitudeDegrees>-15.3506645746529102325439453125</LatitudeDegrees>
              <LongitudeDegrees>37.074747271835803985595703125</LongitudeDegrees>
            </Position>
            <AltitudeMeters>1794.4000244140625</AltitudeMeters>
            <DistanceMeters>NAN</DistanceMeters>
          </Trackpoint>
          <Trackpoint>
            <Time>2021-08-03T06:22:39.000Z</Time>
            <Position>
              <LatitudeDegrees>-15.35062442533671855926513671875</LatitudeDegrees>
              <LongitudeDegrees>37.0747491158545017242431640625</LongitudeDegrees>
            </Position>
            <AltitudeMeters>1794.4000244140625</AltitudeMeters>
            <DistanceMeters>NAN</DistanceMeters>
          </Trackpoint>
          <Trackpoint>
            <Time>2021-08-03T06:22:40.000Z</Time>
            <Position>
              <LatitudeDegrees>-15.35060816444456577301025390625</LatitudeDegrees>
              <LongitudeDegrees>37.074750959873199462890625</LongitudeDegrees>
            </Position>
            <AltitudeMeters>1794.4000244140625</AltitudeMeters>
            <DistanceMeters>NAN</DistanceMeters>
          </Trackpoint>
          <Trackpoint>
            <Time>2021-08-03T06:22:42.000Z</Time>
            <Position>
              <LatitudeDegrees>-15.35058469511568546295166015625</LatitudeDegrees>
              <LongitudeDegrees>37.07475875504314899444580078125</LongitudeDegrees>
            </Position>
            <AltitudeMeters>1793.800048828125</AltitudeMeters>
            <DistanceMeters>NAN</DistanceMeters>
          </Trackpoint>
          <Trackpoint>
            <Time>2021-08-03T06:22:46.000Z</Time>
            <Position>
              <LatitudeDegrees>-15.35053876228630542755126953125</LatitudeDegrees>
              <LongitudeDegrees>37.07477685995399951934814453125</LongitudeDegrees>
            </Position>
            <AltitudeMeters>1793.4000244140625</AltitudeMeters>
            <DistanceMeters>NAN</DistanceMeters>
          </Trackpoint>
          <Trackpoint>
            <Time>2021-08-03T06:22:48.000Z</Time>
            <Position>
              <LatitudeDegrees>-15.350511185824871063232421875</LatitudeDegrees>
              <LongitudeDegrees>37.07479177974164485931396484375</LongitudeDegrees>
            </Position>
            <AltitudeMeters>1793.4000244140625</AltitudeMeters>
            <DistanceMeters>NAN</DistanceMeters>
          </Trackpoint>
          <Trackpoint>
            <Time>2021-08-03T06:22:51.000Z</Time>
            <Position>
              <LatitudeDegrees>-15.3504795022308826446533203125</LatitudeDegrees>
              <LongitudeDegrees>37.07481357268989086151123046875</LongitudeDegrees>
            </Position>
            <AltitudeMeters>1793</AltitudeMeters>
            <DistanceMeters>NAN</DistanceMeters>
          </Trackpoint>
          <Trackpoint>
            <Time>2021-08-03T06:22:53.000Z</Time>
            <Position>
              <LatitudeDegrees>-15.3504645824432373046875</LatitudeDegrees>
              <LongitudeDegrees>37.0748128183186054229736328125</LongitudeDegrees>
            </Position>
            <AltitudeMeters>1792.800048828125</AltitudeMeters>
            <DistanceMeters>NAN</DistanceMeters>
          </Trackpoint>
          <Trackpoint>
            <Time>2021-08-03T06:22:56.000Z</Time>
            <Position>
              <LatitudeDegrees>-15.35043281503021717071533203125</LatitudeDegrees>
              <LongitudeDegrees>37.074825055897235870361328125</LongitudeDegrees>
            </Position>
            <AltitudeMeters>1792.4000244140625</AltitudeMeters>
            <DistanceMeters>NAN</DistanceMeters>
          </Trackpoint>
          <Trackpoint>
            <Time>2021-08-03T06:22:57.000Z</Time>
            <Position>
              <LatitudeDegrees>-15.350422672927379608154296875</LatitudeDegrees>
              <LongitudeDegrees>37.07483167760074138641357421875</LongitudeDegrees>
            </Position>
            <AltitudeMeters>1792.199951171875</AltitudeMeters>
            <DistanceMeters>NAN</DistanceMeters>
          </Trackpoint>
          <Trackpoint>
            <Time>2021-08-03T06:22:59.000Z</Time>
            <Position>
              <LatitudeDegrees>-15.35040314309298992156982421875</LatitudeDegrees>
              <LongitudeDegrees>37.07483788020908832550048828125</LongitudeDegrees>
            </Position>
            <AltitudeMeters>1792.199951171875</AltitudeMeters>
            <DistanceMeters>NAN</DistanceMeters>
          </Trackpoint>
          <Trackpoint>
            <Time>2021-08-03T06:23:02.000Z</Time>
            <Position>
              <LatitudeDegrees>-15.3503685258328914642333984375</LatitudeDegrees>
              <LongitudeDegrees>37.0748463459312915802001953125</LongitudeDegrees>
            </Position>
            <AltitudeMeters>1792</AltitudeMeters>
            <DistanceMeters>NAN</DistanceMeters>
          </Trackpoint>
          <Trackpoint>
            <Time>2021-08-03T06:23:06.000Z</Time>
            <Position>
              <LatitudeDegrees>-15.35032980144023895263671875</LatitudeDegrees>
              <LongitudeDegrees>37.07487207837402820587158203125</LongitudeDegrees>
            </Position>
            <AltitudeMeters>1791.5999755859375</AltitudeMeters>
            <DistanceMeters>NAN</DistanceMeters>
          </Trackpoint>
          <Trackpoint>
            <Time>2021-08-03T06:23:08.000Z</Time>
            <Position>
              <LatitudeDegrees>-15.3503157198429107666015625</LatitudeDegrees>
              <LongitudeDegrees>37.07488297484815120697021484375</LongitudeDegrees>
            </Position>
            <AltitudeMeters>1791</AltitudeMeters>
            <DistanceMeters>NAN</DistanceMeters>
          </Trackpoint>
          <Trackpoint>
            <Time>2021-08-03T06:23:12.000Z</Time>
            <Position>
              <LatitudeDegrees>-15.35027758218348026275634765625</LatitudeDegrees>
              <LongitudeDegrees>37.07490208558738231658935546875</LongitudeDegrees>
            </Position>
            <AltitudeMeters>1791</AltitudeMeters>
            <DistanceMeters>NAN</DistanceMeters>
          </Trackpoint>
          <Trackpoint>
            <Time>2021-08-03T06:23:14.000Z</Time>
            <Position>
              <LatitudeDegrees>-15.3502635844051837921142578125</LatitudeDegrees>
              <LongitudeDegrees>37.0749180950224399566650390625</LongitudeDegrees>
            </Position>
            <AltitudeMeters>1790.800048828125</AltitudeMeters>
            <DistanceMeters>NAN</DistanceMeters>
          </Trackpoint>
          <Trackpoint>
            <Time>2021-08-03T06:23:18.000Z</Time>
            <Position>
              <LatitudeDegrees>-15.35023818723857402801513671875</LatitudeDegrees>
              <LongitudeDegrees>37.074929662048816680908203125</LongitudeDegrees>
            </Position>
            <AltitudeMeters>1790.199951171875</AltitudeMeters>
            <DistanceMeters>NAN</DistanceMeters>
          </Trackpoint>
          <Trackpoint>
            <Time>2021-08-03T06:23:20.000Z</Time>
            <Position>
              <LatitudeDegrees>-15.350222848355770111083984375</LatitudeDegrees>
              <LongitudeDegrees>37.07493511028587818145751953125</LongitudeDegrees>
            </Position>
            <AltitudeMeters>1790</AltitudeMeters>
            <DistanceMeters>NAN</DistanceMeters>
          </Trackpoint>
          <Trackpoint>
            <Time>2021-08-03T06:23:21.000Z</Time>
            <Position>
              <LatitudeDegrees>-15.3502137959003448486328125</LatitudeDegrees>
              <LongitudeDegrees>37.07494365982711315155029296875</LongitudeDegrees>
            </Position>
            <AltitudeMeters>1789.5999755859375</AltitudeMeters>
            <DistanceMeters>NAN</DistanceMeters>
          </Trackpoint>
          <Trackpoint>
            <Time>2021-08-03T06:23:24.000Z</Time>
            <Position>
              <LatitudeDegrees>-15.3501898236572742462158203125</LatitudeDegrees>
              <LongitudeDegrees>37.07496059127151966094970703125</LongitudeDegrees>
            </Position>
            <AltitudeMeters>1789.4000244140625</AltitudeMeters>
            <DistanceMeters>NAN</DistanceMeters>
          </Trackpoint>
          <Trackpoint>
            <Time>2021-08-03T06:23:28.000Z</Time>
            <Position>
              <LatitudeDegrees>-15.35016224719583988189697265625</LatitudeDegrees>
              <LongitudeDegrees>37.07499780692160129547119140625</LongitudeDegrees>
            </Position>
            <AltitudeMeters>1789.4000244140625</AltitudeMeters>
            <DistanceMeters>NAN</DistanceMeters>
          </Trackpoint>
          <Trackpoint>
            <Time>2021-08-03T06:23:31.000Z</Time>
            <Position>
              <LatitudeDegrees>-15.3501398675143718719482421875</LatitudeDegrees>
              <LongitudeDegrees>37.07502479664981365203857421875</LongitudeDegrees>
            </Position>
            <AltitudeMeters>1789.5999755859375</AltitudeMeters>
            <DistanceMeters>NAN</DistanceMeters>
          </Trackpoint>
          <Trackpoint>
            <Time>2021-08-03T06:23:37.000Z</Time>
            <Position>
              <LatitudeDegrees>-15.35009510815143585205078125</LatitudeDegrees>
              <LongitudeDegrees>37.07505446858704090118408203125</LongitudeDegrees>
            </Position>
            <AltitudeMeters>1789</AltitudeMeters>
            <DistanceMeters>NAN</DistanceMeters>
          </Trackpoint>
          <Trackpoint>
            <Time>2021-08-03T06:23:39.000Z</Time>
            <Position>
              <LatitudeDegrees>-15.35008312202990055084228515625</LatitudeDegrees>
              <LongitudeDegrees>37.07506251521408557891845703125</LongitudeDegrees>
            </Position>
            <AltitudeMeters>1789</AltitudeMeters>
            <DistanceMeters>NAN</DistanceMeters>
          </Trackpoint>
          <Trackpoint>
            <Time>2021-08-03T06:23:42.000Z</Time>
            <Position>
              <LatitudeDegrees>-15.3500640951097011566162109375</LatitudeDegrees>
              <LongitudeDegrees>37.075074501335620880126953125</LongitudeDegrees>
            </Position>
            <AltitudeMeters>1789</AltitudeMeters>
            <DistanceMeters>NAN</DistanceMeters>
          </Trackpoint>
          <Trackpoint>
            <Time>2021-08-03T06:23:46.000Z</Time>
            <Position>
              <LatitudeDegrees>-15.35003836266696453094482421875</LatitudeDegrees>
              <LongitudeDegrees>37.0750921033322811126708984375</LongitudeDegrees>
            </Position>
            <AltitudeMeters>1787.5999755859375</AltitudeMeters>
            <DistanceMeters>NAN</DistanceMeters>
          </Trackpoint>
          <Trackpoint>
            <Time>2021-08-03T06:23:51.000Z</Time>
            <Position>
              <LatitudeDegrees>-15.350000560283660888671875</LatitudeDegrees>
              <LongitudeDegrees>37.0751232840120792388916015625</LongitudeDegrees>
            </Position>
            <AltitudeMeters>1786.4000244140625</AltitudeMeters>
            <DistanceMeters>NAN</DistanceMeters>
          </Trackpoint>
          <Trackpoint>
            <Time>2021-08-03T06:23:52.000Z</Time>
            <Position>
              <LatitudeDegrees>-15.34999276511371135711669921875</LatitudeDegrees>
              <LongitudeDegrees>37.07512554712593555450439453125</LongitudeDegrees>
            </Position>
            <AltitudeMeters>1786.199951171875</AltitudeMeters>
            <DistanceMeters>NAN</DistanceMeters>
          </Trackpoint>
          <Trackpoint>
            <Time>2021-08-03T06:23:56.000Z</Time>
            <Position>
              <LatitudeDegrees>-15.34996057860553264617919921875</LatitudeDegrees>
              <LongitudeDegrees>37.07514415495097637176513671875</LongitudeDegrees>
            </Position>
            <AltitudeMeters>1785.199951171875</AltitudeMeters>
            <DistanceMeters>NAN</DistanceMeters>
          </Trackpoint>
          <Trackpoint>
            <Time>2021-08-03T06:23:59.000Z</Time>
            <Position>
              <LatitudeDegrees>-15.349943898618221282958984375</LatitudeDegrees>
              <LongitudeDegrees>37.0751749165356159210205078125</LongitudeDegrees>
            </Position>
            <AltitudeMeters>1784.4000244140625</AltitudeMeters>
            <DistanceMeters>NAN</DistanceMeters>
          </Trackpoint>
          <Trackpoint>
            <Time>2021-08-03T06:24:02.000Z</Time>
            <Position>
              <LatitudeDegrees>-15.34991112537682056427001953125</LatitudeDegrees>
              <LongitudeDegrees>37.07519025541841983795166015625</LongitudeDegrees>
            </Position>
            <AltitudeMeters>1783.5999755859375</AltitudeMeters>
            <DistanceMeters>NAN</DistanceMeters>
          </Trackpoint>
          <Trackpoint>
            <Time>2021-08-03T06:24:05.000Z</Time>
            <Position>
              <LatitudeDegrees>-15.34989084117114543914794921875</LatitudeDegrees>
              <LongitudeDegrees>37.07520224153995513916015625</LongitudeDegrees>
            </Position>
            <AltitudeMeters>1782.4000244140625</AltitudeMeters>
            <DistanceMeters>NAN</DistanceMeters>
          </Trackpoint>
          <Trackpoint>
            <Time>2021-08-03T06:24:06.000Z</Time>
            <Position>
              <LatitudeDegrees>-15.3498812019824981689453125</LatitudeDegrees>
              <LongitudeDegrees>37.07520492374897003173828125</LongitudeDegrees>
            </Position>
            <AltitudeMeters>1782.199951171875</AltitudeMeters>
            <DistanceMeters>NAN</DistanceMeters>
          </Trackpoint>
          <Trackpoint>
            <Time>2021-08-03T06:24:08.000Z</Time>
            <Position>
              <LatitudeDegrees>-15.34986167214810848236083984375</LatitudeDegrees>
              <LongitudeDegrees>37.0752109587192535400390625</LongitudeDegrees>
            </Position>
            <AltitudeMeters>1781.4000244140625</AltitudeMeters>
            <DistanceMeters>NAN</DistanceMeters>
          </Trackpoint>
          <Trackpoint>
            <Time>2021-08-03T06:24:09.000Z</Time>
            <Position>
              <LatitudeDegrees>-15.349850691854953765869140625</LatitudeDegrees>
              <LongitudeDegrees>37.07521623931825160980224609375</LongitudeDegrees>
            </Position>
            <AltitudeMeters>1781.4000244140625</AltitudeMeters>
            <DistanceMeters>NAN</DistanceMeters>
          </Trackpoint>
          <Trackpoint>
            <Time>2021-08-03T06:24:12.000Z</Time>
            <Position>
              <LatitudeDegrees>-15.34981473349034786224365234375</LatitudeDegrees>
              <LongitudeDegrees>37.07523442804813385009765625</LongitudeDegrees>
            </Position>
            <AltitudeMeters>1780.4000244140625</AltitudeMeters>
            <DistanceMeters>NAN</DistanceMeters>
          </Trackpoint>
          <Trackpoint>
            <Time>2021-08-03T06:24:13.000Z</Time>
            <Position>
              <LatitudeDegrees>-15.34980802796781063079833984375</LatitudeDegrees>
              <LongitudeDegrees>37.07523669116199016571044921875</LongitudeDegrees>
            </Position>
            <AltitudeMeters>1780.4000244140625</AltitudeMeters>
            <DistanceMeters>NAN</DistanceMeters>
          </Trackpoint>
          <Trackpoint>
            <Time>2021-08-03T06:24:15.000Z</Time>
            <Position>
              <LatitudeDegrees>-15.3497918508946895599365234375</LatitudeDegrees>
              <LongitudeDegrees>37.07523979246616363525390625</LongitudeDegrees>
            </Position>
            <AltitudeMeters>1779.4000244140625</AltitudeMeters>
            <DistanceMeters>NAN</DistanceMeters>
          </Trackpoint>
          <Trackpoint>
            <Time>2021-08-03T06:24:16.000Z</Time>
            <Position>
              <LatitudeDegrees>-15.3497900068759918212890625</LatitudeDegrees>
              <LongitudeDegrees>37.07524607889354228973388671875</LongitudeDegrees>
            </Position>
            <AltitudeMeters>1779.4000244140625</AltitudeMeters>
            <DistanceMeters>NAN</DistanceMeters>
          </Trackpoint>
          <Trackpoint>
            <Time>2021-08-03T06:24:17.000Z</Time>
            <Position>
              <LatitudeDegrees>-15.34978657029569149017333984375</LatitudeDegrees>
              <LongitudeDegrees>37.075252197682857513427734375</LongitudeDegrees>
            </Position>
            <AltitudeMeters>1778.4000244140625</AltitudeMeters>
            <DistanceMeters>NAN</DistanceMeters>
          </Trackpoint>
          <Trackpoint>
            <Time>2021-08-03T06:24:18.000Z</Time>
            <Position>
              <LatitudeDegrees>-15.3497804515063762664794921875</LatitudeDegrees>
              <LongitudeDegrees>37.0752637647092342376708984375</LongitudeDegrees>
            </Position>
            <AltitudeMeters>1778.4000244140625</AltitudeMeters>
            <DistanceMeters>NAN</DistanceMeters>
          </Trackpoint>
          <Trackpoint>
            <Time>2021-08-03T06:24:21.000Z</Time>
            <Position>
              <LatitudeDegrees>-15.349755473434925079345703125</LatitudeDegrees>
              <LongitudeDegrees>37.07529150880873203277587890625</LongitudeDegrees>
            </Position>
            <AltitudeMeters>1776.800048828125</AltitudeMeters>
            <DistanceMeters>NAN</DistanceMeters>
          </Trackpoint>
          <Trackpoint>
            <Time>2021-08-03T06:24:25.000Z</Time>
            <Position>
              <LatitudeDegrees>-15.34972454421222209930419921875</LatitudeDegrees>
              <LongitudeDegrees>37.07530827261507511138916015625</LongitudeDegrees>
            </Position>
            <AltitudeMeters>1776.4000244140625</AltitudeMeters>
            <DistanceMeters>NAN</DistanceMeters>
          </Trackpoint>
          <Trackpoint>
            <Time>2021-08-03T06:24:26.000Z</Time>
            <Position>
              <LatitudeDegrees>-15.3497174195945262908935546875</LatitudeDegrees>
              <LongitudeDegrees>37.07531623542308807373046875</LongitudeDegrees>
            </Position>
            <AltitudeMeters>1776.4000244140625</AltitudeMeters>
            <DistanceMeters>NAN</DistanceMeters>
          </Trackpoint>
          <Trackpoint>
            <Time>2021-08-03T06:24:27.000Z</Time>
            <Position>
              <LatitudeDegrees>-15.34971113316714763641357421875</LatitudeDegrees>
              <LongitudeDegrees>37.07532101310789585113525390625</LongitudeDegrees>
            </Position>
            <AltitudeMeters>1775.4000244140625</AltitudeMeters>
            <DistanceMeters>NAN</DistanceMeters>
          </Trackpoint>
          <Trackpoint>
            <Time>2021-08-03T06:24:31.000Z</Time>
            <Position>
              <LatitudeDegrees>-15.34968632273375988006591796875</LatitudeDegrees>
              <LongitudeDegrees>37.075346074998378753662109375</LongitudeDegrees>
            </Position>
            <AltitudeMeters>1775</AltitudeMeters>
            <DistanceMeters>NAN</DistanceMeters>
          </Trackpoint>
          <Trackpoint>
            <Time>2021-08-03T06:24:32.000Z</Time>
            <Position>
              <LatitudeDegrees>-15.3496822156012058258056640625</LatitudeDegrees>
              <LongitudeDegrees>37.075360156595706939697265625</LongitudeDegrees>
            </Position>
            <AltitudeMeters>1774.800048828125</AltitudeMeters>
            <DistanceMeters>NAN</DistanceMeters>
          </Trackpoint>
          <Trackpoint>
            <Time>2021-08-03T06:24:33.000Z</Time>
            <Position>
              <LatitudeDegrees>-15.3496761806309223175048828125</LatitudeDegrees>
              <LongitudeDegrees>37.0753744058310985565185546875</LongitudeDegrees>
            </Position>
            <AltitudeMeters>1774.199951171875</AltitudeMeters>
            <DistanceMeters>NAN</DistanceMeters>
          </Trackpoint>
          <Trackpoint>
            <Time>2021-08-03T06:24:38.000Z</Time>
            <Position>
              <LatitudeDegrees>-15.34963988699018955230712890625</LatitudeDegrees>
              <LongitudeDegrees>37.07541489042341709136962890625</LongitudeDegrees>
            </Position>
            <AltitudeMeters>1773.4000244140625</AltitudeMeters>
            <DistanceMeters>NAN</DistanceMeters>
          </Trackpoint>
          <Trackpoint>
            <Time>2021-08-03T06:24:39.000Z</Time>
            <Position>
              <LatitudeDegrees>-15.34963100217282772064208984375</LatitudeDegrees>
              <LongitudeDegrees>37.075423188507556915283203125</LongitudeDegrees>
            </Position>
            <AltitudeMeters>1773.199951171875</AltitudeMeters>
            <DistanceMeters>NAN</DistanceMeters>
          </Trackpoint>
          <Trackpoint>
            <Time>2021-08-03T06:24:40.000Z</Time>
            <Position>
              <LatitudeDegrees>-15.34962479956448078155517578125</LatitudeDegrees>
              <LongitudeDegrees>37.07542846910655498504638671875</LongitudeDegrees>
            </Position>
            <AltitudeMeters>1772.5999755859375</AltitudeMeters>
            <DistanceMeters>NAN</DistanceMeters>
          </Trackpoint>
          <Trackpoint>
            <Time>2021-08-03T06:24:44.000Z</Time>
            <Position>
              <LatitudeDegrees>-15.34959780983626842498779296875</LatitudeDegrees>
              <LongitudeDegrees>37.0754428021609783172607421875</LongitudeDegrees>
            </Position>
            <AltitudeMeters>1771.800048828125</AltitudeMeters>
            <DistanceMeters>NAN</DistanceMeters>
          </Trackpoint>
          <Trackpoint>
            <Time>2021-08-03T06:24:45.000Z</Time>
            <Position>
              <LatitudeDegrees>-15.34959093667566776275634765625</LatitudeDegrees>
              <LongitudeDegrees>37.07545294426381587982177734375</LongitudeDegrees>
            </Position>
            <AltitudeMeters>1771.800048828125</AltitudeMeters>
            <DistanceMeters>NAN</DistanceMeters>
          </Trackpoint>
          <Trackpoint>
            <Time>2021-08-03T06:24:46.000Z</Time>
            <Position>
              <LatitudeDegrees>-15.34958573989570140838623046875</LatitudeDegrees>
              <LongitudeDegrees>37.07546182908117771148681640625</LongitudeDegrees>
            </Position>
            <AltitudeMeters>1771.800048828125</AltitudeMeters>
            <DistanceMeters>NAN</DistanceMeters>
          </Trackpoint>
          <Trackpoint>
            <Time>2021-08-03T06:24:51.000Z</Time>
            <Position>
              <LatitudeDegrees>-15.34956227056682109832763671875</LatitudeDegrees>
              <LongitudeDegrees>37.0754890702664852142333984375</LongitudeDegrees>
            </Position>
            <AltitudeMeters>1770.5999755859375</AltitudeMeters>
            <DistanceMeters>NAN</DistanceMeters>
          </Trackpoint>
          <Trackpoint>
            <Time>2021-08-03T06:24:54.000Z</Time>
            <Position>
              <LatitudeDegrees>-15.3495514579117298126220703125</LatitudeDegrees>
              <LongitudeDegrees>37.07551111467182636260986328125</LongitudeDegrees>
            </Position>
            <AltitudeMeters>1770</AltitudeMeters>
            <DistanceMeters>NAN</DistanceMeters>
          </Trackpoint>
          <Trackpoint>
            <Time>2021-08-03T06:24:58.000Z</Time>
            <Position>
              <LatitudeDegrees>-15.3495293296873569488525390625</LatitudeDegrees>
              <LongitudeDegrees>37.07555687986314296722412109375</LongitudeDegrees>
            </Position>
            <AltitudeMeters>1769</AltitudeMeters>
            <DistanceMeters>NAN</DistanceMeters>
          </Trackpoint>
          <Trackpoint>
            <Time>2021-08-03T06:25:02.000Z</Time>
            <Position>
              <LatitudeDegrees>-15.34951038658618927001953125</LatitudeDegrees>
              <LongitudeDegrees>37.0755832828581333160400390625</LongitudeDegrees>
            </Position>
            <AltitudeMeters>1768.199951171875</AltitudeMeters>
            <DistanceMeters>NAN</DistanceMeters>
          </Trackpoint>
          <Trackpoint>
            <Time>2021-08-03T06:25:04.000Z</Time>
            <Position>
              <LatitudeDegrees>-15.34949203021824359893798828125</LatitudeDegrees>
              <LongitudeDegrees>37.0756003819406032562255859375</LongitudeDegrees>
            </Position>
            <AltitudeMeters>1767.800048828125</AltitudeMeters>
            <DistanceMeters>NAN</DistanceMeters>
          </Trackpoint>
          <Trackpoint>
            <Time>2021-08-03T06:25:08.000Z</Time>
            <Position>
              <LatitudeDegrees>-15.3494582511484622955322265625</LatitudeDegrees>
              <LongitudeDegrees>37.07564690150320529937744140625</LongitudeDegrees>
            </Position>
            <AltitudeMeters>1766.5999755859375</AltitudeMeters>
            <DistanceMeters>NAN</DistanceMeters>
          </Trackpoint>
          <Trackpoint>
            <Time>2021-08-03T06:25:09.000Z</Time>
            <Position>
              <LatitudeDegrees>-15.349451042711734771728515625</LatitudeDegrees>
              <LongitudeDegrees>37.07565846852958202362060546875</LongitudeDegrees>
            </Position>
            <AltitudeMeters>1766.199951171875</AltitudeMeters>
            <DistanceMeters>NAN</DistanceMeters>
          </Trackpoint>
          <Trackpoint>
            <Time>2021-08-03T06:25:11.000Z</Time>
            <Position>
              <LatitudeDegrees>-15.34943587146699428558349609375</LatitudeDegrees>
              <LongitudeDegrees>37.0756741426885128021240234375</LongitudeDegrees>
            </Position>
            <AltitudeMeters>1766</AltitudeMeters>
            <DistanceMeters>NAN</DistanceMeters>
          </Trackpoint>
          <Trackpoint>
            <Time>2021-08-03T06:25:13.000Z</Time>
            <Position>
              <LatitudeDegrees>-15.349421203136444091796875</LatitudeDegrees>
              <LongitudeDegrees>37.07568076439201831817626953125</LongitudeDegrees>
            </Position>
            <AltitudeMeters>1765.199951171875</AltitudeMeters>
            <DistanceMeters>NAN</DistanceMeters>
          </Trackpoint>
          <Trackpoint>
            <Time>2021-08-03T06:25:15.000Z</Time>
            <Position>
              <LatitudeDegrees>-15.3494010865688323974609375</LatitudeDegrees>
              <LongitudeDegrees>37.075690068304538726806640625</LongitudeDegrees>
            </Position>
            <AltitudeMeters>1765</AltitudeMeters>
            <DistanceMeters>NAN</DistanceMeters>
          </Trackpoint>
          <Trackpoint>
            <Time>2021-08-03T06:25:17.000Z</Time>
            <Position>
              <LatitudeDegrees>-15.3493844904005527496337890625</LatitudeDegrees>
              <LongitudeDegrees>37.07570406608283519744873046875</LongitudeDegrees>
            </Position>
            <AltitudeMeters>1763.5999755859375</AltitudeMeters>
            <DistanceMeters>NAN</DistanceMeters>
          </Trackpoint>
          <Trackpoint>
            <Time>2021-08-03T06:25:21.000Z</Time>
            <Position>
              <LatitudeDegrees>-15.3493583388626575469970703125</LatitudeDegrees>
              <LongitudeDegrees>37.075726948678493499755859375</LongitudeDegrees>
            </Position>
            <AltitudeMeters>1763</AltitudeMeters>
            <DistanceMeters>NAN</DistanceMeters>
          </Trackpoint>
          <Trackpoint>
            <Time>2021-08-03T06:25:22.000Z</Time>
            <Position>
              <LatitudeDegrees>-15.3493466041982173919677734375</LatitudeDegrees>
              <LongitudeDegrees>37.07574094645678997039794921875</LongitudeDegrees>
            </Position>
            <AltitudeMeters>1762.4000244140625</AltitudeMeters>
            <DistanceMeters>NAN</DistanceMeters>
          </Trackpoint>
          <Trackpoint>
            <Time>2021-08-03T06:25:23.000Z</Time>
            <Position>
              <LatitudeDegrees>-15.34933847375214099884033203125</LatitudeDegrees>
              <LongitudeDegrees>37.075754441320896148681640625</LongitudeDegrees>
            </Position>
            <AltitudeMeters>1761.5999755859375</AltitudeMeters>
            <DistanceMeters>NAN</DistanceMeters>
          </Trackpoint>
          <Trackpoint>
            <Time>2021-08-03T06:25:24.000Z</Time>
            <Position>
              <LatitudeDegrees>-15.349333696067333221435546875</LatitudeDegrees>
              <LongitudeDegrees>37.07576575689017772674560546875</LongitudeDegrees>
            </Position>
            <AltitudeMeters>1761.199951171875</AltitudeMeters>
            <DistanceMeters>NAN</DistanceMeters>
          </Trackpoint>
          <Trackpoint>
            <Time>2021-08-03T06:25:28.000Z</Time>
            <Position>
              <LatitudeDegrees>-15.349310897290706634521484375</LatitudeDegrees>
              <LongitudeDegrees>37.0757807604968547821044921875</LongitudeDegrees>
            </Position>
            <AltitudeMeters>1760.199951171875</AltitudeMeters>
            <DistanceMeters>NAN</DistanceMeters>
          </Trackpoint>
          <Trackpoint>
            <Time>2021-08-03T06:25:29.000Z</Time>
            <Position>
              <LatitudeDegrees>-15.3493073768913745880126953125</LatitudeDegrees>
              <LongitudeDegrees>37.0757837779819965362548828125</LongitudeDegrees>
            </Position>
            <AltitudeMeters>1760.199951171875</AltitudeMeters>
            <DistanceMeters>NAN</DistanceMeters>
          </Trackpoint>
          <Trackpoint>
            <Time>2021-08-03T06:25:30.000Z</Time>
            <Position>
              <LatitudeDegrees>-15.34930259920656681060791015625</LatitudeDegrees>
              <LongitudeDegrees>37.0757874660193920135498046875</LongitudeDegrees>
            </Position>
            <AltitudeMeters>1759.800048828125</AltitudeMeters>
            <DistanceMeters>NAN</DistanceMeters>
          </Trackpoint>
          <Trackpoint>
            <Time>2021-08-03T06:25:34.000Z</Time>
            <Position>
              <LatitudeDegrees>-15.34928977489471435546875</LatitudeDegrees>
              <LongitudeDegrees>37.0758102647960186004638671875</LongitudeDegrees>
            </Position>
            <AltitudeMeters>1758.800048828125</AltitudeMeters>
            <DistanceMeters>NAN</DistanceMeters>
          </Trackpoint>
          <Trackpoint>
            <Time>2021-08-03T06:25:39.000Z</Time>
            <Position>
              <LatitudeDegrees>-15.34928105771541595458984375</LatitudeDegrees>
              <LongitudeDegrees>37.075842283666133880615234375</LongitudeDegrees>
            </Position>
            <AltitudeMeters>1757.5999755859375</AltitudeMeters>
            <DistanceMeters>NAN</DistanceMeters>
          </Trackpoint>
          <Trackpoint>
            <Time>2021-08-03T06:25:43.000Z</Time>
            <Position>
              <LatitudeDegrees>-15.3492785431444644927978515625</LatitudeDegrees>
              <LongitudeDegrees>37.07586701028048992156982421875</LongitudeDegrees>
            </Position>
            <AltitudeMeters>1756.800048828125</AltitudeMeters>
            <DistanceMeters>NAN</DistanceMeters>
          </Trackpoint>
          <Trackpoint>
            <Time>2021-08-03T06:25:44.000Z</Time>
            <Position>
              <LatitudeDegrees>-15.34927435219287872314453125</LatitudeDegrees>
              <LongitudeDegrees>37.07587656565010547637939453125</LongitudeDegrees>
            </Position>
            <AltitudeMeters>1756.199951171875</AltitudeMeters>
            <DistanceMeters>NAN</DistanceMeters>
          </Trackpoint>
          <Trackpoint>
            <Time>2021-08-03T06:25:46.000Z</Time>
            <Position>
              <LatitudeDegrees>-15.3492594324052333831787109375</LatitudeDegrees>
              <LongitudeDegrees>37.07588779740035533905029296875</LongitudeDegrees>
            </Position>
            <AltitudeMeters>1755.5999755859375</AltitudeMeters>
            <DistanceMeters>NAN</DistanceMeters>
          </Trackpoint>
          <Trackpoint>
            <Time>2021-08-03T06:25:47.000Z</Time>
            <Position>
              <LatitudeDegrees>-15.34925063140690326690673828125</LatitudeDegrees>
              <LongitudeDegrees>37.07588947378098964691162109375</LongitudeDegrees>
            </Position>
            <AltitudeMeters>1755</AltitudeMeters>
            <DistanceMeters>NAN</DistanceMeters>
          </Trackpoint>
          <Trackpoint>
            <Time>2021-08-03T06:25:49.000Z</Time>
            <Position>
              <LatitudeDegrees>-15.34922950901091098785400390625</LatitudeDegrees>
              <LongitudeDegrees>37.07589534111320972442626953125</LongitudeDegrees>
            </Position>
            <AltitudeMeters>1754</AltitudeMeters>
            <DistanceMeters>NAN</DistanceMeters>
          </Trackpoint>
          <Trackpoint>
            <Time>2021-08-03T06:25:50.000Z</Time>
            <Position>
              <LatitudeDegrees>-15.34922213293612003326416015625</LatitudeDegrees>
              <LongitudeDegrees>37.0758971013128757476806640625</LongitudeDegrees>
            </Position>
            <AltitudeMeters>1754</AltitudeMeters>
            <DistanceMeters>NAN</DistanceMeters>
          </Trackpoint>
          <Trackpoint>
            <Time>2021-08-03T06:25:55.000Z</Time>
            <Position>
              <LatitudeDegrees>-15.3491891920566558837890625</LatitudeDegrees>
              <LongitudeDegrees>37.07590858452022075653076171875</LongitudeDegrees>
            </Position>
            <AltitudeMeters>1752.199951171875</AltitudeMeters>
            <DistanceMeters>NAN</DistanceMeters>
          </Trackpoint>
          <Trackpoint>
            <Time>2021-08-03T06:25:57.000Z</Time>
            <Position>
              <LatitudeDegrees>-15.34917854703962802886962890625</LatitudeDegrees>
              <LongitudeDegrees>37.0759101770818233489990234375</LongitudeDegrees>
            </Position>
            <AltitudeMeters>1751.800048828125</AltitudeMeters>
            <DistanceMeters>NAN</DistanceMeters>
          </Trackpoint>
          <Trackpoint>
            <Time>2021-08-03T06:26:01.000Z</Time>
            <Position>
              <LatitudeDegrees>-15.34916245378553867340087890625</LatitudeDegrees>
              <LongitudeDegrees>37.07592467777431011199951171875</LongitudeDegrees>
            </Position>
            <AltitudeMeters>1751</AltitudeMeters>
            <DistanceMeters>NAN</DistanceMeters>
          </Trackpoint>
          <Trackpoint>
            <Time>2021-08-03T06:26:03.000Z</Time>
            <Position>
              <LatitudeDegrees>-15.3491477854549884796142578125</LatitudeDegrees>
              <LongitudeDegrees>37.075922079384326934814453125</LongitudeDegrees>
            </Position>
            <AltitudeMeters>1750.4000244140625</AltitudeMeters>
            <DistanceMeters>NAN</DistanceMeters>
          </Trackpoint>
          <Trackpoint>
            <Time>2021-08-03T06:26:06.000Z</Time>
            <Position>
              <LatitudeDegrees>-15.3491400741040706634521484375</LatitudeDegrees>
              <LongitudeDegrees>37.07590640522539615631103515625</LongitudeDegrees>
            </Position>
            <AltitudeMeters>1749.800048828125</AltitudeMeters>
            <DistanceMeters>NAN</DistanceMeters>
          </Trackpoint>
          <Trackpoint>
            <Time>2021-08-03T06:26:07.000Z</Time>
            <Position>
              <LatitudeDegrees>-15.3491377271711826324462890625</LatitudeDegrees>
              <LongitudeDegrees>37.0759064890444278717041015625</LongitudeDegrees>
            </Position>
            <AltitudeMeters>1749.5999755859375</AltitudeMeters>
            <DistanceMeters>NAN</DistanceMeters>
          </Trackpoint>
          <Trackpoint>
            <Time>2021-08-03T06:26:13.000Z</Time>
            <Position>
              <LatitudeDegrees>-15.34912372939288616180419921875</LatitudeDegrees>
              <LongitudeDegrees>37.075918056070804595947265625</LongitudeDegrees>
            </Position>
            <AltitudeMeters>1748.800048828125</AltitudeMeters>
            <DistanceMeters>NAN</DistanceMeters>
          </Trackpoint>
          <Trackpoint>
            <Time>2021-08-03T06:26:16.000Z</Time>
            <Position>
              <LatitudeDegrees>-15.34910663031041622161865234375</LatitudeDegrees>
              <LongitudeDegrees>37.07591311074793338775634765625</LongitudeDegrees>
            </Position>
            <AltitudeMeters>1748</AltitudeMeters>
            <DistanceMeters>NAN</DistanceMeters>
          </Trackpoint>
          <Trackpoint>
            <Time>2021-08-03T06:26:18.000Z</Time>
            <Position>
              <LatitudeDegrees>-15.34909875132143497467041015625</LatitudeDegrees>
              <LongitudeDegrees>37.075923420488834381103515625</LongitudeDegrees>
            </Position>
            <AltitudeMeters>1747</AltitudeMeters>
            <DistanceMeters>NAN</DistanceMeters>
          </Trackpoint>
          <Trackpoint>
            <Time>2021-08-03T06:26:19.000Z</Time>
            <Position>
              <LatitudeDegrees>-15.3490938059985637664794921875</LatitudeDegrees>
              <LongitudeDegrees>37.07593020983040332794189453125</LongitudeDegrees>
            </Position>
            <AltitudeMeters>1746.800048828125</AltitudeMeters>
            <DistanceMeters>NAN</DistanceMeters>
          </Trackpoint>
          <Trackpoint>
            <Time>2021-08-03T06:26:22.000Z</Time>
            <Position>
              <LatitudeDegrees>-15.34908819012343883514404296875</LatitudeDegrees>
              <LongitudeDegrees>37.07594261504709720611572265625</LongitudeDegrees>
            </Position>
            <AltitudeMeters>1746.800048828125</AltitudeMeters>
            <DistanceMeters>NAN</DistanceMeters>
          </Trackpoint>
          <Trackpoint>
            <Time>2021-08-03T06:26:24.000Z</Time>
            <Position>
              <LatitudeDegrees>-15.34907519817352294921875</LatitudeDegrees>
              <LongitudeDegrees>37.07595326006412506103515625</LongitudeDegrees>
            </Position>
            <AltitudeMeters>1746</AltitudeMeters>
            <DistanceMeters>NAN</DistanceMeters>
          </Trackpoint>
          <Trackpoint>
            <Time>2021-08-03T06:26:27.000Z</Time>
            <Position>
              <LatitudeDegrees>-15.349048711359500885009765625</LatitudeDegrees>
              <LongitudeDegrees>37.0759514160454273223876953125</LongitudeDegrees>
            </Position>
            <AltitudeMeters>1745.199951171875</AltitudeMeters>
            <DistanceMeters>NAN</DistanceMeters>
          </Trackpoint>
          <Trackpoint>
            <Time>2021-08-03T06:26:28.000Z</Time>
            <Position>
              <LatitudeDegrees>-15.34904225729405879974365234375</LatitudeDegrees>
              <LongitudeDegrees>37.075951583683490753173828125</LongitudeDegrees>
            </Position>
            <AltitudeMeters>1745</AltitudeMeters>
            <DistanceMeters>NAN</DistanceMeters>
          </Trackpoint>
          <Trackpoint>
            <Time>2021-08-03T06:26:30.000Z</Time>
            <Position>
              <LatitudeDegrees>-15.34903521649539470672607421875</LatitudeDegrees>
              <LongitudeDegrees>37.075960300862789154052734375</LongitudeDegrees>
            </Position>
            <AltitudeMeters>1744.4000244140625</AltitudeMeters>
            <DistanceMeters>NAN</DistanceMeters>
          </Trackpoint>
          <Trackpoint>
            <Time>2021-08-03T06:26:32.000Z</Time>
            <Position>
              <LatitudeDegrees>-15.34902867861092090606689453125</LatitudeDegrees>
              <LongitudeDegrees>37.07597077824175357818603515625</LongitudeDegrees>
            </Position>
            <AltitudeMeters>1743.800048828125</AltitudeMeters>
            <DistanceMeters>NAN</DistanceMeters>
          </Trackpoint>
          <Trackpoint>
            <Time>2021-08-03T06:26:33.000Z</Time>
            <Position>
              <LatitudeDegrees>-15.34902549348771572113037109375</LatitudeDegrees>
              <LongitudeDegrees>37.07597605884075164794921875</LongitudeDegrees>
            </Position>
            <AltitudeMeters>1742.5999755859375</AltitudeMeters>
            <DistanceMeters>NAN</DistanceMeters>
          </Trackpoint>
          <Trackpoint>
            <Time>2021-08-03T06:26:36.000Z</Time>
            <Position>
              <LatitudeDegrees>-15.34902079962193965911865234375</LatitudeDegrees>
              <LongitudeDegrees>37.0759879611432552337646484375</LongitudeDegrees>
            </Position>
            <AltitudeMeters>1742</AltitudeMeters>
            <DistanceMeters>NAN</DistanceMeters>
          </Trackpoint>
          <Trackpoint>
            <Time>2021-08-03T06:26:39.000Z</Time>
            <Position>
              <LatitudeDegrees>-15.34900344908237457275390625</LatitudeDegrees>
              <LongitudeDegrees>37.07599659450352191925048828125</LongitudeDegrees>
            </Position>
            <AltitudeMeters>1741.5999755859375</AltitudeMeters>
            <DistanceMeters>NAN</DistanceMeters>
          </Trackpoint>
          <Trackpoint>
            <Time>2021-08-03T06:26:40.000Z</Time>
            <Position>
              <LatitudeDegrees>-15.34899917431175708770751953125</LatitudeDegrees>
              <LongitudeDegrees>37.0760050602257251739501953125</LongitudeDegrees>
            </Position>
            <AltitudeMeters>1741.199951171875</AltitudeMeters>
            <DistanceMeters>NAN</DistanceMeters>
          </Trackpoint>
          <Trackpoint>
            <Time>2021-08-03T06:26:41.000Z</Time>
            <Position>
              <LatitudeDegrees>-15.3489932231605052947998046875</LatitudeDegrees>
              <LongitudeDegrees>37.0760127715766429901123046875</LongitudeDegrees>
            </Position>
            <AltitudeMeters>1740</AltitudeMeters>
            <DistanceMeters>NAN</DistanceMeters>
          </Trackpoint>
          <Trackpoint>
            <Time>2021-08-03T06:26:43.000Z</Time>
            <Position>
              <LatitudeDegrees>-15.3489821590483188629150390625</LatitudeDegrees>
              <LongitudeDegrees>37.07602174021303653717041015625</LongitudeDegrees>
            </Position>
            <AltitudeMeters>1739.800048828125</AltitudeMeters>
            <DistanceMeters>NAN</DistanceMeters>
          </Trackpoint>
          <Trackpoint>
            <Time>2021-08-03T06:26:45.000Z</Time>
            <Position>
              <LatitudeDegrees>-15.348966233432292938232421875</LatitudeDegrees>
              <LongitudeDegrees>37.076027691364288330078125</LongitudeDegrees>
            </Position>
            <AltitudeMeters>1738.800048828125</AltitudeMeters>
            <DistanceMeters>NAN</DistanceMeters>
          </Trackpoint>
          <Trackpoint>
            <Time>2021-08-03T06:26:46.000Z</Time>
            <Position>
              <LatitudeDegrees>-15.3489570133388042449951171875</LatitudeDegrees>
              <LongitudeDegrees>37.076026685535907745361328125</LongitudeDegrees>
            </Position>
            <AltitudeMeters>1737.800048828125</AltitudeMeters>
            <DistanceMeters>NAN</DistanceMeters>
          </Trackpoint>
          <Trackpoint>
            <Time>2021-08-03T06:26:48.000Z</Time>
            <Position>
              <LatitudeDegrees>-15.3489382378756999969482421875</LatitudeDegrees>
              <LongitudeDegrees>37.07602567970752716064453125</LongitudeDegrees>
            </Position>
            <AltitudeMeters>1737.4000244140625</AltitudeMeters>
            <DistanceMeters>NAN</DistanceMeters>
          </Trackpoint>
          <Trackpoint>
            <Time>2021-08-03T06:26:50.000Z</Time>
            <Position>
              <LatitudeDegrees>-15.3489238210022449493408203125</LatitudeDegrees>
              <LongitudeDegrees>37.0760248415172100067138671875</LongitudeDegrees>
            </Position>
            <AltitudeMeters>1737</AltitudeMeters>
            <DistanceMeters>NAN</DistanceMeters>
          </Trackpoint>
          <Trackpoint>
            <Time>2021-08-03T06:26:51.000Z</Time>
            <Position>
              <LatitudeDegrees>-15.348918624222278594970703125</LatitudeDegrees>
              <LongitudeDegrees>37.07602006383240222930908203125</LongitudeDegrees>
            </Position>
            <AltitudeMeters>1736.199951171875</AltitudeMeters>
            <DistanceMeters>NAN</DistanceMeters>
          </Trackpoint>
          <Trackpoint>
            <Time>2021-08-03T06:26:54.000Z</Time>
            <Position>
              <LatitudeDegrees>-15.34889859147369861602783203125</LatitudeDegrees>
              <LongitudeDegrees>37.0760114304721355438232421875</LongitudeDegrees>
            </Position>
            <AltitudeMeters>1735.5999755859375</AltitudeMeters>
            <DistanceMeters>NAN</DistanceMeters>
          </Trackpoint>
          <Trackpoint>
            <Time>2021-08-03T06:26:57.000Z</Time>
            <Position>
              <LatitudeDegrees>-15.3488809056580066680908203125</LatitudeDegrees>
              <LongitudeDegrees>37.07600145600736141204833984375</LongitudeDegrees>
            </Position>
            <AltitudeMeters>1734.199951171875</AltitudeMeters>
            <DistanceMeters>NAN</DistanceMeters>
          </Trackpoint>
          <Trackpoint>
            <Time>2021-08-03T06:27:00.000Z</Time>
            <Position>
              <LatitudeDegrees>-15.34887746907770633697509765625</LatitudeDegrees>
              <LongitudeDegrees>37.075988464057445526123046875</LongitudeDegrees>
            </Position>
            <AltitudeMeters>1733.199951171875</AltitudeMeters>
            <DistanceMeters>NAN</DistanceMeters>
          </Trackpoint>
          <Trackpoint>
            <Time>2021-08-03T06:27:03.000Z</Time>
            <Position>
              <LatitudeDegrees>-15.348870344460010528564453125</LatitudeDegrees>
              <LongitudeDegrees>37.07600397057831287384033203125</LongitudeDegrees>
            </Position>
            <AltitudeMeters>1732</AltitudeMeters>
            <DistanceMeters>NAN</DistanceMeters>
          </Trackpoint>
          <Trackpoint>
            <Time>2021-08-03T06:27:06.000Z</Time>
            <Position>
              <LatitudeDegrees>-15.348850898444652557373046875</LatitudeDegrees>
              <LongitudeDegrees>37.07600916735827922821044921875</LongitudeDegrees>
            </Position>
            <AltitudeMeters>1731.199951171875</AltitudeMeters>
            <DistanceMeters>NAN</DistanceMeters>
          </Trackpoint>
          <Trackpoint>
            <Time>2021-08-03T06:27:09.000Z</Time>
            <Position>
              <LatitudeDegrees>-15.3488346375524997711181640625</LatitudeDegrees>
              <LongitudeDegrees>37.07600363530218601226806640625</LongitudeDegrees>
            </Position>
            <AltitudeMeters>1730.5999755859375</AltitudeMeters>
            <DistanceMeters>NAN</DistanceMeters>
          </Trackpoint>
          <Trackpoint>
            <Time>2021-08-03T06:27:10.000Z</Time>
            <Position>
              <LatitudeDegrees>-15.3488265909254550933837890625</LatitudeDegrees>
              <LongitudeDegrees>37.0760064013302326202392578125</LongitudeDegrees>
            </Position>
            <AltitudeMeters>1730.199951171875</AltitudeMeters>
            <DistanceMeters>NAN</DistanceMeters>
          </Trackpoint>
          <Trackpoint>
            <Time>2021-08-03T06:27:12.000Z</Time>
            <Position>
              <LatitudeDegrees>-15.34881376661360263824462890625</LatitudeDegrees>
              <LongitudeDegrees>37.0760188065469264984130859375</LongitudeDegrees>
            </Position>
            <AltitudeMeters>1728.800048828125</AltitudeMeters>
            <DistanceMeters>NAN</DistanceMeters>
          </Trackpoint>
          <Trackpoint>
            <Time>2021-08-03T06:27:14.000Z</Time>
            <Position>
              <LatitudeDegrees>-15.34879968501627445220947265625</LatitudeDegrees>
              <LongitudeDegrees>37.07603045739233493804931640625</LongitudeDegrees>
            </Position>
            <AltitudeMeters>1728.800048828125</AltitudeMeters>
            <DistanceMeters>NAN</DistanceMeters>
          </Trackpoint>
          <Trackpoint>
            <Time>2021-08-03T06:27:17.000Z</Time>
            <Position>
              <LatitudeDegrees>-15.34878208301961421966552734375</LatitudeDegrees>
              <LongitudeDegrees>37.0760439522564411163330078125</LongitudeDegrees>
            </Position>
            <AltitudeMeters>1728</AltitudeMeters>
            <DistanceMeters>NAN</DistanceMeters>
          </Trackpoint>
          <Trackpoint>
            <Time>2021-08-03T06:27:18.000Z</Time>
            <Position>
              <LatitudeDegrees>-15.34877604804933071136474609375</LatitudeDegrees>
              <LongitudeDegrees>37.07604713737964630126953125</LongitudeDegrees>
            </Position>
            <AltitudeMeters>1727.4000244140625</AltitudeMeters>
            <DistanceMeters>NAN</DistanceMeters>
          </Trackpoint>
          <Trackpoint>
            <Time>2021-08-03T06:27:20.000Z</Time>
            <Position>
              <LatitudeDegrees>-15.34876548685133457183837890625</LatitudeDegrees>
              <LongitudeDegrees>37.07605208270251750946044921875</LongitudeDegrees>
            </Position>
            <AltitudeMeters>1727.4000244140625</AltitudeMeters>
            <DistanceMeters>NAN</DistanceMeters>
          </Trackpoint>
          <Trackpoint>
            <Time>2021-08-03T06:27:21.000Z</Time>
            <Position>
              <LatitudeDegrees>-15.34875576384365558624267578125</LatitudeDegrees>
              <LongitudeDegrees>37.0760556869208812713623046875</LongitudeDegrees>
            </Position>
            <AltitudeMeters>1726.4000244140625</AltitudeMeters>
            <DistanceMeters>NAN</DistanceMeters>
          </Trackpoint>
          <Trackpoint>
            <Time>2021-08-03T06:27:25.000Z</Time>
            <Position>
              <LatitudeDegrees>-15.348738245666027069091796875</LatitudeDegrees>
              <LongitudeDegrees>37.07606448791921138763427734375</LongitudeDegrees>
            </Position>
            <AltitudeMeters>1725</AltitudeMeters>
            <DistanceMeters>NAN</DistanceMeters>
          </Trackpoint>
          <Trackpoint>
            <Time>2021-08-03T06:27:28.000Z</Time>
            <Position>
              <LatitudeDegrees>-15.3487256728112697601318359375</LatitudeDegrees>
              <LongitudeDegrees>37.0760858617722988128662109375</LongitudeDegrees>
            </Position>
            <AltitudeMeters>1724</AltitudeMeters>
            <DistanceMeters>NAN</DistanceMeters>
          </Trackpoint>
          <Trackpoint>
            <Time>2021-08-03T06:27:29.000Z</Time>
            <Position>
              <LatitudeDegrees>-15.34872340969741344451904296875</LatitudeDegrees>
              <LongitudeDegrees>37.0760969258844852447509765625</LongitudeDegrees>
            </Position>
            <AltitudeMeters>1723.4000244140625</AltitudeMeters>
            <DistanceMeters>NAN</DistanceMeters>
          </Trackpoint>
          <Trackpoint>
            <Time>2021-08-03T06:27:30.000Z</Time>
            <Position>
              <LatitudeDegrees>-15.34871670417487621307373046875</LatitudeDegrees>
              <LongitudeDegrees>37.07610539160668849945068359375</LongitudeDegrees>
            </Position>
            <AltitudeMeters>1723.4000244140625</AltitudeMeters>
            <DistanceMeters>NAN</DistanceMeters>
          </Trackpoint>
          <Trackpoint>
            <Time>2021-08-03T06:27:31.000Z</Time>
            <Position>
              <LatitudeDegrees>-15.34870765171945095062255859375</LatitudeDegrees>
              <LongitudeDegrees>37.0761110074818134307861328125</LongitudeDegrees>
            </Position>
            <AltitudeMeters>1722.800048828125</AltitudeMeters>
            <DistanceMeters>NAN</DistanceMeters>
          </Trackpoint>
          <Trackpoint>
            <Time>2021-08-03T06:27:33.000Z</Time>
            <Position>
              <LatitudeDegrees>-15.34868736751377582550048828125</LatitudeDegrees>
              <LongitudeDegrees>37.076118551194667816162109375</LongitudeDegrees>
            </Position>
            <AltitudeMeters>1722.199951171875</AltitudeMeters>
            <DistanceMeters>NAN</DistanceMeters>
          </Trackpoint>
          <Trackpoint>
            <Time>2021-08-03T06:27:36.000Z</Time>
            <Position>
              <LatitudeDegrees>-15.348669849336147308349609375</LatitudeDegrees>
              <LongitudeDegrees>37.07614042796194553375244140625</LongitudeDegrees>
            </Position>
            <AltitudeMeters>1721</AltitudeMeters>
            <DistanceMeters>NAN</DistanceMeters>
          </Trackpoint>
          <Trackpoint>
            <Time>2021-08-03T06:27:37.000Z</Time>
            <Position>
              <LatitudeDegrees>-15.3486649878323078155517578125</LatitudeDegrees>
              <LongitudeDegrees>37.07614411599934101104736328125</LongitudeDegrees>
            </Position>
            <AltitudeMeters>1720.5999755859375</AltitudeMeters>
            <DistanceMeters>NAN</DistanceMeters>
          </Trackpoint>
          <Trackpoint>
            <Time>2021-08-03T06:27:39.000Z</Time>
            <Position>
              <LatitudeDegrees>-15.3486579470336437225341796875</LatitudeDegrees>
              <LongitudeDegrees>37.0761549286544322967529296875</LongitudeDegrees>
            </Position>
            <AltitudeMeters>1719.5999755859375</AltitudeMeters>
            <DistanceMeters>NAN</DistanceMeters>
          </Trackpoint>
          <Trackpoint>
            <Time>2021-08-03T06:27:40.000Z</Time>
            <Position>
              <LatitudeDegrees>-15.3486502356827259063720703125</LatitudeDegrees>
              <LongitudeDegrees>37.07615886814892292022705078125</LongitudeDegrees>
            </Position>
            <AltitudeMeters>1719.199951171875</AltitudeMeters>
            <DistanceMeters>NAN</DistanceMeters>
          </Trackpoint>
          <Trackpoint>
            <Time>2021-08-03T06:27:41.000Z</Time>
            <Position>
              <LatitudeDegrees>-15.348645038902759552001953125</LatitudeDegrees>
              <LongitudeDegrees>37.0761602930724620819091796875</LongitudeDegrees>
            </Position>
            <AltitudeMeters>1718.800048828125</AltitudeMeters>
            <DistanceMeters>NAN</DistanceMeters>
          </Trackpoint>
          <Trackpoint>
            <Time>2021-08-03T06:27:43.000Z</Time>
            <Position>
              <LatitudeDegrees>-15.34863690845668315887451171875</LatitudeDegrees>
              <LongitudeDegrees>37.07615534774959087371826171875</LongitudeDegrees>
            </Position>
            <AltitudeMeters>1718.800048828125</AltitudeMeters>
            <DistanceMeters>NAN</DistanceMeters>
          </Trackpoint>
          <Trackpoint>
            <Time>2021-08-03T06:27:44.000Z</Time>
            <Position>
              <LatitudeDegrees>-15.3486344777047634124755859375</LatitudeDegrees>
              <LongitudeDegrees>37.0761524140834808349609375</LongitudeDegrees>
            </Position>
            <AltitudeMeters>1718.800048828125</AltitudeMeters>
            <DistanceMeters>NAN</DistanceMeters>
          </Trackpoint>
          <Trackpoint>
            <Time>2021-08-03T06:27:45.000Z</Time>
            <Position>
              <LatitudeDegrees>-15.3486321307718753814697265625</LatitudeDegrees>
              <LongitudeDegrees>37.0761525817215442657470703125</LongitudeDegrees>
            </Position>
            <AltitudeMeters>1718.199951171875</AltitudeMeters>
            <DistanceMeters>NAN</DistanceMeters>
          </Trackpoint>
          <Trackpoint>
            <Time>2021-08-03T06:27:48.000Z</Time>
            <Position>
              <LatitudeDegrees>-15.34862131811678409576416015625</LatitudeDegrees>
              <LongitudeDegrees>37.076160125434398651123046875</LongitudeDegrees>
            </Position>
            <AltitudeMeters>1717.199951171875</AltitudeMeters>
            <DistanceMeters>NAN</DistanceMeters>
          </Trackpoint>
          <Trackpoint>
            <Time>2021-08-03T06:27:49.000Z</Time>
            <Position>
              <LatitudeDegrees>-15.34861779771745204925537109375</LatitudeDegrees>
              <LongitudeDegrees>37.0761586166918277740478515625</LongitudeDegrees>
            </Position>
            <AltitudeMeters>1716</AltitudeMeters>
            <DistanceMeters>NAN</DistanceMeters>
          </Trackpoint>
          <Trackpoint>
            <Time>2021-08-03T06:27:51.000Z</Time>
            <Position>
              <LatitudeDegrees>-15.34861125983297824859619140625</LatitudeDegrees>
              <LongitudeDegrees>37.07615132443606853485107421875</LongitudeDegrees>
            </Position>
            <AltitudeMeters>1715.5999755859375</AltitudeMeters>
            <DistanceMeters>NAN</DistanceMeters>
          </Trackpoint>
          <Trackpoint>
            <Time>2021-08-03T06:27:54.000Z</Time>
            <Position>
              <LatitudeDegrees>-15.34860623069107532501220703125</LatitudeDegrees>
              <LongitudeDegrees>37.07617496140301227569580078125</LongitudeDegrees>
            </Position>
            <AltitudeMeters>1715.4000244140625</AltitudeMeters>
            <DistanceMeters>NAN</DistanceMeters>
          </Trackpoint>
          <Trackpoint>
            <Time>2021-08-03T06:27:55.000Z</Time>
            <Position>
              <LatitudeDegrees>-15.348603464663028717041015625</LatitudeDegrees>
              <LongitudeDegrees>37.07618602551519870758056640625</LongitudeDegrees>
            </Position>
            <AltitudeMeters>1714.5999755859375</AltitudeMeters>
            <DistanceMeters>NAN</DistanceMeters>
          </Trackpoint>
          <Trackpoint>
            <Time>2021-08-03T06:28:00.000Z</Time>
            <Position>
              <LatitudeDegrees>-15.34858812578022480010986328125</LatitudeDegrees>
              <LongitudeDegrees>37.0762005262076854705810546875</LongitudeDegrees>
            </Position>
            <AltitudeMeters>1714.199951171875</AltitudeMeters>
            <DistanceMeters>NAN</DistanceMeters>
          </Trackpoint>
          <Trackpoint>
            <Time>2021-08-03T06:28:05.000Z</Time>
            <Position>
              <LatitudeDegrees>-15.34856599755585193634033203125</LatitudeDegrees>
              <LongitudeDegrees>37.0762060582637786865234375</LongitudeDegrees>
            </Position>
            <AltitudeMeters>1713.800048828125</AltitudeMeters>
            <DistanceMeters>NAN</DistanceMeters>
          </Trackpoint>
          <Trackpoint>
            <Time>2021-08-03T06:28:07.000Z</Time>
            <Position>
              <LatitudeDegrees>-15.34853850491344928741455078125</LatitudeDegrees>
              <LongitudeDegrees>37.07619055174291133880615234375</LongitudeDegrees>
            </Position>
            <AltitudeMeters>1712.800048828125</AltitudeMeters>
            <DistanceMeters>NAN</DistanceMeters>
          </Trackpoint>
          <Trackpoint>
            <Time>2021-08-03T06:28:08.000Z</Time>
            <Position>
              <LatitudeDegrees>-15.34852710552513599395751953125</LatitudeDegrees>
              <LongitudeDegrees>37.07617990672588348388671875</LongitudeDegrees>
            </Position>
            <AltitudeMeters>1712</AltitudeMeters>
            <DistanceMeters>NAN</DistanceMeters>
          </Trackpoint>
          <Trackpoint>
            <Time>2021-08-03T06:28:10.000Z</Time>
            <Position>
              <LatitudeDegrees>-15.3485154546797275543212890625</LatitudeDegrees>
              <LongitudeDegrees>37.0761629752814769744873046875</LongitudeDegrees>
            </Position>
            <AltitudeMeters>1712</AltitudeMeters>
            <DistanceMeters>NAN</DistanceMeters>
          </Trackpoint>
          <Trackpoint>
            <Time>2021-08-03T06:28:12.000Z</Time>
            <Position>
              <LatitudeDegrees>-15.34850615076720714569091796875</LatitudeDegrees>
              <LongitudeDegrees>37.07615802995860576629638671875</LongitudeDegrees>
            </Position>
            <AltitudeMeters>1711.800048828125</AltitudeMeters>
            <DistanceMeters>NAN</DistanceMeters>
          </Trackpoint>
          <Trackpoint>
            <Time>2021-08-03T06:28:16.000Z</Time>
            <Position>
              <LatitudeDegrees>-15.3484864532947540283203125</LatitudeDegrees>
              <LongitudeDegrees>37.07614009268581867218017578125</LongitudeDegrees>
            </Position>
            <AltitudeMeters>1710.800048828125</AltitudeMeters>
            <DistanceMeters>NAN</DistanceMeters>
          </Trackpoint>
          <Trackpoint>
            <Time>2021-08-03T06:28:17.000Z</Time>
            <Position>
              <LatitudeDegrees>-15.3484825976192951202392578125</LatitudeDegrees>
              <LongitudeDegrees>37.07613774575293064117431640625</LongitudeDegrees>
            </Position>
            <AltitudeMeters>1710.5999755859375</AltitudeMeters>
            <DistanceMeters>NAN</DistanceMeters>
          </Trackpoint>
          <Trackpoint>
            <Time>2021-08-03T06:28:23.000Z</Time>
            <Position>
              <LatitudeDegrees>-15.34845988266170024871826171875</LatitudeDegrees>
              <LongitudeDegrees>37.0761093311011791229248046875</LongitudeDegrees>
            </Position>
            <AltitudeMeters>1709.5999755859375</AltitudeMeters>
            <DistanceMeters>NAN</DistanceMeters>
          </Trackpoint>
          <Trackpoint>
            <Time>2021-08-03T06:28:24.000Z</Time>
            <Position>
              <LatitudeDegrees>-15.34845250658690929412841796875</LatitudeDegrees>
              <LongitudeDegrees>37.076103799045085906982421875</LongitudeDegrees>
            </Position>
            <AltitudeMeters>1709.4000244140625</AltitudeMeters>
            <DistanceMeters>NAN</DistanceMeters>
          </Trackpoint>
          <Trackpoint>
            <Time>2021-08-03T06:28:25.000Z</Time>
            <Position>
              <LatitudeDegrees>-15.3484435379505157470703125</LatitudeDegrees>
              <LongitudeDegrees>37.07609281875193119049072265625</LongitudeDegrees>
            </Position>
            <AltitudeMeters>1709</AltitudeMeters>
            <DistanceMeters>NAN</DistanceMeters>
          </Trackpoint>
          <Trackpoint>
            <Time>2021-08-03T06:28:27.000Z</Time>
            <Position>
              <LatitudeDegrees>-15.34842685796320438385009765625</LatitudeDegrees>
              <LongitudeDegrees>37.07607119344174861907958984375</LongitudeDegrees>
            </Position>
            <AltitudeMeters>1708</AltitudeMeters>
            <DistanceMeters>NAN</DistanceMeters>
          </Trackpoint>
          <Trackpoint>
            <Time>2021-08-03T06:28:29.000Z</Time>
            <Position>
              <LatitudeDegrees>-15.34841193817555904388427734375</LatitudeDegrees>
              <LongitudeDegrees>37.07606750540435314178466796875</LongitudeDegrees>
            </Position>
            <AltitudeMeters>1707.4000244140625</AltitudeMeters>
            <DistanceMeters>NAN</DistanceMeters>
          </Trackpoint>
          <Trackpoint>
            <Time>2021-08-03T06:28:33.000Z</Time>
            <Position>
              <LatitudeDegrees>-15.34838980995118618011474609375</LatitudeDegrees>
              <LongitudeDegrees>37.07605007104575634002685546875</LongitudeDegrees>
            </Position>
            <AltitudeMeters>1706.4000244140625</AltitudeMeters>
            <DistanceMeters>NAN</DistanceMeters>
          </Trackpoint>
          <Trackpoint>
            <Time>2021-08-03T06:28:35.000Z</Time>
            <Position>
              <LatitudeDegrees>-15.34837656654417514801025390625</LatitudeDegrees>
              <LongitudeDegrees>37.07604571245610713958740234375</LongitudeDegrees>
            </Position>
            <AltitudeMeters>1706</AltitudeMeters>
            <DistanceMeters>NAN</DistanceMeters>
          </Trackpoint>
          <Trackpoint>
            <Time>2021-08-03T06:28:37.000Z</Time>
            <Position>
              <LatitudeDegrees>-15.34836768172681331634521484375</LatitudeDegrees>
              <LongitudeDegrees>37.076040767133235931396484375</LongitudeDegrees>
            </Position>
            <AltitudeMeters>1704.5999755859375</AltitudeMeters>
            <DistanceMeters>NAN</DistanceMeters>
          </Trackpoint>
          <Trackpoint>
            <Time>2021-08-03T06:28:43.000Z</Time>
            <Position>
              <LatitudeDegrees>-15.34832811914384365081787109375</LatitudeDegrees>
              <LongitudeDegrees>37.07601671107113361358642578125</LongitudeDegrees>
            </Position>
            <AltitudeMeters>1703.800048828125</AltitudeMeters>
            <DistanceMeters>NAN</DistanceMeters>
          </Trackpoint>
          <Trackpoint>
            <Time>2021-08-03T06:28:46.000Z</Time>
            <Position>
              <LatitudeDegrees>-15.34829861484467983245849609375</LatitudeDegrees>
              <LongitudeDegrees>37.07600916735827922821044921875</LongitudeDegrees>
            </Position>
            <AltitudeMeters>1703</AltitudeMeters>
            <DistanceMeters>NAN</DistanceMeters>
          </Trackpoint>
          <Trackpoint>
            <Time>2021-08-03T06:28:47.000Z</Time>
            <Position>
              <LatitudeDegrees>-15.3482914902269840240478515625</LatitudeDegrees>
              <LongitudeDegrees>37.07600698806345462799072265625</LongitudeDegrees>
            </Position>
            <AltitudeMeters>1701.5999755859375</AltitudeMeters>
            <DistanceMeters>NAN</DistanceMeters>
          </Trackpoint>
          <Trackpoint>
            <Time>2021-08-03T06:28:49.000Z</Time>
            <Position>
              <LatitudeDegrees>-15.34827791154384613037109375</LatitudeDegrees>
              <LongitudeDegrees>37.07601000554859638214111328125</LongitudeDegrees>
            </Position>
            <AltitudeMeters>1701.4000244140625</AltitudeMeters>
            <DistanceMeters>NAN</DistanceMeters>
          </Trackpoint>
          <Trackpoint>
            <Time>2021-08-03T06:28:51.000Z</Time>
            <Position>
              <LatitudeDegrees>-15.3482690267264842987060546875</LatitudeDegrees>
              <LongitudeDegrees>37.07600832916796207427978515625</LongitudeDegrees>
            </Position>
            <AltitudeMeters>1700</AltitudeMeters>
            <DistanceMeters>NAN</DistanceMeters>
          </Trackpoint>
          <Trackpoint>
            <Time>2021-08-03T06:28:55.000Z</Time>
            <Position>
              <LatitudeDegrees>-15.3482462279498577117919921875</LatitudeDegrees>
              <LongitudeDegrees>37.0760104246437549591064453125</LongitudeDegrees>
            </Position>
            <AltitudeMeters>1699.4000244140625</AltitudeMeters>
            <DistanceMeters>NAN</DistanceMeters>
          </Trackpoint>
          <Trackpoint>
            <Time>2021-08-03T06:28:57.000Z</Time>
            <Position>
              <LatitudeDegrees>-15.348241031169891357421875</LatitudeDegrees>
              <LongitudeDegrees>37.07600983791053295135498046875</LongitudeDegrees>
            </Position>
            <AltitudeMeters>1698</AltitudeMeters>
            <DistanceMeters>NAN</DistanceMeters>
          </Trackpoint>
          <Trackpoint>
            <Time>2021-08-03T06:29:00.000Z</Time>
            <Position>
              <LatitudeDegrees>-15.3482190705835819244384765625</LatitudeDegrees>
              <LongitudeDegrees>37.0760194770991802215576171875</LongitudeDegrees>
            </Position>
            <AltitudeMeters>1697.5999755859375</AltitudeMeters>
            <DistanceMeters>NAN</DistanceMeters>
          </Trackpoint>
          <Trackpoint>
            <Time>2021-08-03T06:29:01.000Z</Time>
            <Position>
              <LatitudeDegrees>-15.34821127541363239288330078125</LatitudeDegrees>
              <LongitudeDegrees>37.07602006383240222930908203125</LongitudeDegrees>
            </Position>
            <AltitudeMeters>1697</AltitudeMeters>
            <DistanceMeters>NAN</DistanceMeters>
          </Trackpoint>
          <Trackpoint>
            <Time>2021-08-03T06:29:03.000Z</Time>
            <Position>
              <LatitudeDegrees>-15.34820172004401683807373046875</LatitudeDegrees>
              <LongitudeDegrees>37.0760167948901653289794921875</LongitudeDegrees>
            </Position>
            <AltitudeMeters>1696.4000244140625</AltitudeMeters>
            <DistanceMeters>NAN</DistanceMeters>
          </Trackpoint>
          <Trackpoint>
            <Time>2021-08-03T06:29:04.000Z</Time>
            <Position>
              <LatitudeDegrees>-15.34819568507373332977294921875</LatitudeDegrees>
              <LongitudeDegrees>37.07601319067180156707763671875</LongitudeDegrees>
            </Position>
            <AltitudeMeters>1695.4000244140625</AltitudeMeters>
            <DistanceMeters>NAN</DistanceMeters>
          </Trackpoint>
          <Trackpoint>
            <Time>2021-08-03T06:29:06.000Z</Time>
            <Position>
              <LatitudeDegrees>-15.34818646498024463653564453125</LatitudeDegrees>
              <LongitudeDegrees>37.07599760033190250396728515625</LongitudeDegrees>
            </Position>
            <AltitudeMeters>1695</AltitudeMeters>
            <DistanceMeters>NAN</DistanceMeters>
          </Trackpoint>
          <Trackpoint>
            <Time>2021-08-03T06:29:07.000Z</Time>
            <Position>
              <LatitudeDegrees>-15.34818344749510288238525390625</LatitudeDegrees>
              <LongitudeDegrees>37.07599081099033355712890625</LongitudeDegrees>
            </Position>
            <AltitudeMeters>1694.5999755859375</AltitudeMeters>
            <DistanceMeters>NAN</DistanceMeters>
          </Trackpoint>
          <Trackpoint>
            <Time>2021-08-03T06:29:10.000Z</Time>
            <Position>
              <LatitudeDegrees>-15.34817506559193134307861328125</LatitudeDegrees>
              <LongitudeDegrees>37.07598586566746234893798828125</LongitudeDegrees>
            </Position>
            <AltitudeMeters>1693.5999755859375</AltitudeMeters>
            <DistanceMeters>NAN</DistanceMeters>
          </Trackpoint>
          <Trackpoint>
            <Time>2021-08-03T06:29:11.000Z</Time>
            <Position>
              <LatitudeDegrees>-15.348170958459377288818359375</LatitudeDegrees>
              <LongitudeDegrees>37.0759822614490985870361328125</LongitudeDegrees>
            </Position>
            <AltitudeMeters>1693.4000244140625</AltitudeMeters>
            <DistanceMeters>NAN</DistanceMeters>
          </Trackpoint>
          <Trackpoint>
            <Time>2021-08-03T06:29:14.000Z</Time>
            <Position>
              <LatitudeDegrees>-15.34816433675587177276611328125</LatitudeDegrees>
              <LongitudeDegrees>37.075979411602020263671875</LongitudeDegrees>
            </Position>
            <AltitudeMeters>1692</AltitudeMeters>
            <DistanceMeters>NAN</DistanceMeters>
          </Trackpoint>
          <Trackpoint>
            <Time>2021-08-03T06:29:16.000Z</Time>
            <Position>
              <LatitudeDegrees>-15.34815293736755847930908203125</LatitudeDegrees>
              <LongitudeDegrees>37.07597429864108562469482421875</LongitudeDegrees>
            </Position>
            <AltitudeMeters>1692</AltitudeMeters>
            <DistanceMeters>NAN</DistanceMeters>
          </Trackpoint>
          <Trackpoint>
            <Time>2021-08-03T06:29:19.000Z</Time>
            <Position>
              <LatitudeDegrees>-15.3481318987905979156494140625</LatitudeDegrees>
              <LongitudeDegrees>37.07597949542105197906494140625</LongitudeDegrees>
            </Position>
            <AltitudeMeters>1691</AltitudeMeters>
            <DistanceMeters>NAN</DistanceMeters>
          </Trackpoint>
          <Trackpoint>
            <Time>2021-08-03T06:29:22.000Z</Time>
            <Position>
              <LatitudeDegrees>-15.34811672754585742950439453125</LatitudeDegrees>
              <LongitudeDegrees>37.07597698085010051727294921875</LongitudeDegrees>
            </Position>
            <AltitudeMeters>1689.800048828125</AltitudeMeters>
            <DistanceMeters>NAN</DistanceMeters>
          </Trackpoint>
          <Trackpoint>
            <Time>2021-08-03T06:29:23.000Z</Time>
            <Position>
              <LatitudeDegrees>-15.34811253659427165985107421875</LatitudeDegrees>
              <LongitudeDegrees>37.0759772323071956634521484375</LongitudeDegrees>
            </Position>
            <AltitudeMeters>1689.5999755859375</AltitudeMeters>
            <DistanceMeters>NAN</DistanceMeters>
          </Trackpoint>
          <Trackpoint>
            <Time>2021-08-03T06:29:25.000Z</Time>
            <Position>
              <LatitudeDegrees>-15.34809887409210205078125</LatitudeDegrees>
              <LongitudeDegrees>37.07598351873457431793212890625</LongitudeDegrees>
            </Position>
            <AltitudeMeters>1689</AltitudeMeters>
            <DistanceMeters>NAN</DistanceMeters>
          </Trackpoint>
          <Trackpoint>
            <Time>2021-08-03T06:29:27.000Z</Time>
            <Position>
              <LatitudeDegrees>-15.3480822779238224029541015625</LatitudeDegrees>
              <LongitudeDegrees>37.07599944435060024261474609375</LongitudeDegrees>
            </Position>
            <AltitudeMeters>1687.5999755859375</AltitudeMeters>
            <DistanceMeters>NAN</DistanceMeters>
          </Trackpoint>
          <Trackpoint>
            <Time>2021-08-03T06:29:29.000Z</Time>
            <Position>
              <LatitudeDegrees>-15.34807180054485797882080078125</LatitudeDegrees>
              <LongitudeDegrees>37.07601503469049930572509765625</LongitudeDegrees>
            </Position>
            <AltitudeMeters>1687.199951171875</AltitudeMeters>
            <DistanceMeters>NAN</DistanceMeters>
          </Trackpoint>
          <Trackpoint>
            <Time>2021-08-03T06:29:32.000Z</Time>
            <Position>
              <LatitudeDegrees>-15.34804531373083591461181640625</LatitudeDegrees>
              <LongitudeDegrees>37.07603179849684238433837890625</LongitudeDegrees>
            </Position>
            <AltitudeMeters>1686.4000244140625</AltitudeMeters>
            <DistanceMeters>NAN</DistanceMeters>
          </Trackpoint>
          <Trackpoint>
            <Time>2021-08-03T06:29:34.000Z</Time>
            <Position>
              <LatitudeDegrees>-15.3480282984673976898193359375</LatitudeDegrees>
              <LongitudeDegrees>37.0760288648307323455810546875</LongitudeDegrees>
            </Position>
            <AltitudeMeters>1685.199951171875</AltitudeMeters>
            <DistanceMeters>NAN</DistanceMeters>
          </Trackpoint>
          <Trackpoint>
            <Time>2021-08-03T06:29:38.000Z</Time>
            <Position>
              <LatitudeDegrees>-15.3480202518403530120849609375</LatitudeDegrees>
              <LongitudeDegrees>37.0760365761816501617431640625</LongitudeDegrees>
            </Position>
            <AltitudeMeters>1684.199951171875</AltitudeMeters>
            <DistanceMeters>NAN</DistanceMeters>
          </Trackpoint>
          <Trackpoint>
            <Time>2021-08-03T06:29:39.000Z</Time>
            <Position>
              <LatitudeDegrees>-15.34801983274519443511962890625</LatitudeDegrees>
              <LongitudeDegrees>37.076043449342250823974609375</LongitudeDegrees>
            </Position>
            <AltitudeMeters>1684.199951171875</AltitudeMeters>
            <DistanceMeters>NAN</DistanceMeters>
          </Trackpoint>
          <Trackpoint>
            <Time>2021-08-03T06:29:40.000Z</Time>
            <Position>
              <LatitudeDegrees>-15.348019413650035858154296875</LatitudeDegrees>
              <LongitudeDegrees>37.076054178178310394287109375</LongitudeDegrees>
            </Position>
            <AltitudeMeters>1683.5999755859375</AltitudeMeters>
            <DistanceMeters>NAN</DistanceMeters>
          </Trackpoint>
          <Trackpoint>
            <Time>2021-08-03T06:29:42.000Z</Time>
            <Position>
              <LatitudeDegrees>-15.3480138815939426422119140625</LatitudeDegrees>
              <LongitudeDegrees>37.076065577566623687744140625</LongitudeDegrees>
            </Position>
            <AltitudeMeters>1683.199951171875</AltitudeMeters>
            <DistanceMeters>NAN</DistanceMeters>
          </Trackpoint>
          <Trackpoint>
            <Time>2021-08-03T06:29:46.000Z</Time>
            <Position>
              <LatitudeDegrees>-15.34799971617758274078369140625</LatitudeDegrees>
              <LongitudeDegrees>37.076082341372966766357421875</LongitudeDegrees>
            </Position>
            <AltitudeMeters>1681.800048828125</AltitudeMeters>
            <DistanceMeters>NAN</DistanceMeters>
          </Trackpoint>
          <Trackpoint>
            <Time>2021-08-03T06:29:51.000Z</Time>
            <Position>
              <LatitudeDegrees>-15.3479672782123088836669921875</LatitudeDegrees>
              <LongitudeDegrees>37.07609466277062892913818359375</LongitudeDegrees>
            </Position>
            <AltitudeMeters>1680.4000244140625</AltitudeMeters>
            <DistanceMeters>NAN</DistanceMeters>
          </Trackpoint>
          <Trackpoint>
            <Time>2021-08-03T06:29:52.000Z</Time>
            <Position>
              <LatitudeDegrees>-15.347962416708469390869140625</LatitudeDegrees>
              <LongitudeDegrees>37.07610036246478557586669921875</LongitudeDegrees>
            </Position>
            <AltitudeMeters>1680.199951171875</AltitudeMeters>
            <DistanceMeters>NAN</DistanceMeters>
          </Trackpoint>
          <Trackpoint>
            <Time>2021-08-03T06:29:54.000Z</Time>
            <Position>
              <LatitudeDegrees>-15.34795562736690044403076171875</LatitudeDegrees>
              <LongitudeDegrees>37.07611544989049434661865234375</LongitudeDegrees>
            </Position>
            <AltitudeMeters>1678.800048828125</AltitudeMeters>
            <DistanceMeters>NAN</DistanceMeters>
          </Trackpoint>
          <Trackpoint>
            <Time>2021-08-03T06:29:56.000Z</Time>
            <Position>
              <LatitudeDegrees>-15.34794799983501434326171875</LatitudeDegrees>
              <LongitudeDegrees>37.0761247538030147552490234375</LongitudeDegrees>
            </Position>
            <AltitudeMeters>1678.5999755859375</AltitudeMeters>
            <DistanceMeters>NAN</DistanceMeters>
          </Trackpoint>
          <Trackpoint>
            <Time>2021-08-03T06:29:58.000Z</Time>
            <Position>
              <LatitudeDegrees>-15.34793919883668422698974609375</LatitudeDegrees>
              <LongitudeDegrees>37.0761304534971714019775390625</LongitudeDegrees>
            </Position>
            <AltitudeMeters>1677.4000244140625</AltitudeMeters>
            <DistanceMeters>NAN</DistanceMeters>
          </Trackpoint>
          <Trackpoint>
            <Time>2021-08-03T06:30:03.000Z</Time>
            <Position>
              <LatitudeDegrees>-15.347919501364231109619140625</LatitudeDegrees>
              <LongitudeDegrees>37.07615015096962451934814453125</LongitudeDegrees>
            </Position>
            <AltitudeMeters>1675.5999755859375</AltitudeMeters>
            <DistanceMeters>NAN</DistanceMeters>
          </Trackpoint>
          <Trackpoint>
            <Time>2021-08-03T06:30:06.000Z</Time>
            <Position>
              <LatitudeDegrees>-15.34791849553585052490234375</LatitudeDegrees>
              <LongitudeDegrees>37.07615668885409832000732421875</LongitudeDegrees>
            </Position>
            <AltitudeMeters>1674.4000244140625</AltitudeMeters>
            <DistanceMeters>NAN</DistanceMeters>
          </Trackpoint>
          <Trackpoint>
            <Time>2021-08-03T06:30:11.000Z</Time>
            <Position>
              <LatitudeDegrees>-15.347898043692111968994140625</LatitudeDegrees>
              <LongitudeDegrees>37.07617496140301227569580078125</LongitudeDegrees>
            </Position>
            <AltitudeMeters>1673.800048828125</AltitudeMeters>
            <DistanceMeters>NAN</DistanceMeters>
          </Trackpoint>
          <Trackpoint>
            <Time>2021-08-03T06:30:13.000Z</Time>
            <Position>
              <LatitudeDegrees>-15.34789301455020904541015625</LatitudeDegrees>
              <LongitudeDegrees>37.07617848180234432220458984375</LongitudeDegrees>
            </Position>
            <AltitudeMeters>1673</AltitudeMeters>
            <DistanceMeters>NAN</DistanceMeters>
          </Trackpoint>
          <Trackpoint>
            <Time>2021-08-03T06:30:17.000Z</Time>
            <Position>
              <LatitudeDegrees>-15.34786996431648731231689453125</LatitudeDegrees>
              <LongitudeDegrees>37.0761934854090213775634765625</LongitudeDegrees>
            </Position>
            <AltitudeMeters>1671.800048828125</AltitudeMeters>
            <DistanceMeters>NAN</DistanceMeters>
          </Trackpoint>
          <Trackpoint>
            <Time>2021-08-03T06:30:18.000Z</Time>
            <Position>
              <LatitudeDegrees>-15.34786459989845752716064453125</LatitudeDegrees>
              <LongitudeDegrees>37.07619130611419677734375</LongitudeDegrees>
            </Position>
            <AltitudeMeters>1671.800048828125</AltitudeMeters>
            <DistanceMeters>NAN</DistanceMeters>
          </Trackpoint>
          <Trackpoint>
            <Time>2021-08-03T06:30:21.000Z</Time>
            <Position>
              <LatitudeDegrees>-15.34785068593919277191162109375</LatitudeDegrees>
              <LongitudeDegrees>37.07617630250751972198486328125</LongitudeDegrees>
            </Position>
            <AltitudeMeters>1670.5999755859375</AltitudeMeters>
            <DistanceMeters>NAN</DistanceMeters>
          </Trackpoint>
          <Trackpoint>
            <Time>2021-08-03T06:30:26.000Z</Time>
            <Position>
              <LatitudeDegrees>-15.34784280695021152496337890625</LatitudeDegrees>
              <LongitudeDegrees>37.0761582814157009124755859375</LongitudeDegrees>
            </Position>
            <AltitudeMeters>1669.5999755859375</AltitudeMeters>
            <DistanceMeters>NAN</DistanceMeters>
          </Trackpoint>
          <Trackpoint>
            <Time>2021-08-03T06:30:27.000Z</Time>
            <Position>
              <LatitudeDegrees>-15.34784012474119663238525390625</LatitudeDegrees>
              <LongitudeDegrees>37.0761552639305591583251953125</LongitudeDegrees>
            </Position>
            <AltitudeMeters>1668.199951171875</AltitudeMeters>
            <DistanceMeters>NAN</DistanceMeters>
          </Trackpoint>
          <Trackpoint>
            <Time>2021-08-03T06:30:31.000Z</Time>
            <Position>
              <LatitudeDegrees>-15.34781632013618946075439453125</LatitudeDegrees>
              <LongitudeDegrees>37.07614394836127758026123046875</LongitudeDegrees>
            </Position>
            <AltitudeMeters>1666.800048828125</AltitudeMeters>
            <DistanceMeters>NAN</DistanceMeters>
          </Trackpoint>
          <Trackpoint>
            <Time>2021-08-03T06:30:33.000Z</Time>
            <Position>
              <LatitudeDegrees>-15.3478078544139862060546875</LatitudeDegrees>
              <LongitudeDegrees>37.0761425234377384185791015625</LongitudeDegrees>
            </Position>
            <AltitudeMeters>1666.5999755859375</AltitudeMeters>
            <DistanceMeters>NAN</DistanceMeters>
          </Trackpoint>
          <Trackpoint>
            <Time>2021-08-03T06:30:35.000Z</Time>
            <Position>
              <LatitudeDegrees>-15.34781120717525482177734375</LatitudeDegrees>
              <LongitudeDegrees>37.0761435292661190032958984375</LongitudeDegrees>
            </Position>
            <AltitudeMeters>1665.5999755859375</AltitudeMeters>
            <DistanceMeters>NAN</DistanceMeters>
          </Trackpoint>
          <Trackpoint>
            <Time>2021-08-03T06:30:38.000Z</Time>
            <Position>
              <LatitudeDegrees>-15.34779888577759265899658203125</LatitudeDegrees>
              <LongitudeDegrees>37.0761470496654510498046875</LongitudeDegrees>
            </Position>
            <AltitudeMeters>1664.5999755859375</AltitudeMeters>
            <DistanceMeters>NAN</DistanceMeters>
          </Trackpoint>
          <Trackpoint>
            <Time>2021-08-03T06:30:39.000Z</Time>
            <Position>
              <LatitudeDegrees>-15.3477915935218334197998046875</LatitudeDegrees>
              <LongitudeDegrees>37.07614897750318050384521484375</LongitudeDegrees>
            </Position>
            <AltitudeMeters>1664.5999755859375</AltitudeMeters>
            <DistanceMeters>NAN</DistanceMeters>
          </Trackpoint>
          <Trackpoint>
            <Time>2021-08-03T06:30:42.000Z</Time>
            <Position>
              <LatitudeDegrees>-15.34777340479195117950439453125</LatitudeDegrees>
              <LongitudeDegrees>37.07615769468247890472412109375</LongitudeDegrees>
            </Position>
            <AltitudeMeters>1663.4000244140625</AltitudeMeters>
            <DistanceMeters>NAN</DistanceMeters>
          </Trackpoint>
          <Trackpoint>
            <Time>2021-08-03T06:30:44.000Z</Time>
            <Position>
              <LatitudeDegrees>-15.34775781445205211639404296875</LatitudeDegrees>
              <LongitudeDegrees>37.07616490311920642852783203125</LongitudeDegrees>
            </Position>
            <AltitudeMeters>1662.5999755859375</AltitudeMeters>
            <DistanceMeters>NAN</DistanceMeters>
          </Trackpoint>
          <Trackpoint>
            <Time>2021-08-03T06:30:45.000Z</Time>
            <Position>
              <LatitudeDegrees>-15.347745157778263092041015625</LatitudeDegrees>
              <LongitudeDegrees>37.0761686749756336212158203125</LongitudeDegrees>
            </Position>
            <AltitudeMeters>1662</AltitudeMeters>
            <DistanceMeters>NAN</DistanceMeters>
          </Trackpoint>
          <Trackpoint>
            <Time>2021-08-03T06:30:49.000Z</Time>
            <Position>
              <LatitudeDegrees>-15.34771624021232128143310546875</LatitudeDegrees>
              <LongitudeDegrees>37.076182253658771514892578125</LongitudeDegrees>
            </Position>
            <AltitudeMeters>1660.199951171875</AltitudeMeters>
            <DistanceMeters>NAN</DistanceMeters>
          </Trackpoint>
          <Trackpoint>
            <Time>2021-08-03T06:30:51.000Z</Time>
            <Position>
              <LatitudeDegrees>-15.34769830293953418731689453125</LatitudeDegrees>
              <LongitudeDegrees>37.07618552260100841522216796875</LongitudeDegrees>
            </Position>
            <AltitudeMeters>1659.800048828125</AltitudeMeters>
            <DistanceMeters>NAN</DistanceMeters>
          </Trackpoint>
          <Trackpoint>
            <Time>2021-08-03T06:30:53.000Z</Time>
            <Position>
              <LatitudeDegrees>-15.34768120385706424713134765625</LatitudeDegrees>
              <LongitudeDegrees>37.0761884562671184539794921875</LongitudeDegrees>
            </Position>
            <AltitudeMeters>1659.199951171875</AltitudeMeters>
            <DistanceMeters>NAN</DistanceMeters>
          </Trackpoint>
          <Trackpoint>
            <Time>2021-08-03T06:30:55.000Z</Time>
            <Position>
              <LatitudeDegrees>-15.34766100347042083740234375</LatitudeDegrees>
              <LongitudeDegrees>37.07619809545576572418212890625</LongitudeDegrees>
            </Position>
            <AltitudeMeters>1658</AltitudeMeters>
            <DistanceMeters>NAN</DistanceMeters>
          </Trackpoint>
          <Trackpoint>
            <Time>2021-08-03T06:30:57.000Z</Time>
            <Position>
              <LatitudeDegrees>-15.3476537950336933135986328125</LatitudeDegrees>
              <LongitudeDegrees>37.07620664499700069427490234375</LongitudeDegrees>
            </Position>
            <AltitudeMeters>1656.800048828125</AltitudeMeters>
            <DistanceMeters>NAN</DistanceMeters>
          </Trackpoint>
          <Trackpoint>
            <Time>2021-08-03T06:30:59.000Z</Time>
            <Position>
              <LatitudeDegrees>-15.34764247946441173553466796875</LatitudeDegrees>
              <LongitudeDegrees>37.07622190006077289581298828125</LongitudeDegrees>
            </Position>
            <AltitudeMeters>1655.4000244140625</AltitudeMeters>
            <DistanceMeters>NAN</DistanceMeters>
          </Trackpoint>
          <Trackpoint>
            <Time>2021-08-03T06:31:03.000Z</Time>
            <Position>
              <LatitudeDegrees>-15.34761808812618255615234375</LatitudeDegrees>
              <LongitudeDegrees>37.07623623311519622802734375</LongitudeDegrees>
            </Position>
            <AltitudeMeters>1654.4000244140625</AltitudeMeters>
            <DistanceMeters>NAN</DistanceMeters>
          </Trackpoint>
          <Trackpoint>
            <Time>2021-08-03T06:31:06.000Z</Time>
            <Position>
              <LatitudeDegrees>-15.34760459326207637786865234375</LatitudeDegrees>
              <LongitudeDegrees>37.07623514346778392791748046875</LongitudeDegrees>
            </Position>
            <AltitudeMeters>1654</AltitudeMeters>
            <DistanceMeters>NAN</DistanceMeters>
          </Trackpoint>
          <Trackpoint>
            <Time>2021-08-03T06:31:09.000Z</Time>
            <Position>
              <LatitudeDegrees>-15.34759168513119220733642578125</LatitudeDegrees>
              <LongitudeDegrees>37.07624034024775028228759765625</LongitudeDegrees>
            </Position>
            <AltitudeMeters>1652.800048828125</AltitudeMeters>
            <DistanceMeters>NAN</DistanceMeters>
          </Trackpoint>
          <Trackpoint>
            <Time>2021-08-03T06:31:11.000Z</Time>
            <Position>
              <LatitudeDegrees>-15.3475840575993061065673828125</LatitudeDegrees>
              <LongitudeDegrees>37.07624469883739948272705078125</LongitudeDegrees>
            </Position>
            <AltitudeMeters>1652.5999755859375</AltitudeMeters>
            <DistanceMeters>NAN</DistanceMeters>
          </Trackpoint>
          <Trackpoint>
            <Time>2021-08-03T06:31:12.000Z</Time>
            <Position>
              <LatitudeDegrees>-15.34757793880999088287353515625</LatitudeDegrees>
              <LongitudeDegrees>37.07624620757997035980224609375</LongitudeDegrees>
            </Position>
            <AltitudeMeters>1652.199951171875</AltitudeMeters>
            <DistanceMeters>NAN</DistanceMeters>
          </Trackpoint>
          <Trackpoint>
            <Time>2021-08-03T06:31:13.000Z</Time>
            <Position>
              <LatitudeDegrees>-15.34756922163069248199462890625</LatitudeDegrees>
              <LongitudeDegrees>37.076243944466114044189453125</LongitudeDegrees>
            </Position>
            <AltitudeMeters>1651.5999755859375</AltitudeMeters>
            <DistanceMeters>NAN</DistanceMeters>
          </Trackpoint>
          <Trackpoint>
            <Time>2021-08-03T06:31:16.000Z</Time>
            <Position>
              <LatitudeDegrees>-15.34753368236124515533447265625</LatitudeDegrees>
              <LongitudeDegrees>37.07625593058764934539794921875</LongitudeDegrees>
            </Position>
            <AltitudeMeters>1649.800048828125</AltitudeMeters>
            <DistanceMeters>NAN</DistanceMeters>
          </Trackpoint>
          <Trackpoint>
            <Time>2021-08-03T06:31:19.000Z</Time>
            <Position>
              <LatitudeDegrees>-15.347520522773265838623046875</LatitudeDegrees>
              <LongitudeDegrees>37.07627185620367527008056640625</LongitudeDegrees>
            </Position>
            <AltitudeMeters>1649</AltitudeMeters>
            <DistanceMeters>NAN</DistanceMeters>
          </Trackpoint>
          <Trackpoint>
            <Time>2021-08-03T06:31:21.000Z</Time>
            <Position>
              <LatitudeDegrees>-15.34751373343169689178466796875</LatitudeDegrees>
              <LongitudeDegrees>37.07628183066844940185546875</LongitudeDegrees>
            </Position>
            <AltitudeMeters>1648.4000244140625</AltitudeMeters>
            <DistanceMeters>NAN</DistanceMeters>
          </Trackpoint>
          <Trackpoint>
            <Time>2021-08-03T06:31:24.000Z</Time>
            <Position>
              <LatitudeDegrees>-15.34749428741633892059326171875</LatitudeDegrees>
              <LongitudeDegrees>37.07629716955125331878662109375</LongitudeDegrees>
            </Position>
            <AltitudeMeters>1647.5999755859375</AltitudeMeters>
            <DistanceMeters>NAN</DistanceMeters>
          </Trackpoint>
          <Trackpoint>
            <Time>2021-08-03T06:31:25.000Z</Time>
            <Position>
              <LatitudeDegrees>-15.34748691134154796600341796875</LatitudeDegrees>
              <LongitudeDegrees>37.0762970857322216033935546875</LongitudeDegrees>
            </Position>
            <AltitudeMeters>1646.199951171875</AltitudeMeters>
            <DistanceMeters>NAN</DistanceMeters>
          </Trackpoint>
          <Trackpoint>
            <Time>2021-08-03T06:31:29.000Z</Time>
            <Position>
              <LatitudeDegrees>-15.347476266324520111083984375</LatitudeDegrees>
              <LongitudeDegrees>37.07628560252487659454345703125</LongitudeDegrees>
            </Position>
            <AltitudeMeters>1644.800048828125</AltitudeMeters>
            <DistanceMeters>NAN</DistanceMeters>
          </Trackpoint>
          <Trackpoint>
            <Time>2021-08-03T06:31:31.000Z</Time>
            <Position>
              <LatitudeDegrees>-15.347466208040714263916015625</LatitudeDegrees>
              <LongitudeDegrees>37.0762887038290500640869140625</LongitudeDegrees>
            </Position>
            <AltitudeMeters>1643.199951171875</AltitudeMeters>
            <DistanceMeters>NAN</DistanceMeters>
          </Trackpoint>
          <Trackpoint>
            <Time>2021-08-03T06:31:33.000Z</Time>
            <Position>
              <LatitudeDegrees>-15.34745371900498867034912109375</LatitudeDegrees>
              <LongitudeDegrees>37.076304964721202850341796875</LongitudeDegrees>
            </Position>
            <AltitudeMeters>1642.800048828125</AltitudeMeters>
            <DistanceMeters>NAN</DistanceMeters>
          </Trackpoint>
          <Trackpoint>
            <Time>2021-08-03T06:31:35.000Z</Time>
            <Position>
              <LatitudeDegrees>-15.34744684584438800811767578125</LatitudeDegrees>
              <LongitudeDegrees>37.07631896249949932098388671875</LongitudeDegrees>
            </Position>
            <AltitudeMeters>1642.5999755859375</AltitudeMeters>
            <DistanceMeters>NAN</DistanceMeters>
          </Trackpoint>
          <Trackpoint>
            <Time>2021-08-03T06:31:37.000Z</Time>
            <Position>
              <LatitudeDegrees>-15.347433350980281829833984375</LatitudeDegrees>
              <LongitudeDegrees>37.07632801495492458343505859375</LongitudeDegrees>
            </Position>
            <AltitudeMeters>1641.5999755859375</AltitudeMeters>
            <DistanceMeters>NAN</DistanceMeters>
          </Trackpoint>
          <Trackpoint>
            <Time>2021-08-03T06:31:39.000Z</Time>
            <Position>
              <LatitudeDegrees>-15.34742589108645915985107421875</LatitudeDegrees>
              <LongitudeDegrees>37.07633388228714466094970703125</LongitudeDegrees>
            </Position>
            <AltitudeMeters>1641.4000244140625</AltitudeMeters>
            <DistanceMeters>NAN</DistanceMeters>
          </Trackpoint>
          <Trackpoint>
            <Time>2021-08-03T06:31:41.000Z</Time>
            <Position>
              <LatitudeDegrees>-15.34740845672786235809326171875</LatitudeDegrees>
              <LongitudeDegrees>37.076341174542903900146484375</LongitudeDegrees>
            </Position>
            <AltitudeMeters>1640.5999755859375</AltitudeMeters>
            <DistanceMeters>NAN</DistanceMeters>
          </Trackpoint>
          <Trackpoint>
            <Time>2021-08-03T06:31:42.000Z</Time>
            <Position>
              <LatitudeDegrees>-15.3473996557295322418212890625</LatitudeDegrees>
              <LongitudeDegrees>37.0763356424868106842041015625</LongitudeDegrees>
            </Position>
            <AltitudeMeters>1639.800048828125</AltitudeMeters>
            <DistanceMeters>NAN</DistanceMeters>
          </Trackpoint>
          <Trackpoint>
            <Time>2021-08-03T06:31:45.000Z</Time>
            <Position>
              <LatitudeDegrees>-15.34739010035991668701171875</LatitudeDegrees>
              <LongitudeDegrees>37.07632935605943202972412109375</LongitudeDegrees>
            </Position>
            <AltitudeMeters>1638.199951171875</AltitudeMeters>
            <DistanceMeters>NAN</DistanceMeters>
          </Trackpoint>
          <Trackpoint>
            <Time>2021-08-03T06:31:47.000Z</Time>
            <Position>
              <LatitudeDegrees>-15.3473832271993160247802734375</LatitudeDegrees>
              <LongitudeDegrees>37.07633078098297119140625</LongitudeDegrees>
            </Position>
            <AltitudeMeters>1637.5999755859375</AltitudeMeters>
            <DistanceMeters>NAN</DistanceMeters>
          </Trackpoint>
          <Trackpoint>
            <Time>2021-08-03T06:31:49.000Z</Time>
            <Position>
              <LatitudeDegrees>-15.34737266600131988525390625</LatitudeDegrees>
              <LongitudeDegrees>37.07633681595325469970703125</LongitudeDegrees>
            </Position>
            <AltitudeMeters>1637.5999755859375</AltitudeMeters>
            <DistanceMeters>NAN</DistanceMeters>
          </Trackpoint>
          <Trackpoint>
            <Time>2021-08-03T06:31:51.000Z</Time>
            <Position>
              <LatitudeDegrees>-15.3473647870123386383056640625</LatitudeDegrees>
              <LongitudeDegrees>37.07633170299232006072998046875</LongitudeDegrees>
            </Position>
            <AltitudeMeters>1637</AltitudeMeters>
            <DistanceMeters>NAN</DistanceMeters>
          </Trackpoint>
          <Trackpoint>
            <Time>2021-08-03T06:31:54.000Z</Time>
            <Position>
              <LatitudeDegrees>-15.34736101515591144561767578125</LatitudeDegrees>
              <LongitudeDegrees>37.0763135142624378204345703125</LongitudeDegrees>
            </Position>
            <AltitudeMeters>1636</AltitudeMeters>
            <DistanceMeters>NAN</DistanceMeters>
          </Trackpoint>
          <Trackpoint>
            <Time>2021-08-03T06:31:55.000Z</Time>
            <Position>
              <LatitudeDegrees>-15.34736017696559429168701171875</LatitudeDegrees>
              <LongitudeDegrees>37.0763098262250423431396484375</LongitudeDegrees>
            </Position>
            <AltitudeMeters>1635.800048828125</AltitudeMeters>
            <DistanceMeters>NAN</DistanceMeters>
          </Trackpoint>
          <Trackpoint>
            <Time>2021-08-03T06:31:59.000Z</Time>
            <Position>
              <LatitudeDegrees>-15.347348190844058990478515625</LatitudeDegrees>
              <LongitudeDegrees>37.07629079930484294891357421875</LongitudeDegrees>
            </Position>
            <AltitudeMeters>1634.4000244140625</AltitudeMeters>
            <DistanceMeters>NAN</DistanceMeters>
          </Trackpoint>
          <Trackpoint>
            <Time>2021-08-03T06:32:00.000Z</Time>
            <Position>
              <LatitudeDegrees>-15.3473446704447269439697265625</LatitudeDegrees>
              <LongitudeDegrees>37.07628711126744747161865234375</LongitudeDegrees>
            </Position>
            <AltitudeMeters>1633.5999755859375</AltitudeMeters>
            <DistanceMeters>NAN</DistanceMeters>
          </Trackpoint>
          <Trackpoint>
            <Time>2021-08-03T06:32:02.000Z</Time>
            <Position>
              <LatitudeDegrees>-15.34733905456960201263427734375</LatitudeDegrees>
              <LongitudeDegrees>37.076280154287815093994140625</LongitudeDegrees>
            </Position>
            <AltitudeMeters>1633.199951171875</AltitudeMeters>
            <DistanceMeters>NAN</DistanceMeters>
          </Trackpoint>
          <Trackpoint>
            <Time>2021-08-03T06:32:04.000Z</Time>
            <Position>
              <LatitudeDegrees>-15.3473222069442272186279296875</LatitudeDegrees>
              <LongitudeDegrees>37.07626699469983577728271484375</LongitudeDegrees>
            </Position>
            <AltitudeMeters>1632.5999755859375</AltitudeMeters>
            <DistanceMeters>NAN</DistanceMeters>
          </Trackpoint>
          <Trackpoint>
            <Time>2021-08-03T06:32:05.000Z</Time>
            <Position>
              <LatitudeDegrees>-15.34731156192719936370849609375</LatitudeDegrees>
              <LongitudeDegrees>37.0762585289776325225830078125</LongitudeDegrees>
            </Position>
            <AltitudeMeters>1632.5999755859375</AltitudeMeters>
            <DistanceMeters>NAN</DistanceMeters>
          </Trackpoint>
          <Trackpoint>
            <Time>2021-08-03T06:32:06.000Z</Time>
            <Position>
              <LatitudeDegrees>-15.34730368293821811676025390625</LatitudeDegrees>
              <LongitudeDegrees>37.0762489736080169677734375</LongitudeDegrees>
            </Position>
            <AltitudeMeters>1631.199951171875</AltitudeMeters>
            <DistanceMeters>NAN</DistanceMeters>
          </Trackpoint>
          <Trackpoint>
            <Time>2021-08-03T06:32:07.000Z</Time>
            <Position>
              <LatitudeDegrees>-15.3472963906824588775634765625</LatitudeDegrees>
              <LongitudeDegrees>37.0762417651712894439697265625</LongitudeDegrees>
            </Position>
            <AltitudeMeters>1631</AltitudeMeters>
            <DistanceMeters>NAN</DistanceMeters>
          </Trackpoint>
          <Trackpoint>
            <Time>2021-08-03T06:32:09.000Z</Time>
            <Position>
              <LatitudeDegrees>-15.34728406928479671478271484375</LatitudeDegrees>
              <LongitudeDegrees>37.07623179070651531219482421875</LongitudeDegrees>
            </Position>
            <AltitudeMeters>1630.199951171875</AltitudeMeters>
            <DistanceMeters>NAN</DistanceMeters>
          </Trackpoint>
          <Trackpoint>
            <Time>2021-08-03T06:32:10.000Z</Time>
            <Position>
              <LatitudeDegrees>-15.3472756035625934600830078125</LatitudeDegrees>
              <LongitudeDegrees>37.07623044960200786590576171875</LongitudeDegrees>
            </Position>
            <AltitudeMeters>1630.199951171875</AltitudeMeters>
            <DistanceMeters>NAN</DistanceMeters>
          </Trackpoint>
          <Trackpoint>
            <Time>2021-08-03T06:32:14.000Z</Time>
            <Position>
              <LatitudeDegrees>-15.3472323529422283172607421875</LatitudeDegrees>
              <LongitudeDegrees>37.0762223191559314727783203125</LongitudeDegrees>
            </Position>
            <AltitudeMeters>1628.199951171875</AltitudeMeters>
            <DistanceMeters>NAN</DistanceMeters>
          </Trackpoint>
          <Trackpoint>
            <Time>2021-08-03T06:32:17.000Z</Time>
            <Position>
              <LatitudeDegrees>-15.34722154028713703155517578125</LatitudeDegrees>
              <LongitudeDegrees>37.07620932720601558685302734375</LongitudeDegrees>
            </Position>
            <AltitudeMeters>1627.5999755859375</AltitudeMeters>
            <DistanceMeters>NAN</DistanceMeters>
          </Trackpoint>
          <Trackpoint>
            <Time>2021-08-03T06:32:18.000Z</Time>
            <Position>
              <LatitudeDegrees>-15.3472162596881389617919921875</LatitudeDegrees>
              <LongitudeDegrees>37.07619943656027317047119140625</LongitudeDegrees>
            </Position>
            <AltitudeMeters>1627</AltitudeMeters>
            <DistanceMeters>NAN</DistanceMeters>
          </Trackpoint>
          <Trackpoint>
            <Time>2021-08-03T06:32:22.000Z</Time>
            <Position>
              <LatitudeDegrees>-15.34720477648079395294189453125</LatitudeDegrees>
              <LongitudeDegrees>37.07618015818297863006591796875</LongitudeDegrees>
            </Position>
            <AltitudeMeters>1625.5999755859375</AltitudeMeters>
            <DistanceMeters>NAN</DistanceMeters>
          </Trackpoint>
          <Trackpoint>
            <Time>2021-08-03T06:32:28.000Z</Time>
            <Position>
              <LatitudeDegrees>-15.34718298353254795074462890625</LatitudeDegrees>
              <LongitudeDegrees>37.07617211155593395233154296875</LongitudeDegrees>
            </Position>
            <AltitudeMeters>1624.4000244140625</AltitudeMeters>
            <DistanceMeters>NAN</DistanceMeters>
          </Trackpoint>
          <Trackpoint>
            <Time>2021-08-03T06:32:30.000Z</Time>
            <Position>
              <LatitudeDegrees>-15.347165130078792572021484375</LatitudeDegrees>
              <LongitudeDegrees>37.07617529667913913726806640625</LongitudeDegrees>
            </Position>
            <AltitudeMeters>1623.4000244140625</AltitudeMeters>
            <DistanceMeters>NAN</DistanceMeters>
          </Trackpoint>
          <Trackpoint>
            <Time>2021-08-03T06:32:31.000Z</Time>
            <Position>
              <LatitudeDegrees>-15.3471614420413970947265625</LatitudeDegrees>
              <LongitudeDegrees>37.076179571449756622314453125</LongitudeDegrees>
            </Position>
            <AltitudeMeters>1623.199951171875</AltitudeMeters>
            <DistanceMeters>NAN</DistanceMeters>
          </Trackpoint>
          <Trackpoint>
            <Time>2021-08-03T06:32:33.000Z</Time>
            <Position>
              <LatitudeDegrees>-15.347149036824703216552734375</LatitudeDegrees>
              <LongitudeDegrees>37.076183594763278961181640625</LongitudeDegrees>
            </Position>
            <AltitudeMeters>1622.199951171875</AltitudeMeters>
            <DistanceMeters>NAN</DistanceMeters>
          </Trackpoint>
          <Trackpoint>
            <Time>2021-08-03T06:32:34.000Z</Time>
            <Position>
              <LatitudeDegrees>-15.34714777953922748565673828125</LatitudeDegrees>
              <LongitudeDegrees>37.07617898471653461456298828125</LongitudeDegrees>
            </Position>
            <AltitudeMeters>1622</AltitudeMeters>
            <DistanceMeters>NAN</DistanceMeters>
          </Trackpoint>
          <Trackpoint>
            <Time>2021-08-03T06:32:39.000Z</Time>
            <Position>
              <LatitudeDegrees>-15.34713554196059703826904296875</LatitudeDegrees>
              <LongitudeDegrees>37.0761639811098575592041015625</LongitudeDegrees>
            </Position>
            <AltitudeMeters>1621.199951171875</AltitudeMeters>
            <DistanceMeters>NAN</DistanceMeters>
          </Trackpoint>
          <Trackpoint>
            <Time>2021-08-03T06:32:41.000Z</Time>
            <Position>
              <LatitudeDegrees>-15.34712615422904491424560546875</LatitudeDegrees>
              <LongitudeDegrees>37.0761616341769695281982421875</LongitudeDegrees>
            </Position>
            <AltitudeMeters>1620</AltitudeMeters>
            <DistanceMeters>NAN</DistanceMeters>
          </Trackpoint>
          <Trackpoint>
            <Time>2021-08-03T06:32:42.000Z</Time>
            <Position>
              <LatitudeDegrees>-15.34711877815425395965576171875</LatitudeDegrees>
              <LongitudeDegrees>37.076160795986652374267578125</LongitudeDegrees>
            </Position>
            <AltitudeMeters>1620</AltitudeMeters>
            <DistanceMeters>NAN</DistanceMeters>
          </Trackpoint>
          <Trackpoint>
            <Time>2021-08-03T06:32:45.000Z</Time>
            <Position>
              <LatitudeDegrees>-15.34710000269114971160888671875</LatitudeDegrees>
              <LongitudeDegrees>37.07614637911319732666015625</LongitudeDegrees>
            </Position>
            <AltitudeMeters>1618.800048828125</AltitudeMeters>
            <DistanceMeters>NAN</DistanceMeters>
          </Trackpoint>
          <Trackpoint>
            <Time>2021-08-03T06:32:48.000Z</Time>
            <Position>
              <LatitudeDegrees>-15.347088016569614410400390625</LatitudeDegrees>
              <LongitudeDegrees>37.07612886093556880950927734375</LongitudeDegrees>
            </Position>
            <AltitudeMeters>1618.199951171875</AltitudeMeters>
            <DistanceMeters>NAN</DistanceMeters>
          </Trackpoint>
          <Trackpoint>
            <Time>2021-08-03T06:32:49.000Z</Time>
            <Position>
              <LatitudeDegrees>-15.34708223305642604827880859375</LatitudeDegrees>
              <LongitudeDegrees>37.07612081430852413177490234375</LongitudeDegrees>
            </Position>
            <AltitudeMeters>1617.199951171875</AltitudeMeters>
            <DistanceMeters>NAN</DistanceMeters>
          </Trackpoint>
          <Trackpoint>
            <Time>2021-08-03T06:32:52.000Z</Time>
            <Position>
              <LatitudeDegrees>-15.347060523927211761474609375</LatitudeDegrees>
              <LongitudeDegrees>37.0761016197502613067626953125</LongitudeDegrees>
            </Position>
            <AltitudeMeters>1615.5999755859375</AltitudeMeters>
            <DistanceMeters>NAN</DistanceMeters>
          </Trackpoint>
          <Trackpoint>
            <Time>2021-08-03T06:32:53.000Z</Time>
            <Position>
              <LatitudeDegrees>-15.34705708734691143035888671875</LatitudeDegrees>
              <LongitudeDegrees>37.0760945789515972137451171875</LongitudeDegrees>
            </Position>
            <AltitudeMeters>1615.199951171875</AltitudeMeters>
            <DistanceMeters>NAN</DistanceMeters>
          </Trackpoint>
          <Trackpoint>
            <Time>2021-08-03T06:32:55.000Z</Time>
            <Position>
              <LatitudeDegrees>-15.34704736433923244476318359375</LatitudeDegrees>
              <LongitudeDegrees>37.076085694134235382080078125</LongitudeDegrees>
            </Position>
            <AltitudeMeters>1614</AltitudeMeters>
            <DistanceMeters>NAN</DistanceMeters>
          </Trackpoint>
          <Trackpoint>
            <Time>2021-08-03T06:32:57.000Z</Time>
            <Position>
              <LatitudeDegrees>-15.347034037113189697265625</LatitudeDegrees>
              <LongitudeDegrees>37.076084353029727935791015625</LongitudeDegrees>
            </Position>
            <AltitudeMeters>1613</AltitudeMeters>
            <DistanceMeters>NAN</DistanceMeters>
          </Trackpoint>
          <Trackpoint>
            <Time>2021-08-03T06:33:00.000Z</Time>
            <Position>
              <LatitudeDegrees>-15.347012914717197418212890625</LatitudeDegrees>
              <LongitudeDegrees>37.0760627277195453643798828125</LongitudeDegrees>
            </Position>
            <AltitudeMeters>1612.5999755859375</AltitudeMeters>
            <DistanceMeters>NAN</DistanceMeters>
          </Trackpoint>
          <Trackpoint>
            <Time>2021-08-03T06:33:02.000Z</Time>
            <Position>
              <LatitudeDegrees>-15.34700478427112102508544921875</LatitudeDegrees>
              <LongitudeDegrees>37.07604755647480487823486328125</LongitudeDegrees>
            </Position>
            <AltitudeMeters>1611.199951171875</AltitudeMeters>
            <DistanceMeters>NAN</DistanceMeters>
          </Trackpoint>
          <Trackpoint>
            <Time>2021-08-03T06:33:05.000Z</Time>
            <Position>
              <LatitudeDegrees>-15.3469916246831417083740234375</LatitudeDegrees>
              <LongitudeDegrees>37.07601671107113361358642578125</LongitudeDegrees>
            </Position>
            <AltitudeMeters>1609</AltitudeMeters>
            <DistanceMeters>NAN</DistanceMeters>
          </Trackpoint>
          <Trackpoint>
            <Time>2021-08-03T06:33:06.000Z</Time>
            <Position>
              <LatitudeDegrees>-15.34698215313255786895751953125</LatitudeDegrees>
              <LongitudeDegrees>37.07601436413824558258056640625</LongitudeDegrees>
            </Position>
            <AltitudeMeters>1607.800048828125</AltitudeMeters>
            <DistanceMeters>NAN</DistanceMeters>
          </Trackpoint>
          <Trackpoint>
            <Time>2021-08-03T06:33:07.000Z</Time>
            <Position>
              <LatitudeDegrees>-15.34697025083005428314208984375</LatitudeDegrees>
              <LongitudeDegrees>37.07601469941437244415283203125</LongitudeDegrees>
            </Position>
            <AltitudeMeters>1607.5999755859375</AltitudeMeters>
            <DistanceMeters>NAN</DistanceMeters>
          </Trackpoint>
          <Trackpoint>
            <Time>2021-08-03T06:33:09.000Z</Time>
            <Position>
              <LatitudeDegrees>-15.34693571738898754119873046875</LatitudeDegrees>
              <LongitudeDegrees>37.0760238356888294219970703125</LongitudeDegrees>
            </Position>
            <AltitudeMeters>1605.4000244140625</AltitudeMeters>
            <DistanceMeters>NAN</DistanceMeters>
          </Trackpoint>
          <Trackpoint>
            <Time>2021-08-03T06:33:12.000Z</Time>
            <Position>
              <LatitudeDegrees>-15.34690797328948974609375</LatitudeDegrees>
              <LongitudeDegrees>37.076028026640415191650390625</LongitudeDegrees>
            </Position>
            <AltitudeMeters>1605</AltitudeMeters>
            <DistanceMeters>NAN</DistanceMeters>
          </Trackpoint>
          <Trackpoint>
            <Time>2021-08-03T06:33:16.000Z</Time>
            <Position>
              <LatitudeDegrees>-15.3469037823379039764404296875</LatitudeDegrees>
              <LongitudeDegrees>37.076030708849430084228515625</LongitudeDegrees>
            </Position>
            <AltitudeMeters>1604.5999755859375</AltitudeMeters>
            <DistanceMeters>NAN</DistanceMeters>
          </Trackpoint>
          <Trackpoint>
            <Time>2021-08-03T06:33:17.000Z</Time>
            <Position>
              <LatitudeDegrees>-15.34690168686211109161376953125</LatitudeDegrees>
              <LongitudeDegrees>37.0760295353829860687255859375</LongitudeDegrees>
            </Position>
            <AltitudeMeters>1604.4000244140625</AltitudeMeters>
            <DistanceMeters>NAN</DistanceMeters>
          </Trackpoint>
          <Trackpoint>
            <Time>2021-08-03T06:33:20.000Z</Time>
            <Position>
              <LatitudeDegrees>-15.3469017706811428070068359375</LatitudeDegrees>
              <LongitudeDegrees>37.076028026640415191650390625</LongitudeDegrees>
            </Position>
            <AltitudeMeters>1604.4000244140625</AltitudeMeters>
            <DistanceMeters>NAN</DistanceMeters>
          </Trackpoint>
          <Trackpoint>
            <Time>2021-08-03T06:33:23.000Z</Time>
            <Position>
              <LatitudeDegrees>-15.34690051339566707611083984375</LatitudeDegrees>
              <LongitudeDegrees>37.07601788453757762908935546875</LongitudeDegrees>
            </Position>
            <AltitudeMeters>1604.199951171875</AltitudeMeters>
            <DistanceMeters>NAN</DistanceMeters>
          </Trackpoint>
          <Trackpoint>
            <Time>2021-08-03T06:33:26.000Z</Time>
            <Position>
              <LatitudeDegrees>-15.3469101525843143463134765625</LatitudeDegrees>
              <LongitudeDegrees>37.07601956091821193695068359375</LongitudeDegrees>
            </Position>
            <AltitudeMeters>1604.199951171875</AltitudeMeters>
            <DistanceMeters>NAN</DistanceMeters>
          </Trackpoint>
          <Trackpoint>
            <Time>2021-08-03T06:33:34.000Z</Time>
            <Position>
              <LatitudeDegrees>-15.34690537489950656890869140625</LatitudeDegrees>
              <LongitudeDegrees>37.076021991670131683349609375</LongitudeDegrees>
            </Position>
            <AltitudeMeters>1604</AltitudeMeters>
            <DistanceMeters>NAN</DistanceMeters>
          </Trackpoint>
          <Trackpoint>
            <Time>2021-08-03T06:33:45.000Z</Time>
            <Position>
              <LatitudeDegrees>-15.3469012677669525146484375</LatitudeDegrees>
              <LongitudeDegrees>37.076021991670131683349609375</LongitudeDegrees>
            </Position>
            <AltitudeMeters>1603.4000244140625</AltitudeMeters>
            <DistanceMeters>NAN</DistanceMeters>
          </Trackpoint>
          <Trackpoint>
            <Time>2021-08-03T06:33:47.000Z</Time>
            <Position>
              <LatitudeDegrees>-15.34688182175159454345703125</LatitudeDegrees>
              <LongitudeDegrees>37.076031379401683807373046875</LongitudeDegrees>
            </Position>
            <AltitudeMeters>1602.199951171875</AltitudeMeters>
            <DistanceMeters>NAN</DistanceMeters>
          </Trackpoint>
          <Trackpoint>
            <Time>2021-08-03T06:33:48.000Z</Time>
            <Position>
              <LatitudeDegrees>-15.346870757639408111572265625</LatitudeDegrees>
              <LongitudeDegrees>37.07603867165744304656982421875</LongitudeDegrees>
            </Position>
            <AltitudeMeters>1602</AltitudeMeters>
            <DistanceMeters>NAN</DistanceMeters>
          </Trackpoint>
          <Trackpoint>
            <Time>2021-08-03T06:33:53.000Z</Time>
            <Position>
              <LatitudeDegrees>-15.34680479206144809722900390625</LatitudeDegrees>
              <LongitudeDegrees>37.076056189835071563720703125</LongitudeDegrees>
            </Position>
            <AltitudeMeters>1600.4000244140625</AltitudeMeters>
            <DistanceMeters>NAN</DistanceMeters>
          </Trackpoint>
          <Trackpoint>
            <Time>2021-08-03T06:33:55.000Z</Time>
            <Position>
              <LatitudeDegrees>-15.34677729941904544830322265625</LatitudeDegrees>
              <LongitudeDegrees>37.07606398500502109527587890625</LongitudeDegrees>
            </Position>
            <AltitudeMeters>1599.4000244140625</AltitudeMeters>
            <DistanceMeters>NAN</DistanceMeters>
          </Trackpoint>
          <Trackpoint>
            <Time>2021-08-03T06:33:59.000Z</Time>
            <Position>
              <LatitudeDegrees>-15.3467284329235553741455078125</LatitudeDegrees>
              <LongitudeDegrees>37.07607756368815898895263671875</LongitudeDegrees>
            </Position>
            <AltitudeMeters>1598</AltitudeMeters>
            <DistanceMeters>NAN</DistanceMeters>
          </Trackpoint>
          <Trackpoint>
            <Time>2021-08-03T06:34:02.000Z</Time>
            <Position>
              <LatitudeDegrees>-15.34668560139834880828857421875</LatitudeDegrees>
              <LongitudeDegrees>37.07607622258365154266357421875</LongitudeDegrees>
            </Position>
            <AltitudeMeters>1596.800048828125</AltitudeMeters>
            <DistanceMeters>NAN</DistanceMeters>
          </Trackpoint>
          <Trackpoint>
            <Time>2021-08-03T06:34:03.000Z</Time>
            <Position>
              <LatitudeDegrees>-15.3466737829148769378662109375</LatitudeDegrees>
              <LongitudeDegrees>37.0760746300220489501953125</LongitudeDegrees>
            </Position>
            <AltitudeMeters>1595.5999755859375</AltitudeMeters>
            <DistanceMeters>NAN</DistanceMeters>
          </Trackpoint>
          <Trackpoint>
            <Time>2021-08-03T06:34:05.000Z</Time>
            <Position>
              <LatitudeDegrees>-15.346650145947933197021484375</LatitudeDegrees>
              <LongitudeDegrees>37.07607236690819263458251953125</LongitudeDegrees>
            </Position>
            <AltitudeMeters>1594.5999755859375</AltitudeMeters>
            <DistanceMeters>NAN</DistanceMeters>
          </Trackpoint>
          <Trackpoint>
            <Time>2021-08-03T06:34:06.000Z</Time>
            <Position>
              <LatitudeDegrees>-15.34664042294025421142578125</LatitudeDegrees>
              <LongitudeDegrees>37.07606884650886058807373046875</LongitudeDegrees>
            </Position>
            <AltitudeMeters>1594.4000244140625</AltitudeMeters>
            <DistanceMeters>NAN</DistanceMeters>
          </Trackpoint>
          <Trackpoint>
            <Time>2021-08-03T06:34:08.000Z</Time>
            <Position>
              <LatitudeDegrees>-15.3466127626597881317138671875</LatitudeDegrees>
              <LongitudeDegrees>37.07607253454625606536865234375</LongitudeDegrees>
            </Position>
            <AltitudeMeters>1593.4000244140625</AltitudeMeters>
            <DistanceMeters>NAN</DistanceMeters>
          </Trackpoint>
          <Trackpoint>
            <Time>2021-08-03T06:34:09.000Z</Time>
            <Position>
              <LatitudeDegrees>-15.34660018980503082275390625</LatitudeDegrees>
              <LongitudeDegrees>37.0760768093168735504150390625</LongitudeDegrees>
            </Position>
            <AltitudeMeters>1592.5999755859375</AltitudeMeters>
            <DistanceMeters>NAN</DistanceMeters>
          </Trackpoint>
          <Trackpoint>
            <Time>2021-08-03T06:34:11.000Z</Time>
            <Position>
              <LatitudeDegrees>-15.34657546319067478179931640625</LatitudeDegrees>
              <LongitudeDegrees>37.07608041353523731231689453125</LongitudeDegrees>
            </Position>
            <AltitudeMeters>1591.199951171875</AltitudeMeters>
            <DistanceMeters>NAN</DistanceMeters>
          </Trackpoint>
          <Trackpoint>
            <Time>2021-08-03T06:34:14.000Z</Time>
            <Position>
              <LatitudeDegrees>-15.34654092974960803985595703125</LatitudeDegrees>
              <LongitudeDegrees>37.07608401775360107421875</LongitudeDegrees>
            </Position>
            <AltitudeMeters>1590.199951171875</AltitudeMeters>
            <DistanceMeters>NAN</DistanceMeters>
          </Trackpoint>
          <Trackpoint>
            <Time>2021-08-03T06:34:16.000Z</Time>
            <Position>
              <LatitudeDegrees>-15.34651167690753936767578125</LatitudeDegrees>
              <LongitudeDegrees>37.07608846016228199005126953125</LongitudeDegrees>
            </Position>
            <AltitudeMeters>1589</AltitudeMeters>
            <DistanceMeters>NAN</DistanceMeters>
          </Trackpoint>
          <Trackpoint>
            <Time>2021-08-03T06:34:19.000Z</Time>
            <Position>
              <LatitudeDegrees>-15.34647907130420207977294921875</LatitudeDegrees>
              <LongitudeDegrees>37.0760855264961719512939453125</LongitudeDegrees>
            </Position>
            <AltitudeMeters>1588</AltitudeMeters>
            <DistanceMeters>NAN</DistanceMeters>
          </Trackpoint>
          <Trackpoint>
            <Time>2021-08-03T06:34:22.000Z</Time>
            <Position>
              <LatitudeDegrees>-15.3464457951486110687255859375</LatitudeDegrees>
              <LongitudeDegrees>37.07607957534492015838623046875</LongitudeDegrees>
            </Position>
            <AltitudeMeters>1586.800048828125</AltitudeMeters>
            <DistanceMeters>NAN</DistanceMeters>
          </Trackpoint>
          <Trackpoint>
            <Time>2021-08-03T06:34:24.000Z</Time>
            <Position>
              <LatitudeDegrees>-15.3464238345623016357421875</LatitudeDegrees>
              <LongitudeDegrees>37.0760734565556049346923828125</LongitudeDegrees>
            </Position>
            <AltitudeMeters>1585.199951171875</AltitudeMeters>
            <DistanceMeters>NAN</DistanceMeters>
          </Trackpoint>
          <Trackpoint>
            <Time>2021-08-03T06:34:25.000Z</Time>
            <Position>
              <LatitudeDegrees>-15.34641302190721035003662109375</LatitudeDegrees>
              <LongitudeDegrees>37.07606767304241657257080078125</LongitudeDegrees>
            </Position>
            <AltitudeMeters>1584.5999755859375</AltitudeMeters>
            <DistanceMeters>NAN</DistanceMeters>
          </Trackpoint>
          <Trackpoint>
            <Time>2021-08-03T06:34:27.000Z</Time>
            <Position>
              <LatitudeDegrees>-15.34639055840671062469482421875</LatitudeDegrees>
              <LongitudeDegrees>37.076060213148593902587890625</LongitudeDegrees>
            </Position>
            <AltitudeMeters>1583.5999755859375</AltitudeMeters>
            <DistanceMeters>NAN</DistanceMeters>
          </Trackpoint>
          <Trackpoint>
            <Time>2021-08-03T06:34:29.000Z</Time>
            <Position>
              <LatitudeDegrees>-15.34637580625712871551513671875</LatitudeDegrees>
              <LongitudeDegrees>37.0760612189769744873046875</LongitudeDegrees>
            </Position>
            <AltitudeMeters>1582.4000244140625</AltitudeMeters>
            <DistanceMeters>NAN</DistanceMeters>
          </Trackpoint>
          <Trackpoint>
            <Time>2021-08-03T06:34:31.000Z</Time>
            <Position>
              <LatitudeDegrees>-15.34636306576430797576904296875</LatitudeDegrees>
              <LongitudeDegrees>37.076059542596340179443359375</LongitudeDegrees>
            </Position>
            <AltitudeMeters>1582</AltitudeMeters>
            <DistanceMeters>NAN</DistanceMeters>
          </Trackpoint>
          <Trackpoint>
            <Time>2021-08-03T06:34:32.000Z</Time>
            <Position>
              <LatitudeDegrees>-15.3463542647659778594970703125</LatitudeDegrees>
              <LongitudeDegrees>37.0760570280253887176513671875</LongitudeDegrees>
            </Position>
            <AltitudeMeters>1581.5999755859375</AltitudeMeters>
            <DistanceMeters>NAN</DistanceMeters>
          </Trackpoint>
          <Trackpoint>
            <Time>2021-08-03T06:34:33.000Z</Time>
            <Position>
              <LatitudeDegrees>-15.3463433682918548583984375</LatitudeDegrees>
              <LongitudeDegrees>37.0760550163686275482177734375</LongitudeDegrees>
            </Position>
            <AltitudeMeters>1581</AltitudeMeters>
            <DistanceMeters>NAN</DistanceMeters>
          </Trackpoint>
          <Trackpoint>
            <Time>2021-08-03T06:34:34.000Z</Time>
            <Position>
              <LatitudeDegrees>-15.3463338129222393035888671875</LatitudeDegrees>
              <LongitudeDegrees>37.0760536752641201019287109375</LongitudeDegrees>
            </Position>
            <AltitudeMeters>1580</AltitudeMeters>
            <DistanceMeters>NAN</DistanceMeters>
          </Trackpoint>
          <Trackpoint>
            <Time>2021-08-03T06:34:36.000Z</Time>
            <Position>
              <LatitudeDegrees>-15.34630841575562953948974609375</LatitudeDegrees>
              <LongitudeDegrees>37.0760580338537693023681640625</LongitudeDegrees>
            </Position>
            <AltitudeMeters>1579.5999755859375</AltitudeMeters>
            <DistanceMeters>NAN</DistanceMeters>
          </Trackpoint>
          <Trackpoint>
            <Time>2021-08-03T06:34:37.000Z</Time>
            <Position>
              <LatitudeDegrees>-15.34629684872925281524658203125</LatitudeDegrees>
              <LongitudeDegrees>37.07605962641537189483642578125</LongitudeDegrees>
            </Position>
            <AltitudeMeters>1578.800048828125</AltitudeMeters>
            <DistanceMeters>NAN</DistanceMeters>
          </Trackpoint>
          <Trackpoint>
            <Time>2021-08-03T06:34:39.000Z</Time>
            <Position>
              <LatitudeDegrees>-15.346272625029087066650390625</LatitudeDegrees>
              <LongitudeDegrees>37.0760593749582767486572265625</LongitudeDegrees>
            </Position>
            <AltitudeMeters>1578.199951171875</AltitudeMeters>
            <DistanceMeters>NAN</DistanceMeters>
          </Trackpoint>
          <Trackpoint>
            <Time>2021-08-03T06:34:40.000Z</Time>
            <Position>
              <LatitudeDegrees>-15.34625845961272716522216796875</LatitudeDegrees>
              <LongitudeDegrees>37.07606096751987934112548828125</LongitudeDegrees>
            </Position>
            <AltitudeMeters>1577.199951171875</AltitudeMeters>
            <DistanceMeters>NAN</DistanceMeters>
          </Trackpoint>
          <Trackpoint>
            <Time>2021-08-03T06:34:42.000Z</Time>
            <Position>
              <LatitudeDegrees>-15.34623851068317890167236328125</LatitudeDegrees>
              <LongitudeDegrees>37.07606649957597255706787109375</LongitudeDegrees>
            </Position>
            <AltitudeMeters>1575.4000244140625</AltitudeMeters>
            <DistanceMeters>NAN</DistanceMeters>
          </Trackpoint>
          <Trackpoint>
            <Time>2021-08-03T06:34:45.000Z</Time>
            <Position>
              <LatitudeDegrees>-15.3462315537035465240478515625</LatitudeDegrees>
              <LongitudeDegrees>37.07606381736695766448974609375</LongitudeDegrees>
            </Position>
            <AltitudeMeters>1574.800048828125</AltitudeMeters>
            <DistanceMeters>NAN</DistanceMeters>
          </Trackpoint>
          <Trackpoint>
            <Time>2021-08-03T06:34:48.000Z</Time>
            <Position>
              <LatitudeDegrees>-15.3462280333042144775390625</LatitudeDegrees>
              <LongitudeDegrees>37.0760600455105304718017578125</LongitudeDegrees>
            </Position>
            <AltitudeMeters>1574.5999755859375</AltitudeMeters>
            <DistanceMeters>NAN</DistanceMeters>
          </Trackpoint>
          <Trackpoint>
            <Time>2021-08-03T06:34:50.000Z</Time>
            <Position>
              <LatitudeDegrees>-15.34623029641807079315185546875</LatitudeDegrees>
              <LongitudeDegrees>37.076053507626056671142578125</LongitudeDegrees>
            </Position>
            <AltitudeMeters>1574.5999755859375</AltitudeMeters>
            <DistanceMeters>NAN</DistanceMeters>
          </Trackpoint>
          <Trackpoint>
            <Time>2021-08-03T06:34:56.000Z</Time>
            <Position>
              <LatitudeDegrees>-15.34621738828718662261962890625</LatitudeDegrees>
              <LongitudeDegrees>37.07605593837797641754150390625</LongitudeDegrees>
            </Position>
            <AltitudeMeters>1574.4000244140625</AltitudeMeters>
            <DistanceMeters>NAN</DistanceMeters>
          </Trackpoint>
          <Trackpoint>
            <Time>2021-08-03T06:34:59.000Z</Time>
            <Position>
              <LatitudeDegrees>-15.34620682708919048309326171875</LatitudeDegrees>
              <LongitudeDegrees>37.076061554253101348876953125</LongitudeDegrees>
            </Position>
            <AltitudeMeters>1574.5999755859375</AltitudeMeters>
            <DistanceMeters>NAN</DistanceMeters>
          </Trackpoint>
          <Trackpoint>
            <Time>2021-08-03T06:35:01.000Z</Time>
            <Position>
              <LatitudeDegrees>-15.34619660116732120513916015625</LatitudeDegrees>
              <LongitudeDegrees>37.07606432028114795684814453125</LongitudeDegrees>
            </Position>
            <AltitudeMeters>1574.4000244140625</AltitudeMeters>
            <DistanceMeters>NAN</DistanceMeters>
          </Trackpoint>
          <Trackpoint>
            <Time>2021-08-03T06:35:05.000Z</Time>
            <Position>
              <LatitudeDegrees>-15.3461824357509613037109375</LatitudeDegrees>
              <LongitudeDegrees>37.07607152871787548065185546875</LongitudeDegrees>
            </Position>
            <AltitudeMeters>1573.800048828125</AltitudeMeters>
            <DistanceMeters>NAN</DistanceMeters>
          </Trackpoint>
          <Trackpoint>
            <Time>2021-08-03T06:35:06.000Z</Time>
            <Position>
              <LatitudeDegrees>-15.346178077161312103271484375</LatitudeDegrees>
              <LongitudeDegrees>37.0760697685182094573974609375</LongitudeDegrees>
            </Position>
            <AltitudeMeters>1573</AltitudeMeters>
            <DistanceMeters>NAN</DistanceMeters>
          </Trackpoint>
          <Trackpoint>
            <Time>2021-08-03T06:35:10.000Z</Time>
            <Position>
              <LatitudeDegrees>-15.34615737386047840118408203125</LatitudeDegrees>
              <LongitudeDegrees>37.07607069052755832672119140625</LongitudeDegrees>
            </Position>
            <AltitudeMeters>1572</AltitudeMeters>
            <DistanceMeters>NAN</DistanceMeters>
          </Trackpoint>
          <Trackpoint>
            <Time>2021-08-03T06:35:11.000Z</Time>
            <Position>
              <LatitudeDegrees>-15.34615016542375087738037109375</LatitudeDegrees>
              <LongitudeDegrees>37.07606968469917774200439453125</LongitudeDegrees>
            </Position>
            <AltitudeMeters>1571.800048828125</AltitudeMeters>
            <DistanceMeters>NAN</DistanceMeters>
          </Trackpoint>
          <Trackpoint>
            <Time>2021-08-03T06:35:15.000Z</Time>
            <Position>
              <LatitudeDegrees>-15.34612451680004596710205078125</LatitudeDegrees>
              <LongitudeDegrees>37.0760610513389110565185546875</LongitudeDegrees>
            </Position>
            <AltitudeMeters>1570.5999755859375</AltitudeMeters>
            <DistanceMeters>NAN</DistanceMeters>
          </Trackpoint>
          <Trackpoint>
            <Time>2021-08-03T06:35:18.000Z</Time>
            <Position>
              <LatitudeDegrees>-15.34612116403877735137939453125</LatitudeDegrees>
              <LongitudeDegrees>37.07605476491153240203857421875</LongitudeDegrees>
            </Position>
            <AltitudeMeters>1570.4000244140625</AltitudeMeters>
            <DistanceMeters>NAN</DistanceMeters>
          </Trackpoint>
          <Trackpoint>
            <Time>2021-08-03T06:35:25.000Z</Time>
            <Position>
              <LatitudeDegrees>-15.34612275660037994384765625</LatitudeDegrees>
              <LongitudeDegrees>37.07604655064642429351806640625</LongitudeDegrees>
            </Position>
            <AltitudeMeters>1570.800048828125</AltitudeMeters>
            <DistanceMeters>NAN</DistanceMeters>
          </Trackpoint>
          <Trackpoint>
            <Time>2021-08-03T06:35:26.000Z</Time>
            <Position>
              <LatitudeDegrees>-15.34612166695296764373779296875</LatitudeDegrees>
              <LongitudeDegrees>37.0760483108460903167724609375</LongitudeDegrees>
            </Position>
            <AltitudeMeters>1570.5999755859375</AltitudeMeters>
            <DistanceMeters>NAN</DistanceMeters>
          </Trackpoint>
          <Trackpoint>
            <Time>2021-08-03T06:35:35.000Z</Time>
            <Position>
              <LatitudeDegrees>-15.3461266122758388519287109375</LatitudeDegrees>
              <LongitudeDegrees>37.07604051567614078521728515625</LongitudeDegrees>
            </Position>
            <AltitudeMeters>1570.5999755859375</AltitudeMeters>
            <DistanceMeters>NAN</DistanceMeters>
          </Trackpoint>
          <Trackpoint>
            <Time>2021-08-03T06:35:46.000Z</Time>
            <Position>
              <LatitudeDegrees>-15.3461266122758388519287109375</LatitudeDegrees>
              <LongitudeDegrees>37.076041437685489654541015625</LongitudeDegrees>
            </Position>
            <AltitudeMeters>1570.199951171875</AltitudeMeters>
            <DistanceMeters>NAN</DistanceMeters>
          </Trackpoint>
          <Trackpoint>
            <Time>2021-08-03T06:35:48.000Z</Time>
            <Position>
              <LatitudeDegrees>-15.34612418152391910552978515625</LatitudeDegrees>
              <LongitudeDegrees>37.07604068331420421600341796875</LongitudeDegrees>
            </Position>
            <AltitudeMeters>1570</AltitudeMeters>
            <DistanceMeters>NAN</DistanceMeters>
          </Trackpoint>
          <Trackpoint>
            <Time>2021-08-03T06:35:49.000Z</Time>
            <Position>
              <LatitudeDegrees>-15.34611311741173267364501953125</LatitudeDegrees>
              <LongitudeDegrees>37.07603598944842815399169921875</LongitudeDegrees>
            </Position>
            <AltitudeMeters>1569.4000244140625</AltitudeMeters>
            <DistanceMeters>NAN</DistanceMeters>
          </Trackpoint>
          <Trackpoint>
            <Time>2021-08-03T06:35:51.000Z</Time>
            <Position>
              <LatitudeDegrees>-15.346084870398044586181640625</LatitudeDegrees>
              <LongitudeDegrees>37.0760288648307323455810546875</LongitudeDegrees>
            </Position>
            <AltitudeMeters>1568.199951171875</AltitudeMeters>
            <DistanceMeters>NAN</DistanceMeters>
          </Trackpoint>
          <Trackpoint>
            <Time>2021-08-03T06:35:52.000Z</Time>
            <Position>
              <LatitudeDegrees>-15.346069447696208953857421875</LatitudeDegrees>
              <LongitudeDegrees>37.076024003326892852783203125</LongitudeDegrees>
            </Position>
            <AltitudeMeters>1568.199951171875</AltitudeMeters>
            <DistanceMeters>NAN</DistanceMeters>
          </Trackpoint>
          <Trackpoint>
            <Time>2021-08-03T06:35:54.000Z</Time>
            <Position>
              <LatitudeDegrees>-15.3460377641022205352783203125</LatitudeDegrees>
              <LongitudeDegrees>37.07602023147046566009521484375</LongitudeDegrees>
            </Position>
            <AltitudeMeters>1567</AltitudeMeters>
            <DistanceMeters>NAN</DistanceMeters>
          </Trackpoint>
          <Trackpoint>
            <Time>2021-08-03T06:35:56.000Z</Time>
            <Position>
              <LatitudeDegrees>-15.34601018764078617095947265625</LatitudeDegrees>
              <LongitudeDegrees>37.0760167948901653289794921875</LongitudeDegrees>
            </Position>
            <AltitudeMeters>1565.4000244140625</AltitudeMeters>
            <DistanceMeters>NAN</DistanceMeters>
          </Trackpoint>
          <Trackpoint>
            <Time>2021-08-03T06:35:59.000Z</Time>
            <Position>
              <LatitudeDegrees>-15.3459730558097362518310546875</LatitudeDegrees>
              <LongitudeDegrees>37.07600564695894718170166015625</LongitudeDegrees>
            </Position>
            <AltitudeMeters>1564</AltitudeMeters>
            <DistanceMeters>NAN</DistanceMeters>
          </Trackpoint>
          <Trackpoint>
            <Time>2021-08-03T06:36:00.000Z</Time>
            <Position>
              <LatitudeDegrees>-15.34596039913594722747802734375</LatitudeDegrees>
              <LongitudeDegrees>37.0759990252554416656494140625</LongitudeDegrees>
            </Position>
            <AltitudeMeters>1563.5999755859375</AltitudeMeters>
            <DistanceMeters>NAN</DistanceMeters>
          </Trackpoint>
          <Trackpoint>
            <Time>2021-08-03T06:36:01.000Z</Time>
            <Position>
              <LatitudeDegrees>-15.34594665281474590301513671875</LatitudeDegrees>
              <LongitudeDegrees>37.07599617540836334228515625</LongitudeDegrees>
            </Position>
            <AltitudeMeters>1562.199951171875</AltitudeMeters>
            <DistanceMeters>NAN</DistanceMeters>
          </Trackpoint>
          <Trackpoint>
            <Time>2021-08-03T06:36:03.000Z</Time>
            <Position>
              <LatitudeDegrees>-15.34592251293361186981201171875</LatitudeDegrees>
              <LongitudeDegrees>37.07599927671253681182861328125</LongitudeDegrees>
            </Position>
            <AltitudeMeters>1561.199951171875</AltitudeMeters>
            <DistanceMeters>NAN</DistanceMeters>
          </Trackpoint>
          <Trackpoint>
            <Time>2021-08-03T06:36:05.000Z</Time>
            <Position>
              <LatitudeDegrees>-15.34589837305247783660888671875</LatitudeDegrees>
              <LongitudeDegrees>37.07599483430385589599609375</LongitudeDegrees>
            </Position>
            <AltitudeMeters>1560</AltitudeMeters>
            <DistanceMeters>NAN</DistanceMeters>
          </Trackpoint>
          <Trackpoint>
            <Time>2021-08-03T06:36:06.000Z</Time>
            <Position>
              <LatitudeDegrees>-15.34588311798870563507080078125</LatitudeDegrees>
              <LongitudeDegrees>37.0759916491806507110595703125</LongitudeDegrees>
            </Position>
            <AltitudeMeters>1559.800048828125</AltitudeMeters>
            <DistanceMeters>NAN</DistanceMeters>
          </Trackpoint>
          <Trackpoint>
            <Time>2021-08-03T06:36:08.000Z</Time>
            <Position>
              <LatitudeDegrees>-15.34584590233862400054931640625</LatitudeDegrees>
              <LongitudeDegrees>37.075982429087162017822265625</LongitudeDegrees>
            </Position>
            <AltitudeMeters>1558.199951171875</AltitudeMeters>
            <DistanceMeters>NAN</DistanceMeters>
          </Trackpoint>
          <Trackpoint>
            <Time>2021-08-03T06:36:10.000Z</Time>
            <Position>
              <LatitudeDegrees>-15.34581019543111324310302734375</LatitudeDegrees>
              <LongitudeDegrees>37.07597865723073482513427734375</LongitudeDegrees>
            </Position>
            <AltitudeMeters>1556.199951171875</AltitudeMeters>
            <DistanceMeters>NAN</DistanceMeters>
          </Trackpoint>
          <Trackpoint>
            <Time>2021-08-03T06:36:11.000Z</Time>
            <Position>
              <LatitudeDegrees>-15.34579150378704071044921875</LatitudeDegrees>
              <LongitudeDegrees>37.07598418928682804107666015625</LongitudeDegrees>
            </Position>
            <AltitudeMeters>1555.199951171875</AltitudeMeters>
            <DistanceMeters>NAN</DistanceMeters>
          </Trackpoint>
          <Trackpoint>
            <Time>2021-08-03T06:36:12.000Z</Time>
            <Position>
              <LatitudeDegrees>-15.345771051943302154541015625</LatitudeDegrees>
              <LongitudeDegrees>37.07599081099033355712890625</LongitudeDegrees>
            </Position>
            <AltitudeMeters>1555</AltitudeMeters>
            <DistanceMeters>NAN</DistanceMeters>
          </Trackpoint>
          <Trackpoint>
            <Time>2021-08-03T06:36:13.000Z</Time>
            <Position>
              <LatitudeDegrees>-15.34575236029922962188720703125</LatitudeDegrees>
              <LongitudeDegrees>37.07599441520869731903076171875</LongitudeDegrees>
            </Position>
            <AltitudeMeters>1553.5999755859375</AltitudeMeters>
            <DistanceMeters>NAN</DistanceMeters>
          </Trackpoint>
          <Trackpoint>
            <Time>2021-08-03T06:36:14.000Z</Time>
            <Position>
              <LatitudeDegrees>-15.3457316569983959197998046875</LatitudeDegrees>
              <LongitudeDegrees>37.07599676214158535003662109375</LongitudeDegrees>
            </Position>
            <AltitudeMeters>1552.199951171875</AltitudeMeters>
            <DistanceMeters>NAN</DistanceMeters>
          </Trackpoint>
          <Trackpoint>
            <Time>2021-08-03T06:36:15.000Z</Time>
            <Position>
              <LatitudeDegrees>-15.34571045078337192535400390625</LatitudeDegrees>
              <LongitudeDegrees>37.07600162364542484283447265625</LongitudeDegrees>
            </Position>
            <AltitudeMeters>1550.5999755859375</AltitudeMeters>
            <DistanceMeters>NAN</DistanceMeters>
          </Trackpoint>
          <Trackpoint>
            <Time>2021-08-03T06:36:16.000Z</Time>
            <Position>
              <LatitudeDegrees>-15.34569402225315570831298828125</LatitudeDegrees>
              <LongitudeDegrees>37.076001875102519989013671875</LongitudeDegrees>
            </Position>
            <AltitudeMeters>1548.5999755859375</AltitudeMeters>
            <DistanceMeters>NAN</DistanceMeters>
          </Trackpoint>
          <Trackpoint>
            <Time>2021-08-03T06:36:20.000Z</Time>
            <Position>
              <LatitudeDegrees>-15.34564037807285785675048828125</LatitudeDegrees>
              <LongitudeDegrees>37.0760033838450908660888671875</LongitudeDegrees>
            </Position>
            <AltitudeMeters>1547.5999755859375</AltitudeMeters>
            <DistanceMeters>NAN</DistanceMeters>
          </Trackpoint>
          <Trackpoint>
            <Time>2021-08-03T06:36:23.000Z</Time>
            <Position>
              <LatitudeDegrees>-15.34560500644147396087646484375</LatitudeDegrees>
              <LongitudeDegrees>37.07601889036595821380615234375</LongitudeDegrees>
            </Position>
            <AltitudeMeters>1545.5999755859375</AltitudeMeters>
            <DistanceMeters>NAN</DistanceMeters>
          </Trackpoint>
          <Trackpoint>
            <Time>2021-08-03T06:36:26.000Z</Time>
            <Position>
              <LatitudeDegrees>-15.34556074999272823333740234375</LatitudeDegrees>
              <LongitudeDegrees>37.07603481598198413848876953125</LongitudeDegrees>
            </Position>
            <AltitudeMeters>1544</AltitudeMeters>
            <DistanceMeters>NAN</DistanceMeters>
          </Trackpoint>
          <Trackpoint>
            <Time>2021-08-03T06:36:29.000Z</Time>
            <Position>
              <LatitudeDegrees>-15.34552596509456634521484375</LatitudeDegrees>
              <LongitudeDegrees>37.0760424435138702392578125</LongitudeDegrees>
            </Position>
            <AltitudeMeters>1542.5999755859375</AltitudeMeters>
            <DistanceMeters>NAN</DistanceMeters>
          </Trackpoint>
          <Trackpoint>
            <Time>2021-08-03T06:36:31.000Z</Time>
            <Position>
              <LatitudeDegrees>-15.34550425596535205841064453125</LatitudeDegrees>
              <LongitudeDegrees>37.0760405994951725006103515625</LongitudeDegrees>
            </Position>
            <AltitudeMeters>1541.800048828125</AltitudeMeters>
            <DistanceMeters>NAN</DistanceMeters>
          </Trackpoint>
          <Trackpoint>
            <Time>2021-08-03T06:36:32.000Z</Time>
            <Position>
              <LatitudeDegrees>-15.34549453295767307281494140625</LatitudeDegrees>
              <LongitudeDegrees>37.07604001276195049285888671875</LongitudeDegrees>
            </Position>
            <AltitudeMeters>1541</AltitudeMeters>
            <DistanceMeters>NAN</DistanceMeters>
          </Trackpoint>
          <Trackpoint>
            <Time>2021-08-03T06:36:33.000Z</Time>
            <Position>
              <LatitudeDegrees>-15.34548447467386722564697265625</LatitudeDegrees>
              <LongitudeDegrees>37.07603867165744304656982421875</LongitudeDegrees>
            </Position>
            <AltitudeMeters>1539.4000244140625</AltitudeMeters>
            <DistanceMeters>NAN</DistanceMeters>
          </Trackpoint>
          <Trackpoint>
            <Time>2021-08-03T06:36:36.000Z</Time>
            <Position>
              <LatitudeDegrees>-15.3454486839473247528076171875</LatitudeDegrees>
              <LongitudeDegrees>37.0760343968868255615234375</LongitudeDegrees>
            </Position>
            <AltitudeMeters>1538.199951171875</AltitudeMeters>
            <DistanceMeters>NAN</DistanceMeters>
          </Trackpoint>
          <Trackpoint>
            <Time>2021-08-03T06:36:37.000Z</Time>
            <Position>
              <LatitudeDegrees>-15.34544088877737522125244140625</LatitudeDegrees>
              <LongitudeDegrees>37.076038420200347900390625</LongitudeDegrees>
            </Position>
            <AltitudeMeters>1538</AltitudeMeters>
            <DistanceMeters>NAN</DistanceMeters>
          </Trackpoint>
          <Trackpoint>
            <Time>2021-08-03T06:36:38.000Z</Time>
            <Position>
              <LatitudeDegrees>-15.34543401561677455902099609375</LatitudeDegrees>
              <LongitudeDegrees>37.07604370079934597015380859375</LongitudeDegrees>
            </Position>
            <AltitudeMeters>1538</AltitudeMeters>
            <DistanceMeters>NAN</DistanceMeters>
          </Trackpoint>
          <Trackpoint>
            <Time>2021-08-03T06:36:41.000Z</Time>
            <Position>
              <LatitudeDegrees>-15.3454044274985790252685546875</LatitudeDegrees>
              <LongitudeDegrees>37.0760633982717990875244140625</LongitudeDegrees>
            </Position>
            <AltitudeMeters>1537</AltitudeMeters>
            <DistanceMeters>NAN</DistanceMeters>
          </Trackpoint>
          <Trackpoint>
            <Time>2021-08-03T06:36:42.000Z</Time>
            <Position>
              <LatitudeDegrees>-15.3453983925282955169677734375</LatitudeDegrees>
              <LongitudeDegrees>37.0760670863091945648193359375</LongitudeDegrees>
            </Position>
            <AltitudeMeters>1535.5999755859375</AltitudeMeters>
            <DistanceMeters>NAN</DistanceMeters>
          </Trackpoint>
          <Trackpoint>
            <Time>2021-08-03T06:36:43.000Z</Time>
            <Position>
              <LatitudeDegrees>-15.34539076499640941619873046875</LatitudeDegrees>
              <LongitudeDegrees>37.07606867887079715728759765625</LongitudeDegrees>
            </Position>
            <AltitudeMeters>1535.4000244140625</AltitudeMeters>
            <DistanceMeters>NAN</DistanceMeters>
          </Trackpoint>
          <Trackpoint>
            <Time>2021-08-03T06:36:44.000Z</Time>
            <Position>
              <LatitudeDegrees>-15.3453791141510009765625</LatitudeDegrees>
              <LongitudeDegrees>37.07606683485209941864013671875</LongitudeDegrees>
            </Position>
            <AltitudeMeters>1535.4000244140625</AltitudeMeters>
            <DistanceMeters>NAN</DistanceMeters>
          </Trackpoint>
          <Trackpoint>
            <Time>2021-08-03T06:36:46.000Z</Time>
            <Position>
              <LatitudeDegrees>-15.34534868784248828887939453125</LatitudeDegrees>
              <LongitudeDegrees>37.07606649957597255706787109375</LongitudeDegrees>
            </Position>
            <AltitudeMeters>1534.5999755859375</AltitudeMeters>
            <DistanceMeters>NAN</DistanceMeters>
          </Trackpoint>
          <Trackpoint>
            <Time>2021-08-03T06:36:47.000Z</Time>
            <Position>
              <LatitudeDegrees>-15.34533695317804813385009765625</LatitudeDegrees>
              <LongitudeDegrees>37.076070271432399749755859375</LongitudeDegrees>
            </Position>
            <AltitudeMeters>1532.800048828125</AltitudeMeters>
            <DistanceMeters>NAN</DistanceMeters>
          </Trackpoint>
          <Trackpoint>
            <Time>2021-08-03T06:36:50.000Z</Time>
            <Position>
              <LatitudeDegrees>-15.34529789350926876068115234375</LatitudeDegrees>
              <LongitudeDegrees>37.0760826766490936279296875</LongitudeDegrees>
            </Position>
            <AltitudeMeters>1531.199951171875</AltitudeMeters>
            <DistanceMeters>NAN</DistanceMeters>
          </Trackpoint>
          <Trackpoint>
            <Time>2021-08-03T06:36:53.000Z</Time>
            <Position>
              <LatitudeDegrees>-15.34526922740042209625244140625</LatitudeDegrees>
              <LongitudeDegrees>37.07609675824642181396484375</LongitudeDegrees>
            </Position>
            <AltitudeMeters>1530.5999755859375</AltitudeMeters>
            <DistanceMeters>NAN</DistanceMeters>
          </Trackpoint>
          <Trackpoint>
            <Time>2021-08-03T06:36:54.000Z</Time>
            <Position>
              <LatitudeDegrees>-15.34525648690760135650634765625</LatitudeDegrees>
              <LongitudeDegrees>37.0761002786457538604736328125</LongitudeDegrees>
            </Position>
            <AltitudeMeters>1530.199951171875</AltitudeMeters>
            <DistanceMeters>NAN</DistanceMeters>
          </Trackpoint>
          <Trackpoint>
            <Time>2021-08-03T06:36:56.000Z</Time>
            <Position>
              <LatitudeDegrees>-15.3452329337596893310546875</LatitudeDegrees>
              <LongitudeDegrees>37.07610472105443477630615234375</LongitudeDegrees>
            </Position>
            <AltitudeMeters>1528.5999755859375</AltitudeMeters>
            <DistanceMeters>NAN</DistanceMeters>
          </Trackpoint>
          <Trackpoint>
            <Time>2021-08-03T06:36:59.000Z</Time>
            <Position>
              <LatitudeDegrees>-15.34519965760409832000732421875</LatitudeDegrees>
              <LongitudeDegrees>37.0761140249669551849365234375</LongitudeDegrees>
            </Position>
            <AltitudeMeters>1527</AltitudeMeters>
            <DistanceMeters>NAN</DistanceMeters>
          </Trackpoint>
          <Trackpoint>
            <Time>2021-08-03T06:37:02.000Z</Time>
            <Position>
              <LatitudeDegrees>-15.34517593681812286376953125</LatitudeDegrees>
              <LongitudeDegrees>37.07612886093556880950927734375</LongitudeDegrees>
            </Position>
            <AltitudeMeters>1525.800048828125</AltitudeMeters>
            <DistanceMeters>NAN</DistanceMeters>
          </Trackpoint>
          <Trackpoint>
            <Time>2021-08-03T06:37:03.000Z</Time>
            <Position>
              <LatitudeDegrees>-15.34516344778239727020263671875</LatitudeDegrees>
              <LongitudeDegrees>37.07613238133490085601806640625</LongitudeDegrees>
            </Position>
            <AltitudeMeters>1525.800048828125</AltitudeMeters>
            <DistanceMeters>NAN</DistanceMeters>
          </Trackpoint>
          <Trackpoint>
            <Time>2021-08-03T06:37:05.000Z</Time>
            <Position>
              <LatitudeDegrees>-15.3451388888061046600341796875</LatitudeDegrees>
              <LongitudeDegrees>37.0761448703706264495849609375</LongitudeDegrees>
            </Position>
            <AltitudeMeters>1524.4000244140625</AltitudeMeters>
            <DistanceMeters>NAN</DistanceMeters>
          </Trackpoint>
          <Trackpoint>
            <Time>2021-08-03T06:37:07.000Z</Time>
            <Position>
              <LatitudeDegrees>-15.3451191075146198272705078125</LatitudeDegrees>
              <LongitudeDegrees>37.07615618593990802764892578125</LongitudeDegrees>
            </Position>
            <AltitudeMeters>1523.199951171875</AltitudeMeters>
            <DistanceMeters>NAN</DistanceMeters>
          </Trackpoint>
          <Trackpoint>
            <Time>2021-08-03T06:37:10.000Z</Time>
            <Position>
              <LatitudeDegrees>-15.34509287215769290924072265625</LatitudeDegrees>
              <LongitudeDegrees>37.0761773921549320220947265625</LongitudeDegrees>
            </Position>
            <AltitudeMeters>1522.199951171875</AltitudeMeters>
            <DistanceMeters>NAN</DistanceMeters>
          </Trackpoint>
          <Trackpoint>
            <Time>2021-08-03T06:37:11.000Z</Time>
            <Position>
              <LatitudeDegrees>-15.34508096985518932342529296875</LatitudeDegrees>
              <LongitudeDegrees>37.076182253658771514892578125</LongitudeDegrees>
            </Position>
            <AltitudeMeters>1522.199951171875</AltitudeMeters>
            <DistanceMeters>NAN</DistanceMeters>
          </Trackpoint>
          <Trackpoint>
            <Time>2021-08-03T06:37:14.000Z</Time>
            <Position>
              <LatitudeDegrees>-15.34505297429859638214111328125</LatitudeDegrees>
              <LongitudeDegrees>37.07619423978030681610107421875</LongitudeDegrees>
            </Position>
            <AltitudeMeters>1520.199951171875</AltitudeMeters>
            <DistanceMeters>NAN</DistanceMeters>
          </Trackpoint>
          <Trackpoint>
            <Time>2021-08-03T06:37:17.000Z</Time>
            <Position>
              <LatitudeDegrees>-15.3450285829603672027587890625</LatitudeDegrees>
              <LongitudeDegrees>37.07622055895626544952392578125</LongitudeDegrees>
            </Position>
            <AltitudeMeters>1519.199951171875</AltitudeMeters>
            <DistanceMeters>NAN</DistanceMeters>
          </Trackpoint>
          <Trackpoint>
            <Time>2021-08-03T06:37:20.000Z</Time>
            <Position>
              <LatitudeDegrees>-15.34500502981245517730712890625</LatitudeDegrees>
              <LongitudeDegrees>37.0762484706938266754150390625</LongitudeDegrees>
            </Position>
            <AltitudeMeters>1518</AltitudeMeters>
            <DistanceMeters>NAN</DistanceMeters>
          </Trackpoint>
          <Trackpoint>
            <Time>2021-08-03T06:37:21.000Z</Time>
            <Position>
              <LatitudeDegrees>-15.3449974022805690765380859375</LatitudeDegrees>
              <LongitudeDegrees>37.07624939270317554473876953125</LongitudeDegrees>
            </Position>
            <AltitudeMeters>1517.199951171875</AltitudeMeters>
            <DistanceMeters>NAN</DistanceMeters>
          </Trackpoint>
          <Trackpoint>
            <Time>2021-08-03T06:37:22.000Z</Time>
            <Position>
              <LatitudeDegrees>-15.34498742781579494476318359375</LatitudeDegrees>
              <LongitudeDegrees>37.07625098526477813720703125</LongitudeDegrees>
            </Position>
            <AltitudeMeters>1517</AltitudeMeters>
            <DistanceMeters>NAN</DistanceMeters>
          </Trackpoint>
          <Trackpoint>
            <Time>2021-08-03T06:37:23.000Z</Time>
            <Position>
              <LatitudeDegrees>-15.344975776970386505126953125</LatitudeDegrees>
              <LongitudeDegrees>37.076251320540904998779296875</LongitudeDegrees>
            </Position>
            <AltitudeMeters>1516.800048828125</AltitudeMeters>
            <DistanceMeters>NAN</DistanceMeters>
          </Trackpoint>
          <Trackpoint>
            <Time>2021-08-03T06:37:26.000Z</Time>
            <Position>
              <LatitudeDegrees>-15.34494719468057155609130859375</LatitudeDegrees>
              <LongitudeDegrees>37.0762427709996700286865234375</LongitudeDegrees>
            </Position>
            <AltitudeMeters>1515.5999755859375</AltitudeMeters>
            <DistanceMeters>NAN</DistanceMeters>
          </Trackpoint>
          <Trackpoint>
            <Time>2021-08-03T06:37:27.000Z</Time>
            <Position>
              <LatitudeDegrees>-15.344939567148685455322265625</LatitudeDegrees>
              <LongitudeDegrees>37.076245956122875213623046875</LongitudeDegrees>
            </Position>
            <AltitudeMeters>1515.4000244140625</AltitudeMeters>
            <DistanceMeters>NAN</DistanceMeters>
          </Trackpoint>
          <Trackpoint>
            <Time>2021-08-03T06:37:28.000Z</Time>
            <Position>
              <LatitudeDegrees>-15.34493319690227508544921875</LatitudeDegrees>
              <LongitudeDegrees>37.07625492475926876068115234375</LongitudeDegrees>
            </Position>
            <AltitudeMeters>1514.800048828125</AltitudeMeters>
            <DistanceMeters>NAN</DistanceMeters>
          </Trackpoint>
          <Trackpoint>
            <Time>2021-08-03T06:37:29.000Z</Time>
            <Position>
              <LatitudeDegrees>-15.3449236415326595306396484375</LatitudeDegrees>
              <LongitudeDegrees>37.07626171410083770751953125</LongitudeDegrees>
            </Position>
            <AltitudeMeters>1514.199951171875</AltitudeMeters>
            <DistanceMeters>NAN</DistanceMeters>
          </Trackpoint>
          <Trackpoint>
            <Time>2021-08-03T06:37:33.000Z</Time>
            <Position>
              <LatitudeDegrees>-15.34487796016037464141845703125</LatitudeDegrees>
              <LongitudeDegrees>37.07626129500567913055419921875</LongitudeDegrees>
            </Position>
            <AltitudeMeters>1512.199951171875</AltitudeMeters>
            <DistanceMeters>NAN</DistanceMeters>
          </Trackpoint>
          <Trackpoint>
            <Time>2021-08-03T06:37:34.000Z</Time>
            <Position>
              <LatitudeDegrees>-15.34486957825720310211181640625</LatitudeDegrees>
              <LongitudeDegrees>37.0762622170150279998779296875</LongitudeDegrees>
            </Position>
            <AltitudeMeters>1511.199951171875</AltitudeMeters>
            <DistanceMeters>NAN</DistanceMeters>
          </Trackpoint>
          <Trackpoint>
            <Time>2021-08-03T06:37:36.000Z</Time>
            <Position>
              <LatitudeDegrees>-15.34485340118408203125</LatitudeDegrees>
              <LongitudeDegrees>37.07627353258430957794189453125</LongitudeDegrees>
            </Position>
            <AltitudeMeters>1510.199951171875</AltitudeMeters>
            <DistanceMeters>NAN</DistanceMeters>
          </Trackpoint>
          <Trackpoint>
            <Time>2021-08-03T06:37:39.000Z</Time>
            <Position>
              <LatitudeDegrees>-15.34483135677874088287353515625</LatitudeDegrees>
              <LongitudeDegrees>37.0763044618070125579833984375</LongitudeDegrees>
            </Position>
            <AltitudeMeters>1509.800048828125</AltitudeMeters>
            <DistanceMeters>NAN</DistanceMeters>
          </Trackpoint>
          <Trackpoint>
            <Time>2021-08-03T06:37:42.000Z</Time>
            <Position>
              <LatitudeDegrees>-15.3448059596121311187744140625</LatitudeDegrees>
              <LongitudeDegrees>37.0763267576694488525390625</LongitudeDegrees>
            </Position>
            <AltitudeMeters>1509.199951171875</AltitudeMeters>
            <DistanceMeters>NAN</DistanceMeters>
          </Trackpoint>
          <Trackpoint>
            <Time>2021-08-03T06:37:43.000Z</Time>
            <Position>
              <LatitudeDegrees>-15.34479531459510326385498046875</LatitudeDegrees>
              <LongitudeDegrees>37.076333463191986083984375</LongitudeDegrees>
            </Position>
            <AltitudeMeters>1509</AltitudeMeters>
            <DistanceMeters>NAN</DistanceMeters>
          </Trackpoint>
          <Trackpoint>
            <Time>2021-08-03T06:37:47.000Z</Time>
            <Position>
              <LatitudeDegrees>-15.34475080668926239013671875</LatitudeDegrees>
              <LongitudeDegrees>37.07635969854891300201416015625</LongitudeDegrees>
            </Position>
            <AltitudeMeters>1507.800048828125</AltitudeMeters>
            <DistanceMeters>NAN</DistanceMeters>
          </Trackpoint>
          <Trackpoint>
            <Time>2021-08-03T06:37:49.000Z</Time>
            <Position>
              <LatitudeDegrees>-15.34472675062716007232666015625</LatitudeDegrees>
              <LongitudeDegrees>37.07636942155659198760986328125</LongitudeDegrees>
            </Position>
            <AltitudeMeters>1506.800048828125</AltitudeMeters>
            <DistanceMeters>NAN</DistanceMeters>
          </Trackpoint>
          <Trackpoint>
            <Time>2021-08-03T06:37:51.000Z</Time>
            <Position>
              <LatitudeDegrees>-15.344721637666225433349609375</LatitudeDegrees>
              <LongitudeDegrees>37.0763879455626010894775390625</LongitudeDegrees>
            </Position>
            <AltitudeMeters>1504.5999755859375</AltitudeMeters>
            <DistanceMeters>NAN</DistanceMeters>
          </Trackpoint>
          <Trackpoint>
            <Time>2021-08-03T06:37:52.000Z</Time>
            <Position>
              <LatitudeDegrees>-15.3447204641997814178466796875</LatitudeDegrees>
              <LongitudeDegrees>37.07640076987445354461669921875</LongitudeDegrees>
            </Position>
            <AltitudeMeters>1504.4000244140625</AltitudeMeters>
            <DistanceMeters>NAN</DistanceMeters>
          </Trackpoint>
          <Trackpoint>
            <Time>2021-08-03T06:37:53.000Z</Time>
            <Position>
              <LatitudeDegrees>-15.34471384249627590179443359375</LatitudeDegrees>
              <LongitudeDegrees>37.07640764303505420684814453125</LongitudeDegrees>
            </Position>
            <AltitudeMeters>1504.199951171875</AltitudeMeters>
            <DistanceMeters>NAN</DistanceMeters>
          </Trackpoint>
          <Trackpoint>
            <Time>2021-08-03T06:37:57.000Z</Time>
            <Position>
              <LatitudeDegrees>-15.3446778841316699981689453125</LatitudeDegrees>
              <LongitudeDegrees>37.07641728222370147705078125</LongitudeDegrees>
            </Position>
            <AltitudeMeters>1503.4000244140625</AltitudeMeters>
            <DistanceMeters>NAN</DistanceMeters>
          </Trackpoint>
          <Trackpoint>
            <Time>2021-08-03T06:38:00.000Z</Time>
            <Position>
              <LatitudeDegrees>-15.344637818634510040283203125</LatitudeDegrees>
              <LongitudeDegrees>37.07641501910984516143798828125</LongitudeDegrees>
            </Position>
            <AltitudeMeters>1501.800048828125</AltitudeMeters>
            <DistanceMeters>NAN</DistanceMeters>
          </Trackpoint>
          <Trackpoint>
            <Time>2021-08-03T06:38:02.000Z</Time>
            <Position>
              <LatitudeDegrees>-15.344635136425495147705078125</LatitudeDegrees>
              <LongitudeDegrees>37.076408229768276214599609375</LongitudeDegrees>
            </Position>
            <AltitudeMeters>1500.4000244140625</AltitudeMeters>
            <DistanceMeters>NAN</DistanceMeters>
          </Trackpoint>
          <Trackpoint>
            <Time>2021-08-03T06:38:03.000Z</Time>
            <Position>
              <LatitudeDegrees>-15.3446349687874317169189453125</LatitudeDegrees>
              <LongitudeDegrees>37.07640655338764190673828125</LongitudeDegrees>
            </Position>
            <AltitudeMeters>1500.4000244140625</AltitudeMeters>
            <DistanceMeters>NAN</DistanceMeters>
          </Trackpoint>
          <Trackpoint>
            <Time>2021-08-03T06:38:04.000Z</Time>
            <Position>
              <LatitudeDegrees>-15.34463672898709774017333984375</LatitudeDegrees>
              <LongitudeDegrees>37.076406218111515045166015625</LongitudeDegrees>
            </Position>
            <AltitudeMeters>1500.4000244140625</AltitudeMeters>
            <DistanceMeters>NAN</DistanceMeters>
          </Trackpoint>
          <Trackpoint>
            <Time>2021-08-03T06:38:10.000Z</Time>
            <Position>
              <LatitudeDegrees>-15.3446202166378498077392578125</LatitudeDegrees>
              <LongitudeDegrees>37.07641233690083026885986328125</LongitudeDegrees>
            </Position>
            <AltitudeMeters>1499.5999755859375</AltitudeMeters>
            <DistanceMeters>NAN</DistanceMeters>
          </Trackpoint>
          <Trackpoint>
            <Time>2021-08-03T06:38:14.000Z</Time>
            <Position>
              <LatitudeDegrees>-15.34460605122148990631103515625</LatitudeDegrees>
              <LongitudeDegrees>37.0764177851378917694091796875</LongitudeDegrees>
            </Position>
            <AltitudeMeters>1499.199951171875</AltitudeMeters>
            <DistanceMeters>NAN</DistanceMeters>
          </Trackpoint>
          <Trackpoint>
            <Time>2021-08-03T06:38:21.000Z</Time>
            <Position>
              <LatitudeDegrees>-15.34460605122148990631103515625</LatitudeDegrees>
              <LongitudeDegrees>37.0764177851378917694091796875</LongitudeDegrees>
            </Position>
            <AltitudeMeters>1498.4000244140625</AltitudeMeters>
            <DistanceMeters>NAN</DistanceMeters>
          </Trackpoint>
          <Trackpoint>
            <Time>2021-08-03T06:38:29.000Z</Time>
            <Position>
              <LatitudeDegrees>-15.34458853304386138916015625</LatitudeDegrees>
              <LongitudeDegrees>37.07642306573688983917236328125</LongitudeDegrees>
            </Position>
            <AltitudeMeters>1497.5999755859375</AltitudeMeters>
            <DistanceMeters>NAN</DistanceMeters>
          </Trackpoint>
          <Trackpoint>
            <Time>2021-08-03T06:38:31.000Z</Time>
            <Position>
              <LatitudeDegrees>-15.3445598669350147247314453125</LatitudeDegrees>
              <LongitudeDegrees>37.07642658613622188568115234375</LongitudeDegrees>
            </Position>
            <AltitudeMeters>1496.4000244140625</AltitudeMeters>
            <DistanceMeters>NAN</DistanceMeters>
          </Trackpoint>
          <Trackpoint>
            <Time>2021-08-03T06:38:33.000Z</Time>
            <Position>
              <LatitudeDegrees>-15.34453396685421466827392578125</LatitudeDegrees>
              <LongitudeDegrees>37.07643211819231510162353515625</LongitudeDegrees>
            </Position>
            <AltitudeMeters>1495.800048828125</AltitudeMeters>
            <DistanceMeters>NAN</DistanceMeters>
          </Trackpoint>
          <Trackpoint>
            <Time>2021-08-03T06:38:35.000Z</Time>
            <Position>
              <LatitudeDegrees>-15.3445142693817615509033203125</LatitudeDegrees>
              <LongitudeDegrees>37.0764419250190258026123046875</LongitudeDegrees>
            </Position>
            <AltitudeMeters>1494.800048828125</AltitudeMeters>
            <DistanceMeters>NAN</DistanceMeters>
          </Trackpoint>
          <Trackpoint>
            <Time>2021-08-03T06:38:39.000Z</Time>
            <Position>
              <LatitudeDegrees>-15.3444871120154857635498046875</LatitudeDegrees>
              <LongitudeDegrees>37.07645894028246402740478515625</LongitudeDegrees>
            </Position>
            <AltitudeMeters>1494.5999755859375</AltitudeMeters>
            <DistanceMeters>NAN</DistanceMeters>
          </Trackpoint>
          <Trackpoint>
            <Time>2021-08-03T06:38:40.000Z</Time>
            <Position>
              <LatitudeDegrees>-15.3444797359406948089599609375</LatitudeDegrees>
              <LongitudeDegrees>37.0764600299298763275146484375</LongitudeDegrees>
            </Position>
            <AltitudeMeters>1494.5999755859375</AltitudeMeters>
            <DistanceMeters>NAN</DistanceMeters>
          </Trackpoint>
          <Trackpoint>
            <Time>2021-08-03T06:38:46.000Z</Time>
            <Position>
              <LatitudeDegrees>-15.3444539196789264678955078125</LatitudeDegrees>
              <LongitudeDegrees>37.07646556198596954345703125</LongitudeDegrees>
            </Position>
            <AltitudeMeters>1493.4000244140625</AltitudeMeters>
            <DistanceMeters>NAN</DistanceMeters>
          </Trackpoint>
          <Trackpoint>
            <Time>2021-08-03T06:38:47.000Z</Time>
            <Position>
              <LatitudeDegrees>-15.34444226883351802825927734375</LatitudeDegrees>
              <LongitudeDegrees>37.076472938060760498046875</LongitudeDegrees>
            </Position>
            <AltitudeMeters>1493.199951171875</AltitudeMeters>
            <DistanceMeters>NAN</DistanceMeters>
          </Trackpoint>
          <Trackpoint>
            <Time>2021-08-03T06:38:49.000Z</Time>
            <Position>
              <LatitudeDegrees>-15.34442164935171604156494140625</LatitudeDegrees>
              <LongitudeDegrees>37.07647503353655338287353515625</LongitudeDegrees>
            </Position>
            <AltitudeMeters>1492</AltitudeMeters>
            <DistanceMeters>NAN</DistanceMeters>
          </Trackpoint>
          <Trackpoint>
            <Time>2021-08-03T06:38:53.000Z</Time>
            <Position>
              <LatitudeDegrees>-15.344383679330348968505859375</LatitudeDegrees>
              <LongitudeDegrees>37.07646564580500125885009765625</LongitudeDegrees>
            </Position>
            <AltitudeMeters>1491.5999755859375</AltitudeMeters>
            <DistanceMeters>NAN</DistanceMeters>
          </Trackpoint>
          <Trackpoint>
            <Time>2021-08-03T06:38:55.000Z</Time>
            <Position>
              <LatitudeDegrees>-15.34436515532433986663818359375</LatitudeDegrees>
              <LongitudeDegrees>37.076457180082798004150390625</LongitudeDegrees>
            </Position>
            <AltitudeMeters>1490.800048828125</AltitudeMeters>
            <DistanceMeters>NAN</DistanceMeters>
          </Trackpoint>
          <Trackpoint>
            <Time>2021-08-03T06:38:57.000Z</Time>
            <Position>
              <LatitudeDegrees>-15.344347469508647918701171875</LatitudeDegrees>
              <LongitudeDegrees>37.076453156769275665283203125</LongitudeDegrees>
            </Position>
            <AltitudeMeters>1489.800048828125</AltitudeMeters>
            <DistanceMeters>NAN</DistanceMeters>
          </Trackpoint>
          <Trackpoint>
            <Time>2021-08-03T06:39:00.000Z</Time>
            <Position>
              <LatitudeDegrees>-15.344321988523006439208984375</LatitudeDegrees>
              <LongitudeDegrees>37.07646095193922519683837890625</LongitudeDegrees>
            </Position>
            <AltitudeMeters>1488.800048828125</AltitudeMeters>
            <DistanceMeters>NAN</DistanceMeters>
          </Trackpoint>
          <Trackpoint>
            <Time>2021-08-03T06:39:03.000Z</Time>
            <Position>
              <LatitudeDegrees>-15.3442943282425403594970703125</LatitudeDegrees>
              <LongitudeDegrees>37.07646698690950870513916015625</LongitudeDegrees>
            </Position>
            <AltitudeMeters>1487.4000244140625</AltitudeMeters>
            <DistanceMeters>NAN</DistanceMeters>
          </Trackpoint>
          <Trackpoint>
            <Time>2021-08-03T06:39:07.000Z</Time>
            <Position>
              <LatitudeDegrees>-15.34425501711666584014892578125</LatitudeDegrees>
              <LongitudeDegrees>37.07646690309047698974609375</LongitudeDegrees>
            </Position>
            <AltitudeMeters>1486.199951171875</AltitudeMeters>
            <DistanceMeters>NAN</DistanceMeters>
          </Trackpoint>
          <Trackpoint>
            <Time>2021-08-03T06:39:09.000Z</Time>
            <Position>
              <LatitudeDegrees>-15.34423439763486385345458984375</LatitudeDegrees>
              <LongitudeDegrees>37.076467573642730712890625</LongitudeDegrees>
            </Position>
            <AltitudeMeters>1485.199951171875</AltitudeMeters>
            <DistanceMeters>NAN</DistanceMeters>
          </Trackpoint>
          <Trackpoint>
            <Time>2021-08-03T06:39:12.000Z</Time>
            <Position>
              <LatitudeDegrees>-15.344204641878604888916015625</LatitudeDegrees>
              <LongitudeDegrees>37.0764767937362194061279296875</LongitudeDegrees>
            </Position>
            <AltitudeMeters>1484.4000244140625</AltitudeMeters>
            <DistanceMeters>NAN</DistanceMeters>
          </Trackpoint>
          <Trackpoint>
            <Time>2021-08-03T06:39:13.000Z</Time>
            <Position>
              <LatitudeDegrees>-15.34419634379446506500244140625</LatitudeDegrees>
              <LongitudeDegrees>37.07647184841334819793701171875</LongitudeDegrees>
            </Position>
            <AltitudeMeters>1484</AltitudeMeters>
            <DistanceMeters>NAN</DistanceMeters>
          </Trackpoint>
          <Trackpoint>
            <Time>2021-08-03T06:39:14.000Z</Time>
            <Position>
              <LatitudeDegrees>-15.34418779425323009490966796875</LatitudeDegrees>
              <LongitudeDegrees>37.07646463997662067413330078125</LongitudeDegrees>
            </Position>
            <AltitudeMeters>1483</AltitudeMeters>
            <DistanceMeters>NAN</DistanceMeters>
          </Trackpoint>
          <Trackpoint>
            <Time>2021-08-03T06:39:16.000Z</Time>
            <Position>
              <LatitudeDegrees>-15.34416767768561840057373046875</LatitudeDegrees>
              <LongitudeDegrees>37.076458521187305450439453125</LongitudeDegrees>
            </Position>
            <AltitudeMeters>1482.4000244140625</AltitudeMeters>
            <DistanceMeters>NAN</DistanceMeters>
          </Trackpoint>
          <Trackpoint>
            <Time>2021-08-03T06:39:20.000Z</Time>
            <Position>
              <LatitudeDegrees>-15.34412694163620471954345703125</LatitudeDegrees>
              <LongitudeDegrees>37.07646799273788928985595703125</LongitudeDegrees>
            </Position>
            <AltitudeMeters>1480.800048828125</AltitudeMeters>
            <DistanceMeters>NAN</DistanceMeters>
          </Trackpoint>
          <Trackpoint>
            <Time>2021-08-03T06:39:21.000Z</Time>
            <Position>
              <LatitudeDegrees>-15.3441171348094940185546875</LatitudeDegrees>
              <LongitudeDegrees>37.07647025585174560546875</LongitudeDegrees>
            </Position>
            <AltitudeMeters>1480</AltitudeMeters>
            <DistanceMeters>NAN</DistanceMeters>
          </Trackpoint>
          <Trackpoint>
            <Time>2021-08-03T06:39:23.000Z</Time>
            <Position>
              <LatitudeDegrees>-15.3440975211560726165771484375</LatitudeDegrees>
              <LongitudeDegrees>37.07647754810750484466552734375</LongitudeDegrees>
            </Position>
            <AltitudeMeters>1479.800048828125</AltitudeMeters>
            <DistanceMeters>NAN</DistanceMeters>
          </Trackpoint>
          <Trackpoint>
            <Time>2021-08-03T06:39:24.000Z</Time>
            <Position>
              <LatitudeDegrees>-15.3440841101109981536865234375</LatitudeDegrees>
              <LongitudeDegrees>37.0764811523258686065673828125</LongitudeDegrees>
            </Position>
            <AltitudeMeters>1479.199951171875</AltitudeMeters>
            <DistanceMeters>NAN</DistanceMeters>
          </Trackpoint>
          <Trackpoint>
            <Time>2021-08-03T06:39:25.000Z</Time>
            <Position>
              <LatitudeDegrees>-15.34407665021717548370361328125</LatitudeDegrees>
              <LongitudeDegrees>37.07648358307778835296630859375</LongitudeDegrees>
            </Position>
            <AltitudeMeters>1478.199951171875</AltitudeMeters>
            <DistanceMeters>NAN</DistanceMeters>
          </Trackpoint>
          <Trackpoint>
            <Time>2021-08-03T06:39:26.000Z</Time>
            <Position>
              <LatitudeDegrees>-15.34406818449497222900390625</LatitudeDegrees>
              <LongitudeDegrees>37.076489366590976715087890625</LongitudeDegrees>
            </Position>
            <AltitudeMeters>1478</AltitudeMeters>
            <DistanceMeters>NAN</DistanceMeters>
          </Trackpoint>
          <Trackpoint>
            <Time>2021-08-03T06:39:29.000Z</Time>
            <Position>
              <LatitudeDegrees>-15.34403641708195209503173828125</LatitudeDegrees>
              <LongitudeDegrees>37.07650445401668548583984375</LongitudeDegrees>
            </Position>
            <AltitudeMeters>1477.4000244140625</AltitudeMeters>
            <DistanceMeters>NAN</DistanceMeters>
          </Trackpoint>
          <Trackpoint>
            <Time>2021-08-03T06:39:30.000Z</Time>
            <Position>
              <LatitudeDegrees>-15.3440272808074951171875</LatitudeDegrees>
              <LongitudeDegrees>37.076504789292812347412109375</LongitudeDegrees>
            </Position>
            <AltitudeMeters>1476.5999755859375</AltitudeMeters>
            <DistanceMeters>NAN</DistanceMeters>
          </Trackpoint>
          <Trackpoint>
            <Time>2021-08-03T06:39:34.000Z</Time>
            <Position>
              <LatitudeDegrees>-15.34398092888295650482177734375</LatitudeDegrees>
              <LongitudeDegrees>37.07651384174823760986328125</LongitudeDegrees>
            </Position>
            <AltitudeMeters>1475.4000244140625</AltitudeMeters>
            <DistanceMeters>NAN</DistanceMeters>
          </Trackpoint>
          <Trackpoint>
            <Time>2021-08-03T06:39:35.000Z</Time>
            <Position>
              <LatitudeDegrees>-15.343971960246562957763671875</LatitudeDegrees>
              <LongitudeDegrees>37.07651660777628421783447265625</LongitudeDegrees>
            </Position>
            <AltitudeMeters>1474.199951171875</AltitudeMeters>
            <DistanceMeters>NAN</DistanceMeters>
          </Trackpoint>
          <Trackpoint>
            <Time>2021-08-03T06:39:39.000Z</Time>
            <Position>
              <LatitudeDegrees>-15.34393382258713245391845703125</LatitudeDegrees>
              <LongitudeDegrees>37.0765505544841289520263671875</LongitudeDegrees>
            </Position>
            <AltitudeMeters>1472.5999755859375</AltitudeMeters>
            <DistanceMeters>NAN</DistanceMeters>
          </Trackpoint>
          <Trackpoint>
            <Time>2021-08-03T06:39:41.000Z</Time>
            <Position>
              <LatitudeDegrees>-15.34392242319881916046142578125</LatitudeDegrees>
              <LongitudeDegrees>37.07655549980700016021728515625</LongitudeDegrees>
            </Position>
            <AltitudeMeters>1472.199951171875</AltitudeMeters>
            <DistanceMeters>NAN</DistanceMeters>
          </Trackpoint>
          <Trackpoint>
            <Time>2021-08-03T06:39:45.000Z</Time>
            <Position>
              <LatitudeDegrees>-15.343890152871608734130859375</LatitudeDegrees>
              <LongitudeDegrees>37.0765693299472332000732421875</LongitudeDegrees>
            </Position>
            <AltitudeMeters>1471.199951171875</AltitudeMeters>
            <DistanceMeters>NAN</DistanceMeters>
          </Trackpoint>
          <Trackpoint>
            <Time>2021-08-03T06:39:46.000Z</Time>
            <Position>
              <LatitudeDegrees>-15.34389124251902103424072265625</LatitudeDegrees>
              <LongitudeDegrees>37.0765730179846286773681640625</LongitudeDegrees>
            </Position>
            <AltitudeMeters>1470.800048828125</AltitudeMeters>
            <DistanceMeters>NAN</DistanceMeters>
          </Trackpoint>
          <Trackpoint>
            <Time>2021-08-03T06:39:47.000Z</Time>
            <Position>
              <LatitudeDegrees>-15.3438869677484035491943359375</LatitudeDegrees>
              <LongitudeDegrees>37.07657980732619762420654296875</LongitudeDegrees>
            </Position>
            <AltitudeMeters>1469.800048828125</AltitudeMeters>
            <DistanceMeters>NAN</DistanceMeters>
          </Trackpoint>
          <Trackpoint>
            <Time>2021-08-03T06:39:48.000Z</Time>
            <Position>
              <LatitudeDegrees>-15.34387665800750255584716796875</LatitudeDegrees>
              <LongitudeDegrees>37.07659170962870121002197265625</LongitudeDegrees>
            </Position>
            <AltitudeMeters>1469.5999755859375</AltitudeMeters>
            <DistanceMeters>NAN</DistanceMeters>
          </Trackpoint>
          <Trackpoint>
            <Time>2021-08-03T06:39:51.000Z</Time>
            <Position>
              <LatitudeDegrees>-15.3438433818519115447998046875</LatitudeDegrees>
              <LongitudeDegrees>37.07660813815891742706298828125</LongitudeDegrees>
            </Position>
            <AltitudeMeters>1468</AltitudeMeters>
            <DistanceMeters>NAN</DistanceMeters>
          </Trackpoint>
          <Trackpoint>
            <Time>2021-08-03T06:39:56.000Z</Time>
            <Position>
              <LatitudeDegrees>-15.343777835369110107421875</LatitudeDegrees>
              <LongitudeDegrees>37.07664334215223789215087890625</LongitudeDegrees>
            </Position>
            <AltitudeMeters>1466.4000244140625</AltitudeMeters>
            <DistanceMeters>NAN</DistanceMeters>
          </Trackpoint>
          <Trackpoint>
            <Time>2021-08-03T06:39:58.000Z</Time>
            <Position>
              <LatitudeDegrees>-15.34375679679214954376220703125</LatitudeDegrees>
              <LongitudeDegrees>37.07665926776826381683349609375</LongitudeDegrees>
            </Position>
            <AltitudeMeters>1465.4000244140625</AltitudeMeters>
            <DistanceMeters>NAN</DistanceMeters>
          </Trackpoint>
          <Trackpoint>
            <Time>2021-08-03T06:39:59.000Z</Time>
            <Position>
              <LatitudeDegrees>-15.343746654689311981201171875</LatitudeDegrees>
              <LongitudeDegrees>37.07666446454823017120361328125</LongitudeDegrees>
            </Position>
            <AltitudeMeters>1464.5999755859375</AltitudeMeters>
            <DistanceMeters>NAN</DistanceMeters>
          </Trackpoint>
          <Trackpoint>
            <Time>2021-08-03T06:40:00.000Z</Time>
            <Position>
              <LatitudeDegrees>-15.3437411226332187652587890625</LatitudeDegrees>
              <LongitudeDegrees>37.07666530273854732513427734375</LongitudeDegrees>
            </Position>
            <AltitudeMeters>1464</AltitudeMeters>
            <DistanceMeters>NAN</DistanceMeters>
          </Trackpoint>
          <Trackpoint>
            <Time>2021-08-03T06:40:02.000Z</Time>
            <Position>
              <LatitudeDegrees>-15.3437303937971591949462890625</LatitudeDegrees>
              <LongitudeDegrees>37.07668558694422245025634765625</LongitudeDegrees>
            </Position>
            <AltitudeMeters>1463</AltitudeMeters>
            <DistanceMeters>NAN</DistanceMeters>
          </Trackpoint>
          <Trackpoint>
            <Time>2021-08-03T06:40:03.000Z</Time>
            <Position>
              <LatitudeDegrees>-15.3437297232449054718017578125</LatitudeDegrees>
              <LongitudeDegrees>37.0766937173902988433837890625</LongitudeDegrees>
            </Position>
            <AltitudeMeters>1462.800048828125</AltitudeMeters>
            <DistanceMeters>NAN</DistanceMeters>
          </Trackpoint>
          <Trackpoint>
            <Time>2021-08-03T06:40:05.000Z</Time>
            <Position>
              <LatitudeDegrees>-15.34372620284557342529296875</LatitudeDegrees>
              <LongitudeDegrees>37.07671375013887882232666015625</LongitudeDegrees>
            </Position>
            <AltitudeMeters>1461.5999755859375</AltitudeMeters>
            <DistanceMeters>NAN</DistanceMeters>
          </Trackpoint>
          <Trackpoint>
            <Time>2021-08-03T06:40:06.000Z</Time>
            <Position>
              <LatitudeDegrees>-15.3437220118939876556396484375</LatitudeDegrees>
              <LongitudeDegrees>37.0767265744507312774658203125</LongitudeDegrees>
            </Position>
            <AltitudeMeters>1461.5999755859375</AltitudeMeters>
            <DistanceMeters>NAN</DistanceMeters>
          </Trackpoint>
          <Trackpoint>
            <Time>2021-08-03T06:40:07.000Z</Time>
            <Position>
              <LatitudeDegrees>-15.34371681511402130126953125</LatitudeDegrees>
              <LongitudeDegrees>37.076735459268093109130859375</LongitudeDegrees>
            </Position>
            <AltitudeMeters>1461.5999755859375</AltitudeMeters>
            <DistanceMeters>NAN</DistanceMeters>
          </Trackpoint>
          <Trackpoint>
            <Time>2021-08-03T06:40:10.000Z</Time>
            <Position>
              <LatitudeDegrees>-15.343701727688312530517578125</LatitudeDegrees>
              <LongitudeDegrees>37.07674585282802581787109375</LongitudeDegrees>
            </Position>
            <AltitudeMeters>1460.5999755859375</AltitudeMeters>
            <DistanceMeters>NAN</DistanceMeters>
          </Trackpoint>
          <Trackpoint>
            <Time>2021-08-03T06:40:12.000Z</Time>
            <Position>
              <LatitudeDegrees>-15.34369611181318759918212890625</LatitudeDegrees>
              <LongitudeDegrees>37.07675163634121417999267578125</LongitudeDegrees>
            </Position>
            <AltitudeMeters>1460.5999755859375</AltitudeMeters>
            <DistanceMeters>NAN</DistanceMeters>
          </Trackpoint>
          <Trackpoint>
            <Time>2021-08-03T06:40:15.000Z</Time>
            <Position>
              <LatitudeDegrees>-15.34369192086160182952880859375</LatitudeDegrees>
              <LongitudeDegrees>37.076755575835704803466796875</LongitudeDegrees>
            </Position>
            <AltitudeMeters>1460.5999755859375</AltitudeMeters>
            <DistanceMeters>NAN</DistanceMeters>
          </Trackpoint>
          <Trackpoint>
            <Time>2021-08-03T06:40:16.000Z</Time>
            <Position>
              <LatitudeDegrees>-15.3436938486993312835693359375</LatitudeDegrees>
              <LongitudeDegrees>37.07675314508378505706787109375</LongitudeDegrees>
            </Position>
            <AltitudeMeters>1460.5999755859375</AltitudeMeters>
            <DistanceMeters>NAN</DistanceMeters>
          </Trackpoint>
          <Trackpoint>
            <Time>2021-08-03T06:40:19.000Z</Time>
            <Position>
              <LatitudeDegrees>-15.3437032364308834075927734375</LatitudeDegrees>
              <LongitudeDegrees>37.07674878649413585662841796875</LongitudeDegrees>
            </Position>
            <AltitudeMeters>1459.800048828125</AltitudeMeters>
            <DistanceMeters>NAN</DistanceMeters>
          </Trackpoint>
          <Trackpoint>
            <Time>2021-08-03T06:40:20.000Z</Time>
            <Position>
              <LatitudeDegrees>-15.34369946457445621490478515625</LatitudeDegrees>
              <LongitudeDegrees>37.076754905283451080322265625</LongitudeDegrees>
            </Position>
            <AltitudeMeters>1459.800048828125</AltitudeMeters>
            <DistanceMeters>NAN</DistanceMeters>
          </Trackpoint>
          <Trackpoint>
            <Time>2021-08-03T06:40:21.000Z</Time>
            <Position>
              <LatitudeDegrees>-15.34369242377579212188720703125</LatitudeDegrees>
              <LongitudeDegrees>37.0767658017575740814208984375</LongitudeDegrees>
            </Position>
            <AltitudeMeters>1459.5999755859375</AltitudeMeters>
            <DistanceMeters>NAN</DistanceMeters>
          </Trackpoint>
          <Trackpoint>
            <Time>2021-08-03T06:40:24.000Z</Time>
            <Position>
              <LatitudeDegrees>-15.343668200075626373291015625</LatitudeDegrees>
              <LongitudeDegrees>37.076785750687122344970703125</LongitudeDegrees>
            </Position>
            <AltitudeMeters>1458.5999755859375</AltitudeMeters>
            <DistanceMeters>NAN</DistanceMeters>
          </Trackpoint>
          <Trackpoint>
            <Time>2021-08-03T06:40:25.000Z</Time>
            <Position>
              <LatitudeDegrees>-15.3436606563627719879150390625</LatitudeDegrees>
              <LongitudeDegrees>37.07679279148578643798828125</LongitudeDegrees>
            </Position>
            <AltitudeMeters>1458.4000244140625</AltitudeMeters>
            <DistanceMeters>NAN</DistanceMeters>
          </Trackpoint>
          <Trackpoint>
            <Time>2021-08-03T06:40:30.000Z</Time>
            <Position>
              <LatitudeDegrees>-15.3436170704662799835205078125</LatitudeDegrees>
              <LongitudeDegrees>37.076834030449390411376953125</LongitudeDegrees>
            </Position>
            <AltitudeMeters>1457.199951171875</AltitudeMeters>
            <DistanceMeters>NAN</DistanceMeters>
          </Trackpoint>
          <Trackpoint>
            <Time>2021-08-03T06:40:31.000Z</Time>
            <Position>
              <LatitudeDegrees>-15.34360826946794986724853515625</LatitudeDegrees>
              <LongitudeDegrees>37.07684400491416454315185546875</LongitudeDegrees>
            </Position>
            <AltitudeMeters>1455.5999755859375</AltitudeMeters>
            <DistanceMeters>NAN</DistanceMeters>
          </Trackpoint>
          <Trackpoint>
            <Time>2021-08-03T06:40:33.000Z</Time>
            <Position>
              <LatitudeDegrees>-15.343587398529052734375</LatitudeDegrees>
              <LongitudeDegrees>37.0768596790730953216552734375</LongitudeDegrees>
            </Position>
            <AltitudeMeters>1455.199951171875</AltitudeMeters>
            <DistanceMeters>NAN</DistanceMeters>
          </Trackpoint>
          <Trackpoint>
            <Time>2021-08-03T06:40:36.000Z</Time>
            <Position>
              <LatitudeDegrees>-15.34356183372437953948974609375</LatitudeDegrees>
              <LongitudeDegrees>37.0768888480961322784423828125</LongitudeDegrees>
            </Position>
            <AltitudeMeters>1454.199951171875</AltitudeMeters>
            <DistanceMeters>NAN</DistanceMeters>
          </Trackpoint>
          <Trackpoint>
            <Time>2021-08-03T06:40:37.000Z</Time>
            <Position>
              <LatitudeDegrees>-15.34355479292571544647216796875</LatitudeDegrees>
              <LongitudeDegrees>37.0768985711038112640380859375</LongitudeDegrees>
            </Position>
            <AltitudeMeters>1453</AltitudeMeters>
            <DistanceMeters>NAN</DistanceMeters>
          </Trackpoint>
          <Trackpoint>
            <Time>2021-08-03T06:40:39.000Z</Time>
            <Position>
              <LatitudeDegrees>-15.34353576600551605224609375</LatitudeDegrees>
              <LongitudeDegrees>37.076914496719837188720703125</LongitudeDegrees>
            </Position>
            <AltitudeMeters>1452.5999755859375</AltitudeMeters>
            <DistanceMeters>NAN</DistanceMeters>
          </Trackpoint>
          <Trackpoint>
            <Time>2021-08-03T06:40:41.000Z</Time>
            <Position>
              <LatitudeDegrees>-15.34351405687630176544189453125</LatitudeDegrees>
              <LongitudeDegrees>37.07692933268845081329345703125</LongitudeDegrees>
            </Position>
            <AltitudeMeters>1452.199951171875</AltitudeMeters>
            <DistanceMeters>NAN</DistanceMeters>
          </Trackpoint>
          <Trackpoint>
            <Time>2021-08-03T06:40:42.000Z</Time>
            <Position>
              <LatitudeDegrees>-15.34350450150668621063232421875</LatitudeDegrees>
              <LongitudeDegrees>37.0769371278584003448486328125</LongitudeDegrees>
            </Position>
            <AltitudeMeters>1452</AltitudeMeters>
            <DistanceMeters>NAN</DistanceMeters>
          </Trackpoint>
          <Trackpoint>
            <Time>2021-08-03T06:40:45.000Z</Time>
            <Position>
              <LatitudeDegrees>-15.343482457101345062255859375</LatitudeDegrees>
              <LongitudeDegrees>37.07696001045405864715576171875</LongitudeDegrees>
            </Position>
            <AltitudeMeters>1451</AltitudeMeters>
            <DistanceMeters>NAN</DistanceMeters>
          </Trackpoint>
          <Trackpoint>
            <Time>2021-08-03T06:40:46.000Z</Time>
            <Position>
              <LatitudeDegrees>-15.3434729017317295074462890625</LatitudeDegrees>
              <LongitudeDegrees>37.076969146728515625</LongitudeDegrees>
            </Position>
            <AltitudeMeters>1451</AltitudeMeters>
            <DistanceMeters>NAN</DistanceMeters>
          </Trackpoint>
          <Trackpoint>
            <Time>2021-08-03T06:40:49.000Z</Time>
            <Position>
              <LatitudeDegrees>-15.3434474207460880279541015625</LatitudeDegrees>
              <LongitudeDegrees>37.077003009617328643798828125</LongitudeDegrees>
            </Position>
            <AltitudeMeters>1449.4000244140625</AltitudeMeters>
            <DistanceMeters>NAN</DistanceMeters>
          </Trackpoint>
          <Trackpoint>
            <Time>2021-08-03T06:40:50.000Z</Time>
            <Position>
              <LatitudeDegrees>-15.3434412181377410888671875</LatitudeDegrees>
              <LongitudeDegrees>37.07701675593852996826171875</LongitudeDegrees>
            </Position>
            <AltitudeMeters>1449.199951171875</AltitudeMeters>
            <DistanceMeters>NAN</DistanceMeters>
          </Trackpoint>
          <Trackpoint>
            <Time>2021-08-03T06:40:51.000Z</Time>
            <Position>
              <LatitudeDegrees>-15.343437530100345611572265625</LatitudeDegrees>
              <LongitudeDegrees>37.0770299993455410003662109375</LongitudeDegrees>
            </Position>
            <AltitudeMeters>1449</AltitudeMeters>
            <DistanceMeters>NAN</DistanceMeters>
          </Trackpoint>
          <Trackpoint>
            <Time>2021-08-03T06:40:53.000Z</Time>
            <Position>
              <LatitudeDegrees>-15.34343526698648929595947265625</LatitudeDegrees>
              <LongitudeDegrees>37.0770455896854400634765625</LongitudeDegrees>
            </Position>
            <AltitudeMeters>1447.800048828125</AltitudeMeters>
            <DistanceMeters>NAN</DistanceMeters>
          </Trackpoint>
          <Trackpoint>
            <Time>2021-08-03T06:40:56.000Z</Time>
            <Position>
              <LatitudeDegrees>-15.34342311322689056396484375</LatitudeDegrees>
              <LongitudeDegrees>37.0770786143839359283447265625</LongitudeDegrees>
            </Position>
            <AltitudeMeters>1446.4000244140625</AltitudeMeters>
            <DistanceMeters>NAN</DistanceMeters>
          </Trackpoint>
          <Trackpoint>
            <Time>2021-08-03T06:40:59.000Z</Time>
            <Position>
              <LatitudeDegrees>-15.343402661383152008056640625</LatitudeDegrees>
              <LongitudeDegrees>37.07710526883602142333984375</LongitudeDegrees>
            </Position>
            <AltitudeMeters>1446.199951171875</AltitudeMeters>
            <DistanceMeters>NAN</DistanceMeters>
          </Trackpoint>
          <Trackpoint>
            <Time>2021-08-03T06:41:01.000Z</Time>
            <Position>
              <LatitudeDegrees>-15.3433921001851558685302734375</LatitudeDegrees>
              <LongitudeDegrees>37.077124379575252532958984375</LongitudeDegrees>
            </Position>
            <AltitudeMeters>1445.199951171875</AltitudeMeters>
            <DistanceMeters>NAN</DistanceMeters>
          </Trackpoint>
          <Trackpoint>
            <Time>2021-08-03T06:41:04.000Z</Time>
            <Position>
              <LatitudeDegrees>-15.34337558783590793609619140625</LatitudeDegrees>
              <LongitudeDegrees>37.0771406404674053192138671875</LongitudeDegrees>
            </Position>
            <AltitudeMeters>1443.199951171875</AltitudeMeters>
            <DistanceMeters>NAN</DistanceMeters>
          </Trackpoint>
          <Trackpoint>
            <Time>2021-08-03T06:41:07.000Z</Time>
            <Position>
              <LatitudeDegrees>-15.343348346650600433349609375</LatitudeDegrees>
              <LongitudeDegrees>37.07716737873852252960205078125</LongitudeDegrees>
            </Position>
            <AltitudeMeters>1442.5999755859375</AltitudeMeters>
            <DistanceMeters>NAN</DistanceMeters>
          </Trackpoint>
          <Trackpoint>
            <Time>2021-08-03T06:41:08.000Z</Time>
            <Position>
              <LatitudeDegrees>-15.34334138967096805572509765625</LatitudeDegrees>
              <LongitudeDegrees>37.0771748386323451995849609375</LongitudeDegrees>
            </Position>
            <AltitudeMeters>1442.199951171875</AltitudeMeters>
            <DistanceMeters>NAN</DistanceMeters>
          </Trackpoint>
          <Trackpoint>
            <Time>2021-08-03T06:41:12.000Z</Time>
            <Position>
              <LatitudeDegrees>-15.34330367110669612884521484375</LatitudeDegrees>
              <LongitudeDegrees>37.0771983079612255096435546875</LongitudeDegrees>
            </Position>
            <AltitudeMeters>1441</AltitudeMeters>
            <DistanceMeters>NAN</DistanceMeters>
          </Trackpoint>
          <Trackpoint>
            <Time>2021-08-03T06:41:15.000Z</Time>
            <Position>
              <LatitudeDegrees>-15.34328497946262359619140625</LatitudeDegrees>
              <LongitudeDegrees>37.0772118866443634033203125</LongitudeDegrees>
            </Position>
            <AltitudeMeters>1440.199951171875</AltitudeMeters>
            <DistanceMeters>NAN</DistanceMeters>
          </Trackpoint>
          <Trackpoint>
            <Time>2021-08-03T06:41:16.000Z</Time>
            <Position>
              <LatitudeDegrees>-15.34328120760619640350341796875</LatitudeDegrees>
              <LongitudeDegrees>37.07722127437591552734375</LongitudeDegrees>
            </Position>
            <AltitudeMeters>1439.800048828125</AltitudeMeters>
            <DistanceMeters>NAN</DistanceMeters>
          </Trackpoint>
          <Trackpoint>
            <Time>2021-08-03T06:41:20.000Z</Time>
            <Position>
              <LatitudeDegrees>-15.34326293505728244781494140625</LatitudeDegrees>
              <LongitudeDegrees>37.07725622691214084625244140625</LongitudeDegrees>
            </Position>
            <AltitudeMeters>1438.5999755859375</AltitudeMeters>
            <DistanceMeters>NAN</DistanceMeters>
          </Trackpoint>
          <Trackpoint>
            <Time>2021-08-03T06:41:21.000Z</Time>
            <Position>
              <LatitudeDegrees>-15.3432589955627918243408203125</LatitudeDegrees>
              <LongitudeDegrees>37.0772687159478664398193359375</LongitudeDegrees>
            </Position>
            <AltitudeMeters>1438.5999755859375</AltitudeMeters>
            <DistanceMeters>NAN</DistanceMeters>
          </Trackpoint>
          <Trackpoint>
            <Time>2021-08-03T06:41:24.000Z</Time>
            <Position>
              <LatitudeDegrees>-15.34325773827731609344482421875</LatitudeDegrees>
              <LongitudeDegrees>37.07730534486472606658935546875</LongitudeDegrees>
            </Position>
            <AltitudeMeters>1437.800048828125</AltitudeMeters>
            <DistanceMeters>NAN</DistanceMeters>
          </Trackpoint>
          <Trackpoint>
            <Time>2021-08-03T06:41:25.000Z</Time>
            <Position>
              <LatitudeDegrees>-15.34324952401220798492431640625</LatitudeDegrees>
              <LongitudeDegrees>37.0773196779191493988037109375</LongitudeDegrees>
            </Position>
            <AltitudeMeters>1437.199951171875</AltitudeMeters>
            <DistanceMeters>NAN</DistanceMeters>
          </Trackpoint>
          <Trackpoint>
            <Time>2021-08-03T06:41:30.000Z</Time>
            <Position>
              <LatitudeDegrees>-15.343202166259288787841796875</LatitudeDegrees>
              <LongitudeDegrees>37.07737022079527378082275390625</LongitudeDegrees>
            </Position>
            <AltitudeMeters>1436.199951171875</AltitudeMeters>
            <DistanceMeters>NAN</DistanceMeters>
          </Trackpoint>
          <Trackpoint>
            <Time>2021-08-03T06:41:31.000Z</Time>
            <Position>
              <LatitudeDegrees>-15.3431912697851657867431640625</LatitudeDegrees>
              <LongitudeDegrees>37.07738245837390422821044921875</LongitudeDegrees>
            </Position>
            <AltitudeMeters>1435.800048828125</AltitudeMeters>
            <DistanceMeters>NAN</DistanceMeters>
          </Trackpoint>
          <Trackpoint>
            <Time>2021-08-03T06:41:33.000Z</Time>
            <Position>
              <LatitudeDegrees>-15.34317492507398128509521484375</LatitudeDegrees>
              <LongitudeDegrees>37.07739603705704212188720703125</LongitudeDegrees>
            </Position>
            <AltitudeMeters>1434.800048828125</AltitudeMeters>
            <DistanceMeters>NAN</DistanceMeters>
          </Trackpoint>
          <Trackpoint>
            <Time>2021-08-03T06:41:34.000Z</Time>
            <Position>
              <LatitudeDegrees>-15.34316235221922397613525390625</LatitudeDegrees>
              <LongitudeDegrees>37.07740810699760913848876953125</LongitudeDegrees>
            </Position>
            <AltitudeMeters>1434.5999755859375</AltitudeMeters>
            <DistanceMeters>NAN</DistanceMeters>
          </Trackpoint>
          <Trackpoint>
            <Time>2021-08-03T06:41:37.000Z</Time>
            <Position>
              <LatitudeDegrees>-15.34313133917748928070068359375</LatitudeDegrees>
              <LongitudeDegrees>37.0774417184293270111083984375</LongitudeDegrees>
            </Position>
            <AltitudeMeters>1434</AltitudeMeters>
            <DistanceMeters>NAN</DistanceMeters>
          </Trackpoint>
          <Trackpoint>
            <Time>2021-08-03T06:41:39.000Z</Time>
            <Position>
              <LatitudeDegrees>-15.34311038441956043243408203125</LatitudeDegrees>
              <LongitudeDegrees>37.07745504565536975860595703125</LongitudeDegrees>
            </Position>
            <AltitudeMeters>1433.4000244140625</AltitudeMeters>
            <DistanceMeters>NAN</DistanceMeters>
          </Trackpoint>
          <Trackpoint>
            <Time>2021-08-03T06:41:41.000Z</Time>
            <Position>
              <LatitudeDegrees>-15.343086160719394683837890625</LatitudeDegrees>
              <LongitudeDegrees>37.07746870815753936767578125</LongitudeDegrees>
            </Position>
            <AltitudeMeters>1432.4000244140625</AltitudeMeters>
            <DistanceMeters>NAN</DistanceMeters>
          </Trackpoint>
          <Trackpoint>
            <Time>2021-08-03T06:41:42.000Z</Time>
            <Position>
              <LatitudeDegrees>-15.3430792875587940216064453125</LatitudeDegrees>
              <LongitudeDegrees>37.0774734020233154296875</LongitudeDegrees>
            </Position>
            <AltitudeMeters>1431.199951171875</AltitudeMeters>
            <DistanceMeters>NAN</DistanceMeters>
          </Trackpoint>
          <Trackpoint>
            <Time>2021-08-03T06:41:45.000Z</Time>
            <Position>
              <LatitudeDegrees>-15.34305674023926258087158203125</LatitudeDegrees>
              <LongitudeDegrees>37.07749460823833942413330078125</LongitudeDegrees>
            </Position>
            <AltitudeMeters>1430.800048828125</AltitudeMeters>
            <DistanceMeters>NAN</DistanceMeters>
          </Trackpoint>
          <Trackpoint>
            <Time>2021-08-03T06:41:48.000Z</Time>
            <Position>
              <LatitudeDegrees>-15.34303276799619197845458984375</LatitudeDegrees>
              <LongitudeDegrees>37.077529393136501312255859375</LongitudeDegrees>
            </Position>
            <AltitudeMeters>1429.5999755859375</AltitudeMeters>
            <DistanceMeters>NAN</DistanceMeters>
          </Trackpoint>
          <Trackpoint>
            <Time>2021-08-03T06:41:50.000Z</Time>
            <Position>
              <LatitudeDegrees>-15.343024469912052154541015625</LatitudeDegrees>
              <LongitudeDegrees>37.07755344919860363006591796875</LongitudeDegrees>
            </Position>
            <AltitudeMeters>1429.4000244140625</AltitudeMeters>
            <DistanceMeters>NAN</DistanceMeters>
          </Trackpoint>
          <Trackpoint>
            <Time>2021-08-03T06:41:52.000Z</Time>
            <Position>
              <LatitudeDegrees>-15.3430273197591304779052734375</LatitudeDegrees>
              <LongitudeDegrees>37.07757038064301013946533203125</LongitudeDegrees>
            </Position>
            <AltitudeMeters>1429.199951171875</AltitudeMeters>
            <DistanceMeters>NAN</DistanceMeters>
          </Trackpoint>
          <Trackpoint>
            <Time>2021-08-03T06:41:54.000Z</Time>
            <Position>
              <LatitudeDegrees>-15.3430289961397647857666015625</LatitudeDegrees>
              <LongitudeDegrees>37.07759116776287555694580078125</LongitudeDegrees>
            </Position>
            <AltitudeMeters>1428.800048828125</AltitudeMeters>
            <DistanceMeters>NAN</DistanceMeters>
          </Trackpoint>
          <Trackpoint>
            <Time>2021-08-03T06:41:56.000Z</Time>
            <Position>
              <LatitudeDegrees>-15.34303192980587482452392578125</LatitudeDegrees>
              <LongitudeDegrees>37.0776021480560302734375</LongitudeDegrees>
            </Position>
            <AltitudeMeters>1428.800048828125</AltitudeMeters>
            <DistanceMeters>NAN</DistanceMeters>
          </Trackpoint>
          <Trackpoint>
            <Time>2021-08-03T06:41:57.000Z</Time>
            <Position>
              <LatitudeDegrees>-15.34303444437682628631591796875</LatitudeDegrees>
              <LongitudeDegrees>37.07760843448340892791748046875</LongitudeDegrees>
            </Position>
            <AltitudeMeters>1428.800048828125</AltitudeMeters>
            <DistanceMeters>NAN</DistanceMeters>
          </Trackpoint>
          <Trackpoint>
            <Time>2021-08-03T06:41:58.000Z</Time>
            <Position>
              <LatitudeDegrees>-15.34303830005228519439697265625</LatitudeDegrees>
              <LongitudeDegrees>37.077620588243007659912109375</LongitudeDegrees>
            </Position>
            <AltitudeMeters>1428.199951171875</AltitudeMeters>
            <DistanceMeters>NAN</DistanceMeters>
          </Trackpoint>
          <Trackpoint>
            <Time>2021-08-03T06:42:02.000Z</Time>
            <Position>
              <LatitudeDegrees>-15.34304114989936351776123046875</LatitudeDegrees>
              <LongitudeDegrees>37.07765671424567699432373046875</LongitudeDegrees>
            </Position>
            <AltitudeMeters>1426.5999755859375</AltitudeMeters>
            <DistanceMeters>NAN</DistanceMeters>
          </Trackpoint>
          <Trackpoint>
            <Time>2021-08-03T06:42:05.000Z</Time>
            <Position>
              <LatitudeDegrees>-15.34304358065128326416015625</LatitudeDegrees>
              <LongitudeDegrees>37.07769024185836315155029296875</LongitudeDegrees>
            </Position>
            <AltitudeMeters>1425.5999755859375</AltitudeMeters>
            <DistanceMeters>NAN</DistanceMeters>
          </Trackpoint>
          <Trackpoint>
            <Time>2021-08-03T06:42:06.000Z</Time>
            <Position>
              <LatitudeDegrees>-15.34304366447031497955322265625</LatitudeDegrees>
              <LongitudeDegrees>37.0777028985321521759033203125</LongitudeDegrees>
            </Position>
            <AltitudeMeters>1424.800048828125</AltitudeMeters>
            <DistanceMeters>NAN</DistanceMeters>
          </Trackpoint>
          <Trackpoint>
            <Time>2021-08-03T06:42:08.000Z</Time>
            <Position>
              <LatitudeDegrees>-15.34304550848901271820068359375</LatitudeDegrees>
              <LongitudeDegrees>37.07772754132747650146484375</LongitudeDegrees>
            </Position>
            <AltitudeMeters>1424.199951171875</AltitudeMeters>
            <DistanceMeters>NAN</DistanceMeters>
          </Trackpoint>
          <Trackpoint>
            <Time>2021-08-03T06:42:09.000Z</Time>
            <Position>
              <LatitudeDegrees>-15.34304969944059848785400390625</LatitudeDegrees>
              <LongitudeDegrees>37.07774120382964611053466796875</LongitudeDegrees>
            </Position>
            <AltitudeMeters>1423.800048828125</AltitudeMeters>
            <DistanceMeters>NAN</DistanceMeters>
          </Trackpoint>
          <Trackpoint>
            <Time>2021-08-03T06:42:11.000Z</Time>
            <Position>
              <LatitudeDegrees>-15.3430616855621337890625</LatitudeDegrees>
              <LongitudeDegrees>37.07775796763598918914794921875</LongitudeDegrees>
            </Position>
            <AltitudeMeters>1423.5999755859375</AltitudeMeters>
            <DistanceMeters>NAN</DistanceMeters>
          </Trackpoint>
          <Trackpoint>
            <Time>2021-08-03T06:42:14.000Z</Time>
            <Position>
              <LatitudeDegrees>-15.34306461922824382781982421875</LatitudeDegrees>
              <LongitudeDegrees>37.07780004478991031646728515625</LongitudeDegrees>
            </Position>
            <AltitudeMeters>1423.199951171875</AltitudeMeters>
            <DistanceMeters>NAN</DistanceMeters>
          </Trackpoint>
          <Trackpoint>
            <Time>2021-08-03T06:42:16.000Z</Time>
            <Position>
              <LatitudeDegrees>-15.3430524654686450958251953125</LatitudeDegrees>
              <LongitudeDegrees>37.077819406986236572265625</LongitudeDegrees>
            </Position>
            <AltitudeMeters>1423.199951171875</AltitudeMeters>
            <DistanceMeters>NAN</DistanceMeters>
          </Trackpoint>
          <Trackpoint>
            <Time>2021-08-03T06:42:17.000Z</Time>
            <Position>
              <LatitudeDegrees>-15.3430474363267421722412109375</LatitudeDegrees>
              <LongitudeDegrees>37.07782678306102752685546875</LongitudeDegrees>
            </Position>
            <AltitudeMeters>1422.5999755859375</AltitudeMeters>
            <DistanceMeters>NAN</DistanceMeters>
          </Trackpoint>
          <Trackpoint>
            <Time>2021-08-03T06:42:19.000Z</Time>
            <Position>
              <LatitudeDegrees>-15.34303762950003147125244140625</LatitudeDegrees>
              <LongitudeDegrees>37.07785427570343017578125</LongitudeDegrees>
            </Position>
            <AltitudeMeters>1422.5999755859375</AltitudeMeters>
            <DistanceMeters>NAN</DistanceMeters>
          </Trackpoint>
          <Trackpoint>
            <Time>2021-08-03T06:42:20.000Z</Time>
            <Position>
              <LatitudeDegrees>-15.34303394146263599395751953125</LatitudeDegrees>
              <LongitudeDegrees>37.07786710001528263092041015625</LongitudeDegrees>
            </Position>
            <AltitudeMeters>1422.199951171875</AltitudeMeters>
            <DistanceMeters>NAN</DistanceMeters>
          </Trackpoint>
          <Trackpoint>
            <Time>2021-08-03T06:42:23.000Z</Time>
            <Position>
              <LatitudeDegrees>-15.34302907995879650115966796875</LatitudeDegrees>
              <LongitudeDegrees>37.07790322601795196533203125</LongitudeDegrees>
            </Position>
            <AltitudeMeters>1420.800048828125</AltitudeMeters>
            <DistanceMeters>NAN</DistanceMeters>
          </Trackpoint>
          <Trackpoint>
            <Time>2021-08-03T06:42:26.000Z</Time>
            <Position>
              <LatitudeDegrees>-15.3430227935314178466796875</LatitudeDegrees>
              <LongitudeDegrees>37.07794320769608020782470703125</LongitudeDegrees>
            </Position>
            <AltitudeMeters>1420.199951171875</AltitudeMeters>
            <DistanceMeters>NAN</DistanceMeters>
          </Trackpoint>
          <Trackpoint>
            <Time>2021-08-03T06:42:27.000Z</Time>
            <Position>
              <LatitudeDegrees>-15.34301617182791233062744140625</LatitudeDegrees>
              <LongitudeDegrees>37.07795544527471065521240234375</LongitudeDegrees>
            </Position>
            <AltitudeMeters>1419.800048828125</AltitudeMeters>
            <DistanceMeters>NAN</DistanceMeters>
          </Trackpoint>
          <Trackpoint>
            <Time>2021-08-03T06:42:29.000Z</Time>
            <Position>
              <LatitudeDegrees>-15.343009047210216522216796875</LatitudeDegrees>
              <LongitudeDegrees>37.07798369228839874267578125</LongitudeDegrees>
            </Position>
            <AltitudeMeters>1418.5999755859375</AltitudeMeters>
            <DistanceMeters>NAN</DistanceMeters>
          </Trackpoint>
          <Trackpoint>
            <Time>2021-08-03T06:42:33.000Z</Time>
            <Position>
              <LatitudeDegrees>-15.34297962673008441925048828125</LatitudeDegrees>
              <LongitudeDegrees>37.07803876139223575592041015625</LongitudeDegrees>
            </Position>
            <AltitudeMeters>1417.5999755859375</AltitudeMeters>
            <DistanceMeters>NAN</DistanceMeters>
          </Trackpoint>
          <Trackpoint>
            <Time>2021-08-03T06:42:34.000Z</Time>
            <Position>
              <LatitudeDegrees>-15.3429703228175640106201171875</LatitudeDegrees>
              <LongitudeDegrees>37.0780485682189464569091796875</LongitudeDegrees>
            </Position>
            <AltitudeMeters>1417.199951171875</AltitudeMeters>
            <DistanceMeters>NAN</DistanceMeters>
          </Trackpoint>
          <Trackpoint>
            <Time>2021-08-03T06:42:38.000Z</Time>
            <Position>
              <LatitudeDegrees>-15.3429388068616390228271484375</LatitudeDegrees>
              <LongitudeDegrees>37.07808737643063068389892578125</LongitudeDegrees>
            </Position>
            <AltitudeMeters>1416.199951171875</AltitudeMeters>
            <DistanceMeters>NAN</DistanceMeters>
          </Trackpoint>
          <Trackpoint>
            <Time>2021-08-03T06:42:40.000Z</Time>
            <Position>
              <LatitudeDegrees>-15.3429307602345943450927734375</LatitudeDegrees>
              <LongitudeDegrees>37.07811537198722362518310546875</LongitudeDegrees>
            </Position>
            <AltitudeMeters>1415.5999755859375</AltitudeMeters>
            <DistanceMeters>NAN</DistanceMeters>
          </Trackpoint>
          <Trackpoint>
            <Time>2021-08-03T06:42:42.000Z</Time>
            <Position>
              <LatitudeDegrees>-15.34292028285562992095947265625</LatitudeDegrees>
              <LongitudeDegrees>37.07814169116318225860595703125</LongitudeDegrees>
            </Position>
            <AltitudeMeters>1414.5999755859375</AltitudeMeters>
            <DistanceMeters>NAN</DistanceMeters>
          </Trackpoint>
          <Trackpoint>
            <Time>2021-08-03T06:42:45.000Z</Time>
            <Position>
              <LatitudeDegrees>-15.34290938638150691986083984375</LatitudeDegrees>
              <LongitudeDegrees>37.07817303948104381561279296875</LongitudeDegrees>
            </Position>
            <AltitudeMeters>1413.5999755859375</AltitudeMeters>
            <DistanceMeters>NAN</DistanceMeters>
          </Trackpoint>
          <Trackpoint>
            <Time>2021-08-03T06:42:47.000Z</Time>
            <Position>
              <LatitudeDegrees>-15.34290486015379428863525390625</LatitudeDegrees>
              <LongitudeDegrees>37.07820153795182704925537109375</LongitudeDegrees>
            </Position>
            <AltitudeMeters>1412.4000244140625</AltitudeMeters>
            <DistanceMeters>NAN</DistanceMeters>
          </Trackpoint>
          <Trackpoint>
            <Time>2021-08-03T06:42:48.000Z</Time>
            <Position>
              <LatitudeDegrees>-15.34290318377315998077392578125</LatitudeDegrees>
              <LongitudeDegrees>37.07821570336818695068359375</LongitudeDegrees>
            </Position>
            <AltitudeMeters>1412.4000244140625</AltitudeMeters>
            <DistanceMeters>NAN</DistanceMeters>
          </Trackpoint>
          <Trackpoint>
            <Time>2021-08-03T06:42:50.000Z</Time>
            <Position>
              <LatitudeDegrees>-15.3429012559354305267333984375</LatitudeDegrees>
              <LongitudeDegrees>37.07823850214481353759765625</LongitudeDegrees>
            </Position>
            <AltitudeMeters>1411.800048828125</AltitudeMeters>
            <DistanceMeters>NAN</DistanceMeters>
          </Trackpoint>
          <Trackpoint>
            <Time>2021-08-03T06:42:51.000Z</Time>
            <Position>
              <LatitudeDegrees>-15.3428972326219081878662109375</LatitudeDegrees>
              <LongitudeDegrees>37.0782490633428096771240234375</LongitudeDegrees>
            </Position>
            <AltitudeMeters>1411.4000244140625</AltitudeMeters>
            <DistanceMeters>NAN</DistanceMeters>
          </Trackpoint>
          <Trackpoint>
            <Time>2021-08-03T06:42:54.000Z</Time>
            <Position>
              <LatitudeDegrees>-15.3428811393678188323974609375</LatitudeDegrees>
              <LongitudeDegrees>37.07827898673713207244873046875</LongitudeDegrees>
            </Position>
            <AltitudeMeters>1410.199951171875</AltitudeMeters>
            <DistanceMeters>NAN</DistanceMeters>
          </Trackpoint>
          <Trackpoint>
            <Time>2021-08-03T06:42:56.000Z</Time>
            <Position>
              <LatitudeDegrees>-15.3428700752556324005126953125</LatitudeDegrees>
              <LongitudeDegrees>37.07830555737018585205078125</LongitudeDegrees>
            </Position>
            <AltitudeMeters>1409.5999755859375</AltitudeMeters>
            <DistanceMeters>NAN</DistanceMeters>
          </Trackpoint>
          <Trackpoint>
            <Time>2021-08-03T06:42:58.000Z</Time>
            <Position>
              <LatitudeDegrees>-15.3428576700389385223388671875</LatitudeDegrees>
              <LongitudeDegrees>37.0783325470983982086181640625</LongitudeDegrees>
            </Position>
            <AltitudeMeters>1407.800048828125</AltitudeMeters>
            <DistanceMeters>NAN</DistanceMeters>
          </Trackpoint>
          <Trackpoint>
            <Time>2021-08-03T06:43:03.000Z</Time>
            <Position>
              <LatitudeDegrees>-15.34282992593944072723388671875</LatitudeDegrees>
              <LongitudeDegrees>37.0783845148980617523193359375</LongitudeDegrees>
            </Position>
            <AltitudeMeters>1406.5999755859375</AltitudeMeters>
            <DistanceMeters>NAN</DistanceMeters>
          </Trackpoint>
          <Trackpoint>
            <Time>2021-08-03T06:43:05.000Z</Time>
            <Position>
              <LatitudeDegrees>-15.3428157605230808258056640625</LatitudeDegrees>
              <LongitudeDegrees>37.0784081518650054931640625</LongitudeDegrees>
            </Position>
            <AltitudeMeters>1406.4000244140625</AltitudeMeters>
            <DistanceMeters>NAN</DistanceMeters>
          </Trackpoint>
          <Trackpoint>
            <Time>2021-08-03T06:43:07.000Z</Time>
            <Position>
              <LatitudeDegrees>-15.34281115047633647918701171875</LatitudeDegrees>
              <LongitudeDegrees>37.078427933156490325927734375</LongitudeDegrees>
            </Position>
            <AltitudeMeters>1405.199951171875</AltitudeMeters>
            <DistanceMeters>NAN</DistanceMeters>
          </Trackpoint>
          <Trackpoint>
            <Time>2021-08-03T06:43:09.000Z</Time>
            <Position>
              <LatitudeDegrees>-15.34280712716281414031982421875</LatitudeDegrees>
              <LongitudeDegrees>37.07844846881926059722900390625</LongitudeDegrees>
            </Position>
            <AltitudeMeters>1404.4000244140625</AltitudeMeters>
            <DistanceMeters>NAN</DistanceMeters>
          </Trackpoint>
          <Trackpoint>
            <Time>2021-08-03T06:43:10.000Z</Time>
            <Position>
              <LatitudeDegrees>-15.34279815852642059326171875</LatitudeDegrees>
              <LongitudeDegrees>37.078457772731781005859375</LongitudeDegrees>
            </Position>
            <AltitudeMeters>1403.800048828125</AltitudeMeters>
            <DistanceMeters>NAN</DistanceMeters>
          </Trackpoint>
          <Trackpoint>
            <Time>2021-08-03T06:43:12.000Z</Time>
            <Position>
              <LatitudeDegrees>-15.34277661703526973724365234375</LatitudeDegrees>
              <LongitudeDegrees>37.0784847624599933624267578125</LongitudeDegrees>
            </Position>
            <AltitudeMeters>1403</AltitudeMeters>
            <DistanceMeters>NAN</DistanceMeters>
          </Trackpoint>
          <Trackpoint>
            <Time>2021-08-03T06:43:14.000Z</Time>
            <Position>
              <LatitudeDegrees>-15.3427601046860218048095703125</LatitudeDegrees>
              <LongitudeDegrees>37.07849959842860698699951171875</LongitudeDegrees>
            </Position>
            <AltitudeMeters>1402.5999755859375</AltitudeMeters>
            <DistanceMeters>NAN</DistanceMeters>
          </Trackpoint>
          <Trackpoint>
            <Time>2021-08-03T06:43:15.000Z</Time>
            <Position>
              <LatitudeDegrees>-15.3427518904209136962890625</LatitudeDegrees>
              <LongitudeDegrees>37.07850513048470020294189453125</LongitudeDegrees>
            </Position>
            <AltitudeMeters>1402.4000244140625</AltitudeMeters>
            <DistanceMeters>NAN</DistanceMeters>
          </Trackpoint>
          <Trackpoint>
            <Time>2021-08-03T06:43:18.000Z</Time>
            <Position>
              <LatitudeDegrees>-15.34272867254912853240966796875</LatitudeDegrees>
              <LongitudeDegrees>37.0785276778042316436767578125</LongitudeDegrees>
            </Position>
            <AltitudeMeters>1401.4000244140625</AltitudeMeters>
            <DistanceMeters>NAN</DistanceMeters>
          </Trackpoint>
          <Trackpoint>
            <Time>2021-08-03T06:43:19.000Z</Time>
            <Position>
              <LatitudeDegrees>-15.3427228890359401702880859375</LatitudeDegrees>
              <LongitudeDegrees>37.07853698171675205230712890625</LongitudeDegrees>
            </Position>
            <AltitudeMeters>1401.4000244140625</AltitudeMeters>
            <DistanceMeters>NAN</DistanceMeters>
          </Trackpoint>
          <Trackpoint>
            <Time>2021-08-03T06:43:23.000Z</Time>
            <Position>
              <LatitudeDegrees>-15.3427047841250896453857421875</LatitudeDegrees>
              <LongitudeDegrees>37.07857805304229259490966796875</LongitudeDegrees>
            </Position>
            <AltitudeMeters>1400</AltitudeMeters>
            <DistanceMeters>NAN</DistanceMeters>
          </Trackpoint>
          <Trackpoint>
            <Time>2021-08-03T06:43:27.000Z</Time>
            <Position>
              <LatitudeDegrees>-15.342692546546459197998046875</LatitudeDegrees>
              <LongitudeDegrees>37.0786312781274318695068359375</LongitudeDegrees>
            </Position>
            <AltitudeMeters>1399.5999755859375</AltitudeMeters>
            <DistanceMeters>NAN</DistanceMeters>
          </Trackpoint>
          <Trackpoint>
            <Time>2021-08-03T06:43:28.000Z</Time>
            <Position>
              <LatitudeDegrees>-15.342687852680683135986328125</LatitudeDegrees>
              <LongitudeDegrees>37.07864175550639629364013671875</LongitudeDegrees>
            </Position>
            <AltitudeMeters>1399.199951171875</AltitudeMeters>
            <DistanceMeters>NAN</DistanceMeters>
          </Trackpoint>
          <Trackpoint>
            <Time>2021-08-03T06:43:29.000Z</Time>
            <Position>
              <LatitudeDegrees>-15.342681147158145904541015625</LatitudeDegrees>
              <LongitudeDegrees>37.0786530710756778717041015625</LongitudeDegrees>
            </Position>
            <AltitudeMeters>1398.5999755859375</AltitudeMeters>
            <DistanceMeters>NAN</DistanceMeters>
          </Trackpoint>
          <Trackpoint>
            <Time>2021-08-03T06:43:33.000Z</Time>
            <Position>
              <LatitudeDegrees>-15.34265642054378986358642578125</LatitudeDegrees>
              <LongitudeDegrees>37.07869707606732845306396484375</LongitudeDegrees>
            </Position>
            <AltitudeMeters>1397.800048828125</AltitudeMeters>
            <DistanceMeters>NAN</DistanceMeters>
          </Trackpoint>
          <Trackpoint>
            <Time>2021-08-03T06:43:35.000Z</Time>
            <Position>
              <LatitudeDegrees>-15.342646948993206024169921875</LatitudeDegrees>
              <LongitudeDegrees>37.0787207968533039093017578125</LongitudeDegrees>
            </Position>
            <AltitudeMeters>1397.4000244140625</AltitudeMeters>
            <DistanceMeters>NAN</DistanceMeters>
          </Trackpoint>
          <Trackpoint>
            <Time>2021-08-03T06:43:37.000Z</Time>
            <Position>
              <LatitudeDegrees>-15.3426360525190830230712890625</LatitudeDegrees>
              <LongitudeDegrees>37.07875105552375316619873046875</LongitudeDegrees>
            </Position>
            <AltitudeMeters>1395.800048828125</AltitudeMeters>
            <DistanceMeters>NAN</DistanceMeters>
          </Trackpoint>
          <Trackpoint>
            <Time>2021-08-03T06:43:41.000Z</Time>
            <Position>
              <LatitudeDegrees>-15.34260981716215610504150390625</LatitudeDegrees>
              <LongitudeDegrees>37.07879095338284969329833984375</LongitudeDegrees>
            </Position>
            <AltitudeMeters>1395</AltitudeMeters>
            <DistanceMeters>NAN</DistanceMeters>
          </Trackpoint>
          <Trackpoint>
            <Time>2021-08-03T06:43:42.000Z</Time>
            <Position>
              <LatitudeDegrees>-15.34260394982993602752685546875</LatitudeDegrees>
              <LongitudeDegrees>37.0788015983998775482177734375</LongitudeDegrees>
            </Position>
            <AltitudeMeters>1394.4000244140625</AltitudeMeters>
            <DistanceMeters>NAN</DistanceMeters>
          </Trackpoint>
          <Trackpoint>
            <Time>2021-08-03T06:43:47.000Z</Time>
            <Position>
              <LatitudeDegrees>-15.34257578663527965545654296875</LatitudeDegrees>
              <LongitudeDegrees>37.07886211574077606201171875</LongitudeDegrees>
            </Position>
            <AltitudeMeters>1393.4000244140625</AltitudeMeters>
            <DistanceMeters>NAN</DistanceMeters>
          </Trackpoint>
          <Trackpoint>
            <Time>2021-08-03T06:43:49.000Z</Time>
            <Position>
              <LatitudeDegrees>-15.3425669856369495391845703125</LatitudeDegrees>
              <LongitudeDegrees>37.07888491451740264892578125</LongitudeDegrees>
            </Position>
            <AltitudeMeters>1392.4000244140625</AltitudeMeters>
            <DistanceMeters>NAN</DistanceMeters>
          </Trackpoint>
          <Trackpoint>
            <Time>2021-08-03T06:43:51.000Z</Time>
            <Position>
              <LatitudeDegrees>-15.342558436095714569091796875</LatitudeDegrees>
              <LongitudeDegrees>37.078906707465648651123046875</LongitudeDegrees>
            </Position>
            <AltitudeMeters>1391.5999755859375</AltitudeMeters>
            <DistanceMeters>NAN</DistanceMeters>
          </Trackpoint>
          <Trackpoint>
            <Time>2021-08-03T06:43:56.000Z</Time>
            <Position>
              <LatitudeDegrees>-15.34253605641424655914306640625</LatitudeDegrees>
              <LongitudeDegrees>37.07895859144628047943115234375</LongitudeDegrees>
            </Position>
            <AltitudeMeters>1390.5999755859375</AltitudeMeters>
            <DistanceMeters>NAN</DistanceMeters>
          </Trackpoint>
          <Trackpoint>
            <Time>2021-08-03T06:43:59.000Z</Time>
            <Position>
              <LatitudeDegrees>-15.34251560457050800323486328125</LatitudeDegrees>
              <LongitudeDegrees>37.078992538154125213623046875</LongitudeDegrees>
            </Position>
            <AltitudeMeters>1390</AltitudeMeters>
            <DistanceMeters>NAN</DistanceMeters>
          </Trackpoint>
          <Trackpoint>
            <Time>2021-08-03T06:44:00.000Z</Time>
            <Position>
              <LatitudeDegrees>-15.3425083123147487640380859375</LatitudeDegrees>
              <LongitudeDegrees>37.07900435663759708404541015625</LongitudeDegrees>
            </Position>
            <AltitudeMeters>1389.199951171875</AltitudeMeters>
            <DistanceMeters>NAN</DistanceMeters>
          </Trackpoint>
          <Trackpoint>
            <Time>2021-08-03T06:44:03.000Z</Time>
            <Position>
              <LatitudeDegrees>-15.34250269643962383270263671875</LatitudeDegrees>
              <LongitudeDegrees>37.079040147364139556884765625</LongitudeDegrees>
            </Position>
            <AltitudeMeters>1388.800048828125</AltitudeMeters>
            <DistanceMeters>NAN</DistanceMeters>
          </Trackpoint>
          <Trackpoint>
            <Time>2021-08-03T06:44:06.000Z</Time>
            <Position>
              <LatitudeDegrees>-15.34250470809638500213623046875</LatitudeDegrees>
              <LongitudeDegrees>37.07907476462423801422119140625</LongitudeDegrees>
            </Position>
            <AltitudeMeters>1388</AltitudeMeters>
            <DistanceMeters>NAN</DistanceMeters>
          </Trackpoint>
          <Trackpoint>
            <Time>2021-08-03T06:44:10.000Z</Time>
            <Position>
              <LatitudeDegrees>-15.34247453324496746063232421875</LatitudeDegrees>
              <LongitudeDegrees>37.07911650650203227996826171875</LongitudeDegrees>
            </Position>
            <AltitudeMeters>1386.800048828125</AltitudeMeters>
            <DistanceMeters>NAN</DistanceMeters>
          </Trackpoint>
          <Trackpoint>
            <Time>2021-08-03T06:44:12.000Z</Time>
            <Position>
              <LatitudeDegrees>-15.3424648940563201904296875</LatitudeDegrees>
              <LongitudeDegrees>37.07913695834577083587646484375</LongitudeDegrees>
            </Position>
            <AltitudeMeters>1385.4000244140625</AltitudeMeters>
            <DistanceMeters>NAN</DistanceMeters>
          </Trackpoint>
          <Trackpoint>
            <Time>2021-08-03T06:44:17.000Z</Time>
            <Position>
              <LatitudeDegrees>-15.34243463538587093353271484375</LatitudeDegrees>
              <LongitudeDegrees>37.0791730843484401702880859375</LongitudeDegrees>
            </Position>
            <AltitudeMeters>1384.199951171875</AltitudeMeters>
            <DistanceMeters>NAN</DistanceMeters>
          </Trackpoint>
          <Trackpoint>
            <Time>2021-08-03T06:44:20.000Z</Time>
            <Position>
              <LatitudeDegrees>-15.3424161113798618316650390625</LatitudeDegrees>
              <LongitudeDegrees>37.07920007407665252685546875</LongitudeDegrees>
            </Position>
            <AltitudeMeters>1382.4000244140625</AltitudeMeters>
            <DistanceMeters>NAN</DistanceMeters>
          </Trackpoint>
          <Trackpoint>
            <Time>2021-08-03T06:44:21.000Z</Time>
            <Position>
              <LatitudeDegrees>-15.3424080647528171539306640625</LatitudeDegrees>
              <LongitudeDegrees>37.07920988090336322784423828125</LongitudeDegrees>
            </Position>
            <AltitudeMeters>1382.4000244140625</AltitudeMeters>
            <DistanceMeters>NAN</DistanceMeters>
          </Trackpoint>
          <Trackpoint>
            <Time>2021-08-03T06:44:25.000Z</Time>
            <Position>
              <LatitudeDegrees>-15.34236456267535686492919921875</LatitudeDegrees>
              <LongitudeDegrees>37.079262770712375640869140625</LongitudeDegrees>
            </Position>
            <AltitudeMeters>1382</AltitudeMeters>
            <DistanceMeters>NAN</DistanceMeters>
          </Trackpoint>
          <Trackpoint>
            <Time>2021-08-03T06:44:27.000Z</Time>
            <Position>
              <LatitudeDegrees>-15.34235299564898014068603515625</LatitudeDegrees>
              <LongitudeDegrees>37.07929336465895175933837890625</LongitudeDegrees>
            </Position>
            <AltitudeMeters>1381.199951171875</AltitudeMeters>
            <DistanceMeters>NAN</DistanceMeters>
          </Trackpoint>
          <Trackpoint>
            <Time>2021-08-03T06:44:29.000Z</Time>
            <Position>
              <LatitudeDegrees>-15.34234352409839630126953125</LatitudeDegrees>
              <LongitudeDegrees>37.079325802624225616455078125</LongitudeDegrees>
            </Position>
            <AltitudeMeters>1380.800048828125</AltitudeMeters>
            <DistanceMeters>NAN</DistanceMeters>
          </Trackpoint>
          <Trackpoint>
            <Time>2021-08-03T06:44:30.000Z</Time>
            <Position>
              <LatitudeDegrees>-15.3423400036990642547607421875</LatitudeDegrees>
              <LongitudeDegrees>37.07933862693607807159423828125</LongitudeDegrees>
            </Position>
            <AltitudeMeters>1380.800048828125</AltitudeMeters>
            <DistanceMeters>NAN</DistanceMeters>
          </Trackpoint>
          <Trackpoint>
            <Time>2021-08-03T06:44:32.000Z</Time>
            <Position>
              <LatitudeDegrees>-15.34233723767101764678955078125</LatitudeDegrees>
              <LongitudeDegrees>37.0793657004833221435546875</LongitudeDegrees>
            </Position>
            <AltitudeMeters>1380</AltitudeMeters>
            <DistanceMeters>NAN</DistanceMeters>
          </Trackpoint>
          <Trackpoint>
            <Time>2021-08-03T06:44:34.000Z</Time>
            <Position>
              <LatitudeDegrees>-15.342332459986209869384765625</LatitudeDegrees>
              <LongitudeDegrees>37.07938891835510730743408203125</LongitudeDegrees>
            </Position>
            <AltitudeMeters>1378.800048828125</AltitudeMeters>
            <DistanceMeters>NAN</DistanceMeters>
          </Trackpoint>
          <Trackpoint>
            <Time>2021-08-03T06:44:35.000Z</Time>
            <Position>
              <LatitudeDegrees>-15.34232835285365581512451171875</LatitudeDegrees>
              <LongitudeDegrees>37.07939989864826202392578125</LongitudeDegrees>
            </Position>
            <AltitudeMeters>1378.5999755859375</AltitudeMeters>
            <DistanceMeters>NAN</DistanceMeters>
          </Trackpoint>
          <Trackpoint>
            <Time>2021-08-03T06:44:37.000Z</Time>
            <Position>
              <LatitudeDegrees>-15.34232634119689464569091796875</LatitudeDegrees>
              <LongitudeDegrees>37.07941926084458827972412109375</LongitudeDegrees>
            </Position>
            <AltitudeMeters>1378.4000244140625</AltitudeMeters>
            <DistanceMeters>NAN</DistanceMeters>
          </Trackpoint>
          <Trackpoint>
            <Time>2021-08-03T06:44:41.000Z</Time>
            <Position>
              <LatitudeDegrees>-15.3423242457211017608642578125</LatitudeDegrees>
              <LongitudeDegrees>37.07946485839784145355224609375</LongitudeDegrees>
            </Position>
            <AltitudeMeters>1378.199951171875</AltitudeMeters>
            <DistanceMeters>NAN</DistanceMeters>
          </Trackpoint>
          <Trackpoint>
            <Time>2021-08-03T06:44:42.000Z</Time>
            <Position>
              <LatitudeDegrees>-15.3423222340643405914306640625</LatitudeDegrees>
              <LongitudeDegrees>37.07947340793907642364501953125</LongitudeDegrees>
            </Position>
            <AltitudeMeters>1378</AltitudeMeters>
            <DistanceMeters>NAN</DistanceMeters>
          </Trackpoint>
          <Trackpoint>
            <Time>2021-08-03T06:44:43.000Z</Time>
            <Position>
              <LatitudeDegrees>-15.34231804311275482177734375</LatitudeDegrees>
              <LongitudeDegrees>37.0794872380793094635009765625</LongitudeDegrees>
            </Position>
            <AltitudeMeters>1377.4000244140625</AltitudeMeters>
            <DistanceMeters>NAN</DistanceMeters>
          </Trackpoint>
          <Trackpoint>
            <Time>2021-08-03T06:44:48.000Z</Time>
            <Position>
              <LatitudeDegrees>-15.34228627569973468780517578125</LatitudeDegrees>
              <LongitudeDegrees>37.07954700104892253875732421875</LongitudeDegrees>
            </Position>
            <AltitudeMeters>1376.199951171875</AltitudeMeters>
            <DistanceMeters>NAN</DistanceMeters>
          </Trackpoint>
          <Trackpoint>
            <Time>2021-08-03T06:44:49.000Z</Time>
            <Position>
              <LatitudeDegrees>-15.34228158183395862579345703125</LatitudeDegrees>
              <LongitudeDegrees>37.0795556344091892242431640625</LongitudeDegrees>
            </Position>
            <AltitudeMeters>1375.5999755859375</AltitudeMeters>
            <DistanceMeters>NAN</DistanceMeters>
          </Trackpoint>
          <Trackpoint>
            <Time>2021-08-03T06:44:50.000Z</Time>
            <Position>
              <LatitudeDegrees>-15.342274792492389678955078125</LatitudeDegrees>
              <LongitudeDegrees>37.07957290112972259521484375</LongitudeDegrees>
            </Position>
            <AltitudeMeters>1375.199951171875</AltitudeMeters>
            <DistanceMeters>NAN</DistanceMeters>
          </Trackpoint>
          <Trackpoint>
            <Time>2021-08-03T06:44:53.000Z</Time>
            <Position>
              <LatitudeDegrees>-15.34226817078888416290283203125</LatitudeDegrees>
              <LongitudeDegrees>37.0796089433133602142333984375</LongitudeDegrees>
            </Position>
            <AltitudeMeters>1373.5999755859375</AltitudeMeters>
            <DistanceMeters>NAN</DistanceMeters>
          </Trackpoint>
          <Trackpoint>
            <Time>2021-08-03T06:44:54.000Z</Time>
            <Position>
              <LatitudeDegrees>-15.3422622196376323699951171875</LatitudeDegrees>
              <LongitudeDegrees>37.07962009124457836151123046875</LongitudeDegrees>
            </Position>
            <AltitudeMeters>1372.4000244140625</AltitudeMeters>
            <DistanceMeters>NAN</DistanceMeters>
          </Trackpoint>
          <Trackpoint>
            <Time>2021-08-03T06:44:56.000Z</Time>
            <Position>
              <LatitudeDegrees>-15.34225501120090484619140625</LatitudeDegrees>
              <LongitudeDegrees>37.0796404592692852020263671875</LongitudeDegrees>
            </Position>
            <AltitudeMeters>1372.4000244140625</AltitudeMeters>
            <DistanceMeters>NAN</DistanceMeters>
          </Trackpoint>
          <Trackpoint>
            <Time>2021-08-03T06:45:01.000Z</Time>
            <Position>
              <LatitudeDegrees>-15.34224453382194042205810546875</LatitudeDegrees>
              <LongitudeDegrees>37.07968278788030147552490234375</LongitudeDegrees>
            </Position>
            <AltitudeMeters>1371.4000244140625</AltitudeMeters>
            <DistanceMeters>NAN</DistanceMeters>
          </Trackpoint>
          <Trackpoint>
            <Time>2021-08-03T06:45:03.000Z</Time>
            <Position>
              <LatitudeDegrees>-15.34225090406835079193115234375</LatitudeDegrees>
              <LongitudeDegrees>37.07970005460083484649658203125</LongitudeDegrees>
            </Position>
            <AltitudeMeters>1371.4000244140625</AltitudeMeters>
            <DistanceMeters>NAN</DistanceMeters>
          </Trackpoint>
          <Trackpoint>
            <Time>2021-08-03T06:45:06.000Z</Time>
            <Position>
              <LatitudeDegrees>-15.34226565621793270111083984375</LatitudeDegrees>
              <LongitudeDegrees>37.0797316543757915496826171875</LongitudeDegrees>
            </Position>
            <AltitudeMeters>1371.4000244140625</AltitudeMeters>
            <DistanceMeters>NAN</DistanceMeters>
          </Trackpoint>
          <Trackpoint>
            <Time>2021-08-03T06:45:09.000Z</Time>
            <Position>
              <LatitudeDegrees>-15.34226498566567897796630859375</LatitudeDegrees>
              <LongitudeDegrees>37.0797839574515819549560546875</LongitudeDegrees>
            </Position>
            <AltitudeMeters>1371</AltitudeMeters>
            <DistanceMeters>NAN</DistanceMeters>
          </Trackpoint>
          <Trackpoint>
            <Time>2021-08-03T06:45:11.000Z</Time>
            <Position>
              <LatitudeDegrees>-15.3422664105892181396484375</LatitudeDegrees>
              <LongitudeDegrees>37.07982276566326618194580078125</LongitudeDegrees>
            </Position>
            <AltitudeMeters>1370</AltitudeMeters>
            <DistanceMeters>NAN</DistanceMeters>
          </Trackpoint>
          <Trackpoint>
            <Time>2021-08-03T06:45:13.000Z</Time>
            <Position>
              <LatitudeDegrees>-15.3422685898840427398681640625</LatitudeDegrees>
              <LongitudeDegrees>37.07985587418079376220703125</LongitudeDegrees>
            </Position>
            <AltitudeMeters>1369</AltitudeMeters>
            <DistanceMeters>NAN</DistanceMeters>
          </Trackpoint>
          <Trackpoint>
            <Time>2021-08-03T06:45:15.000Z</Time>
            <Position>
              <LatitudeDegrees>-15.3422638960182666778564453125</LatitudeDegrees>
              <LongitudeDegrees>37.07987557165324687957763671875</LongitudeDegrees>
            </Position>
            <AltitudeMeters>1368.800048828125</AltitudeMeters>
            <DistanceMeters>NAN</DistanceMeters>
          </Trackpoint>
          <Trackpoint>
            <Time>2021-08-03T06:45:17.000Z</Time>
            <Position>
              <LatitudeDegrees>-15.34225844778120517730712890625</LatitudeDegrees>
              <LongitudeDegrees>37.079895772039890289306640625</LongitudeDegrees>
            </Position>
            <AltitudeMeters>1368.4000244140625</AltitudeMeters>
            <DistanceMeters>NAN</DistanceMeters>
          </Trackpoint>
          <Trackpoint>
            <Time>2021-08-03T06:45:18.000Z</Time>
            <Position>
              <LatitudeDegrees>-15.342257022857666015625</LatitudeDegrees>
              <LongitudeDegrees>37.07990549504756927490234375</LongitudeDegrees>
            </Position>
            <AltitudeMeters>1367.4000244140625</AltitudeMeters>
            <DistanceMeters>NAN</DistanceMeters>
          </Trackpoint>
          <Trackpoint>
            <Time>2021-08-03T06:45:21.000Z</Time>
            <Position>
              <LatitudeDegrees>-15.34224034287035465240478515625</LatitudeDegrees>
              <LongitudeDegrees>37.0799401961266994476318359375</LongitudeDegrees>
            </Position>
            <AltitudeMeters>1367</AltitudeMeters>
            <DistanceMeters>NAN</DistanceMeters>
          </Trackpoint>
          <Trackpoint>
            <Time>2021-08-03T06:45:27.000Z</Time>
            <Position>
              <LatitudeDegrees>-15.34220564179122447967529296875</LatitudeDegrees>
              <LongitudeDegrees>37.08000213839113712310791015625</LongitudeDegrees>
            </Position>
            <AltitudeMeters>1366.199951171875</AltitudeMeters>
            <DistanceMeters>NAN</DistanceMeters>
          </Trackpoint>
          <Trackpoint>
            <Time>2021-08-03T06:45:29.000Z</Time>
            <Position>
              <LatitudeDegrees>-15.34219558350741863250732421875</LatitudeDegrees>
              <LongitudeDegrees>37.0800280384719371795654296875</LongitudeDegrees>
            </Position>
            <AltitudeMeters>1365.4000244140625</AltitudeMeters>
            <DistanceMeters>NAN</DistanceMeters>
          </Trackpoint>
          <Trackpoint>
            <Time>2021-08-03T06:45:30.000Z</Time>
            <Position>
              <LatitudeDegrees>-15.34219793044030666351318359375</LatitudeDegrees>
              <LongitudeDegrees>37.08004572428762912750244140625</LongitudeDegrees>
            </Position>
            <AltitudeMeters>1365.4000244140625</AltitudeMeters>
            <DistanceMeters>NAN</DistanceMeters>
          </Trackpoint>
          <Trackpoint>
            <Time>2021-08-03T06:45:33.000Z</Time>
            <Position>
              <LatitudeDegrees>-15.34220111556351184844970703125</LatitudeDegrees>
              <LongitudeDegrees>37.08010003902018070220947265625</LongitudeDegrees>
            </Position>
            <AltitudeMeters>1364</AltitudeMeters>
            <DistanceMeters>NAN</DistanceMeters>
          </Trackpoint>
          <Trackpoint>
            <Time>2021-08-03T06:45:36.000Z</Time>
            <Position>
              <LatitudeDegrees>-15.34219466149806976318359375</LatitudeDegrees>
              <LongitudeDegrees>37.0801527611911296844482421875</LongitudeDegrees>
            </Position>
            <AltitudeMeters>1363</AltitudeMeters>
            <DistanceMeters>NAN</DistanceMeters>
          </Trackpoint>
          <Trackpoint>
            <Time>2021-08-03T06:45:38.000Z</Time>
            <Position>
              <LatitudeDegrees>-15.34218753688037395477294921875</LatitudeDegrees>
              <LongitudeDegrees>37.080178745090961456298828125</LongitudeDegrees>
            </Position>
            <AltitudeMeters>1363</AltitudeMeters>
            <DistanceMeters>NAN</DistanceMeters>
          </Trackpoint>
          <Trackpoint>
            <Time>2021-08-03T06:45:41.000Z</Time>
            <Position>
              <LatitudeDegrees>-15.3421698510646820068359375</LatitudeDegrees>
              <LongitudeDegrees>37.08022392354905605316162109375</LongitudeDegrees>
            </Position>
            <AltitudeMeters>1362</AltitudeMeters>
            <DistanceMeters>NAN</DistanceMeters>
          </Trackpoint>
          <Trackpoint>
            <Time>2021-08-03T06:45:43.000Z</Time>
            <Position>
              <LatitudeDegrees>-15.34216054715216159820556640625</LatitudeDegrees>
              <LongitudeDegrees>37.0802513323724269866943359375</LongitudeDegrees>
            </Position>
            <AltitudeMeters>1361.5999755859375</AltitudeMeters>
            <DistanceMeters>NAN</DistanceMeters>
          </Trackpoint>
          <Trackpoint>
            <Time>2021-08-03T06:45:44.000Z</Time>
            <Position>
              <LatitudeDegrees>-15.34216113388538360595703125</LatitudeDegrees>
              <LongitudeDegrees>37.08026482723653316497802734375</LongitudeDegrees>
            </Position>
            <AltitudeMeters>1361.199951171875</AltitudeMeters>
            <DistanceMeters>NAN</DistanceMeters>
          </Trackpoint>
          <Trackpoint>
            <Time>2021-08-03T06:45:48.000Z</Time>
            <Position>
              <LatitudeDegrees>-15.34215132705867290496826171875</LatitudeDegrees>
              <LongitudeDegrees>37.08031243644654750823974609375</LongitudeDegrees>
            </Position>
            <AltitudeMeters>1361</AltitudeMeters>
            <DistanceMeters>NAN</DistanceMeters>
          </Trackpoint>
          <Trackpoint>
            <Time>2021-08-03T06:45:49.000Z</Time>
            <Position>
              <LatitudeDegrees>-15.34214411862194538116455078125</LatitudeDegrees>
              <LongitudeDegrees>37.08031947724521160125732421875</LongitudeDegrees>
            </Position>
            <AltitudeMeters>1360.199951171875</AltitudeMeters>
            <DistanceMeters>NAN</DistanceMeters>
          </Trackpoint>
          <Trackpoint>
            <Time>2021-08-03T06:45:53.000Z</Time>
            <Position>
              <LatitudeDegrees>-15.3421157039701938629150390625</LatitudeDegrees>
              <LongitudeDegrees>37.08035736344754695892333984375</LongitudeDegrees>
            </Position>
            <AltitudeMeters>1359.5999755859375</AltitudeMeters>
            <DistanceMeters>NAN</DistanceMeters>
          </Trackpoint>
          <Trackpoint>
            <Time>2021-08-03T06:45:56.000Z</Time>
            <Position>
              <LatitudeDegrees>-15.34208443947136402130126953125</LatitudeDegrees>
              <LongitudeDegrees>37.080393321812152862548828125</LongitudeDegrees>
            </Position>
            <AltitudeMeters>1359.4000244140625</AltitudeMeters>
            <DistanceMeters>NAN</DistanceMeters>
          </Trackpoint>
          <Trackpoint>
            <Time>2021-08-03T06:46:00.000Z</Time>
            <Position>
              <LatitudeDegrees>-15.342042781412601470947265625</LatitudeDegrees>
              <LongitudeDegrees>37.0804357342422008514404296875</LongitudeDegrees>
            </Position>
            <AltitudeMeters>1359</AltitudeMeters>
            <DistanceMeters>NAN</DistanceMeters>
          </Trackpoint>
          <Trackpoint>
            <Time>2021-08-03T06:46:03.000Z</Time>
            <Position>
              <LatitudeDegrees>-15.34200958907604217529296875</LatitudeDegrees>
              <LongitudeDegrees>37.08046230487525463104248046875</LongitudeDegrees>
            </Position>
            <AltitudeMeters>1358.4000244140625</AltitudeMeters>
            <DistanceMeters>NAN</DistanceMeters>
          </Trackpoint>
          <Trackpoint>
            <Time>2021-08-03T06:46:05.000Z</Time>
            <Position>
              <LatitudeDegrees>-15.34199374727904796600341796875</LatitudeDegrees>
              <LongitudeDegrees>37.08048644475638866424560546875</LongitudeDegrees>
            </Position>
            <AltitudeMeters>1357.4000244140625</AltitudeMeters>
            <DistanceMeters>NAN</DistanceMeters>
          </Trackpoint>
          <Trackpoint>
            <Time>2021-08-03T06:46:10.000Z</Time>
            <Position>
              <LatitudeDegrees>-15.341935493052005767822265625</LatitudeDegrees>
              <LongitudeDegrees>37.08053640089929103851318359375</LongitudeDegrees>
            </Position>
            <AltitudeMeters>1356.4000244140625</AltitudeMeters>
            <DistanceMeters>NAN</DistanceMeters>
          </Trackpoint>
          <Trackpoint>
            <Time>2021-08-03T06:46:14.000Z</Time>
            <Position>
              <LatitudeDegrees>-15.34190070815384387969970703125</LatitudeDegrees>
              <LongitudeDegrees>37.08057629875838756561279296875</LongitudeDegrees>
            </Position>
            <AltitudeMeters>1355.5999755859375</AltitudeMeters>
            <DistanceMeters>NAN</DistanceMeters>
          </Trackpoint>
          <Trackpoint>
            <Time>2021-08-03T06:46:16.000Z</Time>
            <Position>
              <LatitudeDegrees>-15.34188084304332733154296875</LatitudeDegrees>
              <LongitudeDegrees>37.08060152828693389892578125</LongitudeDegrees>
            </Position>
            <AltitudeMeters>1355.4000244140625</AltitudeMeters>
            <DistanceMeters>NAN</DistanceMeters>
          </Trackpoint>
          <Trackpoint>
            <Time>2021-08-03T06:46:17.000Z</Time>
            <Position>
              <LatitudeDegrees>-15.341873131692409515380859375</LatitudeDegrees>
              <LongitudeDegrees>37.08061301149427890777587890625</LongitudeDegrees>
            </Position>
            <AltitudeMeters>1355.199951171875</AltitudeMeters>
            <DistanceMeters>NAN</DistanceMeters>
          </Trackpoint>
          <Trackpoint>
            <Time>2021-08-03T06:46:18.000Z</Time>
            <Position>
              <LatitudeDegrees>-15.341865755617618560791015625</LatitudeDegrees>
              <LongitudeDegrees>37.08062424324452877044677734375</LongitudeDegrees>
            </Position>
            <AltitudeMeters>1355.199951171875</AltitudeMeters>
            <DistanceMeters>NAN</DistanceMeters>
          </Trackpoint>
          <Trackpoint>
            <Time>2021-08-03T06:46:22.000Z</Time>
            <Position>
              <LatitudeDegrees>-15.34185058437287807464599609375</LatitudeDegrees>
              <LongitudeDegrees>37.0806700922548770904541015625</LongitudeDegrees>
            </Position>
            <AltitudeMeters>1354.800048828125</AltitudeMeters>
            <DistanceMeters>NAN</DistanceMeters>
          </Trackpoint>
          <Trackpoint>
            <Time>2021-08-03T06:46:24.000Z</Time>
            <Position>
              <LatitudeDegrees>-15.34184488467872142791748046875</LatitudeDegrees>
              <LongitudeDegrees>37.08068928681313991546630859375</LongitudeDegrees>
            </Position>
            <AltitudeMeters>1353.800048828125</AltitudeMeters>
            <DistanceMeters>NAN</DistanceMeters>
          </Trackpoint>
          <Trackpoint>
            <Time>2021-08-03T06:46:28.000Z</Time>
            <Position>
              <LatitudeDegrees>-15.3418340720236301422119140625</LatitudeDegrees>
              <LongitudeDegrees>37.08070940338075160980224609375</LongitudeDegrees>
            </Position>
            <AltitudeMeters>1353.800048828125</AltitudeMeters>
            <DistanceMeters>NAN</DistanceMeters>
          </Trackpoint>
          <Trackpoint>
            <Time>2021-08-03T06:46:29.000Z</Time>
            <Position>
              <LatitudeDegrees>-15.34183013252913951873779296875</LatitudeDegrees>
              <LongitudeDegrees>37.08071024157106876373291015625</LongitudeDegrees>
            </Position>
            <AltitudeMeters>1355.4000244140625</AltitudeMeters>
            <DistanceMeters>NAN</DistanceMeters>
          </Trackpoint>
          <Trackpoint>
            <Time>2021-08-03T06:46:34.000Z</Time>
            <Position>
              <LatitudeDegrees>-15.3418253548443317413330078125</LatitudeDegrees>
              <LongitudeDegrees>37.080724574625492095947265625</LongitudeDegrees>
            </Position>
            <AltitudeMeters>1352.5999755859375</AltitudeMeters>
            <DistanceMeters>NAN</DistanceMeters>
          </Trackpoint>
          <Trackpoint>
            <Time>2021-08-03T06:46:35.000Z</Time>
            <Position>
              <LatitudeDegrees>-15.34182661212980747222900390625</LatitudeDegrees>
              <LongitudeDegrees>37.080730609595775604248046875</LongitudeDegrees>
            </Position>
            <AltitudeMeters>1352.5999755859375</AltitudeMeters>
            <DistanceMeters>NAN</DistanceMeters>
          </Trackpoint>
          <Trackpoint>
            <Time>2021-08-03T06:46:38.000Z</Time>
            <Position>
              <LatitudeDegrees>-15.341811440885066986083984375</LatitudeDegrees>
              <LongitudeDegrees>37.0807321183383464813232421875</LongitudeDegrees>
            </Position>
            <AltitudeMeters>1353.4000244140625</AltitudeMeters>
            <DistanceMeters>NAN</DistanceMeters>
          </Trackpoint>
          <Trackpoint>
            <Time>2021-08-03T06:46:41.000Z</Time>
            <Position>
              <LatitudeDegrees>-15.34182317554950714111328125</LatitudeDegrees>
              <LongitudeDegrees>37.0807267539203166961669921875</LongitudeDegrees>
            </Position>
            <AltitudeMeters>1353.5999755859375</AltitudeMeters>
            <DistanceMeters>NAN</DistanceMeters>
          </Trackpoint>
          <Trackpoint>
            <Time>2021-08-03T06:46:44.000Z</Time>
            <Position>
              <LatitudeDegrees>-15.34183767624199390411376953125</LatitudeDegrees>
              <LongitudeDegrees>37.08072365261614322662353515625</LongitudeDegrees>
            </Position>
            <AltitudeMeters>1353.5999755859375</AltitudeMeters>
            <DistanceMeters>NAN</DistanceMeters>
          </Trackpoint>
          <Trackpoint>
            <Time>2021-08-03T06:46:47.000Z</Time>
            <Position>
              <LatitudeDegrees>-15.34183952026069164276123046875</LatitudeDegrees>
              <LongitudeDegrees>37.0807187072932720184326171875</LongitudeDegrees>
            </Position>
            <AltitudeMeters>1353.5999755859375</AltitudeMeters>
            <DistanceMeters>NAN</DistanceMeters>
          </Trackpoint>
          <Trackpoint>
            <Time>2021-08-03T06:46:53.000Z</Time>
            <Position>
              <LatitudeDegrees>-15.34183952026069164276123046875</LatitudeDegrees>
              <LongitudeDegrees>37.0807187072932720184326171875</LongitudeDegrees>
            </Position>
            <AltitudeMeters>1353.5999755859375</AltitudeMeters>
            <DistanceMeters>NAN</DistanceMeters>
          </Trackpoint>
          <Trackpoint>
            <Time>2021-08-03T06:47:11.000Z</Time>
            <Position>
              <LatitudeDegrees>-15.3418377600610256195068359375</LatitudeDegrees>
              <LongitudeDegrees>37.0807217247784137725830078125</LongitudeDegrees>
            </Position>
            <AltitudeMeters>1354.5999755859375</AltitudeMeters>
            <DistanceMeters>NAN</DistanceMeters>
          </Trackpoint>
          <Trackpoint>
            <Time>2021-08-03T06:47:12.000Z</Time>
            <Position>
              <LatitudeDegrees>-15.34183801151812076568603515625</LatitudeDegrees>
              <LongitudeDegrees>37.080721557140350341796875</LongitudeDegrees>
            </Position>
            <AltitudeMeters>1354.5999755859375</AltitudeMeters>
            <DistanceMeters>NAN</DistanceMeters>
          </Trackpoint>
          <Trackpoint>
            <Time>2021-08-03T06:47:25.000Z</Time>
            <Position>
              <LatitudeDegrees>-15.34184069372713565826416015625</LatitudeDegrees>
              <LongitudeDegrees>37.08072088658809661865234375</LongitudeDegrees>
            </Position>
            <AltitudeMeters>1354.199951171875</AltitudeMeters>
            <DistanceMeters>NAN</DistanceMeters>
          </Trackpoint>
          <Trackpoint>
            <Time>2021-08-03T06:47:40.000Z</Time>
            <Position>
              <LatitudeDegrees>-15.341846309602260589599609375</LatitudeDegrees>
              <LongitudeDegrees>37.08071761764585971832275390625</LongitudeDegrees>
            </Position>
            <AltitudeMeters>1354.4000244140625</AltitudeMeters>
            <DistanceMeters>NAN</DistanceMeters>
          </Trackpoint>
          <Trackpoint>
            <Time>2021-08-03T06:47:43.000Z</Time>
            <Position>
              <LatitudeDegrees>-15.3418464772403240203857421875</LatitudeDegrees>
              <LongitudeDegrees>37.08071728236973285675048828125</LongitudeDegrees>
            </Position>
            <AltitudeMeters>1354.800048828125</AltitudeMeters>
            <DistanceMeters>NAN</DistanceMeters>
          </Trackpoint>
          <Trackpoint>
            <Time>2021-08-03T06:47:51.000Z</Time>
            <Position>
              <LatitudeDegrees>-15.3418471477925777435302734375</LatitudeDegrees>
              <LongitudeDegrees>37.080716192722320556640625</LongitudeDegrees>
            </Position>
            <AltitudeMeters>1354.800048828125</AltitudeMeters>
            <DistanceMeters>NAN</DistanceMeters>
          </Trackpoint>
          <Trackpoint>
            <Time>2021-08-03T06:47:55.000Z</Time>
            <Position>
              <LatitudeDegrees>-15.341846980154514312744140625</LatitudeDegrees>
              <LongitudeDegrees>37.08071661181747913360595703125</LongitudeDegrees>
            </Position>
            <AltitudeMeters>1353.199951171875</AltitudeMeters>
            <DistanceMeters>NAN</DistanceMeters>
          </Trackpoint>
          <Trackpoint>
            <Time>2021-08-03T06:48:13.000Z</Time>
            <Position>
              <LatitudeDegrees>-15.341844968497753143310546875</LatitudeDegrees>
              <LongitudeDegrees>37.08072097040712833404541015625</LongitudeDegrees>
            </Position>
            <AltitudeMeters>1353.5999755859375</AltitudeMeters>
            <DistanceMeters>NAN</DistanceMeters>
          </Trackpoint>
          <Trackpoint>
            <Time>2021-08-03T06:48:16.000Z</Time>
            <Position>
              <LatitudeDegrees>-15.3418434597551822662353515625</LatitudeDegrees>
              <LongitudeDegrees>37.08072164095938205718994140625</LongitudeDegrees>
            </Position>
            <AltitudeMeters>1353.800048828125</AltitudeMeters>
            <DistanceMeters>NAN</DistanceMeters>
          </Trackpoint>
          <Trackpoint>
            <Time>2021-08-03T06:48:24.000Z</Time>
            <Position>
              <LatitudeDegrees>-15.341842286288738250732421875</LatitudeDegrees>
              <LongitudeDegrees>37.080721557140350341796875</LongitudeDegrees>
            </Position>
            <AltitudeMeters>1354</AltitudeMeters>
            <DistanceMeters>NAN</DistanceMeters>
          </Trackpoint>
          <Trackpoint>
            <Time>2021-08-03T06:48:33.000Z</Time>
            <Position>
              <LatitudeDegrees>-15.3418448008596897125244140625</LatitudeDegrees>
              <LongitudeDegrees>37.08072063513100147247314453125</LongitudeDegrees>
            </Position>
            <AltitudeMeters>1354</AltitudeMeters>
            <DistanceMeters>NAN</DistanceMeters>
          </Trackpoint>
          <Trackpoint>
            <Time>2021-08-03T06:48:45.000Z</Time>
            <Position>
              <LatitudeDegrees>-15.34185075201094150543212890625</LatitudeDegrees>
              <LongitudeDegrees>37.08071543835103511810302734375</LongitudeDegrees>
            </Position>
            <AltitudeMeters>1353.5999755859375</AltitudeMeters>
            <DistanceMeters>NAN</DistanceMeters>
          </Trackpoint>
          <Trackpoint>
            <Time>2021-08-03T06:48:49.000Z</Time>
            <Position>
              <LatitudeDegrees>-15.3418508358299732208251953125</LatitudeDegrees>
              <LongitudeDegrees>37.080713845789432525634765625</LongitudeDegrees>
            </Position>
            <AltitudeMeters>1354.199951171875</AltitudeMeters>
            <DistanceMeters>NAN</DistanceMeters>
          </Trackpoint>
          <Trackpoint>
            <Time>2021-08-03T06:48:57.000Z</Time>
            <Position>
              <LatitudeDegrees>-15.34184974618256092071533203125</LatitudeDegrees>
              <LongitudeDegrees>37.08070973865687847137451171875</LongitudeDegrees>
            </Position>
            <AltitudeMeters>1353.199951171875</AltitudeMeters>
            <DistanceMeters>NAN</DistanceMeters>
          </Trackpoint>
          <Trackpoint>
            <Time>2021-08-03T06:49:03.000Z</Time>
            <Position>
              <LatitudeDegrees>-15.34184605814516544342041015625</LatitudeDegrees>
              <LongitudeDegrees>37.0807089842855930328369140625</LongitudeDegrees>
            </Position>
            <AltitudeMeters>1353.800048828125</AltitudeMeters>
            <DistanceMeters>NAN</DistanceMeters>
          </Trackpoint>
          <Trackpoint>
            <Time>2021-08-03T06:49:09.000Z</Time>
            <Position>
              <LatitudeDegrees>-15.341844297945499420166015625</LatitudeDegrees>
              <LongitudeDegrees>37.08070906810462474822998046875</LongitudeDegrees>
            </Position>
            <AltitudeMeters>1353.800048828125</AltitudeMeters>
            <DistanceMeters>NAN</DistanceMeters>
          </Trackpoint>
          <Trackpoint>
            <Time>2021-08-03T06:49:12.000Z</Time>
            <Position>
              <LatitudeDegrees>-15.341843627393245697021484375</LatitudeDegrees>
              <LongitudeDegrees>37.0807093195617198944091796875</LongitudeDegrees>
            </Position>
            <AltitudeMeters>1353.800048828125</AltitudeMeters>
            <DistanceMeters>NAN</DistanceMeters>
          </Trackpoint>
          <Trackpoint>
            <Time>2021-08-03T06:49:21.000Z</Time>
            <Position>
              <LatitudeDegrees>-15.341842956840991973876953125</LatitudeDegrees>
              <LongitudeDegrees>37.08071040920913219451904296875</LongitudeDegrees>
            </Position>
            <AltitudeMeters>1353.199951171875</AltitudeMeters>
            <DistanceMeters>NAN</DistanceMeters>
          </Trackpoint>
          <Trackpoint>
            <Time>2021-08-03T06:49:24.000Z</Time>
            <Position>
              <LatitudeDegrees>-15.34184287302196025848388671875</LatitudeDegrees>
              <LongitudeDegrees>37.08071040920913219451904296875</LongitudeDegrees>
            </Position>
            <AltitudeMeters>1352.5999755859375</AltitudeMeters>
            <DistanceMeters>NAN</DistanceMeters>
          </Trackpoint>
          <Trackpoint>
            <Time>2021-08-03T06:49:26.000Z</Time>
            <Position>
              <LatitudeDegrees>-15.34184287302196025848388671875</LatitudeDegrees>
              <LongitudeDegrees>37.080710493028163909912109375</LongitudeDegrees>
            </Position>
            <AltitudeMeters>1352.199951171875</AltitudeMeters>
            <DistanceMeters>NAN</DistanceMeters>
          </Trackpoint>
          <Trackpoint>
            <Time>2021-08-03T06:49:46.000Z</Time>
            <Position>
              <LatitudeDegrees>-15.34185058437287807464599609375</LatitudeDegrees>
              <LongitudeDegrees>37.080713175237178802490234375</LongitudeDegrees>
            </Position>
            <AltitudeMeters>1351.5999755859375</AltitudeMeters>
            <DistanceMeters>NAN</DistanceMeters>
          </Trackpoint>
          <Trackpoint>
            <Time>2021-08-03T06:49:56.000Z</Time>
            <Position>
              <LatitudeDegrees>-15.34185209311544895172119140625</LatitudeDegrees>
              <LongitudeDegrees>37.08071460016071796417236328125</LongitudeDegrees>
            </Position>
            <AltitudeMeters>1351.199951171875</AltitudeMeters>
            <DistanceMeters>NAN</DistanceMeters>
          </Trackpoint>
          <Trackpoint>
            <Time>2021-08-03T06:49:58.000Z</Time>
            <Position>
              <LatitudeDegrees>-15.3418521769344806671142578125</LatitudeDegrees>
              <LongitudeDegrees>37.08071493543684482574462890625</LongitudeDegrees>
            </Position>
            <AltitudeMeters>1351</AltitudeMeters>
            <DistanceMeters>NAN</DistanceMeters>
          </Trackpoint>
          <Trackpoint>
            <Time>2021-08-03T06:50:17.000Z</Time>
            <Position>
              <LatitudeDegrees>-15.34185192547738552093505859375</LatitudeDegrees>
              <LongitudeDegrees>37.080716527998447418212890625</LongitudeDegrees>
            </Position>
            <AltitudeMeters>1350.5999755859375</AltitudeMeters>
            <DistanceMeters>NAN</DistanceMeters>
          </Trackpoint>
          <Trackpoint>
            <Time>2021-08-03T06:50:23.000Z</Time>
            <Position>
              <LatitudeDegrees>-15.34185192547738552093505859375</LatitudeDegrees>
              <LongitudeDegrees>37.08071661181747913360595703125</LongitudeDegrees>
            </Position>
            <AltitudeMeters>1350.4000244140625</AltitudeMeters>
            <DistanceMeters>NAN</DistanceMeters>
          </Trackpoint>
          <Trackpoint>
            <Time>2021-08-03T06:50:33.000Z</Time>
            <Position>
              <LatitudeDegrees>-15.3418518416583538055419921875</LatitudeDegrees>
              <LongitudeDegrees>37.08071661181747913360595703125</LongitudeDegrees>
            </Position>
            <AltitudeMeters>1350.199951171875</AltitudeMeters>
            <DistanceMeters>NAN</DistanceMeters>
          </Trackpoint>
          <Trackpoint>
            <Time>2021-08-03T06:50:35.000Z</Time>
            <Position>
              <LatitudeDegrees>-15.3418518416583538055419921875</LatitudeDegrees>
              <LongitudeDegrees>37.08071661181747913360595703125</LongitudeDegrees>
            </Position>
            <AltitudeMeters>1350.199951171875</AltitudeMeters>
            <DistanceMeters>NAN</DistanceMeters>
          </Trackpoint>
          <Trackpoint>
            <Time>2021-08-03T06:50:39.000Z</Time>
            <Position>
              <LatitudeDegrees>-15.34185175783932209014892578125</LatitudeDegrees>
              <LongitudeDegrees>37.08071661181747913360595703125</LongitudeDegrees>
            </Position>
            <AltitudeMeters>1350</AltitudeMeters>
            <DistanceMeters>NAN</DistanceMeters>
          </Trackpoint>
          <Trackpoint>
            <Time>2021-08-03T06:50:44.000Z</Time>
            <Position>
              <LatitudeDegrees>-15.341851674020290374755859375</LatitudeDegrees>
              <LongitudeDegrees>37.080716527998447418212890625</LongitudeDegrees>
            </Position>
            <AltitudeMeters>1349.800048828125</AltitudeMeters>
            <DistanceMeters>NAN</DistanceMeters>
          </Trackpoint>
          <Trackpoint>
            <Time>2021-08-03T06:50:46.000Z</Time>
            <Position>
              <LatitudeDegrees>-15.34185159020125865936279296875</LatitudeDegrees>
              <LongitudeDegrees>37.080716527998447418212890625</LongitudeDegrees>
            </Position>
            <AltitudeMeters>1349.5999755859375</AltitudeMeters>
            <DistanceMeters>NAN</DistanceMeters>
          </Trackpoint>
          <Trackpoint>
            <Time>2021-08-03T06:51:00.000Z</Time>
            <Position>
              <LatitudeDegrees>-15.34185125492513179779052734375</LatitudeDegrees>
              <LongitudeDegrees>37.08071644417941570281982421875</LongitudeDegrees>
            </Position>
            <AltitudeMeters>1351</AltitudeMeters>
            <DistanceMeters>NAN</DistanceMeters>
          </Trackpoint>
          <Trackpoint>
            <Time>2021-08-03T06:51:03.000Z</Time>
            <Position>
              <LatitudeDegrees>-15.3418511711061000823974609375</LatitudeDegrees>
              <LongitudeDegrees>37.08071644417941570281982421875</LongitudeDegrees>
            </Position>
            <AltitudeMeters>1350.800048828125</AltitudeMeters>
            <DistanceMeters>NAN</DistanceMeters>
          </Trackpoint>
          <Trackpoint>
            <Time>2021-08-03T06:51:05.000Z</Time>
            <Position>
              <LatitudeDegrees>-15.34185108728706836700439453125</LatitudeDegrees>
              <LongitudeDegrees>37.08071644417941570281982421875</LongitudeDegrees>
            </Position>
            <AltitudeMeters>1349.5999755859375</AltitudeMeters>
            <DistanceMeters>NAN</DistanceMeters>
          </Trackpoint>
          <Trackpoint>
            <Time>2021-08-03T06:51:10.000Z</Time>
            <Position>
              <LatitudeDegrees>-15.341851003468036651611328125</LatitudeDegrees>
              <LongitudeDegrees>37.0807163603603839874267578125</LongitudeDegrees>
            </Position>
            <AltitudeMeters>1351.4000244140625</AltitudeMeters>
            <DistanceMeters>NAN</DistanceMeters>
          </Trackpoint>
          <Trackpoint>
            <Time>2021-08-03T06:51:18.000Z</Time>
            <Position>
              <LatitudeDegrees>-15.34185075201094150543212890625</LatitudeDegrees>
              <LongitudeDegrees>37.0807163603603839874267578125</LongitudeDegrees>
            </Position>
            <AltitudeMeters>1352.800048828125</AltitudeMeters>
            <DistanceMeters>NAN</DistanceMeters>
          </Trackpoint>
          <Trackpoint>
            <Time>2021-08-03T06:51:24.000Z</Time>
            <Position>
              <LatitudeDegrees>-15.34184840507805347442626953125</LatitudeDegrees>
              <LongitudeDegrees>37.08071292378008365631103515625</LongitudeDegrees>
            </Position>
            <AltitudeMeters>1352.5999755859375</AltitudeMeters>
            <DistanceMeters>NAN</DistanceMeters>
          </Trackpoint>
          <Trackpoint>
            <Time>2021-08-03T06:51:26.000Z</Time>
            <Position>
              <LatitudeDegrees>-15.34183750860393047332763671875</LatitudeDegrees>
              <LongitudeDegrees>37.08069498650729656219482421875</LongitudeDegrees>
            </Position>
            <AltitudeMeters>1351.199951171875</AltitudeMeters>
            <DistanceMeters>NAN</DistanceMeters>
          </Trackpoint>
          <Trackpoint>
            <Time>2021-08-03T06:51:27.000Z</Time>
            <Position>
              <LatitudeDegrees>-15.34183097071945667266845703125</LatitudeDegrees>
              <LongitudeDegrees>37.08069699816405773162841796875</LongitudeDegrees>
            </Position>
            <AltitudeMeters>1350.800048828125</AltitudeMeters>
            <DistanceMeters>NAN</DistanceMeters>
          </Trackpoint>
          <Trackpoint>
            <Time>2021-08-03T06:51:29.000Z</Time>
            <Position>
              <LatitudeDegrees>-15.3418156318366527557373046875</LatitudeDegrees>
              <LongitudeDegrees>37.0807068049907684326171875</LongitudeDegrees>
            </Position>
            <AltitudeMeters>1350.5999755859375</AltitudeMeters>
            <DistanceMeters>NAN</DistanceMeters>
          </Trackpoint>
          <Trackpoint>
            <Time>2021-08-03T06:51:30.000Z</Time>
            <Position>
              <LatitudeDegrees>-15.341808088123798370361328125</LatitudeDegrees>
              <LongitudeDegrees>37.0807073079049587249755859375</LongitudeDegrees>
            </Position>
            <AltitudeMeters>1350</AltitudeMeters>
            <DistanceMeters>NAN</DistanceMeters>
          </Trackpoint>
          <Trackpoint>
            <Time>2021-08-03T06:51:32.000Z</Time>
            <Position>
              <LatitudeDegrees>-15.3417777456343173980712890625</LatitudeDegrees>
              <LongitudeDegrees>37.0807039551436901092529296875</LongitudeDegrees>
            </Position>
            <AltitudeMeters>1349.199951171875</AltitudeMeters>
            <DistanceMeters>NAN</DistanceMeters>
          </Trackpoint>
          <Trackpoint>
            <Time>2021-08-03T06:51:33.000Z</Time>
            <Position>
              <LatitudeDegrees>-15.34176358021795749664306640625</LatitudeDegrees>
              <LongitudeDegrees>37.080698423087596893310546875</LongitudeDegrees>
            </Position>
            <AltitudeMeters>1348.4000244140625</AltitudeMeters>
            <DistanceMeters>NAN</DistanceMeters>
          </Trackpoint>
          <Trackpoint>
            <Time>2021-08-03T06:51:36.000Z</Time>
            <Position>
              <LatitudeDegrees>-15.34172552637755870819091796875</LatitudeDegrees>
              <LongitudeDegrees>37.0806935615837574005126953125</LongitudeDegrees>
            </Position>
            <AltitudeMeters>1347.5999755859375</AltitudeMeters>
            <DistanceMeters>NAN</DistanceMeters>
          </Trackpoint>
          <Trackpoint>
            <Time>2021-08-03T06:51:38.000Z</Time>
            <Position>
              <LatitudeDegrees>-15.34170423634350299835205078125</LatitudeDegrees>
              <LongitudeDegrees>37.0807059668004512786865234375</LongitudeDegrees>
            </Position>
            <AltitudeMeters>1346.4000244140625</AltitudeMeters>
            <DistanceMeters>NAN</DistanceMeters>
          </Trackpoint>
          <Trackpoint>
            <Time>2021-08-03T06:51:42.000Z</Time>
            <Position>
              <LatitudeDegrees>-15.34165847115218639373779296875</LatitudeDegrees>
              <LongitudeDegrees>37.0807344652712345123291015625</LongitudeDegrees>
            </Position>
            <AltitudeMeters>1344.199951171875</AltitudeMeters>
            <DistanceMeters>NAN</DistanceMeters>
          </Trackpoint>
          <Trackpoint>
            <Time>2021-08-03T06:51:45.000Z</Time>
            <Position>
              <LatitudeDegrees>-15.34161974675953388214111328125</LatitudeDegrees>
              <LongitudeDegrees>37.080754749476909637451171875</LongitudeDegrees>
            </Position>
            <AltitudeMeters>1343</AltitudeMeters>
            <DistanceMeters>NAN</DistanceMeters>
          </Trackpoint>
          <Trackpoint>
            <Time>2021-08-03T06:51:48.000Z</Time>
            <Position>
              <LatitudeDegrees>-15.341591499745845794677734375</LatitudeDegrees>
              <LongitudeDegrees>37.08076891489326953887939453125</LongitudeDegrees>
            </Position>
            <AltitudeMeters>1341.800048828125</AltitudeMeters>
            <DistanceMeters>NAN</DistanceMeters>
          </Trackpoint>
          <Trackpoint>
            <Time>2021-08-03T06:51:52.000Z</Time>
            <Position>
              <LatitudeDegrees>-15.34154296852648258209228515625</LatitudeDegrees>
              <LongitudeDegrees>37.0807991735637187957763671875</LongitudeDegrees>
            </Position>
            <AltitudeMeters>1340</AltitudeMeters>
            <DistanceMeters>NAN</DistanceMeters>
          </Trackpoint>
          <Trackpoint>
            <Time>2021-08-03T06:51:54.000Z</Time>
            <Position>
              <LatitudeDegrees>-15.34152486361563205718994140625</LatitudeDegrees>
              <LongitudeDegrees>37.0808176137506961822509765625</LongitudeDegrees>
            </Position>
            <AltitudeMeters>1339.800048828125</AltitudeMeters>
            <DistanceMeters>NAN</DistanceMeters>
          </Trackpoint>
          <Trackpoint>
            <Time>2021-08-03T06:51:55.000Z</Time>
            <Position>
              <LatitudeDegrees>-15.3415127098560333251953125</LatitudeDegrees>
              <LongitudeDegrees>37.0808213017880916595458984375</LongitudeDegrees>
            </Position>
            <AltitudeMeters>1339.199951171875</AltitudeMeters>
            <DistanceMeters>NAN</DistanceMeters>
          </Trackpoint>
          <Trackpoint>
            <Time>2021-08-03T06:51:58.000Z</Time>
            <Position>
              <LatitudeDegrees>-15.341488905251026153564453125</LatitudeDegrees>
              <LongitudeDegrees>37.0808082260191440582275390625</LongitudeDegrees>
            </Position>
            <AltitudeMeters>1338.800048828125</AltitudeMeters>
            <DistanceMeters>NAN</DistanceMeters>
          </Trackpoint>
          <Trackpoint>
            <Time>2021-08-03T06:51:59.000Z</Time>
            <Position>
              <LatitudeDegrees>-15.34147918224334716796875</LatitudeDegrees>
              <LongitudeDegrees>37.08080428652465343475341796875</LongitudeDegrees>
            </Position>
            <AltitudeMeters>1338.199951171875</AltitudeMeters>
            <DistanceMeters>NAN</DistanceMeters>
          </Trackpoint>
          <Trackpoint>
            <Time>2021-08-03T06:52:01.000Z</Time>
            <Position>
              <LatitudeDegrees>-15.3414592333137989044189453125</LatitudeDegrees>
              <LongitudeDegrees>37.080805711448192596435546875</LongitudeDegrees>
            </Position>
            <AltitudeMeters>1338</AltitudeMeters>
            <DistanceMeters>NAN</DistanceMeters>
          </Trackpoint>
          <Trackpoint>
            <Time>2021-08-03T06:52:02.000Z</Time>
            <Position>
              <LatitudeDegrees>-15.3414478339254856109619140625</LatitudeDegrees>
              <LongitudeDegrees>37.080812752246856689453125</LongitudeDegrees>
            </Position>
            <AltitudeMeters>1337.800048828125</AltitudeMeters>
            <DistanceMeters>NAN</DistanceMeters>
          </Trackpoint>
          <Trackpoint>
            <Time>2021-08-03T06:52:06.000Z</Time>
            <Position>
              <LatitudeDegrees>-15.34140902571380138397216796875</LatitudeDegrees>
              <LongitudeDegrees>37.08082607947289943695068359375</LongitudeDegrees>
            </Position>
            <AltitudeMeters>1336.5999755859375</AltitudeMeters>
            <DistanceMeters>NAN</DistanceMeters>
          </Trackpoint>
          <Trackpoint>
            <Time>2021-08-03T06:52:07.000Z</Time>
            <Position>
              <LatitudeDegrees>-15.34140198491513729095458984375</LatitudeDegrees>
              <LongitudeDegrees>37.0808273367583751678466796875</LongitudeDegrees>
            </Position>
            <AltitudeMeters>1335.4000244140625</AltitudeMeters>
            <DistanceMeters>NAN</DistanceMeters>
          </Trackpoint>
          <Trackpoint>
            <Time>2021-08-03T06:52:10.000Z</Time>
            <Position>
              <LatitudeDegrees>-15.3413687087595462799072265625</LatitudeDegrees>
              <LongitudeDegrees>37.08083764649927616119384765625</LongitudeDegrees>
            </Position>
            <AltitudeMeters>1334.199951171875</AltitudeMeters>
            <DistanceMeters>NAN</DistanceMeters>
          </Trackpoint>
          <Trackpoint>
            <Time>2021-08-03T06:52:12.000Z</Time>
            <Position>
              <LatitudeDegrees>-15.34135001711547374725341796875</LatitudeDegrees>
              <LongitudeDegrees>37.0808276720345020294189453125</LongitudeDegrees>
            </Position>
            <AltitudeMeters>1333.800048828125</AltitudeMeters>
            <DistanceMeters>NAN</DistanceMeters>
          </Trackpoint>
          <Trackpoint>
            <Time>2021-08-03T06:52:15.000Z</Time>
            <Position>
              <LatitudeDegrees>-15.34131531603634357452392578125</LatitudeDegrees>
              <LongitudeDegrees>37.0808216370642185211181640625</LongitudeDegrees>
            </Position>
            <AltitudeMeters>1333.4000244140625</AltitudeMeters>
            <DistanceMeters>NAN</DistanceMeters>
          </Trackpoint>
          <Trackpoint>
            <Time>2021-08-03T06:52:18.000Z</Time>
            <Position>
              <LatitudeDegrees>-15.341281034052371978759765625</LatitudeDegrees>
              <LongitudeDegrees>37.08084703423082828521728515625</LongitudeDegrees>
            </Position>
            <AltitudeMeters>1333.199951171875</AltitudeMeters>
            <DistanceMeters>NAN</DistanceMeters>
          </Trackpoint>
          <Trackpoint>
            <Time>2021-08-03T06:52:20.000Z</Time>
            <Position>
              <LatitudeDegrees>-15.34125647507607936859130859375</LatitudeDegrees>
              <LongitudeDegrees>37.08086430095136165618896484375</LongitudeDegrees>
            </Position>
            <AltitudeMeters>1332</AltitudeMeters>
            <DistanceMeters>NAN</DistanceMeters>
          </Trackpoint>
          <Trackpoint>
            <Time>2021-08-03T06:52:23.000Z</Time>
            <Position>
              <LatitudeDegrees>-15.34122227691113948822021484375</LatitudeDegrees>
              <LongitudeDegrees>37.0808809809386730194091796875</LongitudeDegrees>
            </Position>
            <AltitudeMeters>1331.199951171875</AltitudeMeters>
            <DistanceMeters>NAN</DistanceMeters>
          </Trackpoint>
          <Trackpoint>
            <Time>2021-08-03T06:52:24.000Z</Time>
            <Position>
              <LatitudeDegrees>-15.341210626065731048583984375</LatitudeDegrees>
              <LongitudeDegrees>37.08089028485119342803955078125</LongitudeDegrees>
            </Position>
            <AltitudeMeters>1330.199951171875</AltitudeMeters>
            <DistanceMeters>NAN</DistanceMeters>
          </Trackpoint>
          <Trackpoint>
            <Time>2021-08-03T06:52:25.000Z</Time>
            <Position>
              <LatitudeDegrees>-15.34119646064937114715576171875</LatitudeDegrees>
              <LongitudeDegrees>37.08089900203049182891845703125</LongitudeDegrees>
            </Position>
            <AltitudeMeters>1329</AltitudeMeters>
            <DistanceMeters>NAN</DistanceMeters>
          </Trackpoint>
          <Trackpoint>
            <Time>2021-08-03T06:52:27.000Z</Time>
            <Position>
              <LatitudeDegrees>-15.3411739133298397064208984375</LatitudeDegrees>
              <LongitudeDegrees>37.0809114910662174224853515625</LongitudeDegrees>
            </Position>
            <AltitudeMeters>1327.800048828125</AltitudeMeters>
            <DistanceMeters>NAN</DistanceMeters>
          </Trackpoint>
          <Trackpoint>
            <Time>2021-08-03T06:52:30.000Z</Time>
            <Position>
              <LatitudeDegrees>-15.3411413915455341339111328125</LatitudeDegrees>
              <LongitudeDegrees>37.08093202672898769378662109375</LongitudeDegrees>
            </Position>
            <AltitudeMeters>1327.5999755859375</AltitudeMeters>
            <DistanceMeters>NAN</DistanceMeters>
          </Trackpoint>
          <Trackpoint>
            <Time>2021-08-03T06:52:33.000Z</Time>
            <Position>
              <LatitudeDegrees>-15.34110300242900848388671875</LatitudeDegrees>
              <LongitudeDegrees>37.08094694651663303375244140625</LongitudeDegrees>
            </Position>
            <AltitudeMeters>1327</AltitudeMeters>
            <DistanceMeters>NAN</DistanceMeters>
          </Trackpoint>
          <Trackpoint>
            <Time>2021-08-03T06:52:34.000Z</Time>
            <Position>
              <LatitudeDegrees>-15.341087915003299713134765625</LatitudeDegrees>
              <LongitudeDegrees>37.08095289766788482666015625</LongitudeDegrees>
            </Position>
            <AltitudeMeters>1326</AltitudeMeters>
            <DistanceMeters>NAN</DistanceMeters>
          </Trackpoint>
          <Trackpoint>
            <Time>2021-08-03T06:52:37.000Z</Time>
            <Position>
              <LatitudeDegrees>-15.34104977734386920928955078125</LatitudeDegrees>
              <LongitudeDegrees>37.08096823655068874359130859375</LongitudeDegrees>
            </Position>
            <AltitudeMeters>1325.199951171875</AltitudeMeters>
            <DistanceMeters>NAN</DistanceMeters>
          </Trackpoint>
          <Trackpoint>
            <Time>2021-08-03T06:52:38.000Z</Time>
            <Position>
              <LatitudeDegrees>-15.34103686921298503875732421875</LatitudeDegrees>
              <LongitudeDegrees>37.08097645081579685211181640625</LongitudeDegrees>
            </Position>
            <AltitudeMeters>1324.800048828125</AltitudeMeters>
            <DistanceMeters>NAN</DistanceMeters>
          </Trackpoint>
          <Trackpoint>
            <Time>2021-08-03T06:52:41.000Z</Time>
            <Position>
              <LatitudeDegrees>-15.34099973738193511962890625</LatitudeDegrees>
              <LongitudeDegrees>37.08098902367055416107177734375</LongitudeDegrees>
            </Position>
            <AltitudeMeters>1323.4000244140625</AltitudeMeters>
            <DistanceMeters>NAN</DistanceMeters>
          </Trackpoint>
          <Trackpoint>
            <Time>2021-08-03T06:52:45.000Z</Time>
            <Position>
              <LatitudeDegrees>-15.34095891751348972320556640625</LatitudeDegrees>
              <LongitudeDegrees>37.08099639974534511566162109375</LongitudeDegrees>
            </Position>
            <AltitudeMeters>1322.199951171875</AltitudeMeters>
            <DistanceMeters>NAN</DistanceMeters>
          </Trackpoint>
          <Trackpoint>
            <Time>2021-08-03T06:52:46.000Z</Time>
            <Position>
              <LatitudeDegrees>-15.34095221199095249176025390625</LatitudeDegrees>
              <LongitudeDegrees>37.08099170587956905364990234375</LongitudeDegrees>
            </Position>
            <AltitudeMeters>1322</AltitudeMeters>
            <DistanceMeters>NAN</DistanceMeters>
          </Trackpoint>
          <Trackpoint>
            <Time>2021-08-03T06:52:47.000Z</Time>
            <Position>
              <LatitudeDegrees>-15.34094248898327350616455078125</LatitudeDegrees>
              <LongitudeDegrees>37.08098416216671466827392578125</LongitudeDegrees>
            </Position>
            <AltitudeMeters>1321.800048828125</AltitudeMeters>
            <DistanceMeters>NAN</DistanceMeters>
          </Trackpoint>
          <Trackpoint>
            <Time>2021-08-03T06:52:53.000Z</Time>
            <Position>
              <LatitudeDegrees>-15.34088163636624813079833984375</LatitudeDegrees>
              <LongitudeDegrees>37.0809238962829113006591796875</LongitudeDegrees>
            </Position>
            <AltitudeMeters>1321.4000244140625</AltitudeMeters>
            <DistanceMeters>NAN</DistanceMeters>
          </Trackpoint>
          <Trackpoint>
            <Time>2021-08-03T06:52:54.000Z</Time>
            <Position>
              <LatitudeDegrees>-15.34087576903402805328369140625</LatitudeDegrees>
              <LongitudeDegrees>37.08091375418007373809814453125</LongitudeDegrees>
            </Position>
            <AltitudeMeters>1321.199951171875</AltitudeMeters>
            <DistanceMeters>NAN</DistanceMeters>
          </Trackpoint>
          <Trackpoint>
            <Time>2021-08-03T06:52:56.000Z</Time>
            <Position>
              <LatitudeDegrees>-15.34085799939930438995361328125</LatitudeDegrees>
              <LongitudeDegrees>37.08090218715369701385498046875</LongitudeDegrees>
            </Position>
            <AltitudeMeters>1321.199951171875</AltitudeMeters>
            <DistanceMeters>NAN</DistanceMeters>
          </Trackpoint>
          <Trackpoint>
            <Time>2021-08-03T06:52:59.000Z</Time>
            <Position>
              <LatitudeDegrees>-15.34082631580531597137451171875</LatitudeDegrees>
              <LongitudeDegrees>37.08091140724718570709228515625</LongitudeDegrees>
            </Position>
            <AltitudeMeters>1320.199951171875</AltitudeMeters>
            <DistanceMeters>NAN</DistanceMeters>
          </Trackpoint>
          <Trackpoint>
            <Time>2021-08-03T06:53:00.000Z</Time>
            <Position>
              <LatitudeDegrees>-15.34081508405506610870361328125</LatitudeDegrees>
              <LongitudeDegrees>37.08092071115970611572265625</LongitudeDegrees>
            </Position>
            <AltitudeMeters>1319.5999755859375</AltitudeMeters>
            <DistanceMeters>NAN</DistanceMeters>
          </Trackpoint>
          <Trackpoint>
            <Time>2021-08-03T06:53:01.000Z</Time>
            <Position>
              <LatitudeDegrees>-15.34080619923770427703857421875</LatitudeDegrees>
              <LongitudeDegrees>37.0809259079396724700927734375</LongitudeDegrees>
            </Position>
            <AltitudeMeters>1319.4000244140625</AltitudeMeters>
            <DistanceMeters>NAN</DistanceMeters>
          </Trackpoint>
          <Trackpoint>
            <Time>2021-08-03T06:53:04.000Z</Time>
            <Position>
              <LatitudeDegrees>-15.34077552147209644317626953125</LatitudeDegrees>
              <LongitudeDegrees>37.08093470893800258636474609375</LongitudeDegrees>
            </Position>
            <AltitudeMeters>1318.800048828125</AltitudeMeters>
            <DistanceMeters>NAN</DistanceMeters>
          </Trackpoint>
          <Trackpoint>
            <Time>2021-08-03T06:53:05.000Z</Time>
            <Position>
              <LatitudeDegrees>-15.340761356055736541748046875</LatitudeDegrees>
              <LongitudeDegrees>37.08094225265085697174072265625</LongitudeDegrees>
            </Position>
            <AltitudeMeters>1318.4000244140625</AltitudeMeters>
            <DistanceMeters>NAN</DistanceMeters>
          </Trackpoint>
          <Trackpoint>
            <Time>2021-08-03T06:53:06.000Z</Time>
            <Position>
              <LatitudeDegrees>-15.34074786119163036346435546875</LatitudeDegrees>
              <LongitudeDegrees>37.08095281384885311126708984375</LongitudeDegrees>
            </Position>
            <AltitudeMeters>1318.4000244140625</AltitudeMeters>
            <DistanceMeters>NAN</DistanceMeters>
          </Trackpoint>
          <Trackpoint>
            <Time>2021-08-03T06:53:08.000Z</Time>
            <Position>
              <LatitudeDegrees>-15.3407243080437183380126953125</LatitudeDegrees>
              <LongitudeDegrees>37.08097569644451141357421875</LongitudeDegrees>
            </Position>
            <AltitudeMeters>1316.199951171875</AltitudeMeters>
            <DistanceMeters>NAN</DistanceMeters>
          </Trackpoint>
          <Trackpoint>
            <Time>2021-08-03T06:53:11.000Z</Time>
            <Position>
              <LatitudeDegrees>-15.3406867571175098419189453125</LatitudeDegrees>
              <LongitudeDegrees>37.08100561983883380889892578125</LongitudeDegrees>
            </Position>
            <AltitudeMeters>1315.199951171875</AltitudeMeters>
            <DistanceMeters>NAN</DistanceMeters>
          </Trackpoint>
          <Trackpoint>
            <Time>2021-08-03T06:53:12.000Z</Time>
            <Position>
              <LatitudeDegrees>-15.34067225642502307891845703125</LatitudeDegrees>
              <LongitudeDegrees>37.0810110680758953094482421875</LongitudeDegrees>
            </Position>
            <AltitudeMeters>1315</AltitudeMeters>
            <DistanceMeters>NAN</DistanceMeters>
          </Trackpoint>
          <Trackpoint>
            <Time>2021-08-03T06:53:13.000Z</Time>
            <Position>
              <LatitudeDegrees>-15.34066203050315380096435546875</LatitudeDegrees>
              <LongitudeDegrees>37.08101551048457622528076171875</LongitudeDegrees>
            </Position>
            <AltitudeMeters>1314.800048828125</AltitudeMeters>
            <DistanceMeters>NAN</DistanceMeters>
          </Trackpoint>
          <Trackpoint>
            <Time>2021-08-03T06:53:15.000Z</Time>
            <Position>
              <LatitudeDegrees>-15.3406431712210178375244140625</LatitudeDegrees>
              <LongitudeDegrees>37.0810244791209697723388671875</LongitudeDegrees>
            </Position>
            <AltitudeMeters>1313.800048828125</AltitudeMeters>
            <DistanceMeters>NAN</DistanceMeters>
          </Trackpoint>
          <Trackpoint>
            <Time>2021-08-03T06:53:16.000Z</Time>
            <Position>
              <LatitudeDegrees>-15.34063437022268772125244140625</LatitudeDegrees>
              <LongitudeDegrees>37.0810301788151264190673828125</LongitudeDegrees>
            </Position>
            <AltitudeMeters>1312.5999755859375</AltitudeMeters>
            <DistanceMeters>NAN</DistanceMeters>
          </Trackpoint>
          <Trackpoint>
            <Time>2021-08-03T06:53:19.000Z</Time>
            <Position>
              <LatitudeDegrees>-15.34061023034155368804931640625</LatitudeDegrees>
              <LongitudeDegrees>37.08105172030627727508544921875</LongitudeDegrees>
            </Position>
            <AltitudeMeters>1312</AltitudeMeters>
            <DistanceMeters>NAN</DistanceMeters>
          </Trackpoint>
          <Trackpoint>
            <Time>2021-08-03T06:53:21.000Z</Time>
            <Position>
              <LatitudeDegrees>-15.34058265388011932373046875</LatitudeDegrees>
              <LongitudeDegrees>37.08107770420610904693603515625</LongitudeDegrees>
            </Position>
            <AltitudeMeters>1311.4000244140625</AltitudeMeters>
            <DistanceMeters>NAN</DistanceMeters>
          </Trackpoint>
          <Trackpoint>
            <Time>2021-08-03T06:53:22.000Z</Time>
            <Position>
              <LatitudeDegrees>-15.3405685722827911376953125</LatitudeDegrees>
              <LongitudeDegrees>37.08108700811862945556640625</LongitudeDegrees>
            </Position>
            <AltitudeMeters>1309.5999755859375</AltitudeMeters>
            <DistanceMeters>NAN</DistanceMeters>
          </Trackpoint>
          <Trackpoint>
            <Time>2021-08-03T06:53:28.000Z</Time>
            <Position>
              <LatitudeDegrees>-15.34050143323838710784912109375</LatitudeDegrees>
              <LongitudeDegrees>37.0811243914067745208740234375</LongitudeDegrees>
            </Position>
            <AltitudeMeters>1308</AltitudeMeters>
            <DistanceMeters>NAN</DistanceMeters>
          </Trackpoint>
          <Trackpoint>
            <Time>2021-08-03T06:53:34.000Z</Time>
            <Position>
              <LatitudeDegrees>-15.34044225700199604034423828125</LatitudeDegrees>
              <LongitudeDegrees>37.08113403059542179107666015625</LongitudeDegrees>
            </Position>
            <AltitudeMeters>1305.5999755859375</AltitudeMeters>
            <DistanceMeters>NAN</DistanceMeters>
          </Trackpoint>
          <Trackpoint>
            <Time>2021-08-03T06:53:35.000Z</Time>
            <Position>
              <LatitudeDegrees>-15.3404359705746173858642578125</LatitudeDegrees>
              <LongitudeDegrees>37.0811408199369907379150390625</LongitudeDegrees>
            </Position>
            <AltitudeMeters>1305.4000244140625</AltitudeMeters>
            <DistanceMeters>NAN</DistanceMeters>
          </Trackpoint>
          <Trackpoint>
            <Time>2021-08-03T06:53:38.000Z</Time>
            <Position>
              <LatitudeDegrees>-15.3403967432677745819091796875</LatitudeDegrees>
              <LongitudeDegrees>37.0811709947884082794189453125</LongitudeDegrees>
            </Position>
            <AltitudeMeters>1304.5999755859375</AltitudeMeters>
            <DistanceMeters>NAN</DistanceMeters>
          </Trackpoint>
          <Trackpoint>
            <Time>2021-08-03T06:53:40.000Z</Time>
            <Position>
              <LatitudeDegrees>-15.34037453122437000274658203125</LatitudeDegrees>
              <LongitudeDegrees>37.081193625926971435546875</LongitudeDegrees>
            </Position>
            <AltitudeMeters>1303.800048828125</AltitudeMeters>
            <DistanceMeters>NAN</DistanceMeters>
          </Trackpoint>
          <Trackpoint>
            <Time>2021-08-03T06:53:41.000Z</Time>
            <Position>
              <LatitudeDegrees>-15.34036028198897838592529296875</LatitudeDegrees>
              <LongitudeDegrees>37.0811964757740497589111328125</LongitudeDegrees>
            </Position>
            <AltitudeMeters>1303.800048828125</AltitudeMeters>
            <DistanceMeters>NAN</DistanceMeters>
          </Trackpoint>
          <Trackpoint>
            <Time>2021-08-03T06:53:42.000Z</Time>
            <Position>
              <LatitudeDegrees>-15.34034469164907932281494140625</LatitudeDegrees>
              <LongitudeDegrees>37.0811974816024303436279296875</LongitudeDegrees>
            </Position>
            <AltitudeMeters>1303.4000244140625</AltitudeMeters>
            <DistanceMeters>NAN</DistanceMeters>
          </Trackpoint>
          <Trackpoint>
            <Time>2021-08-03T06:53:45.000Z</Time>
            <Position>
              <LatitudeDegrees>-15.34030077047646045684814453125</LatitudeDegrees>
              <LongitudeDegrees>37.08119387738406658172607421875</LongitudeDegrees>
            </Position>
            <AltitudeMeters>1302</AltitudeMeters>
            <DistanceMeters>NAN</DistanceMeters>
          </Trackpoint>
          <Trackpoint>
            <Time>2021-08-03T06:53:47.000Z</Time>
            <Position>
              <LatitudeDegrees>-15.340277217328548431396484375</LatitudeDegrees>
              <LongitudeDegrees>37.08119253627955913543701171875</LongitudeDegrees>
            </Position>
            <AltitudeMeters>1300.800048828125</AltitudeMeters>
            <DistanceMeters>NAN</DistanceMeters>
          </Trackpoint>
          <Trackpoint>
            <Time>2021-08-03T06:53:48.000Z</Time>
            <Position>
              <LatitudeDegrees>-15.34026506356894969940185546875</LatitudeDegrees>
              <LongitudeDegrees>37.08119840361177921295166015625</LongitudeDegrees>
            </Position>
            <AltitudeMeters>1300.800048828125</AltitudeMeters>
            <DistanceMeters>NAN</DistanceMeters>
          </Trackpoint>
          <Trackpoint>
            <Time>2021-08-03T06:53:51.000Z</Time>
            <Position>
              <LatitudeDegrees>-15.3402284346520900726318359375</LatitudeDegrees>
              <LongitudeDegrees>37.0812216214835643768310546875</LongitudeDegrees>
            </Position>
            <AltitudeMeters>1299.5999755859375</AltitudeMeters>
            <DistanceMeters>NAN</DistanceMeters>
          </Trackpoint>
          <Trackpoint>
            <Time>2021-08-03T06:53:54.000Z</Time>
            <Position>
              <LatitudeDegrees>-15.3402106650173664093017578125</LatitudeDegrees>
              <LongitudeDegrees>37.0812363736331462860107421875</LongitudeDegrees>
            </Position>
            <AltitudeMeters>1298.4000244140625</AltitudeMeters>
            <DistanceMeters>NAN</DistanceMeters>
          </Trackpoint>
          <Trackpoint>
            <Time>2021-08-03T06:53:57.000Z</Time>
            <Position>
              <LatitudeDegrees>-15.340210497379302978515625</LatitudeDegrees>
              <LongitudeDegrees>37.0812430791556835174560546875</LongitudeDegrees>
            </Position>
            <AltitudeMeters>1299</AltitudeMeters>
            <DistanceMeters>NAN</DistanceMeters>
          </Trackpoint>
          <Trackpoint>
            <Time>2021-08-03T06:54:03.000Z</Time>
            <Position>
              <LatitudeDegrees>-15.340182669460773468017578125</LatitudeDegrees>
              <LongitudeDegrees>37.08124618045985698699951171875</LongitudeDegrees>
            </Position>
            <AltitudeMeters>1298.4000244140625</AltitudeMeters>
            <DistanceMeters>NAN</DistanceMeters>
          </Trackpoint>
          <Trackpoint>
            <Time>2021-08-03T06:54:08.000Z</Time>
            <Position>
              <LatitudeDegrees>-15.34013095311820507049560546875</LatitudeDegrees>
              <LongitudeDegrees>37.0812289975583553314208984375</LongitudeDegrees>
            </Position>
            <AltitudeMeters>1297.5999755859375</AltitudeMeters>
            <DistanceMeters>NAN</DistanceMeters>
          </Trackpoint>
          <Trackpoint>
            <Time>2021-08-03T06:54:09.000Z</Time>
            <Position>
              <LatitudeDegrees>-15.340119302272796630859375</LatitudeDegrees>
              <LongitudeDegrees>37.08123050630092620849609375</LongitudeDegrees>
            </Position>
            <AltitudeMeters>1297</AltitudeMeters>
            <DistanceMeters>NAN</DistanceMeters>
          </Trackpoint>
          <Trackpoint>
            <Time>2021-08-03T06:54:12.000Z</Time>
            <Position>
              <LatitudeDegrees>-15.34008669666945934295654296875</LatitudeDegrees>
              <LongitudeDegrees>37.0812380500137805938720703125</LongitudeDegrees>
            </Position>
            <AltitudeMeters>1296.5999755859375</AltitudeMeters>
            <DistanceMeters>NAN</DistanceMeters>
          </Trackpoint>
          <Trackpoint>
            <Time>2021-08-03T06:54:14.000Z</Time>
            <Position>
              <LatitudeDegrees>-15.3400664962828159332275390625</LatitudeDegrees>
              <LongitudeDegrees>37.081222794950008392333984375</LongitudeDegrees>
            </Position>
            <AltitudeMeters>1296.199951171875</AltitudeMeters>
            <DistanceMeters>NAN</DistanceMeters>
          </Trackpoint>
          <Trackpoint>
            <Time>2021-08-03T06:54:15.000Z</Time>
            <Position>
              <LatitudeDegrees>-15.3400589525699615478515625</LatitudeDegrees>
              <LongitudeDegrees>37.08121181465685367584228515625</LongitudeDegrees>
            </Position>
            <AltitudeMeters>1296</AltitudeMeters>
            <DistanceMeters>NAN</DistanceMeters>
          </Trackpoint>
          <Trackpoint>
            <Time>2021-08-03T06:54:16.000Z</Time>
            <Position>
              <LatitudeDegrees>-15.34004730172455310821533203125</LatitudeDegrees>
              <LongitudeDegrees>37.08120636641979217529296875</LongitudeDegrees>
            </Position>
            <AltitudeMeters>1295.4000244140625</AltitudeMeters>
            <DistanceMeters>NAN</DistanceMeters>
          </Trackpoint>
          <Trackpoint>
            <Time>2021-08-03T06:54:18.000Z</Time>
            <Position>
              <LatitudeDegrees>-15.3400255925953388214111328125</LatitudeDegrees>
              <LongitudeDegrees>37.0811984874308109283447265625</LongitudeDegrees>
            </Position>
            <AltitudeMeters>1294.800048828125</AltitudeMeters>
            <DistanceMeters>NAN</DistanceMeters>
          </Trackpoint>
          <Trackpoint>
            <Time>2021-08-03T06:54:20.000Z</Time>
            <Position>
              <LatitudeDegrees>-15.34000539220869541168212890625</LatitudeDegrees>
              <LongitudeDegrees>37.081189267337322235107421875</LongitudeDegrees>
            </Position>
            <AltitudeMeters>1294</AltitudeMeters>
            <DistanceMeters>NAN</DistanceMeters>
          </Trackpoint>
          <Trackpoint>
            <Time>2021-08-03T06:54:22.000Z</Time>
            <Position>
              <LatitudeDegrees>-15.339982509613037109375</LatitudeDegrees>
              <LongitudeDegrees>37.0811854116618633270263671875</LongitudeDegrees>
            </Position>
            <AltitudeMeters>1293.5999755859375</AltitudeMeters>
            <DistanceMeters>NAN</DistanceMeters>
          </Trackpoint>
          <Trackpoint>
            <Time>2021-08-03T06:54:25.000Z</Time>
            <Position>
              <LatitudeDegrees>-15.339945964515209197998046875</LatitudeDegrees>
              <LongitudeDegrees>37.081191949546337127685546875</LongitudeDegrees>
            </Position>
            <AltitudeMeters>1293</AltitudeMeters>
            <DistanceMeters>NAN</DistanceMeters>
          </Trackpoint>
          <Trackpoint>
            <Time>2021-08-03T06:54:28.000Z</Time>
            <Position>
              <LatitudeDegrees>-15.3399035520851612091064453125</LatitudeDegrees>
              <LongitudeDegrees>37.08120292983949184417724609375</LongitudeDegrees>
            </Position>
            <AltitudeMeters>1292.800048828125</AltitudeMeters>
            <DistanceMeters>NAN</DistanceMeters>
          </Trackpoint>
          <Trackpoint>
            <Time>2021-08-03T06:54:31.000Z</Time>
            <Position>
              <LatitudeDegrees>-15.3398636542260646820068359375</LatitudeDegrees>
              <LongitudeDegrees>37.0811934582889080047607421875</LongitudeDegrees>
            </Position>
            <AltitudeMeters>1291.4000244140625</AltitudeMeters>
            <DistanceMeters>NAN</DistanceMeters>
          </Trackpoint>
          <Trackpoint>
            <Time>2021-08-03T06:54:34.000Z</Time>
            <Position>
              <LatitudeDegrees>-15.33982534892857074737548828125</LatitudeDegrees>
              <LongitudeDegrees>37.08118683658540248870849609375</LongitudeDegrees>
            </Position>
            <AltitudeMeters>1290.5999755859375</AltitudeMeters>
            <DistanceMeters>NAN</DistanceMeters>
          </Trackpoint>
          <Trackpoint>
            <Time>2021-08-03T06:54:36.000Z</Time>
            <Position>
              <LatitudeDegrees>-15.339809842407703399658203125</LatitudeDegrees>
              <LongitudeDegrees>37.0811773650348186492919921875</LongitudeDegrees>
            </Position>
            <AltitudeMeters>1290.199951171875</AltitudeMeters>
            <DistanceMeters>NAN</DistanceMeters>
          </Trackpoint>
          <Trackpoint>
            <Time>2021-08-03T06:54:40.000Z</Time>
            <Position>
              <LatitudeDegrees>-15.3397773206233978271484375</LatitudeDegrees>
              <LongitudeDegrees>37.08115314133465290069580078125</LongitudeDegrees>
            </Position>
            <AltitudeMeters>1289.800048828125</AltitudeMeters>
            <DistanceMeters>NAN</DistanceMeters>
          </Trackpoint>
          <Trackpoint>
            <Time>2021-08-03T06:54:41.000Z</Time>
            <Position>
              <LatitudeDegrees>-15.33976533450186252593994140625</LatitudeDegrees>
              <LongitudeDegrees>37.08115012384951114654541015625</LongitudeDegrees>
            </Position>
            <AltitudeMeters>1289.5999755859375</AltitudeMeters>
            <DistanceMeters>NAN</DistanceMeters>
          </Trackpoint>
          <Trackpoint>
            <Time>2021-08-03T06:54:44.000Z</Time>
            <Position>
              <LatitudeDegrees>-15.33972828648984432220458984375</LatitudeDegrees>
              <LongitudeDegrees>37.0811421610414981842041015625</LongitudeDegrees>
            </Position>
            <AltitudeMeters>1288.800048828125</AltitudeMeters>
            <DistanceMeters>NAN</DistanceMeters>
          </Trackpoint>
          <Trackpoint>
            <Time>2021-08-03T06:54:46.000Z</Time>
            <Position>
              <LatitudeDegrees>-15.33970548771321773529052734375</LatitudeDegrees>
              <LongitudeDegrees>37.0811364613473415374755859375</LongitudeDegrees>
            </Position>
            <AltitudeMeters>1287.800048828125</AltitudeMeters>
            <DistanceMeters>NAN</DistanceMeters>
          </Trackpoint>
          <Trackpoint>
            <Time>2021-08-03T06:54:47.000Z</Time>
            <Position>
              <LatitudeDegrees>-15.3396926634013652801513671875</LatitudeDegrees>
              <LongitudeDegrees>37.081134952604770660400390625</LongitudeDegrees>
            </Position>
            <AltitudeMeters>1287.5999755859375</AltitudeMeters>
            <DistanceMeters>NAN</DistanceMeters>
          </Trackpoint>
          <Trackpoint>
            <Time>2021-08-03T06:54:48.000Z</Time>
            <Position>
              <LatitudeDegrees>-15.3396805934607982635498046875</LatitudeDegrees>
              <LongitudeDegrees>37.08112849853932857513427734375</LongitudeDegrees>
            </Position>
            <AltitudeMeters>1287</AltitudeMeters>
            <DistanceMeters>NAN</DistanceMeters>
          </Trackpoint>
          <Trackpoint>
            <Time>2021-08-03T06:54:51.000Z</Time>
            <Position>
              <LatitudeDegrees>-15.3396458923816680908203125</LatitudeDegrees>
              <LongitudeDegrees>37.081108130514621734619140625</LongitudeDegrees>
            </Position>
            <AltitudeMeters>1286.199951171875</AltitudeMeters>
            <DistanceMeters>NAN</DistanceMeters>
          </Trackpoint>
          <Trackpoint>
            <Time>2021-08-03T06:54:56.000Z</Time>
            <Position>
              <LatitudeDegrees>-15.33958428539335727691650390625</LatitudeDegrees>
              <LongitudeDegrees>37.08109907805919647216796875</LongitudeDegrees>
            </Position>
            <AltitudeMeters>1285</AltitudeMeters>
            <DistanceMeters>NAN</DistanceMeters>
          </Trackpoint>
          <Trackpoint>
            <Time>2021-08-03T06:54:57.000Z</Time>
            <Position>
              <LatitudeDegrees>-15.339571125805377960205078125</LatitudeDegrees>
              <LongitudeDegrees>37.0810965634882450103759765625</LongitudeDegrees>
            </Position>
            <AltitudeMeters>1285</AltitudeMeters>
            <DistanceMeters>NAN</DistanceMeters>
          </Trackpoint>
          <Trackpoint>
            <Time>2021-08-03T06:55:01.000Z</Time>
            <Position>
              <LatitudeDegrees>-15.3395297192037105560302734375</LatitudeDegrees>
              <LongitudeDegrees>37.08108876831829547882080078125</LongitudeDegrees>
            </Position>
            <AltitudeMeters>1282.800048828125</AltitudeMeters>
            <DistanceMeters>NAN</DistanceMeters>
          </Trackpoint>
          <Trackpoint>
            <Time>2021-08-03T06:55:05.000Z</Time>
            <Position>
              <LatitudeDegrees>-15.33948806114494800567626953125</LatitudeDegrees>
              <LongitudeDegrees>37.08106429316103458404541015625</LongitudeDegrees>
            </Position>
            <AltitudeMeters>1281.4000244140625</AltitudeMeters>
            <DistanceMeters>NAN</DistanceMeters>
          </Trackpoint>
          <Trackpoint>
            <Time>2021-08-03T06:55:06.000Z</Time>
            <Position>
              <LatitudeDegrees>-15.33947330899536609649658203125</LatitudeDegrees>
              <LongitudeDegrees>37.08105825819075107574462890625</LongitudeDegrees>
            </Position>
            <AltitudeMeters>1281</AltitudeMeters>
            <DistanceMeters>NAN</DistanceMeters>
          </Trackpoint>
          <Trackpoint>
            <Time>2021-08-03T06:55:08.000Z</Time>
            <Position>
              <LatitudeDegrees>-15.33944673836231231689453125</LatitudeDegrees>
              <LongitudeDegrees>37.08105473779141902923583984375</LongitudeDegrees>
            </Position>
            <AltitudeMeters>1280.5999755859375</AltitudeMeters>
            <DistanceMeters>NAN</DistanceMeters>
          </Trackpoint>
          <Trackpoint>
            <Time>2021-08-03T06:55:09.000Z</Time>
            <Position>
              <LatitudeDegrees>-15.33943693153560161590576171875</LatitudeDegrees>
              <LongitudeDegrees>37.0810563303530216217041015625</LongitudeDegrees>
            </Position>
            <AltitudeMeters>1280</AltitudeMeters>
            <DistanceMeters>NAN</DistanceMeters>
          </Trackpoint>
          <Trackpoint>
            <Time>2021-08-03T06:55:12.000Z</Time>
            <Position>
              <LatitudeDegrees>-15.33940491266548633575439453125</LatitudeDegrees>
              <LongitudeDegrees>37.081045098602771759033203125</LongitudeDegrees>
            </Position>
            <AltitudeMeters>1279.5999755859375</AltitudeMeters>
            <DistanceMeters>NAN</DistanceMeters>
          </Trackpoint>
          <Trackpoint>
            <Time>2021-08-03T06:55:14.000Z</Time>
            <Position>
              <LatitudeDegrees>-15.33939284272491931915283203125</LatitudeDegrees>
              <LongitudeDegrees>37.081027664244174957275390625</LongitudeDegrees>
            </Position>
            <AltitudeMeters>1279</AltitudeMeters>
            <DistanceMeters>NAN</DistanceMeters>
          </Trackpoint>
          <Trackpoint>
            <Time>2021-08-03T06:55:15.000Z</Time>
            <Position>
              <LatitudeDegrees>-15.33938647247850894927978515625</LatitudeDegrees>
              <LongitudeDegrees>37.08101668395102024078369140625</LongitudeDegrees>
            </Position>
            <AltitudeMeters>1278.199951171875</AltitudeMeters>
            <DistanceMeters>NAN</DistanceMeters>
          </Trackpoint>
          <Trackpoint>
            <Time>2021-08-03T06:55:17.000Z</Time>
            <Position>
              <LatitudeDegrees>-15.33937322907149791717529296875</LatitudeDegrees>
              <LongitudeDegrees>37.08099572919309139251708984375</LongitudeDegrees>
            </Position>
            <AltitudeMeters>1277.5999755859375</AltitudeMeters>
            <DistanceMeters>NAN</DistanceMeters>
          </Trackpoint>
          <Trackpoint>
            <Time>2021-08-03T06:55:21.000Z</Time>
            <Position>
              <LatitudeDegrees>-15.33933819271624088287353515625</LatitudeDegrees>
              <LongitudeDegrees>37.0809614472091197967529296875</LongitudeDegrees>
            </Position>
            <AltitudeMeters>1276.5999755859375</AltitudeMeters>
            <DistanceMeters>NAN</DistanceMeters>
          </Trackpoint>
          <Trackpoint>
            <Time>2021-08-03T06:55:22.000Z</Time>
            <Position>
              <LatitudeDegrees>-15.3393241949379444122314453125</LatitudeDegrees>
              <LongitudeDegrees>37.08095264621078968048095703125</LongitudeDegrees>
            </Position>
            <AltitudeMeters>1275.4000244140625</AltitudeMeters>
            <DistanceMeters>NAN</DistanceMeters>
          </Trackpoint>
          <Trackpoint>
            <Time>2021-08-03T06:55:25.000Z</Time>
            <Position>
              <LatitudeDegrees>-15.33928622491657733917236328125</LatitudeDegrees>
              <LongitudeDegrees>37.08093169145286083221435546875</LongitudeDegrees>
            </Position>
            <AltitudeMeters>1274.4000244140625</AltitudeMeters>
            <DistanceMeters>NAN</DistanceMeters>
          </Trackpoint>
          <Trackpoint>
            <Time>2021-08-03T06:55:29.000Z</Time>
            <Position>
              <LatitudeDegrees>-15.33923140726983547210693359375</LatitudeDegrees>
              <LongitudeDegrees>37.0809021033346652984619140625</LongitudeDegrees>
            </Position>
            <AltitudeMeters>1273.800048828125</AltitudeMeters>
            <DistanceMeters>NAN</DistanceMeters>
          </Trackpoint>
          <Trackpoint>
            <Time>2021-08-03T06:55:31.000Z</Time>
            <Position>
              <LatitudeDegrees>-15.33921464346349239349365234375</LatitudeDegrees>
              <LongitudeDegrees>37.0808851718902587890625</LongitudeDegrees>
            </Position>
            <AltitudeMeters>1273.4000244140625</AltitudeMeters>
            <DistanceMeters>NAN</DistanceMeters>
          </Trackpoint>
          <Trackpoint>
            <Time>2021-08-03T06:55:32.000Z</Time>
            <Position>
              <LatitudeDegrees>-15.33920994959771633148193359375</LatitudeDegrees>
              <LongitudeDegrees>37.0808757841587066650390625</LongitudeDegrees>
            </Position>
            <AltitudeMeters>1273.4000244140625</AltitudeMeters>
            <DistanceMeters>NAN</DistanceMeters>
          </Trackpoint>
          <Trackpoint>
            <Time>2021-08-03T06:55:33.000Z</Time>
            <Position>
              <LatitudeDegrees>-15.3392028249800205230712890625</LatitudeDegrees>
              <LongitudeDegrees>37.0808695815503597259521484375</LongitudeDegrees>
            </Position>
            <AltitudeMeters>1272.5999755859375</AltitudeMeters>
            <DistanceMeters>NAN</DistanceMeters>
          </Trackpoint>
          <Trackpoint>
            <Time>2021-08-03T06:55:35.000Z</Time>
            <Position>
              <LatitudeDegrees>-15.33918212167918682098388671875</LatitudeDegrees>
              <LongitudeDegrees>37.08086865954101085662841796875</LongitudeDegrees>
            </Position>
            <AltitudeMeters>1272</AltitudeMeters>
            <DistanceMeters>NAN</DistanceMeters>
          </Trackpoint>
          <Trackpoint>
            <Time>2021-08-03T06:55:36.000Z</Time>
            <Position>
              <LatitudeDegrees>-15.33917055465281009674072265625</LatitudeDegrees>
              <LongitudeDegrees>37.08086974918842315673828125</LongitudeDegrees>
            </Position>
            <AltitudeMeters>1271.800048828125</AltitudeMeters>
            <DistanceMeters>NAN</DistanceMeters>
          </Trackpoint>
          <Trackpoint>
            <Time>2021-08-03T06:55:39.000Z</Time>
            <Position>
              <LatitudeDegrees>-15.33913501538336277008056640625</LatitudeDegrees>
              <LongitudeDegrees>37.0808623731136322021484375</LongitudeDegrees>
            </Position>
            <AltitudeMeters>1270.5999755859375</AltitudeMeters>
            <DistanceMeters>NAN</DistanceMeters>
          </Trackpoint>
          <Trackpoint>
            <Time>2021-08-03T06:55:40.000Z</Time>
            <Position>
              <LatitudeDegrees>-15.3391247056424617767333984375</LatitudeDegrees>
              <LongitudeDegrees>37.08086513914167881011962890625</LongitudeDegrees>
            </Position>
            <AltitudeMeters>1269.4000244140625</AltitudeMeters>
            <DistanceMeters>NAN</DistanceMeters>
          </Trackpoint>
          <Trackpoint>
            <Time>2021-08-03T06:55:42.000Z</Time>
            <Position>
              <LatitudeDegrees>-15.33910165540874004364013671875</LatitudeDegrees>
              <LongitudeDegrees>37.0808699168264865875244140625</LongitudeDegrees>
            </Position>
            <AltitudeMeters>1269</AltitudeMeters>
            <DistanceMeters>NAN</DistanceMeters>
          </Trackpoint>
          <Trackpoint>
            <Time>2021-08-03T06:55:43.000Z</Time>
            <Position>
              <LatitudeDegrees>-15.3390921838581562042236328125</LatitudeDegrees>
              <LongitudeDegrees>37.08087184466421604156494140625</LongitudeDegrees>
            </Position>
            <AltitudeMeters>1268.800048828125</AltitudeMeters>
            <DistanceMeters>NAN</DistanceMeters>
          </Trackpoint>
          <Trackpoint>
            <Time>2021-08-03T06:55:44.000Z</Time>
            <Position>
              <LatitudeDegrees>-15.33908656798303127288818359375</LatitudeDegrees>
              <LongitudeDegrees>37.08087653852999210357666015625</LongitudeDegrees>
            </Position>
            <AltitudeMeters>1268.5999755859375</AltitudeMeters>
            <DistanceMeters>NAN</DistanceMeters>
          </Trackpoint>
          <Trackpoint>
            <Time>2021-08-03T06:55:45.000Z</Time>
            <Position>
              <LatitudeDegrees>-15.3390811197459697723388671875</LatitudeDegrees>
              <LongitudeDegrees>37.080880142748355865478515625</LongitudeDegrees>
            </Position>
            <AltitudeMeters>1268.4000244140625</AltitudeMeters>
            <DistanceMeters>NAN</DistanceMeters>
          </Trackpoint>
          <Trackpoint>
            <Time>2021-08-03T06:55:48.000Z</Time>
            <Position>
              <LatitudeDegrees>-15.33906075172126293182373046875</LatitudeDegrees>
              <LongitudeDegrees>37.08089933730661869049072265625</LongitudeDegrees>
            </Position>
            <AltitudeMeters>1267.5999755859375</AltitudeMeters>
            <DistanceMeters>NAN</DistanceMeters>
          </Trackpoint>
          <Trackpoint>
            <Time>2021-08-03T06:55:49.000Z</Time>
            <Position>
              <LatitudeDegrees>-15.3390536271035671234130859375</LatitudeDegrees>
              <LongitudeDegrees>37.080903612077236175537109375</LongitudeDegrees>
            </Position>
            <AltitudeMeters>1266.5999755859375</AltitudeMeters>
            <DistanceMeters>NAN</DistanceMeters>
          </Trackpoint>
          <Trackpoint>
            <Time>2021-08-03T06:55:52.000Z</Time>
            <Position>
              <LatitudeDegrees>-15.3390316665172576904296875</LatitudeDegrees>
              <LongitudeDegrees>37.08091744221746921539306640625</LongitudeDegrees>
            </Position>
            <AltitudeMeters>1264.5999755859375</AltitudeMeters>
            <DistanceMeters>NAN</DistanceMeters>
          </Trackpoint>
          <Trackpoint>
            <Time>2021-08-03T06:55:56.000Z</Time>
            <Position>
              <LatitudeDegrees>-15.33898246474564075469970703125</LatitudeDegrees>
              <LongitudeDegrees>37.0809637941420078277587890625</LongitudeDegrees>
            </Position>
            <AltitudeMeters>1263.800048828125</AltitudeMeters>
            <DistanceMeters>NAN</DistanceMeters>
          </Trackpoint>
          <Trackpoint>
            <Time>2021-08-03T06:55:57.000Z</Time>
            <Position>
              <LatitudeDegrees>-15.3389721550047397613525390625</LatitudeDegrees>
              <LongitudeDegrees>37.0809723436832427978515625</LongitudeDegrees>
            </Position>
            <AltitudeMeters>1263.4000244140625</AltitudeMeters>
            <DistanceMeters>NAN</DistanceMeters>
          </Trackpoint>
          <Trackpoint>
            <Time>2021-08-03T06:55:58.000Z</Time>
            <Position>
              <LatitudeDegrees>-15.33896234817802906036376953125</LatitudeDegrees>
              <LongitudeDegrees>37.08097879774868488311767578125</LongitudeDegrees>
            </Position>
            <AltitudeMeters>1263.199951171875</AltitudeMeters>
            <DistanceMeters>NAN</DistanceMeters>
          </Trackpoint>
          <Trackpoint>
            <Time>2021-08-03T06:55:59.000Z</Time>
            <Position>
              <LatitudeDegrees>-15.3389537148177623748779296875</LatitudeDegrees>
              <LongitudeDegrees>37.08098399452865123748779296875</LongitudeDegrees>
            </Position>
            <AltitudeMeters>1263.199951171875</AltitudeMeters>
            <DistanceMeters>NAN</DistanceMeters>
          </Trackpoint>
          <Trackpoint>
            <Time>2021-08-03T06:56:00.000Z</Time>
            <Position>
              <LatitudeDegrees>-15.3389473445713520050048828125</LatitudeDegrees>
              <LongitudeDegrees>37.08099120296537876129150390625</LongitudeDegrees>
            </Position>
            <AltitudeMeters>1263</AltitudeMeters>
            <DistanceMeters>NAN</DistanceMeters>
          </Trackpoint>
          <Trackpoint>
            <Time>2021-08-03T06:56:01.000Z</Time>
            <Position>
              <LatitudeDegrees>-15.33894306980073451995849609375</LatitudeDegrees>
              <LongitudeDegrees>37.080996818840503692626953125</LongitudeDegrees>
            </Position>
            <AltitudeMeters>1262.800048828125</AltitudeMeters>
            <DistanceMeters>NAN</DistanceMeters>
          </Trackpoint>
          <Trackpoint>
            <Time>2021-08-03T06:56:03.000Z</Time>
            <Position>
              <LatitudeDegrees>-15.33893351443111896514892578125</LatitudeDegrees>
              <LongitudeDegrees>37.08101333118975162506103515625</LongitudeDegrees>
            </Position>
            <AltitudeMeters>1262</AltitudeMeters>
            <DistanceMeters>NAN</DistanceMeters>
          </Trackpoint>
          <Trackpoint>
            <Time>2021-08-03T06:56:05.000Z</Time>
            <Position>
              <LatitudeDegrees>-15.33891926519572734832763671875</LatitudeDegrees>
              <LongitudeDegrees>37.08103126846253871917724609375</LongitudeDegrees>
            </Position>
            <AltitudeMeters>1260.800048828125</AltitudeMeters>
            <DistanceMeters>NAN</DistanceMeters>
          </Trackpoint>
          <Trackpoint>
            <Time>2021-08-03T06:56:06.000Z</Time>
            <Position>
              <LatitudeDegrees>-15.33891591243445873260498046875</LatitudeDegrees>
              <LongitudeDegrees>37.08104132674634456634521484375</LongitudeDegrees>
            </Position>
            <AltitudeMeters>1260.800048828125</AltitudeMeters>
            <DistanceMeters>NAN</DistanceMeters>
          </Trackpoint>
          <Trackpoint>
            <Time>2021-08-03T06:56:09.000Z</Time>
            <Position>
              <LatitudeDegrees>-15.338885821402072906494140625</LatitudeDegrees>
              <LongitudeDegrees>37.08107217215001583099365234375</LongitudeDegrees>
            </Position>
            <AltitudeMeters>1260.4000244140625</AltitudeMeters>
            <DistanceMeters>NAN</DistanceMeters>
          </Trackpoint>
          <Trackpoint>
            <Time>2021-08-03T06:56:10.000Z</Time>
            <Position>
              <LatitudeDegrees>-15.33887517638504505157470703125</LatitudeDegrees>
              <LongitudeDegrees>37.08107518963515758514404296875</LongitudeDegrees>
            </Position>
            <AltitudeMeters>1259.800048828125</AltitudeMeters>
            <DistanceMeters>NAN</DistanceMeters>
          </Trackpoint>
          <Trackpoint>
            <Time>2021-08-03T06:56:15.000Z</Time>
            <Position>
              <LatitudeDegrees>-15.3388216160237789154052734375</LatitudeDegrees>
              <LongitudeDegrees>37.081098072230815887451171875</LongitudeDegrees>
            </Position>
            <AltitudeMeters>1258.5999755859375</AltitudeMeters>
            <DistanceMeters>NAN</DistanceMeters>
          </Trackpoint>
          <Trackpoint>
            <Time>2021-08-03T06:56:16.000Z</Time>
            <Position>
              <LatitudeDegrees>-15.33881331793963909149169921875</LatitudeDegrees>
              <LongitudeDegrees>37.0811059512197971343994140625</LongitudeDegrees>
            </Position>
            <AltitudeMeters>1258.199951171875</AltitudeMeters>
            <DistanceMeters>NAN</DistanceMeters>
          </Trackpoint>
          <Trackpoint>
            <Time>2021-08-03T06:56:17.000Z</Time>
            <Position>
              <LatitudeDegrees>-15.3388065285980701446533203125</LatitudeDegrees>
              <LongitudeDegrees>37.08111383020877838134765625</LongitudeDegrees>
            </Position>
            <AltitudeMeters>1256.800048828125</AltitudeMeters>
            <DistanceMeters>NAN</DistanceMeters>
          </Trackpoint>
          <Trackpoint>
            <Time>2021-08-03T06:56:19.000Z</Time>
            <Position>
              <LatitudeDegrees>-15.3387961350381374359130859375</LatitudeDegrees>
              <LongitudeDegrees>37.08113470114767551422119140625</LongitudeDegrees>
            </Position>
            <AltitudeMeters>1256.199951171875</AltitudeMeters>
            <DistanceMeters>NAN</DistanceMeters>
          </Trackpoint>
          <Trackpoint>
            <Time>2021-08-03T06:56:21.000Z</Time>
            <Position>
              <LatitudeDegrees>-15.33878616057336330413818359375</LatitudeDegrees>
              <LongitudeDegrees>37.08115548826754093170166015625</LongitudeDegrees>
            </Position>
            <AltitudeMeters>1255.5999755859375</AltitudeMeters>
            <DistanceMeters>NAN</DistanceMeters>
          </Trackpoint>
          <Trackpoint>
            <Time>2021-08-03T06:56:23.000Z</Time>
            <Position>
              <LatitudeDegrees>-15.33876277506351470947265625</LatitudeDegrees>
              <LongitudeDegrees>37.08117493428289890289306640625</LongitudeDegrees>
            </Position>
            <AltitudeMeters>1255.199951171875</AltitudeMeters>
            <DistanceMeters>NAN</DistanceMeters>
          </Trackpoint>
          <Trackpoint>
            <Time>2021-08-03T06:56:26.000Z</Time>
            <Position>
              <LatitudeDegrees>-15.3387347795069217681884765625</LatitudeDegrees>
              <LongitudeDegrees>37.081199996173381805419921875</LongitudeDegrees>
            </Position>
            <AltitudeMeters>1254.5999755859375</AltitudeMeters>
            <DistanceMeters>NAN</DistanceMeters>
          </Trackpoint>
          <Trackpoint>
            <Time>2021-08-03T06:56:27.000Z</Time>
            <Position>
              <LatitudeDegrees>-15.33872631378471851348876953125</LatitudeDegrees>
              <LongitudeDegrees>37.08121365867555141448974609375</LongitudeDegrees>
            </Position>
            <AltitudeMeters>1254.199951171875</AltitudeMeters>
            <DistanceMeters>NAN</DistanceMeters>
          </Trackpoint>
          <Trackpoint>
            <Time>2021-08-03T06:56:29.000Z</Time>
            <Position>
              <LatitudeDegrees>-15.33870586194097995758056640625</LatitudeDegrees>
              <LongitudeDegrees>37.0812373794615268707275390625</LongitudeDegrees>
            </Position>
            <AltitudeMeters>1253.199951171875</AltitudeMeters>
            <DistanceMeters>NAN</DistanceMeters>
          </Trackpoint>
          <Trackpoint>
            <Time>2021-08-03T06:56:30.000Z</Time>
            <Position>
              <LatitudeDegrees>-15.338692031800746917724609375</LatitudeDegrees>
              <LongitudeDegrees>37.08124618045985698699951171875</LongitudeDegrees>
            </Position>
            <AltitudeMeters>1253.199951171875</AltitudeMeters>
            <DistanceMeters>NAN</DistanceMeters>
          </Trackpoint>
          <Trackpoint>
            <Time>2021-08-03T06:56:32.000Z</Time>
            <Position>
              <LatitudeDegrees>-15.338663198053836822509765625</LatitudeDegrees>
              <LongitudeDegrees>37.081259675323963165283203125</LongitudeDegrees>
            </Position>
            <AltitudeMeters>1252</AltitudeMeters>
            <DistanceMeters>NAN</DistanceMeters>
          </Trackpoint>
          <Trackpoint>
            <Time>2021-08-03T06:56:37.000Z</Time>
            <Position>
              <LatitudeDegrees>-15.33861793577671051025390625</LatitudeDegrees>
              <LongitudeDegrees>37.08131424151360988616943359375</LongitudeDegrees>
            </Position>
            <AltitudeMeters>1250.800048828125</AltitudeMeters>
            <DistanceMeters>NAN</DistanceMeters>
          </Trackpoint>
          <Trackpoint>
            <Time>2021-08-03T06:56:41.000Z</Time>
            <Position>
              <LatitudeDegrees>-15.33859538845717906951904296875</LatitudeDegrees>
              <LongitudeDegrees>37.08135346882045269012451171875</LongitudeDegrees>
            </Position>
            <AltitudeMeters>1250</AltitudeMeters>
            <DistanceMeters>NAN</DistanceMeters>
          </Trackpoint>
          <Trackpoint>
            <Time>2021-08-03T06:56:44.000Z</Time>
            <Position>
              <LatitudeDegrees>-15.33858130685985088348388671875</LatitudeDegrees>
              <LongitudeDegrees>37.08138431422412395477294921875</LongitudeDegrees>
            </Position>
            <AltitudeMeters>1249.5999755859375</AltitudeMeters>
            <DistanceMeters>NAN</DistanceMeters>
          </Trackpoint>
          <Trackpoint>
            <Time>2021-08-03T06:56:47.000Z</Time>
            <Position>
              <LatitudeDegrees>-15.33856429159641265869140625</LatitudeDegrees>
              <LongitudeDegrees>37.0814170874655246734619140625</LongitudeDegrees>
            </Position>
            <AltitudeMeters>1248.5999755859375</AltitudeMeters>
            <DistanceMeters>NAN</DistanceMeters>
          </Trackpoint>
          <Trackpoint>
            <Time>2021-08-03T06:56:52.000Z</Time>
            <Position>
              <LatitudeDegrees>-15.33852615393698215484619140625</LatitudeDegrees>
              <LongitudeDegrees>37.081466875970363616943359375</LongitudeDegrees>
            </Position>
            <AltitudeMeters>1248</AltitudeMeters>
            <DistanceMeters>NAN</DistanceMeters>
          </Trackpoint>
          <Trackpoint>
            <Time>2021-08-03T06:56:54.000Z</Time>
            <Position>
              <LatitudeDegrees>-15.338515676558017730712890625</LatitudeDegrees>
              <LongitudeDegrees>37.08149562589824199676513671875</LongitudeDegrees>
            </Position>
            <AltitudeMeters>1247.5999755859375</AltitudeMeters>
            <DistanceMeters>NAN</DistanceMeters>
          </Trackpoint>
          <Trackpoint>
            <Time>2021-08-03T06:56:57.000Z</Time>
            <Position>
              <LatitudeDegrees>-15.33850620500743389129638671875</LatitudeDegrees>
              <LongitudeDegrees>37.08153803832828998565673828125</LongitudeDegrees>
            </Position>
            <AltitudeMeters>1246.4000244140625</AltitudeMeters>
            <DistanceMeters>NAN</DistanceMeters>
          </Trackpoint>
          <Trackpoint>
            <Time>2021-08-03T06:57:00.000Z</Time>
            <Position>
              <LatitudeDegrees>-15.3384920395910739898681640625</LatitudeDegrees>
              <LongitudeDegrees>37.08158212713897228240966796875</LongitudeDegrees>
            </Position>
            <AltitudeMeters>1244.5999755859375</AltitudeMeters>
            <DistanceMeters>NAN</DistanceMeters>
          </Trackpoint>
          <Trackpoint>
            <Time>2021-08-03T06:57:07.000Z</Time>
            <Position>
              <LatitudeDegrees>-15.33843395300209522247314453125</LatitudeDegrees>
              <LongitudeDegrees>37.0816712267696857452392578125</LongitudeDegrees>
            </Position>
            <AltitudeMeters>1243.5999755859375</AltitudeMeters>
            <DistanceMeters>NAN</DistanceMeters>
          </Trackpoint>
          <Trackpoint>
            <Time>2021-08-03T06:57:08.000Z</Time>
            <Position>
              <LatitudeDegrees>-15.33841953612864017486572265625</LatitudeDegrees>
              <LongitudeDegrees>37.08168840967118740081787109375</LongitudeDegrees>
            </Position>
            <AltitudeMeters>1243.199951171875</AltitudeMeters>
            <DistanceMeters>NAN</DistanceMeters>
          </Trackpoint>
          <Trackpoint>
            <Time>2021-08-03T06:57:09.000Z</Time>
            <Position>
              <LatitudeDegrees>-15.33840470016002655029296875</LatitudeDegrees>
              <LongitudeDegrees>37.081702239811420440673828125</LongitudeDegrees>
            </Position>
            <AltitudeMeters>1242.4000244140625</AltitudeMeters>
            <DistanceMeters>NAN</DistanceMeters>
          </Trackpoint>
          <Trackpoint>
            <Time>2021-08-03T06:57:12.000Z</Time>
            <Position>
              <LatitudeDegrees>-15.338380895555019378662109375</LatitudeDegrees>
              <LongitudeDegrees>37.081735767424106597900390625</LongitudeDegrees>
            </Position>
            <AltitudeMeters>1241.199951171875</AltitudeMeters>
            <DistanceMeters>NAN</DistanceMeters>
          </Trackpoint>
          <Trackpoint>
            <Time>2021-08-03T06:57:15.000Z</Time>
            <Position>
              <LatitudeDegrees>-15.33834761939942836761474609375</LatitudeDegrees>
              <LongitudeDegrees>37.081771977245807647705078125</LongitudeDegrees>
            </Position>
            <AltitudeMeters>1239</AltitudeMeters>
            <DistanceMeters>NAN</DistanceMeters>
          </Trackpoint>
          <Trackpoint>
            <Time>2021-08-03T06:57:17.000Z</Time>
            <Position>
              <LatitudeDegrees>-15.33831526525318622589111328125</LatitudeDegrees>
              <LongitudeDegrees>37.08178631030023097991943359375</LongitudeDegrees>
            </Position>
            <AltitudeMeters>1238.800048828125</AltitudeMeters>
            <DistanceMeters>NAN</DistanceMeters>
          </Trackpoint>
          <Trackpoint>
            <Time>2021-08-03T06:57:20.000Z</Time>
            <Position>
              <LatitudeDegrees>-15.33828073181211948394775390625</LatitudeDegrees>
              <LongitudeDegrees>37.08180793561041355133056640625</LongitudeDegrees>
            </Position>
            <AltitudeMeters>1239.4000244140625</AltitudeMeters>
            <DistanceMeters>NAN</DistanceMeters>
          </Trackpoint>
          <Trackpoint>
            <Time>2021-08-03T06:57:23.000Z</Time>
            <Position>
              <LatitudeDegrees>-15.3382610343396663665771484375</LatitudeDegrees>
              <LongitudeDegrees>37.08183978684246540069580078125</LongitudeDegrees>
            </Position>
            <AltitudeMeters>1239.4000244140625</AltitudeMeters>
            <DistanceMeters>NAN</DistanceMeters>
          </Trackpoint>
          <Trackpoint>
            <Time>2021-08-03T06:57:25.000Z</Time>
            <Position>
              <LatitudeDegrees>-15.33823999576270580291748046875</LatitudeDegrees>
              <LongitudeDegrees>37.0818573050200939178466796875</LongitudeDegrees>
            </Position>
            <AltitudeMeters>1239.199951171875</AltitudeMeters>
            <DistanceMeters>NAN</DistanceMeters>
          </Trackpoint>
          <Trackpoint>
            <Time>2021-08-03T06:57:27.000Z</Time>
            <Position>
              <LatitudeDegrees>-15.33821669407188892364501953125</LatitudeDegrees>
              <LongitudeDegrees>37.08185738883912563323974609375</LongitudeDegrees>
            </Position>
            <AltitudeMeters>1237.800048828125</AltitudeMeters>
            <DistanceMeters>NAN</DistanceMeters>
          </Trackpoint>
          <Trackpoint>
            <Time>2021-08-03T06:57:29.000Z</Time>
            <Position>
              <LatitudeDegrees>-15.33818417228758335113525390625</LatitudeDegrees>
              <LongitudeDegrees>37.0818455703556537628173828125</LongitudeDegrees>
            </Position>
            <AltitudeMeters>1237.800048828125</AltitudeMeters>
            <DistanceMeters>NAN</DistanceMeters>
          </Trackpoint>
          <Trackpoint>
            <Time>2021-08-03T06:57:31.000Z</Time>
            <Position>
              <LatitudeDegrees>-15.33815399743616580963134765625</LatitudeDegrees>
              <LongitudeDegrees>37.0818291418254375457763671875</LongitudeDegrees>
            </Position>
            <AltitudeMeters>1237.4000244140625</AltitudeMeters>
            <DistanceMeters>NAN</DistanceMeters>
          </Trackpoint>
          <Trackpoint>
            <Time>2021-08-03T06:57:37.000Z</Time>
            <Position>
              <LatitudeDegrees>-15.3381068073213100433349609375</LatitudeDegrees>
              <LongitudeDegrees>37.081749849021434783935546875</LongitudeDegrees>
            </Position>
            <AltitudeMeters>1237</AltitudeMeters>
            <DistanceMeters>NAN</DistanceMeters>
          </Trackpoint>
          <Trackpoint>
            <Time>2021-08-03T06:57:39.000Z</Time>
            <Position>
              <LatitudeDegrees>-15.33811778761446475982666015625</LatitudeDegrees>
              <LongitudeDegrees>37.08173970691859722137451171875</LongitudeDegrees>
            </Position>
            <AltitudeMeters>1236.800048828125</AltitudeMeters>
            <DistanceMeters>NAN</DistanceMeters>
          </Trackpoint>
          <Trackpoint>
            <Time>2021-08-03T06:57:44.000Z</Time>
            <Position>
              <LatitudeDegrees>-15.33812885172665119171142578125</LatitudeDegrees>
              <LongitudeDegrees>37.0817382819950580596923828125</LongitudeDegrees>
            </Position>
            <AltitudeMeters>1236.4000244140625</AltitudeMeters>
            <DistanceMeters>NAN</DistanceMeters>
          </Trackpoint>
          <Trackpoint>
            <Time>2021-08-03T06:57:48.000Z</Time>
            <Position>
              <LatitudeDegrees>-15.338126085698604583740234375</LatitudeDegrees>
              <LongitudeDegrees>37.081734426319599151611328125</LongitudeDegrees>
            </Position>
            <AltitudeMeters>1236.4000244140625</AltitudeMeters>
            <DistanceMeters>NAN</DistanceMeters>
          </Trackpoint>
          <Trackpoint>
            <Time>2021-08-03T06:57:51.000Z</Time>
            <Position>
              <LatitudeDegrees>-15.33813790418207645416259765625</LatitudeDegrees>
              <LongitudeDegrees>37.08171674050390720367431640625</LongitudeDegrees>
            </Position>
            <AltitudeMeters>1237</AltitudeMeters>
            <DistanceMeters>NAN</DistanceMeters>
          </Trackpoint>
          <Trackpoint>
            <Time>2021-08-03T06:57:57.000Z</Time>
            <Position>
              <LatitudeDegrees>-15.338137149810791015625</LatitudeDegrees>
              <LongitudeDegrees>37.0817352645099163055419921875</LongitudeDegrees>
            </Position>
            <AltitudeMeters>1236.199951171875</AltitudeMeters>
            <DistanceMeters>NAN</DistanceMeters>
          </Trackpoint>
          <Trackpoint>
            <Time>2021-08-03T06:58:00.000Z</Time>
            <Position>
              <LatitudeDegrees>-15.338136143982410430908203125</LatitudeDegrees>
              <LongitudeDegrees>37.08173476159572601318359375</LongitudeDegrees>
            </Position>
            <AltitudeMeters>1236.5999755859375</AltitudeMeters>
            <DistanceMeters>NAN</DistanceMeters>
          </Trackpoint>
          <Trackpoint>
            <Time>2021-08-03T06:58:07.000Z</Time>
            <Position>
              <LatitudeDegrees>-15.33811946399509906768798828125</LatitudeDegrees>
              <LongitudeDegrees>37.0817610807716846466064453125</LongitudeDegrees>
            </Position>
            <AltitudeMeters>1236.5999755859375</AltitudeMeters>
            <DistanceMeters>NAN</DistanceMeters>
          </Trackpoint>
          <Trackpoint>
            <Time>2021-08-03T06:58:12.000Z</Time>
            <Position>
              <LatitudeDegrees>-15.33812130801379680633544921875</LatitudeDegrees>
              <LongitudeDegrees>37.08178144879639148712158203125</LongitudeDegrees>
            </Position>
            <AltitudeMeters>1237.5999755859375</AltitudeMeters>
            <DistanceMeters>NAN</DistanceMeters>
          </Trackpoint>
          <Trackpoint>
            <Time>2021-08-03T06:58:13.000Z</Time>
            <Position>
              <LatitudeDegrees>-15.3381218947470188140869140625</LatitudeDegrees>
              <LongitudeDegrees>37.08178044296801090240478515625</LongitudeDegrees>
            </Position>
            <AltitudeMeters>1237.5999755859375</AltitudeMeters>
            <DistanceMeters>NAN</DistanceMeters>
          </Trackpoint>
          <Trackpoint>
            <Time>2021-08-03T06:58:19.000Z</Time>
            <Position>
              <LatitudeDegrees>-15.33812935464084148406982421875</LatitudeDegrees>
              <LongitudeDegrees>37.08178346045315265655517578125</LongitudeDegrees>
            </Position>
            <AltitudeMeters>1237.800048828125</AltitudeMeters>
            <DistanceMeters>NAN</DistanceMeters>
          </Trackpoint>
          <Trackpoint>
            <Time>2021-08-03T06:58:20.000Z</Time>
            <Position>
              <LatitudeDegrees>-15.33812935464084148406982421875</LatitudeDegrees>
              <LongitudeDegrees>37.08178346045315265655517578125</LongitudeDegrees>
            </Position>
            <AltitudeMeters>1237.800048828125</AltitudeMeters>
            <DistanceMeters>NAN</DistanceMeters>
          </Trackpoint>
          <Trackpoint>
            <Time>2021-08-03T06:58:23.000Z</Time>
            <Position>
              <LatitudeDegrees>-15.33812935464084148406982421875</LatitudeDegrees>
              <LongitudeDegrees>37.08178346045315265655517578125</LongitudeDegrees>
            </Position>
            <AltitudeMeters>1238.199951171875</AltitudeMeters>
            <DistanceMeters>NAN</DistanceMeters>
          </Trackpoint>
          <Trackpoint>
            <Time>2021-08-03T06:58:31.000Z</Time>
            <Position>
              <LatitudeDegrees>-15.33812583424150943756103515625</LatitudeDegrees>
              <LongitudeDegrees>37.08178346045315265655517578125</LongitudeDegrees>
            </Position>
            <AltitudeMeters>1239.199951171875</AltitudeMeters>
            <DistanceMeters>NAN</DistanceMeters>
          </Trackpoint>
          <Trackpoint>
            <Time>2021-08-03T06:58:40.000Z</Time>
            <Position>
              <LatitudeDegrees>-15.33812030218541622161865234375</LatitudeDegrees>
              <LongitudeDegrees>37.08178480155766010284423828125</LongitudeDegrees>
            </Position>
            <AltitudeMeters>1238.199951171875</AltitudeMeters>
            <DistanceMeters>NAN</DistanceMeters>
          </Trackpoint>
          <Trackpoint>
            <Time>2021-08-03T06:58:43.000Z</Time>
            <Position>
              <LatitudeDegrees>-15.33811996690928936004638671875</LatitudeDegrees>
              <LongitudeDegrees>37.0817868970334529876708984375</LongitudeDegrees>
            </Position>
            <AltitudeMeters>1238.199951171875</AltitudeMeters>
            <DistanceMeters>NAN</DistanceMeters>
          </Trackpoint>
          <Trackpoint>
            <Time>2021-08-03T06:58:46.000Z</Time>
            <Position>
              <LatitudeDegrees>-15.33811426721513271331787109375</LatitudeDegrees>
              <LongitudeDegrees>37.08178848959505558013916015625</LongitudeDegrees>
            </Position>
            <AltitudeMeters>1237.800048828125</AltitudeMeters>
            <DistanceMeters>NAN</DistanceMeters>
          </Trackpoint>
          <Trackpoint>
            <Time>2021-08-03T06:58:49.000Z</Time>
            <Position>
              <LatitudeDegrees>-15.338069759309291839599609375</LatitudeDegrees>
              <LongitudeDegrees>37.08178882487118244171142578125</LongitudeDegrees>
            </Position>
            <AltitudeMeters>1237.800048828125</AltitudeMeters>
            <DistanceMeters>NAN</DistanceMeters>
          </Trackpoint>
          <Trackpoint>
            <Time>2021-08-03T06:58:54.000Z</Time>
            <Position>
              <LatitudeDegrees>-15.33798619173467159271240234375</LatitudeDegrees>
              <LongitudeDegrees>37.081783711910247802734375</LongitudeDegrees>
            </Position>
            <AltitudeMeters>1239</AltitudeMeters>
            <DistanceMeters>NAN</DistanceMeters>
          </Trackpoint>
          <Trackpoint>
            <Time>2021-08-03T06:58:55.000Z</Time>
            <Position>
              <LatitudeDegrees>-15.33797378651797771453857421875</LatitudeDegrees>
              <LongitudeDegrees>37.08178304135799407958984375</LongitudeDegrees>
            </Position>
            <AltitudeMeters>1239.4000244140625</AltitudeMeters>
            <DistanceMeters>NAN</DistanceMeters>
          </Trackpoint>
          <Trackpoint>
            <Time>2021-08-03T06:58:56.000Z</Time>
            <Position>
              <LatitudeDegrees>-15.33796079456806182861328125</LatitudeDegrees>
              <LongitudeDegrees>37.08178438246250152587890625</LongitudeDegrees>
            </Position>
            <AltitudeMeters>1239.5999755859375</AltitudeMeters>
            <DistanceMeters>NAN</DistanceMeters>
          </Trackpoint>
          <Trackpoint>
            <Time>2021-08-03T06:59:04.000Z</Time>
            <Position>
              <LatitudeDegrees>-15.3378825075924396514892578125</LatitudeDegrees>
              <LongitudeDegrees>37.08183492533862590789794921875</LongitudeDegrees>
            </Position>
            <AltitudeMeters>1239.800048828125</AltitudeMeters>
            <DistanceMeters>NAN</DistanceMeters>
          </Trackpoint>
          <Trackpoint>
            <Time>2021-08-03T06:59:07.000Z</Time>
            <Position>
              <LatitudeDegrees>-15.33785442821681499481201171875</LatitudeDegrees>
              <LongitudeDegrees>37.0818549580872058868408203125</LongitudeDegrees>
            </Position>
            <AltitudeMeters>1240.4000244140625</AltitudeMeters>
            <DistanceMeters>NAN</DistanceMeters>
          </Trackpoint>
          <Trackpoint>
            <Time>2021-08-03T06:59:09.000Z</Time>
            <Position>
              <LatitudeDegrees>-15.33784009516239166259765625</LatitudeDegrees>
              <LongitudeDegrees>37.0818663574755191802978515625</LongitudeDegrees>
            </Position>
            <AltitudeMeters>1240.5999755859375</AltitudeMeters>
            <DistanceMeters>NAN</DistanceMeters>
          </Trackpoint>
          <Trackpoint>
            <Time>2021-08-03T06:59:13.000Z</Time>
            <Position>
              <LatitudeDegrees>-15.33779659308493137359619140625</LatitudeDegrees>
              <LongitudeDegrees>37.08189041353762149810791015625</LongitudeDegrees>
            </Position>
            <AltitudeMeters>1240.800048828125</AltitudeMeters>
            <DistanceMeters>NAN</DistanceMeters>
          </Trackpoint>
          <Trackpoint>
            <Time>2021-08-03T06:59:22.000Z</Time>
            <Position>
              <LatitudeDegrees>-15.33771327696740627288818359375</LatitudeDegrees>
              <LongitudeDegrees>37.0819645933806896209716796875</LongitudeDegrees>
            </Position>
            <AltitudeMeters>1240</AltitudeMeters>
            <DistanceMeters>NAN</DistanceMeters>
          </Trackpoint>
          <Trackpoint>
            <Time>2021-08-03T06:59:35.000Z</Time>
            <Position>
              <LatitudeDegrees>-15.33759291283786296844482421875</LatitudeDegrees>
              <LongitudeDegrees>37.0820769108831882476806640625</LongitudeDegrees>
            </Position>
            <AltitudeMeters>1239.800048828125</AltitudeMeters>
            <DistanceMeters>NAN</DistanceMeters>
          </Trackpoint>
          <Trackpoint>
            <Time>2021-08-03T06:59:41.000Z</Time>
            <Position>
              <LatitudeDegrees>-15.337539352476596832275390625</LatitudeDegrees>
              <LongitudeDegrees>37.082142792642116546630859375</LongitudeDegrees>
            </Position>
            <AltitudeMeters>1239.800048828125</AltitudeMeters>
            <DistanceMeters>NAN</DistanceMeters>
          </Trackpoint>
          <Trackpoint>
            <Time>2021-08-03T06:59:46.000Z</Time>
            <Position>
              <LatitudeDegrees>-15.33750507049262523651123046875</LatitudeDegrees>
              <LongitudeDegrees>37.082193084061145782470703125</LongitudeDegrees>
            </Position>
            <AltitudeMeters>1239.5999755859375</AltitudeMeters>
            <DistanceMeters>NAN</DistanceMeters>
          </Trackpoint>
          <Trackpoint>
            <Time>2021-08-03T06:59:50.000Z</Time>
            <Position>
              <LatitudeDegrees>-15.33747992478311061859130859375</LatitudeDegrees>
              <LongitudeDegrees>37.082210518419742584228515625</LongitudeDegrees>
            </Position>
            <AltitudeMeters>1239.4000244140625</AltitudeMeters>
            <DistanceMeters>NAN</DistanceMeters>
          </Trackpoint>
          <Trackpoint>
            <Time>2021-08-03T06:59:51.000Z</Time>
            <Position>
              <LatitudeDegrees>-15.33747808076441287994384765625</LatitudeDegrees>
              <LongitudeDegrees>37.0822168886661529541015625</LongitudeDegrees>
            </Position>
            <AltitudeMeters>1239.4000244140625</AltitudeMeters>
            <DistanceMeters>NAN</DistanceMeters>
          </Trackpoint>
          <Trackpoint>
            <Time>2021-08-03T06:59:57.000Z</Time>
            <Position>
              <LatitudeDegrees>-15.33743717707693576812744140625</LatitudeDegrees>
              <LongitudeDegrees>37.0822948403656482696533203125</LongitudeDegrees>
            </Position>
            <AltitudeMeters>1239.4000244140625</AltitudeMeters>
            <DistanceMeters>NAN</DistanceMeters>
          </Trackpoint>
          <Trackpoint>
            <Time>2021-08-03T07:00:01.000Z</Time>
            <Position>
              <LatitudeDegrees>-15.337415970861911773681640625</LatitudeDegrees>
              <LongitudeDegrees>37.08233063109219074249267578125</LongitudeDegrees>
            </Position>
            <AltitudeMeters>1239.199951171875</AltitudeMeters>
            <DistanceMeters>NAN</DistanceMeters>
          </Trackpoint>
          <Trackpoint>
            <Time>2021-08-03T07:00:03.000Z</Time>
            <Position>
              <LatitudeDegrees>-15.337394513189792633056640625</LatitudeDegrees>
              <LongitudeDegrees>37.082349993288516998291015625</LongitudeDegrees>
            </Position>
            <AltitudeMeters>1239.199951171875</AltitudeMeters>
            <DistanceMeters>NAN</DistanceMeters>
          </Trackpoint>
          <Trackpoint>
            <Time>2021-08-03T07:00:11.000Z</Time>
            <Position>
              <LatitudeDegrees>-15.3373383544385433197021484375</LatitudeDegrees>
              <LongitudeDegrees>37.08242853172123432159423828125</LongitudeDegrees>
            </Position>
            <AltitudeMeters>1239</AltitudeMeters>
            <DistanceMeters>NAN</DistanceMeters>
          </Trackpoint>
          <Trackpoint>
            <Time>2021-08-03T07:00:20.000Z</Time>
            <Position>
              <LatitudeDegrees>-15.33727171830832958221435546875</LatitudeDegrees>
              <LongitudeDegrees>37.0825050584971904754638671875</LongitudeDegrees>
            </Position>
            <AltitudeMeters>1239.199951171875</AltitudeMeters>
            <DistanceMeters>NAN</DistanceMeters>
          </Trackpoint>
          <Trackpoint>
            <Time>2021-08-03T07:00:21.000Z</Time>
            <Position>
              <LatitudeDegrees>-15.33725897781550884246826171875</LatitudeDegrees>
              <LongitudeDegrees>37.08251201547682285308837890625</LongitudeDegrees>
            </Position>
            <AltitudeMeters>1239.4000244140625</AltitudeMeters>
            <DistanceMeters>NAN</DistanceMeters>
          </Trackpoint>
          <Trackpoint>
            <Time>2021-08-03T07:00:27.000Z</Time>
            <Position>
              <LatitudeDegrees>-15.33721245825290679931640625</LatitudeDegrees>
              <LongitudeDegrees>37.08256582729518413543701171875</LongitudeDegrees>
            </Position>
            <AltitudeMeters>1239.800048828125</AltitudeMeters>
            <DistanceMeters>NAN</DistanceMeters>
          </Trackpoint>
          <Trackpoint>
            <Time>2021-08-03T07:00:35.000Z</Time>
            <Position>
              <LatitudeDegrees>-15.337147079408168792724609375</LatitudeDegrees>
              <LongitudeDegrees>37.08263573236763477325439453125</LongitudeDegrees>
            </Position>
            <AltitudeMeters>1240.199951171875</AltitudeMeters>
            <DistanceMeters>NAN</DistanceMeters>
          </Trackpoint>
          <Trackpoint>
            <Time>2021-08-03T07:00:36.000Z</Time>
            <Position>
              <LatitudeDegrees>-15.337136685848236083984375</LatitudeDegrees>
              <LongitudeDegrees>37.08263690583407878875732421875</LongitudeDegrees>
            </Position>
            <AltitudeMeters>1240.199951171875</AltitudeMeters>
            <DistanceMeters>NAN</DistanceMeters>
          </Trackpoint>
          <Trackpoint>
            <Time>2021-08-03T07:00:37.000Z</Time>
            <Position>
              <LatitudeDegrees>-15.33712050877511501312255859375</LatitudeDegrees>
              <LongitudeDegrees>37.0826364867389202117919921875</LongitudeDegrees>
            </Position>
            <AltitudeMeters>1240.4000244140625</AltitudeMeters>
            <DistanceMeters>NAN</DistanceMeters>
          </Trackpoint>
          <Trackpoint>
            <Time>2021-08-03T07:00:41.000Z</Time>
            <Position>
              <LatitudeDegrees>-15.3370718099176883697509765625</LatitudeDegrees>
              <LongitudeDegrees>37.08262232132256031036376953125</LongitudeDegrees>
            </Position>
            <AltitudeMeters>1240.800048828125</AltitudeMeters>
            <DistanceMeters>NAN</DistanceMeters>
          </Trackpoint>
          <Trackpoint>
            <Time>2021-08-03T07:00:43.000Z</Time>
            <Position>
              <LatitudeDegrees>-15.33705529756844043731689453125</LatitudeDegrees>
              <LongitudeDegrees>37.08263221196830272674560546875</LongitudeDegrees>
            </Position>
            <AltitudeMeters>1241</AltitudeMeters>
            <DistanceMeters>NAN</DistanceMeters>
          </Trackpoint>
          <Trackpoint>
            <Time>2021-08-03T07:00:49.000Z</Time>
            <Position>
              <LatitudeDegrees>-15.33699746243655681610107421875</LatitudeDegrees>
              <LongitudeDegrees>37.08267294801771640777587890625</LongitudeDegrees>
            </Position>
            <AltitudeMeters>1241.5999755859375</AltitudeMeters>
            <DistanceMeters>NAN</DistanceMeters>
          </Trackpoint>
          <Trackpoint>
            <Time>2021-08-03T07:00:54.000Z</Time>
            <Position>
              <LatitudeDegrees>-15.3369541279971599578857421875</LatitudeDegrees>
              <LongitudeDegrees>37.08271435461938381195068359375</LongitudeDegrees>
            </Position>
            <AltitudeMeters>1241.800048828125</AltitudeMeters>
            <DistanceMeters>NAN</DistanceMeters>
          </Trackpoint>
          <Trackpoint>
            <Time>2021-08-03T07:00:59.000Z</Time>
            <Position>
              <LatitudeDegrees>-15.3369055129587650299072265625</LatitudeDegrees>
              <LongitudeDegrees>37.082758359611034393310546875</LongitudeDegrees>
            </Position>
            <AltitudeMeters>1242.800048828125</AltitudeMeters>
            <DistanceMeters>NAN</DistanceMeters>
          </Trackpoint>
          <Trackpoint>
            <Time>2021-08-03T07:01:05.000Z</Time>
            <Position>
              <LatitudeDegrees>-15.33685195259749889373779296875</LatitudeDegrees>
              <LongitudeDegrees>37.082792222499847412109375</LongitudeDegrees>
            </Position>
            <AltitudeMeters>1243.5999755859375</AltitudeMeters>
            <DistanceMeters>NAN</DistanceMeters>
          </Trackpoint>
          <Trackpoint>
            <Time>2021-08-03T07:01:09.000Z</Time>
            <Position>
              <LatitudeDegrees>-15.3368129767477512359619140625</LatitudeDegrees>
              <LongitudeDegrees>37.0828262530267238616943359375</LongitudeDegrees>
            </Position>
            <AltitudeMeters>1244</AltitudeMeters>
            <DistanceMeters>NAN</DistanceMeters>
          </Trackpoint>
          <Trackpoint>
            <Time>2021-08-03T07:01:14.000Z</Time>
            <Position>
              <LatitudeDegrees>-15.3367700614035129547119140625</LatitudeDegrees>
              <LongitudeDegrees>37.08286304958164691925048828125</LongitudeDegrees>
            </Position>
            <AltitudeMeters>1244.5999755859375</AltitudeMeters>
            <DistanceMeters>NAN</DistanceMeters>
          </Trackpoint>
          <Trackpoint>
            <Time>2021-08-03T07:01:17.000Z</Time>
            <Position>
              <LatitudeDegrees>-15.33674801699817180633544921875</LatitudeDegrees>
              <LongitudeDegrees>37.0828768797218799591064453125</LongitudeDegrees>
            </Position>
            <AltitudeMeters>1245</AltitudeMeters>
            <DistanceMeters>NAN</DistanceMeters>
          </Trackpoint>
          <Trackpoint>
            <Time>2021-08-03T07:01:19.000Z</Time>
            <Position>
              <LatitudeDegrees>-15.3367301635444164276123046875</LatitudeDegrees>
              <LongitudeDegrees>37.08288601599633693695068359375</LongitudeDegrees>
            </Position>
            <AltitudeMeters>1245.4000244140625</AltitudeMeters>
            <DistanceMeters>NAN</DistanceMeters>
          </Trackpoint>
          <Trackpoint>
            <Time>2021-08-03T07:01:22.000Z</Time>
            <Position>
              <LatitudeDegrees>-15.33671264536678791046142578125</LatitudeDegrees>
              <LongitudeDegrees>37.08291091024875640869140625</LongitudeDegrees>
            </Position>
            <AltitudeMeters>1246</AltitudeMeters>
            <DistanceMeters>NAN</DistanceMeters>
          </Trackpoint>
          <Trackpoint>
            <Time>2021-08-03T07:01:24.000Z</Time>
            <Position>
              <LatitudeDegrees>-15.33668674528598785400390625</LatitudeDegrees>
              <LongitudeDegrees>37.08292524330317974090576171875</LongitudeDegrees>
            </Position>
            <AltitudeMeters>1246.199951171875</AltitudeMeters>
            <DistanceMeters>NAN</DistanceMeters>
          </Trackpoint>
          <Trackpoint>
            <Time>2021-08-03T07:01:26.000Z</Time>
            <Position>
              <LatitudeDegrees>-15.33666704781353473663330078125</LatitudeDegrees>
              <LongitudeDegrees>37.0829358883202075958251953125</LongitudeDegrees>
            </Position>
            <AltitudeMeters>1246.5999755859375</AltitudeMeters>
            <DistanceMeters>NAN</DistanceMeters>
          </Trackpoint>
          <Trackpoint>
            <Time>2021-08-03T07:01:29.000Z</Time>
            <Position>
              <LatitudeDegrees>-15.336640812456607818603515625</LatitudeDegrees>
              <LongitudeDegrees>37.08296321332454681396484375</LongitudeDegrees>
            </Position>
            <AltitudeMeters>1246.800048828125</AltitudeMeters>
            <DistanceMeters>NAN</DistanceMeters>
          </Trackpoint>
          <Trackpoint>
            <Time>2021-08-03T07:01:32.000Z</Time>
            <Position>
              <LatitudeDegrees>-15.33662077970802783966064453125</LatitudeDegrees>
              <LongitudeDegrees>37.08298735320568084716796875</LongitudeDegrees>
            </Position>
            <AltitudeMeters>1247.4000244140625</AltitudeMeters>
            <DistanceMeters>NAN</DistanceMeters>
          </Trackpoint>
          <Trackpoint>
            <Time>2021-08-03T07:01:36.000Z</Time>
            <Position>
              <LatitudeDegrees>-15.3365880064666271209716796875</LatitudeDegrees>
              <LongitudeDegrees>37.08300990052521228790283203125</LongitudeDegrees>
            </Position>
            <AltitudeMeters>1247.4000244140625</AltitudeMeters>
            <DistanceMeters>NAN</DistanceMeters>
          </Trackpoint>
          <Trackpoint>
            <Time>2021-08-03T07:01:37.000Z</Time>
            <Position>
              <LatitudeDegrees>-15.33657987602055072784423828125</LatitudeDegrees>
              <LongitudeDegrees>37.0830156840384006500244140625</LongitudeDegrees>
            </Position>
            <AltitudeMeters>1247.5999755859375</AltitudeMeters>
            <DistanceMeters>NAN</DistanceMeters>
          </Trackpoint>
          <Trackpoint>
            <Time>2021-08-03T07:01:40.000Z</Time>
            <Position>
              <LatitudeDegrees>-15.33655665814876556396484375</LatitudeDegrees>
              <LongitudeDegrees>37.0830311067402362823486328125</LongitudeDegrees>
            </Position>
            <AltitudeMeters>1248.4000244140625</AltitudeMeters>
            <DistanceMeters>NAN</DistanceMeters>
          </Trackpoint>
          <Trackpoint>
            <Time>2021-08-03T07:01:43.000Z</Time>
            <Position>
              <LatitudeDegrees>-15.3365264832973480224609375</LatitudeDegrees>
              <LongitudeDegrees>37.08304393105208873748779296875</LongitudeDegrees>
            </Position>
            <AltitudeMeters>1249</AltitudeMeters>
            <DistanceMeters>NAN</DistanceMeters>
          </Trackpoint>
          <Trackpoint>
            <Time>2021-08-03T07:01:46.000Z</Time>
            <Position>
              <LatitudeDegrees>-15.33650510944426059722900390625</LatitudeDegrees>
              <LongitudeDegrees>37.08306253887712955474853515625</LongitudeDegrees>
            </Position>
            <AltitudeMeters>1249.4000244140625</AltitudeMeters>
            <DistanceMeters>NAN</DistanceMeters>
          </Trackpoint>
          <Trackpoint>
            <Time>2021-08-03T07:01:47.000Z</Time>
            <Position>
              <LatitudeDegrees>-15.336496643722057342529296875</LatitudeDegrees>
              <LongitudeDegrees>37.0830693282186985015869140625</LongitudeDegrees>
            </Position>
            <AltitudeMeters>1249.4000244140625</AltitudeMeters>
            <DistanceMeters>NAN</DistanceMeters>
          </Trackpoint>
          <Trackpoint>
            <Time>2021-08-03T07:01:56.000Z</Time>
            <Position>
              <LatitudeDegrees>-15.3364203684031963348388671875</LatitudeDegrees>
              <LongitudeDegrees>37.0831454358994960784912109375</LongitudeDegrees>
            </Position>
            <AltitudeMeters>1250.4000244140625</AltitudeMeters>
            <DistanceMeters>NAN</DistanceMeters>
          </Trackpoint>
          <Trackpoint>
            <Time>2021-08-03T07:01:59.000Z</Time>
            <Position>
              <LatitudeDegrees>-15.33638809807598590850830078125</LatitudeDegrees>
              <LongitudeDegrees>37.08315758965909481048583984375</LongitudeDegrees>
            </Position>
            <AltitudeMeters>1250.4000244140625</AltitudeMeters>
            <DistanceMeters>NAN</DistanceMeters>
          </Trackpoint>
          <Trackpoint>
            <Time>2021-08-03T07:02:00.000Z</Time>
            <Position>
              <LatitudeDegrees>-15.33637803979218006134033203125</LatitudeDegrees>
              <LongitudeDegrees>37.08315742202103137969970703125</LongitudeDegrees>
            </Position>
            <AltitudeMeters>1250.5999755859375</AltitudeMeters>
            <DistanceMeters>NAN</DistanceMeters>
          </Trackpoint>
          <Trackpoint>
            <Time>2021-08-03T07:02:03.000Z</Time>
            <Position>
              <LatitudeDegrees>-15.33634434454143047332763671875</LatitudeDegrees>
              <LongitudeDegrees>37.08314560353755950927734375</LongitudeDegrees>
            </Position>
            <AltitudeMeters>1251.4000244140625</AltitudeMeters>
            <DistanceMeters>NAN</DistanceMeters>
          </Trackpoint>
          <Trackpoint>
            <Time>2021-08-03T07:02:04.000Z</Time>
            <Position>
              <LatitudeDegrees>-15.336329676210880279541015625</LatitudeDegrees>
              <LongitudeDegrees>37.0831417478621006011962890625</LongitudeDegrees>
            </Position>
            <AltitudeMeters>1251.5999755859375</AltitudeMeters>
            <DistanceMeters>NAN</DistanceMeters>
          </Trackpoint>
          <Trackpoint>
            <Time>2021-08-03T07:02:05.000Z</Time>
            <Position>
              <LatitudeDegrees>-15.3363171033561229705810546875</LatitudeDegrees>
              <LongitudeDegrees>37.08314065821468830108642578125</LongitudeDegrees>
            </Position>
            <AltitudeMeters>1251.5999755859375</AltitudeMeters>
            <DistanceMeters>NAN</DistanceMeters>
          </Trackpoint>
          <Trackpoint>
            <Time>2021-08-03T07:02:12.000Z</Time>
            <Position>
              <LatitudeDegrees>-15.33623973838984966278076171875</LatitudeDegrees>
              <LongitudeDegrees>37.08313110284507274627685546875</LongitudeDegrees>
            </Position>
            <AltitudeMeters>1252.800048828125</AltitudeMeters>
            <DistanceMeters>NAN</DistanceMeters>
          </Trackpoint>
          <Trackpoint>
            <Time>2021-08-03T07:02:13.000Z</Time>
            <Position>
              <LatitudeDegrees>-15.33622951246798038482666015625</LatitudeDegrees>
              <LongitudeDegrees>37.08312724716961383819580078125</LongitudeDegrees>
            </Position>
            <AltitudeMeters>1252.800048828125</AltitudeMeters>
            <DistanceMeters>NAN</DistanceMeters>
          </Trackpoint>
          <Trackpoint>
            <Time>2021-08-03T07:02:23.000Z</Time>
            <Position>
              <LatitudeDegrees>-15.3361139260232448577880859375</LatitudeDegrees>
              <LongitudeDegrees>37.0830797217786312103271484375</LongitudeDegrees>
            </Position>
            <AltitudeMeters>1254</AltitudeMeters>
            <DistanceMeters>NAN</DistanceMeters>
          </Trackpoint>
          <Trackpoint>
            <Time>2021-08-03T07:02:25.000Z</Time>
            <Position>
              <LatitudeDegrees>-15.3360991738736629486083984375</LatitudeDegrees>
              <LongitudeDegrees>37.0830676518380641937255859375</LongitudeDegrees>
            </Position>
            <AltitudeMeters>1254.5999755859375</AltitudeMeters>
            <DistanceMeters>NAN</DistanceMeters>
          </Trackpoint>
          <Trackpoint>
            <Time>2021-08-03T07:02:26.000Z</Time>
            <Position>
              <LatitudeDegrees>-15.3360887803137302398681640625</LatitudeDegrees>
              <LongitudeDegrees>37.08306773565709590911865234375</LongitudeDegrees>
            </Position>
            <AltitudeMeters>1254.5999755859375</AltitudeMeters>
            <DistanceMeters>NAN</DistanceMeters>
          </Trackpoint>
          <Trackpoint>
            <Time>2021-08-03T07:02:28.000Z</Time>
            <Position>
              <LatitudeDegrees>-15.336059443652629852294921875</LatitudeDegrees>
              <LongitudeDegrees>37.08306404761970043182373046875</LongitudeDegrees>
            </Position>
            <AltitudeMeters>1254.5999755859375</AltitudeMeters>
            <DistanceMeters>NAN</DistanceMeters>
          </Trackpoint>
          <Trackpoint>
            <Time>2021-08-03T07:02:33.000Z</Time>
            <Position>
              <LatitudeDegrees>-15.33599364571273326873779296875</LatitudeDegrees>
              <LongitudeDegrees>37.08304879255592823028564453125</LongitudeDegrees>
            </Position>
            <AltitudeMeters>1254.5999755859375</AltitudeMeters>
            <DistanceMeters>NAN</DistanceMeters>
          </Trackpoint>
          <Trackpoint>
            <Time>2021-08-03T07:02:37.000Z</Time>
            <Position>
              <LatitudeDegrees>-15.335978306829929351806640625</LatitudeDegrees>
              <LongitudeDegrees>37.083011828362941741943359375</LongitudeDegrees>
            </Position>
            <AltitudeMeters>1254.800048828125</AltitudeMeters>
            <DistanceMeters>NAN</DistanceMeters>
          </Trackpoint>
          <Trackpoint>
            <Time>2021-08-03T07:02:38.000Z</Time>
            <Position>
              <LatitudeDegrees>-15.33597755245864391326904296875</LatitudeDegrees>
              <LongitudeDegrees>37.0829982496798038482666015625</LongitudeDegrees>
            </Position>
            <AltitudeMeters>1254.800048828125</AltitudeMeters>
            <DistanceMeters>NAN</DistanceMeters>
          </Trackpoint>
          <Trackpoint>
            <Time>2021-08-03T07:02:41.000Z</Time>
            <Position>
              <LatitudeDegrees>-15.335969589650630950927734375</LatitudeDegrees>
              <LongitudeDegrees>37.082953490316867828369140625</LongitudeDegrees>
            </Position>
            <AltitudeMeters>1255</AltitudeMeters>
            <DistanceMeters>NAN</DistanceMeters>
          </Trackpoint>
          <Trackpoint>
            <Time>2021-08-03T07:02:42.000Z</Time>
            <Position>
              <LatitudeDegrees>-15.33596900291740894317626953125</LatitudeDegrees>
              <LongitudeDegrees>37.0829419232904911041259765625</LongitudeDegrees>
            </Position>
            <AltitudeMeters>1255</AltitudeMeters>
            <DistanceMeters>NAN</DistanceMeters>
          </Trackpoint>
          <Trackpoint>
            <Time>2021-08-03T07:02:44.000Z</Time>
            <Position>
              <LatitudeDegrees>-15.33596732653677463531494140625</LatitudeDegrees>
              <LongitudeDegrees>37.08292239345610141754150390625</LongitudeDegrees>
            </Position>
            <AltitudeMeters>1255</AltitudeMeters>
            <DistanceMeters>NAN</DistanceMeters>
          </Trackpoint>
          <Trackpoint>
            <Time>2021-08-03T07:02:49.000Z</Time>
            <Position>
              <LatitudeDegrees>-15.33594553358852863311767578125</LatitudeDegrees>
              <LongitudeDegrees>37.0828752033412456512451171875</LongitudeDegrees>
            </Position>
            <AltitudeMeters>1255</AltitudeMeters>
            <DistanceMeters>NAN</DistanceMeters>
          </Trackpoint>
          <Trackpoint>
            <Time>2021-08-03T07:02:50.000Z</Time>
            <Position>
              <LatitudeDegrees>-15.33593882806599140167236328125</LatitudeDegrees>
              <LongitudeDegrees>37.082870006561279296875</LongitudeDegrees>
            </Position>
            <AltitudeMeters>1255</AltitudeMeters>
            <DistanceMeters>NAN</DistanceMeters>
          </Trackpoint>
          <Trackpoint>
            <Time>2021-08-03T07:02:51.000Z</Time>
            <Position>
              <LatitudeDegrees>-15.335934050381183624267578125</LatitudeDegrees>
              <LongitudeDegrees>37.08286388777196407318115234375</LongitudeDegrees>
            </Position>
            <AltitudeMeters>1255</AltitudeMeters>
            <DistanceMeters>NAN</DistanceMeters>
          </Trackpoint>
          <Trackpoint>
            <Time>2021-08-03T07:02:54.000Z</Time>
            <Position>
              <LatitudeDegrees>-15.335934050381183624267578125</LatitudeDegrees>
              <LongitudeDegrees>37.0828376524150371551513671875</LongitudeDegrees>
            </Position>
            <AltitudeMeters>1255.5999755859375</AltitudeMeters>
            <DistanceMeters>NAN</DistanceMeters>
          </Trackpoint>
          <Trackpoint>
            <Time>2021-08-03T07:02:55.000Z</Time>
            <Position>
              <LatitudeDegrees>-15.3359405882656574249267578125</LatitudeDegrees>
              <LongitudeDegrees>37.08283522166311740875244140625</LongitudeDegrees>
            </Position>
            <AltitudeMeters>1256</AltitudeMeters>
            <DistanceMeters>NAN</DistanceMeters>
          </Trackpoint>
          <Trackpoint>
            <Time>2021-08-03T07:02:59.000Z</Time>
            <Position>
              <LatitudeDegrees>-15.3359409235417842864990234375</LatitudeDegrees>
              <LongitudeDegrees>37.0828188769519329071044921875</LongitudeDegrees>
            </Position>
            <AltitudeMeters>1256.199951171875</AltitudeMeters>
            <DistanceMeters>NAN</DistanceMeters>
          </Trackpoint>
          <Trackpoint>
            <Time>2021-08-03T07:03:08.000Z</Time>
            <Position>
              <LatitudeDegrees>-15.33594687469303607940673828125</LatitudeDegrees>
              <LongitudeDegrees>37.08283488638699054718017578125</LongitudeDegrees>
            </Position>
            <AltitudeMeters>1256</AltitudeMeters>
            <DistanceMeters>NAN</DistanceMeters>
          </Trackpoint>
          <Trackpoint>
            <Time>2021-08-03T07:03:16.000Z</Time>
            <Position>
              <LatitudeDegrees>-15.33593798987567424774169921875</LatitudeDegrees>
              <LongitudeDegrees>37.08286237902939319610595703125</LongitudeDegrees>
            </Position>
            <AltitudeMeters>1255.4000244140625</AltitudeMeters>
            <DistanceMeters>NAN</DistanceMeters>
          </Trackpoint>
          <Trackpoint>
            <Time>2021-08-03T07:03:22.000Z</Time>
            <Position>
              <LatitudeDegrees>-15.3359214775264263153076171875</LatitudeDegrees>
              <LongitudeDegrees>37.08284762687981128692626953125</LongitudeDegrees>
            </Position>
            <AltitudeMeters>1255.800048828125</AltitudeMeters>
            <DistanceMeters>NAN</DistanceMeters>
          </Trackpoint>
          <Trackpoint>
            <Time>2021-08-03T07:03:30.000Z</Time>
            <Position>
              <LatitudeDegrees>-15.3359124250710010528564453125</LatitudeDegrees>
              <LongitudeDegrees>37.0828396640717983245849609375</LongitudeDegrees>
            </Position>
            <AltitudeMeters>1255.800048828125</AltitudeMeters>
            <DistanceMeters>NAN</DistanceMeters>
          </Trackpoint>
          <Trackpoint>
            <Time>2021-08-03T07:03:41.000Z</Time>
            <Position>
              <LatitudeDegrees>-15.33594251610338687896728515625</LatitudeDegrees>
              <LongitudeDegrees>37.082829438149929046630859375</LongitudeDegrees>
            </Position>
            <AltitudeMeters>1255.5999755859375</AltitudeMeters>
            <DistanceMeters>NAN</DistanceMeters>
          </Trackpoint>
          <Trackpoint>
            <Time>2021-08-03T07:03:47.000Z</Time>
            <Position>
              <LatitudeDegrees>-15.33594218082726001739501953125</LatitudeDegrees>
              <LongitudeDegrees>37.08284226246178150177001953125</LongitudeDegrees>
            </Position>
            <AltitudeMeters>1255.199951171875</AltitudeMeters>
            <DistanceMeters>NAN</DistanceMeters>
          </Trackpoint>
          <Trackpoint>
            <Time>2021-08-03T07:03:53.000Z</Time>
            <Position>
              <LatitudeDegrees>-15.33591284416615962982177734375</LatitudeDegrees>
              <LongitudeDegrees>37.08284318447113037109375</LongitudeDegrees>
            </Position>
            <AltitudeMeters>1255.199951171875</AltitudeMeters>
            <DistanceMeters>NAN</DistanceMeters>
          </Trackpoint>
          <Trackpoint>
            <Time>2021-08-03T07:04:00.000Z</Time>
            <Position>
              <LatitudeDegrees>-15.3358852677047252655029296875</LatitudeDegrees>
              <LongitudeDegrees>37.082807309925556182861328125</LongitudeDegrees>
            </Position>
            <AltitudeMeters>1255.199951171875</AltitudeMeters>
            <DistanceMeters>NAN</DistanceMeters>
          </Trackpoint>
          <Trackpoint>
            <Time>2021-08-03T07:04:02.000Z</Time>
            <Position>
              <LatitudeDegrees>-15.335889793932437896728515625</LatitudeDegrees>
              <LongitudeDegrees>37.0827947370707988739013671875</LongitudeDegrees>
            </Position>
            <AltitudeMeters>1254.4000244140625</AltitudeMeters>
            <DistanceMeters>NAN</DistanceMeters>
          </Trackpoint>
          <Trackpoint>
            <Time>2021-08-03T07:04:07.000Z</Time>
            <Position>
              <LatitudeDegrees>-15.33589893020689487457275390625</LatitudeDegrees>
              <LongitudeDegrees>37.0827685855329036712646484375</LongitudeDegrees>
            </Position>
            <AltitudeMeters>1255.5999755859375</AltitudeMeters>
            <DistanceMeters>NAN</DistanceMeters>
          </Trackpoint>
          <Trackpoint>
            <Time>2021-08-03T07:04:08.000Z</Time>
            <Position>
              <LatitudeDegrees>-15.33589842729270458221435546875</LatitudeDegrees>
              <LongitudeDegrees>37.082767076790332794189453125</LongitudeDegrees>
            </Position>
            <AltitudeMeters>1255.5999755859375</AltitudeMeters>
            <DistanceMeters>NAN</DistanceMeters>
          </Trackpoint>
          <Trackpoint>
            <Time>2021-08-03T07:04:14.000Z</Time>
            <Position>
              <LatitudeDegrees>-15.3359043784439563751220703125</LatitudeDegrees>
              <LongitudeDegrees>37.0827675797045230865478515625</LongitudeDegrees>
            </Position>
            <AltitudeMeters>1255.5999755859375</AltitudeMeters>
            <DistanceMeters>NAN</DistanceMeters>
          </Trackpoint>
          <Trackpoint>
            <Time>2021-08-03T07:04:19.000Z</Time>
            <Position>
              <LatitudeDegrees>-15.335906557738780975341796875</LatitudeDegrees>
              <LongitudeDegrees>37.08276866935193538665771484375</LongitudeDegrees>
            </Position>
            <AltitudeMeters>1255.4000244140625</AltitudeMeters>
            <DistanceMeters>NAN</DistanceMeters>
          </Trackpoint>
          <Trackpoint>
            <Time>2021-08-03T07:04:30.000Z</Time>
            <Position>
              <LatitudeDegrees>-15.3359043784439563751220703125</LatitudeDegrees>
              <LongitudeDegrees>37.08276816643774509429931640625</LongitudeDegrees>
            </Position>
            <AltitudeMeters>1255.4000244140625</AltitudeMeters>
            <DistanceMeters>NAN</DistanceMeters>
          </Trackpoint>
          <Trackpoint>
            <Time>2021-08-03T07:04:34.000Z</Time>
            <Position>
              <LatitudeDegrees>-15.3359033726155757904052734375</LatitudeDegrees>
              <LongitudeDegrees>37.08276615478098392486572265625</LongitudeDegrees>
            </Position>
            <AltitudeMeters>1255.4000244140625</AltitudeMeters>
            <DistanceMeters>NAN</DistanceMeters>
          </Trackpoint>
          <Trackpoint>
            <Time>2021-08-03T07:04:43.000Z</Time>
            <Position>
              <LatitudeDegrees>-15.335905887186527252197265625</LatitudeDegrees>
              <LongitudeDegrees>37.08276598714292049407958984375</LongitudeDegrees>
            </Position>
            <AltitudeMeters>1255</AltitudeMeters>
            <DistanceMeters>NAN</DistanceMeters>
          </Trackpoint>
          <Trackpoint>
            <Time>2021-08-03T07:04:46.000Z</Time>
            <Position>
              <LatitudeDegrees>-15.33590756356716156005859375</LatitudeDegrees>
              <LongitudeDegrees>37.08276607096195220947265625</LongitudeDegrees>
            </Position>
            <AltitudeMeters>1254.800048828125</AltitudeMeters>
            <DistanceMeters>NAN</DistanceMeters>
          </Trackpoint>
          <Trackpoint>
            <Time>2021-08-03T07:04:47.000Z</Time>
            <Position>
              <LatitudeDegrees>-15.33591217361390590667724609375</LatitudeDegrees>
              <LongitudeDegrees>37.082770764827728271484375</LongitudeDegrees>
            </Position>
            <AltitudeMeters>1254.5999755859375</AltitudeMeters>
            <DistanceMeters>NAN</DistanceMeters>
          </Trackpoint>
          <Trackpoint>
            <Time>2021-08-03T07:04:48.000Z</Time>
            <Position>
              <LatitudeDegrees>-15.33592122606933116912841796875</LatitudeDegrees>
              <LongitudeDegrees>37.08278216421604156494140625</LongitudeDegrees>
            </Position>
            <AltitudeMeters>1254.4000244140625</AltitudeMeters>
            <DistanceMeters>NAN</DistanceMeters>
          </Trackpoint>
          <Trackpoint>
            <Time>2021-08-03T07:04:50.000Z</Time>
            <Position>
              <LatitudeDegrees>-15.3359372355043888092041015625</LatitudeDegrees>
              <LongitudeDegrees>37.08280001766979694366455078125</LongitudeDegrees>
            </Position>
            <AltitudeMeters>1254.4000244140625</AltitudeMeters>
            <DistanceMeters>NAN</DistanceMeters>
          </Trackpoint>
          <Trackpoint>
            <Time>2021-08-03T07:04:57.000Z</Time>
            <Position>
              <LatitudeDegrees>-15.3359724394977092742919921875</LatitudeDegrees>
              <LongitudeDegrees>37.0828426815569400787353515625</LongitudeDegrees>
            </Position>
            <AltitudeMeters>1254.199951171875</AltitudeMeters>
            <DistanceMeters>NAN</DistanceMeters>
          </Trackpoint>
          <Trackpoint>
            <Time>2021-08-03T07:04:58.000Z</Time>
            <Position>
              <LatitudeDegrees>-15.33597168512642383575439453125</LatitudeDegrees>
              <LongitudeDegrees>37.082844190299510955810546875</LongitudeDegrees>
            </Position>
            <AltitudeMeters>1254.199951171875</AltitudeMeters>
            <DistanceMeters>NAN</DistanceMeters>
          </Trackpoint>
          <Trackpoint>
            <Time>2021-08-03T07:04:59.000Z</Time>
            <Position>
              <LatitudeDegrees>-15.33597059547901153564453125</LatitudeDegrees>
              <LongitudeDegrees>37.0828450284898281097412109375</LongitudeDegrees>
            </Position>
            <AltitudeMeters>1254.199951171875</AltitudeMeters>
            <DistanceMeters>NAN</DistanceMeters>
          </Trackpoint>
          <Trackpoint>
            <Time>2021-08-03T07:05:02.000Z</Time>
            <Position>
              <LatitudeDegrees>-15.33596833236515522003173828125</LatitudeDegrees>
              <LongitudeDegrees>37.082838155329227447509765625</LongitudeDegrees>
            </Position>
            <AltitudeMeters>1254.4000244140625</AltitudeMeters>
            <DistanceMeters>NAN</DistanceMeters>
          </Trackpoint>
          <Trackpoint>
            <Time>2021-08-03T07:05:05.000Z</Time>
            <Position>
              <LatitudeDegrees>-15.3359697572886943817138671875</LatitudeDegrees>
              <LongitudeDegrees>37.0828337967395782470703125</LongitudeDegrees>
            </Position>
            <AltitudeMeters>1254.4000244140625</AltitudeMeters>
            <DistanceMeters>NAN</DistanceMeters>
          </Trackpoint>
          <Trackpoint>
            <Time>2021-08-03T07:05:07.000Z</Time>
            <Position>
              <LatitudeDegrees>-15.33595944754779338836669921875</LatitudeDegrees>
              <LongitudeDegrees>37.08282734267413616180419921875</LongitudeDegrees>
            </Position>
            <AltitudeMeters>1254.4000244140625</AltitudeMeters>
            <DistanceMeters>NAN</DistanceMeters>
          </Trackpoint>
          <Trackpoint>
            <Time>2021-08-03T07:05:09.000Z</Time>
            <Position>
              <LatitudeDegrees>-15.33595911227166652679443359375</LatitudeDegrees>
              <LongitudeDegrees>37.08281862549483776092529296875</LongitudeDegrees>
            </Position>
            <AltitudeMeters>1254.4000244140625</AltitudeMeters>
            <DistanceMeters>NAN</DistanceMeters>
          </Trackpoint>
          <Trackpoint>
            <Time>2021-08-03T07:05:13.000Z</Time>
            <Position>
              <LatitudeDegrees>-15.33596782945096492767333984375</LatitudeDegrees>
              <LongitudeDegrees>37.08281493745744228363037109375</LongitudeDegrees>
            </Position>
            <AltitudeMeters>1254.4000244140625</AltitudeMeters>
            <DistanceMeters>NAN</DistanceMeters>
          </Trackpoint>
          <Trackpoint>
            <Time>2021-08-03T07:05:14.000Z</Time>
            <Position>
              <LatitudeDegrees>-15.33596925437450408935546875</LatitudeDegrees>
              <LongitudeDegrees>37.0828165300190448760986328125</LongitudeDegrees>
            </Position>
            <AltitudeMeters>1254.4000244140625</AltitudeMeters>
            <DistanceMeters>NAN</DistanceMeters>
          </Trackpoint>
          <Trackpoint>
            <Time>2021-08-03T07:05:28.000Z</Time>
            <Position>
              <LatitudeDegrees>-15.3359699249267578125</LatitudeDegrees>
              <LongitudeDegrees>37.08281837403774261474609375</LongitudeDegrees>
            </Position>
            <AltitudeMeters>1254.4000244140625</AltitudeMeters>
            <DistanceMeters>NAN</DistanceMeters>
          </Trackpoint>
          <Trackpoint>
            <Time>2021-08-03T07:05:54.000Z</Time>
            <Position>
              <LatitudeDegrees>-15.33596397377550601959228515625</LatitudeDegrees>
              <LongitudeDegrees>37.08280739374458789825439453125</LongitudeDegrees>
            </Position>
            <AltitudeMeters>1254.4000244140625</AltitudeMeters>
            <DistanceMeters>NAN</DistanceMeters>
          </Trackpoint>
          <Trackpoint>
            <Time>2021-08-03T07:06:00.000Z</Time>
            <Position>
              <LatitudeDegrees>-15.33596330322325229644775390625</LatitudeDegrees>
              <LongitudeDegrees>37.08280622027814388275146484375</LongitudeDegrees>
            </Position>
            <AltitudeMeters>1254.4000244140625</AltitudeMeters>
            <DistanceMeters>NAN</DistanceMeters>
          </Trackpoint>
          <Trackpoint>
            <Time>2021-08-03T07:06:07.000Z</Time>
            <Position>
              <LatitudeDegrees>-15.33596196211874485015869140625</LatitudeDegrees>
              <LongitudeDegrees>37.08280571736395359039306640625</LongitudeDegrees>
            </Position>
            <AltitudeMeters>1254.4000244140625</AltitudeMeters>
            <DistanceMeters>NAN</DistanceMeters>
          </Trackpoint>
          <Trackpoint>
            <Time>2021-08-03T07:06:18.000Z</Time>
            <Position>
              <LatitudeDegrees>-15.3359610401093959808349609375</LatitudeDegrees>
              <LongitudeDegrees>37.08280806429684162139892578125</LongitudeDegrees>
            </Position>
            <AltitudeMeters>1254.4000244140625</AltitudeMeters>
            <DistanceMeters>NAN</DistanceMeters>
          </Trackpoint>
          <Trackpoint>
            <Time>2021-08-03T07:06:21.000Z</Time>
            <Position>
              <LatitudeDegrees>-15.335961543023586273193359375</LatitudeDegrees>
              <LongitudeDegrees>37.08280873484909534454345703125</LongitudeDegrees>
            </Position>
            <AltitudeMeters>1254.4000244140625</AltitudeMeters>
            <DistanceMeters>NAN</DistanceMeters>
          </Trackpoint>
          <Trackpoint>
            <Time>2021-08-03T07:06:42.000Z</Time>
            <Position>
              <LatitudeDegrees>-15.335958190262317657470703125</LatitudeDegrees>
              <LongitudeDegrees>37.08280496299266815185546875</LongitudeDegrees>
            </Position>
            <AltitudeMeters>1254.4000244140625</AltitudeMeters>
            <DistanceMeters>NAN</DistanceMeters>
          </Trackpoint>
          <Trackpoint>
            <Time>2021-08-03T07:06:49.000Z</Time>
            <Position>
              <LatitudeDegrees>-15.3359573520720005035400390625</LatitudeDegrees>
              <LongitudeDegrees>37.08280404098331928253173828125</LongitudeDegrees>
            </Position>
            <AltitudeMeters>1254.4000244140625</AltitudeMeters>
            <DistanceMeters>NAN</DistanceMeters>
          </Trackpoint>
          <Trackpoint>
            <Time>2021-08-03T07:06:59.000Z</Time>
            <Position>
              <LatitudeDegrees>-15.33595450222492218017578125</LatitudeDegrees>
              <LongitudeDegrees>37.08280622027814388275146484375</LongitudeDegrees>
            </Position>
            <AltitudeMeters>1254.4000244140625</AltitudeMeters>
            <DistanceMeters>NAN</DistanceMeters>
          </Trackpoint>
          <Trackpoint>
            <Time>2021-08-03T07:07:21.000Z</Time>
            <Position>
              <LatitudeDegrees>-15.3359539993107318878173828125</LatitudeDegrees>
              <LongitudeDegrees>37.0828249119222164154052734375</LongitudeDegrees>
            </Position>
            <AltitudeMeters>1254.4000244140625</AltitudeMeters>
            <DistanceMeters>NAN</DistanceMeters>
          </Trackpoint>
          <Trackpoint>
            <Time>2021-08-03T07:07:32.000Z</Time>
            <Position>
              <LatitudeDegrees>-15.33595307730138301849365234375</LatitudeDegrees>
              <LongitudeDegrees>37.08282415755093097686767578125</LongitudeDegrees>
            </Position>
            <AltitudeMeters>1254.4000244140625</AltitudeMeters>
            <DistanceMeters>NAN</DistanceMeters>
          </Trackpoint>
          <Trackpoint>
            <Time>2021-08-03T07:07:37.000Z</Time>
            <Position>
              <LatitudeDegrees>-15.33595056273043155670166015625</LatitudeDegrees>
              <LongitudeDegrees>37.08282415755093097686767578125</LongitudeDegrees>
            </Position>
            <AltitudeMeters>1254.4000244140625</AltitudeMeters>
            <DistanceMeters>NAN</DistanceMeters>
          </Trackpoint>
          <Trackpoint>
            <Time>2021-08-03T07:07:39.000Z</Time>
            <Position>
              <LatitudeDegrees>-15.335949473083019256591796875</LatitudeDegrees>
              <LongitudeDegrees>37.0828239060938358306884765625</LongitudeDegrees>
            </Position>
            <AltitudeMeters>1254.4000244140625</AltitudeMeters>
            <DistanceMeters>NAN</DistanceMeters>
          </Trackpoint>
          <Trackpoint>
            <Time>2021-08-03T07:07:44.000Z</Time>
            <Position>
              <LatitudeDegrees>-15.3359469585120677947998046875</LatitudeDegrees>
              <LongitudeDegrees>37.082822732627391815185546875</LongitudeDegrees>
            </Position>
            <AltitudeMeters>1254.4000244140625</AltitudeMeters>
            <DistanceMeters>NAN</DistanceMeters>
          </Trackpoint>
          <Trackpoint>
            <Time>2021-08-03T07:07:56.000Z</Time>
            <Position>
              <LatitudeDegrees>-15.3359459526836872100830078125</LatitudeDegrees>
              <LongitudeDegrees>37.08281594328582286834716796875</LongitudeDegrees>
            </Position>
            <AltitudeMeters>1254.4000244140625</AltitudeMeters>
            <DistanceMeters>NAN</DistanceMeters>
          </Trackpoint>
          <Trackpoint>
            <Time>2021-08-03T07:08:03.000Z</Time>
            <Position>
              <LatitudeDegrees>-15.33594486303627490997314453125</LatitudeDegrees>
              <LongitudeDegrees>37.08281309343874454498291015625</LongitudeDegrees>
            </Position>
            <AltitudeMeters>1254.4000244140625</AltitudeMeters>
            <DistanceMeters>NAN</DistanceMeters>
          </Trackpoint>
          <Trackpoint>
            <Time>2021-08-03T07:08:16.000Z</Time>
            <Position>
              <LatitudeDegrees>-15.33594570122659206390380859375</LatitudeDegrees>
              <LongitudeDegrees>37.0828094892203807830810546875</LongitudeDegrees>
            </Position>
            <AltitudeMeters>1254.4000244140625</AltitudeMeters>
            <DistanceMeters>NAN</DistanceMeters>
          </Trackpoint>
          <Trackpoint>
            <Time>2021-08-03T07:08:26.000Z</Time>
            <Position>
              <LatitudeDegrees>-15.33594754524528980255126953125</LatitudeDegrees>
              <LongitudeDegrees>37.08280839957296848297119140625</LongitudeDegrees>
            </Position>
            <AltitudeMeters>1254.4000244140625</AltitudeMeters>
            <DistanceMeters>NAN</DistanceMeters>
          </Trackpoint>
          <Trackpoint>
            <Time>2021-08-03T07:08:28.000Z</Time>
            <Position>
              <LatitudeDegrees>-15.33594804815948009490966796875</LatitudeDegrees>
              <LongitudeDegrees>37.082808315753936767578125</LongitudeDegrees>
            </Position>
            <AltitudeMeters>1254.4000244140625</AltitudeMeters>
            <DistanceMeters>NAN</DistanceMeters>
          </Trackpoint>
          <Trackpoint>
            <Time>2021-08-03T07:08:30.000Z</Time>
            <Position>
              <LatitudeDegrees>-15.33594855107367038726806640625</LatitudeDegrees>
              <LongitudeDegrees>37.08280823193490505218505859375</LongitudeDegrees>
            </Position>
            <AltitudeMeters>1254.4000244140625</AltitudeMeters>
            <DistanceMeters>NAN</DistanceMeters>
          </Trackpoint>
          <Trackpoint>
            <Time>2021-08-03T07:08:37.000Z</Time>
            <Position>
              <LatitudeDegrees>-15.3359493054449558258056640625</LatitudeDegrees>
              <LongitudeDegrees>37.08280806429684162139892578125</LongitudeDegrees>
            </Position>
            <AltitudeMeters>1254.4000244140625</AltitudeMeters>
            <DistanceMeters>NAN</DistanceMeters>
          </Trackpoint>
          <Trackpoint>
            <Time>2021-08-03T07:08:48.000Z</Time>
            <Position>
              <LatitudeDegrees>-15.335949473083019256591796875</LatitudeDegrees>
              <LongitudeDegrees>37.082807980477809906005859375</LongitudeDegrees>
            </Position>
            <AltitudeMeters>1254.4000244140625</AltitudeMeters>
            <DistanceMeters>NAN</DistanceMeters>
          </Trackpoint>
          <Trackpoint>
            <Time>2021-08-03T07:08:57.000Z</Time>
            <Position>
              <LatitudeDegrees>-15.335949473083019256591796875</LatitudeDegrees>
              <LongitudeDegrees>37.082807980477809906005859375</LongitudeDegrees>
            </Position>
            <AltitudeMeters>1254.4000244140625</AltitudeMeters>
            <DistanceMeters>NAN</DistanceMeters>
          </Trackpoint>
          <Trackpoint>
            <Time>2021-08-03T07:09:06.000Z</Time>
            <Position>
              <LatitudeDegrees>-15.33594972454011440277099609375</LatitudeDegrees>
              <LongitudeDegrees>37.082807980477809906005859375</LongitudeDegrees>
            </Position>
            <AltitudeMeters>1254.4000244140625</AltitudeMeters>
            <DistanceMeters>NAN</DistanceMeters>
          </Trackpoint>
          <Trackpoint>
            <Time>2021-08-03T07:09:35.000Z</Time>
            <Position>
              <LatitudeDegrees>-15.335950143635272979736328125</LatitudeDegrees>
              <LongitudeDegrees>37.0828081481158733367919921875</LongitudeDegrees>
            </Position>
            <AltitudeMeters>1254.4000244140625</AltitudeMeters>
            <DistanceMeters>NAN</DistanceMeters>
          </Trackpoint>
          <Trackpoint>
            <Time>2021-08-03T07:09:54.000Z</Time>
            <Position>
              <LatitudeDegrees>-15.33595056273043155670166015625</LatitudeDegrees>
              <LongitudeDegrees>37.0828084833920001983642578125</LongitudeDegrees>
            </Position>
            <AltitudeMeters>1254.4000244140625</AltitudeMeters>
            <DistanceMeters>NAN</DistanceMeters>
          </Trackpoint>
          <Trackpoint>
            <Time>2021-08-03T07:10:06.000Z</Time>
            <Position>
              <LatitudeDegrees>-15.3359509818255901336669921875</LatitudeDegrees>
              <LongitudeDegrees>37.082808651030063629150390625</LongitudeDegrees>
            </Position>
            <AltitudeMeters>1254.4000244140625</AltitudeMeters>
            <DistanceMeters>NAN</DistanceMeters>
          </Trackpoint>
          <Trackpoint>
            <Time>2021-08-03T07:10:10.000Z</Time>
            <Position>
              <LatitudeDegrees>-15.33595106564462184906005859375</LatitudeDegrees>
              <LongitudeDegrees>37.08280873484909534454345703125</LongitudeDegrees>
            </Position>
            <AltitudeMeters>1254.4000244140625</AltitudeMeters>
            <DistanceMeters>NAN</DistanceMeters>
          </Trackpoint>
          <Trackpoint>
            <Time>2021-08-03T07:10:47.000Z</Time>
            <Position>
              <LatitudeDegrees>-15.33595182001590728759765625</LatitudeDegrees>
              <LongitudeDegrees>37.08280898630619049072265625</LongitudeDegrees>
            </Position>
            <AltitudeMeters>1254.4000244140625</AltitudeMeters>
            <DistanceMeters>NAN</DistanceMeters>
          </Trackpoint>
          <Trackpoint>
            <Time>2021-08-03T07:10:54.000Z</Time>
            <Position>
              <LatitudeDegrees>-15.33595182001590728759765625</LatitudeDegrees>
              <LongitudeDegrees>37.08280898630619049072265625</LongitudeDegrees>
            </Position>
            <AltitudeMeters>1254.4000244140625</AltitudeMeters>
            <DistanceMeters>NAN</DistanceMeters>
          </Trackpoint>
          <Trackpoint>
            <Time>2021-08-03T07:11:02.000Z</Time>
            <Position>
              <LatitudeDegrees>-15.33595190383493900299072265625</LatitudeDegrees>
              <LongitudeDegrees>37.08280907012522220611572265625</LongitudeDegrees>
            </Position>
            <AltitudeMeters>1254.4000244140625</AltitudeMeters>
            <DistanceMeters>NAN</DistanceMeters>
          </Trackpoint>
          <Trackpoint>
            <Time>2021-08-03T07:11:07.000Z</Time>
            <Position>
              <LatitudeDegrees>-15.33595190383493900299072265625</LatitudeDegrees>
              <LongitudeDegrees>37.08280907012522220611572265625</LongitudeDegrees>
            </Position>
            <AltitudeMeters>1254.4000244140625</AltitudeMeters>
            <DistanceMeters>NAN</DistanceMeters>
          </Trackpoint>
          <Trackpoint>
            <Time>2021-08-03T07:11:20.000Z</Time>
            <Position>
              <LatitudeDegrees>-15.3359519876539707183837890625</LatitudeDegrees>
              <LongitudeDegrees>37.08280923776328563690185546875</LongitudeDegrees>
            </Position>
            <AltitudeMeters>1254.4000244140625</AltitudeMeters>
            <DistanceMeters>NAN</DistanceMeters>
          </Trackpoint>
          <Trackpoint>
            <Time>2021-08-03T07:11:31.000Z</Time>
            <Position>
              <LatitudeDegrees>-15.3359519876539707183837890625</LatitudeDegrees>
              <LongitudeDegrees>37.08280923776328563690185546875</LongitudeDegrees>
            </Position>
            <AltitudeMeters>1254.4000244140625</AltitudeMeters>
            <DistanceMeters>NAN</DistanceMeters>
          </Trackpoint>
          <Trackpoint>
            <Time>2021-08-03T07:11:37.000Z</Time>
            <Position>
              <LatitudeDegrees>-15.335952155292034149169921875</LatitudeDegrees>
              <LongitudeDegrees>37.08280923776328563690185546875</LongitudeDegrees>
            </Position>
            <AltitudeMeters>1254.4000244140625</AltitudeMeters>
            <DistanceMeters>NAN</DistanceMeters>
          </Trackpoint>
          <Trackpoint>
            <Time>2021-08-03T07:11:46.000Z</Time>
            <Position>
              <LatitudeDegrees>-15.33595223911106586456298828125</LatitudeDegrees>
              <LongitudeDegrees>37.08280923776328563690185546875</LongitudeDegrees>
            </Position>
            <AltitudeMeters>1254.4000244140625</AltitudeMeters>
            <DistanceMeters>NAN</DistanceMeters>
          </Trackpoint>
          <Trackpoint>
            <Time>2021-08-03T07:11:50.000Z</Time>
            <Position>
              <LatitudeDegrees>-15.33595223911106586456298828125</LatitudeDegrees>
              <LongitudeDegrees>37.08280923776328563690185546875</LongitudeDegrees>
            </Position>
            <AltitudeMeters>1254.4000244140625</AltitudeMeters>
            <DistanceMeters>NAN</DistanceMeters>
          </Trackpoint>
          <Trackpoint>
            <Time>2021-08-03T07:12:00.000Z</Time>
            <Position>
              <LatitudeDegrees>-15.3359523229300975799560546875</LatitudeDegrees>
              <LongitudeDegrees>37.08280923776328563690185546875</LongitudeDegrees>
            </Position>
            <AltitudeMeters>1254.4000244140625</AltitudeMeters>
            <DistanceMeters>NAN</DistanceMeters>
          </Trackpoint>
          <Trackpoint>
            <Time>2021-08-03T07:12:03.000Z</Time>
            <Position>
              <LatitudeDegrees>-15.3359523229300975799560546875</LatitudeDegrees>
              <LongitudeDegrees>37.08280923776328563690185546875</LongitudeDegrees>
            </Position>
            <AltitudeMeters>1254.4000244140625</AltitudeMeters>
            <DistanceMeters>NAN</DistanceMeters>
          </Trackpoint>
          <Trackpoint>
            <Time>2021-08-03T07:12:07.000Z</Time>
            <Position>
              <LatitudeDegrees>-15.33595240674912929534912109375</LatitudeDegrees>
              <LongitudeDegrees>37.08280923776328563690185546875</LongitudeDegrees>
            </Position>
            <AltitudeMeters>1254.4000244140625</AltitudeMeters>
            <DistanceMeters>NAN</DistanceMeters>
          </Trackpoint>
          <Trackpoint>
            <Time>2021-08-03T07:12:24.000Z</Time>
            <Position>
              <LatitudeDegrees>-15.33595274202525615692138671875</LatitudeDegrees>
              <LongitudeDegrees>37.082809321582317352294921875</LongitudeDegrees>
            </Position>
            <AltitudeMeters>1254.4000244140625</AltitudeMeters>
            <DistanceMeters>NAN</DistanceMeters>
          </Trackpoint>
          <Trackpoint>
            <Time>2021-08-03T07:12:29.000Z</Time>
            <Position>
              <LatitudeDegrees>-15.335952825844287872314453125</LatitudeDegrees>
              <LongitudeDegrees>37.082809321582317352294921875</LongitudeDegrees>
            </Position>
            <AltitudeMeters>1254.4000244140625</AltitudeMeters>
            <DistanceMeters>NAN</DistanceMeters>
          </Trackpoint>
          <Trackpoint>
            <Time>2021-08-03T07:12:43.000Z</Time>
            <Position>
              <LatitudeDegrees>-15.33595324493944644927978515625</LatitudeDegrees>
              <LongitudeDegrees>37.082809321582317352294921875</LongitudeDegrees>
            </Position>
            <AltitudeMeters>1254.4000244140625</AltitudeMeters>
            <DistanceMeters>NAN</DistanceMeters>
          </Trackpoint>
          <Trackpoint>
            <Time>2021-08-03T07:13:14.000Z</Time>
            <Position>
              <LatitudeDegrees>-15.335954166948795318603515625</LatitudeDegrees>
              <LongitudeDegrees>37.0828091539442539215087890625</LongitudeDegrees>
            </Position>
            <AltitudeMeters>1254.4000244140625</AltitudeMeters>
            <DistanceMeters>NAN</DistanceMeters>
          </Trackpoint>
          <Trackpoint>
            <Time>2021-08-03T07:13:19.000Z</Time>
            <Position>
              <LatitudeDegrees>-15.3359543345868587493896484375</LatitudeDegrees>
              <LongitudeDegrees>37.0828091539442539215087890625</LongitudeDegrees>
            </Position>
            <AltitudeMeters>1254.4000244140625</AltitudeMeters>
            <DistanceMeters>NAN</DistanceMeters>
          </Trackpoint>
          <Trackpoint>
            <Time>2021-08-03T07:13:26.000Z</Time>
            <Position>
              <LatitudeDegrees>-15.33595450222492218017578125</LatitudeDegrees>
              <LongitudeDegrees>37.0828091539442539215087890625</LongitudeDegrees>
            </Position>
            <AltitudeMeters>1254.4000244140625</AltitudeMeters>
            <DistanceMeters>NAN</DistanceMeters>
          </Trackpoint>
          <Trackpoint>
            <Time>2021-08-03T07:13:30.000Z</Time>
            <Position>
              <LatitudeDegrees>-15.33595450222492218017578125</LatitudeDegrees>
              <LongitudeDegrees>37.0828091539442539215087890625</LongitudeDegrees>
            </Position>
            <AltitudeMeters>1254.4000244140625</AltitudeMeters>
            <DistanceMeters>NAN</DistanceMeters>
          </Trackpoint>
          <Trackpoint>
            <Time>2021-08-03T07:13:38.000Z</Time>
            <Position>
              <LatitudeDegrees>-15.335954837501049041748046875</LatitudeDegrees>
              <LongitudeDegrees>37.0828091539442539215087890625</LongitudeDegrees>
            </Position>
            <AltitudeMeters>1254.4000244140625</AltitudeMeters>
            <DistanceMeters>NAN</DistanceMeters>
          </Trackpoint>
          <Trackpoint>
            <Time>2021-08-03T07:13:58.000Z</Time>
            <Position>
              <LatitudeDegrees>-15.33595559187233448028564453125</LatitudeDegrees>
              <LongitudeDegrees>37.08280898630619049072265625</LongitudeDegrees>
            </Position>
            <AltitudeMeters>1254.4000244140625</AltitudeMeters>
            <DistanceMeters>NAN</DistanceMeters>
          </Trackpoint>
          <Trackpoint>
            <Time>2021-08-03T07:14:01.000Z</Time>
            <Position>
              <LatitudeDegrees>-15.33596615307033061981201171875</LatitudeDegrees>
              <LongitudeDegrees>37.0828042924404144287109375</LongitudeDegrees>
            </Position>
            <AltitudeMeters>1254.4000244140625</AltitudeMeters>
            <DistanceMeters>NAN</DistanceMeters>
          </Trackpoint>
          <Trackpoint>
            <Time>2021-08-03T07:14:07.000Z</Time>
            <Position>
              <LatitudeDegrees>-15.33597151748836040496826171875</LatitudeDegrees>
              <LongitudeDegrees>37.082801945507526397705078125</LongitudeDegrees>
            </Position>
            <AltitudeMeters>1253.800048828125</AltitudeMeters>
            <DistanceMeters>NAN</DistanceMeters>
          </Trackpoint>
          <Trackpoint>
            <Time>2021-08-03T07:14:18.000Z</Time>
            <Position>
              <LatitudeDegrees>-15.33596657216548919677734375</LatitudeDegrees>
              <LongitudeDegrees>37.082808651030063629150390625</LongitudeDegrees>
            </Position>
            <AltitudeMeters>1254</AltitudeMeters>
            <DistanceMeters>NAN</DistanceMeters>
          </Trackpoint>
          <Trackpoint>
            <Time>2021-08-03T07:14:26.000Z</Time>
            <Position>
              <LatitudeDegrees>-15.33596833236515522003173828125</LatitudeDegrees>
              <LongitudeDegrees>37.082808651030063629150390625</LongitudeDegrees>
            </Position>
            <AltitudeMeters>1254.800048828125</AltitudeMeters>
            <DistanceMeters>NAN</DistanceMeters>
          </Trackpoint>
          <Trackpoint>
            <Time>2021-08-03T07:14:27.000Z</Time>
            <Position>
              <LatitudeDegrees>-15.3359694220125675201416015625</LatitudeDegrees>
              <LongitudeDegrees>37.082808651030063629150390625</LongitudeDegrees>
            </Position>
            <AltitudeMeters>1254.800048828125</AltitudeMeters>
            <DistanceMeters>NAN</DistanceMeters>
          </Trackpoint>
          <Trackpoint>
            <Time>2021-08-03T07:14:48.000Z</Time>
            <Position>
              <LatitudeDegrees>-15.33597403205931186676025390625</LatitudeDegrees>
              <LongitudeDegrees>37.0828084833920001983642578125</LongitudeDegrees>
            </Position>
            <AltitudeMeters>1255.199951171875</AltitudeMeters>
            <DistanceMeters>NAN</DistanceMeters>
          </Trackpoint>
          <Trackpoint>
            <Time>2021-08-03T07:15:10.000Z</Time>
            <Position>
              <LatitudeDegrees>-15.33596078865230083465576171875</LatitudeDegrees>
              <LongitudeDegrees>37.0827880315482616424560546875</LongitudeDegrees>
            </Position>
            <AltitudeMeters>1254.5999755859375</AltitudeMeters>
            <DistanceMeters>NAN</DistanceMeters>
          </Trackpoint>
          <Trackpoint>
            <Time>2021-08-03T07:15:12.000Z</Time>
            <Position>
              <LatitudeDegrees>-15.33597067929804325103759765625</LatitudeDegrees>
              <LongitudeDegrees>37.082787863910198211669921875</LongitudeDegrees>
            </Position>
            <AltitudeMeters>1254.199951171875</AltitudeMeters>
            <DistanceMeters>NAN</DistanceMeters>
          </Trackpoint>
          <Trackpoint>
            <Time>2021-08-03T07:15:13.000Z</Time>
            <Position>
              <LatitudeDegrees>-15.3359751217067241668701171875</LatitudeDegrees>
              <LongitudeDegrees>37.08278560079634189605712890625</LongitudeDegrees>
            </Position>
            <AltitudeMeters>1254</AltitudeMeters>
            <DistanceMeters>NAN</DistanceMeters>
          </Trackpoint>
          <Trackpoint>
            <Time>2021-08-03T07:15:20.000Z</Time>
            <Position>
              <LatitudeDegrees>-15.33599314279854297637939453125</LatitudeDegrees>
              <LongitudeDegrees>37.08278610371053218841552734375</LongitudeDegrees>
            </Position>
            <AltitudeMeters>1253.5999755859375</AltitudeMeters>
            <DistanceMeters>NAN</DistanceMeters>
          </Trackpoint>
          <Trackpoint>
            <Time>2021-08-03T07:15:23.000Z</Time>
            <Position>
              <LatitudeDegrees>-15.33599314279854297637939453125</LatitudeDegrees>
              <LongitudeDegrees>37.08278610371053218841552734375</LongitudeDegrees>
            </Position>
            <AltitudeMeters>1253.800048828125</AltitudeMeters>
            <DistanceMeters>NAN</DistanceMeters>
          </Trackpoint>
          <Trackpoint>
            <Time>2021-08-03T07:15:27.000Z</Time>
            <Position>
              <LatitudeDegrees>-15.33599314279854297637939453125</LatitudeDegrees>
              <LongitudeDegrees>37.08278610371053218841552734375</LongitudeDegrees>
            </Position>
            <AltitudeMeters>1254.199951171875</AltitudeMeters>
            <DistanceMeters>NAN</DistanceMeters>
          </Trackpoint>
          <Trackpoint>
            <Time>2021-08-03T07:15:29.000Z</Time>
            <Position>
              <LatitudeDegrees>-15.33599314279854297637939453125</LatitudeDegrees>
              <LongitudeDegrees>37.08278610371053218841552734375</LongitudeDegrees>
            </Position>
            <AltitudeMeters>1254.4000244140625</AltitudeMeters>
            <DistanceMeters>NAN</DistanceMeters>
          </Trackpoint>
          <Trackpoint>
            <Time>2021-08-03T07:15:30.000Z</Time>
            <Position>
              <LatitudeDegrees>-15.3359935618937015533447265625</LatitudeDegrees>
              <LongitudeDegrees>37.08279012702405452728271484375</LongitudeDegrees>
            </Position>
            <AltitudeMeters>1254.5999755859375</AltitudeMeters>
            <DistanceMeters>NAN</DistanceMeters>
          </Trackpoint>
          <Trackpoint>
            <Time>2021-08-03T07:15:33.000Z</Time>
            <Position>
              <LatitudeDegrees>-15.335987024009227752685546875</LatitudeDegrees>
              <LongitudeDegrees>37.0828151889145374298095703125</LongitudeDegrees>
            </Position>
            <AltitudeMeters>1254.5999755859375</AltitudeMeters>
            <DistanceMeters>NAN</DistanceMeters>
          </Trackpoint>
          <Trackpoint>
            <Time>2021-08-03T07:15:35.000Z</Time>
            <Position>
              <LatitudeDegrees>-15.33596917055547237396240234375</LatitudeDegrees>
              <LongitudeDegrees>37.08280898630619049072265625</LongitudeDegrees>
            </Position>
            <AltitudeMeters>1255</AltitudeMeters>
            <DistanceMeters>NAN</DistanceMeters>
          </Trackpoint>
          <Trackpoint>
            <Time>2021-08-03T07:15:37.000Z</Time>
            <Position>
              <LatitudeDegrees>-15.33595978282392024993896484375</LatitudeDegrees>
              <LongitudeDegrees>37.08279934711754322052001953125</LongitudeDegrees>
            </Position>
            <AltitudeMeters>1255</AltitudeMeters>
            <DistanceMeters>NAN</DistanceMeters>
          </Trackpoint>
          <Trackpoint>
            <Time>2021-08-03T07:15:42.000Z</Time>
            <Position>
              <LatitudeDegrees>-15.335982330143451690673828125</LatitudeDegrees>
              <LongitudeDegrees>37.082781828939914703369140625</LongitudeDegrees>
            </Position>
            <AltitudeMeters>1254.5999755859375</AltitudeMeters>
            <DistanceMeters>NAN</DistanceMeters>
          </Trackpoint>
          <Trackpoint>
            <Time>2021-08-03T07:15:49.000Z</Time>
            <Position>
              <LatitudeDegrees>-15.33596313558518886566162109375</LatitudeDegrees>
              <LongitudeDegrees>37.0828115008771419525146484375</LongitudeDegrees>
            </Position>
            <AltitudeMeters>1254.199951171875</AltitudeMeters>
            <DistanceMeters>NAN</DistanceMeters>
          </Trackpoint>
          <Trackpoint>
            <Time>2021-08-03T07:15:56.000Z</Time>
            <Position>
              <LatitudeDegrees>-15.33597872592508792877197265625</LatitudeDegrees>
              <LongitudeDegrees>37.08279448561370372772216796875</LongitudeDegrees>
            </Position>
            <AltitudeMeters>1254.4000244140625</AltitudeMeters>
            <DistanceMeters>NAN</DistanceMeters>
          </Trackpoint>
          <Trackpoint>
            <Time>2021-08-03T07:15:58.000Z</Time>
            <Position>
              <LatitudeDegrees>-15.33596782945096492767333984375</LatitudeDegrees>
              <LongitudeDegrees>37.08278811536729335784912109375</LongitudeDegrees>
            </Position>
            <AltitudeMeters>1255.5999755859375</AltitudeMeters>
            <DistanceMeters>NAN</DistanceMeters>
          </Trackpoint>
          <Trackpoint>
            <Time>2021-08-03T07:15:59.000Z</Time>
            <Position>
              <LatitudeDegrees>-15.3359643928706645965576171875</LatitudeDegrees>
              <LongitudeDegrees>37.08278694190084934234619140625</LongitudeDegrees>
            </Position>
            <AltitudeMeters>1255.5999755859375</AltitudeMeters>
            <DistanceMeters>NAN</DistanceMeters>
          </Trackpoint>
          <Trackpoint>
            <Time>2021-08-03T07:16:03.000Z</Time>
            <Position>
              <LatitudeDegrees>-15.3359526582062244415283203125</LatitudeDegrees>
              <LongitudeDegrees>37.0827823318541049957275390625</LongitudeDegrees>
            </Position>
            <AltitudeMeters>1255.5999755859375</AltitudeMeters>
            <DistanceMeters>NAN</DistanceMeters>
          </Trackpoint>
          <Trackpoint>
            <Time>2021-08-03T07:16:12.000Z</Time>
            <Position>
              <LatitudeDegrees>-15.3359519876539707183837890625</LatitudeDegrees>
              <LongitudeDegrees>37.0827823318541049957275390625</LongitudeDegrees>
            </Position>
            <AltitudeMeters>1254.4000244140625</AltitudeMeters>
            <DistanceMeters>NAN</DistanceMeters>
          </Trackpoint>
          <Trackpoint>
            <Time>2021-08-03T07:16:15.000Z</Time>
            <Position>
              <LatitudeDegrees>-15.33595307730138301849365234375</LatitudeDegrees>
              <LongitudeDegrees>37.08278350532054901123046875</LongitudeDegrees>
            </Position>
            <AltitudeMeters>1254.199951171875</AltitudeMeters>
            <DistanceMeters>NAN</DistanceMeters>
          </Trackpoint>
          <Trackpoint>
            <Time>2021-08-03T07:16:21.000Z</Time>
            <Position>
              <LatitudeDegrees>-15.335958860814571380615234375</LatitudeDegrees>
              <LongitudeDegrees>37.0827880315482616424560546875</LongitudeDegrees>
            </Position>
            <AltitudeMeters>1255.5999755859375</AltitudeMeters>
            <DistanceMeters>NAN</DistanceMeters>
          </Trackpoint>
          <Trackpoint>
            <Time>2021-08-03T07:16:23.000Z</Time>
            <Position>
              <LatitudeDegrees>-15.33596129156649112701416015625</LatitudeDegrees>
              <LongitudeDegrees>37.08279180340468883514404296875</LongitudeDegrees>
            </Position>
            <AltitudeMeters>1255.5999755859375</AltitudeMeters>
            <DistanceMeters>NAN</DistanceMeters>
          </Trackpoint>
          <Trackpoint>
            <Time>2021-08-03T07:16:24.000Z</Time>
            <Position>
              <LatitudeDegrees>-15.33596179448068141937255859375</LatitudeDegrees>
              <LongitudeDegrees>37.08279423415660858154296875</LongitudeDegrees>
            </Position>
            <AltitudeMeters>1255.5999755859375</AltitudeMeters>
            <DistanceMeters>NAN</DistanceMeters>
          </Trackpoint>
          <Trackpoint>
            <Time>2021-08-03T07:16:36.000Z</Time>
            <Position>
              <LatitudeDegrees>-15.33596581779420375823974609375</LatitudeDegrees>
              <LongitudeDegrees>37.08280538208782672882080078125</LongitudeDegrees>
            </Position>
            <AltitudeMeters>1255.800048828125</AltitudeMeters>
            <DistanceMeters>NAN</DistanceMeters>
          </Trackpoint>
          <Trackpoint>
            <Time>2021-08-03T07:16:41.000Z</Time>
            <Position>
              <LatitudeDegrees>-15.335966907441616058349609375</LatitudeDegrees>
              <LongitudeDegrees>37.0828084833920001983642578125</LongitudeDegrees>
            </Position>
            <AltitudeMeters>1255.800048828125</AltitudeMeters>
            <DistanceMeters>NAN</DistanceMeters>
          </Trackpoint>
          <Trackpoint>
            <Time>2021-08-03T07:16:49.000Z</Time>
            <Position>
              <LatitudeDegrees>-15.3359670750796794891357421875</LatitudeDegrees>
              <LongitudeDegrees>37.082818038761615753173828125</LongitudeDegrees>
            </Position>
            <AltitudeMeters>1256.199951171875</AltitudeMeters>
            <DistanceMeters>NAN</DistanceMeters>
          </Trackpoint>
          <Trackpoint>
            <Time>2021-08-03T07:16:51.000Z</Time>
            <Position>
              <LatitudeDegrees>-15.335966236889362335205078125</LatitudeDegrees>
              <LongitudeDegrees>37.082819044589996337890625</LongitudeDegrees>
            </Position>
            <AltitudeMeters>1256.199951171875</AltitudeMeters>
            <DistanceMeters>NAN</DistanceMeters>
          </Trackpoint>
          <Trackpoint>
            <Time>2021-08-03T07:16:54.000Z</Time>
            <Position>
              <LatitudeDegrees>-15.335965566337108612060546875</LatitudeDegrees>
              <LongitudeDegrees>37.08282013423740863800048828125</LongitudeDegrees>
            </Position>
            <AltitudeMeters>1255.800048828125</AltitudeMeters>
            <DistanceMeters>NAN</DistanceMeters>
          </Trackpoint>
          <Trackpoint>
            <Time>2021-08-03T07:16:56.000Z</Time>
            <Position>
              <LatitudeDegrees>-15.3359637223184108734130859375</LatitudeDegrees>
              <LongitudeDegrees>37.0828203856945037841796875</LongitudeDegrees>
            </Position>
            <AltitudeMeters>1255.800048828125</AltitudeMeters>
            <DistanceMeters>NAN</DistanceMeters>
          </Trackpoint>
          <Trackpoint>
            <Time>2021-08-03T07:17:09.000Z</Time>
            <Position>
              <LatitudeDegrees>-15.3359580226242542266845703125</LatitudeDegrees>
              <LongitudeDegrees>37.08282616920769214630126953125</LongitudeDegrees>
            </Position>
            <AltitudeMeters>1255</AltitudeMeters>
            <DistanceMeters>NAN</DistanceMeters>
          </Trackpoint>
          <Trackpoint>
            <Time>2021-08-03T07:17:12.000Z</Time>
            <Position>
              <LatitudeDegrees>-15.3359580226242542266845703125</LatitudeDegrees>
              <LongitudeDegrees>37.0828262530267238616943359375</LongitudeDegrees>
            </Position>
            <AltitudeMeters>1254.5999755859375</AltitudeMeters>
            <DistanceMeters>NAN</DistanceMeters>
          </Trackpoint>
          <Trackpoint>
            <Time>2021-08-03T07:17:21.000Z</Time>
            <Position>
              <LatitudeDegrees>-15.3359553404152393341064453125</LatitudeDegrees>
              <LongitudeDegrees>37.08283270709216594696044921875</LongitudeDegrees>
            </Position>
            <AltitudeMeters>1255.4000244140625</AltitudeMeters>
            <DistanceMeters>NAN</DistanceMeters>
          </Trackpoint>
          <Trackpoint>
            <Time>2021-08-03T07:17:32.000Z</Time>
            <Position>
              <LatitudeDegrees>-15.33595316112041473388671875</LatitudeDegrees>
              <LongitudeDegrees>37.08283555693924427032470703125</LongitudeDegrees>
            </Position>
            <AltitudeMeters>1255.4000244140625</AltitudeMeters>
            <DistanceMeters>NAN</DistanceMeters>
          </Trackpoint>
          <Trackpoint>
            <Time>2021-08-03T07:17:34.000Z</Time>
            <Position>
              <LatitudeDegrees>-15.33595316112041473388671875</LatitudeDegrees>
              <LongitudeDegrees>37.08283471874892711639404296875</LongitudeDegrees>
            </Position>
            <AltitudeMeters>1255.4000244140625</AltitudeMeters>
            <DistanceMeters>NAN</DistanceMeters>
          </Trackpoint>
          <Trackpoint>
            <Time>2021-08-03T07:17:35.000Z</Time>
            <Position>
              <LatitudeDegrees>-15.33595307730138301849365234375</LatitudeDegrees>
              <LongitudeDegrees>37.08283455111086368560791015625</LongitudeDegrees>
            </Position>
            <AltitudeMeters>1255.5999755859375</AltitudeMeters>
            <DistanceMeters>NAN</DistanceMeters>
          </Trackpoint>
          <Trackpoint>
            <Time>2021-08-03T07:17:39.000Z</Time>
            <Position>
              <LatitudeDegrees>-15.33595441840589046478271484375</LatitudeDegrees>
              <LongitudeDegrees>37.0828311145305633544921875</LongitudeDegrees>
            </Position>
            <AltitudeMeters>1255.4000244140625</AltitudeMeters>
            <DistanceMeters>NAN</DistanceMeters>
          </Trackpoint>
          <Trackpoint>
            <Time>2021-08-03T07:17:42.000Z</Time>
            <Position>
              <LatitudeDegrees>-15.33597352914512157440185546875</LatitudeDegrees>
              <LongitudeDegrees>37.08282114006578922271728515625</LongitudeDegrees>
            </Position>
            <AltitudeMeters>1254.800048828125</AltitudeMeters>
            <DistanceMeters>NAN</DistanceMeters>
          </Trackpoint>
          <Trackpoint>
            <Time>2021-08-03T07:17:44.000Z</Time>
            <Position>
              <LatitudeDegrees>-15.3359873592853546142578125</LatitudeDegrees>
              <LongitudeDegrees>37.08281627856194972991943359375</LongitudeDegrees>
            </Position>
            <AltitudeMeters>1254.5999755859375</AltitudeMeters>
            <DistanceMeters>NAN</DistanceMeters>
          </Trackpoint>
          <Trackpoint>
            <Time>2021-08-03T07:17:48.000Z</Time>
            <Position>
              <LatitudeDegrees>-15.3359995968639850616455078125</LatitudeDegrees>
              <LongitudeDegrees>37.0828041248023509979248046875</LongitudeDegrees>
            </Position>
            <AltitudeMeters>1254.199951171875</AltitudeMeters>
            <DistanceMeters>NAN</DistanceMeters>
          </Trackpoint>
          <Trackpoint>
            <Time>2021-08-03T07:18:05.000Z</Time>
            <Position>
              <LatitudeDegrees>-15.33599901013076305389404296875</LatitudeDegrees>
              <LongitudeDegrees>37.0828031189739704132080078125</LongitudeDegrees>
            </Position>
            <AltitudeMeters>1254.5999755859375</AltitudeMeters>
            <DistanceMeters>NAN</DistanceMeters>
          </Trackpoint>
          <Trackpoint>
            <Time>2021-08-03T07:18:15.000Z</Time>
            <Position>
              <LatitudeDegrees>-15.335991382598876953125</LatitudeDegrees>
              <LongitudeDegrees>37.08280504681169986724853515625</LongitudeDegrees>
            </Position>
            <AltitudeMeters>1254.199951171875</AltitudeMeters>
            <DistanceMeters>NAN</DistanceMeters>
          </Trackpoint>
          <Trackpoint>
            <Time>2021-08-03T07:18:23.000Z</Time>
            <Position>
              <LatitudeDegrees>-15.335986353456974029541015625</LatitudeDegrees>
              <LongitudeDegrees>37.0828047953546047210693359375</LongitudeDegrees>
            </Position>
            <AltitudeMeters>1254.4000244140625</AltitudeMeters>
            <DistanceMeters>NAN</DistanceMeters>
          </Trackpoint>
          <Trackpoint>
            <Time>2021-08-03T07:18:26.000Z</Time>
            <Position>
              <LatitudeDegrees>-15.33598576672375202178955078125</LatitudeDegrees>
              <LongitudeDegrees>37.08280496299266815185546875</LongitudeDegrees>
            </Position>
            <AltitudeMeters>1256</AltitudeMeters>
            <DistanceMeters>NAN</DistanceMeters>
          </Trackpoint>
          <Trackpoint>
            <Time>2021-08-03T07:18:30.000Z</Time>
            <Position>
              <LatitudeDegrees>-15.335985682904720306396484375</LatitudeDegrees>
              <LongitudeDegrees>37.08280504681169986724853515625</LongitudeDegrees>
            </Position>
            <AltitudeMeters>1256</AltitudeMeters>
            <DistanceMeters>NAN</DistanceMeters>
          </Trackpoint>
          <Trackpoint>
            <Time>2021-08-03T07:18:38.000Z</Time>
            <Position>
              <LatitudeDegrees>-15.3359861858189105987548828125</LatitudeDegrees>
              <LongitudeDegrees>37.082802951335906982421875</LongitudeDegrees>
            </Position>
            <AltitudeMeters>1255.5999755859375</AltitudeMeters>
            <DistanceMeters>NAN</DistanceMeters>
          </Trackpoint>
          <Trackpoint>
            <Time>2021-08-03T07:18:46.000Z</Time>
            <Position>
              <LatitudeDegrees>-15.335987024009227752685546875</LatitudeDegrees>
              <LongitudeDegrees>37.08280404098331928253173828125</LongitudeDegrees>
            </Position>
            <AltitudeMeters>1255.800048828125</AltitudeMeters>
            <DistanceMeters>NAN</DistanceMeters>
          </Trackpoint>
          <Trackpoint>
            <Time>2021-08-03T07:19:01.000Z</Time>
            <Position>
              <LatitudeDegrees>-15.33598962239921092987060546875</LatitudeDegrees>
              <LongitudeDegrees>37.0828088186681270599365234375</LongitudeDegrees>
            </Position>
            <AltitudeMeters>1255.5999755859375</AltitudeMeters>
            <DistanceMeters>NAN</DistanceMeters>
          </Trackpoint>
          <Trackpoint>
            <Time>2021-08-03T07:19:05.000Z</Time>
            <Position>
              <LatitudeDegrees>-15.3359895385801792144775390625</LatitudeDegrees>
              <LongitudeDegrees>37.08280898630619049072265625</LongitudeDegrees>
            </Position>
            <AltitudeMeters>1255.5999755859375</AltitudeMeters>
            <DistanceMeters>NAN</DistanceMeters>
          </Trackpoint>
          <Trackpoint>
            <Time>2021-08-03T07:19:12.000Z</Time>
            <Position>
              <LatitudeDegrees>-15.33598802983760833740234375</LatitudeDegrees>
              <LongitudeDegrees>37.08281007595360279083251953125</LongitudeDegrees>
            </Position>
            <AltitudeMeters>1255</AltitudeMeters>
            <DistanceMeters>NAN</DistanceMeters>
          </Trackpoint>
          <Trackpoint>
            <Time>2021-08-03T07:19:25.000Z</Time>
            <Position>
              <LatitudeDegrees>-15.33596833236515522003173828125</LatitudeDegrees>
              <LongitudeDegrees>37.08283974789083003997802734375</LongitudeDegrees>
            </Position>
            <AltitudeMeters>1254.800048828125</AltitudeMeters>
            <DistanceMeters>NAN</DistanceMeters>
          </Trackpoint>
          <Trackpoint>
            <Time>2021-08-03T07:19:34.000Z</Time>
            <Position>
              <LatitudeDegrees>-15.33595978282392024993896484375</LatitudeDegrees>
              <LongitudeDegrees>37.0828450284898281097412109375</LongitudeDegrees>
            </Position>
            <AltitudeMeters>1254.800048828125</AltitudeMeters>
            <DistanceMeters>NAN</DistanceMeters>
          </Trackpoint>
          <Trackpoint>
            <Time>2021-08-03T07:19:37.000Z</Time>
            <Position>
              <LatitudeDegrees>-15.3359586931765079498291015625</LatitudeDegrees>
              <LongitudeDegrees>37.08284519612789154052734375</LongitudeDegrees>
            </Position>
            <AltitudeMeters>1254.800048828125</AltitudeMeters>
            <DistanceMeters>NAN</DistanceMeters>
          </Trackpoint>
          <Trackpoint>
            <Time>2021-08-03T07:19:42.000Z</Time>
            <Position>
              <LatitudeDegrees>-15.33594972454011440277099609375</LatitudeDegrees>
              <LongitudeDegrees>37.08284511230885982513427734375</LongitudeDegrees>
            </Position>
            <AltitudeMeters>1255.199951171875</AltitudeMeters>
            <DistanceMeters>NAN</DistanceMeters>
          </Trackpoint>
          <Trackpoint>
            <Time>2021-08-03T07:19:46.000Z</Time>
            <Position>
              <LatitudeDegrees>-15.33594570122659206390380859375</LatitudeDegrees>
              <LongitudeDegrees>37.08284477703273296356201171875</LongitudeDegrees>
            </Position>
            <AltitudeMeters>1255.5999755859375</AltitudeMeters>
            <DistanceMeters>NAN</DistanceMeters>
          </Trackpoint>
          <Trackpoint>
            <Time>2021-08-03T07:19:52.000Z</Time>
            <Position>
              <LatitudeDegrees>-15.3359446115791797637939453125</LatitudeDegrees>
              <LongitudeDegrees>37.0828445255756378173828125</LongitudeDegrees>
            </Position>
            <AltitudeMeters>1255.800048828125</AltitudeMeters>
            <DistanceMeters>NAN</DistanceMeters>
          </Trackpoint>
          <Trackpoint>
            <Time>2021-08-03T07:19:59.000Z</Time>
            <Position>
              <LatitudeDegrees>-15.33594436012208461761474609375</LatitudeDegrees>
              <LongitudeDegrees>37.08284108899533748626708984375</LongitudeDegrees>
            </Position>
            <AltitudeMeters>1255.4000244140625</AltitudeMeters>
            <DistanceMeters>NAN</DistanceMeters>
          </Trackpoint>
          <Trackpoint>
            <Time>2021-08-03T07:20:02.000Z</Time>
            <Position>
              <LatitudeDegrees>-15.33594436012208461761474609375</LatitudeDegrees>
              <LongitudeDegrees>37.082840502262115478515625</LongitudeDegrees>
            </Position>
            <AltitudeMeters>1255.4000244140625</AltitudeMeters>
            <DistanceMeters>NAN</DistanceMeters>
          </Trackpoint>
          <Trackpoint>
            <Time>2021-08-03T07:20:14.000Z</Time>
            <Position>
              <LatitudeDegrees>-15.33594402484595775604248046875</LatitudeDegrees>
              <LongitudeDegrees>37.0828386582434177398681640625</LongitudeDegrees>
            </Position>
            <AltitudeMeters>1255.4000244140625</AltitudeMeters>
            <DistanceMeters>NAN</DistanceMeters>
          </Trackpoint>
          <Trackpoint>
            <Time>2021-08-03T07:20:36.000Z</Time>
            <Position>
              <LatitudeDegrees>-15.33593178726732730865478515625</LatitudeDegrees>
              <LongitudeDegrees>37.08283740095794200897216796875</LongitudeDegrees>
            </Position>
            <AltitudeMeters>1255.4000244140625</AltitudeMeters>
            <DistanceMeters>NAN</DistanceMeters>
          </Trackpoint>
          <Trackpoint>
            <Time>2021-08-03T07:20:39.000Z</Time>
            <Position>
              <LatitudeDegrees>-15.33593161962926387786865234375</LatitudeDegrees>
              <LongitudeDegrees>37.0828373171389102935791015625</LongitudeDegrees>
            </Position>
            <AltitudeMeters>1255.4000244140625</AltitudeMeters>
            <DistanceMeters>NAN</DistanceMeters>
          </Trackpoint>
          <Trackpoint>
            <Time>2021-08-03T07:20:42.000Z</Time>
            <Position>
              <LatitudeDegrees>-15.3359318710863590240478515625</LatitudeDegrees>
              <LongitudeDegrees>37.0828376524150371551513671875</LongitudeDegrees>
            </Position>
            <AltitudeMeters>1255.4000244140625</AltitudeMeters>
            <DistanceMeters>NAN</DistanceMeters>
          </Trackpoint>
          <Trackpoint>
            <Time>2021-08-03T07:20:52.000Z</Time>
            <Position>
              <LatitudeDegrees>-15.33593379892408847808837890625</LatitudeDegrees>
              <LongitudeDegrees>37.082838155329227447509765625</LongitudeDegrees>
            </Position>
            <AltitudeMeters>1255.4000244140625</AltitudeMeters>
            <DistanceMeters>NAN</DistanceMeters>
          </Trackpoint>
          <Trackpoint>
            <Time>2021-08-03T07:20:54.000Z</Time>
            <Position>
              <LatitudeDegrees>-15.3359352238476276397705078125</LatitudeDegrees>
              <LongitudeDegrees>37.0828379876911640167236328125</LongitudeDegrees>
            </Position>
            <AltitudeMeters>1255.4000244140625</AltitudeMeters>
            <DistanceMeters>NAN</DistanceMeters>
          </Trackpoint>
          <Trackpoint>
            <Time>2021-08-03T07:20:58.000Z</Time>
            <Position>
              <LatitudeDegrees>-15.33593765459954738616943359375</LatitudeDegrees>
              <LongitudeDegrees>37.08283756859600543975830078125</LongitudeDegrees>
            </Position>
            <AltitudeMeters>1255.4000244140625</AltitudeMeters>
            <DistanceMeters>NAN</DistanceMeters>
          </Trackpoint>
          <Trackpoint>
            <Time>2021-08-03T07:21:08.000Z</Time>
            <Position>
              <LatitudeDegrees>-15.33594184555113315582275390625</LatitudeDegrees>
              <LongitudeDegrees>37.08283580839633941650390625</LongitudeDegrees>
            </Position>
            <AltitudeMeters>1255.4000244140625</AltitudeMeters>
            <DistanceMeters>NAN</DistanceMeters>
          </Trackpoint>
          <Trackpoint>
            <Time>2021-08-03T07:21:15.000Z</Time>
            <Position>
              <LatitudeDegrees>-15.33594251610338687896728515625</LatitudeDegrees>
              <LongitudeDegrees>37.082835473120212554931640625</LongitudeDegrees>
            </Position>
            <AltitudeMeters>1255.4000244140625</AltitudeMeters>
            <DistanceMeters>NAN</DistanceMeters>
          </Trackpoint>
          <Trackpoint>
            <Time>2021-08-03T07:21:18.000Z</Time>
            <Position>
              <LatitudeDegrees>-15.3359409235417842864990234375</LatitudeDegrees>
              <LongitudeDegrees>37.082842178642749786376953125</LongitudeDegrees>
            </Position>
            <AltitudeMeters>1255.4000244140625</AltitudeMeters>
            <DistanceMeters>NAN</DistanceMeters>
          </Trackpoint>
          <Trackpoint>
            <Time>2021-08-03T07:21:19.000Z</Time>
            <Position>
              <LatitudeDegrees>-15.33594243228435516357421875</LatitudeDegrees>
              <LongitudeDegrees>37.08285986445844173431396484375</LongitudeDegrees>
            </Position>
            <AltitudeMeters>1255.4000244140625</AltitudeMeters>
            <DistanceMeters>NAN</DistanceMeters>
          </Trackpoint>
          <Trackpoint>
            <Time>2021-08-03T07:21:22.000Z</Time>
            <Position>
              <LatitudeDegrees>-15.33595927990972995758056640625</LatitudeDegrees>
              <LongitudeDegrees>37.082911916077136993408203125</LongitudeDegrees>
            </Position>
            <AltitudeMeters>1255.4000244140625</AltitudeMeters>
            <DistanceMeters>NAN</DistanceMeters>
          </Trackpoint>
          <Trackpoint>
            <Time>2021-08-03T07:21:29.000Z</Time>
            <Position>
              <LatitudeDegrees>-15.3359962441027164459228515625</LatitudeDegrees>
              <LongitudeDegrees>37.08301643840968608856201171875</LongitudeDegrees>
            </Position>
            <AltitudeMeters>1254.199951171875</AltitudeMeters>
            <DistanceMeters>NAN</DistanceMeters>
          </Trackpoint>
          <Trackpoint>
            <Time>2021-08-03T07:21:33.000Z</Time>
            <Position>
              <LatitudeDegrees>-15.3360034525394439697265625</LatitudeDegrees>
              <LongitudeDegrees>37.08303471095860004425048828125</LongitudeDegrees>
            </Position>
            <AltitudeMeters>1254.4000244140625</AltitudeMeters>
            <DistanceMeters>NAN</DistanceMeters>
          </Trackpoint>
          <Trackpoint>
            <Time>2021-08-03T07:21:34.000Z</Time>
            <Position>
              <LatitudeDegrees>-15.3360007703304290771484375</LatitudeDegrees>
              <LongitudeDegrees>37.08303789608180522918701171875</LongitudeDegrees>
            </Position>
            <AltitudeMeters>1254.4000244140625</AltitudeMeters>
            <DistanceMeters>NAN</DistanceMeters>
          </Trackpoint>
          <Trackpoint>
            <Time>2021-08-03T07:21:37.000Z</Time>
            <Position>
              <LatitudeDegrees>-15.3360249102115631103515625</LatitudeDegrees>
              <LongitudeDegrees>37.083037979900836944580078125</LongitudeDegrees>
            </Position>
            <AltitudeMeters>1254.4000244140625</AltitudeMeters>
            <DistanceMeters>NAN</DistanceMeters>
          </Trackpoint>
          <Trackpoint>
            <Time>2021-08-03T07:21:38.000Z</Time>
            <Position>
              <LatitudeDegrees>-15.33603505231440067291259765625</LatitudeDegrees>
              <LongitudeDegrees>37.08304099738597869873046875</LongitudeDegrees>
            </Position>
            <AltitudeMeters>1254.4000244140625</AltitudeMeters>
            <DistanceMeters>NAN</DistanceMeters>
          </Trackpoint>
          <Trackpoint>
            <Time>2021-08-03T07:21:44.000Z</Time>
            <Position>
              <LatitudeDegrees>-15.336101017892360687255859375</LatitudeDegrees>
              <LongitudeDegrees>37.0830441825091838836669921875</LongitudeDegrees>
            </Position>
            <AltitudeMeters>1254.199951171875</AltitudeMeters>
            <DistanceMeters>NAN</DistanceMeters>
          </Trackpoint>
          <Trackpoint>
            <Time>2021-08-03T07:21:45.000Z</Time>
            <Position>
              <LatitudeDegrees>-15.33611702732741832733154296875</LatitudeDegrees>
              <LongitudeDegrees>37.0830502174794673919677734375</LongitudeDegrees>
            </Position>
            <AltitudeMeters>1254.199951171875</AltitudeMeters>
            <DistanceMeters>NAN</DistanceMeters>
          </Trackpoint>
          <Trackpoint>
            <Time>2021-08-03T07:21:46.000Z</Time>
            <Position>
              <LatitudeDegrees>-15.33612473867833614349365234375</LatitudeDegrees>
              <LongitudeDegrees>37.08305683918297290802001953125</LongitudeDegrees>
            </Position>
            <AltitudeMeters>1254</AltitudeMeters>
            <DistanceMeters>NAN</DistanceMeters>
          </Trackpoint>
          <Trackpoint>
            <Time>2021-08-03T07:21:51.000Z</Time>
            <Position>
              <LatitudeDegrees>-15.33616773784160614013671875</LatitudeDegrees>
              <LongitudeDegrees>37.083071507513523101806640625</LongitudeDegrees>
            </Position>
            <AltitudeMeters>1253.5999755859375</AltitudeMeters>
            <DistanceMeters>NAN</DistanceMeters>
          </Trackpoint>
          <Trackpoint>
            <Time>2021-08-03T07:21:52.000Z</Time>
            <Position>
              <LatitudeDegrees>-15.33617653883993625640869140625</LatitudeDegrees>
              <LongitudeDegrees>37.08307444117963314056396484375</LongitudeDegrees>
            </Position>
            <AltitudeMeters>1253.5999755859375</AltitudeMeters>
            <DistanceMeters>NAN</DistanceMeters>
          </Trackpoint>
          <Trackpoint>
            <Time>2021-08-03T07:21:57.000Z</Time>
            <Position>
              <LatitudeDegrees>-15.3362269140779972076416015625</LatitudeDegrees>
              <LongitudeDegrees>37.08310143090784549713134765625</LongitudeDegrees>
            </Position>
            <AltitudeMeters>1252.800048828125</AltitudeMeters>
            <DistanceMeters>NAN</DistanceMeters>
          </Trackpoint>
          <Trackpoint>
            <Time>2021-08-03T07:22:02.000Z</Time>
            <Position>
              <LatitudeDegrees>-15.33627544529736042022705078125</LatitudeDegrees>
              <LongitudeDegrees>37.08310662768781185150146484375</LongitudeDegrees>
            </Position>
            <AltitudeMeters>1252.5999755859375</AltitudeMeters>
            <DistanceMeters>NAN</DistanceMeters>
          </Trackpoint>
          <Trackpoint>
            <Time>2021-08-03T07:22:03.000Z</Time>
            <Position>
              <LatitudeDegrees>-15.33628449775278568267822265625</LatitudeDegrees>
              <LongitudeDegrees>37.0831115730106830596923828125</LongitudeDegrees>
            </Position>
            <AltitudeMeters>1252.5999755859375</AltitudeMeters>
            <DistanceMeters>NAN</DistanceMeters>
          </Trackpoint>
          <Trackpoint>
            <Time>2021-08-03T07:22:05.000Z</Time>
            <Position>
              <LatitudeDegrees>-15.33631266094744205474853515625</LatitudeDegrees>
              <LongitudeDegrees>37.08311936818063259124755859375</LongitudeDegrees>
            </Position>
            <AltitudeMeters>1252</AltitudeMeters>
            <DistanceMeters>NAN</DistanceMeters>
          </Trackpoint>
          <Trackpoint>
            <Time>2021-08-03T07:22:06.000Z</Time>
            <Position>
              <LatitudeDegrees>-15.33632104285061359405517578125</LatitudeDegrees>
              <LongitudeDegrees>37.08312548696994781494140625</LongitudeDegrees>
            </Position>
            <AltitudeMeters>1252.4000244140625</AltitudeMeters>
            <DistanceMeters>NAN</DistanceMeters>
          </Trackpoint>
          <Trackpoint>
            <Time>2021-08-03T07:22:08.000Z</Time>
            <Position>
              <LatitudeDegrees>-15.3363409079611301422119140625</LatitudeDegrees>
              <LongitudeDegrees>37.0831296779215335845947265625</LongitudeDegrees>
            </Position>
            <AltitudeMeters>1252</AltitudeMeters>
            <DistanceMeters>NAN</DistanceMeters>
          </Trackpoint>
          <Trackpoint>
            <Time>2021-08-03T07:22:09.000Z</Time>
            <Position>
              <LatitudeDegrees>-15.33635415136814117431640625</LatitudeDegrees>
              <LongitudeDegrees>37.083125822246074676513671875</LongitudeDegrees>
            </Position>
            <AltitudeMeters>1251.800048828125</AltitudeMeters>
            <DistanceMeters>NAN</DistanceMeters>
          </Trackpoint>
          <Trackpoint>
            <Time>2021-08-03T07:22:15.000Z</Time>
            <Position>
              <LatitudeDegrees>-15.3364005871117115020751953125</LatitudeDegrees>
              <LongitudeDegrees>37.08310595713555812835693359375</LongitudeDegrees>
            </Position>
            <AltitudeMeters>1251.199951171875</AltitudeMeters>
            <DistanceMeters>NAN</DistanceMeters>
          </Trackpoint>
          <Trackpoint>
            <Time>2021-08-03T07:22:17.000Z</Time>
            <Position>
              <LatitudeDegrees>-15.336413495242595672607421875</LatitudeDegrees>
              <LongitudeDegrees>37.08309439010918140411376953125</LongitudeDegrees>
            </Position>
            <AltitudeMeters>1251</AltitudeMeters>
            <DistanceMeters>NAN</DistanceMeters>
          </Trackpoint>
          <Trackpoint>
            <Time>2021-08-03T07:22:18.000Z</Time>
            <Position>
              <LatitudeDegrees>-15.33641978166997432708740234375</LatitudeDegrees>
              <LongitudeDegrees>37.0830897800624370574951171875</LongitudeDegrees>
            </Position>
            <AltitudeMeters>1250.800048828125</AltitudeMeters>
            <DistanceMeters>NAN</DistanceMeters>
          </Trackpoint>
          <Trackpoint>
            <Time>2021-08-03T07:22:19.000Z</Time>
            <Position>
              <LatitudeDegrees>-15.3364299237728118896484375</LatitudeDegrees>
              <LongitudeDegrees>37.08308659493923187255859375</LongitudeDegrees>
            </Position>
            <AltitudeMeters>1250.5999755859375</AltitudeMeters>
            <DistanceMeters>NAN</DistanceMeters>
          </Trackpoint>
          <Trackpoint>
            <Time>2021-08-03T07:22:22.000Z</Time>
            <Position>
              <LatitudeDegrees>-15.33646521158516407012939453125</LatitudeDegrees>
              <LongitudeDegrees>37.08306723274290561676025390625</LongitudeDegrees>
            </Position>
            <AltitudeMeters>1250.199951171875</AltitudeMeters>
            <DistanceMeters>NAN</DistanceMeters>
          </Trackpoint>
          <Trackpoint>
            <Time>2021-08-03T07:22:24.000Z</Time>
            <Position>
              <LatitudeDegrees>-15.3364847414195537567138671875</LatitudeDegrees>
              <LongitudeDegrees>37.08304711617529392242431640625</LongitudeDegrees>
            </Position>
            <AltitudeMeters>1249.800048828125</AltitudeMeters>
            <DistanceMeters>NAN</DistanceMeters>
          </Trackpoint>
          <Trackpoint>
            <Time>2021-08-03T07:22:25.000Z</Time>
            <Position>
              <LatitudeDegrees>-15.33649438060820102691650390625</LatitudeDegrees>
              <LongitudeDegrees>37.08303965628147125244140625</LongitudeDegrees>
            </Position>
            <AltitudeMeters>1249.5999755859375</AltitudeMeters>
            <DistanceMeters>NAN</DistanceMeters>
          </Trackpoint>
          <Trackpoint>
            <Time>2021-08-03T07:22:29.000Z</Time>
            <Position>
              <LatitudeDegrees>-15.33653042279183864593505859375</LatitudeDegrees>
              <LongitudeDegrees>37.08301861770451068878173828125</LongitudeDegrees>
            </Position>
            <AltitudeMeters>1249.5999755859375</AltitudeMeters>
            <DistanceMeters>NAN</DistanceMeters>
          </Trackpoint>
          <Trackpoint>
            <Time>2021-08-03T07:22:34.000Z</Time>
            <Position>
              <LatitudeDegrees>-15.33657065592706203460693359375</LatitudeDegrees>
              <LongitudeDegrees>37.08299347199499607086181640625</LongitudeDegrees>
            </Position>
            <AltitudeMeters>1248.5999755859375</AltitudeMeters>
            <DistanceMeters>NAN</DistanceMeters>
          </Trackpoint>
          <Trackpoint>
            <Time>2021-08-03T07:22:37.000Z</Time>
            <Position>
              <LatitudeDegrees>-15.33660200424492359161376953125</LatitudeDegrees>
              <LongitudeDegrees>37.0829665660858154296875</LongitudeDegrees>
            </Position>
            <AltitudeMeters>1248.199951171875</AltitudeMeters>
            <DistanceMeters>NAN</DistanceMeters>
          </Trackpoint>
          <Trackpoint>
            <Time>2021-08-03T07:22:40.000Z</Time>
            <Position>
              <LatitudeDegrees>-15.33662564121186733245849609375</LatitudeDegrees>
              <LongitudeDegrees>37.0829462818801403045654296875</LongitudeDegrees>
            </Position>
            <AltitudeMeters>1247.5999755859375</AltitudeMeters>
            <DistanceMeters>NAN</DistanceMeters>
          </Trackpoint>
          <Trackpoint>
            <Time>2021-08-03T07:22:45.000Z</Time>
            <Position>
              <LatitudeDegrees>-15.336657576262950897216796875</LatitudeDegrees>
              <LongitudeDegrees>37.08290227688848972320556640625</LongitudeDegrees>
            </Position>
            <AltitudeMeters>1246.5999755859375</AltitudeMeters>
            <DistanceMeters>NAN</DistanceMeters>
          </Trackpoint>
          <Trackpoint>
            <Time>2021-08-03T07:22:47.000Z</Time>
            <Position>
              <LatitudeDegrees>-15.3366761840879917144775390625</LatitudeDegrees>
              <LongitudeDegrees>37.08288417197763919830322265625</LongitudeDegrees>
            </Position>
            <AltitudeMeters>1246.4000244140625</AltitudeMeters>
            <DistanceMeters>NAN</DistanceMeters>
          </Trackpoint>
          <Trackpoint>
            <Time>2021-08-03T07:22:53.000Z</Time>
            <Position>
              <LatitudeDegrees>-15.3367249667644500732421875</LatitudeDegrees>
              <LongitudeDegrees>37.082853578031063079833984375</LongitudeDegrees>
            </Position>
            <AltitudeMeters>1245.5999755859375</AltitudeMeters>
            <DistanceMeters>NAN</DistanceMeters>
          </Trackpoint>
          <Trackpoint>
            <Time>2021-08-03T07:22:56.000Z</Time>
            <Position>
              <LatitudeDegrees>-15.33675740472972393035888671875</LatitudeDegrees>
              <LongitudeDegrees>37.08283153362572193145751953125</LongitudeDegrees>
            </Position>
            <AltitudeMeters>1245.199951171875</AltitudeMeters>
            <DistanceMeters>NAN</DistanceMeters>
          </Trackpoint>
          <Trackpoint>
            <Time>2021-08-03T07:23:00.000Z</Time>
            <Position>
              <LatitudeDegrees>-15.33679042942821979522705078125</LatitudeDegrees>
              <LongitudeDegrees>37.082814015448093414306640625</LongitudeDegrees>
            </Position>
            <AltitudeMeters>1244.4000244140625</AltitudeMeters>
            <DistanceMeters>NAN</DistanceMeters>
          </Trackpoint>
          <Trackpoint>
            <Time>2021-08-03T07:23:01.000Z</Time>
            <Position>
              <LatitudeDegrees>-15.33679948188364505767822265625</LatitudeDegrees>
              <LongitudeDegrees>37.08280823193490505218505859375</LongitudeDegrees>
            </Position>
            <AltitudeMeters>1244.4000244140625</AltitudeMeters>
            <DistanceMeters>NAN</DistanceMeters>
          </Trackpoint>
          <Trackpoint>
            <Time>2021-08-03T07:23:03.000Z</Time>
            <Position>
              <LatitudeDegrees>-15.3368116356432437896728515625</LatitudeDegrees>
              <LongitudeDegrees>37.08279297687113285064697265625</LongitudeDegrees>
            </Position>
            <AltitudeMeters>1244.199951171875</AltitudeMeters>
            <DistanceMeters>NAN</DistanceMeters>
          </Trackpoint>
          <Trackpoint>
            <Time>2021-08-03T07:23:06.000Z</Time>
            <Position>
              <LatitudeDegrees>-15.336826555430889129638671875</LatitudeDegrees>
              <LongitudeDegrees>37.0827819965779781341552734375</LongitudeDegrees>
            </Position>
            <AltitudeMeters>1243.4000244140625</AltitudeMeters>
            <DistanceMeters>NAN</DistanceMeters>
          </Trackpoint>
          <Trackpoint>
            <Time>2021-08-03T07:23:08.000Z</Time>
            <Position>
              <LatitudeDegrees>-15.33684105612337589263916015625</LatitudeDegrees>
              <LongitudeDegrees>37.08277101628482341766357421875</LongitudeDegrees>
            </Position>
            <AltitudeMeters>1243</AltitudeMeters>
            <DistanceMeters>NAN</DistanceMeters>
          </Trackpoint>
          <Trackpoint>
            <Time>2021-08-03T07:23:15.000Z</Time>
            <Position>
              <LatitudeDegrees>-15.336902998387813568115234375</LatitudeDegrees>
              <LongitudeDegrees>37.082723490893840789794921875</LongitudeDegrees>
            </Position>
            <AltitudeMeters>1242.5999755859375</AltitudeMeters>
            <DistanceMeters>NAN</DistanceMeters>
          </Trackpoint>
          <Trackpoint>
            <Time>2021-08-03T07:23:19.000Z</Time>
            <Position>
              <LatitudeDegrees>-15.33694029785692691802978515625</LatitudeDegrees>
              <LongitudeDegrees>37.08268250338733196258544921875</LongitudeDegrees>
            </Position>
            <AltitudeMeters>1241.800048828125</AltitudeMeters>
            <DistanceMeters>NAN</DistanceMeters>
          </Trackpoint>
          <Trackpoint>
            <Time>2021-08-03T07:23:22.000Z</Time>
            <Position>
              <LatitudeDegrees>-15.33696167171001434326171875</LatitudeDegrees>
              <LongitudeDegrees>37.082665152847766876220703125</LongitudeDegrees>
            </Position>
            <AltitudeMeters>1241.800048828125</AltitudeMeters>
            <DistanceMeters>NAN</DistanceMeters>
          </Trackpoint>
          <Trackpoint>
            <Time>2021-08-03T07:23:29.000Z</Time>
            <Position>
              <LatitudeDegrees>-15.33701037056744098663330078125</LatitudeDegrees>
              <LongitudeDegrees>37.0826180465519428253173828125</LongitudeDegrees>
            </Position>
            <AltitudeMeters>1241</AltitudeMeters>
            <DistanceMeters>NAN</DistanceMeters>
          </Trackpoint>
          <Trackpoint>
            <Time>2021-08-03T07:23:30.000Z</Time>
            <Position>
              <LatitudeDegrees>-15.3370154835283756256103515625</LatitudeDegrees>
              <LongitudeDegrees>37.08261444233357906341552734375</LongitudeDegrees>
            </Position>
            <AltitudeMeters>1240.800048828125</AltitudeMeters>
            <DistanceMeters>NAN</DistanceMeters>
          </Trackpoint>
          <Trackpoint>
            <Time>2021-08-03T07:23:32.000Z</Time>
            <Position>
              <LatitudeDegrees>-15.33704238943755626678466796875</LatitudeDegrees>
              <LongitudeDegrees>37.08261444233357906341552734375</LongitudeDegrees>
            </Position>
            <AltitudeMeters>1240.5999755859375</AltitudeMeters>
            <DistanceMeters>NAN</DistanceMeters>
          </Trackpoint>
          <Trackpoint>
            <Time>2021-08-03T07:23:34.000Z</Time>
            <Position>
              <LatitudeDegrees>-15.33706317655742168426513671875</LatitudeDegrees>
              <LongitudeDegrees>37.0826220698654651641845703125</LongitudeDegrees>
            </Position>
            <AltitudeMeters>1240.4000244140625</AltitudeMeters>
            <DistanceMeters>NAN</DistanceMeters>
          </Trackpoint>
          <Trackpoint>
            <Time>2021-08-03T07:23:39.000Z</Time>
            <Position>
              <LatitudeDegrees>-15.3370969556272029876708984375</LatitudeDegrees>
              <LongitudeDegrees>37.082615196704864501953125</LongitudeDegrees>
            </Position>
            <AltitudeMeters>1240</AltitudeMeters>
            <DistanceMeters>NAN</DistanceMeters>
          </Trackpoint>
          <Trackpoint>
            <Time>2021-08-03T07:23:43.000Z</Time>
            <Position>
              <LatitudeDegrees>-15.3371234424412250518798828125</LatitudeDegrees>
              <LongitudeDegrees>37.0826036296784877777099609375</LongitudeDegrees>
            </Position>
            <AltitudeMeters>1240.4000244140625</AltitudeMeters>
            <DistanceMeters>NAN</DistanceMeters>
          </Trackpoint>
          <Trackpoint>
            <Time>2021-08-03T07:23:47.000Z</Time>
            <Position>
              <LatitudeDegrees>-15.33715135417878627777099609375</LatitudeDegrees>
              <LongitudeDegrees>37.08257068879902362823486328125</LongitudeDegrees>
            </Position>
            <AltitudeMeters>1240.199951171875</AltitudeMeters>
            <DistanceMeters>NAN</DistanceMeters>
          </Trackpoint>
          <Trackpoint>
            <Time>2021-08-03T07:23:51.000Z</Time>
            <Position>
              <LatitudeDegrees>-15.33717951737344264984130859375</LatitudeDegrees>
              <LongitudeDegrees>37.08253095857799053192138671875</LongitudeDegrees>
            </Position>
            <AltitudeMeters>1240.199951171875</AltitudeMeters>
            <DistanceMeters>NAN</DistanceMeters>
          </Trackpoint>
          <Trackpoint>
            <Time>2021-08-03T07:23:59.000Z</Time>
            <Position>
              <LatitudeDegrees>-15.33723467029631137847900390625</LatitudeDegrees>
              <LongitudeDegrees>37.08246239461004734039306640625</LongitudeDegrees>
            </Position>
            <AltitudeMeters>1240.199951171875</AltitudeMeters>
            <DistanceMeters>NAN</DistanceMeters>
          </Trackpoint>
          <Trackpoint>
            <Time>2021-08-03T07:24:12.000Z</Time>
            <Position>
              <LatitudeDegrees>-15.33733340911567211151123046875</LatitudeDegrees>
              <LongitudeDegrees>37.0823458023369312286376953125</LongitudeDegrees>
            </Position>
            <AltitudeMeters>1240.199951171875</AltitudeMeters>
            <DistanceMeters>NAN</DistanceMeters>
          </Trackpoint>
          <Trackpoint>
            <Time>2021-08-03T07:24:18.000Z</Time>
            <Position>
              <LatitudeDegrees>-15.33738118596374988555908203125</LatitudeDegrees>
              <LongitudeDegrees>37.08228989504277706146240234375</LongitudeDegrees>
            </Position>
            <AltitudeMeters>1239.4000244140625</AltitudeMeters>
            <DistanceMeters>NAN</DistanceMeters>
          </Trackpoint>
          <Trackpoint>
            <Time>2021-08-03T07:24:23.000Z</Time>
            <Position>
              <LatitudeDegrees>-15.33741974271833896636962890625</LatitudeDegrees>
              <LongitudeDegrees>37.08223641850054264068603515625</LongitudeDegrees>
            </Position>
            <AltitudeMeters>1239.5999755859375</AltitudeMeters>
            <DistanceMeters>NAN</DistanceMeters>
          </Trackpoint>
          <Trackpoint>
            <Time>2021-08-03T07:24:26.000Z</Time>
            <Position>
              <LatitudeDegrees>-15.33744203858077526092529296875</LatitudeDegrees>
              <LongitudeDegrees>37.08221663720905780792236328125</LongitudeDegrees>
            </Position>
            <AltitudeMeters>1239.800048828125</AltitudeMeters>
            <DistanceMeters>NAN</DistanceMeters>
          </Trackpoint>
          <Trackpoint>
            <Time>2021-08-03T07:24:28.000Z</Time>
            <Position>
              <LatitudeDegrees>-15.33746190369129180908203125</LatitudeDegrees>
              <LongitudeDegrees>37.082199119031429290771484375</LongitudeDegrees>
            </Position>
            <AltitudeMeters>1239.5999755859375</AltitudeMeters>
            <DistanceMeters>NAN</DistanceMeters>
          </Trackpoint>
          <Trackpoint>
            <Time>2021-08-03T07:24:32.000Z</Time>
            <Position>
              <LatitudeDegrees>-15.33749006688594818115234375</LatitudeDegrees>
              <LongitudeDegrees>37.08216257393360137939453125</LongitudeDegrees>
            </Position>
            <AltitudeMeters>1239.800048828125</AltitudeMeters>
            <DistanceMeters>NAN</DistanceMeters>
          </Trackpoint>
          <Trackpoint>
            <Time>2021-08-03T07:24:34.000Z</Time>
            <Position>
              <LatitudeDegrees>-15.337505154311656951904296875</LatitudeDegrees>
              <LongitudeDegrees>37.082145474851131439208984375</LongitudeDegrees>
            </Position>
            <AltitudeMeters>1239.800048828125</AltitudeMeters>
            <DistanceMeters>NAN</DistanceMeters>
          </Trackpoint>
          <Trackpoint>
            <Time>2021-08-03T07:24:37.000Z</Time>
            <Position>
              <LatitudeDegrees>-15.337527282536029815673828125</LatitudeDegrees>
              <LongitudeDegrees>37.0821161381900310516357421875</LongitudeDegrees>
            </Position>
            <AltitudeMeters>1239.800048828125</AltitudeMeters>
            <DistanceMeters>NAN</DistanceMeters>
          </Trackpoint>
          <Trackpoint>
            <Time>2021-08-03T07:24:44.000Z</Time>
            <Position>
              <LatitudeDegrees>-15.3375827707350254058837890625</LatitudeDegrees>
              <LongitudeDegrees>37.0820490829646587371826171875</LongitudeDegrees>
            </Position>
            <AltitudeMeters>1239.800048828125</AltitudeMeters>
            <DistanceMeters>NAN</DistanceMeters>
          </Trackpoint>
          <Trackpoint>
            <Time>2021-08-03T07:24:53.000Z</Time>
            <Position>
              <LatitudeDegrees>-15.3376575373113155364990234375</LatitudeDegrees>
              <LongitudeDegrees>37.081979177892208099365234375</LongitudeDegrees>
            </Position>
            <AltitudeMeters>1240</AltitudeMeters>
            <DistanceMeters>NAN</DistanceMeters>
          </Trackpoint>
          <Trackpoint>
            <Time>2021-08-03T07:24:56.000Z</Time>
            <Position>
              <LatitudeDegrees>-15.3376796655356884002685546875</LatitudeDegrees>
              <LongitudeDegrees>37.08196233026683330535888671875</LongitudeDegrees>
            </Position>
            <AltitudeMeters>1240</AltitudeMeters>
            <DistanceMeters>NAN</DistanceMeters>
          </Trackpoint>
          <Trackpoint>
            <Time>2021-08-03T07:24:57.000Z</Time>
            <Position>
              <LatitudeDegrees>-15.337688885629177093505859375</LatitudeDegrees>
              <LongitudeDegrees>37.0819575525820255279541015625</LongitudeDegrees>
            </Position>
            <AltitudeMeters>1240</AltitudeMeters>
            <DistanceMeters>NAN</DistanceMeters>
          </Trackpoint>
          <Trackpoint>
            <Time>2021-08-03T07:25:04.000Z</Time>
            <Position>
              <LatitudeDegrees>-15.33774462528526782989501953125</LatitudeDegrees>
              <LongitudeDegrees>37.08190977573394775390625</LongitudeDegrees>
            </Position>
            <AltitudeMeters>1240.199951171875</AltitudeMeters>
            <DistanceMeters>NAN</DistanceMeters>
          </Trackpoint>
          <Trackpoint>
            <Time>2021-08-03T07:25:07.000Z</Time>
            <Position>
              <LatitudeDegrees>-15.33776507712900638580322265625</LatitudeDegrees>
              <LongitudeDegrees>37.08190265111625194549560546875</LongitudeDegrees>
            </Position>
            <AltitudeMeters>1240.4000244140625</AltitudeMeters>
            <DistanceMeters>NAN</DistanceMeters>
          </Trackpoint>
          <Trackpoint>
            <Time>2021-08-03T07:25:16.000Z</Time>
            <Position>
              <LatitudeDegrees>-15.3378268517553806304931640625</LatitudeDegrees>
              <LongitudeDegrees>37.0818566344678401947021484375</LongitudeDegrees>
            </Position>
            <AltitudeMeters>1240.5999755859375</AltitudeMeters>
            <DistanceMeters>NAN</DistanceMeters>
          </Trackpoint>
          <Trackpoint>
            <Time>2021-08-03T07:25:19.000Z</Time>
            <Position>
              <LatitudeDegrees>-15.337857864797115325927734375</LatitudeDegrees>
              <LongitudeDegrees>37.08183341659605503082275390625</LongitudeDegrees>
            </Position>
            <AltitudeMeters>1240.800048828125</AltitudeMeters>
            <DistanceMeters>NAN</DistanceMeters>
          </Trackpoint>
          <Trackpoint>
            <Time>2021-08-03T07:25:24.000Z</Time>
            <Position>
              <LatitudeDegrees>-15.33790580928325653076171875</LatitudeDegrees>
              <LongitudeDegrees>37.08179653622210025787353515625</LongitudeDegrees>
            </Position>
            <AltitudeMeters>1240.800048828125</AltitudeMeters>
            <DistanceMeters>NAN</DistanceMeters>
          </Trackpoint>
          <Trackpoint>
            <Time>2021-08-03T07:25:26.000Z</Time>
            <Position>
              <LatitudeDegrees>-15.33792852424085140228271484375</LatitudeDegrees>
              <LongitudeDegrees>37.08179033361375331878662109375</LongitudeDegrees>
            </Position>
            <AltitudeMeters>1240.800048828125</AltitudeMeters>
            <DistanceMeters>NAN</DistanceMeters>
          </Trackpoint>
          <Trackpoint>
            <Time>2021-08-03T07:25:29.000Z</Time>
            <Position>
              <LatitudeDegrees>-15.3379582799971103668212890625</LatitudeDegrees>
              <LongitudeDegrees>37.08176770247519016265869140625</LongitudeDegrees>
            </Position>
            <AltitudeMeters>1239.5999755859375</AltitudeMeters>
            <DistanceMeters>NAN</DistanceMeters>
          </Trackpoint>
          <Trackpoint>
            <Time>2021-08-03T07:25:30.000Z</Time>
            <Position>
              <LatitudeDegrees>-15.3379696793854236602783203125</LatitudeDegrees>
              <LongitudeDegrees>37.08175898529589176177978515625</LongitudeDegrees>
            </Position>
            <AltitudeMeters>1239.5999755859375</AltitudeMeters>
            <DistanceMeters>NAN</DistanceMeters>
          </Trackpoint>
          <Trackpoint>
            <Time>2021-08-03T07:25:32.000Z</Time>
            <Position>
              <LatitudeDegrees>-15.33798786811530590057373046875</LatitudeDegrees>
              <LongitudeDegrees>37.0817501842975616455078125</LongitudeDegrees>
            </Position>
            <AltitudeMeters>1239.199951171875</AltitudeMeters>
            <DistanceMeters>NAN</DistanceMeters>
          </Trackpoint>
          <Trackpoint>
            <Time>2021-08-03T07:25:38.000Z</Time>
            <Position>
              <LatitudeDegrees>-15.33802893944084644317626953125</LatitudeDegrees>
              <LongitudeDegrees>37.08174792118370532989501953125</LongitudeDegrees>
            </Position>
            <AltitudeMeters>1238.4000244140625</AltitudeMeters>
            <DistanceMeters>NAN</DistanceMeters>
          </Trackpoint>
          <Trackpoint>
            <Time>2021-08-03T07:25:45.000Z</Time>
            <Position>
              <LatitudeDegrees>-15.3380783088505268096923828125</LatitudeDegrees>
              <LongitudeDegrees>37.0817624218761920928955078125</LongitudeDegrees>
            </Position>
            <AltitudeMeters>1238</AltitudeMeters>
            <DistanceMeters>NAN</DistanceMeters>
          </Trackpoint>
          <Trackpoint>
            <Time>2021-08-03T07:25:48.000Z</Time>
            <Position>
              <LatitudeDegrees>-15.33810186199843883514404296875</LatitudeDegrees>
              <LongitudeDegrees>37.08176904357969760894775390625</LongitudeDegrees>
            </Position>
            <AltitudeMeters>1237.5999755859375</AltitudeMeters>
            <DistanceMeters>NAN</DistanceMeters>
          </Trackpoint>
          <Trackpoint>
            <Time>2021-08-03T07:25:52.000Z</Time>
            <Position>
              <LatitudeDegrees>-15.3381349705159664154052734375</LatitudeDegrees>
              <LongitudeDegrees>37.08179016597568988800048828125</LongitudeDegrees>
            </Position>
            <AltitudeMeters>1237.4000244140625</AltitudeMeters>
            <DistanceMeters>NAN</DistanceMeters>
          </Trackpoint>
          <Trackpoint>
            <Time>2021-08-03T07:25:53.000Z</Time>
            <Position>
              <LatitudeDegrees>-15.33814276568591594696044921875</LatitudeDegrees>
              <LongitudeDegrees>37.0817999728024005889892578125</LongitudeDegrees>
            </Position>
            <AltitudeMeters>1237.5999755859375</AltitudeMeters>
            <DistanceMeters>NAN</DistanceMeters>
          </Trackpoint>
          <Trackpoint>
            <Time>2021-08-03T07:25:55.000Z</Time>
            <Position>
              <LatitudeDegrees>-15.3381679952144622802734375</LatitudeDegrees>
              <LongitudeDegrees>37.081815898418426513671875</LongitudeDegrees>
            </Position>
            <AltitudeMeters>1237.800048828125</AltitudeMeters>
            <DistanceMeters>NAN</DistanceMeters>
          </Trackpoint>
          <Trackpoint>
            <Time>2021-08-03T07:25:57.000Z</Time>
            <Position>
              <LatitudeDegrees>-15.3381980024278163909912109375</LatitudeDegrees>
              <LongitudeDegrees>37.08183140493929386138916015625</LongitudeDegrees>
            </Position>
            <AltitudeMeters>1237.800048828125</AltitudeMeters>
            <DistanceMeters>NAN</DistanceMeters>
          </Trackpoint>
          <Trackpoint>
            <Time>2021-08-03T07:25:58.000Z</Time>
            <Position>
              <LatitudeDegrees>-15.3382080607116222381591796875</LatitudeDegrees>
              <LongitudeDegrees>37.08184012211859226226806640625</LongitudeDegrees>
            </Position>
            <AltitudeMeters>1237.800048828125</AltitudeMeters>
            <DistanceMeters>NAN</DistanceMeters>
          </Trackpoint>
          <Trackpoint>
            <Time>2021-08-03T07:26:00.000Z</Time>
            <Position>
              <LatitudeDegrees>-15.3382248245179653167724609375</LatitudeDegrees>
              <LongitudeDegrees>37.08185613155364990234375</LongitudeDegrees>
            </Position>
            <AltitudeMeters>1237.800048828125</AltitudeMeters>
            <DistanceMeters>NAN</DistanceMeters>
          </Trackpoint>
          <Trackpoint>
            <Time>2021-08-03T07:26:01.000Z</Time>
            <Position>
              <LatitudeDegrees>-15.33823094330728054046630859375</LatitudeDegrees>
              <LongitudeDegrees>37.081863842904567718505859375</LongitudeDegrees>
            </Position>
            <AltitudeMeters>1237.800048828125</AltitudeMeters>
            <DistanceMeters>NAN</DistanceMeters>
          </Trackpoint>
          <Trackpoint>
            <Time>2021-08-03T07:26:05.000Z</Time>
            <Position>
              <LatitudeDegrees>-15.3382653929293155670166015625</LatitudeDegrees>
              <LongitudeDegrees>37.0818998850882053375244140625</LongitudeDegrees>
            </Position>
            <AltitudeMeters>1237.800048828125</AltitudeMeters>
            <DistanceMeters>NAN</DistanceMeters>
          </Trackpoint>
          <Trackpoint>
            <Time>2021-08-03T07:26:06.000Z</Time>
            <Position>
              <LatitudeDegrees>-15.338274948298931121826171875</LatitudeDegrees>
              <LongitudeDegrees>37.0819111168384552001953125</LongitudeDegrees>
            </Position>
            <AltitudeMeters>1238</AltitudeMeters>
            <DistanceMeters>NAN</DistanceMeters>
          </Trackpoint>
          <Trackpoint>
            <Time>2021-08-03T07:26:12.000Z</Time>
            <Position>
              <LatitudeDegrees>-15.33831073902547359466552734375</LatitudeDegrees>
              <LongitudeDegrees>37.08197674714028835296630859375</LongitudeDegrees>
            </Position>
            <AltitudeMeters>1238</AltitudeMeters>
            <DistanceMeters>NAN</DistanceMeters>
          </Trackpoint>
          <Trackpoint>
            <Time>2021-08-03T07:26:15.000Z</Time>
            <Position>
              <LatitudeDegrees>-15.338327586650848388671875</LatitudeDegrees>
              <LongitudeDegrees>37.0820118673145771026611328125</LongitudeDegrees>
            </Position>
            <AltitudeMeters>1238</AltitudeMeters>
            <DistanceMeters>NAN</DistanceMeters>
          </Trackpoint>
          <Trackpoint>
            <Time>2021-08-03T07:26:22.000Z</Time>
            <Position>
              <LatitudeDegrees>-15.3383632935583591461181640625</LatitudeDegrees>
              <LongitudeDegrees>37.08208034746348857879638671875</LongitudeDegrees>
            </Position>
            <AltitudeMeters>1237.5999755859375</AltitudeMeters>
            <DistanceMeters>NAN</DistanceMeters>
          </Trackpoint>
          <Trackpoint>
            <Time>2021-08-03T07:26:23.000Z</Time>
            <Position>
              <LatitudeDegrees>-15.33836974762380123138427734375</LatitudeDegrees>
              <LongitudeDegrees>37.08209208212792873382568359375</LongitudeDegrees>
            </Position>
            <AltitudeMeters>1237.5999755859375</AltitudeMeters>
            <DistanceMeters>NAN</DistanceMeters>
          </Trackpoint>
          <Trackpoint>
            <Time>2021-08-03T07:26:25.000Z</Time>
            <Position>
              <LatitudeDegrees>-15.3383793868124485015869140625</LatitudeDegrees>
              <LongitudeDegrees>37.08211437799036502838134765625</LongitudeDegrees>
            </Position>
            <AltitudeMeters>1237.5999755859375</AltitudeMeters>
            <DistanceMeters>NAN</DistanceMeters>
          </Trackpoint>
          <Trackpoint>
            <Time>2021-08-03T07:26:27.000Z</Time>
            <Position>
              <LatitudeDegrees>-15.3383964858949184417724609375</LatitudeDegrees>
              <LongitudeDegrees>37.0821292139589786529541015625</LongitudeDegrees>
            </Position>
            <AltitudeMeters>1237.4000244140625</AltitudeMeters>
            <DistanceMeters>NAN</DistanceMeters>
          </Trackpoint>
          <Trackpoint>
            <Time>2021-08-03T07:26:31.000Z</Time>
            <Position>
              <LatitudeDegrees>-15.3384236432611942291259765625</LatitudeDegrees>
              <LongitudeDegrees>37.08217523060739040374755859375</LongitudeDegrees>
            </Position>
            <AltitudeMeters>1237.4000244140625</AltitudeMeters>
            <DistanceMeters>NAN</DistanceMeters>
          </Trackpoint>
          <Trackpoint>
            <Time>2021-08-03T07:26:33.000Z</Time>
            <Position>
              <LatitudeDegrees>-15.33843076787889003753662109375</LatitudeDegrees>
              <LongitudeDegrees>37.082196436822414398193359375</LongitudeDegrees>
            </Position>
            <AltitudeMeters>1237.199951171875</AltitudeMeters>
            <DistanceMeters>NAN</DistanceMeters>
          </Trackpoint>
          <Trackpoint>
            <Time>2021-08-03T07:26:39.000Z</Time>
            <Position>
              <LatitudeDegrees>-15.3384603559970855712890625</LatitudeDegrees>
              <LongitudeDegrees>37.0822703652083873748779296875</LongitudeDegrees>
            </Position>
            <AltitudeMeters>1237.199951171875</AltitudeMeters>
            <DistanceMeters>NAN</DistanceMeters>
          </Trackpoint>
          <Trackpoint>
            <Time>2021-08-03T07:26:43.000Z</Time>
            <Position>
              <LatitudeDegrees>-15.33847988583147525787353515625</LatitudeDegrees>
              <LongitudeDegrees>37.08231336437165737152099609375</LongitudeDegrees>
            </Position>
            <AltitudeMeters>1237.4000244140625</AltitudeMeters>
            <DistanceMeters>NAN</DistanceMeters>
          </Trackpoint>
          <Trackpoint>
            <Time>2021-08-03T07:26:50.000Z</Time>
            <Position>
              <LatitudeDegrees>-15.338521040976047515869140625</LatitudeDegrees>
              <LongitudeDegrees>37.08240791223943233489990234375</LongitudeDegrees>
            </Position>
            <AltitudeMeters>1237.800048828125</AltitudeMeters>
            <DistanceMeters>NAN</DistanceMeters>
          </Trackpoint>
          <Trackpoint>
            <Time>2021-08-03T07:26:51.000Z</Time>
            <Position>
              <LatitudeDegrees>-15.33852565102279186248779296875</LatitudeDegrees>
              <LongitudeDegrees>37.08241998217999935150146484375</LongitudeDegrees>
            </Position>
            <AltitudeMeters>1237.800048828125</AltitudeMeters>
            <DistanceMeters>NAN</DistanceMeters>
          </Trackpoint>
          <Trackpoint>
            <Time>2021-08-03T07:26:57.000Z</Time>
            <Position>
              <LatitudeDegrees>-15.33855230547487735748291015625</LatitudeDegrees>
              <LongitudeDegrees>37.08248385228216648101806640625</LongitudeDegrees>
            </Position>
            <AltitudeMeters>1238.5999755859375</AltitudeMeters>
            <DistanceMeters>NAN</DistanceMeters>
          </Trackpoint>
          <Trackpoint>
            <Time>2021-08-03T07:27:00.000Z</Time>
            <Position>
              <LatitudeDegrees>-15.33857191912829875946044921875</LatitudeDegrees>
              <LongitudeDegrees>37.0825201459228992462158203125</LongitudeDegrees>
            </Position>
            <AltitudeMeters>1238.5999755859375</AltitudeMeters>
            <DistanceMeters>NAN</DistanceMeters>
          </Trackpoint>
          <Trackpoint>
            <Time>2021-08-03T07:27:15.000Z</Time>
            <Position>
              <LatitudeDegrees>-15.33865406177937984466552734375</LatitudeDegrees>
              <LongitudeDegrees>37.08269021473824977874755859375</LongitudeDegrees>
            </Position>
            <AltitudeMeters>1238.5999755859375</AltitudeMeters>
            <DistanceMeters>NAN</DistanceMeters>
          </Trackpoint>
          <Trackpoint>
            <Time>2021-08-03T07:27:21.000Z</Time>
            <Position>
              <LatitudeDegrees>-15.33869211561977863311767578125</LatitudeDegrees>
              <LongitudeDegrees>37.0827558450400829315185546875</LongitudeDegrees>
            </Position>
            <AltitudeMeters>1237.800048828125</AltitudeMeters>
            <DistanceMeters>NAN</DistanceMeters>
          </Trackpoint>
          <Trackpoint>
            <Time>2021-08-03T07:27:23.000Z</Time>
            <Position>
              <LatitudeDegrees>-15.3387106396257877349853515625</LatitudeDegrees>
              <LongitudeDegrees>37.08277487196028232574462890625</LongitudeDegrees>
            </Position>
            <AltitudeMeters>1237</AltitudeMeters>
            <DistanceMeters>NAN</DistanceMeters>
          </Trackpoint>
          <Trackpoint>
            <Time>2021-08-03T07:27:24.000Z</Time>
            <Position>
              <LatitudeDegrees>-15.33871977590024471282958984375</LatitudeDegrees>
              <LongitudeDegrees>37.08278677426278591156005859375</LongitudeDegrees>
            </Position>
            <AltitudeMeters>1236.800048828125</AltitudeMeters>
            <DistanceMeters>NAN</DistanceMeters>
          </Trackpoint>
          <Trackpoint>
            <Time>2021-08-03T07:27:32.000Z</Time>
            <Position>
              <LatitudeDegrees>-15.3387673012912273406982421875</LatitudeDegrees>
              <LongitudeDegrees>37.0828584395349025726318359375</LongitudeDegrees>
            </Position>
            <AltitudeMeters>1236.4000244140625</AltitudeMeters>
            <DistanceMeters>NAN</DistanceMeters>
          </Trackpoint>
          <Trackpoint>
            <Time>2021-08-03T07:27:41.000Z</Time>
            <Position>
              <LatitudeDegrees>-15.33882086165249347686767578125</LatitudeDegrees>
              <LongitudeDegrees>37.08297117613255977630615234375</LongitudeDegrees>
            </Position>
            <AltitudeMeters>1236.800048828125</AltitudeMeters>
            <DistanceMeters>NAN</DistanceMeters>
          </Trackpoint>
          <Trackpoint>
            <Time>2021-08-03T07:27:55.000Z</Time>
            <Position>
              <LatitudeDegrees>-15.33890987746417522430419921875</LatitudeDegrees>
              <LongitudeDegrees>37.08312909118831157684326171875</LongitudeDegrees>
            </Position>
            <AltitudeMeters>1237.800048828125</AltitudeMeters>
            <DistanceMeters>NAN</DistanceMeters>
          </Trackpoint>
          <Trackpoint>
            <Time>2021-08-03T07:27:58.000Z</Time>
            <Position>
              <LatitudeDegrees>-15.33892915584146976470947265625</LatitudeDegrees>
              <LongitudeDegrees>37.083159349858760833740234375</LongitudeDegrees>
            </Position>
            <AltitudeMeters>1238.199951171875</AltitudeMeters>
            <DistanceMeters>NAN</DistanceMeters>
          </Trackpoint>
          <Trackpoint>
            <Time>2021-08-03T07:28:05.000Z</Time>
            <Position>
              <LatitudeDegrees>-15.33897039480507373809814453125</LatitudeDegrees>
              <LongitudeDegrees>37.08323252387344837188720703125</LongitudeDegrees>
            </Position>
            <AltitudeMeters>1238.5999755859375</AltitudeMeters>
            <DistanceMeters>NAN</DistanceMeters>
          </Trackpoint>
          <Trackpoint>
            <Time>2021-08-03T07:28:07.000Z</Time>
            <Position>
              <LatitudeDegrees>-15.3389807045459747314453125</LatitudeDegrees>
              <LongitudeDegrees>37.083252556622028350830078125</LongitudeDegrees>
            </Position>
            <AltitudeMeters>1238.5999755859375</AltitudeMeters>
            <DistanceMeters>NAN</DistanceMeters>
          </Trackpoint>
          <Trackpoint>
            <Time>2021-08-03T07:28:15.000Z</Time>
            <Position>
              <LatitudeDegrees>-15.3390314988791942596435546875</LatitudeDegrees>
              <LongitudeDegrees>37.0833219587802886962890625</LongitudeDegrees>
            </Position>
            <AltitudeMeters>1239.199951171875</AltitudeMeters>
            <DistanceMeters>NAN</DistanceMeters>
          </Trackpoint>
          <Trackpoint>
            <Time>2021-08-03T07:28:17.000Z</Time>
            <Position>
              <LatitudeDegrees>-15.339042730629444122314453125</LatitudeDegrees>
              <LongitudeDegrees>37.08334199152886867523193359375</LongitudeDegrees>
            </Position>
            <AltitudeMeters>1239.199951171875</AltitudeMeters>
            <DistanceMeters>NAN</DistanceMeters>
          </Trackpoint>
          <Trackpoint>
            <Time>2021-08-03T07:28:23.000Z</Time>
            <Position>
              <LatitudeDegrees>-15.3390665352344512939453125</LatitudeDegrees>
              <LongitudeDegrees>37.08339915610849857330322265625</LongitudeDegrees>
            </Position>
            <AltitudeMeters>1239.199951171875</AltitudeMeters>
            <DistanceMeters>NAN</DistanceMeters>
          </Trackpoint>
          <Trackpoint>
            <Time>2021-08-03T07:28:29.000Z</Time>
            <Position>
              <LatitudeDegrees>-15.33911146223545074462890625</LatitudeDegrees>
              <LongitudeDegrees>37.083447687327861785888671875</LongitudeDegrees>
            </Position>
            <AltitudeMeters>1240.199951171875</AltitudeMeters>
            <DistanceMeters>NAN</DistanceMeters>
          </Trackpoint>
          <Trackpoint>
            <Time>2021-08-03T07:28:30.000Z</Time>
            <Position>
              <LatitudeDegrees>-15.33911674283444881439208984375</LatitudeDegrees>
              <LongitudeDegrees>37.08345581777393817901611328125</LongitudeDegrees>
            </Position>
            <AltitudeMeters>1240.199951171875</AltitudeMeters>
            <DistanceMeters>NAN</DistanceMeters>
          </Trackpoint>
          <Trackpoint>
            <Time>2021-08-03T07:28:39.000Z</Time>
            <Position>
              <LatitudeDegrees>-15.33917139284312725067138671875</LatitudeDegrees>
              <LongitudeDegrees>37.083520777523517608642578125</LongitudeDegrees>
            </Position>
            <AltitudeMeters>1240.800048828125</AltitudeMeters>
            <DistanceMeters>NAN</DistanceMeters>
          </Trackpoint>
          <Trackpoint>
            <Time>2021-08-03T07:28:41.000Z</Time>
            <Position>
              <LatitudeDegrees>-15.33918580971658229827880859375</LatitudeDegrees>
              <LongitudeDegrees>37.08354030735790729522705078125</LongitudeDegrees>
            </Position>
            <AltitudeMeters>1241</AltitudeMeters>
            <DistanceMeters>NAN</DistanceMeters>
          </Trackpoint>
          <Trackpoint>
            <Time>2021-08-03T07:28:45.000Z</Time>
            <Position>
              <LatitudeDegrees>-15.33920810557901859283447265625</LatitudeDegrees>
              <LongitudeDegrees>37.08357953466475009918212890625</LongitudeDegrees>
            </Position>
            <AltitudeMeters>1241.199951171875</AltitudeMeters>
            <DistanceMeters>NAN</DistanceMeters>
          </Trackpoint>
          <Trackpoint>
            <Time>2021-08-03T07:28:51.000Z</Time>
            <Position>
              <LatitudeDegrees>-15.33924850635230541229248046875</LatitudeDegrees>
              <LongitudeDegrees>37.08363016135990619659423828125</LongitudeDegrees>
            </Position>
            <AltitudeMeters>1241.800048828125</AltitudeMeters>
            <DistanceMeters>NAN</DistanceMeters>
          </Trackpoint>
          <Trackpoint>
            <Time>2021-08-03T07:28:55.000Z</Time>
            <Position>
              <LatitudeDegrees>-15.33927851356565952301025390625</LatitudeDegrees>
              <LongitudeDegrees>37.083666622638702392578125</LongitudeDegrees>
            </Position>
            <AltitudeMeters>1242.199951171875</AltitudeMeters>
            <DistanceMeters>NAN</DistanceMeters>
          </Trackpoint>
          <Trackpoint>
            <Time>2021-08-03T07:29:01.000Z</Time>
            <Position>
              <LatitudeDegrees>-15.33931891433894634246826171875</LatitudeDegrees>
              <LongitudeDegrees>37.08371599204838275909423828125</LongitudeDegrees>
            </Position>
            <AltitudeMeters>1242.5999755859375</AltitudeMeters>
            <DistanceMeters>NAN</DistanceMeters>
          </Trackpoint>
          <Trackpoint>
            <Time>2021-08-03T07:29:02.000Z</Time>
            <Position>
              <LatitudeDegrees>-15.339330732822418212890625</LatitudeDegrees>
              <LongitudeDegrees>37.08372236229479312896728515625</LongitudeDegrees>
            </Position>
            <AltitudeMeters>1242.4000244140625</AltitudeMeters>
            <DistanceMeters>NAN</DistanceMeters>
          </Trackpoint>
          <Trackpoint>
            <Time>2021-08-03T07:29:12.000Z</Time>
            <Position>
              <LatitudeDegrees>-15.3394267894327640533447265625</LatitudeDegrees>
              <LongitudeDegrees>37.08380048163235187530517578125</LongitudeDegrees>
            </Position>
            <AltitudeMeters>1242.199951171875</AltitudeMeters>
            <DistanceMeters>NAN</DistanceMeters>
          </Trackpoint>
          <Trackpoint>
            <Time>2021-08-03T07:29:13.000Z</Time>
            <Position>
              <LatitudeDegrees>-15.3394358418881893157958984375</LatitudeDegrees>
              <LongitudeDegrees>37.08380877971649169921875</LongitudeDegrees>
            </Position>
            <AltitudeMeters>1242.4000244140625</AltitudeMeters>
            <DistanceMeters>NAN</DistanceMeters>
          </Trackpoint>
          <Trackpoint>
            <Time>2021-08-03T07:29:15.000Z</Time>
            <Position>
              <LatitudeDegrees>-15.3394556231796741485595703125</LatitudeDegrees>
              <LongitudeDegrees>37.08382328040897846221923828125</LongitudeDegrees>
            </Position>
            <AltitudeMeters>1242.4000244140625</AltitudeMeters>
            <DistanceMeters>NAN</DistanceMeters>
          </Trackpoint>
          <Trackpoint>
            <Time>2021-08-03T07:29:19.000Z</Time>
            <Position>
              <LatitudeDegrees>-15.33948604948818683624267578125</LatitudeDegrees>
              <LongitudeDegrees>37.08386183716356754302978515625</LongitudeDegrees>
            </Position>
            <AltitudeMeters>1242.4000244140625</AltitudeMeters>
            <DistanceMeters>NAN</DistanceMeters>
          </Trackpoint>
          <Trackpoint>
            <Time>2021-08-03T07:29:21.000Z</Time>
            <Position>
              <LatitudeDegrees>-15.339502729475498199462890625</LatitudeDegrees>
              <LongitudeDegrees>37.08387843333184719085693359375</LongitudeDegrees>
            </Position>
            <AltitudeMeters>1242.4000244140625</AltitudeMeters>
            <DistanceMeters>NAN</DistanceMeters>
          </Trackpoint>
          <Trackpoint>
            <Time>2021-08-03T07:29:23.000Z</Time>
            <Position>
              <LatitudeDegrees>-15.33952175639569759368896484375</LatitudeDegrees>
              <LongitudeDegrees>37.08388899452984333038330078125</LongitudeDegrees>
            </Position>
            <AltitudeMeters>1242.4000244140625</AltitudeMeters>
            <DistanceMeters>NAN</DistanceMeters>
          </Trackpoint>
          <Trackpoint>
            <Time>2021-08-03T07:29:24.000Z</Time>
            <Position>
              <LatitudeDegrees>-15.3395324014127254486083984375</LatitudeDegrees>
              <LongitudeDegrees>37.08389486186206340789794921875</LongitudeDegrees>
            </Position>
            <AltitudeMeters>1242.5999755859375</AltitudeMeters>
            <DistanceMeters>NAN</DistanceMeters>
          </Trackpoint>
          <Trackpoint>
            <Time>2021-08-03T07:29:33.000Z</Time>
            <Position>
              <LatitudeDegrees>-15.3396138735115528106689453125</LatitudeDegrees>
              <LongitudeDegrees>37.08395655266940593719482421875</LongitudeDegrees>
            </Position>
            <AltitudeMeters>1242.5999755859375</AltitudeMeters>
            <DistanceMeters>NAN</DistanceMeters>
          </Trackpoint>
          <Trackpoint>
            <Time>2021-08-03T07:29:46.000Z</Time>
            <Position>
              <LatitudeDegrees>-15.3397530131042003631591796875</LatitudeDegrees>
              <LongitudeDegrees>37.0840282179415225982666015625</LongitudeDegrees>
            </Position>
            <AltitudeMeters>1242.800048828125</AltitudeMeters>
            <DistanceMeters>NAN</DistanceMeters>
          </Trackpoint>
          <Trackpoint>
            <Time>2021-08-03T07:29:52.000Z</Time>
            <Position>
              <LatitudeDegrees>-15.33980925567448139190673828125</LatitudeDegrees>
              <LongitudeDegrees>37.0840630866587162017822265625</LongitudeDegrees>
            </Position>
            <AltitudeMeters>1242.5999755859375</AltitudeMeters>
            <DistanceMeters>NAN</DistanceMeters>
          </Trackpoint>
          <Trackpoint>
            <Time>2021-08-03T07:29:56.000Z</Time>
            <Position>
              <LatitudeDegrees>-15.33984370529651641845703125</LatitudeDegrees>
              <LongitudeDegrees>37.08408898673951625823974609375</LongitudeDegrees>
            </Position>
            <AltitudeMeters>1242.199951171875</AltitudeMeters>
            <DistanceMeters>NAN</DistanceMeters>
          </Trackpoint>
          <Trackpoint>
            <Time>2021-08-03T07:29:59.000Z</Time>
            <Position>
              <LatitudeDegrees>-15.33986776135861873626708984375</LatitudeDegrees>
              <LongitudeDegrees>37.0841063372790813446044921875</LongitudeDegrees>
            </Position>
            <AltitudeMeters>1242.5999755859375</AltitudeMeters>
            <DistanceMeters>NAN</DistanceMeters>
          </Trackpoint>
          <Trackpoint>
            <Time>2021-08-03T07:30:04.000Z</Time>
            <Position>
              <LatitudeDegrees>-15.3399194777011871337890625</LatitudeDegrees>
              <LongitudeDegrees>37.0841319859027862548828125</LongitudeDegrees>
            </Position>
            <AltitudeMeters>1241.800048828125</AltitudeMeters>
            <DistanceMeters>NAN</DistanceMeters>
          </Trackpoint>
          <Trackpoint>
            <Time>2021-08-03T07:30:06.000Z</Time>
            <Position>
              <LatitudeDegrees>-15.33993565477430820465087890625</LatitudeDegrees>
              <LongitudeDegrees>37.08413877524435520172119140625</LongitudeDegrees>
            </Position>
            <AltitudeMeters>1241.199951171875</AltitudeMeters>
            <DistanceMeters>NAN</DistanceMeters>
          </Trackpoint>
          <Trackpoint>
            <Time>2021-08-03T07:30:09.000Z</Time>
            <Position>
              <LatitudeDegrees>-15.33996306359767913818359375</LatitudeDegrees>
              <LongitudeDegrees>37.08415101282298564910888671875</LongitudeDegrees>
            </Position>
            <AltitudeMeters>1240.199951171875</AltitudeMeters>
            <DistanceMeters>NAN</DistanceMeters>
          </Trackpoint>
          <Trackpoint>
            <Time>2021-08-03T07:30:12.000Z</Time>
            <Position>
              <LatitudeDegrees>-15.34000405110418796539306640625</LatitudeDegrees>
              <LongitudeDegrees>37.08416274748742580413818359375</LongitudeDegrees>
            </Position>
            <AltitudeMeters>1240</AltitudeMeters>
            <DistanceMeters>NAN</DistanceMeters>
          </Trackpoint>
          <Trackpoint>
            <Time>2021-08-03T07:30:19.000Z</Time>
            <Position>
              <LatitudeDegrees>-15.3400790691375732421875</LatitudeDegrees>
              <LongitudeDegrees>37.08419300615787506103515625</LongitudeDegrees>
            </Position>
            <AltitudeMeters>1240.199951171875</AltitudeMeters>
            <DistanceMeters>NAN</DistanceMeters>
          </Trackpoint>
          <Trackpoint>
            <Time>2021-08-03T07:30:21.000Z</Time>
            <Position>
              <LatitudeDegrees>-15.34009717404842376708984375</LatitudeDegrees>
              <LongitudeDegrees>37.084203399717807769775390625</LongitudeDegrees>
            </Position>
            <AltitudeMeters>1239.800048828125</AltitudeMeters>
            <DistanceMeters>NAN</DistanceMeters>
          </Trackpoint>
          <Trackpoint>
            <Time>2021-08-03T07:30:25.000Z</Time>
            <Position>
              <LatitudeDegrees>-15.3401442803442478179931640625</LatitudeDegrees>
              <LongitudeDegrees>37.08423449657857418060302734375</LongitudeDegrees>
            </Position>
            <AltitudeMeters>1239.5999755859375</AltitudeMeters>
            <DistanceMeters>NAN</DistanceMeters>
          </Trackpoint>
          <Trackpoint>
            <Time>2021-08-03T07:30:28.000Z</Time>
            <Position>
              <LatitudeDegrees>-15.34017152152955532073974609375</LatitudeDegrees>
              <LongitudeDegrees>37.08424941636621952056884765625</LongitudeDegrees>
            </Position>
            <AltitudeMeters>1239.800048828125</AltitudeMeters>
            <DistanceMeters>NAN</DistanceMeters>
          </Trackpoint>
          <Trackpoint>
            <Time>2021-08-03T07:30:32.000Z</Time>
            <Position>
              <LatitudeDegrees>-15.34021125175058841705322265625</LatitudeDegrees>
              <LongitudeDegrees>37.08427942357957363128662109375</LongitudeDegrees>
            </Position>
            <AltitudeMeters>1239.5999755859375</AltitudeMeters>
            <DistanceMeters>NAN</DistanceMeters>
          </Trackpoint>
          <Trackpoint>
            <Time>2021-08-03T07:30:35.000Z</Time>
            <Position>
              <LatitudeDegrees>-15.34024109132587909698486328125</LatitudeDegrees>
              <LongitudeDegrees>37.084297947585582733154296875</LongitudeDegrees>
            </Position>
            <AltitudeMeters>1239.5999755859375</AltitudeMeters>
            <DistanceMeters>NAN</DistanceMeters>
          </Trackpoint>
          <Trackpoint>
            <Time>2021-08-03T07:30:37.000Z</Time>
            <Position>
              <LatitudeDegrees>-15.3402643091976642608642578125</LatitudeDegrees>
              <LongitudeDegrees>37.08431362174451351165771484375</LongitudeDegrees>
            </Position>
            <AltitudeMeters>1239.4000244140625</AltitudeMeters>
            <DistanceMeters>NAN</DistanceMeters>
          </Trackpoint>
          <Trackpoint>
            <Time>2021-08-03T07:30:42.000Z</Time>
            <Position>
              <LatitudeDegrees>-15.34031569026410579681396484375</LatitudeDegrees>
              <LongitudeDegrees>37.0843443833291530609130859375</LongitudeDegrees>
            </Position>
            <AltitudeMeters>1239.4000244140625</AltitudeMeters>
            <DistanceMeters>NAN</DistanceMeters>
          </Trackpoint>
          <Trackpoint>
            <Time>2021-08-03T07:30:44.000Z</Time>
            <Position>
              <LatitudeDegrees>-15.34033798612654209136962890625</LatitudeDegrees>
              <LongitudeDegrees>37.0843608118593692779541015625</LongitudeDegrees>
            </Position>
            <AltitudeMeters>1239</AltitudeMeters>
            <DistanceMeters>NAN</DistanceMeters>
          </Trackpoint>
          <Trackpoint>
            <Time>2021-08-03T07:30:47.000Z</Time>
            <Position>
              <LatitudeDegrees>-15.34036614932119846343994140625</LatitudeDegrees>
              <LongitudeDegrees>37.0843752287328243255615234375</LongitudeDegrees>
            </Position>
            <AltitudeMeters>1239.4000244140625</AltitudeMeters>
            <DistanceMeters>NAN</DistanceMeters>
          </Trackpoint>
          <Trackpoint>
            <Time>2021-08-03T07:30:49.000Z</Time>
            <Position>
              <LatitudeDegrees>-15.34038308076560497283935546875</LatitudeDegrees>
              <LongitudeDegrees>37.084387801587581634521484375</LongitudeDegrees>
            </Position>
            <AltitudeMeters>1239.199951171875</AltitudeMeters>
            <DistanceMeters>NAN</DistanceMeters>
          </Trackpoint>
          <Trackpoint>
            <Time>2021-08-03T07:30:52.000Z</Time>
            <Position>
              <LatitudeDegrees>-15.340416021645069122314453125</LatitudeDegrees>
              <LongitudeDegrees>37.0844161324203014373779296875</LongitudeDegrees>
            </Position>
            <AltitudeMeters>1239</AltitudeMeters>
            <DistanceMeters>NAN</DistanceMeters>
          </Trackpoint>
          <Trackpoint>
            <Time>2021-08-03T07:30:55.000Z</Time>
            <Position>
              <LatitudeDegrees>-15.34044929780066013336181640625</LatitudeDegrees>
              <LongitudeDegrees>37.08443574607372283935546875</LongitudeDegrees>
            </Position>
            <AltitudeMeters>1239</AltitudeMeters>
            <DistanceMeters>NAN</DistanceMeters>
          </Trackpoint>
          <Trackpoint>
            <Time>2021-08-03T07:31:01.000Z</Time>
            <Position>
              <LatitudeDegrees>-15.3405040316283702850341796875</LatitudeDegrees>
              <LongitudeDegrees>37.0844821818172931671142578125</LongitudeDegrees>
            </Position>
            <AltitudeMeters>1239.4000244140625</AltitudeMeters>
            <DistanceMeters>NAN</DistanceMeters>
          </Trackpoint>
          <Trackpoint>
            <Time>2021-08-03T07:31:02.000Z</Time>
            <Position>
              <LatitudeDegrees>-15.340510904788970947265625</LatitudeDegrees>
              <LongitudeDegrees>37.0844902284443378448486328125</LongitudeDegrees>
            </Position>
            <AltitudeMeters>1239.4000244140625</AltitudeMeters>
            <DistanceMeters>NAN</DistanceMeters>
          </Trackpoint>
          <Trackpoint>
            <Time>2021-08-03T07:31:09.000Z</Time>
            <Position>
              <LatitudeDegrees>-15.340576283633708953857421875</LatitudeDegrees>
              <LongitudeDegrees>37.08455334417521953582763671875</LongitudeDegrees>
            </Position>
            <AltitudeMeters>1239.5999755859375</AltitudeMeters>
            <DistanceMeters>NAN</DistanceMeters>
          </Trackpoint>
          <Trackpoint>
            <Time>2021-08-03T07:31:14.000Z</Time>
            <Position>
              <LatitudeDegrees>-15.34061559475958347320556640625</LatitudeDegrees>
              <LongitudeDegrees>37.0845911465585231781005859375</LongitudeDegrees>
            </Position>
            <AltitudeMeters>1239</AltitudeMeters>
            <DistanceMeters>NAN</DistanceMeters>
          </Trackpoint>
          <Trackpoint>
            <Time>2021-08-03T07:31:16.000Z</Time>
            <Position>
              <LatitudeDegrees>-15.34062984399497509002685546875</LatitudeDegrees>
              <LongitudeDegrees>37.0846079103648662567138671875</LongitudeDegrees>
            </Position>
            <AltitudeMeters>1239</AltitudeMeters>
            <DistanceMeters>NAN</DistanceMeters>
          </Trackpoint>
          <Trackpoint>
            <Time>2021-08-03T07:31:17.000Z</Time>
            <Position>
              <LatitudeDegrees>-15.34064359031617641448974609375</LatitudeDegrees>
              <LongitudeDegrees>37.08461822010576725006103515625</LongitudeDegrees>
            </Position>
            <AltitudeMeters>1239</AltitudeMeters>
            <DistanceMeters>NAN</DistanceMeters>
          </Trackpoint>
          <Trackpoint>
            <Time>2021-08-03T07:31:21.000Z</Time>
            <Position>
              <LatitudeDegrees>-15.3406798839569091796875</LatitudeDegrees>
              <LongitudeDegrees>37.084642946720123291015625</LongitudeDegrees>
            </Position>
            <AltitudeMeters>1239.199951171875</AltitudeMeters>
            <DistanceMeters>NAN</DistanceMeters>
          </Trackpoint>
          <Trackpoint>
            <Time>2021-08-03T07:31:26.000Z</Time>
            <Position>
              <LatitudeDegrees>-15.3407249785959720611572265625</LatitudeDegrees>
              <LongitudeDegrees>37.08468854427337646484375</LongitudeDegrees>
            </Position>
            <AltitudeMeters>1238.5999755859375</AltitudeMeters>
            <DistanceMeters>NAN</DistanceMeters>
          </Trackpoint>
          <Trackpoint>
            <Time>2021-08-03T07:31:35.000Z</Time>
            <Position>
              <LatitudeDegrees>-15.34080393612384796142578125</LatitudeDegrees>
              <LongitudeDegrees>37.08475501276552677154541015625</LongitudeDegrees>
            </Position>
            <AltitudeMeters>1238.199951171875</AltitudeMeters>
            <DistanceMeters>NAN</DistanceMeters>
          </Trackpoint>
          <Trackpoint>
            <Time>2021-08-03T07:31:37.000Z</Time>
            <Position>
              <LatitudeDegrees>-15.34082547761499881744384765625</LatitudeDegrees>
              <LongitudeDegrees>37.08477261476218700408935546875</LongitudeDegrees>
            </Position>
            <AltitudeMeters>1238.4000244140625</AltitudeMeters>
            <DistanceMeters>NAN</DistanceMeters>
          </Trackpoint>
          <Trackpoint>
            <Time>2021-08-03T07:31:41.000Z</Time>
            <Position>
              <LatitudeDegrees>-15.3408550657331943511962890625</LatitudeDegrees>
              <LongitudeDegrees>37.0847990177571773529052734375</LongitudeDegrees>
            </Position>
            <AltitudeMeters>1238.4000244140625</AltitudeMeters>
            <DistanceMeters>NAN</DistanceMeters>
          </Trackpoint>
          <Trackpoint>
            <Time>2021-08-03T07:31:42.000Z</Time>
            <Position>
              <LatitudeDegrees>-15.340865962207317352294921875</LatitudeDegrees>
              <LongitudeDegrees>37.08480882458388805389404296875</LongitudeDegrees>
            </Position>
            <AltitudeMeters>1238</AltitudeMeters>
            <DistanceMeters>NAN</DistanceMeters>
          </Trackpoint>
          <Trackpoint>
            <Time>2021-08-03T07:31:43.000Z</Time>
            <Position>
              <LatitudeDegrees>-15.34087224863469600677490234375</LatitudeDegrees>
              <LongitudeDegrees>37.0848181284964084625244140625</LongitudeDegrees>
            </Position>
            <AltitudeMeters>1237.5999755859375</AltitudeMeters>
            <DistanceMeters>NAN</DistanceMeters>
          </Trackpoint>
          <Trackpoint>
            <Time>2021-08-03T07:31:48.000Z</Time>
            <Position>
              <LatitudeDegrees>-15.34092203713953495025634765625</LatitudeDegrees>
              <LongitudeDegrees>37.0848576910793781280517578125</LongitudeDegrees>
            </Position>
            <AltitudeMeters>1237.5999755859375</AltitudeMeters>
            <DistanceMeters>NAN</DistanceMeters>
          </Trackpoint>
          <Trackpoint>
            <Time>2021-08-03T07:31:53.000Z</Time>
            <Position>
              <LatitudeDegrees>-15.3409579955041408538818359375</LatitudeDegrees>
              <LongitudeDegrees>37.0848928950726985931396484375</LongitudeDegrees>
            </Position>
            <AltitudeMeters>1237.5999755859375</AltitudeMeters>
            <DistanceMeters>NAN</DistanceMeters>
          </Trackpoint>
          <Trackpoint>
            <Time>2021-08-03T07:31:55.000Z</Time>
            <Position>
              <LatitudeDegrees>-15.34097802825272083282470703125</LatitudeDegrees>
              <LongitudeDegrees>37.084910832345485687255859375</LongitudeDegrees>
            </Position>
            <AltitudeMeters>1237.5999755859375</AltitudeMeters>
            <DistanceMeters>NAN</DistanceMeters>
          </Trackpoint>
          <Trackpoint>
            <Time>2021-08-03T07:32:04.000Z</Time>
            <Position>
              <LatitudeDegrees>-15.34106603823602199554443359375</LatitudeDegrees>
              <LongitudeDegrees>37.08497176878154277801513671875</LongitudeDegrees>
            </Position>
            <AltitudeMeters>1237.800048828125</AltitudeMeters>
            <DistanceMeters>NAN</DistanceMeters>
          </Trackpoint>
          <Trackpoint>
            <Time>2021-08-03T07:32:07.000Z</Time>
            <Position>
              <LatitudeDegrees>-15.341097302734851837158203125</LatitudeDegrees>
              <LongitudeDegrees>37.08499926142394542694091796875</LongitudeDegrees>
            </Position>
            <AltitudeMeters>1237.800048828125</AltitudeMeters>
            <DistanceMeters>NAN</DistanceMeters>
          </Trackpoint>
          <Trackpoint>
            <Time>2021-08-03T07:32:12.000Z</Time>
            <Position>
              <LatitudeDegrees>-15.34114231355488300323486328125</LatitudeDegrees>
              <LongitudeDegrees>37.085034884512424468994140625</LongitudeDegrees>
            </Position>
            <AltitudeMeters>1238</AltitudeMeters>
            <DistanceMeters>NAN</DistanceMeters>
          </Trackpoint>
          <Trackpoint>
            <Time>2021-08-03T07:32:18.000Z</Time>
            <Position>
              <LatitudeDegrees>-15.34120484255254268646240234375</LatitudeDegrees>
              <LongitudeDegrees>37.0850726030766963958740234375</LongitudeDegrees>
            </Position>
            <AltitudeMeters>1236.800048828125</AltitudeMeters>
            <DistanceMeters>NAN</DistanceMeters>
          </Trackpoint>
          <Trackpoint>
            <Time>2021-08-03T07:32:20.000Z</Time>
            <Position>
              <LatitudeDegrees>-15.3412342630326747894287109375</LatitudeDegrees>
              <LongitudeDegrees>37.08508886396884918212890625</LongitudeDegrees>
            </Position>
            <AltitudeMeters>1236.800048828125</AltitudeMeters>
            <DistanceMeters>NAN</DistanceMeters>
          </Trackpoint>
          <Trackpoint>
            <Time>2021-08-03T07:32:28.000Z</Time>
            <Position>
              <LatitudeDegrees>-15.34129721112549304962158203125</LatitudeDegrees>
              <LongitudeDegrees>37.0851493813097476959228515625</LongitudeDegrees>
            </Position>
            <AltitudeMeters>1236.800048828125</AltitudeMeters>
            <DistanceMeters>NAN</DistanceMeters>
          </Trackpoint>
          <Trackpoint>
            <Time>2021-08-03T07:32:34.000Z</Time>
            <Position>
              <LatitudeDegrees>-15.34134616144001483917236328125</LatitudeDegrees>
              <LongitudeDegrees>37.08518852479755878448486328125</LongitudeDegrees>
            </Position>
            <AltitudeMeters>1237</AltitudeMeters>
            <DistanceMeters>NAN</DistanceMeters>
          </Trackpoint>
          <Trackpoint>
            <Time>2021-08-03T07:32:36.000Z</Time>
            <Position>
              <LatitudeDegrees>-15.34136543981730937957763671875</LatitudeDegrees>
              <LongitudeDegrees>37.08519673906266689300537109375</LongitudeDegrees>
            </Position>
            <AltitudeMeters>1237</AltitudeMeters>
            <DistanceMeters>NAN</DistanceMeters>
          </Trackpoint>
          <Trackpoint>
            <Time>2021-08-03T07:32:37.000Z</Time>
            <Position>
              <LatitudeDegrees>-15.34137499518692493438720703125</LatitudeDegrees>
              <LongitudeDegrees>37.08520352840423583984375</LongitudeDegrees>
            </Position>
            <AltitudeMeters>1236.800048828125</AltitudeMeters>
            <DistanceMeters>NAN</DistanceMeters>
          </Trackpoint>
          <Trackpoint>
            <Time>2021-08-03T07:32:45.000Z</Time>
            <Position>
              <LatitudeDegrees>-15.34144825302064418792724609375</LatitudeDegrees>
              <LongitudeDegrees>37.08526262082159519195556640625</LongitudeDegrees>
            </Position>
            <AltitudeMeters>1236.199951171875</AltitudeMeters>
            <DistanceMeters>NAN</DistanceMeters>
          </Trackpoint>
          <Trackpoint>
            <Time>2021-08-03T07:32:50.000Z</Time>
            <Position>
              <LatitudeDegrees>-15.34148580394685268402099609375</LatitudeDegrees>
              <LongitudeDegrees>37.0852985791862010955810546875</LongitudeDegrees>
            </Position>
            <AltitudeMeters>1236.5999755859375</AltitudeMeters>
            <DistanceMeters>NAN</DistanceMeters>
          </Trackpoint>
          <Trackpoint>
            <Time>2021-08-03T07:32:52.000Z</Time>
            <Position>
              <LatitudeDegrees>-15.34150675870478153228759765625</LatitudeDegrees>
              <LongitudeDegrees>37.08531358279287815093994140625</LongitudeDegrees>
            </Position>
            <AltitudeMeters>1236.5999755859375</AltitudeMeters>
            <DistanceMeters>NAN</DistanceMeters>
          </Trackpoint>
          <Trackpoint>
            <Time>2021-08-03T07:32:53.000Z</Time>
            <Position>
              <LatitudeDegrees>-15.3415169008076190948486328125</LatitudeDegrees>
              <LongitudeDegrees>37.0853233896195888519287109375</LongitudeDegrees>
            </Position>
            <AltitudeMeters>1236.5999755859375</AltitudeMeters>
            <DistanceMeters>NAN</DistanceMeters>
          </Trackpoint>
          <Trackpoint>
            <Time>2021-08-03T07:33:00.000Z</Time>
            <Position>
              <LatitudeDegrees>-15.3415718860924243927001953125</LatitudeDegrees>
              <LongitudeDegrees>37.0853800512850284576416015625</LongitudeDegrees>
            </Position>
            <AltitudeMeters>1235.800048828125</AltitudeMeters>
            <DistanceMeters>NAN</DistanceMeters>
          </Trackpoint>
          <Trackpoint>
            <Time>2021-08-03T07:33:01.000Z</Time>
            <Position>
              <LatitudeDegrees>-15.34158202819526195526123046875</LatitudeDegrees>
              <LongitudeDegrees>37.08538952283561229705810546875</LongitudeDegrees>
            </Position>
            <AltitudeMeters>1235.800048828125</AltitudeMeters>
            <DistanceMeters>NAN</DistanceMeters>
          </Trackpoint>
          <Trackpoint>
            <Time>2021-08-03T07:33:07.000Z</Time>
            <Position>
              <LatitudeDegrees>-15.3416334092617034912109375</LatitudeDegrees>
              <LongitudeDegrees>37.085445933043956756591796875</LongitudeDegrees>
            </Position>
            <AltitudeMeters>1236.199951171875</AltitudeMeters>
            <DistanceMeters>NAN</DistanceMeters>
          </Trackpoint>
          <Trackpoint>
            <Time>2021-08-03T07:33:08.000Z</Time>
            <Position>
              <LatitudeDegrees>-15.3416379354894161224365234375</LatitudeDegrees>
              <LongitudeDegrees>37.0854528062045574188232421875</LongitudeDegrees>
            </Position>
            <AltitudeMeters>1236.4000244140625</AltitudeMeters>
            <DistanceMeters>NAN</DistanceMeters>
          </Trackpoint>
          <Trackpoint>
            <Time>2021-08-03T07:33:12.000Z</Time>
            <Position>
              <LatitudeDegrees>-15.341668613255023956298828125</LatitudeDegrees>
              <LongitudeDegrees>37.0854856632649898529052734375</LongitudeDegrees>
            </Position>
            <AltitudeMeters>1237</AltitudeMeters>
            <DistanceMeters>NAN</DistanceMeters>
          </Trackpoint>
          <Trackpoint>
            <Time>2021-08-03T07:33:13.000Z</Time>
            <Position>
              <LatitudeDegrees>-15.341675318777561187744140625</LatitudeDegrees>
              <LongitudeDegrees>37.0854913629591464996337890625</LongitudeDegrees>
            </Position>
            <AltitudeMeters>1237.199951171875</AltitudeMeters>
            <DistanceMeters>NAN</DistanceMeters>
          </Trackpoint>
          <Trackpoint>
            <Time>2021-08-03T07:33:14.000Z</Time>
            <Position>
              <LatitudeDegrees>-15.341684035956859588623046875</LatitudeDegrees>
              <LongitudeDegrees>37.085498236119747161865234375</LongitudeDegrees>
            </Position>
            <AltitudeMeters>1237.4000244140625</AltitudeMeters>
            <DistanceMeters>NAN</DistanceMeters>
          </Trackpoint>
          <Trackpoint>
            <Time>2021-08-03T07:33:19.000Z</Time>
            <Position>
              <LatitudeDegrees>-15.34173055551946163177490234375</LatitudeDegrees>
              <LongitudeDegrees>37.08553737960755825042724609375</LongitudeDegrees>
            </Position>
            <AltitudeMeters>1238</AltitudeMeters>
            <DistanceMeters>NAN</DistanceMeters>
          </Trackpoint>
          <Trackpoint>
            <Time>2021-08-03T07:33:23.000Z</Time>
            <Position>
              <LatitudeDegrees>-15.34175989218056201934814453125</LatitudeDegrees>
              <LongitudeDegrees>37.0855631120502948760986328125</LongitudeDegrees>
            </Position>
            <AltitudeMeters>1239</AltitudeMeters>
            <DistanceMeters>NAN</DistanceMeters>
          </Trackpoint>
          <Trackpoint>
            <Time>2021-08-03T07:33:24.000Z</Time>
            <Position>
              <LatitudeDegrees>-15.34177087247371673583984375</LatitudeDegrees>
              <LongitudeDegrees>37.08557040430605411529541015625</LongitudeDegrees>
            </Position>
            <AltitudeMeters>1239.199951171875</AltitudeMeters>
            <DistanceMeters>NAN</DistanceMeters>
          </Trackpoint>
          <Trackpoint>
            <Time>2021-08-03T07:33:29.000Z</Time>
            <Position>
              <LatitudeDegrees>-15.34181102178990840911865234375</LatitudeDegrees>
              <LongitudeDegrees>37.0856117270886898040771484375</LongitudeDegrees>
            </Position>
            <AltitudeMeters>1239.199951171875</AltitudeMeters>
            <DistanceMeters>NAN</DistanceMeters>
          </Trackpoint>
          <Trackpoint>
            <Time>2021-08-03T07:33:30.000Z</Time>
            <Position>
              <LatitudeDegrees>-15.34181739203631877899169921875</LatitudeDegrees>
              <LongitudeDegrees>37.0856179296970367431640625</LongitudeDegrees>
            </Position>
            <AltitudeMeters>1239.199951171875</AltitudeMeters>
            <DistanceMeters>NAN</DistanceMeters>
          </Trackpoint>
          <Trackpoint>
            <Time>2021-08-03T07:33:39.000Z</Time>
            <Position>
              <LatitudeDegrees>-15.34188813529908657073974609375</LatitudeDegrees>
              <LongitudeDegrees>37.08568071015179157257080078125</LongitudeDegrees>
            </Position>
            <AltitudeMeters>1240.199951171875</AltitudeMeters>
            <DistanceMeters>NAN</DistanceMeters>
          </Trackpoint>
          <Trackpoint>
            <Time>2021-08-03T07:33:40.000Z</Time>
            <Position>
              <LatitudeDegrees>-15.34189383499324321746826171875</LatitudeDegrees>
              <LongitudeDegrees>37.08568758331239223480224609375</LongitudeDegrees>
            </Position>
            <AltitudeMeters>1240.4000244140625</AltitudeMeters>
            <DistanceMeters>NAN</DistanceMeters>
          </Trackpoint>
          <Trackpoint>
            <Time>2021-08-03T07:33:47.000Z</Time>
            <Position>
              <LatitudeDegrees>-15.3419470600783824920654296875</LatitudeDegrees>
              <LongitudeDegrees>37.08573284558951854705810546875</LongitudeDegrees>
            </Position>
            <AltitudeMeters>1241.199951171875</AltitudeMeters>
            <DistanceMeters>NAN</DistanceMeters>
          </Trackpoint>
          <Trackpoint>
            <Time>2021-08-03T07:33:50.000Z</Time>
            <Position>
              <LatitudeDegrees>-15.3419661708176136016845703125</LatitudeDegrees>
              <LongitudeDegrees>37.08575363270938396453857421875</LongitudeDegrees>
            </Position>
            <AltitudeMeters>1241.4000244140625</AltitudeMeters>
            <DistanceMeters>NAN</DistanceMeters>
          </Trackpoint>
          <Trackpoint>
            <Time>2021-08-03T07:33:52.000Z</Time>
            <Position>
              <LatitudeDegrees>-15.3419794142246246337890625</LatitudeDegrees>
              <LongitudeDegrees>37.08576670847833156585693359375</LongitudeDegrees>
            </Position>
            <AltitudeMeters>1241.4000244140625</AltitudeMeters>
            <DistanceMeters>NAN</DistanceMeters>
          </Trackpoint>
          <Trackpoint>
            <Time>2021-08-03T07:33:55.000Z</Time>
            <Position>
              <LatitudeDegrees>-15.34200958907604217529296875</LatitudeDegrees>
              <LongitudeDegrees>37.08578833378851413726806640625</LongitudeDegrees>
            </Position>
            <AltitudeMeters>1241.5999755859375</AltitudeMeters>
            <DistanceMeters>NAN</DistanceMeters>
          </Trackpoint>
          <Trackpoint>
            <Time>2021-08-03T07:33:57.000Z</Time>
            <Position>
              <LatitudeDegrees>-15.34201906062662601470947265625</LatitudeDegrees>
              <LongitudeDegrees>37.08580576814711093902587890625</LongitudeDegrees>
            </Position>
            <AltitudeMeters>1241.800048828125</AltitudeMeters>
            <DistanceMeters>NAN</DistanceMeters>
          </Trackpoint>
          <Trackpoint>
            <Time>2021-08-03T07:33:59.000Z</Time>
            <Position>
              <LatitudeDegrees>-15.342032723128795623779296875</LatitudeDegrees>
              <LongitudeDegrees>37.085818089544773101806640625</LongitudeDegrees>
            </Position>
            <AltitudeMeters>1242.5999755859375</AltitudeMeters>
            <DistanceMeters>NAN</DistanceMeters>
          </Trackpoint>
          <Trackpoint>
            <Time>2021-08-03T07:34:01.000Z</Time>
            <Position>
              <LatitudeDegrees>-15.34204655326902866363525390625</LatitudeDegrees>
              <LongitudeDegrees>37.0858293212950229644775390625</LongitudeDegrees>
            </Position>
            <AltitudeMeters>1242.800048828125</AltitudeMeters>
            <DistanceMeters>NAN</DistanceMeters>
          </Trackpoint>
          <Trackpoint>
            <Time>2021-08-03T07:34:03.000Z</Time>
            <Position>
              <LatitudeDegrees>-15.3420670889317989349365234375</LatitudeDegrees>
              <LongitudeDegrees>37.08584013395011425018310546875</LongitudeDegrees>
            </Position>
            <AltitudeMeters>1242.800048828125</AltitudeMeters>
            <DistanceMeters>NAN</DistanceMeters>
          </Trackpoint>
          <Trackpoint>
            <Time>2021-08-03T07:34:05.000Z</Time>
            <Position>
              <LatitudeDegrees>-15.342078991234302520751953125</LatitudeDegrees>
              <LongitudeDegrees>37.08584952168166637420654296875</LongitudeDegrees>
            </Position>
            <AltitudeMeters>1243.199951171875</AltitudeMeters>
            <DistanceMeters>NAN</DistanceMeters>
          </Trackpoint>
          <Trackpoint>
            <Time>2021-08-03T07:34:09.000Z</Time>
            <Position>
              <LatitudeDegrees>-15.3421081602573394775390625</LatitudeDegrees>
              <LongitudeDegrees>37.085871398448944091796875</LongitudeDegrees>
            </Position>
            <AltitudeMeters>1243.5999755859375</AltitudeMeters>
            <DistanceMeters>NAN</DistanceMeters>
          </Trackpoint>
          <Trackpoint>
            <Time>2021-08-03T07:34:10.000Z</Time>
            <Position>
              <LatitudeDegrees>-15.34211687743663787841796875</LatitudeDegrees>
              <LongitudeDegrees>37.08587533794343471527099609375</LongitudeDegrees>
            </Position>
            <AltitudeMeters>1244</AltitudeMeters>
            <DistanceMeters>NAN</DistanceMeters>
          </Trackpoint>
          <Trackpoint>
            <Time>2021-08-03T07:34:13.000Z</Time>
            <Position>
              <LatitudeDegrees>-15.34213942475616931915283203125</LatitudeDegrees>
              <LongitudeDegrees>37.08589293994009494781494140625</LongitudeDegrees>
            </Position>
            <AltitudeMeters>1244.4000244140625</AltitudeMeters>
            <DistanceMeters>NAN</DistanceMeters>
          </Trackpoint>
          <Trackpoint>
            <Time>2021-08-03T07:34:14.000Z</Time>
            <Position>
              <LatitudeDegrees>-15.34214579500257968902587890625</LatitudeDegrees>
              <LongitudeDegrees>37.085898220539093017578125</LongitudeDegrees>
            </Position>
            <AltitudeMeters>1245.4000244140625</AltitudeMeters>
            <DistanceMeters>NAN</DistanceMeters>
          </Trackpoint>
          <Trackpoint>
            <Time>2021-08-03T07:34:21.000Z</Time>
            <Position>
              <LatitudeDegrees>-15.342200696468353271484375</LatitudeDegrees>
              <LongitudeDegrees>37.08593669347465038299560546875</LongitudeDegrees>
            </Position>
            <AltitudeMeters>1246.5999755859375</AltitudeMeters>
            <DistanceMeters>NAN</DistanceMeters>
          </Trackpoint>
          <Trackpoint>
            <Time>2021-08-03T07:34:24.000Z</Time>
            <Position>
              <LatitudeDegrees>-15.34222148358821868896484375</LatitudeDegrees>
              <LongitudeDegrees>37.08595521748065948486328125</LongitudeDegrees>
            </Position>
            <AltitudeMeters>1246.5999755859375</AltitudeMeters>
            <DistanceMeters>NAN</DistanceMeters>
          </Trackpoint>
          <Trackpoint>
            <Time>2021-08-03T07:34:26.000Z</Time>
            <Position>
              <LatitudeDegrees>-15.34224118106067180633544921875</LatitudeDegrees>
              <LongitudeDegrees>37.08596728742122650146484375</LongitudeDegrees>
            </Position>
            <AltitudeMeters>1246.5999755859375</AltitudeMeters>
            <DistanceMeters>NAN</DistanceMeters>
          </Trackpoint>
          <Trackpoint>
            <Time>2021-08-03T07:34:30.000Z</Time>
            <Position>
              <LatitudeDegrees>-15.34227286465466022491455078125</LatitudeDegrees>
              <LongitudeDegrees>37.0859912596642971038818359375</LongitudeDegrees>
            </Position>
            <AltitudeMeters>1246.5999755859375</AltitudeMeters>
            <DistanceMeters>NAN</DistanceMeters>
          </Trackpoint>
          <Trackpoint>
            <Time>2021-08-03T07:34:33.000Z</Time>
            <Position>
              <LatitudeDegrees>-15.342296920716762542724609375</LatitudeDegrees>
              <LongitudeDegrees>37.086005844175815582275390625</LongitudeDegrees>
            </Position>
            <AltitudeMeters>1247</AltitudeMeters>
            <DistanceMeters>NAN</DistanceMeters>
          </Trackpoint>
          <Trackpoint>
            <Time>2021-08-03T07:34:36.000Z</Time>
            <Position>
              <LatitudeDegrees>-15.34231946803629398345947265625</LatitudeDegrees>
              <LongitudeDegrees>37.0860197581350803375244140625</LongitudeDegrees>
            </Position>
            <AltitudeMeters>1248</AltitudeMeters>
            <DistanceMeters>NAN</DistanceMeters>
          </Trackpoint>
          <Trackpoint>
            <Time>2021-08-03T07:34:40.000Z</Time>
            <Position>
              <LatitudeDegrees>-15.34234863705933094024658203125</LatitudeDegrees>
              <LongitudeDegrees>37.08602897822856903076171875</LongitudeDegrees>
            </Position>
            <AltitudeMeters>1248.4000244140625</AltitudeMeters>
            <DistanceMeters>NAN</DistanceMeters>
          </Trackpoint>
          <Trackpoint>
            <Time>2021-08-03T07:34:43.000Z</Time>
            <Position>
              <LatitudeDegrees>-15.3423745371401309967041015625</LatitudeDegrees>
              <LongitudeDegrees>37.086037695407867431640625</LongitudeDegrees>
            </Position>
            <AltitudeMeters>1248.5999755859375</AltitudeMeters>
            <DistanceMeters>NAN</DistanceMeters>
          </Trackpoint>
          <Trackpoint>
            <Time>2021-08-03T07:34:46.000Z</Time>
            <Position>
              <LatitudeDegrees>-15.34240261651575565338134765625</LatitudeDegrees>
              <LongitudeDegrees>37.08604213781654834747314453125</LongitudeDegrees>
            </Position>
            <AltitudeMeters>1248.800048828125</AltitudeMeters>
            <DistanceMeters>NAN</DistanceMeters>
          </Trackpoint>
          <Trackpoint>
            <Time>2021-08-03T07:34:47.000Z</Time>
            <Position>
              <LatitudeDegrees>-15.34241049550473690032958984375</LatitudeDegrees>
              <LongitudeDegrees>37.08604448474943637847900390625</LongitudeDegrees>
            </Position>
            <AltitudeMeters>1249.199951171875</AltitudeMeters>
            <DistanceMeters>NAN</DistanceMeters>
          </Trackpoint>
          <Trackpoint>
            <Time>2021-08-03T07:34:53.000Z</Time>
            <Position>
              <LatitudeDegrees>-15.34244519658386707305908203125</LatitudeDegrees>
              <LongitudeDegrees>37.08605236373841762542724609375</LongitudeDegrees>
            </Position>
            <AltitudeMeters>1249.800048828125</AltitudeMeters>
            <DistanceMeters>NAN</DistanceMeters>
          </Trackpoint>
          <Trackpoint>
            <Time>2021-08-03T07:34:56.000Z</Time>
            <Position>
              <LatitudeDegrees>-15.34246983937919139862060546875</LatitudeDegrees>
              <LongitudeDegrees>37.08605001680552959442138671875</LongitudeDegrees>
            </Position>
            <AltitudeMeters>1250</AltitudeMeters>
            <DistanceMeters>NAN</DistanceMeters>
          </Trackpoint>
          <Trackpoint>
            <Time>2021-08-03T07:35:03.000Z</Time>
            <Position>
              <LatitudeDegrees>-15.3425260819494724273681640625</LatitudeDegrees>
              <LongitudeDegrees>37.08604616113007068634033203125</LongitudeDegrees>
            </Position>
            <AltitudeMeters>1250.199951171875</AltitudeMeters>
            <DistanceMeters>NAN</DistanceMeters>
          </Trackpoint>
          <Trackpoint>
            <Time>2021-08-03T07:35:04.000Z</Time>
            <Position>
              <LatitudeDegrees>-15.342534296214580535888671875</LatitudeDegrees>
              <LongitudeDegrees>37.08604498766362667083740234375</LongitudeDegrees>
            </Position>
            <AltitudeMeters>1250.4000244140625</AltitudeMeters>
            <DistanceMeters>NAN</DistanceMeters>
          </Trackpoint>
          <Trackpoint>
            <Time>2021-08-03T07:35:05.000Z</Time>
            <Position>
              <LatitudeDegrees>-15.34254158847033977508544921875</LatitudeDegrees>
              <LongitudeDegrees>37.0860402099788188934326171875</LongitudeDegrees>
            </Position>
            <AltitudeMeters>1250.800048828125</AltitudeMeters>
            <DistanceMeters>NAN</DistanceMeters>
          </Trackpoint>
          <Trackpoint>
            <Time>2021-08-03T07:35:07.000Z</Time>
            <Position>
              <LatitudeDegrees>-15.34256489016115665435791015625</LatitudeDegrees>
              <LongitudeDegrees>37.08603258244693279266357421875</LongitudeDegrees>
            </Position>
            <AltitudeMeters>1251</AltitudeMeters>
            <DistanceMeters>NAN</DistanceMeters>
          </Trackpoint>
          <Trackpoint>
            <Time>2021-08-03T07:35:11.000Z</Time>
            <Position>
              <LatitudeDegrees>-15.34260294400155544281005859375</LatitudeDegrees>
              <LongitudeDegrees>37.08601866848766803741455078125</LongitudeDegrees>
            </Position>
            <AltitudeMeters>1251.4000244140625</AltitudeMeters>
            <DistanceMeters>NAN</DistanceMeters>
          </Trackpoint>
          <Trackpoint>
            <Time>2021-08-03T07:35:19.000Z</Time>
            <Position>
              <LatitudeDegrees>-15.34268550574779510498046875</LatitudeDegrees>
              <LongitudeDegrees>37.08598832599818706512451171875</LongitudeDegrees>
            </Position>
            <AltitudeMeters>1251.199951171875</AltitudeMeters>
            <DistanceMeters>NAN</DistanceMeters>
          </Trackpoint>
          <Trackpoint>
            <Time>2021-08-03T07:35:27.000Z</Time>
            <Position>
              <LatitudeDegrees>-15.34276940859854221343994140625</LatitudeDegrees>
              <LongitudeDegrees>37.08595228381454944610595703125</LongitudeDegrees>
            </Position>
            <AltitudeMeters>1251.5999755859375</AltitudeMeters>
            <DistanceMeters>NAN</DistanceMeters>
          </Trackpoint>
          <Trackpoint>
            <Time>2021-08-03T07:35:28.000Z</Time>
            <Position>
              <LatitudeDegrees>-15.3427728451788425445556640625</LatitudeDegrees>
              <LongitudeDegrees>37.0859453268349170684814453125</LongitudeDegrees>
            </Position>
            <AltitudeMeters>1251</AltitudeMeters>
            <DistanceMeters>NAN</DistanceMeters>
          </Trackpoint>
          <Trackpoint>
            <Time>2021-08-03T07:35:32.000Z</Time>
            <Position>
              <LatitudeDegrees>-15.3428187780082225799560546875</LatitudeDegrees>
              <LongitudeDegrees>37.08592236042022705078125</LongitudeDegrees>
            </Position>
            <AltitudeMeters>1251</AltitudeMeters>
            <DistanceMeters>NAN</DistanceMeters>
          </Trackpoint>
          <Trackpoint>
            <Time>2021-08-03T07:35:42.000Z</Time>
            <Position>
              <LatitudeDegrees>-15.34292581491172313690185546875</LatitudeDegrees>
              <LongitudeDegrees>37.08588774316012859344482421875</LongitudeDegrees>
            </Position>
            <AltitudeMeters>1251</AltitudeMeters>
            <DistanceMeters>NAN</DistanceMeters>
          </Trackpoint>
          <Trackpoint>
            <Time>2021-08-03T07:35:53.000Z</Time>
            <Position>
              <LatitudeDegrees>-15.34304450266063213348388671875</LatitudeDegrees>
              <LongitudeDegrees>37.08585589192807674407958984375</LongitudeDegrees>
            </Position>
            <AltitudeMeters>1250.800048828125</AltitudeMeters>
            <DistanceMeters>NAN</DistanceMeters>
          </Trackpoint>
          <Trackpoint>
            <Time>2021-08-03T07:36:06.000Z</Time>
            <Position>
              <LatitudeDegrees>-15.3431889228522777557373046875</LatitudeDegrees>
              <LongitudeDegrees>37.08581364713609218597412109375</LongitudeDegrees>
            </Position>
            <AltitudeMeters>1252.199951171875</AltitudeMeters>
            <DistanceMeters>NAN</DistanceMeters>
          </Trackpoint>
          <Trackpoint>
            <Time>2021-08-03T07:36:11.000Z</Time>
            <Position>
              <LatitudeDegrees>-15.34324474632740020751953125</LatitudeDegrees>
              <LongitudeDegrees>37.0858021639287471771240234375</LongitudeDegrees>
            </Position>
            <AltitudeMeters>1252.4000244140625</AltitudeMeters>
            <DistanceMeters>NAN</DistanceMeters>
          </Trackpoint>
          <Trackpoint>
            <Time>2021-08-03T07:36:18.000Z</Time>
            <Position>
              <LatitudeDegrees>-15.34333049319684505462646484375</LatitudeDegrees>
              <LongitudeDegrees>37.0857843942940235137939453125</LongitudeDegrees>
            </Position>
            <AltitudeMeters>1253.199951171875</AltitudeMeters>
            <DistanceMeters>NAN</DistanceMeters>
          </Trackpoint>
          <Trackpoint>
            <Time>2021-08-03T07:36:30.000Z</Time>
            <Position>
              <LatitudeDegrees>-15.34345395863056182861328125</LatitudeDegrees>
              <LongitudeDegrees>37.0857609249651432037353515625</LongitudeDegrees>
            </Position>
            <AltitudeMeters>1253</AltitudeMeters>
            <DistanceMeters>NAN</DistanceMeters>
          </Trackpoint>
          <Trackpoint>
            <Time>2021-08-03T07:36:34.000Z</Time>
            <Position>
              <LatitudeDegrees>-15.34348656423389911651611328125</LatitudeDegrees>
              <LongitudeDegrees>37.0857548899948596954345703125</LongitudeDegrees>
            </Position>
            <AltitudeMeters>1253</AltitudeMeters>
            <DistanceMeters>NAN</DistanceMeters>
          </Trackpoint>
          <Trackpoint>
            <Time>2021-08-03T07:36:38.000Z</Time>
            <Position>
              <LatitudeDegrees>-15.343523360788822174072265625</LatitudeDegrees>
              <LongitudeDegrees>37.08575027994811534881591796875</LongitudeDegrees>
            </Position>
            <AltitudeMeters>1252.800048828125</AltitudeMeters>
            <DistanceMeters>NAN</DistanceMeters>
          </Trackpoint>
          <Trackpoint>
            <Time>2021-08-03T07:36:39.000Z</Time>
            <Position>
              <LatitudeDegrees>-15.34353132359683513641357421875</LatitudeDegrees>
              <LongitudeDegrees>37.0857481844723224639892578125</LongitudeDegrees>
            </Position>
            <AltitudeMeters>1252.5999755859375</AltitudeMeters>
            <DistanceMeters>NAN</DistanceMeters>
          </Trackpoint>
          <Trackpoint>
            <Time>2021-08-03T07:36:45.000Z</Time>
            <Position>
              <LatitudeDegrees>-15.3435962833464145660400390625</LatitudeDegrees>
              <LongitudeDegrees>37.08574659191071987152099609375</LongitudeDegrees>
            </Position>
            <AltitudeMeters>1252.199951171875</AltitudeMeters>
            <DistanceMeters>NAN</DistanceMeters>
          </Trackpoint>
          <Trackpoint>
            <Time>2021-08-03T07:36:56.000Z</Time>
            <Position>
              <LatitudeDegrees>-15.343717820942401885986328125</LatitudeDegrees>
              <LongitudeDegrees>37.085788585245609283447265625</LongitudeDegrees>
            </Position>
            <AltitudeMeters>1252.199951171875</AltitudeMeters>
            <DistanceMeters>NAN</DistanceMeters>
          </Trackpoint>
          <Trackpoint>
            <Time>2021-08-03T07:36:59.000Z</Time>
            <Position>
              <LatitudeDegrees>-15.34374363720417022705078125</LatitudeDegrees>
              <LongitudeDegrees>37.0858152396976947784423828125</LongitudeDegrees>
            </Position>
            <AltitudeMeters>1252.199951171875</AltitudeMeters>
            <DistanceMeters>NAN</DistanceMeters>
          </Trackpoint>
          <Trackpoint>
            <Time>2021-08-03T07:37:03.000Z</Time>
            <Position>
              <LatitudeDegrees>-15.34378630109131336212158203125</LatitudeDegrees>
              <LongitudeDegrees>37.0858450792729854583740234375</LongitudeDegrees>
            </Position>
            <AltitudeMeters>1252.5999755859375</AltitudeMeters>
            <DistanceMeters>NAN</DistanceMeters>
          </Trackpoint>
          <Trackpoint>
            <Time>2021-08-03T07:37:09.000Z</Time>
            <Position>
              <LatitudeDegrees>-15.34381848759949207305908203125</LatitudeDegrees>
              <LongitudeDegrees>37.0859081111848354339599609375</LongitudeDegrees>
            </Position>
            <AltitudeMeters>1252</AltitudeMeters>
            <DistanceMeters>NAN</DistanceMeters>
          </Trackpoint>
          <Trackpoint>
            <Time>2021-08-03T07:37:17.000Z</Time>
            <Position>
              <LatitudeDegrees>-15.34387263469398021697998046875</LatitudeDegrees>
              <LongitudeDegrees>37.086007185280323028564453125</LongitudeDegrees>
            </Position>
            <AltitudeMeters>1251.4000244140625</AltitudeMeters>
            <DistanceMeters>NAN</DistanceMeters>
          </Trackpoint>
          <Trackpoint>
            <Time>2021-08-03T07:37:18.000Z</Time>
            <Position>
              <LatitudeDegrees>-15.34387565217912197113037109375</LatitudeDegrees>
              <LongitudeDegrees>37.08601598627865314483642578125</LongitudeDegrees>
            </Position>
            <AltitudeMeters>1251.4000244140625</AltitudeMeters>
            <DistanceMeters>NAN</DistanceMeters>
          </Trackpoint>
          <Trackpoint>
            <Time>2021-08-03T07:37:23.000Z</Time>
            <Position>
              <LatitudeDegrees>-15.3438966907560825347900390625</LatitudeDegrees>
              <LongitudeDegrees>37.08607784472405910491943359375</LongitudeDegrees>
            </Position>
            <AltitudeMeters>1251.4000244140625</AltitudeMeters>
            <DistanceMeters>NAN</DistanceMeters>
          </Trackpoint>
          <Trackpoint>
            <Time>2021-08-03T07:37:27.000Z</Time>
            <Position>
              <LatitudeDegrees>-15.34391655586659908294677734375</LatitudeDegrees>
              <LongitudeDegrees>37.08612578921020030975341796875</LongitudeDegrees>
            </Position>
            <AltitudeMeters>1251.4000244140625</AltitudeMeters>
            <DistanceMeters>NAN</DistanceMeters>
          </Trackpoint>
          <Trackpoint>
            <Time>2021-08-03T07:37:33.000Z</Time>
            <Position>
              <LatitudeDegrees>-15.3439382649958133697509765625</LatitudeDegrees>
              <LongitudeDegrees>37.086192257702350616455078125</LongitudeDegrees>
            </Position>
            <AltitudeMeters>1250.800048828125</AltitudeMeters>
            <DistanceMeters>NAN</DistanceMeters>
          </Trackpoint>
          <Trackpoint>
            <Time>2021-08-03T07:37:39.000Z</Time>
            <Position>
              <LatitudeDegrees>-15.34395913593471050262451171875</LatitudeDegrees>
              <LongitudeDegrees>37.08627079613506793975830078125</LongitudeDegrees>
            </Position>
            <AltitudeMeters>1251.199951171875</AltitudeMeters>
            <DistanceMeters>NAN</DistanceMeters>
          </Trackpoint>
          <Trackpoint>
            <Time>2021-08-03T07:37:44.000Z</Time>
            <Position>
              <LatitudeDegrees>-15.343972630798816680908203125</LatitudeDegrees>
              <LongitudeDegrees>37.086330391466617584228515625</LongitudeDegrees>
            </Position>
            <AltitudeMeters>1251</AltitudeMeters>
            <DistanceMeters>NAN</DistanceMeters>
          </Trackpoint>
          <Trackpoint>
            <Time>2021-08-03T07:37:51.000Z</Time>
            <Position>
              <LatitudeDegrees>-15.34398310817778110504150390625</LatitudeDegrees>
              <LongitudeDegrees>37.0864184014499187469482421875</LongitudeDegrees>
            </Position>
            <AltitudeMeters>1250</AltitudeMeters>
            <DistanceMeters>NAN</DistanceMeters>
          </Trackpoint>
          <Trackpoint>
            <Time>2021-08-03T07:37:54.000Z</Time>
            <Position>
              <LatitudeDegrees>-15.34399014897644519805908203125</LatitudeDegrees>
              <LongitudeDegrees>37.086457125842571258544921875</LongitudeDegrees>
            </Position>
            <AltitudeMeters>1249.5999755859375</AltitudeMeters>
            <DistanceMeters>NAN</DistanceMeters>
          </Trackpoint>
          <Trackpoint>
            <Time>2021-08-03T07:37:56.000Z</Time>
            <Position>
              <LatitudeDegrees>-15.343992076814174652099609375</LatitudeDegrees>
              <LongitudeDegrees>37.08647950552403926849365234375</LongitudeDegrees>
            </Position>
            <AltitudeMeters>1249.4000244140625</AltitudeMeters>
            <DistanceMeters>NAN</DistanceMeters>
          </Trackpoint>
          <Trackpoint>
            <Time>2021-08-03T07:38:01.000Z</Time>
            <Position>
              <LatitudeDegrees>-15.34400188364088535308837890625</LatitudeDegrees>
              <LongitudeDegrees>37.08653147332370281219482421875</LongitudeDegrees>
            </Position>
            <AltitudeMeters>1248.5999755859375</AltitudeMeters>
            <DistanceMeters>NAN</DistanceMeters>
          </Trackpoint>
          <Trackpoint>
            <Time>2021-08-03T07:38:07.000Z</Time>
            <Position>
              <LatitudeDegrees>-15.34403356723487377166748046875</LatitudeDegrees>
              <LongitudeDegrees>37.086601294577121734619140625</LongitudeDegrees>
            </Position>
            <AltitudeMeters>1248</AltitudeMeters>
            <DistanceMeters>NAN</DistanceMeters>
          </Trackpoint>
          <Trackpoint>
            <Time>2021-08-03T07:38:09.000Z</Time>
            <Position>
              <LatitudeDegrees>-15.344035327434539794921875</LatitudeDegrees>
              <LongitudeDegrees>37.08662333898246288299560546875</LongitudeDegrees>
            </Position>
            <AltitudeMeters>1247.5999755859375</AltitudeMeters>
            <DistanceMeters>NAN</DistanceMeters>
          </Trackpoint>
          <Trackpoint>
            <Time>2021-08-03T07:38:13.000Z</Time>
            <Position>
              <LatitudeDegrees>-15.34404270350933074951171875</LatitudeDegrees>
              <LongitudeDegrees>37.0866651646792888641357421875</LongitudeDegrees>
            </Position>
            <AltitudeMeters>1246.5999755859375</AltitudeMeters>
            <DistanceMeters>NAN</DistanceMeters>
          </Trackpoint>
          <Trackpoint>
            <Time>2021-08-03T07:38:14.000Z</Time>
            <Position>
              <LatitudeDegrees>-15.344045720994472503662109375</LatitudeDegrees>
              <LongitudeDegrees>37.08667379803955554962158203125</LongitudeDegrees>
            </Position>
            <AltitudeMeters>1246.4000244140625</AltitudeMeters>
            <DistanceMeters>NAN</DistanceMeters>
          </Trackpoint>
          <Trackpoint>
            <Time>2021-08-03T07:38:16.000Z</Time>
            <Position>
              <LatitudeDegrees>-15.34405770711600780487060546875</LatitudeDegrees>
              <LongitudeDegrees>37.08669592626392841339111328125</LongitudeDegrees>
            </Position>
            <AltitudeMeters>1246.199951171875</AltitudeMeters>
            <DistanceMeters>NAN</DistanceMeters>
          </Trackpoint>
          <Trackpoint>
            <Time>2021-08-03T07:38:19.000Z</Time>
            <Position>
              <LatitudeDegrees>-15.34407346509397029876708984375</LatitudeDegrees>
              <LongitudeDegrees>37.086725346744060516357421875</LongitudeDegrees>
            </Position>
            <AltitudeMeters>1246</AltitudeMeters>
            <DistanceMeters>NAN</DistanceMeters>
          </Trackpoint>
          <Trackpoint>
            <Time>2021-08-03T07:38:21.000Z</Time>
            <Position>
              <LatitudeDegrees>-15.344084613025188446044921875</LatitudeDegrees>
              <LongitudeDegrees>37.08674781024456024169921875</LongitudeDegrees>
            </Position>
            <AltitudeMeters>1245.5999755859375</AltitudeMeters>
            <DistanceMeters>NAN</DistanceMeters>
          </Trackpoint>
          <Trackpoint>
            <Time>2021-08-03T07:38:23.000Z</Time>
            <Position>
              <LatitudeDegrees>-15.34409056417644023895263671875</LatitudeDegrees>
              <LongitudeDegrees>37.08676792681217193603515625</LongitudeDegrees>
            </Position>
            <AltitudeMeters>1244.800048828125</AltitudeMeters>
            <DistanceMeters>NAN</DistanceMeters>
          </Trackpoint>
          <Trackpoint>
            <Time>2021-08-03T07:38:30.000Z</Time>
            <Position>
              <LatitudeDegrees>-15.3441256843507289886474609375</LatitudeDegrees>
              <LongitudeDegrees>37.08683590404689311981201171875</LongitudeDegrees>
            </Position>
            <AltitudeMeters>1243.4000244140625</AltitudeMeters>
            <DistanceMeters>NAN</DistanceMeters>
          </Trackpoint>
          <Trackpoint>
            <Time>2021-08-03T07:38:36.000Z</Time>
            <Position>
              <LatitudeDegrees>-15.344158373773097991943359375</LatitudeDegrees>
              <LongitudeDegrees>37.0868904702365398406982421875</LongitudeDegrees>
            </Position>
            <AltitudeMeters>1242.199951171875</AltitudeMeters>
            <DistanceMeters>NAN</DistanceMeters>
          </Trackpoint>
          <Trackpoint>
            <Time>2021-08-03T07:38:38.000Z</Time>
            <Position>
              <LatitudeDegrees>-15.34416901879012584686279296875</LatitudeDegrees>
              <LongitudeDegrees>37.08690882660448551177978515625</LongitudeDegrees>
            </Position>
            <AltitudeMeters>1241.800048828125</AltitudeMeters>
            <DistanceMeters>NAN</DistanceMeters>
          </Trackpoint>
          <Trackpoint>
            <Time>2021-08-03T07:38:40.000Z</Time>
            <Position>
              <LatitudeDegrees>-15.34418083727359771728515625</LatitudeDegrees>
              <LongitudeDegrees>37.0869295299053192138671875</LongitudeDegrees>
            </Position>
            <AltitudeMeters>1241.5999755859375</AltitudeMeters>
            <DistanceMeters>NAN</DistanceMeters>
          </Trackpoint>
          <Trackpoint>
            <Time>2021-08-03T07:38:41.000Z</Time>
            <Position>
              <LatitudeDegrees>-15.34418896771967411041259765625</LatitudeDegrees>
              <LongitudeDegrees>37.0869364030659198760986328125</LongitudeDegrees>
            </Position>
            <AltitudeMeters>1241</AltitudeMeters>
            <DistanceMeters>NAN</DistanceMeters>
          </Trackpoint>
          <Trackpoint>
            <Time>2021-08-03T07:38:49.000Z</Time>
            <Position>
              <LatitudeDegrees>-15.3442711941897869110107421875</LatitudeDegrees>
              <LongitudeDegrees>37.08696104586124420166015625</LongitudeDegrees>
            </Position>
            <AltitudeMeters>1238.800048828125</AltitudeMeters>
            <DistanceMeters>NAN</DistanceMeters>
          </Trackpoint>
          <Trackpoint>
            <Time>2021-08-03T07:38:58.000Z</Time>
            <Position>
              <LatitudeDegrees>-15.34436834044754505157470703125</LatitudeDegrees>
              <LongitudeDegrees>37.08693958818912506103515625</LongitudeDegrees>
            </Position>
            <AltitudeMeters>1239</AltitudeMeters>
            <DistanceMeters>NAN</DistanceMeters>
          </Trackpoint>
          <Trackpoint>
            <Time>2021-08-03T07:39:02.000Z</Time>
            <Position>
              <LatitudeDegrees>-15.34441544674336910247802734375</LatitudeDegrees>
              <LongitudeDegrees>37.086921148002147674560546875</LongitudeDegrees>
            </Position>
            <AltitudeMeters>1237.5999755859375</AltitudeMeters>
            <DistanceMeters>NAN</DistanceMeters>
          </Trackpoint>
          <Trackpoint>
            <Time>2021-08-03T07:39:03.000Z</Time>
            <Position>
              <LatitudeDegrees>-15.34442625939846038818359375</LatitudeDegrees>
              <LongitudeDegrees>37.0869193039834499359130859375</LongitudeDegrees>
            </Position>
            <AltitudeMeters>1237.199951171875</AltitudeMeters>
            <DistanceMeters>NAN</DistanceMeters>
          </Trackpoint>
          <Trackpoint>
            <Time>2021-08-03T07:39:11.000Z</Time>
            <Position>
              <LatitudeDegrees>-15.34451217390596866607666015625</LatitudeDegrees>
              <LongitudeDegrees>37.08688192069530487060546875</LongitudeDegrees>
            </Position>
            <AltitudeMeters>1236.4000244140625</AltitudeMeters>
            <DistanceMeters>NAN</DistanceMeters>
          </Trackpoint>
          <Trackpoint>
            <Time>2021-08-03T07:39:16.000Z</Time>
            <Position>
              <LatitudeDegrees>-15.34456280060112476348876953125</LatitudeDegrees>
              <LongitudeDegrees>37.086867503821849822998046875</LongitudeDegrees>
            </Position>
            <AltitudeMeters>1235.4000244140625</AltitudeMeters>
            <DistanceMeters>NAN</DistanceMeters>
          </Trackpoint>
          <Trackpoint>
            <Time>2021-08-03T07:39:18.000Z</Time>
            <Position>
              <LatitudeDegrees>-15.3445833362638950347900390625</LatitudeDegrees>
              <LongitudeDegrees>37.08686188794672489166259765625</LongitudeDegrees>
            </Position>
            <AltitudeMeters>1234.800048828125</AltitudeMeters>
            <DistanceMeters>NAN</DistanceMeters>
          </Trackpoint>
          <Trackpoint>
            <Time>2021-08-03T07:39:21.000Z</Time>
            <Position>
              <LatitudeDegrees>-15.3446088172495365142822265625</LatitudeDegrees>
              <LongitudeDegrees>37.08685166202485561370849609375</LongitudeDegrees>
            </Position>
            <AltitudeMeters>1233.800048828125</AltitudeMeters>
            <DistanceMeters>NAN</DistanceMeters>
          </Trackpoint>
          <Trackpoint>
            <Time>2021-08-03T07:39:30.000Z</Time>
            <Position>
              <LatitudeDegrees>-15.34470579586923122406005859375</LatitudeDegrees>
              <LongitudeDegrees>37.0868168771266937255859375</LongitudeDegrees>
            </Position>
            <AltitudeMeters>1232.5999755859375</AltitudeMeters>
            <DistanceMeters>NAN</DistanceMeters>
          </Trackpoint>
          <Trackpoint>
            <Time>2021-08-03T07:39:31.000Z</Time>
            <Position>
              <LatitudeDegrees>-15.34471870400011539459228515625</LatitudeDegrees>
              <LongitudeDegrees>37.0868113450706005096435546875</LongitudeDegrees>
            </Position>
            <AltitudeMeters>1232.4000244140625</AltitudeMeters>
            <DistanceMeters>NAN</DistanceMeters>
          </Trackpoint>
          <Trackpoint>
            <Time>2021-08-03T07:39:36.000Z</Time>
            <Position>
              <LatitudeDegrees>-15.3447744436562061309814453125</LatitudeDegrees>
              <LongitudeDegrees>37.0867922343313694000244140625</LongitudeDegrees>
            </Position>
            <AltitudeMeters>1231.5999755859375</AltitudeMeters>
            <DistanceMeters>NAN</DistanceMeters>
          </Trackpoint>
          <Trackpoint>
            <Time>2021-08-03T07:39:41.000Z</Time>
            <Position>
              <LatitudeDegrees>-15.3448294289410114288330078125</LatitudeDegrees>
              <LongitudeDegrees>37.0867717824876308441162109375</LongitudeDegrees>
            </Position>
            <AltitudeMeters>1231.4000244140625</AltitudeMeters>
            <DistanceMeters>NAN</DistanceMeters>
          </Trackpoint>
          <Trackpoint>
            <Time>2021-08-03T07:39:42.000Z</Time>
            <Position>
              <LatitudeDegrees>-15.34484325908124446868896484375</LatitudeDegrees>
              <LongitudeDegrees>37.0867670886218547821044921875</LongitudeDegrees>
            </Position>
            <AltitudeMeters>1231.4000244140625</AltitudeMeters>
            <DistanceMeters>NAN</DistanceMeters>
          </Trackpoint>
          <Trackpoint>
            <Time>2021-08-03T07:39:52.000Z</Time>
            <Position>
              <LatitudeDegrees>-15.344948954880237579345703125</LatitudeDegrees>
              <LongitudeDegrees>37.0867409370839595794677734375</LongitudeDegrees>
            </Position>
            <AltitudeMeters>1231</AltitudeMeters>
            <DistanceMeters>NAN</DistanceMeters>
          </Trackpoint>
          <Trackpoint>
            <Time>2021-08-03T07:40:04.000Z</Time>
            <Position>
              <LatitudeDegrees>-15.34508650191128253936767578125</LatitudeDegrees>
              <LongitudeDegrees>37.0867315493524074554443359375</LongitudeDegrees>
            </Position>
            <AltitudeMeters>1231.4000244140625</AltitudeMeters>
            <DistanceMeters>NAN</DistanceMeters>
          </Trackpoint>
          <Trackpoint>
            <Time>2021-08-03T07:40:12.000Z</Time>
            <Position>
              <LatitudeDegrees>-15.3451761044561862945556640625</LatitudeDegrees>
              <LongitudeDegrees>37.0867229998111724853515625</LongitudeDegrees>
            </Position>
            <AltitudeMeters>1232.199951171875</AltitudeMeters>
            <DistanceMeters>NAN</DistanceMeters>
          </Trackpoint>
          <Trackpoint>
            <Time>2021-08-03T07:40:14.000Z</Time>
            <Position>
              <LatitudeDegrees>-15.34520317800343036651611328125</LatitudeDegrees>
              <LongitudeDegrees>37.0867191441357135772705078125</LongitudeDegrees>
            </Position>
            <AltitudeMeters>1232.199951171875</AltitudeMeters>
            <DistanceMeters>NAN</DistanceMeters>
          </Trackpoint>
          <Trackpoint>
            <Time>2021-08-03T07:40:18.000Z</Time>
            <Position>
              <LatitudeDegrees>-15.3452438302338123321533203125</LatitudeDegrees>
              <LongitudeDegrees>37.08670246414840221405029296875</LongitudeDegrees>
            </Position>
            <AltitudeMeters>1232.199951171875</AltitudeMeters>
            <DistanceMeters>NAN</DistanceMeters>
          </Trackpoint>
          <Trackpoint>
            <Time>2021-08-03T07:40:27.000Z</Time>
            <Position>
              <LatitudeDegrees>-15.3453232906758785247802734375</LatitudeDegrees>
              <LongitudeDegrees>37.08664261735975742340087890625</LongitudeDegrees>
            </Position>
            <AltitudeMeters>1231.5999755859375</AltitudeMeters>
            <DistanceMeters>NAN</DistanceMeters>
          </Trackpoint>
          <Trackpoint>
            <Time>2021-08-03T07:40:35.000Z</Time>
            <Position>
              <LatitudeDegrees>-15.34540048800408840179443359375</LatitudeDegrees>
              <LongitudeDegrees>37.08658813498914241790771484375</LongitudeDegrees>
            </Position>
            <AltitudeMeters>1230.5999755859375</AltitudeMeters>
            <DistanceMeters>NAN</DistanceMeters>
          </Trackpoint>
          <Trackpoint>
            <Time>2021-08-03T07:40:38.000Z</Time>
            <Position>
              <LatitudeDegrees>-15.3454315848648548126220703125</LatitudeDegrees>
              <LongitudeDegrees>37.0865675993263721466064453125</LongitudeDegrees>
            </Position>
            <AltitudeMeters>1230.199951171875</AltitudeMeters>
            <DistanceMeters>NAN</DistanceMeters>
          </Trackpoint>
          <Trackpoint>
            <Time>2021-08-03T07:40:40.000Z</Time>
            <Position>
              <LatitudeDegrees>-15.34545128233730792999267578125</LatitudeDegrees>
              <LongitudeDegrees>37.0865561999380588531494140625</LongitudeDegrees>
            </Position>
            <AltitudeMeters>1229</AltitudeMeters>
            <DistanceMeters>NAN</DistanceMeters>
          </Trackpoint>
          <Trackpoint>
            <Time>2021-08-03T07:40:46.000Z</Time>
            <Position>
              <LatitudeDegrees>-15.345510877668857574462890625</LatitudeDegrees>
              <LongitudeDegrees>37.0865444652736186981201171875</LongitudeDegrees>
            </Position>
            <AltitudeMeters>1229.199951171875</AltitudeMeters>
            <DistanceMeters>NAN</DistanceMeters>
          </Trackpoint>
          <Trackpoint>
            <Time>2021-08-03T07:40:52.000Z</Time>
            <Position>
              <LatitudeDegrees>-15.34559142775833606719970703125</LatitudeDegrees>
              <LongitudeDegrees>37.0865417830646038055419921875</LongitudeDegrees>
            </Position>
            <AltitudeMeters>1229</AltitudeMeters>
            <DistanceMeters>NAN</DistanceMeters>
          </Trackpoint>
          <Trackpoint>
            <Time>2021-08-03T07:40:54.000Z</Time>
            <Position>
              <LatitudeDegrees>-15.34560768865048885345458984375</LatitudeDegrees>
              <LongitudeDegrees>37.08654488436877727508544921875</LongitudeDegrees>
            </Position>
            <AltitudeMeters>1229</AltitudeMeters>
            <DistanceMeters>NAN</DistanceMeters>
          </Trackpoint>
          <Trackpoint>
            <Time>2021-08-03T07:41:00.000Z</Time>
            <Position>
              <LatitudeDegrees>-15.34565395675599575042724609375</LatitudeDegrees>
              <LongitudeDegrees>37.0865689404308795928955078125</LongitudeDegrees>
            </Position>
            <AltitudeMeters>1229.5999755859375</AltitudeMeters>
            <DistanceMeters>NAN</DistanceMeters>
          </Trackpoint>
          <Trackpoint>
            <Time>2021-08-03T07:41:01.000Z</Time>
            <Position>
              <LatitudeDegrees>-15.3456612490117549896240234375</LatitudeDegrees>
              <LongitudeDegrees>37.0865753106772899627685546875</LongitudeDegrees>
            </Position>
            <AltitudeMeters>1229.800048828125</AltitudeMeters>
            <DistanceMeters>NAN</DistanceMeters>
          </Trackpoint>
          <Trackpoint>
            <Time>2021-08-03T07:41:03.000Z</Time>
            <Position>
              <LatitudeDegrees>-15.34567750990390777587890625</LatitudeDegrees>
              <LongitudeDegrees>37.0865853689610958099365234375</LongitudeDegrees>
            </Position>
            <AltitudeMeters>1230.199951171875</AltitudeMeters>
            <DistanceMeters>NAN</DistanceMeters>
          </Trackpoint>
          <Trackpoint>
            <Time>2021-08-03T07:41:04.000Z</Time>
            <Position>
              <LatitudeDegrees>-15.34568832255899906158447265625</LatitudeDegrees>
              <LongitudeDegrees>37.08658955991268157958984375</LongitudeDegrees>
            </Position>
            <AltitudeMeters>1230.5999755859375</AltitudeMeters>
            <DistanceMeters>NAN</DistanceMeters>
          </Trackpoint>
          <Trackpoint>
            <Time>2021-08-03T07:41:10.000Z</Time>
            <Position>
              <LatitudeDegrees>-15.34574716351926326751708984375</LatitudeDegrees>
              <LongitudeDegrees>37.08660255186259746551513671875</LongitudeDegrees>
            </Position>
            <AltitudeMeters>1231.5999755859375</AltitudeMeters>
            <DistanceMeters>NAN</DistanceMeters>
          </Trackpoint>
          <Trackpoint>
            <Time>2021-08-03T07:41:11.000Z</Time>
            <Position>
              <LatitudeDegrees>-15.34575571306049823760986328125</LatitudeDegrees>
              <LongitudeDegrees>37.0866051502525806427001953125</LongitudeDegrees>
            </Position>
            <AltitudeMeters>1232</AltitudeMeters>
            <DistanceMeters>NAN</DistanceMeters>
          </Trackpoint>
          <Trackpoint>
            <Time>2021-08-03T07:41:13.000Z</Time>
            <Position>
              <LatitudeDegrees>-15.3457774221897125244140625</LatitudeDegrees>
              <LongitudeDegrees>37.0866098441183567047119140625</LongitudeDegrees>
            </Position>
            <AltitudeMeters>1233</AltitudeMeters>
            <DistanceMeters>NAN</DistanceMeters>
          </Trackpoint>
          <Trackpoint>
            <Time>2021-08-03T07:41:21.000Z</Time>
            <Position>
              <LatitudeDegrees>-15.345850847661495208740234375</LatitudeDegrees>
              <LongitudeDegrees>37.0866131968796253204345703125</LongitudeDegrees>
            </Position>
            <AltitudeMeters>1233.800048828125</AltitudeMeters>
            <DistanceMeters>NAN</DistanceMeters>
          </Trackpoint>
          <Trackpoint>
            <Time>2021-08-03T07:41:22.000Z</Time>
            <Position>
              <LatitudeDegrees>-15.34586283378303050994873046875</LatitudeDegrees>
              <LongitudeDegrees>37.0866148732602596282958984375</LongitudeDegrees>
            </Position>
            <AltitudeMeters>1234</AltitudeMeters>
            <DistanceMeters>NAN</DistanceMeters>
          </Trackpoint>
          <Trackpoint>
            <Time>2021-08-03T07:41:27.000Z</Time>
            <Position>
              <LatitudeDegrees>-15.345909185707569122314453125</LatitudeDegrees>
              <LongitudeDegrees>37.086610011756420135498046875</LongitudeDegrees>
            </Position>
            <AltitudeMeters>1233.5999755859375</AltitudeMeters>
            <DistanceMeters>NAN</DistanceMeters>
          </Trackpoint>
          <Trackpoint>
            <Time>2021-08-03T07:41:29.000Z</Time>
            <Position>
              <LatitudeDegrees>-15.345931313931941986083984375</LatitudeDegrees>
              <LongitudeDegrees>37.08660087548196315765380859375</LongitudeDegrees>
            </Position>
            <AltitudeMeters>1233.5999755859375</AltitudeMeters>
            <DistanceMeters>NAN</DistanceMeters>
          </Trackpoint>
          <Trackpoint>
            <Time>2021-08-03T07:41:38.000Z</Time>
            <Position>
              <LatitudeDegrees>-15.34601002000272274017333984375</LatitudeDegrees>
              <LongitudeDegrees>37.08657556213438510894775390625</LongitudeDegrees>
            </Position>
            <AltitudeMeters>1233.199951171875</AltitudeMeters>
            <DistanceMeters>NAN</DistanceMeters>
          </Trackpoint>
          <Trackpoint>
            <Time>2021-08-03T07:41:44.000Z</Time>
            <Position>
              <LatitudeDegrees>-15.34606643021106719970703125</LatitudeDegrees>
              <LongitudeDegrees>37.08656030707061290740966796875</LongitudeDegrees>
            </Position>
            <AltitudeMeters>1233.199951171875</AltitudeMeters>
            <DistanceMeters>NAN</DistanceMeters>
          </Trackpoint>
          <Trackpoint>
            <Time>2021-08-03T07:41:45.000Z</Time>
            <Position>
              <LatitudeDegrees>-15.34607715904712677001953125</LatitudeDegrees>
              <LongitudeDegrees>37.08655980415642261505126953125</LongitudeDegrees>
            </Position>
            <AltitudeMeters>1233</AltitudeMeters>
            <DistanceMeters>NAN</DistanceMeters>
          </Trackpoint>
          <Trackpoint>
            <Time>2021-08-03T07:41:50.000Z</Time>
            <Position>
              <LatitudeDegrees>-15.34613038413226604461669921875</LatitudeDegrees>
              <LongitudeDegrees>37.0865508355200290679931640625</LongitudeDegrees>
            </Position>
            <AltitudeMeters>1232.800048828125</AltitudeMeters>
            <DistanceMeters>NAN</DistanceMeters>
          </Trackpoint>
          <Trackpoint>
            <Time>2021-08-03T07:41:52.000Z</Time>
            <Position>
              <LatitudeDegrees>-15.34615385346114635467529296875</LatitudeDegrees>
              <LongitudeDegrees>37.08655175752937793731689453125</LongitudeDegrees>
            </Position>
            <AltitudeMeters>1232.5999755859375</AltitudeMeters>
            <DistanceMeters>NAN</DistanceMeters>
          </Trackpoint>
          <Trackpoint>
            <Time>2021-08-03T07:41:59.000Z</Time>
            <Position>
              <LatitudeDegrees>-15.346250832080841064453125</LatitudeDegrees>
              <LongitudeDegrees>37.08654287271201610565185546875</LongitudeDegrees>
            </Position>
            <AltitudeMeters>1231.800048828125</AltitudeMeters>
            <DistanceMeters>NAN</DistanceMeters>
          </Trackpoint>
          <Trackpoint>
            <Time>2021-08-03T07:42:02.000Z</Time>
            <Position>
              <LatitudeDegrees>-15.34626985900104045867919921875</LatitudeDegrees>
              <LongitudeDegrees>37.08654128015041351318359375</LongitudeDegrees>
            </Position>
            <AltitudeMeters>1231.800048828125</AltitudeMeters>
            <DistanceMeters>NAN</DistanceMeters>
          </Trackpoint>
          <Trackpoint>
            <Time>2021-08-03T07:42:10.000Z</Time>
            <Position>
              <LatitudeDegrees>-15.3463475592434406280517578125</LatitudeDegrees>
              <LongitudeDegrees>37.08652812056243419647216796875</LongitudeDegrees>
            </Position>
            <AltitudeMeters>1231.5999755859375</AltitudeMeters>
            <DistanceMeters>NAN</DistanceMeters>
          </Trackpoint>
          <Trackpoint>
            <Time>2021-08-03T07:42:16.000Z</Time>
            <Position>
              <LatitudeDegrees>-15.3464337252080440521240234375</LatitudeDegrees>
              <LongitudeDegrees>37.0865072496235370635986328125</LongitudeDegrees>
            </Position>
            <AltitudeMeters>1231.199951171875</AltitudeMeters>
            <DistanceMeters>NAN</DistanceMeters>
          </Trackpoint>
          <Trackpoint>
            <Time>2021-08-03T07:42:17.000Z</Time>
            <Position>
              <LatitudeDegrees>-15.34644453786313533782958984375</LatitudeDegrees>
              <LongitudeDegrees>37.0865057408809661865234375</LongitudeDegrees>
            </Position>
            <AltitudeMeters>1231</AltitudeMeters>
            <DistanceMeters>NAN</DistanceMeters>
          </Trackpoint>
          <Trackpoint>
            <Time>2021-08-03T07:42:20.000Z</Time>
            <Position>
              <LatitudeDegrees>-15.34647488035261631011962890625</LatitudeDegrees>
              <LongitudeDegrees>37.0864951796829700469970703125</LongitudeDegrees>
            </Position>
            <AltitudeMeters>1230.800048828125</AltitudeMeters>
            <DistanceMeters>NAN</DistanceMeters>
          </Trackpoint>
          <Trackpoint>
            <Time>2021-08-03T07:42:21.000Z</Time>
            <Position>
              <LatitudeDegrees>-15.346485190093517303466796875</LatitudeDegrees>
              <LongitudeDegrees>37.0864958502352237701416015625</LongitudeDegrees>
            </Position>
            <AltitudeMeters>1230.5999755859375</AltitudeMeters>
            <DistanceMeters>NAN</DistanceMeters>
          </Trackpoint>
          <Trackpoint>
            <Time>2021-08-03T07:42:23.000Z</Time>
            <Position>
              <LatitudeDegrees>-15.3465141914784908294677734375</LatitudeDegrees>
              <LongitudeDegrees>37.08649325184524059295654296875</LongitudeDegrees>
            </Position>
            <AltitudeMeters>1230.5999755859375</AltitudeMeters>
            <DistanceMeters>NAN</DistanceMeters>
          </Trackpoint>
          <Trackpoint>
            <Time>2021-08-03T07:42:31.000Z</Time>
            <Position>
              <LatitudeDegrees>-15.34661150537431240081787109375</LatitudeDegrees>
              <LongitudeDegrees>37.0864730514585971832275390625</LongitudeDegrees>
            </Position>
            <AltitudeMeters>1230.5999755859375</AltitudeMeters>
            <DistanceMeters>NAN</DistanceMeters>
          </Trackpoint>
          <Trackpoint>
            <Time>2021-08-03T07:42:39.000Z</Time>
            <Position>
              <LatitudeDegrees>-15.3467063046991825103759765625</LatitudeDegrees>
              <LongitudeDegrees>37.0864619873464107513427734375</LongitudeDegrees>
            </Position>
            <AltitudeMeters>1230.4000244140625</AltitudeMeters>
            <DistanceMeters>NAN</DistanceMeters>
          </Trackpoint>
          <Trackpoint>
            <Time>2021-08-03T07:42:47.000Z</Time>
            <Position>
              <LatitudeDegrees>-15.346783585846424102783203125</LatitudeDegrees>
              <LongitudeDegrees>37.08645989187061786651611328125</LongitudeDegrees>
            </Position>
            <AltitudeMeters>1230.4000244140625</AltitudeMeters>
            <DistanceMeters>NAN</DistanceMeters>
          </Trackpoint>
          <Trackpoint>
            <Time>2021-08-03T07:42:48.000Z</Time>
            <Position>
              <LatitudeDegrees>-15.34679590724408626556396484375</LatitudeDegrees>
              <LongitudeDegrees>37.0864606462419033050537109375</LongitudeDegrees>
            </Position>
            <AltitudeMeters>1230.4000244140625</AltitudeMeters>
            <DistanceMeters>NAN</DistanceMeters>
          </Trackpoint>
          <Trackpoint>
            <Time>2021-08-03T07:42:54.000Z</Time>
            <Position>
              <LatitudeDegrees>-15.3468596935272216796875</LatitudeDegrees>
              <LongitudeDegrees>37.08645938895642757415771484375</LongitudeDegrees>
            </Position>
            <AltitudeMeters>1230.800048828125</AltitudeMeters>
            <DistanceMeters>NAN</DistanceMeters>
          </Trackpoint>
          <Trackpoint>
            <Time>2021-08-03T07:42:57.000Z</Time>
            <Position>
              <LatitudeDegrees>-15.3468923829495906829833984375</LatitudeDegrees>
              <LongitudeDegrees>37.086456120014190673828125</LongitudeDegrees>
            </Position>
            <AltitudeMeters>1231.4000244140625</AltitudeMeters>
            <DistanceMeters>NAN</DistanceMeters>
          </Trackpoint>
          <Trackpoint>
            <Time>2021-08-03T07:43:02.000Z</Time>
            <Position>
              <LatitudeDegrees>-15.34695751033723354339599609375</LatitudeDegrees>
              <LongitudeDegrees>37.08644949831068515777587890625</LongitudeDegrees>
            </Position>
            <AltitudeMeters>1231.5999755859375</AltitudeMeters>
            <DistanceMeters>NAN</DistanceMeters>
          </Trackpoint>
          <Trackpoint>
            <Time>2021-08-03T07:43:05.000Z</Time>
            <Position>
              <LatitudeDegrees>-15.34699757583439350128173828125</LatitudeDegrees>
              <LongitudeDegrees>37.0864479057490825653076171875</LongitudeDegrees>
            </Position>
            <AltitudeMeters>1231.800048828125</AltitudeMeters>
            <DistanceMeters>NAN</DistanceMeters>
          </Trackpoint>
          <Trackpoint>
            <Time>2021-08-03T07:43:08.000Z</Time>
            <Position>
              <LatitudeDegrees>-15.3470442630350589752197265625</LatitudeDegrees>
              <LongitudeDegrees>37.08643734455108642578125</LongitudeDegrees>
            </Position>
            <AltitudeMeters>1232</AltitudeMeters>
            <DistanceMeters>NAN</DistanceMeters>
          </Trackpoint>
          <Trackpoint>
            <Time>2021-08-03T07:43:20.000Z</Time>
            <Position>
              <LatitudeDegrees>-15.34718214534223079681396484375</LatitudeDegrees>
              <LongitudeDegrees>37.0864234305918216705322265625</LongitudeDegrees>
            </Position>
            <AltitudeMeters>1232.199951171875</AltitudeMeters>
            <DistanceMeters>NAN</DistanceMeters>
          </Trackpoint>
          <Trackpoint>
            <Time>2021-08-03T07:43:28.000Z</Time>
            <Position>
              <LatitudeDegrees>-15.34727635793387889862060546875</LatitudeDegrees>
              <LongitudeDegrees>37.08640976808965206146240234375</LongitudeDegrees>
            </Position>
            <AltitudeMeters>1232.199951171875</AltitudeMeters>
            <DistanceMeters>NAN</DistanceMeters>
          </Trackpoint>
          <Trackpoint>
            <Time>2021-08-03T07:43:35.000Z</Time>
            <Position>
              <LatitudeDegrees>-15.347362272441387176513671875</LatitudeDegrees>
              <LongitudeDegrees>37.08640323020517826080322265625</LongitudeDegrees>
            </Position>
            <AltitudeMeters>1232.4000244140625</AltitudeMeters>
            <DistanceMeters>NAN</DistanceMeters>
          </Trackpoint>
          <Trackpoint>
            <Time>2021-08-03T07:43:43.000Z</Time>
            <Position>
              <LatitudeDegrees>-15.347443409264087677001953125</LatitudeDegrees>
              <LongitudeDegrees>37.08638931624591350555419921875</LongitudeDegrees>
            </Position>
            <AltitudeMeters>1232.199951171875</AltitudeMeters>
            <DistanceMeters>NAN</DistanceMeters>
          </Trackpoint>
          <Trackpoint>
            <Time>2021-08-03T07:43:52.000Z</Time>
            <Position>
              <LatitudeDegrees>-15.3475619293749332427978515625</LatitudeDegrees>
              <LongitudeDegrees>37.08636836148798465728759765625</LongitudeDegrees>
            </Position>
            <AltitudeMeters>1232.199951171875</AltitudeMeters>
            <DistanceMeters>NAN</DistanceMeters>
          </Trackpoint>
          <Trackpoint>
            <Time>2021-08-03T07:43:54.000Z</Time>
            <Position>
              <LatitudeDegrees>-15.34758447669446468353271484375</LatitudeDegrees>
              <LongitudeDegrees>37.0863691158592700958251953125</LongitudeDegrees>
            </Position>
            <AltitudeMeters>1232.199951171875</AltitudeMeters>
            <DistanceMeters>NAN</DistanceMeters>
          </Trackpoint>
          <Trackpoint>
            <Time>2021-08-03T07:44:05.000Z</Time>
            <Position>
              <LatitudeDegrees>-15.347719006240367889404296875</LatitudeDegrees>
              <LongitudeDegrees>37.08635075949132442474365234375</LongitudeDegrees>
            </Position>
            <AltitudeMeters>1232.800048828125</AltitudeMeters>
            <DistanceMeters>NAN</DistanceMeters>
          </Trackpoint>
          <Trackpoint>
            <Time>2021-08-03T07:44:06.000Z</Time>
            <Position>
              <LatitudeDegrees>-15.34772898070514202117919921875</LatitudeDegrees>
              <LongitudeDegrees>37.08635075949132442474365234375</LongitudeDegrees>
            </Position>
            <AltitudeMeters>1232.800048828125</AltitudeMeters>
            <DistanceMeters>NAN</DistanceMeters>
          </Trackpoint>
          <Trackpoint>
            <Time>2021-08-03T07:44:14.000Z</Time>
            <Position>
              <LatitudeDegrees>-15.3478051722049713134765625</LatitudeDegrees>
              <LongitudeDegrees>37.0863394439220428466796875</LongitudeDegrees>
            </Position>
            <AltitudeMeters>1233.800048828125</AltitudeMeters>
            <DistanceMeters>NAN</DistanceMeters>
          </Trackpoint>
          <Trackpoint>
            <Time>2021-08-03T07:44:15.000Z</Time>
            <Position>
              <LatitudeDegrees>-15.3478153981268405914306640625</LatitudeDegrees>
              <LongitudeDegrees>37.08633919246494770050048828125</LongitudeDegrees>
            </Position>
            <AltitudeMeters>1233.800048828125</AltitudeMeters>
            <DistanceMeters>NAN</DistanceMeters>
          </Trackpoint>
          <Trackpoint>
            <Time>2021-08-03T07:44:22.000Z</Time>
            <Position>
              <LatitudeDegrees>-15.34788765013217926025390625</LatitudeDegrees>
              <LongitudeDegrees>37.08633952774107456207275390625</LongitudeDegrees>
            </Position>
            <AltitudeMeters>1234.5999755859375</AltitudeMeters>
            <DistanceMeters>NAN</DistanceMeters>
          </Trackpoint>
          <Trackpoint>
            <Time>2021-08-03T07:44:25.000Z</Time>
            <Position>
              <LatitudeDegrees>-15.34791723825037479400634765625</LatitudeDegrees>
              <LongitudeDegrees>37.0863319002091884613037109375</LongitudeDegrees>
            </Position>
            <AltitudeMeters>1234.800048828125</AltitudeMeters>
            <DistanceMeters>NAN</DistanceMeters>
          </Trackpoint>
          <Trackpoint>
            <Time>2021-08-03T07:44:26.000Z</Time>
            <Position>
              <LatitudeDegrees>-15.34792721271514892578125</LatitudeDegrees>
              <LongitudeDegrees>37.08632913418114185333251953125</LongitudeDegrees>
            </Position>
            <AltitudeMeters>1235</AltitudeMeters>
            <DistanceMeters>NAN</DistanceMeters>
          </Trackpoint>
          <Trackpoint>
            <Time>2021-08-03T07:44:40.000Z</Time>
            <Position>
              <LatitudeDegrees>-15.34806794486939907073974609375</LatitudeDegrees>
              <LongitudeDegrees>37.08630281500518321990966796875</LongitudeDegrees>
            </Position>
            <AltitudeMeters>1236</AltitudeMeters>
            <DistanceMeters>NAN</DistanceMeters>
          </Trackpoint>
          <Trackpoint>
            <Time>2021-08-03T07:44:47.000Z</Time>
            <Position>
              <LatitudeDegrees>-15.34813500009477138519287109375</LatitudeDegrees>
              <LongitudeDegrees>37.08629443310201168060302734375</LongitudeDegrees>
            </Position>
            <AltitudeMeters>1236.5999755859375</AltitudeMeters>
            <DistanceMeters>NAN</DistanceMeters>
          </Trackpoint>
          <Trackpoint>
            <Time>2021-08-03T07:44:48.000Z</Time>
            <Position>
              <LatitudeDegrees>-15.34813784994184970855712890625</LatitudeDegrees>
              <LongitudeDegrees>37.08629585802555084228515625</LongitudeDegrees>
            </Position>
            <AltitudeMeters>1236.800048828125</AltitudeMeters>
            <DistanceMeters>NAN</DistanceMeters>
          </Trackpoint>
          <Trackpoint>
            <Time>2021-08-03T07:44:53.000Z</Time>
            <Position>
              <LatitudeDegrees>-15.34819451160728931427001953125</LatitudeDegrees>
              <LongitudeDegrees>37.08631169982254505157470703125</LongitudeDegrees>
            </Position>
            <AltitudeMeters>1237.199951171875</AltitudeMeters>
            <DistanceMeters>NAN</DistanceMeters>
          </Trackpoint>
          <Trackpoint>
            <Time>2021-08-03T07:44:59.000Z</Time>
            <Position>
              <LatitudeDegrees>-15.3482468985021114349365234375</LatitudeDegrees>
              <LongitudeDegrees>37.0863099396228790283203125</LongitudeDegrees>
            </Position>
            <AltitudeMeters>1236.800048828125</AltitudeMeters>
            <DistanceMeters>NAN</DistanceMeters>
          </Trackpoint>
          <Trackpoint>
            <Time>2021-08-03T07:45:05.000Z</Time>
            <Position>
              <LatitudeDegrees>-15.34829241223633289337158203125</LatitudeDegrees>
              <LongitudeDegrees>37.0863117836415767669677734375</LongitudeDegrees>
            </Position>
            <AltitudeMeters>1237.199951171875</AltitudeMeters>
            <DistanceMeters>NAN</DistanceMeters>
          </Trackpoint>
          <Trackpoint>
            <Time>2021-08-03T07:45:11.000Z</Time>
            <Position>
              <LatitudeDegrees>-15.34834186546504497528076171875</LatitudeDegrees>
              <LongitudeDegrees>37.08630180917680263519287109375</LongitudeDegrees>
            </Position>
            <AltitudeMeters>1238.4000244140625</AltitudeMeters>
            <DistanceMeters>NAN</DistanceMeters>
          </Trackpoint>
          <Trackpoint>
            <Time>2021-08-03T07:45:12.000Z</Time>
            <Position>
              <LatitudeDegrees>-15.3483508341014385223388671875</LatitudeDegrees>
              <LongitudeDegrees>37.0863003842532634735107421875</LongitudeDegrees>
            </Position>
            <AltitudeMeters>1238.5999755859375</AltitudeMeters>
            <DistanceMeters>NAN</DistanceMeters>
          </Trackpoint>
          <Trackpoint>
            <Time>2021-08-03T07:45:14.000Z</Time>
            <Position>
              <LatitudeDegrees>-15.348378829658031463623046875</LatitudeDegrees>
              <LongitudeDegrees>37.086293511092662811279296875</LongitudeDegrees>
            </Position>
            <AltitudeMeters>1238.800048828125</AltitudeMeters>
            <DistanceMeters>NAN</DistanceMeters>
          </Trackpoint>
          <Trackpoint>
            <Time>2021-08-03T07:45:18.000Z</Time>
            <Position>
              <LatitudeDegrees>-15.3484054841101169586181640625</LatitudeDegrees>
              <LongitudeDegrees>37.086284793913364410400390625</LongitudeDegrees>
            </Position>
            <AltitudeMeters>1238.800048828125</AltitudeMeters>
            <DistanceMeters>NAN</DistanceMeters>
          </Trackpoint>
          <Trackpoint>
            <Time>2021-08-03T07:45:23.000Z</Time>
            <Position>
              <LatitudeDegrees>-15.34845166839659214019775390625</LatitudeDegrees>
              <LongitudeDegrees>37.086257636547088623046875</LongitudeDegrees>
            </Position>
            <AltitudeMeters>1239.5999755859375</AltitudeMeters>
            <DistanceMeters>NAN</DistanceMeters>
          </Trackpoint>
          <Trackpoint>
            <Time>2021-08-03T07:45:28.000Z</Time>
            <Position>
              <LatitudeDegrees>-15.34850053489208221435546875</LatitudeDegrees>
              <LongitudeDegrees>37.08624414168298244476318359375</LongitudeDegrees>
            </Position>
            <AltitudeMeters>1240.4000244140625</AltitudeMeters>
            <DistanceMeters>NAN</DistanceMeters>
          </Trackpoint>
          <Trackpoint>
            <Time>2021-08-03T07:45:30.000Z</Time>
            <Position>
              <LatitudeDegrees>-15.348519645631313323974609375</LatitudeDegrees>
              <LongitudeDegrees>37.086226455867290496826171875</LongitudeDegrees>
            </Position>
            <AltitudeMeters>1240.800048828125</AltitudeMeters>
            <DistanceMeters>NAN</DistanceMeters>
          </Trackpoint>
          <Trackpoint>
            <Time>2021-08-03T07:45:35.000Z</Time>
            <Position>
              <LatitudeDegrees>-15.34856197424232959747314453125</LatitudeDegrees>
              <LongitudeDegrees>37.0861907489597797393798828125</LongitudeDegrees>
            </Position>
            <AltitudeMeters>1241.800048828125</AltitudeMeters>
            <DistanceMeters>NAN</DistanceMeters>
          </Trackpoint>
          <Trackpoint>
            <Time>2021-08-03T07:45:36.000Z</Time>
            <Position>
              <LatitudeDegrees>-15.34856867976486682891845703125</LatitudeDegrees>
              <LongitudeDegrees>37.08618731237947940826416015625</LongitudeDegrees>
            </Position>
            <AltitudeMeters>1242</AltitudeMeters>
            <DistanceMeters>NAN</DistanceMeters>
          </Trackpoint>
          <Trackpoint>
            <Time>2021-08-03T07:45:42.000Z</Time>
            <Position>
              <LatitudeDegrees>-15.34860338084399700164794921875</LatitudeDegrees>
              <LongitudeDegrees>37.0861651003360748291015625</LongitudeDegrees>
            </Position>
            <AltitudeMeters>1242.800048828125</AltitudeMeters>
            <DistanceMeters>NAN</DistanceMeters>
          </Trackpoint>
          <Trackpoint>
            <Time>2021-08-03T07:45:45.000Z</Time>
            <Position>
              <LatitudeDegrees>-15.34862835891544818878173828125</LatitudeDegrees>
              <LongitudeDegrees>37.08614188246428966522216796875</LongitudeDegrees>
            </Position>
            <AltitudeMeters>1243.4000244140625</AltitudeMeters>
            <DistanceMeters>NAN</DistanceMeters>
          </Trackpoint>
          <Trackpoint>
            <Time>2021-08-03T07:45:47.000Z</Time>
            <Position>
              <LatitudeDegrees>-15.34863858483731746673583984375</LatitudeDegrees>
              <LongitudeDegrees>37.08612419664859771728515625</LongitudeDegrees>
            </Position>
            <AltitudeMeters>1243.4000244140625</AltitudeMeters>
            <DistanceMeters>NAN</DistanceMeters>
          </Trackpoint>
          <Trackpoint>
            <Time>2021-08-03T07:45:50.000Z</Time>
            <Position>
              <LatitudeDegrees>-15.34865476191043853759765625</LatitudeDegrees>
              <LongitudeDegrees>37.08610810339450836181640625</LongitudeDegrees>
            </Position>
            <AltitudeMeters>1244</AltitudeMeters>
            <DistanceMeters>NAN</DistanceMeters>
          </Trackpoint>
          <Trackpoint>
            <Time>2021-08-03T07:45:53.000Z</Time>
            <Position>
              <LatitudeDegrees>-15.348669849336147308349609375</LatitudeDegrees>
              <LongitudeDegrees>37.08609963767230510711669921875</LongitudeDegrees>
            </Position>
            <AltitudeMeters>1244.4000244140625</AltitudeMeters>
            <DistanceMeters>NAN</DistanceMeters>
          </Trackpoint>
          <Trackpoint>
            <Time>2021-08-03T07:45:54.000Z</Time>
            <Position>
              <LatitudeDegrees>-15.3486773930490016937255859375</LatitudeDegrees>
              <LongitudeDegrees>37.08609393797814846038818359375</LongitudeDegrees>
            </Position>
            <AltitudeMeters>1244.5999755859375</AltitudeMeters>
            <DistanceMeters>NAN</DistanceMeters>
          </Trackpoint>
          <Trackpoint>
            <Time>2021-08-03T07:45:56.000Z</Time>
            <Position>
              <LatitudeDegrees>-15.34869222901761531829833984375</LatitudeDegrees>
              <LongitudeDegrees>37.08609159104526042938232421875</LongitudeDegrees>
            </Position>
            <AltitudeMeters>1245</AltitudeMeters>
            <DistanceMeters>NAN</DistanceMeters>
          </Trackpoint>
          <Trackpoint>
            <Time>2021-08-03T07:45:57.000Z</Time>
            <Position>
              <LatitudeDegrees>-15.34870128147304058074951171875</LatitudeDegrees>
              <LongitudeDegrees>37.086085975170135498046875</LongitudeDegrees>
            </Position>
            <AltitudeMeters>1245</AltitudeMeters>
            <DistanceMeters>NAN</DistanceMeters>
          </Trackpoint>
          <Trackpoint>
            <Time>2021-08-03T07:45:58.000Z</Time>
            <Position>
              <LatitudeDegrees>-15.34870840609073638916015625</LatitudeDegrees>
              <LongitudeDegrees>37.08608262240886688232421875</LongitudeDegrees>
            </Position>
            <AltitudeMeters>1245.4000244140625</AltitudeMeters>
            <DistanceMeters>NAN</DistanceMeters>
          </Trackpoint>
          <Trackpoint>
            <Time>2021-08-03T07:45:59.000Z</Time>
            <Position>
              <LatitudeDegrees>-15.3487166203558444976806640625</LatitudeDegrees>
              <LongitudeDegrees>37.08608086220920085906982421875</LongitudeDegrees>
            </Position>
            <AltitudeMeters>1245.5999755859375</AltitudeMeters>
            <DistanceMeters>NAN</DistanceMeters>
          </Trackpoint>
          <Trackpoint>
            <Time>2021-08-03T07:46:01.000Z</Time>
            <Position>
              <LatitudeDegrees>-15.3487323783338069915771484375</LatitudeDegrees>
              <LongitudeDegrees>37.086071558296680450439453125</LongitudeDegrees>
            </Position>
            <AltitudeMeters>1245.800048828125</AltitudeMeters>
            <DistanceMeters>NAN</DistanceMeters>
          </Trackpoint>
          <Trackpoint>
            <Time>2021-08-03T07:46:02.000Z</Time>
            <Position>
              <LatitudeDegrees>-15.34874050877988338470458984375</LatitudeDegrees>
              <LongitudeDegrees>37.0860646851360797882080078125</LongitudeDegrees>
            </Position>
            <AltitudeMeters>1246.199951171875</AltitudeMeters>
            <DistanceMeters>NAN</DistanceMeters>
          </Trackpoint>
          <Trackpoint>
            <Time>2021-08-03T07:46:08.000Z</Time>
            <Position>
              <LatitudeDegrees>-15.3487866930663585662841796875</LatitudeDegrees>
              <LongitudeDegrees>37.08604431711137294769287109375</LongitudeDegrees>
            </Position>
            <AltitudeMeters>1247.199951171875</AltitudeMeters>
            <DistanceMeters>NAN</DistanceMeters>
          </Trackpoint>
          <Trackpoint>
            <Time>2021-08-03T07:46:14.000Z</Time>
            <Position>
              <LatitudeDegrees>-15.3488379903137683868408203125</LatitudeDegrees>
              <LongitudeDegrees>37.086039371788501739501953125</LongitudeDegrees>
            </Position>
            <AltitudeMeters>1247.800048828125</AltitudeMeters>
            <DistanceMeters>NAN</DistanceMeters>
          </Trackpoint>
          <Trackpoint>
            <Time>2021-08-03T07:46:18.000Z</Time>
            <Position>
              <LatitudeDegrees>-15.34888115711510181427001953125</LatitudeDegrees>
              <LongitudeDegrees>37.08603174425661563873291015625</LongitudeDegrees>
            </Position>
            <AltitudeMeters>1248.199951171875</AltitudeMeters>
            <DistanceMeters>NAN</DistanceMeters>
          </Trackpoint>
          <Trackpoint>
            <Time>2021-08-03T07:46:19.000Z</Time>
            <Position>
              <LatitudeDegrees>-15.34889289177954196929931640625</LatitudeDegrees>
              <LongitudeDegrees>37.08603442646563053131103515625</LongitudeDegrees>
            </Position>
            <AltitudeMeters>1248.199951171875</AltitudeMeters>
            <DistanceMeters>NAN</DistanceMeters>
          </Trackpoint>
          <Trackpoint>
            <Time>2021-08-03T07:46:20.000Z</Time>
            <Position>
              <LatitudeDegrees>-15.34890496172010898590087890625</LatitudeDegrees>
              <LongitudeDegrees>37.08603325299918651580810546875</LongitudeDegrees>
            </Position>
            <AltitudeMeters>1248.4000244140625</AltitudeMeters>
            <DistanceMeters>NAN</DistanceMeters>
          </Trackpoint>
          <Trackpoint>
            <Time>2021-08-03T07:46:22.000Z</Time>
            <Position>
              <LatitudeDegrees>-15.3489275090396404266357421875</LatitudeDegrees>
              <LongitudeDegrees>37.08603342063724994659423828125</LongitudeDegrees>
            </Position>
            <AltitudeMeters>1248.4000244140625</AltitudeMeters>
            <DistanceMeters>NAN</DistanceMeters>
          </Trackpoint>
          <Trackpoint>
            <Time>2021-08-03T07:46:24.000Z</Time>
            <Position>
              <LatitudeDegrees>-15.3489536605775356292724609375</LatitudeDegrees>
              <LongitudeDegrees>37.08603677339851856231689453125</LongitudeDegrees>
            </Position>
            <AltitudeMeters>1248.5999755859375</AltitudeMeters>
            <DistanceMeters>NAN</DistanceMeters>
          </Trackpoint>
          <Trackpoint>
            <Time>2021-08-03T07:46:25.000Z</Time>
            <Position>
              <LatitudeDegrees>-15.34896430559456348419189453125</LatitudeDegrees>
              <LongitudeDegrees>37.0860388688743114471435546875</LongitudeDegrees>
            </Position>
            <AltitudeMeters>1248.5999755859375</AltitudeMeters>
            <DistanceMeters>NAN</DistanceMeters>
          </Trackpoint>
          <Trackpoint>
            <Time>2021-08-03T07:46:26.000Z</Time>
            <Position>
              <LatitudeDegrees>-15.34897168166935443878173828125</LatitudeDegrees>
              <LongitudeDegrees>37.08604163490235805511474609375</LongitudeDegrees>
            </Position>
            <AltitudeMeters>1248.800048828125</AltitudeMeters>
            <DistanceMeters>NAN</DistanceMeters>
          </Trackpoint>
          <Trackpoint>
            <Time>2021-08-03T07:46:28.000Z</Time>
            <Position>
              <LatitudeDegrees>-15.3489868529140949249267578125</LatitudeDegrees>
              <LongitudeDegrees>37.08604901097714900970458984375</LongitudeDegrees>
            </Position>
            <AltitudeMeters>1248.800048828125</AltitudeMeters>
            <DistanceMeters>NAN</DistanceMeters>
          </Trackpoint>
          <Trackpoint>
            <Time>2021-08-03T07:46:30.000Z</Time>
            <Position>
              <LatitudeDegrees>-15.3489992581307888031005859375</LatitudeDegrees>
              <LongitudeDegrees>37.0860564708709716796875</LongitudeDegrees>
            </Position>
            <AltitudeMeters>1249</AltitudeMeters>
            <DistanceMeters>NAN</DistanceMeters>
          </Trackpoint>
          <Trackpoint>
            <Time>2021-08-03T07:46:37.000Z</Time>
            <Position>
              <LatitudeDegrees>-15.34906203858554363250732421875</LatitudeDegrees>
              <LongitudeDegrees>37.08608329296112060546875</LongitudeDegrees>
            </Position>
            <AltitudeMeters>1249.199951171875</AltitudeMeters>
            <DistanceMeters>NAN</DistanceMeters>
          </Trackpoint>
          <Trackpoint>
            <Time>2021-08-03T07:46:39.000Z</Time>
            <Position>
              <LatitudeDegrees>-15.349082909524440765380859375</LatitudeDegrees>
              <LongitudeDegrees>37.0860925130546092987060546875</LongitudeDegrees>
            </Position>
            <AltitudeMeters>1249.5999755859375</AltitudeMeters>
            <DistanceMeters>NAN</DistanceMeters>
          </Trackpoint>
          <Trackpoint>
            <Time>2021-08-03T07:46:43.000Z</Time>
            <Position>
              <LatitudeDegrees>-15.3490964882075786590576171875</LatitudeDegrees>
              <LongitudeDegrees>37.086133919656276702880859375</LongitudeDegrees>
            </Position>
            <AltitudeMeters>1249.5999755859375</AltitudeMeters>
            <DistanceMeters>NAN</DistanceMeters>
          </Trackpoint>
          <Trackpoint>
            <Time>2021-08-03T07:46:45.000Z</Time>
            <Position>
              <LatitudeDegrees>-15.34910679794847965240478515625</LatitudeDegrees>
              <LongitudeDegrees>37.08616250194609165191650390625</LongitudeDegrees>
            </Position>
            <AltitudeMeters>1249.5999755859375</AltitudeMeters>
            <DistanceMeters>NAN</DistanceMeters>
          </Trackpoint>
          <Trackpoint>
            <Time>2021-08-03T07:46:49.000Z</Time>
            <Position>
              <LatitudeDegrees>-15.3491417504847049713134765625</LatitudeDegrees>
              <LongitudeDegrees>37.08620558492839336395263671875</LongitudeDegrees>
            </Position>
            <AltitudeMeters>1249.5999755859375</AltitudeMeters>
            <DistanceMeters>NAN</DistanceMeters>
          </Trackpoint>
          <Trackpoint>
            <Time>2021-08-03T07:46:53.000Z</Time>
            <Position>
              <LatitudeDegrees>-15.34917066805064678192138671875</LatitudeDegrees>
              <LongitudeDegrees>37.0862323231995105743408203125</LongitudeDegrees>
            </Position>
            <AltitudeMeters>1250.5999755859375</AltitudeMeters>
            <DistanceMeters>NAN</DistanceMeters>
          </Trackpoint>
          <Trackpoint>
            <Time>2021-08-03T07:46:59.000Z</Time>
            <Position>
              <LatitudeDegrees>-15.34920419566333293914794921875</LatitudeDegrees>
              <LongitudeDegrees>37.0862795971333980560302734375</LongitudeDegrees>
            </Position>
            <AltitudeMeters>1251.5999755859375</AltitudeMeters>
            <DistanceMeters>NAN</DistanceMeters>
          </Trackpoint>
          <Trackpoint>
            <Time>2021-08-03T07:47:01.000Z</Time>
            <Position>
              <LatitudeDegrees>-15.34922129474580287933349609375</LatitudeDegrees>
              <LongitudeDegrees>37.0862920023500919342041015625</LongitudeDegrees>
            </Position>
            <AltitudeMeters>1251.800048828125</AltitudeMeters>
            <DistanceMeters>NAN</DistanceMeters>
          </Trackpoint>
          <Trackpoint>
            <Time>2021-08-03T07:47:08.000Z</Time>
            <Position>
              <LatitudeDegrees>-15.34926337189972400665283203125</LatitudeDegrees>
              <LongitudeDegrees>37.0863372646272182464599609375</LongitudeDegrees>
            </Position>
            <AltitudeMeters>1252.5999755859375</AltitudeMeters>
            <DistanceMeters>NAN</DistanceMeters>
          </Trackpoint>
          <Trackpoint>
            <Time>2021-08-03T07:47:12.000Z</Time>
            <Position>
              <LatitudeDegrees>-15.34928818233311176300048828125</LatitudeDegrees>
              <LongitudeDegrees>37.08635914139449596405029296875</LongitudeDegrees>
            </Position>
            <AltitudeMeters>1252.800048828125</AltitudeMeters>
            <DistanceMeters>NAN</DistanceMeters>
          </Trackpoint>
          <Trackpoint>
            <Time>2021-08-03T07:47:17.000Z</Time>
            <Position>
              <LatitudeDegrees>-15.34932170994579792022705078125</LatitudeDegrees>
              <LongitudeDegrees>37.08639551885426044464111328125</LongitudeDegrees>
            </Position>
            <AltitudeMeters>1252.5999755859375</AltitudeMeters>
            <DistanceMeters>NAN</DistanceMeters>
          </Trackpoint>
          <Trackpoint>
            <Time>2021-08-03T07:47:19.000Z</Time>
            <Position>
              <LatitudeDegrees>-15.3493365459144115447998046875</LatitudeDegrees>
              <LongitudeDegrees>37.08640859462320804595947265625</LongitudeDegrees>
            </Position>
            <AltitudeMeters>1252.5999755859375</AltitudeMeters>
            <DistanceMeters>NAN</DistanceMeters>
          </Trackpoint>
          <Trackpoint>
            <Time>2021-08-03T07:47:24.000Z</Time>
            <Position>
              <LatitudeDegrees>-15.3493784554302692413330078125</LatitudeDegrees>
              <LongitudeDegrees>37.08643508143723011016845703125</LongitudeDegrees>
            </Position>
            <AltitudeMeters>1253</AltitudeMeters>
            <DistanceMeters>NAN</DistanceMeters>
          </Trackpoint>
          <Trackpoint>
            <Time>2021-08-03T07:47:29.000Z</Time>
            <Position>
              <LatitudeDegrees>-15.349415503442287445068359375</LatitudeDegrees>
              <LongitudeDegrees>37.086434327065944671630859375</LongitudeDegrees>
            </Position>
            <AltitudeMeters>1253</AltitudeMeters>
            <DistanceMeters>NAN</DistanceMeters>
          </Trackpoint>
          <Trackpoint>
            <Time>2021-08-03T07:47:33.000Z</Time>
            <Position>
              <LatitudeDegrees>-15.34945808351039886474609375</LatitudeDegrees>
              <LongitudeDegrees>37.08644815720617771148681640625</LongitudeDegrees>
            </Position>
            <AltitudeMeters>1253.4000244140625</AltitudeMeters>
            <DistanceMeters>NAN</DistanceMeters>
          </Trackpoint>
          <Trackpoint>
            <Time>2021-08-03T07:47:36.000Z</Time>
            <Position>
              <LatitudeDegrees>-15.34950007684528827667236328125</LatitudeDegrees>
              <LongitudeDegrees>37.086445055902004241943359375</LongitudeDegrees>
            </Position>
            <AltitudeMeters>1253.5999755859375</AltitudeMeters>
            <DistanceMeters>NAN</DistanceMeters>
          </Trackpoint>
          <Trackpoint>
            <Time>2021-08-03T07:47:39.000Z</Time>
            <Position>
              <LatitudeDegrees>-15.34952354617416858673095703125</LatitudeDegrees>
              <LongitudeDegrees>37.08645142614841461181640625</LongitudeDegrees>
            </Position>
            <AltitudeMeters>1253.5999755859375</AltitudeMeters>
            <DistanceMeters>NAN</DistanceMeters>
          </Trackpoint>
          <Trackpoint>
            <Time>2021-08-03T07:47:42.000Z</Time>
            <Position>
              <LatitudeDegrees>-15.34956210292875766754150390625</LatitudeDegrees>
              <LongitudeDegrees>37.08646492101252079010009765625</LongitudeDegrees>
            </Position>
            <AltitudeMeters>1253.4000244140625</AltitudeMeters>
            <DistanceMeters>NAN</DistanceMeters>
          </Trackpoint>
          <Trackpoint>
            <Time>2021-08-03T07:47:44.000Z</Time>
            <Position>
              <LatitudeDegrees>-15.3495873324573040008544921875</LatitudeDegrees>
              <LongitudeDegrees>37.0864666812121868133544921875</LongitudeDegrees>
            </Position>
            <AltitudeMeters>1253.4000244140625</AltitudeMeters>
            <DistanceMeters>NAN</DistanceMeters>
          </Trackpoint>
          <Trackpoint>
            <Time>2021-08-03T07:47:50.000Z</Time>
            <Position>
              <LatitudeDegrees>-15.3496413119137287139892578125</LatitudeDegrees>
              <LongitudeDegrees>37.08647933788597583770751953125</LongitudeDegrees>
            </Position>
            <AltitudeMeters>1253.4000244140625</AltitudeMeters>
            <DistanceMeters>NAN</DistanceMeters>
          </Trackpoint>
          <Trackpoint>
            <Time>2021-08-03T07:47:51.000Z</Time>
            <Position>
              <LatitudeDegrees>-15.3496570698916912078857421875</LatitudeDegrees>
              <LongitudeDegrees>37.08648202009499073028564453125</LongitudeDegrees>
            </Position>
            <AltitudeMeters>1253.4000244140625</AltitudeMeters>
            <DistanceMeters>NAN</DistanceMeters>
          </Trackpoint>
          <Trackpoint>
            <Time>2021-08-03T07:47:57.000Z</Time>
            <Position>
              <LatitudeDegrees>-15.34973678179085254669189453125</LatitudeDegrees>
              <LongitudeDegrees>37.08649761043488979339599609375</LongitudeDegrees>
            </Position>
            <AltitudeMeters>1253.5999755859375</AltitudeMeters>
            <DistanceMeters>NAN</DistanceMeters>
          </Trackpoint>
          <Trackpoint>
            <Time>2021-08-03T07:48:01.000Z</Time>
            <Position>
              <LatitudeDegrees>-15.349776931107044219970703125</LatitudeDegrees>
              <LongitudeDegrees>37.08650649525225162506103515625</LongitudeDegrees>
            </Position>
            <AltitudeMeters>1253.5999755859375</AltitudeMeters>
            <DistanceMeters>NAN</DistanceMeters>
          </Trackpoint>
          <Trackpoint>
            <Time>2021-08-03T07:48:03.000Z</Time>
            <Position>
              <LatitudeDegrees>-15.34979746676981449127197265625</LatitudeDegrees>
              <LongitudeDegrees>37.0865082554519176483154296875</LongitudeDegrees>
            </Position>
            <AltitudeMeters>1253.5999755859375</AltitudeMeters>
            <DistanceMeters>NAN</DistanceMeters>
          </Trackpoint>
          <Trackpoint>
            <Time>2021-08-03T07:48:04.000Z</Time>
            <Position>
              <LatitudeDegrees>-15.3498072735965251922607421875</LatitudeDegrees>
              <LongitudeDegrees>37.0865072496235370635986328125</LongitudeDegrees>
            </Position>
            <AltitudeMeters>1253.800048828125</AltitudeMeters>
            <DistanceMeters>NAN</DistanceMeters>
          </Trackpoint>
          <Trackpoint>
            <Time>2021-08-03T07:48:05.000Z</Time>
            <Position>
              <LatitudeDegrees>-15.34981791861355304718017578125</LatitudeDegrees>
              <LongitudeDegrees>37.086508087813854217529296875</LongitudeDegrees>
            </Position>
            <AltitudeMeters>1253.800048828125</AltitudeMeters>
            <DistanceMeters>NAN</DistanceMeters>
          </Trackpoint>
          <Trackpoint>
            <Time>2021-08-03T07:48:13.000Z</Time>
            <Position>
              <LatitudeDegrees>-15.34990643151104450225830078125</LatitudeDegrees>
              <LongitudeDegrees>37.08654438145458698272705078125</LongitudeDegrees>
            </Position>
            <AltitudeMeters>1254.199951171875</AltitudeMeters>
            <DistanceMeters>NAN</DistanceMeters>
          </Trackpoint>
          <Trackpoint>
            <Time>2021-08-03T07:48:18.000Z</Time>
            <Position>
              <LatitudeDegrees>-15.3499574773013591766357421875</LatitudeDegrees>
              <LongitudeDegrees>37.08655879832804203033447265625</LongitudeDegrees>
            </Position>
            <AltitudeMeters>1254</AltitudeMeters>
            <DistanceMeters>NAN</DistanceMeters>
          </Trackpoint>
          <Trackpoint>
            <Time>2021-08-03T07:48:20.000Z</Time>
            <Position>
              <LatitudeDegrees>-15.34998756833374500274658203125</LatitudeDegrees>
              <LongitudeDegrees>37.0865753106772899627685546875</LongitudeDegrees>
            </Position>
            <AltitudeMeters>1254</AltitudeMeters>
            <DistanceMeters>NAN</DistanceMeters>
          </Trackpoint>
          <Trackpoint>
            <Time>2021-08-03T07:48:21.000Z</Time>
            <Position>
              <LatitudeDegrees>-15.35000257194042205810546875</LatitudeDegrees>
              <LongitudeDegrees>37.08658562041819095611572265625</LongitudeDegrees>
            </Position>
            <AltitudeMeters>1254</AltitudeMeters>
            <DistanceMeters>NAN</DistanceMeters>
          </Trackpoint>
          <Trackpoint>
            <Time>2021-08-03T07:48:25.000Z</Time>
            <Position>
              <LatitudeDegrees>-15.350042469799518585205078125</LatitudeDegrees>
              <LongitudeDegrees>37.08662048913538455963134765625</LongitudeDegrees>
            </Position>
            <AltitudeMeters>1254.800048828125</AltitudeMeters>
            <DistanceMeters>NAN</DistanceMeters>
          </Trackpoint>
          <Trackpoint>
            <Time>2021-08-03T07:48:27.000Z</Time>
            <Position>
              <LatitudeDegrees>-15.35006099380552768707275390625</LatitudeDegrees>
              <LongitudeDegrees>37.08664395846426486968994140625</LongitudeDegrees>
            </Position>
            <AltitudeMeters>1255</AltitudeMeters>
            <DistanceMeters>NAN</DistanceMeters>
          </Trackpoint>
          <Trackpoint>
            <Time>2021-08-03T07:48:32.000Z</Time>
            <Position>
              <LatitudeDegrees>-15.350110195577144622802734375</LatitudeDegrees>
              <LongitudeDegrees>37.08669274114072322845458984375</LongitudeDegrees>
            </Position>
            <AltitudeMeters>1255.199951171875</AltitudeMeters>
            <DistanceMeters>NAN</DistanceMeters>
          </Trackpoint>
          <Trackpoint>
            <Time>2021-08-03T07:48:37.000Z</Time>
            <Position>
              <LatitudeDegrees>-15.3501472435891628265380859375</LatitudeDegrees>
              <LongitudeDegrees>37.08674286492168903350830078125</LongitudeDegrees>
            </Position>
            <AltitudeMeters>1255.199951171875</AltitudeMeters>
            <DistanceMeters>NAN</DistanceMeters>
          </Trackpoint>
          <Trackpoint>
            <Time>2021-08-03T07:48:44.000Z</Time>
            <Position>
              <LatitudeDegrees>-15.3501921705901622772216796875</LatitudeDegrees>
              <LongitudeDegrees>37.08681545220315456390380859375</LongitudeDegrees>
            </Position>
            <AltitudeMeters>1256</AltitudeMeters>
            <DistanceMeters>NAN</DistanceMeters>
          </Trackpoint>
          <Trackpoint>
            <Time>2021-08-03T07:48:45.000Z</Time>
            <Position>
              <LatitudeDegrees>-15.35019694827497005462646484375</LatitudeDegrees>
              <LongitudeDegrees>37.08682400174438953399658203125</LongitudeDegrees>
            </Position>
            <AltitudeMeters>1256</AltitudeMeters>
            <DistanceMeters>NAN</DistanceMeters>
          </Trackpoint>
          <Trackpoint>
            <Time>2021-08-03T07:48:46.000Z</Time>
            <Position>
              <LatitudeDegrees>-15.35020214505493640899658203125</LatitudeDegrees>
              <LongitudeDegrees>37.08683221600949764251708984375</LongitudeDegrees>
            </Position>
            <AltitudeMeters>1256.199951171875</AltitudeMeters>
            <DistanceMeters>NAN</DistanceMeters>
          </Trackpoint>
          <Trackpoint>
            <Time>2021-08-03T07:48:51.000Z</Time>
            <Position>
              <LatitudeDegrees>-15.3502186574041843414306640625</LatitudeDegrees>
              <LongitudeDegrees>37.08688619546592235565185546875</LongitudeDegrees>
            </Position>
            <AltitudeMeters>1256.800048828125</AltitudeMeters>
            <DistanceMeters>NAN</DistanceMeters>
          </Trackpoint>
          <Trackpoint>
            <Time>2021-08-03T07:48:52.000Z</Time>
            <Position>
              <LatitudeDegrees>-15.350220836699008941650390625</LatitudeDegrees>
              <LongitudeDegrees>37.08689860068261623382568359375</LongitudeDegrees>
            </Position>
            <AltitudeMeters>1257.199951171875</AltitudeMeters>
            <DistanceMeters>NAN</DistanceMeters>
          </Trackpoint>
          <Trackpoint>
            <Time>2021-08-03T07:48:53.000Z</Time>
            <Position>
              <LatitudeDegrees>-15.35022427327930927276611328125</LatitudeDegrees>
              <LongitudeDegrees>37.08691033534705638885498046875</LongitudeDegrees>
            </Position>
            <AltitudeMeters>1257.4000244140625</AltitudeMeters>
            <DistanceMeters>NAN</DistanceMeters>
          </Trackpoint>
          <Trackpoint>
            <Time>2021-08-03T07:48:56.000Z</Time>
            <Position>
              <LatitudeDegrees>-15.350236929953098297119140625</LatitudeDegrees>
              <LongitudeDegrees>37.08693933673202991485595703125</LongitudeDegrees>
            </Position>
            <AltitudeMeters>1257.5999755859375</AltitudeMeters>
            <DistanceMeters>NAN</DistanceMeters>
          </Trackpoint>
          <Trackpoint>
            <Time>2021-08-03T07:48:57.000Z</Time>
            <Position>
              <LatitudeDegrees>-15.35024003125727176666259765625</LatitudeDegrees>
              <LongitudeDegrees>37.08694973029196262359619140625</LongitudeDegrees>
            </Position>
            <AltitudeMeters>1257.5999755859375</AltitudeMeters>
            <DistanceMeters>NAN</DistanceMeters>
          </Trackpoint>
          <Trackpoint>
            <Time>2021-08-03T07:49:00.000Z</Time>
            <Position>
              <LatitudeDegrees>-15.35025377757847309112548828125</LatitudeDegrees>
              <LongitudeDegrees>37.0869766362011432647705078125</LongitudeDegrees>
            </Position>
            <AltitudeMeters>1258</AltitudeMeters>
            <DistanceMeters>NAN</DistanceMeters>
          </Trackpoint>
          <Trackpoint>
            <Time>2021-08-03T07:49:02.000Z</Time>
            <Position>
              <LatitudeDegrees>-15.350264422595500946044921875</LatitudeDegrees>
              <LongitudeDegrees>37.08699197508394718170166015625</LongitudeDegrees>
            </Position>
            <AltitudeMeters>1258.199951171875</AltitudeMeters>
            <DistanceMeters>NAN</DistanceMeters>
          </Trackpoint>
          <Trackpoint>
            <Time>2021-08-03T07:49:04.000Z</Time>
            <Position>
              <LatitudeDegrees>-15.35027171485126018524169921875</LatitudeDegrees>
              <LongitudeDegrees>37.08700873889029026031494140625</LongitudeDegrees>
            </Position>
            <AltitudeMeters>1258.5999755859375</AltitudeMeters>
            <DistanceMeters>NAN</DistanceMeters>
          </Trackpoint>
          <Trackpoint>
            <Time>2021-08-03T07:49:08.000Z</Time>
            <Position>
              <LatitudeDegrees>-15.35028420388698577880859375</LatitudeDegrees>
              <LongitudeDegrees>37.087052576243877410888671875</LongitudeDegrees>
            </Position>
            <AltitudeMeters>1259</AltitudeMeters>
            <DistanceMeters>NAN</DistanceMeters>
          </Trackpoint>
          <Trackpoint>
            <Time>2021-08-03T07:49:14.000Z</Time>
            <Position>
              <LatitudeDegrees>-15.3502987883985042572021484375</LatitudeDegrees>
              <LongitudeDegrees>37.0871181227266788482666015625</LongitudeDegrees>
            </Position>
            <AltitudeMeters>1259.5999755859375</AltitudeMeters>
            <DistanceMeters>NAN</DistanceMeters>
          </Trackpoint>
          <Trackpoint>
            <Time>2021-08-03T07:49:18.000Z</Time>
            <Position>
              <LatitudeDegrees>-15.3503054939210414886474609375</LatitudeDegrees>
              <LongitudeDegrees>37.087145783007144927978515625</LongitudeDegrees>
            </Position>
            <AltitudeMeters>1260.199951171875</AltitudeMeters>
            <DistanceMeters>NAN</DistanceMeters>
          </Trackpoint>
          <Trackpoint>
            <Time>2021-08-03T07:49:24.000Z</Time>
            <Position>
              <LatitudeDegrees>-15.3503222577273845672607421875</LatitudeDegrees>
              <LongitudeDegrees>37.08718811161816120147705078125</LongitudeDegrees>
            </Position>
            <AltitudeMeters>1260.5999755859375</AltitudeMeters>
            <DistanceMeters>NAN</DistanceMeters>
          </Trackpoint>
          <Trackpoint>
            <Time>2021-08-03T07:49:25.000Z</Time>
            <Position>
              <LatitudeDegrees>-15.35033374093472957611083984375</LatitudeDegrees>
              <LongitudeDegrees>37.08719682879745960235595703125</LongitudeDegrees>
            </Position>
            <AltitudeMeters>1260.800048828125</AltitudeMeters>
            <DistanceMeters>NAN</DistanceMeters>
          </Trackpoint>
          <Trackpoint>
            <Time>2021-08-03T07:49:31.000Z</Time>
            <Position>
              <LatitudeDegrees>-15.3503604792058467864990234375</LatitudeDegrees>
              <LongitudeDegrees>37.0872632972896099090576171875</LongitudeDegrees>
            </Position>
            <AltitudeMeters>1261.4000244140625</AltitudeMeters>
            <DistanceMeters>NAN</DistanceMeters>
          </Trackpoint>
          <Trackpoint>
            <Time>2021-08-03T07:49:35.000Z</Time>
            <Position>
              <LatitudeDegrees>-15.35036198794841766357421875</LatitudeDegrees>
              <LongitudeDegrees>37.087287604808807373046875</LongitudeDegrees>
            </Position>
            <AltitudeMeters>1261.800048828125</AltitudeMeters>
            <DistanceMeters>NAN</DistanceMeters>
          </Trackpoint>
          <Trackpoint>
            <Time>2021-08-03T07:49:40.000Z</Time>
            <Position>
              <LatitudeDegrees>-15.3503738902509212493896484375</LatitudeDegrees>
              <LongitudeDegrees>37.08730780519545078277587890625</LongitudeDegrees>
            </Position>
            <AltitudeMeters>1262</AltitudeMeters>
            <DistanceMeters>NAN</DistanceMeters>
          </Trackpoint>
          <Trackpoint>
            <Time>2021-08-03T07:49:47.000Z</Time>
            <Position>
              <LatitudeDegrees>-15.35039576701819896697998046875</LatitudeDegrees>
              <LongitudeDegrees>37.08736714906990528106689453125</LongitudeDegrees>
            </Position>
            <AltitudeMeters>1262.4000244140625</AltitudeMeters>
            <DistanceMeters>NAN</DistanceMeters>
          </Trackpoint>
          <Trackpoint>
            <Time>2021-08-03T07:49:53.000Z</Time>
            <Position>
              <LatitudeDegrees>-15.3504392690956592559814453125</LatitudeDegrees>
              <LongitudeDegrees>37.0874356292188167572021484375</LongitudeDegrees>
            </Position>
            <AltitudeMeters>1262.5999755859375</AltitudeMeters>
            <DistanceMeters>NAN</DistanceMeters>
          </Trackpoint>
          <Trackpoint>
            <Time>2021-08-03T07:49:54.000Z</Time>
            <Position>
              <LatitudeDegrees>-15.3504446335136890411376953125</LatitudeDegrees>
              <LongitudeDegrees>37.08744593895971775054931640625</LongitudeDegrees>
            </Position>
            <AltitudeMeters>1262.5999755859375</AltitudeMeters>
            <DistanceMeters>NAN</DistanceMeters>
          </Trackpoint>
          <Trackpoint>
            <Time>2021-08-03T07:49:56.000Z</Time>
            <Position>
              <LatitudeDegrees>-15.35044857300817966461181640625</LatitudeDegrees>
              <LongitudeDegrees>37.08746337331831455230712890625</LongitudeDegrees>
            </Position>
            <AltitudeMeters>1262.5999755859375</AltitudeMeters>
            <DistanceMeters>NAN</DistanceMeters>
          </Trackpoint>
          <Trackpoint>
            <Time>2021-08-03T07:49:59.000Z</Time>
            <Position>
              <LatitudeDegrees>-15.35046097822487354278564453125</LatitudeDegrees>
              <LongitudeDegrees>37.08748147822916507720947265625</LongitudeDegrees>
            </Position>
            <AltitudeMeters>1263.4000244140625</AltitudeMeters>
            <DistanceMeters>NAN</DistanceMeters>
          </Trackpoint>
          <Trackpoint>
            <Time>2021-08-03T07:50:00.000Z</Time>
            <Position>
              <LatitudeDegrees>-15.35046466626226902008056640625</LatitudeDegrees>
              <LongitudeDegrees>37.08748617209494113922119140625</LongitudeDegrees>
            </Position>
            <AltitudeMeters>1263.5999755859375</AltitudeMeters>
            <DistanceMeters>NAN</DistanceMeters>
          </Trackpoint>
          <Trackpoint>
            <Time>2021-08-03T07:50:04.000Z</Time>
            <Position>
              <LatitudeDegrees>-15.3504966013133525848388671875</LatitudeDegrees>
              <LongitudeDegrees>37.08751936443150043487548828125</LongitudeDegrees>
            </Position>
            <AltitudeMeters>1264.800048828125</AltitudeMeters>
            <DistanceMeters>NAN</DistanceMeters>
          </Trackpoint>
          <Trackpoint>
            <Time>2021-08-03T07:50:06.000Z</Time>
            <Position>
              <LatitudeDegrees>-15.35051629878580570220947265625</LatitudeDegrees>
              <LongitudeDegrees>37.087529003620147705078125</LongitudeDegrees>
            </Position>
            <AltitudeMeters>1264.800048828125</AltitudeMeters>
            <DistanceMeters>NAN</DistanceMeters>
          </Trackpoint>
          <Trackpoint>
            <Time>2021-08-03T07:50:10.000Z</Time>
            <Position>
              <LatitudeDegrees>-15.350549407303333282470703125</LatitudeDegrees>
              <LongitudeDegrees>37.08756093867123126983642578125</LongitudeDegrees>
            </Position>
            <AltitudeMeters>1264.800048828125</AltitudeMeters>
            <DistanceMeters>NAN</DistanceMeters>
          </Trackpoint>
          <Trackpoint>
            <Time>2021-08-03T07:50:16.000Z</Time>
            <Position>
              <LatitudeDegrees>-15.3506203182041645050048828125</LatitudeDegrees>
              <LongitudeDegrees>37.08760854788124561309814453125</LongitudeDegrees>
            </Position>
            <AltitudeMeters>1264.5999755859375</AltitudeMeters>
            <DistanceMeters>NAN</DistanceMeters>
          </Trackpoint>
          <Trackpoint>
            <Time>2021-08-03T07:50:17.000Z</Time>
            <Position>
              <LatitudeDegrees>-15.3506260178983211517333984375</LatitudeDegrees>
              <LongitudeDegrees>37.08761240355670452117919921875</LongitudeDegrees>
            </Position>
            <AltitudeMeters>1264.5999755859375</AltitudeMeters>
            <DistanceMeters>NAN</DistanceMeters>
          </Trackpoint>
          <Trackpoint>
            <Time>2021-08-03T07:50:20.000Z</Time>
            <Position>
              <LatitudeDegrees>-15.35060212947428226470947265625</LatitudeDegrees>
              <LongitudeDegrees>37.08762397058308124542236328125</LongitudeDegrees>
            </Position>
            <AltitudeMeters>1264.4000244140625</AltitudeMeters>
            <DistanceMeters>NAN</DistanceMeters>
          </Trackpoint>
          <Trackpoint>
            <Time>2021-08-03T07:50:26.000Z</Time>
            <Position>
              <LatitudeDegrees>-15.35054714418947696685791015625</LatitudeDegrees>
              <LongitudeDegrees>37.08766504190862178802490234375</LongitudeDegrees>
            </Position>
            <AltitudeMeters>1264.5999755859375</AltitudeMeters>
            <DistanceMeters>NAN</DistanceMeters>
          </Trackpoint>
          <Trackpoint>
            <Time>2021-08-03T07:50:29.000Z</Time>
            <Position>
              <LatitudeDegrees>-15.35052292048931121826171875</LatitudeDegrees>
              <LongitudeDegrees>37.08769119344651699066162109375</LongitudeDegrees>
            </Position>
            <AltitudeMeters>1263.5999755859375</AltitudeMeters>
            <DistanceMeters>NAN</DistanceMeters>
          </Trackpoint>
          <Trackpoint>
            <Time>2021-08-03T07:50:38.000Z</Time>
            <Position>
              <LatitudeDegrees>-15.35046734847128391265869140625</LatitudeDegrees>
              <LongitudeDegrees>37.08777417428791522979736328125</LongitudeDegrees>
            </Position>
            <AltitudeMeters>1263</AltitudeMeters>
            <DistanceMeters>NAN</DistanceMeters>
          </Trackpoint>
          <Trackpoint>
            <Time>2021-08-03T07:50:42.000Z</Time>
            <Position>
              <LatitudeDegrees>-15.35044639371335506439208984375</LatitudeDegrees>
              <LongitudeDegrees>37.087817005813121795654296875</LongitudeDegrees>
            </Position>
            <AltitudeMeters>1262.5999755859375</AltitudeMeters>
            <DistanceMeters>NAN</DistanceMeters>
          </Trackpoint>
          <Trackpoint>
            <Time>2021-08-03T07:50:43.000Z</Time>
            <Position>
              <LatitudeDegrees>-15.350442118942737579345703125</LatitudeDegrees>
              <LongitudeDegrees>37.08782513625919818878173828125</LongitudeDegrees>
            </Position>
            <AltitudeMeters>1262.5999755859375</AltitudeMeters>
            <DistanceMeters>NAN</DistanceMeters>
          </Trackpoint>
          <Trackpoint>
            <Time>2021-08-03T07:50:47.000Z</Time>
            <Position>
              <LatitudeDegrees>-15.35043231211602687835693359375</LatitudeDegrees>
              <LongitudeDegrees>37.08785229362547397613525390625</LongitudeDegrees>
            </Position>
            <AltitudeMeters>1262</AltitudeMeters>
            <DistanceMeters>NAN</DistanceMeters>
          </Trackpoint>
          <Trackpoint>
            <Time>2021-08-03T07:50:49.000Z</Time>
            <Position>
              <LatitudeDegrees>-15.3504315577447414398193359375</LatitudeDegrees>
              <LongitudeDegrees>37.0878778584301471710205078125</LongitudeDegrees>
            </Position>
            <AltitudeMeters>1261.199951171875</AltitudeMeters>
            <DistanceMeters>NAN</DistanceMeters>
          </Trackpoint>
          <Trackpoint>
            <Time>2021-08-03T07:50:51.000Z</Time>
            <Position>
              <LatitudeDegrees>-15.3504283726215362548828125</LatitudeDegrees>
              <LongitudeDegrees>37.08790250122547149658203125</LongitudeDegrees>
            </Position>
            <AltitudeMeters>1260.199951171875</AltitudeMeters>
            <DistanceMeters>NAN</DistanceMeters>
          </Trackpoint>
          <Trackpoint>
            <Time>2021-08-03T07:50:52.000Z</Time>
            <Position>
              <LatitudeDegrees>-15.35042577423155307769775390625</LatitudeDegrees>
              <LongitudeDegrees>37.08791054785251617431640625</LongitudeDegrees>
            </Position>
            <AltitudeMeters>1260</AltitudeMeters>
            <DistanceMeters>NAN</DistanceMeters>
          </Trackpoint>
          <Trackpoint>
            <Time>2021-08-03T07:50:53.000Z</Time>
            <Position>
              <LatitudeDegrees>-15.35042359493672847747802734375</LatitudeDegrees>
              <LongitudeDegrees>37.08791683427989482879638671875</LongitudeDegrees>
            </Position>
            <AltitudeMeters>1259.800048828125</AltitudeMeters>
            <DistanceMeters>NAN</DistanceMeters>
          </Trackpoint>
          <Trackpoint>
            <Time>2021-08-03T07:50:58.000Z</Time>
            <Position>
              <LatitudeDegrees>-15.350413285195827484130859375</LatitudeDegrees>
              <LongitudeDegrees>37.0879633538424968719482421875</LongitudeDegrees>
            </Position>
            <AltitudeMeters>1259.4000244140625</AltitudeMeters>
            <DistanceMeters>NAN</DistanceMeters>
          </Trackpoint>
          <Trackpoint>
            <Time>2021-08-03T07:51:00.000Z</Time>
            <Position>
              <LatitudeDegrees>-15.35041135735809803009033203125</LatitudeDegrees>
              <LongitudeDegrees>37.08798590116202831268310546875</LongitudeDegrees>
            </Position>
            <AltitudeMeters>1259</AltitudeMeters>
            <DistanceMeters>NAN</DistanceMeters>
          </Trackpoint>
          <Trackpoint>
            <Time>2021-08-03T07:51:01.000Z</Time>
            <Position>
              <LatitudeDegrees>-15.350411944091320037841796875</LatitudeDegrees>
              <LongitudeDegrees>37.08799771964550018310546875</LongitudeDegrees>
            </Position>
            <AltitudeMeters>1258.5999755859375</AltitudeMeters>
            <DistanceMeters>NAN</DistanceMeters>
          </Trackpoint>
          <Trackpoint>
            <Time>2021-08-03T07:51:03.000Z</Time>
            <Position>
              <LatitudeDegrees>-15.35040766932070255279541015625</LatitudeDegrees>
              <LongitudeDegrees>37.08800903521478176116943359375</LongitudeDegrees>
            </Position>
            <AltitudeMeters>1258</AltitudeMeters>
            <DistanceMeters>NAN</DistanceMeters>
          </Trackpoint>
          <Trackpoint>
            <Time>2021-08-03T07:51:07.000Z</Time>
            <Position>
              <LatitudeDegrees>-15.3503936715424060821533203125</LatitudeDegrees>
              <LongitudeDegrees>37.0880344323813915252685546875</LongitudeDegrees>
            </Position>
            <AltitudeMeters>1257.5999755859375</AltitudeMeters>
            <DistanceMeters>NAN</DistanceMeters>
          </Trackpoint>
          <Trackpoint>
            <Time>2021-08-03T07:51:10.000Z</Time>
            <Position>
              <LatitudeDegrees>-15.350383780896663665771484375</LatitudeDegrees>
              <LongitudeDegrees>37.0880659483373165130615234375</LongitudeDegrees>
            </Position>
            <AltitudeMeters>1257.199951171875</AltitudeMeters>
            <DistanceMeters>NAN</DistanceMeters>
          </Trackpoint>
          <Trackpoint>
            <Time>2021-08-03T07:51:13.000Z</Time>
            <Position>
              <LatitudeDegrees>-15.35037766210734844207763671875</LatitudeDegrees>
              <LongitudeDegrees>37.08811213262379169464111328125</LongitudeDegrees>
            </Position>
            <AltitudeMeters>1256.199951171875</AltitudeMeters>
            <DistanceMeters>NAN</DistanceMeters>
          </Trackpoint>
          <Trackpoint>
            <Time>2021-08-03T07:51:15.000Z</Time>
            <Position>
              <LatitudeDegrees>-15.350375063717365264892578125</LatitudeDegrees>
              <LongitudeDegrees>37.0881397090852260589599609375</LongitudeDegrees>
            </Position>
            <AltitudeMeters>1255.5999755859375</AltitudeMeters>
            <DistanceMeters>NAN</DistanceMeters>
          </Trackpoint>
          <Trackpoint>
            <Time>2021-08-03T07:51:17.000Z</Time>
            <Position>
              <LatitudeDegrees>-15.3503712080419063568115234375</LatitudeDegrees>
              <LongitudeDegrees>37.0881571434438228607177734375</LongitudeDegrees>
            </Position>
            <AltitudeMeters>1255</AltitudeMeters>
            <DistanceMeters>NAN</DistanceMeters>
          </Trackpoint>
          <Trackpoint>
            <Time>2021-08-03T07:51:20.000Z</Time>
            <Position>
              <LatitudeDegrees>-15.35036575980484485626220703125</LatitudeDegrees>
              <LongitudeDegrees>37.0881849713623523712158203125</LongitudeDegrees>
            </Position>
            <AltitudeMeters>1254.800048828125</AltitudeMeters>
            <DistanceMeters>NAN</DistanceMeters>
          </Trackpoint>
          <Trackpoint>
            <Time>2021-08-03T07:51:21.000Z</Time>
            <Position>
              <LatitudeDegrees>-15.35036374814808368682861328125</LatitudeDegrees>
              <LongitudeDegrees>37.0881923474371433258056640625</LongitudeDegrees>
            </Position>
            <AltitudeMeters>1254.4000244140625</AltitudeMeters>
            <DistanceMeters>NAN</DistanceMeters>
          </Trackpoint>
          <Trackpoint>
            <Time>2021-08-03T07:51:22.000Z</Time>
            <Position>
              <LatitudeDegrees>-15.35036073066294193267822265625</LatitudeDegrees>
              <LongitudeDegrees>37.0881993882358074188232421875</LongitudeDegrees>
            </Position>
            <AltitudeMeters>1253.800048828125</AltitudeMeters>
            <DistanceMeters>NAN</DistanceMeters>
          </Trackpoint>
          <Trackpoint>
            <Time>2021-08-03T07:51:23.000Z</Time>
            <Position>
              <LatitudeDegrees>-15.35035670734941959381103515625</LatitudeDegrees>
              <LongitudeDegrees>37.08820600993931293487548828125</LongitudeDegrees>
            </Position>
            <AltitudeMeters>1253.800048828125</AltitudeMeters>
            <DistanceMeters>NAN</DistanceMeters>
          </Trackpoint>
          <Trackpoint>
            <Time>2021-08-03T07:51:26.000Z</Time>
            <Position>
              <LatitudeDegrees>-15.35034212283790111541748046875</LatitudeDegrees>
              <LongitudeDegrees>37.0882292278110980987548828125</LongitudeDegrees>
            </Position>
            <AltitudeMeters>1253.800048828125</AltitudeMeters>
            <DistanceMeters>NAN</DistanceMeters>
          </Trackpoint>
          <Trackpoint>
            <Time>2021-08-03T07:51:32.000Z</Time>
            <Position>
              <LatitudeDegrees>-15.350321419537067413330078125</LatitudeDegrees>
              <LongitudeDegrees>37.08829703740775585174560546875</LongitudeDegrees>
            </Position>
            <AltitudeMeters>1252.5999755859375</AltitudeMeters>
            <DistanceMeters>NAN</DistanceMeters>
          </Trackpoint>
          <Trackpoint>
            <Time>2021-08-03T07:51:37.000Z</Time>
            <Position>
              <LatitudeDegrees>-15.3503041528165340423583984375</LatitudeDegrees>
              <LongitudeDegrees>37.088380269706249237060546875</LongitudeDegrees>
            </Position>
            <AltitudeMeters>1251.5999755859375</AltitudeMeters>
            <DistanceMeters>NAN</DistanceMeters>
          </Trackpoint>
          <Trackpoint>
            <Time>2021-08-03T07:51:39.000Z</Time>
            <Position>
              <LatitudeDegrees>-15.3502974472939968109130859375</LatitudeDegrees>
              <LongitudeDegrees>37.088401727378368377685546875</LongitudeDegrees>
            </Position>
            <AltitudeMeters>1251.4000244140625</AltitudeMeters>
            <DistanceMeters>NAN</DistanceMeters>
          </Trackpoint>
          <Trackpoint>
            <Time>2021-08-03T07:51:45.000Z</Time>
            <Position>
              <LatitudeDegrees>-15.35028956830501556396484375</LatitudeDegrees>
              <LongitudeDegrees>37.0884655974805355072021484375</LongitudeDegrees>
            </Position>
            <AltitudeMeters>1250.800048828125</AltitudeMeters>
            <DistanceMeters>NAN</DistanceMeters>
          </Trackpoint>
          <Trackpoint>
            <Time>2021-08-03T07:51:49.000Z</Time>
            <Position>
              <LatitudeDegrees>-15.3502806834876537322998046875</LatitudeDegrees>
              <LongitudeDegrees>37.08852452225983142852783203125</LongitudeDegrees>
            </Position>
            <AltitudeMeters>1250.4000244140625</AltitudeMeters>
            <DistanceMeters>NAN</DistanceMeters>
          </Trackpoint>
          <Trackpoint>
            <Time>2021-08-03T07:51:54.000Z</Time>
            <Position>
              <LatitudeDegrees>-15.35026735626161098480224609375</LatitudeDegrees>
              <LongitudeDegrees>37.0885695330798625946044921875</LongitudeDegrees>
            </Position>
            <AltitudeMeters>1249.4000244140625</AltitudeMeters>
            <DistanceMeters>NAN</DistanceMeters>
          </Trackpoint>
          <Trackpoint>
            <Time>2021-08-03T07:52:03.000Z</Time>
            <Position>
              <LatitudeDegrees>-15.35023416392505168914794921875</LatitudeDegrees>
              <LongitudeDegrees>37.08867757581174373626708984375</LongitudeDegrees>
            </Position>
            <AltitudeMeters>1248.4000244140625</AltitudeMeters>
            <DistanceMeters>NAN</DistanceMeters>
          </Trackpoint>
          <Trackpoint>
            <Time>2021-08-03T07:52:04.000Z</Time>
            <Position>
              <LatitudeDegrees>-15.35022879950702190399169921875</LatitudeDegrees>
              <LongitudeDegrees>37.08868863992393016815185546875</LongitudeDegrees>
            </Position>
            <AltitudeMeters>1248.4000244140625</AltitudeMeters>
            <DistanceMeters>NAN</DistanceMeters>
          </Trackpoint>
          <Trackpoint>
            <Time>2021-08-03T07:52:05.000Z</Time>
            <Position>
              <LatitudeDegrees>-15.3502226807177066802978515625</LatitudeDegrees>
              <LongitudeDegrees>37.08870121277868747711181640625</LongitudeDegrees>
            </Position>
            <AltitudeMeters>1248.199951171875</AltitudeMeters>
            <DistanceMeters>NAN</DistanceMeters>
          </Trackpoint>
          <Trackpoint>
            <Time>2021-08-03T07:52:08.000Z</Time>
            <Position>
              <LatitudeDegrees>-15.35021580755710601806640625</LatitudeDegrees>
              <LongitudeDegrees>37.08873800933361053466796875</LongitudeDegrees>
            </Position>
            <AltitudeMeters>1248</AltitudeMeters>
            <DistanceMeters>NAN</DistanceMeters>
          </Trackpoint>
          <Trackpoint>
            <Time>2021-08-03T07:52:13.000Z</Time>
            <Position>
              <LatitudeDegrees>-15.35021848976612091064453125</LatitudeDegrees>
              <LongitudeDegrees>37.08878955803811550140380859375</LongitudeDegrees>
            </Position>
            <AltitudeMeters>1248</AltitudeMeters>
            <DistanceMeters>NAN</DistanceMeters>
          </Trackpoint>
          <Trackpoint>
            <Time>2021-08-03T07:52:19.000Z</Time>
            <Position>
              <LatitudeDegrees>-15.3502334095537662506103515625</LatitudeDegrees>
              <LongitudeDegrees>37.08885468542575836181640625</LongitudeDegrees>
            </Position>
            <AltitudeMeters>1248.800048828125</AltitudeMeters>
            <DistanceMeters>NAN</DistanceMeters>
          </Trackpoint>
          <Trackpoint>
            <Time>2021-08-03T07:52:21.000Z</Time>
            <Position>
              <LatitudeDegrees>-15.3502431325614452362060546875</LatitudeDegrees>
              <LongitudeDegrees>37.08887237124145030975341796875</LongitudeDegrees>
            </Position>
            <AltitudeMeters>1248.800048828125</AltitudeMeters>
            <DistanceMeters>NAN</DistanceMeters>
          </Trackpoint>
          <Trackpoint>
            <Time>2021-08-03T07:52:27.000Z</Time>
            <Position>
              <LatitudeDegrees>-15.350276492536067962646484375</LatitudeDegrees>
              <LongitudeDegrees>37.08891059271991252899169921875</LongitudeDegrees>
            </Position>
            <AltitudeMeters>1249</AltitudeMeters>
            <DistanceMeters>NAN</DistanceMeters>
          </Trackpoint>
          <Trackpoint>
            <Time>2021-08-03T07:52:28.000Z</Time>
            <Position>
              <LatitudeDegrees>-15.35027942620217800140380859375</LatitudeDegrees>
              <LongitudeDegrees>37.08891310729086399078369140625</LongitudeDegrees>
            </Position>
            <AltitudeMeters>1249</AltitudeMeters>
            <DistanceMeters>NAN</DistanceMeters>
          </Trackpoint>
          <Trackpoint>
            <Time>2021-08-03T07:52:30.000Z</Time>
            <Position>
              <LatitudeDegrees>-15.35027858801186084747314453125</LatitudeDegrees>
              <LongitudeDegrees>37.088911347091197967529296875</LongitudeDegrees>
            </Position>
            <AltitudeMeters>1249.4000244140625</AltitudeMeters>
            <DistanceMeters>NAN</DistanceMeters>
          </Trackpoint>
          <Trackpoint>
            <Time>2021-08-03T07:52:33.000Z</Time>
            <Position>
              <LatitudeDegrees>-15.35028244368731975555419921875</LatitudeDegrees>
              <LongitudeDegrees>37.08891226910054683685302734375</LongitudeDegrees>
            </Position>
            <AltitudeMeters>1249.800048828125</AltitudeMeters>
            <DistanceMeters>NAN</DistanceMeters>
          </Trackpoint>
          <Trackpoint>
            <Time>2021-08-03T07:52:42.000Z</Time>
            <Position>
              <LatitudeDegrees>-15.35029518418014049530029296875</LatitudeDegrees>
              <LongitudeDegrees>37.0889507420361042022705078125</LongitudeDegrees>
            </Position>
            <AltitudeMeters>1248.4000244140625</AltitudeMeters>
            <DistanceMeters>NAN</DistanceMeters>
          </Trackpoint>
          <Trackpoint>
            <Time>2021-08-03T07:52:48.000Z</Time>
            <Position>
              <LatitudeDegrees>-15.35032468847930431365966796875</LatitudeDegrees>
              <LongitudeDegrees>37.0889892987906932830810546875</LongitudeDegrees>
            </Position>
            <AltitudeMeters>1248.5999755859375</AltitudeMeters>
            <DistanceMeters>NAN</DistanceMeters>
          </Trackpoint>
          <Trackpoint>
            <Time>2021-08-03T07:52:50.000Z</Time>
            <Position>
              <LatitudeDegrees>-15.35032602958381175994873046875</LatitudeDegrees>
              <LongitudeDegrees>37.08900061435997486114501953125</LongitudeDegrees>
            </Position>
            <AltitudeMeters>1248.5999755859375</AltitudeMeters>
            <DistanceMeters>NAN</DistanceMeters>
          </Trackpoint>
          <Trackpoint>
            <Time>2021-08-03T07:52:55.000Z</Time>
            <Position>
              <LatitudeDegrees>-15.35032703541219234466552734375</LatitudeDegrees>
              <LongitudeDegrees>37.0890137739479541778564453125</LongitudeDegrees>
            </Position>
            <AltitudeMeters>1248.800048828125</AltitudeMeters>
            <DistanceMeters>NAN</DistanceMeters>
          </Trackpoint>
          <Trackpoint>
            <Time>2021-08-03T07:53:04.000Z</Time>
            <Position>
              <LatitudeDegrees>-15.3503266163170337677001953125</LatitudeDegrees>
              <LongitudeDegrees>37.0890208147466182708740234375</LongitudeDegrees>
            </Position>
            <AltitudeMeters>1248.800048828125</AltitudeMeters>
            <DistanceMeters>NAN</DistanceMeters>
          </Trackpoint>
          <Trackpoint>
            <Time>2021-08-03T07:53:14.000Z</Time>
            <Position>
              <LatitudeDegrees>-15.3503225930035114288330078125</LatitudeDegrees>
              <LongitudeDegrees>37.08901536650955677032470703125</LongitudeDegrees>
            </Position>
            <AltitudeMeters>1248.199951171875</AltitudeMeters>
            <DistanceMeters>NAN</DistanceMeters>
          </Trackpoint>
          <Trackpoint>
            <Time>2021-08-03T07:53:26.000Z</Time>
            <Position>
              <LatitudeDegrees>-15.35032200627028942108154296875</LatitudeDegrees>
              <LongitudeDegrees>37.08901536650955677032470703125</LongitudeDegrees>
            </Position>
            <AltitudeMeters>1248.800048828125</AltitudeMeters>
            <DistanceMeters>NAN</DistanceMeters>
          </Trackpoint>
          <Trackpoint>
            <Time>2021-08-03T07:53:30.000Z</Time>
            <Position>
              <LatitudeDegrees>-15.35031479783356189727783203125</LatitudeDegrees>
              <LongitudeDegrees>37.08901452831923961639404296875</LongitudeDegrees>
            </Position>
            <AltitudeMeters>1248</AltitudeMeters>
            <DistanceMeters>NAN</DistanceMeters>
          </Trackpoint>
          <Trackpoint>
            <Time>2021-08-03T07:53:34.000Z</Time>
            <Position>
              <LatitudeDegrees>-15.3503138758242130279541015625</LatitudeDegrees>
              <LongitudeDegrees>37.08901352249085903167724609375</LongitudeDegrees>
            </Position>
            <AltitudeMeters>1248</AltitudeMeters>
            <DistanceMeters>NAN</DistanceMeters>
          </Trackpoint>
          <Trackpoint>
            <Time>2021-08-03T07:53:47.000Z</Time>
            <Position>
              <LatitudeDegrees>-15.35031463019549846649169921875</LatitudeDegrees>
              <LongitudeDegrees>37.08901427686214447021484375</LongitudeDegrees>
            </Position>
            <AltitudeMeters>1248.4000244140625</AltitudeMeters>
            <DistanceMeters>NAN</DistanceMeters>
          </Trackpoint>
          <Trackpoint>
            <Time>2021-08-03T07:53:51.000Z</Time>
            <Position>
              <LatitudeDegrees>-15.350324772298336029052734375</LatitudeDegrees>
              <LongitudeDegrees>37.08901293575763702392578125</LongitudeDegrees>
            </Position>
            <AltitudeMeters>1248</AltitudeMeters>
            <DistanceMeters>NAN</DistanceMeters>
          </Trackpoint>
          <Trackpoint>
            <Time>2021-08-03T07:54:00.000Z</Time>
            <Position>
              <LatitudeDegrees>-15.35032234154641628265380859375</LatitudeDegrees>
              <LongitudeDegrees>37.0890270173549652099609375</LongitudeDegrees>
            </Position>
            <AltitudeMeters>1248.199951171875</AltitudeMeters>
            <DistanceMeters>NAN</DistanceMeters>
          </Trackpoint>
          <Trackpoint>
            <Time>2021-08-03T07:54:17.000Z</Time>
            <Position>
              <LatitudeDegrees>-15.3503242693841457366943359375</LatitudeDegrees>
              <LongitudeDegrees>37.089017294347286224365234375</LongitudeDegrees>
            </Position>
            <AltitudeMeters>1249.4000244140625</AltitudeMeters>
            <DistanceMeters>NAN</DistanceMeters>
          </Trackpoint>
          <Trackpoint>
            <Time>2021-08-03T07:54:28.000Z</Time>
            <Position>
              <LatitudeDegrees>-15.35032351501286029815673828125</LatitudeDegrees>
              <LongitudeDegrees>37.08900715224444866180419921875</LongitudeDegrees>
            </Position>
            <AltitudeMeters>1249.199951171875</AltitudeMeters>
            <DistanceMeters>NAN</DistanceMeters>
          </Trackpoint>
          <Trackpoint>
            <Time>2021-08-03T07:54:36.000Z</Time>
            <Position>
              <LatitudeDegrees>-15.35030960105359554290771484375</LatitudeDegrees>
              <LongitudeDegrees>37.08899147808551788330078125</LongitudeDegrees>
            </Position>
            <AltitudeMeters>1248.4000244140625</AltitudeMeters>
            <DistanceMeters>NAN</DistanceMeters>
          </Trackpoint>
          <Trackpoint>
            <Time>2021-08-03T07:54:40.000Z</Time>
            <Position>
              <LatitudeDegrees>-15.3502967767417430877685546875</LatitudeDegrees>
              <LongitudeDegrees>37.08896071650087833404541015625</LongitudeDegrees>
            </Position>
            <AltitudeMeters>1248.199951171875</AltitudeMeters>
            <DistanceMeters>NAN</DistanceMeters>
          </Trackpoint>
          <Trackpoint>
            <Time>2021-08-03T07:54:42.000Z</Time>
            <Position>
              <LatitudeDegrees>-15.35028696991503238677978515625</LatitudeDegrees>
              <LongitudeDegrees>37.08892903290688991546630859375</LongitudeDegrees>
            </Position>
            <AltitudeMeters>1248.199951171875</AltitudeMeters>
            <DistanceMeters>NAN</DistanceMeters>
          </Trackpoint>
          <Trackpoint>
            <Time>2021-08-03T07:54:49.000Z</Time>
            <Position>
              <LatitudeDegrees>-15.3502593934535980224609375</LatitudeDegrees>
              <LongitudeDegrees>37.0888981036841869354248046875</LongitudeDegrees>
            </Position>
            <AltitudeMeters>1249.199951171875</AltitudeMeters>
            <DistanceMeters>NAN</DistanceMeters>
          </Trackpoint>
          <Trackpoint>
            <Time>2021-08-03T07:54:52.000Z</Time>
            <Position>
              <LatitudeDegrees>-15.350261740386486053466796875</LatitudeDegrees>
              <LongitudeDegrees>37.088902294635772705078125</LongitudeDegrees>
            </Position>
            <AltitudeMeters>1249.199951171875</AltitudeMeters>
            <DistanceMeters>NAN</DistanceMeters>
          </Trackpoint>
          <Trackpoint>
            <Time>2021-08-03T07:55:00.000Z</Time>
            <Position>
              <LatitudeDegrees>-15.35026048310101032257080078125</LatitudeDegrees>
              <LongitudeDegrees>37.08890288136899471282958984375</LongitudeDegrees>
            </Position>
            <AltitudeMeters>1249.199951171875</AltitudeMeters>
            <DistanceMeters>NAN</DistanceMeters>
          </Trackpoint>
          <Trackpoint>
            <Time>2021-08-03T07:55:07.000Z</Time>
            <Position>
              <LatitudeDegrees>-15.35026048310101032257080078125</LatitudeDegrees>
              <LongitudeDegrees>37.08890288136899471282958984375</LongitudeDegrees>
            </Position>
            <AltitudeMeters>1248.800048828125</AltitudeMeters>
            <DistanceMeters>NAN</DistanceMeters>
          </Trackpoint>
          <Trackpoint>
            <Time>2021-08-03T07:55:17.000Z</Time>
            <Position>
              <LatitudeDegrees>-15.3502578847110271453857421875</LatitudeDegrees>
              <LongitudeDegrees>37.08890698850154876708984375</LongitudeDegrees>
            </Position>
            <AltitudeMeters>1248.4000244140625</AltitudeMeters>
            <DistanceMeters>NAN</DistanceMeters>
          </Trackpoint>
          <Trackpoint>
            <Time>2021-08-03T07:55:34.000Z</Time>
            <Position>
              <LatitudeDegrees>-15.3502602316439151763916015625</LatitudeDegrees>
              <LongitudeDegrees>37.0889131911098957061767578125</LongitudeDegrees>
            </Position>
            <AltitudeMeters>1248.4000244140625</AltitudeMeters>
            <DistanceMeters>NAN</DistanceMeters>
          </Trackpoint>
          <Trackpoint>
            <Time>2021-08-03T07:56:01.000Z</Time>
            <Position>
              <LatitudeDegrees>-15.35026551224291324615478515625</LatitudeDegrees>
              <LongitudeDegrees>37.08891612477600574493408203125</LongitudeDegrees>
            </Position>
            <AltitudeMeters>1249</AltitudeMeters>
            <DistanceMeters>NAN</DistanceMeters>
          </Trackpoint>
          <Trackpoint>
            <Time>2021-08-03T07:56:05.000Z</Time>
            <Position>
              <LatitudeDegrees>-15.35026551224291324615478515625</LatitudeDegrees>
              <LongitudeDegrees>37.0889158733189105987548828125</LongitudeDegrees>
            </Position>
            <AltitudeMeters>1249</AltitudeMeters>
            <DistanceMeters>NAN</DistanceMeters>
          </Trackpoint>
          <Trackpoint>
            <Time>2021-08-03T07:56:15.000Z</Time>
            <Position>
              <LatitudeDegrees>-15.35026048310101032257080078125</LatitudeDegrees>
              <LongitudeDegrees>37.0889145322144031524658203125</LongitudeDegrees>
            </Position>
            <AltitudeMeters>1247.4000244140625</AltitudeMeters>
            <DistanceMeters>NAN</DistanceMeters>
          </Trackpoint>
          <Trackpoint>
            <Time>2021-08-03T07:56:16.000Z</Time>
            <Position>
              <LatitudeDegrees>-15.35025310702621936798095703125</LatitudeDegrees>
              <LongitudeDegrees>37.08890137262642383575439453125</LongitudeDegrees>
            </Position>
            <AltitudeMeters>1247.4000244140625</AltitudeMeters>
            <DistanceMeters>NAN</DistanceMeters>
          </Trackpoint>
          <Trackpoint>
            <Time>2021-08-03T07:56:18.000Z</Time>
            <Position>
              <LatitudeDegrees>-15.35023516975343227386474609375</LatitudeDegrees>
              <LongitudeDegrees>37.08886139094829559326171875</LongitudeDegrees>
            </Position>
            <AltitudeMeters>1247.199951171875</AltitudeMeters>
            <DistanceMeters>NAN</DistanceMeters>
          </Trackpoint>
          <Trackpoint>
            <Time>2021-08-03T07:56:21.000Z</Time>
            <Position>
              <LatitudeDegrees>-15.35022142343223094940185546875</LatitudeDegrees>
              <LongitudeDegrees>37.08881981670856475830078125</LongitudeDegrees>
            </Position>
            <AltitudeMeters>1247.199951171875</AltitudeMeters>
            <DistanceMeters>NAN</DistanceMeters>
          </Trackpoint>
          <Trackpoint>
            <Time>2021-08-03T07:56:24.000Z</Time>
            <Position>
              <LatitudeDegrees>-15.35019543953239917755126953125</LatitudeDegrees>
              <LongitudeDegrees>37.08877581171691417694091796875</LongitudeDegrees>
            </Position>
            <AltitudeMeters>1247.199951171875</AltitudeMeters>
            <DistanceMeters>NAN</DistanceMeters>
          </Trackpoint>
          <Trackpoint>
            <Time>2021-08-03T07:56:30.000Z</Time>
            <Position>
              <LatitudeDegrees>-15.35018655471503734588623046875</LatitudeDegrees>
              <LongitudeDegrees>37.088710181415081024169921875</LongitudeDegrees>
            </Position>
            <AltitudeMeters>1247.199951171875</AltitudeMeters>
            <DistanceMeters>NAN</DistanceMeters>
          </Trackpoint>
          <Trackpoint>
            <Time>2021-08-03T07:56:31.000Z</Time>
            <Position>
              <LatitudeDegrees>-15.35018630325794219970703125</LatitudeDegrees>
              <LongitudeDegrees>37.08870423026382923126220703125</LongitudeDegrees>
            </Position>
            <AltitudeMeters>1247.199951171875</AltitudeMeters>
            <DistanceMeters>NAN</DistanceMeters>
          </Trackpoint>
          <Trackpoint>
            <Time>2021-08-03T07:56:39.000Z</Time>
            <Position>
              <LatitudeDegrees>-15.35021555610001087188720703125</LatitudeDegrees>
              <LongitudeDegrees>37.08863340318202972412109375</LongitudeDegrees>
            </Position>
            <AltitudeMeters>1247.4000244140625</AltitudeMeters>
            <DistanceMeters>NAN</DistanceMeters>
          </Trackpoint>
          <Trackpoint>
            <Time>2021-08-03T07:56:44.000Z</Time>
            <Position>
              <LatitudeDegrees>-15.35023315809667110443115234375</LatitudeDegrees>
              <LongitudeDegrees>37.08857649005949497222900390625</LongitudeDegrees>
            </Position>
            <AltitudeMeters>1247.4000244140625</AltitudeMeters>
            <DistanceMeters>NAN</DistanceMeters>
          </Trackpoint>
          <Trackpoint>
            <Time>2021-08-03T07:56:50.000Z</Time>
            <Position>
              <LatitudeDegrees>-15.35025411285459995269775390625</LatitudeDegrees>
              <LongitudeDegrees>37.0885175652801990509033203125</LongitudeDegrees>
            </Position>
            <AltitudeMeters>1248</AltitudeMeters>
            <DistanceMeters>NAN</DistanceMeters>
          </Trackpoint>
          <Trackpoint>
            <Time>2021-08-03T07:56:56.000Z</Time>
            <Position>
              <LatitudeDegrees>-15.3502645902335643768310546875</LatitudeDegrees>
              <LongitudeDegrees>37.08845771849155426025390625</LongitudeDegrees>
            </Position>
            <AltitudeMeters>1248.4000244140625</AltitudeMeters>
            <DistanceMeters>NAN</DistanceMeters>
          </Trackpoint>
          <Trackpoint>
            <Time>2021-08-03T07:57:00.000Z</Time>
            <Position>
              <LatitudeDegrees>-15.3502692840993404388427734375</LatitudeDegrees>
              <LongitudeDegrees>37.08841119892895221710205078125</LongitudeDegrees>
            </Position>
            <AltitudeMeters>1248.5999755859375</AltitudeMeters>
            <DistanceMeters>NAN</DistanceMeters>
          </Trackpoint>
          <Trackpoint>
            <Time>2021-08-03T07:57:03.000Z</Time>
            <Position>
              <LatitudeDegrees>-15.35027640871703624725341796875</LatitudeDegrees>
              <LongitudeDegrees>37.08838186226785182952880859375</LongitudeDegrees>
            </Position>
            <AltitudeMeters>1249.800048828125</AltitudeMeters>
            <DistanceMeters>NAN</DistanceMeters>
          </Trackpoint>
          <Trackpoint>
            <Time>2021-08-03T07:57:08.000Z</Time>
            <Position>
              <LatitudeDegrees>-15.350295603275299072265625</LatitudeDegrees>
              <LongitudeDegrees>37.0883314870297908782958984375</LongitudeDegrees>
            </Position>
            <AltitudeMeters>1250.5999755859375</AltitudeMeters>
            <DistanceMeters>NAN</DistanceMeters>
          </Trackpoint>
          <Trackpoint>
            <Time>2021-08-03T07:57:11.000Z</Time>
            <Position>
              <LatitudeDegrees>-15.3503075055778026580810546875</LatitudeDegrees>
              <LongitudeDegrees>37.08829871378839015960693359375</LongitudeDegrees>
            </Position>
            <AltitudeMeters>1250.800048828125</AltitudeMeters>
            <DistanceMeters>NAN</DistanceMeters>
          </Trackpoint>
          <Trackpoint>
            <Time>2021-08-03T07:57:21.000Z</Time>
            <Position>
              <LatitudeDegrees>-15.35033726133406162261962890625</LatitudeDegrees>
              <LongitudeDegrees>37.0882050879299640655517578125</LongitudeDegrees>
            </Position>
            <AltitudeMeters>1252</AltitudeMeters>
            <DistanceMeters>NAN</DistanceMeters>
          </Trackpoint>
          <Trackpoint>
            <Time>2021-08-03T07:57:22.000Z</Time>
            <Position>
              <LatitudeDegrees>-15.35034078173339366912841796875</LatitudeDegrees>
              <LongitudeDegrees>37.0881943590939044952392578125</LongitudeDegrees>
            </Position>
            <AltitudeMeters>1252</AltitudeMeters>
            <DistanceMeters>NAN</DistanceMeters>
          </Trackpoint>
          <Trackpoint>
            <Time>2021-08-03T07:57:27.000Z</Time>
            <Position>
              <LatitudeDegrees>-15.3503470681607723236083984375</LatitudeDegrees>
              <LongitudeDegrees>37.0881450735032558441162109375</LongitudeDegrees>
            </Position>
            <AltitudeMeters>1253</AltitudeMeters>
            <DistanceMeters>NAN</DistanceMeters>
          </Trackpoint>
          <Trackpoint>
            <Time>2021-08-03T07:57:34.000Z</Time>
            <Position>
              <LatitudeDegrees>-15.35035972483456134796142578125</LatitudeDegrees>
              <LongitudeDegrees>37.0880833826959133148193359375</LongitudeDegrees>
            </Position>
            <AltitudeMeters>1254</AltitudeMeters>
            <DistanceMeters>NAN</DistanceMeters>
          </Trackpoint>
          <Trackpoint>
            <Time>2021-08-03T07:57:36.000Z</Time>
            <Position>
              <LatitudeDegrees>-15.35036575980484485626220703125</LatitudeDegrees>
              <LongitudeDegrees>37.08806343376636505126953125</LongitudeDegrees>
            </Position>
            <AltitudeMeters>1254.4000244140625</AltitudeMeters>
            <DistanceMeters>NAN</DistanceMeters>
          </Trackpoint>
          <Trackpoint>
            <Time>2021-08-03T07:57:42.000Z</Time>
            <Position>
              <LatitudeDegrees>-15.350375063717365264892578125</LatitudeDegrees>
              <LongitudeDegrees>37.08801113069057464599609375</LongitudeDegrees>
            </Position>
            <AltitudeMeters>1255.4000244140625</AltitudeMeters>
            <DistanceMeters>NAN</DistanceMeters>
          </Trackpoint>
          <Trackpoint>
            <Time>2021-08-03T07:57:45.000Z</Time>
            <Position>
              <LatitudeDegrees>-15.35038000904023647308349609375</LatitudeDegrees>
              <LongitudeDegrees>37.08798472769558429718017578125</LongitudeDegrees>
            </Position>
            <AltitudeMeters>1255.800048828125</AltitudeMeters>
            <DistanceMeters>NAN</DistanceMeters>
          </Trackpoint>
          <Trackpoint>
            <Time>2021-08-03T07:57:47.000Z</Time>
            <Position>
              <LatitudeDegrees>-15.35038587637245655059814453125</LatitudeDegrees>
              <LongitudeDegrees>37.08796821534633636474609375</LongitudeDegrees>
            </Position>
            <AltitudeMeters>1256.199951171875</AltitudeMeters>
            <DistanceMeters>NAN</DistanceMeters>
          </Trackpoint>
          <Trackpoint>
            <Time>2021-08-03T07:57:49.000Z</Time>
            <Position>
              <LatitudeDegrees>-15.35039073787629604339599609375</LatitudeDegrees>
              <LongitudeDegrees>37.08795254118740558624267578125</LongitudeDegrees>
            </Position>
            <AltitudeMeters>1256.5999755859375</AltitudeMeters>
            <DistanceMeters>NAN</DistanceMeters>
          </Trackpoint>
          <Trackpoint>
            <Time>2021-08-03T07:57:56.000Z</Time>
            <Position>
              <LatitudeDegrees>-15.3504020534455776214599609375</LatitudeDegrees>
              <LongitudeDegrees>37.08789504133164882659912109375</LongitudeDegrees>
            </Position>
            <AltitudeMeters>1258</AltitudeMeters>
            <DistanceMeters>NAN</DistanceMeters>
          </Trackpoint>
          <Trackpoint>
            <Time>2021-08-03T07:58:01.000Z</Time>
            <Position>
              <LatitudeDegrees>-15.35041169263422489166259765625</LatitudeDegrees>
              <LongitudeDegrees>37.08784977905452251434326171875</LongitudeDegrees>
            </Position>
            <AltitudeMeters>1258.4000244140625</AltitudeMeters>
            <DistanceMeters>NAN</DistanceMeters>
          </Trackpoint>
          <Trackpoint>
            <Time>2021-08-03T07:58:06.000Z</Time>
            <Position>
              <LatitudeDegrees>-15.35042342729866504669189453125</LatitudeDegrees>
              <LongitudeDegrees>37.08780770190060138702392578125</LongitudeDegrees>
            </Position>
            <AltitudeMeters>1258.800048828125</AltitudeMeters>
            <DistanceMeters>NAN</DistanceMeters>
          </Trackpoint>
          <Trackpoint>
            <Time>2021-08-03T07:58:08.000Z</Time>
            <Position>
              <LatitudeDegrees>-15.35042703151702880859375</LatitudeDegrees>
              <LongitudeDegrees>37.08779160864651203155517578125</LongitudeDegrees>
            </Position>
            <AltitudeMeters>1258.5999755859375</AltitudeMeters>
            <DistanceMeters>NAN</DistanceMeters>
          </Trackpoint>
          <Trackpoint>
            <Time>2021-08-03T07:58:10.000Z</Time>
            <Position>
              <LatitudeDegrees>-15.35043365322053432464599609375</LatitudeDegrees>
              <LongitudeDegrees>37.0877749286592006683349609375</LongitudeDegrees>
            </Position>
            <AltitudeMeters>1258.5999755859375</AltitudeMeters>
            <DistanceMeters>NAN</DistanceMeters>
          </Trackpoint>
          <Trackpoint>
            <Time>2021-08-03T07:58:15.000Z</Time>
            <Position>
              <LatitudeDegrees>-15.35045360215008258819580078125</LatitudeDegrees>
              <LongitudeDegrees>37.08774165250360965728759765625</LongitudeDegrees>
            </Position>
            <AltitudeMeters>1259</AltitudeMeters>
            <DistanceMeters>NAN</DistanceMeters>
          </Trackpoint>
          <Trackpoint>
            <Time>2021-08-03T07:58:16.000Z</Time>
            <Position>
              <LatitudeDegrees>-15.35045645199716091156005859375</LatitudeDegrees>
              <LongitudeDegrees>37.0877301692962646484375</LongitudeDegrees>
            </Position>
            <AltitudeMeters>1259.199951171875</AltitudeMeters>
            <DistanceMeters>NAN</DistanceMeters>
          </Trackpoint>
          <Trackpoint>
            <Time>2021-08-03T07:58:18.000Z</Time>
            <Position>
              <LatitudeDegrees>-15.35046818666160106658935546875</LatitudeDegrees>
              <LongitudeDegrees>37.0877105556428432464599609375</LongitudeDegrees>
            </Position>
            <AltitudeMeters>1260.199951171875</AltitudeMeters>
            <DistanceMeters>NAN</DistanceMeters>
          </Trackpoint>
          <Trackpoint>
            <Time>2021-08-03T07:58:21.000Z</Time>
            <Position>
              <LatitudeDegrees>-15.3504912368953227996826171875</LatitudeDegrees>
              <LongitudeDegrees>37.0876880921423435211181640625</LongitudeDegrees>
            </Position>
            <AltitudeMeters>1261.4000244140625</AltitudeMeters>
            <DistanceMeters>NAN</DistanceMeters>
          </Trackpoint>
          <Trackpoint>
            <Time>2021-08-03T07:58:24.000Z</Time>
            <Position>
              <LatitudeDegrees>-15.35052384249866008758544921875</LatitudeDegrees>
              <LongitudeDegrees>37.08767853677272796630859375</LongitudeDegrees>
            </Position>
            <AltitudeMeters>1261.5999755859375</AltitudeMeters>
            <DistanceMeters>NAN</DistanceMeters>
          </Trackpoint>
          <Trackpoint>
            <Time>2021-08-03T07:58:28.000Z</Time>
            <Position>
              <LatitudeDegrees>-15.3505670092999935150146484375</LatitudeDegrees>
              <LongitudeDegrees>37.08767694421112537384033203125</LongitudeDegrees>
            </Position>
            <AltitudeMeters>1261.4000244140625</AltitudeMeters>
            <DistanceMeters>NAN</DistanceMeters>
          </Trackpoint>
          <Trackpoint>
            <Time>2021-08-03T07:58:30.000Z</Time>
            <Position>
              <LatitudeDegrees>-15.3505914844572544097900390625</LatitudeDegrees>
              <LongitudeDegrees>37.08766856230795383453369140625</LongitudeDegrees>
            </Position>
            <AltitudeMeters>1261.5999755859375</AltitudeMeters>
            <DistanceMeters>NAN</DistanceMeters>
          </Trackpoint>
          <Trackpoint>
            <Time>2021-08-03T07:58:39.000Z</Time>
            <Position>
              <LatitudeDegrees>-15.35066306591033935546875</LatitudeDegrees>
              <LongitudeDegrees>37.0876404829323291778564453125</LongitudeDegrees>
            </Position>
            <AltitudeMeters>1261.5999755859375</AltitudeMeters>
            <DistanceMeters>NAN</DistanceMeters>
          </Trackpoint>
          <Trackpoint>
            <Time>2021-08-03T07:58:44.000Z</Time>
            <Position>
              <LatitudeDegrees>-15.35071880556643009185791015625</LatitudeDegrees>
              <LongitudeDegrees>37.08763117901980876922607421875</LongitudeDegrees>
            </Position>
            <AltitudeMeters>1260</AltitudeMeters>
            <DistanceMeters>NAN</DistanceMeters>
          </Trackpoint>
          <Trackpoint>
            <Time>2021-08-03T07:58:50.000Z</Time>
            <Position>
              <LatitudeDegrees>-15.35077982582151889801025390625</LatitudeDegrees>
              <LongitudeDegrees>37.08762355148792266845703125</LongitudeDegrees>
            </Position>
            <AltitudeMeters>1259.800048828125</AltitudeMeters>
            <DistanceMeters>NAN</DistanceMeters>
          </Trackpoint>
          <Trackpoint>
            <Time>2021-08-03T07:58:54.000Z</Time>
            <Position>
              <LatitudeDegrees>-15.350817628204822540283203125</LatitudeDegrees>
              <LongitudeDegrees>37.08761827088892459869384765625</LongitudeDegrees>
            </Position>
            <AltitudeMeters>1259.199951171875</AltitudeMeters>
            <DistanceMeters>NAN</DistanceMeters>
          </Trackpoint>
          <Trackpoint>
            <Time>2021-08-03T07:58:55.000Z</Time>
            <Position>
              <LatitudeDegrees>-15.3508295305073261260986328125</LatitudeDegrees>
              <LongitudeDegrees>37.0876160077750682830810546875</LongitudeDegrees>
            </Position>
            <AltitudeMeters>1259.199951171875</AltitudeMeters>
            <DistanceMeters>NAN</DistanceMeters>
          </Trackpoint>
          <Trackpoint>
            <Time>2021-08-03T07:58:56.000Z</Time>
            <Position>
              <LatitudeDegrees>-15.350839756429195404052734375</LatitudeDegrees>
              <LongitudeDegrees>37.08761206828057765960693359375</LongitudeDegrees>
            </Position>
            <AltitudeMeters>1259</AltitudeMeters>
            <DistanceMeters>NAN</DistanceMeters>
          </Trackpoint>
          <Trackpoint>
            <Time>2021-08-03T07:58:57.000Z</Time>
            <Position>
              <LatitudeDegrees>-15.35085123963654041290283203125</LatitudeDegrees>
              <LongitudeDegrees>37.0876096375286579132080078125</LongitudeDegrees>
            </Position>
            <AltitudeMeters>1258.800048828125</AltitudeMeters>
            <DistanceMeters>NAN</DistanceMeters>
          </Trackpoint>
          <Trackpoint>
            <Time>2021-08-03T07:58:59.000Z</Time>
            <Position>
              <LatitudeDegrees>-15.350875966250896453857421875</LatitudeDegrees>
              <LongitudeDegrees>37.0876005850732326507568359375</LongitudeDegrees>
            </Position>
            <AltitudeMeters>1258.800048828125</AltitudeMeters>
            <DistanceMeters>NAN</DistanceMeters>
          </Trackpoint>
          <Trackpoint>
            <Time>2021-08-03T07:59:04.000Z</Time>
            <Position>
              <LatitudeDegrees>-15.3509364835917949676513671875</LatitudeDegrees>
              <LongitudeDegrees>37.08758725784718990325927734375</LongitudeDegrees>
            </Position>
            <AltitudeMeters>1258.4000244140625</AltitudeMeters>
            <DistanceMeters>NAN</DistanceMeters>
          </Trackpoint>
          <Trackpoint>
            <Time>2021-08-03T07:59:07.000Z</Time>
            <Position>
              <LatitudeDegrees>-15.35097160376608371734619140625</LatitudeDegrees>
              <LongitudeDegrees>37.08757703192532062530517578125</LongitudeDegrees>
            </Position>
            <AltitudeMeters>1258</AltitudeMeters>
            <DistanceMeters>NAN</DistanceMeters>
          </Trackpoint>
          <Trackpoint>
            <Time>2021-08-03T07:59:08.000Z</Time>
            <Position>
              <LatitudeDegrees>-15.35098283551633358001708984375</LatitudeDegrees>
              <LongitudeDegrees>37.08757552318274974822998046875</LongitudeDegrees>
            </Position>
            <AltitudeMeters>1257.5999755859375</AltitudeMeters>
            <DistanceMeters>NAN</DistanceMeters>
          </Trackpoint>
          <Trackpoint>
            <Time>2021-08-03T07:59:11.000Z</Time>
            <Position>
              <LatitudeDegrees>-15.3510186262428760528564453125</LatitudeDegrees>
              <LongitudeDegrees>37.08756261505186557769775390625</LongitudeDegrees>
            </Position>
            <AltitudeMeters>1257.4000244140625</AltitudeMeters>
            <DistanceMeters>NAN</DistanceMeters>
          </Trackpoint>
          <Trackpoint>
            <Time>2021-08-03T07:59:13.000Z</Time>
            <Position>
              <LatitudeDegrees>-15.35104058682918548583984375</LatitudeDegrees>
              <LongitudeDegrees>37.0875559933483600616455078125</LongitudeDegrees>
            </Position>
            <AltitudeMeters>1257.199951171875</AltitudeMeters>
            <DistanceMeters>NAN</DistanceMeters>
          </Trackpoint>
          <Trackpoint>
            <Time>2021-08-03T07:59:17.000Z</Time>
            <Position>
              <LatitudeDegrees>-15.35108911804854869842529296875</LatitudeDegrees>
              <LongitudeDegrees>37.08754166029393672943115234375</LongitudeDegrees>
            </Position>
            <AltitudeMeters>1256.5999755859375</AltitudeMeters>
            <DistanceMeters>NAN</DistanceMeters>
          </Trackpoint>
          <Trackpoint>
            <Time>2021-08-03T07:59:24.000Z</Time>
            <Position>
              <LatitudeDegrees>-15.35116421990096569061279296875</LatitudeDegrees>
              <LongitudeDegrees>37.0875221304595470428466796875</LongitudeDegrees>
            </Position>
            <AltitudeMeters>1256.5999755859375</AltitudeMeters>
            <DistanceMeters>NAN</DistanceMeters>
          </Trackpoint>
          <Trackpoint>
            <Time>2021-08-03T07:59:30.000Z</Time>
            <Position>
              <LatitudeDegrees>-15.3512315265834331512451171875</LatitudeDegrees>
              <LongitudeDegrees>37.08749438636004924774169921875</LongitudeDegrees>
            </Position>
            <AltitudeMeters>1256</AltitudeMeters>
            <DistanceMeters>NAN</DistanceMeters>
          </Trackpoint>
          <Trackpoint>
            <Time>2021-08-03T07:59:34.000Z</Time>
            <Position>
              <LatitudeDegrees>-15.35127888433635234832763671875</LatitudeDegrees>
              <LongitudeDegrees>37.0874901115894317626953125</LongitudeDegrees>
            </Position>
            <AltitudeMeters>1255.4000244140625</AltitudeMeters>
            <DistanceMeters>NAN</DistanceMeters>
          </Trackpoint>
          <Trackpoint>
            <Time>2021-08-03T07:59:38.000Z</Time>
            <Position>
              <LatitudeDegrees>-15.35132766701281070709228515625</LatitudeDegrees>
              <LongitudeDegrees>37.087487764656543731689453125</LongitudeDegrees>
            </Position>
            <AltitudeMeters>1254.4000244140625</AltitudeMeters>
            <DistanceMeters>NAN</DistanceMeters>
          </Trackpoint>
          <Trackpoint>
            <Time>2021-08-03T07:59:39.000Z</Time>
            <Position>
              <LatitudeDegrees>-15.3513421677052974700927734375</LatitudeDegrees>
              <LongitudeDegrees>37.08748784847557544708251953125</LongitudeDegrees>
            </Position>
            <AltitudeMeters>1254</AltitudeMeters>
            <DistanceMeters>NAN</DistanceMeters>
          </Trackpoint>
          <Trackpoint>
            <Time>2021-08-03T07:59:42.000Z</Time>
            <Position>
              <LatitudeDegrees>-15.3513790480792522430419921875</LatitudeDegrees>
              <LongitudeDegrees>37.087507545948028564453125</LongitudeDegrees>
            </Position>
            <AltitudeMeters>1253</AltitudeMeters>
            <DistanceMeters>NAN</DistanceMeters>
          </Trackpoint>
          <Trackpoint>
            <Time>2021-08-03T07:59:43.000Z</Time>
            <Position>
              <LatitudeDegrees>-15.35139271058142185211181640625</LatitudeDegrees>
              <LongitudeDegrees>37.08751089870929718017578125</LongitudeDegrees>
            </Position>
            <AltitudeMeters>1252.5999755859375</AltitudeMeters>
            <DistanceMeters>NAN</DistanceMeters>
          </Trackpoint>
          <Trackpoint>
            <Time>2021-08-03T07:59:46.000Z</Time>
            <Position>
              <LatitudeDegrees>-15.35143042914569377899169921875</LatitudeDegrees>
              <LongitudeDegrees>37.0875147543847560882568359375</LongitudeDegrees>
            </Position>
            <AltitudeMeters>1252.4000244140625</AltitudeMeters>
            <DistanceMeters>NAN</DistanceMeters>
          </Trackpoint>
          <Trackpoint>
            <Time>2021-08-03T07:59:52.000Z</Time>
            <Position>
              <LatitudeDegrees>-15.35150997340679168701171875</LatitudeDegrees>
              <LongitudeDegrees>37.087514586746692657470703125</LongitudeDegrees>
            </Position>
            <AltitudeMeters>1251.800048828125</AltitudeMeters>
            <DistanceMeters>NAN</DistanceMeters>
          </Trackpoint>
          <Trackpoint>
            <Time>2021-08-03T07:59:55.000Z</Time>
            <Position>
              <LatitudeDegrees>-15.35155649296939373016357421875</LatitudeDegrees>
              <LongitudeDegrees>37.08752305246889591217041015625</LongitudeDegrees>
            </Position>
            <AltitudeMeters>1251.800048828125</AltitudeMeters>
            <DistanceMeters>NAN</DistanceMeters>
          </Trackpoint>
          <Trackpoint>
            <Time>2021-08-03T07:59:56.000Z</Time>
            <Position>
              <LatitudeDegrees>-15.35157057456672191619873046875</LatitudeDegrees>
              <LongitudeDegrees>37.08752439357340335845947265625</LongitudeDegrees>
            </Position>
            <AltitudeMeters>1251.4000244140625</AltitudeMeters>
            <DistanceMeters>NAN</DistanceMeters>
          </Trackpoint>
          <Trackpoint>
            <Time>2021-08-03T08:00:00.000Z</Time>
            <Position>
              <LatitudeDegrees>-15.3516191057860851287841796875</LatitudeDegrees>
              <LongitudeDegrees>37.0875295065343379974365234375</LongitudeDegrees>
            </Position>
            <AltitudeMeters>1251.4000244140625</AltitudeMeters>
            <DistanceMeters>NAN</DistanceMeters>
          </Trackpoint>
          <Trackpoint>
            <Time>2021-08-03T08:00:05.000Z</Time>
            <Position>
              <LatitudeDegrees>-15.35167702473700046539306640625</LatitudeDegrees>
              <LongitudeDegrees>37.08753629587590694427490234375</LongitudeDegrees>
            </Position>
            <AltitudeMeters>1251</AltitudeMeters>
            <DistanceMeters>NAN</DistanceMeters>
          </Trackpoint>
          <Trackpoint>
            <Time>2021-08-03T08:00:06.000Z</Time>
            <Position>
              <LatitudeDegrees>-15.351690351963043212890625</LatitudeDegrees>
              <LongitudeDegrees>37.08753864280879497528076171875</LongitudeDegrees>
            </Position>
            <AltitudeMeters>1250.800048828125</AltitudeMeters>
            <DistanceMeters>NAN</DistanceMeters>
          </Trackpoint>
          <Trackpoint>
            <Time>2021-08-03T08:00:08.000Z</Time>
            <Position>
              <LatitudeDegrees>-15.35171507857739925384521484375</LatitudeDegrees>
              <LongitudeDegrees>37.08754241466522216796875</LongitudeDegrees>
            </Position>
            <AltitudeMeters>1250.199951171875</AltitudeMeters>
            <DistanceMeters>NAN</DistanceMeters>
          </Trackpoint>
          <Trackpoint>
            <Time>2021-08-03T08:00:10.000Z</Time>
            <Position>
              <LatitudeDegrees>-15.35174064338207244873046875</LatitudeDegrees>
              <LongitudeDegrees>37.08754501305520534515380859375</LongitudeDegrees>
            </Position>
            <AltitudeMeters>1249.800048828125</AltitudeMeters>
            <DistanceMeters>NAN</DistanceMeters>
          </Trackpoint>
          <Trackpoint>
            <Time>2021-08-03T08:00:11.000Z</Time>
            <Position>
              <LatitudeDegrees>-15.3517522104084491729736328125</LatitudeDegrees>
              <LongitudeDegrees>37.0875459350645542144775390625</LongitudeDegrees>
            </Position>
            <AltitudeMeters>1249.800048828125</AltitudeMeters>
            <DistanceMeters>NAN</DistanceMeters>
          </Trackpoint>
          <Trackpoint>
            <Time>2021-08-03T08:00:16.000Z</Time>
            <Position>
              <LatitudeDegrees>-15.35180677659809589385986328125</LatitudeDegrees>
              <LongitudeDegrees>37.08754970692098140716552734375</LongitudeDegrees>
            </Position>
            <AltitudeMeters>1248.5999755859375</AltitudeMeters>
            <DistanceMeters>NAN</DistanceMeters>
          </Trackpoint>
          <Trackpoint>
            <Time>2021-08-03T08:00:18.000Z</Time>
            <Position>
              <LatitudeDegrees>-15.3518279828131198883056640625</LatitudeDegrees>
              <LongitudeDegrees>37.08755222149193286895751953125</LongitudeDegrees>
            </Position>
            <AltitudeMeters>1248.4000244140625</AltitudeMeters>
            <DistanceMeters>NAN</DistanceMeters>
          </Trackpoint>
          <Trackpoint>
            <Time>2021-08-03T08:00:22.000Z</Time>
            <Position>
              <LatitudeDegrees>-15.35186813212931156158447265625</LatitudeDegrees>
              <LongitudeDegrees>37.08755758590996265411376953125</LongitudeDegrees>
            </Position>
            <AltitudeMeters>1247.199951171875</AltitudeMeters>
            <DistanceMeters>NAN</DistanceMeters>
          </Trackpoint>
          <Trackpoint>
            <Time>2021-08-03T08:00:27.000Z</Time>
            <Position>
              <LatitudeDegrees>-15.3519277274608612060546875</LatitudeDegrees>
              <LongitudeDegrees>37.08755574189126491546630859375</LongitudeDegrees>
            </Position>
            <AltitudeMeters>1246.199951171875</AltitudeMeters>
            <DistanceMeters>NAN</DistanceMeters>
          </Trackpoint>
          <Trackpoint>
            <Time>2021-08-03T08:00:28.000Z</Time>
            <Position>
              <LatitudeDegrees>-15.35194046795368194580078125</LatitudeDegrees>
              <LongitudeDegrees>37.08755649626255035400390625</LongitudeDegrees>
            </Position>
            <AltitudeMeters>1246</AltitudeMeters>
            <DistanceMeters>NAN</DistanceMeters>
          </Trackpoint>
          <Trackpoint>
            <Time>2021-08-03T08:00:32.000Z</Time>
            <Position>
              <LatitudeDegrees>-15.351993776857852935791015625</LatitudeDegrees>
              <LongitudeDegrees>37.0875653810799121856689453125</LongitudeDegrees>
            </Position>
            <AltitudeMeters>1245.199951171875</AltitudeMeters>
            <DistanceMeters>NAN</DistanceMeters>
          </Trackpoint>
          <Trackpoint>
            <Time>2021-08-03T08:00:37.000Z</Time>
            <Position>
              <LatitudeDegrees>-15.352054126560688018798828125</LatitudeDegrees>
              <LongitudeDegrees>37.08756797946989536285400390625</LongitudeDegrees>
            </Position>
            <AltitudeMeters>1244.800048828125</AltitudeMeters>
            <DistanceMeters>NAN</DistanceMeters>
          </Trackpoint>
          <Trackpoint>
            <Time>2021-08-03T08:00:39.000Z</Time>
            <Position>
              <LatitudeDegrees>-15.3520693816244602203369140625</LatitudeDegrees>
              <LongitudeDegrees>37.0875767804682254791259765625</LongitudeDegrees>
            </Position>
            <AltitudeMeters>1244.800048828125</AltitudeMeters>
            <DistanceMeters>NAN</DistanceMeters>
          </Trackpoint>
          <Trackpoint>
            <Time>2021-08-03T08:00:44.000Z</Time>
            <Position>
              <LatitudeDegrees>-15.3521216847002506256103515625</LatitudeDegrees>
              <LongitudeDegrees>37.0875942148268222808837890625</LongitudeDegrees>
            </Position>
            <AltitudeMeters>1244.199951171875</AltitudeMeters>
            <DistanceMeters>NAN</DistanceMeters>
          </Trackpoint>
          <Trackpoint>
            <Time>2021-08-03T08:00:48.000Z</Time>
            <Position>
              <LatitudeDegrees>-15.35216921009123325347900390625</LatitudeDegrees>
              <LongitudeDegrees>37.08760150708258152008056640625</LongitudeDegrees>
            </Position>
            <AltitudeMeters>1243.800048828125</AltitudeMeters>
            <DistanceMeters>NAN</DistanceMeters>
          </Trackpoint>
          <Trackpoint>
            <Time>2021-08-03T08:00:57.000Z</Time>
            <Position>
              <LatitudeDegrees>-15.35225722007453441619873046875</LatitudeDegrees>
              <LongitudeDegrees>37.08763754926621913909912109375</LongitudeDegrees>
            </Position>
            <AltitudeMeters>1243.199951171875</AltitudeMeters>
            <DistanceMeters>NAN</DistanceMeters>
          </Trackpoint>
          <Trackpoint>
            <Time>2021-08-03T08:01:02.000Z</Time>
            <Position>
              <LatitudeDegrees>-15.3523158095777034759521484375</LatitudeDegrees>
              <LongitudeDegrees>37.08763604052364826202392578125</LongitudeDegrees>
            </Position>
            <AltitudeMeters>1243.199951171875</AltitudeMeters>
            <DistanceMeters>NAN</DistanceMeters>
          </Trackpoint>
          <Trackpoint>
            <Time>2021-08-03T08:01:04.000Z</Time>
            <Position>
              <LatitudeDegrees>-15.3523422963917255401611328125</LatitudeDegrees>
              <LongitudeDegrees>37.08763503469526767730712890625</LongitudeDegrees>
            </Position>
            <AltitudeMeters>1243</AltitudeMeters>
            <DistanceMeters>NAN</DistanceMeters>
          </Trackpoint>
          <Trackpoint>
            <Time>2021-08-03T08:01:08.000Z</Time>
            <Position>
              <LatitudeDegrees>-15.3523838706314563751220703125</LatitudeDegrees>
              <LongitudeDegrees>37.08763520233333110809326171875</LongitudeDegrees>
            </Position>
            <AltitudeMeters>1242.4000244140625</AltitudeMeters>
            <DistanceMeters>NAN</DistanceMeters>
          </Trackpoint>
          <Trackpoint>
            <Time>2021-08-03T08:01:09.000Z</Time>
            <Position>
              <LatitudeDegrees>-15.35239283926784992218017578125</LatitudeDegrees>
              <LongitudeDegrees>37.0876378007233142852783203125</LongitudeDegrees>
            </Position>
            <AltitudeMeters>1242.199951171875</AltitudeMeters>
            <DistanceMeters>NAN</DistanceMeters>
          </Trackpoint>
          <Trackpoint>
            <Time>2021-08-03T08:01:10.000Z</Time>
            <Position>
              <LatitudeDegrees>-15.35240524448454380035400390625</LatitudeDegrees>
              <LongitudeDegrees>37.0876408182084560394287109375</LongitudeDegrees>
            </Position>
            <AltitudeMeters>1241.800048828125</AltitudeMeters>
            <DistanceMeters>NAN</DistanceMeters>
          </Trackpoint>
          <Trackpoint>
            <Time>2021-08-03T08:01:12.000Z</Time>
            <Position>
              <LatitudeDegrees>-15.35242938436567783355712890625</LatitudeDegrees>
              <LongitudeDegrees>37.087648026645183563232421875</LongitudeDegrees>
            </Position>
            <AltitudeMeters>1241.800048828125</AltitudeMeters>
            <DistanceMeters>NAN</DistanceMeters>
          </Trackpoint>
          <Trackpoint>
            <Time>2021-08-03T08:01:14.000Z</Time>
            <Position>
              <LatitudeDegrees>-15.352453775703907012939453125</LatitudeDegrees>
              <LongitudeDegrees>37.0876505412161350250244140625</LongitudeDegrees>
            </Position>
            <AltitudeMeters>1240.800048828125</AltitudeMeters>
            <DistanceMeters>NAN</DistanceMeters>
          </Trackpoint>
          <Trackpoint>
            <Time>2021-08-03T08:01:18.000Z</Time>
            <Position>
              <LatitudeDegrees>-15.35249560140073299407958984375</LatitudeDegrees>
              <LongitudeDegrees>37.08765950985252857208251953125</LongitudeDegrees>
            </Position>
            <AltitudeMeters>1240.5999755859375</AltitudeMeters>
            <DistanceMeters>NAN</DistanceMeters>
          </Trackpoint>
          <Trackpoint>
            <Time>2021-08-03T08:01:22.000Z</Time>
            <Position>
              <LatitudeDegrees>-15.35253935493528842926025390625</LatitudeDegrees>
              <LongitudeDegrees>37.08767040632665157318115234375</LongitudeDegrees>
            </Position>
            <AltitudeMeters>1239.5999755859375</AltitudeMeters>
            <DistanceMeters>NAN</DistanceMeters>
          </Trackpoint>
          <Trackpoint>
            <Time>2021-08-03T08:01:28.000Z</Time>
            <Position>
              <LatitudeDegrees>-15.3526131995022296905517578125</LatitudeDegrees>
              <LongitudeDegrees>37.087673507630825042724609375</LongitudeDegrees>
            </Position>
            <AltitudeMeters>1239.199951171875</AltitudeMeters>
            <DistanceMeters>NAN</DistanceMeters>
          </Trackpoint>
          <Trackpoint>
            <Time>2021-08-03T08:01:30.000Z</Time>
            <Position>
              <LatitudeDegrees>-15.35263373516499996185302734375</LatitudeDegrees>
              <LongitudeDegrees>37.08768012933433055877685546875</LongitudeDegrees>
            </Position>
            <AltitudeMeters>1238.4000244140625</AltitudeMeters>
            <DistanceMeters>NAN</DistanceMeters>
          </Trackpoint>
          <Trackpoint>
            <Time>2021-08-03T08:01:37.000Z</Time>
            <Position>
              <LatitudeDegrees>-15.35272543318569660186767578125</LatitudeDegrees>
              <LongitudeDegrees>37.087686248123645782470703125</LongitudeDegrees>
            </Position>
            <AltitudeMeters>1237.5999755859375</AltitudeMeters>
            <DistanceMeters>NAN</DistanceMeters>
          </Trackpoint>
          <Trackpoint>
            <Time>2021-08-03T08:01:39.000Z</Time>
            <Position>
              <LatitudeDegrees>-15.35274487920105457305908203125</LatitudeDegrees>
              <LongitudeDegrees>37.087692283093929290771484375</LongitudeDegrees>
            </Position>
            <AltitudeMeters>1237.199951171875</AltitudeMeters>
            <DistanceMeters>NAN</DistanceMeters>
          </Trackpoint>
          <Trackpoint>
            <Time>2021-08-03T08:01:46.000Z</Time>
            <Position>
              <LatitudeDegrees>-15.35282693803310394287109375</LatitudeDegrees>
              <LongitudeDegrees>37.0877055265009403228759765625</LongitudeDegrees>
            </Position>
            <AltitudeMeters>1236.5999755859375</AltitudeMeters>
            <DistanceMeters>NAN</DistanceMeters>
          </Trackpoint>
          <Trackpoint>
            <Time>2021-08-03T08:01:47.000Z</Time>
            <Position>
              <LatitudeDegrees>-15.35283791832625865936279296875</LatitudeDegrees>
              <LongitudeDegrees>37.08770644851028919219970703125</LongitudeDegrees>
            </Position>
            <AltitudeMeters>1236.199951171875</AltitudeMeters>
            <DistanceMeters>NAN</DistanceMeters>
          </Trackpoint>
          <Trackpoint>
            <Time>2021-08-03T08:01:56.000Z</Time>
            <Position>
              <LatitudeDegrees>-15.35297487862408161163330078125</LatitudeDegrees>
              <LongitudeDegrees>37.08771382458508014678955078125</LongitudeDegrees>
            </Position>
            <AltitudeMeters>1235.5999755859375</AltitudeMeters>
            <DistanceMeters>NAN</DistanceMeters>
          </Trackpoint>
          <Trackpoint>
            <Time>2021-08-03T08:02:00.000Z</Time>
            <Position>
              <LatitudeDegrees>-15.35303237847983837127685546875</LatitudeDegrees>
              <LongitudeDegrees>37.08771768026053905487060546875</LongitudeDegrees>
            </Position>
            <AltitudeMeters>1235.199951171875</AltitudeMeters>
            <DistanceMeters>NAN</DistanceMeters>
          </Trackpoint>
          <Trackpoint>
            <Time>2021-08-03T08:02:05.000Z</Time>
            <Position>
              <LatitudeDegrees>-15.35308484919369220733642578125</LatitudeDegrees>
              <LongitudeDegrees>37.08773218095302581787109375</LongitudeDegrees>
            </Position>
            <AltitudeMeters>1234.800048828125</AltitudeMeters>
            <DistanceMeters>NAN</DistanceMeters>
          </Trackpoint>
          <Trackpoint>
            <Time>2021-08-03T08:02:07.000Z</Time>
            <Position>
              <LatitudeDegrees>-15.35310496576130390167236328125</LatitudeDegrees>
              <LongitudeDegrees>37.08773997612297534942626953125</LongitudeDegrees>
            </Position>
            <AltitudeMeters>1234.5999755859375</AltitudeMeters>
            <DistanceMeters>NAN</DistanceMeters>
          </Trackpoint>
          <Trackpoint>
            <Time>2021-08-03T08:02:09.000Z</Time>
            <Position>
              <LatitudeDegrees>-15.35313078202307224273681640625</LatitudeDegrees>
              <LongitudeDegrees>37.08774265833199024200439453125</LongitudeDegrees>
            </Position>
            <AltitudeMeters>1234.5999755859375</AltitudeMeters>
            <DistanceMeters>NAN</DistanceMeters>
          </Trackpoint>
          <Trackpoint>
            <Time>2021-08-03T08:02:15.000Z</Time>
            <Position>
              <LatitudeDegrees>-15.353204794228076934814453125</LatitudeDegrees>
              <LongitudeDegrees>37.08774902857840061187744140625</LongitudeDegrees>
            </Position>
            <AltitudeMeters>1234.4000244140625</AltitudeMeters>
            <DistanceMeters>NAN</DistanceMeters>
          </Trackpoint>
          <Trackpoint>
            <Time>2021-08-03T08:02:18.000Z</Time>
            <Position>
              <LatitudeDegrees>-15.35324092023074626922607421875</LatitudeDegrees>
              <LongitudeDegrees>37.0877551473677158355712890625</LongitudeDegrees>
            </Position>
            <AltitudeMeters>1234.4000244140625</AltitudeMeters>
            <DistanceMeters>NAN</DistanceMeters>
          </Trackpoint>
          <Trackpoint>
            <Time>2021-08-03T08:02:21.000Z</Time>
            <Position>
              <LatitudeDegrees>-15.35327889025211334228515625</LatitudeDegrees>
              <LongitudeDegrees>37.08776143379509449005126953125</LongitudeDegrees>
            </Position>
            <AltitudeMeters>1234.199951171875</AltitudeMeters>
            <DistanceMeters>NAN</DistanceMeters>
          </Trackpoint>
          <Trackpoint>
            <Time>2021-08-03T08:02:24.000Z</Time>
            <Position>
              <LatitudeDegrees>-15.35331535153090953826904296875</LatitudeDegrees>
              <LongitudeDegrees>37.0877712406218051910400390625</LongitudeDegrees>
            </Position>
            <AltitudeMeters>1234</AltitudeMeters>
            <DistanceMeters>NAN</DistanceMeters>
          </Trackpoint>
          <Trackpoint>
            <Time>2021-08-03T08:02:30.000Z</Time>
            <Position>
              <LatitudeDegrees>-15.35338441841304302215576171875</LatitudeDegrees>
              <LongitudeDegrees>37.08778624422848224639892578125</LongitudeDegrees>
            </Position>
            <AltitudeMeters>1234.199951171875</AltitudeMeters>
            <DistanceMeters>NAN</DistanceMeters>
          </Trackpoint>
          <Trackpoint>
            <Time>2021-08-03T08:02:40.000Z</Time>
            <Position>
              <LatitudeDegrees>-15.353498496115207672119140625</LatitudeDegrees>
              <LongitudeDegrees>37.0877963863313198089599609375</LongitudeDegrees>
            </Position>
            <AltitudeMeters>1233.5999755859375</AltitudeMeters>
            <DistanceMeters>NAN</DistanceMeters>
          </Trackpoint>
          <Trackpoint>
            <Time>2021-08-03T08:02:43.000Z</Time>
            <Position>
              <LatitudeDegrees>-15.353529341518878936767578125</LatitudeDegrees>
              <LongitudeDegrees>37.08780686371028423309326171875</LongitudeDegrees>
            </Position>
            <AltitudeMeters>1233.5999755859375</AltitudeMeters>
            <DistanceMeters>NAN</DistanceMeters>
          </Trackpoint>
          <Trackpoint>
            <Time>2021-08-03T08:02:46.000Z</Time>
            <Position>
              <LatitudeDegrees>-15.35356010310351848602294921875</LatitudeDegrees>
              <LongitudeDegrees>37.087816335260868072509765625</LongitudeDegrees>
            </Position>
            <AltitudeMeters>1233.800048828125</AltitudeMeters>
            <DistanceMeters>NAN</DistanceMeters>
          </Trackpoint>
          <Trackpoint>
            <Time>2021-08-03T08:02:49.000Z</Time>
            <Position>
              <LatitudeDegrees>-15.35359513945877552032470703125</LatitudeDegrees>
              <LongitudeDegrees>37.08783804439008235931396484375</LongitudeDegrees>
            </Position>
            <AltitudeMeters>1233.5999755859375</AltitudeMeters>
            <DistanceMeters>NAN</DistanceMeters>
          </Trackpoint>
          <Trackpoint>
            <Time>2021-08-03T08:02:57.000Z</Time>
            <Position>
              <LatitudeDegrees>-15.3536813892424106597900390625</LatitudeDegrees>
              <LongitudeDegrees>37.08786763250827789306640625</LongitudeDegrees>
            </Position>
            <AltitudeMeters>1233.4000244140625</AltitudeMeters>
            <DistanceMeters>NAN</DistanceMeters>
          </Trackpoint>
          <Trackpoint>
            <Time>2021-08-03T08:03:06.000Z</Time>
            <Position>
              <LatitudeDegrees>-15.3537675552070140838623046875</LatitudeDegrees>
              <LongitudeDegrees>37.08791616372764110565185546875</LongitudeDegrees>
            </Position>
            <AltitudeMeters>1233.5999755859375</AltitudeMeters>
            <DistanceMeters>NAN</DistanceMeters>
          </Trackpoint>
          <Trackpoint>
            <Time>2021-08-03T08:03:14.000Z</Time>
            <Position>
              <LatitudeDegrees>-15.35387610085308551788330078125</LatitudeDegrees>
              <LongitudeDegrees>37.087942063808441162109375</LongitudeDegrees>
            </Position>
            <AltitudeMeters>1233.5999755859375</AltitudeMeters>
            <DistanceMeters>NAN</DistanceMeters>
          </Trackpoint>
          <Trackpoint>
            <Time>2021-08-03T08:03:22.000Z</Time>
            <Position>
              <LatitudeDegrees>-15.35396193154156208038330078125</LatitudeDegrees>
              <LongitudeDegrees>37.0879640243947505950927734375</LongitudeDegrees>
            </Position>
            <AltitudeMeters>1233.199951171875</AltitudeMeters>
            <DistanceMeters>NAN</DistanceMeters>
          </Trackpoint>
          <Trackpoint>
            <Time>2021-08-03T08:03:23.000Z</Time>
            <Position>
              <LatitudeDegrees>-15.353969894349575042724609375</LatitudeDegrees>
              <LongitudeDegrees>37.087967880070209503173828125</LongitudeDegrees>
            </Position>
            <AltitudeMeters>1233.199951171875</AltitudeMeters>
            <DistanceMeters>NAN</DistanceMeters>
          </Trackpoint>
          <Trackpoint>
            <Time>2021-08-03T08:03:32.000Z</Time>
            <Position>
              <LatitudeDegrees>-15.354067124426364898681640625</LatitudeDegrees>
              <LongitudeDegrees>37.0879827998578548431396484375</LongitudeDegrees>
            </Position>
            <AltitudeMeters>1232.4000244140625</AltitudeMeters>
            <DistanceMeters>NAN</DistanceMeters>
          </Trackpoint>
          <Trackpoint>
            <Time>2021-08-03T08:03:35.000Z</Time>
            <Position>
              <LatitudeDegrees>-15.354097299277782440185546875</LatitudeDegrees>
              <LongitudeDegrees>37.08799176849424839019775390625</LongitudeDegrees>
            </Position>
            <AltitudeMeters>1232</AltitudeMeters>
            <DistanceMeters>NAN</DistanceMeters>
          </Trackpoint>
          <Trackpoint>
            <Time>2021-08-03T08:03:41.000Z</Time>
            <Position>
              <LatitudeDegrees>-15.35417365841567516326904296875</LatitudeDegrees>
              <LongitudeDegrees>37.08800953812897205352783203125</LongitudeDegrees>
            </Position>
            <AltitudeMeters>1231.5999755859375</AltitudeMeters>
            <DistanceMeters>NAN</DistanceMeters>
          </Trackpoint>
          <Trackpoint>
            <Time>2021-08-03T08:03:46.000Z</Time>
            <Position>
              <LatitudeDegrees>-15.35423618741333484649658203125</LatitudeDegrees>
              <LongitudeDegrees>37.08802881650626659393310546875</LongitudeDegrees>
            </Position>
            <AltitudeMeters>1231</AltitudeMeters>
            <DistanceMeters>NAN</DistanceMeters>
          </Trackpoint>
          <Trackpoint>
            <Time>2021-08-03T08:03:49.000Z</Time>
            <Position>
              <LatitudeDegrees>-15.35427055321633815765380859375</LatitudeDegrees>
              <LongitudeDegrees>37.088038958609104156494140625</LongitudeDegrees>
            </Position>
            <AltitudeMeters>1230.5999755859375</AltitudeMeters>
            <DistanceMeters>NAN</DistanceMeters>
          </Trackpoint>
          <Trackpoint>
            <Time>2021-08-03T08:03:50.000Z</Time>
            <Position>
              <LatitudeDegrees>-15.35428471863269805908203125</LatitudeDegrees>
              <LongitudeDegrees>37.0880401320755481719970703125</LongitudeDegrees>
            </Position>
            <AltitudeMeters>1230.5999755859375</AltitudeMeters>
            <DistanceMeters>NAN</DistanceMeters>
          </Trackpoint>
          <Trackpoint>
            <Time>2021-08-03T08:03:59.000Z</Time>
            <Position>
              <LatitudeDegrees>-15.3544106148183345794677734375</LatitudeDegrees>
              <LongitudeDegrees>37.0880558900535106658935546875</LongitudeDegrees>
            </Position>
            <AltitudeMeters>1230</AltitudeMeters>
            <DistanceMeters>NAN</DistanceMeters>
          </Trackpoint>
          <Trackpoint>
            <Time>2021-08-03T08:04:02.000Z</Time>
            <Position>
              <LatitudeDegrees>-15.3544622473418712615966796875</LatitudeDegrees>
              <LongitudeDegrees>37.08805714733898639678955078125</LongitudeDegrees>
            </Position>
            <AltitudeMeters>1229.5999755859375</AltitudeMeters>
            <DistanceMeters>NAN</DistanceMeters>
          </Trackpoint>
          <Trackpoint>
            <Time>2021-08-03T08:04:06.000Z</Time>
            <Position>
              <LatitudeDegrees>-15.35451538860797882080078125</LatitudeDegrees>
              <LongitudeDegrees>37.0880679599940776824951171875</LongitudeDegrees>
            </Position>
            <AltitudeMeters>1229.199951171875</AltitudeMeters>
            <DistanceMeters>NAN</DistanceMeters>
          </Trackpoint>
          <Trackpoint>
            <Time>2021-08-03T08:04:08.000Z</Time>
            <Position>
              <LatitudeDegrees>-15.35453357733786106109619140625</LatitudeDegrees>
              <LongitudeDegrees>37.088069804012775421142578125</LongitudeDegrees>
            </Position>
            <AltitudeMeters>1229.199951171875</AltitudeMeters>
            <DistanceMeters>NAN</DistanceMeters>
          </Trackpoint>
          <Trackpoint>
            <Time>2021-08-03T08:04:12.000Z</Time>
            <Position>
              <LatitudeDegrees>-15.35457171499729156494140625</LatitudeDegrees>
              <LongitudeDegrees>37.088079191744327545166015625</LongitudeDegrees>
            </Position>
            <AltitudeMeters>1229</AltitudeMeters>
            <DistanceMeters>NAN</DistanceMeters>
          </Trackpoint>
          <Trackpoint>
            <Time>2021-08-03T08:04:19.000Z</Time>
            <Position>
              <LatitudeDegrees>-15.35464203916490077972412109375</LatitudeDegrees>
              <LongitudeDegrees>37.08810006268322467803955078125</LongitudeDegrees>
            </Position>
            <AltitudeMeters>1228</AltitudeMeters>
            <DistanceMeters>NAN</DistanceMeters>
          </Trackpoint>
          <Trackpoint>
            <Time>2021-08-03T08:04:22.000Z</Time>
            <Position>
              <LatitudeDegrees>-15.35467187874019145965576171875</LatitudeDegrees>
              <LongitudeDegrees>37.088109366595745086669921875</LongitudeDegrees>
            </Position>
            <AltitudeMeters>1227.800048828125</AltitudeMeters>
            <DistanceMeters>NAN</DistanceMeters>
          </Trackpoint>
          <Trackpoint>
            <Time>2021-08-03T08:04:25.000Z</Time>
            <Position>
              <LatitudeDegrees>-15.3547053225338459014892578125</LatitudeDegrees>
              <LongitudeDegrees>37.08811313845217227935791015625</LongitudeDegrees>
            </Position>
            <AltitudeMeters>1227.800048828125</AltitudeMeters>
            <DistanceMeters>NAN</DistanceMeters>
          </Trackpoint>
          <Trackpoint>
            <Time>2021-08-03T08:04:28.000Z</Time>
            <Position>
              <LatitudeDegrees>-15.3547386825084686279296875</LatitudeDegrees>
              <LongitudeDegrees>37.088125459849834442138671875</LongitudeDegrees>
            </Position>
            <AltitudeMeters>1227.4000244140625</AltitudeMeters>
            <DistanceMeters>NAN</DistanceMeters>
          </Trackpoint>
          <Trackpoint>
            <Time>2021-08-03T08:04:32.000Z</Time>
            <Position>
              <LatitudeDegrees>-15.35477614961564540863037109375</LatitudeDegrees>
              <LongitudeDegrees>37.08812369965016841888427734375</LongitudeDegrees>
            </Position>
            <AltitudeMeters>1226.800048828125</AltitudeMeters>
            <DistanceMeters>NAN</DistanceMeters>
          </Trackpoint>
          <Trackpoint>
            <Time>2021-08-03T08:04:35.000Z</Time>
            <Position>
              <LatitudeDegrees>-15.35480699501931667327880859375</LatitudeDegrees>
              <LongitudeDegrees>37.08813794888556003570556640625</LongitudeDegrees>
            </Position>
            <AltitudeMeters>1226.5999755859375</AltitudeMeters>
            <DistanceMeters>NAN</DistanceMeters>
          </Trackpoint>
          <Trackpoint>
            <Time>2021-08-03T08:04:39.000Z</Time>
            <Position>
              <LatitudeDegrees>-15.35484052263200283050537109375</LatitudeDegrees>
              <LongitudeDegrees>37.08815001882612705230712890625</LongitudeDegrees>
            </Position>
            <AltitudeMeters>1225.5999755859375</AltitudeMeters>
            <DistanceMeters>NAN</DistanceMeters>
          </Trackpoint>
          <Trackpoint>
            <Time>2021-08-03T08:04:45.000Z</Time>
            <Position>
              <LatitudeDegrees>-15.35490154288709163665771484375</LatitudeDegrees>
              <LongitudeDegrees>37.0881685428321361541748046875</LongitudeDegrees>
            </Position>
            <AltitudeMeters>1225</AltitudeMeters>
            <DistanceMeters>NAN</DistanceMeters>
          </Trackpoint>
          <Trackpoint>
            <Time>2021-08-03T08:04:51.000Z</Time>
            <Position>
              <LatitudeDegrees>-15.354968011379241943359375</LatitudeDegrees>
              <LongitudeDegrees>37.08818052895367145538330078125</LongitudeDegrees>
            </Position>
            <AltitudeMeters>1224.199951171875</AltitudeMeters>
            <DistanceMeters>NAN</DistanceMeters>
          </Trackpoint>
          <Trackpoint>
            <Time>2021-08-03T08:04:54.000Z</Time>
            <Position>
              <LatitudeDegrees>-15.3550053946673870086669921875</LatitudeDegrees>
              <LongitudeDegrees>37.0881812833249568939208984375</LongitudeDegrees>
            </Position>
            <AltitudeMeters>1223.800048828125</AltitudeMeters>
            <DistanceMeters>NAN</DistanceMeters>
          </Trackpoint>
          <Trackpoint>
            <Time>2021-08-03T08:04:55.000Z</Time>
            <Position>
              <LatitudeDegrees>-15.3550176322460174560546875</LatitudeDegrees>
              <LongitudeDegrees>37.08818321116268634796142578125</LongitudeDegrees>
            </Position>
            <AltitudeMeters>1223.800048828125</AltitudeMeters>
            <DistanceMeters>NAN</DistanceMeters>
          </Trackpoint>
          <Trackpoint>
            <Time>2021-08-03T08:05:00.000Z</Time>
            <Position>
              <LatitudeDegrees>-15.355073623359203338623046875</LatitudeDegrees>
              <LongitudeDegrees>37.08819243125617504119873046875</LongitudeDegrees>
            </Position>
            <AltitudeMeters>1223.4000244140625</AltitudeMeters>
            <DistanceMeters>NAN</DistanceMeters>
          </Trackpoint>
          <Trackpoint>
            <Time>2021-08-03T08:05:01.000Z</Time>
            <Position>
              <LatitudeDegrees>-15.35508275963366031646728515625</LatitudeDegrees>
              <LongitudeDegrees>37.08819259889423847198486328125</LongitudeDegrees>
            </Position>
            <AltitudeMeters>1223</AltitudeMeters>
            <DistanceMeters>NAN</DistanceMeters>
          </Trackpoint>
          <Trackpoint>
            <Time>2021-08-03T08:05:04.000Z</Time>
            <Position>
              <LatitudeDegrees>-15.35511310212314128875732421875</LatitudeDegrees>
              <LongitudeDegrees>37.08820366300642490386962890625</LongitudeDegrees>
            </Position>
            <AltitudeMeters>1223</AltitudeMeters>
            <DistanceMeters>NAN</DistanceMeters>
          </Trackpoint>
          <Trackpoint>
            <Time>2021-08-03T08:05:09.000Z</Time>
            <Position>
              <LatitudeDegrees>-15.35517177544534206390380859375</LatitudeDegrees>
              <LongitudeDegrees>37.0882171578705310821533203125</LongitudeDegrees>
            </Position>
            <AltitudeMeters>1221.800048828125</AltitudeMeters>
            <DistanceMeters>NAN</DistanceMeters>
          </Trackpoint>
          <Trackpoint>
            <Time>2021-08-03T08:05:12.000Z</Time>
            <Position>
              <LatitudeDegrees>-15.35520764999091625213623046875</LatitudeDegrees>
              <LongitudeDegrees>37.08823132328689098358154296875</LongitudeDegrees>
            </Position>
            <AltitudeMeters>1220.800048828125</AltitudeMeters>
            <DistanceMeters>NAN</DistanceMeters>
          </Trackpoint>
          <Trackpoint>
            <Time>2021-08-03T08:05:14.000Z</Time>
            <Position>
              <LatitudeDegrees>-15.355231873691082000732421875</LatitudeDegrees>
              <LongitudeDegrees>37.088239453732967376708984375</LongitudeDegrees>
            </Position>
            <AltitudeMeters>1220.5999755859375</AltitudeMeters>
            <DistanceMeters>NAN</DistanceMeters>
          </Trackpoint>
          <Trackpoint>
            <Time>2021-08-03T08:05:18.000Z</Time>
            <Position>
              <LatitudeDegrees>-15.35525408573448657989501953125</LatitudeDegrees>
              <LongitudeDegrees>37.08824808709323406219482421875</LongitudeDegrees>
            </Position>
            <AltitudeMeters>1219.5999755859375</AltitudeMeters>
            <DistanceMeters>NAN</DistanceMeters>
          </Trackpoint>
          <Trackpoint>
            <Time>2021-08-03T08:05:22.000Z</Time>
            <Position>
              <LatitudeDegrees>-15.35529482178390026092529296875</LatitudeDegrees>
              <LongitudeDegrees>37.08827356807887554168701171875</LongitudeDegrees>
            </Position>
            <AltitudeMeters>1219</AltitudeMeters>
            <DistanceMeters>NAN</DistanceMeters>
          </Trackpoint>
          <Trackpoint>
            <Time>2021-08-03T08:05:30.000Z</Time>
            <Position>
              <LatitudeDegrees>-15.355366654694080352783203125</LatitudeDegrees>
              <LongitudeDegrees>37.0883117057383060455322265625</LongitudeDegrees>
            </Position>
            <AltitudeMeters>1218.4000244140625</AltitudeMeters>
            <DistanceMeters>NAN</DistanceMeters>
          </Trackpoint>
          <Trackpoint>
            <Time>2021-08-03T08:05:35.000Z</Time>
            <Position>
              <LatitudeDegrees>-15.35541686229407787322998046875</LatitudeDegrees>
              <LongitudeDegrees>37.088341377675533294677734375</LongitudeDegrees>
            </Position>
            <AltitudeMeters>1217.5999755859375</AltitudeMeters>
            <DistanceMeters>NAN</DistanceMeters>
          </Trackpoint>
          <Trackpoint>
            <Time>2021-08-03T08:05:39.000Z</Time>
            <Position>
              <LatitudeDegrees>-15.35546463914215564727783203125</LatitudeDegrees>
              <LongitudeDegrees>37.08836141042411327362060546875</LongitudeDegrees>
            </Position>
            <AltitudeMeters>1217.800048828125</AltitudeMeters>
            <DistanceMeters>NAN</DistanceMeters>
          </Trackpoint>
          <Trackpoint>
            <Time>2021-08-03T08:05:42.000Z</Time>
            <Position>
              <LatitudeDegrees>-15.35548903048038482666015625</LatitudeDegrees>
              <LongitudeDegrees>37.08837280981242656707763671875</LongitudeDegrees>
            </Position>
            <AltitudeMeters>1217.4000244140625</AltitudeMeters>
            <DistanceMeters>NAN</DistanceMeters>
          </Trackpoint>
          <Trackpoint>
            <Time>2021-08-03T08:05:43.000Z</Time>
            <Position>
              <LatitudeDegrees>-15.35549682565033435821533203125</LatitudeDegrees>
              <LongitudeDegrees>37.0883784256875514984130859375</LongitudeDegrees>
            </Position>
            <AltitudeMeters>1217.199951171875</AltitudeMeters>
            <DistanceMeters>NAN</DistanceMeters>
          </Trackpoint>
          <Trackpoint>
            <Time>2021-08-03T08:05:48.000Z</Time>
            <Position>
              <LatitudeDegrees>-15.35553823225200176239013671875</LatitudeDegrees>
              <LongitudeDegrees>37.08840767852962017059326171875</LongitudeDegrees>
            </Position>
            <AltitudeMeters>1215.800048828125</AltitudeMeters>
            <DistanceMeters>NAN</DistanceMeters>
          </Trackpoint>
          <Trackpoint>
            <Time>2021-08-03T08:05:52.000Z</Time>
            <Position>
              <LatitudeDegrees>-15.3555674850940704345703125</LatitudeDegrees>
              <LongitudeDegrees>37.08841354586184024810791015625</LongitudeDegrees>
            </Position>
            <AltitudeMeters>1215.800048828125</AltitudeMeters>
            <DistanceMeters>NAN</DistanceMeters>
          </Trackpoint>
          <Trackpoint>
            <Time>2021-08-03T08:06:00.000Z</Time>
            <Position>
              <LatitudeDegrees>-15.3556400723755359649658203125</LatitudeDegrees>
              <LongitudeDegrees>37.08845495246350765228271484375</LongitudeDegrees>
            </Position>
            <AltitudeMeters>1214.800048828125</AltitudeMeters>
            <DistanceMeters>NAN</DistanceMeters>
          </Trackpoint>
          <Trackpoint>
            <Time>2021-08-03T08:06:01.000Z</Time>
            <Position>
              <LatitudeDegrees>-15.35564334131777286529541015625</LatitudeDegrees>
              <LongitudeDegrees>37.08846316672861576080322265625</LongitudeDegrees>
            </Position>
            <AltitudeMeters>1214.199951171875</AltitudeMeters>
            <DistanceMeters>NAN</DistanceMeters>
          </Trackpoint>
          <Trackpoint>
            <Time>2021-08-03T08:06:05.000Z</Time>
            <Position>
              <LatitudeDegrees>-15.35566815175116062164306640625</LatitudeDegrees>
              <LongitudeDegrees>37.08848546259105205535888671875</LongitudeDegrees>
            </Position>
            <AltitudeMeters>1213.800048828125</AltitudeMeters>
            <DistanceMeters>NAN</DistanceMeters>
          </Trackpoint>
          <Trackpoint>
            <Time>2021-08-03T08:06:06.000Z</Time>
            <Position>
              <LatitudeDegrees>-15.35567167215049266815185546875</LatitudeDegrees>
              <LongitudeDegrees>37.08849535323679447174072265625</LongitudeDegrees>
            </Position>
            <AltitudeMeters>1213.800048828125</AltitudeMeters>
            <DistanceMeters>NAN</DistanceMeters>
          </Trackpoint>
          <Trackpoint>
            <Time>2021-08-03T08:06:07.000Z</Time>
            <Position>
              <LatitudeDegrees>-15.3556766174733638763427734375</LatitudeDegrees>
              <LongitudeDegrees>37.0885085128247737884521484375</LongitudeDegrees>
            </Position>
            <AltitudeMeters>1213.5999755859375</AltitudeMeters>
            <DistanceMeters>NAN</DistanceMeters>
          </Trackpoint>
          <Trackpoint>
            <Time>2021-08-03T08:06:13.000Z</Time>
            <Position>
              <LatitudeDegrees>-15.35573135130107402801513671875</LatitudeDegrees>
              <LongitudeDegrees>37.08857296966016292572021484375</LongitudeDegrees>
            </Position>
            <AltitudeMeters>1212.5999755859375</AltitudeMeters>
            <DistanceMeters>NAN</DistanceMeters>
          </Trackpoint>
          <Trackpoint>
            <Time>2021-08-03T08:06:15.000Z</Time>
            <Position>
              <LatitudeDegrees>-15.3557476960122585296630859375</LatitudeDegrees>
              <LongitudeDegrees>37.08858839236199855804443359375</LongitudeDegrees>
            </Position>
            <AltitudeMeters>1212.4000244140625</AltitudeMeters>
            <DistanceMeters>NAN</DistanceMeters>
          </Trackpoint>
          <Trackpoint>
            <Time>2021-08-03T08:06:19.000Z</Time>
            <Position>
              <LatitudeDegrees>-15.35577007569372653961181640625</LatitudeDegrees>
              <LongitudeDegrees>37.08861538209021091461181640625</LongitudeDegrees>
            </Position>
            <AltitudeMeters>1211.4000244140625</AltitudeMeters>
            <DistanceMeters>NAN</DistanceMeters>
          </Trackpoint>
          <Trackpoint>
            <Time>2021-08-03T08:06:21.000Z</Time>
            <Position>
              <LatitudeDegrees>-15.35578181035816669464111328125</LatitudeDegrees>
              <LongitudeDegrees>37.088628374040126800537109375</LongitudeDegrees>
            </Position>
            <AltitudeMeters>1211</AltitudeMeters>
            <DistanceMeters>NAN</DistanceMeters>
          </Trackpoint>
          <Trackpoint>
            <Time>2021-08-03T08:06:27.000Z</Time>
            <Position>
              <LatitudeDegrees>-15.35585112869739532470703125</LatitudeDegrees>
              <LongitudeDegrees>37.08868847228586673736572265625</LongitudeDegrees>
            </Position>
            <AltitudeMeters>1210.4000244140625</AltitudeMeters>
            <DistanceMeters>NAN</DistanceMeters>
          </Trackpoint>
          <Trackpoint>
            <Time>2021-08-03T08:06:28.000Z</Time>
            <Position>
              <LatitudeDegrees>-15.35585707984864711761474609375</LatitudeDegrees>
              <LongitudeDegrees>37.08869802765548229217529296875</LongitudeDegrees>
            </Position>
            <AltitudeMeters>1210.199951171875</AltitudeMeters>
            <DistanceMeters>NAN</DistanceMeters>
          </Trackpoint>
          <Trackpoint>
            <Time>2021-08-03T08:06:33.000Z</Time>
            <Position>
              <LatitudeDegrees>-15.3558878414332866668701171875</LatitudeDegrees>
              <LongitudeDegrees>37.08873306401073932647705078125</LongitudeDegrees>
            </Position>
            <AltitudeMeters>1209.800048828125</AltitudeMeters>
            <DistanceMeters>NAN</DistanceMeters>
          </Trackpoint>
          <Trackpoint>
            <Time>2021-08-03T08:06:34.000Z</Time>
            <Position>
              <LatitudeDegrees>-15.3558948822319507598876953125</LatitudeDegrees>
              <LongitudeDegrees>37.08874144591391086578369140625</LongitudeDegrees>
            </Position>
            <AltitudeMeters>1209.5999755859375</AltitudeMeters>
            <DistanceMeters>NAN</DistanceMeters>
          </Trackpoint>
          <Trackpoint>
            <Time>2021-08-03T08:06:37.000Z</Time>
            <Position>
              <LatitudeDegrees>-15.3559156693518161773681640625</LatitudeDegrees>
              <LongitudeDegrees>37.08876843564212322235107421875</LongitudeDegrees>
            </Position>
            <AltitudeMeters>1209.199951171875</AltitudeMeters>
            <DistanceMeters>NAN</DistanceMeters>
          </Trackpoint>
          <Trackpoint>
            <Time>2021-08-03T08:06:42.000Z</Time>
            <Position>
              <LatitudeDegrees>-15.355944335460662841796875</LatitudeDegrees>
              <LongitudeDegrees>37.08882023580372333526611328125</LongitudeDegrees>
            </Position>
            <AltitudeMeters>1208.199951171875</AltitudeMeters>
            <DistanceMeters>NAN</DistanceMeters>
          </Trackpoint>
          <Trackpoint>
            <Time>2021-08-03T08:06:47.000Z</Time>
            <Position>
              <LatitudeDegrees>-15.355978868901729583740234375</LatitudeDegrees>
              <LongitudeDegrees>37.0888679288327693939208984375</LongitudeDegrees>
            </Position>
            <AltitudeMeters>1207.199951171875</AltitudeMeters>
            <DistanceMeters>NAN</DistanceMeters>
          </Trackpoint>
          <Trackpoint>
            <Time>2021-08-03T08:06:51.000Z</Time>
            <Position>
              <LatitudeDegrees>-15.35599940456449985504150390625</LatitudeDegrees>
              <LongitudeDegrees>37.08890774287283420562744140625</LongitudeDegrees>
            </Position>
            <AltitudeMeters>1207</AltitudeMeters>
            <DistanceMeters>NAN</DistanceMeters>
          </Trackpoint>
          <Trackpoint>
            <Time>2021-08-03T08:06:54.000Z</Time>
            <Position>
              <LatitudeDegrees>-15.356021113693714141845703125</LatitudeDegrees>
              <LongitudeDegrees>37.0889339782297611236572265625</LongitudeDegrees>
            </Position>
            <AltitudeMeters>1206</AltitudeMeters>
            <DistanceMeters>NAN</DistanceMeters>
          </Trackpoint>
          <Trackpoint>
            <Time>2021-08-03T08:06:59.000Z</Time>
            <Position>
              <LatitudeDegrees>-15.35605640150606632232666015625</LatitudeDegrees>
              <LongitudeDegrees>37.08897630684077739715576171875</LongitudeDegrees>
            </Position>
            <AltitudeMeters>1205</AltitudeMeters>
            <DistanceMeters>NAN</DistanceMeters>
          </Trackpoint>
          <Trackpoint>
            <Time>2021-08-03T08:07:05.000Z</Time>
            <Position>
              <LatitudeDegrees>-15.3560869954526424407958984375</LatitudeDegrees>
              <LongitudeDegrees>37.0890392549335956573486328125</LongitudeDegrees>
            </Position>
            <AltitudeMeters>1203.199951171875</AltitudeMeters>
            <DistanceMeters>NAN</DistanceMeters>
          </Trackpoint>
          <Trackpoint>
            <Time>2021-08-03T08:07:10.000Z</Time>
            <Position>
              <LatitudeDegrees>-15.356110297143459320068359375</LatitudeDegrees>
              <LongitudeDegrees>37.08908191882073879241943359375</LongitudeDegrees>
            </Position>
            <AltitudeMeters>1202.5999755859375</AltitudeMeters>
            <DistanceMeters>NAN</DistanceMeters>
          </Trackpoint>
          <Trackpoint>
            <Time>2021-08-03T08:07:13.000Z</Time>
            <Position>
              <LatitudeDegrees>-15.3561280667781829833984375</LatitudeDegrees>
              <LongitudeDegrees>37.08910119719803333282470703125</LongitudeDegrees>
            </Position>
            <AltitudeMeters>1202.4000244140625</AltitudeMeters>
            <DistanceMeters>NAN</DistanceMeters>
          </Trackpoint>
          <Trackpoint>
            <Time>2021-08-03T08:07:15.000Z</Time>
            <Position>
              <LatitudeDegrees>-15.3561307489871978759765625</LatitudeDegrees>
              <LongitudeDegrees>37.0891049690544605255126953125</LongitudeDegrees>
            </Position>
            <AltitudeMeters>1202</AltitudeMeters>
            <DistanceMeters>NAN</DistanceMeters>
          </Trackpoint>
          <Trackpoint>
            <Time>2021-08-03T08:07:17.000Z</Time>
            <Position>
              <LatitudeDegrees>-15.35612831823527812957763671875</LatitudeDegrees>
              <LongitudeDegrees>37.08910656161606311798095703125</LongitudeDegrees>
            </Position>
            <AltitudeMeters>1201.5999755859375</AltitudeMeters>
            <DistanceMeters>NAN</DistanceMeters>
          </Trackpoint>
          <Trackpoint>
            <Time>2021-08-03T08:07:24.000Z</Time>
            <Position>
              <LatitudeDegrees>-15.35612043924629688262939453125</LatitudeDegrees>
              <LongitudeDegrees>37.089107818901538848876953125</LongitudeDegrees>
            </Position>
            <AltitudeMeters>1201.5999755859375</AltitudeMeters>
            <DistanceMeters>NAN</DistanceMeters>
          </Trackpoint>
          <Trackpoint>
            <Time>2021-08-03T08:07:38.000Z</Time>
            <Position>
              <LatitudeDegrees>-15.356122367084026336669921875</LatitudeDegrees>
              <LongitudeDegrees>37.08910488523542881011962890625</LongitudeDegrees>
            </Position>
            <AltitudeMeters>1201.800048828125</AltitudeMeters>
            <DistanceMeters>NAN</DistanceMeters>
          </Trackpoint>
          <Trackpoint>
            <Time>2021-08-03T08:07:45.000Z</Time>
            <Position>
              <LatitudeDegrees>-15.35613100044429302215576171875</LatitudeDegrees>
              <LongitudeDegrees>37.08911729045212268829345703125</LongitudeDegrees>
            </Position>
            <AltitudeMeters>1201.800048828125</AltitudeMeters>
            <DistanceMeters>NAN</DistanceMeters>
          </Trackpoint>
          <Trackpoint>
            <Time>2021-08-03T08:07:48.000Z</Time>
            <Position>
              <LatitudeDegrees>-15.3561520390212535858154296875</LatitudeDegrees>
              <LongitudeDegrees>37.0891478843986988067626953125</LongitudeDegrees>
            </Position>
            <AltitudeMeters>1201.5999755859375</AltitudeMeters>
            <DistanceMeters>NAN</DistanceMeters>
          </Trackpoint>
          <Trackpoint>
            <Time>2021-08-03T08:07:52.000Z</Time>
            <Position>
              <LatitudeDegrees>-15.35618104040622711181640625</LatitudeDegrees>
              <LongitudeDegrees>37.089186273515224456787109375</LongitudeDegrees>
            </Position>
            <AltitudeMeters>1201.4000244140625</AltitudeMeters>
            <DistanceMeters>NAN</DistanceMeters>
          </Trackpoint>
          <Trackpoint>
            <Time>2021-08-03T08:07:53.000Z</Time>
            <Position>
              <LatitudeDegrees>-15.35618682391941547393798828125</LatitudeDegrees>
              <LongitudeDegrees>37.0891981758177280426025390625</LongitudeDegrees>
            </Position>
            <AltitudeMeters>1200.800048828125</AltitudeMeters>
            <DistanceMeters>NAN</DistanceMeters>
          </Trackpoint>
          <Trackpoint>
            <Time>2021-08-03T08:07:57.000Z</Time>
            <Position>
              <LatitudeDegrees>-15.35620786249637603759765625</LatitudeDegrees>
              <LongitudeDegrees>37.08924134261906147003173828125</LongitudeDegrees>
            </Position>
            <AltitudeMeters>1200.199951171875</AltitudeMeters>
            <DistanceMeters>NAN</DistanceMeters>
          </Trackpoint>
          <Trackpoint>
            <Time>2021-08-03T08:07:58.000Z</Time>
            <Position>
              <LatitudeDegrees>-15.35621582530438899993896484375</LatitudeDegrees>
              <LongitudeDegrees>37.08924897015094757080078125</LongitudeDegrees>
            </Position>
            <AltitudeMeters>1199.800048828125</AltitudeMeters>
            <DistanceMeters>NAN</DistanceMeters>
          </Trackpoint>
          <Trackpoint>
            <Time>2021-08-03T08:08:01.000Z</Time>
            <Position>
              <LatitudeDegrees>-15.356236360967159271240234375</LatitudeDegrees>
              <LongitudeDegrees>37.08927419967949390411376953125</LongitudeDegrees>
            </Position>
            <AltitudeMeters>1199.5999755859375</AltitudeMeters>
            <DistanceMeters>NAN</DistanceMeters>
          </Trackpoint>
          <Trackpoint>
            <Time>2021-08-03T08:08:05.000Z</Time>
            <Position>
              <LatitudeDegrees>-15.35626427270472049713134765625</LatitudeDegrees>
              <LongitudeDegrees>37.08931225351989269256591796875</LongitudeDegrees>
            </Position>
            <AltitudeMeters>1198.800048828125</AltitudeMeters>
            <DistanceMeters>NAN</DistanceMeters>
          </Trackpoint>
          <Trackpoint>
            <Time>2021-08-03T08:08:06.000Z</Time>
            <Position>
              <LatitudeDegrees>-15.35627148114144802093505859375</LatitudeDegrees>
              <LongitudeDegrees>37.0893235690891742706298828125</LongitudeDegrees>
            </Position>
            <AltitudeMeters>1198.5999755859375</AltitudeMeters>
            <DistanceMeters>NAN</DistanceMeters>
          </Trackpoint>
          <Trackpoint>
            <Time>2021-08-03T08:08:15.000Z</Time>
            <Position>
              <LatitudeDegrees>-15.35632596351206302642822265625</LatitudeDegrees>
              <LongitudeDegrees>37.08940898068249225616455078125</LongitudeDegrees>
            </Position>
            <AltitudeMeters>1197.4000244140625</AltitudeMeters>
            <DistanceMeters>NAN</DistanceMeters>
          </Trackpoint>
          <Trackpoint>
            <Time>2021-08-03T08:08:16.000Z</Time>
            <Position>
              <LatitudeDegrees>-15.3563317470252513885498046875</LatitudeDegrees>
              <LongitudeDegrees>37.0894197933375835418701171875</LongitudeDegrees>
            </Position>
            <AltitudeMeters>1197.199951171875</AltitudeMeters>
            <DistanceMeters>NAN</DistanceMeters>
          </Trackpoint>
          <Trackpoint>
            <Time>2021-08-03T08:08:20.000Z</Time>
            <Position>
              <LatitudeDegrees>-15.3563582338392734527587890625</LatitudeDegrees>
              <LongitudeDegrees>37.0894606970250606536865234375</LongitudeDegrees>
            </Position>
            <AltitudeMeters>1196.199951171875</AltitudeMeters>
            <DistanceMeters>NAN</DistanceMeters>
          </Trackpoint>
          <Trackpoint>
            <Time>2021-08-03T08:08:26.000Z</Time>
            <Position>
              <LatitudeDegrees>-15.35638966597616672515869140625</LatitudeDegrees>
              <LongitudeDegrees>37.0895217172801494598388671875</LongitudeDegrees>
            </Position>
            <AltitudeMeters>1195.4000244140625</AltitudeMeters>
            <DistanceMeters>NAN</DistanceMeters>
          </Trackpoint>
          <Trackpoint>
            <Time>2021-08-03T08:08:27.000Z</Time>
            <Position>
              <LatitudeDegrees>-15.35639586858451366424560546875</LatitudeDegrees>
              <LongitudeDegrees>37.089530266821384429931640625</LongitudeDegrees>
            </Position>
            <AltitudeMeters>1194.800048828125</AltitudeMeters>
            <DistanceMeters>NAN</DistanceMeters>
          </Trackpoint>
          <Trackpoint>
            <Time>2021-08-03T08:08:36.000Z</Time>
            <Position>
              <LatitudeDegrees>-15.35644163377583026885986328125</LatitudeDegrees>
              <LongitudeDegrees>37.089631520211696624755859375</LongitudeDegrees>
            </Position>
            <AltitudeMeters>1193.5999755859375</AltitudeMeters>
            <DistanceMeters>NAN</DistanceMeters>
          </Trackpoint>
          <Trackpoint>
            <Time>2021-08-03T08:08:38.000Z</Time>
            <Position>
              <LatitudeDegrees>-15.3564511053264141082763671875</LatitudeDegrees>
              <LongitudeDegrees>37.08965507335960865020751953125</LongitudeDegrees>
            </Position>
            <AltitudeMeters>1193</AltitudeMeters>
            <DistanceMeters>NAN</DistanceMeters>
          </Trackpoint>
          <Trackpoint>
            <Time>2021-08-03T08:08:43.000Z</Time>
            <Position>
              <LatitudeDegrees>-15.356475748121738433837890625</LatitudeDegrees>
              <LongitudeDegrees>37.08970821462571620941162109375</LongitudeDegrees>
            </Position>
            <AltitudeMeters>1192.4000244140625</AltitudeMeters>
            <DistanceMeters>NAN</DistanceMeters>
          </Trackpoint>
          <Trackpoint>
            <Time>2021-08-03T08:08:49.000Z</Time>
            <Position>
              <LatitudeDegrees>-15.35651229321956634521484375</LatitudeDegrees>
              <LongitudeDegrees>37.08977376110851764678955078125</LongitudeDegrees>
            </Position>
            <AltitudeMeters>1191.4000244140625</AltitudeMeters>
            <DistanceMeters>NAN</DistanceMeters>
          </Trackpoint>
          <Trackpoint>
            <Time>2021-08-03T08:08:50.000Z</Time>
            <Position>
              <LatitudeDegrees>-15.3565181605517864227294921875</LatitudeDegrees>
              <LongitudeDegrees>37.0897849090397357940673828125</LongitudeDegrees>
            </Position>
            <AltitudeMeters>1191.4000244140625</AltitudeMeters>
            <DistanceMeters>NAN</DistanceMeters>
          </Trackpoint>
          <Trackpoint>
            <Time>2021-08-03T08:08:53.000Z</Time>
            <Position>
              <LatitudeDegrees>-15.35653232596814632415771484375</LatitudeDegrees>
              <LongitudeDegrees>37.08981516771018505096435546875</LongitudeDegrees>
            </Position>
            <AltitudeMeters>1191</AltitudeMeters>
            <DistanceMeters>NAN</DistanceMeters>
          </Trackpoint>
          <Trackpoint>
            <Time>2021-08-03T08:08:56.000Z</Time>
            <Position>
              <LatitudeDegrees>-15.3565459884703159332275390625</LatitudeDegrees>
              <LongitudeDegrees>37.08984651602804660797119140625</LongitudeDegrees>
            </Position>
            <AltitudeMeters>1190.199951171875</AltitudeMeters>
            <DistanceMeters>NAN</DistanceMeters>
          </Trackpoint>
          <Trackpoint>
            <Time>2021-08-03T08:09:00.000Z</Time>
            <Position>
              <LatitudeDegrees>-15.3565892390906810760498046875</LatitudeDegrees>
              <LongitudeDegrees>37.08987249992787837982177734375</LongitudeDegrees>
            </Position>
            <AltitudeMeters>1189.199951171875</AltitudeMeters>
            <DistanceMeters>NAN</DistanceMeters>
          </Trackpoint>
          <Trackpoint>
            <Time>2021-08-03T08:09:01.000Z</Time>
            <Position>
              <LatitudeDegrees>-15.35660172812640666961669921875</LatitudeDegrees>
              <LongitudeDegrees>37.0898759365081787109375</LongitudeDegrees>
            </Position>
            <AltitudeMeters>1189.199951171875</AltitudeMeters>
            <DistanceMeters>NAN</DistanceMeters>
          </Trackpoint>
          <Trackpoint>
            <Time>2021-08-03T08:09:08.000Z</Time>
            <Position>
              <LatitudeDegrees>-15.35668252967298030853271484375</LatitudeDegrees>
              <LongitudeDegrees>37.08986294455826282501220703125</LongitudeDegrees>
            </Position>
            <AltitudeMeters>1189</AltitudeMeters>
            <DistanceMeters>NAN</DistanceMeters>
          </Trackpoint>
          <Trackpoint>
            <Time>2021-08-03T08:09:09.000Z</Time>
            <Position>
              <LatitudeDegrees>-15.35669040866196155548095703125</LatitudeDegrees>
              <LongitudeDegrees>37.08985389210283756256103515625</LongitudeDegrees>
            </Position>
            <AltitudeMeters>1189</AltitudeMeters>
            <DistanceMeters>NAN</DistanceMeters>
          </Trackpoint>
          <Trackpoint>
            <Time>2021-08-03T08:09:14.000Z</Time>
            <Position>
              <LatitudeDegrees>-15.35672360099852085113525390625</LatitudeDegrees>
              <LongitudeDegrees>37.089812569320201873779296875</LongitudeDegrees>
            </Position>
            <AltitudeMeters>1188.199951171875</AltitudeMeters>
            <DistanceMeters>NAN</DistanceMeters>
          </Trackpoint>
          <Trackpoint>
            <Time>2021-08-03T08:09:17.000Z</Time>
            <Position>
              <LatitudeDegrees>-15.3567317314445972442626953125</LatitudeDegrees>
              <LongitudeDegrees>37.0897751860320568084716796875</LongitudeDegrees>
            </Position>
            <AltitudeMeters>1188</AltitudeMeters>
            <DistanceMeters>NAN</DistanceMeters>
          </Trackpoint>
          <Trackpoint>
            <Time>2021-08-03T08:09:19.000Z</Time>
            <Position>
              <LatitudeDegrees>-15.3567324019968509674072265625</LatitudeDegrees>
              <LongitudeDegrees>37.08974844776093959808349609375</LongitudeDegrees>
            </Position>
            <AltitudeMeters>1187</AltitudeMeters>
            <DistanceMeters>NAN</DistanceMeters>
          </Trackpoint>
          <Trackpoint>
            <Time>2021-08-03T08:09:24.000Z</Time>
            <Position>
              <LatitudeDegrees>-15.35674053244292736053466796875</LatitudeDegrees>
              <LongitudeDegrees>37.08968340419232845306396484375</LongitudeDegrees>
            </Position>
            <AltitudeMeters>1185.5999755859375</AltitudeMeters>
            <DistanceMeters>NAN</DistanceMeters>
          </Trackpoint>
          <Trackpoint>
            <Time>2021-08-03T08:09:25.000Z</Time>
            <Position>
              <LatitudeDegrees>-15.35674354992806911468505859375</LatitudeDegrees>
              <LongitudeDegrees>37.089673094451427459716796875</LongitudeDegrees>
            </Position>
            <AltitudeMeters>1185.5999755859375</AltitudeMeters>
            <DistanceMeters>NAN</DistanceMeters>
          </Trackpoint>
          <Trackpoint>
            <Time>2021-08-03T08:09:29.000Z</Time>
            <Position>
              <LatitudeDegrees>-15.35675545223057270050048828125</LatitudeDegrees>
              <LongitudeDegrees>37.0896347053349018096923828125</LongitudeDegrees>
            </Position>
            <AltitudeMeters>1184.5999755859375</AltitudeMeters>
            <DistanceMeters>NAN</DistanceMeters>
          </Trackpoint>
          <Trackpoint>
            <Time>2021-08-03T08:09:33.000Z</Time>
            <Position>
              <LatitudeDegrees>-15.3567619062960147857666015625</LatitudeDegrees>
              <LongitudeDegrees>37.0896063745021820068359375</LongitudeDegrees>
            </Position>
            <AltitudeMeters>1184</AltitudeMeters>
            <DistanceMeters>NAN</DistanceMeters>
          </Trackpoint>
          <Trackpoint>
            <Time>2021-08-03T08:09:37.000Z</Time>
            <Position>
              <LatitudeDegrees>-15.356762744486331939697265625</LatitudeDegrees>
              <LongitudeDegrees>37.08955281414091587066650390625</LongitudeDegrees>
            </Position>
            <AltitudeMeters>1183.199951171875</AltitudeMeters>
            <DistanceMeters>NAN</DistanceMeters>
          </Trackpoint>
          <Trackpoint>
            <Time>2021-08-03T08:09:40.000Z</Time>
            <Position>
              <LatitudeDegrees>-15.35676517523825168609619140625</LatitudeDegrees>
              <LongitudeDegrees>37.08951677195727825164794921875</LongitudeDegrees>
            </Position>
            <AltitudeMeters>1182.5999755859375</AltitudeMeters>
            <DistanceMeters>NAN</DistanceMeters>
          </Trackpoint>
          <Trackpoint>
            <Time>2021-08-03T08:09:42.000Z</Time>
            <Position>
              <LatitudeDegrees>-15.3567699529230594635009765625</LatitudeDegrees>
              <LongitudeDegrees>37.08949841558933258056640625</LongitudeDegrees>
            </Position>
            <AltitudeMeters>1182</AltitudeMeters>
            <DistanceMeters>NAN</DistanceMeters>
          </Trackpoint>
          <Trackpoint>
            <Time>2021-08-03T08:09:46.000Z</Time>
            <Position>
              <LatitudeDegrees>-15.3567816875874996185302734375</LatitudeDegrees>
              <LongitudeDegrees>37.0894556678831577301025390625</LongitudeDegrees>
            </Position>
            <AltitudeMeters>1180.800048828125</AltitudeMeters>
            <DistanceMeters>NAN</DistanceMeters>
          </Trackpoint>
          <Trackpoint>
            <Time>2021-08-03T08:09:48.000Z</Time>
            <Position>
              <LatitudeDegrees>-15.356786549091339111328125</LatitudeDegrees>
              <LongitudeDegrees>37.08943672478199005126953125</LongitudeDegrees>
            </Position>
            <AltitudeMeters>1180.4000244140625</AltitudeMeters>
            <DistanceMeters>NAN</DistanceMeters>
          </Trackpoint>
          <Trackpoint>
            <Time>2021-08-03T08:09:49.000Z</Time>
            <Position>
              <LatitudeDegrees>-15.35678721964359283447265625</LatitudeDegrees>
              <LongitudeDegrees>37.08942742086946964263916015625</LongitudeDegrees>
            </Position>
            <AltitudeMeters>1180.4000244140625</AltitudeMeters>
            <DistanceMeters>NAN</DistanceMeters>
          </Trackpoint>
          <Trackpoint>
            <Time>2021-08-03T08:09:55.000Z</Time>
            <Position>
              <LatitudeDegrees>-15.35678730346262454986572265625</LatitudeDegrees>
              <LongitudeDegrees>37.08933471702039241790771484375</LongitudeDegrees>
            </Position>
            <AltitudeMeters>1179.800048828125</AltitudeMeters>
            <DistanceMeters>NAN</DistanceMeters>
          </Trackpoint>
          <Trackpoint>
            <Time>2021-08-03T08:09:56.000Z</Time>
            <Position>
              <LatitudeDegrees>-15.356788896024227142333984375</LatitudeDegrees>
              <LongitudeDegrees>37.08932247944176197052001953125</LongitudeDegrees>
            </Position>
            <AltitudeMeters>1179.800048828125</AltitudeMeters>
            <DistanceMeters>NAN</DistanceMeters>
          </Trackpoint>
          <Trackpoint>
            <Time>2021-08-03T08:09:58.000Z</Time>
            <Position>
              <LatitudeDegrees>-15.35679501481354236602783203125</LatitudeDegrees>
              <LongitudeDegrees>37.08930202759802341461181640625</LongitudeDegrees>
            </Position>
            <AltitudeMeters>1179.5999755859375</AltitudeMeters>
            <DistanceMeters>NAN</DistanceMeters>
          </Trackpoint>
          <Trackpoint>
            <Time>2021-08-03T08:10:06.000Z</Time>
            <Position>
              <LatitudeDegrees>-15.35683826543390750885009765625</LatitudeDegrees>
              <LongitudeDegrees>37.08920613862574100494384765625</LongitudeDegrees>
            </Position>
            <AltitudeMeters>1178.800048828125</AltitudeMeters>
            <DistanceMeters>NAN</DistanceMeters>
          </Trackpoint>
          <Trackpoint>
            <Time>2021-08-03T08:10:09.000Z</Time>
            <Position>
              <LatitudeDegrees>-15.35685963928699493408203125</LatitudeDegrees>
              <LongitudeDegrees>37.08918501622974872589111328125</LongitudeDegrees>
            </Position>
            <AltitudeMeters>1178.5999755859375</AltitudeMeters>
            <DistanceMeters>NAN</DistanceMeters>
          </Trackpoint>
          <Trackpoint>
            <Time>2021-08-03T08:10:13.000Z</Time>
            <Position>
              <LatitudeDegrees>-15.35688579082489013671875</LatitudeDegrees>
              <LongitudeDegrees>37.08914997987449169158935546875</LongitudeDegrees>
            </Position>
            <AltitudeMeters>1177.800048828125</AltitudeMeters>
            <DistanceMeters>NAN</DistanceMeters>
          </Trackpoint>
          <Trackpoint>
            <Time>2021-08-03T08:10:22.000Z</Time>
            <Position>
              <LatitudeDegrees>-15.35695678554475307464599609375</LatitudeDegrees>
              <LongitudeDegrees>37.089052833616733551025390625</LongitudeDegrees>
            </Position>
            <AltitudeMeters>1177.4000244140625</AltitudeMeters>
            <DistanceMeters>NAN</DistanceMeters>
          </Trackpoint>
          <Trackpoint>
            <Time>2021-08-03T08:10:26.000Z</Time>
            <Position>
              <LatitudeDegrees>-15.35698427818715572357177734375</LatitudeDegrees>
              <LongitudeDegrees>37.0890124328434467315673828125</LongitudeDegrees>
            </Position>
            <AltitudeMeters>1177.199951171875</AltitudeMeters>
            <DistanceMeters>NAN</DistanceMeters>
          </Trackpoint>
          <Trackpoint>
            <Time>2021-08-03T08:10:27.000Z</Time>
            <Position>
              <LatitudeDegrees>-15.356992743909358978271484375</LatitudeDegrees>
              <LongitudeDegrees>37.0890030451118946075439453125</LongitudeDegrees>
            </Position>
            <AltitudeMeters>1177</AltitudeMeters>
            <DistanceMeters>NAN</DistanceMeters>
          </Trackpoint>
          <Trackpoint>
            <Time>2021-08-03T08:10:30.000Z</Time>
            <Position>
              <LatitudeDegrees>-15.35701126791536808013916015625</LatitudeDegrees>
              <LongitudeDegrees>37.08896859548985958099365234375</LongitudeDegrees>
            </Position>
            <AltitudeMeters>1176.800048828125</AltitudeMeters>
            <DistanceMeters>NAN</DistanceMeters>
          </Trackpoint>
          <Trackpoint>
            <Time>2021-08-03T08:10:36.000Z</Time>
            <Position>
              <LatitudeDegrees>-15.3570572845637798309326171875</LatitudeDegrees>
              <LongitudeDegrees>37.088912688195705413818359375</LongitudeDegrees>
            </Position>
            <AltitudeMeters>1176.199951171875</AltitudeMeters>
            <DistanceMeters>NAN</DistanceMeters>
          </Trackpoint>
          <Trackpoint>
            <Time>2021-08-03T08:10:38.000Z</Time>
            <Position>
              <LatitudeDegrees>-15.35706927068531513214111328125</LatitudeDegrees>
              <LongitudeDegrees>37.08889332599937915802001953125</LongitudeDegrees>
            </Position>
            <AltitudeMeters>1176</AltitudeMeters>
            <DistanceMeters>NAN</DistanceMeters>
          </Trackpoint>
          <Trackpoint>
            <Time>2021-08-03T08:10:44.000Z</Time>
            <Position>
              <LatitudeDegrees>-15.3571062348783016204833984375</LatitudeDegrees>
              <LongitudeDegrees>37.088830210268497467041015625</LongitudeDegrees>
            </Position>
            <AltitudeMeters>1175.5999755859375</AltitudeMeters>
            <DistanceMeters>NAN</DistanceMeters>
          </Trackpoint>
          <Trackpoint>
            <Time>2021-08-03T08:10:46.000Z</Time>
            <Position>
              <LatitudeDegrees>-15.3571203164756298065185546875</LatitudeDegrees>
              <LongitudeDegrees>37.08881151862442493438720703125</LongitudeDegrees>
            </Position>
            <AltitudeMeters>1175</AltitudeMeters>
            <DistanceMeters>NAN</DistanceMeters>
          </Trackpoint>
          <Trackpoint>
            <Time>2021-08-03T08:10:49.000Z</Time>
            <Position>
              <LatitudeDegrees>-15.3571431152522563934326171875</LatitudeDegrees>
              <LongitudeDegrees>37.08878318779170513153076171875</LongitudeDegrees>
            </Position>
            <AltitudeMeters>1174.5999755859375</AltitudeMeters>
            <DistanceMeters>NAN</DistanceMeters>
          </Trackpoint>
          <Trackpoint>
            <Time>2021-08-03T08:10:55.000Z</Time>
            <Position>
              <LatitudeDegrees>-15.35718686878681182861328125</LatitudeDegrees>
              <LongitudeDegrees>37.088720239698886871337890625</LongitudeDegrees>
            </Position>
            <AltitudeMeters>1173.800048828125</AltitudeMeters>
            <DistanceMeters>NAN</DistanceMeters>
          </Trackpoint>
          <Trackpoint>
            <Time>2021-08-03T08:11:03.000Z</Time>
            <Position>
              <LatitudeDegrees>-15.357247553765773773193359375</LatitudeDegrees>
              <LongitudeDegrees>37.08864773623645305633544921875</LongitudeDegrees>
            </Position>
            <AltitudeMeters>1173.199951171875</AltitudeMeters>
            <DistanceMeters>NAN</DistanceMeters>
          </Trackpoint>
          <Trackpoint>
            <Time>2021-08-03T08:11:09.000Z</Time>
            <Position>
              <LatitudeDegrees>-15.35728937946259975433349609375</LatitudeDegrees>
              <LongitudeDegrees>37.088584788143634796142578125</LongitudeDegrees>
            </Position>
            <AltitudeMeters>1173.199951171875</AltitudeMeters>
            <DistanceMeters>NAN</DistanceMeters>
          </Trackpoint>
          <Trackpoint>
            <Time>2021-08-03T08:11:14.000Z</Time>
            <Position>
              <LatitudeDegrees>-15.35733665339648723602294921875</LatitudeDegrees>
              <LongitudeDegrees>37.08853038959205150604248046875</LongitudeDegrees>
            </Position>
            <AltitudeMeters>1173.199951171875</AltitudeMeters>
            <DistanceMeters>NAN</DistanceMeters>
          </Trackpoint>
          <Trackpoint>
            <Time>2021-08-03T08:11:19.000Z</Time>
            <Position>
              <LatitudeDegrees>-15.35738074220716953277587890625</LatitudeDegrees>
              <LongitudeDegrees>37.08848931826651096343994140625</LongitudeDegrees>
            </Position>
            <AltitudeMeters>1172.5999755859375</AltitudeMeters>
            <DistanceMeters>NAN</DistanceMeters>
          </Trackpoint>
          <Trackpoint>
            <Time>2021-08-03T08:11:26.000Z</Time>
            <Position>
              <LatitudeDegrees>-15.3574488870799541473388671875</LatitudeDegrees>
              <LongitudeDegrees>37.0884347520768642425537109375</LongitudeDegrees>
            </Position>
            <AltitudeMeters>1172</AltitudeMeters>
            <DistanceMeters>NAN</DistanceMeters>
          </Trackpoint>
          <Trackpoint>
            <Time>2021-08-03T08:11:32.000Z</Time>
            <Position>
              <LatitudeDegrees>-15.35751149989664554595947265625</LatitudeDegrees>
              <LongitudeDegrees>37.0883965305984020233154296875</LongitudeDegrees>
            </Position>
            <AltitudeMeters>1171.800048828125</AltitudeMeters>
            <DistanceMeters>NAN</DistanceMeters>
          </Trackpoint>
          <Trackpoint>
            <Time>2021-08-03T08:11:34.000Z</Time>
            <Position>
              <LatitudeDegrees>-15.35753413103520870208740234375</LatitudeDegrees>
              <LongitudeDegrees>37.08838689140975475311279296875</LongitudeDegrees>
            </Position>
            <AltitudeMeters>1171.4000244140625</AltitudeMeters>
            <DistanceMeters>NAN</DistanceMeters>
          </Trackpoint>
          <Trackpoint>
            <Time>2021-08-03T08:11:37.000Z</Time>
            <Position>
              <LatitudeDegrees>-15.35756665281951427459716796875</LatitudeDegrees>
              <LongitudeDegrees>37.08837188780307769775390625</LongitudeDegrees>
            </Position>
            <AltitudeMeters>1171.199951171875</AltitudeMeters>
            <DistanceMeters>NAN</DistanceMeters>
          </Trackpoint>
          <Trackpoint>
            <Time>2021-08-03T08:11:44.000Z</Time>
            <Position>
              <LatitudeDegrees>-15.357647873461246490478515625</LatitudeDegrees>
              <LongitudeDegrees>37.08835906349122524261474609375</LongitudeDegrees>
            </Position>
            <AltitudeMeters>1170.199951171875</AltitudeMeters>
            <DistanceMeters>NAN</DistanceMeters>
          </Trackpoint>
          <Trackpoint>
            <Time>2021-08-03T08:11:47.000Z</Time>
            <Position>
              <LatitudeDegrees>-15.35768265835940837860107421875</LatitudeDegrees>
              <LongitudeDegrees>37.08835252560675144195556640625</LongitudeDegrees>
            </Position>
            <AltitudeMeters>1169.800048828125</AltitudeMeters>
            <DistanceMeters>NAN</DistanceMeters>
          </Trackpoint>
          <Trackpoint>
            <Time>2021-08-03T08:11:49.000Z</Time>
            <Position>
              <LatitudeDegrees>-15.3577033616602420806884765625</LatitudeDegrees>
              <LongitudeDegrees>37.08835151977837085723876953125</LongitudeDegrees>
            </Position>
            <AltitudeMeters>1169.5999755859375</AltitudeMeters>
            <DistanceMeters>NAN</DistanceMeters>
          </Trackpoint>
          <Trackpoint>
            <Time>2021-08-03T08:11:54.000Z</Time>
            <Position>
              <LatitudeDegrees>-15.35776563920080661773681640625</LatitudeDegrees>
              <LongitudeDegrees>37.08834699355065822601318359375</LongitudeDegrees>
            </Position>
            <AltitudeMeters>1169.5999755859375</AltitudeMeters>
            <DistanceMeters>NAN</DistanceMeters>
          </Trackpoint>
          <Trackpoint>
            <Time>2021-08-03T08:11:56.000Z</Time>
            <Position>
              <LatitudeDegrees>-15.357785336673259735107421875</LatitudeDegrees>
              <LongitudeDegrees>37.08834699355065822601318359375</LongitudeDegrees>
            </Position>
            <AltitudeMeters>1169.5999755859375</AltitudeMeters>
            <DistanceMeters>NAN</DistanceMeters>
          </Trackpoint>
          <Trackpoint>
            <Time>2021-08-03T08:11:58.000Z</Time>
            <Position>
              <LatitudeDegrees>-15.3578015975654125213623046875</LatitudeDegrees>
              <LongitudeDegrees>37.0883435569703578948974609375</LongitudeDegrees>
            </Position>
            <AltitudeMeters>1169.4000244140625</AltitudeMeters>
            <DistanceMeters>NAN</DistanceMeters>
          </Trackpoint>
          <Trackpoint>
            <Time>2021-08-03T08:11:59.000Z</Time>
            <Position>
              <LatitudeDegrees>-15.3578140027821063995361328125</LatitudeDegrees>
              <LongitudeDegrees>37.0883445627987384796142578125</LongitudeDegrees>
            </Position>
            <AltitudeMeters>1169.4000244140625</AltitudeMeters>
            <DistanceMeters>NAN</DistanceMeters>
          </Trackpoint>
          <Trackpoint>
            <Time>2021-08-03T08:12:04.000Z</Time>
            <Position>
              <LatitudeDegrees>-15.3578699938952922821044921875</LatitudeDegrees>
              <LongitudeDegrees>37.08835638128221035003662109375</LongitudeDegrees>
            </Position>
            <AltitudeMeters>1169</AltitudeMeters>
            <DistanceMeters>NAN</DistanceMeters>
          </Trackpoint>
          <Trackpoint>
            <Time>2021-08-03T08:12:08.000Z</Time>
            <Position>
              <LatitudeDegrees>-15.35790427587926387786865234375</LatitudeDegrees>
              <LongitudeDegrees>37.0883687026798725128173828125</LongitudeDegrees>
            </Position>
            <AltitudeMeters>1169</AltitudeMeters>
            <DistanceMeters>NAN</DistanceMeters>
          </Trackpoint>
          <Trackpoint>
            <Time>2021-08-03T08:12:17.000Z</Time>
            <Position>
              <LatitudeDegrees>-15.35802313126623630523681640625</LatitudeDegrees>
              <LongitudeDegrees>37.08836677484214305877685546875</LongitudeDegrees>
            </Position>
            <AltitudeMeters>1168</AltitudeMeters>
            <DistanceMeters>NAN</DistanceMeters>
          </Trackpoint>
          <Trackpoint>
            <Time>2021-08-03T08:12:26.000Z</Time>
            <Position>
              <LatitudeDegrees>-15.35813561640679836273193359375</LatitudeDegrees>
              <LongitudeDegrees>37.08837180398404598236083984375</LongitudeDegrees>
            </Position>
            <AltitudeMeters>1168</AltitudeMeters>
            <DistanceMeters>NAN</DistanceMeters>
          </Trackpoint>
          <Trackpoint>
            <Time>2021-08-03T08:12:27.000Z</Time>
            <Position>
              <LatitudeDegrees>-15.35814466886222362518310546875</LatitudeDegrees>
              <LongitudeDegrees>37.0883750729262828826904296875</LongitudeDegrees>
            </Position>
            <AltitudeMeters>1168</AltitudeMeters>
            <DistanceMeters>NAN</DistanceMeters>
          </Trackpoint>
          <Trackpoint>
            <Time>2021-08-03T08:12:33.000Z</Time>
            <Position>
              <LatitudeDegrees>-15.3582203574478626251220703125</LatitudeDegrees>
              <LongitudeDegrees>37.088401727378368377685546875</LongitudeDegrees>
            </Position>
            <AltitudeMeters>1168.4000244140625</AltitudeMeters>
            <DistanceMeters>NAN</DistanceMeters>
          </Trackpoint>
          <Trackpoint>
            <Time>2021-08-03T08:12:35.000Z</Time>
            <Position>
              <LatitudeDegrees>-15.3582255542278289794921875</LatitudeDegrees>
              <LongitudeDegrees>37.08840005099773406982421875</LongitudeDegrees>
            </Position>
            <AltitudeMeters>1168.4000244140625</AltitudeMeters>
            <DistanceMeters>NAN</DistanceMeters>
          </Trackpoint>
          <Trackpoint>
            <Time>2021-08-03T08:12:52.000Z</Time>
            <Position>
              <LatitudeDegrees>-15.35822764970362186431884765625</LatitudeDegrees>
              <LongitudeDegrees>37.08839208818972110748291015625</LongitudeDegrees>
            </Position>
            <AltitudeMeters>1168</AltitudeMeters>
            <DistanceMeters>NAN</DistanceMeters>
          </Trackpoint>
          <Trackpoint>
            <Time>2021-08-03T08:12:54.000Z</Time>
            <Position>
              <LatitudeDegrees>-15.35824659280478954315185546875</LatitudeDegrees>
              <LongitudeDegrees>37.0884008891880512237548828125</LongitudeDegrees>
            </Position>
            <AltitudeMeters>1168</AltitudeMeters>
            <DistanceMeters>NAN</DistanceMeters>
          </Trackpoint>
          <Trackpoint>
            <Time>2021-08-03T08:12:56.000Z</Time>
            <Position>
              <LatitudeDegrees>-15.35827542655169963836669921875</LatitudeDegrees>
              <LongitudeDegrees>37.08841438405215740203857421875</LongitudeDegrees>
            </Position>
            <AltitudeMeters>1167.800048828125</AltitudeMeters>
            <DistanceMeters>NAN</DistanceMeters>
          </Trackpoint>
          <Trackpoint>
            <Time>2021-08-03T08:12:57.000Z</Time>
            <Position>
              <LatitudeDegrees>-15.35829118452966213226318359375</LatitudeDegrees>
              <LongitudeDegrees>37.0884216763079166412353515625</LongitudeDegrees>
            </Position>
            <AltitudeMeters>1167.5999755859375</AltitudeMeters>
            <DistanceMeters>NAN</DistanceMeters>
          </Trackpoint>
          <Trackpoint>
            <Time>2021-08-03T08:13:06.000Z</Time>
            <Position>
              <LatitudeDegrees>-15.35840702243149280548095703125</LatitudeDegrees>
              <LongitudeDegrees>37.08845143206417560577392578125</LongitudeDegrees>
            </Position>
            <AltitudeMeters>1166.800048828125</AltitudeMeters>
            <DistanceMeters>NAN</DistanceMeters>
          </Trackpoint>
          <Trackpoint>
            <Time>2021-08-03T08:13:07.000Z</Time>
            <Position>
              <LatitudeDegrees>-15.35841934382915496826171875</LatitudeDegrees>
              <LongitudeDegrees>37.08845629356801509857177734375</LongitudeDegrees>
            </Position>
            <AltitudeMeters>1166.800048828125</AltitudeMeters>
            <DistanceMeters>NAN</DistanceMeters>
          </Trackpoint>
          <Trackpoint>
            <Time>2021-08-03T08:13:17.000Z</Time>
            <Position>
              <LatitudeDegrees>-15.35853543318808078765869140625</LatitudeDegrees>
              <LongitudeDegrees>37.0884852111339569091796875</LongitudeDegrees>
            </Position>
            <AltitudeMeters>1166.199951171875</AltitudeMeters>
            <DistanceMeters>NAN</DistanceMeters>
          </Trackpoint>
          <Trackpoint>
            <Time>2021-08-03T08:13:20.000Z</Time>
            <Position>
              <LatitudeDegrees>-15.3585760854184627532958984375</LatitudeDegrees>
              <LongitudeDegrees>37.08848579786717891693115234375</LongitudeDegrees>
            </Position>
            <AltitudeMeters>1166.199951171875</AltitudeMeters>
            <DistanceMeters>NAN</DistanceMeters>
          </Trackpoint>
          <Trackpoint>
            <Time>2021-08-03T08:13:23.000Z</Time>
            <Position>
              <LatitudeDegrees>-15.358615815639495849609375</LatitudeDegrees>
              <LongitudeDegrees>37.0884934253990650177001953125</LongitudeDegrees>
            </Position>
            <AltitudeMeters>1166.199951171875</AltitudeMeters>
            <DistanceMeters>NAN</DistanceMeters>
          </Trackpoint>
          <Trackpoint>
            <Time>2021-08-03T08:13:29.000Z</Time>
            <Position>
              <LatitudeDegrees>-15.35868982784450054168701171875</LatitudeDegrees>
              <LongitudeDegrees>37.08850222639739513397216796875</LongitudeDegrees>
            </Position>
            <AltitudeMeters>1165.5999755859375</AltitudeMeters>
            <DistanceMeters>NAN</DistanceMeters>
          </Trackpoint>
          <Trackpoint>
            <Time>2021-08-03T08:13:36.000Z</Time>
            <Position>
              <LatitudeDegrees>-15.3587665222585201263427734375</LatitudeDegrees>
              <LongitudeDegrees>37.08851538598537445068359375</LongitudeDegrees>
            </Position>
            <AltitudeMeters>1164.4000244140625</AltitudeMeters>
            <DistanceMeters>NAN</DistanceMeters>
          </Trackpoint>
          <Trackpoint>
            <Time>2021-08-03T08:13:38.000Z</Time>
            <Position>
              <LatitudeDegrees>-15.358786471188068389892578125</LatitudeDegrees>
              <LongitudeDegrees>37.0885115303099155426025390625</LongitudeDegrees>
            </Position>
            <AltitudeMeters>1164</AltitudeMeters>
            <DistanceMeters>NAN</DistanceMeters>
          </Trackpoint>
          <Trackpoint>
            <Time>2021-08-03T08:13:45.000Z</Time>
            <Position>
              <LatitudeDegrees>-15.35884916782379150390625</LatitudeDegrees>
              <LongitudeDegrees>37.08847439847886562347412109375</LongitudeDegrees>
            </Position>
            <AltitudeMeters>1163.800048828125</AltitudeMeters>
            <DistanceMeters>NAN</DistanceMeters>
          </Trackpoint>
          <Trackpoint>
            <Time>2021-08-03T08:13:48.000Z</Time>
            <Position>
              <LatitudeDegrees>-15.3588768281042575836181640625</LatitudeDegrees>
              <LongitudeDegrees>37.088470123708248138427734375</LongitudeDegrees>
            </Position>
            <AltitudeMeters>1163</AltitudeMeters>
            <DistanceMeters>NAN</DistanceMeters>
          </Trackpoint>
          <Trackpoint>
            <Time>2021-08-03T08:13:52.000Z</Time>
            <Position>
              <LatitudeDegrees>-15.3589173965156078338623046875</LatitudeDegrees>
              <LongitudeDegrees>37.08847322501242160797119140625</LongitudeDegrees>
            </Position>
            <AltitudeMeters>1162.4000244140625</AltitudeMeters>
            <DistanceMeters>NAN</DistanceMeters>
          </Trackpoint>
          <Trackpoint>
            <Time>2021-08-03T08:13:55.000Z</Time>
            <Position>
              <LatitudeDegrees>-15.3589390218257904052734375</LatitudeDegrees>
              <LongitudeDegrees>37.08845637738704681396484375</LongitudeDegrees>
            </Position>
            <AltitudeMeters>1162</AltitudeMeters>
            <DistanceMeters>NAN</DistanceMeters>
          </Trackpoint>
          <Trackpoint>
            <Time>2021-08-03T08:13:57.000Z</Time>
            <Position>
              <LatitudeDegrees>-15.3589549474418163299560546875</LatitudeDegrees>
              <LongitudeDegrees>37.08844405598938465118408203125</LongitudeDegrees>
            </Position>
            <AltitudeMeters>1161</AltitudeMeters>
            <DistanceMeters>NAN</DistanceMeters>
          </Trackpoint>
          <Trackpoint>
            <Time>2021-08-03T08:14:00.000Z</Time>
            <Position>
              <LatitudeDegrees>-15.35898126661777496337890625</LatitudeDegrees>
              <LongitudeDegrees>37.08843098022043704986572265625</LongitudeDegrees>
            </Position>
            <AltitudeMeters>1160.199951171875</AltitudeMeters>
            <DistanceMeters>NAN</DistanceMeters>
          </Trackpoint>
          <Trackpoint>
            <Time>2021-08-03T08:14:01.000Z</Time>
            <Position>
              <LatitudeDegrees>-15.35899207927286624908447265625</LatitudeDegrees>
              <LongitudeDegrees>37.08843030966818332672119140625</LongitudeDegrees>
            </Position>
            <AltitudeMeters>1159.800048828125</AltitudeMeters>
            <DistanceMeters>NAN</DistanceMeters>
          </Trackpoint>
          <Trackpoint>
            <Time>2021-08-03T08:14:05.000Z</Time>
            <Position>
              <LatitudeDegrees>-15.3590186499059200286865234375</LatitudeDegrees>
              <LongitudeDegrees>37.08844271488487720489501953125</LongitudeDegrees>
            </Position>
            <AltitudeMeters>1158.800048828125</AltitudeMeters>
            <DistanceMeters>NAN</DistanceMeters>
          </Trackpoint>
          <Trackpoint>
            <Time>2021-08-03T08:14:07.000Z</Time>
            <Position>
              <LatitudeDegrees>-15.3590277023613452911376953125</LatitudeDegrees>
              <LongitudeDegrees>37.08845612592995166778564453125</LongitudeDegrees>
            </Position>
            <AltitudeMeters>1158.5999755859375</AltitudeMeters>
            <DistanceMeters>NAN</DistanceMeters>
          </Trackpoint>
          <Trackpoint>
            <Time>2021-08-03T08:14:11.000Z</Time>
            <Position>
              <LatitudeDegrees>-15.35906919278204441070556640625</LatitudeDegrees>
              <LongitudeDegrees>37.0884598977863788604736328125</LongitudeDegrees>
            </Position>
            <AltitudeMeters>1157.800048828125</AltitudeMeters>
            <DistanceMeters>NAN</DistanceMeters>
          </Trackpoint>
          <Trackpoint>
            <Time>2021-08-03T08:14:13.000Z</Time>
            <Position>
              <LatitudeDegrees>-15.35908813588321208953857421875</LatitudeDegrees>
              <LongitudeDegrees>37.08845713175833225250244140625</LongitudeDegrees>
            </Position>
            <AltitudeMeters>1156.5999755859375</AltitudeMeters>
            <DistanceMeters>NAN</DistanceMeters>
          </Trackpoint>
          <Trackpoint>
            <Time>2021-08-03T08:14:14.000Z</Time>
            <Position>
              <LatitudeDegrees>-15.3590947575867176055908203125</LatitudeDegrees>
              <LongitudeDegrees>37.0884528569877147674560546875</LongitudeDegrees>
            </Position>
            <AltitudeMeters>1156.5999755859375</AltitudeMeters>
            <DistanceMeters>NAN</DistanceMeters>
          </Trackpoint>
          <Trackpoint>
            <Time>2021-08-03T08:14:18.000Z</Time>
            <Position>
              <LatitudeDegrees>-15.35912149585783481597900390625</LatitudeDegrees>
              <LongitudeDegrees>37.0884280465543270111083984375</LongitudeDegrees>
            </Position>
            <AltitudeMeters>1155.5999755859375</AltitudeMeters>
            <DistanceMeters>NAN</DistanceMeters>
          </Trackpoint>
          <Trackpoint>
            <Time>2021-08-03T08:14:22.000Z</Time>
            <Position>
              <LatitudeDegrees>-15.35913943313062191009521484375</LatitudeDegrees>
              <LongitudeDegrees>37.0884062536060810089111328125</LongitudeDegrees>
            </Position>
            <AltitudeMeters>1154.4000244140625</AltitudeMeters>
            <DistanceMeters>NAN</DistanceMeters>
          </Trackpoint>
          <Trackpoint>
            <Time>2021-08-03T08:14:23.000Z</Time>
            <Position>
              <LatitudeDegrees>-15.35914530046284198760986328125</LatitudeDegrees>
              <LongitudeDegrees>37.088398039340972900390625</LongitudeDegrees>
            </Position>
            <AltitudeMeters>1154.199951171875</AltitudeMeters>
            <DistanceMeters>NAN</DistanceMeters>
          </Trackpoint>
          <Trackpoint>
            <Time>2021-08-03T08:14:26.000Z</Time>
            <Position>
              <LatitudeDegrees>-15.35917438566684722900390625</LatitudeDegrees>
              <LongitudeDegrees>37.088386304676532745361328125</LongitudeDegrees>
            </Position>
            <AltitudeMeters>1153.199951171875</AltitudeMeters>
            <DistanceMeters>NAN</DistanceMeters>
          </Trackpoint>
          <Trackpoint>
            <Time>2021-08-03T08:14:29.000Z</Time>
            <Position>
              <LatitudeDegrees>-15.35920497961342334747314453125</LatitudeDegrees>
              <LongitudeDegrees>37.0883767493069171905517578125</LongitudeDegrees>
            </Position>
            <AltitudeMeters>1152.800048828125</AltitudeMeters>
            <DistanceMeters>NAN</DistanceMeters>
          </Trackpoint>
          <Trackpoint>
            <Time>2021-08-03T08:14:30.000Z</Time>
            <Position>
              <LatitudeDegrees>-15.35921059548854827880859375</LatitudeDegrees>
              <LongitudeDegrees>37.08837079815566539764404296875</LongitudeDegrees>
            </Position>
            <AltitudeMeters>1152.199951171875</AltitudeMeters>
            <DistanceMeters>NAN</DistanceMeters>
          </Trackpoint>
          <Trackpoint>
            <Time>2021-08-03T08:14:31.000Z</Time>
            <Position>
              <LatitudeDegrees>-15.35921637900173664093017578125</LatitudeDegrees>
              <LongitudeDegrees>37.088364847004413604736328125</LongitudeDegrees>
            </Position>
            <AltitudeMeters>1150.800048828125</AltitudeMeters>
            <DistanceMeters>NAN</DistanceMeters>
          </Trackpoint>
          <Trackpoint>
            <Time>2021-08-03T08:14:38.000Z</Time>
            <Position>
              <LatitudeDegrees>-15.3592563606798648834228515625</LatitudeDegrees>
              <LongitudeDegrees>37.08832763135433197021484375</LongitudeDegrees>
            </Position>
            <AltitudeMeters>1149.5999755859375</AltitudeMeters>
            <DistanceMeters>NAN</DistanceMeters>
          </Trackpoint>
          <Trackpoint>
            <Time>2021-08-03T08:14:40.000Z</Time>
            <Position>
              <LatitudeDegrees>-15.359268598258495330810546875</LatitudeDegrees>
              <LongitudeDegrees>37.08832201547920703887939453125</LongitudeDegrees>
            </Position>
            <AltitudeMeters>1148.4000244140625</AltitudeMeters>
            <DistanceMeters>NAN</DistanceMeters>
          </Trackpoint>
          <Trackpoint>
            <Time>2021-08-03T08:14:43.000Z</Time>
            <Position>
              <LatitudeDegrees>-15.35929667763411998748779296875</LatitudeDegrees>
              <LongitudeDegrees>37.08831824362277984619140625</LongitudeDegrees>
            </Position>
            <AltitudeMeters>1148.4000244140625</AltitudeMeters>
            <DistanceMeters>NAN</DistanceMeters>
          </Trackpoint>
          <Trackpoint>
            <Time>2021-08-03T08:14:45.000Z</Time>
            <Position>
              <LatitudeDegrees>-15.35931813530623912811279296875</LatitudeDegrees>
              <LongitudeDegrees>37.08831296302378177642822265625</LongitudeDegrees>
            </Position>
            <AltitudeMeters>1148.199951171875</AltitudeMeters>
            <DistanceMeters>NAN</DistanceMeters>
          </Trackpoint>
          <Trackpoint>
            <Time>2021-08-03T08:14:50.000Z</Time>
            <Position>
              <LatitudeDegrees>-15.3593777306377887725830078125</LatitudeDegrees>
              <LongitudeDegrees>37.08831162191927433013916015625</LongitudeDegrees>
            </Position>
            <AltitudeMeters>1147.4000244140625</AltitudeMeters>
            <DistanceMeters>NAN</DistanceMeters>
          </Trackpoint>
          <Trackpoint>
            <Time>2021-08-03T08:14:52.000Z</Time>
            <Position>
              <LatitudeDegrees>-15.3594035468995571136474609375</LatitudeDegrees>
              <LongitudeDegrees>37.088306508958339691162109375</LongitudeDegrees>
            </Position>
            <AltitudeMeters>1146.800048828125</AltitudeMeters>
            <DistanceMeters>NAN</DistanceMeters>
          </Trackpoint>
          <Trackpoint>
            <Time>2021-08-03T08:14:53.000Z</Time>
            <Position>
              <LatitudeDegrees>-15.3594176284968852996826171875</LatitudeDegrees>
              <LongitudeDegrees>37.088303156197071075439453125</LongitudeDegrees>
            </Position>
            <AltitudeMeters>1146.5999755859375</AltitudeMeters>
            <DistanceMeters>NAN</DistanceMeters>
          </Trackpoint>
          <Trackpoint>
            <Time>2021-08-03T08:14:56.000Z</Time>
            <Position>
              <LatitudeDegrees>-15.3594566881656646728515625</LatitudeDegrees>
              <LongitudeDegrees>37.08828614093363285064697265625</LongitudeDegrees>
            </Position>
            <AltitudeMeters>1146</AltitudeMeters>
            <DistanceMeters>NAN</DistanceMeters>
          </Trackpoint>
          <Trackpoint>
            <Time>2021-08-03T08:14:59.000Z</Time>
            <Position>
              <LatitudeDegrees>-15.3594967536628246307373046875</LatitudeDegrees>
              <LongitudeDegrees>37.08826954476535320281982421875</LongitudeDegrees>
            </Position>
            <AltitudeMeters>1145.5999755859375</AltitudeMeters>
            <DistanceMeters>NAN</DistanceMeters>
          </Trackpoint>
          <Trackpoint>
            <Time>2021-08-03T08:15:04.000Z</Time>
            <Position>
              <LatitudeDegrees>-15.3595477156341075897216796875</LatitudeDegrees>
              <LongitudeDegrees>37.0882604084908962249755859375</LongitudeDegrees>
            </Position>
            <AltitudeMeters>1145</AltitudeMeters>
            <DistanceMeters>NAN</DistanceMeters>
          </Trackpoint>
          <Trackpoint>
            <Time>2021-08-03T08:15:07.000Z</Time>
            <Position>
              <LatitudeDegrees>-15.35958182998001575469970703125</LatitudeDegrees>
              <LongitudeDegrees>37.08824490197002887725830078125</LongitudeDegrees>
            </Position>
            <AltitudeMeters>1144.800048828125</AltitudeMeters>
            <DistanceMeters>NAN</DistanceMeters>
          </Trackpoint>
          <Trackpoint>
            <Time>2021-08-03T08:15:14.000Z</Time>
            <Position>
              <LatitudeDegrees>-15.3596551716327667236328125</LatitudeDegrees>
              <LongitudeDegrees>37.08822780288755893707275390625</LongitudeDegrees>
            </Position>
            <AltitudeMeters>1144.4000244140625</AltitudeMeters>
            <DistanceMeters>NAN</DistanceMeters>
          </Trackpoint>
          <Trackpoint>
            <Time>2021-08-03T08:15:15.000Z</Time>
            <Position>
              <LatitudeDegrees>-15.35966078750789165496826171875</LatitudeDegrees>
              <LongitudeDegrees>37.088231742382049560546875</LongitudeDegrees>
            </Position>
            <AltitudeMeters>1144.199951171875</AltitudeMeters>
            <DistanceMeters>NAN</DistanceMeters>
          </Trackpoint>
          <Trackpoint>
            <Time>2021-08-03T08:15:16.000Z</Time>
            <Position>
              <LatitudeDegrees>-15.35966212861239910125732421875</LatitudeDegrees>
              <LongitudeDegrees>37.0882362686097621917724609375</LongitudeDegrees>
            </Position>
            <AltitudeMeters>1143.800048828125</AltitudeMeters>
            <DistanceMeters>NAN</DistanceMeters>
          </Trackpoint>
          <Trackpoint>
            <Time>2021-08-03T08:15:19.000Z</Time>
            <Position>
              <LatitudeDegrees>-15.3596794791519641876220703125</LatitudeDegrees>
              <LongitudeDegrees>37.08824875764548778533935546875</LongitudeDegrees>
            </Position>
            <AltitudeMeters>1143</AltitudeMeters>
            <DistanceMeters>NAN</DistanceMeters>
          </Trackpoint>
          <Trackpoint>
            <Time>2021-08-03T08:15:20.000Z</Time>
            <Position>
              <LatitudeDegrees>-15.35968693904578685760498046875</LatitudeDegrees>
              <LongitudeDegrees>37.0882520265877246856689453125</LongitudeDegrees>
            </Position>
            <AltitudeMeters>1142.800048828125</AltitudeMeters>
            <DistanceMeters>NAN</DistanceMeters>
          </Trackpoint>
          <Trackpoint>
            <Time>2021-08-03T08:15:22.000Z</Time>
            <Position>
              <LatitudeDegrees>-15.35971309058368206024169921875</LatitudeDegrees>
              <LongitudeDegrees>37.08826350979506969451904296875</LongitudeDegrees>
            </Position>
            <AltitudeMeters>1142.5999755859375</AltitudeMeters>
            <DistanceMeters>NAN</DistanceMeters>
          </Trackpoint>
          <Trackpoint>
            <Time>2021-08-03T08:15:26.000Z</Time>
            <Position>
              <LatitudeDegrees>-15.35975282080471515655517578125</LatitudeDegrees>
              <LongitudeDegrees>37.08826233632862567901611328125</LongitudeDegrees>
            </Position>
            <AltitudeMeters>1142.4000244140625</AltitudeMeters>
            <DistanceMeters>NAN</DistanceMeters>
          </Trackpoint>
          <Trackpoint>
            <Time>2021-08-03T08:15:33.000Z</Time>
            <Position>
              <LatitudeDegrees>-15.3597865998744964599609375</LatitudeDegrees>
              <LongitudeDegrees>37.0882288925349712371826171875</LongitudeDegrees>
            </Position>
            <AltitudeMeters>1142</AltitudeMeters>
            <DistanceMeters>NAN</DistanceMeters>
          </Trackpoint>
          <Trackpoint>
            <Time>2021-08-03T08:15:40.000Z</Time>
            <Position>
              <LatitudeDegrees>-15.3598308563232421875</LatitudeDegrees>
              <LongitudeDegrees>37.08822914399206638336181640625</LongitudeDegrees>
            </Position>
            <AltitudeMeters>1142.4000244140625</AltitudeMeters>
            <DistanceMeters>NAN</DistanceMeters>
          </Trackpoint>
          <Trackpoint>
            <Time>2021-08-03T08:15:45.000Z</Time>
            <Position>
              <LatitudeDegrees>-15.35982348024845123291015625</LatitudeDegrees>
              <LongitudeDegrees>37.08825378678739070892333984375</LongitudeDegrees>
            </Position>
            <AltitudeMeters>1142.5999755859375</AltitudeMeters>
            <DistanceMeters>NAN</DistanceMeters>
          </Trackpoint>
          <Trackpoint>
            <Time>2021-08-03T08:15:46.000Z</Time>
            <Position>
              <LatitudeDegrees>-15.359822474420070648193359375</LatitudeDegrees>
              <LongitudeDegrees>37.08825227804481983184814453125</LongitudeDegrees>
            </Position>
            <AltitudeMeters>1142.5999755859375</AltitudeMeters>
            <DistanceMeters>NAN</DistanceMeters>
          </Trackpoint>
          <Trackpoint>
            <Time>2021-08-03T08:15:54.000Z</Time>
            <Position>
              <LatitudeDegrees>-15.3598565049469470977783203125</LatitudeDegrees>
              <LongitudeDegrees>37.0882513560354709625244140625</LongitudeDegrees>
            </Position>
            <AltitudeMeters>1142.5999755859375</AltitudeMeters>
            <DistanceMeters>NAN</DistanceMeters>
          </Trackpoint>
          <Trackpoint>
            <Time>2021-08-03T08:16:12.000Z</Time>
            <Position>
              <LatitudeDegrees>-15.359853990375995635986328125</LatitudeDegrees>
              <LongitudeDegrees>37.08825713954865932464599609375</LongitudeDegrees>
            </Position>
            <AltitudeMeters>1143.199951171875</AltitudeMeters>
            <DistanceMeters>NAN</DistanceMeters>
          </Trackpoint>
          <Trackpoint>
            <Time>2021-08-03T08:16:15.000Z</Time>
            <Position>
              <LatitudeDegrees>-15.3598509728908538818359375</LatitudeDegrees>
              <LongitudeDegrees>37.08825915120542049407958984375</LongitudeDegrees>
            </Position>
            <AltitudeMeters>1142.5999755859375</AltitudeMeters>
            <DistanceMeters>NAN</DistanceMeters>
          </Trackpoint>
          <Trackpoint>
            <Time>2021-08-03T08:16:21.000Z</Time>
            <Position>
              <LatitudeDegrees>-15.359844602644443511962890625</LatitudeDegrees>
              <LongitudeDegrees>37.08826736547052860260009765625</LongitudeDegrees>
            </Position>
            <AltitudeMeters>1143.4000244140625</AltitudeMeters>
            <DistanceMeters>NAN</DistanceMeters>
          </Trackpoint>
          <Trackpoint>
            <Time>2021-08-03T08:16:28.000Z</Time>
            <Position>
              <LatitudeDegrees>-15.35983580164611339569091796875</LatitudeDegrees>
              <LongitudeDegrees>37.0882711373269557952880859375</LongitudeDegrees>
            </Position>
            <AltitudeMeters>1143.4000244140625</AltitudeMeters>
            <DistanceMeters>NAN</DistanceMeters>
          </Trackpoint>
          <Trackpoint>
            <Time>2021-08-03T08:16:35.000Z</Time>
            <Position>
              <LatitudeDegrees>-15.35983152687549591064453125</LatitudeDegrees>
              <LongitudeDegrees>37.08827130496501922607421875</LongitudeDegrees>
            </Position>
            <AltitudeMeters>1143.4000244140625</AltitudeMeters>
            <DistanceMeters>NAN</DistanceMeters>
          </Trackpoint>
          <Trackpoint>
            <Time>2021-08-03T08:16:48.000Z</Time>
            <Position>
              <LatitudeDegrees>-15.35980260930955410003662109375</LatitudeDegrees>
              <LongitudeDegrees>37.08827172406017780303955078125</LongitudeDegrees>
            </Position>
            <AltitudeMeters>1143.5999755859375</AltitudeMeters>
            <DistanceMeters>NAN</DistanceMeters>
          </Trackpoint>
          <Trackpoint>
            <Time>2021-08-03T08:16:59.000Z</Time>
            <Position>
              <LatitudeDegrees>-15.35979774780571460723876953125</LatitudeDegrees>
              <LongitudeDegrees>37.0882714726030826568603515625</LongitudeDegrees>
            </Position>
            <AltitudeMeters>1143.4000244140625</AltitudeMeters>
            <DistanceMeters>NAN</DistanceMeters>
          </Trackpoint>
          <Trackpoint>
            <Time>2021-08-03T08:17:20.000Z</Time>
            <Position>
              <LatitudeDegrees>-15.359777547419071197509765625</LatitudeDegrees>
              <LongitudeDegrees>37.08827222697436809539794921875</LongitudeDegrees>
            </Position>
            <AltitudeMeters>1143.199951171875</AltitudeMeters>
            <DistanceMeters>NAN</DistanceMeters>
          </Trackpoint>
          <Trackpoint>
            <Time>2021-08-03T08:17:46.000Z</Time>
            <Position>
              <LatitudeDegrees>-15.35978333093225955963134765625</LatitudeDegrees>
              <LongitudeDegrees>37.08827172406017780303955078125</LongitudeDegrees>
            </Position>
            <AltitudeMeters>1143.199951171875</AltitudeMeters>
            <DistanceMeters>NAN</DistanceMeters>
          </Trackpoint>
          <Trackpoint>
            <Time>2021-08-03T08:17:52.000Z</Time>
            <Position>
              <LatitudeDegrees>-15.3597874380648136138916015625</LatitudeDegrees>
              <LongitudeDegrees>37.088270969688892364501953125</LongitudeDegrees>
            </Position>
            <AltitudeMeters>1143.199951171875</AltitudeMeters>
            <DistanceMeters>NAN</DistanceMeters>
          </Trackpoint>
          <Trackpoint>
            <Time>2021-08-03T08:17:55.000Z</Time>
            <Position>
              <LatitudeDegrees>-15.35979942418634891510009765625</LatitudeDegrees>
              <LongitudeDegrees>37.0882701314985752105712890625</LongitudeDegrees>
            </Position>
            <AltitudeMeters>1143.199951171875</AltitudeMeters>
            <DistanceMeters>NAN</DistanceMeters>
          </Trackpoint>
          <Trackpoint>
            <Time>2021-08-03T08:17:56.000Z</Time>
            <Position>
              <LatitudeDegrees>-15.35981476306915283203125</LatitudeDegrees>
              <LongitudeDegrees>37.088266946375370025634765625</LongitudeDegrees>
            </Position>
            <AltitudeMeters>1143.199951171875</AltitudeMeters>
            <DistanceMeters>NAN</DistanceMeters>
          </Trackpoint>
          <Trackpoint>
            <Time>2021-08-03T08:17:59.000Z</Time>
            <Position>
              <LatitudeDegrees>-15.35988961346447467803955078125</LatitudeDegrees>
              <LongitudeDegrees>37.088253200054168701171875</LongitudeDegrees>
            </Position>
            <AltitudeMeters>1143.199951171875</AltitudeMeters>
            <DistanceMeters>NAN</DistanceMeters>
          </Trackpoint>
          <Trackpoint>
            <Time>2021-08-03T08:18:04.000Z</Time>
            <Position>
              <LatitudeDegrees>-15.360034368932247161865234375</LatitudeDegrees>
              <LongitudeDegrees>37.08824892528355121612548828125</LongitudeDegrees>
            </Position>
            <AltitudeMeters>1144.199951171875</AltitudeMeters>
            <DistanceMeters>NAN</DistanceMeters>
          </Trackpoint>
          <Trackpoint>
            <Time>2021-08-03T08:18:07.000Z</Time>
            <Position>
              <LatitudeDegrees>-15.36008776165544986724853515625</LatitudeDegrees>
              <LongitudeDegrees>37.0882610790431499481201171875</LongitudeDegrees>
            </Position>
            <AltitudeMeters>1144.5999755859375</AltitudeMeters>
            <DistanceMeters>NAN</DistanceMeters>
          </Trackpoint>
          <Trackpoint>
            <Time>2021-08-03T08:18:16.000Z</Time>
            <Position>
              <LatitudeDegrees>-15.360199324786663055419921875</LatitudeDegrees>
              <LongitudeDegrees>37.08829066716134548187255859375</LongitudeDegrees>
            </Position>
            <AltitudeMeters>1143.800048828125</AltitudeMeters>
            <DistanceMeters>NAN</DistanceMeters>
          </Trackpoint>
          <Trackpoint>
            <Time>2021-08-03T08:18:20.000Z</Time>
            <Position>
              <LatitudeDegrees>-15.3602425754070281982421875</LatitudeDegrees>
              <LongitudeDegrees>37.088303826749324798583984375</LongitudeDegrees>
            </Position>
            <AltitudeMeters>1143.199951171875</AltitudeMeters>
            <DistanceMeters>NAN</DistanceMeters>
          </Trackpoint>
          <Trackpoint>
            <Time>2021-08-03T08:18:25.000Z</Time>
            <Position>
              <LatitudeDegrees>-15.36030854098498821258544921875</LatitudeDegrees>
              <LongitudeDegrees>37.08831095136702060699462890625</LongitudeDegrees>
            </Position>
            <AltitudeMeters>1143.199951171875</AltitudeMeters>
            <DistanceMeters>NAN</DistanceMeters>
          </Trackpoint>
          <Trackpoint>
            <Time>2021-08-03T08:18:33.000Z</Time>
            <Position>
              <LatitudeDegrees>-15.360396802425384521484375</LatitudeDegrees>
              <LongitudeDegrees>37.08832369185984134674072265625</LongitudeDegrees>
            </Position>
            <AltitudeMeters>1142.5999755859375</AltitudeMeters>
            <DistanceMeters>NAN</DistanceMeters>
          </Trackpoint>
          <Trackpoint>
            <Time>2021-08-03T08:18:43.000Z</Time>
            <Position>
              <LatitudeDegrees>-15.3605203516781330108642578125</LatitudeDegrees>
              <LongitudeDegrees>37.08836308680474758148193359375</LongitudeDegrees>
            </Position>
            <AltitudeMeters>1143.4000244140625</AltitudeMeters>
            <DistanceMeters>NAN</DistanceMeters>
          </Trackpoint>
          <Trackpoint>
            <Time>2021-08-03T08:18:53.000Z</Time>
            <Position>
              <LatitudeDegrees>-15.36060693673789501190185546875</LatitudeDegrees>
              <LongitudeDegrees>37.08846216090023517608642578125</LongitudeDegrees>
            </Position>
            <AltitudeMeters>1143.4000244140625</AltitudeMeters>
            <DistanceMeters>NAN</DistanceMeters>
          </Trackpoint>
          <Trackpoint>
            <Time>2021-08-03T08:19:03.000Z</Time>
            <Position>
              <LatitudeDegrees>-15.36071254871785640716552734375</LatitudeDegrees>
              <LongitudeDegrees>37.0885303057730197906494140625</LongitudeDegrees>
            </Position>
            <AltitudeMeters>1144.199951171875</AltitudeMeters>
            <DistanceMeters>NAN</DistanceMeters>
          </Trackpoint>
          <Trackpoint>
            <Time>2021-08-03T08:19:04.000Z</Time>
            <Position>
              <LatitudeDegrees>-15.360724031925201416015625</LatitudeDegrees>
              <LongitudeDegrees>37.08853726275265216827392578125</LongitudeDegrees>
            </Position>
            <AltitudeMeters>1144</AltitudeMeters>
            <DistanceMeters>NAN</DistanceMeters>
          </Trackpoint>
          <Trackpoint>
            <Time>2021-08-03T08:19:10.000Z</Time>
            <Position>
              <LatitudeDegrees>-15.36079217679798603057861328125</LatitudeDegrees>
              <LongitudeDegrees>37.0885691978037357330322265625</LongitudeDegrees>
            </Position>
            <AltitudeMeters>1144.199951171875</AltitudeMeters>
            <DistanceMeters>NAN</DistanceMeters>
          </Trackpoint>
          <Trackpoint>
            <Time>2021-08-03T08:19:14.000Z</Time>
            <Position>
              <LatitudeDegrees>-15.3608433902263641357421875</LatitudeDegrees>
              <LongitudeDegrees>37.08857833407819271087646484375</LongitudeDegrees>
            </Position>
            <AltitudeMeters>1144.199951171875</AltitudeMeters>
            <DistanceMeters>NAN</DistanceMeters>
          </Trackpoint>
          <Trackpoint>
            <Time>2021-08-03T08:19:15.000Z</Time>
            <Position>
              <LatitudeDegrees>-15.3608562983572483062744140625</LatitudeDegrees>
              <LongitudeDegrees>37.08858269266784191131591796875</LongitudeDegrees>
            </Position>
            <AltitudeMeters>1144.4000244140625</AltitudeMeters>
            <DistanceMeters>NAN</DistanceMeters>
          </Trackpoint>
          <Trackpoint>
            <Time>2021-08-03T08:19:23.000Z</Time>
            <Position>
              <LatitudeDegrees>-15.3609337471425533294677734375</LatitudeDegrees>
              <LongitudeDegrees>37.088624350726604461669921875</LongitudeDegrees>
            </Position>
            <AltitudeMeters>1143.5999755859375</AltitudeMeters>
            <DistanceMeters>NAN</DistanceMeters>
          </Trackpoint>
          <Trackpoint>
            <Time>2021-08-03T08:19:24.000Z</Time>
            <Position>
              <LatitudeDegrees>-15.36094422452151775360107421875</LatitudeDegrees>
              <LongitudeDegrees>37.08863365463912487030029296875</LongitudeDegrees>
            </Position>
            <AltitudeMeters>1143.199951171875</AltitudeMeters>
            <DistanceMeters>NAN</DistanceMeters>
          </Trackpoint>
          <Trackpoint>
            <Time>2021-08-03T08:19:28.000Z</Time>
            <Position>
              <LatitudeDegrees>-15.3609813563525676727294921875</LatitudeDegrees>
              <LongitudeDegrees>37.08867405541241168975830078125</LongitudeDegrees>
            </Position>
            <AltitudeMeters>1143.4000244140625</AltitudeMeters>
            <DistanceMeters>NAN</DistanceMeters>
          </Trackpoint>
          <Trackpoint>
            <Time>2021-08-03T08:19:33.000Z</Time>
            <Position>
              <LatitudeDegrees>-15.3610293008387088775634765625</LatitudeDegrees>
              <LongitudeDegrees>37.0887023024260997772216796875</LongitudeDegrees>
            </Position>
            <AltitudeMeters>1142.5999755859375</AltitudeMeters>
            <DistanceMeters>NAN</DistanceMeters>
          </Trackpoint>
          <Trackpoint>
            <Time>2021-08-03T08:19:38.000Z</Time>
            <Position>
              <LatitudeDegrees>-15.36108680069446563720703125</LatitudeDegrees>
              <LongitudeDegrees>37.0887157134711742401123046875</LongitudeDegrees>
            </Position>
            <AltitudeMeters>1142.199951171875</AltitudeMeters>
            <DistanceMeters>NAN</DistanceMeters>
          </Trackpoint>
          <Trackpoint>
            <Time>2021-08-03T08:19:40.000Z</Time>
            <Position>
              <LatitudeDegrees>-15.36110691726207733154296875</LatitudeDegrees>
              <LongitudeDegrees>37.0887150429189205169677734375</LongitudeDegrees>
            </Position>
            <AltitudeMeters>1141.800048828125</AltitudeMeters>
            <DistanceMeters>NAN</DistanceMeters>
          </Trackpoint>
          <Trackpoint>
            <Time>2021-08-03T08:19:45.000Z</Time>
            <Position>
              <LatitudeDegrees>-15.36115611903369426727294921875</LatitudeDegrees>
              <LongitudeDegrees>37.0887200720608234405517578125</LongitudeDegrees>
            </Position>
            <AltitudeMeters>1140.5999755859375</AltitudeMeters>
            <DistanceMeters>NAN</DistanceMeters>
          </Trackpoint>
          <Trackpoint>
            <Time>2021-08-03T08:19:48.000Z</Time>
            <Position>
              <LatitudeDegrees>-15.36118512041866779327392578125</LatitudeDegrees>
              <LongitudeDegrees>37.08873331546783447265625</LongitudeDegrees>
            </Position>
            <AltitudeMeters>1140</AltitudeMeters>
            <DistanceMeters>NAN</DistanceMeters>
          </Trackpoint>
          <Trackpoint>
            <Time>2021-08-03T08:19:49.000Z</Time>
            <Position>
              <LatitudeDegrees>-15.3611982800066471099853515625</LatitudeDegrees>
              <LongitudeDegrees>37.0887415297329425811767578125</LongitudeDegrees>
            </Position>
            <AltitudeMeters>1139.5999755859375</AltitudeMeters>
            <DistanceMeters>NAN</DistanceMeters>
          </Trackpoint>
          <Trackpoint>
            <Time>2021-08-03T08:19:51.000Z</Time>
            <Position>
              <LatitudeDegrees>-15.3612160496413707733154296875</LatitudeDegrees>
              <LongitudeDegrees>37.088752090930938720703125</LongitudeDegrees>
            </Position>
            <AltitudeMeters>1139.4000244140625</AltitudeMeters>
            <DistanceMeters>NAN</DistanceMeters>
          </Trackpoint>
          <Trackpoint>
            <Time>2021-08-03T08:19:54.000Z</Time>
            <Position>
              <LatitudeDegrees>-15.36123708821833133697509765625</LatitudeDegrees>
              <LongitudeDegrees>37.088777236640453338623046875</LongitudeDegrees>
            </Position>
            <AltitudeMeters>1139</AltitudeMeters>
            <DistanceMeters>NAN</DistanceMeters>
          </Trackpoint>
          <Trackpoint>
            <Time>2021-08-03T08:19:58.000Z</Time>
            <Position>
              <LatitudeDegrees>-15.361274220049381256103515625</LatitudeDegrees>
              <LongitudeDegrees>37.08880783058702945709228515625</LongitudeDegrees>
            </Position>
            <AltitudeMeters>1138.199951171875</AltitudeMeters>
            <DistanceMeters>NAN</DistanceMeters>
          </Trackpoint>
          <Trackpoint>
            <Time>2021-08-03T08:19:59.000Z</Time>
            <Position>
              <LatitudeDegrees>-15.36128335632383823394775390625</LatitudeDegrees>
              <LongitudeDegrees>37.088811434805393218994140625</LongitudeDegrees>
            </Position>
            <AltitudeMeters>1137.800048828125</AltitudeMeters>
            <DistanceMeters>NAN</DistanceMeters>
          </Trackpoint>
          <Trackpoint>
            <Time>2021-08-03T08:20:03.000Z</Time>
            <Position>
              <LatitudeDegrees>-15.36131587810814380645751953125</LatitudeDegrees>
              <LongitudeDegrees>37.08881269209086894989013671875</LongitudeDegrees>
            </Position>
            <AltitudeMeters>1136.800048828125</AltitudeMeters>
            <DistanceMeters>NAN</DistanceMeters>
          </Trackpoint>
          <Trackpoint>
            <Time>2021-08-03T08:20:08.000Z</Time>
            <Position>
              <LatitudeDegrees>-15.36137907765805721282958984375</LatitudeDegrees>
              <LongitudeDegrees>37.088807411491870880126953125</LongitudeDegrees>
            </Position>
            <AltitudeMeters>1136.5999755859375</AltitudeMeters>
            <DistanceMeters>NAN</DistanceMeters>
          </Trackpoint>
          <Trackpoint>
            <Time>2021-08-03T08:20:11.000Z</Time>
            <Position>
              <LatitudeDegrees>-15.36141880787909030914306640625</LatitudeDegrees>
              <LongitudeDegrees>37.0888231694698333740234375</LongitudeDegrees>
            </Position>
            <AltitudeMeters>1135.5999755859375</AltitudeMeters>
            <DistanceMeters>NAN</DistanceMeters>
          </Trackpoint>
          <Trackpoint>
            <Time>2021-08-03T08:20:16.000Z</Time>
            <Position>
              <LatitudeDegrees>-15.3614763915538787841796875</LatitudeDegrees>
              <LongitudeDegrees>37.08885627798736095428466796875</LongitudeDegrees>
            </Position>
            <AltitudeMeters>1134.5999755859375</AltitudeMeters>
            <DistanceMeters>NAN</DistanceMeters>
          </Trackpoint>
          <Trackpoint>
            <Time>2021-08-03T08:20:17.000Z</Time>
            <Position>
              <LatitudeDegrees>-15.36148619838058948516845703125</LatitudeDegrees>
              <LongitudeDegrees>37.08886398933827877044677734375</LongitudeDegrees>
            </Position>
            <AltitudeMeters>1134.4000244140625</AltitudeMeters>
            <DistanceMeters>NAN</DistanceMeters>
          </Trackpoint>
          <Trackpoint>
            <Time>2021-08-03T08:20:22.000Z</Time>
            <Position>
              <LatitudeDegrees>-15.36153330467641353607177734375</LatitudeDegrees>
              <LongitudeDegrees>37.08889232017099857330322265625</LongitudeDegrees>
            </Position>
            <AltitudeMeters>1134</AltitudeMeters>
            <DistanceMeters>NAN</DistanceMeters>
          </Trackpoint>
          <Trackpoint>
            <Time>2021-08-03T08:20:25.000Z</Time>
            <Position>
              <LatitudeDegrees>-15.3615664131939411163330078125</LatitudeDegrees>
              <LongitudeDegrees>37.08892350085079669952392578125</LongitudeDegrees>
            </Position>
            <AltitudeMeters>1134</AltitudeMeters>
            <DistanceMeters>NAN</DistanceMeters>
          </Trackpoint>
          <Trackpoint>
            <Time>2021-08-03T08:20:31.000Z</Time>
            <Position>
              <LatitudeDegrees>-15.36162592470645904541015625</LatitudeDegrees>
              <LongitudeDegrees>37.088972367346286773681640625</LongitudeDegrees>
            </Position>
            <AltitudeMeters>1135.199951171875</AltitudeMeters>
            <DistanceMeters>NAN</DistanceMeters>
          </Trackpoint>
          <Trackpoint>
            <Time>2021-08-03T08:20:34.000Z</Time>
            <Position>
              <LatitudeDegrees>-15.36165635101497173309326171875</LatitudeDegrees>
              <LongitudeDegrees>37.08898477256298065185546875</LongitudeDegrees>
            </Position>
            <AltitudeMeters>1135.199951171875</AltitudeMeters>
            <DistanceMeters>NAN</DistanceMeters>
          </Trackpoint>
          <Trackpoint>
            <Time>2021-08-03T08:20:35.000Z</Time>
            <Position>
              <LatitudeDegrees>-15.3616683371365070343017578125</LatitudeDegrees>
              <LongitudeDegrees>37.08898854441940784454345703125</LongitudeDegrees>
            </Position>
            <AltitudeMeters>1135.199951171875</AltitudeMeters>
            <DistanceMeters>NAN</DistanceMeters>
          </Trackpoint>
          <Trackpoint>
            <Time>2021-08-03T08:20:37.000Z</Time>
            <Position>
              <LatitudeDegrees>-15.3616908006370067596435546875</LatitudeDegrees>
              <LongitudeDegrees>37.0890023745596408843994140625</LongitudeDegrees>
            </Position>
            <AltitudeMeters>1135.199951171875</AltitudeMeters>
            <DistanceMeters>NAN</DistanceMeters>
          </Trackpoint>
          <Trackpoint>
            <Time>2021-08-03T08:20:40.000Z</Time>
            <Position>
              <LatitudeDegrees>-15.36171737127006053924560546875</LatitudeDegrees>
              <LongitudeDegrees>37.0890231616795063018798828125</LongitudeDegrees>
            </Position>
            <AltitudeMeters>1134.5999755859375</AltitudeMeters>
            <DistanceMeters>NAN</DistanceMeters>
          </Trackpoint>
          <Trackpoint>
            <Time>2021-08-03T08:20:43.000Z</Time>
            <Position>
              <LatitudeDegrees>-15.3617481328547000885009765625</LatitudeDegrees>
              <LongitudeDegrees>37.08904487080872058868408203125</LongitudeDegrees>
            </Position>
            <AltitudeMeters>1134.5999755859375</AltitudeMeters>
            <DistanceMeters>NAN</DistanceMeters>
          </Trackpoint>
          <Trackpoint>
            <Time>2021-08-03T08:20:56.000Z</Time>
            <Position>
              <LatitudeDegrees>-15.36191468127071857452392578125</LatitudeDegrees>
              <LongitudeDegrees>37.08908661268651485443115234375</LongitudeDegrees>
            </Position>
            <AltitudeMeters>1133.4000244140625</AltitudeMeters>
            <DistanceMeters>NAN</DistanceMeters>
          </Trackpoint>
          <Trackpoint>
            <Time>2021-08-03T08:21:06.000Z</Time>
            <Position>
              <LatitudeDegrees>-15.3620357997715473175048828125</LatitudeDegrees>
              <LongitudeDegrees>37.08912198431789875030517578125</LongitudeDegrees>
            </Position>
            <AltitudeMeters>1132.4000244140625</AltitudeMeters>
            <DistanceMeters>NAN</DistanceMeters>
          </Trackpoint>
          <Trackpoint>
            <Time>2021-08-03T08:21:08.000Z</Time>
            <Position>
              <LatitudeDegrees>-15.36206538788974285125732421875</LatitudeDegrees>
              <LongitudeDegrees>37.0891254208981990814208984375</LongitudeDegrees>
            </Position>
            <AltitudeMeters>1132.4000244140625</AltitudeMeters>
            <DistanceMeters>NAN</DistanceMeters>
          </Trackpoint>
          <Trackpoint>
            <Time>2021-08-03T08:21:14.000Z</Time>
            <Position>
              <LatitudeDegrees>-15.36213361658155918121337890625</LatitudeDegrees>
              <LongitudeDegrees>37.0891338028013706207275390625</LongitudeDegrees>
            </Position>
            <AltitudeMeters>1132</AltitudeMeters>
            <DistanceMeters>NAN</DistanceMeters>
          </Trackpoint>
          <Trackpoint>
            <Time>2021-08-03T08:21:18.000Z</Time>
            <Position>
              <LatitudeDegrees>-15.3621792979538440704345703125</LatitudeDegrees>
              <LongitudeDegrees>37.089138329029083251953125</LongitudeDegrees>
            </Position>
            <AltitudeMeters>1131.5999755859375</AltitudeMeters>
            <DistanceMeters>NAN</DistanceMeters>
          </Trackpoint>
          <Trackpoint>
            <Time>2021-08-03T08:21:23.000Z</Time>
            <Position>
              <LatitudeDegrees>-15.36223939619958400726318359375</LatitudeDegrees>
              <LongitudeDegrees>37.08916087634861469268798828125</LongitudeDegrees>
            </Position>
            <AltitudeMeters>1131.199951171875</AltitudeMeters>
            <DistanceMeters>NAN</DistanceMeters>
          </Trackpoint>
          <Trackpoint>
            <Time>2021-08-03T08:21:26.000Z</Time>
            <Position>
              <LatitudeDegrees>-15.36227166652679443359375</LatitudeDegrees>
              <LongitudeDegrees>37.0891690067946910858154296875</LongitudeDegrees>
            </Position>
            <AltitudeMeters>1130.199951171875</AltitudeMeters>
            <DistanceMeters>NAN</DistanceMeters>
          </Trackpoint>
          <Trackpoint>
            <Time>2021-08-03T08:21:29.000Z</Time>
            <Position>
              <LatitudeDegrees>-15.36229337565600872039794921875</LatitudeDegrees>
              <LongitudeDegrees>37.0891837589442729949951171875</LongitudeDegrees>
            </Position>
            <AltitudeMeters>1129.5999755859375</AltitudeMeters>
            <DistanceMeters>NAN</DistanceMeters>
          </Trackpoint>
          <Trackpoint>
            <Time>2021-08-03T08:21:36.000Z</Time>
            <Position>
              <LatitudeDegrees>-15.36237920634448528289794921875</LatitudeDegrees>
              <LongitudeDegrees>37.08921611309051513671875</LongitudeDegrees>
            </Position>
            <AltitudeMeters>1129.800048828125</AltitudeMeters>
            <DistanceMeters>NAN</DistanceMeters>
          </Trackpoint>
          <Trackpoint>
            <Time>2021-08-03T08:21:41.000Z</Time>
            <Position>
              <LatitudeDegrees>-15.36243461072444915771484375</LatitudeDegrees>
              <LongitudeDegrees>37.08923296071588993072509765625</LongitudeDegrees>
            </Position>
            <AltitudeMeters>1129.199951171875</AltitudeMeters>
            <DistanceMeters>NAN</DistanceMeters>
          </Trackpoint>
          <Trackpoint>
            <Time>2021-08-03T08:21:46.000Z</Time>
            <Position>
              <LatitudeDegrees>-15.36250208504498004913330078125</LatitudeDegrees>
              <LongitudeDegrees>37.08922038786113262176513671875</LongitudeDegrees>
            </Position>
            <AltitudeMeters>1129</AltitudeMeters>
            <DistanceMeters>NAN</DistanceMeters>
          </Trackpoint>
          <Trackpoint>
            <Time>2021-08-03T08:21:49.000Z</Time>
            <Position>
              <LatitudeDegrees>-15.36253628320991992950439453125</LatitudeDegrees>
              <LongitudeDegrees>37.08922340534627437591552734375</LongitudeDegrees>
            </Position>
            <AltitudeMeters>1129</AltitudeMeters>
            <DistanceMeters>NAN</DistanceMeters>
          </Trackpoint>
          <Trackpoint>
            <Time>2021-08-03T08:21:51.000Z</Time>
            <Position>
              <LatitudeDegrees>-15.36255489103496074676513671875</LatitudeDegrees>
              <LongitudeDegrees>37.08922189660370349884033203125</LongitudeDegrees>
            </Position>
            <AltitudeMeters>1129</AltitudeMeters>
            <DistanceMeters>NAN</DistanceMeters>
          </Trackpoint>
          <Trackpoint>
            <Time>2021-08-03T08:21:53.000Z</Time>
            <Position>
              <LatitudeDegrees>-15.36257735453546047210693359375</LatitudeDegrees>
              <LongitudeDegrees>37.089220471680164337158203125</LongitudeDegrees>
            </Position>
            <AltitudeMeters>1129.199951171875</AltitudeMeters>
            <DistanceMeters>NAN</DistanceMeters>
          </Trackpoint>
          <Trackpoint>
            <Time>2021-08-03T08:21:58.000Z</Time>
            <Position>
              <LatitudeDegrees>-15.36264474503695964813232421875</LatitudeDegrees>
              <LongitudeDegrees>37.08921410143375396728515625</LongitudeDegrees>
            </Position>
            <AltitudeMeters>1129.199951171875</AltitudeMeters>
            <DistanceMeters>NAN</DistanceMeters>
          </Trackpoint>
          <Trackpoint>
            <Time>2021-08-03T08:22:01.000Z</Time>
            <Position>
              <LatitudeDegrees>-15.362679027020931243896484375</LatitudeDegrees>
              <LongitudeDegrees>37.08922072313725948333740234375</LongitudeDegrees>
            </Position>
            <AltitudeMeters>1128.800048828125</AltitudeMeters>
            <DistanceMeters>NAN</DistanceMeters>
          </Trackpoint>
          <Trackpoint>
            <Time>2021-08-03T08:22:10.000Z</Time>
            <Position>
              <LatitudeDegrees>-15.36277567036449909210205078125</LatitudeDegrees>
              <LongitudeDegrees>37.0892451144754886627197265625</LongitudeDegrees>
            </Position>
            <AltitudeMeters>1129</AltitudeMeters>
            <DistanceMeters>NAN</DistanceMeters>
          </Trackpoint>
          <Trackpoint>
            <Time>2021-08-03T08:22:19.000Z</Time>
            <Position>
              <LatitudeDegrees>-15.36289486102759838104248046875</LatitudeDegrees>
              <LongitudeDegrees>37.08927847445011138916015625</LongitudeDegrees>
            </Position>
            <AltitudeMeters>1130.199951171875</AltitudeMeters>
            <DistanceMeters>NAN</DistanceMeters>
          </Trackpoint>
          <Trackpoint>
            <Time>2021-08-03T08:22:20.000Z</Time>
            <Position>
              <LatitudeDegrees>-15.3629085235297679901123046875</LatitudeDegrees>
              <LongitudeDegrees>37.089283503592014312744140625</LongitudeDegrees>
            </Position>
            <AltitudeMeters>1130.4000244140625</AltitudeMeters>
            <DistanceMeters>NAN</DistanceMeters>
          </Trackpoint>
          <Trackpoint>
            <Time>2021-08-03T08:22:26.000Z</Time>
            <Position>
              <LatitudeDegrees>-15.362978763878345489501953125</LatitudeDegrees>
              <LongitudeDegrees>37.08928694017231464385986328125</LongitudeDegrees>
            </Position>
            <AltitudeMeters>1131</AltitudeMeters>
            <DistanceMeters>NAN</DistanceMeters>
          </Trackpoint>
          <Trackpoint>
            <Time>2021-08-03T08:22:29.000Z</Time>
            <Position>
              <LatitudeDegrees>-15.3630138002336025238037109375</LatitudeDegrees>
              <LongitudeDegrees>37.08928459323942661285400390625</LongitudeDegrees>
            </Position>
            <AltitudeMeters>1131.199951171875</AltitudeMeters>
            <DistanceMeters>NAN</DistanceMeters>
          </Trackpoint>
          <Trackpoint>
            <Time>2021-08-03T08:22:40.000Z</Time>
            <Position>
              <LatitudeDegrees>-15.36313609220087528228759765625</LatitudeDegrees>
              <LongitudeDegrees>37.08926414139568805694580078125</LongitudeDegrees>
            </Position>
            <AltitudeMeters>1132.199951171875</AltitudeMeters>
            <DistanceMeters>NAN</DistanceMeters>
          </Trackpoint>
          <Trackpoint>
            <Time>2021-08-03T08:22:42.000Z</Time>
            <Position>
              <LatitudeDegrees>-15.36315746605396270751953125</LatitudeDegrees>
              <LongitudeDegrees>37.089256346225738525390625</LongitudeDegrees>
            </Position>
            <AltitudeMeters>1132.5999755859375</AltitudeMeters>
            <DistanceMeters>NAN</DistanceMeters>
          </Trackpoint>
          <Trackpoint>
            <Time>2021-08-03T08:22:48.000Z</Time>
            <Position>
              <LatitudeDegrees>-15.3632132895290851593017578125</LatitudeDegrees>
              <LongitudeDegrees>37.089244611561298370361328125</LongitudeDegrees>
            </Position>
            <AltitudeMeters>1133.4000244140625</AltitudeMeters>
            <DistanceMeters>NAN</DistanceMeters>
          </Trackpoint>
          <Trackpoint>
            <Time>2021-08-03T08:22:50.000Z</Time>
            <Position>
              <LatitudeDegrees>-15.363231562077999114990234375</LatitudeDegrees>
              <LongitudeDegrees>37.08923899568617343902587890625</LongitudeDegrees>
            </Position>
            <AltitudeMeters>1133.5999755859375</AltitudeMeters>
            <DistanceMeters>NAN</DistanceMeters>
          </Trackpoint>
          <Trackpoint>
            <Time>2021-08-03T08:22:51.000Z</Time>
            <Position>
              <LatitudeDegrees>-15.363241620361804962158203125</LatitudeDegrees>
              <LongitudeDegrees>37.08924083970487117767333984375</LongitudeDegrees>
            </Position>
            <AltitudeMeters>1133.5999755859375</AltitudeMeters>
            <DistanceMeters>NAN</DistanceMeters>
          </Trackpoint>
          <Trackpoint>
            <Time>2021-08-03T08:22:54.000Z</Time>
            <Position>
              <LatitudeDegrees>-15.3632756508886814117431640625</LatitudeDegrees>
              <LongitudeDegrees>37.08925341255962848663330078125</LongitudeDegrees>
            </Position>
            <AltitudeMeters>1133.800048828125</AltitudeMeters>
            <DistanceMeters>NAN</DistanceMeters>
          </Trackpoint>
          <Trackpoint>
            <Time>2021-08-03T08:22:58.000Z</Time>
            <Position>
              <LatitudeDegrees>-15.36331973969936370849609375</LatitudeDegrees>
              <LongitudeDegrees>37.0892632193863391876220703125</LongitudeDegrees>
            </Position>
            <AltitudeMeters>1134.5999755859375</AltitudeMeters>
            <DistanceMeters>NAN</DistanceMeters>
          </Trackpoint>
          <Trackpoint>
            <Time>2021-08-03T08:23:01.000Z</Time>
            <Position>
              <LatitudeDegrees>-15.36334924399852752685546875</LatitudeDegrees>
              <LongitudeDegrees>37.08927386440336704254150390625</LongitudeDegrees>
            </Position>
            <AltitudeMeters>1135</AltitudeMeters>
            <DistanceMeters>NAN</DistanceMeters>
          </Trackpoint>
          <Trackpoint>
            <Time>2021-08-03T08:23:03.000Z</Time>
            <Position>
              <LatitudeDegrees>-15.36336877383291721343994140625</LatitudeDegrees>
              <LongitudeDegrees>37.08928191103041172027587890625</LongitudeDegrees>
            </Position>
            <AltitudeMeters>1135.5999755859375</AltitudeMeters>
            <DistanceMeters>NAN</DistanceMeters>
          </Trackpoint>
          <Trackpoint>
            <Time>2021-08-03T08:23:04.000Z</Time>
            <Position>
              <LatitudeDegrees>-15.363379418849945068359375</LatitudeDegrees>
              <LongitudeDegrees>37.08928476087749004364013671875</LongitudeDegrees>
            </Position>
            <AltitudeMeters>1135.800048828125</AltitudeMeters>
            <DistanceMeters>NAN</DistanceMeters>
          </Trackpoint>
          <Trackpoint>
            <Time>2021-08-03T08:23:09.000Z</Time>
            <Position>
              <LatitudeDegrees>-15.36342836916446685791015625</LatitudeDegrees>
              <LongitudeDegrees>37.089297585189342498779296875</LongitudeDegrees>
            </Position>
            <AltitudeMeters>1136.800048828125</AltitudeMeters>
            <DistanceMeters>NAN</DistanceMeters>
          </Trackpoint>
          <Trackpoint>
            <Time>2021-08-03T08:23:11.000Z</Time>
            <Position>
              <LatitudeDegrees>-15.36344521678984165191650390625</LatitudeDegrees>
              <LongitudeDegrees>37.0893084816634654998779296875</LongitudeDegrees>
            </Position>
            <AltitudeMeters>1137</AltitudeMeters>
            <DistanceMeters>NAN</DistanceMeters>
          </Trackpoint>
          <Trackpoint>
            <Time>2021-08-03T08:23:14.000Z</Time>
            <Position>
              <LatitudeDegrees>-15.3634660877287387847900390625</LatitudeDegrees>
              <LongitudeDegrees>37.0893339626491069793701171875</LongitudeDegrees>
            </Position>
            <AltitudeMeters>1137.5999755859375</AltitudeMeters>
            <DistanceMeters>NAN</DistanceMeters>
          </Trackpoint>
          <Trackpoint>
            <Time>2021-08-03T08:23:17.000Z</Time>
            <Position>
              <LatitudeDegrees>-15.363492071628570556640625</LatitudeDegrees>
              <LongitudeDegrees>37.08935349248349666595458984375</LongitudeDegrees>
            </Position>
            <AltitudeMeters>1137.5999755859375</AltitudeMeters>
            <DistanceMeters>NAN</DistanceMeters>
          </Trackpoint>
          <Trackpoint>
            <Time>2021-08-03T08:23:19.000Z</Time>
            <Position>
              <LatitudeDegrees>-15.36351495422422885894775390625</LatitudeDegrees>
              <LongitudeDegrees>37.08936103619635105133056640625</LongitudeDegrees>
            </Position>
            <AltitudeMeters>1137</AltitudeMeters>
            <DistanceMeters>NAN</DistanceMeters>
          </Trackpoint>
          <Trackpoint>
            <Time>2021-08-03T08:23:21.000Z</Time>
            <Position>
              <LatitudeDegrees>-15.36353708244860172271728515625</LatitudeDegrees>
              <LongitudeDegrees>37.08936975337564945220947265625</LongitudeDegrees>
            </Position>
            <AltitudeMeters>1136.5999755859375</AltitudeMeters>
            <DistanceMeters>NAN</DistanceMeters>
          </Trackpoint>
          <Trackpoint>
            <Time>2021-08-03T08:23:22.000Z</Time>
            <Position>
              <LatitudeDegrees>-15.36354764364659786224365234375</LatitudeDegrees>
              <LongitudeDegrees>37.08937226794660091400146484375</LongitudeDegrees>
            </Position>
            <AltitudeMeters>1136.5999755859375</AltitudeMeters>
            <DistanceMeters>NAN</DistanceMeters>
          </Trackpoint>
          <Trackpoint>
            <Time>2021-08-03T08:23:23.000Z</Time>
            <Position>
              <LatitudeDegrees>-15.36355921067297458648681640625</LatitudeDegrees>
              <LongitudeDegrees>37.08937411196529865264892578125</LongitudeDegrees>
            </Position>
            <AltitudeMeters>1136.199951171875</AltitudeMeters>
            <DistanceMeters>NAN</DistanceMeters>
          </Trackpoint>
          <Trackpoint>
            <Time>2021-08-03T08:23:24.000Z</Time>
            <Position>
              <LatitudeDegrees>-15.363570861518383026123046875</LatitudeDegrees>
              <LongitudeDegrees>37.08937545306980609893798828125</LongitudeDegrees>
            </Position>
            <AltitudeMeters>1136.199951171875</AltitudeMeters>
            <DistanceMeters>NAN</DistanceMeters>
          </Trackpoint>
          <Trackpoint>
            <Time>2021-08-03T08:23:25.000Z</Time>
            <Position>
              <LatitudeDegrees>-15.363584272563457489013671875</LatitudeDegrees>
              <LongitudeDegrees>37.0893778838217258453369140625</LongitudeDegrees>
            </Position>
            <AltitudeMeters>1136.199951171875</AltitudeMeters>
            <DistanceMeters>NAN</DistanceMeters>
          </Trackpoint>
          <Trackpoint>
            <Time>2021-08-03T08:23:26.000Z</Time>
            <Position>
              <LatitudeDegrees>-15.363597013056278228759765625</LatitudeDegrees>
              <LongitudeDegrees>37.08938048221170902252197265625</LongitudeDegrees>
            </Position>
            <AltitudeMeters>1136.4000244140625</AltitudeMeters>
            <DistanceMeters>NAN</DistanceMeters>
          </Trackpoint>
          <Trackpoint>
            <Time>2021-08-03T08:23:27.000Z</Time>
            <Position>
              <LatitudeDegrees>-15.363610088825225830078125</LatitudeDegrees>
              <LongitudeDegrees>37.0893835835158824920654296875</LongitudeDegrees>
            </Position>
            <AltitudeMeters>1136.199951171875</AltitudeMeters>
            <DistanceMeters>NAN</DistanceMeters>
          </Trackpoint>
          <Trackpoint>
            <Time>2021-08-03T08:23:28.000Z</Time>
            <Position>
              <LatitudeDegrees>-15.36362282931804656982421875</LatitudeDegrees>
              <LongitudeDegrees>37.08938534371554851531982421875</LongitudeDegrees>
            </Position>
            <AltitudeMeters>1136.199951171875</AltitudeMeters>
            <DistanceMeters>NAN</DistanceMeters>
          </Trackpoint>
          <Trackpoint>
            <Time>2021-08-03T08:23:29.000Z</Time>
            <Position>
              <LatitudeDegrees>-15.36363280378282070159912109375</LatitudeDegrees>
              <LongitudeDegrees>37.08938450552523136138916015625</LongitudeDegrees>
            </Position>
            <AltitudeMeters>1136.4000244140625</AltitudeMeters>
            <DistanceMeters>NAN</DistanceMeters>
          </Trackpoint>
          <Trackpoint>
            <Time>2021-08-03T08:23:30.000Z</Time>
            <Position>
              <LatitudeDegrees>-15.36364219151437282562255859375</LatitudeDegrees>
              <LongitudeDegrees>37.08938668482005596160888671875</LongitudeDegrees>
            </Position>
            <AltitudeMeters>1136.4000244140625</AltitudeMeters>
            <DistanceMeters>NAN</DistanceMeters>
          </Trackpoint>
          <Trackpoint>
            <Time>2021-08-03T08:23:31.000Z</Time>
            <Position>
              <LatitudeDegrees>-15.36365090869367122650146484375</LatitudeDegrees>
              <LongitudeDegrees>37.08939238451421260833740234375</LongitudeDegrees>
            </Position>
            <AltitudeMeters>1136.4000244140625</AltitudeMeters>
            <DistanceMeters>NAN</DistanceMeters>
          </Trackpoint>
          <Trackpoint>
            <Time>2021-08-03T08:23:33.000Z</Time>
            <Position>
              <LatitudeDegrees>-15.363669097423553466796875</LatitudeDegrees>
              <LongitudeDegrees>37.08940051496028900146484375</LongitudeDegrees>
            </Position>
            <AltitudeMeters>1135.800048828125</AltitudeMeters>
            <DistanceMeters>NAN</DistanceMeters>
          </Trackpoint>
          <Trackpoint>
            <Time>2021-08-03T08:23:34.000Z</Time>
            <Position>
              <LatitudeDegrees>-15.3636776469647884368896484375</LatitudeDegrees>
              <LongitudeDegrees>37.08940923213958740234375</LongitudeDegrees>
            </Position>
            <AltitudeMeters>1135.5999755859375</AltitudeMeters>
            <DistanceMeters>NAN</DistanceMeters>
          </Trackpoint>
          <Trackpoint>
            <Time>2021-08-03T08:23:38.000Z</Time>
            <Position>
              <LatitudeDegrees>-15.363719053566455841064453125</LatitudeDegrees>
              <LongitudeDegrees>37.08943747915327548980712890625</LongitudeDegrees>
            </Position>
            <AltitudeMeters>1134.5999755859375</AltitudeMeters>
            <DistanceMeters>NAN</DistanceMeters>
          </Trackpoint>
          <Trackpoint>
            <Time>2021-08-03T08:23:40.000Z</Time>
            <Position>
              <LatitudeDegrees>-15.36374143324792385101318359375</LatitudeDegrees>
              <LongitudeDegrees>37.08944669924676418304443359375</LongitudeDegrees>
            </Position>
            <AltitudeMeters>1134.5999755859375</AltitudeMeters>
            <DistanceMeters>NAN</DistanceMeters>
          </Trackpoint>
          <Trackpoint>
            <Time>2021-08-03T08:23:44.000Z</Time>
            <Position>
              <LatitudeDegrees>-15.36380278877913951873779296875</LatitudeDegrees>
              <LongitudeDegrees>37.089478634297847747802734375</LongitudeDegrees>
            </Position>
            <AltitudeMeters>1134.4000244140625</AltitudeMeters>
            <DistanceMeters>NAN</DistanceMeters>
          </Trackpoint>
          <Trackpoint>
            <Time>2021-08-03T08:23:47.000Z</Time>
            <Position>
              <LatitudeDegrees>-15.363841764628887176513671875</LatitudeDegrees>
              <LongitudeDegrees>37.0894955657422542572021484375</LongitudeDegrees>
            </Position>
            <AltitudeMeters>1134.199951171875</AltitudeMeters>
            <DistanceMeters>NAN</DistanceMeters>
          </Trackpoint>
          <Trackpoint>
            <Time>2021-08-03T08:23:49.000Z</Time>
            <Position>
              <LatitudeDegrees>-15.36386649124324321746826171875</LatitudeDegrees>
              <LongitudeDegrees>37.0895032770931720733642578125</LongitudeDegrees>
            </Position>
            <AltitudeMeters>1134.4000244140625</AltitudeMeters>
            <DistanceMeters>NAN</DistanceMeters>
          </Trackpoint>
          <Trackpoint>
            <Time>2021-08-03T08:23:51.000Z</Time>
            <Position>
              <LatitudeDegrees>-15.36388912238180637359619140625</LatitudeDegrees>
              <LongitudeDegrees>37.08951308391988277435302734375</LongitudeDegrees>
            </Position>
            <AltitudeMeters>1134.4000244140625</AltitudeMeters>
            <DistanceMeters>NAN</DistanceMeters>
          </Trackpoint>
          <Trackpoint>
            <Time>2021-08-03T08:23:53.000Z</Time>
            <Position>
              <LatitudeDegrees>-15.36391192115843296051025390625</LatitudeDegrees>
              <LongitudeDegrees>37.0895207114517688751220703125</LongitudeDegrees>
            </Position>
            <AltitudeMeters>1134.4000244140625</AltitudeMeters>
            <DistanceMeters>NAN</DistanceMeters>
          </Trackpoint>
          <Trackpoint>
            <Time>2021-08-03T08:24:01.000Z</Time>
            <Position>
              <LatitudeDegrees>-15.364001356065273284912109375</LatitudeDegrees>
              <LongitudeDegrees>37.089524567127227783203125</LongitudeDegrees>
            </Position>
            <AltitudeMeters>1134.4000244140625</AltitudeMeters>
            <DistanceMeters>NAN</DistanceMeters>
          </Trackpoint>
          <Trackpoint>
            <Time>2021-08-03T08:24:03.000Z</Time>
            <Position>
              <LatitudeDegrees>-15.3640191256999969482421875</LatitudeDegrees>
              <LongitudeDegrees>37.089526914060115814208984375</LongitudeDegrees>
            </Position>
            <AltitudeMeters>1134.4000244140625</AltitudeMeters>
            <DistanceMeters>NAN</DistanceMeters>
          </Trackpoint>
          <Trackpoint>
            <Time>2021-08-03T08:24:08.000Z</Time>
            <Position>
              <LatitudeDegrees>-15.36406765691936016082763671875</LatitudeDegrees>
              <LongitudeDegrees>37.089508138597011566162109375</LongitudeDegrees>
            </Position>
            <AltitudeMeters>1133.800048828125</AltitudeMeters>
            <DistanceMeters>NAN</DistanceMeters>
          </Trackpoint>
          <Trackpoint>
            <Time>2021-08-03T08:24:12.000Z</Time>
            <Position>
              <LatitudeDegrees>-15.36411258392035961151123046875</LatitudeDegrees>
              <LongitudeDegrees>37.0894788019359111785888671875</LongitudeDegrees>
            </Position>
            <AltitudeMeters>1133.199951171875</AltitudeMeters>
            <DistanceMeters>NAN</DistanceMeters>
          </Trackpoint>
          <Trackpoint>
            <Time>2021-08-03T08:24:15.000Z</Time>
            <Position>
              <LatitudeDegrees>-15.36414963193237781524658203125</LatitudeDegrees>
              <LongitudeDegrees>37.0894640497863292694091796875</LongitudeDegrees>
            </Position>
            <AltitudeMeters>1133</AltitudeMeters>
            <DistanceMeters>NAN</DistanceMeters>
          </Trackpoint>
          <Trackpoint>
            <Time>2021-08-03T08:24:17.000Z</Time>
            <Position>
              <LatitudeDegrees>-15.36417536437511444091796875</LatitudeDegrees>
              <LongitudeDegrees>37.089459858834743499755859375</LongitudeDegrees>
            </Position>
            <AltitudeMeters>1132.4000244140625</AltitudeMeters>
            <DistanceMeters>NAN</DistanceMeters>
          </Trackpoint>
          <Trackpoint>
            <Time>2021-08-03T08:24:18.000Z</Time>
            <Position>
              <LatitudeDegrees>-15.36418969742953777313232421875</LatitudeDegrees>
              <LongitudeDegrees>37.08944720216095447540283203125</LongitudeDegrees>
            </Position>
            <AltitudeMeters>1132.199951171875</AltitudeMeters>
            <DistanceMeters>NAN</DistanceMeters>
          </Trackpoint>
          <Trackpoint>
            <Time>2021-08-03T08:24:24.000Z</Time>
            <Position>
              <LatitudeDegrees>-15.3642720915377140045166015625</LatitudeDegrees>
              <LongitudeDegrees>37.08941853605210781097412109375</LongitudeDegrees>
            </Position>
            <AltitudeMeters>1131.199951171875</AltitudeMeters>
            <DistanceMeters>NAN</DistanceMeters>
          </Trackpoint>
          <Trackpoint>
            <Time>2021-08-03T08:24:26.000Z</Time>
            <Position>
              <LatitudeDegrees>-15.36429313011467456817626953125</LatitudeDegrees>
              <LongitudeDegrees>37.08941350691020488739013671875</LongitudeDegrees>
            </Position>
            <AltitudeMeters>1130.800048828125</AltitudeMeters>
            <DistanceMeters>NAN</DistanceMeters>
          </Trackpoint>
          <Trackpoint>
            <Time>2021-08-03T08:24:32.000Z</Time>
            <Position>
              <LatitudeDegrees>-15.36435130052268505096435546875</LatitudeDegrees>
              <LongitudeDegrees>37.089397497475147247314453125</LongitudeDegrees>
            </Position>
            <AltitudeMeters>1130.4000244140625</AltitudeMeters>
            <DistanceMeters>NAN</DistanceMeters>
          </Trackpoint>
          <Trackpoint>
            <Time>2021-08-03T08:24:33.000Z</Time>
            <Position>
              <LatitudeDegrees>-15.36436001770198345184326171875</LatitudeDegrees>
              <LongitudeDegrees>37.08939523436129093170166015625</LongitudeDegrees>
            </Position>
            <AltitudeMeters>1130.4000244140625</AltitudeMeters>
            <DistanceMeters>NAN</DistanceMeters>
          </Trackpoint>
          <Trackpoint>
            <Time>2021-08-03T08:24:36.000Z</Time>
            <Position>
              <LatitudeDegrees>-15.364387929439544677734375</LatitudeDegrees>
              <LongitudeDegrees>37.08938919939100742340087890625</LongitudeDegrees>
            </Position>
            <AltitudeMeters>1130.199951171875</AltitudeMeters>
            <DistanceMeters>NAN</DistanceMeters>
          </Trackpoint>
          <Trackpoint>
            <Time>2021-08-03T08:24:40.000Z</Time>
            <Position>
              <LatitudeDegrees>-15.36439991556107997894287109375</LatitudeDegrees>
              <LongitudeDegrees>37.08938500843942165374755859375</LongitudeDegrees>
            </Position>
            <AltitudeMeters>1129.4000244140625</AltitudeMeters>
            <DistanceMeters>NAN</DistanceMeters>
          </Trackpoint>
          <Trackpoint>
            <Time>2021-08-03T08:24:42.000Z</Time>
            <Position>
              <LatitudeDegrees>-15.364401675760746002197265625</LatitudeDegrees>
              <LongitudeDegrees>37.08938299678266048431396484375</LongitudeDegrees>
            </Position>
            <AltitudeMeters>1129</AltitudeMeters>
            <DistanceMeters>NAN</DistanceMeters>
          </Trackpoint>
          <Trackpoint>
            <Time>2021-08-03T08:24:48.000Z</Time>
            <Position>
              <LatitudeDegrees>-15.36440863274037837982177734375</LatitudeDegrees>
              <LongitudeDegrees>37.0893785543739795684814453125</LongitudeDegrees>
            </Position>
            <AltitudeMeters>1129.199951171875</AltitudeMeters>
            <DistanceMeters>NAN</DistanceMeters>
          </Trackpoint>
          <Trackpoint>
            <Time>2021-08-03T08:25:15.000Z</Time>
            <Position>
              <LatitudeDegrees>-15.364421792328357696533203125</LatitudeDegrees>
              <LongitudeDegrees>37.08937612362205982208251953125</LongitudeDegrees>
            </Position>
            <AltitudeMeters>1130.199951171875</AltitudeMeters>
            <DistanceMeters>NAN</DistanceMeters>
          </Trackpoint>
          <Trackpoint>
            <Time>2021-08-03T08:25:18.000Z</Time>
            <Position>
              <LatitudeDegrees>-15.364429168403148651123046875</LatitudeDegrees>
              <LongitudeDegrees>37.08937369287014007568359375</LongitudeDegrees>
            </Position>
            <AltitudeMeters>1130.5999755859375</AltitudeMeters>
            <DistanceMeters>NAN</DistanceMeters>
          </Trackpoint>
          <Trackpoint>
            <Time>2021-08-03T08:25:22.000Z</Time>
            <Position>
              <LatitudeDegrees>-15.36449144594371318817138671875</LatitudeDegrees>
              <LongitudeDegrees>37.08936405368149280548095703125</LongitudeDegrees>
            </Position>
            <AltitudeMeters>1130.5999755859375</AltitudeMeters>
            <DistanceMeters>NAN</DistanceMeters>
          </Trackpoint>
          <Trackpoint>
            <Time>2021-08-03T08:25:27.000Z</Time>
            <Position>
              <LatitudeDegrees>-15.36455900408327579498291015625</LatitudeDegrees>
              <LongitudeDegrees>37.08935298956930637359619140625</LongitudeDegrees>
            </Position>
            <AltitudeMeters>1129.199951171875</AltitudeMeters>
            <DistanceMeters>NAN</DistanceMeters>
          </Trackpoint>
          <Trackpoint>
            <Time>2021-08-03T08:25:30.000Z</Time>
            <Position>
              <LatitudeDegrees>-15.36459940485656261444091796875</LatitudeDegrees>
              <LongitudeDegrees>37.0893467031419277191162109375</LongitudeDegrees>
            </Position>
            <AltitudeMeters>1129.199951171875</AltitudeMeters>
            <DistanceMeters>NAN</DistanceMeters>
          </Trackpoint>
          <Trackpoint>
            <Time>2021-08-03T08:25:35.000Z</Time>
            <Position>
              <LatitudeDegrees>-15.36466754972934722900390625</LatitudeDegrees>
              <LongitudeDegrees>37.08934829570353031158447265625</LongitudeDegrees>
            </Position>
            <AltitudeMeters>1129.4000244140625</AltitudeMeters>
            <DistanceMeters>NAN</DistanceMeters>
          </Trackpoint>
          <Trackpoint>
            <Time>2021-08-03T08:25:40.000Z</Time>
            <Position>
              <LatitudeDegrees>-15.36472446285188198089599609375</LatitudeDegrees>
              <LongitudeDegrees>37.08933672867715358734130859375</LongitudeDegrees>
            </Position>
            <AltitudeMeters>1129</AltitudeMeters>
            <DistanceMeters>NAN</DistanceMeters>
          </Trackpoint>
          <Trackpoint>
            <Time>2021-08-03T08:25:42.000Z</Time>
            <Position>
              <LatitudeDegrees>-15.3647485189139842987060546875</LatitudeDegrees>
              <LongitudeDegrees>37.08933069370687007904052734375</LongitudeDegrees>
            </Position>
            <AltitudeMeters>1128.800048828125</AltitudeMeters>
            <DistanceMeters>NAN</DistanceMeters>
          </Trackpoint>
          <Trackpoint>
            <Time>2021-08-03T08:25:49.000Z</Time>
            <Position>
              <LatitudeDegrees>-15.3648360259830951690673828125</LatitudeDegrees>
              <LongitudeDegrees>37.0893094874918460845947265625</LongitudeDegrees>
            </Position>
            <AltitudeMeters>1128</AltitudeMeters>
            <DistanceMeters>NAN</DistanceMeters>
          </Trackpoint>
          <Trackpoint>
            <Time>2021-08-03T08:25:50.000Z</Time>
            <Position>
              <LatitudeDegrees>-15.36484868265688419342041015625</LatitudeDegrees>
              <LongitudeDegrees>37.08930705673992633819580078125</LongitudeDegrees>
            </Position>
            <AltitudeMeters>1128</AltitudeMeters>
            <DistanceMeters>NAN</DistanceMeters>
          </Trackpoint>
          <Trackpoint>
            <Time>2021-08-03T08:25:53.000Z</Time>
            <Position>
              <LatitudeDegrees>-15.3648889996111392974853515625</LatitudeDegrees>
              <LongitudeDegrees>37.08929800428450107574462890625</LongitudeDegrees>
            </Position>
            <AltitudeMeters>1127</AltitudeMeters>
            <DistanceMeters>NAN</DistanceMeters>
          </Trackpoint>
          <Trackpoint>
            <Time>2021-08-03T08:25:55.000Z</Time>
            <Position>
              <LatitudeDegrees>-15.364913977682590484619140625</LatitudeDegrees>
              <LongitudeDegrees>37.0892910473048686981201171875</LongitudeDegrees>
            </Position>
            <AltitudeMeters>1126.800048828125</AltitudeMeters>
            <DistanceMeters>NAN</DistanceMeters>
          </Trackpoint>
          <Trackpoint>
            <Time>2021-08-03T08:25:57.000Z</Time>
            <Position>
              <LatitudeDegrees>-15.36493971012532711029052734375</LatitudeDegrees>
              <LongitudeDegrees>37.0892826654016971588134765625</LongitudeDegrees>
            </Position>
            <AltitudeMeters>1126</AltitudeMeters>
            <DistanceMeters>NAN</DistanceMeters>
          </Trackpoint>
          <Trackpoint>
            <Time>2021-08-03T08:25:59.000Z</Time>
            <Position>
              <LatitudeDegrees>-15.3649671189486980438232421875</LatitudeDegrees>
              <LongitudeDegrees>37.08927403204143047332763671875</LongitudeDegrees>
            </Position>
            <AltitudeMeters>1125.4000244140625</AltitudeMeters>
            <DistanceMeters>NAN</DistanceMeters>
          </Trackpoint>
          <Trackpoint>
            <Time>2021-08-03T08:26:03.000Z</Time>
            <Position>
              <LatitudeDegrees>-15.3650056757032871246337890625</LatitudeDegrees>
              <LongitudeDegrees>37.08927067928016185760498046875</LongitudeDegrees>
            </Position>
            <AltitudeMeters>1124.199951171875</AltitudeMeters>
            <DistanceMeters>NAN</DistanceMeters>
          </Trackpoint>
          <Trackpoint>
            <Time>2021-08-03T08:26:06.000Z</Time>
            <Position>
              <LatitudeDegrees>-15.36503811366856098175048828125</LatitudeDegrees>
              <LongitudeDegrees>37.08926833234727382659912109375</LongitudeDegrees>
            </Position>
            <AltitudeMeters>1123.5999755859375</AltitudeMeters>
            <DistanceMeters>NAN</DistanceMeters>
          </Trackpoint>
          <Trackpoint>
            <Time>2021-08-03T08:26:07.000Z</Time>
            <Position>
              <LatitudeDegrees>-15.3650502674281597137451171875</LatitudeDegrees>
              <LongitudeDegrees>37.08926045335829257965087890625</LongitudeDegrees>
            </Position>
            <AltitudeMeters>1123.4000244140625</AltitudeMeters>
            <DistanceMeters>NAN</DistanceMeters>
          </Trackpoint>
          <Trackpoint>
            <Time>2021-08-03T08:26:08.000Z</Time>
            <Position>
              <LatitudeDegrees>-15.3650650195777416229248046875</LatitudeDegrees>
              <LongitudeDegrees>37.08925609476864337921142578125</LongitudeDegrees>
            </Position>
            <AltitudeMeters>1123.199951171875</AltitudeMeters>
            <DistanceMeters>NAN</DistanceMeters>
          </Trackpoint>
          <Trackpoint>
            <Time>2021-08-03T08:26:14.000Z</Time>
            <Position>
              <LatitudeDegrees>-15.36515126936137676239013671875</LatitudeDegrees>
              <LongitudeDegrees>37.089240252971649169921875</LongitudeDegrees>
            </Position>
            <AltitudeMeters>1122.199951171875</AltitudeMeters>
            <DistanceMeters>NAN</DistanceMeters>
          </Trackpoint>
          <Trackpoint>
            <Time>2021-08-03T08:26:20.000Z</Time>
            <Position>
              <LatitudeDegrees>-15.36523751914501190185546875</LatitudeDegrees>
              <LongitudeDegrees>37.089267410337924957275390625</LongitudeDegrees>
            </Position>
            <AltitudeMeters>1122</AltitudeMeters>
            <DistanceMeters>NAN</DistanceMeters>
          </Trackpoint>
          <Trackpoint>
            <Time>2021-08-03T08:26:23.000Z</Time>
            <Position>
              <LatitudeDegrees>-15.36527364514768123626708984375</LatitudeDegrees>
              <LongitudeDegrees>37.08928308449685573577880859375</LongitudeDegrees>
            </Position>
            <AltitudeMeters>1122.199951171875</AltitudeMeters>
            <DistanceMeters>NAN</DistanceMeters>
          </Trackpoint>
          <Trackpoint>
            <Time>2021-08-03T08:26:31.000Z</Time>
            <Position>
              <LatitudeDegrees>-15.36536852829158306121826171875</LatitudeDegrees>
              <LongitudeDegrees>37.0893265865743160247802734375</LongitudeDegrees>
            </Position>
            <AltitudeMeters>1122.199951171875</AltitudeMeters>
            <DistanceMeters>NAN</DistanceMeters>
          </Trackpoint>
          <Trackpoint>
            <Time>2021-08-03T08:26:40.000Z</Time>
            <Position>
              <LatitudeDegrees>-15.36547129042446613311767578125</LatitudeDegrees>
              <LongitudeDegrees>37.089351229369640350341796875</LongitudeDegrees>
            </Position>
            <AltitudeMeters>1122.800048828125</AltitudeMeters>
            <DistanceMeters>NAN</DistanceMeters>
          </Trackpoint>
          <Trackpoint>
            <Time>2021-08-03T08:26:48.000Z</Time>
            <Position>
              <LatitudeDegrees>-15.365581177175045013427734375</LatitudeDegrees>
              <LongitudeDegrees>37.089375369250774383544921875</LongitudeDegrees>
            </Position>
            <AltitudeMeters>1122.5999755859375</AltitudeMeters>
            <DistanceMeters>NAN</DistanceMeters>
          </Trackpoint>
          <Trackpoint>
            <Time>2021-08-03T08:26:50.000Z</Time>
            <Position>
              <LatitudeDegrees>-15.36560489796102046966552734375</LatitudeDegrees>
              <LongitudeDegrees>37.08938534371554851531982421875</LongitudeDegrees>
            </Position>
            <AltitudeMeters>1122.5999755859375</AltitudeMeters>
            <DistanceMeters>NAN</DistanceMeters>
          </Trackpoint>
          <Trackpoint>
            <Time>2021-08-03T08:26:53.000Z</Time>
            <Position>
              <LatitudeDegrees>-15.36563037894666194915771484375</LatitudeDegrees>
              <LongitudeDegrees>37.08940319716930389404296875</LongitudeDegrees>
            </Position>
            <AltitudeMeters>1122.199951171875</AltitudeMeters>
            <DistanceMeters>NAN</DistanceMeters>
          </Trackpoint>
          <Trackpoint>
            <Time>2021-08-03T08:26:54.000Z</Time>
            <Position>
              <LatitudeDegrees>-15.3656390123069286346435546875</LatitudeDegrees>
              <LongitudeDegrees>37.0894047059118747711181640625</LongitudeDegrees>
            </Position>
            <AltitudeMeters>1122.199951171875</AltitudeMeters>
            <DistanceMeters>NAN</DistanceMeters>
          </Trackpoint>
          <Trackpoint>
            <Time>2021-08-03T08:26:58.000Z</Time>
            <Position>
              <LatitudeDegrees>-15.36568653769791126251220703125</LatitudeDegrees>
              <LongitudeDegrees>37.08941535092890262603759765625</LongitudeDegrees>
            </Position>
            <AltitudeMeters>1121</AltitudeMeters>
            <DistanceMeters>NAN</DistanceMeters>
          </Trackpoint>
          <Trackpoint>
            <Time>2021-08-03T08:27:00.000Z</Time>
            <Position>
              <LatitudeDegrees>-15.36570489406585693359375</LatitudeDegrees>
              <LongitudeDegrees>37.08941987715661525726318359375</LongitudeDegrees>
            </Position>
            <AltitudeMeters>1120.4000244140625</AltitudeMeters>
            <DistanceMeters>NAN</DistanceMeters>
          </Trackpoint>
          <Trackpoint>
            <Time>2021-08-03T08:27:02.000Z</Time>
            <Position>
              <LatitudeDegrees>-15.36572660319507122039794921875</LatitudeDegrees>
              <LongitudeDegrees>37.0894145965576171875</LongitudeDegrees>
            </Position>
            <AltitudeMeters>1119.5999755859375</AltitudeMeters>
            <DistanceMeters>NAN</DistanceMeters>
          </Trackpoint>
          <Trackpoint>
            <Time>2021-08-03T08:27:04.000Z</Time>
            <Position>
              <LatitudeDegrees>-15.36574780941009521484375</LatitudeDegrees>
              <LongitudeDegrees>37.0894140936434268951416015625</LongitudeDegrees>
            </Position>
            <AltitudeMeters>1119.4000244140625</AltitudeMeters>
            <DistanceMeters>NAN</DistanceMeters>
          </Trackpoint>
          <Trackpoint>
            <Time>2021-08-03T08:27:06.000Z</Time>
            <Position>
              <LatitudeDegrees>-15.365768261253833770751953125</LatitudeDegrees>
              <LongitudeDegrees>37.0894221402704715728759765625</LongitudeDegrees>
            </Position>
            <AltitudeMeters>1118.4000244140625</AltitudeMeters>
            <DistanceMeters>NAN</DistanceMeters>
          </Trackpoint>
          <Trackpoint>
            <Time>2021-08-03T08:27:09.000Z</Time>
            <Position>
              <LatitudeDegrees>-15.3657992742955684661865234375</LatitudeDegrees>
              <LongitudeDegrees>37.08944351412355899810791015625</LongitudeDegrees>
            </Position>
            <AltitudeMeters>1118</AltitudeMeters>
            <DistanceMeters>NAN</DistanceMeters>
          </Trackpoint>
          <Trackpoint>
            <Time>2021-08-03T08:27:19.000Z</Time>
            <Position>
              <LatitudeDegrees>-15.36593162454664707183837890625</LatitudeDegrees>
              <LongitudeDegrees>37.08946815691888332366943359375</LongitudeDegrees>
            </Position>
            <AltitudeMeters>1117.5999755859375</AltitudeMeters>
            <DistanceMeters>NAN</DistanceMeters>
          </Trackpoint>
          <Trackpoint>
            <Time>2021-08-03T08:27:21.000Z</Time>
            <Position>
              <LatitudeDegrees>-15.36595157347619533538818359375</LatitudeDegrees>
              <LongitudeDegrees>37.08948324434459209442138671875</LongitudeDegrees>
            </Position>
            <AltitudeMeters>1117.4000244140625</AltitudeMeters>
            <DistanceMeters>NAN</DistanceMeters>
          </Trackpoint>
          <Trackpoint>
            <Time>2021-08-03T08:27:25.000Z</Time>
            <Position>
              <LatitudeDegrees>-15.365964733064174652099609375</LatitudeDegrees>
              <LongitudeDegrees>37.0895300991833209991455078125</LongitudeDegrees>
            </Position>
            <AltitudeMeters>1117</AltitudeMeters>
            <DistanceMeters>NAN</DistanceMeters>
          </Trackpoint>
          <Trackpoint>
            <Time>2021-08-03T08:27:28.000Z</Time>
            <Position>
              <LatitudeDegrees>-15.365970768034458160400390625</LatitudeDegrees>
              <LongitudeDegrees>37.08956320770084857940673828125</LongitudeDegrees>
            </Position>
            <AltitudeMeters>1117.199951171875</AltitudeMeters>
            <DistanceMeters>NAN</DistanceMeters>
          </Trackpoint>
          <Trackpoint>
            <Time>2021-08-03T08:27:30.000Z</Time>
            <Position>
              <LatitudeDegrees>-15.36598426289856433868408203125</LatitudeDegrees>
              <LongitudeDegrees>37.08958734758198261260986328125</LongitudeDegrees>
            </Position>
            <AltitudeMeters>1117.5999755859375</AltitudeMeters>
            <DistanceMeters>NAN</DistanceMeters>
          </Trackpoint>
          <Trackpoint>
            <Time>2021-08-03T08:27:32.000Z</Time>
            <Position>
              <LatitudeDegrees>-15.365996919572353363037109375</LatitudeDegrees>
              <LongitudeDegrees>37.08960193209350109100341796875</LongitudeDegrees>
            </Position>
            <AltitudeMeters>1118</AltitudeMeters>
            <DistanceMeters>NAN</DistanceMeters>
          </Trackpoint>
          <Trackpoint>
            <Time>2021-08-03T08:27:34.000Z</Time>
            <Position>
              <LatitudeDegrees>-15.3660125099122524261474609375</LatitudeDegrees>
              <LongitudeDegrees>37.0896152593195438385009765625</LongitudeDegrees>
            </Position>
            <AltitudeMeters>1118</AltitudeMeters>
            <DistanceMeters>NAN</DistanceMeters>
          </Trackpoint>
          <Trackpoint>
            <Time>2021-08-03T08:27:38.000Z</Time>
            <Position>
              <LatitudeDegrees>-15.3660467080771923065185546875</LatitudeDegrees>
              <LongitudeDegrees>37.08963923156261444091796875</LongitudeDegrees>
            </Position>
            <AltitudeMeters>1118.4000244140625</AltitudeMeters>
            <DistanceMeters>NAN</DistanceMeters>
          </Trackpoint>
          <Trackpoint>
            <Time>2021-08-03T08:27:42.000Z</Time>
            <Position>
              <LatitudeDegrees>-15.366082079708576202392578125</LatitudeDegrees>
              <LongitudeDegrees>37.089644260704517364501953125</LongitudeDegrees>
            </Position>
            <AltitudeMeters>1120.199951171875</AltitudeMeters>
            <DistanceMeters>NAN</DistanceMeters>
          </Trackpoint>
          <Trackpoint>
            <Time>2021-08-03T08:27:43.000Z</Time>
            <Position>
              <LatitudeDegrees>-15.3660923056304454803466796875</LatitudeDegrees>
              <LongitudeDegrees>37.08964467979967594146728515625</LongitudeDegrees>
            </Position>
            <AltitudeMeters>1120.199951171875</AltitudeMeters>
            <DistanceMeters>NAN</DistanceMeters>
          </Trackpoint>
          <Trackpoint>
            <Time>2021-08-03T08:27:47.000Z</Time>
            <Position>
              <LatitudeDegrees>-15.36613564006984233856201171875</LatitudeDegrees>
              <LongitudeDegrees>37.08965105004608631134033203125</LongitudeDegrees>
            </Position>
            <AltitudeMeters>1121.4000244140625</AltitudeMeters>
            <DistanceMeters>NAN</DistanceMeters>
          </Trackpoint>
          <Trackpoint>
            <Time>2021-08-03T08:27:53.000Z</Time>
            <Position>
              <LatitudeDegrees>-15.3662012703716754913330078125</LatitudeDegrees>
              <LongitudeDegrees>37.08965599536895751953125</LongitudeDegrees>
            </Position>
            <AltitudeMeters>1122.199951171875</AltitudeMeters>
            <DistanceMeters>NAN</DistanceMeters>
          </Trackpoint>
          <Trackpoint>
            <Time>2021-08-03T08:27:55.000Z</Time>
            <Position>
              <LatitudeDegrees>-15.3662213869392871856689453125</LatitudeDegrees>
              <LongitudeDegrees>37.0896585099399089813232421875</LongitudeDegrees>
            </Position>
            <AltitudeMeters>1122.5999755859375</AltitudeMeters>
            <DistanceMeters>NAN</DistanceMeters>
          </Trackpoint>
          <Trackpoint>
            <Time>2021-08-03T08:28:00.000Z</Time>
            <Position>
              <LatitudeDegrees>-15.3662736900150775909423828125</LatitudeDegrees>
              <LongitudeDegrees>37.0896621979773044586181640625</LongitudeDegrees>
            </Position>
            <AltitudeMeters>1123.800048828125</AltitudeMeters>
            <DistanceMeters>NAN</DistanceMeters>
          </Trackpoint>
          <Trackpoint>
            <Time>2021-08-03T08:28:02.000Z</Time>
            <Position>
              <LatitudeDegrees>-15.3662978298962116241455078125</LatitudeDegrees>
              <LongitudeDegrees>37.0896611921489238739013671875</LongitudeDegrees>
            </Position>
            <AltitudeMeters>1123.800048828125</AltitudeMeters>
            <DistanceMeters>NAN</DistanceMeters>
          </Trackpoint>
          <Trackpoint>
            <Time>2021-08-03T08:28:10.000Z</Time>
            <Position>
              <LatitudeDegrees>-15.36638977937400341033935546875</LatitudeDegrees>
              <LongitudeDegrees>37.0896652154624462127685546875</LongitudeDegrees>
            </Position>
            <AltitudeMeters>1124</AltitudeMeters>
            <DistanceMeters>NAN</DistanceMeters>
          </Trackpoint>
          <Trackpoint>
            <Time>2021-08-03T08:28:12.000Z</Time>
            <Position>
              <LatitudeDegrees>-15.36641308106482028961181640625</LatitudeDegrees>
              <LongitudeDegrees>37.08966027013957500457763671875</LongitudeDegrees>
            </Position>
            <AltitudeMeters>1124</AltitudeMeters>
            <DistanceMeters>NAN</DistanceMeters>
          </Trackpoint>
          <Trackpoint>
            <Time>2021-08-03T08:28:15.000Z</Time>
            <Position>
              <LatitudeDegrees>-15.3664446808397769927978515625</LatitudeDegrees>
              <LongitudeDegrees>37.0896466076374053955078125</LongitudeDegrees>
            </Position>
            <AltitudeMeters>1124.199951171875</AltitudeMeters>
            <DistanceMeters>NAN</DistanceMeters>
          </Trackpoint>
          <Trackpoint>
            <Time>2021-08-03T08:28:17.000Z</Time>
            <Position>
              <LatitudeDegrees>-15.3664607740938663482666015625</LatitudeDegrees>
              <LongitudeDegrees>37.08963445387780666351318359375</LongitudeDegrees>
            </Position>
            <AltitudeMeters>1124.4000244140625</AltitudeMeters>
            <DistanceMeters>NAN</DistanceMeters>
          </Trackpoint>
          <Trackpoint>
            <Time>2021-08-03T08:28:19.000Z</Time>
            <Position>
              <LatitudeDegrees>-15.36647393368184566497802734375</LatitudeDegrees>
              <LongitudeDegrees>37.0896192826330661773681640625</LongitudeDegrees>
            </Position>
            <AltitudeMeters>1124.4000244140625</AltitudeMeters>
            <DistanceMeters>NAN</DistanceMeters>
          </Trackpoint>
          <Trackpoint>
            <Time>2021-08-03T08:28:21.000Z</Time>
            <Position>
              <LatitudeDegrees>-15.366491787135601043701171875</LatitudeDegrees>
              <LongitudeDegrees>37.089608050882816314697265625</LongitudeDegrees>
            </Position>
            <AltitudeMeters>1124.5999755859375</AltitudeMeters>
            <DistanceMeters>NAN</DistanceMeters>
          </Trackpoint>
          <Trackpoint>
            <Time>2021-08-03T08:28:22.000Z</Time>
            <Position>
              <LatitudeDegrees>-15.366502515971660614013671875</LatitudeDegrees>
              <LongitudeDegrees>37.0896021835505962371826171875</LongitudeDegrees>
            </Position>
            <AltitudeMeters>1124.5999755859375</AltitudeMeters>
            <DistanceMeters>NAN</DistanceMeters>
          </Trackpoint>
          <Trackpoint>
            <Time>2021-08-03T08:28:31.000Z</Time>
            <Position>
              <LatitudeDegrees>-15.366586335003376007080078125</LatitudeDegrees>
              <LongitudeDegrees>37.0895522274076938629150390625</LongitudeDegrees>
            </Position>
            <AltitudeMeters>1123.800048828125</AltitudeMeters>
            <DistanceMeters>NAN</DistanceMeters>
          </Trackpoint>
          <Trackpoint>
            <Time>2021-08-03T08:28:33.000Z</Time>
            <Position>
              <LatitudeDegrees>-15.36660083569586277008056640625</LatitudeDegrees>
              <LongitudeDegrees>37.08954040892422199249267578125</LongitudeDegrees>
            </Position>
            <AltitudeMeters>1123.800048828125</AltitudeMeters>
            <DistanceMeters>NAN</DistanceMeters>
          </Trackpoint>
          <Trackpoint>
            <Time>2021-08-03T08:28:40.000Z</Time>
            <Position>
              <LatitudeDegrees>-15.36668415181338787078857421875</LatitudeDegrees>
              <LongitudeDegrees>37.08951459266245365142822265625</LongitudeDegrees>
            </Position>
            <AltitudeMeters>1123.4000244140625</AltitudeMeters>
            <DistanceMeters>NAN</DistanceMeters>
          </Trackpoint>
          <Trackpoint>
            <Time>2021-08-03T08:28:41.000Z</Time>
            <Position>
              <LatitudeDegrees>-15.366690270602703094482421875</LatitudeDegrees>
              <LongitudeDegrees>37.089516855776309967041015625</LongitudeDegrees>
            </Position>
            <AltitudeMeters>1123</AltitudeMeters>
            <DistanceMeters>NAN</DistanceMeters>
          </Trackpoint>
          <Trackpoint>
            <Time>2021-08-03T08:28:44.000Z</Time>
            <Position>
              <LatitudeDegrees>-15.3667139075696468353271484375</LatitudeDegrees>
              <LongitudeDegrees>37.0895277522504329681396484375</LongitudeDegrees>
            </Position>
            <AltitudeMeters>1123</AltitudeMeters>
            <DistanceMeters>NAN</DistanceMeters>
          </Trackpoint>
          <Trackpoint>
            <Time>2021-08-03T08:28:45.000Z</Time>
            <Position>
              <LatitudeDegrees>-15.36672455258667469024658203125</LatitudeDegrees>
              <LongitudeDegrees>37.089531607925891876220703125</LongitudeDegrees>
            </Position>
            <AltitudeMeters>1122.5999755859375</AltitudeMeters>
            <DistanceMeters>NAN</DistanceMeters>
          </Trackpoint>
          <Trackpoint>
            <Time>2021-08-03T08:28:47.000Z</Time>
            <Position>
              <LatitudeDegrees>-15.36674483679234981536865234375</LatitudeDegrees>
              <LongitudeDegrees>37.0895461924374103546142578125</LongitudeDegrees>
            </Position>
            <AltitudeMeters>1122.4000244140625</AltitudeMeters>
            <DistanceMeters>NAN</DistanceMeters>
          </Trackpoint>
          <Trackpoint>
            <Time>2021-08-03T08:28:49.000Z</Time>
            <Position>
              <LatitudeDegrees>-15.3667675517499446868896484375</LatitudeDegrees>
              <LongitudeDegrees>37.08955742418766021728515625</LongitudeDegrees>
            </Position>
            <AltitudeMeters>1122.199951171875</AltitudeMeters>
            <DistanceMeters>NAN</DistanceMeters>
          </Trackpoint>
          <Trackpoint>
            <Time>2021-08-03T08:28:52.000Z</Time>
            <Position>
              <LatitudeDegrees>-15.36681038327515125274658203125</LatitudeDegrees>
              <LongitudeDegrees>37.0895626209676265716552734375</LongitudeDegrees>
            </Position>
            <AltitudeMeters>1122</AltitudeMeters>
            <DistanceMeters>NAN</DistanceMeters>
          </Trackpoint>
          <Trackpoint>
            <Time>2021-08-03T08:28:54.000Z</Time>
            <Position>
              <LatitudeDegrees>-15.366839803755283355712890625</LatitudeDegrees>
              <LongitudeDegrees>37.0895723439753055572509765625</LongitudeDegrees>
            </Position>
            <AltitudeMeters>1122</AltitudeMeters>
            <DistanceMeters>NAN</DistanceMeters>
          </Trackpoint>
          <Trackpoint>
            <Time>2021-08-03T08:28:55.000Z</Time>
            <Position>
              <LatitudeDegrees>-15.3668550588190555572509765625</LatitudeDegrees>
              <LongitudeDegrees>37.08957762457430362701416015625</LongitudeDegrees>
            </Position>
            <AltitudeMeters>1121.800048828125</AltitudeMeters>
            <DistanceMeters>NAN</DistanceMeters>
          </Trackpoint>
          <Trackpoint>
            <Time>2021-08-03T08:28:56.000Z</Time>
            <Position>
              <LatitudeDegrees>-15.36686805076897144317626953125</LatitudeDegrees>
              <LongitudeDegrees>37.08958164788782596588134765625</LongitudeDegrees>
            </Position>
            <AltitudeMeters>1121.199951171875</AltitudeMeters>
            <DistanceMeters>NAN</DistanceMeters>
          </Trackpoint>
          <Trackpoint>
            <Time>2021-08-03T08:29:01.000Z</Time>
            <Position>
              <LatitudeDegrees>-15.36692194640636444091796875</LatitudeDegrees>
              <LongitudeDegrees>37.08960327319800853729248046875</LongitudeDegrees>
            </Position>
            <AltitudeMeters>1120.5999755859375</AltitudeMeters>
            <DistanceMeters>NAN</DistanceMeters>
          </Trackpoint>
          <Trackpoint>
            <Time>2021-08-03T08:29:04.000Z</Time>
            <Position>
              <LatitudeDegrees>-15.3669549711048603057861328125</LatitudeDegrees>
              <LongitudeDegrees>37.08961014635860919952392578125</LongitudeDegrees>
            </Position>
            <AltitudeMeters>1120.800048828125</AltitudeMeters>
            <DistanceMeters>NAN</DistanceMeters>
          </Trackpoint>
          <Trackpoint>
            <Time>2021-08-03T08:29:12.000Z</Time>
            <Position>
              <LatitudeDegrees>-15.3670485131442546844482421875</LatitudeDegrees>
              <LongitudeDegrees>37.08961215801537036895751953125</LongitudeDegrees>
            </Position>
            <AltitudeMeters>1120.800048828125</AltitudeMeters>
            <DistanceMeters>NAN</DistanceMeters>
          </Trackpoint>
          <Trackpoint>
            <Time>2021-08-03T08:29:18.000Z</Time>
            <Position>
              <LatitudeDegrees>-15.3671189211308956146240234375</LatitudeDegrees>
              <LongitudeDegrees>37.089588604867458343505859375</LongitudeDegrees>
            </Position>
            <AltitudeMeters>1120.800048828125</AltitudeMeters>
            <DistanceMeters>NAN</DistanceMeters>
          </Trackpoint>
          <Trackpoint>
            <Time>2021-08-03T08:29:19.000Z</Time>
            <Position>
              <LatitudeDegrees>-15.36713057197630405426025390625</LatitudeDegrees>
              <LongitudeDegrees>37.0895864255726337432861328125</LongitudeDegrees>
            </Position>
            <AltitudeMeters>1120.800048828125</AltitudeMeters>
            <DistanceMeters>NAN</DistanceMeters>
          </Trackpoint>
          <Trackpoint>
            <Time>2021-08-03T08:29:20.000Z</Time>
            <Position>
              <LatitudeDegrees>-15.3671438992023468017578125</LatitudeDegrees>
              <LongitudeDegrees>37.0895817317068576812744140625</LongitudeDegrees>
            </Position>
            <AltitudeMeters>1120.800048828125</AltitudeMeters>
            <DistanceMeters>NAN</DistanceMeters>
          </Trackpoint>
          <Trackpoint>
            <Time>2021-08-03T08:29:24.000Z</Time>
            <Position>
              <LatitudeDegrees>-15.36718639545142650604248046875</LatitudeDegrees>
              <LongitudeDegrees>37.0895616151392459869384765625</LongitudeDegrees>
            </Position>
            <AltitudeMeters>1120.4000244140625</AltitudeMeters>
            <DistanceMeters>NAN</DistanceMeters>
          </Trackpoint>
          <Trackpoint>
            <Time>2021-08-03T08:29:25.000Z</Time>
            <Position>
              <LatitudeDegrees>-15.36719578318297863006591796875</LatitudeDegrees>
              <LongitudeDegrees>37.08955943584442138671875</LongitudeDegrees>
            </Position>
            <AltitudeMeters>1120.199951171875</AltitudeMeters>
            <DistanceMeters>NAN</DistanceMeters>
          </Trackpoint>
          <Trackpoint>
            <Time>2021-08-03T08:29:26.000Z</Time>
            <Position>
              <LatitudeDegrees>-15.36720500327646732330322265625</LatitudeDegrees>
              <LongitudeDegrees>37.089556418359279632568359375</LongitudeDegrees>
            </Position>
            <AltitudeMeters>1120.199951171875</AltitudeMeters>
            <DistanceMeters>NAN</DistanceMeters>
          </Trackpoint>
          <Trackpoint>
            <Time>2021-08-03T08:29:29.000Z</Time>
            <Position>
              <LatitudeDegrees>-15.367241464555263519287109375</LatitudeDegrees>
              <LongitudeDegrees>37.08954275585711002349853515625</LongitudeDegrees>
            </Position>
            <AltitudeMeters>1120.199951171875</AltitudeMeters>
            <DistanceMeters>NAN</DistanceMeters>
          </Trackpoint>
          <Trackpoint>
            <Time>2021-08-03T08:29:38.000Z</Time>
            <Position>
              <LatitudeDegrees>-15.367362499237060546875</LatitudeDegrees>
              <LongitudeDegrees>37.089522890746593475341796875</LongitudeDegrees>
            </Position>
            <AltitudeMeters>1120.4000244140625</AltitudeMeters>
            <DistanceMeters>NAN</DistanceMeters>
          </Trackpoint>
          <Trackpoint>
            <Time>2021-08-03T08:29:45.000Z</Time>
            <Position>
              <LatitudeDegrees>-15.3674414567649364471435546875</LatitudeDegrees>
              <LongitudeDegrees>37.0895160175859928131103515625</LongitudeDegrees>
            </Position>
            <AltitudeMeters>1121.199951171875</AltitudeMeters>
            <DistanceMeters>NAN</DistanceMeters>
          </Trackpoint>
          <Trackpoint>
            <Time>2021-08-03T08:29:47.000Z</Time>
            <Position>
              <LatitudeDegrees>-15.36747171543538570404052734375</LatitudeDegrees>
              <LongitudeDegrees>37.08951123990118503570556640625</LongitudeDegrees>
            </Position>
            <AltitudeMeters>1121.4000244140625</AltitudeMeters>
            <DistanceMeters>NAN</DistanceMeters>
          </Trackpoint>
          <Trackpoint>
            <Time>2021-08-03T08:29:56.000Z</Time>
            <Position>
              <LatitudeDegrees>-15.36758436821401119232177734375</LatitudeDegrees>
              <LongitudeDegrees>37.08950788713991641998291015625</LongitudeDegrees>
            </Position>
            <AltitudeMeters>1122.199951171875</AltitudeMeters>
            <DistanceMeters>NAN</DistanceMeters>
          </Trackpoint>
          <Trackpoint>
            <Time>2021-08-03T08:29:57.000Z</Time>
            <Position>
              <LatitudeDegrees>-15.36759610287845134735107421875</LatitudeDegrees>
              <LongitudeDegrees>37.08950654603540897369384765625</LongitudeDegrees>
            </Position>
            <AltitudeMeters>1122.199951171875</AltitudeMeters>
            <DistanceMeters>NAN</DistanceMeters>
          </Trackpoint>
          <Trackpoint>
            <Time>2021-08-03T08:30:01.000Z</Time>
            <Position>
              <LatitudeDegrees>-15.3676442988216876983642578125</LatitudeDegrees>
              <LongitudeDegrees>37.089492715895175933837890625</LongitudeDegrees>
            </Position>
            <AltitudeMeters>1122.199951171875</AltitudeMeters>
            <DistanceMeters>NAN</DistanceMeters>
          </Trackpoint>
          <Trackpoint>
            <Time>2021-08-03T08:30:03.000Z</Time>
            <Position>
              <LatitudeDegrees>-15.3676660917699337005615234375</LatitudeDegrees>
              <LongitudeDegrees>37.08949045278131961822509765625</LongitudeDegrees>
            </Position>
            <AltitudeMeters>1122.5999755859375</AltitudeMeters>
            <DistanceMeters>NAN</DistanceMeters>
          </Trackpoint>
          <Trackpoint>
            <Time>2021-08-03T08:30:05.000Z</Time>
            <Position>
              <LatitudeDegrees>-15.36768914200365543365478515625</LatitudeDegrees>
              <LongitudeDegrees>37.0894878543913364410400390625</LongitudeDegrees>
            </Position>
            <AltitudeMeters>1122.800048828125</AltitudeMeters>
            <DistanceMeters>NAN</DistanceMeters>
          </Trackpoint>
          <Trackpoint>
            <Time>2021-08-03T08:30:13.000Z</Time>
            <Position>
              <LatitudeDegrees>-15.36779006011784076690673828125</LatitudeDegrees>
              <LongitudeDegrees>37.08949397318065166473388671875</LongitudeDegrees>
            </Position>
            <AltitudeMeters>1123.4000244140625</AltitudeMeters>
            <DistanceMeters>NAN</DistanceMeters>
          </Trackpoint>
          <Trackpoint>
            <Time>2021-08-03T08:30:14.000Z</Time>
            <Position>
              <LatitudeDegrees>-15.3678032197058200836181640625</LatitudeDegrees>
              <LongitudeDegrees>37.08949632011353969573974609375</LongitudeDegrees>
            </Position>
            <AltitudeMeters>1123.800048828125</AltitudeMeters>
            <DistanceMeters>NAN</DistanceMeters>
          </Trackpoint>
          <Trackpoint>
            <Time>2021-08-03T08:30:20.000Z</Time>
            <Position>
              <LatitudeDegrees>-15.36787924356758594512939453125</LatitudeDegrees>
              <LongitudeDegrees>37.08949816413223743438720703125</LongitudeDegrees>
            </Position>
            <AltitudeMeters>1124.199951171875</AltitudeMeters>
            <DistanceMeters>NAN</DistanceMeters>
          </Trackpoint>
          <Trackpoint>
            <Time>2021-08-03T08:30:24.000Z</Time>
            <Position>
              <LatitudeDegrees>-15.36792400293052196502685546875</LatitudeDegrees>
              <LongitudeDegrees>37.08949414081871509552001953125</LongitudeDegrees>
            </Position>
            <AltitudeMeters>1125</AltitudeMeters>
            <DistanceMeters>NAN</DistanceMeters>
          </Trackpoint>
          <Trackpoint>
            <Time>2021-08-03T08:30:25.000Z</Time>
            <Position>
              <LatitudeDegrees>-15.36793473176658153533935546875</LatitudeDegrees>
              <LongitudeDegrees>37.0894975773990154266357421875</LongitudeDegrees>
            </Position>
            <AltitudeMeters>1125.4000244140625</AltitudeMeters>
            <DistanceMeters>NAN</DistanceMeters>
          </Trackpoint>
          <Trackpoint>
            <Time>2021-08-03T08:30:30.000Z</Time>
            <Position>
              <LatitudeDegrees>-15.36799709312617778778076171875</LatitudeDegrees>
              <LongitudeDegrees>37.08950755186378955841064453125</LongitudeDegrees>
            </Position>
            <AltitudeMeters>1126</AltitudeMeters>
            <DistanceMeters>NAN</DistanceMeters>
          </Trackpoint>
          <Trackpoint>
            <Time>2021-08-03T08:30:33.000Z</Time>
            <Position>
              <LatitudeDegrees>-15.36803305149078369140625</LatitudeDegrees>
              <LongitudeDegrees>37.0895099826157093048095703125</LongitudeDegrees>
            </Position>
            <AltitudeMeters>1126.4000244140625</AltitudeMeters>
            <DistanceMeters>NAN</DistanceMeters>
          </Trackpoint>
          <Trackpoint>
            <Time>2021-08-03T08:30:43.000Z</Time>
            <Position>
              <LatitudeDegrees>-15.3681577742099761962890625</LatitudeDegrees>
              <LongitudeDegrees>37.08953320048749446868896484375</LongitudeDegrees>
            </Position>
            <AltitudeMeters>1126.800048828125</AltitudeMeters>
            <DistanceMeters>NAN</DistanceMeters>
          </Trackpoint>
          <Trackpoint>
            <Time>2021-08-03T08:30:47.000Z</Time>
            <Position>
              <LatitudeDegrees>-15.36819959990680217742919921875</LatitudeDegrees>
              <LongitudeDegrees>37.08953638561069965362548828125</LongitudeDegrees>
            </Position>
            <AltitudeMeters>1127</AltitudeMeters>
            <DistanceMeters>NAN</DistanceMeters>
          </Trackpoint>
          <Trackpoint>
            <Time>2021-08-03T08:30:51.000Z</Time>
            <Position>
              <LatitudeDegrees>-15.36825257353484630584716796875</LatitudeDegrees>
              <LongitudeDegrees>37.089535631239414215087890625</LongitudeDegrees>
            </Position>
            <AltitudeMeters>1127.5999755859375</AltitudeMeters>
            <DistanceMeters>NAN</DistanceMeters>
          </Trackpoint>
          <Trackpoint>
            <Time>2021-08-03T08:30:55.000Z</Time>
            <Position>
              <LatitudeDegrees>-15.368297584354877471923828125</LatitudeDegrees>
              <LongitudeDegrees>37.0895324461162090301513671875</LongitudeDegrees>
            </Position>
            <AltitudeMeters>1128</AltitudeMeters>
            <DistanceMeters>NAN</DistanceMeters>
          </Trackpoint>
          <Trackpoint>
            <Time>2021-08-03T08:30:57.000Z</Time>
            <Position>
              <LatitudeDegrees>-15.3683218918740749359130859375</LatitudeDegrees>
              <LongitudeDegrees>37.08953797817230224609375</LongitudeDegrees>
            </Position>
            <AltitudeMeters>1128.199951171875</AltitudeMeters>
            <DistanceMeters>NAN</DistanceMeters>
          </Trackpoint>
          <Trackpoint>
            <Time>2021-08-03T08:31:03.000Z</Time>
            <Position>
              <LatitudeDegrees>-15.36839422769844532012939453125</LatitudeDegrees>
              <LongitudeDegrees>37.0895634591579437255859375</LongitudeDegrees>
            </Position>
            <AltitudeMeters>1128.199951171875</AltitudeMeters>
            <DistanceMeters>NAN</DistanceMeters>
          </Trackpoint>
          <Trackpoint>
            <Time>2021-08-03T08:31:11.000Z</Time>
            <Position>
              <LatitudeDegrees>-15.36849129013717174530029296875</LatitudeDegrees>
              <LongitudeDegrees>37.0895854197442531585693359375</LongitudeDegrees>
            </Position>
            <AltitudeMeters>1128.800048828125</AltitudeMeters>
            <DistanceMeters>NAN</DistanceMeters>
          </Trackpoint>
          <Trackpoint>
            <Time>2021-08-03T08:31:15.000Z</Time>
            <Position>
              <LatitudeDegrees>-15.368532277643680572509765625</LatitudeDegrees>
              <LongitudeDegrees>37.08960310555994510650634765625</LongitudeDegrees>
            </Position>
            <AltitudeMeters>1129.4000244140625</AltitudeMeters>
            <DistanceMeters>NAN</DistanceMeters>
          </Trackpoint>
          <Trackpoint>
            <Time>2021-08-03T08:31:18.000Z</Time>
            <Position>
              <LatitudeDegrees>-15.3685632906854152679443359375</LatitudeDegrees>
              <LongitudeDegrees>37.0896112360060214996337890625</LongitudeDegrees>
            </Position>
            <AltitudeMeters>1130</AltitudeMeters>
            <DistanceMeters>NAN</DistanceMeters>
          </Trackpoint>
          <Trackpoint>
            <Time>2021-08-03T08:31:19.000Z</Time>
            <Position>
              <LatitudeDegrees>-15.36857343278825283050537109375</LatitudeDegrees>
              <LongitudeDegrees>37.089614756405353546142578125</LongitudeDegrees>
            </Position>
            <AltitudeMeters>1130</AltitudeMeters>
            <DistanceMeters>NAN</DistanceMeters>
          </Trackpoint>
          <Trackpoint>
            <Time>2021-08-03T08:31:22.000Z</Time>
            <Position>
              <LatitudeDegrees>-15.36859991960227489471435546875</LatitudeDegrees>
              <LongitudeDegrees>37.08962053991854190826416015625</LongitudeDegrees>
            </Position>
            <AltitudeMeters>1130.800048828125</AltitudeMeters>
            <DistanceMeters>NAN</DistanceMeters>
          </Trackpoint>
          <Trackpoint>
            <Time>2021-08-03T08:31:23.000Z</Time>
            <Position>
              <LatitudeDegrees>-15.36861165426671504974365234375</LatitudeDegrees>
              <LongitudeDegrees>37.0896219648420810699462890625</LongitudeDegrees>
            </Position>
            <AltitudeMeters>1130.800048828125</AltitudeMeters>
            <DistanceMeters>NAN</DistanceMeters>
          </Trackpoint>
          <Trackpoint>
            <Time>2021-08-03T08:31:25.000Z</Time>
            <Position>
              <LatitudeDegrees>-15.3686347045004367828369140625</LatitudeDegrees>
              <LongitudeDegrees>37.08963311277329921722412109375</LongitudeDegrees>
            </Position>
            <AltitudeMeters>1132.199951171875</AltitudeMeters>
            <DistanceMeters>NAN</DistanceMeters>
          </Trackpoint>
          <Trackpoint>
            <Time>2021-08-03T08:31:26.000Z</Time>
            <Position>
              <LatitudeDegrees>-15.368646942079067230224609375</LatitudeDegrees>
              <LongitudeDegrees>37.0896383933722972869873046875</LongitudeDegrees>
            </Position>
            <AltitudeMeters>1132.5999755859375</AltitudeMeters>
            <DistanceMeters>NAN</DistanceMeters>
          </Trackpoint>
          <Trackpoint>
            <Time>2021-08-03T08:31:27.000Z</Time>
            <Position>
              <LatitudeDegrees>-15.3686591796576976776123046875</LatitudeDegrees>
              <LongitudeDegrees>37.08964400924742221832275390625</LongitudeDegrees>
            </Position>
            <AltitudeMeters>1132.800048828125</AltitudeMeters>
            <DistanceMeters>NAN</DistanceMeters>
          </Trackpoint>
          <Trackpoint>
            <Time>2021-08-03T08:31:31.000Z</Time>
            <Position>
              <LatitudeDegrees>-15.36869614385068416595458984375</LatitudeDegrees>
              <LongitudeDegrees>37.089673094451427459716796875</LongitudeDegrees>
            </Position>
            <AltitudeMeters>1133.199951171875</AltitudeMeters>
            <DistanceMeters>NAN</DistanceMeters>
          </Trackpoint>
          <Trackpoint>
            <Time>2021-08-03T08:31:33.000Z</Time>
            <Position>
              <LatitudeDegrees>-15.368711985647678375244140625</LatitudeDegrees>
              <LongitudeDegrees>37.08968742750585079193115234375</LongitudeDegrees>
            </Position>
            <AltitudeMeters>1133.4000244140625</AltitudeMeters>
            <DistanceMeters>NAN</DistanceMeters>
          </Trackpoint>
          <Trackpoint>
            <Time>2021-08-03T08:31:36.000Z</Time>
            <Position>
              <LatitudeDegrees>-15.36873872391879558563232421875</LatitudeDegrees>
              <LongitudeDegrees>37.08971173502504825592041015625</LongitudeDegrees>
            </Position>
            <AltitudeMeters>1133.4000244140625</AltitudeMeters>
            <DistanceMeters>NAN</DistanceMeters>
          </Trackpoint>
          <Trackpoint>
            <Time>2021-08-03T08:31:37.000Z</Time>
            <Position>
              <LatitudeDegrees>-15.36874777637422084808349609375</LatitudeDegrees>
              <LongitudeDegrees>37.08972162567079067230224609375</LongitudeDegrees>
            </Position>
            <AltitudeMeters>1133.4000244140625</AltitudeMeters>
            <DistanceMeters>NAN</DistanceMeters>
          </Trackpoint>
          <Trackpoint>
            <Time>2021-08-03T08:31:43.000Z</Time>
            <Position>
              <LatitudeDegrees>-15.3688036836683750152587890625</LatitudeDegrees>
              <LongitudeDegrees>37.089760601520538330078125</LongitudeDegrees>
            </Position>
            <AltitudeMeters>1133.5999755859375</AltitudeMeters>
            <DistanceMeters>NAN</DistanceMeters>
          </Trackpoint>
          <Trackpoint>
            <Time>2021-08-03T08:31:47.000Z</Time>
            <Position>
              <LatitudeDegrees>-15.368848107755184173583984375</LatitudeDegrees>
              <LongitudeDegrees>37.08978138864040374755859375</LongitudeDegrees>
            </Position>
            <AltitudeMeters>1133.5999755859375</AltitudeMeters>
            <DistanceMeters>NAN</DistanceMeters>
          </Trackpoint>
          <Trackpoint>
            <Time>2021-08-03T08:31:51.000Z</Time>
            <Position>
              <LatitudeDegrees>-15.36889337003231048583984375</LatitudeDegrees>
              <LongitudeDegrees>37.08979605697095394134521484375</LongitudeDegrees>
            </Position>
            <AltitudeMeters>1132.5999755859375</AltitudeMeters>
            <DistanceMeters>NAN</DistanceMeters>
          </Trackpoint>
          <Trackpoint>
            <Time>2021-08-03T08:31:56.000Z</Time>
            <Position>
              <LatitudeDegrees>-15.36895682103931903839111328125</LatitudeDegrees>
              <LongitudeDegrees>37.08981282077729701995849609375</LongitudeDegrees>
            </Position>
            <AltitudeMeters>1132.199951171875</AltitudeMeters>
            <DistanceMeters>NAN</DistanceMeters>
          </Trackpoint>
          <Trackpoint>
            <Time>2021-08-03T08:32:00.000Z</Time>
            <Position>
              <LatitudeDegrees>-15.36900023929774761199951171875</LatitudeDegrees>
              <LongitudeDegrees>37.08982338197529315948486328125</LongitudeDegrees>
            </Position>
            <AltitudeMeters>1131.4000244140625</AltitudeMeters>
            <DistanceMeters>NAN</DistanceMeters>
          </Trackpoint>
          <Trackpoint>
            <Time>2021-08-03T08:32:02.000Z</Time>
            <Position>
              <LatitudeDegrees>-15.36902572028338909149169921875</LatitudeDegrees>
              <LongitudeDegrees>37.0898289978504180908203125</LongitudeDegrees>
            </Position>
            <AltitudeMeters>1131.4000244140625</AltitudeMeters>
            <DistanceMeters>NAN</DistanceMeters>
          </Trackpoint>
          <Trackpoint>
            <Time>2021-08-03T08:32:03.000Z</Time>
            <Position>
              <LatitudeDegrees>-15.3690402209758758544921875</LatitudeDegrees>
              <LongitudeDegrees>37.089830338954925537109375</LongitudeDegrees>
            </Position>
            <AltitudeMeters>1131</AltitudeMeters>
            <DistanceMeters>NAN</DistanceMeters>
          </Trackpoint>
          <Trackpoint>
            <Time>2021-08-03T08:32:05.000Z</Time>
            <Position>
              <LatitudeDegrees>-15.369066707789897918701171875</LatitudeDegrees>
              <LongitudeDegrees>37.08983411081135272979736328125</LongitudeDegrees>
            </Position>
            <AltitudeMeters>1130.800048828125</AltitudeMeters>
            <DistanceMeters>NAN</DistanceMeters>
          </Trackpoint>
          <Trackpoint>
            <Time>2021-08-03T08:32:06.000Z</Time>
            <Position>
              <LatitudeDegrees>-15.3690802864730358123779296875</LatitudeDegrees>
              <LongitudeDegrees>37.08983511663973331451416015625</LongitudeDegrees>
            </Position>
            <AltitudeMeters>1130.800048828125</AltitudeMeters>
            <DistanceMeters>NAN</DistanceMeters>
          </Trackpoint>
          <Trackpoint>
            <Time>2021-08-03T08:32:08.000Z</Time>
            <Position>
              <LatitudeDegrees>-15.3691045939922332763671875</LatitudeDegrees>
              <LongitudeDegrees>37.08983863703906536102294921875</LongitudeDegrees>
            </Position>
            <AltitudeMeters>1130.800048828125</AltitudeMeters>
            <DistanceMeters>NAN</DistanceMeters>
          </Trackpoint>
          <Trackpoint>
            <Time>2021-08-03T08:32:10.000Z</Time>
            <Position>
              <LatitudeDegrees>-15.369129739701747894287109375</LatitudeDegrees>
              <LongitudeDegrees>37.08984299562871456146240234375</LongitudeDegrees>
            </Position>
            <AltitudeMeters>1130.5999755859375</AltitudeMeters>
            <DistanceMeters>NAN</DistanceMeters>
          </Trackpoint>
          <Trackpoint>
            <Time>2021-08-03T08:32:14.000Z</Time>
            <Position>
              <LatitudeDegrees>-15.369180031120777130126953125</LatitudeDegrees>
              <LongitudeDegrees>37.08985188044607639312744140625</LongitudeDegrees>
            </Position>
            <AltitudeMeters>1130.5999755859375</AltitudeMeters>
            <DistanceMeters>NAN</DistanceMeters>
          </Trackpoint>
          <Trackpoint>
            <Time>2021-08-03T08:32:18.000Z</Time>
            <Position>
              <LatitudeDegrees>-15.3692298196256160736083984375</LatitudeDegrees>
              <LongitudeDegrees>37.08986059762537479400634765625</LongitudeDegrees>
            </Position>
            <AltitudeMeters>1130.5999755859375</AltitudeMeters>
            <DistanceMeters>NAN</DistanceMeters>
          </Trackpoint>
          <Trackpoint>
            <Time>2021-08-03T08:32:19.000Z</Time>
            <Position>
              <LatitudeDegrees>-15.36923878826200962066650390625</LatitudeDegrees>
              <LongitudeDegrees>37.0898633636534214019775390625</LongitudeDegrees>
            </Position>
            <AltitudeMeters>1130.4000244140625</AltitudeMeters>
            <DistanceMeters>NAN</DistanceMeters>
          </Trackpoint>
          <Trackpoint>
            <Time>2021-08-03T08:32:23.000Z</Time>
            <Position>
              <LatitudeDegrees>-15.3692787699401378631591796875</LatitudeDegrees>
              <LongitudeDegrees>37.08988239057362079620361328125</LongitudeDegrees>
            </Position>
            <AltitudeMeters>1129.800048828125</AltitudeMeters>
            <DistanceMeters>NAN</DistanceMeters>
          </Trackpoint>
          <Trackpoint>
            <Time>2021-08-03T08:32:24.000Z</Time>
            <Position>
              <LatitudeDegrees>-15.3692908398807048797607421875</LatitudeDegrees>
              <LongitudeDegrees>37.08988658152520656585693359375</LongitudeDegrees>
            </Position>
            <AltitudeMeters>1129.800048828125</AltitudeMeters>
            <DistanceMeters>NAN</DistanceMeters>
          </Trackpoint>
          <Trackpoint>
            <Time>2021-08-03T08:32:27.000Z</Time>
            <Position>
              <LatitudeDegrees>-15.369328223168849945068359375</LatitudeDegrees>
              <LongitudeDegrees>37.08990502171218395233154296875</LongitudeDegrees>
            </Position>
            <AltitudeMeters>1130.4000244140625</AltitudeMeters>
            <DistanceMeters>NAN</DistanceMeters>
          </Trackpoint>
          <Trackpoint>
            <Time>2021-08-03T08:32:28.000Z</Time>
            <Position>
              <LatitudeDegrees>-15.36933802999556064605712890625</LatitudeDegrees>
              <LongitudeDegrees>37.08990904502570629119873046875</LongitudeDegrees>
            </Position>
            <AltitudeMeters>1130.5999755859375</AltitudeMeters>
            <DistanceMeters>NAN</DistanceMeters>
          </Trackpoint>
          <Trackpoint>
            <Time>2021-08-03T08:32:32.000Z</Time>
            <Position>
              <LatitudeDegrees>-15.36937893368303775787353515625</LatitudeDegrees>
              <LongitudeDegrees>37.089927233755588531494140625</LongitudeDegrees>
            </Position>
            <AltitudeMeters>1130.800048828125</AltitudeMeters>
            <DistanceMeters>NAN</DistanceMeters>
          </Trackpoint>
          <Trackpoint>
            <Time>2021-08-03T08:32:34.000Z</Time>
            <Position>
              <LatitudeDegrees>-15.36940542049705982208251953125</LatitudeDegrees>
              <LongitudeDegrees>37.0899290777742862701416015625</LongitudeDegrees>
            </Position>
            <AltitudeMeters>1131</AltitudeMeters>
            <DistanceMeters>NAN</DistanceMeters>
          </Trackpoint>
          <Trackpoint>
            <Time>2021-08-03T08:32:35.000Z</Time>
            <Position>
              <LatitudeDegrees>-15.36941707134246826171875</LatitudeDegrees>
              <LongitudeDegrees>37.0899314247071743011474609375</LongitudeDegrees>
            </Position>
            <AltitudeMeters>1131.4000244140625</AltitudeMeters>
            <DistanceMeters>NAN</DistanceMeters>
          </Trackpoint>
          <Trackpoint>
            <Time>2021-08-03T08:32:36.000Z</Time>
            <Position>
              <LatitudeDegrees>-15.369429476559162139892578125</LatitudeDegrees>
              <LongitudeDegrees>37.08993293344974517822265625</LongitudeDegrees>
            </Position>
            <AltitudeMeters>1131.5999755859375</AltitudeMeters>
            <DistanceMeters>NAN</DistanceMeters>
          </Trackpoint>
          <Trackpoint>
            <Time>2021-08-03T08:32:45.000Z</Time>
            <Position>
              <LatitudeDegrees>-15.3695376031100749969482421875</LatitudeDegrees>
              <LongitudeDegrees>37.0899411477148532867431640625</LongitudeDegrees>
            </Position>
            <AltitudeMeters>1131.4000244140625</AltitudeMeters>
            <DistanceMeters>NAN</DistanceMeters>
          </Trackpoint>
          <Trackpoint>
            <Time>2021-08-03T08:32:46.000Z</Time>
            <Position>
              <LatitudeDegrees>-15.36955193616449832916259765625</LatitudeDegrees>
              <LongitudeDegrees>37.08994123153388500213623046875</LongitudeDegrees>
            </Position>
            <AltitudeMeters>1131.4000244140625</AltitudeMeters>
            <DistanceMeters>NAN</DistanceMeters>
          </Trackpoint>
          <Trackpoint>
            <Time>2021-08-03T08:32:53.000Z</Time>
            <Position>
              <LatitudeDegrees>-15.369631983339786529541015625</LatitudeDegrees>
              <LongitudeDegrees>37.0899418182671070098876953125</LongitudeDegrees>
            </Position>
            <AltitudeMeters>1131</AltitudeMeters>
            <DistanceMeters>NAN</DistanceMeters>
          </Trackpoint>
          <Trackpoint>
            <Time>2021-08-03T08:32:55.000Z</Time>
            <Position>
              <LatitudeDegrees>-15.36966056562960147857666015625</LatitudeDegrees>
              <LongitudeDegrees>37.08993754349648952484130859375</LongitudeDegrees>
            </Position>
            <AltitudeMeters>1130.800048828125</AltitudeMeters>
            <DistanceMeters>NAN</DistanceMeters>
          </Trackpoint>
          <Trackpoint>
            <Time>2021-08-03T08:33:04.000Z</Time>
            <Position>
              <LatitudeDegrees>-15.36978428252041339874267578125</LatitudeDegrees>
              <LongitudeDegrees>37.08994592539966106414794921875</LongitudeDegrees>
            </Position>
            <AltitudeMeters>1130.5999755859375</AltitudeMeters>
            <DistanceMeters>NAN</DistanceMeters>
          </Trackpoint>
          <Trackpoint>
            <Time>2021-08-03T08:33:16.000Z</Time>
            <Position>
              <LatitudeDegrees>-15.3699395991861820220947265625</LatitudeDegrees>
              <LongitudeDegrees>37.08998925983905792236328125</LongitudeDegrees>
            </Position>
            <AltitudeMeters>1131.199951171875</AltitudeMeters>
            <DistanceMeters>NAN</DistanceMeters>
          </Trackpoint>
          <Trackpoint>
            <Time>2021-08-03T08:33:23.000Z</Time>
            <Position>
              <LatitudeDegrees>-15.37003154866397380828857421875</LatitudeDegrees>
              <LongitudeDegrees>37.09003619849681854248046875</LongitudeDegrees>
            </Position>
            <AltitudeMeters>1131</AltitudeMeters>
            <DistanceMeters>NAN</DistanceMeters>
          </Trackpoint>
          <Trackpoint>
            <Time>2021-08-03T08:33:25.000Z</Time>
            <Position>
              <LatitudeDegrees>-15.37005417980253696441650390625</LatitudeDegrees>
              <LongitudeDegrees>37.0900538004934787750244140625</LongitudeDegrees>
            </Position>
            <AltitudeMeters>1131.4000244140625</AltitudeMeters>
            <DistanceMeters>NAN</DistanceMeters>
          </Trackpoint>
          <Trackpoint>
            <Time>2021-08-03T08:33:29.000Z</Time>
            <Position>
              <LatitudeDegrees>-15.37009298801422119140625</LatitudeDegrees>
              <LongitudeDegrees>37.09008581936359405517578125</LongitudeDegrees>
            </Position>
            <AltitudeMeters>1131.4000244140625</AltitudeMeters>
            <DistanceMeters>NAN</DistanceMeters>
          </Trackpoint>
          <Trackpoint>
            <Time>2021-08-03T08:33:38.000Z</Time>
            <Position>
              <LatitudeDegrees>-15.37020404823124408721923828125</LatitudeDegrees>
              <LongitudeDegrees>37.0901362784206867218017578125</LongitudeDegrees>
            </Position>
            <AltitudeMeters>1131.199951171875</AltitudeMeters>
            <DistanceMeters>NAN</DistanceMeters>
          </Trackpoint>
          <Trackpoint>
            <Time>2021-08-03T08:33:47.000Z</Time>
            <Position>
              <LatitudeDegrees>-15.3703184612095355987548828125</LatitudeDegrees>
              <LongitudeDegrees>37.0901305787265300750732421875</LongitudeDegrees>
            </Position>
            <AltitudeMeters>1130.4000244140625</AltitudeMeters>
            <DistanceMeters>NAN</DistanceMeters>
          </Trackpoint>
          <Trackpoint>
            <Time>2021-08-03T08:33:49.000Z</Time>
            <Position>
              <LatitudeDegrees>-15.37033832632005214691162109375</LatitudeDegrees>
              <LongitudeDegrees>37.09013066254556179046630859375</LongitudeDegrees>
            </Position>
            <AltitudeMeters>1130</AltitudeMeters>
            <DistanceMeters>NAN</DistanceMeters>
          </Trackpoint>
          <Trackpoint>
            <Time>2021-08-03T08:33:51.000Z</Time>
            <Position>
              <LatitudeDegrees>-15.37035844288766384124755859375</LatitudeDegrees>
              <LongitudeDegrees>37.09013066254556179046630859375</LongitudeDegrees>
            </Position>
            <AltitudeMeters>1130</AltitudeMeters>
            <DistanceMeters>NAN</DistanceMeters>
          </Trackpoint>
          <Trackpoint>
            <Time>2021-08-03T08:33:52.000Z</Time>
            <Position>
              <LatitudeDegrees>-15.3703697584569454193115234375</LatitudeDegrees>
              <LongitudeDegrees>37.09012932144105434417724609375</LongitudeDegrees>
            </Position>
            <AltitudeMeters>1129.5999755859375</AltitudeMeters>
            <DistanceMeters>NAN</DistanceMeters>
          </Trackpoint>
          <Trackpoint>
            <Time>2021-08-03T08:33:55.000Z</Time>
            <Position>
              <LatitudeDegrees>-15.37039943039417266845703125</LatitudeDegrees>
              <LongitudeDegrees>37.09011842496693134307861328125</LongitudeDegrees>
            </Position>
            <AltitudeMeters>1129</AltitudeMeters>
            <DistanceMeters>NAN</DistanceMeters>
          </Trackpoint>
          <Trackpoint>
            <Time>2021-08-03T08:33:56.000Z</Time>
            <Position>
              <LatitudeDegrees>-15.37041007541120052337646484375</LatitudeDegrees>
              <LongitudeDegrees>37.09011222235858440399169921875</LongitudeDegrees>
            </Position>
            <AltitudeMeters>1128.800048828125</AltitudeMeters>
            <DistanceMeters>NAN</DistanceMeters>
          </Trackpoint>
          <Trackpoint>
            <Time>2021-08-03T08:33:59.000Z</Time>
            <Position>
              <LatitudeDegrees>-15.370444692671298980712890625</LatitudeDegrees>
              <LongitudeDegrees>37.09009210579097270965576171875</LongitudeDegrees>
            </Position>
            <AltitudeMeters>1128</AltitudeMeters>
            <DistanceMeters>NAN</DistanceMeters>
          </Trackpoint>
          <Trackpoint>
            <Time>2021-08-03T08:34:01.000Z</Time>
            <Position>
              <LatitudeDegrees>-15.370468162000179290771484375</LatitudeDegrees>
              <LongitudeDegrees>37.09008514881134033203125</LongitudeDegrees>
            </Position>
            <AltitudeMeters>1127.4000244140625</AltitudeMeters>
            <DistanceMeters>NAN</DistanceMeters>
          </Trackpoint>
          <Trackpoint>
            <Time>2021-08-03T08:34:07.000Z</Time>
            <Position>
              <LatitudeDegrees>-15.37053580395877361297607421875</LatitudeDegrees>
              <LongitudeDegrees>37.0900584943592548370361328125</LongitudeDegrees>
            </Position>
            <AltitudeMeters>1126.5999755859375</AltitudeMeters>
            <DistanceMeters>NAN</DistanceMeters>
          </Trackpoint>
          <Trackpoint>
            <Time>2021-08-03T08:34:10.000Z</Time>
            <Position>
              <LatitudeDegrees>-15.37056698463857173919677734375</LatitudeDegrees>
              <LongitudeDegrees>37.09004784934222698211669921875</LongitudeDegrees>
            </Position>
            <AltitudeMeters>1125.800048828125</AltitudeMeters>
            <DistanceMeters>NAN</DistanceMeters>
          </Trackpoint>
          <Trackpoint>
            <Time>2021-08-03T08:34:13.000Z</Time>
            <Position>
              <LatitudeDegrees>-15.370606295764446258544921875</LatitudeDegrees>
              <LongitudeDegrees>37.09003896452486515045166015625</LongitudeDegrees>
            </Position>
            <AltitudeMeters>1125.199951171875</AltitudeMeters>
            <DistanceMeters>NAN</DistanceMeters>
          </Trackpoint>
          <Trackpoint>
            <Time>2021-08-03T08:34:15.000Z</Time>
            <Position>
              <LatitudeDegrees>-15.37063403986394405364990234375</LatitudeDegrees>
              <LongitudeDegrees>37.09003460593521595001220703125</LongitudeDegrees>
            </Position>
            <AltitudeMeters>1124.5999755859375</AltitudeMeters>
            <DistanceMeters>NAN</DistanceMeters>
          </Trackpoint>
          <Trackpoint>
            <Time>2021-08-03T08:34:19.000Z</Time>
            <Position>
              <LatitudeDegrees>-15.3706819005310535430908203125</LatitudeDegrees>
              <LongitudeDegrees>37.09001633338630199432373046875</LongitudeDegrees>
            </Position>
            <AltitudeMeters>1124.4000244140625</AltitudeMeters>
            <DistanceMeters>NAN</DistanceMeters>
          </Trackpoint>
          <Trackpoint>
            <Time>2021-08-03T08:34:22.000Z</Time>
            <Position>
              <LatitudeDegrees>-15.37071735598146915435791015625</LatitudeDegrees>
              <LongitudeDegrees>37.09001013077795505523681640625</LongitudeDegrees>
            </Position>
            <AltitudeMeters>1124.199951171875</AltitudeMeters>
            <DistanceMeters>NAN</DistanceMeters>
          </Trackpoint>
          <Trackpoint>
            <Time>2021-08-03T08:34:26.000Z</Time>
            <Position>
              <LatitudeDegrees>-15.37077066488564014434814453125</LatitudeDegrees>
              <LongitudeDegrees>37.09000593982636928558349609375</LongitudeDegrees>
            </Position>
            <AltitudeMeters>1123.5999755859375</AltitudeMeters>
            <DistanceMeters>NAN</DistanceMeters>
          </Trackpoint>
          <Trackpoint>
            <Time>2021-08-03T08:34:31.000Z</Time>
            <Position>
              <LatitudeDegrees>-15.37083084695041179656982421875</LatitudeDegrees>
              <LongitudeDegrees>37.0900370366871356964111328125</LongitudeDegrees>
            </Position>
            <AltitudeMeters>1122.800048828125</AltitudeMeters>
            <DistanceMeters>NAN</DistanceMeters>
          </Trackpoint>
          <Trackpoint>
            <Time>2021-08-03T08:34:33.000Z</Time>
            <Position>
              <LatitudeDegrees>-15.3708493709564208984375</LatitudeDegrees>
              <LongitudeDegrees>37.0900568179786205291748046875</LongitudeDegrees>
            </Position>
            <AltitudeMeters>1122.5999755859375</AltitudeMeters>
            <DistanceMeters>NAN</DistanceMeters>
          </Trackpoint>
          <Trackpoint>
            <Time>2021-08-03T08:34:37.000Z</Time>
            <Position>
              <LatitudeDegrees>-15.370881222188472747802734375</LatitudeDegrees>
              <LongitudeDegrees>37.09009612910449504852294921875</LongitudeDegrees>
            </Position>
            <AltitudeMeters>1122.199951171875</AltitudeMeters>
            <DistanceMeters>NAN</DistanceMeters>
          </Trackpoint>
          <Trackpoint>
            <Time>2021-08-03T08:34:41.000Z</Time>
            <Position>
              <LatitudeDegrees>-15.37090527825057506561279296875</LatitudeDegrees>
              <LongitudeDegrees>37.09013619460165500640869140625</LongitudeDegrees>
            </Position>
            <AltitudeMeters>1121.199951171875</AltitudeMeters>
            <DistanceMeters>NAN</DistanceMeters>
          </Trackpoint>
          <Trackpoint>
            <Time>2021-08-03T08:34:47.000Z</Time>
            <Position>
              <LatitudeDegrees>-15.37095506675541400909423828125</LatitudeDegrees>
              <LongitudeDegrees>37.09019981324672698974609375</LongitudeDegrees>
            </Position>
            <AltitudeMeters>1120</AltitudeMeters>
            <DistanceMeters>NAN</DistanceMeters>
          </Trackpoint>
          <Trackpoint>
            <Time>2021-08-03T08:34:52.000Z</Time>
            <Position>
              <LatitudeDegrees>-15.37098406814038753509521484375</LatitudeDegrees>
              <LongitudeDegrees>37.09025957621634006500244140625</LongitudeDegrees>
            </Position>
            <AltitudeMeters>1119.4000244140625</AltitudeMeters>
            <DistanceMeters>NAN</DistanceMeters>
          </Trackpoint>
          <Trackpoint>
            <Time>2021-08-03T08:34:56.000Z</Time>
            <Position>
              <LatitudeDegrees>-15.3710084594786167144775390625</LatitudeDegrees>
              <LongitudeDegrees>37.0903086103498935699462890625</LongitudeDegrees>
            </Position>
            <AltitudeMeters>1118.5999755859375</AltitudeMeters>
            <DistanceMeters>NAN</DistanceMeters>
          </Trackpoint>
          <Trackpoint>
            <Time>2021-08-03T08:35:01.000Z</Time>
            <Position>
              <LatitudeDegrees>-15.37103000096976757049560546875</LatitudeDegrees>
              <LongitudeDegrees>37.09036770276725292205810546875</LongitudeDegrees>
            </Position>
            <AltitudeMeters>1117.800048828125</AltitudeMeters>
            <DistanceMeters>NAN</DistanceMeters>
          </Trackpoint>
          <Trackpoint>
            <Time>2021-08-03T08:35:02.000Z</Time>
            <Position>
              <LatitudeDegrees>-15.37103620357811450958251953125</LatitudeDegrees>
              <LongitudeDegrees>37.09038086235523223876953125</LongitudeDegrees>
            </Position>
            <AltitudeMeters>1117.4000244140625</AltitudeMeters>
            <DistanceMeters>NAN</DistanceMeters>
          </Trackpoint>
          <Trackpoint>
            <Time>2021-08-03T08:35:09.000Z</Time>
            <Position>
              <LatitudeDegrees>-15.3710999898612499237060546875</LatitudeDegrees>
              <LongitudeDegrees>37.09042838774621486663818359375</LongitudeDegrees>
            </Position>
            <AltitudeMeters>1116.5999755859375</AltitudeMeters>
            <DistanceMeters>NAN</DistanceMeters>
          </Trackpoint>
          <Trackpoint>
            <Time>2021-08-03T08:35:19.000Z</Time>
            <Position>
              <LatitudeDegrees>-15.37121574394404888153076171875</LatitudeDegrees>
              <LongitudeDegrees>37.0903817005455493927001953125</LongitudeDegrees>
            </Position>
            <AltitudeMeters>1116.800048828125</AltitudeMeters>
            <DistanceMeters>NAN</DistanceMeters>
          </Trackpoint>
          <Trackpoint>
            <Time>2021-08-03T08:35:29.000Z</Time>
            <Position>
              <LatitudeDegrees>-15.37133283913135528564453125</LatitudeDegrees>
              <LongitudeDegrees>37.09034490399062633514404296875</LongitudeDegrees>
            </Position>
            <AltitudeMeters>1117.199951171875</AltitudeMeters>
            <DistanceMeters>NAN</DistanceMeters>
          </Trackpoint>
          <Trackpoint>
            <Time>2021-08-03T08:35:39.000Z</Time>
            <Position>
              <LatitudeDegrees>-15.37142646498978137969970703125</LatitudeDegrees>
              <LongitudeDegrees>37.09025538526475429534912109375</LongitudeDegrees>
            </Position>
            <AltitudeMeters>1118</AltitudeMeters>
            <DistanceMeters>NAN</DistanceMeters>
          </Trackpoint>
          <Trackpoint>
            <Time>2021-08-03T08:35:40.000Z</Time>
            <Position>
              <LatitudeDegrees>-15.3714335896074771881103515625</LatitudeDegrees>
              <LongitudeDegrees>37.09024683572351932525634765625</LongitudeDegrees>
            </Position>
            <AltitudeMeters>1118.199951171875</AltitudeMeters>
            <DistanceMeters>NAN</DistanceMeters>
          </Trackpoint>
          <Trackpoint>
            <Time>2021-08-03T08:35:41.000Z</Time>
            <Position>
              <LatitudeDegrees>-15.37144155241549015045166015625</LatitudeDegrees>
              <LongitudeDegrees>37.09023945964872837066650390625</LongitudeDegrees>
            </Position>
            <AltitudeMeters>1118.4000244140625</AltitudeMeters>
            <DistanceMeters>NAN</DistanceMeters>
          </Trackpoint>
          <Trackpoint>
            <Time>2021-08-03T08:35:43.000Z</Time>
            <Position>
              <LatitudeDegrees>-15.37145647220313549041748046875</LatitudeDegrees>
              <LongitudeDegrees>37.09023065865039825439453125</LongitudeDegrees>
            </Position>
            <AltitudeMeters>1118.800048828125</AltitudeMeters>
            <DistanceMeters>NAN</DistanceMeters>
          </Trackpoint>
          <Trackpoint>
            <Time>2021-08-03T08:35:44.000Z</Time>
            <Position>
              <LatitudeDegrees>-15.37146686576306819915771484375</LatitudeDegrees>
              <LongitudeDegrees>37.09022571332752704620361328125</LongitudeDegrees>
            </Position>
            <AltitudeMeters>1119.199951171875</AltitudeMeters>
            <DistanceMeters>NAN</DistanceMeters>
          </Trackpoint>
          <Trackpoint>
            <Time>2021-08-03T08:35:46.000Z</Time>
            <Position>
              <LatitudeDegrees>-15.37148664705455303192138671875</LatitudeDegrees>
              <LongitudeDegrees>37.090214230120182037353515625</LongitudeDegrees>
            </Position>
            <AltitudeMeters>1119.800048828125</AltitudeMeters>
            <DistanceMeters>NAN</DistanceMeters>
          </Trackpoint>
          <Trackpoint>
            <Time>2021-08-03T08:35:48.000Z</Time>
            <Position>
              <LatitudeDegrees>-15.37150709889829158782958984375</LatitudeDegrees>
              <LongitudeDegrees>37.0901999808847904205322265625</LongitudeDegrees>
            </Position>
            <AltitudeMeters>1119.800048828125</AltitudeMeters>
            <DistanceMeters>NAN</DistanceMeters>
          </Trackpoint>
          <Trackpoint>
            <Time>2021-08-03T08:35:50.000Z</Time>
            <Position>
              <LatitudeDegrees>-15.3715308196842670440673828125</LatitudeDegrees>
              <LongitudeDegrees>37.09019176661968231201171875</LongitudeDegrees>
            </Position>
            <AltitudeMeters>1119.800048828125</AltitudeMeters>
            <DistanceMeters>NAN</DistanceMeters>
          </Trackpoint>
          <Trackpoint>
            <Time>2021-08-03T08:35:52.000Z</Time>
            <Position>
              <LatitudeDegrees>-15.371555127203464508056640625</LatitudeDegrees>
              <LongitudeDegrees>37.09018346853554248809814453125</LongitudeDegrees>
            </Position>
            <AltitudeMeters>1119.4000244140625</AltitudeMeters>
            <DistanceMeters>NAN</DistanceMeters>
          </Trackpoint>
          <Trackpoint>
            <Time>2021-08-03T08:35:55.000Z</Time>
            <Position>
              <LatitudeDegrees>-15.37159041501581668853759765625</LatitudeDegrees>
              <LongitudeDegrees>37.09017575718462467193603515625</LongitudeDegrees>
            </Position>
            <AltitudeMeters>1119</AltitudeMeters>
            <DistanceMeters>NAN</DistanceMeters>
          </Trackpoint>
          <Trackpoint>
            <Time>2021-08-03T08:35:56.000Z</Time>
            <Position>
              <LatitudeDegrees>-15.3716012276709079742431640625</LatitudeDegrees>
              <LongitudeDegrees>37.09017877466976642608642578125</LongitudeDegrees>
            </Position>
            <AltitudeMeters>1118.800048828125</AltitudeMeters>
            <DistanceMeters>NAN</DistanceMeters>
          </Trackpoint>
          <Trackpoint>
            <Time>2021-08-03T08:35:57.000Z</Time>
            <Position>
              <LatitudeDegrees>-15.371610783040523529052734375</LatitudeDegrees>
              <LongitudeDegrees>37.090181373059749603271484375</LongitudeDegrees>
            </Position>
            <AltitudeMeters>1118.5999755859375</AltitudeMeters>
            <DistanceMeters>NAN</DistanceMeters>
          </Trackpoint>
          <Trackpoint>
            <Time>2021-08-03T08:35:58.000Z</Time>
            <Position>
              <LatitudeDegrees>-15.37162126041948795318603515625</LatitudeDegrees>
              <LongitudeDegrees>37.09018313325941562652587890625</LongitudeDegrees>
            </Position>
            <AltitudeMeters>1118.5999755859375</AltitudeMeters>
            <DistanceMeters>NAN</DistanceMeters>
          </Trackpoint>
          <Trackpoint>
            <Time>2021-08-03T08:36:08.000Z</Time>
            <Position>
              <LatitudeDegrees>-15.371747910976409912109375</LatitudeDegrees>
              <LongitudeDegrees>37.09014859981834888458251953125</LongitudeDegrees>
            </Position>
            <AltitudeMeters>1117.4000244140625</AltitudeMeters>
            <DistanceMeters>NAN</DistanceMeters>
          </Trackpoint>
          <Trackpoint>
            <Time>2021-08-03T08:36:12.000Z</Time>
            <Position>
              <LatitudeDegrees>-15.371799878776073455810546875</LatitudeDegrees>
              <LongitudeDegrees>37.0901320874691009521484375</LongitudeDegrees>
            </Position>
            <AltitudeMeters>1117</AltitudeMeters>
            <DistanceMeters>NAN</DistanceMeters>
          </Trackpoint>
          <Trackpoint>
            <Time>2021-08-03T08:36:16.000Z</Time>
            <Position>
              <LatitudeDegrees>-15.3718446381390094757080078125</LatitudeDegrees>
              <LongitudeDegrees>37.09012739360332489013671875</LongitudeDegrees>
            </Position>
            <AltitudeMeters>1117</AltitudeMeters>
            <DistanceMeters>NAN</DistanceMeters>
          </Trackpoint>
          <Trackpoint>
            <Time>2021-08-03T08:36:20.000Z</Time>
            <Position>
              <LatitudeDegrees>-15.37188537418842315673828125</LatitudeDegrees>
              <LongitudeDegrees>37.090139128267765045166015625</LongitudeDegrees>
            </Position>
            <AltitudeMeters>1117</AltitudeMeters>
            <DistanceMeters>NAN</DistanceMeters>
          </Trackpoint>
          <Trackpoint>
            <Time>2021-08-03T08:36:23.000Z</Time>
            <Position>
              <LatitudeDegrees>-15.371922589838504791259765625</LatitudeDegrees>
              <LongitudeDegrees>37.090157903730869293212890625</LongitudeDegrees>
            </Position>
            <AltitudeMeters>1116.800048828125</AltitudeMeters>
            <DistanceMeters>NAN</DistanceMeters>
          </Trackpoint>
          <Trackpoint>
            <Time>2021-08-03T08:36:25.000Z</Time>
            <Position>
              <LatitudeDegrees>-15.37195242941379547119140625</LatitudeDegrees>
              <LongitudeDegrees>37.0901620946824550628662109375</LongitudeDegrees>
            </Position>
            <AltitudeMeters>1116.5999755859375</AltitudeMeters>
            <DistanceMeters>NAN</DistanceMeters>
          </Trackpoint>
          <Trackpoint>
            <Time>2021-08-03T08:36:29.000Z</Time>
            <Position>
              <LatitudeDegrees>-15.37199760787189006805419921875</LatitudeDegrees>
              <LongitudeDegrees>37.09017567336559295654296875</LongitudeDegrees>
            </Position>
            <AltitudeMeters>1116.4000244140625</AltitudeMeters>
            <DistanceMeters>NAN</DistanceMeters>
          </Trackpoint>
          <Trackpoint>
            <Time>2021-08-03T08:36:30.000Z</Time>
            <Position>
              <LatitudeDegrees>-15.37200900726020336151123046875</LatitudeDegrees>
              <LongitudeDegrees>37.0901755057275295257568359375</LongitudeDegrees>
            </Position>
            <AltitudeMeters>1116.4000244140625</AltitudeMeters>
            <DistanceMeters>NAN</DistanceMeters>
          </Trackpoint>
          <Trackpoint>
            <Time>2021-08-03T08:36:35.000Z</Time>
            <Position>
              <LatitudeDegrees>-15.37207505665719509124755859375</LatitudeDegrees>
              <LongitudeDegrees>37.09017324261367321014404296875</LongitudeDegrees>
            </Position>
            <AltitudeMeters>1116.4000244140625</AltitudeMeters>
            <DistanceMeters>NAN</DistanceMeters>
          </Trackpoint>
          <Trackpoint>
            <Time>2021-08-03T08:36:38.000Z</Time>
            <Position>
              <LatitudeDegrees>-15.37211964838206768035888671875</LatitudeDegrees>
              <LongitudeDegrees>37.09017106331884860992431640625</LongitudeDegrees>
            </Position>
            <AltitudeMeters>1116.4000244140625</AltitudeMeters>
            <DistanceMeters>NAN</DistanceMeters>
          </Trackpoint>
          <Trackpoint>
            <Time>2021-08-03T08:36:39.000Z</Time>
            <Position>
              <LatitudeDegrees>-15.37213305942714214324951171875</LatitudeDegrees>
              <LongitudeDegrees>37.09017542190849781036376953125</LongitudeDegrees>
            </Position>
            <AltitudeMeters>1116.4000244140625</AltitudeMeters>
            <DistanceMeters>NAN</DistanceMeters>
          </Trackpoint>
          <Trackpoint>
            <Time>2021-08-03T08:36:44.000Z</Time>
            <Position>
              <LatitudeDegrees>-15.37219609133899211883544921875</LatitudeDegrees>
              <LongitudeDegrees>37.0901763439178466796875</LongitudeDegrees>
            </Position>
            <AltitudeMeters>1116.5999755859375</AltitudeMeters>
            <DistanceMeters>NAN</DistanceMeters>
          </Trackpoint>
          <Trackpoint>
            <Time>2021-08-03T08:36:52.000Z</Time>
            <Position>
              <LatitudeDegrees>-15.3722855262458324432373046875</LatitudeDegrees>
              <LongitudeDegrees>37.090199477970600128173828125</LongitudeDegrees>
            </Position>
            <AltitudeMeters>1116.800048828125</AltitudeMeters>
            <DistanceMeters>NAN</DistanceMeters>
          </Trackpoint>
          <Trackpoint>
            <Time>2021-08-03T08:36:59.000Z</Time>
            <Position>
              <LatitudeDegrees>-15.37233958952128887176513671875</LatitudeDegrees>
              <LongitudeDegrees>37.0902428962290287017822265625</LongitudeDegrees>
            </Position>
            <AltitudeMeters>1115.5999755859375</AltitudeMeters>
            <DistanceMeters>NAN</DistanceMeters>
          </Trackpoint>
          <Trackpoint>
            <Time>2021-08-03T08:37:02.000Z</Time>
            <Position>
              <LatitudeDegrees>-15.37236490286886692047119140625</LatitudeDegrees>
              <LongitudeDegrees>37.0902542956173419952392578125</LongitudeDegrees>
            </Position>
            <AltitudeMeters>1115.5999755859375</AltitudeMeters>
            <DistanceMeters>NAN</DistanceMeters>
          </Trackpoint>
          <Trackpoint>
            <Time>2021-08-03T08:37:06.000Z</Time>
            <Position>
              <LatitudeDegrees>-15.3724119253456592559814453125</LatitudeDegrees>
              <LongitudeDegrees>37.09027315489947795867919921875</LongitudeDegrees>
            </Position>
            <AltitudeMeters>1115.5999755859375</AltitudeMeters>
            <DistanceMeters>NAN</DistanceMeters>
          </Trackpoint>
          <Trackpoint>
            <Time>2021-08-03T08:37:09.000Z</Time>
            <Position>
              <LatitudeDegrees>-15.37244520150125026702880859375</LatitudeDegrees>
              <LongitudeDegrees>37.09029025398194789886474609375</LongitudeDegrees>
            </Position>
            <AltitudeMeters>1115.800048828125</AltitudeMeters>
            <DistanceMeters>NAN</DistanceMeters>
          </Trackpoint>
          <Trackpoint>
            <Time>2021-08-03T08:37:12.000Z</Time>
            <Position>
              <LatitudeDegrees>-15.37246196530759334564208984375</LatitudeDegrees>
              <LongitudeDegrees>37.09029461257159709930419921875</LongitudeDegrees>
            </Position>
            <AltitudeMeters>1115.800048828125</AltitudeMeters>
            <DistanceMeters>NAN</DistanceMeters>
          </Trackpoint>
          <Trackpoint>
            <Time>2021-08-03T08:37:16.000Z</Time>
            <Position>
              <LatitudeDegrees>-15.37248945794999599456787109375</LatitudeDegrees>
              <LongitudeDegrees>37.09030517376959323883056640625</LongitudeDegrees>
            </Position>
            <AltitudeMeters>1116.199951171875</AltitudeMeters>
            <DistanceMeters>NAN</DistanceMeters>
          </Trackpoint>
          <Trackpoint>
            <Time>2021-08-03T08:37:19.000Z</Time>
            <Position>
              <LatitudeDegrees>-15.372529439628124237060546875</LatitudeDegrees>
              <LongitudeDegrees>37.09031171165406703948974609375</LongitudeDegrees>
            </Position>
            <AltitudeMeters>1116.4000244140625</AltitudeMeters>
            <DistanceMeters>NAN</DistanceMeters>
          </Trackpoint>
          <Trackpoint>
            <Time>2021-08-03T08:37:27.000Z</Time>
            <Position>
              <LatitudeDegrees>-15.3726358897984027862548828125</LatitudeDegrees>
              <LongitudeDegrees>37.09030768834054470062255859375</LongitudeDegrees>
            </Position>
            <AltitudeMeters>1116.5999755859375</AltitudeMeters>
            <DistanceMeters>NAN</DistanceMeters>
          </Trackpoint>
          <Trackpoint>
            <Time>2021-08-03T08:37:35.000Z</Time>
            <Position>
              <LatitudeDegrees>-15.3727233968675136566162109375</LatitudeDegrees>
              <LongitudeDegrees>37.090285308659076690673828125</LongitudeDegrees>
            </Position>
            <AltitudeMeters>1116.5999755859375</AltitudeMeters>
            <DistanceMeters>NAN</DistanceMeters>
          </Trackpoint>
          <Trackpoint>
            <Time>2021-08-03T08:37:43.000Z</Time>
            <Position>
              <LatitudeDegrees>-15.3728033602237701416015625</LatitudeDegrees>
              <LongitudeDegrees>37.09024809300899505615234375</LongitudeDegrees>
            </Position>
            <AltitudeMeters>1117.4000244140625</AltitudeMeters>
            <DistanceMeters>NAN</DistanceMeters>
          </Trackpoint>
          <Trackpoint>
            <Time>2021-08-03T08:37:45.000Z</Time>
            <Position>
              <LatitudeDegrees>-15.37282305769622325897216796875</LatitudeDegrees>
              <LongitudeDegrees>37.09023912437260150909423828125</LongitudeDegrees>
            </Position>
            <AltitudeMeters>1117</AltitudeMeters>
            <DistanceMeters>NAN</DistanceMeters>
          </Trackpoint>
          <Trackpoint>
            <Time>2021-08-03T08:37:51.000Z</Time>
            <Position>
              <LatitudeDegrees>-15.372892208397388458251953125</LatitudeDegrees>
              <LongitudeDegrees>37.09019302390515804290771484375</LongitudeDegrees>
            </Position>
            <AltitudeMeters>1117</AltitudeMeters>
            <DistanceMeters>NAN</DistanceMeters>
          </Trackpoint>
          <Trackpoint>
            <Time>2021-08-03T08:37:59.000Z</Time>
            <Position>
              <LatitudeDegrees>-15.37295683287084102630615234375</LatitudeDegrees>
              <LongitudeDegrees>37.09012010134756565093994140625</LongitudeDegrees>
            </Position>
            <AltitudeMeters>1117.800048828125</AltitudeMeters>
            <DistanceMeters>NAN</DistanceMeters>
          </Trackpoint>
          <Trackpoint>
            <Time>2021-08-03T08:38:02.000Z</Time>
            <Position>
              <LatitudeDegrees>-15.3729772008955478668212890625</LatitudeDegrees>
              <LongitudeDegrees>37.0900972187519073486328125</LongitudeDegrees>
            </Position>
            <AltitudeMeters>1118.5999755859375</AltitudeMeters>
            <DistanceMeters>NAN</DistanceMeters>
          </Trackpoint>
          <Trackpoint>
            <Time>2021-08-03T08:38:08.000Z</Time>
            <Position>
              <LatitudeDegrees>-15.3730355389416217803955078125</LatitudeDegrees>
              <LongitudeDegrees>37.09004826843738555908203125</LongitudeDegrees>
            </Position>
            <AltitudeMeters>1119.4000244140625</AltitudeMeters>
            <DistanceMeters>NAN</DistanceMeters>
          </Trackpoint>
          <Trackpoint>
            <Time>2021-08-03T08:38:09.000Z</Time>
            <Position>
              <LatitudeDegrees>-15.373043753206729888916015625</LatitudeDegrees>
              <LongitudeDegrees>37.0900413952767848968505859375</LongitudeDegrees>
            </Position>
            <AltitudeMeters>1119.5999755859375</AltitudeMeters>
            <DistanceMeters>NAN</DistanceMeters>
          </Trackpoint>
          <Trackpoint>
            <Time>2021-08-03T08:38:19.000Z</Time>
            <Position>
              <LatitudeDegrees>-15.373142994940280914306640625</LatitudeDegrees>
              <LongitudeDegrees>37.089948020875453948974609375</LongitudeDegrees>
            </Position>
            <AltitudeMeters>1119.800048828125</AltitudeMeters>
            <DistanceMeters>NAN</DistanceMeters>
          </Trackpoint>
          <Trackpoint>
            <Time>2021-08-03T08:38:21.000Z</Time>
            <Position>
              <LatitudeDegrees>-15.37316654808819293975830078125</LatitudeDegrees>
              <LongitudeDegrees>37.08995581604540348052978515625</LongitudeDegrees>
            </Position>
            <AltitudeMeters>1119.800048828125</AltitudeMeters>
            <DistanceMeters>NAN</DistanceMeters>
          </Trackpoint>
          <Trackpoint>
            <Time>2021-08-03T08:38:25.000Z</Time>
            <Position>
              <LatitudeDegrees>-15.373211391270160675048828125</LatitudeDegrees>
              <LongitudeDegrees>37.089936621487140655517578125</LongitudeDegrees>
            </Position>
            <AltitudeMeters>1119.800048828125</AltitudeMeters>
            <DistanceMeters>NAN</DistanceMeters>
          </Trackpoint>
          <Trackpoint>
            <Time>2021-08-03T08:38:28.000Z</Time>
            <Position>
              <LatitudeDegrees>-15.37324332632124423980712890625</LatitudeDegrees>
              <LongitudeDegrees>37.08990837447345256805419921875</LongitudeDegrees>
            </Position>
            <AltitudeMeters>1119.800048828125</AltitudeMeters>
            <DistanceMeters>NAN</DistanceMeters>
          </Trackpoint>
          <Trackpoint>
            <Time>2021-08-03T08:38:32.000Z</Time>
            <Position>
              <LatitudeDegrees>-15.3732834756374359130859375</LatitudeDegrees>
              <LongitudeDegrees>37.08988130092620849609375</LongitudeDegrees>
            </Position>
            <AltitudeMeters>1119.800048828125</AltitudeMeters>
            <DistanceMeters>NAN</DistanceMeters>
          </Trackpoint>
          <Trackpoint>
            <Time>2021-08-03T08:38:36.000Z</Time>
            <Position>
              <LatitudeDegrees>-15.3733356110751628875732421875</LatitudeDegrees>
              <LongitudeDegrees>37.08985783159732818603515625</LongitudeDegrees>
            </Position>
            <AltitudeMeters>1119.199951171875</AltitudeMeters>
            <DistanceMeters>NAN</DistanceMeters>
          </Trackpoint>
          <Trackpoint>
            <Time>2021-08-03T08:38:39.000Z</Time>
            <Position>
              <LatitudeDegrees>-15.3733597509562969207763671875</LatitudeDegrees>
              <LongitudeDegrees>37.08983645774424076080322265625</LongitudeDegrees>
            </Position>
            <AltitudeMeters>1119.199951171875</AltitudeMeters>
            <DistanceMeters>NAN</DistanceMeters>
          </Trackpoint>
          <Trackpoint>
            <Time>2021-08-03T08:38:41.000Z</Time>
            <Position>
              <LatitudeDegrees>-15.37337601184844970703125</LatitudeDegrees>
              <LongitudeDegrees>37.08982589654624462127685546875</LongitudeDegrees>
            </Position>
            <AltitudeMeters>1119.199951171875</AltitudeMeters>
            <DistanceMeters>NAN</DistanceMeters>
          </Trackpoint>
          <Trackpoint>
            <Time>2021-08-03T08:38:44.000Z</Time>
            <Position>
              <LatitudeDegrees>-15.3734150715172290802001953125</LatitudeDegrees>
              <LongitudeDegrees>37.0898147486150264739990234375</LongitudeDegrees>
            </Position>
            <AltitudeMeters>1119.199951171875</AltitudeMeters>
            <DistanceMeters>NAN</DistanceMeters>
          </Trackpoint>
          <Trackpoint>
            <Time>2021-08-03T08:38:47.000Z</Time>
            <Position>
              <LatitudeDegrees>-15.37344834767282009124755859375</LatitudeDegrees>
              <LongitudeDegrees>37.0897999964654445648193359375</LongitudeDegrees>
            </Position>
            <AltitudeMeters>1119.4000244140625</AltitudeMeters>
            <DistanceMeters>NAN</DistanceMeters>
          </Trackpoint>
          <Trackpoint>
            <Time>2021-08-03T08:38:49.000Z</Time>
            <Position>
              <LatitudeDegrees>-15.37346846424043178558349609375</LatitudeDegrees>
              <LongitudeDegrees>37.08979136310517787933349609375</LongitudeDegrees>
            </Position>
            <AltitudeMeters>1119.4000244140625</AltitudeMeters>
            <DistanceMeters>NAN</DistanceMeters>
          </Trackpoint>
          <Trackpoint>
            <Time>2021-08-03T08:38:50.000Z</Time>
            <Position>
              <LatitudeDegrees>-15.37347986362874507904052734375</LatitudeDegrees>
              <LongitudeDegrees>37.0897855795919895172119140625</LongitudeDegrees>
            </Position>
            <AltitudeMeters>1119.4000244140625</AltitudeMeters>
            <DistanceMeters>NAN</DistanceMeters>
          </Trackpoint>
          <Trackpoint>
            <Time>2021-08-03T08:38:52.000Z</Time>
            <Position>
              <LatitudeDegrees>-15.37350316531956195831298828125</LatitudeDegrees>
              <LongitudeDegrees>37.08977057598531246185302734375</LongitudeDegrees>
            </Position>
            <AltitudeMeters>1119.4000244140625</AltitudeMeters>
            <DistanceMeters>NAN</DistanceMeters>
          </Trackpoint>
          <Trackpoint>
            <Time>2021-08-03T08:38:53.000Z</Time>
            <Position>
              <LatitudeDegrees>-15.3735173307359218597412109375</LatitudeDegrees>
              <LongitudeDegrees>37.08976319991052150726318359375</LongitudeDegrees>
            </Position>
            <AltitudeMeters>1119.4000244140625</AltitudeMeters>
            <DistanceMeters>NAN</DistanceMeters>
          </Trackpoint>
          <Trackpoint>
            <Time>2021-08-03T08:38:56.000Z</Time>
            <Position>
              <LatitudeDegrees>-15.3735518641769886016845703125</LatitudeDegrees>
              <LongitudeDegrees>37.08974526263773441314697265625</LongitudeDegrees>
            </Position>
            <AltitudeMeters>1120</AltitudeMeters>
            <DistanceMeters>NAN</DistanceMeters>
          </Trackpoint>
          <Trackpoint>
            <Time>2021-08-03T08:39:00.000Z</Time>
            <Position>
              <LatitudeDegrees>-15.373588912189006805419921875</LatitudeDegrees>
              <LongitudeDegrees>37.08971441723406314849853515625</LongitudeDegrees>
            </Position>
            <AltitudeMeters>1120.5999755859375</AltitudeMeters>
            <DistanceMeters>NAN</DistanceMeters>
          </Trackpoint>
          <Trackpoint>
            <Time>2021-08-03T08:39:03.000Z</Time>
            <Position>
              <LatitudeDegrees>-15.37361179478466510772705078125</LatitudeDegrees>
              <LongitudeDegrees>37.08969446830451488494873046875</LongitudeDegrees>
            </Position>
            <AltitudeMeters>1121.199951171875</AltitudeMeters>
            <DistanceMeters>NAN</DistanceMeters>
          </Trackpoint>
          <Trackpoint>
            <Time>2021-08-03T08:39:04.000Z</Time>
            <Position>
              <LatitudeDegrees>-15.373620092868804931640625</LatitudeDegrees>
              <LongitudeDegrees>37.0896876789629459381103515625</LongitudeDegrees>
            </Position>
            <AltitudeMeters>1121.5999755859375</AltitudeMeters>
            <DistanceMeters>NAN</DistanceMeters>
          </Trackpoint>
          <Trackpoint>
            <Time>2021-08-03T08:39:07.000Z</Time>
            <Position>
              <LatitudeDegrees>-15.37364934571087360382080078125</LatitudeDegrees>
              <LongitudeDegrees>37.0896672271192073822021484375</LongitudeDegrees>
            </Position>
            <AltitudeMeters>1121.800048828125</AltitudeMeters>
            <DistanceMeters>NAN</DistanceMeters>
          </Trackpoint>
          <Trackpoint>
            <Time>2021-08-03T08:39:11.000Z</Time>
            <Position>
              <LatitudeDegrees>-15.37368773482739925384521484375</LatitudeDegrees>
              <LongitudeDegrees>37.08964551798999309539794921875</LongitudeDegrees>
            </Position>
            <AltitudeMeters>1122.199951171875</AltitudeMeters>
            <DistanceMeters>NAN</DistanceMeters>
          </Trackpoint>
          <Trackpoint>
            <Time>2021-08-03T08:39:14.000Z</Time>
            <Position>
              <LatitudeDegrees>-15.37372360937297344207763671875</LatitudeDegrees>
              <LongitudeDegrees>37.08962053991854190826416015625</LongitudeDegrees>
            </Position>
            <AltitudeMeters>1122.5999755859375</AltitudeMeters>
            <DistanceMeters>NAN</DistanceMeters>
          </Trackpoint>
          <Trackpoint>
            <Time>2021-08-03T08:39:21.000Z</Time>
            <Position>
              <LatitudeDegrees>-15.37378882057964801788330078125</LatitudeDegrees>
              <LongitudeDegrees>37.08955734036862850189208984375</LongitudeDegrees>
            </Position>
            <AltitudeMeters>1123.5999755859375</AltitudeMeters>
            <DistanceMeters>NAN</DistanceMeters>
          </Trackpoint>
          <Trackpoint>
            <Time>2021-08-03T08:39:26.000Z</Time>
            <Position>
              <LatitudeDegrees>-15.37383508868515491485595703125</LatitudeDegrees>
              <LongitudeDegrees>37.0895098149776458740234375</LongitudeDegrees>
            </Position>
            <AltitudeMeters>1123.4000244140625</AltitudeMeters>
            <DistanceMeters>NAN</DistanceMeters>
          </Trackpoint>
          <Trackpoint>
            <Time>2021-08-03T08:39:31.000Z</Time>
            <Position>
              <LatitudeDegrees>-15.37387213669717311859130859375</LatitudeDegrees>
              <LongitudeDegrees>37.08946413360536098480224609375</LongitudeDegrees>
            </Position>
            <AltitudeMeters>1123.5999755859375</AltitudeMeters>
            <DistanceMeters>NAN</DistanceMeters>
          </Trackpoint>
          <Trackpoint>
            <Time>2021-08-03T08:39:39.000Z</Time>
            <Position>
              <LatitudeDegrees>-15.37391756661236286163330078125</LatitudeDegrees>
              <LongitudeDegrees>37.0893768779933452606201171875</LongitudeDegrees>
            </Position>
            <AltitudeMeters>1123.5999755859375</AltitudeMeters>
            <DistanceMeters>NAN</DistanceMeters>
          </Trackpoint>
          <Trackpoint>
            <Time>2021-08-03T08:39:40.000Z</Time>
            <Position>
              <LatitudeDegrees>-15.37392519414424896240234375</LatitudeDegrees>
              <LongitudeDegrees>37.089366652071475982666015625</LongitudeDegrees>
            </Position>
            <AltitudeMeters>1123.5999755859375</AltitudeMeters>
            <DistanceMeters>NAN</DistanceMeters>
          </Trackpoint>
          <Trackpoint>
            <Time>2021-08-03T08:39:42.000Z</Time>
            <Position>
              <LatitudeDegrees>-15.37393751554191112518310546875</LatitudeDegrees>
              <LongitudeDegrees>37.089341841638088226318359375</LongitudeDegrees>
            </Position>
            <AltitudeMeters>1123.800048828125</AltitudeMeters>
            <DistanceMeters>NAN</DistanceMeters>
          </Trackpoint>
          <Trackpoint>
            <Time>2021-08-03T08:39:47.000Z</Time>
            <Position>
              <LatitudeDegrees>-15.3739552013576030731201171875</LatitudeDegrees>
              <LongitudeDegrees>37.0892853476107120513916015625</LongitudeDegrees>
            </Position>
            <AltitudeMeters>1124.199951171875</AltitudeMeters>
            <DistanceMeters>NAN</DistanceMeters>
          </Trackpoint>
          <Trackpoint>
            <Time>2021-08-03T08:39:51.000Z</Time>
            <Position>
              <LatitudeDegrees>-15.3739773295819759368896484375</LatitudeDegrees>
              <LongitudeDegrees>37.08923966623842716217041015625</LongitudeDegrees>
            </Position>
            <AltitudeMeters>1124.800048828125</AltitudeMeters>
            <DistanceMeters>NAN</DistanceMeters>
          </Trackpoint>
          <Trackpoint>
            <Time>2021-08-03T08:39:54.000Z</Time>
            <Position>
              <LatitudeDegrees>-15.373988561332225799560546875</LatitudeDegrees>
              <LongitudeDegrees>37.0892072282731533050537109375</LongitudeDegrees>
            </Position>
            <AltitudeMeters>1125</AltitudeMeters>
            <DistanceMeters>NAN</DistanceMeters>
          </Trackpoint>
          <Trackpoint>
            <Time>2021-08-03T08:39:55.000Z</Time>
            <Position>
              <LatitudeDegrees>-15.3739927522838115692138671875</LatitudeDegrees>
              <LongitudeDegrees>37.08919524215161800384521484375</LongitudeDegrees>
            </Position>
            <AltitudeMeters>1125</AltitudeMeters>
            <DistanceMeters>NAN</DistanceMeters>
          </Trackpoint>
          <Trackpoint>
            <Time>2021-08-03T08:39:56.000Z</Time>
            <Position>
              <LatitudeDegrees>-15.373995937407016754150390625</LatitudeDegrees>
              <LongitudeDegrees>37.08918350748717784881591796875</LongitudeDegrees>
            </Position>
            <AltitudeMeters>1125</AltitudeMeters>
            <DistanceMeters>NAN</DistanceMeters>
          </Trackpoint>
          <Trackpoint>
            <Time>2021-08-03T08:39:57.000Z</Time>
            <Position>
              <LatitudeDegrees>-15.37399870343506336212158203125</LatitudeDegrees>
              <LongitudeDegrees>37.08916925825178623199462890625</LongitudeDegrees>
            </Position>
            <AltitudeMeters>1125</AltitudeMeters>
            <DistanceMeters>NAN</DistanceMeters>
          </Trackpoint>
          <Trackpoint>
            <Time>2021-08-03T08:39:58.000Z</Time>
            <Position>
              <LatitudeDegrees>-15.3740014694631099700927734375</LatitudeDegrees>
              <LongitudeDegrees>37.0891572721302509307861328125</LongitudeDegrees>
            </Position>
            <AltitudeMeters>1125.199951171875</AltitudeMeters>
            <DistanceMeters>NAN</DistanceMeters>
          </Trackpoint>
          <Trackpoint>
            <Time>2021-08-03T08:39:59.000Z</Time>
            <Position>
              <LatitudeDegrees>-15.37400473840534687042236328125</LatitudeDegrees>
              <LongitudeDegrees>37.08914528600871562957763671875</LongitudeDegrees>
            </Position>
            <AltitudeMeters>1125.199951171875</AltitudeMeters>
            <DistanceMeters>NAN</DistanceMeters>
          </Trackpoint>
          <Trackpoint>
            <Time>2021-08-03T08:40:00.000Z</Time>
            <Position>
              <LatitudeDegrees>-15.37400959990918636322021484375</LatitudeDegrees>
              <LongitudeDegrees>37.08913288079202175140380859375</LongitudeDegrees>
            </Position>
            <AltitudeMeters>1125.199951171875</AltitudeMeters>
            <DistanceMeters>NAN</DistanceMeters>
          </Trackpoint>
          <Trackpoint>
            <Time>2021-08-03T08:40:01.000Z</Time>
            <Position>
              <LatitudeDegrees>-15.374014712870121002197265625</LatitudeDegrees>
              <LongitudeDegrees>37.08912097848951816558837890625</LongitudeDegrees>
            </Position>
            <AltitudeMeters>1125.199951171875</AltitudeMeters>
            <DistanceMeters>NAN</DistanceMeters>
          </Trackpoint>
          <Trackpoint>
            <Time>2021-08-03T08:40:02.000Z</Time>
            <Position>
              <LatitudeDegrees>-15.3740192390978336334228515625</LatitudeDegrees>
              <LongitudeDegrees>37.089109830558300018310546875</LongitudeDegrees>
            </Position>
            <AltitudeMeters>1125.199951171875</AltitudeMeters>
            <DistanceMeters>NAN</DistanceMeters>
          </Trackpoint>
          <Trackpoint>
            <Time>2021-08-03T08:40:04.000Z</Time>
            <Position>
              <LatitudeDegrees>-15.37403005175292491912841796875</LatitudeDegrees>
              <LongitudeDegrees>37.08908577449619770050048828125</LongitudeDegrees>
            </Position>
            <AltitudeMeters>1125.4000244140625</AltitudeMeters>
            <DistanceMeters>NAN</DistanceMeters>
          </Trackpoint>
          <Trackpoint>
            <Time>2021-08-03T08:40:12.000Z</Time>
            <Position>
              <LatitudeDegrees>-15.37405217997729778289794921875</LatitudeDegrees>
              <LongitudeDegrees>37.088991813361644744873046875</LongitudeDegrees>
            </Position>
            <AltitudeMeters>1125.800048828125</AltitudeMeters>
            <DistanceMeters>NAN</DistanceMeters>
          </Trackpoint>
          <Trackpoint>
            <Time>2021-08-03T08:40:15.000Z</Time>
            <Position>
              <LatitudeDegrees>-15.37405620329082012176513671875</LatitudeDegrees>
              <LongitudeDegrees>37.08895971067249774932861328125</LongitudeDegrees>
            </Position>
            <AltitudeMeters>1126.199951171875</AltitudeMeters>
            <DistanceMeters>NAN</DistanceMeters>
          </Trackpoint>
          <Trackpoint>
            <Time>2021-08-03T08:40:21.000Z</Time>
            <Position>
              <LatitudeDegrees>-15.37410045973956584930419921875</LatitudeDegrees>
              <LongitudeDegrees>37.08890707232058048248291015625</LongitudeDegrees>
            </Position>
            <AltitudeMeters>1126.5999755859375</AltitudeMeters>
            <DistanceMeters>NAN</DistanceMeters>
          </Trackpoint>
          <Trackpoint>
            <Time>2021-08-03T08:40:27.000Z</Time>
            <Position>
              <LatitudeDegrees>-15.3741261921823024749755859375</LatitudeDegrees>
              <LongitudeDegrees>37.08883649669587612152099609375</LongitudeDegrees>
            </Position>
            <AltitudeMeters>1125.800048828125</AltitudeMeters>
            <DistanceMeters>NAN</DistanceMeters>
          </Trackpoint>
          <Trackpoint>
            <Time>2021-08-03T08:40:30.000Z</Time>
            <Position>
              <LatitudeDegrees>-15.37414102815091609954833984375</LatitudeDegrees>
              <LongitudeDegrees>37.08879726938903331756591796875</LongitudeDegrees>
            </Position>
            <AltitudeMeters>1125.5999755859375</AltitudeMeters>
            <DistanceMeters>NAN</DistanceMeters>
          </Trackpoint>
          <Trackpoint>
            <Time>2021-08-03T08:40:39.000Z</Time>
            <Position>
              <LatitudeDegrees>-15.37423037923872470855712890625</LatitudeDegrees>
              <LongitudeDegrees>37.08871311508119106292724609375</LongitudeDegrees>
            </Position>
            <AltitudeMeters>1125.199951171875</AltitudeMeters>
            <DistanceMeters>NAN</DistanceMeters>
          </Trackpoint>
          <Trackpoint>
            <Time>2021-08-03T08:40:43.000Z</Time>
            <Position>
              <LatitudeDegrees>-15.37427949719130992889404296875</LatitudeDegrees>
              <LongitudeDegrees>37.08870858885347843170166015625</LongitudeDegrees>
            </Position>
            <AltitudeMeters>1125.199951171875</AltitudeMeters>
            <DistanceMeters>NAN</DistanceMeters>
          </Trackpoint>
          <Trackpoint>
            <Time>2021-08-03T08:40:46.000Z</Time>
            <Position>
              <LatitudeDegrees>-15.37431889213621616363525390625</LatitudeDegrees>
              <LongitudeDegrees>37.08871227689087390899658203125</LongitudeDegrees>
            </Position>
            <AltitudeMeters>1125.199951171875</AltitudeMeters>
            <DistanceMeters>NAN</DistanceMeters>
          </Trackpoint>
          <Trackpoint>
            <Time>2021-08-03T08:40:48.000Z</Time>
            <Position>
              <LatitudeDegrees>-15.3743429481983184814453125</LatitudeDegrees>
              <LongitudeDegrees>37.0887143723666667938232421875</LongitudeDegrees>
            </Position>
            <AltitudeMeters>1125.4000244140625</AltitudeMeters>
            <DistanceMeters>NAN</DistanceMeters>
          </Trackpoint>
          <Trackpoint>
            <Time>2021-08-03T08:40:51.000Z</Time>
            <Position>
              <LatitudeDegrees>-15.37437982857227325439453125</LatitudeDegrees>
              <LongitudeDegrees>37.08871982060372829437255859375</LongitudeDegrees>
            </Position>
            <AltitudeMeters>1125.199951171875</AltitudeMeters>
            <DistanceMeters>NAN</DistanceMeters>
          </Trackpoint>
          <Trackpoint>
            <Time>2021-08-03T08:40:58.000Z</Time>
            <Position>
              <LatitudeDegrees>-15.37446524016559123992919921875</LatitudeDegrees>
              <LongitudeDegrees>37.08873172290623188018798828125</LongitudeDegrees>
            </Position>
            <AltitudeMeters>1125</AltitudeMeters>
            <DistanceMeters>NAN</DistanceMeters>
          </Trackpoint>
          <Trackpoint>
            <Time>2021-08-03T08:41:05.000Z</Time>
            <Position>
              <LatitudeDegrees>-15.374547801911830902099609375</LatitudeDegrees>
              <LongitudeDegrees>37.08875368349254131317138671875</LongitudeDegrees>
            </Position>
            <AltitudeMeters>1124</AltitudeMeters>
            <DistanceMeters>NAN</DistanceMeters>
          </Trackpoint>
          <Trackpoint>
            <Time>2021-08-03T08:41:12.000Z</Time>
            <Position>
              <LatitudeDegrees>-15.37463472224771976470947265625</LatitudeDegrees>
              <LongitudeDegrees>37.08878067322075366973876953125</LongitudeDegrees>
            </Position>
            <AltitudeMeters>1123</AltitudeMeters>
            <DistanceMeters>NAN</DistanceMeters>
          </Trackpoint>
          <Trackpoint>
            <Time>2021-08-03T08:41:20.000Z</Time>
            <Position>
              <LatitudeDegrees>-15.37472809664905071258544921875</LatitudeDegrees>
              <LongitudeDegrees>37.08879726938903331756591796875</LongitudeDegrees>
            </Position>
            <AltitudeMeters>1121.800048828125</AltitudeMeters>
            <DistanceMeters>NAN</DistanceMeters>
          </Trackpoint>
          <Trackpoint>
            <Time>2021-08-03T08:41:23.000Z</Time>
            <Position>
              <LatitudeDegrees>-15.37476380355656147003173828125</LatitudeDegrees>
              <LongitudeDegrees>37.0887988619506359100341796875</LongitudeDegrees>
            </Position>
            <AltitudeMeters>1121.5999755859375</AltitudeMeters>
            <DistanceMeters>NAN</DistanceMeters>
          </Trackpoint>
          <Trackpoint>
            <Time>2021-08-03T08:41:27.000Z</Time>
            <Position>
              <LatitudeDegrees>-15.374818705022335052490234375</LatitudeDegrees>
              <LongitudeDegrees>37.08880162797868251800537109375</LongitudeDegrees>
            </Position>
            <AltitudeMeters>1120.5999755859375</AltitudeMeters>
            <DistanceMeters>NAN</DistanceMeters>
          </Trackpoint>
          <Trackpoint>
            <Time>2021-08-03T08:41:35.000Z</Time>
            <Position>
              <LatitudeDegrees>-15.37492205388844013214111328125</LatitudeDegrees>
              <LongitudeDegrees>37.0887978561222553253173828125</LongitudeDegrees>
            </Position>
            <AltitudeMeters>1120</AltitudeMeters>
            <DistanceMeters>NAN</DistanceMeters>
          </Trackpoint>
          <Trackpoint>
            <Time>2021-08-03T08:41:39.000Z</Time>
            <Position>
              <LatitudeDegrees>-15.374969579279422760009765625</LatitudeDegrees>
              <LongitudeDegrees>37.08880414254963397979736328125</LongitudeDegrees>
            </Position>
            <AltitudeMeters>1120</AltitudeMeters>
            <DistanceMeters>NAN</DistanceMeters>
          </Trackpoint>
          <Trackpoint>
            <Time>2021-08-03T08:41:45.000Z</Time>
            <Position>
              <LatitudeDegrees>-15.375029928982257843017578125</LatitudeDegrees>
              <LongitudeDegrees>37.08883280865848064422607421875</LongitudeDegrees>
            </Position>
            <AltitudeMeters>1120.4000244140625</AltitudeMeters>
            <DistanceMeters>NAN</DistanceMeters>
          </Trackpoint>
          <Trackpoint>
            <Time>2021-08-03T08:41:52.000Z</Time>
            <Position>
              <LatitudeDegrees>-15.3750964812934398651123046875</LatitudeDegrees>
              <LongitudeDegrees>37.088864743709564208984375</LongitudeDegrees>
            </Position>
            <AltitudeMeters>1121.5999755859375</AltitudeMeters>
            <DistanceMeters>NAN</DistanceMeters>
          </Trackpoint>
          <Trackpoint>
            <Time>2021-08-03T08:41:54.000Z</Time>
            <Position>
              <LatitudeDegrees>-15.3751108981668949127197265625</LatitudeDegrees>
              <LongitudeDegrees>37.088875137269496917724609375</LongitudeDegrees>
            </Position>
            <AltitudeMeters>1121.5999755859375</AltitudeMeters>
            <DistanceMeters>NAN</DistanceMeters>
          </Trackpoint>
          <Trackpoint>
            <Time>2021-08-03T08:42:03.000Z</Time>
            <Position>
              <LatitudeDegrees>-15.375213660299777984619140625</LatitudeDegrees>
              <LongitudeDegrees>37.088908664882183074951171875</LongitudeDegrees>
            </Position>
            <AltitudeMeters>1121.5999755859375</AltitudeMeters>
            <DistanceMeters>NAN</DistanceMeters>
          </Trackpoint>
          <Trackpoint>
            <Time>2021-08-03T08:42:07.000Z</Time>
            <Position>
              <LatitudeDegrees>-15.37525959312915802001953125</LatitudeDegrees>
              <LongitudeDegrees>37.08891411311924457550048828125</LongitudeDegrees>
            </Position>
            <AltitudeMeters>1121.199951171875</AltitudeMeters>
            <DistanceMeters>NAN</DistanceMeters>
          </Trackpoint>
          <Trackpoint>
            <Time>2021-08-03T08:42:10.000Z</Time>
            <Position>
              <LatitudeDegrees>-15.375287421047687530517578125</LatitudeDegrees>
              <LongitudeDegrees>37.08891159854829311370849609375</LongitudeDegrees>
            </Position>
            <AltitudeMeters>1121.199951171875</AltitudeMeters>
            <DistanceMeters>NAN</DistanceMeters>
          </Trackpoint>
          <Trackpoint>
            <Time>2021-08-03T08:42:20.000Z</Time>
            <Position>
              <LatitudeDegrees>-15.375406779348850250244140625</LatitudeDegrees>
              <LongitudeDegrees>37.08892970345914363861083984375</LongitudeDegrees>
            </Position>
            <AltitudeMeters>1121.5999755859375</AltitudeMeters>
            <DistanceMeters>NAN</DistanceMeters>
          </Trackpoint>
          <Trackpoint>
            <Time>2021-08-03T08:42:22.000Z</Time>
            <Position>
              <LatitudeDegrees>-15.3754300810396671295166015625</LatitudeDegrees>
              <LongitudeDegrees>37.08893054164946079254150390625</LongitudeDegrees>
            </Position>
            <AltitudeMeters>1121.5999755859375</AltitudeMeters>
            <DistanceMeters>NAN</DistanceMeters>
          </Trackpoint>
          <Trackpoint>
            <Time>2021-08-03T08:42:24.000Z</Time>
            <Position>
              <LatitudeDegrees>-15.37545262835919857025146484375</LatitudeDegrees>
              <LongitudeDegrees>37.08893355913460254669189453125</LongitudeDegrees>
            </Position>
            <AltitudeMeters>1121.5999755859375</AltitudeMeters>
            <DistanceMeters>NAN</DistanceMeters>
          </Trackpoint>
          <Trackpoint>
            <Time>2021-08-03T08:42:26.000Z</Time>
            <Position>
              <LatitudeDegrees>-15.37547626532614231109619140625</LatitudeDegrees>
              <LongitudeDegrees>37.08893607370555400848388671875</LongitudeDegrees>
            </Position>
            <AltitudeMeters>1121.5999755859375</AltitudeMeters>
            <DistanceMeters>NAN</DistanceMeters>
          </Trackpoint>
          <Trackpoint>
            <Time>2021-08-03T08:42:28.000Z</Time>
            <Position>
              <LatitudeDegrees>-15.37549872882664203643798828125</LatitudeDegrees>
              <LongitudeDegrees>37.08894076757133007049560546875</LongitudeDegrees>
            </Position>
            <AltitudeMeters>1121.4000244140625</AltitudeMeters>
            <DistanceMeters>NAN</DistanceMeters>
          </Trackpoint>
          <Trackpoint>
            <Time>2021-08-03T08:42:31.000Z</Time>
            <Position>
              <LatitudeDegrees>-15.375530831515789031982421875</LatitudeDegrees>
              <LongitudeDegrees>37.08894261159002780914306640625</LongitudeDegrees>
            </Position>
            <AltitudeMeters>1121.199951171875</AltitudeMeters>
            <DistanceMeters>NAN</DistanceMeters>
          </Trackpoint>
          <Trackpoint>
            <Time>2021-08-03T08:42:32.000Z</Time>
            <Position>
              <LatitudeDegrees>-15.37554264999926090240478515625</LatitudeDegrees>
              <LongitudeDegrees>37.0889440365135669708251953125</LongitudeDegrees>
            </Position>
            <AltitudeMeters>1121.199951171875</AltitudeMeters>
            <DistanceMeters>NAN</DistanceMeters>
          </Trackpoint>
          <Trackpoint>
            <Time>2021-08-03T08:42:35.000Z</Time>
            <Position>
              <LatitudeDegrees>-15.375572405755519866943359375</LatitudeDegrees>
              <LongitudeDegrees>37.0889437012374401092529296875</LongitudeDegrees>
            </Position>
            <AltitudeMeters>1121.800048828125</AltitudeMeters>
            <DistanceMeters>NAN</DistanceMeters>
          </Trackpoint>
          <Trackpoint>
            <Time>2021-08-03T08:42:37.000Z</Time>
            <Position>
              <LatitudeDegrees>-15.3755947016179561614990234375</LatitudeDegrees>
              <LongitudeDegrees>37.08894453942775726318359375</LongitudeDegrees>
            </Position>
            <AltitudeMeters>1121.800048828125</AltitudeMeters>
            <DistanceMeters>NAN</DistanceMeters>
          </Trackpoint>
          <Trackpoint>
            <Time>2021-08-03T08:42:39.000Z</Time>
            <Position>
              <LatitudeDegrees>-15.37561959587037563323974609375</LatitudeDegrees>
              <LongitudeDegrees>37.08894185721874237060546875</LongitudeDegrees>
            </Position>
            <AltitudeMeters>1121.800048828125</AltitudeMeters>
            <DistanceMeters>NAN</DistanceMeters>
          </Trackpoint>
          <Trackpoint>
            <Time>2021-08-03T08:42:41.000Z</Time>
            <Position>
              <LatitudeDegrees>-15.37564373575150966644287109375</LatitudeDegrees>
              <LongitudeDegrees>37.0889416895806789398193359375</LongitudeDegrees>
            </Position>
            <AltitudeMeters>1121.199951171875</AltitudeMeters>
            <DistanceMeters>NAN</DistanceMeters>
          </Trackpoint>
          <Trackpoint>
            <Time>2021-08-03T08:42:43.000Z</Time>
            <Position>
              <LatitudeDegrees>-15.37566821090877056121826171875</LatitudeDegrees>
              <LongitudeDegrees>37.08893959410488605499267578125</LongitudeDegrees>
            </Position>
            <AltitudeMeters>1121.199951171875</AltitudeMeters>
            <DistanceMeters>NAN</DistanceMeters>
          </Trackpoint>
          <Trackpoint>
            <Time>2021-08-03T08:42:52.000Z</Time>
            <Position>
              <LatitudeDegrees>-15.37578790448606014251708984375</LatitudeDegrees>
              <LongitudeDegrees>37.0889380015432834625244140625</LongitudeDegrees>
            </Position>
            <AltitudeMeters>1120.800048828125</AltitudeMeters>
            <DistanceMeters>NAN</DistanceMeters>
          </Trackpoint>
          <Trackpoint>
            <Time>2021-08-03T08:42:55.000Z</Time>
            <Position>
              <LatitudeDegrees>-15.37582746706902980804443359375</LatitudeDegrees>
              <LongitudeDegrees>37.08893758244812488555908203125</LongitudeDegrees>
            </Position>
            <AltitudeMeters>1120.4000244140625</AltitudeMeters>
            <DistanceMeters>NAN</DistanceMeters>
          </Trackpoint>
          <Trackpoint>
            <Time>2021-08-03T08:43:01.000Z</Time>
            <Position>
              <LatitudeDegrees>-15.3759095259010791778564453125</LatitudeDegrees>
              <LongitudeDegrees>37.0889209024608135223388671875</LongitudeDegrees>
            </Position>
            <AltitudeMeters>1119</AltitudeMeters>
            <DistanceMeters>NAN</DistanceMeters>
          </Trackpoint>
          <Trackpoint>
            <Time>2021-08-03T08:43:04.000Z</Time>
            <Position>
              <LatitudeDegrees>-15.37595520727336406707763671875</LatitudeDegrees>
              <LongitudeDegrees>37.08890204317867755889892578125</LongitudeDegrees>
            </Position>
            <AltitudeMeters>1118.800048828125</AltitudeMeters>
            <DistanceMeters>NAN</DistanceMeters>
          </Trackpoint>
          <Trackpoint>
            <Time>2021-08-03T08:43:08.000Z</Time>
            <Position>
              <LatitudeDegrees>-15.37600616924464702606201171875</LatitudeDegrees>
              <LongitudeDegrees>37.0888830162584781646728515625</LongitudeDegrees>
            </Position>
            <AltitudeMeters>1117.800048828125</AltitudeMeters>
            <DistanceMeters>NAN</DistanceMeters>
          </Trackpoint>
          <Trackpoint>
            <Time>2021-08-03T08:43:12.000Z</Time>
            <Position>
              <LatitudeDegrees>-15.37604858167469501495361328125</LatitudeDegrees>
              <LongitudeDegrees>37.08888343535363674163818359375</LongitudeDegrees>
            </Position>
            <AltitudeMeters>1117</AltitudeMeters>
            <DistanceMeters>NAN</DistanceMeters>
          </Trackpoint>
          <Trackpoint>
            <Time>2021-08-03T08:43:16.000Z</Time>
            <Position>
              <LatitudeDegrees>-15.37609367631375789642333984375</LatitudeDegrees>
              <LongitudeDegrees>37.08887614309787750244140625</LongitudeDegrees>
            </Position>
            <AltitudeMeters>1116.800048828125</AltitudeMeters>
            <DistanceMeters>NAN</DistanceMeters>
          </Trackpoint>
          <Trackpoint>
            <Time>2021-08-03T08:43:20.000Z</Time>
            <Position>
              <LatitudeDegrees>-15.37614044733345508575439453125</LatitudeDegrees>
              <LongitudeDegrees>37.08885996602475643157958984375</LongitudeDegrees>
            </Position>
            <AltitudeMeters>1115.800048828125</AltitudeMeters>
            <DistanceMeters>NAN</DistanceMeters>
          </Trackpoint>
          <Trackpoint>
            <Time>2021-08-03T08:43:23.000Z</Time>
            <Position>
              <LatitudeDegrees>-15.376178584992885589599609375</LatitudeDegrees>
              <LongitudeDegrees>37.08883632905781269073486328125</LongitudeDegrees>
            </Position>
            <AltitudeMeters>1115.800048828125</AltitudeMeters>
            <DistanceMeters>NAN</DistanceMeters>
          </Trackpoint>
          <Trackpoint>
            <Time>2021-08-03T08:43:28.000Z</Time>
            <Position>
              <LatitudeDegrees>-15.3762220032513141632080078125</LatitudeDegrees>
              <LongitudeDegrees>37.088820151984691619873046875</LongitudeDegrees>
            </Position>
            <AltitudeMeters>1114.800048828125</AltitudeMeters>
            <DistanceMeters>NAN</DistanceMeters>
          </Trackpoint>
          <Trackpoint>
            <Time>2021-08-03T08:43:31.000Z</Time>
            <Position>
              <LatitudeDegrees>-15.37625729106366634368896484375</LatitudeDegrees>
              <LongitudeDegrees>37.0888256840407848358154296875</LongitudeDegrees>
            </Position>
            <AltitudeMeters>1114.4000244140625</AltitudeMeters>
            <DistanceMeters>NAN</DistanceMeters>
          </Trackpoint>
          <Trackpoint>
            <Time>2021-08-03T08:43:39.000Z</Time>
            <Position>
              <LatitudeDegrees>-15.3763614781200885772705078125</LatitudeDegrees>
              <LongitudeDegrees>37.08883096463978290557861328125</LongitudeDegrees>
            </Position>
            <AltitudeMeters>1113.800048828125</AltitudeMeters>
            <DistanceMeters>NAN</DistanceMeters>
          </Trackpoint>
          <Trackpoint>
            <Time>2021-08-03T08:43:46.000Z</Time>
            <Position>
              <LatitudeDegrees>-15.37644253112375736236572265625</LatitudeDegrees>
              <LongitudeDegrees>37.08883322775363922119140625</LongitudeDegrees>
            </Position>
            <AltitudeMeters>1113.5999755859375</AltitudeMeters>
            <DistanceMeters>NAN</DistanceMeters>
          </Trackpoint>
          <Trackpoint>
            <Time>2021-08-03T08:43:47.000Z</Time>
            <Position>
              <LatitudeDegrees>-15.37645661272108554840087890625</LatitudeDegrees>
              <LongitudeDegrees>37.0888312160968780517578125</LongitudeDegrees>
            </Position>
            <AltitudeMeters>1113.5999755859375</AltitudeMeters>
            <DistanceMeters>NAN</DistanceMeters>
          </Trackpoint>
          <Trackpoint>
            <Time>2021-08-03T08:43:51.000Z</Time>
            <Position>
              <LatitudeDegrees>-15.3765140287578105926513671875</LatitudeDegrees>
              <LongitudeDegrees>37.08883029408752918243408203125</LongitudeDegrees>
            </Position>
            <AltitudeMeters>1114.800048828125</AltitudeMeters>
            <DistanceMeters>NAN</DistanceMeters>
          </Trackpoint>
          <Trackpoint>
            <Time>2021-08-03T08:43:55.000Z</Time>
            <Position>
              <LatitudeDegrees>-15.376559793949127197265625</LatitudeDegrees>
              <LongitudeDegrees>37.08885661326348781585693359375</LongitudeDegrees>
            </Position>
            <AltitudeMeters>1115.4000244140625</AltitudeMeters>
            <DistanceMeters>NAN</DistanceMeters>
          </Trackpoint>
          <Trackpoint>
            <Time>2021-08-03T08:44:00.000Z</Time>
            <Position>
              <LatitudeDegrees>-15.3766055591404438018798828125</LatitudeDegrees>
              <LongitudeDegrees>37.0889017917215824127197265625</LongitudeDegrees>
            </Position>
            <AltitudeMeters>1115.4000244140625</AltitudeMeters>
            <DistanceMeters>NAN</DistanceMeters>
          </Trackpoint>
          <Trackpoint>
            <Time>2021-08-03T08:44:03.000Z</Time>
            <Position>
              <LatitudeDegrees>-15.37662710063159465789794921875</LatitudeDegrees>
              <LongitudeDegrees>37.08892576396465301513671875</LongitudeDegrees>
            </Position>
            <AltitudeMeters>1116</AltitudeMeters>
            <DistanceMeters>NAN</DistanceMeters>
          </Trackpoint>
          <Trackpoint>
            <Time>2021-08-03T08:44:08.000Z</Time>
            <Position>
              <LatitudeDegrees>-15.3766649030148983001708984375</LatitudeDegrees>
              <LongitudeDegrees>37.08897429518401622772216796875</LongitudeDegrees>
            </Position>
            <AltitudeMeters>1116.199951171875</AltitudeMeters>
            <DistanceMeters>NAN</DistanceMeters>
          </Trackpoint>
          <Trackpoint>
            <Time>2021-08-03T08:44:12.000Z</Time>
            <Position>
              <LatitudeDegrees>-15.3767061419785022735595703125</LatitudeDegrees>
              <LongitudeDegrees>37.08901016972959041595458984375</LongitudeDegrees>
            </Position>
            <AltitudeMeters>1116.199951171875</AltitudeMeters>
            <DistanceMeters>NAN</DistanceMeters>
          </Trackpoint>
          <Trackpoint>
            <Time>2021-08-03T08:44:19.000Z</Time>
            <Position>
              <LatitudeDegrees>-15.3767889551818370819091796875</LatitudeDegrees>
              <LongitudeDegrees>37.0890590362250804901123046875</LongitudeDegrees>
            </Position>
            <AltitudeMeters>1116.5999755859375</AltitudeMeters>
            <DistanceMeters>NAN</DistanceMeters>
          </Trackpoint>
          <Trackpoint>
            <Time>2021-08-03T08:44:20.000Z</Time>
            <Position>
              <LatitudeDegrees>-15.37680094130337238311767578125</LatitudeDegrees>
              <LongitudeDegrees>37.089066244661808013916015625</LongitudeDegrees>
            </Position>
            <AltitudeMeters>1116.5999755859375</AltitudeMeters>
            <DistanceMeters>NAN</DistanceMeters>
          </Trackpoint>
          <Trackpoint>
            <Time>2021-08-03T08:44:21.000Z</Time>
            <Position>
              <LatitudeDegrees>-15.3768134303390979766845703125</LatitudeDegrees>
              <LongitudeDegrees>37.08907286636531352996826171875</LongitudeDegrees>
            </Position>
            <AltitudeMeters>1116.5999755859375</AltitudeMeters>
            <DistanceMeters>NAN</DistanceMeters>
          </Trackpoint>
          <Trackpoint>
            <Time>2021-08-03T08:44:22.000Z</Time>
            <Position>
              <LatitudeDegrees>-15.3768278472125530242919921875</LatitudeDegrees>
              <LongitudeDegrees>37.089076302945613861083984375</LongitudeDegrees>
            </Position>
            <AltitudeMeters>1116.5999755859375</AltitudeMeters>
            <DistanceMeters>NAN</DistanceMeters>
          </Trackpoint>
          <Trackpoint>
            <Time>2021-08-03T08:44:23.000Z</Time>
            <Position>
              <LatitudeDegrees>-15.37684000097215175628662109375</LatitudeDegrees>
              <LongitudeDegrees>37.0890791527926921844482421875</LongitudeDegrees>
            </Position>
            <AltitudeMeters>1116.4000244140625</AltitudeMeters>
            <DistanceMeters>NAN</DistanceMeters>
          </Trackpoint>
          <Trackpoint>
            <Time>2021-08-03T08:44:24.000Z</Time>
            <Position>
              <LatitudeDegrees>-15.37685290910303592681884765625</LatitudeDegrees>
              <LongitudeDegrees>37.08908426575362682342529296875</LongitudeDegrees>
            </Position>
            <AltitudeMeters>1116.4000244140625</AltitudeMeters>
            <DistanceMeters>NAN</DistanceMeters>
          </Trackpoint>
          <Trackpoint>
            <Time>2021-08-03T08:44:25.000Z</Time>
            <Position>
              <LatitudeDegrees>-15.37686531431972980499267578125</LatitudeDegrees>
              <LongitudeDegrees>37.08909080363810062408447265625</LongitudeDegrees>
            </Position>
            <AltitudeMeters>1116.4000244140625</AltitudeMeters>
            <DistanceMeters>NAN</DistanceMeters>
          </Trackpoint>
          <Trackpoint>
            <Time>2021-08-03T08:44:26.000Z</Time>
            <Position>
              <LatitudeDegrees>-15.37687872536480426788330078125</LatitudeDegrees>
              <LongitudeDegrees>37.0890965871512889862060546875</LongitudeDegrees>
            </Position>
            <AltitudeMeters>1116.4000244140625</AltitudeMeters>
            <DistanceMeters>NAN</DistanceMeters>
          </Trackpoint>
          <Trackpoint>
            <Time>2021-08-03T08:44:29.000Z</Time>
            <Position>
              <LatitudeDegrees>-15.37691007368266582489013671875</LatitudeDegrees>
              <LongitudeDegrees>37.0891130156815052032470703125</LongitudeDegrees>
            </Position>
            <AltitudeMeters>1116.5999755859375</AltitudeMeters>
            <DistanceMeters>NAN</DistanceMeters>
          </Trackpoint>
          <Trackpoint>
            <Time>2021-08-03T08:44:31.000Z</Time>
            <Position>
              <LatitudeDegrees>-15.3769339621067047119140625</LatitudeDegrees>
              <LongitudeDegrees>37.0891267620027065277099609375</LongitudeDegrees>
            </Position>
            <AltitudeMeters>1116.800048828125</AltitudeMeters>
            <DistanceMeters>NAN</DistanceMeters>
          </Trackpoint>
          <Trackpoint>
            <Time>2021-08-03T08:44:42.000Z</Time>
            <Position>
              <LatitudeDegrees>-15.3770531527698040008544921875</LatitudeDegrees>
              <LongitudeDegrees>37.0892105810344219207763671875</LongitudeDegrees>
            </Position>
            <AltitudeMeters>1116.4000244140625</AltitudeMeters>
            <DistanceMeters>NAN</DistanceMeters>
          </Trackpoint>
          <Trackpoint>
            <Time>2021-08-03T08:44:50.000Z</Time>
            <Position>
              <LatitudeDegrees>-15.37713118828833103179931640625</LatitudeDegrees>
              <LongitudeDegrees>37.08927017636597156524658203125</LongitudeDegrees>
            </Position>
            <AltitudeMeters>1116.4000244140625</AltitudeMeters>
            <DistanceMeters>NAN</DistanceMeters>
          </Trackpoint>
          <Trackpoint>
            <Time>2021-08-03T08:45:00.000Z</Time>
            <Position>
              <LatitudeDegrees>-15.3772392310202121734619140625</LatitudeDegrees>
              <LongitudeDegrees>37.08931527100503444671630859375</LongitudeDegrees>
            </Position>
            <AltitudeMeters>1114.5999755859375</AltitudeMeters>
            <DistanceMeters>NAN</DistanceMeters>
          </Trackpoint>
          <Trackpoint>
            <Time>2021-08-03T08:45:03.000Z</Time>
            <Position>
              <LatitudeDegrees>-15.37727250717580318450927734375</LatitudeDegrees>
              <LongitudeDegrees>37.08932809531688690185546875</LongitudeDegrees>
            </Position>
            <AltitudeMeters>1114.199951171875</AltitudeMeters>
            <DistanceMeters>NAN</DistanceMeters>
          </Trackpoint>
          <Trackpoint>
            <Time>2021-08-03T08:45:07.000Z</Time>
            <Position>
              <LatitudeDegrees>-15.37731743417680263519287109375</LatitudeDegrees>
              <LongitudeDegrees>37.08934594877064228057861328125</LongitudeDegrees>
            </Position>
            <AltitudeMeters>1113.4000244140625</AltitudeMeters>
            <DistanceMeters>NAN</DistanceMeters>
          </Trackpoint>
          <Trackpoint>
            <Time>2021-08-03T08:45:11.000Z</Time>
            <Position>
              <LatitudeDegrees>-15.377364791929721832275390625</LatitudeDegrees>
              <LongitudeDegrees>37.08936539478600025177001953125</LongitudeDegrees>
            </Position>
            <AltitudeMeters>1113</AltitudeMeters>
            <DistanceMeters>NAN</DistanceMeters>
          </Trackpoint>
          <Trackpoint>
            <Time>2021-08-03T08:45:17.000Z</Time>
            <Position>
              <LatitudeDegrees>-15.37743444554507732391357421875</LatitudeDegrees>
              <LongitudeDegrees>37.08938844501972198486328125</LongitudeDegrees>
            </Position>
            <AltitudeMeters>1112.800048828125</AltitudeMeters>
            <DistanceMeters>NAN</DistanceMeters>
          </Trackpoint>
          <Trackpoint>
            <Time>2021-08-03T08:45:26.000Z</Time>
            <Position>
              <LatitudeDegrees>-15.3775436617434024810791015625</LatitudeDegrees>
              <LongitudeDegrees>37.0894466154277324676513671875</LongitudeDegrees>
            </Position>
            <AltitudeMeters>1112.4000244140625</AltitudeMeters>
            <DistanceMeters>NAN</DistanceMeters>
          </Trackpoint>
          <Trackpoint>
            <Time>2021-08-03T08:45:31.000Z</Time>
            <Position>
              <LatitudeDegrees>-15.37759068422019481658935546875</LatitudeDegrees>
              <LongitudeDegrees>37.08949414081871509552001953125</LongitudeDegrees>
            </Position>
            <AltitudeMeters>1112.199951171875</AltitudeMeters>
            <DistanceMeters>NAN</DistanceMeters>
          </Trackpoint>
          <Trackpoint>
            <Time>2021-08-03T08:45:42.000Z</Time>
            <Position>
              <LatitudeDegrees>-15.37768472917377948760986328125</LatitudeDegrees>
              <LongitudeDegrees>37.08961643278598785400390625</LongitudeDegrees>
            </Position>
            <AltitudeMeters>1112.199951171875</AltitudeMeters>
            <DistanceMeters>NAN</DistanceMeters>
          </Trackpoint>
          <Trackpoint>
            <Time>2021-08-03T08:45:52.000Z</Time>
            <Position>
              <LatitudeDegrees>-15.3777696378529071807861328125</LatitudeDegrees>
              <LongitudeDegrees>37.08971944637596607208251953125</LongitudeDegrees>
            </Position>
            <AltitudeMeters>1111.5999755859375</AltitudeMeters>
            <DistanceMeters>NAN</DistanceMeters>
          </Trackpoint>
          <Trackpoint>
            <Time>2021-08-03T08:46:00.000Z</Time>
            <Position>
              <LatitudeDegrees>-15.3778588213026523590087890625</LatitudeDegrees>
              <LongitudeDegrees>37.08975599147379398345947265625</LongitudeDegrees>
            </Position>
            <AltitudeMeters>1112.199951171875</AltitudeMeters>
            <DistanceMeters>NAN</DistanceMeters>
          </Trackpoint>
          <Trackpoint>
            <Time>2021-08-03T08:46:10.000Z</Time>
            <Position>
              <LatitudeDegrees>-15.37798605859279632568359375</LatitudeDegrees>
              <LongitudeDegrees>37.089773006737232208251953125</LongitudeDegrees>
            </Position>
            <AltitudeMeters>1112.4000244140625</AltitudeMeters>
            <DistanceMeters>NAN</DistanceMeters>
          </Trackpoint>
          <Trackpoint>
            <Time>2021-08-03T08:46:13.000Z</Time>
            <Position>
              <LatitudeDegrees>-15.3780257888138294219970703125</LatitudeDegrees>
              <LongitudeDegrees>37.0897812210023403167724609375</LongitudeDegrees>
            </Position>
            <AltitudeMeters>1112.4000244140625</AltitudeMeters>
            <DistanceMeters>NAN</DistanceMeters>
          </Trackpoint>
          <Trackpoint>
            <Time>2021-08-03T08:46:24.000Z</Time>
            <Position>
              <LatitudeDegrees>-15.37817071191966533660888671875</LatitudeDegrees>
              <LongitudeDegrees>37.08982019685208797454833984375</LongitudeDegrees>
            </Position>
            <AltitudeMeters>1112.4000244140625</AltitudeMeters>
            <DistanceMeters>NAN</DistanceMeters>
          </Trackpoint>
          <Trackpoint>
            <Time>2021-08-03T08:46:34.000Z</Time>
            <Position>
              <LatitudeDegrees>-15.37829778157174587249755859375</LatitudeDegrees>
              <LongitudeDegrees>37.0898663811385631561279296875</LongitudeDegrees>
            </Position>
            <AltitudeMeters>1112.4000244140625</AltitudeMeters>
            <DistanceMeters>NAN</DistanceMeters>
          </Trackpoint>
          <Trackpoint>
            <Time>2021-08-03T08:46:35.000Z</Time>
            <Position>
              <LatitudeDegrees>-15.378311611711978912353515625</LatitudeDegrees>
              <LongitudeDegrees>37.08987124264240264892578125</LongitudeDegrees>
            </Position>
            <AltitudeMeters>1112.5999755859375</AltitudeMeters>
            <DistanceMeters>NAN</DistanceMeters>
          </Trackpoint>
          <Trackpoint>
            <Time>2021-08-03T08:46:44.000Z</Time>
            <Position>
              <LatitudeDegrees>-15.378422923386096954345703125</LatitudeDegrees>
              <LongitudeDegrees>37.0899153314530849456787109375</LongitudeDegrees>
            </Position>
            <AltitudeMeters>1112.5999755859375</AltitudeMeters>
            <DistanceMeters>NAN</DistanceMeters>
          </Trackpoint>
          <Trackpoint>
            <Time>2021-08-03T08:46:47.000Z</Time>
            <Position>
              <LatitudeDegrees>-15.37846189923584461212158203125</LatitudeDegrees>
              <LongitudeDegrees>37.0899148285388946533203125</LongitudeDegrees>
            </Position>
            <AltitudeMeters>1112.199951171875</AltitudeMeters>
            <DistanceMeters>NAN</DistanceMeters>
          </Trackpoint>
          <Trackpoint>
            <Time>2021-08-03T08:47:00.000Z</Time>
            <Position>
              <LatitudeDegrees>-15.378618724644184112548828125</LatitudeDegrees>
              <LongitudeDegrees>37.08992010913789272308349609375</LongitudeDegrees>
            </Position>
            <AltitudeMeters>1112.5999755859375</AltitudeMeters>
            <DistanceMeters>NAN</DistanceMeters>
          </Trackpoint>
          <Trackpoint>
            <Time>2021-08-03T08:47:08.000Z</Time>
            <Position>
              <LatitudeDegrees>-15.37871989421546459197998046875</LatitudeDegrees>
              <LongitudeDegrees>37.0899260602891445159912109375</LongitudeDegrees>
            </Position>
            <AltitudeMeters>1112.800048828125</AltitudeMeters>
            <DistanceMeters>NAN</DistanceMeters>
          </Trackpoint>
          <Trackpoint>
            <Time>2021-08-03T08:47:21.000Z</Time>
            <Position>
              <LatitudeDegrees>-15.37887630052864551544189453125</LatitudeDegrees>
              <LongitudeDegrees>37.089912481606006622314453125</LongitudeDegrees>
            </Position>
            <AltitudeMeters>1111.5999755859375</AltitudeMeters>
            <DistanceMeters>NAN</DistanceMeters>
          </Trackpoint>
          <Trackpoint>
            <Time>2021-08-03T08:47:30.000Z</Time>
            <Position>
              <LatitudeDegrees>-15.37899096496403217315673828125</LatitudeDegrees>
              <LongitudeDegrees>37.089909799396991729736328125</LongitudeDegrees>
            </Position>
            <AltitudeMeters>1111.4000244140625</AltitudeMeters>
            <DistanceMeters>NAN</DistanceMeters>
          </Trackpoint>
          <Trackpoint>
            <Time>2021-08-03T08:47:39.000Z</Time>
            <Position>
              <LatitudeDegrees>-15.37911283783614635467529296875</LatitudeDegrees>
              <LongitudeDegrees>37.08992295898497104644775390625</LongitudeDegrees>
            </Position>
            <AltitudeMeters>1111.4000244140625</AltitudeMeters>
            <DistanceMeters>NAN</DistanceMeters>
          </Trackpoint>
          <Trackpoint>
            <Time>2021-08-03T08:47:41.000Z</Time>
            <Position>
              <LatitudeDegrees>-15.37913647480309009552001953125</LatitudeDegrees>
              <LongitudeDegrees>37.0899309217929840087890625</LongitudeDegrees>
            </Position>
            <AltitudeMeters>1111.4000244140625</AltitudeMeters>
            <DistanceMeters>NAN</DistanceMeters>
          </Trackpoint>
          <Trackpoint>
            <Time>2021-08-03T08:47:46.000Z</Time>
            <Position>
              <LatitudeDegrees>-15.37918978370726108551025390625</LatitudeDegrees>
              <LongitudeDegrees>37.089944668114185333251953125</LongitudeDegrees>
            </Position>
            <AltitudeMeters>1111.199951171875</AltitudeMeters>
            <DistanceMeters>NAN</DistanceMeters>
          </Trackpoint>
          <Trackpoint>
            <Time>2021-08-03T08:47:49.000Z</Time>
            <Position>
              <LatitudeDegrees>-15.3792331181466579437255859375</LatitudeDegrees>
              <LongitudeDegrees>37.0899535529315471649169921875</LongitudeDegrees>
            </Position>
            <AltitudeMeters>1111.4000244140625</AltitudeMeters>
            <DistanceMeters>NAN</DistanceMeters>
          </Trackpoint>
          <Trackpoint>
            <Time>2021-08-03T08:47:50.000Z</Time>
            <Position>
              <LatitudeDegrees>-15.37925030104815959930419921875</LatitudeDegrees>
              <LongitudeDegrees>37.0899558998644351959228515625</LongitudeDegrees>
            </Position>
            <AltitudeMeters>1111.199951171875</AltitudeMeters>
            <DistanceMeters>NAN</DistanceMeters>
          </Trackpoint>
          <Trackpoint>
            <Time>2021-08-03T08:47:53.000Z</Time>
            <Position>
              <LatitudeDegrees>-15.37929455749690532684326171875</LatitudeDegrees>
              <LongitudeDegrees>37.08996377885341644287109375</LongitudeDegrees>
            </Position>
            <AltitudeMeters>1111.199951171875</AltitudeMeters>
            <DistanceMeters>NAN</DistanceMeters>
          </Trackpoint>
          <Trackpoint>
            <Time>2021-08-03T08:47:55.000Z</Time>
            <Position>
              <LatitudeDegrees>-15.379316769540309906005859375</LatitudeDegrees>
              <LongitudeDegrees>37.08997316658496856689453125</LongitudeDegrees>
            </Position>
            <AltitudeMeters>1111.199951171875</AltitudeMeters>
            <DistanceMeters>NAN</DistanceMeters>
          </Trackpoint>
          <Trackpoint>
            <Time>2021-08-03T08:47:58.000Z</Time>
            <Position>
              <LatitudeDegrees>-15.3793471120297908782958984375</LatitudeDegrees>
              <LongitudeDegrees>37.089978866279125213623046875</LongitudeDegrees>
            </Position>
            <AltitudeMeters>1111</AltitudeMeters>
            <DistanceMeters>NAN</DistanceMeters>
          </Trackpoint>
          <Trackpoint>
            <Time>2021-08-03T08:48:07.000Z</Time>
            <Position>
              <LatitudeDegrees>-15.3794647939503192901611328125</LatitudeDegrees>
              <LongitudeDegrees>37.08994927816092967987060546875</LongitudeDegrees>
            </Position>
            <AltitudeMeters>1111.199951171875</AltitudeMeters>
            <DistanceMeters>NAN</DistanceMeters>
          </Trackpoint>
          <Trackpoint>
            <Time>2021-08-03T08:48:16.000Z</Time>
            <Position>
              <LatitudeDegrees>-15.3795519657433032989501953125</LatitudeDegrees>
              <LongitudeDegrees>37.08987937308847904205322265625</LongitudeDegrees>
            </Position>
            <AltitudeMeters>1111.4000244140625</AltitudeMeters>
            <DistanceMeters>NAN</DistanceMeters>
          </Trackpoint>
          <Trackpoint>
            <Time>2021-08-03T08:48:23.000Z</Time>
            <Position>
              <LatitudeDegrees>-15.3795861639082431793212890625</LatitudeDegrees>
              <LongitudeDegrees>37.0897966437041759490966796875</LongitudeDegrees>
            </Position>
            <AltitudeMeters>1111.4000244140625</AltitudeMeters>
            <DistanceMeters>NAN</DistanceMeters>
          </Trackpoint>
          <Trackpoint>
            <Time>2021-08-03T08:48:26.000Z</Time>
            <Position>
              <LatitudeDegrees>-15.37960301153361797332763671875</LatitudeDegrees>
              <LongitudeDegrees>37.08976127207279205322265625</LongitudeDegrees>
            </Position>
            <AltitudeMeters>1111.5999755859375</AltitudeMeters>
            <DistanceMeters>NAN</DistanceMeters>
          </Trackpoint>
          <Trackpoint>
            <Time>2021-08-03T08:48:28.000Z</Time>
            <Position>
              <LatitudeDegrees>-15.3796136565506458282470703125</LatitudeDegrees>
              <LongitudeDegrees>37.08974693901836872100830078125</LongitudeDegrees>
            </Position>
            <AltitudeMeters>1111.5999755859375</AltitudeMeters>
            <DistanceMeters>NAN</DistanceMeters>
          </Trackpoint>
          <Trackpoint>
            <Time>2021-08-03T08:48:31.000Z</Time>
            <Position>
              <LatitudeDegrees>-15.3796367906033992767333984375</LatitudeDegrees>
              <LongitudeDegrees>37.089719362556934356689453125</LongitudeDegrees>
            </Position>
            <AltitudeMeters>1112.800048828125</AltitudeMeters>
            <DistanceMeters>NAN</DistanceMeters>
          </Trackpoint>
          <Trackpoint>
            <Time>2021-08-03T08:48:33.000Z</Time>
            <Position>
              <LatitudeDegrees>-15.37965615279972553253173828125</LatitudeDegrees>
              <LongitudeDegrees>37.08970972336828708648681640625</LongitudeDegrees>
            </Position>
            <AltitudeMeters>1113</AltitudeMeters>
            <DistanceMeters>NAN</DistanceMeters>
          </Trackpoint>
          <Trackpoint>
            <Time>2021-08-03T08:48:36.000Z</Time>
            <Position>
              <LatitudeDegrees>-15.37968716584146022796630859375</LatitudeDegrees>
              <LongitudeDegrees>37.089701928198337554931640625</LongitudeDegrees>
            </Position>
            <AltitudeMeters>1113.5999755859375</AltitudeMeters>
            <DistanceMeters>NAN</DistanceMeters>
          </Trackpoint>
          <Trackpoint>
            <Time>2021-08-03T08:48:38.000Z</Time>
            <Position>
              <LatitudeDegrees>-15.37970845587551593780517578125</LatitudeDegrees>
              <LongitudeDegrees>37.08969631232321262359619140625</LongitudeDegrees>
            </Position>
            <AltitudeMeters>1114</AltitudeMeters>
            <DistanceMeters>NAN</DistanceMeters>
          </Trackpoint>
          <Trackpoint>
            <Time>2021-08-03T08:48:42.000Z</Time>
            <Position>
              <LatitudeDegrees>-15.3797581605613231658935546875</LatitudeDegrees>
              <LongitudeDegrees>37.089698575437068939208984375</LongitudeDegrees>
            </Position>
            <AltitudeMeters>1114.800048828125</AltitudeMeters>
            <DistanceMeters>NAN</DistanceMeters>
          </Trackpoint>
          <Trackpoint>
            <Time>2021-08-03T08:48:45.000Z</Time>
            <Position>
              <LatitudeDegrees>-15.3797940351068973541259765625</LatitudeDegrees>
              <LongitudeDegrees>37.0896963961422443389892578125</LongitudeDegrees>
            </Position>
            <AltitudeMeters>1114.800048828125</AltitudeMeters>
            <DistanceMeters>NAN</DistanceMeters>
          </Trackpoint>
          <Trackpoint>
            <Time>2021-08-03T08:48:46.000Z</Time>
            <Position>
              <LatitudeDegrees>-15.37980501540005207061767578125</LatitudeDegrees>
              <LongitudeDegrees>37.0896967314183712005615234375</LongitudeDegrees>
            </Position>
            <AltitudeMeters>1114.800048828125</AltitudeMeters>
            <DistanceMeters>NAN</DistanceMeters>
          </Trackpoint>
          <Trackpoint>
            <Time>2021-08-03T08:48:48.000Z</Time>
            <Position>
              <LatitudeDegrees>-15.379830412566661834716796875</LatitudeDegrees>
              <LongitudeDegrees>37.08969446830451488494873046875</LongitudeDegrees>
            </Position>
            <AltitudeMeters>1115</AltitudeMeters>
            <DistanceMeters>NAN</DistanceMeters>
          </Trackpoint>
          <Trackpoint>
            <Time>2021-08-03T08:48:50.000Z</Time>
            <Position>
              <LatitudeDegrees>-15.37985513918101787567138671875</LatitudeDegrees>
              <LongitudeDegrees>37.08969061262905597686767578125</LongitudeDegrees>
            </Position>
            <AltitudeMeters>1115</AltitudeMeters>
            <DistanceMeters>NAN</DistanceMeters>
          </Trackpoint>
          <Trackpoint>
            <Time>2021-08-03T08:48:52.000Z</Time>
            <Position>
              <LatitudeDegrees>-15.37987726740539073944091796875</LatitudeDegrees>
              <LongitudeDegrees>37.08968843333423137664794921875</LongitudeDegrees>
            </Position>
            <AltitudeMeters>1115.199951171875</AltitudeMeters>
            <DistanceMeters>NAN</DistanceMeters>
          </Trackpoint>
          <Trackpoint>
            <Time>2021-08-03T08:48:53.000Z</Time>
            <Position>
              <LatitudeDegrees>-15.3798892535269260406494140625</LatitudeDegrees>
              <LongitudeDegrees>37.08968725986778736114501953125</LongitudeDegrees>
            </Position>
            <AltitudeMeters>1115.199951171875</AltitudeMeters>
            <DistanceMeters>NAN</DistanceMeters>
          </Trackpoint>
          <Trackpoint>
            <Time>2021-08-03T08:48:55.000Z</Time>
            <Position>
              <LatitudeDegrees>-15.37991615943610668182373046875</LatitudeDegrees>
              <LongitudeDegrees>37.08968373946845531463623046875</LongitudeDegrees>
            </Position>
            <AltitudeMeters>1115</AltitudeMeters>
            <DistanceMeters>NAN</DistanceMeters>
          </Trackpoint>
          <Trackpoint>
            <Time>2021-08-03T08:48:57.000Z</Time>
            <Position>
              <LatitudeDegrees>-15.3799378685653209686279296875</LatitudeDegrees>
              <LongitudeDegrees>37.089681141078472137451171875</LongitudeDegrees>
            </Position>
            <AltitudeMeters>1115</AltitudeMeters>
            <DistanceMeters>NAN</DistanceMeters>
          </Trackpoint>
          <Trackpoint>
            <Time>2021-08-03T08:49:02.000Z</Time>
            <Position>
              <LatitudeDegrees>-15.3799972124397754669189453125</LatitudeDegrees>
              <LongitudeDegrees>37.0896729268133640289306640625</LongitudeDegrees>
            </Position>
            <AltitudeMeters>1115</AltitudeMeters>
            <DistanceMeters>NAN</DistanceMeters>
          </Trackpoint>
          <Trackpoint>
            <Time>2021-08-03T08:49:03.000Z</Time>
            <Position>
              <LatitudeDegrees>-15.3800106234848499298095703125</LatitudeDegrees>
              <LongitudeDegrees>37.08967200480401515960693359375</LongitudeDegrees>
            </Position>
            <AltitudeMeters>1115</AltitudeMeters>
            <DistanceMeters>NAN</DistanceMeters>
          </Trackpoint>
          <Trackpoint>
            <Time>2021-08-03T08:49:13.000Z</Time>
            <Position>
              <LatitudeDegrees>-15.380142219364643096923828125</LatitudeDegrees>
              <LongitudeDegrees>37.0896471105515956878662109375</LongitudeDegrees>
            </Position>
            <AltitudeMeters>1114.4000244140625</AltitudeMeters>
            <DistanceMeters>NAN</DistanceMeters>
          </Trackpoint>
          <Trackpoint>
            <Time>2021-08-03T08:49:18.000Z</Time>
            <Position>
              <LatitudeDegrees>-15.38020567037165164947509765625</LatitudeDegrees>
              <LongitudeDegrees>37.08963244222104549407958984375</LongitudeDegrees>
            </Position>
            <AltitudeMeters>1113.800048828125</AltitudeMeters>
            <DistanceMeters>NAN</DistanceMeters>
          </Trackpoint>
          <Trackpoint>
            <Time>2021-08-03T08:49:24.000Z</Time>
            <Position>
              <LatitudeDegrees>-15.38028714247047901153564453125</LatitudeDegrees>
              <LongitudeDegrees>37.08960930816829204559326171875</LongitudeDegrees>
            </Position>
            <AltitudeMeters>1113.5999755859375</AltitudeMeters>
            <DistanceMeters>NAN</DistanceMeters>
          </Trackpoint>
          <Trackpoint>
            <Time>2021-08-03T08:49:32.000Z</Time>
            <Position>
              <LatitudeDegrees>-15.3803764097392559051513671875</LatitudeDegrees>
              <LongitudeDegrees>37.08956857211887836456298828125</LongitudeDegrees>
            </Position>
            <AltitudeMeters>1113.5999755859375</AltitudeMeters>
            <DistanceMeters>NAN</DistanceMeters>
          </Trackpoint>
          <Trackpoint>
            <Time>2021-08-03T08:49:42.000Z</Time>
            <Position>
              <LatitudeDegrees>-15.38048998452723026275634765625</LatitudeDegrees>
              <LongitudeDegrees>37.08949950523674488067626953125</LongitudeDegrees>
            </Position>
            <AltitudeMeters>1113.4000244140625</AltitudeMeters>
            <DistanceMeters>NAN</DistanceMeters>
          </Trackpoint>
          <Trackpoint>
            <Time>2021-08-03T08:49:43.000Z</Time>
            <Position>
              <LatitudeDegrees>-15.3805001266300678253173828125</LatitudeDegrees>
              <LongitudeDegrees>37.0894932188093662261962890625</LongitudeDegrees>
            </Position>
            <AltitudeMeters>1113.4000244140625</AltitudeMeters>
            <DistanceMeters>NAN</DistanceMeters>
          </Trackpoint>
          <Trackpoint>
            <Time>2021-08-03T08:49:47.000Z</Time>
            <Position>
              <LatitudeDegrees>-15.38053994067013263702392578125</LatitudeDegrees>
              <LongitudeDegrees>37.0894630439579486846923828125</LongitudeDegrees>
            </Position>
            <AltitudeMeters>1113.199951171875</AltitudeMeters>
            <DistanceMeters>NAN</DistanceMeters>
          </Trackpoint>
          <Trackpoint>
            <Time>2021-08-03T08:49:48.000Z</Time>
            <Position>
              <LatitudeDegrees>-15.3805468976497650146484375</LatitudeDegrees>
              <LongitudeDegrees>37.08945441059768199920654296875</LongitudeDegrees>
            </Position>
            <AltitudeMeters>1112.5999755859375</AltitudeMeters>
            <DistanceMeters>NAN</DistanceMeters>
          </Trackpoint>
          <Trackpoint>
            <Time>2021-08-03T08:49:56.000Z</Time>
            <Position>
              <LatitudeDegrees>-15.38062476553022861480712890625</LatitudeDegrees>
              <LongitudeDegrees>37.08936824463307857513427734375</LongitudeDegrees>
            </Position>
            <AltitudeMeters>1113</AltitudeMeters>
            <DistanceMeters>NAN</DistanceMeters>
          </Trackpoint>
          <Trackpoint>
            <Time>2021-08-03T08:50:06.000Z</Time>
            <Position>
              <LatitudeDegrees>-15.380715541541576385498046875</LatitudeDegrees>
              <LongitudeDegrees>37.0892818272113800048828125</LongitudeDegrees>
            </Position>
            <AltitudeMeters>1113.199951171875</AltitudeMeters>
            <DistanceMeters>NAN</DistanceMeters>
          </Trackpoint>
          <Trackpoint>
            <Time>2021-08-03T08:50:16.000Z</Time>
            <Position>
              <LatitudeDegrees>-15.38083062507212162017822265625</LatitudeDegrees>
              <LongitudeDegrees>37.08921602927148342132568359375</LongitudeDegrees>
            </Position>
            <AltitudeMeters>1113.199951171875</AltitudeMeters>
            <DistanceMeters>NAN</DistanceMeters>
          </Trackpoint>
          <Trackpoint>
            <Time>2021-08-03T08:50:17.000Z</Time>
            <Position>
              <LatitudeDegrees>-15.3808481432497501373291015625</LatitudeDegrees>
              <LongitudeDegrees>37.08921938203275203704833984375</LongitudeDegrees>
            </Position>
            <AltitudeMeters>1113</AltitudeMeters>
            <DistanceMeters>NAN</DistanceMeters>
          </Trackpoint>
          <Trackpoint>
            <Time>2021-08-03T08:50:18.000Z</Time>
            <Position>
              <LatitudeDegrees>-15.3808633983135223388671875</LatitudeDegrees>
              <LongitudeDegrees>37.089225165545940399169921875</LongitudeDegrees>
            </Position>
            <AltitudeMeters>1113</AltitudeMeters>
            <DistanceMeters>NAN</DistanceMeters>
          </Trackpoint>
          <Trackpoint>
            <Time>2021-08-03T08:50:23.000Z</Time>
            <Position>
              <LatitudeDegrees>-15.3809101693332195281982421875</LatitudeDegrees>
              <LongitudeDegrees>37.089259363710880279541015625</LongitudeDegrees>
            </Position>
            <AltitudeMeters>1112.4000244140625</AltitudeMeters>
            <DistanceMeters>NAN</DistanceMeters>
          </Trackpoint>
          <Trackpoint>
            <Time>2021-08-03T08:50:24.000Z</Time>
            <Position>
              <LatitudeDegrees>-15.380922742187976837158203125</LatitudeDegrees>
              <LongitudeDegrees>37.089261375367641448974609375</LongitudeDegrees>
            </Position>
            <AltitudeMeters>1112.4000244140625</AltitudeMeters>
            <DistanceMeters>NAN</DistanceMeters>
          </Trackpoint>
          <Trackpoint>
            <Time>2021-08-03T08:50:26.000Z</Time>
            <Position>
              <LatitudeDegrees>-15.3809410147368907928466796875</LatitudeDegrees>
              <LongitudeDegrees>37.089273445308208465576171875</LongitudeDegrees>
            </Position>
            <AltitudeMeters>1112.5999755859375</AltitudeMeters>
            <DistanceMeters>NAN</DistanceMeters>
          </Trackpoint>
          <Trackpoint>
            <Time>2021-08-03T08:50:30.000Z</Time>
            <Position>
              <LatitudeDegrees>-15.38096490316092967987060546875</LatitudeDegrees>
              <LongitudeDegrees>37.08931560628116130828857421875</LongitudeDegrees>
            </Position>
            <AltitudeMeters>1113.800048828125</AltitudeMeters>
            <DistanceMeters>NAN</DistanceMeters>
          </Trackpoint>
          <Trackpoint>
            <Time>2021-08-03T08:50:35.000Z</Time>
            <Position>
              <LatitudeDegrees>-15.38098518736660480499267578125</LatitudeDegrees>
              <LongitudeDegrees>37.0893695019185543060302734375</LongitudeDegrees>
            </Position>
            <AltitudeMeters>1113.5999755859375</AltitudeMeters>
            <DistanceMeters>NAN</DistanceMeters>
          </Trackpoint>
          <Trackpoint>
            <Time>2021-08-03T08:50:38.000Z</Time>
            <Position>
              <LatitudeDegrees>-15.38100220263004302978515625</LatitudeDegrees>
              <LongitudeDegrees>37.089410237967967987060546875</LongitudeDegrees>
            </Position>
            <AltitudeMeters>1113.5999755859375</AltitudeMeters>
            <DistanceMeters>NAN</DistanceMeters>
          </Trackpoint>
          <Trackpoint>
            <Time>2021-08-03T08:50:39.000Z</Time>
            <Position>
              <LatitudeDegrees>-15.3810050524771213531494140625</LatitudeDegrees>
              <LongitudeDegrees>37.089416272938251495361328125</LongitudeDegrees>
            </Position>
            <AltitudeMeters>1113.5999755859375</AltitudeMeters>
            <DistanceMeters>NAN</DistanceMeters>
          </Trackpoint>
          <Trackpoint>
            <Time>2021-08-03T08:50:44.000Z</Time>
            <Position>
              <LatitudeDegrees>-15.38100278936326503753662109375</LatitudeDegrees>
              <LongitudeDegrees>37.0894171111285686492919921875</LongitudeDegrees>
            </Position>
            <AltitudeMeters>1113.199951171875</AltitudeMeters>
            <DistanceMeters>NAN</DistanceMeters>
          </Trackpoint>
          <Trackpoint>
            <Time>2021-08-03T08:50:45.000Z</Time>
            <Position>
              <LatitudeDegrees>-15.38099977187812328338623046875</LatitudeDegrees>
              <LongitudeDegrees>37.0894159376621246337890625</LongitudeDegrees>
            </Position>
            <AltitudeMeters>1113.199951171875</AltitudeMeters>
            <DistanceMeters>NAN</DistanceMeters>
          </Trackpoint>
          <Trackpoint>
            <Time>2021-08-03T08:50:51.000Z</Time>
            <Position>
              <LatitudeDegrees>-15.38097999058663845062255859375</LatitudeDegrees>
              <LongitudeDegrees>37.0894134230911731719970703125</LongitudeDegrees>
            </Position>
            <AltitudeMeters>1113.199951171875</AltitudeMeters>
            <DistanceMeters>NAN</DistanceMeters>
          </Trackpoint>
          <Trackpoint>
            <Time>2021-08-03T08:50:57.000Z</Time>
            <Position>
              <LatitudeDegrees>-15.38099591620266437530517578125</LatitudeDegrees>
              <LongitudeDegrees>37.08941166289150714874267578125</LongitudeDegrees>
            </Position>
            <AltitudeMeters>1113.199951171875</AltitudeMeters>
            <DistanceMeters>NAN</DistanceMeters>
          </Trackpoint>
          <Trackpoint>
            <Time>2021-08-03T08:51:02.000Z</Time>
            <Position>
              <LatitudeDegrees>-15.38099809549748897552490234375</LatitudeDegrees>
              <LongitudeDegrees>37.08940990269184112548828125</LongitudeDegrees>
            </Position>
            <AltitudeMeters>1113.199951171875</AltitudeMeters>
            <DistanceMeters>NAN</DistanceMeters>
          </Trackpoint>
          <Trackpoint>
            <Time>2021-08-03T08:51:06.000Z</Time>
            <Position>
              <LatitudeDegrees>-15.38099809549748897552490234375</LatitudeDegrees>
              <LongitudeDegrees>37.08940990269184112548828125</LongitudeDegrees>
            </Position>
            <AltitudeMeters>1113.199951171875</AltitudeMeters>
            <DistanceMeters>NAN</DistanceMeters>
          </Trackpoint>
          <Trackpoint>
            <Time>2021-08-03T08:51:10.000Z</Time>
            <Position>
              <LatitudeDegrees>-15.38099809549748897552490234375</LatitudeDegrees>
              <LongitudeDegrees>37.08940990269184112548828125</LongitudeDegrees>
            </Position>
            <AltitudeMeters>1113.199951171875</AltitudeMeters>
            <DistanceMeters>NAN</DistanceMeters>
          </Trackpoint>
          <Trackpoint>
            <Time>2021-08-03T08:51:15.000Z</Time>
            <Position>
              <LatitudeDegrees>-15.38099809549748897552490234375</LatitudeDegrees>
              <LongitudeDegrees>37.08941132761538028717041015625</LongitudeDegrees>
            </Position>
            <AltitudeMeters>1113.199951171875</AltitudeMeters>
            <DistanceMeters>NAN</DistanceMeters>
          </Trackpoint>
          <Trackpoint>
            <Time>2021-08-03T08:51:20.000Z</Time>
            <Position>
              <LatitudeDegrees>-15.38099742494523525238037109375</LatitudeDegrees>
              <LongitudeDegrees>37.08941350691020488739013671875</LongitudeDegrees>
            </Position>
            <AltitudeMeters>1113.199951171875</AltitudeMeters>
            <DistanceMeters>NAN</DistanceMeters>
          </Trackpoint>
          <Trackpoint>
            <Time>2021-08-03T08:51:24.000Z</Time>
            <Position>
              <LatitudeDegrees>-15.380997844040393829345703125</LatitudeDegrees>
              <LongitudeDegrees>37.08941392600536346435546875</LongitudeDegrees>
            </Position>
            <AltitudeMeters>1113.199951171875</AltitudeMeters>
            <DistanceMeters>NAN</DistanceMeters>
          </Trackpoint>
          <Trackpoint>
            <Time>2021-08-03T08:51:29.000Z</Time>
            <Position>
              <LatitudeDegrees>-15.3810137696564197540283203125</LatitudeDegrees>
              <LongitudeDegrees>37.08942465484142303466796875</LongitudeDegrees>
            </Position>
            <AltitudeMeters>1113.199951171875</AltitudeMeters>
            <DistanceMeters>NAN</DistanceMeters>
          </Trackpoint>
          <Trackpoint>
            <Time>2021-08-03T08:51:32.000Z</Time>
            <Position>
              <LatitudeDegrees>-15.38104101084172725677490234375</LatitudeDegrees>
              <LongitudeDegrees>37.089439742267131805419921875</LongitudeDegrees>
            </Position>
            <AltitudeMeters>1113.199951171875</AltitudeMeters>
            <DistanceMeters>NAN</DistanceMeters>
          </Trackpoint>
          <Trackpoint>
            <Time>2021-08-03T08:51:36.000Z</Time>
            <Position>
              <LatitudeDegrees>-15.38107302971184253692626953125</LatitudeDegrees>
              <LongitudeDegrees>37.08947234787046909332275390625</LongitudeDegrees>
            </Position>
            <AltitudeMeters>1113.5999755859375</AltitudeMeters>
            <DistanceMeters>NAN</DistanceMeters>
          </Trackpoint>
          <Trackpoint>
            <Time>2021-08-03T08:51:38.000Z</Time>
            <Position>
              <LatitudeDegrees>-15.38109264336526393890380859375</LatitudeDegrees>
              <LongitudeDegrees>37.0894896984100341796875</LongitudeDegrees>
            </Position>
            <AltitudeMeters>1113.5999755859375</AltitudeMeters>
            <DistanceMeters>NAN</DistanceMeters>
          </Trackpoint>
          <Trackpoint>
            <Time>2021-08-03T08:51:48.000Z</Time>
            <Position>
              <LatitudeDegrees>-15.38120814599096775054931640625</LatitudeDegrees>
              <LongitudeDegrees>37.08955750800669193267822265625</LongitudeDegrees>
            </Position>
            <AltitudeMeters>1115.4000244140625</AltitudeMeters>
            <DistanceMeters>NAN</DistanceMeters>
          </Trackpoint>
          <Trackpoint>
            <Time>2021-08-03T08:51:57.000Z</Time>
            <Position>
              <LatitudeDegrees>-15.381295569241046905517578125</LatitudeDegrees>
              <LongitudeDegrees>37.0896330289542675018310546875</LongitudeDegrees>
            </Position>
            <AltitudeMeters>1116.5999755859375</AltitudeMeters>
            <DistanceMeters>NAN</DistanceMeters>
          </Trackpoint>
          <Trackpoint>
            <Time>2021-08-03T08:51:58.000Z</Time>
            <Position>
              <LatitudeDegrees>-15.38130336441099643707275390625</LatitudeDegrees>
              <LongitudeDegrees>37.08964082412421703338623046875</LongitudeDegrees>
            </Position>
            <AltitudeMeters>1116.800048828125</AltitudeMeters>
            <DistanceMeters>NAN</DistanceMeters>
          </Trackpoint>
          <Trackpoint>
            <Time>2021-08-03T08:52:02.000Z</Time>
            <Position>
              <LatitudeDegrees>-15.38133571855723857879638671875</LatitudeDegrees>
              <LongitudeDegrees>37.08967032842338085174560546875</LongitudeDegrees>
            </Position>
            <AltitudeMeters>1117</AltitudeMeters>
            <DistanceMeters>NAN</DistanceMeters>
          </Trackpoint>
          <Trackpoint>
            <Time>2021-08-03T08:52:04.000Z</Time>
            <Position>
              <LatitudeDegrees>-15.381352901458740234375</LatitudeDegrees>
              <LongitudeDegrees>37.08968214690685272216796875</LongitudeDegrees>
            </Position>
            <AltitudeMeters>1117.5999755859375</AltitudeMeters>
            <DistanceMeters>NAN</DistanceMeters>
          </Trackpoint>
          <Trackpoint>
            <Time>2021-08-03T08:52:08.000Z</Time>
            <Position>
              <LatitudeDegrees>-15.38138282485306262969970703125</LatitudeDegrees>
              <LongitudeDegrees>37.08971441723406314849853515625</LongitudeDegrees>
            </Position>
            <AltitudeMeters>1117.800048828125</AltitudeMeters>
            <DistanceMeters>NAN</DistanceMeters>
          </Trackpoint>
          <Trackpoint>
            <Time>2021-08-03T08:52:10.000Z</Time>
            <Position>
              <LatitudeDegrees>-15.381400175392627716064453125</LatitudeDegrees>
              <LongitudeDegrees>37.089729420840740203857421875</LongitudeDegrees>
            </Position>
            <AltitudeMeters>1118.199951171875</AltitudeMeters>
            <DistanceMeters>NAN</DistanceMeters>
          </Trackpoint>
          <Trackpoint>
            <Time>2021-08-03T08:52:14.000Z</Time>
            <Position>
              <LatitudeDegrees>-15.381437055766582489013671875</LatitudeDegrees>
              <LongitudeDegrees>37.08976789377629756927490234375</LongitudeDegrees>
            </Position>
            <AltitudeMeters>1118.4000244140625</AltitudeMeters>
            <DistanceMeters>NAN</DistanceMeters>
          </Trackpoint>
          <Trackpoint>
            <Time>2021-08-03T08:52:17.000Z</Time>
            <Position>
              <LatitudeDegrees>-15.3814663924276828765869140625</LatitudeDegrees>
              <LongitudeDegrees>37.0897959731519222259521484375</LongitudeDegrees>
            </Position>
            <AltitudeMeters>1118</AltitudeMeters>
            <DistanceMeters>NAN</DistanceMeters>
          </Trackpoint>
          <Trackpoint>
            <Time>2021-08-03T08:52:25.000Z</Time>
            <Position>
              <LatitudeDegrees>-15.381540991365909576416015625</LatitudeDegrees>
              <LongitudeDegrees>37.0898611843585968017578125</LongitudeDegrees>
            </Position>
            <AltitudeMeters>1116.800048828125</AltitudeMeters>
            <DistanceMeters>NAN</DistanceMeters>
          </Trackpoint>
          <Trackpoint>
            <Time>2021-08-03T08:52:26.000Z</Time>
            <Position>
              <LatitudeDegrees>-15.3815485350787639617919921875</LatitudeDegrees>
              <LongitudeDegrees>37.08986713550984859466552734375</LongitudeDegrees>
            </Position>
            <AltitudeMeters>1116.4000244140625</AltitudeMeters>
            <DistanceMeters>NAN</DistanceMeters>
          </Trackpoint>
          <Trackpoint>
            <Time>2021-08-03T08:52:27.000Z</Time>
            <Position>
              <LatitudeDegrees>-15.38155817426741123199462890625</LatitudeDegrees>
              <LongitudeDegrees>37.08987501449882984161376953125</LongitudeDegrees>
            </Position>
            <AltitudeMeters>1116</AltitudeMeters>
            <DistanceMeters>NAN</DistanceMeters>
          </Trackpoint>
          <Trackpoint>
            <Time>2021-08-03T08:52:29.000Z</Time>
            <Position>
              <LatitudeDegrees>-15.381578542292118072509765625</LatitudeDegrees>
              <LongitudeDegrees>37.08989261649549007415771484375</LongitudeDegrees>
            </Position>
            <AltitudeMeters>1115.800048828125</AltitudeMeters>
            <DistanceMeters>NAN</DistanceMeters>
          </Trackpoint>
          <Trackpoint>
            <Time>2021-08-03T08:52:30.000Z</Time>
            <Position>
              <LatitudeDegrees>-15.38158834911882877349853515625</LatitudeDegrees>
              <LongitudeDegrees>37.089901082217693328857421875</LongitudeDegrees>
            </Position>
            <AltitudeMeters>1115.199951171875</AltitudeMeters>
            <DistanceMeters>NAN</DistanceMeters>
          </Trackpoint>
          <Trackpoint>
            <Time>2021-08-03T08:52:37.000Z</Time>
            <Position>
              <LatitudeDegrees>-15.38164702244102954864501953125</LatitudeDegrees>
              <LongitudeDegrees>37.0899595879018306732177734375</LongitudeDegrees>
            </Position>
            <AltitudeMeters>1114.800048828125</AltitudeMeters>
            <DistanceMeters>NAN</DistanceMeters>
          </Trackpoint>
          <Trackpoint>
            <Time>2021-08-03T08:52:39.000Z</Time>
            <Position>
              <LatitudeDegrees>-15.3816618584096431732177734375</LatitudeDegrees>
              <LongitudeDegrees>37.0899736694991588592529296875</LongitudeDegrees>
            </Position>
            <AltitudeMeters>1114.199951171875</AltitudeMeters>
            <DistanceMeters>NAN</DistanceMeters>
          </Trackpoint>
          <Trackpoint>
            <Time>2021-08-03T08:52:40.000Z</Time>
            <Position>
              <LatitudeDegrees>-15.3816688992083072662353515625</LatitudeDegrees>
              <LongitudeDegrees>37.0899840630590915679931640625</LongitudeDegrees>
            </Position>
            <AltitudeMeters>1114.199951171875</AltitudeMeters>
            <DistanceMeters>NAN</DistanceMeters>
          </Trackpoint>
          <Trackpoint>
            <Time>2021-08-03T08:52:41.000Z</Time>
            <Position>
              <LatitudeDegrees>-15.3816759400069713592529296875</LatitudeDegrees>
              <LongitudeDegrees>37.0899951271712779998779296875</LongitudeDegrees>
            </Position>
            <AltitudeMeters>1114.199951171875</AltitudeMeters>
            <DistanceMeters>NAN</DistanceMeters>
          </Trackpoint>
          <Trackpoint>
            <Time>2021-08-03T08:52:43.000Z</Time>
            <Position>
              <LatitudeDegrees>-15.38168943487107753753662109375</LatitudeDegrees>
              <LongitudeDegrees>37.09001599811017513275146484375</LongitudeDegrees>
            </Position>
            <AltitudeMeters>1113.5999755859375</AltitudeMeters>
            <DistanceMeters>NAN</DistanceMeters>
          </Trackpoint>
          <Trackpoint>
            <Time>2021-08-03T08:52:45.000Z</Time>
            <Position>
              <LatitudeDegrees>-15.38170552812516689300537109375</LatitudeDegrees>
              <LongitudeDegrees>37.090037204325199127197265625</LongitudeDegrees>
            </Position>
            <AltitudeMeters>1113.199951171875</AltitudeMeters>
            <DistanceMeters>NAN</DistanceMeters>
          </Trackpoint>
          <Trackpoint>
            <Time>2021-08-03T08:52:49.000Z</Time>
            <Position>
              <LatitudeDegrees>-15.3817423246800899505615234375</LatitudeDegrees>
              <LongitudeDegrees>37.09007014520466327667236328125</LongitudeDegrees>
            </Position>
            <AltitudeMeters>1113.199951171875</AltitudeMeters>
            <DistanceMeters>NAN</DistanceMeters>
          </Trackpoint>
          <Trackpoint>
            <Time>2021-08-03T08:52:53.000Z</Time>
            <Position>
              <LatitudeDegrees>-15.38178498856723308563232421875</LatitudeDegrees>
              <LongitudeDegrees>37.09008757956326007843017578125</LongitudeDegrees>
            </Position>
            <AltitudeMeters>1113.199951171875</AltitudeMeters>
            <DistanceMeters>NAN</DistanceMeters>
          </Trackpoint>
          <Trackpoint>
            <Time>2021-08-03T08:52:59.000Z</Time>
            <Position>
              <LatitudeDegrees>-15.38185514509677886962890625</LatitudeDegrees>
              <LongitudeDegrees>37.09009210579097270965576171875</LongitudeDegrees>
            </Position>
            <AltitudeMeters>1113.199951171875</AltitudeMeters>
            <DistanceMeters>NAN</DistanceMeters>
          </Trackpoint>
          <Trackpoint>
            <Time>2021-08-03T08:53:03.000Z</Time>
            <Position>
              <LatitudeDegrees>-15.38190736435353755950927734375</LatitudeDegrees>
              <LongitudeDegrees>37.09008523263037204742431640625</LongitudeDegrees>
            </Position>
            <AltitudeMeters>1113.4000244140625</AltitudeMeters>
            <DistanceMeters>NAN</DistanceMeters>
          </Trackpoint>
          <Trackpoint>
            <Time>2021-08-03T08:53:05.000Z</Time>
            <Position>
              <LatitudeDegrees>-15.3819344379007816314697265625</LatitudeDegrees>
              <LongitudeDegrees>37.09008556790649890899658203125</LongitudeDegrees>
            </Position>
            <AltitudeMeters>1113.4000244140625</AltitudeMeters>
            <DistanceMeters>NAN</DistanceMeters>
          </Trackpoint>
          <Trackpoint>
            <Time>2021-08-03T08:53:08.000Z</Time>
            <Position>
              <LatitudeDegrees>-15.3819729946553707122802734375</LatitudeDegrees>
              <LongitudeDegrees>37.09009294398128986358642578125</LongitudeDegrees>
            </Position>
            <AltitudeMeters>1113.4000244140625</AltitudeMeters>
            <DistanceMeters>NAN</DistanceMeters>
          </Trackpoint>
          <Trackpoint>
            <Time>2021-08-03T08:53:11.000Z</Time>
            <Position>
              <LatitudeDegrees>-15.382007695734500885009765625</LatitudeDegrees>
              <LongitudeDegrees>37.09010400809347629547119140625</LongitudeDegrees>
            </Position>
            <AltitudeMeters>1113.4000244140625</AltitudeMeters>
            <DistanceMeters>NAN</DistanceMeters>
          </Trackpoint>
          <Trackpoint>
            <Time>2021-08-03T08:53:14.000Z</Time>
            <Position>
              <LatitudeDegrees>-15.382041223347187042236328125</LatitudeDegrees>
              <LongitudeDegrees>37.09010585211217403411865234375</LongitudeDegrees>
            </Position>
            <AltitudeMeters>1113.4000244140625</AltitudeMeters>
            <DistanceMeters>NAN</DistanceMeters>
          </Trackpoint>
          <Trackpoint>
            <Time>2021-08-03T08:53:21.000Z</Time>
            <Position>
              <LatitudeDegrees>-15.38212613202631473541259765625</LatitudeDegrees>
              <LongitudeDegrees>37.09011490456759929656982421875</LongitudeDegrees>
            </Position>
            <AltitudeMeters>1113</AltitudeMeters>
            <DistanceMeters>NAN</DistanceMeters>
          </Trackpoint>
          <Trackpoint>
            <Time>2021-08-03T08:53:24.000Z</Time>
            <Position>
              <LatitudeDegrees>-15.38216569460928440093994140625</LatitudeDegrees>
              <LongitudeDegrees>37.0901228673756122589111328125</LongitudeDegrees>
            </Position>
            <AltitudeMeters>1113</AltitudeMeters>
            <DistanceMeters>NAN</DistanceMeters>
          </Trackpoint>
          <Trackpoint>
            <Time>2021-08-03T08:53:29.000Z</Time>
            <Position>
              <LatitudeDegrees>-15.382231660187244415283203125</LatitudeDegrees>
              <LongitudeDegrees>37.0901320874691009521484375</LongitudeDegrees>
            </Position>
            <AltitudeMeters>1112.800048828125</AltitudeMeters>
            <DistanceMeters>NAN</DistanceMeters>
          </Trackpoint>
          <Trackpoint>
            <Time>2021-08-03T08:53:34.000Z</Time>
            <Position>
              <LatitudeDegrees>-15.3822988830506801605224609375</LatitudeDegrees>
              <LongitudeDegrees>37.09012873470783233642578125</LongitudeDegrees>
            </Position>
            <AltitudeMeters>1112.800048828125</AltitudeMeters>
            <DistanceMeters>NAN</DistanceMeters>
          </Trackpoint>
          <Trackpoint>
            <Time>2021-08-03T08:53:36.000Z</Time>
            <Position>
              <LatitudeDegrees>-15.3823310695588588714599609375</LatitudeDegrees>
              <LongitudeDegrees>37.09012798033654689788818359375</LongitudeDegrees>
            </Position>
            <AltitudeMeters>1112.4000244140625</AltitudeMeters>
            <DistanceMeters>NAN</DistanceMeters>
          </Trackpoint>
          <Trackpoint>
            <Time>2021-08-03T08:53:46.000Z</Time>
            <Position>
              <LatitudeDegrees>-15.38245738483965396881103515625</LatitudeDegrees>
              <LongitudeDegrees>37.09013451822102069854736328125</LongitudeDegrees>
            </Position>
            <AltitudeMeters>1112.4000244140625</AltitudeMeters>
            <DistanceMeters>NAN</DistanceMeters>
          </Trackpoint>
          <Trackpoint>
            <Time>2021-08-03T08:53:53.000Z</Time>
            <Position>
              <LatitudeDegrees>-15.38254774175584316253662109375</LatitudeDegrees>
              <LongitudeDegrees>37.090148515999317169189453125</LongitudeDegrees>
            </Position>
            <AltitudeMeters>1112.199951171875</AltitudeMeters>
            <DistanceMeters>NAN</DistanceMeters>
          </Trackpoint>
          <Trackpoint>
            <Time>2021-08-03T08:53:59.000Z</Time>
            <Position>
              <LatitudeDegrees>-15.38262451998889446258544921875</LatitudeDegrees>
              <LongitudeDegrees>37.09016435779631137847900390625</LongitudeDegrees>
            </Position>
            <AltitudeMeters>1111.800048828125</AltitudeMeters>
            <DistanceMeters>NAN</DistanceMeters>
          </Trackpoint>
          <Trackpoint>
            <Time>2021-08-03T08:54:05.000Z</Time>
            <Position>
              <LatitudeDegrees>-15.38270381279289722442626953125</LatitudeDegrees>
              <LongitudeDegrees>37.0901562273502349853515625</LongitudeDegrees>
            </Position>
            <AltitudeMeters>1111.5999755859375</AltitudeMeters>
            <DistanceMeters>NAN</DistanceMeters>
          </Trackpoint>
          <Trackpoint>
            <Time>2021-08-03T08:54:10.000Z</Time>
            <Position>
              <LatitudeDegrees>-15.38276365958154201507568359375</LatitudeDegrees>
              <LongitudeDegrees>37.090160585939884185791015625</LongitudeDegrees>
            </Position>
            <AltitudeMeters>1111.800048828125</AltitudeMeters>
            <DistanceMeters>NAN</DistanceMeters>
          </Trackpoint>
          <Trackpoint>
            <Time>2021-08-03T08:54:21.000Z</Time>
            <Position>
              <LatitudeDegrees>-15.38289240561425685882568359375</LatitudeDegrees>
              <LongitudeDegrees>37.09018640220165252685546875</LongitudeDegrees>
            </Position>
            <AltitudeMeters>1111</AltitudeMeters>
            <DistanceMeters>NAN</DistanceMeters>
          </Trackpoint>
          <Trackpoint>
            <Time>2021-08-03T08:54:22.000Z</Time>
            <Position>
              <LatitudeDegrees>-15.38290254771709442138671875</LatitudeDegrees>
              <LongitudeDegrees>37.09018833003938198089599609375</LongitudeDegrees>
            </Position>
            <AltitudeMeters>1110.800048828125</AltitudeMeters>
            <DistanceMeters>NAN</DistanceMeters>
          </Trackpoint>
          <Trackpoint>
            <Time>2021-08-03T08:54:33.000Z</Time>
            <Position>
              <LatitudeDegrees>-15.3830462135374546051025390625</LatitudeDegrees>
              <LongitudeDegrees>37.090190760791301727294921875</LongitudeDegrees>
            </Position>
            <AltitudeMeters>1110.800048828125</AltitudeMeters>
            <DistanceMeters>NAN</DistanceMeters>
          </Trackpoint>
          <Trackpoint>
            <Time>2021-08-03T08:54:40.000Z</Time>
            <Position>
              <LatitudeDegrees>-15.38313162513077259063720703125</LatitudeDegrees>
              <LongitudeDegrees>37.09019654430449008941650390625</LongitudeDegrees>
            </Position>
            <AltitudeMeters>1111</AltitudeMeters>
            <DistanceMeters>NAN</DistanceMeters>
          </Trackpoint>
          <Trackpoint>
            <Time>2021-08-03T08:54:48.000Z</Time>
            <Position>
              <LatitudeDegrees>-15.38323581218719482421875</LatitudeDegrees>
              <LongitudeDegrees>37.090216241776943206787109375</LongitudeDegrees>
            </Position>
            <AltitudeMeters>1111.4000244140625</AltitudeMeters>
            <DistanceMeters>NAN</DistanceMeters>
          </Trackpoint>
          <Trackpoint>
            <Time>2021-08-03T08:54:54.000Z</Time>
            <Position>
              <LatitudeDegrees>-15.38330647163093090057373046875</LatitudeDegrees>
              <LongitudeDegrees>37.09022420458495616912841796875</LongitudeDegrees>
            </Position>
            <AltitudeMeters>1110.800048828125</AltitudeMeters>
            <DistanceMeters>NAN</DistanceMeters>
          </Trackpoint>
          <Trackpoint>
            <Time>2021-08-03T08:54:56.000Z</Time>
            <Position>
              <LatitudeDegrees>-15.3833338804543018341064453125</LatitudeDegrees>
              <LongitudeDegrees>37.0902301557362079620361328125</LongitudeDegrees>
            </Position>
            <AltitudeMeters>1111</AltitudeMeters>
            <DistanceMeters>NAN</DistanceMeters>
          </Trackpoint>
          <Trackpoint>
            <Time>2021-08-03T08:55:01.000Z</Time>
            <Position>
              <LatitudeDegrees>-15.383399426937103271484375</LatitudeDegrees>
              <LongitudeDegrees>37.0902341790497303009033203125</LongitudeDegrees>
            </Position>
            <AltitudeMeters>1111.4000244140625</AltitudeMeters>
            <DistanceMeters>NAN</DistanceMeters>
          </Trackpoint>
          <Trackpoint>
            <Time>2021-08-03T08:55:05.000Z</Time>
            <Position>
              <LatitudeDegrees>-15.3834428451955318450927734375</LatitudeDegrees>
              <LongitudeDegrees>37.090239711105823516845703125</LongitudeDegrees>
            </Position>
            <AltitudeMeters>1111.4000244140625</AltitudeMeters>
            <DistanceMeters>NAN</DistanceMeters>
          </Trackpoint>
          <Trackpoint>
            <Time>2021-08-03T08:55:14.000Z</Time>
            <Position>
              <LatitudeDegrees>-15.3835590183734893798828125</LatitudeDegrees>
              <LongitudeDegrees>37.09024666808545589447021484375</LongitudeDegrees>
            </Position>
            <AltitudeMeters>1112</AltitudeMeters>
            <DistanceMeters>NAN</DistanceMeters>
          </Trackpoint>
          <Trackpoint>
            <Time>2021-08-03T08:55:17.000Z</Time>
            <Position>
              <LatitudeDegrees>-15.3835952281951904296875</LatitudeDegrees>
              <LongitudeDegrees>37.09025186486542224884033203125</LongitudeDegrees>
            </Position>
            <AltitudeMeters>1112.199951171875</AltitudeMeters>
            <DistanceMeters>NAN</DistanceMeters>
          </Trackpoint>
          <Trackpoint>
            <Time>2021-08-03T08:55:20.000Z</Time>
            <Position>
              <LatitudeDegrees>-15.383630432188510894775390625</LatitudeDegrees>
              <LongitudeDegrees>37.0902608335018157958984375</LongitudeDegrees>
            </Position>
            <AltitudeMeters>1112.199951171875</AltitudeMeters>
            <DistanceMeters>NAN</DistanceMeters>
          </Trackpoint>
          <Trackpoint>
            <Time>2021-08-03T08:55:31.000Z</Time>
            <Position>
              <LatitudeDegrees>-15.383766554296016693115234375</LatitudeDegrees>
              <LongitudeDegrees>37.0902807824313640594482421875</LongitudeDegrees>
            </Position>
            <AltitudeMeters>1112.4000244140625</AltitudeMeters>
            <DistanceMeters>NAN</DistanceMeters>
          </Trackpoint>
          <Trackpoint>
            <Time>2021-08-03T08:55:39.000Z</Time>
            <Position>
              <LatitudeDegrees>-15.383855737745761871337890625</LatitudeDegrees>
              <LongitudeDegrees>37.0902439020574092864990234375</LongitudeDegrees>
            </Position>
            <AltitudeMeters>1112.4000244140625</AltitudeMeters>
            <DistanceMeters>NAN</DistanceMeters>
          </Trackpoint>
          <Trackpoint>
            <Time>2021-08-03T08:55:47.000Z</Time>
            <Position>
              <LatitudeDegrees>-15.38396470248699188232421875</LatitudeDegrees>
              <LongitudeDegrees>37.090253792703151702880859375</LongitudeDegrees>
            </Position>
            <AltitudeMeters>1112.5999755859375</AltitudeMeters>
            <DistanceMeters>NAN</DistanceMeters>
          </Trackpoint>
          <Trackpoint>
            <Time>2021-08-03T08:55:49.000Z</Time>
            <Position>
              <LatitudeDegrees>-15.38399378769099712371826171875</LatitudeDegrees>
              <LongitudeDegrees>37.0902501046657562255859375</LongitudeDegrees>
            </Position>
            <AltitudeMeters>1113</AltitudeMeters>
            <DistanceMeters>NAN</DistanceMeters>
          </Trackpoint>
          <Trackpoint>
            <Time>2021-08-03T08:55:50.000Z</Time>
            <Position>
              <LatitudeDegrees>-15.3840077854692935943603515625</LatitudeDegrees>
              <LongitudeDegrees>37.0902539603412151336669921875</LongitudeDegrees>
            </Position>
            <AltitudeMeters>1113</AltitudeMeters>
            <DistanceMeters>NAN</DistanceMeters>
          </Trackpoint>
          <Trackpoint>
            <Time>2021-08-03T08:55:51.000Z</Time>
            <Position>
              <LatitudeDegrees>-15.38401943631470203399658203125</LatitudeDegrees>
              <LongitudeDegrees>37.090258486568927764892578125</LongitudeDegrees>
            </Position>
            <AltitudeMeters>1113</AltitudeMeters>
            <DistanceMeters>NAN</DistanceMeters>
          </Trackpoint>
          <Trackpoint>
            <Time>2021-08-03T08:55:52.000Z</Time>
            <Position>
              <LatitudeDegrees>-15.3840337693691253662109375</LatitudeDegrees>
              <LongitudeDegrees>37.0902596600353717803955078125</LongitudeDegrees>
            </Position>
            <AltitudeMeters>1113</AltitudeMeters>
            <DistanceMeters>NAN</DistanceMeters>
          </Trackpoint>
          <Trackpoint>
            <Time>2021-08-03T08:55:54.000Z</Time>
            <Position>
              <LatitudeDegrees>-15.384056903421878814697265625</LatitudeDegrees>
              <LongitudeDegrees>37.09026058204472064971923828125</LongitudeDegrees>
            </Position>
            <AltitudeMeters>1113</AltitudeMeters>
            <DistanceMeters>NAN</DistanceMeters>
          </Trackpoint>
          <Trackpoint>
            <Time>2021-08-03T08:55:59.000Z</Time>
            <Position>
              <LatitudeDegrees>-15.38411616347730159759521484375</LatitudeDegrees>
              <LongitudeDegrees>37.09025136195123195648193359375</LongitudeDegrees>
            </Position>
            <AltitudeMeters>1113</AltitudeMeters>
            <DistanceMeters>NAN</DistanceMeters>
          </Trackpoint>
          <Trackpoint>
            <Time>2021-08-03T08:56:05.000Z</Time>
            <Position>
              <LatitudeDegrees>-15.384163521230220794677734375</LatitudeDegrees>
              <LongitudeDegrees>37.09028488956391811370849609375</LongitudeDegrees>
            </Position>
            <AltitudeMeters>1112.5999755859375</AltitudeMeters>
            <DistanceMeters>NAN</DistanceMeters>
          </Trackpoint>
          <Trackpoint>
            <Time>2021-08-03T08:56:17.000Z</Time>
            <Position>
              <LatitudeDegrees>-15.38428648374974727630615234375</LatitudeDegrees>
              <LongitudeDegrees>37.09035093896090984344482421875</LongitudeDegrees>
            </Position>
            <AltitudeMeters>1112.199951171875</AltitudeMeters>
            <DistanceMeters>NAN</DistanceMeters>
          </Trackpoint>
          <Trackpoint>
            <Time>2021-08-03T08:56:19.000Z</Time>
            <Position>
              <LatitudeDegrees>-15.3843081928789615631103515625</LatitudeDegrees>
              <LongitudeDegrees>37.0903565548360347747802734375</LongitudeDegrees>
            </Position>
            <AltitudeMeters>1112</AltitudeMeters>
            <DistanceMeters>NAN</DistanceMeters>
          </Trackpoint>
          <Trackpoint>
            <Time>2021-08-03T08:56:24.000Z</Time>
            <Position>
              <LatitudeDegrees>-15.3843615017831325531005859375</LatitudeDegrees>
              <LongitudeDegrees>37.09036342799663543701171875</LongitudeDegrees>
            </Position>
            <AltitudeMeters>1111.800048828125</AltitudeMeters>
            <DistanceMeters>NAN</DistanceMeters>
          </Trackpoint>
          <Trackpoint>
            <Time>2021-08-03T08:56:25.000Z</Time>
            <Position>
              <LatitudeDegrees>-15.3843715600669384002685546875</LatitudeDegrees>
              <LongitudeDegrees>37.09037206135690212249755859375</LongitudeDegrees>
            </Position>
            <AltitudeMeters>1111.5999755859375</AltitudeMeters>
            <DistanceMeters>NAN</DistanceMeters>
          </Trackpoint>
          <Trackpoint>
            <Time>2021-08-03T08:56:27.000Z</Time>
            <Position>
              <LatitudeDegrees>-15.3843891620635986328125</LatitudeDegrees>
              <LongitudeDegrees>37.090391255915164947509765625</LongitudeDegrees>
            </Position>
            <AltitudeMeters>1111.5999755859375</AltitudeMeters>
            <DistanceMeters>NAN</DistanceMeters>
          </Trackpoint>
          <Trackpoint>
            <Time>2021-08-03T08:56:34.000Z</Time>
            <Position>
              <LatitudeDegrees>-15.38447323255240917205810546875</LatitudeDegrees>
              <LongitudeDegrees>37.09042972885072231292724609375</LongitudeDegrees>
            </Position>
            <AltitudeMeters>1111.5999755859375</AltitudeMeters>
            <DistanceMeters>NAN</DistanceMeters>
          </Trackpoint>
          <Trackpoint>
            <Time>2021-08-03T08:56:37.000Z</Time>
            <Position>
              <LatitudeDegrees>-15.38450793363153934478759765625</LatitudeDegrees>
              <LongitudeDegrees>37.09042436443269252777099609375</LongitudeDegrees>
            </Position>
            <AltitudeMeters>1111.4000244140625</AltitudeMeters>
            <DistanceMeters>NAN</DistanceMeters>
          </Trackpoint>
          <Trackpoint>
            <Time>2021-08-03T08:56:48.000Z</Time>
            <Position>
              <LatitudeDegrees>-15.3846479952335357666015625</LatitudeDegrees>
              <LongitudeDegrees>37.09042939357459545135498046875</LongitudeDegrees>
            </Position>
            <AltitudeMeters>1111.5999755859375</AltitudeMeters>
            <DistanceMeters>NAN</DistanceMeters>
          </Trackpoint>
          <Trackpoint>
            <Time>2021-08-03T08:56:58.000Z</Time>
            <Position>
              <LatitudeDegrees>-15.38476810790598392486572265625</LatitudeDegrees>
              <LongitudeDegrees>37.090481780469417572021484375</LongitudeDegrees>
            </Position>
            <AltitudeMeters>1111.5999755859375</AltitudeMeters>
            <DistanceMeters>NAN</DistanceMeters>
          </Trackpoint>
          <Trackpoint>
            <Time>2021-08-03T08:56:59.000Z</Time>
            <Position>
              <LatitudeDegrees>-15.38478118367493152618408203125</LatitudeDegrees>
              <LongitudeDegrees>37.090484462678432464599609375</LongitudeDegrees>
            </Position>
            <AltitudeMeters>1111.5999755859375</AltitudeMeters>
            <DistanceMeters>NAN</DistanceMeters>
          </Trackpoint>
          <Trackpoint>
            <Time>2021-08-03T08:57:05.000Z</Time>
            <Position>
              <LatitudeDegrees>-15.3848518431186676025390625</LatitudeDegrees>
              <LongitudeDegrees>37.090501226484775543212890625</LongitudeDegrees>
            </Position>
            <AltitudeMeters>1110.5999755859375</AltitudeMeters>
            <DistanceMeters>NAN</DistanceMeters>
          </Trackpoint>
          <Trackpoint>
            <Time>2021-08-03T08:57:10.000Z</Time>
            <Position>
              <LatitudeDegrees>-15.38492585532367229461669921875</LatitudeDegrees>
              <LongitudeDegrees>37.0905003882944583892822265625</LongitudeDegrees>
            </Position>
            <AltitudeMeters>1110.800048828125</AltitudeMeters>
            <DistanceMeters>NAN</DistanceMeters>
          </Trackpoint>
          <Trackpoint>
            <Time>2021-08-03T08:57:18.000Z</Time>
            <Position>
              <LatitudeDegrees>-15.38501302711665630340576171875</LatitudeDegrees>
              <LongitudeDegrees>37.09052695892751216888427734375</LongitudeDegrees>
            </Position>
            <AltitudeMeters>1110.800048828125</AltitudeMeters>
            <DistanceMeters>NAN</DistanceMeters>
          </Trackpoint>
          <Trackpoint>
            <Time>2021-08-03T08:57:30.000Z</Time>
            <Position>
              <LatitudeDegrees>-15.3851611353456974029541015625</LatitudeDegrees>
              <LongitudeDegrees>37.090566270053386688232421875</LongitudeDegrees>
            </Position>
            <AltitudeMeters>1111.199951171875</AltitudeMeters>
            <DistanceMeters>NAN</DistanceMeters>
          </Trackpoint>
          <Trackpoint>
            <Time>2021-08-03T08:57:34.000Z</Time>
            <Position>
              <LatitudeDegrees>-15.38522911258041858673095703125</LatitudeDegrees>
              <LongitudeDegrees>37.09055763669312000274658203125</LongitudeDegrees>
            </Position>
            <AltitudeMeters>1112</AltitudeMeters>
            <DistanceMeters>NAN</DistanceMeters>
          </Trackpoint>
          <Trackpoint>
            <Time>2021-08-03T08:57:37.000Z</Time>
            <Position>
              <LatitudeDegrees>-15.38527202792465686798095703125</LatitudeDegrees>
              <LongitudeDegrees>37.09055495448410511016845703125</LongitudeDegrees>
            </Position>
            <AltitudeMeters>1112</AltitudeMeters>
            <DistanceMeters>NAN</DistanceMeters>
          </Trackpoint>
          <Trackpoint>
            <Time>2021-08-03T08:57:47.000Z</Time>
            <Position>
              <LatitudeDegrees>-15.38538987748324871063232421875</LatitudeDegrees>
              <LongitudeDegrees>37.090580351650714874267578125</LongitudeDegrees>
            </Position>
            <AltitudeMeters>1111</AltitudeMeters>
            <DistanceMeters>NAN</DistanceMeters>
          </Trackpoint>
          <Trackpoint>
            <Time>2021-08-03T08:57:52.000Z</Time>
            <Position>
              <LatitudeDegrees>-15.385442934930324554443359375</LatitudeDegrees>
              <LongitudeDegrees>37.09059921093285083770751953125</LongitudeDegrees>
            </Position>
            <AltitudeMeters>1111</AltitudeMeters>
            <DistanceMeters>NAN</DistanceMeters>
          </Trackpoint>
          <Trackpoint>
            <Time>2021-08-03T08:57:55.000Z</Time>
            <Position>
              <LatitudeDegrees>-15.3854709304869174957275390625</LatitudeDegrees>
              <LongitudeDegrees>37.09060172550380229949951171875</LongitudeDegrees>
            </Position>
            <AltitudeMeters>1110.5999755859375</AltitudeMeters>
            <DistanceMeters>NAN</DistanceMeters>
          </Trackpoint>
          <Trackpoint>
            <Time>2021-08-03T08:57:57.000Z</Time>
            <Position>
              <LatitudeDegrees>-15.38549733348190784454345703125</LatitudeDegrees>
              <LongitudeDegrees>37.0905986241996288299560546875</LongitudeDegrees>
            </Position>
            <AltitudeMeters>1110.5999755859375</AltitudeMeters>
            <DistanceMeters>NAN</DistanceMeters>
          </Trackpoint>
          <Trackpoint>
            <Time>2021-08-03T08:58:05.000Z</Time>
            <Position>
              <LatitudeDegrees>-15.38557830266654491424560546875</LatitudeDegrees>
              <LongitudeDegrees>37.090575993061065673828125</LongitudeDegrees>
            </Position>
            <AltitudeMeters>1110.800048828125</AltitudeMeters>
            <DistanceMeters>NAN</DistanceMeters>
          </Trackpoint>
          <Trackpoint>
            <Time>2021-08-03T08:58:08.000Z</Time>
            <Position>
              <LatitudeDegrees>-15.385602526366710662841796875</LatitudeDegrees>
              <LongitudeDegrees>37.09056467749178409576416015625</LongitudeDegrees>
            </Position>
            <AltitudeMeters>1111.4000244140625</AltitudeMeters>
            <DistanceMeters>NAN</DistanceMeters>
          </Trackpoint>
          <Trackpoint>
            <Time>2021-08-03T08:58:19.000Z</Time>
            <Position>
              <LatitudeDegrees>-15.38571945391595363616943359375</LatitudeDegrees>
              <LongitudeDegrees>37.0905372686684131622314453125</LongitudeDegrees>
            </Position>
            <AltitudeMeters>1111.800048828125</AltitudeMeters>
            <DistanceMeters>NAN</DistanceMeters>
          </Trackpoint>
          <Trackpoint>
            <Time>2021-08-03T08:58:20.000Z</Time>
            <Position>
              <LatitudeDegrees>-15.385729931294918060302734375</LatitudeDegrees>
              <LongitudeDegrees>37.0905422978103160858154296875</LongitudeDegrees>
            </Position>
            <AltitudeMeters>1111.800048828125</AltitudeMeters>
            <DistanceMeters>NAN</DistanceMeters>
          </Trackpoint>
          <Trackpoint>
            <Time>2021-08-03T08:58:24.000Z</Time>
            <Position>
              <LatitudeDegrees>-15.38577091880142688751220703125</LatitudeDegrees>
              <LongitudeDegrees>37.0905620791018009185791015625</LongitudeDegrees>
            </Position>
            <AltitudeMeters>1111.4000244140625</AltitudeMeters>
            <DistanceMeters>NAN</DistanceMeters>
          </Trackpoint>
          <Trackpoint>
            <Time>2021-08-03T08:58:26.000Z</Time>
            <Position>
              <LatitudeDegrees>-15.385801009833812713623046875</LatitudeDegrees>
              <LongitudeDegrees>37.09055964834988117218017578125</LongitudeDegrees>
            </Position>
            <AltitudeMeters>1111</AltitudeMeters>
            <DistanceMeters>NAN</DistanceMeters>
          </Trackpoint>
          <Trackpoint>
            <Time>2021-08-03T08:58:34.000Z</Time>
            <Position>
              <LatitudeDegrees>-15.38589765317738056182861328125</LatitudeDegrees>
              <LongitudeDegrees>37.09056048654019832611083984375</LongitudeDegrees>
            </Position>
            <AltitudeMeters>1110.5999755859375</AltitudeMeters>
            <DistanceMeters>NAN</DistanceMeters>
          </Trackpoint>
          <Trackpoint>
            <Time>2021-08-03T08:58:44.000Z</Time>
            <Position>
              <LatitudeDegrees>-15.38601013831794261932373046875</LatitudeDegrees>
              <LongitudeDegrees>37.09052503108978271484375</LongitudeDegrees>
            </Position>
            <AltitudeMeters>1111.5999755859375</AltitudeMeters>
            <DistanceMeters>NAN</DistanceMeters>
          </Trackpoint>
          <Trackpoint>
            <Time>2021-08-03T08:58:46.000Z</Time>
            <Position>
              <LatitudeDegrees>-15.386035703122615814208984375</LatitudeDegrees>
              <LongitudeDegrees>37.0905201695859432220458984375</LongitudeDegrees>
            </Position>
            <AltitudeMeters>1112</AltitudeMeters>
            <DistanceMeters>NAN</DistanceMeters>
          </Trackpoint>
          <Trackpoint>
            <Time>2021-08-03T08:58:52.000Z</Time>
            <Position>
              <LatitudeDegrees>-15.3861066140234470367431640625</LatitudeDegrees>
              <LongitudeDegrees>37.09051706828176975250244140625</LongitudeDegrees>
            </Position>
            <AltitudeMeters>1112.5999755859375</AltitudeMeters>
            <DistanceMeters>NAN</DistanceMeters>
          </Trackpoint>
          <Trackpoint>
            <Time>2021-08-03T08:59:02.000Z</Time>
            <Position>
              <LatitudeDegrees>-15.386226810514926910400390625</LatitudeDegrees>
              <LongitudeDegrees>37.0905091054737567901611328125</LongitudeDegrees>
            </Position>
            <AltitudeMeters>1112.800048828125</AltitudeMeters>
            <DistanceMeters>NAN</DistanceMeters>
          </Trackpoint>
          <Trackpoint>
            <Time>2021-08-03T08:59:04.000Z</Time>
            <Position>
              <LatitudeDegrees>-15.38625354878604412078857421875</LatitudeDegrees>
              <LongitudeDegrees>37.09050416015088558197021484375</LongitudeDegrees>
            </Position>
            <AltitudeMeters>1112.800048828125</AltitudeMeters>
            <DistanceMeters>NAN</DistanceMeters>
          </Trackpoint>
          <Trackpoint>
            <Time>2021-08-03T08:59:07.000Z</Time>
            <Position>
              <LatitudeDegrees>-15.38629059679806232452392578125</LatitudeDegrees>
              <LongitudeDegrees>37.090494520962238311767578125</LongitudeDegrees>
            </Position>
            <AltitudeMeters>1112.5999755859375</AltitudeMeters>
            <DistanceMeters>NAN</DistanceMeters>
          </Trackpoint>
          <Trackpoint>
            <Time>2021-08-03T08:59:10.000Z</Time>
            <Position>
              <LatitudeDegrees>-15.38632831536233425140380859375</LatitudeDegrees>
              <LongitudeDegrees>37.0904839597642421722412109375</LongitudeDegrees>
            </Position>
            <AltitudeMeters>1112.4000244140625</AltitudeMeters>
            <DistanceMeters>NAN</DistanceMeters>
          </Trackpoint>
          <Trackpoint>
            <Time>2021-08-03T08:59:11.000Z</Time>
            <Position>
              <LatitudeDegrees>-15.38634072057902812957763671875</LatitudeDegrees>
              <LongitudeDegrees>37.09048136137425899505615234375</LongitudeDegrees>
            </Position>
            <AltitudeMeters>1112.4000244140625</AltitudeMeters>
            <DistanceMeters>NAN</DistanceMeters>
          </Trackpoint>
          <Trackpoint>
            <Time>2021-08-03T08:59:21.000Z</Time>
            <Position>
              <LatitudeDegrees>-15.3864450752735137939453125</LatitudeDegrees>
              <LongitudeDegrees>37.09043174050748348236083984375</LongitudeDegrees>
            </Position>
            <AltitudeMeters>1112.5999755859375</AltitudeMeters>
            <DistanceMeters>NAN</DistanceMeters>
          </Trackpoint>
          <Trackpoint>
            <Time>2021-08-03T08:59:29.000Z</Time>
            <Position>
              <LatitudeDegrees>-15.38647432811558246612548828125</LatitudeDegrees>
              <LongitudeDegrees>37.09034590981900691986083984375</LongitudeDegrees>
            </Position>
            <AltitudeMeters>1111.5999755859375</AltitudeMeters>
            <DistanceMeters>NAN</DistanceMeters>
          </Trackpoint>
          <Trackpoint>
            <Time>2021-08-03T08:59:30.000Z</Time>
            <Position>
              <LatitudeDegrees>-15.3864848054945468902587890625</LatitudeDegrees>
              <LongitudeDegrees>37.090334258973598480224609375</LongitudeDegrees>
            </Position>
            <AltitudeMeters>1111.5999755859375</AltitudeMeters>
            <DistanceMeters>NAN</DistanceMeters>
          </Trackpoint>
          <Trackpoint>
            <Time>2021-08-03T08:59:35.000Z</Time>
            <Position>
              <LatitudeDegrees>-15.3865491785109043121337890625</LatitudeDegrees>
              <LongitudeDegrees>37.0902868174016475677490234375</LongitudeDegrees>
            </Position>
            <AltitudeMeters>1111.4000244140625</AltitudeMeters>
            <DistanceMeters>NAN</DistanceMeters>
          </Trackpoint>
          <Trackpoint>
            <Time>2021-08-03T08:59:39.000Z</Time>
            <Position>
              <LatitudeDegrees>-15.38657776080071926116943359375</LatitudeDegrees>
              <LongitudeDegrees>37.09026628173887729644775390625</LongitudeDegrees>
            </Position>
            <AltitudeMeters>1111.4000244140625</AltitudeMeters>
            <DistanceMeters>NAN</DistanceMeters>
          </Trackpoint>
          <Trackpoint>
            <Time>2021-08-03T08:59:41.000Z</Time>
            <Position>
              <LatitudeDegrees>-15.3865873999893665313720703125</LatitudeDegrees>
              <LongitudeDegrees>37.0902449078857898712158203125</LongitudeDegrees>
            </Position>
            <AltitudeMeters>1111.4000244140625</AltitudeMeters>
            <DistanceMeters>NAN</DistanceMeters>
          </Trackpoint>
          <Trackpoint>
            <Time>2021-08-03T08:59:46.000Z</Time>
            <Position>
              <LatitudeDegrees>-15.386633165180683135986328125</LatitudeDegrees>
              <LongitudeDegrees>37.09018346853554248809814453125</LongitudeDegrees>
            </Position>
            <AltitudeMeters>1111.4000244140625</AltitudeMeters>
            <DistanceMeters>NAN</DistanceMeters>
          </Trackpoint>
          <Trackpoint>
            <Time>2021-08-03T08:59:49.000Z</Time>
            <Position>
              <LatitudeDegrees>-15.38665856234729290008544921875</LatitudeDegrees>
              <LongitudeDegrees>37.09016603417694568634033203125</LongitudeDegrees>
            </Position>
            <AltitudeMeters>1111.4000244140625</AltitudeMeters>
            <DistanceMeters>NAN</DistanceMeters>
          </Trackpoint>
          <Trackpoint>
            <Time>2021-08-03T08:59:50.000Z</Time>
            <Position>
              <LatitudeDegrees>-15.3866676986217498779296875</LatitudeDegrees>
              <LongitudeDegrees>37.0901627652347087860107421875</LongitudeDegrees>
            </Position>
            <AltitudeMeters>1111.199951171875</AltitudeMeters>
            <DistanceMeters>NAN</DistanceMeters>
          </Trackpoint>
          <Trackpoint>
            <Time>2021-08-03T08:59:52.000Z</Time>
            <Position>
              <LatitudeDegrees>-15.38668974302709102630615234375</LatitudeDegrees>
              <LongitudeDegrees>37.09015765227377414703369140625</LongitudeDegrees>
            </Position>
            <AltitudeMeters>1111</AltitudeMeters>
            <DistanceMeters>NAN</DistanceMeters>
          </Trackpoint>
          <Trackpoint>
            <Time>2021-08-03T08:59:56.000Z</Time>
            <Position>
              <LatitudeDegrees>-15.3867302276194095611572265625</LatitudeDegrees>
              <LongitudeDegrees>37.090143822133541107177734375</LongitudeDegrees>
            </Position>
            <AltitudeMeters>1111.199951171875</AltitudeMeters>
            <DistanceMeters>NAN</DistanceMeters>
          </Trackpoint>
          <Trackpoint>
            <Time>2021-08-03T08:59:58.000Z</Time>
            <Position>
              <LatitudeDegrees>-15.3867305628955364227294921875</LatitudeDegrees>
              <LongitudeDegrees>37.09014591760933399200439453125</LongitudeDegrees>
            </Position>
            <AltitudeMeters>1111.4000244140625</AltitudeMeters>
            <DistanceMeters>NAN</DistanceMeters>
          </Trackpoint>
          <Trackpoint>
            <Time>2021-08-03T09:00:00.000Z</Time>
            <Position>
              <LatitudeDegrees>-15.3867496736347675323486328125</LatitudeDegrees>
              <LongitudeDegrees>37.0901376195251941680908203125</LongitudeDegrees>
            </Position>
            <AltitudeMeters>1111.4000244140625</AltitudeMeters>
            <DistanceMeters>NAN</DistanceMeters>
          </Trackpoint>
          <Trackpoint>
            <Time>2021-08-03T09:00:04.000Z</Time>
            <Position>
              <LatitudeDegrees>-15.386778004467487335205078125</LatitudeDegrees>
              <LongitudeDegrees>37.09012429229915142059326171875</LongitudeDegrees>
            </Position>
            <AltitudeMeters>1111</AltitudeMeters>
            <DistanceMeters>NAN</DistanceMeters>
          </Trackpoint>
          <Trackpoint>
            <Time>2021-08-03T09:00:06.000Z</Time>
            <Position>
              <LatitudeDegrees>-15.386800467967987060546875</LatitudeDegrees>
              <LongitudeDegrees>37.090118341147899627685546875</LongitudeDegrees>
            </Position>
            <AltitudeMeters>1111</AltitudeMeters>
            <DistanceMeters>NAN</DistanceMeters>
          </Trackpoint>
          <Trackpoint>
            <Time>2021-08-03T09:00:08.000Z</Time>
            <Position>
              <LatitudeDegrees>-15.38683190010488033294677734375</LatitudeDegrees>
              <LongitudeDegrees>37.09011054597795009613037109375</LongitudeDegrees>
            </Position>
            <AltitudeMeters>1111</AltitudeMeters>
            <DistanceMeters>NAN</DistanceMeters>
          </Trackpoint>
          <Trackpoint>
            <Time>2021-08-03T09:00:10.000Z</Time>
            <Position>
              <LatitudeDegrees>-15.38686274550855159759521484375</LatitudeDegrees>
              <LongitudeDegrees>37.0900997333228588104248046875</LongitudeDegrees>
            </Position>
            <AltitudeMeters>1111</AltitudeMeters>
            <DistanceMeters>NAN</DistanceMeters>
          </Trackpoint>
          <Trackpoint>
            <Time>2021-08-03T09:00:14.000Z</Time>
            <Position>
              <LatitudeDegrees>-15.38690096698701381683349609375</LatitudeDegrees>
              <LongitudeDegrees>37.09008179605007171630859375</LongitudeDegrees>
            </Position>
            <AltitudeMeters>1110.800048828125</AltitudeMeters>
            <DistanceMeters>NAN</DistanceMeters>
          </Trackpoint>
          <Trackpoint>
            <Time>2021-08-03T09:00:16.000Z</Time>
            <Position>
              <LatitudeDegrees>-15.3869233466684818267822265625</LatitudeDegrees>
              <LongitudeDegrees>37.09007416851818561553955078125</LongitudeDegrees>
            </Position>
            <AltitudeMeters>1110.800048828125</AltitudeMeters>
            <DistanceMeters>NAN</DistanceMeters>
          </Trackpoint>
          <Trackpoint>
            <Time>2021-08-03T09:00:18.000Z</Time>
            <Position>
              <LatitudeDegrees>-15.386952348053455352783203125</LatitudeDegrees>
              <LongitudeDegrees>37.09006302058696746826171875</LongitudeDegrees>
            </Position>
            <AltitudeMeters>1110.800048828125</AltitudeMeters>
            <DistanceMeters>NAN</DistanceMeters>
          </Trackpoint>
          <Trackpoint>
            <Time>2021-08-03T09:00:29.000Z</Time>
            <Position>
              <LatitudeDegrees>-15.38711453787982463836669921875</LatitudeDegrees>
              <LongitudeDegrees>37.09004416130483150482177734375</LongitudeDegrees>
            </Position>
            <AltitudeMeters>1111</AltitudeMeters>
            <DistanceMeters>NAN</DistanceMeters>
          </Trackpoint>
          <Trackpoint>
            <Time>2021-08-03T09:00:34.000Z</Time>
            <Position>
              <LatitudeDegrees>-15.3871811740100383758544921875</LatitudeDegrees>
              <LongitudeDegrees>37.09003150463104248046875</LongitudeDegrees>
            </Position>
            <AltitudeMeters>1111.4000244140625</AltitudeMeters>
            <DistanceMeters>NAN</DistanceMeters>
          </Trackpoint>
          <Trackpoint>
            <Time>2021-08-03T09:00:38.000Z</Time>
            <Position>
              <LatitudeDegrees>-15.387226603925228118896484375</LatitudeDegrees>
              <LongitudeDegrees>37.09001784212887287139892578125</LongitudeDegrees>
            </Position>
            <AltitudeMeters>1112</AltitudeMeters>
            <DistanceMeters>NAN</DistanceMeters>
          </Trackpoint>
          <Trackpoint>
            <Time>2021-08-03T09:00:41.000Z</Time>
            <Position>
              <LatitudeDegrees>-15.3872656635940074920654296875</LatitudeDegrees>
              <LongitudeDegrees>37.09000535309314727783203125</LongitudeDegrees>
            </Position>
            <AltitudeMeters>1112</AltitudeMeters>
            <DistanceMeters>NAN</DistanceMeters>
          </Trackpoint>
          <Trackpoint>
            <Time>2021-08-03T09:00:51.000Z</Time>
            <Position>
              <LatitudeDegrees>-15.3873799927532672882080078125</LatitudeDegrees>
              <LongitudeDegrees>37.08995849825441837310791015625</LongitudeDegrees>
            </Position>
            <AltitudeMeters>1112.4000244140625</AltitudeMeters>
            <DistanceMeters>NAN</DistanceMeters>
          </Trackpoint>
          <Trackpoint>
            <Time>2021-08-03T09:00:56.000Z</Time>
            <Position>
              <LatitudeDegrees>-15.38744260556995868682861328125</LatitudeDegrees>
              <LongitudeDegrees>37.08992329426109790802001953125</LongitudeDegrees>
            </Position>
            <AltitudeMeters>1112.5999755859375</AltitudeMeters>
            <DistanceMeters>NAN</DistanceMeters>
          </Trackpoint>
          <Trackpoint>
            <Time>2021-08-03T09:00:57.000Z</Time>
            <Position>
              <LatitudeDegrees>-15.38745333440601825714111328125</LatitudeDegrees>
              <LongitudeDegrees>37.08991818130016326904296875</LongitudeDegrees>
            </Position>
            <AltitudeMeters>1112.5999755859375</AltitudeMeters>
            <DistanceMeters>NAN</DistanceMeters>
          </Trackpoint>
          <Trackpoint>
            <Time>2021-08-03T09:00:58.000Z</Time>
            <Position>
              <LatitudeDegrees>-15.38746322505176067352294921875</LatitudeDegrees>
              <LongitudeDegrees>37.089915163815021514892578125</LongitudeDegrees>
            </Position>
            <AltitudeMeters>1112.800048828125</AltitudeMeters>
            <DistanceMeters>NAN</DistanceMeters>
          </Trackpoint>
          <Trackpoint>
            <Time>2021-08-03T09:01:00.000Z</Time>
            <Position>
              <LatitudeDegrees>-15.387480072677135467529296875</LatitudeDegrees>
              <LongitudeDegrees>37.0899126492440700531005859375</LongitudeDegrees>
            </Position>
            <AltitudeMeters>1112.5999755859375</AltitudeMeters>
            <DistanceMeters>NAN</DistanceMeters>
          </Trackpoint>
          <Trackpoint>
            <Time>2021-08-03T09:01:06.000Z</Time>
            <Position>
              <LatitudeDegrees>-15.38755006156861782073974609375</LatitudeDegrees>
              <LongitudeDegrees>37.089916504919528961181640625</LongitudeDegrees>
            </Position>
            <AltitudeMeters>1112.800048828125</AltitudeMeters>
            <DistanceMeters>NAN</DistanceMeters>
          </Trackpoint>
          <Trackpoint>
            <Time>2021-08-03T09:01:07.000Z</Time>
            <Position>
              <LatitudeDegrees>-15.38756154477596282958984375</LatitudeDegrees>
              <LongitudeDegrees>37.08991776220500469207763671875</LongitudeDegrees>
            </Position>
            <AltitudeMeters>1112.800048828125</AltitudeMeters>
            <DistanceMeters>NAN</DistanceMeters>
          </Trackpoint>
          <Trackpoint>
            <Time>2021-08-03T09:01:19.000Z</Time>
            <Position>
              <LatitudeDegrees>-15.38771702907979488372802734375</LatitudeDegrees>
              <LongitudeDegrees>37.08990870974957942962646484375</LongitudeDegrees>
            </Position>
            <AltitudeMeters>1112.800048828125</AltitudeMeters>
            <DistanceMeters>NAN</DistanceMeters>
          </Trackpoint>
          <Trackpoint>
            <Time>2021-08-03T09:01:25.000Z</Time>
            <Position>
              <LatitudeDegrees>-15.38779556751251220703125</LatitudeDegrees>
              <LongitudeDegrees>37.08991021849215030670166015625</LongitudeDegrees>
            </Position>
            <AltitudeMeters>1113</AltitudeMeters>
            <DistanceMeters>NAN</DistanceMeters>
          </Trackpoint>
          <Trackpoint>
            <Time>2021-08-03T09:01:29.000Z</Time>
            <Position>
              <LatitudeDegrees>-15.3878446854650974273681640625</LatitudeDegrees>
              <LongitudeDegrees>37.0899082906544208526611328125</LongitudeDegrees>
            </Position>
            <AltitudeMeters>1113.199951171875</AltitudeMeters>
            <DistanceMeters>NAN</DistanceMeters>
          </Trackpoint>
          <Trackpoint>
            <Time>2021-08-03T09:01:40.000Z</Time>
            <Position>
              <LatitudeDegrees>-15.38797234185039997100830078125</LatitudeDegrees>
              <LongitudeDegrees>37.08988121710717678070068359375</LongitudeDegrees>
            </Position>
            <AltitudeMeters>1113.5999755859375</AltitudeMeters>
            <DistanceMeters>NAN</DistanceMeters>
          </Trackpoint>
          <Trackpoint>
            <Time>2021-08-03T09:01:49.000Z</Time>
            <Position>
              <LatitudeDegrees>-15.38807476870715618133544921875</LatitudeDegrees>
              <LongitudeDegrees>37.08986260928213596343994140625</LongitudeDegrees>
            </Position>
            <AltitudeMeters>1112.5999755859375</AltitudeMeters>
            <DistanceMeters>NAN</DistanceMeters>
          </Trackpoint>
          <Trackpoint>
            <Time>2021-08-03T09:01:59.000Z</Time>
            <Position>
              <LatitudeDegrees>-15.38819764740765094757080078125</LatitudeDegrees>
              <LongitudeDegrees>37.08984014578163623809814453125</LongitudeDegrees>
            </Position>
            <AltitudeMeters>1113</AltitudeMeters>
            <DistanceMeters>NAN</DistanceMeters>
          </Trackpoint>
          <Trackpoint>
            <Time>2021-08-03T09:02:06.000Z</Time>
            <Position>
              <LatitudeDegrees>-15.38826637901365756988525390625</LatitudeDegrees>
              <LongitudeDegrees>37.08980913273990154266357421875</LongitudeDegrees>
            </Position>
            <AltitudeMeters>1112.800048828125</AltitudeMeters>
            <DistanceMeters>NAN</DistanceMeters>
          </Trackpoint>
          <Trackpoint>
            <Time>2021-08-03T09:02:09.000Z</Time>
            <Position>
              <LatitudeDegrees>-15.38830426521599292755126953125</LatitudeDegrees>
              <LongitudeDegrees>37.08978214301168918609619140625</LongitudeDegrees>
            </Position>
            <AltitudeMeters>1113</AltitudeMeters>
            <DistanceMeters>NAN</DistanceMeters>
          </Trackpoint>
          <Trackpoint>
            <Time>2021-08-03T09:02:11.000Z</Time>
            <Position>
              <LatitudeDegrees>-15.38832153193652629852294921875</LatitudeDegrees>
              <LongitudeDegrees>37.0897728390991687774658203125</LongitudeDegrees>
            </Position>
            <AltitudeMeters>1113</AltitudeMeters>
            <DistanceMeters>NAN</DistanceMeters>
          </Trackpoint>
          <Trackpoint>
            <Time>2021-08-03T09:02:13.000Z</Time>
            <Position>
              <LatitudeDegrees>-15.3883408941328525543212890625</LatitudeDegrees>
              <LongitudeDegrees>37.08976521156728267669677734375</LongitudeDegrees>
            </Position>
            <AltitudeMeters>1112.800048828125</AltitudeMeters>
            <DistanceMeters>NAN</DistanceMeters>
          </Trackpoint>
          <Trackpoint>
            <Time>2021-08-03T09:02:15.000Z</Time>
            <Position>
              <LatitudeDegrees>-15.3883620165288448333740234375</LatitudeDegrees>
              <LongitudeDegrees>37.08975917659699916839599609375</LongitudeDegrees>
            </Position>
            <AltitudeMeters>1112.800048828125</AltitudeMeters>
            <DistanceMeters>NAN</DistanceMeters>
          </Trackpoint>
          <Trackpoint>
            <Time>2021-08-03T09:02:17.000Z</Time>
            <Position>
              <LatitudeDegrees>-15.3883878327906131744384765625</LatitudeDegrees>
              <LongitudeDegrees>37.0897550694644451141357421875</LongitudeDegrees>
            </Position>
            <AltitudeMeters>1112.800048828125</AltitudeMeters>
            <DistanceMeters>NAN</DistanceMeters>
          </Trackpoint>
          <Trackpoint>
            <Time>2021-08-03T09:02:19.000Z</Time>
            <Position>
              <LatitudeDegrees>-15.3884149901568889617919921875</LatitudeDegrees>
              <LongitudeDegrees>37.0897493697702884674072265625</LongitudeDegrees>
            </Position>
            <AltitudeMeters>1112.800048828125</AltitudeMeters>
            <DistanceMeters>NAN</DistanceMeters>
          </Trackpoint>
          <Trackpoint>
            <Time>2021-08-03T09:02:20.000Z</Time>
            <Position>
              <LatitudeDegrees>-15.38842630572617053985595703125</LatitudeDegrees>
              <LongitudeDegrees>37.089746184647083282470703125</LongitudeDegrees>
            </Position>
            <AltitudeMeters>1112.800048828125</AltitudeMeters>
            <DistanceMeters>NAN</DistanceMeters>
          </Trackpoint>
          <Trackpoint>
            <Time>2021-08-03T09:02:22.000Z</Time>
            <Position>
              <LatitudeDegrees>-15.38845011033117771148681640625</LatitudeDegrees>
              <LongitudeDegrees>37.08974375389516353607177734375</LongitudeDegrees>
            </Position>
            <AltitudeMeters>1112.800048828125</AltitudeMeters>
            <DistanceMeters>NAN</DistanceMeters>
          </Trackpoint>
          <Trackpoint>
            <Time>2021-08-03T09:02:30.000Z</Time>
            <Position>
              <LatitudeDegrees>-15.38855035789310932159423828125</LatitudeDegrees>
              <LongitudeDegrees>37.08973621018230915069580078125</LongitudeDegrees>
            </Position>
            <AltitudeMeters>1113.199951171875</AltitudeMeters>
            <DistanceMeters>NAN</DistanceMeters>
          </Trackpoint>
          <Trackpoint>
            <Time>2021-08-03T09:02:38.000Z</Time>
            <Position>
              <LatitudeDegrees>-15.38864490576088428497314453125</LatitudeDegrees>
              <LongitudeDegrees>37.08971961401402950286865234375</LongitudeDegrees>
            </Position>
            <AltitudeMeters>1113</AltitudeMeters>
            <DistanceMeters>NAN</DistanceMeters>
          </Trackpoint>
          <Trackpoint>
            <Time>2021-08-03T09:02:39.000Z</Time>
            <Position>
              <LatitudeDegrees>-15.38865496404469013214111328125</LatitudeDegrees>
              <LongitudeDegrees>37.0897148363292217254638671875</LongitudeDegrees>
            </Position>
            <AltitudeMeters>1113</AltitudeMeters>
            <DistanceMeters>NAN</DistanceMeters>
          </Trackpoint>
          <Trackpoint>
            <Time>2021-08-03T09:02:46.000Z</Time>
            <Position>
              <LatitudeDegrees>-15.3887264616787433624267578125</LatitudeDegrees>
              <LongitudeDegrees>37.08967636339366436004638671875</LongitudeDegrees>
            </Position>
            <AltitudeMeters>1113.199951171875</AltitudeMeters>
            <DistanceMeters>NAN</DistanceMeters>
          </Trackpoint>
          <Trackpoint>
            <Time>2021-08-03T09:02:53.000Z</Time>
            <Position>
              <LatitudeDegrees>-15.3887750767171382904052734375</LatitudeDegrees>
              <LongitudeDegrees>37.08964920602738857269287109375</LongitudeDegrees>
            </Position>
            <AltitudeMeters>1113.199951171875</AltitudeMeters>
            <DistanceMeters>NAN</DistanceMeters>
          </Trackpoint>
          <Trackpoint>
            <Time>2021-08-03T09:02:59.000Z</Time>
            <Position>
              <LatitudeDegrees>-15.3887821175158023834228515625</LatitudeDegrees>
              <LongitudeDegrees>37.0896538160741329193115234375</LongitudeDegrees>
            </Position>
            <AltitudeMeters>1112.800048828125</AltitudeMeters>
            <DistanceMeters>NAN</DistanceMeters>
          </Trackpoint>
          <Trackpoint>
            <Time>2021-08-03T09:03:00.000Z</Time>
            <Position>
              <LatitudeDegrees>-15.388782955706119537353515625</LatitudeDegrees>
              <LongitudeDegrees>37.0896528102457523345947265625</LongitudeDegrees>
            </Position>
            <AltitudeMeters>1112.800048828125</AltitudeMeters>
            <DistanceMeters>NAN</DistanceMeters>
          </Trackpoint>
          <Trackpoint>
            <Time>2021-08-03T09:03:06.000Z</Time>
            <Position>
              <LatitudeDegrees>-15.38877951912581920623779296875</LatitudeDegrees>
              <LongitudeDegrees>37.0896575041115283966064453125</LongitudeDegrees>
            </Position>
            <AltitudeMeters>1112.5999755859375</AltitudeMeters>
            <DistanceMeters>NAN</DistanceMeters>
          </Trackpoint>
          <Trackpoint>
            <Time>2021-08-03T09:03:20.000Z</Time>
            <Position>
              <LatitudeDegrees>-15.3887814469635486602783203125</LatitudeDegrees>
              <LongitudeDegrees>37.0896575041115283966064453125</LongitudeDegrees>
            </Position>
            <AltitudeMeters>1112.5999755859375</AltitudeMeters>
            <DistanceMeters>NAN</DistanceMeters>
          </Trackpoint>
          <Trackpoint>
            <Time>2021-08-03T09:03:25.000Z</Time>
            <Position>
              <LatitudeDegrees>-15.3887821175158023834228515625</LatitudeDegrees>
              <LongitudeDegrees>37.08965742029249668121337890625</LongitudeDegrees>
            </Position>
            <AltitudeMeters>1112.5999755859375</AltitudeMeters>
            <DistanceMeters>NAN</DistanceMeters>
          </Trackpoint>
          <Trackpoint>
            <Time>2021-08-03T09:03:29.000Z</Time>
            <Position>
              <LatitudeDegrees>-15.38878303952515125274658203125</LatitudeDegrees>
              <LongitudeDegrees>37.0896578393876552581787109375</LongitudeDegrees>
            </Position>
            <AltitudeMeters>1112.5999755859375</AltitudeMeters>
            <DistanceMeters>NAN</DistanceMeters>
          </Trackpoint>
          <Trackpoint>
            <Time>2021-08-03T09:03:41.000Z</Time>
            <Position>
              <LatitudeDegrees>-15.3887839615345001220703125</LatitudeDegrees>
              <LongitudeDegrees>37.0896675623953342437744140625</LongitudeDegrees>
            </Position>
            <AltitudeMeters>1112.5999755859375</AltitudeMeters>
            <DistanceMeters>NAN</DistanceMeters>
          </Trackpoint>
          <Trackpoint>
            <Time>2021-08-03T09:03:49.000Z</Time>
            <Position>
              <LatitudeDegrees>-15.38878337480127811431884765625</LatitudeDegrees>
              <LongitudeDegrees>37.08966881968080997467041015625</LongitudeDegrees>
            </Position>
            <AltitudeMeters>1112.5999755859375</AltitudeMeters>
            <DistanceMeters>NAN</DistanceMeters>
          </Trackpoint>
          <Trackpoint>
            <Time>2021-08-03T09:03:51.000Z</Time>
            <Position>
              <LatitudeDegrees>-15.38878287188708782196044921875</LatitudeDegrees>
              <LongitudeDegrees>37.08966881968080997467041015625</LongitudeDegrees>
            </Position>
            <AltitudeMeters>1112.5999755859375</AltitudeMeters>
            <DistanceMeters>NAN</DistanceMeters>
          </Trackpoint>
          <Trackpoint>
            <Time>2021-08-03T09:04:04.000Z</Time>
            <Position>
              <LatitudeDegrees>-15.38878186605870723724365234375</LatitudeDegrees>
              <LongitudeDegrees>37.08966764621436595916748046875</LongitudeDegrees>
            </Position>
            <AltitudeMeters>1112.5999755859375</AltitudeMeters>
            <DistanceMeters>NAN</DistanceMeters>
          </Trackpoint>
          <Trackpoint>
            <Time>2021-08-03T09:04:15.000Z</Time>
            <Position>
              <LatitudeDegrees>-15.388781614601612091064453125</LatitudeDegrees>
              <LongitudeDegrees>37.08966714330017566680908203125</LongitudeDegrees>
            </Position>
            <AltitudeMeters>1112.5999755859375</AltitudeMeters>
            <DistanceMeters>NAN</DistanceMeters>
          </Trackpoint>
          <Trackpoint>
            <Time>2021-08-03T09:04:16.000Z</Time>
            <Position>
              <LatitudeDegrees>-15.38878153078258037567138671875</LatitudeDegrees>
              <LongitudeDegrees>37.08966714330017566680908203125</LongitudeDegrees>
            </Position>
            <AltitudeMeters>1112.5999755859375</AltitudeMeters>
            <DistanceMeters>NAN</DistanceMeters>
          </Trackpoint>
          <Trackpoint>
            <Time>2021-08-03T09:04:22.000Z</Time>
            <Position>
              <LatitudeDegrees>-15.3887811116874217987060546875</LatitudeDegrees>
              <LongitudeDegrees>37.089667730033397674560546875</LongitudeDegrees>
            </Position>
            <AltitudeMeters>1112.5999755859375</AltitudeMeters>
            <DistanceMeters>NAN</DistanceMeters>
          </Trackpoint>
          <Trackpoint>
            <Time>2021-08-03T09:04:31.000Z</Time>
            <Position>
              <LatitudeDegrees>-15.3887812793254852294921875</LatitudeDegrees>
              <LongitudeDegrees>37.0896672271192073822021484375</LongitudeDegrees>
            </Position>
            <AltitudeMeters>1112.5999755859375</AltitudeMeters>
            <DistanceMeters>NAN</DistanceMeters>
          </Trackpoint>
          <Trackpoint>
            <Time>2021-08-03T09:04:34.000Z</Time>
            <Position>
              <LatitudeDegrees>-15.38878153078258037567138671875</LatitudeDegrees>
              <LongitudeDegrees>37.0896658860146999359130859375</LongitudeDegrees>
            </Position>
            <AltitudeMeters>1112.5999755859375</AltitudeMeters>
            <DistanceMeters>NAN</DistanceMeters>
          </Trackpoint>
          <Trackpoint>
            <Time>2021-08-03T09:04:37.000Z</Time>
            <Position>
              <LatitudeDegrees>-15.388781614601612091064453125</LatitudeDegrees>
              <LongitudeDegrees>37.08966429345309734344482421875</LongitudeDegrees>
            </Position>
            <AltitudeMeters>1112.5999755859375</AltitudeMeters>
            <DistanceMeters>NAN</DistanceMeters>
          </Trackpoint>
          <Trackpoint>
            <Time>2021-08-03T09:04:41.000Z</Time>
            <Position>
              <LatitudeDegrees>-15.3887839615345001220703125</LatitudeDegrees>
              <LongitudeDegrees>37.0896628685295581817626953125</LongitudeDegrees>
            </Position>
            <AltitudeMeters>1112.5999755859375</AltitudeMeters>
            <DistanceMeters>NAN</DistanceMeters>
          </Trackpoint>
          <Trackpoint>
            <Time>2021-08-03T09:04:57.000Z</Time>
            <Position>
              <LatitudeDegrees>-15.38878488354384899139404296875</LatitudeDegrees>
              <LongitudeDegrees>37.0896588452160358428955078125</LongitudeDegrees>
            </Position>
            <AltitudeMeters>1112.5999755859375</AltitudeMeters>
            <DistanceMeters>NAN</DistanceMeters>
          </Trackpoint>
          <Trackpoint>
            <Time>2021-08-03T09:05:02.000Z</Time>
            <Position>
              <LatitudeDegrees>-15.388784967362880706787109375</LatitudeDegrees>
              <LongitudeDegrees>37.08965859375894069671630859375</LongitudeDegrees>
            </Position>
            <AltitudeMeters>1112.5999755859375</AltitudeMeters>
            <DistanceMeters>NAN</DistanceMeters>
          </Trackpoint>
          <Trackpoint>
            <Time>2021-08-03T09:05:04.000Z</Time>
            <Position>
              <LatitudeDegrees>-15.388784967362880706787109375</LatitudeDegrees>
              <LongitudeDegrees>37.0896585099399089813232421875</LongitudeDegrees>
            </Position>
            <AltitudeMeters>1112.5999755859375</AltitudeMeters>
            <DistanceMeters>NAN</DistanceMeters>
          </Trackpoint>
          <Trackpoint>
            <Time>2021-08-03T09:05:08.000Z</Time>
            <Position>
              <LatitudeDegrees>-15.388784967362880706787109375</LatitudeDegrees>
              <LongitudeDegrees>37.0896578393876552581787109375</LongitudeDegrees>
            </Position>
            <AltitudeMeters>1112.5999755859375</AltitudeMeters>
            <DistanceMeters>NAN</DistanceMeters>
          </Trackpoint>
          <Trackpoint>
            <Time>2021-08-03T09:05:14.000Z</Time>
            <Position>
              <LatitudeDegrees>-15.3887858055531978607177734375</LatitudeDegrees>
              <LongitudeDegrees>37.0896575041115283966064453125</LongitudeDegrees>
            </Position>
            <AltitudeMeters>1112.5999755859375</AltitudeMeters>
            <DistanceMeters>NAN</DistanceMeters>
          </Trackpoint>
          <Trackpoint>
            <Time>2021-08-03T09:05:17.000Z</Time>
            <Position>
              <LatitudeDegrees>-15.38878605701029300689697265625</LatitudeDegrees>
              <LongitudeDegrees>37.0896573364734649658203125</LongitudeDegrees>
            </Position>
            <AltitudeMeters>1112.5999755859375</AltitudeMeters>
            <DistanceMeters>NAN</DistanceMeters>
          </Trackpoint>
          <Trackpoint>
            <Time>2021-08-03T09:05:36.000Z</Time>
            <Position>
              <LatitudeDegrees>-15.38878957740962505340576171875</LatitudeDegrees>
              <LongitudeDegrees>37.08965457044541835784912109375</LongitudeDegrees>
            </Position>
            <AltitudeMeters>1112.5999755859375</AltitudeMeters>
            <DistanceMeters>NAN</DistanceMeters>
          </Trackpoint>
          <Trackpoint>
            <Time>2021-08-03T09:06:05.000Z</Time>
            <Position>
              <LatitudeDegrees>-15.38878739811480045318603515625</LatitudeDegrees>
              <LongitudeDegrees>37.08966027013957500457763671875</LongitudeDegrees>
            </Position>
            <AltitudeMeters>1112.5999755859375</AltitudeMeters>
            <DistanceMeters>NAN</DistanceMeters>
          </Trackpoint>
          <Trackpoint>
            <Time>2021-08-03T09:06:08.000Z</Time>
            <Position>
              <LatitudeDegrees>-15.38878655992448329925537109375</LatitudeDegrees>
              <LongitudeDegrees>37.089661024510860443115234375</LongitudeDegrees>
            </Position>
            <AltitudeMeters>1112.5999755859375</AltitudeMeters>
            <DistanceMeters>NAN</DistanceMeters>
          </Trackpoint>
          <Trackpoint>
            <Time>2021-08-03T09:06:22.000Z</Time>
            <Position>
              <LatitudeDegrees>-15.388784967362880706787109375</LatitudeDegrees>
              <LongitudeDegrees>37.08966228179633617401123046875</LongitudeDegrees>
            </Position>
            <AltitudeMeters>1112.5999755859375</AltitudeMeters>
            <DistanceMeters>NAN</DistanceMeters>
          </Trackpoint>
          <Trackpoint>
            <Time>2021-08-03T09:06:36.000Z</Time>
            <Position>
              <LatitudeDegrees>-15.38878471590578556060791015625</LatitudeDegrees>
              <LongitudeDegrees>37.08966244943439960479736328125</LongitudeDegrees>
            </Position>
            <AltitudeMeters>1112.5999755859375</AltitudeMeters>
            <DistanceMeters>NAN</DistanceMeters>
          </Trackpoint>
          <Trackpoint>
            <Time>2021-08-03T09:06:52.000Z</Time>
            <Position>
              <LatitudeDegrees>-15.38878438062965869903564453125</LatitudeDegrees>
              <LongitudeDegrees>37.0896625332534313201904296875</LongitudeDegrees>
            </Position>
            <AltitudeMeters>1112.5999755859375</AltitudeMeters>
            <DistanceMeters>NAN</DistanceMeters>
          </Trackpoint>
          <Trackpoint>
            <Time>2021-08-03T09:06:57.000Z</Time>
            <Position>
              <LatitudeDegrees>-15.38878438062965869903564453125</LatitudeDegrees>
              <LongitudeDegrees>37.08966244943439960479736328125</LongitudeDegrees>
            </Position>
            <AltitudeMeters>1112.5999755859375</AltitudeMeters>
            <DistanceMeters>NAN</DistanceMeters>
          </Trackpoint>
          <Trackpoint>
            <Time>2021-08-03T09:06:59.000Z</Time>
            <Position>
              <LatitudeDegrees>-15.388784296810626983642578125</LatitudeDegrees>
              <LongitudeDegrees>37.08966244943439960479736328125</LongitudeDegrees>
            </Position>
            <AltitudeMeters>1112.5999755859375</AltitudeMeters>
            <DistanceMeters>NAN</DistanceMeters>
          </Trackpoint>
          <Trackpoint>
            <Time>2021-08-03T09:07:03.000Z</Time>
            <Position>
              <LatitudeDegrees>-15.388784296810626983642578125</LatitudeDegrees>
              <LongitudeDegrees>37.08966244943439960479736328125</LongitudeDegrees>
            </Position>
            <AltitudeMeters>1112.5999755859375</AltitudeMeters>
            <DistanceMeters>NAN</DistanceMeters>
          </Trackpoint>
          <Trackpoint>
            <Time>2021-08-03T09:07:08.000Z</Time>
            <Position>
              <LatitudeDegrees>-15.38878873921930789947509765625</LatitudeDegrees>
              <LongitudeDegrees>37.0896628685295581817626953125</LongitudeDegrees>
            </Position>
            <AltitudeMeters>1112.5999755859375</AltitudeMeters>
            <DistanceMeters>NAN</DistanceMeters>
          </Trackpoint>
          <Trackpoint>
            <Time>2021-08-03T09:07:12.000Z</Time>
            <Position>
              <LatitudeDegrees>-15.3888563811779022216796875</LatitudeDegrees>
              <LongitudeDegrees>37.08966596983373165130615234375</LongitudeDegrees>
            </Position>
            <AltitudeMeters>1112.5999755859375</AltitudeMeters>
            <DistanceMeters>NAN</DistanceMeters>
          </Trackpoint>
          <Trackpoint>
            <Time>2021-08-03T09:07:16.000Z</Time>
            <Position>
              <LatitudeDegrees>-15.3889242745935916900634765625</LatitudeDegrees>
              <LongitudeDegrees>37.089671753346920013427734375</LongitudeDegrees>
            </Position>
            <AltitudeMeters>1112.4000244140625</AltitudeMeters>
            <DistanceMeters>NAN</DistanceMeters>
          </Trackpoint>
          <Trackpoint>
            <Time>2021-08-03T09:07:18.000Z</Time>
            <Position>
              <LatitudeDegrees>-15.38895671255886554718017578125</LatitudeDegrees>
              <LongitudeDegrees>37.08967166952788829803466796875</LongitudeDegrees>
            </Position>
            <AltitudeMeters>1112</AltitudeMeters>
            <DistanceMeters>NAN</DistanceMeters>
          </Trackpoint>
          <Trackpoint>
            <Time>2021-08-03T09:07:22.000Z</Time>
            <Position>
              <LatitudeDegrees>-15.38900884799659252166748046875</LatitudeDegrees>
              <LongitudeDegrees>37.08967016078531742095947265625</LongitudeDegrees>
            </Position>
            <AltitudeMeters>1112.199951171875</AltitudeMeters>
            <DistanceMeters>NAN</DistanceMeters>
          </Trackpoint>
          <Trackpoint>
            <Time>2021-08-03T09:07:24.000Z</Time>
            <Position>
              <LatitudeDegrees>-15.3890369273722171783447265625</LatitudeDegrees>
              <LongitudeDegrees>37.08966479636728763580322265625</LongitudeDegrees>
            </Position>
            <AltitudeMeters>1112.199951171875</AltitudeMeters>
            <DistanceMeters>NAN</DistanceMeters>
          </Trackpoint>
          <Trackpoint>
            <Time>2021-08-03T09:07:36.000Z</Time>
            <Position>
              <LatitudeDegrees>-15.38918771781027317047119140625</LatitudeDegrees>
              <LongitudeDegrees>37.08964535035192966461181640625</LongitudeDegrees>
            </Position>
            <AltitudeMeters>1112.199951171875</AltitudeMeters>
            <DistanceMeters>NAN</DistanceMeters>
          </Trackpoint>
          <Trackpoint>
            <Time>2021-08-03T09:07:49.000Z</Time>
            <Position>
              <LatitudeDegrees>-15.38934965617954730987548828125</LatitudeDegrees>
              <LongitudeDegrees>37.08957913331687450408935546875</LongitudeDegrees>
            </Position>
            <AltitudeMeters>1112.199951171875</AltitudeMeters>
            <DistanceMeters>NAN</DistanceMeters>
          </Trackpoint>
          <Trackpoint>
            <Time>2021-08-03T09:07:59.000Z</Time>
            <Position>
              <LatitudeDegrees>-15.3894607163965702056884765625</LatitudeDegrees>
              <LongitudeDegrees>37.08953672088682651519775390625</LongitudeDegrees>
            </Position>
            <AltitudeMeters>1112.800048828125</AltitudeMeters>
            <DistanceMeters>NAN</DistanceMeters>
          </Trackpoint>
          <Trackpoint>
            <Time>2021-08-03T09:08:10.000Z</Time>
            <Position>
              <LatitudeDegrees>-15.3895861096680164337158203125</LatitudeDegrees>
              <LongitudeDegrees>37.0895341224968433380126953125</LongitudeDegrees>
            </Position>
            <AltitudeMeters>1113</AltitudeMeters>
            <DistanceMeters>NAN</DistanceMeters>
          </Trackpoint>
          <Trackpoint>
            <Time>2021-08-03T09:08:16.000Z</Time>
            <Position>
              <LatitudeDegrees>-15.38965928368270397186279296875</LatitudeDegrees>
              <LongitudeDegrees>37.0895404927432537078857421875</LongitudeDegrees>
            </Position>
            <AltitudeMeters>1113.199951171875</AltitudeMeters>
            <DistanceMeters>NAN</DistanceMeters>
          </Trackpoint>
          <Trackpoint>
            <Time>2021-08-03T09:08:18.000Z</Time>
            <Position>
              <LatitudeDegrees>-15.3896846808493137359619140625</LatitudeDegrees>
              <LongitudeDegrees>37.08953890018165111541748046875</LongitudeDegrees>
            </Position>
            <AltitudeMeters>1113</AltitudeMeters>
            <DistanceMeters>NAN</DistanceMeters>
          </Trackpoint>
          <Trackpoint>
            <Time>2021-08-03T09:08:26.000Z</Time>
            <Position>
              <LatitudeDegrees>-15.38976766169071197509765625</LatitudeDegrees>
              <LongitudeDegrees>37.08949514664709568023681640625</LongitudeDegrees>
            </Position>
            <AltitudeMeters>1113.5999755859375</AltitudeMeters>
            <DistanceMeters>NAN</DistanceMeters>
          </Trackpoint>
          <Trackpoint>
            <Time>2021-08-03T09:08:28.000Z</Time>
            <Position>
              <LatitudeDegrees>-15.3897906281054019927978515625</LatitudeDegrees>
              <LongitudeDegrees>37.0894848369061946868896484375</LongitudeDegrees>
            </Position>
            <AltitudeMeters>1113.5999755859375</AltitudeMeters>
            <DistanceMeters>NAN</DistanceMeters>
          </Trackpoint>
          <Trackpoint>
            <Time>2021-08-03T09:08:31.000Z</Time>
            <Position>
              <LatitudeDegrees>-15.38983010686933994293212890625</LatitudeDegrees>
              <LongitudeDegrees>37.0894841663539409637451171875</LongitudeDegrees>
            </Position>
            <AltitudeMeters>1113.5999755859375</AltitudeMeters>
            <DistanceMeters>NAN</DistanceMeters>
          </Trackpoint>
          <Trackpoint>
            <Time>2021-08-03T09:08:34.000Z</Time>
            <Position>
              <LatitudeDegrees>-15.3898697532713413238525390625</LatitudeDegrees>
              <LongitudeDegrees>37.0894856750965118408203125</LongitudeDegrees>
            </Position>
            <AltitudeMeters>1113.5999755859375</AltitudeMeters>
            <DistanceMeters>NAN</DistanceMeters>
          </Trackpoint>
          <Trackpoint>
            <Time>2021-08-03T09:08:41.000Z</Time>
            <Position>
              <LatitudeDegrees>-15.38996019400656223297119140625</LatitudeDegrees>
              <LongitudeDegrees>37.08953588269650936126708984375</LongitudeDegrees>
            </Position>
            <AltitudeMeters>1114.199951171875</AltitudeMeters>
            <DistanceMeters>NAN</DistanceMeters>
          </Trackpoint>
          <Trackpoint>
            <Time>2021-08-03T09:08:42.000Z</Time>
            <Position>
              <LatitudeDegrees>-15.3899726830422878265380859375</LatitudeDegrees>
              <LongitudeDegrees>37.08953998982906341552734375</LongitudeDegrees>
            </Position>
            <AltitudeMeters>1114.199951171875</AltitudeMeters>
            <DistanceMeters>NAN</DistanceMeters>
          </Trackpoint>
          <Trackpoint>
            <Time>2021-08-03T09:08:47.000Z</Time>
            <Position>
              <LatitudeDegrees>-15.3900367207825183868408203125</LatitudeDegrees>
              <LongitudeDegrees>37.0895616151392459869384765625</LongitudeDegrees>
            </Position>
            <AltitudeMeters>1114.4000244140625</AltitudeMeters>
            <DistanceMeters>NAN</DistanceMeters>
          </Trackpoint>
          <Trackpoint>
            <Time>2021-08-03T09:08:52.000Z</Time>
            <Position>
              <LatitudeDegrees>-15.39009623229503631591796875</LatitudeDegrees>
              <LongitudeDegrees>37.08955432288348674774169921875</LongitudeDegrees>
            </Position>
            <AltitudeMeters>1114</AltitudeMeters>
            <DistanceMeters>NAN</DistanceMeters>
          </Trackpoint>
          <Trackpoint>
            <Time>2021-08-03T09:09:01.000Z</Time>
            <Position>
              <LatitudeDegrees>-15.39020192809402942657470703125</LatitudeDegrees>
              <LongitudeDegrees>37.0895753614604473114013671875</LongitudeDegrees>
            </Position>
            <AltitudeMeters>1114.4000244140625</AltitudeMeters>
            <DistanceMeters>NAN</DistanceMeters>
          </Trackpoint>
          <Trackpoint>
            <Time>2021-08-03T09:09:10.000Z</Time>
            <Position>
              <LatitudeDegrees>-15.39031206630170345306396484375</LatitudeDegrees>
              <LongitudeDegrees>37.089597992599010467529296875</LongitudeDegrees>
            </Position>
            <AltitudeMeters>1115</AltitudeMeters>
            <DistanceMeters>NAN</DistanceMeters>
          </Trackpoint>
          <Trackpoint>
            <Time>2021-08-03T09:09:11.000Z</Time>
            <Position>
              <LatitudeDegrees>-15.3903257288038730621337890625</LatitudeDegrees>
              <LongitudeDegrees>37.08960168063640594482421875</LongitudeDegrees>
            </Position>
            <AltitudeMeters>1115</AltitudeMeters>
            <DistanceMeters>NAN</DistanceMeters>
          </Trackpoint>
          <Trackpoint>
            <Time>2021-08-03T09:09:12.000Z</Time>
            <Position>
              <LatitudeDegrees>-15.390338636934757232666015625</LatitudeDegrees>
              <LongitudeDegrees>37.089605368673801422119140625</LongitudeDegrees>
            </Position>
            <AltitudeMeters>1115.199951171875</AltitudeMeters>
            <DistanceMeters>NAN</DistanceMeters>
          </Trackpoint>
          <Trackpoint>
            <Time>2021-08-03T09:09:14.000Z</Time>
            <Position>
              <LatitudeDegrees>-15.3903612680733203887939453125</LatitudeDegrees>
              <LongitudeDegrees>37.089610733091831207275390625</LongitudeDegrees>
            </Position>
            <AltitudeMeters>1115.4000244140625</AltitudeMeters>
            <DistanceMeters>NAN</DistanceMeters>
          </Trackpoint>
          <Trackpoint>
            <Time>2021-08-03T09:09:16.000Z</Time>
            <Position>
              <LatitudeDegrees>-15.390382893383502960205078125</LatitudeDegrees>
              <LongitudeDegrees>37.0896182768046855926513671875</LongitudeDegrees>
            </Position>
            <AltitudeMeters>1115.5999755859375</AltitudeMeters>
            <DistanceMeters>NAN</DistanceMeters>
          </Trackpoint>
          <Trackpoint>
            <Time>2021-08-03T09:09:19.000Z</Time>
            <Position>
              <LatitudeDegrees>-15.39041952230036258697509765625</LatitudeDegrees>
              <LongitudeDegrees>37.08962850272655487060546875</LongitudeDegrees>
            </Position>
            <AltitudeMeters>1115.5999755859375</AltitudeMeters>
            <DistanceMeters>NAN</DistanceMeters>
          </Trackpoint>
          <Trackpoint>
            <Time>2021-08-03T09:09:22.000Z</Time>
            <Position>
              <LatitudeDegrees>-15.3904531337320804595947265625</LatitudeDegrees>
              <LongitudeDegrees>37.0896467752754688262939453125</LongitudeDegrees>
            </Position>
            <AltitudeMeters>1115.5999755859375</AltitudeMeters>
            <DistanceMeters>NAN</DistanceMeters>
          </Trackpoint>
          <Trackpoint>
            <Time>2021-08-03T09:09:24.000Z</Time>
            <Position>
              <LatitudeDegrees>-15.39047266356647014617919921875</LatitudeDegrees>
              <LongitudeDegrees>37.0896541513502597808837890625</LongitudeDegrees>
            </Position>
            <AltitudeMeters>1115.5999755859375</AltitudeMeters>
            <DistanceMeters>NAN</DistanceMeters>
          </Trackpoint>
          <Trackpoint>
            <Time>2021-08-03T09:09:25.000Z</Time>
            <Position>
              <LatitudeDegrees>-15.39048389531672000885009765625</LatitudeDegrees>
              <LongitudeDegrees>37.08965809084475040435791015625</LongitudeDegrees>
            </Position>
            <AltitudeMeters>1115.4000244140625</AltitudeMeters>
            <DistanceMeters>NAN</DistanceMeters>
          </Trackpoint>
          <Trackpoint>
            <Time>2021-08-03T09:09:29.000Z</Time>
            <Position>
              <LatitudeDegrees>-15.39053619839251041412353515625</LatitudeDegrees>
              <LongitudeDegrees>37.08967234008014202117919921875</LongitudeDegrees>
            </Position>
            <AltitudeMeters>1115.4000244140625</AltitudeMeters>
            <DistanceMeters>NAN</DistanceMeters>
          </Trackpoint>
          <Trackpoint>
            <Time>2021-08-03T09:09:32.000Z</Time>
            <Position>
              <LatitudeDegrees>-15.390571653842926025390625</LatitudeDegrees>
              <LongitudeDegrees>37.08968172781169414520263671875</LongitudeDegrees>
            </Position>
            <AltitudeMeters>1115.4000244140625</AltitudeMeters>
            <DistanceMeters>NAN</DistanceMeters>
          </Trackpoint>
          <Trackpoint>
            <Time>2021-08-03T09:09:38.000Z</Time>
            <Position>
              <LatitudeDegrees>-15.39063845761120319366455078125</LatitudeDegrees>
              <LongitudeDegrees>37.089707963168621063232421875</LongitudeDegrees>
            </Position>
            <AltitudeMeters>1114.800048828125</AltitudeMeters>
            <DistanceMeters>NAN</DistanceMeters>
          </Trackpoint>
          <Trackpoint>
            <Time>2021-08-03T09:09:49.000Z</Time>
            <Position>
              <LatitudeDegrees>-15.3907686285674571990966796875</LatitudeDegrees>
              <LongitudeDegrees>37.0897520519793033599853515625</LongitudeDegrees>
            </Position>
            <AltitudeMeters>1114.5999755859375</AltitudeMeters>
            <DistanceMeters>NAN</DistanceMeters>
          </Trackpoint>
          <Trackpoint>
            <Time>2021-08-03T09:10:00.000Z</Time>
            <Position>
              <LatitudeDegrees>-15.39090265519917011260986328125</LatitudeDegrees>
              <LongitudeDegrees>37.0897383056581020355224609375</LongitudeDegrees>
            </Position>
            <AltitudeMeters>1114.5999755859375</AltitudeMeters>
            <DistanceMeters>NAN</DistanceMeters>
          </Trackpoint>
          <Trackpoint>
            <Time>2021-08-03T09:10:09.000Z</Time>
            <Position>
              <LatitudeDegrees>-15.39101027883589267730712890625</LatitudeDegrees>
              <LongitudeDegrees>37.08976261317729949951171875</LongitudeDegrees>
            </Position>
            <AltitudeMeters>1114.800048828125</AltitudeMeters>
            <DistanceMeters>NAN</DistanceMeters>
          </Trackpoint>
          <Trackpoint>
            <Time>2021-08-03T09:10:21.000Z</Time>
            <Position>
              <LatitudeDegrees>-15.3911652602255344390869140625</LatitudeDegrees>
              <LongitudeDegrees>37.0897899381816387176513671875</LongitudeDegrees>
            </Position>
            <AltitudeMeters>1115</AltitudeMeters>
            <DistanceMeters>NAN</DistanceMeters>
          </Trackpoint>
          <Trackpoint>
            <Time>2021-08-03T09:10:34.000Z</Time>
            <Position>
              <LatitudeDegrees>-15.39131797850131988525390625</LatitudeDegrees>
              <LongitudeDegrees>37.08976672030985355377197265625</LongitudeDegrees>
            </Position>
            <AltitudeMeters>1116</AltitudeMeters>
            <DistanceMeters>NAN</DistanceMeters>
          </Trackpoint>
          <Trackpoint>
            <Time>2021-08-03T09:10:37.000Z</Time>
            <Position>
              <LatitudeDegrees>-15.39135594852268695831298828125</LatitudeDegrees>
              <LongitudeDegrees>37.08975716494023799896240234375</LongitudeDegrees>
            </Position>
            <AltitudeMeters>1116.4000244140625</AltitudeMeters>
            <DistanceMeters>NAN</DistanceMeters>
          </Trackpoint>
          <Trackpoint>
            <Time>2021-08-03T09:10:38.000Z</Time>
            <Position>
              <LatitudeDegrees>-15.39136902429163455963134765625</LatitudeDegrees>
              <LongitudeDegrees>37.08975314162671566009521484375</LongitudeDegrees>
            </Position>
            <AltitudeMeters>1116.4000244140625</AltitudeMeters>
            <DistanceMeters>NAN</DistanceMeters>
          </Trackpoint>
          <Trackpoint>
            <Time>2021-08-03T09:10:49.000Z</Time>
            <Position>
              <LatitudeDegrees>-15.39147899486124515533447265625</LatitudeDegrees>
              <LongitudeDegrees>37.08966999314725399017333984375</LongitudeDegrees>
            </Position>
            <AltitudeMeters>1116</AltitudeMeters>
            <DistanceMeters>NAN</DistanceMeters>
          </Trackpoint>
          <Trackpoint>
            <Time>2021-08-03T09:10:53.000Z</Time>
            <Position>
              <LatitudeDegrees>-15.3915183059871196746826171875</LatitudeDegrees>
              <LongitudeDegrees>37.08963076584041118621826171875</LongitudeDegrees>
            </Position>
            <AltitudeMeters>1116</AltitudeMeters>
            <DistanceMeters>NAN</DistanceMeters>
          </Trackpoint>
          <Trackpoint>
            <Time>2021-08-03T09:10:58.000Z</Time>
            <Position>
              <LatitudeDegrees>-15.3915541805326938629150390625</LatitudeDegrees>
              <LongitudeDegrees>37.0895877666771411895751953125</LongitudeDegrees>
            </Position>
            <AltitudeMeters>1115.199951171875</AltitudeMeters>
            <DistanceMeters>NAN</DistanceMeters>
          </Trackpoint>
          <Trackpoint>
            <Time>2021-08-03T09:11:02.000Z</Time>
            <Position>
              <LatitudeDegrees>-15.3915836848318576812744140625</LatitudeDegrees>
              <LongitudeDegrees>37.0895311050117015838623046875</LongitudeDegrees>
            </Position>
            <AltitudeMeters>1115.4000244140625</AltitudeMeters>
            <DistanceMeters>NAN</DistanceMeters>
          </Trackpoint>
          <Trackpoint>
            <Time>2021-08-03T09:11:13.000Z</Time>
            <Position>
              <LatitudeDegrees>-15.3916534222662448883056640625</LatitudeDegrees>
              <LongitudeDegrees>37.08941669203341007232666015625</LongitudeDegrees>
            </Position>
            <AltitudeMeters>1115.199951171875</AltitudeMeters>
            <DistanceMeters>NAN</DistanceMeters>
          </Trackpoint>
          <Trackpoint>
            <Time>2021-08-03T09:11:21.000Z</Time>
            <Position>
              <LatitudeDegrees>-15.39171251468360424041748046875</LatitudeDegrees>
              <LongitudeDegrees>37.08933203481137752532958984375</LongitudeDegrees>
            </Position>
            <AltitudeMeters>1116.4000244140625</AltitudeMeters>
            <DistanceMeters>NAN</DistanceMeters>
          </Trackpoint>
          <Trackpoint>
            <Time>2021-08-03T09:11:25.000Z</Time>
            <Position>
              <LatitudeDegrees>-15.39174503646790981292724609375</LatitudeDegrees>
              <LongitudeDegrees>37.0893014408648014068603515625</LongitudeDegrees>
            </Position>
            <AltitudeMeters>1116.4000244140625</AltitudeMeters>
            <DistanceMeters>NAN</DistanceMeters>
          </Trackpoint>
          <Trackpoint>
            <Time>2021-08-03T09:11:26.000Z</Time>
            <Position>
              <LatitudeDegrees>-15.3917531669139862060546875</LatitudeDegrees>
              <LongitudeDegrees>37.0892987586557865142822265625</LongitudeDegrees>
            </Position>
            <AltitudeMeters>1116</AltitudeMeters>
            <DistanceMeters>NAN</DistanceMeters>
          </Trackpoint>
          <Trackpoint>
            <Time>2021-08-03T09:11:27.000Z</Time>
            <Position>
              <LatitudeDegrees>-15.3917637281119823455810546875</LatitudeDegrees>
              <LongitudeDegrees>37.0892974175512790679931640625</LongitudeDegrees>
            </Position>
            <AltitudeMeters>1115.5999755859375</AltitudeMeters>
            <DistanceMeters>NAN</DistanceMeters>
          </Trackpoint>
          <Trackpoint>
            <Time>2021-08-03T09:11:35.000Z</Time>
            <Position>
              <LatitudeDegrees>-15.391846038401126861572265625</LatitudeDegrees>
              <LongitudeDegrees>37.08929431624710559844970703125</LongitudeDegrees>
            </Position>
            <AltitudeMeters>1115.199951171875</AltitudeMeters>
            <DistanceMeters>NAN</DistanceMeters>
          </Trackpoint>
          <Trackpoint>
            <Time>2021-08-03T09:11:37.000Z</Time>
            <Position>
              <LatitudeDegrees>-15.39185576140880584716796875</LatitudeDegrees>
              <LongitudeDegrees>37.08928844891488552093505859375</LongitudeDegrees>
            </Position>
            <AltitudeMeters>1114.800048828125</AltitudeMeters>
            <DistanceMeters>NAN</DistanceMeters>
          </Trackpoint>
          <Trackpoint>
            <Time>2021-08-03T09:11:41.000Z</Time>
            <Position>
              <LatitudeDegrees>-15.39187361486256122589111328125</LatitudeDegrees>
              <LongitudeDegrees>37.08927118219435214996337890625</LongitudeDegrees>
            </Position>
            <AltitudeMeters>1113.4000244140625</AltitudeMeters>
            <DistanceMeters>NAN</DistanceMeters>
          </Trackpoint>
          <Trackpoint>
            <Time>2021-08-03T09:11:47.000Z</Time>
            <Position>
              <LatitudeDegrees>-15.39191099815070629119873046875</LatitudeDegrees>
              <LongitudeDegrees>37.0892612077295780181884765625</LongitudeDegrees>
            </Position>
            <AltitudeMeters>1112.800048828125</AltitudeMeters>
            <DistanceMeters>NAN</DistanceMeters>
          </Trackpoint>
          <Trackpoint>
            <Time>2021-08-03T09:11:49.000Z</Time>
            <Position>
              <LatitudeDegrees>-15.39192222990095615386962890625</LatitudeDegrees>
              <LongitudeDegrees>37.08926506340503692626953125</LongitudeDegrees>
            </Position>
            <AltitudeMeters>1112.4000244140625</AltitudeMeters>
            <DistanceMeters>NAN</DistanceMeters>
          </Trackpoint>
          <Trackpoint>
            <Time>2021-08-03T09:11:54.000Z</Time>
            <Position>
              <LatitudeDegrees>-15.3919270075857639312744140625</LatitudeDegrees>
              <LongitudeDegrees>37.08926766179502010345458984375</LongitudeDegrees>
            </Position>
            <AltitudeMeters>1112.199951171875</AltitudeMeters>
            <DistanceMeters>NAN</DistanceMeters>
          </Trackpoint>
          <Trackpoint>
            <Time>2021-08-03T09:11:56.000Z</Time>
            <Position>
              <LatitudeDegrees>-15.391923487186431884765625</LatitudeDegrees>
              <LongitudeDegrees>37.08926774561405181884765625</LongitudeDegrees>
            </Position>
            <AltitudeMeters>1112</AltitudeMeters>
            <DistanceMeters>NAN</DistanceMeters>
          </Trackpoint>
          <Trackpoint>
            <Time>2021-08-03T09:12:07.000Z</Time>
            <Position>
              <LatitudeDegrees>-15.3919206373393535614013671875</LatitudeDegrees>
              <LongitudeDegrees>37.08926774561405181884765625</LongitudeDegrees>
            </Position>
            <AltitudeMeters>1112</AltitudeMeters>
            <DistanceMeters>NAN</DistanceMeters>
          </Trackpoint>
          <Trackpoint>
            <Time>2021-08-03T09:12:10.000Z</Time>
            <Position>
              <LatitudeDegrees>-15.3919206373393535614013671875</LatitudeDegrees>
              <LongitudeDegrees>37.08926774561405181884765625</LongitudeDegrees>
            </Position>
            <AltitudeMeters>1112</AltitudeMeters>
            <DistanceMeters>NAN</DistanceMeters>
          </Trackpoint>
          <Trackpoint>
            <Time>2021-08-03T09:12:24.000Z</Time>
            <Position>
              <LatitudeDegrees>-15.39193882606923580169677734375</LatitudeDegrees>
              <LongitudeDegrees>37.089216448366641998291015625</LongitudeDegrees>
            </Position>
            <AltitudeMeters>1112</AltitudeMeters>
            <DistanceMeters>NAN</DistanceMeters>
          </Trackpoint>
          <Trackpoint>
            <Time>2021-08-03T09:12:26.000Z</Time>
            <Position>
              <LatitudeDegrees>-15.39194921962916851043701171875</LatitudeDegrees>
              <LongitudeDegrees>37.08918669261038303375244140625</LongitudeDegrees>
            </Position>
            <AltitudeMeters>1112</AltitudeMeters>
            <DistanceMeters>NAN</DistanceMeters>
          </Trackpoint>
          <Trackpoint>
            <Time>2021-08-03T09:12:36.000Z</Time>
            <Position>
              <LatitudeDegrees>-15.391988195478916168212890625</LatitudeDegrees>
              <LongitudeDegrees>37.08909633569419384002685546875</LongitudeDegrees>
            </Position>
            <AltitudeMeters>1111.800048828125</AltitudeMeters>
            <DistanceMeters>NAN</DistanceMeters>
          </Trackpoint>
          <Trackpoint>
            <Time>2021-08-03T09:12:47.000Z</Time>
            <Position>
              <LatitudeDegrees>-15.392014682292938232421875</LatitudeDegrees>
              <LongitudeDegrees>37.089034058153629302978515625</LongitudeDegrees>
            </Position>
            <AltitudeMeters>1111.4000244140625</AltitudeMeters>
            <DistanceMeters>NAN</DistanceMeters>
          </Trackpoint>
          <Trackpoint>
            <Time>2021-08-03T09:12:58.000Z</Time>
            <Position>
              <LatitudeDegrees>-15.39202717132866382598876953125</LatitudeDegrees>
              <LongitudeDegrees>37.0889738760888576507568359375</LongitudeDegrees>
            </Position>
            <AltitudeMeters>1112</AltitudeMeters>
            <DistanceMeters>NAN</DistanceMeters>
          </Trackpoint>
          <Trackpoint>
            <Time>2021-08-03T09:13:02.000Z</Time>
            <Position>
              <LatitudeDegrees>-15.39203069172799587249755859375</LatitudeDegrees>
              <LongitudeDegrees>37.0889457128942012786865234375</LongitudeDegrees>
            </Position>
            <AltitudeMeters>1111.800048828125</AltitudeMeters>
            <DistanceMeters>NAN</DistanceMeters>
          </Trackpoint>
          <Trackpoint>
            <Time>2021-08-03T09:13:04.000Z</Time>
            <Position>
              <LatitudeDegrees>-15.392036475241184234619140625</LatitudeDegrees>
              <LongitudeDegrees>37.08892970345914363861083984375</LongitudeDegrees>
            </Position>
            <AltitudeMeters>1111.800048828125</AltitudeMeters>
            <DistanceMeters>NAN</DistanceMeters>
          </Trackpoint>
          <Trackpoint>
            <Time>2021-08-03T09:13:13.000Z</Time>
            <Position>
              <LatitudeDegrees>-15.39202616550028324127197265625</LatitudeDegrees>
              <LongitudeDegrees>37.0889331400394439697265625</LongitudeDegrees>
            </Position>
            <AltitudeMeters>1112</AltitudeMeters>
            <DistanceMeters>NAN</DistanceMeters>
          </Trackpoint>
          <Trackpoint>
            <Time>2021-08-03T09:13:22.000Z</Time>
            <Position>
              <LatitudeDegrees>-15.39202163927257061004638671875</LatitudeDegrees>
              <LongitudeDegrees>37.0889356546103954315185546875</LongitudeDegrees>
            </Position>
            <AltitudeMeters>1112</AltitudeMeters>
            <DistanceMeters>NAN</DistanceMeters>
          </Trackpoint>
          <Trackpoint>
            <Time>2021-08-03T09:13:26.000Z</Time>
            <Position>
              <LatitudeDegrees>-15.39202063344419002532958984375</LatitudeDegrees>
              <LongitudeDegrees>37.08893909119069576263427734375</LongitudeDegrees>
            </Position>
            <AltitudeMeters>1112</AltitudeMeters>
            <DistanceMeters>NAN</DistanceMeters>
          </Trackpoint>
          <Trackpoint>
            <Time>2021-08-03T09:13:29.000Z</Time>
            <Position>
              <LatitudeDegrees>-15.39202063344419002532958984375</LatitudeDegrees>
              <LongitudeDegrees>37.08893909119069576263427734375</LongitudeDegrees>
            </Position>
            <AltitudeMeters>1112</AltitudeMeters>
            <DistanceMeters>NAN</DistanceMeters>
          </Trackpoint>
          <Trackpoint>
            <Time>2021-08-03T09:13:31.000Z</Time>
            <Position>
              <LatitudeDegrees>-15.39201426319777965545654296875</LatitudeDegrees>
              <LongitudeDegrees>37.088934145867824554443359375</LongitudeDegrees>
            </Position>
            <AltitudeMeters>1112</AltitudeMeters>
            <DistanceMeters>NAN</DistanceMeters>
          </Trackpoint>
          <Trackpoint>
            <Time>2021-08-03T09:13:39.000Z</Time>
            <Position>
              <LatitudeDegrees>-15.39200571365654468536376953125</LatitudeDegrees>
              <LongitudeDegrees>37.0888833515346050262451171875</LongitudeDegrees>
            </Position>
            <AltitudeMeters>1112</AltitudeMeters>
            <DistanceMeters>NAN</DistanceMeters>
          </Trackpoint>
          <Trackpoint>
            <Time>2021-08-03T09:13:41.000Z</Time>
            <Position>
              <LatitudeDegrees>-15.39200286380946636199951171875</LatitudeDegrees>
              <LongitudeDegrees>37.0888719521462917327880859375</LongitudeDegrees>
            </Position>
            <AltitudeMeters>1112</AltitudeMeters>
            <DistanceMeters>NAN</DistanceMeters>
          </Trackpoint>
          <Trackpoint>
            <Time>2021-08-03T09:13:48.000Z</Time>
            <Position>
              <LatitudeDegrees>-15.3919719345867633819580078125</LatitudeDegrees>
              <LongitudeDegrees>37.08884940482676029205322265625</LongitudeDegrees>
            </Position>
            <AltitudeMeters>1112</AltitudeMeters>
            <DistanceMeters>NAN</DistanceMeters>
          </Trackpoint>
          <Trackpoint>
            <Time>2021-08-03T09:13:49.000Z</Time>
            <Position>
              <LatitudeDegrees>-15.39196598343551158905029296875</LatitudeDegrees>
              <LongitudeDegrees>37.0888478122651576995849609375</LongitudeDegrees>
            </Position>
            <AltitudeMeters>1112</AltitudeMeters>
            <DistanceMeters>NAN</DistanceMeters>
          </Trackpoint>
          <Trackpoint>
            <Time>2021-08-03T09:13:54.000Z</Time>
            <Position>
              <LatitudeDegrees>-15.39195139892399311065673828125</LatitudeDegrees>
              <LongitudeDegrees>37.088833563029766082763671875</LongitudeDegrees>
            </Position>
            <AltitudeMeters>1112</AltitudeMeters>
            <DistanceMeters>NAN</DistanceMeters>
          </Trackpoint>
          <Trackpoint>
            <Time>2021-08-03T09:14:03.000Z</Time>
            <Position>
              <LatitudeDegrees>-15.391981489956378936767578125</LatitudeDegrees>
              <LongitudeDegrees>37.08884722553193569183349609375</LongitudeDegrees>
            </Position>
            <AltitudeMeters>1112</AltitudeMeters>
            <DistanceMeters>NAN</DistanceMeters>
          </Trackpoint>
          <Trackpoint>
            <Time>2021-08-03T09:14:09.000Z</Time>
            <Position>
              <LatitudeDegrees>-15.3919705934822559356689453125</LatitudeDegrees>
              <LongitudeDegrees>37.088873125612735748291015625</LongitudeDegrees>
            </Position>
            <AltitudeMeters>1112</AltitudeMeters>
            <DistanceMeters>NAN</DistanceMeters>
          </Trackpoint>
          <Trackpoint>
            <Time>2021-08-03T09:14:14.000Z</Time>
            <Position>
              <LatitudeDegrees>-15.391974784433841705322265625</LatitudeDegrees>
              <LongitudeDegrees>37.08891394548118114471435546875</LongitudeDegrees>
            </Position>
            <AltitudeMeters>1112</AltitudeMeters>
            <DistanceMeters>NAN</DistanceMeters>
          </Trackpoint>
          <Trackpoint>
            <Time>2021-08-03T09:14:17.000Z</Time>
            <Position>
              <LatitudeDegrees>-15.39198207668960094451904296875</LatitudeDegrees>
              <LongitudeDegrees>37.08892987109720706939697265625</LongitudeDegrees>
            </Position>
            <AltitudeMeters>1112</AltitudeMeters>
            <DistanceMeters>NAN</DistanceMeters>
          </Trackpoint>
          <Trackpoint>
            <Time>2021-08-03T09:14:19.000Z</Time>
            <Position>
              <LatitudeDegrees>-15.39198392070829868316650390625</LatitudeDegrees>
              <LongitudeDegrees>37.088930122554302215576171875</LongitudeDegrees>
            </Position>
            <AltitudeMeters>1112</AltitudeMeters>
            <DistanceMeters>NAN</DistanceMeters>
          </Trackpoint>
          <Trackpoint>
            <Time>2021-08-03T09:14:22.000Z</Time>
            <Position>
              <LatitudeDegrees>-15.39199163205921649932861328125</LatitudeDegrees>
              <LongitudeDegrees>37.08893439732491970062255859375</LongitudeDegrees>
            </Position>
            <AltitudeMeters>1112</AltitudeMeters>
            <DistanceMeters>NAN</DistanceMeters>
          </Trackpoint>
          <Trackpoint>
            <Time>2021-08-03T09:14:29.000Z</Time>
            <Position>
              <LatitudeDegrees>-15.39199112914502620697021484375</LatitudeDegrees>
              <LongitudeDegrees>37.0889272727072238922119140625</LongitudeDegrees>
            </Position>
            <AltitudeMeters>1112</AltitudeMeters>
            <DistanceMeters>NAN</DistanceMeters>
          </Trackpoint>
          <Trackpoint>
            <Time>2021-08-03T09:14:50.000Z</Time>
            <Position>
              <LatitudeDegrees>-15.3919990919530391693115234375</LatitudeDegrees>
              <LongitudeDegrees>37.0889326371252536773681640625</LongitudeDegrees>
            </Position>
            <AltitudeMeters>1112</AltitudeMeters>
            <DistanceMeters>NAN</DistanceMeters>
          </Trackpoint>
          <Trackpoint>
            <Time>2021-08-03T09:14:52.000Z</Time>
            <Position>
              <LatitudeDegrees>-15.39199984632432460784912109375</LatitudeDegrees>
              <LongitudeDegrees>37.08893255330622196197509765625</LongitudeDegrees>
            </Position>
            <AltitudeMeters>1112</AltitudeMeters>
            <DistanceMeters>NAN</DistanceMeters>
          </Trackpoint>
          <Trackpoint>
            <Time>2021-08-03T09:14:58.000Z</Time>
            <Position>
              <LatitudeDegrees>-15.3920037858188152313232421875</LatitudeDegrees>
              <LongitudeDegrees>37.088932134211063385009765625</LongitudeDegrees>
            </Position>
            <AltitudeMeters>1112</AltitudeMeters>
            <DistanceMeters>NAN</DistanceMeters>
          </Trackpoint>
          <Trackpoint>
            <Time>2021-08-03T09:15:16.000Z</Time>
            <Position>
              <LatitudeDegrees>-15.39201241917908191680908203125</LatitudeDegrees>
              <LongitudeDegrees>37.08891025744378566741943359375</LongitudeDegrees>
            </Position>
            <AltitudeMeters>1112</AltitudeMeters>
            <DistanceMeters>NAN</DistanceMeters>
          </Trackpoint>
          <Trackpoint>
            <Time>2021-08-03T09:15:18.000Z</Time>
            <Position>
              <LatitudeDegrees>-15.3920135088264942169189453125</LatitudeDegrees>
              <LongitudeDegrees>37.08890832960605621337890625</LongitudeDegrees>
            </Position>
            <AltitudeMeters>1112</AltitudeMeters>
            <DistanceMeters>NAN</DistanceMeters>
          </Trackpoint>
          <Trackpoint>
            <Time>2021-08-03T09:15:23.000Z</Time>
            <Position>
              <LatitudeDegrees>-15.39202096872031688690185546875</LatitudeDegrees>
              <LongitudeDegrees>37.08890187554061412811279296875</LongitudeDegrees>
            </Position>
            <AltitudeMeters>1112</AltitudeMeters>
            <DistanceMeters>NAN</DistanceMeters>
          </Trackpoint>
          <Trackpoint>
            <Time>2021-08-03T09:15:26.000Z</Time>
            <Position>
              <LatitudeDegrees>-15.392021052539348602294921875</LatitudeDegrees>
              <LongitudeDegrees>37.08890003152191638946533203125</LongitudeDegrees>
            </Position>
            <AltitudeMeters>1112</AltitudeMeters>
            <DistanceMeters>NAN</DistanceMeters>
          </Trackpoint>
          <Trackpoint>
            <Time>2021-08-03T09:15:28.000Z</Time>
            <Position>
              <LatitudeDegrees>-15.392021052539348602294921875</LatitudeDegrees>
              <LongitudeDegrees>37.08889869041740894317626953125</LongitudeDegrees>
            </Position>
            <AltitudeMeters>1112</AltitudeMeters>
            <DistanceMeters>NAN</DistanceMeters>
          </Trackpoint>
          <Trackpoint>
            <Time>2021-08-03T09:15:30.000Z</Time>
            <Position>
              <LatitudeDegrees>-15.39202113635838031768798828125</LatitudeDegrees>
              <LongitudeDegrees>37.0888974331319332122802734375</LongitudeDegrees>
            </Position>
            <AltitudeMeters>1112</AltitudeMeters>
            <DistanceMeters>NAN</DistanceMeters>
          </Trackpoint>
          <Trackpoint>
            <Time>2021-08-03T09:15:33.000Z</Time>
            <Position>
              <LatitudeDegrees>-15.3920212201774120330810546875</LatitudeDegrees>
              <LongitudeDegrees>37.088895924389362335205078125</LongitudeDegrees>
            </Position>
            <AltitudeMeters>1112</AltitudeMeters>
            <DistanceMeters>NAN</DistanceMeters>
          </Trackpoint>
          <Trackpoint>
            <Time>2021-08-03T09:15:37.000Z</Time>
            <Position>
              <LatitudeDegrees>-15.39202163927257061004638671875</LatitudeDegrees>
              <LongitudeDegrees>37.0888947509229183197021484375</LongitudeDegrees>
            </Position>
            <AltitudeMeters>1112</AltitudeMeters>
            <DistanceMeters>NAN</DistanceMeters>
          </Trackpoint>
          <Trackpoint>
            <Time>2021-08-03T09:15:40.000Z</Time>
            <Position>
              <LatitudeDegrees>-15.39202163927257061004638671875</LatitudeDegrees>
              <LongitudeDegrees>37.08889366127550601959228515625</LongitudeDegrees>
            </Position>
            <AltitudeMeters>1112</AltitudeMeters>
            <DistanceMeters>NAN</DistanceMeters>
          </Trackpoint>
          <Trackpoint>
            <Time>2021-08-03T09:15:42.000Z</Time>
            <Position>
              <LatitudeDegrees>-15.39202197454869747161865234375</LatitudeDegrees>
              <LongitudeDegrees>37.08889299072325229644775390625</LongitudeDegrees>
            </Position>
            <AltitudeMeters>1112</AltitudeMeters>
            <DistanceMeters>NAN</DistanceMeters>
          </Trackpoint>
          <Trackpoint>
            <Time>2021-08-03T09:15:45.000Z</Time>
            <Position>
              <LatitudeDegrees>-15.39202230982482433319091796875</LatitudeDegrees>
              <LongitudeDegrees>37.08889181725680828094482421875</LongitudeDegrees>
            </Position>
            <AltitudeMeters>1112</AltitudeMeters>
            <DistanceMeters>NAN</DistanceMeters>
          </Trackpoint>
          <Trackpoint>
            <Time>2021-08-03T09:15:50.000Z</Time>
            <Position>
              <LatitudeDegrees>-15.3920218907296657562255859375</LatitudeDegrees>
              <LongitudeDegrees>37.08888762630522251129150390625</LongitudeDegrees>
            </Position>
            <AltitudeMeters>1112</AltitudeMeters>
            <DistanceMeters>NAN</DistanceMeters>
          </Trackpoint>
          <Trackpoint>
            <Time>2021-08-03T09:15:57.000Z</Time>
            <Position>
              <LatitudeDegrees>-15.3920218907296657562255859375</LatitudeDegrees>
              <LongitudeDegrees>37.08888150751590728759765625</LongitudeDegrees>
            </Position>
            <AltitudeMeters>1112</AltitudeMeters>
            <DistanceMeters>NAN</DistanceMeters>
          </Trackpoint>
          <Trackpoint>
            <Time>2021-08-03T09:16:00.000Z</Time>
            <Position>
              <LatitudeDegrees>-15.3920218907296657562255859375</LatitudeDegrees>
              <LongitudeDegrees>37.08888058550655841827392578125</LongitudeDegrees>
            </Position>
            <AltitudeMeters>1112</AltitudeMeters>
            <DistanceMeters>NAN</DistanceMeters>
          </Trackpoint>
          <Trackpoint>
            <Time>2021-08-03T09:16:02.000Z</Time>
            <Position>
              <LatitudeDegrees>-15.39202147163450717926025390625</LatitudeDegrees>
              <LongitudeDegrees>37.08887941204011440277099609375</LongitudeDegrees>
            </Position>
            <AltitudeMeters>1112</AltitudeMeters>
            <DistanceMeters>NAN</DistanceMeters>
          </Trackpoint>
          <Trackpoint>
            <Time>2021-08-03T09:16:14.000Z</Time>
            <Position>
              <LatitudeDegrees>-15.39202096872031688690185546875</LatitudeDegrees>
              <LongitudeDegrees>37.08886700682342052459716796875</LongitudeDegrees>
            </Position>
            <AltitudeMeters>1112</AltitudeMeters>
            <DistanceMeters>NAN</DistanceMeters>
          </Trackpoint>
          <Trackpoint>
            <Time>2021-08-03T09:16:28.000Z</Time>
            <Position>
              <LatitudeDegrees>-15.39202264510095119476318359375</LatitudeDegrees>
              <LongitudeDegrees>37.08884638734161853790283203125</LongitudeDegrees>
            </Position>
            <AltitudeMeters>1112</AltitudeMeters>
            <DistanceMeters>NAN</DistanceMeters>
          </Trackpoint>
          <Trackpoint>
            <Time>2021-08-03T09:16:48.000Z</Time>
            <Position>
              <LatitudeDegrees>-15.39201828651130199432373046875</LatitudeDegrees>
              <LongitudeDegrees>37.08885275758802890777587890625</LongitudeDegrees>
            </Position>
            <AltitudeMeters>1112</AltitudeMeters>
            <DistanceMeters>NAN</DistanceMeters>
          </Trackpoint>
          <Trackpoint>
            <Time>2021-08-03T09:16:56.000Z</Time>
            <Position>
              <LatitudeDegrees>-15.39201803505420684814453125</LatitudeDegrees>
              <LongitudeDegrees>37.0888538472354412078857421875</LongitudeDegrees>
            </Position>
            <AltitudeMeters>1112</AltitudeMeters>
            <DistanceMeters>NAN</DistanceMeters>
          </Trackpoint>
          <Trackpoint>
            <Time>2021-08-03T09:17:05.000Z</Time>
            <Position>
              <LatitudeDegrees>-15.39201795123517513275146484375</LatitudeDegrees>
              <LongitudeDegrees>37.08885258994996547698974609375</LongitudeDegrees>
            </Position>
            <AltitudeMeters>1112</AltitudeMeters>
            <DistanceMeters>NAN</DistanceMeters>
          </Trackpoint>
          <Trackpoint>
            <Time>2021-08-03T09:17:11.000Z</Time>
            <Position>
              <LatitudeDegrees>-15.39201577194035053253173828125</LatitudeDegrees>
              <LongitudeDegrees>37.08885342814028263092041015625</LongitudeDegrees>
            </Position>
            <AltitudeMeters>1112</AltitudeMeters>
            <DistanceMeters>NAN</DistanceMeters>
          </Trackpoint>
          <Trackpoint>
            <Time>2021-08-03T09:17:12.000Z</Time>
            <Position>
              <LatitudeDegrees>-15.39201510138809680938720703125</LatitudeDegrees>
              <LongitudeDegrees>37.088853679597377777099609375</LongitudeDegrees>
            </Position>
            <AltitudeMeters>1109</AltitudeMeters>
            <DistanceMeters>NAN</DistanceMeters>
          </Trackpoint>
          <Trackpoint>
            <Time>2021-08-03T09:17:17.000Z</Time>
            <Position>
              <LatitudeDegrees>-15.3920111618936061859130859375</LatitudeDegrees>
              <LongitudeDegrees>37.0888571999967098236083984375</LongitudeDegrees>
            </Position>
            <AltitudeMeters>1109</AltitudeMeters>
            <DistanceMeters>NAN</DistanceMeters>
          </Trackpoint>
          <Trackpoint>
            <Time>2021-08-03T09:17:46.000Z</Time>
            <Position>
              <LatitudeDegrees>-15.39198660291731357574462890625</LatitudeDegrees>
              <LongitudeDegrees>37.08890673704445362091064453125</LongitudeDegrees>
            </Position>
            <AltitudeMeters>1109.4000244140625</AltitudeMeters>
            <DistanceMeters>NAN</DistanceMeters>
          </Trackpoint>
          <Trackpoint>
            <Time>2021-08-03T09:17:50.000Z</Time>
            <Position>
              <LatitudeDegrees>-15.39198626764118671417236328125</LatitudeDegrees>
              <LongitudeDegrees>37.088907994329929351806640625</LongitudeDegrees>
            </Position>
            <AltitudeMeters>1109.4000244140625</AltitudeMeters>
            <DistanceMeters>NAN</DistanceMeters>
          </Trackpoint>
          <Trackpoint>
            <Time>2021-08-03T09:17:53.000Z</Time>
            <Position>
              <LatitudeDegrees>-15.391986183822154998779296875</LatitudeDegrees>
              <LongitudeDegrees>37.08890807814896106719970703125</LongitudeDegrees>
            </Position>
            <AltitudeMeters>1109</AltitudeMeters>
            <DistanceMeters>NAN</DistanceMeters>
          </Trackpoint>
          <Trackpoint>
            <Time>2021-08-03T09:17:56.000Z</Time>
            <Position>
              <LatitudeDegrees>-15.39198610000312328338623046875</LatitudeDegrees>
              <LongitudeDegrees>37.0889081619679927825927734375</LongitudeDegrees>
            </Position>
            <AltitudeMeters>1108.800048828125</AltitudeMeters>
            <DistanceMeters>NAN</DistanceMeters>
          </Trackpoint>
          <Trackpoint>
            <Time>2021-08-03T09:18:17.000Z</Time>
            <Position>
              <LatitudeDegrees>-15.39198584854602813720703125</LatitudeDegrees>
              <LongitudeDegrees>37.0889074914157390594482421875</LongitudeDegrees>
            </Position>
            <AltitudeMeters>1109</AltitudeMeters>
            <DistanceMeters>NAN</DistanceMeters>
          </Trackpoint>
          <Trackpoint>
            <Time>2021-08-03T09:18:20.000Z</Time>
            <Position>
              <LatitudeDegrees>-15.39198584854602813720703125</LatitudeDegrees>
              <LongitudeDegrees>37.088907323777675628662109375</LongitudeDegrees>
            </Position>
            <AltitudeMeters>1109</AltitudeMeters>
            <DistanceMeters>NAN</DistanceMeters>
          </Trackpoint>
          <Trackpoint>
            <Time>2021-08-03T09:18:23.000Z</Time>
            <Position>
              <LatitudeDegrees>-15.39198584854602813720703125</LatitudeDegrees>
              <LongitudeDegrees>37.0889071561396121978759765625</LongitudeDegrees>
            </Position>
            <AltitudeMeters>1109</AltitudeMeters>
            <DistanceMeters>NAN</DistanceMeters>
          </Trackpoint>
          <Trackpoint>
            <Time>2021-08-03T09:18:25.000Z</Time>
            <Position>
              <LatitudeDegrees>-15.39198584854602813720703125</LatitudeDegrees>
              <LongitudeDegrees>37.08890698850154876708984375</LongitudeDegrees>
            </Position>
            <AltitudeMeters>1109</AltitudeMeters>
            <DistanceMeters>NAN</DistanceMeters>
          </Trackpoint>
          <Trackpoint>
            <Time>2021-08-03T09:18:27.000Z</Time>
            <Position>
              <LatitudeDegrees>-15.39198593236505985260009765625</LatitudeDegrees>
              <LongitudeDegrees>37.08890690468251705169677734375</LongitudeDegrees>
            </Position>
            <AltitudeMeters>1109</AltitudeMeters>
            <DistanceMeters>NAN</DistanceMeters>
          </Trackpoint>
          <Trackpoint>
            <Time>2021-08-03T09:18:29.000Z</Time>
            <Position>
              <LatitudeDegrees>-15.39198593236505985260009765625</LatitudeDegrees>
              <LongitudeDegrees>37.08890673704445362091064453125</LongitudeDegrees>
            </Position>
            <AltitudeMeters>1109</AltitudeMeters>
            <DistanceMeters>NAN</DistanceMeters>
          </Trackpoint>
          <Trackpoint>
            <Time>2021-08-03T09:18:31.000Z</Time>
            <Position>
              <LatitudeDegrees>-15.39198593236505985260009765625</LatitudeDegrees>
              <LongitudeDegrees>37.088906653225421905517578125</LongitudeDegrees>
            </Position>
            <AltitudeMeters>1109</AltitudeMeters>
            <DistanceMeters>NAN</DistanceMeters>
          </Trackpoint>
          <Trackpoint>
            <Time>2021-08-03T09:18:32.000Z</Time>
            <Position>
              <LatitudeDegrees>-15.39198593236505985260009765625</LatitudeDegrees>
              <LongitudeDegrees>37.08890656940639019012451171875</LongitudeDegrees>
            </Position>
            <AltitudeMeters>1109</AltitudeMeters>
            <DistanceMeters>NAN</DistanceMeters>
          </Trackpoint>
          <Trackpoint>
            <Time>2021-08-03T09:18:34.000Z</Time>
            <Position>
              <LatitudeDegrees>-15.39198593236505985260009765625</LatitudeDegrees>
              <LongitudeDegrees>37.0889064855873584747314453125</LongitudeDegrees>
            </Position>
            <AltitudeMeters>1109</AltitudeMeters>
            <DistanceMeters>NAN</DistanceMeters>
          </Trackpoint>
          <Trackpoint>
            <Time>2021-08-03T09:18:43.000Z</Time>
            <Position>
              <LatitudeDegrees>-15.3919860161840915679931640625</LatitudeDegrees>
              <LongitudeDegrees>37.088905982673168182373046875</LongitudeDegrees>
            </Position>
            <AltitudeMeters>1109</AltitudeMeters>
            <DistanceMeters>NAN</DistanceMeters>
          </Trackpoint>
          <Trackpoint>
            <Time>2021-08-03T09:18:57.000Z</Time>
            <Position>
              <LatitudeDegrees>-15.391986183822154998779296875</LatitudeDegrees>
              <LongitudeDegrees>37.08890522830188274383544921875</LongitudeDegrees>
            </Position>
            <AltitudeMeters>1109</AltitudeMeters>
            <DistanceMeters>NAN</DistanceMeters>
          </Trackpoint>
          <Trackpoint>
            <Time>2021-08-03T09:19:05.000Z</Time>
            <Position>
              <LatitudeDegrees>-15.39198626764118671417236328125</LatitudeDegrees>
              <LongitudeDegrees>37.0889048092067241668701171875</LongitudeDegrees>
            </Position>
            <AltitudeMeters>1109</AltitudeMeters>
            <DistanceMeters>NAN</DistanceMeters>
          </Trackpoint>
          <Trackpoint>
            <Time>2021-08-03T09:19:45.000Z</Time>
            <Position>
              <LatitudeDegrees>-15.3919863514602184295654296875</LatitudeDegrees>
              <LongitudeDegrees>37.08890237845480442047119140625</LongitudeDegrees>
            </Position>
            <AltitudeMeters>1109</AltitudeMeters>
            <DistanceMeters>NAN</DistanceMeters>
          </Trackpoint>
          <Trackpoint>
            <Time>2021-08-03T09:19:57.000Z</Time>
            <Position>
              <LatitudeDegrees>-15.39198660291731357574462890625</LatitudeDegrees>
              <LongitudeDegrees>37.088902629911899566650390625</LongitudeDegrees>
            </Position>
            <AltitudeMeters>1109</AltitudeMeters>
            <DistanceMeters>NAN</DistanceMeters>
          </Trackpoint>
          <Trackpoint>
            <Time>2021-08-03T09:20:00.000Z</Time>
            <Position>
              <LatitudeDegrees>-15.39198660291731357574462890625</LatitudeDegrees>
              <LongitudeDegrees>37.08890271373093128204345703125</LongitudeDegrees>
            </Position>
            <AltitudeMeters>1109</AltitudeMeters>
            <DistanceMeters>NAN</DistanceMeters>
          </Trackpoint>
          <Trackpoint>
            <Time>2021-08-03T09:20:08.000Z</Time>
            <Position>
              <LatitudeDegrees>-15.39198660291731357574462890625</LatitudeDegrees>
              <LongitudeDegrees>37.08890296518802642822265625</LongitudeDegrees>
            </Position>
            <AltitudeMeters>1109</AltitudeMeters>
            <DistanceMeters>NAN</DistanceMeters>
          </Trackpoint>
          <Trackpoint>
            <Time>2021-08-03T09:20:10.000Z</Time>
            <Position>
              <LatitudeDegrees>-15.39198660291731357574462890625</LatitudeDegrees>
              <LongitudeDegrees>37.08890304900705814361572265625</LongitudeDegrees>
            </Position>
            <AltitudeMeters>1109</AltitudeMeters>
            <DistanceMeters>NAN</DistanceMeters>
          </Trackpoint>
          <Trackpoint>
            <Time>2021-08-03T09:20:15.000Z</Time>
            <Position>
              <LatitudeDegrees>-15.3919865190982818603515625</LatitudeDegrees>
              <LongitudeDegrees>37.08890321664512157440185546875</LongitudeDegrees>
            </Position>
            <AltitudeMeters>1109</AltitudeMeters>
            <DistanceMeters>NAN</DistanceMeters>
          </Trackpoint>
          <Trackpoint>
            <Time>2021-08-03T09:20:23.000Z</Time>
            <Position>
              <LatitudeDegrees>-15.3919863514602184295654296875</LatitudeDegrees>
              <LongitudeDegrees>37.088903300464153289794921875</LongitudeDegrees>
            </Position>
            <AltitudeMeters>1109</AltitudeMeters>
            <DistanceMeters>NAN</DistanceMeters>
          </Trackpoint>
          <Trackpoint>
            <Time>2021-08-03T09:20:24.000Z</Time>
            <Position>
              <LatitudeDegrees>-15.3919863514602184295654296875</LatitudeDegrees>
              <LongitudeDegrees>37.088903300464153289794921875</LongitudeDegrees>
            </Position>
            <AltitudeMeters>1109</AltitudeMeters>
            <DistanceMeters>NAN</DistanceMeters>
          </Trackpoint>
          <Trackpoint>
            <Time>2021-08-03T09:20:25.000Z</Time>
            <Position>
              <LatitudeDegrees>-15.3919863514602184295654296875</LatitudeDegrees>
              <LongitudeDegrees>37.088903300464153289794921875</LongitudeDegrees>
            </Position>
            <AltitudeMeters>1109</AltitudeMeters>
            <DistanceMeters>NAN</DistanceMeters>
          </Trackpoint>
          <Trackpoint>
            <Time>2021-08-03T09:20:26.000Z</Time>
            <Position>
              <LatitudeDegrees>-15.3919863514602184295654296875</LatitudeDegrees>
              <LongitudeDegrees>37.088903300464153289794921875</LongitudeDegrees>
            </Position>
            <AltitudeMeters>1109</AltitudeMeters>
            <DistanceMeters>NAN</DistanceMeters>
          </Trackpoint>
          <Trackpoint>
            <Time>2021-08-03T09:20:27.000Z</Time>
            <Position>
              <LatitudeDegrees>-15.3919863514602184295654296875</LatitudeDegrees>
              <LongitudeDegrees>37.088903300464153289794921875</LongitudeDegrees>
            </Position>
            <AltitudeMeters>1109</AltitudeMeters>
            <DistanceMeters>NAN</DistanceMeters>
          </Trackpoint>
          <Trackpoint>
            <Time>2021-08-03T09:20:28.000Z</Time>
            <Position>
              <LatitudeDegrees>-15.39198626764118671417236328125</LatitudeDegrees>
              <LongitudeDegrees>37.088903300464153289794921875</LongitudeDegrees>
            </Position>
            <AltitudeMeters>1109</AltitudeMeters>
            <DistanceMeters>NAN</DistanceMeters>
          </Trackpoint>
          <Trackpoint>
            <Time>2021-08-03T09:20:30.000Z</Time>
            <Position>
              <LatitudeDegrees>-15.39198626764118671417236328125</LatitudeDegrees>
              <LongitudeDegrees>37.08890321664512157440185546875</LongitudeDegrees>
            </Position>
            <AltitudeMeters>1109</AltitudeMeters>
            <DistanceMeters>NAN</DistanceMeters>
          </Trackpoint>
          <Trackpoint>
            <Time>2021-08-03T09:20:32.000Z</Time>
            <Position>
              <LatitudeDegrees>-15.39198626764118671417236328125</LatitudeDegrees>
              <LongitudeDegrees>37.08890321664512157440185546875</LongitudeDegrees>
            </Position>
            <AltitudeMeters>1109</AltitudeMeters>
            <DistanceMeters>NAN</DistanceMeters>
          </Trackpoint>
          <Trackpoint>
            <Time>2021-08-03T09:20:42.000Z</Time>
            <Position>
              <LatitudeDegrees>-15.391986183822154998779296875</LatitudeDegrees>
              <LongitudeDegrees>37.08890288136899471282958984375</LongitudeDegrees>
            </Position>
            <AltitudeMeters>1109</AltitudeMeters>
            <DistanceMeters>NAN</DistanceMeters>
          </Trackpoint>
          <Trackpoint>
            <Time>2021-08-03T09:21:06.000Z</Time>
            <Position>
              <LatitudeDegrees>-15.39198576472699642181396484375</LatitudeDegrees>
              <LongitudeDegrees>37.0889014564454555511474609375</LongitudeDegrees>
            </Position>
            <AltitudeMeters>1109</AltitudeMeters>
            <DistanceMeters>NAN</DistanceMeters>
          </Trackpoint>
          <Trackpoint>
            <Time>2021-08-03T09:21:31.000Z</Time>
            <Position>
              <LatitudeDegrees>-15.39198509417474269866943359375</LatitudeDegrees>
              <LongitudeDegrees>37.0888994447886943817138671875</LongitudeDegrees>
            </Position>
            <AltitudeMeters>1109</AltitudeMeters>
            <DistanceMeters>NAN</DistanceMeters>
          </Trackpoint>
          <Trackpoint>
            <Time>2021-08-03T09:21:56.000Z</Time>
            <Position>
              <LatitudeDegrees>-15.39198358543217182159423828125</LatitudeDegrees>
              <LongitudeDegrees>37.0888981036841869354248046875</LongitudeDegrees>
            </Position>
            <AltitudeMeters>1109</AltitudeMeters>
            <DistanceMeters>NAN</DistanceMeters>
          </Trackpoint>
          <Trackpoint>
            <Time>2021-08-03T09:22:02.000Z</Time>
            <Position>
              <LatitudeDegrees>-15.3919833339750766754150390625</LatitudeDegrees>
              <LongitudeDegrees>37.088897936046123504638671875</LongitudeDegrees>
            </Position>
            <AltitudeMeters>1109</AltitudeMeters>
            <DistanceMeters>NAN</DistanceMeters>
          </Trackpoint>
          <Trackpoint>
            <Time>2021-08-03T09:22:27.000Z</Time>
            <Position>
              <LatitudeDegrees>-15.391982831060886383056640625</LatitudeDegrees>
              <LongitudeDegrees>37.08889667876064777374267578125</LongitudeDegrees>
            </Position>
            <AltitudeMeters>1109</AltitudeMeters>
            <DistanceMeters>NAN</DistanceMeters>
          </Trackpoint>
          <Trackpoint>
            <Time>2021-08-03T09:22:29.000Z</Time>
            <Position>
              <LatitudeDegrees>-15.391982831060886383056640625</LatitudeDegrees>
              <LongitudeDegrees>37.088896594941616058349609375</LongitudeDegrees>
            </Position>
            <AltitudeMeters>1109</AltitudeMeters>
            <DistanceMeters>NAN</DistanceMeters>
          </Trackpoint>
          <Trackpoint>
            <Time>2021-08-03T09:22:42.000Z</Time>
            <Position>
              <LatitudeDegrees>-15.39198257960379123687744140625</LatitudeDegrees>
              <LongitudeDegrees>37.0888954214751720428466796875</LongitudeDegrees>
            </Position>
            <AltitudeMeters>1109</AltitudeMeters>
            <DistanceMeters>NAN</DistanceMeters>
          </Trackpoint>
          <Trackpoint>
            <Time>2021-08-03T09:22:43.000Z</Time>
            <Position>
              <LatitudeDegrees>-15.39198257960379123687744140625</LatitudeDegrees>
              <LongitudeDegrees>37.08889533765614032745361328125</LongitudeDegrees>
            </Position>
            <AltitudeMeters>1109</AltitudeMeters>
            <DistanceMeters>NAN</DistanceMeters>
          </Trackpoint>
          <Trackpoint>
            <Time>2021-08-03T09:22:49.000Z</Time>
            <Position>
              <LatitudeDegrees>-15.3919823281466960906982421875</LatitudeDegrees>
              <LongitudeDegrees>37.0888947509229183197021484375</LongitudeDegrees>
            </Position>
            <AltitudeMeters>1109</AltitudeMeters>
            <DistanceMeters>NAN</DistanceMeters>
          </Trackpoint>
          <Trackpoint>
            <Time>2021-08-03T09:23:03.000Z</Time>
            <Position>
              <LatitudeDegrees>-15.3919819928705692291259765625</LatitudeDegrees>
              <LongitudeDegrees>37.0888934098184108734130859375</LongitudeDegrees>
            </Position>
            <AltitudeMeters>1109</AltitudeMeters>
            <DistanceMeters>NAN</DistanceMeters>
          </Trackpoint>
          <Trackpoint>
            <Time>2021-08-03T09:23:09.000Z</Time>
            <Position>
              <LatitudeDegrees>-15.39198207668960094451904296875</LatitudeDegrees>
              <LongitudeDegrees>37.08889315836131572723388671875</LongitudeDegrees>
            </Position>
            <AltitudeMeters>1109</AltitudeMeters>
            <DistanceMeters>NAN</DistanceMeters>
          </Trackpoint>
          <Trackpoint>
            <Time>2021-08-03T09:23:16.000Z</Time>
            <Position>
              <LatitudeDegrees>-15.39198224432766437530517578125</LatitudeDegrees>
              <LongitudeDegrees>37.0888930745422840118408203125</LongitudeDegrees>
            </Position>
            <AltitudeMeters>1109</AltitudeMeters>
            <DistanceMeters>NAN</DistanceMeters>
          </Trackpoint>
          <Trackpoint>
            <Time>2021-08-03T09:23:29.000Z</Time>
            <Position>
              <LatitudeDegrees>-15.3919826634228229522705078125</LatitudeDegrees>
              <LongitudeDegrees>37.08889332599937915802001953125</LongitudeDegrees>
            </Position>
            <AltitudeMeters>1109</AltitudeMeters>
            <DistanceMeters>NAN</DistanceMeters>
          </Trackpoint>
          <Trackpoint>
            <Time>2021-08-03T09:23:31.000Z</Time>
            <Position>
              <LatitudeDegrees>-15.39198274724185466766357421875</LatitudeDegrees>
              <LongitudeDegrees>37.0888934098184108734130859375</LongitudeDegrees>
            </Position>
            <AltitudeMeters>1109</AltitudeMeters>
            <DistanceMeters>NAN</DistanceMeters>
          </Trackpoint>
          <Trackpoint>
            <Time>2021-08-03T09:23:35.000Z</Time>
            <Position>
              <LatitudeDegrees>-15.3919829986989498138427734375</LatitudeDegrees>
              <LongitudeDegrees>37.08889357745647430419921875</LongitudeDegrees>
            </Position>
            <AltitudeMeters>1109</AltitudeMeters>
            <DistanceMeters>NAN</DistanceMeters>
          </Trackpoint>
          <Trackpoint>
            <Time>2021-08-03T09:23:38.000Z</Time>
            <Position>
              <LatitudeDegrees>-15.39198316633701324462890625</LatitudeDegrees>
              <LongitudeDegrees>37.08889366127550601959228515625</LongitudeDegrees>
            </Position>
            <AltitudeMeters>1109</AltitudeMeters>
            <DistanceMeters>NAN</DistanceMeters>
          </Trackpoint>
          <Trackpoint>
            <Time>2021-08-03T09:23:49.000Z</Time>
            <Position>
              <LatitudeDegrees>-15.3919838368892669677734375</LatitudeDegrees>
              <LongitudeDegrees>37.0888937450945377349853515625</LongitudeDegrees>
            </Position>
            <AltitudeMeters>1109</AltitudeMeters>
            <DistanceMeters>NAN</DistanceMeters>
          </Trackpoint>
          <Trackpoint>
            <Time>2021-08-03T09:23:55.000Z</Time>
            <Position>
              <LatitudeDegrees>-15.3919840045273303985595703125</LatitudeDegrees>
              <LongitudeDegrees>37.08889366127550601959228515625</LongitudeDegrees>
            </Position>
            <AltitudeMeters>1109</AltitudeMeters>
            <DistanceMeters>NAN</DistanceMeters>
          </Trackpoint>
          <Trackpoint>
            <Time>2021-08-03T09:23:57.000Z</Time>
            <Position>
              <LatitudeDegrees>-15.39198408834636211395263671875</LatitudeDegrees>
              <LongitudeDegrees>37.08889366127550601959228515625</LongitudeDegrees>
            </Position>
            <AltitudeMeters>1109</AltitudeMeters>
            <DistanceMeters>NAN</DistanceMeters>
          </Trackpoint>
          <Trackpoint>
            <Time>2021-08-03T09:23:59.000Z</Time>
            <Position>
              <LatitudeDegrees>-15.39198408834636211395263671875</LatitudeDegrees>
              <LongitudeDegrees>37.08889366127550601959228515625</LongitudeDegrees>
            </Position>
            <AltitudeMeters>1109</AltitudeMeters>
            <DistanceMeters>NAN</DistanceMeters>
          </Trackpoint>
          <Trackpoint>
            <Time>2021-08-03T09:24:08.000Z</Time>
            <Position>
              <LatitudeDegrees>-15.3919843398034572601318359375</LatitudeDegrees>
              <LongitudeDegrees>37.0888937450945377349853515625</LongitudeDegrees>
            </Position>
            <AltitudeMeters>1109</AltitudeMeters>
            <DistanceMeters>NAN</DistanceMeters>
          </Trackpoint>
          <Trackpoint>
            <Time>2021-08-03T09:24:16.000Z</Time>
            <Position>
              <LatitudeDegrees>-15.39198450744152069091796875</LatitudeDegrees>
              <LongitudeDegrees>37.0888937450945377349853515625</LongitudeDegrees>
            </Position>
            <AltitudeMeters>1109</AltitudeMeters>
            <DistanceMeters>NAN</DistanceMeters>
          </Trackpoint>
          <Trackpoint>
            <Time>2021-08-03T09:24:17.000Z</Time>
            <Position>
              <LatitudeDegrees>-15.39198459126055240631103515625</LatitudeDegrees>
              <LongitudeDegrees>37.0888937450945377349853515625</LongitudeDegrees>
            </Position>
            <AltitudeMeters>1109</AltitudeMeters>
            <DistanceMeters>NAN</DistanceMeters>
          </Trackpoint>
          <Trackpoint>
            <Time>2021-08-03T09:24:21.000Z</Time>
            <Position>
              <LatitudeDegrees>-15.3919846750795841217041015625</LatitudeDegrees>
              <LongitudeDegrees>37.0888937450945377349853515625</LongitudeDegrees>
            </Position>
            <AltitudeMeters>1109</AltitudeMeters>
            <DistanceMeters>NAN</DistanceMeters>
          </Trackpoint>
          <Trackpoint>
            <Time>2021-08-03T09:24:29.000Z</Time>
            <Position>
              <LatitudeDegrees>-15.391984842717647552490234375</LatitudeDegrees>
              <LongitudeDegrees>37.0888937450945377349853515625</LongitudeDegrees>
            </Position>
            <AltitudeMeters>1109</AltitudeMeters>
            <DistanceMeters>NAN</DistanceMeters>
          </Trackpoint>
          <Trackpoint>
            <Time>2021-08-03T09:24:42.000Z</Time>
            <Position>
              <LatitudeDegrees>-15.39198492653667926788330078125</LatitudeDegrees>
              <LongitudeDegrees>37.08889349363744258880615234375</LongitudeDegrees>
            </Position>
            <AltitudeMeters>1109</AltitudeMeters>
            <DistanceMeters>NAN</DistanceMeters>
          </Trackpoint>
          <Trackpoint>
            <Time>2021-08-03T09:24:50.000Z</Time>
            <Position>
              <LatitudeDegrees>-15.3919850103557109832763671875</LatitudeDegrees>
              <LongitudeDegrees>37.08889315836131572723388671875</LongitudeDegrees>
            </Position>
            <AltitudeMeters>1109</AltitudeMeters>
            <DistanceMeters>NAN</DistanceMeters>
          </Trackpoint>
          <Trackpoint>
            <Time>2021-08-03T09:24:53.000Z</Time>
            <Position>
              <LatitudeDegrees>-15.3919850103557109832763671875</LatitudeDegrees>
              <LongitudeDegrees>37.0888930745422840118408203125</LongitudeDegrees>
            </Position>
            <AltitudeMeters>1109</AltitudeMeters>
            <DistanceMeters>NAN</DistanceMeters>
          </Trackpoint>
          <Trackpoint>
            <Time>2021-08-03T09:25:18.000Z</Time>
            <Position>
              <LatitudeDegrees>-15.39198526181280612945556640625</LatitudeDegrees>
              <LongitudeDegrees>37.08889181725680828094482421875</LongitudeDegrees>
            </Position>
            <AltitudeMeters>1109</AltitudeMeters>
            <DistanceMeters>NAN</DistanceMeters>
          </Trackpoint>
          <Trackpoint>
            <Time>2021-08-03T09:25:24.000Z</Time>
            <Position>
              <LatitudeDegrees>-15.3919853456318378448486328125</LatitudeDegrees>
              <LongitudeDegrees>37.08889148198068141937255859375</LongitudeDegrees>
            </Position>
            <AltitudeMeters>1109</AltitudeMeters>
            <DistanceMeters>NAN</DistanceMeters>
          </Trackpoint>
          <Trackpoint>
            <Time>2021-08-03T09:25:37.000Z</Time>
            <Position>
              <LatitudeDegrees>-15.39198584854602813720703125</LatitudeDegrees>
              <LongitudeDegrees>37.08889081142842769622802734375</LongitudeDegrees>
            </Position>
            <AltitudeMeters>1109</AltitudeMeters>
            <DistanceMeters>NAN</DistanceMeters>
          </Trackpoint>
          <Trackpoint>
            <Time>2021-08-03T09:25:40.000Z</Time>
            <Position>
              <LatitudeDegrees>-15.39198593236505985260009765625</LatitudeDegrees>
              <LongitudeDegrees>37.0888907276093959808349609375</LongitudeDegrees>
            </Position>
            <AltitudeMeters>1109</AltitudeMeters>
            <DistanceMeters>NAN</DistanceMeters>
          </Trackpoint>
          <Trackpoint>
            <Time>2021-08-03T09:25:46.000Z</Time>
            <Position>
              <LatitudeDegrees>-15.39198610000312328338623046875</LatitudeDegrees>
              <LongitudeDegrees>37.08889047615230083465576171875</LongitudeDegrees>
            </Position>
            <AltitudeMeters>1109</AltitudeMeters>
            <DistanceMeters>NAN</DistanceMeters>
          </Trackpoint>
          <Trackpoint>
            <Time>2021-08-03T09:26:01.000Z</Time>
            <Position>
              <LatitudeDegrees>-15.3919863514602184295654296875</LatitudeDegrees>
              <LongitudeDegrees>37.08888997323811054229736328125</LongitudeDegrees>
            </Position>
            <AltitudeMeters>1109</AltitudeMeters>
            <DistanceMeters>NAN</DistanceMeters>
          </Trackpoint>
          <Trackpoint>
            <Time>2021-08-03T09:26:02.000Z</Time>
            <Position>
              <LatitudeDegrees>-15.3919863514602184295654296875</LatitudeDegrees>
              <LongitudeDegrees>37.088889889419078826904296875</LongitudeDegrees>
            </Position>
            <AltitudeMeters>1109</AltitudeMeters>
            <DistanceMeters>NAN</DistanceMeters>
          </Trackpoint>
          <Trackpoint>
            <Time>2021-08-03T09:26:07.000Z</Time>
            <Position>
              <LatitudeDegrees>-15.391986183822154998779296875</LatitudeDegrees>
              <LongitudeDegrees>37.0888897217810153961181640625</LongitudeDegrees>
            </Position>
            <AltitudeMeters>1109</AltitudeMeters>
            <DistanceMeters>NAN</DistanceMeters>
          </Trackpoint>
          <Trackpoint>
            <Time>2021-08-03T09:26:13.000Z</Time>
            <Position>
              <LatitudeDegrees>-15.39198610000312328338623046875</LatitudeDegrees>
              <LongitudeDegrees>37.08888955414295196533203125</LongitudeDegrees>
            </Position>
            <AltitudeMeters>1109</AltitudeMeters>
            <DistanceMeters>NAN</DistanceMeters>
          </Trackpoint>
          <Trackpoint>
            <Time>2021-08-03T09:26:16.000Z</Time>
            <Position>
              <LatitudeDegrees>-15.3919860161840915679931640625</LatitudeDegrees>
              <LongitudeDegrees>37.08888947032392024993896484375</LongitudeDegrees>
            </Position>
            <AltitudeMeters>1109</AltitudeMeters>
            <DistanceMeters>NAN</DistanceMeters>
          </Trackpoint>
          <Trackpoint>
            <Time>2021-08-03T09:26:52.000Z</Time>
            <Position>
              <LatitudeDegrees>-15.39198584854602813720703125</LatitudeDegrees>
              <LongitudeDegrees>37.08888863213360309600830078125</LongitudeDegrees>
            </Position>
            <AltitudeMeters>1109</AltitudeMeters>
            <DistanceMeters>NAN</DistanceMeters>
          </Trackpoint>
          <Trackpoint>
            <Time>2021-08-03T09:27:07.000Z</Time>
            <Position>
              <LatitudeDegrees>-15.3919863514602184295654296875</LatitudeDegrees>
              <LongitudeDegrees>37.08888896740972995758056640625</LongitudeDegrees>
            </Position>
            <AltitudeMeters>1109</AltitudeMeters>
            <DistanceMeters>NAN</DistanceMeters>
          </Trackpoint>
          <Trackpoint>
            <Time>2021-08-03T09:27:26.000Z</Time>
            <Position>
              <LatitudeDegrees>-15.39198718965053558349609375</LatitudeDegrees>
              <LongitudeDegrees>37.08888963796198368072509765625</LongitudeDegrees>
            </Position>
            <AltitudeMeters>1109</AltitudeMeters>
            <DistanceMeters>NAN</DistanceMeters>
          </Trackpoint>
          <Trackpoint>
            <Time>2021-08-03T09:27:30.000Z</Time>
            <Position>
              <LatitudeDegrees>-15.39198744110763072967529296875</LatitudeDegrees>
              <LongitudeDegrees>37.0888897217810153961181640625</LongitudeDegrees>
            </Position>
            <AltitudeMeters>1109</AltitudeMeters>
            <DistanceMeters>NAN</DistanceMeters>
          </Trackpoint>
          <Trackpoint>
            <Time>2021-08-03T09:27:32.000Z</Time>
            <Position>
              <LatitudeDegrees>-15.391987524926662445068359375</LatitudeDegrees>
              <LongitudeDegrees>37.08888980560004711151123046875</LongitudeDegrees>
            </Position>
            <AltitudeMeters>1109</AltitudeMeters>
            <DistanceMeters>NAN</DistanceMeters>
          </Trackpoint>
          <Trackpoint>
            <Time>2021-08-03T09:27:34.000Z</Time>
            <Position>
              <LatitudeDegrees>-15.39198760874569416046142578125</LatitudeDegrees>
              <LongitudeDegrees>37.088889889419078826904296875</LongitudeDegrees>
            </Position>
            <AltitudeMeters>1109</AltitudeMeters>
            <DistanceMeters>NAN</DistanceMeters>
          </Trackpoint>
          <Trackpoint>
            <Time>2021-08-03T09:27:49.000Z</Time>
            <Position>
              <LatitudeDegrees>-15.3919880278408527374267578125</LatitudeDegrees>
              <LongitudeDegrees>37.08888980560004711151123046875</LongitudeDegrees>
            </Position>
            <AltitudeMeters>1109</AltitudeMeters>
            <DistanceMeters>NAN</DistanceMeters>
          </Trackpoint>
          <Trackpoint>
            <Time>2021-08-03T09:27:52.000Z</Time>
            <Position>
              <LatitudeDegrees>-15.3919880278408527374267578125</LatitudeDegrees>
              <LongitudeDegrees>37.08888980560004711151123046875</LongitudeDegrees>
            </Position>
            <AltitudeMeters>1109</AltitudeMeters>
            <DistanceMeters>NAN</DistanceMeters>
          </Trackpoint>
          <Trackpoint>
            <Time>2021-08-03T09:27:54.000Z</Time>
            <Position>
              <LatitudeDegrees>-15.39198811165988445281982421875</LatitudeDegrees>
              <LongitudeDegrees>37.0888897217810153961181640625</LongitudeDegrees>
            </Position>
            <AltitudeMeters>1109</AltitudeMeters>
            <DistanceMeters>NAN</DistanceMeters>
          </Trackpoint>
          <Trackpoint>
            <Time>2021-08-03T09:27:56.000Z</Time>
            <Position>
              <LatitudeDegrees>-15.39198811165988445281982421875</LatitudeDegrees>
              <LongitudeDegrees>37.0888897217810153961181640625</LongitudeDegrees>
            </Position>
            <AltitudeMeters>1109</AltitudeMeters>
            <DistanceMeters>NAN</DistanceMeters>
          </Trackpoint>
          <Trackpoint>
            <Time>2021-08-03T09:27:59.000Z</Time>
            <Position>
              <LatitudeDegrees>-15.391988195478916168212890625</LatitudeDegrees>
              <LongitudeDegrees>37.08888963796198368072509765625</LongitudeDegrees>
            </Position>
            <AltitudeMeters>1109</AltitudeMeters>
            <DistanceMeters>NAN</DistanceMeters>
          </Trackpoint>
          <Trackpoint>
            <Time>2021-08-03T09:28:02.000Z</Time>
            <Position>
              <LatitudeDegrees>-15.391988195478916168212890625</LatitudeDegrees>
              <LongitudeDegrees>37.08888963796198368072509765625</LongitudeDegrees>
            </Position>
            <AltitudeMeters>1109</AltitudeMeters>
            <DistanceMeters>NAN</DistanceMeters>
          </Trackpoint>
          <Trackpoint>
            <Time>2021-08-03T09:28:08.000Z</Time>
            <Position>
              <LatitudeDegrees>-15.39198827929794788360595703125</LatitudeDegrees>
              <LongitudeDegrees>37.08888947032392024993896484375</LongitudeDegrees>
            </Position>
            <AltitudeMeters>1109</AltitudeMeters>
            <DistanceMeters>NAN</DistanceMeters>
          </Trackpoint>
          <Trackpoint>
            <Time>2021-08-03T09:28:14.000Z</Time>
            <Position>
              <LatitudeDegrees>-15.39198844693601131439208984375</LatitudeDegrees>
              <LongitudeDegrees>37.0888893865048885345458984375</LongitudeDegrees>
            </Position>
            <AltitudeMeters>1109</AltitudeMeters>
            <DistanceMeters>NAN</DistanceMeters>
          </Trackpoint>
          <Trackpoint>
            <Time>2021-08-03T09:28:44.000Z</Time>
            <Position>
              <LatitudeDegrees>-15.39198911748826503753662109375</LatitudeDegrees>
              <LongitudeDegrees>37.08888829685747623443603515625</LongitudeDegrees>
            </Position>
            <AltitudeMeters>1109</AltitudeMeters>
            <DistanceMeters>NAN</DistanceMeters>
          </Trackpoint>
          <Trackpoint>
            <Time>2021-08-03T09:28:57.000Z</Time>
            <Position>
              <LatitudeDegrees>-15.39198928512632846832275390625</LatitudeDegrees>
              <LongitudeDegrees>37.088887877762317657470703125</LongitudeDegrees>
            </Position>
            <AltitudeMeters>1109</AltitudeMeters>
            <DistanceMeters>NAN</DistanceMeters>
          </Trackpoint>
          <Trackpoint>
            <Time>2021-08-03T09:28:58.000Z</Time>
            <Position>
              <LatitudeDegrees>-15.39198928512632846832275390625</LatitudeDegrees>
              <LongitudeDegrees>37.08888779394328594207763671875</LongitudeDegrees>
            </Position>
            <AltitudeMeters>1109</AltitudeMeters>
            <DistanceMeters>NAN</DistanceMeters>
          </Trackpoint>
          <Trackpoint>
            <Time>2021-08-03T09:29:00.000Z</Time>
            <Position>
              <LatitudeDegrees>-15.39198928512632846832275390625</LatitudeDegrees>
              <LongitudeDegrees>37.08888779394328594207763671875</LongitudeDegrees>
            </Position>
            <AltitudeMeters>1109</AltitudeMeters>
            <DistanceMeters>NAN</DistanceMeters>
          </Trackpoint>
          <Trackpoint>
            <Time>2021-08-03T09:29:02.000Z</Time>
            <Position>
              <LatitudeDegrees>-15.3919893689453601837158203125</LatitudeDegrees>
              <LongitudeDegrees>37.0888877101242542266845703125</LongitudeDegrees>
            </Position>
            <AltitudeMeters>1109</AltitudeMeters>
            <DistanceMeters>NAN</DistanceMeters>
          </Trackpoint>
          <Trackpoint>
            <Time>2021-08-03T09:29:06.000Z</Time>
            <Position>
              <LatitudeDegrees>-15.3919893689453601837158203125</LatitudeDegrees>
              <LongitudeDegrees>37.0888875424861907958984375</LongitudeDegrees>
            </Position>
            <AltitudeMeters>1109</AltitudeMeters>
            <DistanceMeters>NAN</DistanceMeters>
          </Trackpoint>
          <Trackpoint>
            <Time>2021-08-03T09:29:18.000Z</Time>
            <Position>
              <LatitudeDegrees>-15.391989536583423614501953125</LatitudeDegrees>
              <LongitudeDegrees>37.08888712339103221893310546875</LongitudeDegrees>
            </Position>
            <AltitudeMeters>1109</AltitudeMeters>
            <DistanceMeters>NAN</DistanceMeters>
          </Trackpoint>
          <Trackpoint>
            <Time>2021-08-03T09:29:21.000Z</Time>
            <Position>
              <LatitudeDegrees>-15.39198962040245532989501953125</LatitudeDegrees>
              <LongitudeDegrees>37.08888712339103221893310546875</LongitudeDegrees>
            </Position>
            <AltitudeMeters>1109</AltitudeMeters>
            <DistanceMeters>NAN</DistanceMeters>
          </Trackpoint>
          <Trackpoint>
            <Time>2021-08-03T09:29:30.000Z</Time>
            <Position>
              <LatitudeDegrees>-15.3919900394976139068603515625</LatitudeDegrees>
              <LongitudeDegrees>37.08888729102909564971923828125</LongitudeDegrees>
            </Position>
            <AltitudeMeters>1109</AltitudeMeters>
            <DistanceMeters>NAN</DistanceMeters>
          </Trackpoint>
          <Trackpoint>
            <Time>2021-08-03T09:29:56.000Z</Time>
            <Position>
              <LatitudeDegrees>-15.391989536583423614501953125</LatitudeDegrees>
              <LongitudeDegrees>37.08888712339103221893310546875</LongitudeDegrees>
            </Position>
            <AltitudeMeters>1109</AltitudeMeters>
            <DistanceMeters>NAN</DistanceMeters>
          </Trackpoint>
          <Trackpoint>
            <Time>2021-08-03T09:30:01.000Z</Time>
            <Position>
              <LatitudeDegrees>-15.39198911748826503753662109375</LatitudeDegrees>
              <LongitudeDegrees>37.08888695575296878814697265625</LongitudeDegrees>
            </Position>
            <AltitudeMeters>1109</AltitudeMeters>
            <DistanceMeters>NAN</DistanceMeters>
          </Trackpoint>
          <Trackpoint>
            <Time>2021-08-03T09:30:08.000Z</Time>
            <Position>
              <LatitudeDegrees>-15.391988866031169891357421875</LatitudeDegrees>
              <LongitudeDegrees>37.08888678811490535736083984375</LongitudeDegrees>
            </Position>
            <AltitudeMeters>1109</AltitudeMeters>
            <DistanceMeters>NAN</DistanceMeters>
          </Trackpoint>
          <Trackpoint>
            <Time>2021-08-03T09:30:34.000Z</Time>
            <Position>
              <LatitudeDegrees>-15.39198928512632846832275390625</LatitudeDegrees>
              <LongitudeDegrees>37.08888662047684192657470703125</LongitudeDegrees>
            </Position>
            <AltitudeMeters>1109</AltitudeMeters>
            <DistanceMeters>NAN</DistanceMeters>
          </Trackpoint>
          <Trackpoint>
            <Time>2021-08-03T09:30:38.000Z</Time>
            <Position>
              <LatitudeDegrees>-15.3919893689453601837158203125</LatitudeDegrees>
              <LongitudeDegrees>37.0888867042958736419677734375</LongitudeDegrees>
            </Position>
            <AltitudeMeters>1109</AltitudeMeters>
            <DistanceMeters>NAN</DistanceMeters>
          </Trackpoint>
          <Trackpoint>
            <Time>2021-08-03T09:30:56.000Z</Time>
            <Position>
              <LatitudeDegrees>-15.39198978804051876068115234375</LatitudeDegrees>
              <LongitudeDegrees>37.08888662047684192657470703125</LongitudeDegrees>
            </Position>
            <AltitudeMeters>1109</AltitudeMeters>
            <DistanceMeters>NAN</DistanceMeters>
          </Trackpoint>
          <Trackpoint>
            <Time>2021-08-03T09:31:00.000Z</Time>
            <Position>
              <LatitudeDegrees>-15.39198987185955047607421875</LatitudeDegrees>
              <LongitudeDegrees>37.088886536657810211181640625</LongitudeDegrees>
            </Position>
            <AltitudeMeters>1109</AltitudeMeters>
            <DistanceMeters>NAN</DistanceMeters>
          </Trackpoint>
          <Trackpoint>
            <Time>2021-08-03T09:31:06.000Z</Time>
            <Position>
              <LatitudeDegrees>-15.3919900394976139068603515625</LatitudeDegrees>
              <LongitudeDegrees>37.08888645283877849578857421875</LongitudeDegrees>
            </Position>
            <AltitudeMeters>1109</AltitudeMeters>
            <DistanceMeters>NAN</DistanceMeters>
          </Trackpoint>
          <Trackpoint>
            <Time>2021-08-03T09:31:27.000Z</Time>
            <Position>
              <LatitudeDegrees>-15.39199062623083591461181640625</LatitudeDegrees>
              <LongitudeDegrees>37.08888628520071506500244140625</LongitudeDegrees>
            </Position>
            <AltitudeMeters>1109</AltitudeMeters>
            <DistanceMeters>NAN</DistanceMeters>
          </Trackpoint>
          <Trackpoint>
            <Time>2021-08-03T09:31:36.000Z</Time>
            <Position>
              <LatitudeDegrees>-15.39199062623083591461181640625</LatitudeDegrees>
              <LongitudeDegrees>37.08888611756265163421630859375</LongitudeDegrees>
            </Position>
            <AltitudeMeters>1109</AltitudeMeters>
            <DistanceMeters>NAN</DistanceMeters>
          </Trackpoint>
          <Trackpoint>
            <Time>2021-08-03T09:31:40.000Z</Time>
            <Position>
              <LatitudeDegrees>-15.3919907100498676300048828125</LatitudeDegrees>
              <LongitudeDegrees>37.08888594992458820343017578125</LongitudeDegrees>
            </Position>
            <AltitudeMeters>1109</AltitudeMeters>
            <DistanceMeters>NAN</DistanceMeters>
          </Trackpoint>
          <Trackpoint>
            <Time>2021-08-03T09:31:58.000Z</Time>
            <Position>
              <LatitudeDegrees>-15.391990877687931060791015625</LatitudeDegrees>
              <LongitudeDegrees>37.08888553082942962646484375</LongitudeDegrees>
            </Position>
            <AltitudeMeters>1109</AltitudeMeters>
            <DistanceMeters>NAN</DistanceMeters>
          </Trackpoint>
          <Trackpoint>
            <Time>2021-08-03T09:32:02.000Z</Time>
            <Position>
              <LatitudeDegrees>-15.39199096150696277618408203125</LatitudeDegrees>
              <LongitudeDegrees>37.0888853631913661956787109375</LongitudeDegrees>
            </Position>
            <AltitudeMeters>1109</AltitudeMeters>
            <DistanceMeters>NAN</DistanceMeters>
          </Trackpoint>
          <Trackpoint>
            <Time>2021-08-03T09:32:06.000Z</Time>
            <Position>
              <LatitudeDegrees>-15.3919910453259944915771484375</LatitudeDegrees>
              <LongitudeDegrees>37.08888527937233448028564453125</LongitudeDegrees>
            </Position>
            <AltitudeMeters>1109</AltitudeMeters>
            <DistanceMeters>NAN</DistanceMeters>
          </Trackpoint>
          <Trackpoint>
            <Time>2021-08-03T09:33:09.000Z</Time>
            <Position>
              <LatitudeDegrees>-15.3919910453259944915771484375</LatitudeDegrees>
              <LongitudeDegrees>37.08888326771557331085205078125</LongitudeDegrees>
            </Position>
            <AltitudeMeters>1109</AltitudeMeters>
            <DistanceMeters>NAN</DistanceMeters>
          </Trackpoint>
          <Trackpoint>
            <Time>2021-08-03T09:33:12.000Z</Time>
            <Position>
              <LatitudeDegrees>-15.39199096150696277618408203125</LatitudeDegrees>
              <LongitudeDegrees>37.08888343535363674163818359375</LongitudeDegrees>
            </Position>
            <AltitudeMeters>1109</AltitudeMeters>
            <DistanceMeters>NAN</DistanceMeters>
          </Trackpoint>
          <Trackpoint>
            <Time>2021-08-03T09:33:24.000Z</Time>
            <Position>
              <LatitudeDegrees>-15.3919903747737407684326171875</LatitudeDegrees>
              <LongitudeDegrees>37.0888843573629856109619140625</LongitudeDegrees>
            </Position>
            <AltitudeMeters>1109</AltitudeMeters>
            <DistanceMeters>NAN</DistanceMeters>
          </Trackpoint>
          <Trackpoint>
            <Time>2021-08-03T09:33:29.000Z</Time>
            <Position>
              <LatitudeDegrees>-15.391990207135677337646484375</LatitudeDegrees>
              <LongitudeDegrees>37.08888477645814418792724609375</LongitudeDegrees>
            </Position>
            <AltitudeMeters>1109</AltitudeMeters>
            <DistanceMeters>NAN</DistanceMeters>
          </Trackpoint>
          <Trackpoint>
            <Time>2021-08-03T09:33:32.000Z</Time>
            <Position>
              <LatitudeDegrees>-15.39199012331664562225341796875</LatitudeDegrees>
              <LongitudeDegrees>37.0888850279152393341064453125</LongitudeDegrees>
            </Position>
            <AltitudeMeters>1109</AltitudeMeters>
            <DistanceMeters>NAN</DistanceMeters>
          </Trackpoint>
          <Trackpoint>
            <Time>2021-08-03T09:33:38.000Z</Time>
            <Position>
              <LatitudeDegrees>-15.39198987185955047607421875</LatitudeDegrees>
              <LongitudeDegrees>37.0888853631913661956787109375</LongitudeDegrees>
            </Position>
            <AltitudeMeters>1109</AltitudeMeters>
            <DistanceMeters>NAN</DistanceMeters>
          </Trackpoint>
          <Trackpoint>
            <Time>2021-08-03T09:33:43.000Z</Time>
            <Position>
              <LatitudeDegrees>-15.39198962040245532989501953125</LatitudeDegrees>
              <LongitudeDegrees>37.08888553082942962646484375</LongitudeDegrees>
            </Position>
            <AltitudeMeters>1109</AltitudeMeters>
            <DistanceMeters>NAN</DistanceMeters>
          </Trackpoint>
          <Trackpoint>
            <Time>2021-08-03T09:33:51.000Z</Time>
            <Position>
              <LatitudeDegrees>-15.39198928512632846832275390625</LatitudeDegrees>
              <LongitudeDegrees>37.088885866105556488037109375</LongitudeDegrees>
            </Position>
            <AltitudeMeters>1109</AltitudeMeters>
            <DistanceMeters>NAN</DistanceMeters>
          </Trackpoint>
          <Trackpoint>
            <Time>2021-08-03T09:33:57.000Z</Time>
            <Position>
              <LatitudeDegrees>-15.39198911748826503753662109375</LatitudeDegrees>
              <LongitudeDegrees>37.08888611756265163421630859375</LongitudeDegrees>
            </Position>
            <AltitudeMeters>1109</AltitudeMeters>
            <DistanceMeters>NAN</DistanceMeters>
          </Trackpoint>
          <Trackpoint>
            <Time>2021-08-03T09:34:17.000Z</Time>
            <Position>
              <LatitudeDegrees>-15.39198878221213817596435546875</LatitudeDegrees>
              <LongitudeDegrees>37.0888870395720005035400390625</LongitudeDegrees>
            </Position>
            <AltitudeMeters>1109</AltitudeMeters>
            <DistanceMeters>NAN</DistanceMeters>
          </Trackpoint>
          <Trackpoint>
            <Time>2021-08-03T09:34:36.000Z</Time>
            <Position>
              <LatitudeDegrees>-15.39198827929794788360595703125</LatitudeDegrees>
              <LongitudeDegrees>37.08888779394328594207763671875</LongitudeDegrees>
            </Position>
            <AltitudeMeters>1109</AltitudeMeters>
            <DistanceMeters>NAN</DistanceMeters>
          </Trackpoint>
          <Trackpoint>
            <Time>2021-08-03T09:34:38.000Z</Time>
            <Position>
              <LatitudeDegrees>-15.391988195478916168212890625</LatitudeDegrees>
              <LongitudeDegrees>37.088887877762317657470703125</LongitudeDegrees>
            </Position>
            <AltitudeMeters>1109</AltitudeMeters>
            <DistanceMeters>NAN</DistanceMeters>
          </Trackpoint>
          <Trackpoint>
            <Time>2021-08-03T09:34:48.000Z</Time>
            <Position>
              <LatitudeDegrees>-15.391987860202789306640625</LatitudeDegrees>
              <LongitudeDegrees>37.08888829685747623443603515625</LongitudeDegrees>
            </Position>
            <AltitudeMeters>1109</AltitudeMeters>
            <DistanceMeters>NAN</DistanceMeters>
          </Trackpoint>
          <Trackpoint>
            <Time>2021-08-03T09:34:52.000Z</Time>
            <Position>
              <LatitudeDegrees>-15.391987860202789306640625</LatitudeDegrees>
              <LongitudeDegrees>37.08888846449553966522216796875</LongitudeDegrees>
            </Position>
            <AltitudeMeters>1109</AltitudeMeters>
            <DistanceMeters>NAN</DistanceMeters>
          </Trackpoint>
          <Trackpoint>
            <Time>2021-08-03T09:34:57.000Z</Time>
            <Position>
              <LatitudeDegrees>-15.3919876925647258758544921875</LatitudeDegrees>
              <LongitudeDegrees>37.0888887159526348114013671875</LongitudeDegrees>
            </Position>
            <AltitudeMeters>1109</AltitudeMeters>
            <DistanceMeters>NAN</DistanceMeters>
          </Trackpoint>
          <Trackpoint>
            <Time>2021-08-03T09:35:01.000Z</Time>
            <Position>
              <LatitudeDegrees>-15.391987524926662445068359375</LatitudeDegrees>
              <LongitudeDegrees>37.0888888835906982421875</LongitudeDegrees>
            </Position>
            <AltitudeMeters>1109</AltitudeMeters>
            <DistanceMeters>NAN</DistanceMeters>
          </Trackpoint>
          <Trackpoint>
            <Time>2021-08-03T09:35:02.000Z</Time>
            <Position>
              <LatitudeDegrees>-15.391987524926662445068359375</LatitudeDegrees>
              <LongitudeDegrees>37.0888888835906982421875</LongitudeDegrees>
            </Position>
            <AltitudeMeters>1109</AltitudeMeters>
            <DistanceMeters>NAN</DistanceMeters>
          </Trackpoint>
          <Trackpoint>
            <Time>2021-08-03T09:35:08.000Z</Time>
            <Position>
              <LatitudeDegrees>-15.3919873572885990142822265625</LatitudeDegrees>
              <LongitudeDegrees>37.08888913504779338836669921875</LongitudeDegrees>
            </Position>
            <AltitudeMeters>1109</AltitudeMeters>
            <DistanceMeters>NAN</DistanceMeters>
          </Trackpoint>
          <Trackpoint>
            <Time>2021-08-03T09:35:28.000Z</Time>
            <Position>
              <LatitudeDegrees>-15.39198677055537700653076171875</LatitudeDegrees>
              <LongitudeDegrees>37.0888893865048885345458984375</LongitudeDegrees>
            </Position>
            <AltitudeMeters>1109</AltitudeMeters>
            <DistanceMeters>NAN</DistanceMeters>
          </Trackpoint>
          <Trackpoint>
            <Time>2021-08-03T09:35:50.000Z</Time>
            <Position>
              <LatitudeDegrees>-15.3919863514602184295654296875</LatitudeDegrees>
              <LongitudeDegrees>37.088889889419078826904296875</LongitudeDegrees>
            </Position>
            <AltitudeMeters>1109</AltitudeMeters>
            <DistanceMeters>NAN</DistanceMeters>
          </Trackpoint>
          <Trackpoint>
            <Time>2021-08-03T09:36:08.000Z</Time>
            <Position>
              <LatitudeDegrees>-15.39198610000312328338623046875</LatitudeDegrees>
              <LongitudeDegrees>37.088890559971332550048828125</LongitudeDegrees>
            </Position>
            <AltitudeMeters>1109</AltitudeMeters>
            <DistanceMeters>NAN</DistanceMeters>
          </Trackpoint>
          <Trackpoint>
            <Time>2021-08-03T09:36:15.000Z</Time>
            <Position>
              <LatitudeDegrees>-15.3919860161840915679931640625</LatitudeDegrees>
              <LongitudeDegrees>37.08889089524745941162109375</LongitudeDegrees>
            </Position>
            <AltitudeMeters>1109</AltitudeMeters>
            <DistanceMeters>NAN</DistanceMeters>
          </Trackpoint>
          <Trackpoint>
            <Time>2021-08-03T09:36:19.000Z</Time>
            <Position>
              <LatitudeDegrees>-15.39198593236505985260009765625</LatitudeDegrees>
              <LongitudeDegrees>37.0888910628855228424072265625</LongitudeDegrees>
            </Position>
            <AltitudeMeters>1109</AltitudeMeters>
            <DistanceMeters>NAN</DistanceMeters>
          </Trackpoint>
          <Trackpoint>
            <Time>2021-08-03T09:36:49.000Z</Time>
            <Position>
              <LatitudeDegrees>-15.39198526181280612945556640625</LatitudeDegrees>
              <LongitudeDegrees>37.0888924039900302886962890625</LongitudeDegrees>
            </Position>
            <AltitudeMeters>1109</AltitudeMeters>
            <DistanceMeters>NAN</DistanceMeters>
          </Trackpoint>
          <Trackpoint>
            <Time>2021-08-03T09:37:03.000Z</Time>
            <Position>
              <LatitudeDegrees>-15.391984842717647552490234375</LatitudeDegrees>
              <LongitudeDegrees>37.0888934098184108734130859375</LongitudeDegrees>
            </Position>
            <AltitudeMeters>1109</AltitudeMeters>
            <DistanceMeters>NAN</DistanceMeters>
          </Trackpoint>
          <Trackpoint>
            <Time>2021-08-03T09:37:07.000Z</Time>
            <Position>
              <LatitudeDegrees>-15.3919846750795841217041015625</LatitudeDegrees>
              <LongitudeDegrees>37.0888937450945377349853515625</LongitudeDegrees>
            </Position>
            <AltitudeMeters>1109</AltitudeMeters>
            <DistanceMeters>NAN</DistanceMeters>
          </Trackpoint>
          <Trackpoint>
            <Time>2021-08-03T09:37:35.000Z</Time>
            <Position>
              <LatitudeDegrees>-15.391982831060886383056640625</LatitudeDegrees>
              <LongitudeDegrees>37.088895924389362335205078125</LongitudeDegrees>
            </Position>
            <AltitudeMeters>1109</AltitudeMeters>
            <DistanceMeters>NAN</DistanceMeters>
          </Trackpoint>
          <Trackpoint>
            <Time>2021-08-03T09:37:51.000Z</Time>
            <Position>
              <LatitudeDegrees>-15.39198257960379123687744140625</LatitudeDegrees>
              <LongitudeDegrees>37.08889651112258434295654296875</LongitudeDegrees>
            </Position>
            <AltitudeMeters>1109</AltitudeMeters>
            <DistanceMeters>NAN</DistanceMeters>
          </Trackpoint>
          <Trackpoint>
            <Time>2021-08-03T09:37:54.000Z</Time>
            <Position>
              <LatitudeDegrees>-15.39198257960379123687744140625</LatitudeDegrees>
              <LongitudeDegrees>37.088896594941616058349609375</LongitudeDegrees>
            </Position>
            <AltitudeMeters>1109</AltitudeMeters>
            <DistanceMeters>NAN</DistanceMeters>
          </Trackpoint>
          <Trackpoint>
            <Time>2021-08-03T09:37:59.000Z</Time>
            <Position>
              <LatitudeDegrees>-15.39198257960379123687744140625</LatitudeDegrees>
              <LongitudeDegrees>37.08889667876064777374267578125</LongitudeDegrees>
            </Position>
            <AltitudeMeters>1109</AltitudeMeters>
            <DistanceMeters>NAN</DistanceMeters>
          </Trackpoint>
          <Trackpoint>
            <Time>2021-08-03T09:38:17.000Z</Time>
            <Position>
              <LatitudeDegrees>-15.39198358543217182159423828125</LatitudeDegrees>
              <LongitudeDegrees>37.088896930217742919921875</LongitudeDegrees>
            </Position>
            <AltitudeMeters>1109</AltitudeMeters>
            <DistanceMeters>NAN</DistanceMeters>
          </Trackpoint>
          <Trackpoint>
            <Time>2021-08-03T09:38:23.000Z</Time>
            <Position>
              <LatitudeDegrees>-15.39198408834636211395263671875</LatitudeDegrees>
              <LongitudeDegrees>37.088896930217742919921875</LongitudeDegrees>
            </Position>
            <AltitudeMeters>1109</AltitudeMeters>
            <DistanceMeters>NAN</DistanceMeters>
          </Trackpoint>
          <Trackpoint>
            <Time>2021-08-03T09:38:32.000Z</Time>
            <Position>
              <LatitudeDegrees>-15.39199096150696277618408203125</LatitudeDegrees>
              <LongitudeDegrees>37.08884756080806255340576171875</LongitudeDegrees>
            </Position>
            <AltitudeMeters>1109</AltitudeMeters>
            <DistanceMeters>NAN</DistanceMeters>
          </Trackpoint>
          <Trackpoint>
            <Time>2021-08-03T09:38:33.000Z</Time>
            <Position>
              <LatitudeDegrees>-15.39199381135404109954833984375</LatitudeDegrees>
              <LongitudeDegrees>37.088827528059482574462890625</LongitudeDegrees>
            </Position>
            <AltitudeMeters>1111.5999755859375</AltitudeMeters>
            <DistanceMeters>NAN</DistanceMeters>
          </Trackpoint>
          <Trackpoint>
            <Time>2021-08-03T09:38:35.000Z</Time>
            <Position>
              <LatitudeDegrees>-15.39200789295136928558349609375</LatitudeDegrees>
              <LongitudeDegrees>37.0887936651706695556640625</LongitudeDegrees>
            </Position>
            <AltitudeMeters>1111.5999755859375</AltitudeMeters>
            <DistanceMeters>NAN</DistanceMeters>
          </Trackpoint>
          <Trackpoint>
            <Time>2021-08-03T09:38:38.000Z</Time>
            <Position>
              <LatitudeDegrees>-15.3920373134315013885498046875</LatitudeDegrees>
              <LongitudeDegrees>37.0887388475239276885986328125</LongitudeDegrees>
            </Position>
            <AltitudeMeters>1111.800048828125</AltitudeMeters>
            <DistanceMeters>NAN</DistanceMeters>
          </Trackpoint>
          <Trackpoint>
            <Time>2021-08-03T09:38:43.000Z</Time>
            <Position>
              <LatitudeDegrees>-15.3920750319957733154296875</LatitudeDegrees>
              <LongitudeDegrees>37.08872728049755096435546875</LongitudeDegrees>
            </Position>
            <AltitudeMeters>1112.800048828125</AltitudeMeters>
            <DistanceMeters>NAN</DistanceMeters>
          </Trackpoint>
          <Trackpoint>
            <Time>2021-08-03T09:38:47.000Z</Time>
            <Position>
              <LatitudeDegrees>-15.39210931397974491119384765625</LatitudeDegrees>
              <LongitudeDegrees>37.08872451446950435638427734375</LongitudeDegrees>
            </Position>
            <AltitudeMeters>1113.199951171875</AltitudeMeters>
            <DistanceMeters>NAN</DistanceMeters>
          </Trackpoint>
          <Trackpoint>
            <Time>2021-08-03T09:38:49.000Z</Time>
            <Position>
              <LatitudeDegrees>-15.39213110692799091339111328125</LatitudeDegrees>
              <LongitudeDegrees>37.08872552029788494110107421875</LongitudeDegrees>
            </Position>
            <AltitudeMeters>1113.800048828125</AltitudeMeters>
            <DistanceMeters>NAN</DistanceMeters>
          </Trackpoint>
          <Trackpoint>
            <Time>2021-08-03T09:38:51.000Z</Time>
            <Position>
              <LatitudeDegrees>-15.3921509720385074615478515625</LatitudeDegrees>
              <LongitudeDegrees>37.0887220837175846099853515625</LongitudeDegrees>
            </Position>
            <AltitudeMeters>1114</AltitudeMeters>
            <DistanceMeters>NAN</DistanceMeters>
          </Trackpoint>
          <Trackpoint>
            <Time>2021-08-03T09:38:52.000Z</Time>
            <Position>
              <LatitudeDegrees>-15.39215994067490100860595703125</LatitudeDegrees>
              <LongitudeDegrees>37.0887212455272674560546875</LongitudeDegrees>
            </Position>
            <AltitudeMeters>1114.4000244140625</AltitudeMeters>
            <DistanceMeters>NAN</DistanceMeters>
          </Trackpoint>
          <Trackpoint>
            <Time>2021-08-03T09:38:53.000Z</Time>
            <Position>
              <LatitudeDegrees>-15.392169915139675140380859375</LatitudeDegrees>
              <LongitudeDegrees>37.08871948532760143280029296875</LongitudeDegrees>
            </Position>
            <AltitudeMeters>1114.5999755859375</AltitudeMeters>
            <DistanceMeters>NAN</DistanceMeters>
          </Trackpoint>
          <Trackpoint>
            <Time>2021-08-03T09:38:56.000Z</Time>
            <Position>
              <LatitudeDegrees>-15.39219900034368038177490234375</LatitudeDegrees>
              <LongitudeDegrees>37.08870791830122470855712890625</LongitudeDegrees>
            </Position>
            <AltitudeMeters>1114.800048828125</AltitudeMeters>
            <DistanceMeters>NAN</DistanceMeters>
          </Trackpoint>
          <Trackpoint>
            <Time>2021-08-03T09:38:58.000Z</Time>
            <Position>
              <LatitudeDegrees>-15.392218530178070068359375</LatitudeDegrees>
              <LongitudeDegrees>37.08869333378970623016357421875</LongitudeDegrees>
            </Position>
            <AltitudeMeters>1115</AltitudeMeters>
            <DistanceMeters>NAN</DistanceMeters>
          </Trackpoint>
          <Trackpoint>
            <Time>2021-08-03T09:38:59.000Z</Time>
            <Position>
              <LatitudeDegrees>-15.39222582243382930755615234375</LatitudeDegrees>
              <LongitudeDegrees>37.08868503570556640625</LongitudeDegrees>
            </Position>
            <AltitudeMeters>1115</AltitudeMeters>
            <DistanceMeters>NAN</DistanceMeters>
          </Trackpoint>
          <Trackpoint>
            <Time>2021-08-03T09:39:01.000Z</Time>
            <Position>
              <LatitudeDegrees>-15.39224090985953807830810546875</LatitudeDegrees>
              <LongitudeDegrees>37.0886654220521450042724609375</LongitudeDegrees>
            </Position>
            <AltitudeMeters>1115.199951171875</AltitudeMeters>
            <DistanceMeters>NAN</DistanceMeters>
          </Trackpoint>
          <Trackpoint>
            <Time>2021-08-03T09:39:03.000Z</Time>
            <Position>
              <LatitudeDegrees>-15.3922547399997711181640625</LatitudeDegrees>
              <LongitudeDegrees>37.088649161159992218017578125</LongitudeDegrees>
            </Position>
            <AltitudeMeters>1115.5999755859375</AltitudeMeters>
            <DistanceMeters>NAN</DistanceMeters>
          </Trackpoint>
          <Trackpoint>
            <Time>2021-08-03T09:39:05.000Z</Time>
            <Position>
              <LatitudeDegrees>-15.39227016270160675048828125</LatitudeDegrees>
              <LongitudeDegrees>37.08863700740039348602294921875</LongitudeDegrees>
            </Position>
            <AltitudeMeters>1116.199951171875</AltitudeMeters>
            <DistanceMeters>NAN</DistanceMeters>
          </Trackpoint>
          <Trackpoint>
            <Time>2021-08-03T09:39:08.000Z</Time>
            <Position>
              <LatitudeDegrees>-15.39228701032698154449462890625</LatitudeDegrees>
              <LongitudeDegrees>37.08861169405281543731689453125</LongitudeDegrees>
            </Position>
            <AltitudeMeters>1116.4000244140625</AltitudeMeters>
            <DistanceMeters>NAN</DistanceMeters>
          </Trackpoint>
          <Trackpoint>
            <Time>2021-08-03T09:39:09.000Z</Time>
            <Position>
              <LatitudeDegrees>-15.3922931291162967681884765625</LatitudeDegrees>
              <LongitudeDegrees>37.08860498853027820587158203125</LongitudeDegrees>
            </Position>
            <AltitudeMeters>1116.4000244140625</AltitudeMeters>
            <DistanceMeters>NAN</DistanceMeters>
          </Trackpoint>
          <Trackpoint>
            <Time>2021-08-03T09:39:10.000Z</Time>
            <Position>
              <LatitudeDegrees>-15.39229824207723140716552734375</LatitudeDegrees>
              <LongitudeDegrees>37.08860213868319988250732421875</LongitudeDegrees>
            </Position>
            <AltitudeMeters>1116.5999755859375</AltitudeMeters>
            <DistanceMeters>NAN</DistanceMeters>
          </Trackpoint>
          <Trackpoint>
            <Time>2021-08-03T09:39:13.000Z</Time>
            <Position>
              <LatitudeDegrees>-15.3923165984451770782470703125</LatitudeDegrees>
              <LongitudeDegrees>37.0885993726551532745361328125</LongitudeDegrees>
            </Position>
            <AltitudeMeters>1117.4000244140625</AltitudeMeters>
            <DistanceMeters>NAN</DistanceMeters>
          </Trackpoint>
          <Trackpoint>
            <Time>2021-08-03T09:39:17.000Z</Time>
            <Position>
              <LatitudeDegrees>-15.39235037751495838165283203125</LatitudeDegrees>
              <LongitudeDegrees>37.08859073929488658905029296875</LongitudeDegrees>
            </Position>
            <AltitudeMeters>1118.4000244140625</AltitudeMeters>
            <DistanceMeters>NAN</DistanceMeters>
          </Trackpoint>
          <Trackpoint>
            <Time>2021-08-03T09:39:20.000Z</Time>
            <Position>
              <LatitudeDegrees>-15.3923689015209674835205078125</LatitudeDegrees>
              <LongitudeDegrees>37.08858353085815906524658203125</LongitudeDegrees>
            </Position>
            <AltitudeMeters>1118.4000244140625</AltitudeMeters>
            <DistanceMeters>NAN</DistanceMeters>
          </Trackpoint>
          <Trackpoint>
            <Time>2021-08-03T09:39:25.000Z</Time>
            <Position>
              <LatitudeDegrees>-15.39241072721779346466064453125</LatitudeDegrees>
              <LongitudeDegrees>37.0885898172855377197265625</LongitudeDegrees>
            </Position>
            <AltitudeMeters>1119.4000244140625</AltitudeMeters>
            <DistanceMeters>NAN</DistanceMeters>
          </Trackpoint>
          <Trackpoint>
            <Time>2021-08-03T09:39:30.000Z</Time>
            <Position>
              <LatitudeDegrees>-15.39244559593498706817626953125</LatitudeDegrees>
              <LongitudeDegrees>37.0886003784835338592529296875</LongitudeDegrees>
            </Position>
            <AltitudeMeters>1120.199951171875</AltitudeMeters>
            <DistanceMeters>NAN</DistanceMeters>
          </Trackpoint>
          <Trackpoint>
            <Time>2021-08-03T09:39:32.000Z</Time>
            <Position>
              <LatitudeDegrees>-15.3924617730081081390380859375</LatitudeDegrees>
              <LongitudeDegrees>37.08860834129154682159423828125</LongitudeDegrees>
            </Position>
            <AltitudeMeters>1120.5999755859375</AltitudeMeters>
            <DistanceMeters>NAN</DistanceMeters>
          </Trackpoint>
          <Trackpoint>
            <Time>2021-08-03T09:39:35.000Z</Time>
            <Position>
              <LatitudeDegrees>-15.3924768604338169097900390625</LatitudeDegrees>
              <LongitudeDegrees>37.08862242288887500762939453125</LongitudeDegrees>
            </Position>
            <AltitudeMeters>1121.199951171875</AltitudeMeters>
            <DistanceMeters>NAN</DistanceMeters>
          </Trackpoint>
          <Trackpoint>
            <Time>2021-08-03T09:39:39.000Z</Time>
            <Position>
              <LatitudeDegrees>-15.39251281879842281341552734375</LatitudeDegrees>
              <LongitudeDegrees>37.08862845785915851593017578125</LongitudeDegrees>
            </Position>
            <AltitudeMeters>1121.5999755859375</AltitudeMeters>
            <DistanceMeters>NAN</DistanceMeters>
          </Trackpoint>
          <Trackpoint>
            <Time>2021-08-03T09:39:41.000Z</Time>
            <Position>
              <LatitudeDegrees>-15.39253159426152706146240234375</LatitudeDegrees>
              <LongitudeDegrees>37.08863734267652034759521484375</LongitudeDegrees>
            </Position>
            <AltitudeMeters>1122</AltitudeMeters>
            <DistanceMeters>NAN</DistanceMeters>
          </Trackpoint>
          <Trackpoint>
            <Time>2021-08-03T09:39:42.000Z</Time>
            <Position>
              <LatitudeDegrees>-15.3925378806889057159423828125</LatitudeDegrees>
              <LongitudeDegrees>37.0886406116187572479248046875</LongitudeDegrees>
            </Position>
            <AltitudeMeters>1122</AltitudeMeters>
            <DistanceMeters>NAN</DistanceMeters>
          </Trackpoint>
          <Trackpoint>
            <Time>2021-08-03T09:39:49.000Z</Time>
            <Position>
              <LatitudeDegrees>-15.392583645880222320556640625</LatitudeDegrees>
              <LongitudeDegrees>37.08866885863244533538818359375</LongitudeDegrees>
            </Position>
            <AltitudeMeters>1123</AltitudeMeters>
            <DistanceMeters>NAN</DistanceMeters>
          </Trackpoint>
          <Trackpoint>
            <Time>2021-08-03T09:39:52.000Z</Time>
            <Position>
              <LatitudeDegrees>-15.39260284043848514556884765625</LatitudeDegrees>
              <LongitudeDegrees>37.08868780173361301422119140625</LongitudeDegrees>
            </Position>
            <AltitudeMeters>1123.199951171875</AltitudeMeters>
            <DistanceMeters>NAN</DistanceMeters>
          </Trackpoint>
          <Trackpoint>
            <Time>2021-08-03T09:39:59.000Z</Time>
            <Position>
              <LatitudeDegrees>-15.39266235195100307464599609375</LatitudeDegrees>
              <LongitudeDegrees>37.0887113548815250396728515625</LongitudeDegrees>
            </Position>
            <AltitudeMeters>1124.199951171875</AltitudeMeters>
            <DistanceMeters>NAN</DistanceMeters>
          </Trackpoint>
          <Trackpoint>
            <Time>2021-08-03T09:40:02.000Z</Time>
            <Position>
              <LatitudeDegrees>-15.39268263615667819976806640625</LatitudeDegrees>
              <LongitudeDegrees>37.0887150429189205169677734375</LongitudeDegrees>
            </Position>
            <AltitudeMeters>1124.5999755859375</AltitudeMeters>
            <DistanceMeters>NAN</DistanceMeters>
          </Trackpoint>
          <Trackpoint>
            <Time>2021-08-03T09:40:06.000Z</Time>
            <Position>
              <LatitudeDegrees>-15.39270644076168537139892578125</LatitudeDegrees>
              <LongitudeDegrees>37.088719569146633148193359375</LongitudeDegrees>
            </Position>
            <AltitudeMeters>1125.199951171875</AltitudeMeters>
            <DistanceMeters>NAN</DistanceMeters>
          </Trackpoint>
          <Trackpoint>
            <Time>2021-08-03T09:40:09.000Z</Time>
            <Position>
              <LatitudeDegrees>-15.39273820817470550537109375</LatitudeDegrees>
              <LongitudeDegrees>37.08873021416366100311279296875</LongitudeDegrees>
            </Position>
            <AltitudeMeters>1125.5999755859375</AltitudeMeters>
            <DistanceMeters>NAN</DistanceMeters>
          </Trackpoint>
          <Trackpoint>
            <Time>2021-08-03T09:40:10.000Z</Time>
            <Position>
              <LatitudeDegrees>-15.3927484340965747833251953125</LatitudeDegrees>
              <LongitudeDegrees>37.088733650743961334228515625</LongitudeDegrees>
            </Position>
            <AltitudeMeters>1125.5999755859375</AltitudeMeters>
            <DistanceMeters>NAN</DistanceMeters>
          </Trackpoint>
          <Trackpoint>
            <Time>2021-08-03T09:40:11.000Z</Time>
            <Position>
              <LatitudeDegrees>-15.39275974966585636138916015625</LatitudeDegrees>
              <LongitudeDegrees>37.088734321296215057373046875</LongitudeDegrees>
            </Position>
            <AltitudeMeters>1125.800048828125</AltitudeMeters>
            <DistanceMeters>NAN</DistanceMeters>
          </Trackpoint>
          <Trackpoint>
            <Time>2021-08-03T09:40:17.000Z</Time>
            <Position>
              <LatitudeDegrees>-15.392810292541980743408203125</LatitudeDegrees>
              <LongitudeDegrees>37.08874630741775035858154296875</LongitudeDegrees>
            </Position>
            <AltitudeMeters>1126.4000244140625</AltitudeMeters>
            <DistanceMeters>NAN</DistanceMeters>
          </Trackpoint>
          <Trackpoint>
            <Time>2021-08-03T09:40:20.000Z</Time>
            <Position>
              <LatitudeDegrees>-15.39283552207052707672119140625</LatitudeDegrees>
              <LongitudeDegrees>37.08875770680606365203857421875</LongitudeDegrees>
            </Position>
            <AltitudeMeters>1126.5999755859375</AltitudeMeters>
            <DistanceMeters>NAN</DistanceMeters>
          </Trackpoint>
          <Trackpoint>
            <Time>2021-08-03T09:40:26.000Z</Time>
            <Position>
              <LatitudeDegrees>-15.39288665167987346649169921875</LatitudeDegrees>
              <LongitudeDegrees>37.08877447061240673065185546875</LongitudeDegrees>
            </Position>
            <AltitudeMeters>1127.5999755859375</AltitudeMeters>
            <DistanceMeters>NAN</DistanceMeters>
          </Trackpoint>
          <Trackpoint>
            <Time>2021-08-03T09:40:33.000Z</Time>
            <Position>
              <LatitudeDegrees>-15.39294742047786712646484375</LatitudeDegrees>
              <LongitudeDegrees>37.0887847803533077239990234375</LongitudeDegrees>
            </Position>
            <AltitudeMeters>1128.5999755859375</AltitudeMeters>
            <DistanceMeters>NAN</DistanceMeters>
          </Trackpoint>
          <Trackpoint>
            <Time>2021-08-03T09:40:35.000Z</Time>
            <Position>
              <LatitudeDegrees>-15.3929623402655124664306640625</LatitudeDegrees>
              <LongitudeDegrees>37.08878452889621257781982421875</LongitudeDegrees>
            </Position>
            <AltitudeMeters>1128.800048828125</AltitudeMeters>
            <DistanceMeters>NAN</DistanceMeters>
          </Trackpoint>
          <Trackpoint>
            <Time>2021-08-03T09:40:41.000Z</Time>
            <Position>
              <LatitudeDegrees>-15.39300651289522647857666015625</LatitudeDegrees>
              <LongitudeDegrees>37.08878754638135433197021484375</LongitudeDegrees>
            </Position>
            <AltitudeMeters>1129.5999755859375</AltitudeMeters>
            <DistanceMeters>NAN</DistanceMeters>
          </Trackpoint>
          <Trackpoint>
            <Time>2021-08-03T09:40:44.000Z</Time>
            <Position>
              <LatitudeDegrees>-15.39303031750023365020751953125</LatitudeDegrees>
              <LongitudeDegrees>37.0887881331145763397216796875</LongitudeDegrees>
            </Position>
            <AltitudeMeters>1130</AltitudeMeters>
            <DistanceMeters>NAN</DistanceMeters>
          </Trackpoint>
          <Trackpoint>
            <Time>2021-08-03T09:40:46.000Z</Time>
            <Position>
              <LatitudeDegrees>-15.39304532110691070556640625</LatitudeDegrees>
              <LongitudeDegrees>37.08878654055297374725341796875</LongitudeDegrees>
            </Position>
            <AltitudeMeters>1130.199951171875</AltitudeMeters>
            <DistanceMeters>NAN</DistanceMeters>
          </Trackpoint>
          <Trackpoint>
            <Time>2021-08-03T09:40:49.000Z</Time>
            <Position>
              <LatitudeDegrees>-15.39306803606450557708740234375</LatitudeDegrees>
              <LongitudeDegrees>37.0887829363346099853515625</LongitudeDegrees>
            </Position>
            <AltitudeMeters>1130.5999755859375</AltitudeMeters>
            <DistanceMeters>NAN</DistanceMeters>
          </Trackpoint>
          <Trackpoint>
            <Time>2021-08-03T09:40:54.000Z</Time>
            <Position>
              <LatitudeDegrees>-15.39311371743679046630859375</LatitudeDegrees>
              <LongitudeDegrees>37.0887851156294345855712890625</LongitudeDegrees>
            </Position>
            <AltitudeMeters>1131.5999755859375</AltitudeMeters>
            <DistanceMeters>NAN</DistanceMeters>
          </Trackpoint>
          <Trackpoint>
            <Time>2021-08-03T09:40:55.000Z</Time>
            <Position>
              <LatitudeDegrees>-15.3931226022541522979736328125</LatitudeDegrees>
              <LongitudeDegrees>37.08878654055297374725341796875</LongitudeDegrees>
            </Position>
            <AltitudeMeters>1131.800048828125</AltitudeMeters>
            <DistanceMeters>NAN</DistanceMeters>
          </Trackpoint>
          <Trackpoint>
            <Time>2021-08-03T09:41:04.000Z</Time>
            <Position>
              <LatitudeDegrees>-15.39320080541074275970458984375</LatitudeDegrees>
              <LongitudeDegrees>37.0887837745249271392822265625</LongitudeDegrees>
            </Position>
            <AltitudeMeters>1132.5999755859375</AltitudeMeters>
            <DistanceMeters>NAN</DistanceMeters>
          </Trackpoint>
          <Trackpoint>
            <Time>2021-08-03T09:41:09.000Z</Time>
            <Position>
              <LatitudeDegrees>-15.39323785342276096343994140625</LatitudeDegrees>
              <LongitudeDegrees>37.0887757278978824615478515625</LongitudeDegrees>
            </Position>
            <AltitudeMeters>1133.800048828125</AltitudeMeters>
            <DistanceMeters>NAN</DistanceMeters>
          </Trackpoint>
          <Trackpoint>
            <Time>2021-08-03T09:41:12.000Z</Time>
            <Position>
              <LatitudeDegrees>-15.39325729943811893463134765625</LatitudeDegrees>
              <LongitudeDegrees>37.08876751363277435302734375</LongitudeDegrees>
            </Position>
            <AltitudeMeters>1134.4000244140625</AltitudeMeters>
            <DistanceMeters>NAN</DistanceMeters>
          </Trackpoint>
          <Trackpoint>
            <Time>2021-08-03T09:41:15.000Z</Time>
            <Position>
              <LatitudeDegrees>-15.3932821936905384063720703125</LatitudeDegrees>
              <LongitudeDegrees>37.08876256830990314483642578125</LongitudeDegrees>
            </Position>
            <AltitudeMeters>1134.800048828125</AltitudeMeters>
            <DistanceMeters>NAN</DistanceMeters>
          </Trackpoint>
          <Trackpoint>
            <Time>2021-08-03T09:41:20.000Z</Time>
            <Position>
              <LatitudeDegrees>-15.3933227621018886566162109375</LatitudeDegrees>
              <LongitudeDegrees>37.0887438766658306121826171875</LongitudeDegrees>
            </Position>
            <AltitudeMeters>1135.800048828125</AltitudeMeters>
            <DistanceMeters>NAN</DistanceMeters>
          </Trackpoint>
          <Trackpoint>
            <Time>2021-08-03T09:41:23.000Z</Time>
            <Position>
              <LatitudeDegrees>-15.39333977736532688140869140625</LatitudeDegrees>
              <LongitudeDegrees>37.08873490802943706512451171875</LongitudeDegrees>
            </Position>
            <AltitudeMeters>1136</AltitudeMeters>
            <DistanceMeters>NAN</DistanceMeters>
          </Trackpoint>
          <Trackpoint>
            <Time>2021-08-03T09:41:29.000Z</Time>
            <Position>
              <LatitudeDegrees>-15.39338252507150173187255859375</LatitudeDegrees>
              <LongitudeDegrees>37.088729627430438995361328125</LongitudeDegrees>
            </Position>
            <AltitudeMeters>1137</AltitudeMeters>
            <DistanceMeters>NAN</DistanceMeters>
          </Trackpoint>
          <Trackpoint>
            <Time>2021-08-03T09:41:30.000Z</Time>
            <Position>
              <LatitudeDegrees>-15.39338973350822925567626953125</LatitudeDegrees>
              <LongitudeDegrees>37.08872702904045581817626953125</LongitudeDegrees>
            </Position>
            <AltitudeMeters>1137.199951171875</AltitudeMeters>
            <DistanceMeters>NAN</DistanceMeters>
          </Trackpoint>
          <Trackpoint>
            <Time>2021-08-03T09:41:36.000Z</Time>
            <Position>
              <LatitudeDegrees>-15.3934330679476261138916015625</LatitudeDegrees>
              <LongitudeDegrees>37.0887069962918758392333984375</LongitudeDegrees>
            </Position>
            <AltitudeMeters>1138</AltitudeMeters>
            <DistanceMeters>NAN</DistanceMeters>
          </Trackpoint>
          <Trackpoint>
            <Time>2021-08-03T09:41:40.000Z</Time>
            <Position>
              <LatitudeDegrees>-15.39345025084912776947021484375</LatitudeDegrees>
              <LongitudeDegrees>37.08868813700973987579345703125</LongitudeDegrees>
            </Position>
            <AltitudeMeters>1138.199951171875</AltitudeMeters>
            <DistanceMeters>NAN</DistanceMeters>
          </Trackpoint>
          <Trackpoint>
            <Time>2021-08-03T09:41:46.000Z</Time>
            <Position>
              <LatitudeDegrees>-15.39348629303276538848876953125</LatitudeDegrees>
              <LongitudeDegrees>37.08865678869187831878662109375</LongitudeDegrees>
            </Position>
            <AltitudeMeters>1139.199951171875</AltitudeMeters>
            <DistanceMeters>NAN</DistanceMeters>
          </Trackpoint>
          <Trackpoint>
            <Time>2021-08-03T09:41:48.000Z</Time>
            <Position>
              <LatitudeDegrees>-15.3935014642775058746337890625</LatitudeDegrees>
              <LongitudeDegrees>37.08864471875131130218505859375</LongitudeDegrees>
            </Position>
            <AltitudeMeters>1139.199951171875</AltitudeMeters>
            <DistanceMeters>NAN</DistanceMeters>
          </Trackpoint>
          <Trackpoint>
            <Time>2021-08-03T09:41:49.000Z</Time>
            <Position>
              <LatitudeDegrees>-15.3935088403522968292236328125</LatitudeDegrees>
              <LongitudeDegrees>37.0886412821710109710693359375</LongitudeDegrees>
            </Position>
            <AltitudeMeters>1139.4000244140625</AltitudeMeters>
            <DistanceMeters>NAN</DistanceMeters>
          </Trackpoint>
          <Trackpoint>
            <Time>2021-08-03T09:41:56.000Z</Time>
            <Position>
              <LatitudeDegrees>-15.39354966022074222564697265625</LatitudeDegrees>
              <LongitudeDegrees>37.08859384059906005859375</LongitudeDegrees>
            </Position>
            <AltitudeMeters>1140</AltitudeMeters>
            <DistanceMeters>NAN</DistanceMeters>
          </Trackpoint>
          <Trackpoint>
            <Time>2021-08-03T09:41:57.000Z</Time>
            <Position>
              <LatitudeDegrees>-15.39355418644845485687255859375</LatitudeDegrees>
              <LongitudeDegrees>37.08858646452426910400390625</LongitudeDegrees>
            </Position>
            <AltitudeMeters>1140.199951171875</AltitudeMeters>
            <DistanceMeters>NAN</DistanceMeters>
          </Trackpoint>
          <Trackpoint>
            <Time>2021-08-03T09:42:03.000Z</Time>
            <Position>
              <LatitudeDegrees>-15.39359123446047306060791015625</LatitudeDegrees>
              <LongitudeDegrees>37.088543213903903961181640625</LongitudeDegrees>
            </Position>
            <AltitudeMeters>1141.4000244140625</AltitudeMeters>
            <DistanceMeters>NAN</DistanceMeters>
          </Trackpoint>
          <Trackpoint>
            <Time>2021-08-03T09:42:05.000Z</Time>
            <Position>
              <LatitudeDegrees>-15.39359626360237598419189453125</LatitudeDegrees>
              <LongitudeDegrees>37.08853022195398807525634765625</LongitudeDegrees>
            </Position>
            <AltitudeMeters>1141.5999755859375</AltitudeMeters>
            <DistanceMeters>NAN</DistanceMeters>
          </Trackpoint>
          <Trackpoint>
            <Time>2021-08-03T09:42:07.000Z</Time>
            <Position>
              <LatitudeDegrees>-15.39360380731523036956787109375</LatitudeDegrees>
              <LongitudeDegrees>37.088516391813755035400390625</LongitudeDegrees>
            </Position>
            <AltitudeMeters>1142</AltitudeMeters>
            <DistanceMeters>NAN</DistanceMeters>
          </Trackpoint>
          <Trackpoint>
            <Time>2021-08-03T09:42:08.000Z</Time>
            <Position>
              <LatitudeDegrees>-15.3936040587723255157470703125</LatitudeDegrees>
              <LongitudeDegrees>37.08850842900574207305908203125</LongitudeDegrees>
            </Position>
            <AltitudeMeters>1142</AltitudeMeters>
            <DistanceMeters>NAN</DistanceMeters>
          </Trackpoint>
          <Trackpoint>
            <Time>2021-08-03T09:42:11.000Z</Time>
            <Position>
              <LatitudeDegrees>-15.39360984228551387786865234375</LatitudeDegrees>
              <LongitudeDegrees>37.08848395384848117828369140625</LongitudeDegrees>
            </Position>
            <AltitudeMeters>1142.5999755859375</AltitudeMeters>
            <DistanceMeters>NAN</DistanceMeters>
          </Trackpoint>
          <Trackpoint>
            <Time>2021-08-03T09:42:14.000Z</Time>
            <Position>
              <LatitudeDegrees>-15.39361855946481227874755859375</LatitudeDegrees>
              <LongitudeDegrees>37.08845914341509342193603515625</LongitudeDegrees>
            </Position>
            <AltitudeMeters>1143</AltitudeMeters>
            <DistanceMeters>NAN</DistanceMeters>
          </Trackpoint>
          <Trackpoint>
            <Time>2021-08-03T09:42:18.000Z</Time>
            <Position>
              <LatitudeDegrees>-15.39362710900604724884033203125</LatitudeDegrees>
              <LongitudeDegrees>37.088427878916263580322265625</LongitudeDegrees>
            </Position>
            <AltitudeMeters>1143.5999755859375</AltitudeMeters>
            <DistanceMeters>NAN</DistanceMeters>
          </Trackpoint>
          <Trackpoint>
            <Time>2021-08-03T09:42:19.000Z</Time>
            <Position>
              <LatitudeDegrees>-15.39362962357699871063232421875</LatitudeDegrees>
              <LongitudeDegrees>37.0884199999272823333740234375</LongitudeDegrees>
            </Position>
            <AltitudeMeters>1143.800048828125</AltitudeMeters>
            <DistanceMeters>NAN</DistanceMeters>
          </Trackpoint>
          <Trackpoint>
            <Time>2021-08-03T09:42:25.000Z</Time>
            <Position>
              <LatitudeDegrees>-15.3936456330120563507080078125</LatitudeDegrees>
              <LongitudeDegrees>37.088371552526950836181640625</LongitudeDegrees>
            </Position>
            <AltitudeMeters>1144.4000244140625</AltitudeMeters>
            <DistanceMeters>NAN</DistanceMeters>
          </Trackpoint>
          <Trackpoint>
            <Time>2021-08-03T09:42:27.000Z</Time>
            <Position>
              <LatitudeDegrees>-15.39364990778267383575439453125</LatitudeDegrees>
              <LongitudeDegrees>37.088355123996734619140625</LongitudeDegrees>
            </Position>
            <AltitudeMeters>1144.5999755859375</AltitudeMeters>
            <DistanceMeters>NAN</DistanceMeters>
          </Trackpoint>
          <Trackpoint>
            <Time>2021-08-03T09:42:28.000Z</Time>
            <Position>
              <LatitudeDegrees>-15.39365258999168872833251953125</LatitudeDegrees>
              <LongitudeDegrees>37.08834732882678508758544921875</LongitudeDegrees>
            </Position>
            <AltitudeMeters>1145</AltitudeMeters>
            <DistanceMeters>NAN</DistanceMeters>
          </Trackpoint>
          <Trackpoint>
            <Time>2021-08-03T09:42:30.000Z</Time>
            <Position>
              <LatitudeDegrees>-15.3936533443629741668701171875</LatitudeDegrees>
              <LongitudeDegrees>37.088329307734966278076171875</LongitudeDegrees>
            </Position>
            <AltitudeMeters>1145.4000244140625</AltitudeMeters>
            <DistanceMeters>NAN</DistanceMeters>
          </Trackpoint>
          <Trackpoint>
            <Time>2021-08-03T09:42:31.000Z</Time>
            <Position>
              <LatitudeDegrees>-15.3936540149152278900146484375</LatitudeDegrees>
              <LongitudeDegrees>37.08832235075533390045166015625</LongitudeDegrees>
            </Position>
            <AltitudeMeters>1145.4000244140625</AltitudeMeters>
            <DistanceMeters>NAN</DistanceMeters>
          </Trackpoint>
          <Trackpoint>
            <Time>2021-08-03T09:42:34.000Z</Time>
            <Position>
              <LatitudeDegrees>-15.3936580382287502288818359375</LatitudeDegrees>
              <LongitudeDegrees>37.0882959477603435516357421875</LongitudeDegrees>
            </Position>
            <AltitudeMeters>1146</AltitudeMeters>
            <DistanceMeters>NAN</DistanceMeters>
          </Trackpoint>
          <Trackpoint>
            <Time>2021-08-03T09:42:41.000Z</Time>
            <Position>
              <LatitudeDegrees>-15.393673293292522430419921875</LatitudeDegrees>
              <LongitudeDegrees>37.08823970519006252288818359375</LongitudeDegrees>
            </Position>
            <AltitudeMeters>1146.800048828125</AltitudeMeters>
            <DistanceMeters>NAN</DistanceMeters>
          </Trackpoint>
          <Trackpoint>
            <Time>2021-08-03T09:42:43.000Z</Time>
            <Position>
              <LatitudeDegrees>-15.39367496967315673828125</LatitudeDegrees>
              <LongitudeDegrees>37.0882218517363071441650390625</LongitudeDegrees>
            </Position>
            <AltitudeMeters>1147.199951171875</AltitudeMeters>
            <DistanceMeters>NAN</DistanceMeters>
          </Trackpoint>
          <Trackpoint>
            <Time>2021-08-03T09:42:50.000Z</Time>
            <Position>
              <LatitudeDegrees>-15.39367807097733020782470703125</LatitudeDegrees>
              <LongitudeDegrees>37.0881579816341400146484375</LongitudeDegrees>
            </Position>
            <AltitudeMeters>1148.4000244140625</AltitudeMeters>
            <DistanceMeters>NAN</DistanceMeters>
          </Trackpoint>
          <Trackpoint>
            <Time>2021-08-03T09:42:51.000Z</Time>
            <Position>
              <LatitudeDegrees>-15.39367723278701305389404296875</LatitudeDegrees>
              <LongitudeDegrees>37.08814901299774646759033203125</LongitudeDegrees>
            </Position>
            <AltitudeMeters>1148.5999755859375</AltitudeMeters>
            <DistanceMeters>NAN</DistanceMeters>
          </Trackpoint>
          <Trackpoint>
            <Time>2021-08-03T09:42:59.000Z</Time>
            <Position>
              <LatitudeDegrees>-15.39367388002574443817138671875</LatitudeDegrees>
              <LongitudeDegrees>37.08807525224983692169189453125</LongitudeDegrees>
            </Position>
            <AltitudeMeters>1149.5999755859375</AltitudeMeters>
            <DistanceMeters>NAN</DistanceMeters>
          </Trackpoint>
          <Trackpoint>
            <Time>2021-08-03T09:43:03.000Z</Time>
            <Position>
              <LatitudeDegrees>-15.39366516284644603729248046875</LatitudeDegrees>
              <LongitudeDegrees>37.08804197609424591064453125</LongitudeDegrees>
            </Position>
            <AltitudeMeters>1150.4000244140625</AltitudeMeters>
            <DistanceMeters>NAN</DistanceMeters>
          </Trackpoint>
          <Trackpoint>
            <Time>2021-08-03T09:43:06.000Z</Time>
            <Position>
              <LatitudeDegrees>-15.393667928874492645263671875</LatitudeDegrees>
              <LongitudeDegrees>37.0880077779293060302734375</LongitudeDegrees>
            </Position>
            <AltitudeMeters>1150.800048828125</AltitudeMeters>
            <DistanceMeters>NAN</DistanceMeters>
          </Trackpoint>
          <Trackpoint>
            <Time>2021-08-03T09:43:07.000Z</Time>
            <Position>
              <LatitudeDegrees>-15.39366616867482662200927734375</LatitudeDegrees>
              <LongitudeDegrees>37.0880005694925785064697265625</LongitudeDegrees>
            </Position>
            <AltitudeMeters>1151</AltitudeMeters>
            <DistanceMeters>NAN</DistanceMeters>
          </Trackpoint>
          <Trackpoint>
            <Time>2021-08-03T09:43:15.000Z</Time>
            <Position>
              <LatitudeDegrees>-15.39366834796965122222900390625</LatitudeDegrees>
              <LongitudeDegrees>37.08792286925017833709716796875</LongitudeDegrees>
            </Position>
            <AltitudeMeters>1152</AltitudeMeters>
            <DistanceMeters>NAN</DistanceMeters>
          </Trackpoint>
          <Trackpoint>
            <Time>2021-08-03T09:43:17.000Z</Time>
            <Position>
              <LatitudeDegrees>-15.39366893470287322998046875</LatitudeDegrees>
              <LongitudeDegrees>37.0879036746919155120849609375</LongitudeDegrees>
            </Position>
            <AltitudeMeters>1152.4000244140625</AltitudeMeters>
            <DistanceMeters>NAN</DistanceMeters>
          </Trackpoint>
          <Trackpoint>
            <Time>2021-08-03T09:43:23.000Z</Time>
            <Position>
              <LatitudeDegrees>-15.39366616867482662200927734375</LatitudeDegrees>
              <LongitudeDegrees>37.08785028196871280670166015625</LongitudeDegrees>
            </Position>
            <AltitudeMeters>1153.4000244140625</AltitudeMeters>
            <DistanceMeters>NAN</DistanceMeters>
          </Trackpoint>
          <Trackpoint>
            <Time>2021-08-03T09:43:25.000Z</Time>
            <Position>
              <LatitudeDegrees>-15.39367136545479297637939453125</LatitudeDegrees>
              <LongitudeDegrees>37.08783469162881374359130859375</LongitudeDegrees>
            </Position>
            <AltitudeMeters>1153.5999755859375</AltitudeMeters>
            <DistanceMeters>NAN</DistanceMeters>
          </Trackpoint>
          <Trackpoint>
            <Time>2021-08-03T09:43:29.000Z</Time>
            <Position>
              <LatitudeDegrees>-15.39367538876831531524658203125</LatitudeDegrees>
              <LongitudeDegrees>37.0877943746745586395263671875</LongitudeDegrees>
            </Position>
            <AltitudeMeters>1154.199951171875</AltitudeMeters>
            <DistanceMeters>NAN</DistanceMeters>
          </Trackpoint>
          <Trackpoint>
            <Time>2021-08-03T09:43:31.000Z</Time>
            <Position>
              <LatitudeDegrees>-15.3936758078634738922119140625</LatitudeDegrees>
              <LongitudeDegrees>37.08777735941112041473388671875</LongitudeDegrees>
            </Position>
            <AltitudeMeters>1154.199951171875</AltitudeMeters>
            <DistanceMeters>NAN</DistanceMeters>
          </Trackpoint>
          <Trackpoint>
            <Time>2021-08-03T09:43:32.000Z</Time>
            <Position>
              <LatitudeDegrees>-15.39367723278701305389404296875</LatitudeDegrees>
              <LongitudeDegrees>37.08776813931763172149658203125</LongitudeDegrees>
            </Position>
            <AltitudeMeters>1154.4000244140625</AltitudeMeters>
            <DistanceMeters>NAN</DistanceMeters>
          </Trackpoint>
          <Trackpoint>
            <Time>2021-08-03T09:43:36.000Z</Time>
            <Position>
              <LatitudeDegrees>-15.3936821781098842620849609375</LatitudeDegrees>
              <LongitudeDegrees>37.08773260004818439483642578125</LongitudeDegrees>
            </Position>
            <AltitudeMeters>1154.800048828125</AltitudeMeters>
            <DistanceMeters>NAN</DistanceMeters>
          </Trackpoint>
          <Trackpoint>
            <Time>2021-08-03T09:43:40.000Z</Time>
            <Position>
              <LatitudeDegrees>-15.393686033785343170166015625</LatitudeDegrees>
              <LongitudeDegrees>37.08769890479743480682373046875</LongitudeDegrees>
            </Position>
            <AltitudeMeters>1155.4000244140625</AltitudeMeters>
            <DistanceMeters>NAN</DistanceMeters>
          </Trackpoint>
          <Trackpoint>
            <Time>2021-08-03T09:43:41.000Z</Time>
            <Position>
              <LatitudeDegrees>-15.3936898894608020782470703125</LatitudeDegrees>
              <LongitudeDegrees>37.08769001998007297515869140625</LongitudeDegrees>
            </Position>
            <AltitudeMeters>1155.5999755859375</AltitudeMeters>
            <DistanceMeters>NAN</DistanceMeters>
          </Trackpoint>
          <Trackpoint>
            <Time>2021-08-03T09:43:50.000Z</Time>
            <Position>
              <LatitudeDegrees>-15.3937157057225704193115234375</LatitudeDegrees>
              <LongitudeDegrees>37.08761273883283138275146484375</LongitudeDegrees>
            </Position>
            <AltitudeMeters>1156.5999755859375</AltitudeMeters>
            <DistanceMeters>NAN</DistanceMeters>
          </Trackpoint>
          <Trackpoint>
            <Time>2021-08-03T09:43:54.000Z</Time>
            <Position>
              <LatitudeDegrees>-15.39373490028083324432373046875</LatitudeDegrees>
              <LongitudeDegrees>37.0875784568488597869873046875</LongitudeDegrees>
            </Position>
            <AltitudeMeters>1157.5999755859375</AltitudeMeters>
            <DistanceMeters>NAN</DistanceMeters>
          </Trackpoint>
          <Trackpoint>
            <Time>2021-08-03T09:43:55.000Z</Time>
            <Position>
              <LatitudeDegrees>-15.3937381692230701446533203125</LatitudeDegrees>
              <LongitudeDegrees>37.08756781183183193206787109375</LongitudeDegrees>
            </Position>
            <AltitudeMeters>1157.5999755859375</AltitudeMeters>
            <DistanceMeters>NAN</DistanceMeters>
          </Trackpoint>
          <Trackpoint>
            <Time>2021-08-03T09:43:59.000Z</Time>
            <Position>
              <LatitudeDegrees>-15.3937502391636371612548828125</LatitudeDegrees>
              <LongitudeDegrees>37.087530680000782012939453125</LongitudeDegrees>
            </Position>
            <AltitudeMeters>1157.5999755859375</AltitudeMeters>
            <DistanceMeters>NAN</DistanceMeters>
          </Trackpoint>
          <Trackpoint>
            <Time>2021-08-03T09:44:06.000Z</Time>
            <Position>
              <LatitudeDegrees>-15.39379122667014598846435546875</LatitudeDegrees>
              <LongitudeDegrees>37.08747779019176959991455078125</LongitudeDegrees>
            </Position>
            <AltitudeMeters>1158.199951171875</AltitudeMeters>
            <DistanceMeters>NAN</DistanceMeters>
          </Trackpoint>
          <Trackpoint>
            <Time>2021-08-03T09:44:12.000Z</Time>
            <Position>
              <LatitudeDegrees>-15.3938273526728153228759765625</LatitudeDegrees>
              <LongitudeDegrees>37.08743269555270671844482421875</LongitudeDegrees>
            </Position>
            <AltitudeMeters>1158.5999755859375</AltitudeMeters>
            <DistanceMeters>NAN</DistanceMeters>
          </Trackpoint>
          <Trackpoint>
            <Time>2021-08-03T09:44:15.000Z</Time>
            <Position>
              <LatitudeDegrees>-15.3938400931656360626220703125</LatitudeDegrees>
              <LongitudeDegrees>37.08740939386188983917236328125</LongitudeDegrees>
            </Position>
            <AltitudeMeters>1159.199951171875</AltitudeMeters>
            <DistanceMeters>NAN</DistanceMeters>
          </Trackpoint>
          <Trackpoint>
            <Time>2021-08-03T09:44:16.000Z</Time>
            <Position>
              <LatitudeDegrees>-15.39384654723107814788818359375</LatitudeDegrees>
              <LongitudeDegrees>37.08740168251097202301025390625</LongitudeDegrees>
            </Position>
            <AltitudeMeters>1159.199951171875</AltitudeMeters>
            <DistanceMeters>NAN</DistanceMeters>
          </Trackpoint>
          <Trackpoint>
            <Time>2021-08-03T09:44:20.000Z</Time>
            <Position>
              <LatitudeDegrees>-15.39387437514960765838623046875</LatitudeDegrees>
              <LongitudeDegrees>37.087372429668903350830078125</LongitudeDegrees>
            </Position>
            <AltitudeMeters>1160</AltitudeMeters>
            <DistanceMeters>NAN</DistanceMeters>
          </Trackpoint>
          <Trackpoint>
            <Time>2021-08-03T09:44:23.000Z</Time>
            <Position>
              <LatitudeDegrees>-15.39388979785144329071044921875</LatitudeDegrees>
              <LongitudeDegrees>37.08734937943518161773681640625</LongitudeDegrees>
            </Position>
            <AltitudeMeters>1160.199951171875</AltitudeMeters>
            <DistanceMeters>NAN</DistanceMeters>
          </Trackpoint>
          <Trackpoint>
            <Time>2021-08-03T09:44:27.000Z</Time>
            <Position>
              <LatitudeDegrees>-15.39390890859067440032958984375</LatitudeDegrees>
              <LongitudeDegrees>37.08731669001281261444091796875</LongitudeDegrees>
            </Position>
            <AltitudeMeters>1160.199951171875</AltitudeMeters>
            <DistanceMeters>NAN</DistanceMeters>
          </Trackpoint>
          <Trackpoint>
            <Time>2021-08-03T09:44:30.000Z</Time>
            <Position>
              <LatitudeDegrees>-15.39392584003508090972900390625</LatitudeDegrees>
              <LongitudeDegrees>37.0872938074171543121337890625</LongitudeDegrees>
            </Position>
            <AltitudeMeters>1160.5999755859375</AltitudeMeters>
            <DistanceMeters>NAN</DistanceMeters>
          </Trackpoint>
          <Trackpoint>
            <Time>2021-08-03T09:44:32.000Z</Time>
            <Position>
              <LatitudeDegrees>-15.393936820328235626220703125</LatitudeDegrees>
              <LongitudeDegrees>37.0872746966779232025146484375</LongitudeDegrees>
            </Position>
            <AltitudeMeters>1161</AltitudeMeters>
            <DistanceMeters>NAN</DistanceMeters>
          </Trackpoint>
          <Trackpoint>
            <Time>2021-08-03T09:44:34.000Z</Time>
            <Position>
              <LatitudeDegrees>-15.39395056664943695068359375</LatitudeDegrees>
              <LongitudeDegrees>37.08726086653769016265869140625</LongitudeDegrees>
            </Position>
            <AltitudeMeters>1161.199951171875</AltitudeMeters>
            <DistanceMeters>NAN</DistanceMeters>
          </Trackpoint>
          <Trackpoint>
            <Time>2021-08-03T09:44:36.000Z</Time>
            <Position>
              <LatitudeDegrees>-15.39395920000970363616943359375</LatitudeDegrees>
              <LongitudeDegrees>37.08724795840680599212646484375</LongitudeDegrees>
            </Position>
            <AltitudeMeters>1161.5999755859375</AltitudeMeters>
            <DistanceMeters>NAN</DistanceMeters>
          </Trackpoint>
          <Trackpoint>
            <Time>2021-08-03T09:44:43.000Z</Time>
            <Position>
              <LatitudeDegrees>-15.3939986787736415863037109375</LatitudeDegrees>
              <LongitudeDegrees>37.08719163201749324798583984375</LongitudeDegrees>
            </Position>
            <AltitudeMeters>1162.199951171875</AltitudeMeters>
            <DistanceMeters>NAN</DistanceMeters>
          </Trackpoint>
          <Trackpoint>
            <Time>2021-08-03T09:44:44.000Z</Time>
            <Position>
              <LatitudeDegrees>-15.394007228314876556396484375</LatitudeDegrees>
              <LongitudeDegrees>37.087182663381099700927734375</LongitudeDegrees>
            </Position>
            <AltitudeMeters>1162.199951171875</AltitudeMeters>
            <DistanceMeters>NAN</DistanceMeters>
          </Trackpoint>
          <Trackpoint>
            <Time>2021-08-03T09:44:45.000Z</Time>
            <Position>
              <LatitudeDegrees>-15.39401602931320667266845703125</LatitudeDegrees>
              <LongitudeDegrees>37.08717763423919677734375</LongitudeDegrees>
            </Position>
            <AltitudeMeters>1162.4000244140625</AltitudeMeters>
            <DistanceMeters>NAN</DistanceMeters>
          </Trackpoint>
          <Trackpoint>
            <Time>2021-08-03T09:44:52.000Z</Time>
            <Position>
              <LatitudeDegrees>-15.3940529935061931610107421875</LatitudeDegrees>
              <LongitudeDegrees>37.08713899366557598114013671875</LongitudeDegrees>
            </Position>
            <AltitudeMeters>1163.199951171875</AltitudeMeters>
            <DistanceMeters>NAN</DistanceMeters>
          </Trackpoint>
          <Trackpoint>
            <Time>2021-08-03T09:44:54.000Z</Time>
            <Position>
              <LatitudeDegrees>-15.39406380616128444671630859375</LatitudeDegrees>
              <LongitudeDegrees>37.08712809719145298004150390625</LongitudeDegrees>
            </Position>
            <AltitudeMeters>1163.4000244140625</AltitudeMeters>
            <DistanceMeters>NAN</DistanceMeters>
          </Trackpoint>
          <Trackpoint>
            <Time>2021-08-03T09:44:55.000Z</Time>
            <Position>
              <LatitudeDegrees>-15.394069589674472808837890625</LatitudeDegrees>
              <LongitudeDegrees>37.08712155930697917938232421875</LongitudeDegrees>
            </Position>
            <AltitudeMeters>1163.4000244140625</AltitudeMeters>
            <DistanceMeters>NAN</DistanceMeters>
          </Trackpoint>
          <Trackpoint>
            <Time>2021-08-03T09:45:01.000Z</Time>
            <Position>
              <LatitudeDegrees>-15.394101105630397796630859375</LatitudeDegrees>
              <LongitudeDegrees>37.08707830868661403656005859375</LongitudeDegrees>
            </Position>
            <AltitudeMeters>1164.4000244140625</AltitudeMeters>
            <DistanceMeters>NAN</DistanceMeters>
          </Trackpoint>
          <Trackpoint>
            <Time>2021-08-03T09:45:04.000Z</Time>
            <Position>
              <LatitudeDegrees>-15.3941227309405803680419921875</LatitudeDegrees>
              <LongitudeDegrees>37.08705936558544635772705078125</LongitudeDegrees>
            </Position>
            <AltitudeMeters>1165</AltitudeMeters>
            <DistanceMeters>NAN</DistanceMeters>
          </Trackpoint>
          <Trackpoint>
            <Time>2021-08-03T09:45:09.000Z</Time>
            <Position>
              <LatitudeDegrees>-15.39416019804775714874267578125</LatitudeDegrees>
              <LongitudeDegrees>37.08702365867793560028076171875</LongitudeDegrees>
            </Position>
            <AltitudeMeters>1165.4000244140625</AltitudeMeters>
            <DistanceMeters>NAN</DistanceMeters>
          </Trackpoint>
          <Trackpoint>
            <Time>2021-08-03T09:45:15.000Z</Time>
            <Position>
              <LatitudeDegrees>-15.39420696906745433807373046875</LatitudeDegrees>
              <LongitudeDegrees>37.0869870297610759735107421875</LongitudeDegrees>
            </Position>
            <AltitudeMeters>1166.199951171875</AltitudeMeters>
            <DistanceMeters>NAN</DistanceMeters>
          </Trackpoint>
          <Trackpoint>
            <Time>2021-08-03T09:45:17.000Z</Time>
            <Position>
              <LatitudeDegrees>-15.3942243196070194244384765625</LatitudeDegrees>
              <LongitudeDegrees>37.08697571419179439544677734375</LongitudeDegrees>
            </Position>
            <AltitudeMeters>1166.5999755859375</AltitudeMeters>
            <DistanceMeters>NAN</DistanceMeters>
          </Trackpoint>
          <Trackpoint>
            <Time>2021-08-03T09:45:19.000Z</Time>
            <Position>
              <LatitudeDegrees>-15.39424301125109195709228515625</LatitudeDegrees>
              <LongitudeDegrees>37.08696532063186168670654296875</LongitudeDegrees>
            </Position>
            <AltitudeMeters>1166.800048828125</AltitudeMeters>
            <DistanceMeters>NAN</DistanceMeters>
          </Trackpoint>
          <Trackpoint>
            <Time>2021-08-03T09:45:22.000Z</Time>
            <Position>
              <LatitudeDegrees>-15.39426715113222599029541015625</LatitudeDegrees>
              <LongitudeDegrees>37.08694637753069400787353515625</LongitudeDegrees>
            </Position>
            <AltitudeMeters>1167.199951171875</AltitudeMeters>
            <DistanceMeters>NAN</DistanceMeters>
          </Trackpoint>
          <Trackpoint>
            <Time>2021-08-03T09:45:24.000Z</Time>
            <Position>
              <LatitudeDegrees>-15.3942843340337276458740234375</LatitudeDegrees>
              <LongitudeDegrees>37.086933888494968414306640625</LongitudeDegrees>
            </Position>
            <AltitudeMeters>1167.199951171875</AltitudeMeters>
            <DistanceMeters>NAN</DistanceMeters>
          </Trackpoint>
          <Trackpoint>
            <Time>2021-08-03T09:45:26.000Z</Time>
            <Position>
              <LatitudeDegrees>-15.39429984055459499359130859375</LatitudeDegrees>
              <LongitudeDegrees>37.0869189687073230743408203125</LongitudeDegrees>
            </Position>
            <AltitudeMeters>1167.800048828125</AltitudeMeters>
            <DistanceMeters>NAN</DistanceMeters>
          </Trackpoint>
          <Trackpoint>
            <Time>2021-08-03T09:45:29.000Z</Time>
            <Position>
              <LatitudeDegrees>-15.39432113058865070343017578125</LatitudeDegrees>
              <LongitudeDegrees>37.08690245635807514190673828125</LongitudeDegrees>
            </Position>
            <AltitudeMeters>1168.199951171875</AltitudeMeters>
            <DistanceMeters>NAN</DistanceMeters>
          </Trackpoint>
          <Trackpoint>
            <Time>2021-08-03T09:45:30.000Z</Time>
            <Position>
              <LatitudeDegrees>-15.39432850666344165802001953125</LatitudeDegrees>
              <LongitudeDegrees>37.08689692430198192596435546875</LongitudeDegrees>
            </Position>
            <AltitudeMeters>1168.199951171875</AltitudeMeters>
            <DistanceMeters>NAN</DistanceMeters>
          </Trackpoint>
          <Trackpoint>
            <Time>2021-08-03T09:45:33.000Z</Time>
            <Position>
              <LatitudeDegrees>-15.394348539412021636962890625</LatitudeDegrees>
              <LongitudeDegrees>37.0868767239153385162353515625</LongitudeDegrees>
            </Position>
            <AltitudeMeters>1168.800048828125</AltitudeMeters>
            <DistanceMeters>NAN</DistanceMeters>
          </Trackpoint>
          <Trackpoint>
            <Time>2021-08-03T09:45:37.000Z</Time>
            <Position>
              <LatitudeDegrees>-15.3943879343569278717041015625</LatitudeDegrees>
              <LongitudeDegrees>37.08685182966291904449462890625</LongitudeDegrees>
            </Position>
            <AltitudeMeters>1169.4000244140625</AltitudeMeters>
            <DistanceMeters>NAN</DistanceMeters>
          </Trackpoint>
          <Trackpoint>
            <Time>2021-08-03T09:45:39.000Z</Time>
            <Position>
              <LatitudeDegrees>-15.394400171935558319091796875</LatitudeDegrees>
              <LongitudeDegrees>37.0868398435413837432861328125</LongitudeDegrees>
            </Position>
            <AltitudeMeters>1169.5999755859375</AltitudeMeters>
            <DistanceMeters>NAN</DistanceMeters>
          </Trackpoint>
          <Trackpoint>
            <Time>2021-08-03T09:45:40.000Z</Time>
            <Position>
              <LatitudeDegrees>-15.39440511725842952728271484375</LatitudeDegrees>
              <LongitudeDegrees>37.0868358202278614044189453125</LongitudeDegrees>
            </Position>
            <AltitudeMeters>1170</AltitudeMeters>
            <DistanceMeters>NAN</DistanceMeters>
          </Trackpoint>
          <Trackpoint>
            <Time>2021-08-03T09:45:41.000Z</Time>
            <Position>
              <LatitudeDegrees>-15.39441324770450592041015625</LatitudeDegrees>
              <LongitudeDegrees>37.08683037199079990386962890625</LongitudeDegrees>
            </Position>
            <AltitudeMeters>1170.199951171875</AltitudeMeters>
            <DistanceMeters>NAN</DistanceMeters>
          </Trackpoint>
          <Trackpoint>
            <Time>2021-08-03T09:45:42.000Z</Time>
            <Position>
              <LatitudeDegrees>-15.394420959055423736572265625</LatitudeDegrees>
              <LongitudeDegrees>37.0868224091827869415283203125</LongitudeDegrees>
            </Position>
            <AltitudeMeters>1170.199951171875</AltitudeMeters>
            <DistanceMeters>NAN</DistanceMeters>
          </Trackpoint>
          <Trackpoint>
            <Time>2021-08-03T09:45:44.000Z</Time>
            <Position>
              <LatitudeDegrees>-15.3944365493953227996826171875</LatitudeDegrees>
              <LongitudeDegrees>37.08680891431868076324462890625</LongitudeDegrees>
            </Position>
            <AltitudeMeters>1170.5999755859375</AltitudeMeters>
            <DistanceMeters>NAN</DistanceMeters>
          </Trackpoint>
          <Trackpoint>
            <Time>2021-08-03T09:45:46.000Z</Time>
            <Position>
              <LatitudeDegrees>-15.39446127600967884063720703125</LatitudeDegrees>
              <LongitudeDegrees>37.08679399453103542327880859375</LongitudeDegrees>
            </Position>
            <AltitudeMeters>1170.800048828125</AltitudeMeters>
            <DistanceMeters>NAN</DistanceMeters>
          </Trackpoint>
          <Trackpoint>
            <Time>2021-08-03T09:45:47.000Z</Time>
            <Position>
              <LatitudeDegrees>-15.39447083137929439544677734375</LatitudeDegrees>
              <LongitudeDegrees>37.0867888815701007843017578125</LongitudeDegrees>
            </Position>
            <AltitudeMeters>1170.800048828125</AltitudeMeters>
            <DistanceMeters>NAN</DistanceMeters>
          </Trackpoint>
          <Trackpoint>
            <Time>2021-08-03T09:45:48.000Z</Time>
            <Position>
              <LatitudeDegrees>-15.39448256604373455047607421875</LatitudeDegrees>
              <LongitudeDegrees>37.08678276278078556060791015625</LongitudeDegrees>
            </Position>
            <AltitudeMeters>1171.199951171875</AltitudeMeters>
            <DistanceMeters>NAN</DistanceMeters>
          </Trackpoint>
          <Trackpoint>
            <Time>2021-08-03T09:45:49.000Z</Time>
            <Position>
              <LatitudeDegrees>-15.39449044503271579742431640625</LatitudeDegrees>
              <LongitudeDegrees>37.0867774821817874908447265625</LongitudeDegrees>
            </Position>
            <AltitudeMeters>1171.4000244140625</AltitudeMeters>
            <DistanceMeters>NAN</DistanceMeters>
          </Trackpoint>
          <Trackpoint>
            <Time>2021-08-03T09:45:52.000Z</Time>
            <Position>
              <LatitudeDegrees>-15.39452145807445049285888671875</LatitudeDegrees>
              <LongitudeDegrees>37.0867659151554107666015625</LongitudeDegrees>
            </Position>
            <AltitudeMeters>1171.800048828125</AltitudeMeters>
            <DistanceMeters>NAN</DistanceMeters>
          </Trackpoint>
          <Trackpoint>
            <Time>2021-08-03T09:45:55.000Z</Time>
            <Position>
              <LatitudeDegrees>-15.3945512138307094573974609375</LatitudeDegrees>
              <LongitudeDegrees>37.086756862699985504150390625</LongitudeDegrees>
            </Position>
            <AltitudeMeters>1172.199951171875</AltitudeMeters>
            <DistanceMeters>NAN</DistanceMeters>
          </Trackpoint>
          <Trackpoint>
            <Time>2021-08-03T09:45:57.000Z</Time>
            <Position>
              <LatitudeDegrees>-15.39457091130316257476806640625</LatitudeDegrees>
              <LongitudeDegrees>37.0867506600916385650634765625</LongitudeDegrees>
            </Position>
            <AltitudeMeters>1172.4000244140625</AltitudeMeters>
            <DistanceMeters>NAN</DistanceMeters>
          </Trackpoint>
          <Trackpoint>
            <Time>2021-08-03T09:46:00.000Z</Time>
            <Position>
              <LatitudeDegrees>-15.3945944644510746002197265625</LatitudeDegrees>
              <LongitudeDegrees>37.0867444574832916259765625</LongitudeDegrees>
            </Position>
            <AltitudeMeters>1173</AltitudeMeters>
            <DistanceMeters>NAN</DistanceMeters>
          </Trackpoint>
          <Trackpoint>
            <Time>2021-08-03T09:46:03.000Z</Time>
            <Position>
              <LatitudeDegrees>-15.39461634121835231781005859375</LatitudeDegrees>
              <LongitudeDegrees>37.086731381714344024658203125</LongitudeDegrees>
            </Position>
            <AltitudeMeters>1173.4000244140625</AltitudeMeters>
            <DistanceMeters>NAN</DistanceMeters>
          </Trackpoint>
          <Trackpoint>
            <Time>2021-08-03T09:46:06.000Z</Time>
            <Position>
              <LatitudeDegrees>-15.39463796652853488922119140625</LatitudeDegrees>
              <LongitudeDegrees>37.08672241307795047760009765625</LongitudeDegrees>
            </Position>
            <AltitudeMeters>1174</AltitudeMeters>
            <DistanceMeters>NAN</DistanceMeters>
          </Trackpoint>
          <Trackpoint>
            <Time>2021-08-03T09:46:10.000Z</Time>
            <Position>
              <LatitudeDegrees>-15.3946722485125064849853515625</LatitudeDegrees>
              <LongitudeDegrees>37.086722664535045623779296875</LongitudeDegrees>
            </Position>
            <AltitudeMeters>1174.4000244140625</AltitudeMeters>
            <DistanceMeters>NAN</DistanceMeters>
          </Trackpoint>
          <Trackpoint>
            <Time>2021-08-03T09:46:13.000Z</Time>
            <Position>
              <LatitudeDegrees>-15.394701920449733734130859375</LatitudeDegrees>
              <LongitudeDegrees>37.08672978915274143218994140625</LongitudeDegrees>
            </Position>
            <AltitudeMeters>1174.5999755859375</AltitudeMeters>
            <DistanceMeters>NAN</DistanceMeters>
          </Trackpoint>
          <Trackpoint>
            <Time>2021-08-03T09:46:14.000Z</Time>
            <Position>
              <LatitudeDegrees>-15.3947116434574127197265625</LatitudeDegrees>
              <LongitudeDegrees>37.0867352373898029327392578125</LongitudeDegrees>
            </Position>
            <AltitudeMeters>1174.800048828125</AltitudeMeters>
            <DistanceMeters>NAN</DistanceMeters>
          </Trackpoint>
          <Trackpoint>
            <Time>2021-08-03T09:46:16.000Z</Time>
            <Position>
              <LatitudeDegrees>-15.3947232104837894439697265625</LatitudeDegrees>
              <LongitudeDegrees>37.08674110472202301025390625</LongitudeDegrees>
            </Position>
            <AltitudeMeters>1175.5999755859375</AltitudeMeters>
            <DistanceMeters>NAN</DistanceMeters>
          </Trackpoint>
          <Trackpoint>
            <Time>2021-08-03T09:46:19.000Z</Time>
            <Position>
              <LatitudeDegrees>-15.39475916884839534759521484375</LatitudeDegrees>
              <LongitudeDegrees>37.08674269728362560272216796875</LongitudeDegrees>
            </Position>
            <AltitudeMeters>1175.800048828125</AltitudeMeters>
            <DistanceMeters>NAN</DistanceMeters>
          </Trackpoint>
          <Trackpoint>
            <Time>2021-08-03T09:46:27.000Z</Time>
            <Position>
              <LatitudeDegrees>-15.39483142085373401641845703125</LatitudeDegrees>
              <LongitudeDegrees>37.08674219436943531036376953125</LongitudeDegrees>
            </Position>
            <AltitudeMeters>1176.5999755859375</AltitudeMeters>
            <DistanceMeters>NAN</DistanceMeters>
          </Trackpoint>
          <Trackpoint>
            <Time>2021-08-03T09:46:29.000Z</Time>
            <Position>
              <LatitudeDegrees>-15.394844077527523040771484375</LatitudeDegrees>
              <LongitudeDegrees>37.0867392607033252716064453125</LongitudeDegrees>
            </Position>
            <AltitudeMeters>1176.800048828125</AltitudeMeters>
            <DistanceMeters>NAN</DistanceMeters>
          </Trackpoint>
          <Trackpoint>
            <Time>2021-08-03T09:46:35.000Z</Time>
            <Position>
              <LatitudeDegrees>-15.39490417577326297760009765625</LatitudeDegrees>
              <LongitudeDegrees>37.086746133863925933837890625</LongitudeDegrees>
            </Position>
            <AltitudeMeters>1177.5999755859375</AltitudeMeters>
            <DistanceMeters>NAN</DistanceMeters>
          </Trackpoint>
          <Trackpoint>
            <Time>2021-08-03T09:46:37.000Z</Time>
            <Position>
              <LatitudeDegrees>-15.3949196822941303253173828125</LatitudeDegrees>
              <LongitudeDegrees>37.08674906753003597259521484375</LongitudeDegrees>
            </Position>
            <AltitudeMeters>1178</AltitudeMeters>
            <DistanceMeters>NAN</DistanceMeters>
          </Trackpoint>
          <Trackpoint>
            <Time>2021-08-03T09:46:45.000Z</Time>
            <Position>
              <LatitudeDegrees>-15.39499620907008647918701171875</LatitudeDegrees>
              <LongitudeDegrees>37.0867600478231906890869140625</LongitudeDegrees>
            </Position>
            <AltitudeMeters>1178.4000244140625</AltitudeMeters>
            <DistanceMeters>NAN</DistanceMeters>
          </Trackpoint>
          <Trackpoint>
            <Time>2021-08-03T09:46:51.000Z</Time>
            <Position>
              <LatitudeDegrees>-15.39505002088844776153564453125</LatitudeDegrees>
              <LongitudeDegrees>37.0867764763534069061279296875</LongitudeDegrees>
            </Position>
            <AltitudeMeters>1178.800048828125</AltitudeMeters>
            <DistanceMeters>NAN</DistanceMeters>
          </Trackpoint>
          <Trackpoint>
            <Time>2021-08-03T09:46:54.000Z</Time>
            <Position>
              <LatitudeDegrees>-15.3950752504169940948486328125</LatitudeDegrees>
              <LongitudeDegrees>37.08677890710532665252685546875</LongitudeDegrees>
            </Position>
            <AltitudeMeters>1178.800048828125</AltitudeMeters>
            <DistanceMeters>NAN</DistanceMeters>
          </Trackpoint>
          <Trackpoint>
            <Time>2021-08-03T09:47:01.000Z</Time>
            <Position>
              <LatitudeDegrees>-15.39513451047241687774658203125</LatitudeDegrees>
              <LongitudeDegrees>37.0868026278913021087646484375</LongitudeDegrees>
            </Position>
            <AltitudeMeters>1179.800048828125</AltitudeMeters>
            <DistanceMeters>NAN</DistanceMeters>
          </Trackpoint>
          <Trackpoint>
            <Time>2021-08-03T09:47:02.000Z</Time>
            <Position>
              <LatitudeDegrees>-15.3951434791088104248046875</LatitudeDegrees>
              <LongitudeDegrees>37.0868053101003170013427734375</LongitudeDegrees>
            </Position>
            <AltitudeMeters>1180</AltitudeMeters>
            <DistanceMeters>NAN</DistanceMeters>
          </Trackpoint>
          <Trackpoint>
            <Time>2021-08-03T09:47:05.000Z</Time>
            <Position>
              <LatitudeDegrees>-15.39517323486506938934326171875</LatitudeDegrees>
              <LongitudeDegrees>37.0868130214512348175048828125</LongitudeDegrees>
            </Position>
            <AltitudeMeters>1180</AltitudeMeters>
            <DistanceMeters>NAN</DistanceMeters>
          </Trackpoint>
          <Trackpoint>
            <Time>2021-08-03T09:47:11.000Z</Time>
            <Position>
              <LatitudeDegrees>-15.39521615020930767059326171875</LatitudeDegrees>
              <LongitudeDegrees>37.0868381671607494354248046875</LongitudeDegrees>
            </Position>
            <AltitudeMeters>1180.5999755859375</AltitudeMeters>
            <DistanceMeters>NAN</DistanceMeters>
          </Trackpoint>
          <Trackpoint>
            <Time>2021-08-03T09:47:14.000Z</Time>
            <Position>
              <LatitudeDegrees>-15.39524230174720287322998046875</LatitudeDegrees>
              <LongitudeDegrees>37.0868492312729358673095703125</LongitudeDegrees>
            </Position>
            <AltitudeMeters>1180.800048828125</AltitudeMeters>
            <DistanceMeters>NAN</DistanceMeters>
          </Trackpoint>
          <Trackpoint>
            <Time>2021-08-03T09:47:20.000Z</Time>
            <Position>
              <LatitudeDegrees>-15.39529443718492984771728515625</LatitudeDegrees>
              <LongitudeDegrees>37.086868174374103546142578125</LongitudeDegrees>
            </Position>
            <AltitudeMeters>1181.800048828125</AltitudeMeters>
            <DistanceMeters>NAN</DistanceMeters>
          </Trackpoint>
          <Trackpoint>
            <Time>2021-08-03T09:47:21.000Z</Time>
            <Position>
              <LatitudeDegrees>-15.395301394164562225341796875</LatitudeDegrees>
              <LongitudeDegrees>37.08687010221183300018310546875</LongitudeDegrees>
            </Position>
            <AltitudeMeters>1182</AltitudeMeters>
            <DistanceMeters>NAN</DistanceMeters>
          </Trackpoint>
          <Trackpoint>
            <Time>2021-08-03T09:47:27.000Z</Time>
            <Position>
              <LatitudeDegrees>-15.39535327814519405364990234375</LatitudeDegrees>
              <LongitudeDegrees>37.08688317798078060150146484375</LongitudeDegrees>
            </Position>
            <AltitudeMeters>1182.800048828125</AltitudeMeters>
            <DistanceMeters>NAN</DistanceMeters>
          </Trackpoint>
          <Trackpoint>
            <Time>2021-08-03T09:47:32.000Z</Time>
            <Position>
              <LatitudeDegrees>-15.3953971154987812042236328125</LatitudeDegrees>
              <LongitudeDegrees>37.0868894644081592559814453125</LongitudeDegrees>
            </Position>
            <AltitudeMeters>1183.199951171875</AltitudeMeters>
            <DistanceMeters>NAN</DistanceMeters>
          </Trackpoint>
          <Trackpoint>
            <Time>2021-08-03T09:47:34.000Z</Time>
            <Position>
              <LatitudeDegrees>-15.39541530422866344451904296875</LatitudeDegrees>
              <LongitudeDegrees>37.0868919789791107177734375</LongitudeDegrees>
            </Position>
            <AltitudeMeters>1183.199951171875</AltitudeMeters>
            <DistanceMeters>NAN</DistanceMeters>
          </Trackpoint>
          <Trackpoint>
            <Time>2021-08-03T09:47:38.000Z</Time>
            <Position>
              <LatitudeDegrees>-15.39545260369777679443359375</LatitudeDegrees>
              <LongitudeDegrees>37.08690128289163112640380859375</LongitudeDegrees>
            </Position>
            <AltitudeMeters>1183.199951171875</AltitudeMeters>
            <DistanceMeters>NAN</DistanceMeters>
          </Trackpoint>
          <Trackpoint>
            <Time>2021-08-03T09:47:40.000Z</Time>
            <Position>
              <LatitudeDegrees>-15.39547012187540531158447265625</LatitudeDegrees>
              <LongitudeDegrees>37.08690874278545379638671875</LongitudeDegrees>
            </Position>
            <AltitudeMeters>1183.199951171875</AltitudeMeters>
            <DistanceMeters>NAN</DistanceMeters>
          </Trackpoint>
          <Trackpoint>
            <Time>2021-08-03T09:47:47.000Z</Time>
            <Position>
              <LatitudeDegrees>-15.39553080685436725616455078125</LatitudeDegrees>
              <LongitudeDegrees>37.0869333855807781219482421875</LongitudeDegrees>
            </Position>
            <AltitudeMeters>1184</AltitudeMeters>
            <DistanceMeters>NAN</DistanceMeters>
          </Trackpoint>
          <Trackpoint>
            <Time>2021-08-03T09:47:48.000Z</Time>
            <Position>
              <LatitudeDegrees>-15.3955386020243167877197265625</LatitudeDegrees>
              <LongitudeDegrees>37.08693766035139560699462890625</LongitudeDegrees>
            </Position>
            <AltitudeMeters>1184</AltitudeMeters>
            <DistanceMeters>NAN</DistanceMeters>
          </Trackpoint>
          <Trackpoint>
            <Time>2021-08-03T09:47:49.000Z</Time>
            <Position>
              <LatitudeDegrees>-15.39554840885102748870849609375</LatitudeDegrees>
              <LongitudeDegrees>37.0869400911033153533935546875</LongitudeDegrees>
            </Position>
            <AltitudeMeters>1184.199951171875</AltitudeMeters>
            <DistanceMeters>NAN</DistanceMeters>
          </Trackpoint>
          <Trackpoint>
            <Time>2021-08-03T09:47:50.000Z</Time>
            <Position>
              <LatitudeDegrees>-15.395553521811962127685546875</LatitudeDegrees>
              <LongitudeDegrees>37.08694268949329853057861328125</LongitudeDegrees>
            </Position>
            <AltitudeMeters>1184.199951171875</AltitudeMeters>
            <DistanceMeters>NAN</DistanceMeters>
          </Trackpoint>
          <Trackpoint>
            <Time>2021-08-03T09:47:52.000Z</Time>
            <Position>
              <LatitudeDegrees>-15.395572297275066375732421875</LatitudeDegrees>
              <LongitudeDegrees>37.08694973029196262359619140625</LongitudeDegrees>
            </Position>
            <AltitudeMeters>1184.5999755859375</AltitudeMeters>
            <DistanceMeters>NAN</DistanceMeters>
          </Trackpoint>
          <Trackpoint>
            <Time>2021-08-03T09:47:55.000Z</Time>
            <Position>
              <LatitudeDegrees>-15.395601131021976470947265625</LatitudeDegrees>
              <LongitudeDegrees>37.08696029148995876312255859375</LongitudeDegrees>
            </Position>
            <AltitudeMeters>1184.800048828125</AltitudeMeters>
            <DistanceMeters>NAN</DistanceMeters>
          </Trackpoint>
          <Trackpoint>
            <Time>2021-08-03T09:47:58.000Z</Time>
            <Position>
              <LatitudeDegrees>-15.39563189260661602020263671875</LatitudeDegrees>
              <LongitudeDegrees>37.08696112968027591705322265625</LongitudeDegrees>
            </Position>
            <AltitudeMeters>1185.199951171875</AltitudeMeters>
            <DistanceMeters>NAN</DistanceMeters>
          </Trackpoint>
          <Trackpoint>
            <Time>2021-08-03T09:47:59.000Z</Time>
            <Position>
              <LatitudeDegrees>-15.395642705261707305908203125</LatitudeDegrees>
              <LongitudeDegrees>37.08696330897510051727294921875</LongitudeDegrees>
            </Position>
            <AltitudeMeters>1185.199951171875</AltitudeMeters>
            <DistanceMeters>NAN</DistanceMeters>
          </Trackpoint>
          <Trackpoint>
            <Time>2021-08-03T09:48:06.000Z</Time>
            <Position>
              <LatitudeDegrees>-15.3957069106400012969970703125</LatitudeDegrees>
              <LongitudeDegrees>37.08698024041950702667236328125</LongitudeDegrees>
            </Position>
            <AltitudeMeters>1186</AltitudeMeters>
            <DistanceMeters>NAN</DistanceMeters>
          </Trackpoint>
          <Trackpoint>
            <Time>2021-08-03T09:48:08.000Z</Time>
            <Position>
              <LatitudeDegrees>-15.39572258479893207550048828125</LatitudeDegrees>
              <LongitudeDegrees>37.0869860239326953887939453125</LongitudeDegrees>
            </Position>
            <AltitudeMeters>1186</AltitudeMeters>
            <DistanceMeters>NAN</DistanceMeters>
          </Trackpoint>
          <Trackpoint>
            <Time>2021-08-03T09:48:12.000Z</Time>
            <Position>
              <LatitudeDegrees>-15.39576214738190174102783203125</LatitudeDegrees>
              <LongitudeDegrees>37.08699725568294525146484375</LongitudeDegrees>
            </Position>
            <AltitudeMeters>1186.4000244140625</AltitudeMeters>
            <DistanceMeters>NAN</DistanceMeters>
          </Trackpoint>
          <Trackpoint>
            <Time>2021-08-03T09:48:14.000Z</Time>
            <Position>
              <LatitudeDegrees>-15.3957813419401645660400390625</LatitudeDegrees>
              <LongitudeDegrees>37.08700337447226047515869140625</LongitudeDegrees>
            </Position>
            <AltitudeMeters>1186.5999755859375</AltitudeMeters>
            <DistanceMeters>NAN</DistanceMeters>
          </Trackpoint>
          <Trackpoint>
            <Time>2021-08-03T09:48:16.000Z</Time>
            <Position>
              <LatitudeDegrees>-15.39580221287906169891357421875</LatitudeDegrees>
              <LongitudeDegrees>37.08700756542384624481201171875</LongitudeDegrees>
            </Position>
            <AltitudeMeters>1186.5999755859375</AltitudeMeters>
            <DistanceMeters>NAN</DistanceMeters>
          </Trackpoint>
          <Trackpoint>
            <Time>2021-08-03T09:48:17.000Z</Time>
            <Position>
              <LatitudeDegrees>-15.39581193588674068450927734375</LatitudeDegrees>
              <LongitudeDegrees>37.0870115049183368682861328125</LongitudeDegrees>
            </Position>
            <AltitudeMeters>1186.5999755859375</AltitudeMeters>
            <DistanceMeters>NAN</DistanceMeters>
          </Trackpoint>
          <Trackpoint>
            <Time>2021-08-03T09:48:20.000Z</Time>
            <Position>
              <LatitudeDegrees>-15.39584697224199771881103515625</LatitudeDegrees>
              <LongitudeDegrees>37.0870165340602397918701171875</LongitudeDegrees>
            </Position>
            <AltitudeMeters>1187.199951171875</AltitudeMeters>
            <DistanceMeters>NAN</DistanceMeters>
          </Trackpoint>
          <Trackpoint>
            <Time>2021-08-03T09:48:23.000Z</Time>
            <Position>
              <LatitudeDegrees>-15.39587815292179584503173828125</LatitudeDegrees>
              <LongitudeDegrees>37.08702499978244304656982421875</LongitudeDegrees>
            </Position>
            <AltitudeMeters>1187.4000244140625</AltitudeMeters>
            <DistanceMeters>NAN</DistanceMeters>
          </Trackpoint>
          <Trackpoint>
            <Time>2021-08-03T09:48:27.000Z</Time>
            <Position>
              <LatitudeDegrees>-15.39591939188539981842041015625</LatitudeDegrees>
              <LongitudeDegrees>37.0870286040008068084716796875</LongitudeDegrees>
            </Position>
            <AltitudeMeters>1187.800048828125</AltitudeMeters>
            <DistanceMeters>NAN</DistanceMeters>
          </Trackpoint>
          <Trackpoint>
            <Time>2021-08-03T09:48:38.000Z</Time>
            <Position>
              <LatitudeDegrees>-15.39603740908205509185791015625</LatitudeDegrees>
              <LongitudeDegrees>37.08705701865255832672119140625</LongitudeDegrees>
            </Position>
            <AltitudeMeters>1188.5999755859375</AltitudeMeters>
            <DistanceMeters>NAN</DistanceMeters>
          </Trackpoint>
          <Trackpoint>
            <Time>2021-08-03T09:48:47.000Z</Time>
            <Position>
              <LatitudeDegrees>-15.39613748900592327117919921875</LatitudeDegrees>
              <LongitudeDegrees>37.087078392505645751953125</LongitudeDegrees>
            </Position>
            <AltitudeMeters>1189.199951171875</AltitudeMeters>
            <DistanceMeters>NAN</DistanceMeters>
          </Trackpoint>
          <Trackpoint>
            <Time>2021-08-03T09:48:50.000Z</Time>
            <Position>
              <LatitudeDegrees>-15.39616062305867671966552734375</LatitudeDegrees>
              <LongitudeDegrees>37.08707110024988651275634765625</LongitudeDegrees>
            </Position>
            <AltitudeMeters>1189.5999755859375</AltitudeMeters>
            <DistanceMeters>NAN</DistanceMeters>
          </Trackpoint>
          <Trackpoint>
            <Time>2021-08-03T09:48:56.000Z</Time>
            <Position>
              <LatitudeDegrees>-15.396225750446319580078125</LatitudeDegrees>
              <LongitudeDegrees>37.0870674960315227508544921875</LongitudeDegrees>
            </Position>
            <AltitudeMeters>1190.4000244140625</AltitudeMeters>
            <DistanceMeters>NAN</DistanceMeters>
          </Trackpoint>
          <Trackpoint>
            <Time>2021-08-03T09:48:59.000Z</Time>
            <Position>
              <LatitudeDegrees>-15.39626573212444782257080078125</LatitudeDegrees>
              <LongitudeDegrees>37.0870674960315227508544921875</LongitudeDegrees>
            </Position>
            <AltitudeMeters>1190.800048828125</AltitudeMeters>
            <DistanceMeters>NAN</DistanceMeters>
          </Trackpoint>
          <Trackpoint>
            <Time>2021-08-03T09:49:05.000Z</Time>
            <Position>
              <LatitudeDegrees>-15.39632457308471202850341796875</LatitudeDegrees>
              <LongitudeDegrees>37.0870688371360301971435546875</LongitudeDegrees>
            </Position>
            <AltitudeMeters>1191.800048828125</AltitudeMeters>
            <DistanceMeters>NAN</DistanceMeters>
          </Trackpoint>
          <Trackpoint>
            <Time>2021-08-03T09:49:08.000Z</Time>
            <Position>
              <LatitudeDegrees>-15.39635575376451015472412109375</LatitudeDegrees>
              <LongitudeDegrees>37.087068669497966766357421875</LongitudeDegrees>
            </Position>
            <AltitudeMeters>1191.5999755859375</AltitudeMeters>
            <DistanceMeters>NAN</DistanceMeters>
          </Trackpoint>
          <Trackpoint>
            <Time>2021-08-03T09:49:10.000Z</Time>
            <Position>
              <LatitudeDegrees>-15.39637930691242218017578125</LatitudeDegrees>
              <LongitudeDegrees>37.08706640638411045074462890625</LongitudeDegrees>
            </Position>
            <AltitudeMeters>1191.800048828125</AltitudeMeters>
            <DistanceMeters>NAN</DistanceMeters>
          </Trackpoint>
          <Trackpoint>
            <Time>2021-08-03T09:49:11.000Z</Time>
            <Position>
              <LatitudeDegrees>-15.39638827554881572723388671875</LatitudeDegrees>
              <LongitudeDegrees>37.0870638079941272735595703125</LongitudeDegrees>
            </Position>
            <AltitudeMeters>1191.800048828125</AltitudeMeters>
            <DistanceMeters>NAN</DistanceMeters>
          </Trackpoint>
          <Trackpoint>
            <Time>2021-08-03T09:49:13.000Z</Time>
            <Position>
              <LatitudeDegrees>-15.39640939794480800628662109375</LatitudeDegrees>
              <LongitudeDegrees>37.08705852739512920379638671875</LongitudeDegrees>
            </Position>
            <AltitudeMeters>1191.800048828125</AltitudeMeters>
            <DistanceMeters>NAN</DistanceMeters>
          </Trackpoint>
          <Trackpoint>
            <Time>2021-08-03T09:49:21.000Z</Time>
            <Position>
              <LatitudeDegrees>-15.3964800573885440826416015625</LatitudeDegrees>
              <LongitudeDegrees>37.08702407777309417724609375</LongitudeDegrees>
            </Position>
            <AltitudeMeters>1192.800048828125</AltitudeMeters>
            <DistanceMeters>NAN</DistanceMeters>
          </Trackpoint>
          <Trackpoint>
            <Time>2021-08-03T09:49:23.000Z</Time>
            <Position>
              <LatitudeDegrees>-15.3964953124523162841796875</LatitudeDegrees>
              <LongitudeDegrees>37.08701158873736858367919921875</LongitudeDegrees>
            </Position>
            <AltitudeMeters>1192.800048828125</AltitudeMeters>
            <DistanceMeters>NAN</DistanceMeters>
          </Trackpoint>
          <Trackpoint>
            <Time>2021-08-03T09:49:32.000Z</Time>
            <Position>
              <LatitudeDegrees>-15.39654719643294811248779296875</LatitudeDegrees>
              <LongitudeDegrees>37.08693129010498523712158203125</LongitudeDegrees>
            </Position>
            <AltitudeMeters>1193.199951171875</AltitudeMeters>
            <DistanceMeters>NAN</DistanceMeters>
          </Trackpoint>
          <Trackpoint>
            <Time>2021-08-03T09:49:38.000Z</Time>
            <Position>
              <LatitudeDegrees>-15.39656949229538440704345703125</LatitudeDegrees>
              <LongitudeDegrees>37.0868673361837863922119140625</LongitudeDegrees>
            </Position>
            <AltitudeMeters>1193.5999755859375</AltitudeMeters>
            <DistanceMeters>NAN</DistanceMeters>
          </Trackpoint>
          <Trackpoint>
            <Time>2021-08-03T09:49:44.000Z</Time>
            <Position>
              <LatitudeDegrees>-15.396576113998889923095703125</LatitudeDegrees>
              <LongitudeDegrees>37.08679919131100177764892578125</LongitudeDegrees>
            </Position>
            <AltitudeMeters>1193.800048828125</AltitudeMeters>
            <DistanceMeters>NAN</DistanceMeters>
          </Trackpoint>
          <Trackpoint>
            <Time>2021-08-03T09:49:53.000Z</Time>
            <Position>
              <LatitudeDegrees>-15.396545939147472381591796875</LatitudeDegrees>
              <LongitudeDegrees>37.086698524653911590576171875</LongitudeDegrees>
            </Position>
            <AltitudeMeters>1194</AltitudeMeters>
            <DistanceMeters>NAN</DistanceMeters>
          </Trackpoint>
          <Trackpoint>
            <Time>2021-08-03T09:49:56.000Z</Time>
            <Position>
              <LatitudeDegrees>-15.39653445594012737274169921875</LatitudeDegrees>
              <LongitudeDegrees>37.08666524849832057952880859375</LongitudeDegrees>
            </Position>
            <AltitudeMeters>1194.199951171875</AltitudeMeters>
            <DistanceMeters>NAN</DistanceMeters>
          </Trackpoint>
          <Trackpoint>
            <Time>2021-08-03T09:49:57.000Z</Time>
            <Position>
              <LatitudeDegrees>-15.39652607403695583343505859375</LatitudeDegrees>
              <LongitudeDegrees>37.08665661513805389404296875</LongitudeDegrees>
            </Position>
            <AltitudeMeters>1194.199951171875</AltitudeMeters>
            <DistanceMeters>NAN</DistanceMeters>
          </Trackpoint>
          <Trackpoint>
            <Time>2021-08-03T09:49:59.000Z</Time>
            <Position>
              <LatitudeDegrees>-15.39651048369705677032470703125</LatitudeDegrees>
              <LongitudeDegrees>37.0866363309323787689208984375</LongitudeDegrees>
            </Position>
            <AltitudeMeters>1194.4000244140625</AltitudeMeters>
            <DistanceMeters>NAN</DistanceMeters>
          </Trackpoint>
          <Trackpoint>
            <Time>2021-08-03T09:50:02.000Z</Time>
            <Position>
              <LatitudeDegrees>-15.3964914567768573760986328125</LatitudeDegrees>
              <LongitudeDegrees>37.0866105146706104278564453125</LongitudeDegrees>
            </Position>
            <AltitudeMeters>1194.4000244140625</AltitudeMeters>
            <DistanceMeters>NAN</DistanceMeters>
          </Trackpoint>
          <Trackpoint>
            <Time>2021-08-03T09:50:03.000Z</Time>
            <Position>
              <LatitudeDegrees>-15.396483577787876129150390625</LatitudeDegrees>
              <LongitudeDegrees>37.08660389296710491180419921875</LongitudeDegrees>
            </Position>
            <AltitudeMeters>1194.4000244140625</AltitudeMeters>
            <DistanceMeters>NAN</DistanceMeters>
          </Trackpoint>
          <Trackpoint>
            <Time>2021-08-03T09:50:07.000Z</Time>
            <Position>
              <LatitudeDegrees>-15.39644409902393817901611328125</LatitudeDegrees>
              <LongitudeDegrees>37.08658025600016117095947265625</LongitudeDegrees>
            </Position>
            <AltitudeMeters>1194.5999755859375</AltitudeMeters>
            <DistanceMeters>NAN</DistanceMeters>
          </Trackpoint>
          <Trackpoint>
            <Time>2021-08-03T09:50:11.000Z</Time>
            <Position>
              <LatitudeDegrees>-15.396407805383205413818359375</LatitudeDegrees>
              <LongitudeDegrees>37.0865592174232006072998046875</LongitudeDegrees>
            </Position>
            <AltitudeMeters>1194.800048828125</AltitudeMeters>
            <DistanceMeters>NAN</DistanceMeters>
          </Trackpoint>
          <Trackpoint>
            <Time>2021-08-03T09:50:14.000Z</Time>
            <Position>
              <LatitudeDegrees>-15.39638123475015163421630859375</LatitudeDegrees>
              <LongitudeDegrees>37.08654505200684070587158203125</LongitudeDegrees>
            </Position>
            <AltitudeMeters>1195</AltitudeMeters>
            <DistanceMeters>NAN</DistanceMeters>
          </Trackpoint>
          <Trackpoint>
            <Time>2021-08-03T09:50:15.000Z</Time>
            <Position>
              <LatitudeDegrees>-15.396370925009250640869140625</LatitudeDegrees>
              <LongitudeDegrees>37.0865380950272083282470703125</LongitudeDegrees>
            </Position>
            <AltitudeMeters>1195.199951171875</AltitudeMeters>
            <DistanceMeters>NAN</DistanceMeters>
          </Trackpoint>
          <Trackpoint>
            <Time>2021-08-03T09:50:21.000Z</Time>
            <Position>
              <LatitudeDegrees>-15.39632407017052173614501953125</LatitudeDegrees>
              <LongitudeDegrees>37.08650163374841213226318359375</LongitudeDegrees>
            </Position>
            <AltitudeMeters>1195.800048828125</AltitudeMeters>
            <DistanceMeters>NAN</DistanceMeters>
          </Trackpoint>
          <Trackpoint>
            <Time>2021-08-03T09:50:26.000Z</Time>
            <Position>
              <LatitudeDegrees>-15.396283753216266632080078125</LatitudeDegrees>
              <LongitudeDegrees>37.08647062070667743682861328125</LongitudeDegrees>
            </Position>
            <AltitudeMeters>1196.4000244140625</AltitudeMeters>
            <DistanceMeters>NAN</DistanceMeters>
          </Trackpoint>
          <Trackpoint>
            <Time>2021-08-03T09:50:34.000Z</Time>
            <Position>
              <LatitudeDegrees>-15.39621879346668720245361328125</LatitudeDegrees>
              <LongitudeDegrees>37.0864080078899860382080078125</LongitudeDegrees>
            </Position>
            <AltitudeMeters>1196.800048828125</AltitudeMeters>
            <DistanceMeters>NAN</DistanceMeters>
          </Trackpoint>
          <Trackpoint>
            <Time>2021-08-03T09:50:36.000Z</Time>
            <Position>
              <LatitudeDegrees>-15.39620638824999332427978515625</LatitudeDegrees>
              <LongitudeDegrees>37.08639183081686496734619140625</LongitudeDegrees>
            </Position>
            <AltitudeMeters>1197</AltitudeMeters>
            <DistanceMeters>NAN</DistanceMeters>
          </Trackpoint>
          <Trackpoint>
            <Time>2021-08-03T09:50:37.000Z</Time>
            <Position>
              <LatitudeDegrees>-15.39620094001293182373046875</LatitudeDegrees>
              <LongitudeDegrees>37.086383365094661712646484375</LongitudeDegrees>
            </Position>
            <AltitudeMeters>1197</AltitudeMeters>
            <DistanceMeters>NAN</DistanceMeters>
          </Trackpoint>
          <Trackpoint>
            <Time>2021-08-03T09:50:43.000Z</Time>
            <Position>
              <LatitudeDegrees>-15.39615944959223270416259765625</LatitudeDegrees>
              <LongitudeDegrees>37.08633475005626678466796875</LongitudeDegrees>
            </Position>
            <AltitudeMeters>1197.5999755859375</AltitudeMeters>
            <DistanceMeters>NAN</DistanceMeters>
          </Trackpoint>
          <Trackpoint>
            <Time>2021-08-03T09:50:47.000Z</Time>
            <Position>
              <LatitudeDegrees>-15.39613212458789348602294921875</LatitudeDegrees>
              <LongitudeDegrees>37.0862990431487560272216796875</LongitudeDegrees>
            </Position>
            <AltitudeMeters>1197.800048828125</AltitudeMeters>
            <DistanceMeters>NAN</DistanceMeters>
          </Trackpoint>
          <Trackpoint>
            <Time>2021-08-03T09:50:50.000Z</Time>
            <Position>
              <LatitudeDegrees>-15.39611033163964748382568359375</LatitudeDegrees>
              <LongitudeDegrees>37.08627196960151195526123046875</LongitudeDegrees>
            </Position>
            <AltitudeMeters>1198</AltitudeMeters>
            <DistanceMeters>NAN</DistanceMeters>
          </Trackpoint>
          <Trackpoint>
            <Time>2021-08-03T09:50:57.000Z</Time>
            <Position>
              <LatitudeDegrees>-15.39607529528439044952392578125</LatitudeDegrees>
              <LongitudeDegrees>37.08621061407029628753662109375</LongitudeDegrees>
            </Position>
            <AltitudeMeters>1198.4000244140625</AltitudeMeters>
            <DistanceMeters>NAN</DistanceMeters>
          </Trackpoint>
          <Trackpoint>
            <Time>2021-08-03T09:51:05.000Z</Time>
            <Position>
              <LatitudeDegrees>-15.3960361517965793609619140625</LatitudeDegrees>
              <LongitudeDegrees>37.08613819442689418792724609375</LongitudeDegrees>
            </Position>
            <AltitudeMeters>1199</AltitudeMeters>
            <DistanceMeters>NAN</DistanceMeters>
          </Trackpoint>
          <Trackpoint>
            <Time>2021-08-03T09:51:07.000Z</Time>
            <Position>
              <LatitudeDegrees>-15.39603036828339099884033203125</LatitudeDegrees>
              <LongitudeDegrees>37.08611858077347278594970703125</LongitudeDegrees>
            </Position>
            <AltitudeMeters>1199.199951171875</AltitudeMeters>
            <DistanceMeters>NAN</DistanceMeters>
          </Trackpoint>
          <Trackpoint>
            <Time>2021-08-03T09:51:15.000Z</Time>
            <Position>
              <LatitudeDegrees>-15.39600924588739871978759765625</LatitudeDegrees>
              <LongitudeDegrees>37.0860442332923412322998046875</LongitudeDegrees>
            </Position>
            <AltitudeMeters>1200.4000244140625</AltitudeMeters>
            <DistanceMeters>NAN</DistanceMeters>
          </Trackpoint>
          <Trackpoint>
            <Time>2021-08-03T09:51:16.000Z</Time>
            <Position>
              <LatitudeDegrees>-15.39600840769708156585693359375</LatitudeDegrees>
              <LongitudeDegrees>37.08603492937982082366943359375</LongitudeDegrees>
            </Position>
            <AltitudeMeters>1200.4000244140625</AltitudeMeters>
            <DistanceMeters>NAN</DistanceMeters>
          </Trackpoint>
          <Trackpoint>
            <Time>2021-08-03T09:51:24.000Z</Time>
            <Position>
              <LatitudeDegrees>-15.3960016183555126190185546875</LatitudeDegrees>
              <LongitudeDegrees>37.085951864719390869140625</LongitudeDegrees>
            </Position>
            <AltitudeMeters>1201.4000244140625</AltitudeMeters>
            <DistanceMeters>NAN</DistanceMeters>
          </Trackpoint>
          <Trackpoint>
            <Time>2021-08-03T09:51:26.000Z</Time>
            <Position>
              <LatitudeDegrees>-15.3960044682025909423828125</LatitudeDegrees>
              <LongitudeDegrees>37.08593082614243030548095703125</LongitudeDegrees>
            </Position>
            <AltitudeMeters>1201.5999755859375</AltitudeMeters>
            <DistanceMeters>NAN</DistanceMeters>
          </Trackpoint>
          <Trackpoint>
            <Time>2021-08-03T09:51:29.000Z</Time>
            <Position>
              <LatitudeDegrees>-15.3960100002586841583251953125</LatitudeDegrees>
              <LongitudeDegrees>37.08589595742523670196533203125</LongitudeDegrees>
            </Position>
            <AltitudeMeters>1201.800048828125</AltitudeMeters>
            <DistanceMeters>NAN</DistanceMeters>
          </Trackpoint>
          <Trackpoint>
            <Time>2021-08-03T09:51:30.000Z</Time>
            <Position>
              <LatitudeDegrees>-15.39601276628673076629638671875</LatitudeDegrees>
              <LongitudeDegrees>37.085883803665637969970703125</LongitudeDegrees>
            </Position>
            <AltitudeMeters>1201.800048828125</AltitudeMeters>
            <DistanceMeters>NAN</DistanceMeters>
          </Trackpoint>
          <Trackpoint>
            <Time>2021-08-03T09:51:36.000Z</Time>
            <Position>
              <LatitudeDegrees>-15.3960277698934078216552734375</LatitudeDegrees>
              <LongitudeDegrees>37.085813395678997039794921875</LongitudeDegrees>
            </Position>
            <AltitudeMeters>1202.4000244140625</AltitudeMeters>
            <DistanceMeters>NAN</DistanceMeters>
          </Trackpoint>
          <Trackpoint>
            <Time>2021-08-03T09:51:39.000Z</Time>
            <Position>
              <LatitudeDegrees>-15.3960287757217884063720703125</LatitudeDegrees>
              <LongitudeDegrees>37.0857810415327548980712890625</LongitudeDegrees>
            </Position>
            <AltitudeMeters>1202.4000244140625</AltitudeMeters>
            <DistanceMeters>NAN</DistanceMeters>
          </Trackpoint>
          <Trackpoint>
            <Time>2021-08-03T09:51:48.000Z</Time>
            <Position>
              <LatitudeDegrees>-15.39605953730642795562744140625</LatitudeDegrees>
              <LongitudeDegrees>37.08567316643893718719482421875</LongitudeDegrees>
            </Position>
            <AltitudeMeters>1202.800048828125</AltitudeMeters>
            <DistanceMeters>NAN</DistanceMeters>
          </Trackpoint>
          <Trackpoint>
            <Time>2021-08-03T09:51:52.000Z</Time>
            <Position>
              <LatitudeDegrees>-15.39608233608305454254150390625</LatitudeDegrees>
              <LongitudeDegrees>37.0856264792382717132568359375</LongitudeDegrees>
            </Position>
            <AltitudeMeters>1203.199951171875</AltitudeMeters>
            <DistanceMeters>NAN</DistanceMeters>
          </Trackpoint>
          <Trackpoint>
            <Time>2021-08-03T09:51:54.000Z</Time>
            <Position>
              <LatitudeDegrees>-15.396091639995574951171875</LatitudeDegrees>
              <LongitudeDegrees>37.085602842271327972412109375</LongitudeDegrees>
            </Position>
            <AltitudeMeters>1203.199951171875</AltitudeMeters>
            <DistanceMeters>NAN</DistanceMeters>
          </Trackpoint>
          <Trackpoint>
            <Time>2021-08-03T09:51:56.000Z</Time>
            <Position>
              <LatitudeDegrees>-15.3961011953651905059814453125</LatitudeDegrees>
              <LongitudeDegrees>37.08558549173176288604736328125</LongitudeDegrees>
            </Position>
            <AltitudeMeters>1203.4000244140625</AltitudeMeters>
            <DistanceMeters>NAN</DistanceMeters>
          </Trackpoint>
          <Trackpoint>
            <Time>2021-08-03T09:51:58.000Z</Time>
            <Position>
              <LatitudeDegrees>-15.39611033163964748382568359375</LatitudeDegrees>
              <LongitudeDegrees>37.08556420169770717620849609375</LongitudeDegrees>
            </Position>
            <AltitudeMeters>1203.5999755859375</AltitudeMeters>
            <DistanceMeters>NAN</DistanceMeters>
          </Trackpoint>
          <Trackpoint>
            <Time>2021-08-03T09:52:02.000Z</Time>
            <Position>
              <LatitudeDegrees>-15.3961216472089290618896484375</LatitudeDegrees>
              <LongitudeDegrees>37.085509635508060455322265625</LongitudeDegrees>
            </Position>
            <AltitudeMeters>1203.800048828125</AltitudeMeters>
            <DistanceMeters>NAN</DistanceMeters>
          </Trackpoint>
          <Trackpoint>
            <Time>2021-08-03T09:52:04.000Z</Time>
            <Position>
              <LatitudeDegrees>-15.39612340740859508514404296875</LatitudeDegrees>
              <LongitudeDegrees>37.08548289723694324493408203125</LongitudeDegrees>
            </Position>
            <AltitudeMeters>1203.5999755859375</AltitudeMeters>
            <DistanceMeters>NAN</DistanceMeters>
          </Trackpoint>
          <Trackpoint>
            <Time>2021-08-03T09:52:08.000Z</Time>
            <Position>
              <LatitudeDegrees>-15.39615106768906116485595703125</LatitudeDegrees>
              <LongitudeDegrees>37.085461355745792388916015625</LongitudeDegrees>
            </Position>
            <AltitudeMeters>1204</AltitudeMeters>
            <DistanceMeters>NAN</DistanceMeters>
          </Trackpoint>
          <Trackpoint>
            <Time>2021-08-03T09:52:11.000Z</Time>
            <Position>
              <LatitudeDegrees>-15.3962054662406444549560546875</LatitudeDegrees>
              <LongitudeDegrees>37.08542640320956707000732421875</LongitudeDegrees>
            </Position>
            <AltitudeMeters>1204.4000244140625</AltitudeMeters>
            <DistanceMeters>NAN</DistanceMeters>
          </Trackpoint>
          <Trackpoint>
            <Time>2021-08-03T09:52:19.000Z</Time>
            <Position>
              <LatitudeDegrees>-15.3962557576596736907958984375</LatitudeDegrees>
              <LongitudeDegrees>37.08534208126366138458251953125</LongitudeDegrees>
            </Position>
            <AltitudeMeters>1205.4000244140625</AltitudeMeters>
            <DistanceMeters>NAN</DistanceMeters>
          </Trackpoint>
          <Trackpoint>
            <Time>2021-08-03T09:52:20.000Z</Time>
            <Position>
              <LatitudeDegrees>-15.39625718258321285247802734375</LatitudeDegrees>
              <LongitudeDegrees>37.08533721975982189178466796875</LongitudeDegrees>
            </Position>
            <AltitudeMeters>1205.5999755859375</AltitudeMeters>
            <DistanceMeters>NAN</DistanceMeters>
          </Trackpoint>
          <Trackpoint>
            <Time>2021-08-03T09:52:22.000Z</Time>
            <Position>
              <LatitudeDegrees>-15.3962560929358005523681640625</LatitudeDegrees>
              <LongitudeDegrees>37.085334956645965576171875</LongitudeDegrees>
            </Position>
            <AltitudeMeters>1205.5999755859375</AltitudeMeters>
            <DistanceMeters>NAN</DistanceMeters>
          </Trackpoint>
          <Trackpoint>
            <Time>2021-08-03T09:52:29.000Z</Time>
            <Position>
              <LatitudeDegrees>-15.3963328711688518524169921875</LatitudeDegrees>
              <LongitudeDegrees>37.0852719247341156005859375</LongitudeDegrees>
            </Position>
            <AltitudeMeters>1205.5999755859375</AltitudeMeters>
            <DistanceMeters>NAN</DistanceMeters>
          </Trackpoint>
          <Trackpoint>
            <Time>2021-08-03T09:52:36.000Z</Time>
            <Position>
              <LatitudeDegrees>-15.39640420116484165191650390625</LatitudeDegrees>
              <LongitudeDegrees>37.08520260639488697052001953125</LongitudeDegrees>
            </Position>
            <AltitudeMeters>1206.199951171875</AltitudeMeters>
            <DistanceMeters>NAN</DistanceMeters>
          </Trackpoint>
          <Trackpoint>
            <Time>2021-08-03T09:52:42.000Z</Time>
            <Position>
              <LatitudeDegrees>-15.39647628553211688995361328125</LatitudeDegrees>
              <LongitudeDegrees>37.0851560868322849273681640625</LongitudeDegrees>
            </Position>
            <AltitudeMeters>1206.5999755859375</AltitudeMeters>
            <DistanceMeters>NAN</DistanceMeters>
          </Trackpoint>
          <Trackpoint>
            <Time>2021-08-03T09:52:50.000Z</Time>
            <Position>
              <LatitudeDegrees>-15.3965249843895435333251953125</LatitudeDegrees>
              <LongitudeDegrees>37.08508425392210483551025390625</LongitudeDegrees>
            </Position>
            <AltitudeMeters>1207.5999755859375</AltitudeMeters>
            <DistanceMeters>NAN</DistanceMeters>
          </Trackpoint>
          <Trackpoint>
            <Time>2021-08-03T09:52:52.000Z</Time>
            <Position>
              <LatitudeDegrees>-15.39653613232076168060302734375</LatitudeDegrees>
              <LongitudeDegrees>37.08506874740123748779296875</LongitudeDegrees>
            </Position>
            <AltitudeMeters>1207.5999755859375</AltitudeMeters>
            <DistanceMeters>NAN</DistanceMeters>
          </Trackpoint>
          <Trackpoint>
            <Time>2021-08-03T09:52:56.000Z</Time>
            <Position>
              <LatitudeDegrees>-15.39657100103795528411865234375</LatitudeDegrees>
              <LongitudeDegrees>37.08502993918955326080322265625</LongitudeDegrees>
            </Position>
            <AltitudeMeters>1208</AltitudeMeters>
            <DistanceMeters>NAN</DistanceMeters>
          </Trackpoint>
          <Trackpoint>
            <Time>2021-08-03T09:53:02.000Z</Time>
            <Position>
              <LatitudeDegrees>-15.3966024331748485565185546875</LatitudeDegrees>
              <LongitudeDegrees>37.08497327752411365509033203125</LongitudeDegrees>
            </Position>
            <AltitudeMeters>1208.5999755859375</AltitudeMeters>
            <DistanceMeters>NAN</DistanceMeters>
          </Trackpoint>
          <Trackpoint>
            <Time>2021-08-03T09:53:03.000Z</Time>
            <Position>
              <LatitudeDegrees>-15.39660955779254436492919921875</LatitudeDegrees>
              <LongitudeDegrees>37.084964476525783538818359375</LongitudeDegrees>
            </Position>
            <AltitudeMeters>1208.5999755859375</AltitudeMeters>
            <DistanceMeters>NAN</DistanceMeters>
          </Trackpoint>
          <Trackpoint>
            <Time>2021-08-03T09:53:09.000Z</Time>
            <Position>
              <LatitudeDegrees>-15.3966399841010570526123046875</LatitudeDegrees>
              <LongitudeDegrees>37.084904126822948455810546875</LongitudeDegrees>
            </Position>
            <AltitudeMeters>1209.199951171875</AltitudeMeters>
            <DistanceMeters>NAN</DistanceMeters>
          </Trackpoint>
          <Trackpoint>
            <Time>2021-08-03T09:53:18.000Z</Time>
            <Position>
              <LatitudeDegrees>-15.3967124037444591522216796875</LatitudeDegrees>
              <LongitudeDegrees>37.084805555641651153564453125</LongitudeDegrees>
            </Position>
            <AltitudeMeters>1209.5999755859375</AltitudeMeters>
            <DistanceMeters>NAN</DistanceMeters>
          </Trackpoint>
          <Trackpoint>
            <Time>2021-08-03T09:53:19.000Z</Time>
            <Position>
              <LatitudeDegrees>-15.39672204293310642242431640625</LatitudeDegrees>
              <LongitudeDegrees>37.08479507826268672943115234375</LongitudeDegrees>
            </Position>
            <AltitudeMeters>1209.5999755859375</AltitudeMeters>
            <DistanceMeters>NAN</DistanceMeters>
          </Trackpoint>
          <Trackpoint>
            <Time>2021-08-03T09:53:21.000Z</Time>
            <Position>
              <LatitudeDegrees>-15.39673763327300548553466796875</LatitudeDegrees>
              <LongitudeDegrees>37.0847765542566776275634765625</LongitudeDegrees>
            </Position>
            <AltitudeMeters>1209.800048828125</AltitudeMeters>
            <DistanceMeters>NAN</DistanceMeters>
          </Trackpoint>
          <Trackpoint>
            <Time>2021-08-03T09:53:27.000Z</Time>
            <Position>
              <LatitudeDegrees>-15.3967916965484619140625</LatitudeDegrees>
              <LongitudeDegrees>37.08472500555217266082763671875</LongitudeDegrees>
            </Position>
            <AltitudeMeters>1210</AltitudeMeters>
            <DistanceMeters>NAN</DistanceMeters>
          </Trackpoint>
          <Trackpoint>
            <Time>2021-08-03T09:53:37.000Z</Time>
            <Position>
              <LatitudeDegrees>-15.396853052079677581787109375</LatitudeDegrees>
              <LongitudeDegrees>37.08463020622730255126953125</LongitudeDegrees>
            </Position>
            <AltitudeMeters>1210.5999755859375</AltitudeMeters>
            <DistanceMeters>NAN</DistanceMeters>
          </Trackpoint>
          <Trackpoint>
            <Time>2021-08-03T09:53:49.000Z</Time>
            <Position>
              <LatitudeDegrees>-15.39692781865596771240234375</LatitudeDegrees>
              <LongitudeDegrees>37.0845155417919158935546875</LongitudeDegrees>
            </Position>
            <AltitudeMeters>1210.199951171875</AltitudeMeters>
            <DistanceMeters>NAN</DistanceMeters>
          </Trackpoint>
          <Trackpoint>
            <Time>2021-08-03T09:53:57.000Z</Time>
            <Position>
              <LatitudeDegrees>-15.3969890065491199493408203125</LatitudeDegrees>
              <LongitudeDegrees>37.084417976438999176025390625</LongitudeDegrees>
            </Position>
            <AltitudeMeters>1210.199951171875</AltitudeMeters>
            <DistanceMeters>NAN</DistanceMeters>
          </Trackpoint>
          <Trackpoint>
            <Time>2021-08-03T09:53:58.000Z</Time>
            <Position>
              <LatitudeDegrees>-15.39699621498584747314453125</LatitudeDegrees>
              <LongitudeDegrees>37.08440959453582763671875</LongitudeDegrees>
            </Position>
            <AltitudeMeters>1210.199951171875</AltitudeMeters>
            <DistanceMeters>NAN</DistanceMeters>
          </Trackpoint>
          <Trackpoint>
            <Time>2021-08-03T09:54:05.000Z</Time>
            <Position>
              <LatitudeDegrees>-15.39706335403025150299072265625</LatitudeDegrees>
              <LongitudeDegrees>37.08434781990945339202880859375</LongitudeDegrees>
            </Position>
            <AltitudeMeters>1210</AltitudeMeters>
            <DistanceMeters>NAN</DistanceMeters>
          </Trackpoint>
          <Trackpoint>
            <Time>2021-08-03T09:54:12.000Z</Time>
            <Position>
              <LatitudeDegrees>-15.39710626937448978424072265625</LatitudeDegrees>
              <LongitudeDegrees>37.084273137152194976806640625</LongitudeDegrees>
            </Position>
            <AltitudeMeters>1210.199951171875</AltitudeMeters>
            <DistanceMeters>NAN</DistanceMeters>
          </Trackpoint>
          <Trackpoint>
            <Time>2021-08-03T09:54:16.000Z</Time>
            <Position>
              <LatitudeDegrees>-15.39714717306196689605712890625</LatitudeDegrees>
              <LongitudeDegrees>37.08422862924635410308837890625</LongitudeDegrees>
            </Position>
            <AltitudeMeters>1210</AltitudeMeters>
            <DistanceMeters>NAN</DistanceMeters>
          </Trackpoint>
          <Trackpoint>
            <Time>2021-08-03T09:54:29.000Z</Time>
            <Position>
              <LatitudeDegrees>-15.39724222384393215179443359375</LatitudeDegrees>
              <LongitudeDegrees>37.0840969495475292205810546875</LongitudeDegrees>
            </Position>
            <AltitudeMeters>1210.4000244140625</AltitudeMeters>
            <DistanceMeters>NAN</DistanceMeters>
          </Trackpoint>
          <Trackpoint>
            <Time>2021-08-03T09:54:40.000Z</Time>
            <Position>
              <LatitudeDegrees>-15.39733308367431163787841796875</LatitudeDegrees>
              <LongitudeDegrees>37.083990834653377532958984375</LongitudeDegrees>
            </Position>
            <AltitudeMeters>1210.199951171875</AltitudeMeters>
            <DistanceMeters>NAN</DistanceMeters>
          </Trackpoint>
          <Trackpoint>
            <Time>2021-08-03T09:54:50.000Z</Time>
            <Position>
              <LatitudeDegrees>-15.39741220884025096893310546875</LatitudeDegrees>
              <LongitudeDegrees>37.08389637060463428497314453125</LongitudeDegrees>
            </Position>
            <AltitudeMeters>1210.800048828125</AltitudeMeters>
            <DistanceMeters>NAN</DistanceMeters>
          </Trackpoint>
          <Trackpoint>
            <Time>2021-08-03T09:54:52.000Z</Time>
            <Position>
              <LatitudeDegrees>-15.39742930792272090911865234375</LatitudeDegrees>
              <LongitudeDegrees>37.08387575112283229827880859375</LongitudeDegrees>
            </Position>
            <AltitudeMeters>1211</AltitudeMeters>
            <DistanceMeters>NAN</DistanceMeters>
          </Trackpoint>
          <Trackpoint>
            <Time>2021-08-03T09:55:02.000Z</Time>
            <Position>
              <LatitudeDegrees>-15.397510863840579986572265625</LatitudeDegrees>
              <LongitudeDegrees>37.08378908224403858184814453125</LongitudeDegrees>
            </Position>
            <AltitudeMeters>1211.5999755859375</AltitudeMeters>
            <DistanceMeters>NAN</DistanceMeters>
          </Trackpoint>
          <Trackpoint>
            <Time>2021-08-03T09:55:05.000Z</Time>
            <Position>
              <LatitudeDegrees>-15.39753927849233150482177734375</LatitudeDegrees>
              <LongitudeDegrees>37.08376921713352203369140625</LongitudeDegrees>
            </Position>
            <AltitudeMeters>1211.800048828125</AltitudeMeters>
            <DistanceMeters>NAN</DistanceMeters>
          </Trackpoint>
          <Trackpoint>
            <Time>2021-08-03T09:55:09.000Z</Time>
            <Position>
              <LatitudeDegrees>-15.39757196791470050811767578125</LatitudeDegrees>
              <LongitudeDegrees>37.083727978169918060302734375</LongitudeDegrees>
            </Position>
            <AltitudeMeters>1212.4000244140625</AltitudeMeters>
            <DistanceMeters>NAN</DistanceMeters>
          </Trackpoint>
          <Trackpoint>
            <Time>2021-08-03T09:55:11.000Z</Time>
            <Position>
              <LatitudeDegrees>-15.39758764207363128662109375</LatitudeDegrees>
              <LongitudeDegrees>37.0837046764791011810302734375</LongitudeDegrees>
            </Position>
            <AltitudeMeters>1213.199951171875</AltitudeMeters>
            <DistanceMeters>NAN</DistanceMeters>
          </Trackpoint>
          <Trackpoint>
            <Time>2021-08-03T09:55:13.000Z</Time>
            <Position>
              <LatitudeDegrees>-15.3976032324135303497314453125</LatitudeDegrees>
              <LongitudeDegrees>37.0836869068443775177001953125</LongitudeDegrees>
            </Position>
            <AltitudeMeters>1213.199951171875</AltitudeMeters>
            <DistanceMeters>NAN</DistanceMeters>
          </Trackpoint>
          <Trackpoint>
            <Time>2021-08-03T09:55:22.000Z</Time>
            <Position>
              <LatitudeDegrees>-15.39764841087162494659423828125</LatitudeDegrees>
              <LongitudeDegrees>37.083592526614665985107421875</LongitudeDegrees>
            </Position>
            <AltitudeMeters>1213.800048828125</AltitudeMeters>
            <DistanceMeters>NAN</DistanceMeters>
          </Trackpoint>
          <Trackpoint>
            <Time>2021-08-03T09:55:29.000Z</Time>
            <Position>
              <LatitudeDegrees>-15.39767942391335964202880859375</LatitudeDegrees>
              <LongitudeDegrees>37.0835259743034839630126953125</LongitudeDegrees>
            </Position>
            <AltitudeMeters>1214</AltitudeMeters>
            <DistanceMeters>NAN</DistanceMeters>
          </Trackpoint>
          <Trackpoint>
            <Time>2021-08-03T09:55:31.000Z</Time>
            <Position>
              <LatitudeDegrees>-15.39768512360751628875732421875</LatitudeDegrees>
              <LongitudeDegrees>37.08350409753620624542236328125</LongitudeDegrees>
            </Position>
            <AltitudeMeters>1214</AltitudeMeters>
            <DistanceMeters>NAN</DistanceMeters>
          </Trackpoint>
          <Trackpoint>
            <Time>2021-08-03T09:55:33.000Z</Time>
            <Position>
              <LatitudeDegrees>-15.39769627153873443603515625</LatitudeDegrees>
              <LongitudeDegrees>37.08348515443503856658935546875</LongitudeDegrees>
            </Position>
            <AltitudeMeters>1214.199951171875</AltitudeMeters>
            <DistanceMeters>NAN</DistanceMeters>
          </Trackpoint>
          <Trackpoint>
            <Time>2021-08-03T09:55:38.000Z</Time>
            <Position>
              <LatitudeDegrees>-15.3977316431701183319091796875</LatitudeDegrees>
              <LongitudeDegrees>37.0834304206073284149169921875</LongitudeDegrees>
            </Position>
            <AltitudeMeters>1215</AltitudeMeters>
            <DistanceMeters>NAN</DistanceMeters>
          </Trackpoint>
          <Trackpoint>
            <Time>2021-08-03T09:55:39.000Z</Time>
            <Position>
              <LatitudeDegrees>-15.39773742668330669403076171875</LatitudeDegrees>
              <LongitudeDegrees>37.0834210328757762908935546875</LongitudeDegrees>
            </Position>
            <AltitudeMeters>1215.5999755859375</AltitudeMeters>
            <DistanceMeters>NAN</DistanceMeters>
          </Trackpoint>
          <Trackpoint>
            <Time>2021-08-03T09:55:44.000Z</Time>
            <Position>
              <LatitudeDegrees>-15.3977698646485805511474609375</LatitudeDegrees>
              <LongitudeDegrees>37.083385325968265533447265625</LongitudeDegrees>
            </Position>
            <AltitudeMeters>1215.800048828125</AltitudeMeters>
            <DistanceMeters>NAN</DistanceMeters>
          </Trackpoint>
          <Trackpoint>
            <Time>2021-08-03T09:55:48.000Z</Time>
            <Position>
              <LatitudeDegrees>-15.397804565727710723876953125</LatitudeDegrees>
              <LongitudeDegrees>37.08336026407778263092041015625</LongitudeDegrees>
            </Position>
            <AltitudeMeters>1216.199951171875</AltitudeMeters>
            <DistanceMeters>NAN</DistanceMeters>
          </Trackpoint>
          <Trackpoint>
            <Time>2021-08-03T09:55:51.000Z</Time>
            <Position>
              <LatitudeDegrees>-15.39781630039215087890625</LatitudeDegrees>
              <LongitudeDegrees>37.08333612419664859771728515625</LongitudeDegrees>
            </Position>
            <AltitudeMeters>1216.5999755859375</AltitudeMeters>
            <DistanceMeters>NAN</DistanceMeters>
          </Trackpoint>
          <Trackpoint>
            <Time>2021-08-03T09:55:56.000Z</Time>
            <Position>
              <LatitudeDegrees>-15.3978471457958221435546875</LatitudeDegrees>
              <LongitudeDegrees>37.0833003334701061248779296875</LongitudeDegrees>
            </Position>
            <AltitudeMeters>1216.5999755859375</AltitudeMeters>
            <DistanceMeters>NAN</DistanceMeters>
          </Trackpoint>
          <Trackpoint>
            <Time>2021-08-03T09:56:04.000Z</Time>
            <Position>
              <LatitudeDegrees>-15.39791897870600223541259765625</LatitudeDegrees>
              <LongitudeDegrees>37.0832520537078380584716796875</LongitudeDegrees>
            </Position>
            <AltitudeMeters>1217</AltitudeMeters>
            <DistanceMeters>NAN</DistanceMeters>
          </Trackpoint>
          <Trackpoint>
            <Time>2021-08-03T09:56:05.000Z</Time>
            <Position>
              <LatitudeDegrees>-15.39792920462787151336669921875</LatitudeDegrees>
              <LongitudeDegrees>37.08324811421334743499755859375</LongitudeDegrees>
            </Position>
            <AltitudeMeters>1217</AltitudeMeters>
            <DistanceMeters>NAN</DistanceMeters>
          </Trackpoint>
          <Trackpoint>
            <Time>2021-08-03T09:56:08.000Z</Time>
            <Position>
              <LatitudeDegrees>-15.39795284159481525421142578125</LatitudeDegrees>
              <LongitudeDegrees>37.0832386426627635955810546875</LongitudeDegrees>
            </Position>
            <AltitudeMeters>1217.199951171875</AltitudeMeters>
            <DistanceMeters>NAN</DistanceMeters>
          </Trackpoint>
          <Trackpoint>
            <Time>2021-08-03T09:56:12.000Z</Time>
            <Position>
              <LatitudeDegrees>-15.3979847766458988189697265625</LatitudeDegrees>
              <LongitudeDegrees>37.083221040666103363037109375</LongitudeDegrees>
            </Position>
            <AltitudeMeters>1217.5999755859375</AltitudeMeters>
            <DistanceMeters>NAN</DistanceMeters>
          </Trackpoint>
          <Trackpoint>
            <Time>2021-08-03T09:56:20.000Z</Time>
            <Position>
              <LatitudeDegrees>-15.39807102642953395843505859375</LatitudeDegrees>
              <LongitudeDegrees>37.08319765515625476837158203125</LongitudeDegrees>
            </Position>
            <AltitudeMeters>1218</AltitudeMeters>
            <DistanceMeters>NAN</DistanceMeters>
          </Trackpoint>
          <Trackpoint>
            <Time>2021-08-03T09:56:22.000Z</Time>
            <Position>
              <LatitudeDegrees>-15.39810002781450748443603515625</LatitudeDegrees>
              <LongitudeDegrees>37.0831927098333835601806640625</LongitudeDegrees>
            </Position>
            <AltitudeMeters>1218.800048828125</AltitudeMeters>
            <DistanceMeters>NAN</DistanceMeters>
          </Trackpoint>
          <Trackpoint>
            <Time>2021-08-03T09:56:25.000Z</Time>
            <Position>
              <LatitudeDegrees>-15.3981363214552402496337890625</LatitudeDegrees>
              <LongitudeDegrees>37.08318357355892658233642578125</LongitudeDegrees>
            </Position>
            <AltitudeMeters>1219</AltitudeMeters>
            <DistanceMeters>NAN</DistanceMeters>
          </Trackpoint>
          <Trackpoint>
            <Time>2021-08-03T09:56:33.000Z</Time>
            <Position>
              <LatitudeDegrees>-15.39822173304855823516845703125</LatitudeDegrees>
              <LongitudeDegrees>37.08315222524106502532958984375</LongitudeDegrees>
            </Position>
            <AltitudeMeters>1219.4000244140625</AltitudeMeters>
            <DistanceMeters>NAN</DistanceMeters>
          </Trackpoint>
          <Trackpoint>
            <Time>2021-08-03T09:56:35.000Z</Time>
            <Position>
              <LatitudeDegrees>-15.39823899976909160614013671875</LatitudeDegrees>
              <LongitudeDegrees>37.08314719609916210174560546875</LongitudeDegrees>
            </Position>
            <AltitudeMeters>1220.800048828125</AltitudeMeters>
            <DistanceMeters>NAN</DistanceMeters>
          </Trackpoint>
          <Trackpoint>
            <Time>2021-08-03T09:56:37.000Z</Time>
            <Position>
              <LatitudeDegrees>-15.39825995452702045440673828125</LatitudeDegrees>
              <LongitudeDegrees>37.08314334042370319366455078125</LongitudeDegrees>
            </Position>
            <AltitudeMeters>1221.199951171875</AltitudeMeters>
            <DistanceMeters>NAN</DistanceMeters>
          </Trackpoint>
          <Trackpoint>
            <Time>2021-08-03T09:56:46.000Z</Time>
            <Position>
              <LatitudeDegrees>-15.39836020208895206451416015625</LatitudeDegrees>
              <LongitudeDegrees>37.08310293965041637420654296875</LongitudeDegrees>
            </Position>
            <AltitudeMeters>1221.199951171875</AltitudeMeters>
            <DistanceMeters>NAN</DistanceMeters>
          </Trackpoint>
          <Trackpoint>
            <Time>2021-08-03T09:56:54.000Z</Time>
            <Position>
              <LatitudeDegrees>-15.39844083599746227264404296875</LatitudeDegrees>
              <LongitudeDegrees>37.0830591022968292236328125</LongitudeDegrees>
            </Position>
            <AltitudeMeters>1222</AltitudeMeters>
            <DistanceMeters>NAN</DistanceMeters>
          </Trackpoint>
          <Trackpoint>
            <Time>2021-08-03T09:56:57.000Z</Time>
            <Position>
              <LatitudeDegrees>-15.39847142994403839111328125</LatitudeDegrees>
              <LongitudeDegrees>37.08304233849048614501953125</LongitudeDegrees>
            </Position>
            <AltitudeMeters>1222</AltitudeMeters>
            <DistanceMeters>NAN</DistanceMeters>
          </Trackpoint>
          <Trackpoint>
            <Time>2021-08-03T09:56:59.000Z</Time>
            <Position>
              <LatitudeDegrees>-15.3984908759593963623046875</LatitudeDegrees>
              <LongitudeDegrees>37.0830331183969974517822265625</LongitudeDegrees>
            </Position>
            <AltitudeMeters>1222.800048828125</AltitudeMeters>
            <DistanceMeters>NAN</DistanceMeters>
          </Trackpoint>
          <Trackpoint>
            <Time>2021-08-03T09:57:09.000Z</Time>
            <Position>
              <LatitudeDegrees>-15.3985855914652347564697265625</LatitudeDegrees>
              <LongitudeDegrees>37.0829707570374011993408203125</LongitudeDegrees>
            </Position>
            <AltitudeMeters>1222.800048828125</AltitudeMeters>
            <DistanceMeters>NAN</DistanceMeters>
          </Trackpoint>
          <Trackpoint>
            <Time>2021-08-03T09:57:12.000Z</Time>
            <Position>
              <LatitudeDegrees>-15.3986184485256671905517578125</LatitudeDegrees>
              <LongitudeDegrees>37.08295457996428012847900390625</LongitudeDegrees>
            </Position>
            <AltitudeMeters>1223</AltitudeMeters>
            <DistanceMeters>NAN</DistanceMeters>
          </Trackpoint>
          <Trackpoint>
            <Time>2021-08-03T09:57:14.000Z</Time>
            <Position>
              <LatitudeDegrees>-15.39864183403551578521728515625</LatitudeDegrees>
              <LongitudeDegrees>37.0829451084136962890625</LongitudeDegrees>
            </Position>
            <AltitudeMeters>1223.199951171875</AltitudeMeters>
            <DistanceMeters>NAN</DistanceMeters>
          </Trackpoint>
          <Trackpoint>
            <Time>2021-08-03T09:57:26.000Z</Time>
            <Position>
              <LatitudeDegrees>-15.398747362196445465087890625</LatitudeDegrees>
              <LongitudeDegrees>37.082870341837406158447265625</LongitudeDegrees>
            </Position>
            <AltitudeMeters>1223.800048828125</AltitudeMeters>
            <DistanceMeters>NAN</DistanceMeters>
          </Trackpoint>
          <Trackpoint>
            <Time>2021-08-03T09:57:41.000Z</Time>
            <Position>
              <LatitudeDegrees>-15.39888792671263217926025390625</LatitudeDegrees>
              <LongitudeDegrees>37.082807309925556182861328125</LongitudeDegrees>
            </Position>
            <AltitudeMeters>1223.800048828125</AltitudeMeters>
            <DistanceMeters>NAN</DistanceMeters>
          </Trackpoint>
          <Trackpoint>
            <Time>2021-08-03T09:57:49.000Z</Time>
            <Position>
              <LatitudeDegrees>-15.3989144973456859588623046875</LatitudeDegrees>
              <LongitudeDegrees>37.08279364742338657379150390625</LongitudeDegrees>
            </Position>
            <AltitudeMeters>1223.5999755859375</AltitudeMeters>
            <DistanceMeters>NAN</DistanceMeters>
          </Trackpoint>
          <Trackpoint>
            <Time>2021-08-03T09:57:58.000Z</Time>
            <Position>
              <LatitudeDegrees>-15.3990110568702220916748046875</LatitudeDegrees>
              <LongitudeDegrees>37.0827519893646240234375</LongitudeDegrees>
            </Position>
            <AltitudeMeters>1223.800048828125</AltitudeMeters>
            <DistanceMeters>NAN</DistanceMeters>
          </Trackpoint>
          <Trackpoint>
            <Time>2021-08-03T09:58:07.000Z</Time>
            <Position>
              <LatitudeDegrees>-15.3991213627159595489501953125</LatitudeDegrees>
              <LongitudeDegrees>37.08271468989551067352294921875</LongitudeDegrees>
            </Position>
            <AltitudeMeters>1223.5999755859375</AltitudeMeters>
            <DistanceMeters>NAN</DistanceMeters>
          </Trackpoint>
          <Trackpoint>
            <Time>2021-08-03T09:58:09.000Z</Time>
            <Position>
              <LatitudeDegrees>-15.3991458378732204437255859375</LatitudeDegrees>
              <LongitudeDegrees>37.08270966075360774993896484375</LongitudeDegrees>
            </Position>
            <AltitudeMeters>1223.5999755859375</AltitudeMeters>
            <DistanceMeters>NAN</DistanceMeters>
          </Trackpoint>
          <Trackpoint>
            <Time>2021-08-03T09:58:18.000Z</Time>
            <Position>
              <LatitudeDegrees>-15.39925354532897472381591796875</LatitudeDegrees>
              <LongitudeDegrees>37.0826659910380840301513671875</LongitudeDegrees>
            </Position>
            <AltitudeMeters>1223.5999755859375</AltitudeMeters>
            <DistanceMeters>NAN</DistanceMeters>
          </Trackpoint>
          <Trackpoint>
            <Time>2021-08-03T09:58:20.000Z</Time>
            <Position>
              <LatitudeDegrees>-15.39927181787788867950439453125</LatitudeDegrees>
              <LongitudeDegrees>37.082659117877483367919921875</LongitudeDegrees>
            </Position>
            <AltitudeMeters>1223</AltitudeMeters>
            <DistanceMeters>NAN</DistanceMeters>
          </Trackpoint>
          <Trackpoint>
            <Time>2021-08-03T09:58:27.000Z</Time>
            <Position>
              <LatitudeDegrees>-15.3993563912808895111083984375</LatitudeDegrees>
              <LongitudeDegrees>37.08262802101671695709228515625</LongitudeDegrees>
            </Position>
            <AltitudeMeters>1223.199951171875</AltitudeMeters>
            <DistanceMeters>NAN</DistanceMeters>
          </Trackpoint>
          <Trackpoint>
            <Time>2021-08-03T09:58:30.000Z</Time>
            <Position>
              <LatitudeDegrees>-15.399390757083892822265625</LatitudeDegrees>
              <LongitudeDegrees>37.08261184394359588623046875</LongitudeDegrees>
            </Position>
            <AltitudeMeters>1223.199951171875</AltitudeMeters>
            <DistanceMeters>NAN</DistanceMeters>
          </Trackpoint>
          <Trackpoint>
            <Time>2021-08-03T09:58:41.000Z</Time>
            <Position>
              <LatitudeDegrees>-15.399512462317943572998046875</LatitudeDegrees>
              <LongitudeDegrees>37.08253942430019378662109375</LongitudeDegrees>
            </Position>
            <AltitudeMeters>1222.800048828125</AltitudeMeters>
            <DistanceMeters>NAN</DistanceMeters>
          </Trackpoint>
          <Trackpoint>
            <Time>2021-08-03T09:58:51.000Z</Time>
            <Position>
              <LatitudeDegrees>-15.39961782284080982208251953125</LatitudeDegrees>
              <LongitudeDegrees>37.08247412927448749542236328125</LongitudeDegrees>
            </Position>
            <AltitudeMeters>1223.199951171875</AltitudeMeters>
            <DistanceMeters>NAN</DistanceMeters>
          </Trackpoint>
          <Trackpoint>
            <Time>2021-08-03T09:58:56.000Z</Time>
            <Position>
              <LatitudeDegrees>-15.39966241456568241119384765625</LatitudeDegrees>
              <LongitudeDegrees>37.0824292860925197601318359375</LongitudeDegrees>
            </Position>
            <AltitudeMeters>1222.800048828125</AltitudeMeters>
            <DistanceMeters>NAN</DistanceMeters>
          </Trackpoint>
          <Trackpoint>
            <Time>2021-08-03T09:58:58.000Z</Time>
            <Position>
              <LatitudeDegrees>-15.399685800075531005859375</LatitudeDegrees>
              <LongitudeDegrees>37.08241512067615985870361328125</LongitudeDegrees>
            </Position>
            <AltitudeMeters>1222.800048828125</AltitudeMeters>
            <DistanceMeters>NAN</DistanceMeters>
          </Trackpoint>
          <Trackpoint>
            <Time>2021-08-03T09:59:02.000Z</Time>
            <Position>
              <LatitudeDegrees>-15.39973743259906768798828125</LatitudeDegrees>
              <LongitudeDegrees>37.082394249737262725830078125</LongitudeDegrees>
            </Position>
            <AltitudeMeters>1222.800048828125</AltitudeMeters>
            <DistanceMeters>NAN</DistanceMeters>
          </Trackpoint>
          <Trackpoint>
            <Time>2021-08-03T09:59:10.000Z</Time>
            <Position>
              <LatitudeDegrees>-15.39984161965548992156982421875</LatitudeDegrees>
              <LongitudeDegrees>37.082359381020069122314453125</LongitudeDegrees>
            </Position>
            <AltitudeMeters>1223</AltitudeMeters>
            <DistanceMeters>NAN</DistanceMeters>
          </Trackpoint>
          <Trackpoint>
            <Time>2021-08-03T09:59:13.000Z</Time>
            <Position>
              <LatitudeDegrees>-15.3998722136020660400390625</LatitudeDegrees>
              <LongitudeDegrees>37.08234320394694805145263671875</LongitudeDegrees>
            </Position>
            <AltitudeMeters>1223</AltitudeMeters>
            <DistanceMeters>NAN</DistanceMeters>
          </Trackpoint>
          <Trackpoint>
            <Time>2021-08-03T09:59:16.000Z</Time>
            <Position>
              <LatitudeDegrees>-15.3999038971960544586181640625</LatitudeDegrees>
              <LongitudeDegrees>37.08232006989419460296630859375</LongitudeDegrees>
            </Position>
            <AltitudeMeters>1223</AltitudeMeters>
            <DistanceMeters>NAN</DistanceMeters>
          </Trackpoint>
          <Trackpoint>
            <Time>2021-08-03T09:59:21.000Z</Time>
            <Position>
              <LatitudeDegrees>-15.39994907565414905548095703125</LatitudeDegrees>
              <LongitudeDegrees>37.08228654228150844573974609375</LongitudeDegrees>
            </Position>
            <AltitudeMeters>1223.199951171875</AltitudeMeters>
            <DistanceMeters>NAN</DistanceMeters>
          </Trackpoint>
          <Trackpoint>
            <Time>2021-08-03T09:59:30.000Z</Time>
            <Position>
              <LatitudeDegrees>-15.40003943257033824920654296875</LatitudeDegrees>
              <LongitudeDegrees>37.08225854672491550445556640625</LongitudeDegrees>
            </Position>
            <AltitudeMeters>1222.199951171875</AltitudeMeters>
            <DistanceMeters>NAN</DistanceMeters>
          </Trackpoint>
          <Trackpoint>
            <Time>2021-08-03T09:59:32.000Z</Time>
            <Position>
              <LatitudeDegrees>-15.40006390772759914398193359375</LatitudeDegrees>
              <LongitudeDegrees>37.08224379457533359527587890625</LongitudeDegrees>
            </Position>
            <AltitudeMeters>1222</AltitudeMeters>
            <DistanceMeters>NAN</DistanceMeters>
          </Trackpoint>
          <Trackpoint>
            <Time>2021-08-03T09:59:40.000Z</Time>
            <Position>
              <LatitudeDegrees>-15.4001513309776782989501953125</LatitudeDegrees>
              <LongitudeDegrees>37.0822083391249179840087890625</LongitudeDegrees>
            </Position>
            <AltitudeMeters>1221</AltitudeMeters>
            <DistanceMeters>NAN</DistanceMeters>
          </Trackpoint>
          <Trackpoint>
            <Time>2021-08-03T09:59:41.000Z</Time>
            <Position>
              <LatitudeDegrees>-15.40016298182308673858642578125</LatitudeDegrees>
              <LongitudeDegrees>37.08220456726849079132080078125</LongitudeDegrees>
            </Position>
            <AltitudeMeters>1221</AltitudeMeters>
            <DistanceMeters>NAN</DistanceMeters>
          </Trackpoint>
          <Trackpoint>
            <Time>2021-08-03T09:59:49.000Z</Time>
            <Position>
              <LatitudeDegrees>-15.400256104767322540283203125</LatitudeDegrees>
              <LongitudeDegrees>37.0821815170347690582275390625</LongitudeDegrees>
            </Position>
            <AltitudeMeters>1220.199951171875</AltitudeMeters>
            <DistanceMeters>NAN</DistanceMeters>
          </Trackpoint>
          <Trackpoint>
            <Time>2021-08-03T09:59:50.000Z</Time>
            <Position>
              <LatitudeDegrees>-15.40026943199336528778076171875</LatitudeDegrees>
              <LongitudeDegrees>37.0821751467883586883544921875</LongitudeDegrees>
            </Position>
            <AltitudeMeters>1219.800048828125</AltitudeMeters>
            <DistanceMeters>NAN</DistanceMeters>
          </Trackpoint>
          <Trackpoint>
            <Time>2021-08-03T09:59:55.000Z</Time>
            <Position>
              <LatitudeDegrees>-15.4003226570785045623779296875</LatitudeDegrees>
              <LongitudeDegrees>37.0821483246982097625732421875</LongitudeDegrees>
            </Position>
            <AltitudeMeters>1218.800048828125</AltitudeMeters>
            <DistanceMeters>NAN</DistanceMeters>
          </Trackpoint>
          <Trackpoint>
            <Time>2021-08-03T09:59:58.000Z</Time>
            <Position>
              <LatitudeDegrees>-15.40036448277533054351806640625</LatitudeDegrees>
              <LongitudeDegrees>37.08213306963443756103515625</LongitudeDegrees>
            </Position>
            <AltitudeMeters>1218.800048828125</AltitudeMeters>
            <DistanceMeters>NAN</DistanceMeters>
          </Trackpoint>
          <Trackpoint>
            <Time>2021-08-03T10:00:00.000Z</Time>
            <Position>
              <LatitudeDegrees>-15.40039113722741603851318359375</LatitudeDegrees>
              <LongitudeDegrees>37.0821288786828517913818359375</LongitudeDegrees>
            </Position>
            <AltitudeMeters>1218.800048828125</AltitudeMeters>
            <DistanceMeters>NAN</DistanceMeters>
          </Trackpoint>
          <Trackpoint>
            <Time>2021-08-03T10:00:07.000Z</Time>
            <Position>
              <LatitudeDegrees>-15.400475375354290008544921875</LatitudeDegrees>
              <LongitudeDegrees>37.0821010507643222808837890625</LongitudeDegrees>
            </Position>
            <AltitudeMeters>1218.199951171875</AltitudeMeters>
            <DistanceMeters>NAN</DistanceMeters>
          </Trackpoint>
          <Trackpoint>
            <Time>2021-08-03T10:00:17.000Z</Time>
            <Position>
              <LatitudeDegrees>-15.4005990922451019287109375</LatitudeDegrees>
              <LongitudeDegrees>37.082046233117580413818359375</LongitudeDegrees>
            </Position>
            <AltitudeMeters>1218</AltitudeMeters>
            <DistanceMeters>NAN</DistanceMeters>
          </Trackpoint>
          <Trackpoint>
            <Time>2021-08-03T10:00:25.000Z</Time>
            <Position>
              <LatitudeDegrees>-15.40071652270853519439697265625</LatitudeDegrees>
              <LongitudeDegrees>37.08200423978269100189208984375</LongitudeDegrees>
            </Position>
            <AltitudeMeters>1218</AltitudeMeters>
            <DistanceMeters>NAN</DistanceMeters>
          </Trackpoint>
          <Trackpoint>
            <Time>2021-08-03T10:00:34.000Z</Time>
            <Position>
              <LatitudeDegrees>-15.40082238614559173583984375</LatitudeDegrees>
              <LongitudeDegrees>37.081982195377349853515625</LongitudeDegrees>
            </Position>
            <AltitudeMeters>1217.800048828125</AltitudeMeters>
            <DistanceMeters>NAN</DistanceMeters>
          </Trackpoint>
          <Trackpoint>
            <Time>2021-08-03T10:00:35.000Z</Time>
            <Position>
              <LatitudeDegrees>-15.400835461914539337158203125</LatitudeDegrees>
              <LongitudeDegrees>37.081976830959320068359375</LongitudeDegrees>
            </Position>
            <AltitudeMeters>1217.800048828125</AltitudeMeters>
            <DistanceMeters>NAN</DistanceMeters>
          </Trackpoint>
          <Trackpoint>
            <Time>2021-08-03T10:00:40.000Z</Time>
            <Position>
              <LatitudeDegrees>-15.4008860886096954345703125</LatitudeDegrees>
              <LongitudeDegrees>37.08194808103144168853759765625</LongitudeDegrees>
            </Position>
            <AltitudeMeters>1217.800048828125</AltitudeMeters>
            <DistanceMeters>NAN</DistanceMeters>
          </Trackpoint>
          <Trackpoint>
            <Time>2021-08-03T10:00:43.000Z</Time>
            <Position>
              <LatitudeDegrees>-15.400916598737239837646484375</LatitudeDegrees>
              <LongitudeDegrees>37.08192930556833744049072265625</LongitudeDegrees>
            </Position>
            <AltitudeMeters>1217.800048828125</AltitudeMeters>
            <DistanceMeters>NAN</DistanceMeters>
          </Trackpoint>
          <Trackpoint>
            <Time>2021-08-03T10:00:47.000Z</Time>
            <Position>
              <LatitudeDegrees>-15.4009774513542652130126953125</LatitudeDegrees>
              <LongitudeDegrees>37.08190935663878917694091796875</LongitudeDegrees>
            </Position>
            <AltitudeMeters>1218</AltitudeMeters>
            <DistanceMeters>NAN</DistanceMeters>
          </Trackpoint>
          <Trackpoint>
            <Time>2021-08-03T10:00:50.000Z</Time>
            <Position>
              <LatitudeDegrees>-15.40100905112922191619873046875</LatitudeDegrees>
              <LongitudeDegrees>37.08189058117568492889404296875</LongitudeDegrees>
            </Position>
            <AltitudeMeters>1218.199951171875</AltitudeMeters>
            <DistanceMeters>NAN</DistanceMeters>
          </Trackpoint>
          <Trackpoint>
            <Time>2021-08-03T10:00:57.000Z</Time>
            <Position>
              <LatitudeDegrees>-15.40109303779900074005126953125</LatitudeDegrees>
              <LongitudeDegrees>37.08185370080173015594482421875</LongitudeDegrees>
            </Position>
            <AltitudeMeters>1218.4000244140625</AltitudeMeters>
            <DistanceMeters>NAN</DistanceMeters>
          </Trackpoint>
          <Trackpoint>
            <Time>2021-08-03T10:01:07.000Z</Time>
            <Position>
              <LatitudeDegrees>-15.40120334364473819732666015625</LatitudeDegrees>
              <LongitudeDegrees>37.08179838024079799652099609375</LongitudeDegrees>
            </Position>
            <AltitudeMeters>1218.199951171875</AltitudeMeters>
            <DistanceMeters>NAN</DistanceMeters>
          </Trackpoint>
          <Trackpoint>
            <Time>2021-08-03T10:01:16.000Z</Time>
            <Position>
              <LatitudeDegrees>-15.40131323039531707763671875</LatitudeDegrees>
              <LongitudeDegrees>37.0817714743316173553466796875</LongitudeDegrees>
            </Position>
            <AltitudeMeters>1217.800048828125</AltitudeMeters>
            <DistanceMeters>NAN</DistanceMeters>
          </Trackpoint>
          <Trackpoint>
            <Time>2021-08-03T10:01:26.000Z</Time>
            <Position>
              <LatitudeDegrees>-15.401361845433712005615234375</LatitudeDegrees>
              <LongitudeDegrees>37.0816403813660144805908203125</LongitudeDegrees>
            </Position>
            <AltitudeMeters>1217.800048828125</AltitudeMeters>
            <DistanceMeters>NAN</DistanceMeters>
          </Trackpoint>
          <Trackpoint>
            <Time>2021-08-03T10:01:36.000Z</Time>
            <Position>
              <LatitudeDegrees>-15.40136343799531459808349609375</LatitudeDegrees>
              <LongitudeDegrees>37.0815022476017475128173828125</LongitudeDegrees>
            </Position>
            <AltitudeMeters>1218</AltitudeMeters>
            <DistanceMeters>NAN</DistanceMeters>
          </Trackpoint>
          <Trackpoint>
            <Time>2021-08-03T10:01:46.000Z</Time>
            <Position>
              <LatitudeDegrees>-15.4013921879231929779052734375</LatitudeDegrees>
              <LongitudeDegrees>37.08140443079173564910888671875</LongitudeDegrees>
            </Position>
            <AltitudeMeters>1218</AltitudeMeters>
            <DistanceMeters>NAN</DistanceMeters>
          </Trackpoint>
          <Trackpoint>
            <Time>2021-08-03T10:01:56.000Z</Time>
            <Position>
              <LatitudeDegrees>-15.40143418125808238983154296875</LatitudeDegrees>
              <LongitudeDegrees>37.08130602724850177764892578125</LongitudeDegrees>
            </Position>
            <AltitudeMeters>1218.199951171875</AltitudeMeters>
            <DistanceMeters>NAN</DistanceMeters>
          </Trackpoint>
          <Trackpoint>
            <Time>2021-08-03T10:01:57.000Z</Time>
            <Position>
              <LatitudeDegrees>-15.4014408029615879058837890625</LatitudeDegrees>
              <LongitudeDegrees>37.08129697479307651519775390625</LongitudeDegrees>
            </Position>
            <AltitudeMeters>1218.199951171875</AltitudeMeters>
            <DistanceMeters>NAN</DistanceMeters>
          </Trackpoint>
          <Trackpoint>
            <Time>2021-08-03T10:02:00.000Z</Time>
            <Position>
              <LatitudeDegrees>-15.40146301500499248504638671875</LatitudeDegrees>
              <LongitudeDegrees>37.08127149380743503570556640625</LongitudeDegrees>
            </Position>
            <AltitudeMeters>1218.5999755859375</AltitudeMeters>
            <DistanceMeters>NAN</DistanceMeters>
          </Trackpoint>
          <Trackpoint>
            <Time>2021-08-03T10:02:04.000Z</Time>
            <Position>
              <LatitudeDegrees>-15.40148698724806308746337890625</LatitudeDegrees>
              <LongitudeDegrees>37.08123528398573398590087890625</LongitudeDegrees>
            </Position>
            <AltitudeMeters>1218.5999755859375</AltitudeMeters>
            <DistanceMeters>NAN</DistanceMeters>
          </Trackpoint>
          <Trackpoint>
            <Time>2021-08-03T10:02:08.000Z</Time>
            <Position>
              <LatitudeDegrees>-15.401524789631366729736328125</LatitudeDegrees>
              <LongitudeDegrees>37.08119831979274749755859375</LongitudeDegrees>
            </Position>
            <AltitudeMeters>1219.199951171875</AltitudeMeters>
            <DistanceMeters>NAN</DistanceMeters>
          </Trackpoint>
          <Trackpoint>
            <Time>2021-08-03T10:02:18.000Z</Time>
            <Position>
              <LatitudeDegrees>-15.40159829892218112945556640625</LatitudeDegrees>
              <LongitudeDegrees>37.0810952223837375640869140625</LongitudeDegrees>
            </Position>
            <AltitudeMeters>1220.4000244140625</AltitudeMeters>
            <DistanceMeters>NAN</DistanceMeters>
          </Trackpoint>
          <Trackpoint>
            <Time>2021-08-03T10:02:19.000Z</Time>
            <Position>
              <LatitudeDegrees>-15.4016047529876232147216796875</LatitudeDegrees>
              <LongitudeDegrees>37.08108709193766117095947265625</LongitudeDegrees>
            </Position>
            <AltitudeMeters>1220.5999755859375</AltitudeMeters>
            <DistanceMeters>NAN</DistanceMeters>
          </Trackpoint>
          <Trackpoint>
            <Time>2021-08-03T10:02:21.000Z</Time>
            <Position>
              <LatitudeDegrees>-15.40162461809813976287841796875</LatitudeDegrees>
              <LongitudeDegrees>37.081067897379398345947265625</LongitudeDegrees>
            </Position>
            <AltitudeMeters>1221.199951171875</AltitudeMeters>
            <DistanceMeters>NAN</DistanceMeters>
          </Trackpoint>
          <Trackpoint>
            <Time>2021-08-03T10:02:22.000Z</Time>
            <Position>
              <LatitudeDegrees>-15.40163249708712100982666015625</LatitudeDegrees>
              <LongitudeDegrees>37.08106127567589282989501953125</LongitudeDegrees>
            </Position>
            <AltitudeMeters>1221.4000244140625</AltitudeMeters>
            <DistanceMeters>NAN</DistanceMeters>
          </Trackpoint>
          <Trackpoint>
            <Time>2021-08-03T10:02:29.000Z</Time>
            <Position>
              <LatitudeDegrees>-15.401696451008319854736328125</LatitudeDegrees>
              <LongitudeDegrees>37.0810117386281490325927734375</LongitudeDegrees>
            </Position>
            <AltitudeMeters>1221</AltitudeMeters>
            <DistanceMeters>NAN</DistanceMeters>
          </Trackpoint>
          <Trackpoint>
            <Time>2021-08-03T10:02:40.000Z</Time>
            <Position>
              <LatitudeDegrees>-15.40181119926273822784423828125</LatitudeDegrees>
              <LongitudeDegrees>37.08093772642314434051513671875</LongitudeDegrees>
            </Position>
            <AltitudeMeters>1220.5999755859375</AltitudeMeters>
            <DistanceMeters>NAN</DistanceMeters>
          </Trackpoint>
          <Trackpoint>
            <Time>2021-08-03T10:02:43.000Z</Time>
            <Position>
              <LatitudeDegrees>-15.4018382728099822998046875</LatitudeDegrees>
              <LongitudeDegrees>37.0809235610067844390869140625</LongitudeDegrees>
            </Position>
            <AltitudeMeters>1220.199951171875</AltitudeMeters>
            <DistanceMeters>NAN</DistanceMeters>
          </Trackpoint>
          <Trackpoint>
            <Time>2021-08-03T10:02:45.000Z</Time>
            <Position>
              <LatitudeDegrees>-15.40185679681599140167236328125</LatitudeDegrees>
              <LongitudeDegrees>37.08091291598975658416748046875</LongitudeDegrees>
            </Position>
            <AltitudeMeters>1220.199951171875</AltitudeMeters>
            <DistanceMeters>NAN</DistanceMeters>
          </Trackpoint>
          <Trackpoint>
            <Time>2021-08-03T10:02:50.000Z</Time>
            <Position>
              <LatitudeDegrees>-15.401906333863735198974609375</LatitudeDegrees>
              <LongitudeDegrees>37.0808851718902587890625</LongitudeDegrees>
            </Position>
            <AltitudeMeters>1219.800048828125</AltitudeMeters>
            <DistanceMeters>NAN</DistanceMeters>
          </Trackpoint>
          <Trackpoint>
            <Time>2021-08-03T10:02:56.000Z</Time>
            <Position>
              <LatitudeDegrees>-15.401955284178256988525390625</LatitudeDegrees>
              <LongitudeDegrees>37.08085508085787296295166015625</LongitudeDegrees>
            </Position>
            <AltitudeMeters>1219</AltitudeMeters>
            <DistanceMeters>NAN</DistanceMeters>
          </Trackpoint>
          <Trackpoint>
            <Time>2021-08-03T10:03:02.000Z</Time>
            <Position>
              <LatitudeDegrees>-15.40202208794653415679931640625</LatitudeDegrees>
              <LongitudeDegrees>37.08081702701747417449951171875</LongitudeDegrees>
            </Position>
            <AltitudeMeters>1218.5999755859375</AltitudeMeters>
            <DistanceMeters>NAN</DistanceMeters>
          </Trackpoint>
          <Trackpoint>
            <Time>2021-08-03T10:03:03.000Z</Time>
            <Position>
              <LatitudeDegrees>-15.40203432552516460418701171875</LatitudeDegrees>
              <LongitudeDegrees>37.0808082260191440582275390625</LongitudeDegrees>
            </Position>
            <AltitudeMeters>1218</AltitudeMeters>
            <DistanceMeters>NAN</DistanceMeters>
          </Trackpoint>
          <Trackpoint>
            <Time>2021-08-03T10:03:08.000Z</Time>
            <Position>
              <LatitudeDegrees>-15.40209601633250713348388671875</LatitudeDegrees>
              <LongitudeDegrees>37.08078064955770969390869140625</LongitudeDegrees>
            </Position>
            <AltitudeMeters>1218</AltitudeMeters>
            <DistanceMeters>NAN</DistanceMeters>
          </Trackpoint>
          <Trackpoint>
            <Time>2021-08-03T10:03:09.000Z</Time>
            <Position>
              <LatitudeDegrees>-15.40210691280663013458251953125</LatitudeDegrees>
              <LongitudeDegrees>37.08077587187290191650390625</LongitudeDegrees>
            </Position>
            <AltitudeMeters>1218</AltitudeMeters>
            <DistanceMeters>NAN</DistanceMeters>
          </Trackpoint>
          <Trackpoint>
            <Time>2021-08-03T10:03:11.000Z</Time>
            <Position>
              <LatitudeDegrees>-15.4021279513835906982421875</LatitudeDegrees>
              <LongitudeDegrees>37.08076774142682552337646484375</LongitudeDegrees>
            </Position>
            <AltitudeMeters>1216.4000244140625</AltitudeMeters>
            <DistanceMeters>NAN</DistanceMeters>
          </Trackpoint>
          <Trackpoint>
            <Time>2021-08-03T10:03:12.000Z</Time>
            <Position>
              <LatitudeDegrees>-15.4021346569061279296875</LatitudeDegrees>
              <LongitudeDegrees>37.080766148865222930908203125</LongitudeDegrees>
            </Position>
            <AltitudeMeters>1216.4000244140625</AltitudeMeters>
            <DistanceMeters>NAN</DistanceMeters>
          </Trackpoint>
          <Trackpoint>
            <Time>2021-08-03T10:03:17.000Z</Time>
            <Position>
              <LatitudeDegrees>-15.40219492278993129730224609375</LatitudeDegrees>
              <LongitudeDegrees>37.08075634203851222991943359375</LongitudeDegrees>
            </Position>
            <AltitudeMeters>1216</AltitudeMeters>
            <DistanceMeters>NAN</DistanceMeters>
          </Trackpoint>
          <Trackpoint>
            <Time>2021-08-03T10:03:21.000Z</Time>
            <Position>
              <LatitudeDegrees>-15.40224102325737476348876953125</LatitudeDegrees>
              <LongitudeDegrees>37.0807532407343387603759765625</LongitudeDegrees>
            </Position>
            <AltitudeMeters>1216.5999755859375</AltitudeMeters>
            <DistanceMeters>NAN</DistanceMeters>
          </Trackpoint>
          <Trackpoint>
            <Time>2021-08-03T10:03:30.000Z</Time>
            <Position>
              <LatitudeDegrees>-15.40236490778625011444091796875</LatitudeDegrees>
              <LongitudeDegrees>37.080727927386760711669921875</LongitudeDegrees>
            </Position>
            <AltitudeMeters>1216.5999755859375</AltitudeMeters>
            <DistanceMeters>NAN</DistanceMeters>
          </Trackpoint>
          <Trackpoint>
            <Time>2021-08-03T10:03:38.000Z</Time>
            <Position>
              <LatitudeDegrees>-15.40247060358524322509765625</LatitudeDegrees>
              <LongitudeDegrees>37.0806995965540409088134765625</LongitudeDegrees>
            </Position>
            <AltitudeMeters>1215.4000244140625</AltitudeMeters>
            <DistanceMeters>NAN</DistanceMeters>
          </Trackpoint>
          <Trackpoint>
            <Time>2021-08-03T10:03:39.000Z</Time>
            <Position>
              <LatitudeDegrees>-15.40248342789709568023681640625</LatitudeDegrees>
              <LongitudeDegrees>37.08069733344018459320068359375</LongitudeDegrees>
            </Position>
            <AltitudeMeters>1215.4000244140625</AltitudeMeters>
            <DistanceMeters>NAN</DistanceMeters>
          </Trackpoint>
          <Trackpoint>
            <Time>2021-08-03T10:03:47.000Z</Time>
            <Position>
              <LatitudeDegrees>-15.402582250535488128662109375</LatitudeDegrees>
              <LongitudeDegrees>37.08068995736539363861083984375</LongitudeDegrees>
            </Position>
            <AltitudeMeters>1215</AltitudeMeters>
            <DistanceMeters>NAN</DistanceMeters>
          </Trackpoint>
          <Trackpoint>
            <Time>2021-08-03T10:03:50.000Z</Time>
            <Position>
              <LatitudeDegrees>-15.4026203043758869171142578125</LatitudeDegrees>
              <LongitudeDegrees>37.08067989908158779144287109375</LongitudeDegrees>
            </Position>
            <AltitudeMeters>1214.800048828125</AltitudeMeters>
            <DistanceMeters>NAN</DistanceMeters>
          </Trackpoint>
          <Trackpoint>
            <Time>2021-08-03T10:03:53.000Z</Time>
            <Position>
              <LatitudeDegrees>-15.4026581905782222747802734375</LatitudeDegrees>
              <LongitudeDegrees>37.08066766150295734405517578125</LongitudeDegrees>
            </Position>
            <AltitudeMeters>1214.5999755859375</AltitudeMeters>
            <DistanceMeters>NAN</DistanceMeters>
          </Trackpoint>
          <Trackpoint>
            <Time>2021-08-03T10:03:56.000Z</Time>
            <Position>
              <LatitudeDegrees>-15.4026974178850650787353515625</LatitudeDegrees>
              <LongitudeDegrees>37.08065207116305828094482421875</LongitudeDegrees>
            </Position>
            <AltitudeMeters>1214.199951171875</AltitudeMeters>
            <DistanceMeters>NAN</DistanceMeters>
          </Trackpoint>
          <Trackpoint>
            <Time>2021-08-03T10:03:57.000Z</Time>
            <Position>
              <LatitudeDegrees>-15.4027099907398223876953125</LatitudeDegrees>
              <LongitudeDegrees>37.080647461116313934326171875</LongitudeDegrees>
            </Position>
            <AltitudeMeters>1214</AltitudeMeters>
            <DistanceMeters>NAN</DistanceMeters>
          </Trackpoint>
          <Trackpoint>
            <Time>2021-08-03T10:04:08.000Z</Time>
            <Position>
              <LatitudeDegrees>-15.40284653194248676300048828125</LatitudeDegrees>
              <LongitudeDegrees>37.08060077391564846038818359375</LongitudeDegrees>
            </Position>
            <AltitudeMeters>1213</AltitudeMeters>
            <DistanceMeters>NAN</DistanceMeters>
          </Trackpoint>
          <Trackpoint>
            <Time>2021-08-03T10:04:09.000Z</Time>
            <Position>
              <LatitudeDegrees>-15.4028610326349735260009765625</LatitudeDegrees>
              <LongitudeDegrees>37.08059624768793582916259765625</LongitudeDegrees>
            </Position>
            <AltitudeMeters>1213</AltitudeMeters>
            <DistanceMeters>NAN</DistanceMeters>
          </Trackpoint>
          <Trackpoint>
            <Time>2021-08-03T10:04:16.000Z</Time>
            <Position>
              <LatitudeDegrees>-15.4029445163905620574951171875</LatitudeDegrees>
              <LongitudeDegrees>37.0805651508271694183349609375</LongitudeDegrees>
            </Position>
            <AltitudeMeters>1211.800048828125</AltitudeMeters>
            <DistanceMeters>NAN</DistanceMeters>
          </Trackpoint>
          <Trackpoint>
            <Time>2021-08-03T10:04:20.000Z</Time>
            <Position>
              <LatitudeDegrees>-15.40299338288605213165283203125</LatitudeDegrees>
              <LongitudeDegrees>37.08055249415338039398193359375</LongitudeDegrees>
            </Position>
            <AltitudeMeters>1211.5999755859375</AltitudeMeters>
            <DistanceMeters>NAN</DistanceMeters>
          </Trackpoint>
          <Trackpoint>
            <Time>2021-08-03T10:04:27.000Z</Time>
            <Position>
              <LatitudeDegrees>-15.40307686664164066314697265625</LatitudeDegrees>
              <LongitudeDegrees>37.080517709255218505859375</LongitudeDegrees>
            </Position>
            <AltitudeMeters>1210.800048828125</AltitudeMeters>
            <DistanceMeters>NAN</DistanceMeters>
          </Trackpoint>
          <Trackpoint>
            <Time>2021-08-03T10:04:30.000Z</Time>
            <Position>
              <LatitudeDegrees>-15.40310905314981937408447265625</LatitudeDegrees>
              <LongitudeDegrees>37.08049583248794078826904296875</LongitudeDegrees>
            </Position>
            <AltitudeMeters>1210.5999755859375</AltitudeMeters>
            <DistanceMeters>NAN</DistanceMeters>
          </Trackpoint>
          <Trackpoint>
            <Time>2021-08-03T10:04:40.000Z</Time>
            <Position>
              <LatitudeDegrees>-15.40322572924196720123291015625</LatitudeDegrees>
              <LongitudeDegrees>37.08044730126857757568359375</LongitudeDegrees>
            </Position>
            <AltitudeMeters>1210.199951171875</AltitudeMeters>
            <DistanceMeters>NAN</DistanceMeters>
          </Trackpoint>
          <Trackpoint>
            <Time>2021-08-03T10:04:45.000Z</Time>
            <Position>
              <LatitudeDegrees>-15.4032732546329498291015625</LatitudeDegrees>
              <LongitudeDegrees>37.08041318692266941070556640625</LongitudeDegrees>
            </Position>
            <AltitudeMeters>1209.4000244140625</AltitudeMeters>
            <DistanceMeters>NAN</DistanceMeters>
          </Trackpoint>
          <Trackpoint>
            <Time>2021-08-03T10:04:47.000Z</Time>
            <Position>
              <LatitudeDegrees>-15.40329596959054470062255859375</LatitudeDegrees>
              <LongitudeDegrees>37.08040036261081695556640625</LongitudeDegrees>
            </Position>
            <AltitudeMeters>1209.199951171875</AltitudeMeters>
            <DistanceMeters>NAN</DistanceMeters>
          </Trackpoint>
          <Trackpoint>
            <Time>2021-08-03T10:04:50.000Z</Time>
            <Position>
              <LatitudeDegrees>-15.40332798846065998077392578125</LatitudeDegrees>
              <LongitudeDegrees>37.0803760550916194915771484375</LongitudeDegrees>
            </Position>
            <AltitudeMeters>1209.5999755859375</AltitudeMeters>
            <DistanceMeters>NAN</DistanceMeters>
          </Trackpoint>
          <Trackpoint>
            <Time>2021-08-03T10:04:56.000Z</Time>
            <Position>
              <LatitudeDegrees>-15.40337878279387950897216796875</LatitudeDegrees>
              <LongitudeDegrees>37.08033489994704723358154296875</LongitudeDegrees>
            </Position>
            <AltitudeMeters>1210</AltitudeMeters>
            <DistanceMeters>NAN</DistanceMeters>
          </Trackpoint>
          <Trackpoint>
            <Time>2021-08-03T10:04:58.000Z</Time>
            <Position>
              <LatitudeDegrees>-15.403395630419254302978515625</LatitudeDegrees>
              <LongitudeDegrees>37.08032366819679737091064453125</LongitudeDegrees>
            </Position>
            <AltitudeMeters>1210</AltitudeMeters>
            <DistanceMeters>NAN</DistanceMeters>
          </Trackpoint>
          <Trackpoint>
            <Time>2021-08-03T10:05:04.000Z</Time>
            <Position>
              <LatitudeDegrees>-15.40345656685531139373779296875</LatitudeDegrees>
              <LongitudeDegrees>37.0802898891270160675048828125</LongitudeDegrees>
            </Position>
            <AltitudeMeters>1210.199951171875</AltitudeMeters>
            <DistanceMeters>NAN</DistanceMeters>
          </Trackpoint>
          <Trackpoint>
            <Time>2021-08-03T10:05:07.000Z</Time>
            <Position>
              <LatitudeDegrees>-15.40349830873310565948486328125</LatitudeDegrees>
              <LongitudeDegrees>37.08026549778878688812255859375</LongitudeDegrees>
            </Position>
            <AltitudeMeters>1210.199951171875</AltitudeMeters>
            <DistanceMeters>NAN</DistanceMeters>
          </Trackpoint>
          <Trackpoint>
            <Time>2021-08-03T10:05:17.000Z</Time>
            <Position>
              <LatitudeDegrees>-15.4036003164947032928466796875</LatitudeDegrees>
              <LongitudeDegrees>37.08019961602985858917236328125</LongitudeDegrees>
            </Position>
            <AltitudeMeters>1209.800048828125</AltitudeMeters>
            <DistanceMeters>NAN</DistanceMeters>
          </Trackpoint>
          <Trackpoint>
            <Time>2021-08-03T10:05:26.000Z</Time>
            <Position>
              <LatitudeDegrees>-15.40371053852140903472900390625</LatitudeDegrees>
              <LongitudeDegrees>37.08016022108495235443115234375</LongitudeDegrees>
            </Position>
            <AltitudeMeters>1210</AltitudeMeters>
            <DistanceMeters>NAN</DistanceMeters>
          </Trackpoint>
          <Trackpoint>
            <Time>2021-08-03T10:05:29.000Z</Time>
            <Position>
              <LatitudeDegrees>-15.40374708361923694610595703125</LatitudeDegrees>
              <LongitudeDegrees>37.0801430381834506988525390625</LongitudeDegrees>
            </Position>
            <AltitudeMeters>1209.5999755859375</AltitudeMeters>
            <DistanceMeters>NAN</DistanceMeters>
          </Trackpoint>
          <Trackpoint>
            <Time>2021-08-03T10:05:37.000Z</Time>
            <Position>
              <LatitudeDegrees>-15.40383475832641124725341796875</LatitudeDegrees>
              <LongitudeDegrees>37.08010397851467132568359375</LongitudeDegrees>
            </Position>
            <AltitudeMeters>1209.800048828125</AltitudeMeters>
            <DistanceMeters>NAN</DistanceMeters>
          </Trackpoint>
          <Trackpoint>
            <Time>2021-08-03T10:05:39.000Z</Time>
            <Position>
              <LatitudeDegrees>-15.40385923348367214202880859375</LatitudeDegrees>
              <LongitudeDegrees>37.08009232766926288604736328125</LongitudeDegrees>
            </Position>
            <AltitudeMeters>1209.800048828125</AltitudeMeters>
            <DistanceMeters>NAN</DistanceMeters>
          </Trackpoint>
          <Trackpoint>
            <Time>2021-08-03T10:05:40.000Z</Time>
            <Position>
              <LatitudeDegrees>-15.40386929176747798919677734375</LatitudeDegrees>
              <LongitudeDegrees>37.08008746616542339324951171875</LongitudeDegrees>
            </Position>
            <AltitudeMeters>1209.800048828125</AltitudeMeters>
            <DistanceMeters>NAN</DistanceMeters>
          </Trackpoint>
          <Trackpoint>
            <Time>2021-08-03T10:05:41.000Z</Time>
            <Position>
              <LatitudeDegrees>-15.403880439698696136474609375</LatitudeDegrees>
              <LongitudeDegrees>37.08008478395640850067138671875</LongitudeDegrees>
            </Position>
            <AltitudeMeters>1210.5999755859375</AltitudeMeters>
            <DistanceMeters>NAN</DistanceMeters>
          </Trackpoint>
          <Trackpoint>
            <Time>2021-08-03T10:05:48.000Z</Time>
            <Position>
              <LatitudeDegrees>-15.4039697907865047454833984375</LatitudeDegrees>
              <LongitudeDegrees>37.0800484903156757354736328125</LongitudeDegrees>
            </Position>
            <AltitudeMeters>1209.800048828125</AltitudeMeters>
            <DistanceMeters>NAN</DistanceMeters>
          </Trackpoint>
          <Trackpoint>
            <Time>2021-08-03T10:05:52.000Z</Time>
            <Position>
              <LatitudeDegrees>-15.4040123708546161651611328125</LatitudeDegrees>
              <LongitudeDegrees>37.08002426661550998687744140625</LongitudeDegrees>
            </Position>
            <AltitudeMeters>1210</AltitudeMeters>
            <DistanceMeters>NAN</DistanceMeters>
          </Trackpoint>
          <Trackpoint>
            <Time>2021-08-03T10:06:00.000Z</Time>
            <Position>
              <LatitudeDegrees>-15.40410809218883514404296875</LatitudeDegrees>
              <LongitudeDegrees>37.07998931407928466796875</LongitudeDegrees>
            </Position>
            <AltitudeMeters>1210.800048828125</AltitudeMeters>
            <DistanceMeters>NAN</DistanceMeters>
          </Trackpoint>
          <Trackpoint>
            <Time>2021-08-03T10:06:03.000Z</Time>
            <Position>
              <LatitudeDegrees>-15.4041411168873310089111328125</LatitudeDegrees>
              <LongitudeDegrees>37.0799750648438930511474609375</LongitudeDegrees>
            </Position>
            <AltitudeMeters>1210.800048828125</AltitudeMeters>
            <DistanceMeters>NAN</DistanceMeters>
          </Trackpoint>
          <Trackpoint>
            <Time>2021-08-03T10:06:15.000Z</Time>
            <Position>
              <LatitudeDegrees>-15.404283106327056884765625</LatitudeDegrees>
              <LongitudeDegrees>37.079912535846233367919921875</LongitudeDegrees>
            </Position>
            <AltitudeMeters>1210.5999755859375</AltitudeMeters>
            <DistanceMeters>NAN</DistanceMeters>
          </Trackpoint>
          <Trackpoint>
            <Time>2021-08-03T10:06:18.000Z</Time>
            <Position>
              <LatitudeDegrees>-15.40431152097880840301513671875</LatitudeDegrees>
              <LongitudeDegrees>37.079888395965099334716796875</LongitudeDegrees>
            </Position>
            <AltitudeMeters>1211</AltitudeMeters>
            <DistanceMeters>NAN</DistanceMeters>
          </Trackpoint>
          <Trackpoint>
            <Time>2021-08-03T10:06:23.000Z</Time>
            <Position>
              <LatitudeDegrees>-15.40436156094074249267578125</LatitudeDegrees>
              <LongitudeDegrees>37.079852856695652008056640625</LongitudeDegrees>
            </Position>
            <AltitudeMeters>1211.199951171875</AltitudeMeters>
            <DistanceMeters>NAN</DistanceMeters>
          </Trackpoint>
          <Trackpoint>
            <Time>2021-08-03T10:06:25.000Z</Time>
            <Position>
              <LatitudeDegrees>-15.40438008494675159454345703125</LatitudeDegrees>
              <LongitudeDegrees>37.07984237931668758392333984375</LongitudeDegrees>
            </Position>
            <AltitudeMeters>1211.5999755859375</AltitudeMeters>
            <DistanceMeters>NAN</DistanceMeters>
          </Trackpoint>
          <Trackpoint>
            <Time>2021-08-03T10:06:27.000Z</Time>
            <Position>
              <LatitudeDegrees>-15.404408164322376251220703125</LatitudeDegrees>
              <LongitudeDegrees>37.0798282139003276824951171875</LongitudeDegrees>
            </Position>
            <AltitudeMeters>1211.5999755859375</AltitudeMeters>
            <DistanceMeters>NAN</DistanceMeters>
          </Trackpoint>
          <Trackpoint>
            <Time>2021-08-03T10:06:34.000Z</Time>
            <Position>
              <LatitudeDegrees>-15.40447781793773174285888671875</LatitudeDegrees>
              <LongitudeDegrees>37.079788148403167724609375</LongitudeDegrees>
            </Position>
            <AltitudeMeters>1212.800048828125</AltitudeMeters>
            <DistanceMeters>NAN</DistanceMeters>
          </Trackpoint>
          <Trackpoint>
            <Time>2021-08-03T10:06:39.000Z</Time>
            <Position>
              <LatitudeDegrees>-15.40452961809933185577392578125</LatitudeDegrees>
              <LongitudeDegrees>37.0797665230929851531982421875</LongitudeDegrees>
            </Position>
            <AltitudeMeters>1213.4000244140625</AltitudeMeters>
            <DistanceMeters>NAN</DistanceMeters>
          </Trackpoint>
          <Trackpoint>
            <Time>2021-08-03T10:06:42.000Z</Time>
            <Position>
              <LatitudeDegrees>-15.4045639000833034515380859375</LatitudeDegrees>
              <LongitudeDegrees>37.07975420169532299041748046875</LongitudeDegrees>
            </Position>
            <AltitudeMeters>1213.800048828125</AltitudeMeters>
            <DistanceMeters>NAN</DistanceMeters>
          </Trackpoint>
          <Trackpoint>
            <Time>2021-08-03T10:06:43.000Z</Time>
            <Position>
              <LatitudeDegrees>-15.40457605384290218353271484375</LatitudeDegrees>
              <LongitudeDegrees>37.07974833436310291290283203125</LongitudeDegrees>
            </Position>
            <AltitudeMeters>1213.800048828125</AltitudeMeters>
            <DistanceMeters>NAN</DistanceMeters>
          </Trackpoint>
          <Trackpoint>
            <Time>2021-08-03T10:06:44.000Z</Time>
            <Position>
              <LatitudeDegrees>-15.40457840077579021453857421875</LatitudeDegrees>
              <LongitudeDegrees>37.07974464632570743560791015625</LongitudeDegrees>
            </Position>
            <AltitudeMeters>1213.800048828125</AltitudeMeters>
            <DistanceMeters>NAN</DistanceMeters>
          </Trackpoint>
          <Trackpoint>
            <Time>2021-08-03T10:06:48.000Z</Time>
            <Position>
              <LatitudeDegrees>-15.404589883983135223388671875</LatitudeDegrees>
              <LongitudeDegrees>37.07973911426961421966552734375</LongitudeDegrees>
            </Position>
            <AltitudeMeters>1213.5999755859375</AltitudeMeters>
            <DistanceMeters>NAN</DistanceMeters>
          </Trackpoint>
          <Trackpoint>
            <Time>2021-08-03T10:06:49.000Z</Time>
            <Position>
              <LatitudeDegrees>-15.40459985844790935516357421875</LatitudeDegrees>
              <LongitudeDegrees>37.07973609678447246551513671875</LongitudeDegrees>
            </Position>
            <AltitudeMeters>1213.5999755859375</AltitudeMeters>
            <DistanceMeters>NAN</DistanceMeters>
          </Trackpoint>
          <Trackpoint>
            <Time>2021-08-03T10:06:51.000Z</Time>
            <Position>
              <LatitudeDegrees>-15.40462198667228221893310546875</LatitudeDegrees>
              <LongitudeDegrees>37.07972721196711063385009765625</LongitudeDegrees>
            </Position>
            <AltitudeMeters>1213.800048828125</AltitudeMeters>
            <DistanceMeters>NAN</DistanceMeters>
          </Trackpoint>
          <Trackpoint>
            <Time>2021-08-03T10:06:54.000Z</Time>
            <Position>
              <LatitudeDegrees>-15.404647886753082275390625</LatitudeDegrees>
              <LongitudeDegrees>37.07971765659749507904052734375</LongitudeDegrees>
            </Position>
            <AltitudeMeters>1214</AltitudeMeters>
            <DistanceMeters>NAN</DistanceMeters>
          </Trackpoint>
          <Trackpoint>
            <Time>2021-08-03T10:06:55.000Z</Time>
            <Position>
              <LatitudeDegrees>-15.4046550951898097991943359375</LatitudeDegrees>
              <LongitudeDegrees>37.079713381826877593994140625</LongitudeDegrees>
            </Position>
            <AltitudeMeters>1214</AltitudeMeters>
            <DistanceMeters>NAN</DistanceMeters>
          </Trackpoint>
          <Trackpoint>
            <Time>2021-08-03T10:06:58.000Z</Time>
            <Position>
              <LatitudeDegrees>-15.40468468330800533294677734375</LatitudeDegrees>
              <LongitudeDegrees>37.079702652990818023681640625</LongitudeDegrees>
            </Position>
            <AltitudeMeters>1214</AltitudeMeters>
            <DistanceMeters>NAN</DistanceMeters>
          </Trackpoint>
          <Trackpoint>
            <Time>2021-08-03T10:07:01.000Z</Time>
            <Position>
              <LatitudeDegrees>-15.40470999665558338165283203125</LatitudeDegrees>
              <LongitudeDegrees>37.0796887390315532684326171875</LongitudeDegrees>
            </Position>
            <AltitudeMeters>1214.4000244140625</AltitudeMeters>
            <DistanceMeters>NAN</DistanceMeters>
          </Trackpoint>
          <Trackpoint>
            <Time>2021-08-03T10:07:02.000Z</Time>
            <Position>
              <LatitudeDegrees>-15.40472005493938922882080078125</LatitudeDegrees>
              <LongitudeDegrees>37.07968421280384063720703125</LongitudeDegrees>
            </Position>
            <AltitudeMeters>1215</AltitudeMeters>
            <DistanceMeters>NAN</DistanceMeters>
          </Trackpoint>
          <Trackpoint>
            <Time>2021-08-03T10:07:05.000Z</Time>
            <Position>
              <LatitudeDegrees>-15.40474511682987213134765625</LatitudeDegrees>
              <LongitudeDegrees>37.07966870628297328948974609375</LongitudeDegrees>
            </Position>
            <AltitudeMeters>1215.199951171875</AltitudeMeters>
            <DistanceMeters>NAN</DistanceMeters>
          </Trackpoint>
          <Trackpoint>
            <Time>2021-08-03T10:07:13.000Z</Time>
            <Position>
              <LatitudeDegrees>-15.40482298471033573150634765625</LatitudeDegrees>
              <LongitudeDegrees>37.079620845615863800048828125</LongitudeDegrees>
            </Position>
            <AltitudeMeters>1216</AltitudeMeters>
            <DistanceMeters>NAN</DistanceMeters>
          </Trackpoint>
          <Trackpoint>
            <Time>2021-08-03T10:07:15.000Z</Time>
            <Position>
              <LatitudeDegrees>-15.40484444238245487213134765625</LatitudeDegrees>
              <LongitudeDegrees>37.07960785366594791412353515625</LongitudeDegrees>
            </Position>
            <AltitudeMeters>1216.199951171875</AltitudeMeters>
            <DistanceMeters>NAN</DistanceMeters>
          </Trackpoint>
          <Trackpoint>
            <Time>2021-08-03T10:07:18.000Z</Time>
            <Position>
              <LatitudeDegrees>-15.40487126447260379791259765625</LatitudeDegrees>
              <LongitudeDegrees>37.0795910060405731201171875</LongitudeDegrees>
            </Position>
            <AltitudeMeters>1217</AltitudeMeters>
            <DistanceMeters>NAN</DistanceMeters>
          </Trackpoint>
          <Trackpoint>
            <Time>2021-08-03T10:07:19.000Z</Time>
            <Position>
              <LatitudeDegrees>-15.40487830527126789093017578125</LatitudeDegrees>
              <LongitudeDegrees>37.079584635794162750244140625</LongitudeDegrees>
            </Position>
            <AltitudeMeters>1217</AltitudeMeters>
            <DistanceMeters>NAN</DistanceMeters>
          </Trackpoint>
          <Trackpoint>
            <Time>2021-08-03T10:07:21.000Z</Time>
            <Position>
              <LatitudeDegrees>-15.4048978351056575775146484375</LatitudeDegrees>
              <LongitudeDegrees>37.07957281731069087982177734375</LongitudeDegrees>
            </Position>
            <AltitudeMeters>1217.4000244140625</AltitudeMeters>
            <DistanceMeters>NAN</DistanceMeters>
          </Trackpoint>
          <Trackpoint>
            <Time>2021-08-03T10:07:24.000Z</Time>
            <Position>
              <LatitudeDegrees>-15.40492960251867771148681640625</LatitudeDegrees>
              <LongitudeDegrees>37.07956057973206043243408203125</LongitudeDegrees>
            </Position>
            <AltitudeMeters>1218</AltitudeMeters>
            <DistanceMeters>NAN</DistanceMeters>
          </Trackpoint>
          <Trackpoint>
            <Time>2021-08-03T10:07:27.000Z</Time>
            <Position>
              <LatitudeDegrees>-15.40495969355106353759765625</LatitudeDegrees>
              <LongitudeDegrees>37.0795412175357341766357421875</LongitudeDegrees>
            </Position>
            <AltitudeMeters>1218.800048828125</AltitudeMeters>
            <DistanceMeters>NAN</DistanceMeters>
          </Trackpoint>
          <Trackpoint>
            <Time>2021-08-03T10:07:29.000Z</Time>
            <Position>
              <LatitudeDegrees>-15.40497737936675548553466796875</LatitudeDegrees>
              <LongitudeDegrees>37.07952638156712055206298828125</LongitudeDegrees>
            </Position>
            <AltitudeMeters>1218.800048828125</AltitudeMeters>
            <DistanceMeters>NAN</DistanceMeters>
          </Trackpoint>
          <Trackpoint>
            <Time>2021-08-03T10:07:31.000Z</Time>
            <Position>
              <LatitudeDegrees>-15.40499447844922542572021484375</LatitudeDegrees>
              <LongitudeDegrees>37.0795023255050182342529296875</LongitudeDegrees>
            </Position>
            <AltitudeMeters>1218.800048828125</AltitudeMeters>
            <DistanceMeters>NAN</DistanceMeters>
          </Trackpoint>
          <Trackpoint>
            <Time>2021-08-03T10:07:32.000Z</Time>
            <Position>
              <LatitudeDegrees>-15.40500151924788951873779296875</LatitudeDegrees>
              <LongitudeDegrees>37.07949603907763957977294921875</LongitudeDegrees>
            </Position>
            <AltitudeMeters>1219.199951171875</AltitudeMeters>
            <DistanceMeters>NAN</DistanceMeters>
          </Trackpoint>
          <Trackpoint>
            <Time>2021-08-03T10:07:39.000Z</Time>
            <Position>
              <LatitudeDegrees>-15.4050490446388721466064453125</LatitudeDegrees>
              <LongitudeDegrees>37.079440467059612274169921875</LongitudeDegrees>
            </Position>
            <AltitudeMeters>1220.5999755859375</AltitudeMeters>
            <DistanceMeters>NAN</DistanceMeters>
          </Trackpoint>
          <Trackpoint>
            <Time>2021-08-03T10:07:48.000Z</Time>
            <Position>
              <LatitudeDegrees>-15.4051186144351959228515625</LatitudeDegrees>
              <LongitudeDegrees>37.07937919534742832183837890625</LongitudeDegrees>
            </Position>
            <AltitudeMeters>1221.4000244140625</AltitudeMeters>
            <DistanceMeters>NAN</DistanceMeters>
          </Trackpoint>
          <Trackpoint>
            <Time>2021-08-03T10:07:49.000Z</Time>
            <Position>
              <LatitudeDegrees>-15.405124984681606292724609375</LatitudeDegrees>
              <LongitudeDegrees>37.07937248982489109039306640625</LongitudeDegrees>
            </Position>
            <AltitudeMeters>1221.5999755859375</AltitudeMeters>
            <DistanceMeters>NAN</DistanceMeters>
          </Trackpoint>
          <Trackpoint>
            <Time>2021-08-03T10:07:53.000Z</Time>
            <Position>
              <LatitudeDegrees>-15.40514769963920116424560546875</LatitudeDegrees>
              <LongitudeDegrees>37.07934600301086902618408203125</LongitudeDegrees>
            </Position>
            <AltitudeMeters>1221.800048828125</AltitudeMeters>
            <DistanceMeters>NAN</DistanceMeters>
          </Trackpoint>
          <Trackpoint>
            <Time>2021-08-03T10:07:58.000Z</Time>
            <Position>
              <LatitudeDegrees>-15.40519111789762973785400390625</LatitudeDegrees>
              <LongitudeDegrees>37.07929839380085468292236328125</LongitudeDegrees>
            </Position>
            <AltitudeMeters>1222.800048828125</AltitudeMeters>
            <DistanceMeters>NAN</DistanceMeters>
          </Trackpoint>
          <Trackpoint>
            <Time>2021-08-03T10:08:04.000Z</Time>
            <Position>
              <LatitudeDegrees>-15.4052344523370265960693359375</LatitudeDegrees>
              <LongitudeDegrees>37.07925681956112384796142578125</LongitudeDegrees>
            </Position>
            <AltitudeMeters>1224</AltitudeMeters>
            <DistanceMeters>NAN</DistanceMeters>
          </Trackpoint>
          <Trackpoint>
            <Time>2021-08-03T10:08:08.000Z</Time>
            <Position>
              <LatitudeDegrees>-15.40525666438043117523193359375</LatitudeDegrees>
              <LongitudeDegrees>37.0792290754616260528564453125</LongitudeDegrees>
            </Position>
            <AltitudeMeters>1224.5999755859375</AltitudeMeters>
            <DistanceMeters>NAN</DistanceMeters>
          </Trackpoint>
          <Trackpoint>
            <Time>2021-08-03T10:08:10.000Z</Time>
            <Position>
              <LatitudeDegrees>-15.40526169352233409881591796875</LatitudeDegrees>
              <LongitudeDegrees>37.07921239547431468963623046875</LongitudeDegrees>
            </Position>
            <AltitudeMeters>1225</AltitudeMeters>
            <DistanceMeters>NAN</DistanceMeters>
          </Trackpoint>
          <Trackpoint>
            <Time>2021-08-03T10:08:18.000Z</Time>
            <Position>
              <LatitudeDegrees>-15.4052958078682422637939453125</LatitudeDegrees>
              <LongitudeDegrees>37.079160846769809722900390625</LongitudeDegrees>
            </Position>
            <AltitudeMeters>1226</AltitudeMeters>
            <DistanceMeters>NAN</DistanceMeters>
          </Trackpoint>
          <Trackpoint>
            <Time>2021-08-03T10:08:28.000Z</Time>
            <Position>
              <LatitudeDegrees>-15.40534484200179576873779296875</LatitudeDegrees>
              <LongitudeDegrees>37.07910485565662384033203125</LongitudeDegrees>
            </Position>
            <AltitudeMeters>1227</AltitudeMeters>
            <DistanceMeters>NAN</DistanceMeters>
          </Trackpoint>
          <Trackpoint>
            <Time>2021-08-03T10:08:34.000Z</Time>
            <Position>
              <LatitudeDegrees>-15.405389182269573211669921875</LatitudeDegrees>
              <LongitudeDegrees>37.07907174713909626007080078125</LongitudeDegrees>
            </Position>
            <AltitudeMeters>1228.199951171875</AltitudeMeters>
            <DistanceMeters>NAN</DistanceMeters>
          </Trackpoint>
          <Trackpoint>
            <Time>2021-08-03T10:08:36.000Z</Time>
            <Position>
              <LatitudeDegrees>-15.40540234185755252838134765625</LatitudeDegrees>
              <LongitudeDegrees>37.0790644548833370208740234375</LongitudeDegrees>
            </Position>
            <AltitudeMeters>1228.199951171875</AltitudeMeters>
            <DistanceMeters>NAN</DistanceMeters>
          </Trackpoint>
          <Trackpoint>
            <Time>2021-08-03T10:08:42.000Z</Time>
            <Position>
              <LatitudeDegrees>-15.4054500348865985870361328125</LatitudeDegrees>
              <LongitudeDegrees>37.0790319330990314483642578125</LongitudeDegrees>
            </Position>
            <AltitudeMeters>1229.199951171875</AltitudeMeters>
            <DistanceMeters>NAN</DistanceMeters>
          </Trackpoint>
          <Trackpoint>
            <Time>2021-08-03T10:08:44.000Z</Time>
            <Position>
              <LatitudeDegrees>-15.4054684750735759735107421875</LatitudeDegrees>
              <LongitudeDegrees>37.07902112044394016265869140625</LongitudeDegrees>
            </Position>
            <AltitudeMeters>1229.5999755859375</AltitudeMeters>
            <DistanceMeters>NAN</DistanceMeters>
          </Trackpoint>
          <Trackpoint>
            <Time>2021-08-03T10:08:47.000Z</Time>
            <Position>
              <LatitudeDegrees>-15.4054927825927734375</LatitudeDegrees>
              <LongitudeDegrees>37.07899832166731357574462890625</LongitudeDegrees>
            </Position>
            <AltitudeMeters>1230.199951171875</AltitudeMeters>
            <DistanceMeters>NAN</DistanceMeters>
          </Trackpoint>
          <Trackpoint>
            <Time>2021-08-03T10:08:49.000Z</Time>
            <Position>
              <LatitudeDegrees>-15.4055060259997844696044921875</LatitudeDegrees>
              <LongitudeDegrees>37.0789906941354274749755859375</LongitudeDegrees>
            </Position>
            <AltitudeMeters>1230.5999755859375</AltitudeMeters>
            <DistanceMeters>NAN</DistanceMeters>
          </Trackpoint>
          <Trackpoint>
            <Time>2021-08-03T10:08:55.000Z</Time>
            <Position>
              <LatitudeDegrees>-15.4055455885827541351318359375</LatitudeDegrees>
              <LongitudeDegrees>37.0789632014930248260498046875</LongitudeDegrees>
            </Position>
            <AltitudeMeters>1231</AltitudeMeters>
            <DistanceMeters>NAN</DistanceMeters>
          </Trackpoint>
          <Trackpoint>
            <Time>2021-08-03T10:08:56.000Z</Time>
            <Position>
              <LatitudeDegrees>-15.405548103153705596923828125</LatitudeDegrees>
              <LongitudeDegrees>37.078956328332424163818359375</LongitudeDegrees>
            </Position>
            <AltitudeMeters>1231.4000244140625</AltitudeMeters>
            <DistanceMeters>NAN</DistanceMeters>
          </Trackpoint>
          <Trackpoint>
            <Time>2021-08-03T10:08:59.000Z</Time>
            <Position>
              <LatitudeDegrees>-15.40557215921580791473388671875</LatitudeDegrees>
              <LongitudeDegrees>37.078936211764812469482421875</LongitudeDegrees>
            </Position>
            <AltitudeMeters>1231.800048828125</AltitudeMeters>
            <DistanceMeters>NAN</DistanceMeters>
          </Trackpoint>
          <Trackpoint>
            <Time>2021-08-03T10:09:05.000Z</Time>
            <Position>
              <LatitudeDegrees>-15.40560836903750896453857421875</LatitudeDegrees>
              <LongitudeDegrees>37.0788984932005405426025390625</LongitudeDegrees>
            </Position>
            <AltitudeMeters>1232.4000244140625</AltitudeMeters>
            <DistanceMeters>NAN</DistanceMeters>
          </Trackpoint>
          <Trackpoint>
            <Time>2021-08-03T10:09:07.000Z</Time>
            <Position>
              <LatitudeDegrees>-15.40562110953032970428466796875</LatitudeDegrees>
              <LongitudeDegrees>37.07888625562191009521484375</LongitudeDegrees>
            </Position>
            <AltitudeMeters>1232.800048828125</AltitudeMeters>
            <DistanceMeters>NAN</DistanceMeters>
          </Trackpoint>
          <Trackpoint>
            <Time>2021-08-03T10:09:14.000Z</Time>
            <Position>
              <LatitudeDegrees>-15.405664779245853424072265625</LatitudeDegrees>
              <LongitudeDegrees>37.07883353345096111297607421875</LongitudeDegrees>
            </Position>
            <AltitudeMeters>1234</AltitudeMeters>
            <DistanceMeters>NAN</DistanceMeters>
          </Trackpoint>
          <Trackpoint>
            <Time>2021-08-03T10:09:22.000Z</Time>
            <Position>
              <LatitudeDegrees>-15.4057095386087894439697265625</LatitudeDegrees>
              <LongitudeDegrees>37.078770585358142852783203125</LongitudeDegrees>
            </Position>
            <AltitudeMeters>1235</AltitudeMeters>
            <DistanceMeters>NAN</DistanceMeters>
          </Trackpoint>
          <Trackpoint>
            <Time>2021-08-03T10:09:25.000Z</Time>
            <Position>
              <LatitudeDegrees>-15.4057340137660503387451171875</LatitudeDegrees>
              <LongitudeDegrees>37.07874921150505542755126953125</LongitudeDegrees>
            </Position>
            <AltitudeMeters>1235.199951171875</AltitudeMeters>
            <DistanceMeters>NAN</DistanceMeters>
          </Trackpoint>
          <Trackpoint>
            <Time>2021-08-03T10:09:29.000Z</Time>
            <Position>
              <LatitudeDegrees>-15.40576393716037273406982421875</LatitudeDegrees>
              <LongitudeDegrees>37.07871459424495697021484375</LongitudeDegrees>
            </Position>
            <AltitudeMeters>1235.800048828125</AltitudeMeters>
            <DistanceMeters>NAN</DistanceMeters>
          </Trackpoint>
          <Trackpoint>
            <Time>2021-08-03T10:09:32.000Z</Time>
            <Position>
              <LatitudeDegrees>-15.40577776730060577392578125</LatitudeDegrees>
              <LongitudeDegrees>37.0786899514496326446533203125</LongitudeDegrees>
            </Position>
            <AltitudeMeters>1236.199951171875</AltitudeMeters>
            <DistanceMeters>NAN</DistanceMeters>
          </Trackpoint>
          <Trackpoint>
            <Time>2021-08-03T10:09:36.000Z</Time>
            <Position>
              <LatitudeDegrees>-15.40579645894467830657958984375</LatitudeDegrees>
              <LongitudeDegrees>37.078657262027263641357421875</LongitudeDegrees>
            </Position>
            <AltitudeMeters>1236.5999755859375</AltitudeMeters>
            <DistanceMeters>NAN</DistanceMeters>
          </Trackpoint>
          <Trackpoint>
            <Time>2021-08-03T10:09:39.000Z</Time>
            <Position>
              <LatitudeDegrees>-15.40580995380878448486328125</LatitudeDegrees>
              <LongitudeDegrees>37.07863739691674709320068359375</LongitudeDegrees>
            </Position>
            <AltitudeMeters>1237</AltitudeMeters>
            <DistanceMeters>NAN</DistanceMeters>
          </Trackpoint>
          <Trackpoint>
            <Time>2021-08-03T10:09:42.000Z</Time>
            <Position>
              <LatitudeDegrees>-15.405825041234493255615234375</LatitudeDegrees>
              <LongitudeDegrees>37.07862113602459430694580078125</LongitudeDegrees>
            </Position>
            <AltitudeMeters>1237.4000244140625</AltitudeMeters>
            <DistanceMeters>NAN</DistanceMeters>
          </Trackpoint>
          <Trackpoint>
            <Time>2021-08-03T10:09:49.000Z</Time>
            <Position>
              <LatitudeDegrees>-15.40586032904684543609619140625</LatitudeDegrees>
              <LongitudeDegrees>37.0785675756633281707763671875</LongitudeDegrees>
            </Position>
            <AltitudeMeters>1238.4000244140625</AltitudeMeters>
            <DistanceMeters>NAN</DistanceMeters>
          </Trackpoint>
          <Trackpoint>
            <Time>2021-08-03T10:09:50.000Z</Time>
            <Position>
              <LatitudeDegrees>-15.40586401708424091339111328125</LatitudeDegrees>
              <LongitudeDegrees>37.0785583555698394775390625</LongitudeDegrees>
            </Position>
            <AltitudeMeters>1238.5999755859375</AltitudeMeters>
            <DistanceMeters>NAN</DistanceMeters>
          </Trackpoint>
          <Trackpoint>
            <Time>2021-08-03T10:09:57.000Z</Time>
            <Position>
              <LatitudeDegrees>-15.405892096459865570068359375</LatitudeDegrees>
              <LongitudeDegrees>37.07850244827568531036376953125</LongitudeDegrees>
            </Position>
            <AltitudeMeters>1239.5999755859375</AltitudeMeters>
            <DistanceMeters>NAN</DistanceMeters>
          </Trackpoint>
          <Trackpoint>
            <Time>2021-08-03T10:10:00.000Z</Time>
            <Position>
              <LatitudeDegrees>-15.40590651333332061767578125</LatitudeDegrees>
              <LongitudeDegrees>37.078479230403900146484375</LongitudeDegrees>
            </Position>
            <AltitudeMeters>1239.800048828125</AltitudeMeters>
            <DistanceMeters>NAN</DistanceMeters>
          </Trackpoint>
          <Trackpoint>
            <Time>2021-08-03T10:10:06.000Z</Time>
            <Position>
              <LatitudeDegrees>-15.405929982662200927734375</LatitudeDegrees>
              <LongitudeDegrees>37.07843489013612270355224609375</LongitudeDegrees>
            </Position>
            <AltitudeMeters>1240.800048828125</AltitudeMeters>
            <DistanceMeters>NAN</DistanceMeters>
          </Trackpoint>
          <Trackpoint>
            <Time>2021-08-03T10:10:14.000Z</Time>
            <Position>
              <LatitudeDegrees>-15.4059861414134502410888671875</LatitudeDegrees>
              <LongitudeDegrees>37.07839046604931354522705078125</LongitudeDegrees>
            </Position>
            <AltitudeMeters>1241.800048828125</AltitudeMeters>
            <DistanceMeters>NAN</DistanceMeters>
          </Trackpoint>
          <Trackpoint>
            <Time>2021-08-03T10:10:16.000Z</Time>
            <Position>
              <LatitudeDegrees>-15.4060045816004276275634765625</LatitudeDegrees>
              <LongitudeDegrees>37.07837990485131740570068359375</LongitudeDegrees>
            </Position>
            <AltitudeMeters>1242.199951171875</AltitudeMeters>
            <DistanceMeters>NAN</DistanceMeters>
          </Trackpoint>
          <Trackpoint>
            <Time>2021-08-03T10:10:17.000Z</Time>
            <Position>
              <LatitudeDegrees>-15.406011454761028289794921875</LatitudeDegrees>
              <LongitudeDegrees>37.078374959528446197509765625</LongitudeDegrees>
            </Position>
            <AltitudeMeters>1242.4000244140625</AltitudeMeters>
            <DistanceMeters>NAN</DistanceMeters>
          </Trackpoint>
          <Trackpoint>
            <Time>2021-08-03T10:10:19.000Z</Time>
            <Position>
              <LatitudeDegrees>-15.40602729655802249908447265625</LatitudeDegrees>
              <LongitudeDegrees>37.07836322486400604248046875</LongitudeDegrees>
            </Position>
            <AltitudeMeters>1242.4000244140625</AltitudeMeters>
            <DistanceMeters>NAN</DistanceMeters>
          </Trackpoint>
          <Trackpoint>
            <Time>2021-08-03T10:10:21.000Z</Time>
            <Position>
              <LatitudeDegrees>-15.406044311821460723876953125</LatitudeDegrees>
              <LongitudeDegrees>37.07835408858954906463623046875</LongitudeDegrees>
            </Position>
            <AltitudeMeters>1242.4000244140625</AltitudeMeters>
            <DistanceMeters>NAN</DistanceMeters>
          </Trackpoint>
          <Trackpoint>
            <Time>2021-08-03T10:10:25.000Z</Time>
            <Position>
              <LatitudeDegrees>-15.40607691742479801177978515625</LatitudeDegrees>
              <LongitudeDegrees>37.078340761363506317138671875</LongitudeDegrees>
            </Position>
            <AltitudeMeters>1242.5999755859375</AltitudeMeters>
            <DistanceMeters>NAN</DistanceMeters>
          </Trackpoint>
          <Trackpoint>
            <Time>2021-08-03T10:10:27.000Z</Time>
            <Position>
              <LatitudeDegrees>-15.406081862747669219970703125</LatitudeDegrees>
              <LongitudeDegrees>37.07833883352577686309814453125</LongitudeDegrees>
            </Position>
            <AltitudeMeters>1243.199951171875</AltitudeMeters>
            <DistanceMeters>NAN</DistanceMeters>
          </Trackpoint>
          <Trackpoint>
            <Time>2021-08-03T10:10:28.000Z</Time>
            <Position>
              <LatitudeDegrees>-15.4060815274715423583984375</LatitudeDegrees>
              <LongitudeDegrees>37.0783389173448085784912109375</LongitudeDegrees>
            </Position>
            <AltitudeMeters>1243.199951171875</AltitudeMeters>
            <DistanceMeters>NAN</DistanceMeters>
          </Trackpoint>
          <Trackpoint>
            <Time>2021-08-03T10:10:32.000Z</Time>
            <Position>
              <LatitudeDegrees>-15.4060770012438297271728515625</LatitudeDegrees>
              <LongitudeDegrees>37.0783415995538234710693359375</LongitudeDegrees>
            </Position>
            <AltitudeMeters>1243</AltitudeMeters>
            <DistanceMeters>NAN</DistanceMeters>
          </Trackpoint>
          <Trackpoint>
            <Time>2021-08-03T10:10:35.000Z</Time>
            <Position>
              <LatitudeDegrees>-15.40609820745885372161865234375</LatitudeDegrees>
              <LongitudeDegrees>37.07833799533545970916748046875</LongitudeDegrees>
            </Position>
            <AltitudeMeters>1243</AltitudeMeters>
            <DistanceMeters>NAN</DistanceMeters>
          </Trackpoint>
          <Trackpoint>
            <Time>2021-08-03T10:10:37.000Z</Time>
            <Position>
              <LatitudeDegrees>-15.4061195813119411468505859375</LatitudeDegrees>
              <LongitudeDegrees>37.07833330146968364715576171875</LongitudeDegrees>
            </Position>
            <AltitudeMeters>1243.199951171875</AltitudeMeters>
            <DistanceMeters>NAN</DistanceMeters>
          </Trackpoint>
          <Trackpoint>
            <Time>2021-08-03T10:10:38.000Z</Time>
            <Position>
              <LatitudeDegrees>-15.4061303101480007171630859375</LatitudeDegrees>
              <LongitudeDegrees>37.07833229564130306243896484375</LongitudeDegrees>
            </Position>
            <AltitudeMeters>1243.4000244140625</AltitudeMeters>
            <DistanceMeters>NAN</DistanceMeters>
          </Trackpoint>
          <Trackpoint>
            <Time>2021-08-03T10:10:40.000Z</Time>
            <Position>
              <LatitudeDegrees>-15.40614732541143894195556640625</LatitudeDegrees>
              <LongitudeDegrees>37.0783251710236072540283203125</LongitudeDegrees>
            </Position>
            <AltitudeMeters>1243.800048828125</AltitudeMeters>
            <DistanceMeters>NAN</DistanceMeters>
          </Trackpoint>
          <Trackpoint>
            <Time>2021-08-03T10:10:42.000Z</Time>
            <Position>
              <LatitudeDegrees>-15.406160652637481689453125</LatitudeDegrees>
              <LongitudeDegrees>37.0783147774636745452880859375</LongitudeDegrees>
            </Position>
            <AltitudeMeters>1244</AltitudeMeters>
            <DistanceMeters>NAN</DistanceMeters>
          </Trackpoint>
          <Trackpoint>
            <Time>2021-08-03T10:10:45.000Z</Time>
            <Position>
              <LatitudeDegrees>-15.40618278086185455322265625</LatitudeDegrees>
              <LongitudeDegrees>37.0783010311424732208251953125</LongitudeDegrees>
            </Position>
            <AltitudeMeters>1244.5999755859375</AltitudeMeters>
            <DistanceMeters>NAN</DistanceMeters>
          </Trackpoint>
          <Trackpoint>
            <Time>2021-08-03T10:10:46.000Z</Time>
            <Position>
              <LatitudeDegrees>-15.4061916656792163848876953125</LatitudeDegrees>
              <LongitudeDegrees>37.07829994149506092071533203125</LongitudeDegrees>
            </Position>
            <AltitudeMeters>1244.800048828125</AltitudeMeters>
            <DistanceMeters>NAN</DistanceMeters>
          </Trackpoint>
          <Trackpoint>
            <Time>2021-08-03T10:10:51.000Z</Time>
            <Position>
              <LatitudeDegrees>-15.40622762404382228851318359375</LatitudeDegrees>
              <LongitudeDegrees>37.07828083075582981109619140625</LongitudeDegrees>
            </Position>
            <AltitudeMeters>1245.800048828125</AltitudeMeters>
            <DistanceMeters>NAN</DistanceMeters>
          </Trackpoint>
          <Trackpoint>
            <Time>2021-08-03T10:10:56.000Z</Time>
            <Position>
              <LatitudeDegrees>-15.4062664322555065155029296875</LatitudeDegrees>
              <LongitudeDegrees>37.0782611332833766937255859375</LongitudeDegrees>
            </Position>
            <AltitudeMeters>1246.800048828125</AltitudeMeters>
            <DistanceMeters>NAN</DistanceMeters>
          </Trackpoint>
          <Trackpoint>
            <Time>2021-08-03T10:10:58.000Z</Time>
            <Position>
              <LatitudeDegrees>-15.406283028423786163330078125</LatitudeDegrees>
              <LongitudeDegrees>37.07825149409472942352294921875</LongitudeDegrees>
            </Position>
            <AltitudeMeters>1247</AltitudeMeters>
            <DistanceMeters>NAN</DistanceMeters>
          </Trackpoint>
          <Trackpoint>
            <Time>2021-08-03T10:11:06.000Z</Time>
            <Position>
              <LatitudeDegrees>-15.4063485749065876007080078125</LatitudeDegrees>
              <LongitudeDegrees>37.0782205648720264434814453125</LongitudeDegrees>
            </Position>
            <AltitudeMeters>1248</AltitudeMeters>
            <DistanceMeters>NAN</DistanceMeters>
          </Trackpoint>
          <Trackpoint>
            <Time>2021-08-03T10:11:07.000Z</Time>
            <Position>
              <LatitudeDegrees>-15.40635469369590282440185546875</LatitudeDegrees>
              <LongitudeDegrees>37.07821813412010669708251953125</LongitudeDegrees>
            </Position>
            <AltitudeMeters>1248</AltitudeMeters>
            <DistanceMeters>NAN</DistanceMeters>
          </Trackpoint>
          <Trackpoint>
            <Time>2021-08-03T10:11:12.000Z</Time>
            <Position>
              <LatitudeDegrees>-15.40639224462211132049560546875</LatitudeDegrees>
              <LongitudeDegrees>37.0781957544386386871337890625</LongitudeDegrees>
            </Position>
            <AltitudeMeters>1249.199951171875</AltitudeMeters>
            <DistanceMeters>NAN</DistanceMeters>
          </Trackpoint>
          <Trackpoint>
            <Time>2021-08-03T10:11:17.000Z</Time>
            <Position>
              <LatitudeDegrees>-15.40643348358571529388427734375</LatitudeDegrees>
              <LongitudeDegrees>37.0781712792813777923583984375</LongitudeDegrees>
            </Position>
            <AltitudeMeters>1249.5999755859375</AltitudeMeters>
            <DistanceMeters>NAN</DistanceMeters>
          </Trackpoint>
          <Trackpoint>
            <Time>2021-08-03T10:11:20.000Z</Time>
            <Position>
              <LatitudeDegrees>-15.40645812638103961944580078125</LatitudeDegrees>
              <LongitudeDegrees>37.07815627567470073699951171875</LongitudeDegrees>
            </Position>
            <AltitudeMeters>1250.199951171875</AltitudeMeters>
            <DistanceMeters>NAN</DistanceMeters>
          </Trackpoint>
          <Trackpoint>
            <Time>2021-08-03T10:11:21.000Z</Time>
            <Position>
              <LatitudeDegrees>-15.40646483190357685089111328125</LatitudeDegrees>
              <LongitudeDegrees>37.0781508274376392364501953125</LongitudeDegrees>
            </Position>
            <AltitudeMeters>1250.199951171875</AltitudeMeters>
            <DistanceMeters>NAN</DistanceMeters>
          </Trackpoint>
          <Trackpoint>
            <Time>2021-08-03T10:11:28.000Z</Time>
            <Position>
              <LatitudeDegrees>-15.40651679970324039459228515625</LatitudeDegrees>
              <LongitudeDegrees>37.07810481078922748565673828125</LongitudeDegrees>
            </Position>
            <AltitudeMeters>1251.4000244140625</AltitudeMeters>
            <DistanceMeters>NAN</DistanceMeters>
          </Trackpoint>
          <Trackpoint>
            <Time>2021-08-03T10:11:29.000Z</Time>
            <Position>
              <LatitudeDegrees>-15.406523086130619049072265625</LatitudeDegrees>
              <LongitudeDegrees>37.0780970156192779541015625</LongitudeDegrees>
            </Position>
            <AltitudeMeters>1251.5999755859375</AltitudeMeters>
            <DistanceMeters>NAN</DistanceMeters>
          </Trackpoint>
          <Trackpoint>
            <Time>2021-08-03T10:11:41.000Z</Time>
            <Position>
              <LatitudeDegrees>-15.4066013731062412261962890625</LatitudeDegrees>
              <LongitudeDegrees>37.077994756400585174560546875</LongitudeDegrees>
            </Position>
            <AltitudeMeters>1252</AltitudeMeters>
            <DistanceMeters>NAN</DistanceMeters>
          </Trackpoint>
          <Trackpoint>
            <Time>2021-08-03T10:11:46.000Z</Time>
            <Position>
              <LatitudeDegrees>-15.40663783438503742218017578125</LatitudeDegrees>
              <LongitudeDegrees>37.07795863039791584014892578125</LongitudeDegrees>
            </Position>
            <AltitudeMeters>1251.800048828125</AltitudeMeters>
            <DistanceMeters>NAN</DistanceMeters>
          </Trackpoint>
          <Trackpoint>
            <Time>2021-08-03T10:11:49.000Z</Time>
            <Position>
              <LatitudeDegrees>-15.4066650755703449249267578125</LatitudeDegrees>
              <LongitudeDegrees>37.07794086076319217681884765625</LongitudeDegrees>
            </Position>
            <AltitudeMeters>1252</AltitudeMeters>
            <DistanceMeters>NAN</DistanceMeters>
          </Trackpoint>
          <Trackpoint>
            <Time>2021-08-03T10:11:54.000Z</Time>
            <Position>
              <LatitudeDegrees>-15.40670338086783885955810546875</LatitudeDegrees>
              <LongitudeDegrees>37.07790683023631572723388671875</LongitudeDegrees>
            </Position>
            <AltitudeMeters>1252.199951171875</AltitudeMeters>
            <DistanceMeters>NAN</DistanceMeters>
          </Trackpoint>
          <Trackpoint>
            <Time>2021-08-03T10:11:57.000Z</Time>
            <Position>
              <LatitudeDegrees>-15.4067230783402919769287109375</LatitudeDegrees>
              <LongitudeDegrees>37.0778836123645305633544921875</LongitudeDegrees>
            </Position>
            <AltitudeMeters>1252.800048828125</AltitudeMeters>
            <DistanceMeters>NAN</DistanceMeters>
          </Trackpoint>
          <Trackpoint>
            <Time>2021-08-03T10:11:58.000Z</Time>
            <Position>
              <LatitudeDegrees>-15.4067279398441314697265625</LatitudeDegrees>
              <LongitudeDegrees>37.07787766121327877044677734375</LongitudeDegrees>
            </Position>
            <AltitudeMeters>1252.800048828125</AltitudeMeters>
            <DistanceMeters>NAN</DistanceMeters>
          </Trackpoint>
          <Trackpoint>
            <Time>2021-08-03T10:12:02.000Z</Time>
            <Position>
              <LatitudeDegrees>-15.40675518102943897247314453125</LatitudeDegrees>
              <LongitudeDegrees>37.07784681580960750579833984375</LongitudeDegrees>
            </Position>
            <AltitudeMeters>1253.199951171875</AltitudeMeters>
            <DistanceMeters>NAN</DistanceMeters>
          </Trackpoint>
          <Trackpoint>
            <Time>2021-08-03T10:12:05.000Z</Time>
            <Position>
              <LatitudeDegrees>-15.40677948854863643646240234375</LatitudeDegrees>
              <LongitudeDegrees>37.07782669924199581146240234375</LongitudeDegrees>
            </Position>
            <AltitudeMeters>1253.800048828125</AltitudeMeters>
            <DistanceMeters>NAN</DistanceMeters>
          </Trackpoint>
          <Trackpoint>
            <Time>2021-08-03T10:12:07.000Z</Time>
            <Position>
              <LatitudeDegrees>-15.4068005271255970001220703125</LatitudeDegrees>
              <LongitudeDegrees>37.0778075046837329864501953125</LongitudeDegrees>
            </Position>
            <AltitudeMeters>1253.800048828125</AltitudeMeters>
            <DistanceMeters>NAN</DistanceMeters>
          </Trackpoint>
          <Trackpoint>
            <Time>2021-08-03T10:12:10.000Z</Time>
            <Position>
              <LatitudeDegrees>-15.40682408027350902557373046875</LatitudeDegrees>
              <LongitudeDegrees>37.077787220478057861328125</LongitudeDegrees>
            </Position>
            <AltitudeMeters>1253.800048828125</AltitudeMeters>
            <DistanceMeters>NAN</DistanceMeters>
          </Trackpoint>
          <Trackpoint>
            <Time>2021-08-03T10:12:14.000Z</Time>
            <Position>
              <LatitudeDegrees>-15.40684930980205535888671875</LatitudeDegrees>
              <LongitudeDegrees>37.07776802591979503631591796875</LongitudeDegrees>
            </Position>
            <AltitudeMeters>1253.5999755859375</AltitudeMeters>
            <DistanceMeters>NAN</DistanceMeters>
          </Trackpoint>
          <Trackpoint>
            <Time>2021-08-03T10:12:15.000Z</Time>
            <Position>
              <LatitudeDegrees>-15.4068538360297679901123046875</LatitudeDegrees>
              <LongitudeDegrees>37.077764086425304412841796875</LongitudeDegrees>
            </Position>
            <AltitudeMeters>1253.5999755859375</AltitudeMeters>
            <DistanceMeters>NAN</DistanceMeters>
          </Trackpoint>
          <Trackpoint>
            <Time>2021-08-03T10:12:16.000Z</Time>
            <Position>
              <LatitudeDegrees>-15.40685844607651233673095703125</LatitudeDegrees>
              <LongitudeDegrees>37.0777575485408306121826171875</LongitudeDegrees>
            </Position>
            <AltitudeMeters>1253.5999755859375</AltitudeMeters>
            <DistanceMeters>NAN</DistanceMeters>
          </Trackpoint>
          <Trackpoint>
            <Time>2021-08-03T10:12:22.000Z</Time>
            <Position>
              <LatitudeDegrees>-15.4069125093519687652587890625</LatitudeDegrees>
              <LongitudeDegrees>37.077699713408946990966796875</LongitudeDegrees>
            </Position>
            <AltitudeMeters>1254.4000244140625</AltitudeMeters>
            <DistanceMeters>NAN</DistanceMeters>
          </Trackpoint>
          <Trackpoint>
            <Time>2021-08-03T10:12:25.000Z</Time>
            <Position>
              <LatitudeDegrees>-15.40694058872759342193603515625</LatitudeDegrees>
              <LongitudeDegrees>37.07767364569008350372314453125</LongitudeDegrees>
            </Position>
            <AltitudeMeters>1254.800048828125</AltitudeMeters>
            <DistanceMeters>NAN</DistanceMeters>
          </Trackpoint>
          <Trackpoint>
            <Time>2021-08-03T10:12:31.000Z</Time>
            <Position>
              <LatitudeDegrees>-15.4069711826741695404052734375</LatitudeDegrees>
              <LongitudeDegrees>37.0776288025081157684326171875</LongitudeDegrees>
            </Position>
            <AltitudeMeters>1255</AltitudeMeters>
            <DistanceMeters>NAN</DistanceMeters>
          </Trackpoint>
          <Trackpoint>
            <Time>2021-08-03T10:12:37.000Z</Time>
            <Position>
              <LatitudeDegrees>-15.40698886848986148834228515625</LatitudeDegrees>
              <LongitudeDegrees>37.07758680917322635650634765625</LongitudeDegrees>
            </Position>
            <AltitudeMeters>1255.800048828125</AltitudeMeters>
            <DistanceMeters>NAN</DistanceMeters>
          </Trackpoint>
          <Trackpoint>
            <Time>2021-08-03T10:12:42.000Z</Time>
            <Position>
              <LatitudeDegrees>-15.40701116435229778289794921875</LatitudeDegrees>
              <LongitudeDegrees>37.0775426365435123443603515625</LongitudeDegrees>
            </Position>
            <AltitudeMeters>1256.4000244140625</AltitudeMeters>
            <DistanceMeters>NAN</DistanceMeters>
          </Trackpoint>
          <Trackpoint>
            <Time>2021-08-03T10:12:47.000Z</Time>
            <Position>
              <LatitudeDegrees>-15.40702189318835735321044921875</LatitudeDegrees>
              <LongitudeDegrees>37.077505923807621002197265625</LongitudeDegrees>
            </Position>
            <AltitudeMeters>1256.5999755859375</AltitudeMeters>
            <DistanceMeters>NAN</DistanceMeters>
          </Trackpoint>
          <Trackpoint>
            <Time>2021-08-03T10:12:48.000Z</Time>
            <Position>
              <LatitudeDegrees>-15.40702524594962596893310546875</LatitudeDegrees>
              <LongitudeDegrees>37.077495194971561431884765625</LongitudeDegrees>
            </Position>
            <AltitudeMeters>1256.4000244140625</AltitudeMeters>
            <DistanceMeters>NAN</DistanceMeters>
          </Trackpoint>
          <Trackpoint>
            <Time>2021-08-03T10:12:58.000Z</Time>
            <Position>
              <LatitudeDegrees>-15.4070632159709930419921875</LatitudeDegrees>
              <LongitudeDegrees>37.0773904211819171905517578125</LongitudeDegrees>
            </Position>
            <AltitudeMeters>1256.199951171875</AltitudeMeters>
            <DistanceMeters>NAN</DistanceMeters>
          </Trackpoint>
          <Trackpoint>
            <Time>2021-08-03T10:13:07.000Z</Time>
            <Position>
              <LatitudeDegrees>-15.407119207084178924560546875</LatitudeDegrees>
              <LongitudeDegrees>37.0773029141128063201904296875</LongitudeDegrees>
            </Position>
            <AltitudeMeters>1256.4000244140625</AltitudeMeters>
            <DistanceMeters>NAN</DistanceMeters>
          </Trackpoint>
          <Trackpoint>
            <Time>2021-08-03T10:13:11.000Z</Time>
            <Position>
              <LatitudeDegrees>-15.40714971721172332763671875</LatitudeDegrees>
              <LongitudeDegrees>37.07726377062499523162841796875</LongitudeDegrees>
            </Position>
            <AltitudeMeters>1256.5999755859375</AltitudeMeters>
            <DistanceMeters>NAN</DistanceMeters>
          </Trackpoint>
          <Trackpoint>
            <Time>2021-08-03T10:13:15.000Z</Time>
            <Position>
              <LatitudeDegrees>-15.40716773830354213714599609375</LatitudeDegrees>
              <LongitudeDegrees>37.077230326831340789794921875</LongitudeDegrees>
            </Position>
            <AltitudeMeters>1257</AltitudeMeters>
            <DistanceMeters>NAN</DistanceMeters>
          </Trackpoint>
          <Trackpoint>
            <Time>2021-08-03T10:13:22.000Z</Time>
            <Position>
              <LatitudeDegrees>-15.4072075523436069488525390625</LatitudeDegrees>
              <LongitudeDegrees>37.0771765150129795074462890625</LongitudeDegrees>
            </Position>
            <AltitudeMeters>1257.5999755859375</AltitudeMeters>
            <DistanceMeters>NAN</DistanceMeters>
          </Trackpoint>
          <Trackpoint>
            <Time>2021-08-03T10:13:23.000Z</Time>
            <Position>
              <LatitudeDegrees>-15.40721274912357330322265625</LatitudeDegrees>
              <LongitudeDegrees>37.07716737873852252960205078125</LongitudeDegrees>
            </Position>
            <AltitudeMeters>1258</AltitudeMeters>
            <DistanceMeters>NAN</DistanceMeters>
          </Trackpoint>
          <Trackpoint>
            <Time>2021-08-03T10:13:31.000Z</Time>
            <Position>
              <LatitudeDegrees>-15.40725340135395526885986328125</LatitudeDegrees>
              <LongitudeDegrees>37.0770980603992938995361328125</LongitudeDegrees>
            </Position>
            <AltitudeMeters>1259</AltitudeMeters>
            <DistanceMeters>NAN</DistanceMeters>
          </Trackpoint>
          <Trackpoint>
            <Time>2021-08-03T10:13:37.000Z</Time>
            <Position>
              <LatitudeDegrees>-15.40728961117565631866455078125</LatitudeDegrees>
              <LongitudeDegrees>37.07704969681799411773681640625</LongitudeDegrees>
            </Position>
            <AltitudeMeters>1259.800048828125</AltitudeMeters>
            <DistanceMeters>NAN</DistanceMeters>
          </Trackpoint>
          <Trackpoint>
            <Time>2021-08-03T10:13:45.000Z</Time>
            <Position>
              <LatitudeDegrees>-15.4073379747569561004638671875</LatitudeDegrees>
              <LongitudeDegrees>37.0769763551652431488037109375</LongitudeDegrees>
            </Position>
            <AltitudeMeters>1259.800048828125</AltitudeMeters>
            <DistanceMeters>NAN</DistanceMeters>
          </Trackpoint>
          <Trackpoint>
            <Time>2021-08-03T10:13:51.000Z</Time>
            <Position>
              <LatitudeDegrees>-15.40736672468483448028564453125</LatitudeDegrees>
              <LongitudeDegrees>37.07692690193653106689453125</LongitudeDegrees>
            </Position>
            <AltitudeMeters>1260.199951171875</AltitudeMeters>
            <DistanceMeters>NAN</DistanceMeters>
          </Trackpoint>
          <Trackpoint>
            <Time>2021-08-03T10:13:54.000Z</Time>
            <Position>
              <LatitudeDegrees>-15.407375358045101165771484375</LatitudeDegrees>
              <LongitudeDegrees>37.07690049894154071807861328125</LongitudeDegrees>
            </Position>
            <AltitudeMeters>1260.4000244140625</AltitudeMeters>
            <DistanceMeters>NAN</DistanceMeters>
          </Trackpoint>
          <Trackpoint>
            <Time>2021-08-03T10:13:57.000Z</Time>
            <Position>
              <LatitudeDegrees>-15.40738843381404876708984375</LatitudeDegrees>
              <LongitudeDegrees>37.0768744312226772308349609375</LongitudeDegrees>
            </Position>
            <AltitudeMeters>1260.5999755859375</AltitudeMeters>
            <DistanceMeters>NAN</DistanceMeters>
          </Trackpoint>
          <Trackpoint>
            <Time>2021-08-03T10:14:03.000Z</Time>
            <Position>
              <LatitudeDegrees>-15.4074067063629627227783203125</LatitudeDegrees>
              <LongitudeDegrees>37.076811902225017547607421875</LongitudeDegrees>
            </Position>
            <AltitudeMeters>1261.199951171875</AltitudeMeters>
            <DistanceMeters>NAN</DistanceMeters>
          </Trackpoint>
          <Trackpoint>
            <Time>2021-08-03T10:14:12.000Z</Time>
            <Position>
              <LatitudeDegrees>-15.40743679739534854888916015625</LatitudeDegrees>
              <LongitudeDegrees>37.0767103135585784912109375</LongitudeDegrees>
            </Position>
            <AltitudeMeters>1262.199951171875</AltitudeMeters>
            <DistanceMeters>NAN</DistanceMeters>
          </Trackpoint>
          <Trackpoint>
            <Time>2021-08-03T10:14:14.000Z</Time>
            <Position>
              <LatitudeDegrees>-15.407448112964630126953125</LatitudeDegrees>
              <LongitudeDegrees>37.07668893970549106597900390625</LongitudeDegrees>
            </Position>
            <AltitudeMeters>1262.4000244140625</AltitudeMeters>
            <DistanceMeters>NAN</DistanceMeters>
          </Trackpoint>
          <Trackpoint>
            <Time>2021-08-03T10:14:19.000Z</Time>
            <Position>
              <LatitudeDegrees>-15.40743805468082427978515625</LatitudeDegrees>
              <LongitudeDegrees>37.0766796357929706573486328125</LongitudeDegrees>
            </Position>
            <AltitudeMeters>1262.800048828125</AltitudeMeters>
            <DistanceMeters>NAN</DistanceMeters>
          </Trackpoint>
          <Trackpoint>
            <Time>2021-08-03T10:14:27.000Z</Time>
            <Position>
              <LatitudeDegrees>-15.40743998251855373382568359375</LatitudeDegrees>
              <LongitudeDegrees>37.0766420848667621612548828125</LongitudeDegrees>
            </Position>
            <AltitudeMeters>1263.199951171875</AltitudeMeters>
            <DistanceMeters>NAN</DistanceMeters>
          </Trackpoint>
          <Trackpoint>
            <Time>2021-08-03T10:14:28.000Z</Time>
            <Position>
              <LatitudeDegrees>-15.407437719404697418212890625</LatitudeDegrees>
              <LongitudeDegrees>37.0766310207545757293701171875</LongitudeDegrees>
            </Position>
            <AltitudeMeters>1263.199951171875</AltitudeMeters>
            <DistanceMeters>NAN</DistanceMeters>
          </Trackpoint>
          <Trackpoint>
            <Time>2021-08-03T10:14:32.000Z</Time>
            <Position>
              <LatitudeDegrees>-15.407437719404697418212890625</LatitudeDegrees>
              <LongitudeDegrees>37.07659087143838405609130859375</LongitudeDegrees>
            </Position>
            <AltitudeMeters>1263.199951171875</AltitudeMeters>
            <DistanceMeters>NAN</DistanceMeters>
          </Trackpoint>
          <Trackpoint>
            <Time>2021-08-03T10:14:37.000Z</Time>
            <Position>
              <LatitudeDegrees>-15.407426320016384124755859375</LatitudeDegrees>
              <LongitudeDegrees>37.0765358023345470428466796875</LongitudeDegrees>
            </Position>
            <AltitudeMeters>1263.4000244140625</AltitudeMeters>
            <DistanceMeters>NAN</DistanceMeters>
          </Trackpoint>
          <Trackpoint>
            <Time>2021-08-03T10:14:48.000Z</Time>
            <Position>
              <LatitudeDegrees>-15.4074119031429290771484375</LatitudeDegrees>
              <LongitudeDegrees>37.07641325891017913818359375</LongitudeDegrees>
            </Position>
            <AltitudeMeters>1263.5999755859375</AltitudeMeters>
            <DistanceMeters>NAN</DistanceMeters>
          </Trackpoint>
          <Trackpoint>
            <Time>2021-08-03T10:15:00.000Z</Time>
            <Position>
              <LatitudeDegrees>-15.40741299279034137725830078125</LatitudeDegrees>
              <LongitudeDegrees>37.0762806572020053863525390625</LongitudeDegrees>
            </Position>
            <AltitudeMeters>1263.800048828125</AltitudeMeters>
            <DistanceMeters>NAN</DistanceMeters>
          </Trackpoint>
          <Trackpoint>
            <Time>2021-08-03T10:15:09.000Z</Time>
            <Position>
              <LatitudeDegrees>-15.4074398986995220184326171875</LatitudeDegrees>
              <LongitudeDegrees>37.0761676691472530364990234375</LongitudeDegrees>
            </Position>
            <AltitudeMeters>1263.4000244140625</AltitudeMeters>
            <DistanceMeters>NAN</DistanceMeters>
          </Trackpoint>
          <Trackpoint>
            <Time>2021-08-03T10:15:19.000Z</Time>
            <Position>
              <LatitudeDegrees>-15.407461188733577728271484375</LatitudeDegrees>
              <LongitudeDegrees>37.07606968469917774200439453125</LongitudeDegrees>
            </Position>
            <AltitudeMeters>1264</AltitudeMeters>
            <DistanceMeters>NAN</DistanceMeters>
          </Trackpoint>
          <Trackpoint>
            <Time>2021-08-03T10:15:24.000Z</Time>
            <Position>
              <LatitudeDegrees>-15.4074563272297382354736328125</LatitudeDegrees>
              <LongitudeDegrees>37.0760650746524333953857421875</LongitudeDegrees>
            </Position>
            <AltitudeMeters>1264</AltitudeMeters>
            <DistanceMeters>NAN</DistanceMeters>
          </Trackpoint>
          <Trackpoint>
            <Time>2021-08-03T10:15:26.000Z</Time>
            <Position>
              <LatitudeDegrees>-15.40745574049651622772216796875</LatitudeDegrees>
              <LongitudeDegrees>37.0760451257228851318359375</LongitudeDegrees>
            </Position>
            <AltitudeMeters>1264</AltitudeMeters>
            <DistanceMeters>NAN</DistanceMeters>
          </Trackpoint>
          <Trackpoint>
            <Time>2021-08-03T10:15:29.000Z</Time>
            <Position>
              <LatitudeDegrees>-15.40746529586613178253173828125</LatitudeDegrees>
              <LongitudeDegrees>37.0760129392147064208984375</LongitudeDegrees>
            </Position>
            <AltitudeMeters>1264</AltitudeMeters>
            <DistanceMeters>NAN</DistanceMeters>
          </Trackpoint>
          <Trackpoint>
            <Time>2021-08-03T10:15:32.000Z</Time>
            <Position>
              <LatitudeDegrees>-15.407473258674144744873046875</LatitudeDegrees>
              <LongitudeDegrees>37.07598066888749599456787109375</LongitudeDegrees>
            </Position>
            <AltitudeMeters>1264.4000244140625</AltitudeMeters>
            <DistanceMeters>NAN</DistanceMeters>
          </Trackpoint>
          <Trackpoint>
            <Time>2021-08-03T10:15:38.000Z</Time>
            <Position>
              <LatitudeDegrees>-15.407485999166965484619140625</LatitudeDegrees>
              <LongitudeDegrees>37.0759041421115398406982421875</LongitudeDegrees>
            </Position>
            <AltitudeMeters>1264.800048828125</AltitudeMeters>
            <DistanceMeters>NAN</DistanceMeters>
          </Trackpoint>
          <Trackpoint>
            <Time>2021-08-03T10:15:39.000Z</Time>
            <Position>
              <LatitudeDegrees>-15.40748742409050464630126953125</LatitudeDegrees>
              <LongitudeDegrees>37.0758944191038608551025390625</LongitudeDegrees>
            </Position>
            <AltitudeMeters>1264.800048828125</AltitudeMeters>
            <DistanceMeters>NAN</DistanceMeters>
          </Trackpoint>
          <Trackpoint>
            <Time>2021-08-03T10:15:47.000Z</Time>
            <Position>
              <LatitudeDegrees>-15.407492034137248992919921875</LatitudeDegrees>
              <LongitudeDegrees>37.07578486762940883636474609375</LongitudeDegrees>
            </Position>
            <AltitudeMeters>1264.5999755859375</AltitudeMeters>
            <DistanceMeters>NAN</DistanceMeters>
          </Trackpoint>
          <Trackpoint>
            <Time>2021-08-03T10:15:50.000Z</Time>
            <Position>
              <LatitudeDegrees>-15.40748977102339267730712890625</LatitudeDegrees>
              <LongitudeDegrees>37.07575033418834209442138671875</LongitudeDegrees>
            </Position>
            <AltitudeMeters>1264.5999755859375</AltitudeMeters>
            <DistanceMeters>NAN</DistanceMeters>
          </Trackpoint>
          <Trackpoint>
            <Time>2021-08-03T10:15:58.000Z</Time>
            <Position>
              <LatitudeDegrees>-15.40748708881437778472900390625</LatitudeDegrees>
              <LongitudeDegrees>37.07564505748450756072998046875</LongitudeDegrees>
            </Position>
            <AltitudeMeters>1264.199951171875</AltitudeMeters>
            <DistanceMeters>NAN</DistanceMeters>
          </Trackpoint>
          <Trackpoint>
            <Time>2021-08-03T10:16:01.000Z</Time>
            <Position>
              <LatitudeDegrees>-15.40748524479568004608154296875</LatitudeDegrees>
              <LongitudeDegrees>37.075609266757965087890625</LongitudeDegrees>
            </Position>
            <AltitudeMeters>1264.4000244140625</AltitudeMeters>
            <DistanceMeters>NAN</DistanceMeters>
          </Trackpoint>
          <Trackpoint>
            <Time>2021-08-03T10:16:13.000Z</Time>
            <Position>
              <LatitudeDegrees>-15.4074935428798198699951171875</LatitudeDegrees>
              <LongitudeDegrees>37.0754523575305938720703125</LongitudeDegrees>
            </Position>
            <AltitudeMeters>1264</AltitudeMeters>
            <DistanceMeters>NAN</DistanceMeters>
          </Trackpoint>
          <Trackpoint>
            <Time>2021-08-03T10:16:17.000Z</Time>
            <Position>
              <LatitudeDegrees>-15.40748759172856807708740234375</LatitudeDegrees>
              <LongitudeDegrees>37.07539997063577175140380859375</LongitudeDegrees>
            </Position>
            <AltitudeMeters>1263.5999755859375</AltitudeMeters>
            <DistanceMeters>NAN</DistanceMeters>
          </Trackpoint>
          <Trackpoint>
            <Time>2021-08-03T10:16:22.000Z</Time>
            <Position>
              <LatitudeDegrees>-15.40747267194092273712158203125</LatitudeDegrees>
              <LongitudeDegrees>37.07534180022776126861572265625</LongitudeDegrees>
            </Position>
            <AltitudeMeters>1263.199951171875</AltitudeMeters>
            <DistanceMeters>NAN</DistanceMeters>
          </Trackpoint>
          <Trackpoint>
            <Time>2021-08-03T10:16:25.000Z</Time>
            <Position>
              <LatitudeDegrees>-15.40746152400970458984375</LatitudeDegrees>
              <LongitudeDegrees>37.07530416548252105712890625</LongitudeDegrees>
            </Position>
            <AltitudeMeters>1263.199951171875</AltitudeMeters>
            <DistanceMeters>NAN</DistanceMeters>
          </Trackpoint>
          <Trackpoint>
            <Time>2021-08-03T10:16:35.000Z</Time>
            <Position>
              <LatitudeDegrees>-15.40744350291788578033447265625</LatitudeDegrees>
              <LongitudeDegrees>37.0751779340207576751708984375</LongitudeDegrees>
            </Position>
            <AltitudeMeters>1263.199951171875</AltitudeMeters>
            <DistanceMeters>NAN</DistanceMeters>
          </Trackpoint>
          <Trackpoint>
            <Time>2021-08-03T10:16:41.000Z</Time>
            <Position>
              <LatitudeDegrees>-15.4074347019195556640625</LatitudeDegrees>
              <LongitudeDegrees>37.0751088671386241912841796875</LongitudeDegrees>
            </Position>
            <AltitudeMeters>1263.199951171875</AltitudeMeters>
            <DistanceMeters>NAN</DistanceMeters>
          </Trackpoint>
          <Trackpoint>
            <Time>2021-08-03T10:16:45.000Z</Time>
            <Position>
              <LatitudeDegrees>-15.40743134915828704833984375</LatitudeDegrees>
              <LongitudeDegrees>37.07506813108921051025390625</LongitudeDegrees>
            </Position>
            <AltitudeMeters>1263.4000244140625</AltitudeMeters>
            <DistanceMeters>NAN</DistanceMeters>
          </Trackpoint>
          <Trackpoint>
            <Time>2021-08-03T10:16:48.000Z</Time>
            <Position>
              <LatitudeDegrees>-15.4074425809085369110107421875</LatitudeDegrees>
              <LongitudeDegrees>37.0750277303159236907958984375</LongitudeDegrees>
            </Position>
            <AltitudeMeters>1262.800048828125</AltitudeMeters>
            <DistanceMeters>NAN</DistanceMeters>
          </Trackpoint>
          <Trackpoint>
            <Time>2021-08-03T10:16:53.000Z</Time>
            <Position>
              <LatitudeDegrees>-15.40745808742940425872802734375</LatitudeDegrees>
              <LongitudeDegrees>37.07496461458504199981689453125</LongitudeDegrees>
            </Position>
            <AltitudeMeters>1262.5999755859375</AltitudeMeters>
            <DistanceMeters>NAN</DistanceMeters>
          </Trackpoint>
          <Trackpoint>
            <Time>2021-08-03T10:16:54.000Z</Time>
            <Position>
              <LatitudeDegrees>-15.4074593447148799896240234375</LatitudeDegrees>
              <LongitudeDegrees>37.07495388574898242950439453125</LongitudeDegrees>
            </Position>
            <AltitudeMeters>1262.5999755859375</AltitudeMeters>
            <DistanceMeters>NAN</DistanceMeters>
          </Trackpoint>
          <Trackpoint>
            <Time>2021-08-03T10:17:00.000Z</Time>
            <Position>
              <LatitudeDegrees>-15.40747216902673244476318359375</LatitudeDegrees>
              <LongitudeDegrees>37.07487274892628192901611328125</LongitudeDegrees>
            </Position>
            <AltitudeMeters>1262</AltitudeMeters>
            <DistanceMeters>NAN</DistanceMeters>
          </Trackpoint>
          <Trackpoint>
            <Time>2021-08-03T10:17:04.000Z</Time>
            <Position>
              <LatitudeDegrees>-15.4074824787676334381103515625</LatitudeDegrees>
              <LongitudeDegrees>37.0748262293636798858642578125</LongitudeDegrees>
            </Position>
            <AltitudeMeters>1262</AltitudeMeters>
            <DistanceMeters>NAN</DistanceMeters>
          </Trackpoint>
          <Trackpoint>
            <Time>2021-08-03T10:17:05.000Z</Time>
            <Position>
              <LatitudeDegrees>-15.40748423896729946136474609375</LatitudeDegrees>
              <LongitudeDegrees>37.0748168416321277618408203125</LongitudeDegrees>
            </Position>
            <AltitudeMeters>1262</AltitudeMeters>
            <DistanceMeters>NAN</DistanceMeters>
          </Trackpoint>
          <Trackpoint>
            <Time>2021-08-03T10:17:07.000Z</Time>
            <Position>
              <LatitudeDegrees>-15.40748708881437778472900390625</LatitudeDegrees>
              <LongitudeDegrees>37.07479932345449924468994140625</LongitudeDegrees>
            </Position>
            <AltitudeMeters>1262</AltitudeMeters>
            <DistanceMeters>NAN</DistanceMeters>
          </Trackpoint>
          <Trackpoint>
            <Time>2021-08-03T10:17:12.000Z</Time>
            <Position>
              <LatitudeDegrees>-15.4075093008577823638916015625</LatitudeDegrees>
              <LongitudeDegrees>37.07473763264715671539306640625</LongitudeDegrees>
            </Position>
            <AltitudeMeters>1261.5999755859375</AltitudeMeters>
            <DistanceMeters>NAN</DistanceMeters>
          </Trackpoint>
          <Trackpoint>
            <Time>2021-08-03T10:17:15.000Z</Time>
            <Position>
              <LatitudeDegrees>-15.4075230471789836883544921875</LatitudeDegrees>
              <LongitudeDegrees>37.0747001655399799346923828125</LongitudeDegrees>
            </Position>
            <AltitudeMeters>1261.5999755859375</AltitudeMeters>
            <DistanceMeters>NAN</DistanceMeters>
          </Trackpoint>
          <Trackpoint>
            <Time>2021-08-03T10:17:24.000Z</Time>
            <Position>
              <LatitudeDegrees>-15.40754936635494232177734375</LatitudeDegrees>
              <LongitudeDegrees>37.074584998190402984619140625</LongitudeDegrees>
            </Position>
            <AltitudeMeters>1261.4000244140625</AltitudeMeters>
            <DistanceMeters>NAN</DistanceMeters>
          </Trackpoint>
          <Trackpoint>
            <Time>2021-08-03T10:17:28.000Z</Time>
            <Position>
              <LatitudeDegrees>-15.407557077705860137939453125</LatitudeDegrees>
              <LongitudeDegrees>37.07453445531427860260009765625</LongitudeDegrees>
            </Position>
            <AltitudeMeters>1261</AltitudeMeters>
            <DistanceMeters>NAN</DistanceMeters>
          </Trackpoint>
          <Trackpoint>
            <Time>2021-08-03T10:17:34.000Z</Time>
            <Position>
              <LatitudeDegrees>-15.40757543407380580902099609375</LatitudeDegrees>
              <LongitudeDegrees>37.07446807064116001129150390625</LongitudeDegrees>
            </Position>
            <AltitudeMeters>1261</AltitudeMeters>
            <DistanceMeters>NAN</DistanceMeters>
          </Trackpoint>
          <Trackpoint>
            <Time>2021-08-03T10:17:38.000Z</Time>
            <Position>
              <LatitudeDegrees>-15.4075988195836544036865234375</LatitudeDegrees>
              <LongitudeDegrees>37.07442104816436767578125</LongitudeDegrees>
            </Position>
            <AltitudeMeters>1260.800048828125</AltitudeMeters>
            <DistanceMeters>NAN</DistanceMeters>
          </Trackpoint>
          <Trackpoint>
            <Time>2021-08-03T10:17:41.000Z</Time>
            <Position>
              <LatitudeDegrees>-15.40761549957096576690673828125</LatitudeDegrees>
              <LongitudeDegrees>37.0743980817496776580810546875</LongitudeDegrees>
            </Position>
            <AltitudeMeters>1260.199951171875</AltitudeMeters>
            <DistanceMeters>NAN</DistanceMeters>
          </Trackpoint>
          <Trackpoint>
            <Time>2021-08-03T10:17:43.000Z</Time>
            <Position>
              <LatitudeDegrees>-15.4076263122260570526123046875</LatitudeDegrees>
              <LongitudeDegrees>37.07438106648623943328857421875</LongitudeDegrees>
            </Position>
            <AltitudeMeters>1259.800048828125</AltitudeMeters>
            <DistanceMeters>NAN</DistanceMeters>
          </Trackpoint>
          <Trackpoint>
            <Time>2021-08-03T10:17:45.000Z</Time>
            <Position>
              <LatitudeDegrees>-15.407638885080814361572265625</LatitudeDegrees>
              <LongitudeDegrees>37.0743571780622005462646484375</LongitudeDegrees>
            </Position>
            <AltitudeMeters>1259.5999755859375</AltitudeMeters>
            <DistanceMeters>NAN</DistanceMeters>
          </Trackpoint>
          <Trackpoint>
            <Time>2021-08-03T10:17:53.000Z</Time>
            <Position>
              <LatitudeDegrees>-15.40770317427814006805419921875</LatitudeDegrees>
              <LongitudeDegrees>37.07427696324884891510009765625</LongitudeDegrees>
            </Position>
            <AltitudeMeters>1258.800048828125</AltitudeMeters>
            <DistanceMeters>NAN</DistanceMeters>
          </Trackpoint>
          <Trackpoint>
            <Time>2021-08-03T10:17:55.000Z</Time>
            <Position>
              <LatitudeDegrees>-15.4077188484370708465576171875</LatitudeDegrees>
              <LongitudeDegrees>37.07426187582314014434814453125</LongitudeDegrees>
            </Position>
            <AltitudeMeters>1258.800048828125</AltitudeMeters>
            <DistanceMeters>NAN</DistanceMeters>
          </Trackpoint>
          <Trackpoint>
            <Time>2021-08-03T10:18:02.000Z</Time>
            <Position>
              <LatitudeDegrees>-15.40779369883239269256591796875</LatitudeDegrees>
              <LongitudeDegrees>37.07420311868190765380859375</LongitudeDegrees>
            </Position>
            <AltitudeMeters>1258.199951171875</AltitudeMeters>
            <DistanceMeters>NAN</DistanceMeters>
          </Trackpoint>
          <Trackpoint>
            <Time>2021-08-03T10:18:04.000Z</Time>
            <Position>
              <LatitudeDegrees>-15.40780543349683284759521484375</LatitudeDegrees>
              <LongitudeDegrees>37.074190713465213775634765625</LongitudeDegrees>
            </Position>
            <AltitudeMeters>1257.5999755859375</AltitudeMeters>
            <DistanceMeters>NAN</DistanceMeters>
          </Trackpoint>
          <Trackpoint>
            <Time>2021-08-03T10:18:05.000Z</Time>
            <Position>
              <LatitudeDegrees>-15.4078120552003383636474609375</LatitudeDegrees>
              <LongitudeDegrees>37.0741838403046131134033203125</LongitudeDegrees>
            </Position>
            <AltitudeMeters>1257.199951171875</AltitudeMeters>
            <DistanceMeters>NAN</DistanceMeters>
          </Trackpoint>
          <Trackpoint>
            <Time>2021-08-03T10:18:07.000Z</Time>
            <Position>
              <LatitudeDegrees>-15.407827310264110565185546875</LatitudeDegrees>
              <LongitudeDegrees>37.07416422665119171142578125</LongitudeDegrees>
            </Position>
            <AltitudeMeters>1257</AltitudeMeters>
            <DistanceMeters>NAN</DistanceMeters>
          </Trackpoint>
          <Trackpoint>
            <Time>2021-08-03T10:18:13.000Z</Time>
            <Position>
              <LatitudeDegrees>-15.40784231387078762054443359375</LatitudeDegrees>
              <LongitudeDegrees>37.0740819163620471954345703125</LongitudeDegrees>
            </Position>
            <AltitudeMeters>1257.4000244140625</AltitudeMeters>
            <DistanceMeters>NAN</DistanceMeters>
          </Trackpoint>
          <Trackpoint>
            <Time>2021-08-03T10:18:15.000Z</Time>
            <Position>
              <LatitudeDegrees>-15.407840050756931304931640625</LatitudeDegrees>
              <LongitudeDegrees>37.07405651919543743133544921875</LongitudeDegrees>
            </Position>
            <AltitudeMeters>1257.4000244140625</AltitudeMeters>
            <DistanceMeters>NAN</DistanceMeters>
          </Trackpoint>
          <Trackpoint>
            <Time>2021-08-03T10:18:18.000Z</Time>
            <Position>
              <LatitudeDegrees>-15.40784181095659732818603515625</LatitudeDegrees>
              <LongitudeDegrees>37.07402072846889495849609375</LongitudeDegrees>
            </Position>
            <AltitudeMeters>1257.4000244140625</AltitudeMeters>
            <DistanceMeters>NAN</DistanceMeters>
          </Trackpoint>
          <Trackpoint>
            <Time>2021-08-03T10:18:23.000Z</Time>
            <Position>
              <LatitudeDegrees>-15.40784499607980251312255859375</LatitudeDegrees>
              <LongitudeDegrees>37.0739578641951084136962890625</LongitudeDegrees>
            </Position>
            <AltitudeMeters>1257</AltitudeMeters>
            <DistanceMeters>NAN</DistanceMeters>
          </Trackpoint>
          <Trackpoint>
            <Time>2021-08-03T10:18:26.000Z</Time>
            <Position>
              <LatitudeDegrees>-15.40784851647913455963134765625</LatitudeDegrees>
              <LongitudeDegrees>37.0739234983921051025390625</LongitudeDegrees>
            </Position>
            <AltitudeMeters>1256.5999755859375</AltitudeMeters>
            <DistanceMeters>NAN</DistanceMeters>
          </Trackpoint>
          <Trackpoint>
            <Time>2021-08-03T10:18:29.000Z</Time>
            <Position>
              <LatitudeDegrees>-15.4078472591936588287353515625</LatitudeDegrees>
              <LongitudeDegrees>37.07390137016773223876953125</LongitudeDegrees>
            </Position>
            <AltitudeMeters>1256</AltitudeMeters>
            <DistanceMeters>NAN</DistanceMeters>
          </Trackpoint>
          <Trackpoint>
            <Time>2021-08-03T10:18:31.000Z</Time>
            <Position>
              <LatitudeDegrees>-15.40784315206110477447509765625</LatitudeDegrees>
              <LongitudeDegrees>37.07389776594936847686767578125</LongitudeDegrees>
            </Position>
            <AltitudeMeters>1256</AltitudeMeters>
            <DistanceMeters>NAN</DistanceMeters>
          </Trackpoint>
          <Trackpoint>
            <Time>2021-08-03T10:18:33.000Z</Time>
            <Position>
              <LatitudeDegrees>-15.40784466080367565155029296875</LatitudeDegrees>
              <LongitudeDegrees>37.07389206625521183013916015625</LongitudeDegrees>
            </Position>
            <AltitudeMeters>1256</AltitudeMeters>
            <DistanceMeters>NAN</DistanceMeters>
          </Trackpoint>
          <Trackpoint>
            <Time>2021-08-03T10:18:34.000Z</Time>
            <Position>
              <LatitudeDegrees>-15.40784516371786594390869140625</LatitudeDegrees>
              <LongitudeDegrees>37.07388502545654773712158203125</LongitudeDegrees>
            </Position>
            <AltitudeMeters>1256</AltitudeMeters>
            <DistanceMeters>NAN</DistanceMeters>
          </Trackpoint>
          <Trackpoint>
            <Time>2021-08-03T10:18:35.000Z</Time>
            <Position>
              <LatitudeDegrees>-15.407848767936229705810546875</LatitudeDegrees>
              <LongitudeDegrees>37.0738750509917736053466796875</LongitudeDegrees>
            </Position>
            <AltitudeMeters>1255.800048828125</AltitudeMeters>
            <DistanceMeters>NAN</DistanceMeters>
          </Trackpoint>
          <Trackpoint>
            <Time>2021-08-03T10:18:38.000Z</Time>
            <Position>
              <LatitudeDegrees>-15.4078625142574310302734375</LatitudeDegrees>
              <LongitudeDegrees>37.07384043373167514801025390625</LongitudeDegrees>
            </Position>
            <AltitudeMeters>1255.800048828125</AltitudeMeters>
            <DistanceMeters>NAN</DistanceMeters>
          </Trackpoint>
          <Trackpoint>
            <Time>2021-08-03T10:18:40.000Z</Time>
            <Position>
              <LatitudeDegrees>-15.4078824631869792938232421875</LatitudeDegrees>
              <LongitudeDegrees>37.07382082007825374603271484375</LongitudeDegrees>
            </Position>
            <AltitudeMeters>1255.4000244140625</AltitudeMeters>
            <DistanceMeters>NAN</DistanceMeters>
          </Trackpoint>
          <Trackpoint>
            <Time>2021-08-03T10:18:41.000Z</Time>
            <Position>
              <LatitudeDegrees>-15.40789294056594371795654296875</LatitudeDegrees>
              <LongitudeDegrees>37.07381285727024078369140625</LongitudeDegrees>
            </Position>
            <AltitudeMeters>1255.4000244140625</AltitudeMeters>
            <DistanceMeters>NAN</DistanceMeters>
          </Trackpoint>
          <Trackpoint>
            <Time>2021-08-03T10:18:42.000Z</Time>
            <Position>
              <LatitudeDegrees>-15.4079027473926544189453125</LatitudeDegrees>
              <LongitudeDegrees>37.0738059841096401214599609375</LongitudeDegrees>
            </Position>
            <AltitudeMeters>1255.199951171875</AltitudeMeters>
            <DistanceMeters>NAN</DistanceMeters>
          </Trackpoint>
          <Trackpoint>
            <Time>2021-08-03T10:18:43.000Z</Time>
            <Position>
              <LatitudeDegrees>-15.407910458743572235107421875</LatitudeDegrees>
              <LongitudeDegrees>37.073799110949039459228515625</LongitudeDegrees>
            </Position>
            <AltitudeMeters>1254.4000244140625</AltitudeMeters>
            <DistanceMeters>NAN</DistanceMeters>
          </Trackpoint>
          <Trackpoint>
            <Time>2021-08-03T10:18:45.000Z</Time>
            <Position>
              <LatitudeDegrees>-15.4079307429492473602294921875</LatitudeDegrees>
              <LongitudeDegrees>37.07379181869328022003173828125</LongitudeDegrees>
            </Position>
            <AltitudeMeters>1254.5999755859375</AltitudeMeters>
            <DistanceMeters>NAN</DistanceMeters>
          </Trackpoint>
          <Trackpoint>
            <Time>2021-08-03T10:18:52.000Z</Time>
            <Position>
              <LatitudeDegrees>-15.40801313705742359161376953125</LatitudeDegrees>
              <LongitudeDegrees>37.07376583479344844818115234375</LongitudeDegrees>
            </Position>
            <AltitudeMeters>1253.4000244140625</AltitudeMeters>
            <DistanceMeters>NAN</DistanceMeters>
          </Trackpoint>
          <Trackpoint>
            <Time>2021-08-03T10:18:55.000Z</Time>
            <Position>
              <LatitudeDegrees>-15.40804632939398288726806640625</LatitudeDegrees>
              <LongitudeDegrees>37.07375996746122837066650390625</LongitudeDegrees>
            </Position>
            <AltitudeMeters>1252.5999755859375</AltitudeMeters>
            <DistanceMeters>NAN</DistanceMeters>
          </Trackpoint>
          <Trackpoint>
            <Time>2021-08-03T10:19:00.000Z</Time>
            <Position>
              <LatitudeDegrees>-15.40810148231685161590576171875</LatitudeDegrees>
              <LongitudeDegrees>37.0737456344068050384521484375</LongitudeDegrees>
            </Position>
            <AltitudeMeters>1251.800048828125</AltitudeMeters>
            <DistanceMeters>NAN</DistanceMeters>
          </Trackpoint>
          <Trackpoint>
            <Time>2021-08-03T10:19:08.000Z</Time>
            <Position>
              <LatitudeDegrees>-15.4081932641565799713134765625</LatitudeDegrees>
              <LongitudeDegrees>37.0737154595553874969482421875</LongitudeDegrees>
            </Position>
            <AltitudeMeters>1251</AltitudeMeters>
            <DistanceMeters>NAN</DistanceMeters>
          </Trackpoint>
          <Trackpoint>
            <Time>2021-08-03T10:19:14.000Z</Time>
            <Position>
              <LatitudeDegrees>-15.40826107375323772430419921875</LatitudeDegrees>
              <LongitudeDegrees>37.07368017174303531646728515625</LongitudeDegrees>
            </Position>
            <AltitudeMeters>1251</AltitudeMeters>
            <DistanceMeters>NAN</DistanceMeters>
          </Trackpoint>
          <Trackpoint>
            <Time>2021-08-03T10:19:15.000Z</Time>
            <Position>
              <LatitudeDegrees>-15.4082697071135044097900390625</LatitudeDegrees>
              <LongitudeDegrees>37.07367145456373691558837890625</LongitudeDegrees>
            </Position>
            <AltitudeMeters>1250.800048828125</AltitudeMeters>
            <DistanceMeters>NAN</DistanceMeters>
          </Trackpoint>
          <Trackpoint>
            <Time>2021-08-03T10:19:19.000Z</Time>
            <Position>
              <LatitudeDegrees>-15.40830298326909542083740234375</LatitudeDegrees>
              <LongitudeDegrees>37.073627449572086334228515625</LongitudeDegrees>
            </Position>
            <AltitudeMeters>1250.4000244140625</AltitudeMeters>
            <DistanceMeters>NAN</DistanceMeters>
          </Trackpoint>
          <Trackpoint>
            <Time>2021-08-03T10:19:25.000Z</Time>
            <Position>
              <LatitudeDegrees>-15.40834598243236541748046875</LatitudeDegrees>
              <LongitudeDegrees>37.07356341183185577392578125</LongitudeDegrees>
            </Position>
            <AltitudeMeters>1249.5999755859375</AltitudeMeters>
            <DistanceMeters>NAN</DistanceMeters>
          </Trackpoint>
          <Trackpoint>
            <Time>2021-08-03T10:19:28.000Z</Time>
            <Position>
              <LatitudeDegrees>-15.40836635045707225799560546875</LatitudeDegrees>
              <LongitudeDegrees>37.0735370926558971405029296875</LongitudeDegrees>
            </Position>
            <AltitudeMeters>1248.5999755859375</AltitudeMeters>
            <DistanceMeters>NAN</DistanceMeters>
          </Trackpoint>
          <Trackpoint>
            <Time>2021-08-03T10:19:31.000Z</Time>
            <Position>
              <LatitudeDegrees>-15.4083883948624134063720703125</LatitudeDegrees>
              <LongitudeDegrees>37.0734968595206737518310546875</LongitudeDegrees>
            </Position>
            <AltitudeMeters>1248.5999755859375</AltitudeMeters>
            <DistanceMeters>NAN</DistanceMeters>
          </Trackpoint>
          <Trackpoint>
            <Time>2021-08-03T10:19:32.000Z</Time>
            <Position>
              <LatitudeDegrees>-15.408397614955902099609375</LatitudeDegrees>
              <LongitudeDegrees>37.07348621450364589691162109375</LongitudeDegrees>
            </Position>
            <AltitudeMeters>1248.4000244140625</AltitudeMeters>
            <DistanceMeters>NAN</DistanceMeters>
          </Trackpoint>
          <Trackpoint>
            <Time>2021-08-03T10:19:36.000Z</Time>
            <Position>
              <LatitudeDegrees>-15.40842552669346332550048828125</LatitudeDegrees>
              <LongitudeDegrees>37.07343659363687038421630859375</LongitudeDegrees>
            </Position>
            <AltitudeMeters>1247.800048828125</AltitudeMeters>
            <DistanceMeters>NAN</DistanceMeters>
          </Trackpoint>
          <Trackpoint>
            <Time>2021-08-03T10:19:38.000Z</Time>
            <Position>
              <LatitudeDegrees>-15.408430807292461395263671875</LatitudeDegrees>
              <LongitudeDegrees>37.073422931134700775146484375</LongitudeDegrees>
            </Position>
            <AltitudeMeters>1247.4000244140625</AltitudeMeters>
            <DistanceMeters>NAN</DistanceMeters>
          </Trackpoint>
          <Trackpoint>
            <Time>2021-08-03T10:19:39.000Z</Time>
            <Position>
              <LatitudeDegrees>-15.40843583643436431884765625</LatitudeDegrees>
              <LongitudeDegrees>37.07341647706925868988037109375</LongitudeDegrees>
            </Position>
            <AltitudeMeters>1247.4000244140625</AltitudeMeters>
            <DistanceMeters>NAN</DistanceMeters>
          </Trackpoint>
          <Trackpoint>
            <Time>2021-08-03T10:19:43.000Z</Time>
            <Position>
              <LatitudeDegrees>-15.40846207179129123687744140625</LatitudeDegrees>
              <LongitudeDegrees>37.073384709656238555908203125</LongitudeDegrees>
            </Position>
            <AltitudeMeters>1246.800048828125</AltitudeMeters>
            <DistanceMeters>NAN</DistanceMeters>
          </Trackpoint>
          <Trackpoint>
            <Time>2021-08-03T10:19:47.000Z</Time>
            <Position>
              <LatitudeDegrees>-15.408479087054729461669921875</LatitudeDegrees>
              <LongitudeDegrees>37.0733362622559070587158203125</LongitudeDegrees>
            </Position>
            <AltitudeMeters>1246.4000244140625</AltitudeMeters>
            <DistanceMeters>NAN</DistanceMeters>
          </Trackpoint>
          <Trackpoint>
            <Time>2021-08-03T10:19:52.000Z</Time>
            <Position>
              <LatitudeDegrees>-15.4085117764770984649658203125</LatitudeDegrees>
              <LongitudeDegrees>37.07328555174171924591064453125</LongitudeDegrees>
            </Position>
            <AltitudeMeters>1246.4000244140625</AltitudeMeters>
            <DistanceMeters>NAN</DistanceMeters>
          </Trackpoint>
          <Trackpoint>
            <Time>2021-08-03T10:19:54.000Z</Time>
            <Position>
              <LatitudeDegrees>-15.4085275344550609588623046875</LatitudeDegrees>
              <LongitudeDegrees>37.07326392643153667449951171875</LongitudeDegrees>
            </Position>
            <AltitudeMeters>1245.800048828125</AltitudeMeters>
            <DistanceMeters>NAN</DistanceMeters>
          </Trackpoint>
          <Trackpoint>
            <Time>2021-08-03T10:19:59.000Z</Time>
            <Position>
              <LatitudeDegrees>-15.40856651030480861663818359375</LatitudeDegrees>
              <LongitudeDegrees>37.073219753801822662353515625</LongitudeDegrees>
            </Position>
            <AltitudeMeters>1245.5999755859375</AltitudeMeters>
            <DistanceMeters>NAN</DistanceMeters>
          </Trackpoint>
          <Trackpoint>
            <Time>2021-08-03T10:20:03.000Z</Time>
            <Position>
              <LatitudeDegrees>-15.408600457012653350830078125</LatitudeDegrees>
              <LongitudeDegrees>37.073186896741390228271484375</LongitudeDegrees>
            </Position>
            <AltitudeMeters>1245.4000244140625</AltitudeMeters>
            <DistanceMeters>NAN</DistanceMeters>
          </Trackpoint>
          <Trackpoint>
            <Time>2021-08-03T10:20:07.000Z</Time>
            <Position>
              <LatitudeDegrees>-15.408631302416324615478515625</LatitudeDegrees>
              <LongitudeDegrees>37.073149345815181732177734375</LongitudeDegrees>
            </Position>
            <AltitudeMeters>1244.5999755859375</AltitudeMeters>
            <DistanceMeters>NAN</DistanceMeters>
          </Trackpoint>
          <Trackpoint>
            <Time>2021-08-03T10:20:15.000Z</Time>
            <Position>
              <LatitudeDegrees>-15.408692322671413421630859375</LatitudeDegrees>
              <LongitudeDegrees>37.0730935223400592803955078125</LongitudeDegrees>
            </Position>
            <AltitudeMeters>1244.4000244140625</AltitudeMeters>
            <DistanceMeters>NAN</DistanceMeters>
          </Trackpoint>
          <Trackpoint>
            <Time>2021-08-03T10:20:16.000Z</Time>
            <Position>
              <LatitudeDegrees>-15.40870271623134613037109375</LatitudeDegrees>
              <LongitudeDegrees>37.07308824174106121063232421875</LongitudeDegrees>
            </Position>
            <AltitudeMeters>1244.199951171875</AltitudeMeters>
            <DistanceMeters>NAN</DistanceMeters>
          </Trackpoint>
          <Trackpoint>
            <Time>2021-08-03T10:20:20.000Z</Time>
            <Position>
              <LatitudeDegrees>-15.40874638594686985015869140625</LatitudeDegrees>
              <LongitudeDegrees>37.0730593241751194000244140625</LongitudeDegrees>
            </Position>
            <AltitudeMeters>1243.800048828125</AltitudeMeters>
            <DistanceMeters>NAN</DistanceMeters>
          </Trackpoint>
          <Trackpoint>
            <Time>2021-08-03T10:20:22.000Z</Time>
            <Position>
              <LatitudeDegrees>-15.40876516140997409820556640625</LatitudeDegrees>
              <LongitudeDegrees>37.0730428956449031829833984375</LongitudeDegrees>
            </Position>
            <AltitudeMeters>1243.5999755859375</AltitudeMeters>
            <DistanceMeters>NAN</DistanceMeters>
          </Trackpoint>
          <Trackpoint>
            <Time>2021-08-03T10:20:24.000Z</Time>
            <Position>
              <LatitudeDegrees>-15.40878829546272754669189453125</LatitudeDegrees>
              <LongitudeDegrees>37.07302638329565525054931640625</LongitudeDegrees>
            </Position>
            <AltitudeMeters>1243.4000244140625</AltitudeMeters>
            <DistanceMeters>NAN</DistanceMeters>
          </Trackpoint>
          <Trackpoint>
            <Time>2021-08-03T10:20:26.000Z</Time>
            <Position>
              <LatitudeDegrees>-15.40881134569644927978515625</LatitudeDegrees>
              <LongitudeDegrees>37.073012888431549072265625</LongitudeDegrees>
            </Position>
            <AltitudeMeters>1243.199951171875</AltitudeMeters>
            <DistanceMeters>NAN</DistanceMeters>
          </Trackpoint>
          <Trackpoint>
            <Time>2021-08-03T10:20:34.000Z</Time>
            <Position>
              <LatitudeDegrees>-15.4088775627315044403076171875</LatitudeDegrees>
              <LongitudeDegrees>37.0729480125010013580322265625</LongitudeDegrees>
            </Position>
            <AltitudeMeters>1242.4000244140625</AltitudeMeters>
            <DistanceMeters>NAN</DistanceMeters>
          </Trackpoint>
          <Trackpoint>
            <Time>2021-08-03T10:20:36.000Z</Time>
            <Position>
              <LatitudeDegrees>-15.4088953323662281036376953125</LatitudeDegrees>
              <LongitudeDegrees>37.07292973995208740234375</LongitudeDegrees>
            </Position>
            <AltitudeMeters>1242.199951171875</AltitudeMeters>
            <DistanceMeters>NAN</DistanceMeters>
          </Trackpoint>
          <Trackpoint>
            <Time>2021-08-03T10:20:37.000Z</Time>
            <Position>
              <LatitudeDegrees>-15.40890111587941646575927734375</LatitudeDegrees>
              <LongitudeDegrees>37.07291959784924983978271484375</LongitudeDegrees>
            </Position>
            <AltitudeMeters>1242.199951171875</AltitudeMeters>
            <DistanceMeters>NAN</DistanceMeters>
          </Trackpoint>
          <Trackpoint>
            <Time>2021-08-03T10:20:44.000Z</Time>
            <Position>
              <LatitudeDegrees>-15.4089204780757427215576171875</LatitudeDegrees>
              <LongitudeDegrees>37.07283359952270984649658203125</LongitudeDegrees>
            </Position>
            <AltitudeMeters>1241.4000244140625</AltitudeMeters>
            <DistanceMeters>NAN</DistanceMeters>
          </Trackpoint>
          <Trackpoint>
            <Time>2021-08-03T10:20:48.000Z</Time>
            <Position>
              <LatitudeDegrees>-15.4089268483221530914306640625</LatitudeDegrees>
              <LongitudeDegrees>37.07277962006628513336181640625</LongitudeDegrees>
            </Position>
            <AltitudeMeters>1241</AltitudeMeters>
            <DistanceMeters>NAN</DistanceMeters>
          </Trackpoint>
          <Trackpoint>
            <Time>2021-08-03T10:20:53.000Z</Time>
            <Position>
              <LatitudeDegrees>-15.40892408229410648345947265625</LatitudeDegrees>
              <LongitudeDegrees>37.072711475193500518798828125</LongitudeDegrees>
            </Position>
            <AltitudeMeters>1240.5999755859375</AltitudeMeters>
            <DistanceMeters>NAN</DistanceMeters>
          </Trackpoint>
          <Trackpoint>
            <Time>2021-08-03T10:20:58.000Z</Time>
            <Position>
              <LatitudeDegrees>-15.40892525576055049896240234375</LatitudeDegrees>
              <LongitudeDegrees>37.072643078863620758056640625</LongitudeDegrees>
            </Position>
            <AltitudeMeters>1240</AltitudeMeters>
            <DistanceMeters>NAN</DistanceMeters>
          </Trackpoint>
          <Trackpoint>
            <Time>2021-08-03T10:20:59.000Z</Time>
            <Position>
              <LatitudeDegrees>-15.40892508812248706817626953125</LatitudeDegrees>
              <LongitudeDegrees>37.072628997266292572021484375</LongitudeDegrees>
            </Position>
            <AltitudeMeters>1239.800048828125</AltitudeMeters>
            <DistanceMeters>NAN</DistanceMeters>
          </Trackpoint>
          <Trackpoint>
            <Time>2021-08-03T10:21:01.000Z</Time>
            <Position>
              <LatitudeDegrees>-15.40892307646572589874267578125</LatitudeDegrees>
              <LongitudeDegrees>37.07260854542255401611328125</LongitudeDegrees>
            </Position>
            <AltitudeMeters>1239.800048828125</AltitudeMeters>
            <DistanceMeters>NAN</DistanceMeters>
          </Trackpoint>
          <Trackpoint>
            <Time>2021-08-03T10:21:04.000Z</Time>
            <Position>
              <LatitudeDegrees>-15.40892458520829677581787109375</LatitudeDegrees>
              <LongitudeDegrees>37.07256487570703029632568359375</LongitudeDegrees>
            </Position>
            <AltitudeMeters>1239</AltitudeMeters>
            <DistanceMeters>NAN</DistanceMeters>
          </Trackpoint>
          <Trackpoint>
            <Time>2021-08-03T10:21:07.000Z</Time>
            <Position>
              <LatitudeDegrees>-15.40892072953283786773681640625</LatitudeDegrees>
              <LongitudeDegrees>37.0725319348275661468505859375</LongitudeDegrees>
            </Position>
            <AltitudeMeters>1238.800048828125</AltitudeMeters>
            <DistanceMeters>NAN</DistanceMeters>
          </Trackpoint>
          <Trackpoint>
            <Time>2021-08-03T10:21:09.000Z</Time>
            <Position>
              <LatitudeDegrees>-15.40891997516155242919921875</LatitudeDegrees>
              <LongitudeDegrees>37.0725054480135440826416015625</LongitudeDegrees>
            </Position>
            <AltitudeMeters>1238.5999755859375</AltitudeMeters>
            <DistanceMeters>NAN</DistanceMeters>
          </Trackpoint>
          <Trackpoint>
            <Time>2021-08-03T10:21:15.000Z</Time>
            <Position>
              <LatitudeDegrees>-15.4089211486279964447021484375</LatitudeDegrees>
              <LongitudeDegrees>37.07242892123758792877197265625</LongitudeDegrees>
            </Position>
            <AltitudeMeters>1238</AltitudeMeters>
            <DistanceMeters>NAN</DistanceMeters>
          </Trackpoint>
          <Trackpoint>
            <Time>2021-08-03T10:21:18.000Z</Time>
            <Position>
              <LatitudeDegrees>-15.4089208133518695831298828125</LatitudeDegrees>
              <LongitudeDegrees>37.07239153794944286346435546875</LongitudeDegrees>
            </Position>
            <AltitudeMeters>1237.800048828125</AltitudeMeters>
            <DistanceMeters>NAN</DistanceMeters>
          </Trackpoint>
          <Trackpoint>
            <Time>2021-08-03T10:21:24.000Z</Time>
            <Position>
              <LatitudeDegrees>-15.40893715806305408477783203125</LatitudeDegrees>
              <LongitudeDegrees>37.072315178811550140380859375</LongitudeDegrees>
            </Position>
            <AltitudeMeters>1236.800048828125</AltitudeMeters>
            <DistanceMeters>NAN</DistanceMeters>
          </Trackpoint>
          <Trackpoint>
            <Time>2021-08-03T10:21:26.000Z</Time>
            <Position>
              <LatitudeDegrees>-15.40894302539527416229248046875</LatitudeDegrees>
              <LongitudeDegrees>37.072294391691684722900390625</LongitudeDegrees>
            </Position>
            <AltitudeMeters>1236.5999755859375</AltitudeMeters>
            <DistanceMeters>NAN</DistanceMeters>
          </Trackpoint>
          <Trackpoint>
            <Time>2021-08-03T10:21:32.000Z</Time>
            <Position>
              <LatitudeDegrees>-15.40896733291447162628173828125</LatitudeDegrees>
              <LongitudeDegrees>37.07223278470337390899658203125</LongitudeDegrees>
            </Position>
            <AltitudeMeters>1235.4000244140625</AltitudeMeters>
            <DistanceMeters>NAN</DistanceMeters>
          </Trackpoint>
          <Trackpoint>
            <Time>2021-08-03T10:21:39.000Z</Time>
            <Position>
              <LatitudeDegrees>-15.40899247862398624420166015625</LatitudeDegrees>
              <LongitudeDegrees>37.07215349189937114715576171875</LongitudeDegrees>
            </Position>
            <AltitudeMeters>1235</AltitudeMeters>
            <DistanceMeters>NAN</DistanceMeters>
          </Trackpoint>
          <Trackpoint>
            <Time>2021-08-03T10:21:41.000Z</Time>
            <Position>
              <LatitudeDegrees>-15.4089997708797454833984375</LatitudeDegrees>
              <LongitudeDegrees>37.072130776941776275634765625</LongitudeDegrees>
            </Position>
            <AltitudeMeters>1235</AltitudeMeters>
            <DistanceMeters>NAN</DistanceMeters>
          </Trackpoint>
          <Trackpoint>
            <Time>2021-08-03T10:21:44.000Z</Time>
            <Position>
              <LatitudeDegrees>-15.40901360101997852325439453125</LatitudeDegrees>
              <LongitudeDegrees>37.07210085354745388031005859375</LongitudeDegrees>
            </Position>
            <AltitudeMeters>1234.4000244140625</AltitudeMeters>
            <DistanceMeters>NAN</DistanceMeters>
          </Trackpoint>
          <Trackpoint>
            <Time>2021-08-03T10:21:53.000Z</Time>
            <Position>
              <LatitudeDegrees>-15.40903505869209766387939453125</LatitudeDegrees>
              <LongitudeDegrees>37.07200513221323490142822265625</LongitudeDegrees>
            </Position>
            <AltitudeMeters>1233.800048828125</AltitudeMeters>
            <DistanceMeters>NAN</DistanceMeters>
          </Trackpoint>
          <Trackpoint>
            <Time>2021-08-03T10:21:58.000Z</Time>
            <Position>
              <LatitudeDegrees>-15.409033298492431640625</LatitudeDegrees>
              <LongitudeDegrees>37.0719472132623195648193359375</LongitudeDegrees>
            </Position>
            <AltitudeMeters>1233.4000244140625</AltitudeMeters>
            <DistanceMeters>NAN</DistanceMeters>
          </Trackpoint>
          <Trackpoint>
            <Time>2021-08-03T10:22:00.000Z</Time>
            <Position>
              <LatitudeDegrees>-15.4090351425111293792724609375</LatitudeDegrees>
              <LongitudeDegrees>37.07192617468535900115966796875</LongitudeDegrees>
            </Position>
            <AltitudeMeters>1233</AltitudeMeters>
            <DistanceMeters>NAN</DistanceMeters>
          </Trackpoint>
          <Trackpoint>
            <Time>2021-08-03T10:22:01.000Z</Time>
            <Position>
              <LatitudeDegrees>-15.4090346395969390869140625</LatitudeDegrees>
              <LongitudeDegrees>37.07191226072609424591064453125</LongitudeDegrees>
            </Position>
            <AltitudeMeters>1233</AltitudeMeters>
            <DistanceMeters>NAN</DistanceMeters>
          </Trackpoint>
          <Trackpoint>
            <Time>2021-08-03T10:22:05.000Z</Time>
            <Position>
              <LatitudeDegrees>-15.4090425185859203338623046875</LatitudeDegrees>
              <LongitudeDegrees>37.071864902973175048828125</LongitudeDegrees>
            </Position>
            <AltitudeMeters>1232.800048828125</AltitudeMeters>
            <DistanceMeters>NAN</DistanceMeters>
          </Trackpoint>
          <Trackpoint>
            <Time>2021-08-03T10:22:08.000Z</Time>
            <Position>
              <LatitudeDegrees>-15.40904897265136241912841796875</LatitudeDegrees>
              <LongitudeDegrees>37.07182927988469600677490234375</LongitudeDegrees>
            </Position>
            <AltitudeMeters>1232.4000244140625</AltitudeMeters>
            <DistanceMeters>NAN</DistanceMeters>
          </Trackpoint>
          <Trackpoint>
            <Time>2021-08-03T10:22:11.000Z</Time>
            <Position>
              <LatitudeDegrees>-15.40905383415520191192626953125</LatitudeDegrees>
              <LongitudeDegrees>37.0718020386993885040283203125</LongitudeDegrees>
            </Position>
            <AltitudeMeters>1232</AltitudeMeters>
            <DistanceMeters>NAN</DistanceMeters>
          </Trackpoint>
          <Trackpoint>
            <Time>2021-08-03T10:22:13.000Z</Time>
            <Position>
              <LatitudeDegrees>-15.409057438373565673828125</LatitudeDegrees>
              <LongitudeDegrees>37.071785442531108856201171875</LongitudeDegrees>
            </Position>
            <AltitudeMeters>1231.5999755859375</AltitudeMeters>
            <DistanceMeters>NAN</DistanceMeters>
          </Trackpoint>
          <Trackpoint>
            <Time>2021-08-03T10:22:16.000Z</Time>
            <Position>
              <LatitudeDegrees>-15.4090695083141326904296875</LatitudeDegrees>
              <LongitudeDegrees>37.0717587880790233612060546875</LongitudeDegrees>
            </Position>
            <AltitudeMeters>1231.4000244140625</AltitudeMeters>
            <DistanceMeters>NAN</DistanceMeters>
          </Trackpoint>
          <Trackpoint>
            <Time>2021-08-03T10:22:17.000Z</Time>
            <Position>
              <LatitudeDegrees>-15.40907378308475017547607421875</LatitudeDegrees>
              <LongitudeDegrees>37.07174847833812236785888671875</LongitudeDegrees>
            </Position>
            <AltitudeMeters>1231.199951171875</AltitudeMeters>
            <DistanceMeters>NAN</DistanceMeters>
          </Trackpoint>
          <Trackpoint>
            <Time>2021-08-03T10:22:19.000Z</Time>
            <Position>
              <LatitudeDegrees>-15.40908065624535083770751953125</LatitudeDegrees>
              <LongitudeDegrees>37.07172752358019351959228515625</LongitudeDegrees>
            </Position>
            <AltitudeMeters>1230.800048828125</AltitudeMeters>
            <DistanceMeters>NAN</DistanceMeters>
          </Trackpoint>
          <Trackpoint>
            <Time>2021-08-03T10:22:25.000Z</Time>
            <Position>
              <LatitudeDegrees>-15.40909473784267902374267578125</LatitudeDegrees>
              <LongitudeDegrees>37.07165309228003025054931640625</LongitudeDegrees>
            </Position>
            <AltitudeMeters>1230</AltitudeMeters>
            <DistanceMeters>NAN</DistanceMeters>
          </Trackpoint>
          <Trackpoint>
            <Time>2021-08-03T10:22:34.000Z</Time>
            <Position>
              <LatitudeDegrees>-15.4091333784162998199462890625</LatitudeDegrees>
              <LongitudeDegrees>37.071548067033290863037109375</LongitudeDegrees>
            </Position>
            <AltitudeMeters>1229.4000244140625</AltitudeMeters>
            <DistanceMeters>NAN</DistanceMeters>
          </Trackpoint>
          <Trackpoint>
            <Time>2021-08-03T10:22:37.000Z</Time>
            <Position>
              <LatitudeDegrees>-15.40915978141129016876220703125</LatitudeDegrees>
              <LongitudeDegrees>37.07151998765766620635986328125</LongitudeDegrees>
            </Position>
            <AltitudeMeters>1228.800048828125</AltitudeMeters>
            <DistanceMeters>NAN</DistanceMeters>
          </Trackpoint>
          <Trackpoint>
            <Time>2021-08-03T10:22:43.000Z</Time>
            <Position>
              <LatitudeDegrees>-15.40921107865869998931884765625</LatitudeDegrees>
              <LongitudeDegrees>37.0714744739234447479248046875</LongitudeDegrees>
            </Position>
            <AltitudeMeters>1228.4000244140625</AltitudeMeters>
            <DistanceMeters>NAN</DistanceMeters>
          </Trackpoint>
          <Trackpoint>
            <Time>2021-08-03T10:22:50.000Z</Time>
            <Position>
              <LatitudeDegrees>-15.40924091823399066925048828125</LatitudeDegrees>
              <LongitudeDegrees>37.07141093909740447998046875</LongitudeDegrees>
            </Position>
            <AltitudeMeters>1227.5999755859375</AltitudeMeters>
            <DistanceMeters>NAN</DistanceMeters>
          </Trackpoint>
          <Trackpoint>
            <Time>2021-08-03T10:22:51.000Z</Time>
            <Position>
              <LatitudeDegrees>-15.409244857728481292724609375</LatitudeDegrees>
              <LongitudeDegrees>37.071397863328456878662109375</LongitudeDegrees>
            </Position>
            <AltitudeMeters>1227.5999755859375</AltitudeMeters>
            <DistanceMeters>NAN</DistanceMeters>
          </Trackpoint>
          <Trackpoint>
            <Time>2021-08-03T10:22:54.000Z</Time>
            <Position>
              <LatitudeDegrees>-15.4092624597251415252685546875</LatitudeDegrees>
              <LongitudeDegrees>37.07136291079223155975341796875</LongitudeDegrees>
            </Position>
            <AltitudeMeters>1226.800048828125</AltitudeMeters>
            <DistanceMeters>NAN</DistanceMeters>
          </Trackpoint>
          <Trackpoint>
            <Time>2021-08-03T10:22:56.000Z</Time>
            <Position>
              <LatitudeDegrees>-15.40927846916019916534423828125</LatitudeDegrees>
              <LongitudeDegrees>37.07134027965366840362548828125</LongitudeDegrees>
            </Position>
            <AltitudeMeters>1226.5999755859375</AltitudeMeters>
            <DistanceMeters>NAN</DistanceMeters>
          </Trackpoint>
          <Trackpoint>
            <Time>2021-08-03T10:23:02.000Z</Time>
            <Position>
              <LatitudeDegrees>-15.40932456962764263153076171875</LatitudeDegrees>
              <LongitudeDegrees>37.07128495909273624420166015625</LongitudeDegrees>
            </Position>
            <AltitudeMeters>1226.199951171875</AltitudeMeters>
            <DistanceMeters>NAN</DistanceMeters>
          </Trackpoint>
          <Trackpoint>
            <Time>2021-08-03T10:23:06.000Z</Time>
            <Position>
              <LatitudeDegrees>-15.4093425907194614410400390625</LatitudeDegrees>
              <LongitudeDegrees>37.07124673761427402496337890625</LongitudeDegrees>
            </Position>
            <AltitudeMeters>1225.5999755859375</AltitudeMeters>
            <DistanceMeters>NAN</DistanceMeters>
          </Trackpoint>
          <Trackpoint>
            <Time>2021-08-03T10:23:09.000Z</Time>
            <Position>
              <LatitudeDegrees>-15.40936094708740711212158203125</LatitudeDegrees>
              <LongitudeDegrees>37.071214802563190460205078125</LongitudeDegrees>
            </Position>
            <AltitudeMeters>1225.4000244140625</AltitudeMeters>
            <DistanceMeters>NAN</DistanceMeters>
          </Trackpoint>
          <Trackpoint>
            <Time>2021-08-03T10:23:11.000Z</Time>
            <Position>
              <LatitudeDegrees>-15.40937486104667186737060546875</LatitudeDegrees>
              <LongitudeDegrees>37.07118563354015350341796875</LongitudeDegrees>
            </Position>
            <AltitudeMeters>1225</AltitudeMeters>
            <DistanceMeters>NAN</DistanceMeters>
          </Trackpoint>
          <Trackpoint>
            <Time>2021-08-03T10:23:12.000Z</Time>
            <Position>
              <LatitudeDegrees>-15.40938399732112884521484375</LatitudeDegrees>
              <LongitudeDegrees>37.0711707137525081634521484375</LongitudeDegrees>
            </Position>
            <AltitudeMeters>1224.800048828125</AltitudeMeters>
            <DistanceMeters>NAN</DistanceMeters>
          </Trackpoint>
          <Trackpoint>
            <Time>2021-08-03T10:23:14.000Z</Time>
            <Position>
              <LatitudeDegrees>-15.40940335951745510101318359375</LatitudeDegrees>
              <LongitudeDegrees>37.07114565186202526092529296875</LongitudeDegrees>
            </Position>
            <AltitudeMeters>1224.800048828125</AltitudeMeters>
            <DistanceMeters>NAN</DistanceMeters>
          </Trackpoint>
          <Trackpoint>
            <Time>2021-08-03T10:23:15.000Z</Time>
            <Position>
              <LatitudeDegrees>-15.40941224433481693267822265625</LatitudeDegrees>
              <LongitudeDegrees>37.07113492302596569061279296875</LongitudeDegrees>
            </Position>
            <AltitudeMeters>1224.5999755859375</AltitudeMeters>
            <DistanceMeters>NAN</DistanceMeters>
          </Trackpoint>
          <Trackpoint>
            <Time>2021-08-03T10:23:20.000Z</Time>
            <Position>
              <LatitudeDegrees>-15.409452058374881744384765625</LatitudeDegrees>
              <LongitudeDegrees>37.0711029879748821258544921875</LongitudeDegrees>
            </Position>
            <AltitudeMeters>1224</AltitudeMeters>
            <DistanceMeters>NAN</DistanceMeters>
          </Trackpoint>
          <Trackpoint>
            <Time>2021-08-03T10:23:26.000Z</Time>
            <Position>
              <LatitudeDegrees>-15.40951785631477832794189453125</LatitudeDegrees>
              <LongitudeDegrees>37.0710537023842334747314453125</LongitudeDegrees>
            </Position>
            <AltitudeMeters>1223.4000244140625</AltitudeMeters>
            <DistanceMeters>NAN</DistanceMeters>
          </Trackpoint>
          <Trackpoint>
            <Time>2021-08-03T10:23:31.000Z</Time>
            <Position>
              <LatitudeDegrees>-15.40955993346869945526123046875</LatitudeDegrees>
              <LongitudeDegrees>37.0710174925625324249267578125</LongitudeDegrees>
            </Position>
            <AltitudeMeters>1223</AltitudeMeters>
            <DistanceMeters>NAN</DistanceMeters>
          </Trackpoint>
          <Trackpoint>
            <Time>2021-08-03T10:23:38.000Z</Time>
            <Position>
              <LatitudeDegrees>-15.4096419923007488250732421875</LatitudeDegrees>
              <LongitudeDegrees>37.070988826453685760498046875</LongitudeDegrees>
            </Position>
            <AltitudeMeters>1222</AltitudeMeters>
            <DistanceMeters>NAN</DistanceMeters>
          </Trackpoint>
          <Trackpoint>
            <Time>2021-08-03T10:23:40.000Z</Time>
            <Position>
              <LatitudeDegrees>-15.4096725024282932281494140625</LatitudeDegrees>
              <LongitudeDegrees>37.07097910344600677490234375</LongitudeDegrees>
            </Position>
            <AltitudeMeters>1221.4000244140625</AltitudeMeters>
            <DistanceMeters>NAN</DistanceMeters>
          </Trackpoint>
          <Trackpoint>
            <Time>2021-08-03T10:23:49.000Z</Time>
            <Position>
              <LatitudeDegrees>-15.40976755321025848388671875</LatitudeDegrees>
              <LongitudeDegrees>37.070926129817962646484375</LongitudeDegrees>
            </Position>
            <AltitudeMeters>1220.5999755859375</AltitudeMeters>
            <DistanceMeters>NAN</DistanceMeters>
          </Trackpoint>
          <Trackpoint>
            <Time>2021-08-03T10:23:50.000Z</Time>
            <Position>
              <LatitudeDegrees>-15.40977652184665203094482421875</LatitudeDegrees>
              <LongitudeDegrees>37.07091866992413997650146484375</LongitudeDegrees>
            </Position>
            <AltitudeMeters>1220.4000244140625</AltitudeMeters>
            <DistanceMeters>NAN</DistanceMeters>
          </Trackpoint>
          <Trackpoint>
            <Time>2021-08-03T10:24:03.000Z</Time>
            <Position>
              <LatitudeDegrees>-15.40991566143929958343505859375</LatitudeDegrees>
              <LongitudeDegrees>37.07085144706070423126220703125</LongitudeDegrees>
            </Position>
            <AltitudeMeters>1220.199951171875</AltitudeMeters>
            <DistanceMeters>NAN</DistanceMeters>
          </Trackpoint>
          <Trackpoint>
            <Time>2021-08-03T10:24:14.000Z</Time>
            <Position>
              <LatitudeDegrees>-15.4100506938993930816650390625</LatitudeDegrees>
              <LongitudeDegrees>37.07083501853048801422119140625</LongitudeDegrees>
            </Position>
            <AltitudeMeters>1219.4000244140625</AltitudeMeters>
            <DistanceMeters>NAN</DistanceMeters>
          </Trackpoint>
          <Trackpoint>
            <Time>2021-08-03T10:24:16.000Z</Time>
            <Position>
              <LatitudeDegrees>-15.41008011437952518463134765625</LatitudeDegrees>
              <LongitudeDegrees>37.070825882256031036376953125</LongitudeDegrees>
            </Position>
            <AltitudeMeters>1219.199951171875</AltitudeMeters>
            <DistanceMeters>NAN</DistanceMeters>
          </Trackpoint>
          <Trackpoint>
            <Time>2021-08-03T10:24:24.000Z</Time>
            <Position>
              <LatitudeDegrees>-15.4101747460663318634033203125</LatitudeDegrees>
              <LongitudeDegrees>37.07082177512347698211669921875</LongitudeDegrees>
            </Position>
            <AltitudeMeters>1219.4000244140625</AltitudeMeters>
            <DistanceMeters>NAN</DistanceMeters>
          </Trackpoint>
          <Trackpoint>
            <Time>2021-08-03T10:24:27.000Z</Time>
            <Position>
              <LatitudeDegrees>-15.41020617820322513580322265625</LatitudeDegrees>
              <LongitudeDegrees>37.07082076929509639739990234375</LongitudeDegrees>
            </Position>
            <AltitudeMeters>1218.5999755859375</AltitudeMeters>
            <DistanceMeters>NAN</DistanceMeters>
          </Trackpoint>
          <Trackpoint>
            <Time>2021-08-03T10:24:29.000Z</Time>
            <Position>
              <LatitudeDegrees>-15.410228557884693145751953125</LatitudeDegrees>
              <LongitudeDegrees>37.07081775180995464324951171875</LongitudeDegrees>
            </Position>
            <AltitudeMeters>1218.199951171875</AltitudeMeters>
            <DistanceMeters>NAN</DistanceMeters>
          </Trackpoint>
          <Trackpoint>
            <Time>2021-08-03T10:24:31.000Z</Time>
            <Position>
              <LatitudeDegrees>-15.41025663726031780242919921875</LatitudeDegrees>
              <LongitudeDegrees>37.07081607542932033538818359375</LongitudeDegrees>
            </Position>
            <AltitudeMeters>1218.199951171875</AltitudeMeters>
            <DistanceMeters>NAN</DistanceMeters>
          </Trackpoint>
          <Trackpoint>
            <Time>2021-08-03T10:24:32.000Z</Time>
            <Position>
              <LatitudeDegrees>-15.4102713055908679962158203125</LatitudeDegrees>
              <LongitudeDegrees>37.07081490196287631988525390625</LongitudeDegrees>
            </Position>
            <AltitudeMeters>1218.199951171875</AltitudeMeters>
            <DistanceMeters>NAN</DistanceMeters>
          </Trackpoint>
          <Trackpoint>
            <Time>2021-08-03T10:24:34.000Z</Time>
            <Position>
              <LatitudeDegrees>-15.41030474938452243804931640625</LatitudeDegrees>
              <LongitudeDegrees>37.07081657834351062774658203125</LongitudeDegrees>
            </Position>
            <AltitudeMeters>1218</AltitudeMeters>
            <DistanceMeters>NAN</DistanceMeters>
          </Trackpoint>
          <Trackpoint>
            <Time>2021-08-03T10:24:43.000Z</Time>
            <Position>
              <LatitudeDegrees>-15.41042846627533435821533203125</LatitudeDegrees>
              <LongitudeDegrees>37.07083233632147312164306640625</LongitudeDegrees>
            </Position>
            <AltitudeMeters>1217.800048828125</AltitudeMeters>
            <DistanceMeters>NAN</DistanceMeters>
          </Trackpoint>
          <Trackpoint>
            <Time>2021-08-03T10:24:49.000Z</Time>
            <Position>
              <LatitudeDegrees>-15.41051396168768405914306640625</LatitudeDegrees>
              <LongitudeDegrees>37.070830576121807098388671875</LongitudeDegrees>
            </Position>
            <AltitudeMeters>1218</AltitudeMeters>
            <DistanceMeters>NAN</DistanceMeters>
          </Trackpoint>
          <Trackpoint>
            <Time>2021-08-03T10:24:54.000Z</Time>
            <Position>
              <LatitudeDegrees>-15.4105690307915210723876953125</LatitudeDegrees>
              <LongitudeDegrees>37.07084272988140583038330078125</LongitudeDegrees>
            </Position>
            <AltitudeMeters>1218</AltitudeMeters>
            <DistanceMeters>NAN</DistanceMeters>
          </Trackpoint>
          <Trackpoint>
            <Time>2021-08-03T10:25:04.000Z</Time>
            <Position>
              <LatitudeDegrees>-15.41068352758884429931640625</LatitudeDegrees>
              <LongitudeDegrees>37.0708736591041088104248046875</LongitudeDegrees>
            </Position>
            <AltitudeMeters>1217.800048828125</AltitudeMeters>
            <DistanceMeters>NAN</DistanceMeters>
          </Trackpoint>
          <Trackpoint>
            <Time>2021-08-03T10:25:10.000Z</Time>
            <Position>
              <LatitudeDegrees>-15.41075326502323150634765625</LatitudeDegrees>
              <LongitudeDegrees>37.0709051750600337982177734375</LongitudeDegrees>
            </Position>
            <AltitudeMeters>1217.199951171875</AltitudeMeters>
            <DistanceMeters>NAN</DistanceMeters>
          </Trackpoint>
          <Trackpoint>
            <Time>2021-08-03T10:25:15.000Z</Time>
            <Position>
              <LatitudeDegrees>-15.4108027182519435882568359375</LatitudeDegrees>
              <LongitudeDegrees>37.070936523377895355224609375</LongitudeDegrees>
            </Position>
            <AltitudeMeters>1217</AltitudeMeters>
            <DistanceMeters>NAN</DistanceMeters>
          </Trackpoint>
          <Trackpoint>
            <Time>2021-08-03T10:25:20.000Z</Time>
            <Position>
              <LatitudeDegrees>-15.41085510514676570892333984375</LatitudeDegrees>
              <LongitudeDegrees>37.07097549922764301300048828125</LongitudeDegrees>
            </Position>
            <AltitudeMeters>1216.199951171875</AltitudeMeters>
            <DistanceMeters>NAN</DistanceMeters>
          </Trackpoint>
          <Trackpoint>
            <Time>2021-08-03T10:25:28.000Z</Time>
            <Position>
              <LatitudeDegrees>-15.41094294749200344085693359375</LatitudeDegrees>
              <LongitudeDegrees>37.07099980674684047698974609375</LongitudeDegrees>
            </Position>
            <AltitudeMeters>1215.4000244140625</AltitudeMeters>
            <DistanceMeters>NAN</DistanceMeters>
          </Trackpoint>
          <Trackpoint>
            <Time>2021-08-03T10:25:35.000Z</Time>
            <Position>
              <LatitudeDegrees>-15.41102995164692401885986328125</LatitudeDegrees>
              <LongitudeDegrees>37.07099653780460357666015625</LongitudeDegrees>
            </Position>
            <AltitudeMeters>1215.4000244140625</AltitudeMeters>
            <DistanceMeters>NAN</DistanceMeters>
          </Trackpoint>
          <Trackpoint>
            <Time>2021-08-03T10:25:37.000Z</Time>
            <Position>
              <LatitudeDegrees>-15.41105157695710659027099609375</LatitudeDegrees>
              <LongitudeDegrees>37.071003578603267669677734375</LongitudeDegrees>
            </Position>
            <AltitudeMeters>1215.199951171875</AltitudeMeters>
            <DistanceMeters>NAN</DistanceMeters>
          </Trackpoint>
          <Trackpoint>
            <Time>2021-08-03T10:25:45.000Z</Time>
            <Position>
              <LatitudeDegrees>-15.41114930994808673858642578125</LatitudeDegrees>
              <LongitudeDegrees>37.071013636887073516845703125</LongitudeDegrees>
            </Position>
            <AltitudeMeters>1214.4000244140625</AltitudeMeters>
            <DistanceMeters>NAN</DistanceMeters>
          </Trackpoint>
          <Trackpoint>
            <Time>2021-08-03T10:25:47.000Z</Time>
            <Position>
              <LatitudeDegrees>-15.4111745394766330718994140625</LatitudeDegrees>
              <LongitudeDegrees>37.0710215158760547637939453125</LongitudeDegrees>
            </Position>
            <AltitudeMeters>1214.4000244140625</AltitudeMeters>
            <DistanceMeters>NAN</DistanceMeters>
          </Trackpoint>
          <Trackpoint>
            <Time>2021-08-03T10:26:00.000Z</Time>
            <Position>
              <LatitudeDegrees>-15.41134335100650787353515625</LatitudeDegrees>
              <LongitudeDegrees>37.0710486732423305511474609375</LongitudeDegrees>
            </Position>
            <AltitudeMeters>1214.5999755859375</AltitudeMeters>
            <DistanceMeters>NAN</DistanceMeters>
          </Trackpoint>
          <Trackpoint>
            <Time>2021-08-03T10:26:03.000Z</Time>
            <Position>
              <LatitudeDegrees>-15.4113762080669403076171875</LatitudeDegrees>
              <LongitudeDegrees>37.07105219364166259765625</LongitudeDegrees>
            </Position>
            <AltitudeMeters>1214.5999755859375</AltitudeMeters>
            <DistanceMeters>NAN</DistanceMeters>
          </Trackpoint>
          <Trackpoint>
            <Time>2021-08-03T10:26:05.000Z</Time>
            <Position>
              <LatitudeDegrees>-15.41139741428196430206298828125</LatitudeDegrees>
              <LongitudeDegrees>37.07104691304266452789306640625</LongitudeDegrees>
            </Position>
            <AltitudeMeters>1213.800048828125</AltitudeMeters>
            <DistanceMeters>NAN</DistanceMeters>
          </Trackpoint>
          <Trackpoint>
            <Time>2021-08-03T10:26:07.000Z</Time>
            <Position>
              <LatitudeDegrees>-15.41141979396343231201171875</LatitudeDegrees>
              <LongitudeDegrees>37.07104238681495189666748046875</LongitudeDegrees>
            </Position>
            <AltitudeMeters>1214</AltitudeMeters>
            <DistanceMeters>NAN</DistanceMeters>
          </Trackpoint>
          <Trackpoint>
            <Time>2021-08-03T10:26:11.000Z</Time>
            <Position>
              <LatitudeDegrees>-15.41146539151668548583984375</LatitudeDegrees>
              <LongitudeDegrees>37.0710446499288082122802734375</LongitudeDegrees>
            </Position>
            <AltitudeMeters>1213.800048828125</AltitudeMeters>
            <DistanceMeters>NAN</DistanceMeters>
          </Trackpoint>
          <Trackpoint>
            <Time>2021-08-03T10:26:17.000Z</Time>
            <Position>
              <LatitudeDegrees>-15.41153655387461185455322265625</LatitudeDegrees>
              <LongitudeDegrees>37.0710439793765544891357421875</LongitudeDegrees>
            </Position>
            <AltitudeMeters>1214.800048828125</AltitudeMeters>
            <DistanceMeters>NAN</DistanceMeters>
          </Trackpoint>
          <Trackpoint>
            <Time>2021-08-03T10:26:20.000Z</Time>
            <Position>
              <LatitudeDegrees>-15.41157594881951808929443359375</LatitudeDegrees>
              <LongitudeDegrees>37.0710483379662036895751953125</LongitudeDegrees>
            </Position>
            <AltitudeMeters>1214.800048828125</AltitudeMeters>
            <DistanceMeters>NAN</DistanceMeters>
          </Trackpoint>
          <Trackpoint>
            <Time>2021-08-03T10:26:27.000Z</Time>
            <Position>
              <LatitudeDegrees>-15.4116663895547389984130859375</LatitudeDegrees>
              <LongitudeDegrees>37.071055211126804351806640625</LongitudeDegrees>
            </Position>
            <AltitudeMeters>1214.5999755859375</AltitudeMeters>
            <DistanceMeters>NAN</DistanceMeters>
          </Trackpoint>
          <Trackpoint>
            <Time>2021-08-03T10:26:37.000Z</Time>
            <Position>
              <LatitudeDegrees>-15.41178264655172824859619140625</LatitudeDegrees>
              <LongitudeDegrees>37.07108060829341411590576171875</LongitudeDegrees>
            </Position>
            <AltitudeMeters>1214.5999755859375</AltitudeMeters>
            <DistanceMeters>NAN</DistanceMeters>
          </Trackpoint>
          <Trackpoint>
            <Time>2021-08-03T10:26:47.000Z</Time>
            <Position>
              <LatitudeDegrees>-15.41190384887158870697021484375</LatitudeDegrees>
              <LongitudeDegrees>37.07110357470810413360595703125</LongitudeDegrees>
            </Position>
            <AltitudeMeters>1214.800048828125</AltitudeMeters>
            <DistanceMeters>NAN</DistanceMeters>
          </Trackpoint>
          <Trackpoint>
            <Time>2021-08-03T10:26:49.000Z</Time>
            <Position>
              <LatitudeDegrees>-15.41192513890564441680908203125</LatitudeDegrees>
              <LongitudeDegrees>37.07110826857388019561767578125</LongitudeDegrees>
            </Position>
            <AltitudeMeters>1214.800048828125</AltitudeMeters>
            <DistanceMeters>NAN</DistanceMeters>
          </Trackpoint>
          <Trackpoint>
            <Time>2021-08-03T10:27:01.000Z</Time>
            <Position>
              <LatitudeDegrees>-15.41206310503184795379638671875</LatitudeDegrees>
              <LongitudeDegrees>37.07113894633948802947998046875</LongitudeDegrees>
            </Position>
            <AltitudeMeters>1215.5999755859375</AltitudeMeters>
            <DistanceMeters>NAN</DistanceMeters>
          </Trackpoint>
          <Trackpoint>
            <Time>2021-08-03T10:27:06.000Z</Time>
            <Position>
              <LatitudeDegrees>-15.41208389215171337127685546875</LatitudeDegrees>
              <LongitudeDegrees>37.07113190554082393646240234375</LongitudeDegrees>
            </Position>
            <AltitudeMeters>1215.4000244140625</AltitudeMeters>
            <DistanceMeters>NAN</DistanceMeters>
          </Trackpoint>
          <Trackpoint>
            <Time>2021-08-03T10:27:09.000Z</Time>
            <Position>
              <LatitudeDegrees>-15.412103421986103057861328125</LatitudeDegrees>
              <LongitudeDegrees>37.07112855277955532073974609375</LongitudeDegrees>
            </Position>
            <AltitudeMeters>1215.5999755859375</AltitudeMeters>
            <DistanceMeters>NAN</DistanceMeters>
          </Trackpoint>
          <Trackpoint>
            <Time>2021-08-03T10:27:12.000Z</Time>
            <Position>
              <LatitudeDegrees>-15.412128902971744537353515625</LatitudeDegrees>
              <LongitudeDegrees>37.07112452946603298187255859375</LongitudeDegrees>
            </Position>
            <AltitudeMeters>1216</AltitudeMeters>
            <DistanceMeters>NAN</DistanceMeters>
          </Trackpoint>
          <Trackpoint>
            <Time>2021-08-03T10:27:13.000Z</Time>
            <Position>
              <LatitudeDegrees>-15.41213653050363063812255859375</LatitudeDegrees>
              <LongitudeDegrees>37.0711210928857326507568359375</LongitudeDegrees>
            </Position>
            <AltitudeMeters>1216</AltitudeMeters>
            <DistanceMeters>NAN</DistanceMeters>
          </Trackpoint>
          <Trackpoint>
            <Time>2021-08-03T10:27:19.000Z</Time>
            <Position>
              <LatitudeDegrees>-15.41219268925487995147705078125</LatitudeDegrees>
              <LongitudeDegrees>37.07112620584666728973388671875</LongitudeDegrees>
            </Position>
            <AltitudeMeters>1216.5999755859375</AltitudeMeters>
            <DistanceMeters>NAN</DistanceMeters>
          </Trackpoint>
          <Trackpoint>
            <Time>2021-08-03T10:27:31.000Z</Time>
            <Position>
              <LatitudeDegrees>-15.41233601979911327362060546875</LatitudeDegrees>
              <LongitudeDegrees>37.07116375677287578582763671875</LongitudeDegrees>
            </Position>
            <AltitudeMeters>1217</AltitudeMeters>
            <DistanceMeters>NAN</DistanceMeters>
          </Trackpoint>
          <Trackpoint>
            <Time>2021-08-03T10:27:42.000Z</Time>
            <Position>
              <LatitudeDegrees>-15.41247189044952392578125</LatitudeDegrees>
              <LongitudeDegrees>37.07116006873548030853271484375</LongitudeDegrees>
            </Position>
            <AltitudeMeters>1217</AltitudeMeters>
            <DistanceMeters>NAN</DistanceMeters>
          </Trackpoint>
          <Trackpoint>
            <Time>2021-08-03T10:27:45.000Z</Time>
            <Position>
              <LatitudeDegrees>-15.4125096090137958526611328125</LatitudeDegrees>
              <LongitudeDegrees>37.07116090692579746246337890625</LongitudeDegrees>
            </Position>
            <AltitudeMeters>1217</AltitudeMeters>
            <DistanceMeters>NAN</DistanceMeters>
          </Trackpoint>
          <Trackpoint>
            <Time>2021-08-03T10:27:58.000Z</Time>
            <Position>
              <LatitudeDegrees>-15.41266568005084991455078125</LatitudeDegrees>
              <LongitudeDegrees>37.07114942371845245361328125</LongitudeDegrees>
            </Position>
            <AltitudeMeters>1216.800048828125</AltitudeMeters>
            <DistanceMeters>NAN</DistanceMeters>
          </Trackpoint>
          <Trackpoint>
            <Time>2021-08-03T10:28:07.000Z</Time>
            <Position>
              <LatitudeDegrees>-15.41277171112596988677978515625</LatitudeDegrees>
              <LongitudeDegrees>37.07117096520960330963134765625</LongitudeDegrees>
            </Position>
            <AltitudeMeters>1216.800048828125</AltitudeMeters>
            <DistanceMeters>NAN</DistanceMeters>
          </Trackpoint>
          <Trackpoint>
            <Time>2021-08-03T10:28:15.000Z</Time>
            <Position>
              <LatitudeDegrees>-15.41285703890025615692138671875</LatitudeDegrees>
              <LongitudeDegrees>37.071197368204593658447265625</LongitudeDegrees>
            </Position>
            <AltitudeMeters>1217</AltitudeMeters>
            <DistanceMeters>NAN</DistanceMeters>
          </Trackpoint>
          <Trackpoint>
            <Time>2021-08-03T10:28:20.000Z</Time>
            <Position>
              <LatitudeDegrees>-15.41291554458439350128173828125</LatitudeDegrees>
              <LongitudeDegrees>37.07121907733380794525146484375</LongitudeDegrees>
            </Position>
            <AltitudeMeters>1217.199951171875</AltitudeMeters>
            <DistanceMeters>NAN</DistanceMeters>
          </Trackpoint>
          <Trackpoint>
            <Time>2021-08-03T10:28:27.000Z</Time>
            <Position>
              <LatitudeDegrees>-15.4129699431359767913818359375</LatitudeDegrees>
              <LongitudeDegrees>37.0712721347808837890625</LongitudeDegrees>
            </Position>
            <AltitudeMeters>1217</AltitudeMeters>
            <DistanceMeters>NAN</DistanceMeters>
          </Trackpoint>
          <Trackpoint>
            <Time>2021-08-03T10:28:41.000Z</Time>
            <Position>
              <LatitudeDegrees>-15.41311360895633697509765625</LatitudeDegrees>
              <LongitudeDegrees>37.07137665711343288421630859375</LongitudeDegrees>
            </Position>
            <AltitudeMeters>1218</AltitudeMeters>
            <DistanceMeters>NAN</DistanceMeters>
          </Trackpoint>
          <Trackpoint>
            <Time>2021-08-03T10:28:43.000Z</Time>
            <Position>
              <LatitudeDegrees>-15.41313179768621921539306640625</LatitudeDegrees>
              <LongitudeDegrees>37.071389816701412200927734375</LongitudeDegrees>
            </Position>
            <AltitudeMeters>1218</AltitudeMeters>
            <DistanceMeters>NAN</DistanceMeters>
          </Trackpoint>
          <Trackpoint>
            <Time>2021-08-03T10:28:44.000Z</Time>
            <Position>
              <LatitudeDegrees>-15.41314286179840564727783203125</LatitudeDegrees>
              <LongitudeDegrees>37.0713963545858860015869140625</LongitudeDegrees>
            </Position>
            <AltitudeMeters>1218</AltitudeMeters>
            <DistanceMeters>NAN</DistanceMeters>
          </Trackpoint>
          <Trackpoint>
            <Time>2021-08-03T10:28:45.000Z</Time>
            <Position>
              <LatitudeDegrees>-15.41315275244414806365966796875</LatitudeDegrees>
              <LongitudeDegrees>37.07140213809907436370849609375</LongitudeDegrees>
            </Position>
            <AltitudeMeters>1218</AltitudeMeters>
            <DistanceMeters>NAN</DistanceMeters>
          </Trackpoint>
          <Trackpoint>
            <Time>2021-08-03T10:28:46.000Z</Time>
            <Position>
              <LatitudeDegrees>-15.41316146962344646453857421875</LatitudeDegrees>
              <LongitudeDegrees>37.07140817306935787200927734375</LongitudeDegrees>
            </Position>
            <AltitudeMeters>1218</AltitudeMeters>
            <DistanceMeters>NAN</DistanceMeters>
          </Trackpoint>
          <Trackpoint>
            <Time>2021-08-03T10:28:47.000Z</Time>
            <Position>
              <LatitudeDegrees>-15.41317169554531574249267578125</LatitudeDegrees>
              <LongitudeDegrees>37.071415297687053680419921875</LongitudeDegrees>
            </Position>
            <AltitudeMeters>1218.199951171875</AltitudeMeters>
            <DistanceMeters>NAN</DistanceMeters>
          </Trackpoint>
          <Trackpoint>
            <Time>2021-08-03T10:28:55.000Z</Time>
            <Position>
              <LatitudeDegrees>-15.41325031779706478118896484375</LatitudeDegrees>
              <LongitudeDegrees>37.07145921885967254638671875</LongitudeDegrees>
            </Position>
            <AltitudeMeters>1219</AltitudeMeters>
            <DistanceMeters>NAN</DistanceMeters>
          </Trackpoint>
          <Trackpoint>
            <Time>2021-08-03T10:28:59.000Z</Time>
            <Position>
              <LatitudeDegrees>-15.4132874496281147003173828125</LatitudeDegrees>
              <LongitudeDegrees>37.07147975452244281768798828125</LongitudeDegrees>
            </Position>
            <AltitudeMeters>1219.199951171875</AltitudeMeters>
            <DistanceMeters>NAN</DistanceMeters>
          </Trackpoint>
          <Trackpoint>
            <Time>2021-08-03T10:29:06.000Z</Time>
            <Position>
              <LatitudeDegrees>-15.41335928253829479217529296875</LatitudeDegrees>
              <LongitudeDegrees>37.07152225077152252197265625</LongitudeDegrees>
            </Position>
            <AltitudeMeters>1219.800048828125</AltitudeMeters>
            <DistanceMeters>NAN</DistanceMeters>
          </Trackpoint>
          <Trackpoint>
            <Time>2021-08-03T10:29:13.000Z</Time>
            <Position>
              <LatitudeDegrees>-15.413433127105236053466796875</LatitudeDegrees>
              <LongitudeDegrees>37.07154647447168827056884765625</LongitudeDegrees>
            </Position>
            <AltitudeMeters>1219.800048828125</AltitudeMeters>
            <DistanceMeters>NAN</DistanceMeters>
          </Trackpoint>
          <Trackpoint>
            <Time>2021-08-03T10:29:17.000Z</Time>
            <Position>
              <LatitudeDegrees>-15.41347964666783809661865234375</LatitudeDegrees>
              <LongitudeDegrees>37.071546725928783416748046875</LongitudeDegrees>
            </Position>
            <AltitudeMeters>1220.4000244140625</AltitudeMeters>
            <DistanceMeters>NAN</DistanceMeters>
          </Trackpoint>
          <Trackpoint>
            <Time>2021-08-03T10:29:18.000Z</Time>
            <Position>
              <LatitudeDegrees>-15.41349314153194427490234375</LatitudeDegrees>
              <LongitudeDegrees>37.07154630683362483978271484375</LongitudeDegrees>
            </Position>
            <AltitudeMeters>1220.4000244140625</AltitudeMeters>
            <DistanceMeters>NAN</DistanceMeters>
          </Trackpoint>
          <Trackpoint>
            <Time>2021-08-03T10:29:28.000Z</Time>
            <Position>
              <LatitudeDegrees>-15.41360654868185520172119140625</LatitudeDegrees>
              <LongitudeDegrees>37.07156642340123653411865234375</LongitudeDegrees>
            </Position>
            <AltitudeMeters>1221.199951171875</AltitudeMeters>
            <DistanceMeters>NAN</DistanceMeters>
          </Trackpoint>
          <Trackpoint>
            <Time>2021-08-03T10:29:29.000Z</Time>
            <Position>
              <LatitudeDegrees>-15.41361710987985134124755859375</LatitudeDegrees>
              <LongitudeDegrees>37.07156793214380741119384765625</LongitudeDegrees>
            </Position>
            <AltitudeMeters>1221.4000244140625</AltitudeMeters>
            <DistanceMeters>NAN</DistanceMeters>
          </Trackpoint>
          <Trackpoint>
            <Time>2021-08-03T10:29:36.000Z</Time>
            <Position>
              <LatitudeDegrees>-15.4136855900287628173828125</LatitudeDegrees>
              <LongitudeDegrees>37.07159341312944889068603515625</LongitudeDegrees>
            </Position>
            <AltitudeMeters>1222.199951171875</AltitudeMeters>
            <DistanceMeters>NAN</DistanceMeters>
          </Trackpoint>
          <Trackpoint>
            <Time>2021-08-03T10:29:38.000Z</Time>
            <Position>
              <LatitudeDegrees>-15.41370503604412078857421875</LatitudeDegrees>
              <LongitudeDegrees>37.0715998671948909759521484375</LongitudeDegrees>
            </Position>
            <AltitudeMeters>1222.4000244140625</AltitudeMeters>
            <DistanceMeters>NAN</DistanceMeters>
          </Trackpoint>
          <Trackpoint>
            <Time>2021-08-03T10:29:46.000Z</Time>
            <Position>
              <LatitudeDegrees>-15.41378826834261417388916015625</LatitudeDegrees>
              <LongitudeDegrees>37.071620486676692962646484375</LongitudeDegrees>
            </Position>
            <AltitudeMeters>1223.4000244140625</AltitudeMeters>
            <DistanceMeters>NAN</DistanceMeters>
          </Trackpoint>
          <Trackpoint>
            <Time>2021-08-03T10:29:47.000Z</Time>
            <Position>
              <LatitudeDegrees>-15.4137997515499591827392578125</LatitudeDegrees>
              <LongitudeDegrees>37.07162325270473957061767578125</LongitudeDegrees>
            </Position>
            <AltitudeMeters>1223.4000244140625</AltitudeMeters>
            <DistanceMeters>NAN</DistanceMeters>
          </Trackpoint>
          <Trackpoint>
            <Time>2021-08-03T10:29:53.000Z</Time>
            <Position>
              <LatitudeDegrees>-15.41385783813893795013427734375</LatitudeDegrees>
              <LongitudeDegrees>37.0716256834566593170166015625</LongitudeDegrees>
            </Position>
            <AltitudeMeters>1224.800048828125</AltitudeMeters>
            <DistanceMeters>NAN</DistanceMeters>
          </Trackpoint>
          <Trackpoint>
            <Time>2021-08-03T10:29:54.000Z</Time>
            <Position>
              <LatitudeDegrees>-15.41386337019503116607666015625</LatitudeDegrees>
              <LongitudeDegrees>37.07162073813378810882568359375</LongitudeDegrees>
            </Position>
            <AltitudeMeters>1225</AltitudeMeters>
            <DistanceMeters>NAN</DistanceMeters>
          </Trackpoint>
          <Trackpoint>
            <Time>2021-08-03T10:29:55.000Z</Time>
            <Position>
              <LatitudeDegrees>-15.41386420838534832000732421875</LatitudeDegrees>
              <LongitudeDegrees>37.0716167986392974853515625</LongitudeDegrees>
            </Position>
            <AltitudeMeters>1225</AltitudeMeters>
            <DistanceMeters>NAN</DistanceMeters>
          </Trackpoint>
          <Trackpoint>
            <Time>2021-08-03T10:30:03.000Z</Time>
            <Position>
              <LatitudeDegrees>-15.41386286728084087371826171875</LatitudeDegrees>
              <LongitudeDegrees>37.07160296849906444549560546875</LongitudeDegrees>
            </Position>
            <AltitudeMeters>1225</AltitudeMeters>
            <DistanceMeters>NAN</DistanceMeters>
          </Trackpoint>
          <Trackpoint>
            <Time>2021-08-03T10:30:07.000Z</Time>
            <Position>
              <LatitudeDegrees>-15.41388072073459625244140625</LatitudeDegrees>
              <LongitudeDegrees>37.07159332931041717529296875</LongitudeDegrees>
            </Position>
            <AltitudeMeters>1224.800048828125</AltitudeMeters>
            <DistanceMeters>NAN</DistanceMeters>
          </Trackpoint>
          <Trackpoint>
            <Time>2021-08-03T10:30:10.000Z</Time>
            <Position>
              <LatitudeDegrees>-15.4139103926718235015869140625</LatitudeDegrees>
              <LongitudeDegrees>37.07159207202494144439697265625</LongitudeDegrees>
            </Position>
            <AltitudeMeters>1225</AltitudeMeters>
            <DistanceMeters>NAN</DistanceMeters>
          </Trackpoint>
          <Trackpoint>
            <Time>2021-08-03T10:30:12.000Z</Time>
            <Position>
              <LatitudeDegrees>-15.413928329944610595703125</LatitudeDegrees>
              <LongitudeDegrees>37.0715914852917194366455078125</LongitudeDegrees>
            </Position>
            <AltitudeMeters>1225.4000244140625</AltitudeMeters>
            <DistanceMeters>NAN</DistanceMeters>
          </Trackpoint>
          <Trackpoint>
            <Time>2021-08-03T10:30:16.000Z</Time>
            <Position>
              <LatitudeDegrees>-15.41397325694561004638671875</LatitudeDegrees>
              <LongitudeDegrees>37.07159592770040035247802734375</LongitudeDegrees>
            </Position>
            <AltitudeMeters>1225.5999755859375</AltitudeMeters>
            <DistanceMeters>NAN</DistanceMeters>
          </Trackpoint>
          <Trackpoint>
            <Time>2021-08-03T10:30:17.000Z</Time>
            <Position>
              <LatitudeDegrees>-15.41398373432457447052001953125</LatitudeDegrees>
              <LongitudeDegrees>37.071595676243305206298828125</LongitudeDegrees>
            </Position>
            <AltitudeMeters>1225.800048828125</AltitudeMeters>
            <DistanceMeters>NAN</DistanceMeters>
          </Trackpoint>
          <Trackpoint>
            <Time>2021-08-03T10:30:19.000Z</Time>
            <Position>
              <LatitudeDegrees>-15.4140069521963596343994140625</LatitudeDegrees>
              <LongitudeDegrees>37.07159006036818027496337890625</LongitudeDegrees>
            </Position>
            <AltitudeMeters>1225.800048828125</AltitudeMeters>
            <DistanceMeters>NAN</DistanceMeters>
          </Trackpoint>
          <Trackpoint>
            <Time>2021-08-03T10:30:27.000Z</Time>
            <Position>
              <LatitudeDegrees>-15.41409253142774105072021484375</LatitudeDegrees>
              <LongitudeDegrees>37.0715834386646747589111328125</LongitudeDegrees>
            </Position>
            <AltitudeMeters>1225.800048828125</AltitudeMeters>
            <DistanceMeters>NAN</DistanceMeters>
          </Trackpoint>
          <Trackpoint>
            <Time>2021-08-03T10:30:34.000Z</Time>
            <Position>
              <LatitudeDegrees>-15.4141789488494396209716796875</LatitudeDegrees>
              <LongitudeDegrees>37.07157145254313945770263671875</LongitudeDegrees>
            </Position>
            <AltitudeMeters>1225.800048828125</AltitudeMeters>
            <DistanceMeters>NAN</DistanceMeters>
          </Trackpoint>
          <Trackpoint>
            <Time>2021-08-03T10:30:36.000Z</Time>
            <Position>
              <LatitudeDegrees>-15.41420132853090763092041015625</LatitudeDegrees>
              <LongitudeDegrees>37.0715685188770294189453125</LongitudeDegrees>
            </Position>
            <AltitudeMeters>1225.5999755859375</AltitudeMeters>
            <DistanceMeters>NAN</DistanceMeters>
          </Trackpoint>
          <Trackpoint>
            <Time>2021-08-03T10:30:46.000Z</Time>
            <Position>
              <LatitudeDegrees>-15.41431196965277194976806640625</LatitudeDegrees>
              <LongitudeDegrees>37.07154362462460994720458984375</LongitudeDegrees>
            </Position>
            <AltitudeMeters>1225.4000244140625</AltitudeMeters>
            <DistanceMeters>NAN</DistanceMeters>
          </Trackpoint>
          <Trackpoint>
            <Time>2021-08-03T10:30:56.000Z</Time>
            <Position>
              <LatitudeDegrees>-15.41443736292421817779541015625</LatitudeDegrees>
              <LongitudeDegrees>37.07151864655315876007080078125</LongitudeDegrees>
            </Position>
            <AltitudeMeters>1225.4000244140625</AltitudeMeters>
            <DistanceMeters>NAN</DistanceMeters>
          </Trackpoint>
          <Trackpoint>
            <Time>2021-08-03T10:31:06.000Z</Time>
            <Position>
              <LatitudeDegrees>-15.4145568050444126129150390625</LatitudeDegrees>
              <LongitudeDegrees>37.07149869762361049652099609375</LongitudeDegrees>
            </Position>
            <AltitudeMeters>1225.4000244140625</AltitudeMeters>
            <DistanceMeters>NAN</DistanceMeters>
          </Trackpoint>
          <Trackpoint>
            <Time>2021-08-03T10:31:19.000Z</Time>
            <Position>
              <LatitudeDegrees>-15.41471664793789386749267578125</LatitudeDegrees>
              <LongitudeDegrees>37.0714907348155975341796875</LongitudeDegrees>
            </Position>
            <AltitudeMeters>1224.5999755859375</AltitudeMeters>
            <DistanceMeters>NAN</DistanceMeters>
          </Trackpoint>
          <Trackpoint>
            <Time>2021-08-03T10:31:20.000Z</Time>
            <Position>
              <LatitudeDegrees>-15.4147274605929851531982421875</LatitudeDegrees>
              <LongitudeDegrees>37.07148964516818523406982421875</LongitudeDegrees>
            </Position>
            <AltitudeMeters>1224.5999755859375</AltitudeMeters>
            <DistanceMeters>NAN</DistanceMeters>
          </Trackpoint>
          <Trackpoint>
            <Time>2021-08-03T10:31:21.000Z</Time>
            <Position>
              <LatitudeDegrees>-15.4147321544587612152099609375</LatitudeDegrees>
              <LongitudeDegrees>37.0714835263788700103759765625</LongitudeDegrees>
            </Position>
            <AltitudeMeters>1224.5999755859375</AltitudeMeters>
            <DistanceMeters>NAN</DistanceMeters>
          </Trackpoint>
          <Trackpoint>
            <Time>2021-08-03T10:31:23.000Z</Time>
            <Position>
              <LatitudeDegrees>-15.4147301428020000457763671875</LatitudeDegrees>
              <LongitudeDegrees>37.0714825205504894256591796875</LongitudeDegrees>
            </Position>
            <AltitudeMeters>1224.5999755859375</AltitudeMeters>
            <DistanceMeters>NAN</DistanceMeters>
          </Trackpoint>
          <Trackpoint>
            <Time>2021-08-03T10:31:25.000Z</Time>
            <Position>
              <LatitudeDegrees>-15.41473894380033016204833984375</LatitudeDegrees>
              <LongitudeDegrees>37.071482352912425994873046875</LongitudeDegrees>
            </Position>
            <AltitudeMeters>1224.5999755859375</AltitudeMeters>
            <DistanceMeters>NAN</DistanceMeters>
          </Trackpoint>
          <Trackpoint>
            <Time>2021-08-03T10:31:28.000Z</Time>
            <Position>
              <LatitudeDegrees>-15.41477113030850887298583984375</LatitudeDegrees>
              <LongitudeDegrees>37.07147933542728424072265625</LongitudeDegrees>
            </Position>
            <AltitudeMeters>1224.5999755859375</AltitudeMeters>
            <DistanceMeters>NAN</DistanceMeters>
          </Trackpoint>
          <Trackpoint>
            <Time>2021-08-03T10:31:34.000Z</Time>
            <Position>
              <LatitudeDegrees>-15.41482913307845592498779296875</LatitudeDegrees>
              <LongitudeDegrees>37.071466259658336639404296875</LongitudeDegrees>
            </Position>
            <AltitudeMeters>1223.5999755859375</AltitudeMeters>
            <DistanceMeters>NAN</DistanceMeters>
          </Trackpoint>
          <Trackpoint>
            <Time>2021-08-03T10:31:39.000Z</Time>
            <Position>
              <LatitudeDegrees>-15.4148820228874683380126953125</LatitudeDegrees>
              <LongitudeDegrees>37.071439437568187713623046875</LongitudeDegrees>
            </Position>
            <AltitudeMeters>1222.4000244140625</AltitudeMeters>
            <DistanceMeters>NAN</DistanceMeters>
          </Trackpoint>
          <Trackpoint>
            <Time>2021-08-03T10:31:40.000Z</Time>
            <Position>
              <LatitudeDegrees>-15.41489250026643276214599609375</LatitudeDegrees>
              <LongitudeDegrees>37.07143306732177734375</LongitudeDegrees>
            </Position>
            <AltitudeMeters>1222.199951171875</AltitudeMeters>
            <DistanceMeters>NAN</DistanceMeters>
          </Trackpoint>
          <Trackpoint>
            <Time>2021-08-03T10:31:46.000Z</Time>
            <Position>
              <LatitudeDegrees>-15.41493952274322509765625</LatitudeDegrees>
              <LongitudeDegrees>37.07138277590274810791015625</LongitudeDegrees>
            </Position>
            <AltitudeMeters>1221.800048828125</AltitudeMeters>
            <DistanceMeters>NAN</DistanceMeters>
          </Trackpoint>
          <Trackpoint>
            <Time>2021-08-03T10:31:48.000Z</Time>
            <Position>
              <LatitudeDegrees>-15.4149598069489002227783203125</LatitudeDegrees>
              <LongitudeDegrees>37.071356959640979766845703125</LongitudeDegrees>
            </Position>
            <AltitudeMeters>1221.800048828125</AltitudeMeters>
            <DistanceMeters>NAN</DistanceMeters>
          </Trackpoint>
          <Trackpoint>
            <Time>2021-08-03T10:31:50.000Z</Time>
            <Position>
              <LatitudeDegrees>-15.41497372090816497802734375</LatitudeDegrees>
              <LongitudeDegrees>37.07134011201560497283935546875</LongitudeDegrees>
            </Position>
            <AltitudeMeters>1221.199951171875</AltitudeMeters>
            <DistanceMeters>NAN</DistanceMeters>
          </Trackpoint>
          <Trackpoint>
            <Time>2021-08-03T10:31:56.000Z</Time>
            <Position>
              <LatitudeDegrees>-15.415035076439380645751953125</LatitudeDegrees>
              <LongitudeDegrees>37.0712843723595142364501953125</LongitudeDegrees>
            </Position>
            <AltitudeMeters>1220.5999755859375</AltitudeMeters>
            <DistanceMeters>NAN</DistanceMeters>
          </Trackpoint>
          <Trackpoint>
            <Time>2021-08-03T10:31:58.000Z</Time>
            <Position>
              <LatitudeDegrees>-15.41505360044538974761962890625</LatitudeDegrees>
              <LongitudeDegrees>37.0712635852396488189697265625</LongitudeDegrees>
            </Position>
            <AltitudeMeters>1220</AltitudeMeters>
            <DistanceMeters>NAN</DistanceMeters>
          </Trackpoint>
          <Trackpoint>
            <Time>2021-08-03T10:32:07.000Z</Time>
            <Position>
              <LatitudeDegrees>-15.4151244275271892547607421875</LatitudeDegrees>
              <LongitudeDegrees>37.07119233906269073486328125</LongitudeDegrees>
            </Position>
            <AltitudeMeters>1219.4000244140625</AltitudeMeters>
            <DistanceMeters>NAN</DistanceMeters>
          </Trackpoint>
          <Trackpoint>
            <Time>2021-08-03T10:32:11.000Z</Time>
            <Position>
              <LatitudeDegrees>-15.41515133343636989593505859375</LatitudeDegrees>
              <LongitudeDegrees>37.07116627134382724761962890625</LongitudeDegrees>
            </Position>
            <AltitudeMeters>1219</AltitudeMeters>
            <DistanceMeters>NAN</DistanceMeters>
          </Trackpoint>
          <Trackpoint>
            <Time>2021-08-03T10:32:19.000Z</Time>
            <Position>
              <LatitudeDegrees>-15.41524554602801799774169921875</LatitudeDegrees>
              <LongitudeDegrees>37.07108597271144390106201171875</LongitudeDegrees>
            </Position>
            <AltitudeMeters>1218.199951171875</AltitudeMeters>
            <DistanceMeters>NAN</DistanceMeters>
          </Trackpoint>
          <Trackpoint>
            <Time>2021-08-03T10:32:22.000Z</Time>
            <Position>
              <LatitudeDegrees>-15.4152679257094860076904296875</LatitudeDegrees>
              <LongitudeDegrees>37.07106853835284709930419921875</LongitudeDegrees>
            </Position>
            <AltitudeMeters>1217.5999755859375</AltitudeMeters>
            <DistanceMeters>NAN</DistanceMeters>
          </Trackpoint>
          <Trackpoint>
            <Time>2021-08-03T10:32:27.000Z</Time>
            <Position>
              <LatitudeDegrees>-15.4153168760240077972412109375</LatitudeDegrees>
              <LongitudeDegrees>37.071031071245670318603515625</LongitudeDegrees>
            </Position>
            <AltitudeMeters>1216.800048828125</AltitudeMeters>
            <DistanceMeters>NAN</DistanceMeters>
          </Trackpoint>
          <Trackpoint>
            <Time>2021-08-03T10:32:28.000Z</Time>
            <Position>
              <LatitudeDegrees>-15.41532768867909908294677734375</LatitudeDegrees>
              <LongitudeDegrees>37.0710218511521816253662109375</LongitudeDegrees>
            </Position>
            <AltitudeMeters>1216.199951171875</AltitudeMeters>
            <DistanceMeters>NAN</DistanceMeters>
          </Trackpoint>
          <Trackpoint>
            <Time>2021-08-03T10:32:32.000Z</Time>
            <Position>
              <LatitudeDegrees>-15.4153732024133205413818359375</LatitudeDegrees>
              <LongitudeDegrees>37.07098840735852718353271484375</LongitudeDegrees>
            </Position>
            <AltitudeMeters>1215.199951171875</AltitudeMeters>
            <DistanceMeters>NAN</DistanceMeters>
          </Trackpoint>
          <Trackpoint>
            <Time>2021-08-03T10:32:35.000Z</Time>
            <Position>
              <LatitudeDegrees>-15.41540714912116527557373046875</LatitudeDegrees>
              <LongitudeDegrees>37.07097566686570644378662109375</LongitudeDegrees>
            </Position>
            <AltitudeMeters>1215.199951171875</AltitudeMeters>
            <DistanceMeters>NAN</DistanceMeters>
          </Trackpoint>
          <Trackpoint>
            <Time>2021-08-03T10:32:37.000Z</Time>
            <Position>
              <LatitudeDegrees>-15.41542441584169864654541015625</LatitudeDegrees>
              <LongitudeDegrees>37.070962674915790557861328125</LongitudeDegrees>
            </Position>
            <AltitudeMeters>1215.199951171875</AltitudeMeters>
            <DistanceMeters>NAN</DistanceMeters>
          </Trackpoint>
          <Trackpoint>
            <Time>2021-08-03T10:32:48.000Z</Time>
            <Position>
              <LatitudeDegrees>-15.415542013943195343017578125</LatitudeDegrees>
              <LongitudeDegrees>37.07088053226470947265625</LongitudeDegrees>
            </Position>
            <AltitudeMeters>1214.199951171875</AltitudeMeters>
            <DistanceMeters>NAN</DistanceMeters>
          </Trackpoint>
          <Trackpoint>
            <Time>2021-08-03T10:32:50.000Z</Time>
            <Position>
              <LatitudeDegrees>-15.41555450297892093658447265625</LatitudeDegrees>
              <LongitudeDegrees>37.0708656124770641326904296875</LongitudeDegrees>
            </Position>
            <AltitudeMeters>1214.199951171875</AltitudeMeters>
            <DistanceMeters>NAN</DistanceMeters>
          </Trackpoint>
          <Trackpoint>
            <Time>2021-08-03T10:33:00.000Z</Time>
            <Position>
              <LatitudeDegrees>-15.4156315326690673828125</LatitudeDegrees>
              <LongitudeDegrees>37.07077433355152606964111328125</LongitudeDegrees>
            </Position>
            <AltitudeMeters>1213.4000244140625</AltitudeMeters>
            <DistanceMeters>NAN</DistanceMeters>
          </Trackpoint>
          <Trackpoint>
            <Time>2021-08-03T10:33:04.000Z</Time>
            <Position>
              <LatitudeDegrees>-15.41566304862499237060546875</LatitudeDegrees>
              <LongitudeDegrees>37.0707370340824127197265625</LongitudeDegrees>
            </Position>
            <AltitudeMeters>1213</AltitudeMeters>
            <DistanceMeters>NAN</DistanceMeters>
          </Trackpoint>
          <Trackpoint>
            <Time>2021-08-03T10:33:12.000Z</Time>
            <Position>
              <LatitudeDegrees>-15.41570872999727725982666015625</LatitudeDegrees>
              <LongitudeDegrees>37.070658914744853973388671875</LongitudeDegrees>
            </Position>
            <AltitudeMeters>1212.800048828125</AltitudeMeters>
            <DistanceMeters>NAN</DistanceMeters>
          </Trackpoint>
          <Trackpoint>
            <Time>2021-08-03T10:33:17.000Z</Time>
            <Position>
              <LatitudeDegrees>-15.41573270224034786224365234375</LatitudeDegrees>
              <LongitudeDegrees>37.070613317191600799560546875</LongitudeDegrees>
            </Position>
            <AltitudeMeters>1211.800048828125</AltitudeMeters>
            <DistanceMeters>NAN</DistanceMeters>
          </Trackpoint>
          <Trackpoint>
            <Time>2021-08-03T10:33:19.000Z</Time>
            <Position>
              <LatitudeDegrees>-15.4157393239438533782958984375</LatitudeDegrees>
              <LongitudeDegrees>37.070592530071735382080078125</LongitudeDegrees>
            </Position>
            <AltitudeMeters>1211.800048828125</AltitudeMeters>
            <DistanceMeters>NAN</DistanceMeters>
          </Trackpoint>
          <Trackpoint>
            <Time>2021-08-03T10:33:23.000Z</Time>
            <Position>
              <LatitudeDegrees>-15.41575717739760875701904296875</LatitudeDegrees>
              <LongitudeDegrees>37.07053922116756439208984375</LongitudeDegrees>
            </Position>
            <AltitudeMeters>1211.800048828125</AltitudeMeters>
            <DistanceMeters>NAN</DistanceMeters>
          </Trackpoint>
          <Trackpoint>
            <Time>2021-08-03T10:33:28.000Z</Time>
            <Position>
              <LatitudeDegrees>-15.415779054164886474609375</LatitudeDegrees>
              <LongitudeDegrees>37.07046202383935451507568359375</LongitudeDegrees>
            </Position>
            <AltitudeMeters>1211</AltitudeMeters>
            <DistanceMeters>NAN</DistanceMeters>
          </Trackpoint>
          <Trackpoint>
            <Time>2021-08-03T10:33:30.000Z</Time>
            <Position>
              <LatitudeDegrees>-15.41579254902899265289306640625</LatitudeDegrees>
              <LongitudeDegrees>37.07042916677892208099365234375</LongitudeDegrees>
            </Position>
            <AltitudeMeters>1211</AltitudeMeters>
            <DistanceMeters>NAN</DistanceMeters>
          </Trackpoint>
          <Trackpoint>
            <Time>2021-08-03T10:33:31.000Z</Time>
            <Position>
              <LatitudeDegrees>-15.41579623706638813018798828125</LatitudeDegrees>
              <LongitudeDegrees>37.07041575573384761810302734375</LongitudeDegrees>
            </Position>
            <AltitudeMeters>1210.800048828125</AltitudeMeters>
            <DistanceMeters>NAN</DistanceMeters>
          </Trackpoint>
          <Trackpoint>
            <Time>2021-08-03T10:33:37.000Z</Time>
            <Position>
              <LatitudeDegrees>-15.41579858399927616119384765625</LatitudeDegrees>
              <LongitudeDegrees>37.07034937106072902679443359375</LongitudeDegrees>
            </Position>
            <AltitudeMeters>1210.199951171875</AltitudeMeters>
            <DistanceMeters>NAN</DistanceMeters>
          </Trackpoint>
          <Trackpoint>
            <Time>2021-08-03T10:33:38.000Z</Time>
            <Position>
              <LatitudeDegrees>-15.41579606942832469940185546875</LatitudeDegrees>
              <LongitudeDegrees>37.0703523047268390655517578125</LongitudeDegrees>
            </Position>
            <AltitudeMeters>1210</AltitudeMeters>
            <DistanceMeters>NAN</DistanceMeters>
          </Trackpoint>
          <Trackpoint>
            <Time>2021-08-03T10:33:40.000Z</Time>
            <Position>
              <LatitudeDegrees>-15.41579137556254863739013671875</LatitudeDegrees>
              <LongitudeDegrees>37.07033830694854259490966796875</LongitudeDegrees>
            </Position>
            <AltitudeMeters>1209.800048828125</AltitudeMeters>
            <DistanceMeters>NAN</DistanceMeters>
          </Trackpoint>
          <Trackpoint>
            <Time>2021-08-03T10:33:41.000Z</Time>
            <Position>
              <LatitudeDegrees>-15.41579179465770721435546875</LatitudeDegrees>
              <LongitudeDegrees>37.0703244768083095550537109375</LongitudeDegrees>
            </Position>
            <AltitudeMeters>1209.800048828125</AltitudeMeters>
            <DistanceMeters>NAN</DistanceMeters>
          </Trackpoint>
          <Trackpoint>
            <Time>2021-08-03T10:33:45.000Z</Time>
            <Position>
              <LatitudeDegrees>-15.4158090613782405853271484375</LatitudeDegrees>
              <LongitudeDegrees>37.0702676475048065185546875</LongitudeDegrees>
            </Position>
            <AltitudeMeters>1209</AltitudeMeters>
            <DistanceMeters>NAN</DistanceMeters>
          </Trackpoint>
          <Trackpoint>
            <Time>2021-08-03T10:33:48.000Z</Time>
            <Position>
              <LatitudeDegrees>-15.41581727564334869384765625</LatitudeDegrees>
              <LongitudeDegrees>37.07023504190146923065185546875</LongitudeDegrees>
            </Position>
            <AltitudeMeters>1209.199951171875</AltitudeMeters>
            <DistanceMeters>NAN</DistanceMeters>
          </Trackpoint>
          <Trackpoint>
            <Time>2021-08-03T10:33:50.000Z</Time>
            <Position>
              <LatitudeDegrees>-15.41582624427974224090576171875</LatitudeDegrees>
              <LongitudeDegrees>37.0702155120670795440673828125</LongitudeDegrees>
            </Position>
            <AltitudeMeters>1209.199951171875</AltitudeMeters>
            <DistanceMeters>NAN</DistanceMeters>
          </Trackpoint>
          <Trackpoint>
            <Time>2021-08-03T10:33:53.000Z</Time>
            <Position>
              <LatitudeDegrees>-15.41584904305636882781982421875</LatitudeDegrees>
              <LongitudeDegrees>37.0701937191188335418701171875</LongitudeDegrees>
            </Position>
            <AltitudeMeters>1208.4000244140625</AltitudeMeters>
            <DistanceMeters>NAN</DistanceMeters>
          </Trackpoint>
          <Trackpoint>
            <Time>2021-08-03T10:33:55.000Z</Time>
            <Position>
              <LatitudeDegrees>-15.41587066836655139923095703125</LatitudeDegrees>
              <LongitudeDegrees>37.0701826550066471099853515625</LongitudeDegrees>
            </Position>
            <AltitudeMeters>1208.199951171875</AltitudeMeters>
            <DistanceMeters>NAN</DistanceMeters>
          </Trackpoint>
          <Trackpoint>
            <Time>2021-08-03T10:33:56.000Z</Time>
            <Position>
              <LatitudeDegrees>-15.41588324122130870819091796875</LatitudeDegrees>
              <LongitudeDegrees>37.0701777935028076171875</LongitudeDegrees>
            </Position>
            <AltitudeMeters>1207.5999755859375</AltitudeMeters>
            <DistanceMeters>NAN</DistanceMeters>
          </Trackpoint>
          <Trackpoint>
            <Time>2021-08-03T10:33:57.000Z</Time>
            <Position>
              <LatitudeDegrees>-15.41589631699025630950927734375</LatitudeDegrees>
              <LongitudeDegrees>37.07017737440764904022216796875</LongitudeDegrees>
            </Position>
            <AltitudeMeters>1207.4000244140625</AltitudeMeters>
            <DistanceMeters>NAN</DistanceMeters>
          </Trackpoint>
          <Trackpoint>
            <Time>2021-08-03T10:34:05.000Z</Time>
            <Position>
              <LatitudeDegrees>-15.4159823991358280181884765625</LatitudeDegrees>
              <LongitudeDegrees>37.0701591856777667999267578125</LongitudeDegrees>
            </Position>
            <AltitudeMeters>1206.5999755859375</AltitudeMeters>
            <DistanceMeters>NAN</DistanceMeters>
          </Trackpoint>
          <Trackpoint>
            <Time>2021-08-03T10:34:06.000Z</Time>
            <Position>
              <LatitudeDegrees>-15.4159927926957607269287109375</LatitudeDegrees>
              <LongitudeDegrees>37.0701578445732593536376953125</LongitudeDegrees>
            </Position>
            <AltitudeMeters>1206.4000244140625</AltitudeMeters>
            <DistanceMeters>NAN</DistanceMeters>
          </Trackpoint>
          <Trackpoint>
            <Time>2021-08-03T10:34:08.000Z</Time>
            <Position>
              <LatitudeDegrees>-15.4160102270543575286865234375</LatitudeDegrees>
              <LongitudeDegrees>37.07016211934387683868408203125</LongitudeDegrees>
            </Position>
            <AltitudeMeters>1205.800048828125</AltitudeMeters>
            <DistanceMeters>NAN</DistanceMeters>
          </Trackpoint>
          <Trackpoint>
            <Time>2021-08-03T10:34:10.000Z</Time>
            <Position>
              <LatitudeDegrees>-15.41602824814617633819580078125</LatitudeDegrees>
              <LongitudeDegrees>37.07017150707542896270751953125</LongitudeDegrees>
            </Position>
            <AltitudeMeters>1205.800048828125</AltitudeMeters>
            <DistanceMeters>NAN</DistanceMeters>
          </Trackpoint>
          <Trackpoint>
            <Time>2021-08-03T10:34:11.000Z</Time>
            <Position>
              <LatitudeDegrees>-15.41603721678256988525390625</LatitudeDegrees>
              <LongitudeDegrees>37.070174105465412139892578125</LongitudeDegrees>
            </Position>
            <AltitudeMeters>1205.199951171875</AltitudeMeters>
            <DistanceMeters>NAN</DistanceMeters>
          </Trackpoint>
          <Trackpoint>
            <Time>2021-08-03T10:34:14.000Z</Time>
            <Position>
              <LatitudeDegrees>-15.4160673916339874267578125</LatitudeDegrees>
              <LongitudeDegrees>37.07017175853252410888671875</LongitudeDegrees>
            </Position>
            <AltitudeMeters>1204.199951171875</AltitudeMeters>
            <DistanceMeters>NAN</DistanceMeters>
          </Trackpoint>
          <Trackpoint>
            <Time>2021-08-03T10:34:17.000Z</Time>
            <Position>
              <LatitudeDegrees>-15.4160997457802295684814453125</LatitudeDegrees>
              <LongitudeDegrees>37.07018005661666393280029296875</LongitudeDegrees>
            </Position>
            <AltitudeMeters>1204</AltitudeMeters>
            <DistanceMeters>NAN</DistanceMeters>
          </Trackpoint>
          <Trackpoint>
            <Time>2021-08-03T10:34:21.000Z</Time>
            <Position>
              <LatitudeDegrees>-15.41615347377955913543701171875</LatitudeDegrees>
              <LongitudeDegrees>37.0701860077679157257080078125</LongitudeDegrees>
            </Position>
            <AltitudeMeters>1202.800048828125</AltitudeMeters>
            <DistanceMeters>NAN</DistanceMeters>
          </Trackpoint>
          <Trackpoint>
            <Time>2021-08-03T10:34:22.000Z</Time>
            <Position>
              <LatitudeDegrees>-15.4161661304533481597900390625</LatitudeDegrees>
              <LongitudeDegrees>37.07018692977726459503173828125</LongitudeDegrees>
            </Position>
            <AltitudeMeters>1202.800048828125</AltitudeMeters>
            <DistanceMeters>NAN</DistanceMeters>
          </Trackpoint>
          <Trackpoint>
            <Time>2021-08-03T10:34:27.000Z</Time>
            <Position>
              <LatitudeDegrees>-15.4162110574543476104736328125</LatitudeDegrees>
              <LongitudeDegrees>37.07019413821399211883544921875</LongitudeDegrees>
            </Position>
            <AltitudeMeters>1202.4000244140625</AltitudeMeters>
            <DistanceMeters>NAN</DistanceMeters>
          </Trackpoint>
          <Trackpoint>
            <Time>2021-08-03T10:34:31.000Z</Time>
            <Position>
              <LatitudeDegrees>-15.41624869219958782196044921875</LatitudeDegrees>
              <LongitudeDegrees>37.0702059566974639892578125</LongitudeDegrees>
            </Position>
            <AltitudeMeters>1201.5999755859375</AltitudeMeters>
            <DistanceMeters>NAN</DistanceMeters>
          </Trackpoint>
          <Trackpoint>
            <Time>2021-08-03T10:34:36.000Z</Time>
            <Position>
              <LatitudeDegrees>-15.41631960310041904449462890625</LatitudeDegrees>
              <LongitudeDegrees>37.0702235586941242218017578125</LongitudeDegrees>
            </Position>
            <AltitudeMeters>1199.800048828125</AltitudeMeters>
            <DistanceMeters>NAN</DistanceMeters>
          </Trackpoint>
          <Trackpoint>
            <Time>2021-08-03T10:34:37.000Z</Time>
            <Position>
              <LatitudeDegrees>-15.41633452288806438446044921875</LatitudeDegrees>
              <LongitudeDegrees>37.07022682763636112213134765625</LongitudeDegrees>
            </Position>
            <AltitudeMeters>1199.800048828125</AltitudeMeters>
            <DistanceMeters>NAN</DistanceMeters>
          </Trackpoint>
          <Trackpoint>
            <Time>2021-08-03T10:34:46.000Z</Time>
            <Position>
              <LatitudeDegrees>-15.4164348542690277099609375</LatitudeDegrees>
              <LongitudeDegrees>37.070232443511486053466796875</LongitudeDegrees>
            </Position>
            <AltitudeMeters>1199.199951171875</AltitudeMeters>
            <DistanceMeters>NAN</DistanceMeters>
          </Trackpoint>
          <Trackpoint>
            <Time>2021-08-03T10:34:48.000Z</Time>
            <Position>
              <LatitudeDegrees>-15.41645857505500316619873046875</LatitudeDegrees>
              <LongitudeDegrees>37.070237137377262115478515625</LongitudeDegrees>
            </Position>
            <AltitudeMeters>1198.800048828125</AltitudeMeters>
            <DistanceMeters>NAN</DistanceMeters>
          </Trackpoint>
          <Trackpoint>
            <Time>2021-08-03T10:34:49.000Z</Time>
            <Position>
              <LatitudeDegrees>-15.41646913625299930572509765625</LatitudeDegrees>
              <LongitudeDegrees>37.070241160690784454345703125</LongitudeDegrees>
            </Position>
            <AltitudeMeters>1198.5999755859375</AltitudeMeters>
            <DistanceMeters>NAN</DistanceMeters>
          </Trackpoint>
          <Trackpoint>
            <Time>2021-08-03T10:34:51.000Z</Time>
            <Position>
              <LatitudeDegrees>-15.41649512015283107757568359375</LatitudeDegrees>
              <LongitudeDegrees>37.0702473632991313934326171875</LongitudeDegrees>
            </Position>
            <AltitudeMeters>1198.5999755859375</AltitudeMeters>
            <DistanceMeters>NAN</DistanceMeters>
          </Trackpoint>
          <Trackpoint>
            <Time>2021-08-03T10:34:54.000Z</Time>
            <Position>
              <LatitudeDegrees>-15.4165339283645153045654296875</LatitudeDegrees>
              <LongitudeDegrees>37.07025096751749515533447265625</LongitudeDegrees>
            </Position>
            <AltitudeMeters>1197.5999755859375</AltitudeMeters>
            <DistanceMeters>NAN</DistanceMeters>
          </Trackpoint>
          <Trackpoint>
            <Time>2021-08-03T10:34:59.000Z</Time>
            <Position>
              <LatitudeDegrees>-15.41659779846668243408203125</LatitudeDegrees>
              <LongitudeDegrees>37.07025482319295406341552734375</LongitudeDegrees>
            </Position>
            <AltitudeMeters>1197.5999755859375</AltitudeMeters>
            <DistanceMeters>NAN</DistanceMeters>
          </Trackpoint>
          <Trackpoint>
            <Time>2021-08-03T10:35:02.000Z</Time>
            <Position>
              <LatitudeDegrees>-15.4166200943291187286376953125</LatitudeDegrees>
              <LongitudeDegrees>37.07025784067809581756591796875</LongitudeDegrees>
            </Position>
            <AltitudeMeters>1196.800048828125</AltitudeMeters>
            <DistanceMeters>NAN</DistanceMeters>
          </Trackpoint>
          <Trackpoint>
            <Time>2021-08-03T10:35:05.000Z</Time>
            <Position>
              <LatitudeDegrees>-15.41665144264698028564453125</LatitudeDegrees>
              <LongitudeDegrees>37.07025825977325439453125</LongitudeDegrees>
            </Position>
            <AltitudeMeters>1196.199951171875</AltitudeMeters>
            <DistanceMeters>NAN</DistanceMeters>
          </Trackpoint>
          <Trackpoint>
            <Time>2021-08-03T10:35:09.000Z</Time>
            <Position>
              <LatitudeDegrees>-15.4166975431144237518310546875</LatitudeDegrees>
              <LongitudeDegrees>37.0702637918293476104736328125</LongitudeDegrees>
            </Position>
            <AltitudeMeters>1195.800048828125</AltitudeMeters>
            <DistanceMeters>NAN</DistanceMeters>
          </Trackpoint>
          <Trackpoint>
            <Time>2021-08-03T10:35:14.000Z</Time>
            <Position>
              <LatitudeDegrees>-15.416758395731449127197265625</LatitudeDegrees>
              <LongitudeDegrees>37.0702678151428699493408203125</LongitudeDegrees>
            </Position>
            <AltitudeMeters>1194.5999755859375</AltitudeMeters>
            <DistanceMeters>NAN</DistanceMeters>
          </Trackpoint>
          <Trackpoint>
            <Time>2021-08-03T10:35:17.000Z</Time>
            <Position>
              <LatitudeDegrees>-15.41678781621158123016357421875</LatitudeDegrees>
              <LongitudeDegrees>37.07026655785739421844482421875</LongitudeDegrees>
            </Position>
            <AltitudeMeters>1193.199951171875</AltitudeMeters>
            <DistanceMeters>NAN</DistanceMeters>
          </Trackpoint>
          <Trackpoint>
            <Time>2021-08-03T10:35:25.000Z</Time>
            <Position>
              <LatitudeDegrees>-15.4168802686035633087158203125</LatitudeDegrees>
              <LongitudeDegrees>37.07027125172317028045654296875</LongitudeDegrees>
            </Position>
            <AltitudeMeters>1192.4000244140625</AltitudeMeters>
            <DistanceMeters>NAN</DistanceMeters>
          </Trackpoint>
          <Trackpoint>
            <Time>2021-08-03T10:35:27.000Z</Time>
            <Position>
              <LatitudeDegrees>-15.41690482757985591888427734375</LatitudeDegrees>
              <LongitudeDegrees>37.0702688209712505340576171875</LongitudeDegrees>
            </Position>
            <AltitudeMeters>1192.4000244140625</AltitudeMeters>
            <DistanceMeters>NAN</DistanceMeters>
          </Trackpoint>
          <Trackpoint>
            <Time>2021-08-03T10:35:28.000Z</Time>
            <Position>
              <LatitudeDegrees>-15.4169168137013912200927734375</LatitudeDegrees>
              <LongitudeDegrees>37.07026898860931396484375</LongitudeDegrees>
            </Position>
            <AltitudeMeters>1192.199951171875</AltitudeMeters>
            <DistanceMeters>NAN</DistanceMeters>
          </Trackpoint>
          <Trackpoint>
            <Time>2021-08-03T10:35:31.000Z</Time>
            <Position>
              <LatitudeDegrees>-15.416957549750804901123046875</LatitudeDegrees>
              <LongitudeDegrees>37.07026555202901363372802734375</LongitudeDegrees>
            </Position>
            <AltitudeMeters>1191.800048828125</AltitudeMeters>
            <DistanceMeters>NAN</DistanceMeters>
          </Trackpoint>
          <Trackpoint>
            <Time>2021-08-03T10:35:34.000Z</Time>
            <Position>
              <LatitudeDegrees>-15.41699635796248912811279296875</LatitudeDegrees>
              <LongitudeDegrees>37.0702674798667430877685546875</LongitudeDegrees>
            </Position>
            <AltitudeMeters>1191.4000244140625</AltitudeMeters>
            <DistanceMeters>NAN</DistanceMeters>
          </Trackpoint>
          <Trackpoint>
            <Time>2021-08-03T10:35:35.000Z</Time>
            <Position>
              <LatitudeDegrees>-15.41700943373143672943115234375</LatitudeDegrees>
              <LongitudeDegrees>37.07026957534253597259521484375</LongitudeDegrees>
            </Position>
            <AltitudeMeters>1191</AltitudeMeters>
            <DistanceMeters>NAN</DistanceMeters>
          </Trackpoint>
          <Trackpoint>
            <Time>2021-08-03T10:35:38.000Z</Time>
            <Position>
              <LatitudeDegrees>-15.4170410335063934326171875</LatitudeDegrees>
              <LongitudeDegrees>37.07026437856256961822509765625</LongitudeDegrees>
            </Position>
            <AltitudeMeters>1190.5999755859375</AltitudeMeters>
            <DistanceMeters>NAN</DistanceMeters>
          </Trackpoint>
          <Trackpoint>
            <Time>2021-08-03T10:35:40.000Z</Time>
            <Position>
              <LatitudeDegrees>-15.41705938987433910369873046875</LatitudeDegrees>
              <LongitudeDegrees>37.0702634565532207489013671875</LongitudeDegrees>
            </Position>
            <AltitudeMeters>1190.4000244140625</AltitudeMeters>
            <DistanceMeters>NAN</DistanceMeters>
          </Trackpoint>
          <Trackpoint>
            <Time>2021-08-03T10:35:41.000Z</Time>
            <Position>
              <LatitudeDegrees>-15.4170710407197475433349609375</LatitudeDegrees>
              <LongitudeDegrees>37.07027007825672626495361328125</LongitudeDegrees>
            </Position>
            <AltitudeMeters>1190.4000244140625</AltitudeMeters>
            <DistanceMeters>NAN</DistanceMeters>
          </Trackpoint>
          <Trackpoint>
            <Time>2021-08-03T10:35:46.000Z</Time>
            <Position>
              <LatitudeDegrees>-15.417129881680011749267578125</LatitudeDegrees>
              <LongitudeDegrees>37.07027611322700977325439453125</LongitudeDegrees>
            </Position>
            <AltitudeMeters>1190</AltitudeMeters>
            <DistanceMeters>NAN</DistanceMeters>
          </Trackpoint>
          <Trackpoint>
            <Time>2021-08-03T10:35:49.000Z</Time>
            <Position>
              <LatitudeDegrees>-15.41716969572007656097412109375</LatitudeDegrees>
              <LongitudeDegrees>37.0702674798667430877685546875</LongitudeDegrees>
            </Position>
            <AltitudeMeters>1190</AltitudeMeters>
            <DistanceMeters>NAN</DistanceMeters>
          </Trackpoint>
          <Trackpoint>
            <Time>2021-08-03T10:35:52.000Z</Time>
            <Position>
              <LatitudeDegrees>-15.4172021336853504180908203125</LatitudeDegrees>
              <LongitudeDegrees>37.070253901183605194091796875</LongitudeDegrees>
            </Position>
            <AltitudeMeters>1189.5999755859375</AltitudeMeters>
            <DistanceMeters>NAN</DistanceMeters>
          </Trackpoint>
          <Trackpoint>
            <Time>2021-08-03T10:35:57.000Z</Time>
            <Position>
              <LatitudeDegrees>-15.4172554425895214080810546875</LatitudeDegrees>
              <LongitudeDegrees>37.07023076713085174560546875</LongitudeDegrees>
            </Position>
            <AltitudeMeters>1189</AltitudeMeters>
            <DistanceMeters>NAN</DistanceMeters>
          </Trackpoint>
          <Trackpoint>
            <Time>2021-08-03T10:36:01.000Z</Time>
            <Position>
              <LatitudeDegrees>-15.4172926582396030426025390625</LatitudeDegrees>
              <LongitudeDegrees>37.07019497640430927276611328125</LongitudeDegrees>
            </Position>
            <AltitudeMeters>1188.4000244140625</AltitudeMeters>
            <DistanceMeters>NAN</DistanceMeters>
          </Trackpoint>
          <Trackpoint>
            <Time>2021-08-03T10:36:05.000Z</Time>
            <Position>
              <LatitudeDegrees>-15.41733096353709697723388671875</LatitudeDegrees>
              <LongitudeDegrees>37.07015968859195709228515625</LongitudeDegrees>
            </Position>
            <AltitudeMeters>1188.199951171875</AltitudeMeters>
            <DistanceMeters>NAN</DistanceMeters>
          </Trackpoint>
          <Trackpoint>
            <Time>2021-08-03T10:36:07.000Z</Time>
            <Position>
              <LatitudeDegrees>-15.4173489846289157867431640625</LatitudeDegrees>
              <LongitudeDegrees>37.07014367915689945220947265625</LongitudeDegrees>
            </Position>
            <AltitudeMeters>1188.199951171875</AltitudeMeters>
            <DistanceMeters>NAN</DistanceMeters>
          </Trackpoint>
          <Trackpoint>
            <Time>2021-08-03T10:36:17.000Z</Time>
            <Position>
              <LatitudeDegrees>-15.41745970956981182098388671875</LatitudeDegrees>
              <LongitudeDegrees>37.0700807310640811920166015625</LongitudeDegrees>
            </Position>
            <AltitudeMeters>1188.199951171875</AltitudeMeters>
            <DistanceMeters>NAN</DistanceMeters>
          </Trackpoint>
          <Trackpoint>
            <Time>2021-08-03T10:36:23.000Z</Time>
            <Position>
              <LatitudeDegrees>-15.41753254830837249755859375</LatitudeDegrees>
              <LongitudeDegrees>37.07006656564772129058837890625</LongitudeDegrees>
            </Position>
            <AltitudeMeters>1188</AltitudeMeters>
            <DistanceMeters>NAN</DistanceMeters>
          </Trackpoint>
          <Trackpoint>
            <Time>2021-08-03T10:36:27.000Z</Time>
            <Position>
              <LatitudeDegrees>-15.41757806204259395599365234375</LatitudeDegrees>
              <LongitudeDegrees>37.070051394402980804443359375</LongitudeDegrees>
            </Position>
            <AltitudeMeters>1188</AltitudeMeters>
            <DistanceMeters>NAN</DistanceMeters>
          </Trackpoint>
          <Trackpoint>
            <Time>2021-08-03T10:36:35.000Z</Time>
            <Position>
              <LatitudeDegrees>-15.41764008812606334686279296875</LatitudeDegrees>
              <LongitudeDegrees>37.07002683542668819427490234375</LongitudeDegrees>
            </Position>
            <AltitudeMeters>1188.199951171875</AltitudeMeters>
            <DistanceMeters>NAN</DistanceMeters>
          </Trackpoint>
          <Trackpoint>
            <Time>2021-08-03T10:36:37.000Z</Time>
            <Position>
              <LatitudeDegrees>-15.41764930821955204010009765625</LatitudeDegrees>
              <LongitudeDegrees>37.070017196238040924072265625</LongitudeDegrees>
            </Position>
            <AltitudeMeters>1188.4000244140625</AltitudeMeters>
            <DistanceMeters>NAN</DistanceMeters>
          </Trackpoint>
          <Trackpoint>
            <Time>2021-08-03T10:36:40.000Z</Time>
            <Position>
              <LatitudeDegrees>-15.41764385998249053955078125</LatitudeDegrees>
              <LongitudeDegrees>37.07001141272485256195068359375</LongitudeDegrees>
            </Position>
            <AltitudeMeters>1188</AltitudeMeters>
            <DistanceMeters>NAN</DistanceMeters>
          </Trackpoint>
          <Trackpoint>
            <Time>2021-08-03T10:36:46.000Z</Time>
            <Position>
              <LatitudeDegrees>-15.41762097738683223724365234375</LatitudeDegrees>
              <LongitudeDegrees>37.0700039528310298919677734375</LongitudeDegrees>
            </Position>
            <AltitudeMeters>1188</AltitudeMeters>
            <DistanceMeters>NAN</DistanceMeters>
          </Trackpoint>
          <Trackpoint>
            <Time>2021-08-03T10:37:00.000Z</Time>
            <Position>
              <LatitudeDegrees>-15.41761930100619792938232421875</LatitudeDegrees>
              <LongitudeDegrees>37.0700039528310298919677734375</LongitudeDegrees>
            </Position>
            <AltitudeMeters>1187.5999755859375</AltitudeMeters>
            <DistanceMeters>NAN</DistanceMeters>
          </Trackpoint>
          <Trackpoint>
            <Time>2021-08-03T10:37:05.000Z</Time>
            <Position>
              <LatitudeDegrees>-15.41761376895010471343994140625</LatitudeDegrees>
              <LongitudeDegrees>37.0700039528310298919677734375</LongitudeDegrees>
            </Position>
            <AltitudeMeters>1187.5999755859375</AltitudeMeters>
            <DistanceMeters>NAN</DistanceMeters>
          </Trackpoint>
          <Trackpoint>
            <Time>2021-08-03T10:37:11.000Z</Time>
            <Position>
              <LatitudeDegrees>-15.417609326541423797607421875</LatitudeDegrees>
              <LongitudeDegrees>37.0700039528310298919677734375</LongitudeDegrees>
            </Position>
            <AltitudeMeters>1188</AltitudeMeters>
            <DistanceMeters>NAN</DistanceMeters>
          </Trackpoint>
          <Trackpoint>
            <Time>2021-08-03T10:37:24.000Z</Time>
            <Position>
              <LatitudeDegrees>-15.4176061414182186126708984375</LatitudeDegrees>
              <LongitudeDegrees>37.0700143463909626007080078125</LongitudeDegrees>
            </Position>
            <AltitudeMeters>1187.5999755859375</AltitudeMeters>
            <DistanceMeters>NAN</DistanceMeters>
          </Trackpoint>
          <Trackpoint>
            <Time>2021-08-03T10:37:29.000Z</Time>
            <Position>
              <LatitudeDegrees>-15.4176054708659648895263671875</LatitudeDegrees>
              <LongitudeDegrees>37.07001443020999431610107421875</LongitudeDegrees>
            </Position>
            <AltitudeMeters>1187.800048828125</AltitudeMeters>
            <DistanceMeters>NAN</DistanceMeters>
          </Trackpoint>
          <Trackpoint>
            <Time>2021-08-03T10:37:36.000Z</Time>
            <Position>
              <LatitudeDegrees>-15.41760387830436229705810546875</LatitudeDegrees>
              <LongitudeDegrees>37.07001216709613800048828125</LongitudeDegrees>
            </Position>
            <AltitudeMeters>1187.800048828125</AltitudeMeters>
            <DistanceMeters>NAN</DistanceMeters>
          </Trackpoint>
          <Trackpoint>
            <Time>2021-08-03T10:38:00.000Z</Time>
            <Position>
              <LatitudeDegrees>-15.41760069318115711212158203125</LatitudeDegrees>
              <LongitudeDegrees>37.069995068013668060302734375</LongitudeDegrees>
            </Position>
            <AltitudeMeters>1187.800048828125</AltitudeMeters>
            <DistanceMeters>NAN</DistanceMeters>
          </Trackpoint>
          <Trackpoint>
            <Time>2021-08-03T10:38:05.000Z</Time>
            <Position>
              <LatitudeDegrees>-15.41760086081922054290771484375</LatitudeDegrees>
              <LongitudeDegrees>37.0699915476143360137939453125</LongitudeDegrees>
            </Position>
            <AltitudeMeters>1187.800048828125</AltitudeMeters>
            <DistanceMeters>NAN</DistanceMeters>
          </Trackpoint>
          <Trackpoint>
            <Time>2021-08-03T10:38:32.000Z</Time>
            <Position>
              <LatitudeDegrees>-15.41760371066629886627197265625</LatitudeDegrees>
              <LongitudeDegrees>37.06997419707477092742919921875</LongitudeDegrees>
            </Position>
            <AltitudeMeters>1187.800048828125</AltitudeMeters>
            <DistanceMeters>NAN</DistanceMeters>
          </Trackpoint>
          <Trackpoint>
            <Time>2021-08-03T10:38:36.000Z</Time>
            <Position>
              <LatitudeDegrees>-15.41760605759918689727783203125</LatitudeDegrees>
              <LongitudeDegrees>37.06996346823871135711669921875</LongitudeDegrees>
            </Position>
            <AltitudeMeters>1187.800048828125</AltitudeMeters>
            <DistanceMeters>NAN</DistanceMeters>
          </Trackpoint>
          <Trackpoint>
            <Time>2021-08-03T10:38:42.000Z</Time>
            <Position>
              <LatitudeDegrees>-15.41760857217013835906982421875</LatitudeDegrees>
              <LongitudeDegrees>37.069957517087459564208984375</LongitudeDegrees>
            </Position>
            <AltitudeMeters>1187.800048828125</AltitudeMeters>
            <DistanceMeters>NAN</DistanceMeters>
          </Trackpoint>
          <Trackpoint>
            <Time>2021-08-03T10:38:49.000Z</Time>
            <Position>
              <LatitudeDegrees>-15.4176165349781513214111328125</LatitudeDegrees>
              <LongitudeDegrees>37.069952823221683502197265625</LongitudeDegrees>
            </Position>
            <AltitudeMeters>1187.800048828125</AltitudeMeters>
            <DistanceMeters>NAN</DistanceMeters>
          </Trackpoint>
          <Trackpoint>
            <Time>2021-08-03T10:39:44.000Z</Time>
            <Position>
              <LatitudeDegrees>-15.41756465099751949310302734375</LatitudeDegrees>
              <LongitudeDegrees>37.06995584070682525634765625</LongitudeDegrees>
            </Position>
            <AltitudeMeters>1187.800048828125</AltitudeMeters>
            <DistanceMeters>NAN</DistanceMeters>
          </Trackpoint>
          <Trackpoint>
            <Time>2021-08-03T10:39:50.000Z</Time>
            <Position>
              <LatitudeDegrees>-15.4175672493875026702880859375</LatitudeDegrees>
              <LongitudeDegrees>37.06995558924973011016845703125</LongitudeDegrees>
            </Position>
            <AltitudeMeters>1187.800048828125</AltitudeMeters>
            <DistanceMeters>NAN</DistanceMeters>
          </Trackpoint>
          <Trackpoint>
            <Time>2021-08-03T10:40:30.000Z</Time>
            <Position>
              <LatitudeDegrees>-15.4175726138055324554443359375</LatitudeDegrees>
              <LongitudeDegrees>37.06995374523103237152099609375</LongitudeDegrees>
            </Position>
            <AltitudeMeters>1187.800048828125</AltitudeMeters>
            <DistanceMeters>NAN</DistanceMeters>
          </Trackpoint>
          <Trackpoint>
            <Time>2021-08-03T10:40:40.000Z</Time>
            <Position>
              <LatitudeDegrees>-15.41757336817681789398193359375</LatitudeDegrees>
              <LongitudeDegrees>37.06995340995490550994873046875</LongitudeDegrees>
            </Position>
            <AltitudeMeters>1187.800048828125</AltitudeMeters>
            <DistanceMeters>NAN</DistanceMeters>
          </Trackpoint>
          <Trackpoint>
            <Time>2021-08-03T10:40:50.000Z</Time>
            <Position>
              <LatitudeDegrees>-15.4175739549100399017333984375</LatitudeDegrees>
              <LongitudeDegrees>37.06995340995490550994873046875</LongitudeDegrees>
            </Position>
            <AltitudeMeters>1187.800048828125</AltitudeMeters>
            <DistanceMeters>NAN</DistanceMeters>
          </Trackpoint>
          <Trackpoint>
            <Time>2021-08-03T10:40:55.000Z</Time>
            <Position>
              <LatitudeDegrees>-15.41757420636713504791259765625</LatitudeDegrees>
              <LongitudeDegrees>37.069953493773937225341796875</LongitudeDegrees>
            </Position>
            <AltitudeMeters>1187.800048828125</AltitudeMeters>
            <DistanceMeters>NAN</DistanceMeters>
          </Trackpoint>
          <Trackpoint>
            <Time>2021-08-03T10:41:07.000Z</Time>
            <Position>
              <LatitudeDegrees>-15.4175747931003570556640625</LatitudeDegrees>
              <LongitudeDegrees>37.06995391286909580230712890625</LongitudeDegrees>
            </Position>
            <AltitudeMeters>1187.800048828125</AltitudeMeters>
            <DistanceMeters>NAN</DistanceMeters>
          </Trackpoint>
          <Trackpoint>
            <Time>2021-08-03T10:41:43.000Z</Time>
            <Position>
              <LatitudeDegrees>-15.41757688857614994049072265625</LatitudeDegrees>
              <LongitudeDegrees>37.069955505430698394775390625</LongitudeDegrees>
            </Position>
            <AltitudeMeters>1187.800048828125</AltitudeMeters>
            <DistanceMeters>NAN</DistanceMeters>
          </Trackpoint>
          <Trackpoint>
            <Time>2021-08-03T10:42:06.000Z</Time>
            <Position>
              <LatitudeDegrees>-15.4175779782235622406005859375</LatitudeDegrees>
              <LongitudeDegrees>37.069956846535205841064453125</LongitudeDegrees>
            </Position>
            <AltitudeMeters>1187.800048828125</AltitudeMeters>
            <DistanceMeters>NAN</DistanceMeters>
          </Trackpoint>
          <Trackpoint>
            <Time>2021-08-03T10:42:10.000Z</Time>
            <Position>
              <LatitudeDegrees>-15.41757814586162567138671875</LatitudeDegrees>
              <LongitudeDegrees>37.06995709799230098724365234375</LongitudeDegrees>
            </Position>
            <AltitudeMeters>1187.800048828125</AltitudeMeters>
            <DistanceMeters>NAN</DistanceMeters>
          </Trackpoint>
          <Trackpoint>
            <Time>2021-08-03T10:42:16.000Z</Time>
            <Position>
              <LatitudeDegrees>-15.417578481137752532958984375</LatitudeDegrees>
              <LongitudeDegrees>37.06995743326842784881591796875</LongitudeDegrees>
            </Position>
            <AltitudeMeters>1187.800048828125</AltitudeMeters>
            <DistanceMeters>NAN</DistanceMeters>
          </Trackpoint>
          <Trackpoint>
            <Time>2021-08-03T10:43:17.000Z</Time>
            <Position>
              <LatitudeDegrees>-15.4175789840519428253173828125</LatitudeDegrees>
              <LongitudeDegrees>37.06996145658195018768310546875</LongitudeDegrees>
            </Position>
            <AltitudeMeters>1187.800048828125</AltitudeMeters>
            <DistanceMeters>NAN</DistanceMeters>
          </Trackpoint>
          <Trackpoint>
            <Time>2021-08-03T10:43:20.000Z</Time>
            <Position>
              <LatitudeDegrees>-15.41757906787097454071044921875</LatitudeDegrees>
              <LongitudeDegrees>37.069961540400981903076171875</LongitudeDegrees>
            </Position>
            <AltitudeMeters>1187.800048828125</AltitudeMeters>
            <DistanceMeters>NAN</DistanceMeters>
          </Trackpoint>
          <Trackpoint>
            <Time>2021-08-03T10:43:22.000Z</Time>
            <Position>
              <LatitudeDegrees>-15.41757906787097454071044921875</LatitudeDegrees>
              <LongitudeDegrees>37.06996162422001361846923828125</LongitudeDegrees>
            </Position>
            <AltitudeMeters>1187.800048828125</AltitudeMeters>
            <DistanceMeters>NAN</DistanceMeters>
          </Trackpoint>
          <Trackpoint>
            <Time>2021-08-03T10:43:37.000Z</Time>
            <Position>
              <LatitudeDegrees>-15.41757948696613311767578125</LatitudeDegrees>
              <LongitudeDegrees>37.06996212713420391082763671875</LongitudeDegrees>
            </Position>
            <AltitudeMeters>1187.800048828125</AltitudeMeters>
            <DistanceMeters>NAN</DistanceMeters>
          </Trackpoint>
          <Trackpoint>
            <Time>2021-08-03T10:43:48.000Z</Time>
            <Position>
              <LatitudeDegrees>-15.417579822242259979248046875</LatitudeDegrees>
              <LongitudeDegrees>37.0699623785912990570068359375</LongitudeDegrees>
            </Position>
            <AltitudeMeters>1187.800048828125</AltitudeMeters>
            <DistanceMeters>NAN</DistanceMeters>
          </Trackpoint>
          <Trackpoint>
            <Time>2021-08-03T10:44:06.000Z</Time>
            <Position>
              <LatitudeDegrees>-15.41758074425160884857177734375</LatitudeDegrees>
              <LongitudeDegrees>37.06996263004839420318603515625</LongitudeDegrees>
            </Position>
            <AltitudeMeters>1187.800048828125</AltitudeMeters>
            <DistanceMeters>NAN</DistanceMeters>
          </Trackpoint>
          <Trackpoint>
            <Time>2021-08-03T10:44:10.000Z</Time>
            <Position>
              <LatitudeDegrees>-15.4175809957087039947509765625</LatitudeDegrees>
              <LongitudeDegrees>37.0699627138674259185791015625</LongitudeDegrees>
            </Position>
            <AltitudeMeters>1187.800048828125</AltitudeMeters>
            <DistanceMeters>NAN</DistanceMeters>
          </Trackpoint>
          <Trackpoint>
            <Time>2021-08-03T10:44:19.000Z</Time>
            <Position>
              <LatitudeDegrees>-15.41758141480386257171630859375</LatitudeDegrees>
              <LongitudeDegrees>37.06996279768645763397216796875</LongitudeDegrees>
            </Position>
            <AltitudeMeters>1187.800048828125</AltitudeMeters>
            <DistanceMeters>NAN</DistanceMeters>
          </Trackpoint>
          <Trackpoint>
            <Time>2021-08-03T10:44:24.000Z</Time>
            <Position>
              <LatitudeDegrees>-15.4175816662609577178955078125</LatitudeDegrees>
              <LongitudeDegrees>37.06996279768645763397216796875</LongitudeDegrees>
            </Position>
            <AltitudeMeters>1187.800048828125</AltitudeMeters>
            <DistanceMeters>NAN</DistanceMeters>
          </Trackpoint>
          <Trackpoint>
            <Time>2021-08-03T10:44:41.000Z</Time>
            <Position>
              <LatitudeDegrees>-15.4175823368132114410400390625</LatitudeDegrees>
              <LongitudeDegrees>37.06996279768645763397216796875</LongitudeDegrees>
            </Position>
            <AltitudeMeters>1187.800048828125</AltitudeMeters>
            <DistanceMeters>NAN</DistanceMeters>
          </Trackpoint>
          <Trackpoint>
            <Time>2021-08-03T10:44:42.000Z</Time>
            <Position>
              <LatitudeDegrees>-15.4175823368132114410400390625</LatitudeDegrees>
              <LongitudeDegrees>37.06996279768645763397216796875</LongitudeDegrees>
            </Position>
            <AltitudeMeters>1187.800048828125</AltitudeMeters>
            <DistanceMeters>NAN</DistanceMeters>
          </Trackpoint>
          <Trackpoint>
            <Time>2021-08-03T10:44:50.000Z</Time>
            <Position>
              <LatitudeDegrees>-15.417582504451274871826171875</LatitudeDegrees>
              <LongitudeDegrees>37.069962881505489349365234375</LongitudeDegrees>
            </Position>
            <AltitudeMeters>1187.800048828125</AltitudeMeters>
            <DistanceMeters>NAN</DistanceMeters>
          </Trackpoint>
          <Trackpoint>
            <Time>2021-08-03T10:45:16.000Z</Time>
            <Position>
              <LatitudeDegrees>-15.4175833426415920257568359375</LatitudeDegrees>
              <LongitudeDegrees>37.0699632167816162109375</LongitudeDegrees>
            </Position>
            <AltitudeMeters>1187.800048828125</AltitudeMeters>
            <DistanceMeters>NAN</DistanceMeters>
          </Trackpoint>
          <Trackpoint>
            <Time>2021-08-03T10:45:30.000Z</Time>
            <Position>
              <LatitudeDegrees>-15.41758359409868717193603515625</LatitudeDegrees>
              <LongitudeDegrees>37.0699630491435527801513671875</LongitudeDegrees>
            </Position>
            <AltitudeMeters>1187.800048828125</AltitudeMeters>
            <DistanceMeters>NAN</DistanceMeters>
          </Trackpoint>
          <Trackpoint>
            <Time>2021-08-03T10:45:55.000Z</Time>
            <Position>
              <LatitudeDegrees>-15.4175841808319091796875</LatitudeDegrees>
              <LongitudeDegrees>37.06996263004839420318603515625</LongitudeDegrees>
            </Position>
            <AltitudeMeters>1187.800048828125</AltitudeMeters>
            <DistanceMeters>NAN</DistanceMeters>
          </Trackpoint>
          <Trackpoint>
            <Time>2021-08-03T10:46:00.000Z</Time>
            <Position>
              <LatitudeDegrees>-15.41758426465094089508056640625</LatitudeDegrees>
              <LongitudeDegrees>37.06996263004839420318603515625</LongitudeDegrees>
            </Position>
            <AltitudeMeters>1187.800048828125</AltitudeMeters>
            <DistanceMeters>NAN</DistanceMeters>
          </Trackpoint>
          <Trackpoint>
            <Time>2021-08-03T10:46:16.000Z</Time>
            <Position>
              <LatitudeDegrees>-15.41758459992706775665283203125</LatitudeDegrees>
              <LongitudeDegrees>37.06996263004839420318603515625</LongitudeDegrees>
            </Position>
            <AltitudeMeters>1187.800048828125</AltitudeMeters>
            <DistanceMeters>NAN</DistanceMeters>
          </Trackpoint>
          <Trackpoint>
            <Time>2021-08-03T10:46:22.000Z</Time>
            <Position>
              <LatitudeDegrees>-15.41758476756513118743896484375</LatitudeDegrees>
              <LongitudeDegrees>37.06996263004839420318603515625</LongitudeDegrees>
            </Position>
            <AltitudeMeters>1187.800048828125</AltitudeMeters>
            <DistanceMeters>NAN</DistanceMeters>
          </Trackpoint>
          <Trackpoint>
            <Time>2021-08-03T10:46:28.000Z</Time>
            <Position>
              <LatitudeDegrees>-15.41758485138416290283203125</LatitudeDegrees>
              <LongitudeDegrees>37.0699627138674259185791015625</LongitudeDegrees>
            </Position>
            <AltitudeMeters>1187.800048828125</AltitudeMeters>
            <DistanceMeters>NAN</DistanceMeters>
          </Trackpoint>
          <Trackpoint>
            <Time>2021-08-03T10:46:49.000Z</Time>
            <Position>
              <LatitudeDegrees>-15.417585857212543487548828125</LatitudeDegrees>
              <LongitudeDegrees>37.06996279768645763397216796875</LongitudeDegrees>
            </Position>
            <AltitudeMeters>1187.800048828125</AltitudeMeters>
            <DistanceMeters>NAN</DistanceMeters>
          </Trackpoint>
          <Trackpoint>
            <Time>2021-08-03T10:46:54.000Z</Time>
            <Position>
              <LatitudeDegrees>-15.41758610866963863372802734375</LatitudeDegrees>
              <LongitudeDegrees>37.069962881505489349365234375</LongitudeDegrees>
            </Position>
            <AltitudeMeters>1187.800048828125</AltitudeMeters>
            <DistanceMeters>NAN</DistanceMeters>
          </Trackpoint>
          <Trackpoint>
            <Time>2021-08-03T10:46:58.000Z</Time>
            <Position>
              <LatitudeDegrees>-15.41758627630770206451416015625</LatitudeDegrees>
              <LongitudeDegrees>37.06996296532452106475830078125</LongitudeDegrees>
            </Position>
            <AltitudeMeters>1187.800048828125</AltitudeMeters>
            <DistanceMeters>NAN</DistanceMeters>
          </Trackpoint>
          <Trackpoint>
            <Time>2021-08-03T10:47:08.000Z</Time>
            <Position>
              <LatitudeDegrees>-15.4175866954028606414794921875</LatitudeDegrees>
              <LongitudeDegrees>37.0699632167816162109375</LongitudeDegrees>
            </Position>
            <AltitudeMeters>1187.800048828125</AltitudeMeters>
            <DistanceMeters>NAN</DistanceMeters>
          </Trackpoint>
          <Trackpoint>
            <Time>2021-08-03T10:47:15.000Z</Time>
            <Position>
              <LatitudeDegrees>-15.4175870306789875030517578125</LatitudeDegrees>
              <LongitudeDegrees>37.0699633844196796417236328125</LongitudeDegrees>
            </Position>
            <AltitudeMeters>1187.800048828125</AltitudeMeters>
            <DistanceMeters>NAN</DistanceMeters>
          </Trackpoint>
          <Trackpoint>
            <Time>2021-08-03T10:47:48.000Z</Time>
            <Position>
              <LatitudeDegrees>-15.41758828796446323394775390625</LatitudeDegrees>
              <LongitudeDegrees>37.069963552057743072509765625</LongitudeDegrees>
            </Position>
            <AltitudeMeters>1187.800048828125</AltitudeMeters>
            <DistanceMeters>NAN</DistanceMeters>
          </Trackpoint>
          <Trackpoint>
            <Time>2021-08-03T10:47:52.000Z</Time>
            <Position>
              <LatitudeDegrees>-15.4175883717834949493408203125</LatitudeDegrees>
              <LongitudeDegrees>37.069963552057743072509765625</LongitudeDegrees>
            </Position>
            <AltitudeMeters>1187.800048828125</AltitudeMeters>
            <DistanceMeters>NAN</DistanceMeters>
          </Trackpoint>
          <Trackpoint>
            <Time>2021-08-03T10:48:00.000Z</Time>
            <Position>
              <LatitudeDegrees>-15.417588539421558380126953125</LatitudeDegrees>
              <LongitudeDegrees>37.069963552057743072509765625</LongitudeDegrees>
            </Position>
            <AltitudeMeters>1187.800048828125</AltitudeMeters>
            <DistanceMeters>NAN</DistanceMeters>
          </Trackpoint>
          <Trackpoint>
            <Time>2021-08-03T10:48:11.000Z</Time>
            <Position>
              <LatitudeDegrees>-15.41758887469768524169921875</LatitudeDegrees>
              <LongitudeDegrees>37.069963552057743072509765625</LongitudeDegrees>
            </Position>
            <AltitudeMeters>1187.800048828125</AltitudeMeters>
            <DistanceMeters>NAN</DistanceMeters>
          </Trackpoint>
          <Trackpoint>
            <Time>2021-08-03T10:48:16.000Z</Time>
            <Position>
              <LatitudeDegrees>-15.4175890423357486724853515625</LatitudeDegrees>
              <LongitudeDegrees>37.069963552057743072509765625</LongitudeDegrees>
            </Position>
            <AltitudeMeters>1187.800048828125</AltitudeMeters>
            <DistanceMeters>NAN</DistanceMeters>
          </Trackpoint>
          <Trackpoint>
            <Time>2021-08-03T10:48:19.000Z</Time>
            <Position>
              <LatitudeDegrees>-15.417589209973812103271484375</LatitudeDegrees>
              <LongitudeDegrees>37.06996363587677478790283203125</LongitudeDegrees>
            </Position>
            <AltitudeMeters>1187.800048828125</AltitudeMeters>
            <DistanceMeters>NAN</DistanceMeters>
          </Trackpoint>
          <Trackpoint>
            <Time>2021-08-03T10:48:25.000Z</Time>
            <Position>
              <LatitudeDegrees>-15.4175893776118755340576171875</LatitudeDegrees>
              <LongitudeDegrees>37.0699637196958065032958984375</LongitudeDegrees>
            </Position>
            <AltitudeMeters>1187.800048828125</AltitudeMeters>
            <DistanceMeters>NAN</DistanceMeters>
          </Trackpoint>
          <Trackpoint>
            <Time>2021-08-03T10:48:27.000Z</Time>
            <Position>
              <LatitudeDegrees>-15.41758946143090724945068359375</LatitudeDegrees>
              <LongitudeDegrees>37.0699637196958065032958984375</LongitudeDegrees>
            </Position>
            <AltitudeMeters>1187.800048828125</AltitudeMeters>
            <DistanceMeters>NAN</DistanceMeters>
          </Trackpoint>
          <Trackpoint>
            <Time>2021-08-03T10:48:37.000Z</Time>
            <Position>
              <LatitudeDegrees>-15.417589880526065826416015625</LatitudeDegrees>
              <LongitudeDegrees>37.06996388733386993408203125</LongitudeDegrees>
            </Position>
            <AltitudeMeters>1187.800048828125</AltitudeMeters>
            <DistanceMeters>NAN</DistanceMeters>
          </Trackpoint>
          <Trackpoint>
            <Time>2021-08-03T10:48:47.000Z</Time>
            <Position>
              <LatitudeDegrees>-15.41759021580219268798828125</LatitudeDegrees>
              <LongitudeDegrees>37.06996397115290164947509765625</LongitudeDegrees>
            </Position>
            <AltitudeMeters>1187.800048828125</AltitudeMeters>
            <DistanceMeters>NAN</DistanceMeters>
          </Trackpoint>
          <Trackpoint>
            <Time>2021-08-03T10:49:01.000Z</Time>
            <Position>
              <LatitudeDegrees>-15.41759063489735126495361328125</LatitudeDegrees>
              <LongitudeDegrees>37.06996380351483821868896484375</LongitudeDegrees>
            </Position>
            <AltitudeMeters>1187.800048828125</AltitudeMeters>
            <DistanceMeters>NAN</DistanceMeters>
          </Trackpoint>
          <Trackpoint>
            <Time>2021-08-03T10:49:02.000Z</Time>
            <Position>
              <LatitudeDegrees>-15.41759063489735126495361328125</LatitudeDegrees>
              <LongitudeDegrees>37.06996380351483821868896484375</LongitudeDegrees>
            </Position>
            <AltitudeMeters>1187.800048828125</AltitudeMeters>
            <DistanceMeters>NAN</DistanceMeters>
          </Trackpoint>
          <Trackpoint>
            <Time>2021-08-03T10:49:40.000Z</Time>
            <Position>
              <LatitudeDegrees>-15.4175923950970172882080078125</LatitudeDegrees>
              <LongitudeDegrees>37.06996330060064792633056640625</LongitudeDegrees>
            </Position>
            <AltitudeMeters>1187.800048828125</AltitudeMeters>
            <DistanceMeters>NAN</DistanceMeters>
          </Trackpoint>
          <Trackpoint>
            <Time>2021-08-03T10:49:50.000Z</Time>
            <Position>
              <LatitudeDegrees>-15.41759289801120758056640625</LatitudeDegrees>
              <LongitudeDegrees>37.0699633844196796417236328125</LongitudeDegrees>
            </Position>
            <AltitudeMeters>1187.800048828125</AltitudeMeters>
            <DistanceMeters>NAN</DistanceMeters>
          </Trackpoint>
          <Trackpoint>
            <Time>2021-08-03T10:49:53.000Z</Time>
            <Position>
              <LatitudeDegrees>-15.41759298183023929595947265625</LatitudeDegrees>
              <LongitudeDegrees>37.06996346823871135711669921875</LongitudeDegrees>
            </Position>
            <AltitudeMeters>1187.800048828125</AltitudeMeters>
            <DistanceMeters>NAN</DistanceMeters>
          </Trackpoint>
          <Trackpoint>
            <Time>2021-08-03T10:49:55.000Z</Time>
            <Position>
              <LatitudeDegrees>-15.41759314946830272674560546875</LatitudeDegrees>
              <LongitudeDegrees>37.06996346823871135711669921875</LongitudeDegrees>
            </Position>
            <AltitudeMeters>1187.800048828125</AltitudeMeters>
            <DistanceMeters>NAN</DistanceMeters>
          </Trackpoint>
          <Trackpoint>
            <Time>2021-08-03T10:50:04.000Z</Time>
            <Position>
              <LatitudeDegrees>-15.41759365238249301910400390625</LatitudeDegrees>
              <LongitudeDegrees>37.06996388733386993408203125</LongitudeDegrees>
            </Position>
            <AltitudeMeters>1187.800048828125</AltitudeMeters>
            <DistanceMeters>NAN</DistanceMeters>
          </Trackpoint>
          <Trackpoint>
            <Time>2021-08-03T10:50:08.000Z</Time>
            <Position>
              <LatitudeDegrees>-15.417593903839588165283203125</LatitudeDegrees>
              <LongitudeDegrees>37.0699640549719333648681640625</LongitudeDegrees>
            </Position>
            <AltitudeMeters>1187.800048828125</AltitudeMeters>
            <DistanceMeters>NAN</DistanceMeters>
          </Trackpoint>
          <Trackpoint>
            <Time>2021-08-03T10:50:26.000Z</Time>
            <Position>
              <LatitudeDegrees>-15.41759482584893703460693359375</LatitudeDegrees>
              <LongitudeDegrees>37.069964893162250518798828125</LongitudeDegrees>
            </Position>
            <AltitudeMeters>1187.800048828125</AltitudeMeters>
            <DistanceMeters>NAN</DistanceMeters>
          </Trackpoint>
          <Trackpoint>
            <Time>2021-08-03T10:50:29.000Z</Time>
            <Position>
              <LatitudeDegrees>-15.41759490966796875</LatitudeDegrees>
              <LongitudeDegrees>37.0699650608003139495849609375</LongitudeDegrees>
            </Position>
            <AltitudeMeters>1187.800048828125</AltitudeMeters>
            <DistanceMeters>NAN</DistanceMeters>
          </Trackpoint>
          <Trackpoint>
            <Time>2021-08-03T10:50:39.000Z</Time>
            <Position>
              <LatitudeDegrees>-15.417595244944095611572265625</LatitudeDegrees>
              <LongitudeDegrees>37.0699653960764408111572265625</LongitudeDegrees>
            </Position>
            <AltitudeMeters>1187.800048828125</AltitudeMeters>
            <DistanceMeters>NAN</DistanceMeters>
          </Trackpoint>
          <Trackpoint>
            <Time>2021-08-03T10:50:47.000Z</Time>
            <Position>
              <LatitudeDegrees>-15.41759558022022247314453125</LatitudeDegrees>
              <LongitudeDegrees>37.069965563714504241943359375</LongitudeDegrees>
            </Position>
            <AltitudeMeters>1187.800048828125</AltitudeMeters>
            <DistanceMeters>NAN</DistanceMeters>
          </Trackpoint>
          <Trackpoint>
            <Time>2021-08-03T10:50:48.000Z</Time>
            <Position>
              <LatitudeDegrees>-15.41759558022022247314453125</LatitudeDegrees>
              <LongitudeDegrees>37.069965563714504241943359375</LongitudeDegrees>
            </Position>
            <AltitudeMeters>1187.800048828125</AltitudeMeters>
            <DistanceMeters>NAN</DistanceMeters>
          </Trackpoint>
          <Trackpoint>
            <Time>2021-08-03T10:50:51.000Z</Time>
            <Position>
              <LatitudeDegrees>-15.4175957478582859039306640625</LatitudeDegrees>
              <LongitudeDegrees>37.06996564753353595733642578125</LongitudeDegrees>
            </Position>
            <AltitudeMeters>1187.800048828125</AltitudeMeters>
            <DistanceMeters>NAN</DistanceMeters>
          </Trackpoint>
          <Trackpoint>
            <Time>2021-08-03T10:51:06.000Z</Time>
            <Position>
              <LatitudeDegrees>-15.417596586048603057861328125</LatitudeDegrees>
              <LongitudeDegrees>37.0699660666286945343017578125</LongitudeDegrees>
            </Position>
            <AltitudeMeters>1187.800048828125</AltitudeMeters>
            <DistanceMeters>NAN</DistanceMeters>
          </Trackpoint>
          <Trackpoint>
            <Time>2021-08-03T10:51:11.000Z</Time>
            <Position>
              <LatitudeDegrees>-15.41759683750569820404052734375</LatitudeDegrees>
              <LongitudeDegrees>37.069966234266757965087890625</LongitudeDegrees>
            </Position>
            <AltitudeMeters>1187.800048828125</AltitudeMeters>
            <DistanceMeters>NAN</DistanceMeters>
          </Trackpoint>
          <Trackpoint>
            <Time>2021-08-03T10:51:17.000Z</Time>
            <Position>
              <LatitudeDegrees>-15.4175970889627933502197265625</LatitudeDegrees>
              <LongitudeDegrees>37.06996631808578968048095703125</LongitudeDegrees>
            </Position>
            <AltitudeMeters>1187.800048828125</AltitudeMeters>
            <DistanceMeters>NAN</DistanceMeters>
          </Trackpoint>
          <Trackpoint>
            <Time>2021-08-03T10:51:23.000Z</Time>
            <Position>
              <LatitudeDegrees>-15.417597256600856781005859375</LatitudeDegrees>
              <LongitudeDegrees>37.06996648572385311126708984375</LongitudeDegrees>
            </Position>
            <AltitudeMeters>1187.800048828125</AltitudeMeters>
            <DistanceMeters>NAN</DistanceMeters>
          </Trackpoint>
          <Trackpoint>
            <Time>2021-08-03T10:51:49.000Z</Time>
            <Position>
              <LatitudeDegrees>-15.41759784333407878875732421875</LatitudeDegrees>
              <LongitudeDegrees>37.069966904819011688232421875</LongitudeDegrees>
            </Position>
            <AltitudeMeters>1187.800048828125</AltitudeMeters>
            <DistanceMeters>NAN</DistanceMeters>
          </Trackpoint>
          <Trackpoint>
            <Time>2021-08-03T10:51:51.000Z</Time>
            <Position>
              <LatitudeDegrees>-15.41760538704693317413330078125</LatitudeDegrees>
              <LongitudeDegrees>37.06996648572385311126708984375</LongitudeDegrees>
            </Position>
            <AltitudeMeters>1187.800048828125</AltitudeMeters>
            <DistanceMeters>NAN</DistanceMeters>
          </Trackpoint>
          <Trackpoint>
            <Time>2021-08-03T10:51:54.000Z</Time>
            <Position>
              <LatitudeDegrees>-15.41766489855945110321044921875</LatitudeDegrees>
              <LongitudeDegrees>37.06995391286909580230712890625</LongitudeDegrees>
            </Position>
            <AltitudeMeters>1187.800048828125</AltitudeMeters>
            <DistanceMeters>NAN</DistanceMeters>
          </Trackpoint>
          <Trackpoint>
            <Time>2021-08-03T10:52:00.000Z</Time>
            <Position>
              <LatitudeDegrees>-15.4177600331604480743408203125</LatitudeDegrees>
              <LongitudeDegrees>37.06992566585540771484375</LongitudeDegrees>
            </Position>
            <AltitudeMeters>1188.199951171875</AltitudeMeters>
            <DistanceMeters>NAN</DistanceMeters>
          </Trackpoint>
          <Trackpoint>
            <Time>2021-08-03T10:52:03.000Z</Time>
            <Position>
              <LatitudeDegrees>-15.41778375394642353057861328125</LatitudeDegrees>
              <LongitudeDegrees>37.06991200335323810577392578125</LongitudeDegrees>
            </Position>
            <AltitudeMeters>1188.199951171875</AltitudeMeters>
            <DistanceMeters>NAN</DistanceMeters>
          </Trackpoint>
          <Trackpoint>
            <Time>2021-08-03T10:52:04.000Z</Time>
            <Position>
              <LatitudeDegrees>-15.41779381223022937774658203125</LatitudeDegrees>
              <LongitudeDegrees>37.06990412436425685882568359375</LongitudeDegrees>
            </Position>
            <AltitudeMeters>1188.199951171875</AltitudeMeters>
            <DistanceMeters>NAN</DistanceMeters>
          </Trackpoint>
          <Trackpoint>
            <Time>2021-08-03T10:52:11.000Z</Time>
            <Position>
              <LatitudeDegrees>-15.417878888547420501708984375</LatitudeDegrees>
              <LongitudeDegrees>37.06988970749080181121826171875</LongitudeDegrees>
            </Position>
            <AltitudeMeters>1188.199951171875</AltitudeMeters>
            <DistanceMeters>NAN</DistanceMeters>
          </Trackpoint>
          <Trackpoint>
            <Time>2021-08-03T10:52:19.000Z</Time>
            <Position>
              <LatitudeDegrees>-15.4179896973073482513427734375</LatitudeDegrees>
              <LongitudeDegrees>37.06988082267343997955322265625</LongitudeDegrees>
            </Position>
            <AltitudeMeters>1188.4000244140625</AltitudeMeters>
            <DistanceMeters>NAN</DistanceMeters>
          </Trackpoint>
          <Trackpoint>
            <Time>2021-08-03T10:52:30.000Z</Time>
            <Position>
              <LatitudeDegrees>-15.41813529096543788909912109375</LatitudeDegrees>
              <LongitudeDegrees>37.069855593144893646240234375</LongitudeDegrees>
            </Position>
            <AltitudeMeters>1188.4000244140625</AltitudeMeters>
            <DistanceMeters>NAN</DistanceMeters>
          </Trackpoint>
          <Trackpoint>
            <Time>2021-08-03T10:52:31.000Z</Time>
            <Position>
              <LatitudeDegrees>-15.418144762516021728515625</LatitudeDegrees>
              <LongitudeDegrees>37.06985014490783214569091796875</LongitudeDegrees>
            </Position>
            <AltitudeMeters>1188.5999755859375</AltitudeMeters>
            <DistanceMeters>NAN</DistanceMeters>
          </Trackpoint>
          <Trackpoint>
            <Time>2021-08-03T10:52:36.000Z</Time>
            <Position>
              <LatitudeDegrees>-15.41820050217211246490478515625</LatitudeDegrees>
              <LongitudeDegrees>37.0698195509612560272216796875</LongitudeDegrees>
            </Position>
            <AltitudeMeters>1189</AltitudeMeters>
            <DistanceMeters>NAN</DistanceMeters>
          </Trackpoint>
          <Trackpoint>
            <Time>2021-08-03T10:52:37.000Z</Time>
            <Position>
              <LatitudeDegrees>-15.418210141360759735107421875</LatitudeDegrees>
              <LongitudeDegrees>37.0698101632297039031982421875</LongitudeDegrees>
            </Position>
            <AltitudeMeters>1189</AltitudeMeters>
            <DistanceMeters>NAN</DistanceMeters>
          </Trackpoint>
          <Trackpoint>
            <Time>2021-08-03T10:52:38.000Z</Time>
            <Position>
              <LatitudeDegrees>-15.41822145693004131317138671875</LatitudeDegrees>
              <LongitudeDegrees>37.0698024518787860870361328125</LongitudeDegrees>
            </Position>
            <AltitudeMeters>1189</AltitudeMeters>
            <DistanceMeters>NAN</DistanceMeters>
          </Trackpoint>
          <Trackpoint>
            <Time>2021-08-03T10:52:39.000Z</Time>
            <Position>
              <LatitudeDegrees>-15.418235957622528076171875</LatitudeDegrees>
              <LongitudeDegrees>37.0697954110801219940185546875</LongitudeDegrees>
            </Position>
            <AltitudeMeters>1189.199951171875</AltitudeMeters>
            <DistanceMeters>NAN</DistanceMeters>
          </Trackpoint>
          <Trackpoint>
            <Time>2021-08-03T10:52:43.000Z</Time>
            <Position>
              <LatitudeDegrees>-15.41828247718513011932373046875</LatitudeDegrees>
              <LongitudeDegrees>37.06976347602903842926025390625</LongitudeDegrees>
            </Position>
            <AltitudeMeters>1189.5999755859375</AltitudeMeters>
            <DistanceMeters>NAN</DistanceMeters>
          </Trackpoint>
          <Trackpoint>
            <Time>2021-08-03T10:52:51.000Z</Time>
            <Position>
              <LatitudeDegrees>-15.41835389100015163421630859375</LatitudeDegrees>
              <LongitudeDegrees>37.06976473331451416015625</LongitudeDegrees>
            </Position>
            <AltitudeMeters>1188.800048828125</AltitudeMeters>
            <DistanceMeters>NAN</DistanceMeters>
          </Trackpoint>
          <Trackpoint>
            <Time>2021-08-03T10:52:53.000Z</Time>
            <Position>
              <LatitudeDegrees>-15.4183812998235225677490234375</LatitudeDegrees>
              <LongitudeDegrees>37.0697739534080028533935546875</LongitudeDegrees>
            </Position>
            <AltitudeMeters>1188.800048828125</AltitudeMeters>
            <DistanceMeters>NAN</DistanceMeters>
          </Trackpoint>
          <Trackpoint>
            <Time>2021-08-03T10:52:58.000Z</Time>
            <Position>
              <LatitudeDegrees>-15.418438799679279327392578125</LatitudeDegrees>
              <LongitudeDegrees>37.06978007219731807708740234375</LongitudeDegrees>
            </Position>
            <AltitudeMeters>1188.800048828125</AltitudeMeters>
            <DistanceMeters>NAN</DistanceMeters>
          </Trackpoint>
          <Trackpoint>
            <Time>2021-08-03T10:53:03.000Z</Time>
            <Position>
              <LatitudeDegrees>-15.41850484907627105712890625</LatitudeDegrees>
              <LongitudeDegrees>37.06976263783872127532958984375</LongitudeDegrees>
            </Position>
            <AltitudeMeters>1188.5999755859375</AltitudeMeters>
            <DistanceMeters>NAN</DistanceMeters>
          </Trackpoint>
          <Trackpoint>
            <Time>2021-08-03T10:53:05.000Z</Time>
            <Position>
              <LatitudeDegrees>-15.41852236725389957427978515625</LatitudeDegrees>
              <LongitudeDegrees>37.06976179964840412139892578125</LongitudeDegrees>
            </Position>
            <AltitudeMeters>1188.4000244140625</AltitudeMeters>
            <DistanceMeters>NAN</DistanceMeters>
          </Trackpoint>
          <Trackpoint>
            <Time>2021-08-03T10:53:06.000Z</Time>
            <Position>
              <LatitudeDegrees>-15.41853460483253002166748046875</LatitudeDegrees>
              <LongitudeDegrees>37.0697598718106746673583984375</LongitudeDegrees>
            </Position>
            <AltitudeMeters>1188.4000244140625</AltitudeMeters>
            <DistanceMeters>NAN</DistanceMeters>
          </Trackpoint>
          <Trackpoint>
            <Time>2021-08-03T10:53:11.000Z</Time>
            <Position>
              <LatitudeDegrees>-15.4185928590595722198486328125</LatitudeDegrees>
              <LongitudeDegrees>37.0697471313178539276123046875</LongitudeDegrees>
            </Position>
            <AltitudeMeters>1188.800048828125</AltitudeMeters>
            <DistanceMeters>NAN</DistanceMeters>
          </Trackpoint>
          <Trackpoint>
            <Time>2021-08-03T10:53:14.000Z</Time>
            <Position>
              <LatitudeDegrees>-15.41862362064421176910400390625</LatitudeDegrees>
              <LongitudeDegrees>37.06972961314022541046142578125</LongitudeDegrees>
            </Position>
            <AltitudeMeters>1189</AltitudeMeters>
            <DistanceMeters>NAN</DistanceMeters>
          </Trackpoint>
          <Trackpoint>
            <Time>2021-08-03T10:53:21.000Z</Time>
            <Position>
              <LatitudeDegrees>-15.41869687847793102264404296875</LatitudeDegrees>
              <LongitudeDegrees>37.0697427727282047271728515625</LongitudeDegrees>
            </Position>
            <AltitudeMeters>1189.5999755859375</AltitudeMeters>
            <DistanceMeters>NAN</DistanceMeters>
          </Trackpoint>
          <Trackpoint>
            <Time>2021-08-03T10:53:24.000Z</Time>
            <Position>
              <LatitudeDegrees>-15.4187388718128204345703125</LatitudeDegrees>
              <LongitudeDegrees>37.069748975336551666259765625</LongitudeDegrees>
            </Position>
            <AltitudeMeters>1190</AltitudeMeters>
            <DistanceMeters>NAN</DistanceMeters>
          </Trackpoint>
          <Trackpoint>
            <Time>2021-08-03T10:53:28.000Z</Time>
            <Position>
              <LatitudeDegrees>-15.4187816195189952850341796875</LatitudeDegrees>
              <LongitudeDegrees>37.069752328097820281982421875</LongitudeDegrees>
            </Position>
            <AltitudeMeters>1190.199951171875</AltitudeMeters>
            <DistanceMeters>NAN</DistanceMeters>
          </Trackpoint>
          <Trackpoint>
            <Time>2021-08-03T10:53:29.000Z</Time>
            <Position>
              <LatitudeDegrees>-15.41879209689795970916748046875</LatitudeDegrees>
              <LongitudeDegrees>37.06975123845040798187255859375</LongitudeDegrees>
            </Position>
            <AltitudeMeters>1190.4000244140625</AltitudeMeters>
            <DistanceMeters>NAN</DistanceMeters>
          </Trackpoint>
          <Trackpoint>
            <Time>2021-08-03T10:53:37.000Z</Time>
            <Position>
              <LatitudeDegrees>-15.41886468417942523956298828125</LatitudeDegrees>
              <LongitudeDegrees>37.0697124302387237548828125</LongitudeDegrees>
            </Position>
            <AltitudeMeters>1190.800048828125</AltitudeMeters>
            <DistanceMeters>NAN</DistanceMeters>
          </Trackpoint>
          <Trackpoint>
            <Time>2021-08-03T10:53:39.000Z</Time>
            <Position>
              <LatitudeDegrees>-15.41888530366122722625732421875</LatitudeDegrees>
              <LongitudeDegrees>37.0697028748691082000732421875</LongitudeDegrees>
            </Position>
            <AltitudeMeters>1191.199951171875</AltitudeMeters>
            <DistanceMeters>NAN</DistanceMeters>
          </Trackpoint>
          <Trackpoint>
            <Time>2021-08-03T10:53:42.000Z</Time>
            <Position>
              <LatitudeDegrees>-15.418912880122661590576171875</LatitudeDegrees>
              <LongitudeDegrees>37.069678567349910736083984375</LongitudeDegrees>
            </Position>
            <AltitudeMeters>1191.4000244140625</AltitudeMeters>
            <DistanceMeters>NAN</DistanceMeters>
          </Trackpoint>
          <Trackpoint>
            <Time>2021-08-03T10:53:44.000Z</Time>
            <Position>
              <LatitudeDegrees>-15.41891883127391338348388671875</LatitudeDegrees>
              <LongitudeDegrees>37.069647051393985748291015625</LongitudeDegrees>
            </Position>
            <AltitudeMeters>1191.4000244140625</AltitudeMeters>
            <DistanceMeters>NAN</DistanceMeters>
          </Trackpoint>
          <Trackpoint>
            <Time>2021-08-03T10:53:46.000Z</Time>
            <Position>
              <LatitudeDegrees>-15.418934337794780731201171875</LatitudeDegrees>
              <LongitudeDegrees>37.06961628980934619903564453125</LongitudeDegrees>
            </Position>
            <AltitudeMeters>1191.4000244140625</AltitudeMeters>
            <DistanceMeters>NAN</DistanceMeters>
          </Trackpoint>
          <Trackpoint>
            <Time>2021-08-03T10:53:47.000Z</Time>
            <Position>
              <LatitudeDegrees>-15.4189402051270008087158203125</LatitudeDegrees>
              <LongitudeDegrees>37.06960857845842838287353515625</LongitudeDegrees>
            </Position>
            <AltitudeMeters>1191.4000244140625</AltitudeMeters>
            <DistanceMeters>NAN</DistanceMeters>
          </Trackpoint>
          <Trackpoint>
            <Time>2021-08-03T10:53:51.000Z</Time>
            <Position>
              <LatitudeDegrees>-15.4189614951610565185546875</LatitudeDegrees>
              <LongitudeDegrees>37.06957052461802959442138671875</LongitudeDegrees>
            </Position>
            <AltitudeMeters>1191.4000244140625</AltitudeMeters>
            <DistanceMeters>NAN</DistanceMeters>
          </Trackpoint>
          <Trackpoint>
            <Time>2021-08-03T10:53:54.000Z</Time>
            <Position>
              <LatitudeDegrees>-15.41896962560713291168212890625</LatitudeDegrees>
              <LongitudeDegrees>37.06952962093055248260498046875</LongitudeDegrees>
            </Position>
            <AltitudeMeters>1191.199951171875</AltitudeMeters>
            <DistanceMeters>NAN</DistanceMeters>
          </Trackpoint>
          <Trackpoint>
            <Time>2021-08-03T10:53:58.000Z</Time>
            <Position>
              <LatitudeDegrees>-15.41897247545421123504638671875</LatitudeDegrees>
              <LongitudeDegrees>37.069493494927883148193359375</LongitudeDegrees>
            </Position>
            <AltitudeMeters>1191.4000244140625</AltitudeMeters>
            <DistanceMeters>NAN</DistanceMeters>
          </Trackpoint>
          <Trackpoint>
            <Time>2021-08-03T10:54:05.000Z</Time>
            <Position>
              <LatitudeDegrees>-15.41901178658008575439453125</LatitudeDegrees>
              <LongitudeDegrees>37.06938511691987514495849609375</LongitudeDegrees>
            </Position>
            <AltitudeMeters>1191.199951171875</AltitudeMeters>
            <DistanceMeters>NAN</DistanceMeters>
          </Trackpoint>
          <Trackpoint>
            <Time>2021-08-03T10:54:10.000Z</Time>
            <Position>
              <LatitudeDegrees>-15.4190531931817531585693359375</LatitudeDegrees>
              <LongitudeDegrees>37.069340609014034271240234375</LongitudeDegrees>
            </Position>
            <AltitudeMeters>1191</AltitudeMeters>
            <DistanceMeters>NAN</DistanceMeters>
          </Trackpoint>
          <Trackpoint>
            <Time>2021-08-03T10:54:14.000Z</Time>
            <Position>
              <LatitudeDegrees>-15.4190880618989467620849609375</LatitudeDegrees>
              <LongitudeDegrees>37.069290988147258758544921875</LongitudeDegrees>
            </Position>
            <AltitudeMeters>1190.5999755859375</AltitudeMeters>
            <DistanceMeters>NAN</DistanceMeters>
          </Trackpoint>
          <Trackpoint>
            <Time>2021-08-03T10:54:15.000Z</Time>
            <Position>
              <LatitudeDegrees>-15.41909686289727687835693359375</LatitudeDegrees>
              <LongitudeDegrees>37.06928000785410404205322265625</LongitudeDegrees>
            </Position>
            <AltitudeMeters>1190.5999755859375</AltitudeMeters>
            <DistanceMeters>NAN</DistanceMeters>
          </Trackpoint>
          <Trackpoint>
            <Time>2021-08-03T10:54:17.000Z</Time>
            <Position>
              <LatitudeDegrees>-15.41911094449460506439208984375</LatitudeDegrees>
              <LongitudeDegrees>37.069248743355274200439453125</LongitudeDegrees>
            </Position>
            <AltitudeMeters>1190</AltitudeMeters>
            <DistanceMeters>NAN</DistanceMeters>
          </Trackpoint>
          <Trackpoint>
            <Time>2021-08-03T10:54:20.000Z</Time>
            <Position>
              <LatitudeDegrees>-15.4191412031650543212890625</LatitudeDegrees>
              <LongitudeDegrees>37.06922317855060100555419921875</LongitudeDegrees>
            </Position>
            <AltitudeMeters>1189.800048828125</AltitudeMeters>
            <DistanceMeters>NAN</DistanceMeters>
          </Trackpoint>
          <Trackpoint>
            <Time>2021-08-03T10:54:27.000Z</Time>
            <Position>
              <LatitudeDegrees>-15.41920113377273082733154296875</LatitudeDegrees>
              <LongitudeDegrees>37.06919266842305660247802734375</LongitudeDegrees>
            </Position>
            <AltitudeMeters>1189.5999755859375</AltitudeMeters>
            <DistanceMeters>NAN</DistanceMeters>
          </Trackpoint>
          <Trackpoint>
            <Time>2021-08-03T10:54:33.000Z</Time>
            <Position>
              <LatitudeDegrees>-15.41926869191229343414306640625</LatitudeDegrees>
              <LongitudeDegrees>37.06916249357163906097412109375</LongitudeDegrees>
            </Position>
            <AltitudeMeters>1189</AltitudeMeters>
            <DistanceMeters>NAN</DistanceMeters>
          </Trackpoint>
          <Trackpoint>
            <Time>2021-08-03T10:54:36.000Z</Time>
            <Position>
              <LatitudeDegrees>-15.41930104605853557586669921875</LatitudeDegrees>
              <LongitudeDegrees>37.069144807755947113037109375</LongitudeDegrees>
            </Position>
            <AltitudeMeters>1188.4000244140625</AltitudeMeters>
            <DistanceMeters>NAN</DistanceMeters>
          </Trackpoint>
          <Trackpoint>
            <Time>2021-08-03T10:54:38.000Z</Time>
            <Position>
              <LatitudeDegrees>-15.41932158172130584716796875</LatitudeDegrees>
              <LongitudeDegrees>37.06913282163441181182861328125</LongitudeDegrees>
            </Position>
            <AltitudeMeters>1187.800048828125</AltitudeMeters>
            <DistanceMeters>NAN</DistanceMeters>
          </Trackpoint>
          <Trackpoint>
            <Time>2021-08-03T10:54:39.000Z</Time>
            <Position>
              <LatitudeDegrees>-15.4193318076431751251220703125</LatitudeDegrees>
              <LongitudeDegrees>37.0691251941025257110595703125</LongitudeDegrees>
            </Position>
            <AltitudeMeters>1187.800048828125</AltitudeMeters>
            <DistanceMeters>NAN</DistanceMeters>
          </Trackpoint>
          <Trackpoint>
            <Time>2021-08-03T10:54:44.000Z</Time>
            <Position>
              <LatitudeDegrees>-15.41937245987355709075927734375</LatitudeDegrees>
              <LongitudeDegrees>37.069084458053112030029296875</LongitudeDegrees>
            </Position>
            <AltitudeMeters>1188.4000244140625</AltitudeMeters>
            <DistanceMeters>NAN</DistanceMeters>
          </Trackpoint>
          <Trackpoint>
            <Time>2021-08-03T10:54:53.000Z</Time>
            <Position>
              <LatitudeDegrees>-15.4194726236164569854736328125</LatitudeDegrees>
              <LongitudeDegrees>37.06902201287448406219482421875</LongitudeDegrees>
            </Position>
            <AltitudeMeters>1186.800048828125</AltitudeMeters>
            <DistanceMeters>NAN</DistanceMeters>
          </Trackpoint>
          <Trackpoint>
            <Time>2021-08-03T10:55:03.000Z</Time>
            <Position>
              <LatitudeDegrees>-15.4195899702608585357666015625</LatitudeDegrees>
              <LongitudeDegrees>37.06895948387682437896728515625</LongitudeDegrees>
            </Position>
            <AltitudeMeters>1185.800048828125</AltitudeMeters>
            <DistanceMeters>NAN</DistanceMeters>
          </Trackpoint>
          <Trackpoint>
            <Time>2021-08-03T10:55:07.000Z</Time>
            <Position>
              <LatitudeDegrees>-15.41964001022279262542724609375</LatitudeDegrees>
              <LongitudeDegrees>37.06892721354961395263671875</LongitudeDegrees>
            </Position>
            <AltitudeMeters>1185.4000244140625</AltitudeMeters>
            <DistanceMeters>NAN</DistanceMeters>
          </Trackpoint>
          <Trackpoint>
            <Time>2021-08-03T10:55:10.000Z</Time>
            <Position>
              <LatitudeDegrees>-15.41967160999774932861328125</LatitudeDegrees>
              <LongitudeDegrees>37.06890231929719448089599609375</LongitudeDegrees>
            </Position>
            <AltitudeMeters>1185.199951171875</AltitudeMeters>
            <DistanceMeters>NAN</DistanceMeters>
          </Trackpoint>
          <Trackpoint>
            <Time>2021-08-03T10:55:13.000Z</Time>
            <Position>
              <LatitudeDegrees>-15.41970572434365749359130859375</LatitudeDegrees>
              <LongitudeDegrees>37.06887759268283843994140625</LongitudeDegrees>
            </Position>
            <AltitudeMeters>1185</AltitudeMeters>
            <DistanceMeters>NAN</DistanceMeters>
          </Trackpoint>
          <Trackpoint>
            <Time>2021-08-03T10:55:17.000Z</Time>
            <Position>
              <LatitudeDegrees>-15.4197532497346401214599609375</LatitudeDegrees>
              <LongitudeDegrees>37.06885747611522674560546875</LongitudeDegrees>
            </Position>
            <AltitudeMeters>1185</AltitudeMeters>
            <DistanceMeters>NAN</DistanceMeters>
          </Trackpoint>
          <Trackpoint>
            <Time>2021-08-03T10:55:18.000Z</Time>
            <Position>
              <LatitudeDegrees>-15.4197619669139385223388671875</LatitudeDegrees>
              <LongitudeDegrees>37.06885118968784809112548828125</LongitudeDegrees>
            </Position>
            <AltitudeMeters>1185.199951171875</AltitudeMeters>
            <DistanceMeters>NAN</DistanceMeters>
          </Trackpoint>
          <Trackpoint>
            <Time>2021-08-03T10:55:24.000Z</Time>
            <Position>
              <LatitudeDegrees>-15.4198280163109302520751953125</LatitudeDegrees>
              <LongitudeDegrees>37.068814225494861602783203125</LongitudeDegrees>
            </Position>
            <AltitudeMeters>1184.5999755859375</AltitudeMeters>
            <DistanceMeters>NAN</DistanceMeters>
          </Trackpoint>
          <Trackpoint>
            <Time>2021-08-03T10:55:28.000Z</Time>
            <Position>
              <LatitudeDegrees>-15.41986732743680477142333984375</LatitudeDegrees>
              <LongitudeDegrees>37.0687892474234104156494140625</LongitudeDegrees>
            </Position>
            <AltitudeMeters>1184.199951171875</AltitudeMeters>
            <DistanceMeters>NAN</DistanceMeters>
          </Trackpoint>
          <Trackpoint>
            <Time>2021-08-03T10:55:35.000Z</Time>
            <Position>
              <LatitudeDegrees>-15.419950224459171295166015625</LatitudeDegrees>
              <LongitudeDegrees>37.068735770881175994873046875</LongitudeDegrees>
            </Position>
            <AltitudeMeters>1183.800048828125</AltitudeMeters>
            <DistanceMeters>NAN</DistanceMeters>
          </Trackpoint>
          <Trackpoint>
            <Time>2021-08-03T10:55:37.000Z</Time>
            <Position>
              <LatitudeDegrees>-15.419977717101573944091796875</LatitudeDegrees>
              <LongitudeDegrees>37.0687221921980381011962890625</LongitudeDegrees>
            </Position>
            <AltitudeMeters>1183.800048828125</AltitudeMeters>
            <DistanceMeters>NAN</DistanceMeters>
          </Trackpoint>
          <Trackpoint>
            <Time>2021-08-03T10:55:38.000Z</Time>
            <Position>
              <LatitudeDegrees>-15.419987775385379791259765625</LatitudeDegrees>
              <LongitudeDegrees>37.068714983761310577392578125</LongitudeDegrees>
            </Position>
            <AltitudeMeters>1183.5999755859375</AltitudeMeters>
            <DistanceMeters>NAN</DistanceMeters>
          </Trackpoint>
          <Trackpoint>
            <Time>2021-08-03T10:55:43.000Z</Time>
            <Position>
              <LatitudeDegrees>-15.4200236499309539794921875</LatitudeDegrees>
              <LongitudeDegrees>37.06867433153092861175537109375</LongitudeDegrees>
            </Position>
            <AltitudeMeters>1184.199951171875</AltitudeMeters>
            <DistanceMeters>NAN</DistanceMeters>
          </Trackpoint>
          <Trackpoint>
            <Time>2021-08-03T10:55:54.000Z</Time>
            <Position>
              <LatitudeDegrees>-15.4201351292431354522705078125</LatitudeDegrees>
              <LongitudeDegrees>37.0686102099716663360595703125</LongitudeDegrees>
            </Position>
            <AltitudeMeters>1184.199951171875</AltitudeMeters>
            <DistanceMeters>NAN</DistanceMeters>
          </Trackpoint>
          <Trackpoint>
            <Time>2021-08-03T10:56:04.000Z</Time>
            <Position>
              <LatitudeDegrees>-15.42023931629955768585205078125</LatitudeDegrees>
              <LongitudeDegrees>37.06852982752025127410888671875</LongitudeDegrees>
            </Position>
            <AltitudeMeters>1184.5999755859375</AltitudeMeters>
            <DistanceMeters>NAN</DistanceMeters>
          </Trackpoint>
          <Trackpoint>
            <Time>2021-08-03T10:56:05.000Z</Time>
            <Position>
              <LatitudeDegrees>-15.420249961316585540771484375</LatitudeDegrees>
              <LongitudeDegrees>37.06851876340806484222412109375</LongitudeDegrees>
            </Position>
            <AltitudeMeters>1184.800048828125</AltitudeMeters>
            <DistanceMeters>NAN</DistanceMeters>
          </Trackpoint>
          <Trackpoint>
            <Time>2021-08-03T10:56:12.000Z</Time>
            <Position>
              <LatitudeDegrees>-15.4203198663890361785888671875</LatitudeDegrees>
              <LongitudeDegrees>37.068468220531940460205078125</LongitudeDegrees>
            </Position>
            <AltitudeMeters>1185.800048828125</AltitudeMeters>
            <DistanceMeters>NAN</DistanceMeters>
          </Trackpoint>
          <Trackpoint>
            <Time>2021-08-03T10:56:13.000Z</Time>
            <Position>
              <LatitudeDegrees>-15.420329086482524871826171875</LatitudeDegrees>
              <LongitudeDegrees>37.068460844457149505615234375</LongitudeDegrees>
            </Position>
            <AltitudeMeters>1185.800048828125</AltitudeMeters>
            <DistanceMeters>NAN</DistanceMeters>
          </Trackpoint>
          <Trackpoint>
            <Time>2021-08-03T10:56:20.000Z</Time>
            <Position>
              <LatitudeDegrees>-15.4203788749873638153076171875</LatitudeDegrees>
              <LongitudeDegrees>37.068405188620090484619140625</LongitudeDegrees>
            </Position>
            <AltitudeMeters>1186.5999755859375</AltitudeMeters>
            <DistanceMeters>NAN</DistanceMeters>
          </Trackpoint>
          <Trackpoint>
            <Time>2021-08-03T10:56:24.000Z</Time>
            <Position>
              <LatitudeDegrees>-15.42040410451591014862060546875</LatitudeDegrees>
              <LongitudeDegrees>37.06836168654263019561767578125</LongitudeDegrees>
            </Position>
            <AltitudeMeters>1186.5999755859375</AltitudeMeters>
            <DistanceMeters>NAN</DistanceMeters>
          </Trackpoint>
          <Trackpoint>
            <Time>2021-08-03T10:56:30.000Z</Time>
            <Position>
              <LatitudeDegrees>-15.4204420745372772216796875</LatitudeDegrees>
              <LongitudeDegrees>37.0682895183563232421875</LongitudeDegrees>
            </Position>
            <AltitudeMeters>1187</AltitudeMeters>
            <DistanceMeters>NAN</DistanceMeters>
          </Trackpoint>
          <Trackpoint>
            <Time>2021-08-03T10:56:34.000Z</Time>
            <Position>
              <LatitudeDegrees>-15.4204677231609821319580078125</LatitudeDegrees>
              <LongitudeDegrees>37.068238221108913421630859375</LongitudeDegrees>
            </Position>
            <AltitudeMeters>1187</AltitudeMeters>
            <DistanceMeters>NAN</DistanceMeters>
          </Trackpoint>
          <Trackpoint>
            <Time>2021-08-03T10:56:36.000Z</Time>
            <Position>
              <LatitudeDegrees>-15.420473255217075347900390625</LatitudeDegrees>
              <LongitudeDegrees>37.06822472624480724334716796875</LongitudeDegrees>
            </Position>
            <AltitudeMeters>1187.199951171875</AltitudeMeters>
            <DistanceMeters>NAN</DistanceMeters>
          </Trackpoint>
          <Trackpoint>
            <Time>2021-08-03T10:56:39.000Z</Time>
            <Position>
              <LatitudeDegrees>-15.4204868339002132415771484375</LatitudeDegrees>
              <LongitudeDegrees>37.0681971497833728790283203125</LongitudeDegrees>
            </Position>
            <AltitudeMeters>1187.4000244140625</AltitudeMeters>
            <DistanceMeters>NAN</DistanceMeters>
          </Trackpoint>
          <Trackpoint>
            <Time>2021-08-03T10:56:46.000Z</Time>
            <Position>
              <LatitudeDegrees>-15.4205156676471233367919921875</LatitudeDegrees>
              <LongitudeDegrees>37.06811718642711639404296875</LongitudeDegrees>
            </Position>
            <AltitudeMeters>1187.800048828125</AltitudeMeters>
            <DistanceMeters>NAN</DistanceMeters>
          </Trackpoint>
          <Trackpoint>
            <Time>2021-08-03T10:56:49.000Z</Time>
            <Position>
              <LatitudeDegrees>-15.4205223731696605682373046875</LatitudeDegrees>
              <LongitudeDegrees>37.0680855028331279754638671875</LongitudeDegrees>
            </Position>
            <AltitudeMeters>1187.800048828125</AltitudeMeters>
            <DistanceMeters>NAN</DistanceMeters>
          </Trackpoint>
          <Trackpoint>
            <Time>2021-08-03T10:56:55.000Z</Time>
            <Position>
              <LatitudeDegrees>-15.42054869234561920166015625</LatitudeDegrees>
              <LongitudeDegrees>37.06800629384815692901611328125</LongitudeDegrees>
            </Position>
            <AltitudeMeters>1187.800048828125</AltitudeMeters>
            <DistanceMeters>NAN</DistanceMeters>
          </Trackpoint>
          <Trackpoint>
            <Time>2021-08-03T10:56:57.000Z</Time>
            <Position>
              <LatitudeDegrees>-15.42055564932525157928466796875</LatitudeDegrees>
              <LongitudeDegrees>37.0679805614054203033447265625</LongitudeDegrees>
            </Position>
            <AltitudeMeters>1187.800048828125</AltitudeMeters>
            <DistanceMeters>NAN</DistanceMeters>
          </Trackpoint>
          <Trackpoint>
            <Time>2021-08-03T10:57:06.000Z</Time>
            <Position>
              <LatitudeDegrees>-15.4206299968063831329345703125</LatitudeDegrees>
              <LongitudeDegrees>37.06788509152829647064208984375</LongitudeDegrees>
            </Position>
            <AltitudeMeters>1187.5999755859375</AltitudeMeters>
            <DistanceMeters>NAN</DistanceMeters>
          </Trackpoint>
          <Trackpoint>
            <Time>2021-08-03T10:57:17.000Z</Time>
            <Position>
              <LatitudeDegrees>-15.4207238741219043731689453125</LatitudeDegrees>
              <LongitudeDegrees>37.06780345179140567779541015625</LongitudeDegrees>
            </Position>
            <AltitudeMeters>1187.5999755859375</AltitudeMeters>
            <DistanceMeters>NAN</DistanceMeters>
          </Trackpoint>
          <Trackpoint>
            <Time>2021-08-03T10:57:26.000Z</Time>
            <Position>
              <LatitudeDegrees>-15.42081666179001331329345703125</LatitudeDegrees>
              <LongitudeDegrees>37.0677651464939117431640625</LongitudeDegrees>
            </Position>
            <AltitudeMeters>1187.199951171875</AltitudeMeters>
            <DistanceMeters>NAN</DistanceMeters>
          </Trackpoint>
          <Trackpoint>
            <Time>2021-08-03T10:57:27.000Z</Time>
            <Position>
              <LatitudeDegrees>-15.42082361876964569091796875</LatitudeDegrees>
              <LongitudeDegrees>37.06776179373264312744140625</LongitudeDegrees>
            </Position>
            <AltitudeMeters>1187.199951171875</AltitudeMeters>
            <DistanceMeters>NAN</DistanceMeters>
          </Trackpoint>
          <Trackpoint>
            <Time>2021-08-03T10:57:28.000Z</Time>
            <Position>
              <LatitudeDegrees>-15.42083040811121463775634765625</LatitudeDegrees>
              <LongitudeDegrees>37.06775777041912078857421875</LongitudeDegrees>
            </Position>
            <AltitudeMeters>1187</AltitudeMeters>
            <DistanceMeters>NAN</DistanceMeters>
          </Trackpoint>
          <Trackpoint>
            <Time>2021-08-03T10:57:33.000Z</Time>
            <Position>
              <LatitudeDegrees>-15.42088941670954227447509765625</LatitudeDegrees>
              <LongitudeDegrees>37.06774729304015636444091796875</LongitudeDegrees>
            </Position>
            <AltitudeMeters>1186.800048828125</AltitudeMeters>
            <DistanceMeters>NAN</DistanceMeters>
          </Trackpoint>
          <Trackpoint>
            <Time>2021-08-03T10:57:40.000Z</Time>
            <Position>
              <LatitudeDegrees>-15.42096468620002269744873046875</LatitudeDegrees>
              <LongitudeDegrees>37.06773765385150909423828125</LongitudeDegrees>
            </Position>
            <AltitudeMeters>1186.199951171875</AltitudeMeters>
            <DistanceMeters>NAN</DistanceMeters>
          </Trackpoint>
          <Trackpoint>
            <Time>2021-08-03T10:57:41.000Z</Time>
            <Position>
              <LatitudeDegrees>-15.42097642086446285247802734375</LatitudeDegrees>
              <LongitudeDegrees>37.06773354671895503997802734375</LongitudeDegrees>
            </Position>
            <AltitudeMeters>1186</AltitudeMeters>
            <DistanceMeters>NAN</DistanceMeters>
          </Trackpoint>
          <Trackpoint>
            <Time>2021-08-03T10:57:49.000Z</Time>
            <Position>
              <LatitudeDegrees>-15.4210785962641239166259765625</LatitudeDegrees>
              <LongitudeDegrees>37.0677006058394908905029296875</LongitudeDegrees>
            </Position>
            <AltitudeMeters>1184.5999755859375</AltitudeMeters>
            <DistanceMeters>NAN</DistanceMeters>
          </Trackpoint>
          <Trackpoint>
            <Time>2021-08-03T10:57:53.000Z</Time>
            <Position>
              <LatitudeDegrees>-15.42112193070352077484130859375</LatitudeDegrees>
              <LongitudeDegrees>37.06768141128122806549072265625</LongitudeDegrees>
            </Position>
            <AltitudeMeters>1184.199951171875</AltitudeMeters>
            <DistanceMeters>NAN</DistanceMeters>
          </Trackpoint>
          <Trackpoint>
            <Time>2021-08-03T10:57:57.000Z</Time>
            <Position>
              <LatitudeDegrees>-15.4211714677512645721435546875</LatitudeDegrees>
              <LongitudeDegrees>37.06766984425485134124755859375</LongitudeDegrees>
            </Position>
            <AltitudeMeters>1184.199951171875</AltitudeMeters>
            <DistanceMeters>NAN</DistanceMeters>
          </Trackpoint>
          <Trackpoint>
            <Time>2021-08-03T10:58:01.000Z</Time>
            <Position>
              <LatitudeDegrees>-15.42123005725443363189697265625</LatitudeDegrees>
              <LongitudeDegrees>37.06765525974333286285400390625</LongitudeDegrees>
            </Position>
            <AltitudeMeters>1183.5999755859375</AltitudeMeters>
            <DistanceMeters>NAN</DistanceMeters>
          </Trackpoint>
          <Trackpoint>
            <Time>2021-08-03T10:58:05.000Z</Time>
            <Position>
              <LatitudeDegrees>-15.42127967812120914459228515625</LatitudeDegrees>
              <LongitudeDegrees>37.06763229332864284515380859375</LongitudeDegrees>
            </Position>
            <AltitudeMeters>1183.5999755859375</AltitudeMeters>
            <DistanceMeters>NAN</DistanceMeters>
          </Trackpoint>
          <Trackpoint>
            <Time>2021-08-03T10:58:14.000Z</Time>
            <Position>
              <LatitudeDegrees>-15.42138059623539447784423828125</LatitudeDegrees>
              <LongitudeDegrees>37.0676003582775592803955078125</LongitudeDegrees>
            </Position>
            <AltitudeMeters>1183.5999755859375</AltitudeMeters>
            <DistanceMeters>NAN</DistanceMeters>
          </Trackpoint>
          <Trackpoint>
            <Time>2021-08-03T10:58:17.000Z</Time>
            <Position>
              <LatitudeDegrees>-15.4214210808277130126953125</LatitudeDegrees>
              <LongitudeDegrees>37.0675862766802310943603515625</LongitudeDegrees>
            </Position>
            <AltitudeMeters>1183.4000244140625</AltitudeMeters>
            <DistanceMeters>NAN</DistanceMeters>
          </Trackpoint>
          <Trackpoint>
            <Time>2021-08-03T10:58:21.000Z</Time>
            <Position>
              <LatitudeDegrees>-15.421462990343570709228515625</LatitudeDegrees>
              <LongitudeDegrees>37.067561633884906768798828125</LongitudeDegrees>
            </Position>
            <AltitudeMeters>1183.199951171875</AltitudeMeters>
            <DistanceMeters>NAN</DistanceMeters>
          </Trackpoint>
          <Trackpoint>
            <Time>2021-08-03T10:58:24.000Z</Time>
            <Position>
              <LatitudeDegrees>-15.42149777524173259735107421875</LatitudeDegrees>
              <LongitudeDegrees>37.06754713319242000579833984375</LongitudeDegrees>
            </Position>
            <AltitudeMeters>1183.199951171875</AltitudeMeters>
            <DistanceMeters>NAN</DistanceMeters>
          </Trackpoint>
          <Trackpoint>
            <Time>2021-08-03T10:58:25.000Z</Time>
            <Position>
              <LatitudeDegrees>-15.42150414548814296722412109375</LatitudeDegrees>
              <LongitudeDegrees>37.0675430260598659515380859375</LongitudeDegrees>
            </Position>
            <AltitudeMeters>1183.199951171875</AltitudeMeters>
            <DistanceMeters>NAN</DistanceMeters>
          </Trackpoint>
          <Trackpoint>
            <Time>2021-08-03T10:58:28.000Z</Time>
            <Position>
              <LatitudeDegrees>-15.4215335659682750701904296875</LatitudeDegrees>
              <LongitudeDegrees>37.0675453729927539825439453125</LongitudeDegrees>
            </Position>
            <AltitudeMeters>1183.4000244140625</AltitudeMeters>
            <DistanceMeters>NAN</DistanceMeters>
          </Trackpoint>
          <Trackpoint>
            <Time>2021-08-03T10:58:37.000Z</Time>
            <Position>
              <LatitudeDegrees>-15.42161746881902217864990234375</LatitudeDegrees>
              <LongitudeDegrees>37.06749332137405872344970703125</LongitudeDegrees>
            </Position>
            <AltitudeMeters>1183</AltitudeMeters>
            <DistanceMeters>NAN</DistanceMeters>
          </Trackpoint>
          <Trackpoint>
            <Time>2021-08-03T10:58:48.000Z</Time>
            <Position>
              <LatitudeDegrees>-15.42176096700131893157958984375</LatitudeDegrees>
              <LongitudeDegrees>37.06737932749092578887939453125</LongitudeDegrees>
            </Position>
            <AltitudeMeters>1183</AltitudeMeters>
            <DistanceMeters>NAN</DistanceMeters>
          </Trackpoint>
          <Trackpoint>
            <Time>2021-08-03T10:58:50.000Z</Time>
            <Position>
              <LatitudeDegrees>-15.42177840135991573333740234375</LatitudeDegrees>
              <LongitudeDegrees>37.0673589594662189483642578125</LongitudeDegrees>
            </Position>
            <AltitudeMeters>1183</AltitudeMeters>
            <DistanceMeters>NAN</DistanceMeters>
          </Trackpoint>
          <Trackpoint>
            <Time>2021-08-03T10:58:52.000Z</Time>
            <Position>
              <LatitudeDegrees>-15.42178510688245296478271484375</LatitudeDegrees>
              <LongitudeDegrees>37.067334651947021484375</LongitudeDegrees>
            </Position>
            <AltitudeMeters>1183</AltitudeMeters>
            <DistanceMeters>NAN</DistanceMeters>
          </Trackpoint>
          <Trackpoint>
            <Time>2021-08-03T10:58:54.000Z</Time>
            <Position>
              <LatitudeDegrees>-15.42179348878562450408935546875</LatitudeDegrees>
              <LongitudeDegrees>37.06731118261814117431640625</LongitudeDegrees>
            </Position>
            <AltitudeMeters>1183.199951171875</AltitudeMeters>
            <DistanceMeters>NAN</DistanceMeters>
          </Trackpoint>
          <Trackpoint>
            <Time>2021-08-03T10:58:58.000Z</Time>
            <Position>
              <LatitudeDegrees>-15.42180438525974750518798828125</LatitudeDegrees>
              <LongitudeDegrees>37.067277990281581878662109375</LongitudeDegrees>
            </Position>
            <AltitudeMeters>1183.199951171875</AltitudeMeters>
            <DistanceMeters>NAN</DistanceMeters>
          </Trackpoint>
          <Trackpoint>
            <Time>2021-08-03T10:59:03.000Z</Time>
            <Position>
              <LatitudeDegrees>-15.42186699807643890380859375</LatitudeDegrees>
              <LongitudeDegrees>37.0672758109867572784423828125</LongitudeDegrees>
            </Position>
            <AltitudeMeters>1183.199951171875</AltitudeMeters>
            <DistanceMeters>NAN</DistanceMeters>
          </Trackpoint>
          <Trackpoint>
            <Time>2021-08-03T10:59:12.000Z</Time>
            <Position>
              <LatitudeDegrees>-15.42196892201900482177734375</LatitudeDegrees>
              <LongitudeDegrees>37.06728913821280002593994140625</LongitudeDegrees>
            </Position>
            <AltitudeMeters>1183.199951171875</AltitudeMeters>
            <DistanceMeters>NAN</DistanceMeters>
          </Trackpoint>
          <Trackpoint>
            <Time>2021-08-03T10:59:18.000Z</Time>
            <Position>
              <LatitudeDegrees>-15.4220379889011383056640625</LatitudeDegrees>
              <LongitudeDegrees>37.0673024654388427734375</LongitudeDegrees>
            </Position>
            <AltitudeMeters>1182.5999755859375</AltitudeMeters>
            <DistanceMeters>NAN</DistanceMeters>
          </Trackpoint>
          <Trackpoint>
            <Time>2021-08-03T10:59:20.000Z</Time>
            <Position>
              <LatitudeDegrees>-15.42205743491649627685546875</LatitudeDegrees>
              <LongitudeDegrees>37.06730523146688938140869140625</LongitudeDegrees>
            </Position>
            <AltitudeMeters>1182.5999755859375</AltitudeMeters>
            <DistanceMeters>NAN</DistanceMeters>
          </Trackpoint>
          <Trackpoint>
            <Time>2021-08-03T10:59:28.000Z</Time>
            <Position>
              <LatitudeDegrees>-15.4221434332430362701416015625</LatitudeDegrees>
              <LongitudeDegrees>37.067343033850193023681640625</LongitudeDegrees>
            </Position>
            <AltitudeMeters>1182.199951171875</AltitudeMeters>
            <DistanceMeters>NAN</DistanceMeters>
          </Trackpoint>
          <Trackpoint>
            <Time>2021-08-03T10:59:29.000Z</Time>
            <Position>
              <LatitudeDegrees>-15.42215357534587383270263671875</LatitudeDegrees>
              <LongitudeDegrees>37.06734110601246356964111328125</LongitudeDegrees>
            </Position>
            <AltitudeMeters>1182.199951171875</AltitudeMeters>
            <DistanceMeters>NAN</DistanceMeters>
          </Trackpoint>
          <Trackpoint>
            <Time>2021-08-03T10:59:31.000Z</Time>
            <Position>
              <LatitudeDegrees>-15.4221722669899463653564453125</LatitudeDegrees>
              <LongitudeDegrees>37.067347727715969085693359375</LongitudeDegrees>
            </Position>
            <AltitudeMeters>1182.199951171875</AltitudeMeters>
            <DistanceMeters>NAN</DistanceMeters>
          </Trackpoint>
          <Trackpoint>
            <Time>2021-08-03T10:59:34.000Z</Time>
            <Position>
              <LatitudeDegrees>-15.42220805771648883819580078125</LatitudeDegrees>
              <LongitudeDegrees>37.06735753454267978668212890625</LongitudeDegrees>
            </Position>
            <AltitudeMeters>1182.199951171875</AltitudeMeters>
            <DistanceMeters>NAN</DistanceMeters>
          </Trackpoint>
          <Trackpoint>
            <Time>2021-08-03T10:59:41.000Z</Time>
            <Position>
              <LatitudeDegrees>-15.42229950428009033203125</LatitudeDegrees>
              <LongitudeDegrees>37.06735485233366489410400390625</LongitudeDegrees>
            </Position>
            <AltitudeMeters>1182.4000244140625</AltitudeMeters>
            <DistanceMeters>NAN</DistanceMeters>
          </Trackpoint>
          <Trackpoint>
            <Time>2021-08-03T10:59:42.000Z</Time>
            <Position>
              <LatitudeDegrees>-15.4223140887916088104248046875</LatitudeDegrees>
              <LongitudeDegrees>37.06735099665820598602294921875</LongitudeDegrees>
            </Position>
            <AltitudeMeters>1182.4000244140625</AltitudeMeters>
            <DistanceMeters>NAN</DistanceMeters>
          </Trackpoint>
          <Trackpoint>
            <Time>2021-08-03T10:59:50.000Z</Time>
            <Position>
              <LatitudeDegrees>-15.42242095805704593658447265625</LatitudeDegrees>
              <LongitudeDegrees>37.067391313612461090087890625</LongitudeDegrees>
            </Position>
            <AltitudeMeters>1181.800048828125</AltitudeMeters>
            <DistanceMeters>NAN</DistanceMeters>
          </Trackpoint>
          <Trackpoint>
            <Time>2021-08-03T10:59:51.000Z</Time>
            <Position>
              <LatitudeDegrees>-15.42243386618793010711669921875</LatitudeDegrees>
              <LongitudeDegrees>37.0673924870789051055908203125</LongitudeDegrees>
            </Position>
            <AltitudeMeters>1181.800048828125</AltitudeMeters>
            <DistanceMeters>NAN</DistanceMeters>
          </Trackpoint>
          <Trackpoint>
            <Time>2021-08-03T10:59:55.000Z</Time>
            <Position>
              <LatitudeDegrees>-15.4224887676537036895751953125</LatitudeDegrees>
              <LongitudeDegrees>37.067416794598102569580078125</LongitudeDegrees>
            </Position>
            <AltitudeMeters>1181.5999755859375</AltitudeMeters>
            <DistanceMeters>NAN</DistanceMeters>
          </Trackpoint>
          <Trackpoint>
            <Time>2021-08-03T10:59:58.000Z</Time>
            <Position>
              <LatitudeDegrees>-15.4225333593785762786865234375</LatitudeDegrees>
              <LongitudeDegrees>37.067420147359371185302734375</LongitudeDegrees>
            </Position>
            <AltitudeMeters>1181.5999755859375</AltitudeMeters>
            <DistanceMeters>NAN</DistanceMeters>
          </Trackpoint>
          <Trackpoint>
            <Time>2021-08-03T11:00:02.000Z</Time>
            <Position>
              <LatitudeDegrees>-15.42257032357156276702880859375</LatitudeDegrees>
              <LongitudeDegrees>37.06741436384618282318115234375</LongitudeDegrees>
            </Position>
            <AltitudeMeters>1182</AltitudeMeters>
            <DistanceMeters>NAN</DistanceMeters>
          </Trackpoint>
          <Trackpoint>
            <Time>2021-08-03T11:00:03.000Z</Time>
            <Position>
              <LatitudeDegrees>-15.42257652617990970611572265625</LatitudeDegrees>
              <LongitudeDegrees>37.0674146153032779693603515625</LongitudeDegrees>
            </Position>
            <AltitudeMeters>1182</AltitudeMeters>
            <DistanceMeters>NAN</DistanceMeters>
          </Trackpoint>
          <Trackpoint>
            <Time>2021-08-03T11:00:05.000Z</Time>
            <Position>
              <LatitudeDegrees>-15.42259144596755504608154296875</LatitudeDegrees>
              <LongitudeDegrees>37.0674142800271511077880859375</LongitudeDegrees>
            </Position>
            <AltitudeMeters>1182</AltitudeMeters>
            <DistanceMeters>NAN</DistanceMeters>
          </Trackpoint>
          <Trackpoint>
            <Time>2021-08-03T11:00:08.000Z</Time>
            <Position>
              <LatitudeDegrees>-15.42263050563633441925048828125</LatitudeDegrees>
              <LongitudeDegrees>37.06740698777139186859130859375</LongitudeDegrees>
            </Position>
            <AltitudeMeters>1182.199951171875</AltitudeMeters>
            <DistanceMeters>NAN</DistanceMeters>
          </Trackpoint>
          <Trackpoint>
            <Time>2021-08-03T11:00:09.000Z</Time>
            <Position>
              <LatitudeDegrees>-15.42263721115887165069580078125</LatitudeDegrees>
              <LongitudeDegrees>37.0674075745046138763427734375</LongitudeDegrees>
            </Position>
            <AltitudeMeters>1182.199951171875</AltitudeMeters>
            <DistanceMeters>NAN</DistanceMeters>
          </Trackpoint>
          <Trackpoint>
            <Time>2021-08-03T11:00:14.000Z</Time>
            <Position>
              <LatitudeDegrees>-15.4227090440690517425537109375</LatitudeDegrees>
              <LongitudeDegrees>37.06743448041379451751708984375</LongitudeDegrees>
            </Position>
            <AltitudeMeters>1182.5999755859375</AltitudeMeters>
            <DistanceMeters>NAN</DistanceMeters>
          </Trackpoint>
          <Trackpoint>
            <Time>2021-08-03T11:00:17.000Z</Time>
            <Position>
              <LatitudeDegrees>-15.42275388725101947784423828125</LatitudeDegrees>
              <LongitudeDegrees>37.06743322312831878662109375</LongitudeDegrees>
            </Position>
            <AltitudeMeters>1182.800048828125</AltitudeMeters>
            <DistanceMeters>NAN</DistanceMeters>
          </Trackpoint>
          <Trackpoint>
            <Time>2021-08-03T11:00:25.000Z</Time>
            <Position>
              <LatitudeDegrees>-15.4228501953184604644775390625</LatitudeDegrees>
              <LongitudeDegrees>37.067432887852191925048828125</LongitudeDegrees>
            </Position>
            <AltitudeMeters>1183.199951171875</AltitudeMeters>
            <DistanceMeters>NAN</DistanceMeters>
          </Trackpoint>
          <Trackpoint>
            <Time>2021-08-03T11:00:29.000Z</Time>
            <Position>
              <LatitudeDegrees>-15.422884561121463775634765625</LatitudeDegrees>
              <LongitudeDegrees>37.06741067580878734588623046875</LongitudeDegrees>
            </Position>
            <AltitudeMeters>1183.199951171875</AltitudeMeters>
            <DistanceMeters>NAN</DistanceMeters>
          </Trackpoint>
          <Trackpoint>
            <Time>2021-08-03T11:00:32.000Z</Time>
            <Position>
              <LatitudeDegrees>-15.42288984172046184539794921875</LatitudeDegrees>
              <LongitudeDegrees>37.06740162335336208343505859375</LongitudeDegrees>
            </Position>
            <AltitudeMeters>1183.4000244140625</AltitudeMeters>
            <DistanceMeters>NAN</DistanceMeters>
          </Trackpoint>
          <Trackpoint>
            <Time>2021-08-03T11:00:33.000Z</Time>
            <Position>
              <LatitudeDegrees>-15.42290191166102886199951171875</LatitudeDegrees>
              <LongitudeDegrees>37.06740413792431354522705078125</LongitudeDegrees>
            </Position>
            <AltitudeMeters>1183.5999755859375</AltitudeMeters>
            <DistanceMeters>NAN</DistanceMeters>
          </Trackpoint>
          <Trackpoint>
            <Time>2021-08-03T11:00:34.000Z</Time>
            <Position>
              <LatitudeDegrees>-15.42291632853448390960693359375</LatitudeDegrees>
              <LongitudeDegrees>37.067409418523311614990234375</LongitudeDegrees>
            </Position>
            <AltitudeMeters>1183.5999755859375</AltitudeMeters>
            <DistanceMeters>NAN</DistanceMeters>
          </Trackpoint>
          <Trackpoint>
            <Time>2021-08-03T11:00:35.000Z</Time>
            <Position>
              <LatitudeDegrees>-15.422929488122463226318359375</LatitudeDegrees>
              <LongitudeDegrees>37.06741847097873687744140625</LongitudeDegrees>
            </Position>
            <AltitudeMeters>1183.5999755859375</AltitudeMeters>
            <DistanceMeters>NAN</DistanceMeters>
          </Trackpoint>
          <Trackpoint>
            <Time>2021-08-03T11:00:39.000Z</Time>
            <Position>
              <LatitudeDegrees>-15.4229772649705410003662109375</LatitudeDegrees>
              <LongitudeDegrees>37.067438922822475433349609375</LongitudeDegrees>
            </Position>
            <AltitudeMeters>1183.5999755859375</AltitudeMeters>
            <DistanceMeters>NAN</DistanceMeters>
          </Trackpoint>
          <Trackpoint>
            <Time>2021-08-03T11:00:49.000Z</Time>
            <Position>
              <LatitudeDegrees>-15.4230828769505023956298828125</LatitudeDegrees>
              <LongitudeDegrees>37.0675054751336574554443359375</LongitudeDegrees>
            </Position>
            <AltitudeMeters>1183.800048828125</AltitudeMeters>
            <DistanceMeters>NAN</DistanceMeters>
          </Trackpoint>
          <Trackpoint>
            <Time>2021-08-03T11:00:55.000Z</Time>
            <Position>
              <LatitudeDegrees>-15.42310190387070178985595703125</LatitudeDegrees>
              <LongitudeDegrees>37.06748762167990207672119140625</LongitudeDegrees>
            </Position>
            <AltitudeMeters>1184</AltitudeMeters>
            <DistanceMeters>NAN</DistanceMeters>
          </Trackpoint>
          <Trackpoint>
            <Time>2021-08-03T11:00:58.000Z</Time>
            <Position>
              <LatitudeDegrees>-15.4231301508843898773193359375</LatitudeDegrees>
              <LongitudeDegrees>37.0675103366374969482421875</LongitudeDegrees>
            </Position>
            <AltitudeMeters>1184.199951171875</AltitudeMeters>
            <DistanceMeters>NAN</DistanceMeters>
          </Trackpoint>
          <Trackpoint>
            <Time>2021-08-03T11:01:02.000Z</Time>
            <Position>
              <LatitudeDegrees>-15.42316057719290256500244140625</LatitudeDegrees>
              <LongitudeDegrees>37.06752299331128597259521484375</LongitudeDegrees>
            </Position>
            <AltitudeMeters>1184.199951171875</AltitudeMeters>
            <DistanceMeters>NAN</DistanceMeters>
          </Trackpoint>
          <Trackpoint>
            <Time>2021-08-03T11:01:06.000Z</Time>
            <Position>
              <LatitudeDegrees>-15.4231837950646877288818359375</LatitudeDegrees>
              <LongitudeDegrees>37.06753221340477466583251953125</LongitudeDegrees>
            </Position>
            <AltitudeMeters>1184.4000244140625</AltitudeMeters>
            <DistanceMeters>NAN</DistanceMeters>
          </Trackpoint>
          <Trackpoint>
            <Time>2021-08-03T11:01:07.000Z</Time>
            <Position>
              <LatitudeDegrees>-15.423193015158176422119140625</LatitudeDegrees>
              <LongitudeDegrees>37.06753590144217014312744140625</LongitudeDegrees>
            </Position>
            <AltitudeMeters>1184.5999755859375</AltitudeMeters>
            <DistanceMeters>NAN</DistanceMeters>
          </Trackpoint>
          <Trackpoint>
            <Time>2021-08-03T11:01:08.000Z</Time>
            <Position>
              <LatitudeDegrees>-15.42320416308939456939697265625</LatitudeDegrees>
              <LongitudeDegrees>37.0675426907837390899658203125</LongitudeDegrees>
            </Position>
            <AltitudeMeters>1184.800048828125</AltitudeMeters>
            <DistanceMeters>NAN</DistanceMeters>
          </Trackpoint>
          <Trackpoint>
            <Time>2021-08-03T11:01:12.000Z</Time>
            <Position>
              <LatitudeDegrees>-15.42327725328505039215087890625</LatitudeDegrees>
              <LongitudeDegrees>37.06756255589425563812255859375</LongitudeDegrees>
            </Position>
            <AltitudeMeters>1185.199951171875</AltitudeMeters>
            <DistanceMeters>NAN</DistanceMeters>
          </Trackpoint>
          <Trackpoint>
            <Time>2021-08-03T11:01:15.000Z</Time>
            <Position>
              <LatitudeDegrees>-15.42332771234214305877685546875</LatitudeDegrees>
              <LongitudeDegrees>37.0675648190081119537353515625</LongitudeDegrees>
            </Position>
            <AltitudeMeters>1185.199951171875</AltitudeMeters>
            <DistanceMeters>NAN</DistanceMeters>
          </Trackpoint>
          <Trackpoint>
            <Time>2021-08-03T11:01:28.000Z</Time>
            <Position>
              <LatitudeDegrees>-15.42352384887635707855224609375</LatitudeDegrees>
              <LongitudeDegrees>37.06757579930126667022705078125</LongitudeDegrees>
            </Position>
            <AltitudeMeters>1185</AltitudeMeters>
            <DistanceMeters>NAN</DistanceMeters>
          </Trackpoint>
          <Trackpoint>
            <Time>2021-08-03T11:01:39.000Z</Time>
            <Position>
              <LatitudeDegrees>-15.423659719526767730712890625</LatitudeDegrees>
              <LongitudeDegrees>37.06756020896136760711669921875</LongitudeDegrees>
            </Position>
            <AltitudeMeters>1185.4000244140625</AltitudeMeters>
            <DistanceMeters>NAN</DistanceMeters>
          </Trackpoint>
          <Trackpoint>
            <Time>2021-08-03T11:01:40.000Z</Time>
            <Position>
              <LatitudeDegrees>-15.4236736334860324859619140625</LatitudeDegrees>
              <LongitudeDegrees>37.067557610571384429931640625</LongitudeDegrees>
            </Position>
            <AltitudeMeters>1185.4000244140625</AltitudeMeters>
            <DistanceMeters>NAN</DistanceMeters>
          </Trackpoint>
          <Trackpoint>
            <Time>2021-08-03T11:01:44.000Z</Time>
            <Position>
              <LatitudeDegrees>-15.42372518219053745269775390625</LatitudeDegrees>
              <LongitudeDegrees>37.0675537548959255218505859375</LongitudeDegrees>
            </Position>
            <AltitudeMeters>1185.5999755859375</AltitudeMeters>
            <DistanceMeters>NAN</DistanceMeters>
          </Trackpoint>
          <Trackpoint>
            <Time>2021-08-03T11:01:50.000Z</Time>
            <Position>
              <LatitudeDegrees>-15.42379190213978290557861328125</LatitudeDegrees>
              <LongitudeDegrees>37.067548893392086029052734375</LongitudeDegrees>
            </Position>
            <AltitudeMeters>1185.5999755859375</AltitudeMeters>
            <DistanceMeters>NAN</DistanceMeters>
          </Trackpoint>
          <Trackpoint>
            <Time>2021-08-03T11:01:55.000Z</Time>
            <Position>
              <LatitudeDegrees>-15.42385241948068141937255859375</LatitudeDegrees>
              <LongitudeDegrees>37.067541182041168212890625</LongitudeDegrees>
            </Position>
            <AltitudeMeters>1185.5999755859375</AltitudeMeters>
            <DistanceMeters>NAN</DistanceMeters>
          </Trackpoint>
          <Trackpoint>
            <Time>2021-08-03T11:02:00.000Z</Time>
            <Position>
              <LatitudeDegrees>-15.4239100031554698944091796875</LatitudeDegrees>
              <LongitudeDegrees>37.0675383321940898895263671875</LongitudeDegrees>
            </Position>
            <AltitudeMeters>1185.5999755859375</AltitudeMeters>
            <DistanceMeters>NAN</DistanceMeters>
          </Trackpoint>
          <Trackpoint>
            <Time>2021-08-03T11:02:16.000Z</Time>
            <Position>
              <LatitudeDegrees>-15.4240819998085498809814453125</LatitudeDegrees>
              <LongitudeDegrees>37.06750941462814807891845703125</LongitudeDegrees>
            </Position>
            <AltitudeMeters>1186</AltitudeMeters>
            <DistanceMeters>NAN</DistanceMeters>
          </Trackpoint>
          <Trackpoint>
            <Time>2021-08-03T11:02:21.000Z</Time>
            <Position>
              <LatitudeDegrees>-15.42413690127432346343994140625</LatitudeDegrees>
              <LongitudeDegrees>37.06749717704951763153076171875</LongitudeDegrees>
            </Position>
            <AltitudeMeters>1186.5999755859375</AltitudeMeters>
            <DistanceMeters>NAN</DistanceMeters>
          </Trackpoint>
          <Trackpoint>
            <Time>2021-08-03T11:02:26.000Z</Time>
            <Position>
              <LatitudeDegrees>-15.424190461635589599609375</LatitudeDegrees>
              <LongitudeDegrees>37.0674907229840755462646484375</LongitudeDegrees>
            </Position>
            <AltitudeMeters>1187</AltitudeMeters>
            <DistanceMeters>NAN</DistanceMeters>
          </Trackpoint>
          <Trackpoint>
            <Time>2021-08-03T11:02:28.000Z</Time>
            <Position>
              <LatitudeDegrees>-15.42421133257448673248291015625</LatitudeDegrees>
              <LongitudeDegrees>37.067492902278900146484375</LongitudeDegrees>
            </Position>
            <AltitudeMeters>1187.199951171875</AltitudeMeters>
            <DistanceMeters>NAN</DistanceMeters>
          </Trackpoint>
          <Trackpoint>
            <Time>2021-08-03T11:02:34.000Z</Time>
            <Position>
              <LatitudeDegrees>-15.42427050881087779998779296875</LatitudeDegrees>
              <LongitudeDegrees>37.06749013625085353851318359375</LongitudeDegrees>
            </Position>
            <AltitudeMeters>1187.5999755859375</AltitudeMeters>
            <DistanceMeters>NAN</DistanceMeters>
          </Trackpoint>
          <Trackpoint>
            <Time>2021-08-03T11:02:37.000Z</Time>
            <Position>
              <LatitudeDegrees>-15.424297749996185302734375</LatitudeDegrees>
              <LongitudeDegrees>37.06748879514634609222412109375</LongitudeDegrees>
            </Position>
            <AltitudeMeters>1188</AltitudeMeters>
            <DistanceMeters>NAN</DistanceMeters>
          </Trackpoint>
          <Trackpoint>
            <Time>2021-08-03T11:02:40.000Z</Time>
            <Position>
              <LatitudeDegrees>-15.424328260123729705810546875</LatitudeDegrees>
              <LongitudeDegrees>37.067489214241504669189453125</LongitudeDegrees>
            </Position>
            <AltitudeMeters>1188.199951171875</AltitudeMeters>
            <DistanceMeters>NAN</DistanceMeters>
          </Trackpoint>
          <Trackpoint>
            <Time>2021-08-03T11:02:42.000Z</Time>
            <Position>
              <LatitudeDegrees>-15.4243445210158824920654296875</LatitudeDegrees>
              <LongitudeDegrees>37.0674917288124561309814453125</LongitudeDegrees>
            </Position>
            <AltitudeMeters>1188.5999755859375</AltitudeMeters>
            <DistanceMeters>NAN</DistanceMeters>
          </Trackpoint>
          <Trackpoint>
            <Time>2021-08-03T11:02:46.000Z</Time>
            <Position>
              <LatitudeDegrees>-15.4243849217891693115234375</LatitudeDegrees>
              <LongitudeDegrees>37.067503966391086578369140625</LongitudeDegrees>
            </Position>
            <AltitudeMeters>1189</AltitudeMeters>
            <DistanceMeters>NAN</DistanceMeters>
          </Trackpoint>
          <Trackpoint>
            <Time>2021-08-03T11:02:57.000Z</Time>
            <Position>
              <LatitudeDegrees>-15.4244868457317352294921875</LatitudeDegrees>
              <LongitudeDegrees>37.0675470493733882904052734375</LongitudeDegrees>
            </Position>
            <AltitudeMeters>1190.199951171875</AltitudeMeters>
            <DistanceMeters>NAN</DistanceMeters>
          </Trackpoint>
          <Trackpoint>
            <Time>2021-08-03T11:02:58.000Z</Time>
            <Position>
              <LatitudeDegrees>-15.4244953952729701995849609375</LatitudeDegrees>
              <LongitudeDegrees>37.0675520785152912139892578125</LongitudeDegrees>
            </Position>
            <AltitudeMeters>1190.199951171875</AltitudeMeters>
            <DistanceMeters>NAN</DistanceMeters>
          </Trackpoint>
          <Trackpoint>
            <Time>2021-08-03T11:03:08.000Z</Time>
            <Position>
              <LatitudeDegrees>-15.42458164505660533905029296875</LatitudeDegrees>
              <LongitudeDegrees>37.06759172491729259490966796875</LongitudeDegrees>
            </Position>
            <AltitudeMeters>1191.800048828125</AltitudeMeters>
            <DistanceMeters>NAN</DistanceMeters>
          </Trackpoint>
          <Trackpoint>
            <Time>2021-08-03T11:03:12.000Z</Time>
            <Position>
              <LatitudeDegrees>-15.42462162673473358154296875</LatitudeDegrees>
              <LongitudeDegrees>37.06760429777204990386962890625</LongitudeDegrees>
            </Position>
            <AltitudeMeters>1192</AltitudeMeters>
            <DistanceMeters>NAN</DistanceMeters>
          </Trackpoint>
          <Trackpoint>
            <Time>2021-08-03T11:03:19.000Z</Time>
            <Position>
              <LatitudeDegrees>-15.42467770166695117950439453125</LatitudeDegrees>
              <LongitudeDegrees>37.06763749010860919952392578125</LongitudeDegrees>
            </Position>
            <AltitudeMeters>1192.800048828125</AltitudeMeters>
            <DistanceMeters>NAN</DistanceMeters>
          </Trackpoint>
          <Trackpoint>
            <Time>2021-08-03T11:03:28.000Z</Time>
            <Position>
              <LatitudeDegrees>-15.4247649572789669036865234375</LatitudeDegrees>
              <LongitudeDegrees>37.06767135299742221832275390625</LongitudeDegrees>
            </Position>
            <AltitudeMeters>1193.800048828125</AltitudeMeters>
            <DistanceMeters>NAN</DistanceMeters>
          </Trackpoint>
          <Trackpoint>
            <Time>2021-08-03T11:03:30.000Z</Time>
            <Position>
              <LatitudeDegrees>-15.4247844032943248748779296875</LatitudeDegrees>
              <LongitudeDegrees>37.06767772324383258819580078125</LongitudeDegrees>
            </Position>
            <AltitudeMeters>1193.800048828125</AltitudeMeters>
            <DistanceMeters>NAN</DistanceMeters>
          </Trackpoint>
          <Trackpoint>
            <Time>2021-08-03T11:03:39.000Z</Time>
            <Position>
              <LatitudeDegrees>-15.42488582432270050048828125</LatitudeDegrees>
              <LongitudeDegrees>37.0676768012344837188720703125</LongitudeDegrees>
            </Position>
            <AltitudeMeters>1193.5999755859375</AltitudeMeters>
            <DistanceMeters>NAN</DistanceMeters>
          </Trackpoint>
          <Trackpoint>
            <Time>2021-08-03T11:03:47.000Z</Time>
            <Position>
              <LatitudeDegrees>-15.424957573413848876953125</LatitudeDegrees>
              <LongitudeDegrees>37.067647464573383331298828125</LongitudeDegrees>
            </Position>
            <AltitudeMeters>1192.800048828125</AltitudeMeters>
            <DistanceMeters>NAN</DistanceMeters>
          </Trackpoint>
          <Trackpoint>
            <Time>2021-08-03T11:03:53.000Z</Time>
            <Position>
              <LatitudeDegrees>-15.4250197671353816986083984375</LatitudeDegrees>
              <LongitudeDegrees>37.067626006901264190673828125</LongitudeDegrees>
            </Position>
            <AltitudeMeters>1192.4000244140625</AltitudeMeters>
            <DistanceMeters>NAN</DistanceMeters>
          </Trackpoint>
          <Trackpoint>
            <Time>2021-08-03T11:03:56.000Z</Time>
            <Position>
              <LatitudeDegrees>-15.42505052872002124786376953125</LatitudeDegrees>
              <LongitudeDegrees>37.06761435605585575103759765625</LongitudeDegrees>
            </Position>
            <AltitudeMeters>1192.199951171875</AltitudeMeters>
            <DistanceMeters>NAN</DistanceMeters>
          </Trackpoint>
          <Trackpoint>
            <Time>2021-08-03T11:03:59.000Z</Time>
            <Position>
              <LatitudeDegrees>-15.42508740909397602081298828125</LatitudeDegrees>
              <LongitudeDegrees>37.06759675405919551849365234375</LongitudeDegrees>
            </Position>
            <AltitudeMeters>1191.800048828125</AltitudeMeters>
            <DistanceMeters>NAN</DistanceMeters>
          </Trackpoint>
          <Trackpoint>
            <Time>2021-08-03T11:04:01.000Z</Time>
            <Position>
              <LatitudeDegrees>-15.4251109622418880462646484375</LatitudeDegrees>
              <LongitudeDegrees>37.06758610904216766357421875</LongitudeDegrees>
            </Position>
            <AltitudeMeters>1191.5999755859375</AltitudeMeters>
            <DistanceMeters>NAN</DistanceMeters>
          </Trackpoint>
          <Trackpoint>
            <Time>2021-08-03T11:04:05.000Z</Time>
            <Position>
              <LatitudeDegrees>-15.42515010572969913482666015625</LatitudeDegrees>
              <LongitudeDegrees>37.06757797859609127044677734375</LongitudeDegrees>
            </Position>
            <AltitudeMeters>1191.5999755859375</AltitudeMeters>
            <DistanceMeters>NAN</DistanceMeters>
          </Trackpoint>
          <Trackpoint>
            <Time>2021-08-03T11:04:13.000Z</Time>
            <Position>
              <LatitudeDegrees>-15.4252269677817821502685546875</LatitudeDegrees>
              <LongitudeDegrees>37.06756574101746082305908203125</LongitudeDegrees>
            </Position>
            <AltitudeMeters>1190.5999755859375</AltitudeMeters>
            <DistanceMeters>NAN</DistanceMeters>
          </Trackpoint>
          <Trackpoint>
            <Time>2021-08-03T11:04:14.000Z</Time>
            <Position>
              <LatitudeDegrees>-15.42523744516074657440185546875</LatitudeDegrees>
              <LongitudeDegrees>37.067562304437160491943359375</LongitudeDegrees>
            </Position>
            <AltitudeMeters>1190.4000244140625</AltitudeMeters>
            <DistanceMeters>NAN</DistanceMeters>
          </Trackpoint>
          <Trackpoint>
            <Time>2021-08-03T11:04:25.000Z</Time>
            <Position>
              <LatitudeDegrees>-15.42536191642284393310546875</LatitudeDegrees>
              <LongitudeDegrees>37.0675366558134555816650390625</LongitudeDegrees>
            </Position>
            <AltitudeMeters>1189.5999755859375</AltitudeMeters>
            <DistanceMeters>NAN</DistanceMeters>
          </Trackpoint>
          <Trackpoint>
            <Time>2021-08-03T11:04:26.000Z</Time>
            <Position>
              <LatitudeDegrees>-15.425375998020172119140625</LatitudeDegrees>
              <LongitudeDegrees>37.067536823451519012451171875</LongitudeDegrees>
            </Position>
            <AltitudeMeters>1189.5999755859375</AltitudeMeters>
            <DistanceMeters>NAN</DistanceMeters>
          </Trackpoint>
          <Trackpoint>
            <Time>2021-08-03T11:04:36.000Z</Time>
            <Position>
              <LatitudeDegrees>-15.42548571713268756866455078125</LatitudeDegrees>
              <LongitudeDegrees>37.0675182156264781951904296875</LongitudeDegrees>
            </Position>
            <AltitudeMeters>1189.5999755859375</AltitudeMeters>
            <DistanceMeters>NAN</DistanceMeters>
          </Trackpoint>
          <Trackpoint>
            <Time>2021-08-03T11:04:44.000Z</Time>
            <Position>
              <LatitudeDegrees>-15.42557624168694019317626953125</LatitudeDegrees>
              <LongitudeDegrees>37.06752316094934940338134765625</LongitudeDegrees>
            </Position>
            <AltitudeMeters>1189.800048828125</AltitudeMeters>
            <DistanceMeters>NAN</DistanceMeters>
          </Trackpoint>
          <Trackpoint>
            <Time>2021-08-03T11:04:46.000Z</Time>
            <Position>
              <LatitudeDegrees>-15.42559803463518619537353515625</LatitudeDegrees>
              <LongitudeDegrees>37.06752332858741283416748046875</LongitudeDegrees>
            </Position>
            <AltitudeMeters>1189.5999755859375</AltitudeMeters>
            <DistanceMeters>NAN</DistanceMeters>
          </Trackpoint>
          <Trackpoint>
            <Time>2021-08-03T11:04:57.000Z</Time>
            <Position>
              <LatitudeDegrees>-15.42571890167891979217529296875</LatitudeDegrees>
              <LongitudeDegrees>37.06751746125519275665283203125</LongitudeDegrees>
            </Position>
            <AltitudeMeters>1189.800048828125</AltitudeMeters>
            <DistanceMeters>NAN</DistanceMeters>
          </Trackpoint>
          <Trackpoint>
            <Time>2021-08-03T11:05:02.000Z</Time>
            <Position>
              <LatitudeDegrees>-15.42577019892632961273193359375</LatitudeDegrees>
              <LongitudeDegrees>37.06751293502748012542724609375</LongitudeDegrees>
            </Position>
            <AltitudeMeters>1189.800048828125</AltitudeMeters>
            <DistanceMeters>NAN</DistanceMeters>
          </Trackpoint>
          <Trackpoint>
            <Time>2021-08-03T11:05:12.000Z</Time>
            <Position>
              <LatitudeDegrees>-15.42587757110595703125</LatitudeDegrees>
              <LongitudeDegrees>37.06750337965786457061767578125</LongitudeDegrees>
            </Position>
            <AltitudeMeters>1189.800048828125</AltitudeMeters>
            <DistanceMeters>NAN</DistanceMeters>
          </Trackpoint>
          <Trackpoint>
            <Time>2021-08-03T11:05:21.000Z</Time>
            <Position>
              <LatitudeDegrees>-15.42598276399075984954833984375</LatitudeDegrees>
              <LongitudeDegrees>37.06748820841312408447265625</LongitudeDegrees>
            </Position>
            <AltitudeMeters>1190.199951171875</AltitudeMeters>
            <DistanceMeters>NAN</DistanceMeters>
          </Trackpoint>
          <Trackpoint>
            <Time>2021-08-03T11:05:27.000Z</Time>
            <Position>
              <LatitudeDegrees>-15.426050238311290740966796875</LatitudeDegrees>
              <LongitudeDegrees>37.0674836821854114532470703125</LongitudeDegrees>
            </Position>
            <AltitudeMeters>1190.5999755859375</AltitudeMeters>
            <DistanceMeters>NAN</DistanceMeters>
          </Trackpoint>
          <Trackpoint>
            <Time>2021-08-03T11:05:34.000Z</Time>
            <Position>
              <LatitudeDegrees>-15.42613062076270580291748046875</LatitudeDegrees>
              <LongitudeDegrees>37.06747504882514476776123046875</LongitudeDegrees>
            </Position>
            <AltitudeMeters>1190.800048828125</AltitudeMeters>
            <DistanceMeters>NAN</DistanceMeters>
          </Trackpoint>
          <Trackpoint>
            <Time>2021-08-03T11:05:45.000Z</Time>
            <Position>
              <LatitudeDegrees>-15.42624277062714099884033203125</LatitudeDegrees>
              <LongitudeDegrees>37.0674340613186359405517578125</LongitudeDegrees>
            </Position>
            <AltitudeMeters>1191.4000244140625</AltitudeMeters>
            <DistanceMeters>NAN</DistanceMeters>
          </Trackpoint>
          <Trackpoint>
            <Time>2021-08-03T11:05:54.000Z</Time>
            <Position>
              <LatitudeDegrees>-15.42634687386453151702880859375</LatitudeDegrees>
              <LongitudeDegrees>37.067393995821475982666015625</LongitudeDegrees>
            </Position>
            <AltitudeMeters>1191.199951171875</AltitudeMeters>
            <DistanceMeters>NAN</DistanceMeters>
          </Trackpoint>
          <Trackpoint>
            <Time>2021-08-03T11:05:57.000Z</Time>
            <Position>
              <LatitudeDegrees>-15.426376126706600189208984375</LatitudeDegrees>
              <LongitudeDegrees>37.067382596433162689208984375</LongitudeDegrees>
            </Position>
            <AltitudeMeters>1191</AltitudeMeters>
            <DistanceMeters>NAN</DistanceMeters>
          </Trackpoint>
          <Trackpoint>
            <Time>2021-08-03T11:05:59.000Z</Time>
            <Position>
              <LatitudeDegrees>-15.42639297433197498321533203125</LatitudeDegrees>
              <LongitudeDegrees>37.06737396307289600372314453125</LongitudeDegrees>
            </Position>
            <AltitudeMeters>1191</AltitudeMeters>
            <DistanceMeters>NAN</DistanceMeters>
          </Trackpoint>
          <Trackpoint>
            <Time>2021-08-03T11:06:09.000Z</Time>
            <Position>
              <LatitudeDegrees>-15.4264969937503337860107421875</LatitudeDegrees>
              <LongitudeDegrees>37.0673324726521968841552734375</LongitudeDegrees>
            </Position>
            <AltitudeMeters>1190.4000244140625</AltitudeMeters>
            <DistanceMeters>NAN</DistanceMeters>
          </Trackpoint>
          <Trackpoint>
            <Time>2021-08-03T11:06:11.000Z</Time>
            <Position>
              <LatitudeDegrees>-15.42652071453630924224853515625</LatitudeDegrees>
              <LongitudeDegrees>37.0673250965774059295654296875</LongitudeDegrees>
            </Position>
            <AltitudeMeters>1190.4000244140625</AltitudeMeters>
            <DistanceMeters>NAN</DistanceMeters>
          </Trackpoint>
          <Trackpoint>
            <Time>2021-08-03T11:06:15.000Z</Time>
            <Position>
              <LatitudeDegrees>-15.42655818164348602294921875</LatitudeDegrees>
              <LongitudeDegrees>37.0673177205026149749755859375</LongitudeDegrees>
            </Position>
            <AltitudeMeters>1190.4000244140625</AltitudeMeters>
            <DistanceMeters>NAN</DistanceMeters>
          </Trackpoint>
          <Trackpoint>
            <Time>2021-08-03T11:06:18.000Z</Time>
            <Position>
              <LatitudeDegrees>-15.426592715084552764892578125</LatitudeDegrees>
              <LongitudeDegrees>37.06730456091463565826416015625</LongitudeDegrees>
            </Position>
            <AltitudeMeters>1190.4000244140625</AltitudeMeters>
            <DistanceMeters>NAN</DistanceMeters>
          </Trackpoint>
          <Trackpoint>
            <Time>2021-08-03T11:06:21.000Z</Time>
            <Position>
              <LatitudeDegrees>-15.4266210459172725677490234375</LatitudeDegrees>
              <LongitudeDegrees>37.0672955922782421112060546875</LongitudeDegrees>
            </Position>
            <AltitudeMeters>1189.800048828125</AltitudeMeters>
            <DistanceMeters>NAN</DistanceMeters>
          </Trackpoint>
          <Trackpoint>
            <Time>2021-08-03T11:06:30.000Z</Time>
            <Position>
              <LatitudeDegrees>-15.426718108355998992919921875</LatitudeDegrees>
              <LongitudeDegrees>37.06727338023483753204345703125</LongitudeDegrees>
            </Position>
            <AltitudeMeters>1189.5999755859375</AltitudeMeters>
            <DistanceMeters>NAN</DistanceMeters>
          </Trackpoint>
          <Trackpoint>
            <Time>2021-08-03T11:06:34.000Z</Time>
            <Position>
              <LatitudeDegrees>-15.4267642088234424591064453125</LatitudeDegrees>
              <LongitudeDegrees>37.06726700998842716217041015625</LongitudeDegrees>
            </Position>
            <AltitudeMeters>1189.5999755859375</AltitudeMeters>
            <DistanceMeters>NAN</DistanceMeters>
          </Trackpoint>
          <Trackpoint>
            <Time>2021-08-03T11:06:41.000Z</Time>
            <Position>
              <LatitudeDegrees>-15.42679932899773120880126953125</LatitudeDegrees>
              <LongitudeDegrees>37.0672754757106304168701171875</LongitudeDegrees>
            </Position>
            <AltitudeMeters>1189.199951171875</AltitudeMeters>
            <DistanceMeters>NAN</DistanceMeters>
          </Trackpoint>
          <Trackpoint>
            <Time>2021-08-03T11:06:48.000Z</Time>
            <Position>
              <LatitudeDegrees>-15.42679983191192150115966796875</LatitudeDegrees>
              <LongitudeDegrees>37.0672778226435184478759765625</LongitudeDegrees>
            </Position>
            <AltitudeMeters>1189</AltitudeMeters>
            <DistanceMeters>NAN</DistanceMeters>
          </Trackpoint>
          <Trackpoint>
            <Time>2021-08-03T11:06:54.000Z</Time>
            <Position>
              <LatitudeDegrees>-15.42679664678871631622314453125</LatitudeDegrees>
              <LongitudeDegrees>37.06728008575737476348876953125</LongitudeDegrees>
            </Position>
            <AltitudeMeters>1189.199951171875</AltitudeMeters>
            <DistanceMeters>NAN</DistanceMeters>
          </Trackpoint>
          <Trackpoint>
            <Time>2021-08-03T11:06:56.000Z</Time>
            <Position>
              <LatitudeDegrees>-15.42679664678871631622314453125</LatitudeDegrees>
              <LongitudeDegrees>37.06728008575737476348876953125</LongitudeDegrees>
            </Position>
            <AltitudeMeters>1189.199951171875</AltitudeMeters>
            <DistanceMeters>NAN</DistanceMeters>
          </Trackpoint>
          <Trackpoint>
            <Time>2021-08-03T11:07:02.000Z</Time>
            <Position>
              <LatitudeDegrees>-15.42681961320340633392333984375</LatitudeDegrees>
              <LongitudeDegrees>37.06727371551096439361572265625</LongitudeDegrees>
            </Position>
            <AltitudeMeters>1188.800048828125</AltitudeMeters>
            <DistanceMeters>NAN</DistanceMeters>
          </Trackpoint>
          <Trackpoint>
            <Time>2021-08-03T11:07:04.000Z</Time>
            <Position>
              <LatitudeDegrees>-15.42685347609221935272216796875</LatitudeDegrees>
              <LongitudeDegrees>37.06727899610996246337890625</LongitudeDegrees>
            </Position>
            <AltitudeMeters>1189</AltitudeMeters>
            <DistanceMeters>NAN</DistanceMeters>
          </Trackpoint>
          <Trackpoint>
            <Time>2021-08-03T11:07:09.000Z</Time>
            <Position>
              <LatitudeDegrees>-15.4269311763346195220947265625</LatitudeDegrees>
              <LongitudeDegrees>37.0672650821506977081298828125</LongitudeDegrees>
            </Position>
            <AltitudeMeters>1189.199951171875</AltitudeMeters>
            <DistanceMeters>NAN</DistanceMeters>
          </Trackpoint>
          <Trackpoint>
            <Time>2021-08-03T11:07:13.000Z</Time>
            <Position>
              <LatitudeDegrees>-15.426978953182697296142578125</LatitudeDegrees>
              <LongitudeDegrees>37.0672553591430187225341796875</LongitudeDegrees>
            </Position>
            <AltitudeMeters>1189.199951171875</AltitudeMeters>
            <DistanceMeters>NAN</DistanceMeters>
          </Trackpoint>
          <Trackpoint>
            <Time>2021-08-03T11:07:18.000Z</Time>
            <Position>
              <LatitudeDegrees>-15.4270324297249317169189453125</LatitudeDegrees>
              <LongitudeDegrees>37.06723297946155071258544921875</LongitudeDegrees>
            </Position>
            <AltitudeMeters>1189.199951171875</AltitudeMeters>
            <DistanceMeters>NAN</DistanceMeters>
          </Trackpoint>
          <Trackpoint>
            <Time>2021-08-03T11:07:22.000Z</Time>
            <Position>
              <LatitudeDegrees>-15.42706168256700038909912109375</LatitudeDegrees>
              <LongitudeDegrees>37.06722132861614227294921875</LongitudeDegrees>
            </Position>
            <AltitudeMeters>1189.5999755859375</AltitudeMeters>
            <DistanceMeters>NAN</DistanceMeters>
          </Trackpoint>
          <Trackpoint>
            <Time>2021-08-03T11:07:32.000Z</Time>
            <Position>
              <LatitudeDegrees>-15.4271797835826873779296875</LatitudeDegrees>
              <LongitudeDegrees>37.06718553788959980010986328125</LongitudeDegrees>
            </Position>
            <AltitudeMeters>1190.199951171875</AltitudeMeters>
            <DistanceMeters>NAN</DistanceMeters>
          </Trackpoint>
          <Trackpoint>
            <Time>2021-08-03T11:07:40.000Z</Time>
            <Position>
              <LatitudeDegrees>-15.42723418213427066802978515625</LatitudeDegrees>
              <LongitudeDegrees>37.06714144907891750335693359375</LongitudeDegrees>
            </Position>
            <AltitudeMeters>1190.5999755859375</AltitudeMeters>
            <DistanceMeters>NAN</DistanceMeters>
          </Trackpoint>
          <Trackpoint>
            <Time>2021-08-03T11:07:51.000Z</Time>
            <Position>
              <LatitudeDegrees>-15.4273207671940326690673828125</LatitudeDegrees>
              <LongitudeDegrees>37.06706902943551540374755859375</LongitudeDegrees>
            </Position>
            <AltitudeMeters>1190.800048828125</AltitudeMeters>
            <DistanceMeters>NAN</DistanceMeters>
          </Trackpoint>
          <Trackpoint>
            <Time>2021-08-03T11:07:57.000Z</Time>
            <Position>
              <LatitudeDegrees>-15.42737835086882114410400390625</LatitudeDegrees>
              <LongitudeDegrees>37.06702259369194507598876953125</LongitudeDegrees>
            </Position>
            <AltitudeMeters>1190.5999755859375</AltitudeMeters>
            <DistanceMeters>NAN</DistanceMeters>
          </Trackpoint>
          <Trackpoint>
            <Time>2021-08-03T11:08:00.000Z</Time>
            <Position>
              <LatitudeDegrees>-15.42739997617900371551513671875</LatitudeDegrees>
              <LongitudeDegrees>37.06700415350496768951416015625</LongitudeDegrees>
            </Position>
            <AltitudeMeters>1190.5999755859375</AltitudeMeters>
            <DistanceMeters>NAN</DistanceMeters>
          </Trackpoint>
          <Trackpoint>
            <Time>2021-08-03T11:08:06.000Z</Time>
            <Position>
              <LatitudeDegrees>-15.427452363073825836181640625</LatitudeDegrees>
              <LongitudeDegrees>37.0669458992779254913330078125</LongitudeDegrees>
            </Position>
            <AltitudeMeters>1190.5999755859375</AltitudeMeters>
            <DistanceMeters>NAN</DistanceMeters>
          </Trackpoint>
          <Trackpoint>
            <Time>2021-08-03T11:08:07.000Z</Time>
            <Position>
              <LatitudeDegrees>-15.4274599067866802215576171875</LatitudeDegrees>
              <LongitudeDegrees>37.0669309794902801513671875</LongitudeDegrees>
            </Position>
            <AltitudeMeters>1190.5999755859375</AltitudeMeters>
            <DistanceMeters>NAN</DistanceMeters>
          </Trackpoint>
          <Trackpoint>
            <Time>2021-08-03T11:08:18.000Z</Time>
            <Position>
              <LatitudeDegrees>-15.4275470785796642303466796875</LatitudeDegrees>
              <LongitudeDegrees>37.066828720271587371826171875</LongitudeDegrees>
            </Position>
            <AltitudeMeters>1190.4000244140625</AltitudeMeters>
            <DistanceMeters>NAN</DistanceMeters>
          </Trackpoint>
          <Trackpoint>
            <Time>2021-08-03T11:08:21.000Z</Time>
            <Position>
              <LatitudeDegrees>-15.42756711132824420928955078125</LatitudeDegrees>
              <LongitudeDegrees>37.0668047480285167694091796875</LongitudeDegrees>
            </Position>
            <AltitudeMeters>1190.4000244140625</AltitudeMeters>
            <DistanceMeters>NAN</DistanceMeters>
          </Trackpoint>
          <Trackpoint>
            <Time>2021-08-03T11:08:26.000Z</Time>
            <Position>
              <LatitudeDegrees>-15.42760902084410190582275390625</LatitudeDegrees>
              <LongitudeDegrees>37.0667594857513904571533203125</LongitudeDegrees>
            </Position>
            <AltitudeMeters>1190.4000244140625</AltitudeMeters>
            <DistanceMeters>NAN</DistanceMeters>
          </Trackpoint>
          <Trackpoint>
            <Time>2021-08-03T11:08:38.000Z</Time>
            <Position>
              <LatitudeDegrees>-15.42771832086145877838134765625</LatitudeDegrees>
              <LongitudeDegrees>37.0666850544512271881103515625</LongitudeDegrees>
            </Position>
            <AltitudeMeters>1190.5999755859375</AltitudeMeters>
            <DistanceMeters>NAN</DistanceMeters>
          </Trackpoint>
          <Trackpoint>
            <Time>2021-08-03T11:08:40.000Z</Time>
            <Position>
              <LatitudeDegrees>-15.42773407883942127227783203125</LatitudeDegrees>
              <LongitudeDegrees>37.0666726492345333099365234375</LongitudeDegrees>
            </Position>
            <AltitudeMeters>1190.5999755859375</AltitudeMeters>
            <DistanceMeters>NAN</DistanceMeters>
          </Trackpoint>
          <Trackpoint>
            <Time>2021-08-03T11:08:47.000Z</Time>
            <Position>
              <LatitudeDegrees>-15.42779199779033660888671875</LatitudeDegrees>
              <LongitudeDegrees>37.0666438154876232147216796875</LongitudeDegrees>
            </Position>
            <AltitudeMeters>1190.4000244140625</AltitudeMeters>
            <DistanceMeters>NAN</DistanceMeters>
          </Trackpoint>
          <Trackpoint>
            <Time>2021-08-03T11:08:49.000Z</Time>
            <Position>
              <LatitudeDegrees>-15.42781068943440914154052734375</LatitudeDegrees>
              <LongitudeDegrees>37.06664272584021091461181640625</LongitudeDegrees>
            </Position>
            <AltitudeMeters>1190.199951171875</AltitudeMeters>
            <DistanceMeters>NAN</DistanceMeters>
          </Trackpoint>
          <Trackpoint>
            <Time>2021-08-03T11:08:53.000Z</Time>
            <Position>
              <LatitudeDegrees>-15.42785159312188625335693359375</LatitudeDegrees>
              <LongitudeDegrees>37.06663669086992740631103515625</LongitudeDegrees>
            </Position>
            <AltitudeMeters>1190.199951171875</AltitudeMeters>
            <DistanceMeters>NAN</DistanceMeters>
          </Trackpoint>
          <Trackpoint>
            <Time>2021-08-03T11:08:55.000Z</Time>
            <Position>
              <LatitudeDegrees>-15.4278691112995147705078125</LatitudeDegrees>
              <LongitudeDegrees>37.06662897951900959014892578125</LongitudeDegrees>
            </Position>
            <AltitudeMeters>1190.4000244140625</AltitudeMeters>
            <DistanceMeters>NAN</DistanceMeters>
          </Trackpoint>
          <Trackpoint>
            <Time>2021-08-03T11:09:05.000Z</Time>
            <Position>
              <LatitudeDegrees>-15.42797028087079524993896484375</LatitudeDegrees>
              <LongitudeDegrees>37.06661221571266651153564453125</LongitudeDegrees>
            </Position>
            <AltitudeMeters>1190.5999755859375</AltitudeMeters>
            <DistanceMeters>NAN</DistanceMeters>
          </Trackpoint>
          <Trackpoint>
            <Time>2021-08-03T11:09:16.000Z</Time>
            <Position>
              <LatitudeDegrees>-15.42808025144040584564208984375</LatitudeDegrees>
              <LongitudeDegrees>37.066643647849559783935546875</LongitudeDegrees>
            </Position>
            <AltitudeMeters>1191</AltitudeMeters>
            <DistanceMeters>NAN</DistanceMeters>
          </Trackpoint>
          <Trackpoint>
            <Time>2021-08-03T11:09:23.000Z</Time>
            <Position>
              <LatitudeDegrees>-15.42815116234123706817626953125</LatitudeDegrees>
              <LongitudeDegrees>37.06665110774338245391845703125</LongitudeDegrees>
            </Position>
            <AltitudeMeters>1191.5999755859375</AltitudeMeters>
            <DistanceMeters>NAN</DistanceMeters>
          </Trackpoint>
          <Trackpoint>
            <Time>2021-08-03T11:09:25.000Z</Time>
            <Position>
              <LatitudeDegrees>-15.428171195089817047119140625</LatitudeDegrees>
              <LongitudeDegrees>37.06665278412401676177978515625</LongitudeDegrees>
            </Position>
            <AltitudeMeters>1191.4000244140625</AltitudeMeters>
            <DistanceMeters>NAN</DistanceMeters>
          </Trackpoint>
          <Trackpoint>
            <Time>2021-08-03T11:09:35.000Z</Time>
            <Position>
              <LatitudeDegrees>-15.428279824554920196533203125</LatitudeDegrees>
              <LongitudeDegrees>37.06665513105690479278564453125</LongitudeDegrees>
            </Position>
            <AltitudeMeters>1192.5999755859375</AltitudeMeters>
            <DistanceMeters>NAN</DistanceMeters>
          </Trackpoint>
          <Trackpoint>
            <Time>2021-08-03T11:09:37.000Z</Time>
            <Position>
              <LatitudeDegrees>-15.42830086313188076019287109375</LatitudeDegrees>
              <LongitudeDegrees>37.06666552461683750152587890625</LongitudeDegrees>
            </Position>
            <AltitudeMeters>1192.800048828125</AltitudeMeters>
            <DistanceMeters>NAN</DistanceMeters>
          </Trackpoint>
          <Trackpoint>
            <Time>2021-08-03T11:09:40.000Z</Time>
            <Position>
              <LatitudeDegrees>-15.42833707295358180999755859375</LatitudeDegrees>
              <LongitudeDegrees>37.0666716434061527252197265625</LongitudeDegrees>
            </Position>
            <AltitudeMeters>1193.5999755859375</AltitudeMeters>
            <DistanceMeters>NAN</DistanceMeters>
          </Trackpoint>
          <Trackpoint>
            <Time>2021-08-03T11:09:45.000Z</Time>
            <Position>
              <LatitudeDegrees>-15.4283909685909748077392578125</LatitudeDegrees>
              <LongitudeDegrees>37.06663551740348339080810546875</LongitudeDegrees>
            </Position>
            <AltitudeMeters>1194.4000244140625</AltitudeMeters>
            <DistanceMeters>NAN</DistanceMeters>
          </Trackpoint>
          <Trackpoint>
            <Time>2021-08-03T11:09:48.000Z</Time>
            <Position>
              <LatitudeDegrees>-15.42841494083404541015625</LatitudeDegrees>
              <LongitudeDegrees>37.0666283927857875823974609375</LongitudeDegrees>
            </Position>
            <AltitudeMeters>1193</AltitudeMeters>
            <DistanceMeters>NAN</DistanceMeters>
          </Trackpoint>
          <Trackpoint>
            <Time>2021-08-03T11:09:53.000Z</Time>
            <Position>
              <LatitudeDegrees>-15.4284457862377166748046875</LatitudeDegrees>
              <LongitudeDegrees>37.06659276969730854034423828125</LongitudeDegrees>
            </Position>
            <AltitudeMeters>1193.199951171875</AltitudeMeters>
            <DistanceMeters>NAN</DistanceMeters>
          </Trackpoint>
          <Trackpoint>
            <Time>2021-08-03T11:10:00.000Z</Time>
            <Position>
              <LatitudeDegrees>-15.42850387282669544219970703125</LatitudeDegrees>
              <LongitudeDegrees>37.06656041555106639862060546875</LongitudeDegrees>
            </Position>
            <AltitudeMeters>1194.199951171875</AltitudeMeters>
            <DistanceMeters>NAN</DistanceMeters>
          </Trackpoint>
          <Trackpoint>
            <Time>2021-08-03T11:10:04.000Z</Time>
            <Position>
              <LatitudeDegrees>-15.428546369075775146484375</LatitudeDegrees>
              <LongitudeDegrees>37.0665197633206844329833984375</LongitudeDegrees>
            </Position>
            <AltitudeMeters>1193.199951171875</AltitudeMeters>
            <DistanceMeters>NAN</DistanceMeters>
          </Trackpoint>
          <Trackpoint>
            <Time>2021-08-03T11:10:07.000Z</Time>
            <Position>
              <LatitudeDegrees>-15.42857930995523929595947265625</LatitudeDegrees>
              <LongitudeDegrees>37.0664969645440578460693359375</LongitudeDegrees>
            </Position>
            <AltitudeMeters>1193</AltitudeMeters>
            <DistanceMeters>NAN</DistanceMeters>
          </Trackpoint>
          <Trackpoint>
            <Time>2021-08-03T11:10:10.000Z</Time>
            <Position>
              <LatitudeDegrees>-15.42861535213887691497802734375</LatitudeDegrees>
              <LongitudeDegrees>37.066473998129367828369140625</LongitudeDegrees>
            </Position>
            <AltitudeMeters>1192.800048828125</AltitudeMeters>
            <DistanceMeters>NAN</DistanceMeters>
          </Trackpoint>
          <Trackpoint>
            <Time>2021-08-03T11:10:13.000Z</Time>
            <Position>
              <LatitudeDegrees>-15.42865566909313201904296875</LatitudeDegrees>
              <LongitudeDegrees>37.06647290848195552825927734375</LongitudeDegrees>
            </Position>
            <AltitudeMeters>1192.800048828125</AltitudeMeters>
            <DistanceMeters>NAN</DistanceMeters>
          </Trackpoint>
          <Trackpoint>
            <Time>2021-08-03T11:10:14.000Z</Time>
            <Position>
              <LatitudeDegrees>-15.428667403757572174072265625</LatitudeDegrees>
              <LongitudeDegrees>37.06647098064422607421875</LongitudeDegrees>
            </Position>
            <AltitudeMeters>1192.5999755859375</AltitudeMeters>
            <DistanceMeters>NAN</DistanceMeters>
          </Trackpoint>
          <Trackpoint>
            <Time>2021-08-03T11:10:16.000Z</Time>
            <Position>
              <LatitudeDegrees>-15.42868877761065959930419921875</LatitudeDegrees>
              <LongitudeDegrees>37.06646519713103771209716796875</LongitudeDegrees>
            </Position>
            <AltitudeMeters>1192.4000244140625</AltitudeMeters>
            <DistanceMeters>NAN</DistanceMeters>
          </Trackpoint>
          <Trackpoint>
            <Time>2021-08-03T11:10:18.000Z</Time>
            <Position>
              <LatitudeDegrees>-15.42871207930147647857666015625</LatitudeDegrees>
              <LongitudeDegrees>37.066467963159084320068359375</LongitudeDegrees>
            </Position>
            <AltitudeMeters>1192.4000244140625</AltitudeMeters>
            <DistanceMeters>NAN</DistanceMeters>
          </Trackpoint>
          <Trackpoint>
            <Time>2021-08-03T11:10:20.000Z</Time>
            <Position>
              <LatitudeDegrees>-15.42872498743236064910888671875</LatitudeDegrees>
              <LongitudeDegrees>37.066473662853240966796875</LongitudeDegrees>
            </Position>
            <AltitudeMeters>1192.4000244140625</AltitudeMeters>
            <DistanceMeters>NAN</DistanceMeters>
          </Trackpoint>
          <Trackpoint>
            <Time>2021-08-03T11:10:23.000Z</Time>
            <Position>
              <LatitudeDegrees>-15.4287510551512241363525390625</LatitudeDegrees>
              <LongitudeDegrees>37.06646720878779888153076171875</LongitudeDegrees>
            </Position>
            <AltitudeMeters>1192.199951171875</AltitudeMeters>
            <DistanceMeters>NAN</DistanceMeters>
          </Trackpoint>
          <Trackpoint>
            <Time>2021-08-03T11:10:31.000Z</Time>
            <Position>
              <LatitudeDegrees>-15.42884434573352336883544921875</LatitudeDegrees>
              <LongitudeDegrees>37.06651498563587665557861328125</LongitudeDegrees>
            </Position>
            <AltitudeMeters>1192.5999755859375</AltitudeMeters>
            <DistanceMeters>NAN</DistanceMeters>
          </Trackpoint>
          <Trackpoint>
            <Time>2021-08-03T11:10:39.000Z</Time>
            <Position>
              <LatitudeDegrees>-15.42891827411949634552001953125</LatitudeDegrees>
              <LongitudeDegrees>37.06656259484589099884033203125</LongitudeDegrees>
            </Position>
            <AltitudeMeters>1193</AltitudeMeters>
            <DistanceMeters>NAN</DistanceMeters>
          </Trackpoint>
          <Trackpoint>
            <Time>2021-08-03T11:10:42.000Z</Time>
            <Position>
              <LatitudeDegrees>-15.42894610203802585601806640625</LatitudeDegrees>
              <LongitudeDegrees>37.0665817894041538238525390625</LongitudeDegrees>
            </Position>
            <AltitudeMeters>1193.199951171875</AltitudeMeters>
            <DistanceMeters>NAN</DistanceMeters>
          </Trackpoint>
          <Trackpoint>
            <Time>2021-08-03T11:10:45.000Z</Time>
            <Position>
              <LatitudeDegrees>-15.4289743490517139434814453125</LatitudeDegrees>
              <LongitudeDegrees>37.0665903389453887939453125</LongitudeDegrees>
            </Position>
            <AltitudeMeters>1193.4000244140625</AltitudeMeters>
            <DistanceMeters>NAN</DistanceMeters>
          </Trackpoint>
          <Trackpoint>
            <Time>2021-08-03T11:10:48.000Z</Time>
            <Position>
              <LatitudeDegrees>-15.42900712229311466217041015625</LatitudeDegrees>
              <LongitudeDegrees>37.06660098396241664886474609375</LongitudeDegrees>
            </Position>
            <AltitudeMeters>1193.4000244140625</AltitudeMeters>
            <DistanceMeters>NAN</DistanceMeters>
          </Trackpoint>
          <Trackpoint>
            <Time>2021-08-03T11:10:50.000Z</Time>
            <Position>
              <LatitudeDegrees>-15.4290259815752506256103515625</LatitudeDegrees>
              <LongitudeDegrees>37.06660953350365161895751953125</LongitudeDegrees>
            </Position>
            <AltitudeMeters>1193.800048828125</AltitudeMeters>
            <DistanceMeters>NAN</DistanceMeters>
          </Trackpoint>
          <Trackpoint>
            <Time>2021-08-03T11:10:58.000Z</Time>
            <Position>
              <LatitudeDegrees>-15.4291077889502048492431640625</LatitudeDegrees>
              <LongitudeDegrees>37.0666310749948024749755859375</LongitudeDegrees>
            </Position>
            <AltitudeMeters>1194</AltitudeMeters>
            <DistanceMeters>NAN</DistanceMeters>
          </Trackpoint>
          <Trackpoint>
            <Time>2021-08-03T11:11:00.000Z</Time>
            <Position>
              <LatitudeDegrees>-15.4291292466223239898681640625</LatitudeDegrees>
              <LongitudeDegrees>37.0666293986141681671142578125</LongitudeDegrees>
            </Position>
            <AltitudeMeters>1194</AltitudeMeters>
            <DistanceMeters>NAN</DistanceMeters>
          </Trackpoint>
          <Trackpoint>
            <Time>2021-08-03T11:11:02.000Z</Time>
            <Position>
              <LatitudeDegrees>-15.429152548313140869140625</LatitudeDegrees>
              <LongitudeDegrees>37.066626884043216705322265625</LongitudeDegrees>
            </Position>
            <AltitudeMeters>1194</AltitudeMeters>
            <DistanceMeters>NAN</DistanceMeters>
          </Trackpoint>
          <Trackpoint>
            <Time>2021-08-03T11:11:05.000Z</Time>
            <Position>
              <LatitudeDegrees>-15.42917928658425807952880859375</LatitudeDegrees>
              <LongitudeDegrees>37.06663124263286590576171875</LongitudeDegrees>
            </Position>
            <AltitudeMeters>1194</AltitudeMeters>
            <DistanceMeters>NAN</DistanceMeters>
          </Trackpoint>
          <Trackpoint>
            <Time>2021-08-03T11:11:14.000Z</Time>
            <Position>
              <LatitudeDegrees>-15.42927232570946216583251953125</LatitudeDegrees>
              <LongitudeDegrees>37.066613472998142242431640625</LongitudeDegrees>
            </Position>
            <AltitudeMeters>1194</AltitudeMeters>
            <DistanceMeters>NAN</DistanceMeters>
          </Trackpoint>
          <Trackpoint>
            <Time>2021-08-03T11:11:19.000Z</Time>
            <Position>
              <LatitudeDegrees>-15.42930937372148036956787109375</LatitudeDegrees>
              <LongitudeDegrees>37.06660333089530467987060546875</LongitudeDegrees>
            </Position>
            <AltitudeMeters>1193.800048828125</AltitudeMeters>
            <DistanceMeters>NAN</DistanceMeters>
          </Trackpoint>
          <Trackpoint>
            <Time>2021-08-03T11:11:23.000Z</Time>
            <Position>
              <LatitudeDegrees>-15.4293565638363361358642578125</LatitudeDegrees>
              <LongitudeDegrees>37.06659209914505481719970703125</LongitudeDegrees>
            </Position>
            <AltitudeMeters>1193.4000244140625</AltitudeMeters>
            <DistanceMeters>NAN</DistanceMeters>
          </Trackpoint>
          <Trackpoint>
            <Time>2021-08-03T11:11:25.000Z</Time>
            <Position>
              <LatitudeDegrees>-15.42937584221363067626953125</LatitudeDegrees>
              <LongitudeDegrees>37.0665861479938030242919921875</LongitudeDegrees>
            </Position>
            <AltitudeMeters>1193</AltitudeMeters>
            <DistanceMeters>NAN</DistanceMeters>
          </Trackpoint>
          <Trackpoint>
            <Time>2021-08-03T11:11:29.000Z</Time>
            <Position>
              <LatitudeDegrees>-15.42941364459693431854248046875</LatitudeDegrees>
              <LongitudeDegrees>37.06657650880515575408935546875</LongitudeDegrees>
            </Position>
            <AltitudeMeters>1192.5999755859375</AltitudeMeters>
            <DistanceMeters>NAN</DistanceMeters>
          </Trackpoint>
          <Trackpoint>
            <Time>2021-08-03T11:11:33.000Z</Time>
            <Position>
              <LatitudeDegrees>-15.4294574819505214691162109375</LatitudeDegrees>
              <LongitudeDegrees>37.06656955182552337646484375</LongitudeDegrees>
            </Position>
            <AltitudeMeters>1192.4000244140625</AltitudeMeters>
            <DistanceMeters>NAN</DistanceMeters>
          </Trackpoint>
          <Trackpoint>
            <Time>2021-08-03T11:11:36.000Z</Time>
            <Position>
              <LatitudeDegrees>-15.42948254384100437164306640625</LatitudeDegrees>
              <LongitudeDegrees>37.06656980328261852264404296875</LongitudeDegrees>
            </Position>
            <AltitudeMeters>1191.4000244140625</AltitudeMeters>
            <DistanceMeters>NAN</DistanceMeters>
          </Trackpoint>
          <Trackpoint>
            <Time>2021-08-03T11:11:42.000Z</Time>
            <Position>
              <LatitudeDegrees>-15.42955764569342136383056640625</LatitudeDegrees>
              <LongitudeDegrees>37.06656259484589099884033203125</LongitudeDegrees>
            </Position>
            <AltitudeMeters>1190.800048828125</AltitudeMeters>
            <DistanceMeters>NAN</DistanceMeters>
          </Trackpoint>
          <Trackpoint>
            <Time>2021-08-03T11:11:48.000Z</Time>
            <Position>
              <LatitudeDegrees>-15.429616235196590423583984375</LatitudeDegrees>
              <LongitudeDegrees>37.0665626786649227142333984375</LongitudeDegrees>
            </Position>
            <AltitudeMeters>1190.199951171875</AltitudeMeters>
            <DistanceMeters>NAN</DistanceMeters>
          </Trackpoint>
          <Trackpoint>
            <Time>2021-08-03T11:11:53.000Z</Time>
            <Position>
              <LatitudeDegrees>-15.4296790994703769683837890625</LatitudeDegrees>
              <LongitudeDegrees>37.06655773334205150604248046875</LongitudeDegrees>
            </Position>
            <AltitudeMeters>1189.4000244140625</AltitudeMeters>
            <DistanceMeters>NAN</DistanceMeters>
          </Trackpoint>
          <Trackpoint>
            <Time>2021-08-03T11:11:56.000Z</Time>
            <Position>
              <LatitudeDegrees>-15.4297106154263019561767578125</LatitudeDegrees>
              <LongitudeDegrees>37.0665599964559078216552734375</LongitudeDegrees>
            </Position>
            <AltitudeMeters>1189</AltitudeMeters>
            <DistanceMeters>NAN</DistanceMeters>
          </Trackpoint>
          <Trackpoint>
            <Time>2021-08-03T11:12:04.000Z</Time>
            <Position>
              <LatitudeDegrees>-15.429791249334812164306640625</LatitudeDegrees>
              <LongitudeDegrees>37.06656293012201786041259765625</LongitudeDegrees>
            </Position>
            <AltitudeMeters>1188.800048828125</AltitudeMeters>
            <DistanceMeters>NAN</DistanceMeters>
          </Trackpoint>
          <Trackpoint>
            <Time>2021-08-03T11:12:06.000Z</Time>
            <Position>
              <LatitudeDegrees>-15.42981077916920185089111328125</LatitudeDegrees>
              <LongitudeDegrees>37.06656209193170070648193359375</LongitudeDegrees>
            </Position>
            <AltitudeMeters>1188.5999755859375</AltitudeMeters>
            <DistanceMeters>NAN</DistanceMeters>
          </Trackpoint>
          <Trackpoint>
            <Time>2021-08-03T11:12:09.000Z</Time>
            <Position>
              <LatitudeDegrees>-15.42983709834516048431396484375</LatitudeDegrees>
              <LongitudeDegrees>37.06656376831233501434326171875</LongitudeDegrees>
            </Position>
            <AltitudeMeters>1188.199951171875</AltitudeMeters>
            <DistanceMeters>NAN</DistanceMeters>
          </Trackpoint>
          <Trackpoint>
            <Time>2021-08-03T11:12:12.000Z</Time>
            <Position>
              <LatitudeDegrees>-15.4298571310937404632568359375</LatitudeDegrees>
              <LongitudeDegrees>37.0665740780532360076904296875</LongitudeDegrees>
            </Position>
            <AltitudeMeters>1188</AltitudeMeters>
            <DistanceMeters>NAN</DistanceMeters>
          </Trackpoint>
          <Trackpoint>
            <Time>2021-08-03T11:12:17.000Z</Time>
            <Position>
              <LatitudeDegrees>-15.4298581369221210479736328125</LatitudeDegrees>
              <LongitudeDegrees>37.06656695343554019927978515625</LongitudeDegrees>
            </Position>
            <AltitudeMeters>1187.800048828125</AltitudeMeters>
            <DistanceMeters>NAN</DistanceMeters>
          </Trackpoint>
          <Trackpoint>
            <Time>2021-08-03T11:12:28.000Z</Time>
            <Position>
              <LatitudeDegrees>-15.4298876412212848663330078125</LatitudeDegrees>
              <LongitudeDegrees>37.06655505113303661346435546875</LongitudeDegrees>
            </Position>
            <AltitudeMeters>1187.800048828125</AltitudeMeters>
            <DistanceMeters>NAN</DistanceMeters>
          </Trackpoint>
          <Trackpoint>
            <Time>2021-08-03T11:12:31.000Z</Time>
            <Position>
              <LatitudeDegrees>-15.4299191571772098541259765625</LatitudeDegrees>
              <LongitudeDegrees>37.066547758877277374267578125</LongitudeDegrees>
            </Position>
            <AltitudeMeters>1187.800048828125</AltitudeMeters>
            <DistanceMeters>NAN</DistanceMeters>
          </Trackpoint>
          <Trackpoint>
            <Time>2021-08-03T11:12:34.000Z</Time>
            <Position>
              <LatitudeDegrees>-15.429949499666690826416015625</LatitudeDegrees>
              <LongitudeDegrees>37.066546417772769927978515625</LongitudeDegrees>
            </Position>
            <AltitudeMeters>1187.800048828125</AltitudeMeters>
            <DistanceMeters>NAN</DistanceMeters>
          </Trackpoint>
          <Trackpoint>
            <Time>2021-08-03T11:12:35.000Z</Time>
            <Position>
              <LatitudeDegrees>-15.42995964176952838897705078125</LatitudeDegrees>
              <LongitudeDegrees>37.06654013134539127349853515625</LongitudeDegrees>
            </Position>
            <AltitudeMeters>1187.800048828125</AltitudeMeters>
            <DistanceMeters>NAN</DistanceMeters>
          </Trackpoint>
          <Trackpoint>
            <Time>2021-08-03T11:12:36.000Z</Time>
            <Position>
              <LatitudeDegrees>-15.4299704544246196746826171875</LatitudeDegrees>
              <LongitudeDegrees>37.0665348507463932037353515625</LongitudeDegrees>
            </Position>
            <AltitudeMeters>1187.800048828125</AltitudeMeters>
            <DistanceMeters>NAN</DistanceMeters>
          </Trackpoint>
          <Trackpoint>
            <Time>2021-08-03T11:12:43.000Z</Time>
            <Position>
              <LatitudeDegrees>-15.43005452491343021392822265625</LatitudeDegrees>
              <LongitudeDegrees>37.06650341860949993133544921875</LongitudeDegrees>
            </Position>
            <AltitudeMeters>1187.4000244140625</AltitudeMeters>
            <DistanceMeters>NAN</DistanceMeters>
          </Trackpoint>
          <Trackpoint>
            <Time>2021-08-03T11:12:49.000Z</Time>
            <Position>
              <LatitudeDegrees>-15.43011923320591449737548828125</LatitudeDegrees>
              <LongitudeDegrees>37.06647559069097042083740234375</LongitudeDegrees>
            </Position>
            <AltitudeMeters>1187</AltitudeMeters>
            <DistanceMeters>NAN</DistanceMeters>
          </Trackpoint>
          <Trackpoint>
            <Time>2021-08-03T11:12:53.000Z</Time>
            <Position>
              <LatitudeDegrees>-15.43015343137085437774658203125</LatitudeDegrees>
              <LongitudeDegrees>37.0664597488939762115478515625</LongitudeDegrees>
            </Position>
            <AltitudeMeters>1186.4000244140625</AltitudeMeters>
            <DistanceMeters>NAN</DistanceMeters>
          </Trackpoint>
          <Trackpoint>
            <Time>2021-08-03T11:12:57.000Z</Time>
            <Position>
              <LatitudeDegrees>-15.430193245410919189453125</LatitudeDegrees>
              <LongitudeDegrees>37.06642873585224151611328125</LongitudeDegrees>
            </Position>
            <AltitudeMeters>1185.5999755859375</AltitudeMeters>
            <DistanceMeters>NAN</DistanceMeters>
          </Trackpoint>
          <Trackpoint>
            <Time>2021-08-03T11:13:03.000Z</Time>
            <Position>
              <LatitudeDegrees>-15.43023540638387203216552734375</LatitudeDegrees>
              <LongitudeDegrees>37.0663608424365520477294921875</LongitudeDegrees>
            </Position>
            <AltitudeMeters>1185</AltitudeMeters>
            <DistanceMeters>NAN</DistanceMeters>
          </Trackpoint>
          <Trackpoint>
            <Time>2021-08-03T11:13:08.000Z</Time>
            <Position>
              <LatitudeDegrees>-15.43027035892009735107421875</LatitudeDegrees>
              <LongitudeDegrees>37.0663189329206943511962890625</LongitudeDegrees>
            </Position>
            <AltitudeMeters>1184.5999755859375</AltitudeMeters>
            <DistanceMeters>NAN</DistanceMeters>
          </Trackpoint>
          <Trackpoint>
            <Time>2021-08-03T11:13:13.000Z</Time>
            <Position>
              <LatitudeDegrees>-15.43030665256083011627197265625</LatitudeDegrees>
              <LongitudeDegrees>37.06626922823488712310791015625</LongitudeDegrees>
            </Position>
            <AltitudeMeters>1184.199951171875</AltitudeMeters>
            <DistanceMeters>NAN</DistanceMeters>
          </Trackpoint>
          <Trackpoint>
            <Time>2021-08-03T11:13:22.000Z</Time>
            <Position>
              <LatitudeDegrees>-15.43037052266299724578857421875</LatitudeDegrees>
              <LongitudeDegrees>37.06619395874440670013427734375</LongitudeDegrees>
            </Position>
            <AltitudeMeters>1184.4000244140625</AltitudeMeters>
            <DistanceMeters>NAN</DistanceMeters>
          </Trackpoint>
          <Trackpoint>
            <Time>2021-08-03T11:13:33.000Z</Time>
            <Position>
              <LatitudeDegrees>-15.4304574429988861083984375</LatitudeDegrees>
              <LongitudeDegrees>37.0661097206175327301025390625</LongitudeDegrees>
            </Position>
            <AltitudeMeters>1184.4000244140625</AltitudeMeters>
            <DistanceMeters>NAN</DistanceMeters>
          </Trackpoint>
          <Trackpoint>
            <Time>2021-08-03T11:13:35.000Z</Time>
            <Position>
              <LatitudeDegrees>-15.430473871529102325439453125</LatitudeDegrees>
              <LongitudeDegrees>37.06609521992504596710205078125</LongitudeDegrees>
            </Position>
            <AltitudeMeters>1184.5999755859375</AltitudeMeters>
            <DistanceMeters>NAN</DistanceMeters>
          </Trackpoint>
          <Trackpoint>
            <Time>2021-08-03T11:13:44.000Z</Time>
            <Position>
              <LatitudeDegrees>-15.4305548407137393951416015625</LatitudeDegrees>
              <LongitudeDegrees>37.06604476086795330047607421875</LongitudeDegrees>
            </Position>
            <AltitudeMeters>1185.5999755859375</AltitudeMeters>
            <DistanceMeters>NAN</DistanceMeters>
          </Trackpoint>
          <Trackpoint>
            <Time>2021-08-03T11:13:46.000Z</Time>
            <Position>
              <LatitudeDegrees>-15.43057017959654331207275390625</LatitudeDegrees>
              <LongitudeDegrees>37.06603336147964000701904296875</LongitudeDegrees>
            </Position>
            <AltitudeMeters>1186</AltitudeMeters>
            <DistanceMeters>NAN</DistanceMeters>
          </Trackpoint>
          <Trackpoint>
            <Time>2021-08-03T11:13:58.000Z</Time>
            <Position>
              <LatitudeDegrees>-15.43067763559520244598388671875</LatitudeDegrees>
              <LongitudeDegrees>37.06597812473773956298828125</LongitudeDegrees>
            </Position>
            <AltitudeMeters>1185.800048828125</AltitudeMeters>
            <DistanceMeters>NAN</DistanceMeters>
          </Trackpoint>
          <Trackpoint>
            <Time>2021-08-03T11:14:10.000Z</Time>
            <Position>
              <LatitudeDegrees>-15.4308079741895198822021484375</LatitudeDegrees>
              <LongitudeDegrees>37.0659144222736358642578125</LongitudeDegrees>
            </Position>
            <AltitudeMeters>1185.199951171875</AltitudeMeters>
            <DistanceMeters>NAN</DistanceMeters>
          </Trackpoint>
          <Trackpoint>
            <Time>2021-08-03T11:14:24.000Z</Time>
            <Position>
              <LatitudeDegrees>-15.4309756122529506683349609375</LatitudeDegrees>
              <LongitudeDegrees>37.0658500492572784423828125</LongitudeDegrees>
            </Position>
            <AltitudeMeters>1185.199951171875</AltitudeMeters>
            <DistanceMeters>NAN</DistanceMeters>
          </Trackpoint>
          <Trackpoint>
            <Time>2021-08-03T11:14:35.000Z</Time>
            <Position>
              <LatitudeDegrees>-15.43109002523124217987060546875</LatitudeDegrees>
              <LongitudeDegrees>37.0657962374389171600341796875</LongitudeDegrees>
            </Position>
            <AltitudeMeters>1185.5999755859375</AltitudeMeters>
            <DistanceMeters>NAN</DistanceMeters>
          </Trackpoint>
          <Trackpoint>
            <Time>2021-08-03T11:14:43.000Z</Time>
            <Position>
              <LatitudeDegrees>-15.43117024004459381103515625</LatitudeDegrees>
              <LongitudeDegrees>37.0657409168779850006103515625</LongitudeDegrees>
            </Position>
            <AltitudeMeters>1185</AltitudeMeters>
            <DistanceMeters>NAN</DistanceMeters>
          </Trackpoint>
          <Trackpoint>
            <Time>2021-08-03T11:14:46.000Z</Time>
            <Position>
              <LatitudeDegrees>-15.4311908595263957977294921875</LatitudeDegrees>
              <LongitudeDegrees>37.0657184533774852752685546875</LongitudeDegrees>
            </Position>
            <AltitudeMeters>1184.800048828125</AltitudeMeters>
            <DistanceMeters>NAN</DistanceMeters>
          </Trackpoint>
          <Trackpoint>
            <Time>2021-08-03T11:14:47.000Z</Time>
            <Position>
              <LatitudeDegrees>-15.43119882233440876007080078125</LatitudeDegrees>
              <LongitudeDegrees>37.06570990383625030517578125</LongitudeDegrees>
            </Position>
            <AltitudeMeters>1184.5999755859375</AltitudeMeters>
            <DistanceMeters>NAN</DistanceMeters>
          </Trackpoint>
          <Trackpoint>
            <Time>2021-08-03T11:14:52.000Z</Time>
            <Position>
              <LatitudeDegrees>-15.43123486451804637908935546875</LatitudeDegrees>
              <LongitudeDegrees>37.06567545421421527862548828125</LongitudeDegrees>
            </Position>
            <AltitudeMeters>1183.5999755859375</AltitudeMeters>
            <DistanceMeters>NAN</DistanceMeters>
          </Trackpoint>
          <Trackpoint>
            <Time>2021-08-03T11:14:55.000Z</Time>
            <Position>
              <LatitudeDegrees>-15.431263111531734466552734375</LatitudeDegrees>
              <LongitudeDegrees>37.06564209423959255218505859375</LongitudeDegrees>
            </Position>
            <AltitudeMeters>1182.800048828125</AltitudeMeters>
            <DistanceMeters>NAN</DistanceMeters>
          </Trackpoint>
          <Trackpoint>
            <Time>2021-08-03T11:15:04.000Z</Time>
            <Position>
              <LatitudeDegrees>-15.43134433217346668243408203125</LatitudeDegrees>
              <LongitudeDegrees>37.06557034514844417572021484375</LongitudeDegrees>
            </Position>
            <AltitudeMeters>1183.199951171875</AltitudeMeters>
            <DistanceMeters>NAN</DistanceMeters>
          </Trackpoint>
          <Trackpoint>
            <Time>2021-08-03T11:15:08.000Z</Time>
            <Position>
              <LatitudeDegrees>-15.43138305656611919403076171875</LatitudeDegrees>
              <LongitudeDegrees>37.06553715281188488006591796875</LongitudeDegrees>
            </Position>
            <AltitudeMeters>1181.199951171875</AltitudeMeters>
            <DistanceMeters>NAN</DistanceMeters>
          </Trackpoint>
          <Trackpoint>
            <Time>2021-08-03T11:15:16.000Z</Time>
            <Position>
              <LatitudeDegrees>-15.4314751736819744110107421875</LatitudeDegrees>
              <LongitudeDegrees>37.0654602907598018646240234375</LongitudeDegrees>
            </Position>
            <AltitudeMeters>1181.4000244140625</AltitudeMeters>
            <DistanceMeters>NAN</DistanceMeters>
          </Trackpoint>
          <Trackpoint>
            <Time>2021-08-03T11:15:20.000Z</Time>
            <Position>
              <LatitudeDegrees>-15.43150912038981914520263671875</LatitudeDegrees>
              <LongitudeDegrees>37.0654327981173992156982421875</LongitudeDegrees>
            </Position>
            <AltitudeMeters>1180.199951171875</AltitudeMeters>
            <DistanceMeters>NAN</DistanceMeters>
          </Trackpoint>
          <Trackpoint>
            <Time>2021-08-03T11:15:27.000Z</Time>
            <Position>
              <LatitudeDegrees>-15.43158254586160182952880859375</LatitudeDegrees>
              <LongitudeDegrees>37.06537655554711818695068359375</LongitudeDegrees>
            </Position>
            <AltitudeMeters>1179.800048828125</AltitudeMeters>
            <DistanceMeters>NAN</DistanceMeters>
          </Trackpoint>
          <Trackpoint>
            <Time>2021-08-03T11:15:39.000Z</Time>
            <Position>
              <LatitudeDegrees>-15.431702323257923126220703125</LatitudeDegrees>
              <LongitudeDegrees>37.06529273651540279388427734375</LongitudeDegrees>
            </Position>
            <AltitudeMeters>1179.4000244140625</AltitudeMeters>
            <DistanceMeters>NAN</DistanceMeters>
          </Trackpoint>
          <Trackpoint>
            <Time>2021-08-03T11:15:41.000Z</Time>
            <Position>
              <LatitudeDegrees>-15.43172285892069339752197265625</LatitudeDegrees>
              <LongitudeDegrees>37.06527496688067913055419921875</LongitudeDegrees>
            </Position>
            <AltitudeMeters>1179.199951171875</AltitudeMeters>
            <DistanceMeters>NAN</DistanceMeters>
          </Trackpoint>
          <Trackpoint>
            <Time>2021-08-03T11:15:51.000Z</Time>
            <Position>
              <LatitudeDegrees>-15.4318200051784515380859375</LatitudeDegrees>
              <LongitudeDegrees>37.06518360413610935211181640625</LongitudeDegrees>
            </Position>
            <AltitudeMeters>1177.800048828125</AltitudeMeters>
            <DistanceMeters>NAN</DistanceMeters>
          </Trackpoint>
          <Trackpoint>
            <Time>2021-08-03T11:16:00.000Z</Time>
            <Position>
              <LatitudeDegrees>-15.4319150559604167938232421875</LatitudeDegrees>
              <LongitudeDegrees>37.0651112683117389678955078125</LongitudeDegrees>
            </Position>
            <AltitudeMeters>1177</AltitudeMeters>
            <DistanceMeters>NAN</DistanceMeters>
          </Trackpoint>
          <Trackpoint>
            <Time>2021-08-03T11:16:05.000Z</Time>
            <Position>
              <LatitudeDegrees>-15.43197222054004669189453125</LatitudeDegrees>
              <LongitudeDegrees>37.065089978277683258056640625</LongitudeDegrees>
            </Position>
            <AltitudeMeters>1176.5999755859375</AltitudeMeters>
            <DistanceMeters>NAN</DistanceMeters>
          </Trackpoint>
          <Trackpoint>
            <Time>2021-08-03T11:16:09.000Z</Time>
            <Position>
              <LatitudeDegrees>-15.43201622553169727325439453125</LatitudeDegrees>
              <LongitudeDegrees>37.0650727115571498870849609375</LongitudeDegrees>
            </Position>
            <AltitudeMeters>1175.199951171875</AltitudeMeters>
            <DistanceMeters>NAN</DistanceMeters>
          </Trackpoint>
          <Trackpoint>
            <Time>2021-08-03T11:16:15.000Z</Time>
            <Position>
              <LatitudeDegrees>-15.43207640759646892547607421875</LatitudeDegrees>
              <LongitudeDegrees>37.06504178233444690704345703125</LongitudeDegrees>
            </Position>
            <AltitudeMeters>1174</AltitudeMeters>
            <DistanceMeters>NAN</DistanceMeters>
          </Trackpoint>
          <Trackpoint>
            <Time>2021-08-03T11:16:16.000Z</Time>
            <Position>
              <LatitudeDegrees>-15.4320882260799407958984375</LatitudeDegrees>
              <LongitudeDegrees>37.065034992992877960205078125</LongitudeDegrees>
            </Position>
            <AltitudeMeters>1173.5999755859375</AltitudeMeters>
            <DistanceMeters>NAN</DistanceMeters>
          </Trackpoint>
          <Trackpoint>
            <Time>2021-08-03T11:16:19.000Z</Time>
            <Position>
              <LatitudeDegrees>-15.4321256093680858612060546875</LatitudeDegrees>
              <LongitudeDegrees>37.065012194216251373291015625</LongitudeDegrees>
            </Position>
            <AltitudeMeters>1172.800048828125</AltitudeMeters>
            <DistanceMeters>NAN</DistanceMeters>
          </Trackpoint>
          <Trackpoint>
            <Time>2021-08-03T11:16:27.000Z</Time>
            <Position>
              <LatitudeDegrees>-15.43222694657742977142333984375</LatitudeDegrees>
              <LongitudeDegrees>37.06494539044797420501708984375</LongitudeDegrees>
            </Position>
            <AltitudeMeters>1172.5999755859375</AltitudeMeters>
            <DistanceMeters>NAN</DistanceMeters>
          </Trackpoint>
          <Trackpoint>
            <Time>2021-08-03T11:16:34.000Z</Time>
            <Position>
              <LatitudeDegrees>-15.43228394351899623870849609375</LatitudeDegrees>
              <LongitudeDegrees>37.0648956857621669769287109375</LongitudeDegrees>
            </Position>
            <AltitudeMeters>1172.199951171875</AltitudeMeters>
            <DistanceMeters>NAN</DistanceMeters>
          </Trackpoint>
          <Trackpoint>
            <Time>2021-08-03T11:16:46.000Z</Time>
            <Position>
              <LatitudeDegrees>-15.4324126057326793670654296875</LatitudeDegrees>
              <LongitudeDegrees>37.0648225955665111541748046875</LongitudeDegrees>
            </Position>
            <AltitudeMeters>1171.800048828125</AltitudeMeters>
            <DistanceMeters>NAN</DistanceMeters>
          </Trackpoint>
          <Trackpoint>
            <Time>2021-08-03T11:16:56.000Z</Time>
            <Position>
              <LatitudeDegrees>-15.43250790797173976898193359375</LatitudeDegrees>
              <LongitudeDegrees>37.06472377292811870574951171875</LongitudeDegrees>
            </Position>
            <AltitudeMeters>1171.4000244140625</AltitudeMeters>
            <DistanceMeters>NAN</DistanceMeters>
          </Trackpoint>
          <Trackpoint>
            <Time>2021-08-03T11:17:05.000Z</Time>
            <Position>
              <LatitudeDegrees>-15.432591140270233154296875</LatitudeDegrees>
              <LongitudeDegrees>37.06464632414281368255615234375</LongitudeDegrees>
            </Position>
            <AltitudeMeters>1171.199951171875</AltitudeMeters>
            <DistanceMeters>NAN</DistanceMeters>
          </Trackpoint>
          <Trackpoint>
            <Time>2021-08-03T11:17:15.000Z</Time>
            <Position>
              <LatitudeDegrees>-15.43270111083984375</LatitudeDegrees>
              <LongitudeDegrees>37.06457524560391902923583984375</LongitudeDegrees>
            </Position>
            <AltitudeMeters>1171</AltitudeMeters>
            <DistanceMeters>NAN</DistanceMeters>
          </Trackpoint>
          <Trackpoint>
            <Time>2021-08-03T11:17:18.000Z</Time>
            <Position>
              <LatitudeDegrees>-15.43273036368191242218017578125</LatitudeDegrees>
              <LongitudeDegrees>37.064560912549495697021484375</LongitudeDegrees>
            </Position>
            <AltitudeMeters>1170.800048828125</AltitudeMeters>
            <DistanceMeters>NAN</DistanceMeters>
          </Trackpoint>
          <Trackpoint>
            <Time>2021-08-03T11:17:25.000Z</Time>
            <Position>
              <LatitudeDegrees>-15.43282625265419483184814453125</LatitudeDegrees>
              <LongitudeDegrees>37.0645298995077610015869140625</LongitudeDegrees>
            </Position>
            <AltitudeMeters>1170.800048828125</AltitudeMeters>
            <DistanceMeters>NAN</DistanceMeters>
          </Trackpoint>
          <Trackpoint>
            <Time>2021-08-03T11:17:31.000Z</Time>
            <Position>
              <LatitudeDegrees>-15.43289431370794773101806640625</LatitudeDegrees>
              <LongitudeDegrees>37.06450098194181919097900390625</LongitudeDegrees>
            </Position>
            <AltitudeMeters>1170.4000244140625</AltitudeMeters>
            <DistanceMeters>NAN</DistanceMeters>
          </Trackpoint>
          <Trackpoint>
            <Time>2021-08-03T11:17:33.000Z</Time>
            <Position>
              <LatitudeDegrees>-15.43291644193232059478759765625</LatitudeDegrees>
              <LongitudeDegrees>37.06449260003864765167236328125</LongitudeDegrees>
            </Position>
            <AltitudeMeters>1170.199951171875</AltitudeMeters>
            <DistanceMeters>NAN</DistanceMeters>
          </Trackpoint>
          <Trackpoint>
            <Time>2021-08-03T11:17:37.000Z</Time>
            <Position>
              <LatitudeDegrees>-15.43296673335134983062744140625</LatitudeDegrees>
              <LongitudeDegrees>37.06447550095617771148681640625</LongitudeDegrees>
            </Position>
            <AltitudeMeters>1169.800048828125</AltitudeMeters>
            <DistanceMeters>NAN</DistanceMeters>
          </Trackpoint>
          <Trackpoint>
            <Time>2021-08-03T11:17:39.000Z</Time>
            <Position>
              <LatitudeDegrees>-15.4329912923276424407958984375</LatitudeDegrees>
              <LongitudeDegrees>37.06446728669106960296630859375</LongitudeDegrees>
            </Position>
            <AltitudeMeters>1169.800048828125</AltitudeMeters>
            <DistanceMeters>NAN</DistanceMeters>
          </Trackpoint>
          <Trackpoint>
            <Time>2021-08-03T11:17:48.000Z</Time>
            <Position>
              <LatitudeDegrees>-15.4331052862107753753662109375</LatitudeDegrees>
              <LongitudeDegrees>37.06443510018289089202880859375</LongitudeDegrees>
            </Position>
            <AltitudeMeters>1169.199951171875</AltitudeMeters>
            <DistanceMeters>NAN</DistanceMeters>
          </Trackpoint>
          <Trackpoint>
            <Time>2021-08-03T11:17:49.000Z</Time>
            <Position>
              <LatitudeDegrees>-15.4331150092184543609619140625</LatitudeDegrees>
              <LongitudeDegrees>37.0644316636025905609130859375</LongitudeDegrees>
            </Position>
            <AltitudeMeters>1168.800048828125</AltitudeMeters>
            <DistanceMeters>NAN</DistanceMeters>
          </Trackpoint>
          <Trackpoint>
            <Time>2021-08-03T11:17:52.000Z</Time>
            <Position>
              <LatitudeDegrees>-15.4331468604505062103271484375</LatitudeDegrees>
              <LongitudeDegrees>37.06442286260426044464111328125</LongitudeDegrees>
            </Position>
            <AltitudeMeters>1168.800048828125</AltitudeMeters>
            <DistanceMeters>NAN</DistanceMeters>
          </Trackpoint>
          <Trackpoint>
            <Time>2021-08-03T11:17:56.000Z</Time>
            <Position>
              <LatitudeDegrees>-15.43319924734532833099365234375</LatitudeDegrees>
              <LongitudeDegrees>37.0644246228039264678955078125</LongitudeDegrees>
            </Position>
            <AltitudeMeters>1168.199951171875</AltitudeMeters>
            <DistanceMeters>NAN</DistanceMeters>
          </Trackpoint>
          <Trackpoint>
            <Time>2021-08-03T11:18:00.000Z</Time>
            <Position>
              <LatitudeDegrees>-15.43324652127921581268310546875</LatitudeDegrees>
              <LongitudeDegrees>37.06442487426102161407470703125</LongitudeDegrees>
            </Position>
            <AltitudeMeters>1168</AltitudeMeters>
            <DistanceMeters>NAN</DistanceMeters>
          </Trackpoint>
          <Trackpoint>
            <Time>2021-08-03T11:18:04.000Z</Time>
            <Position>
              <LatitudeDegrees>-15.43328708969056606292724609375</LatitudeDegrees>
              <LongitudeDegrees>37.0644273050129413604736328125</LongitudeDegrees>
            </Position>
            <AltitudeMeters>1167.800048828125</AltitudeMeters>
            <DistanceMeters>NAN</DistanceMeters>
          </Trackpoint>
          <Trackpoint>
            <Time>2021-08-03T11:18:06.000Z</Time>
            <Position>
              <LatitudeDegrees>-15.433311648666858673095703125</LatitudeDegrees>
              <LongitudeDegrees>37.06443510018289089202880859375</LongitudeDegrees>
            </Position>
            <AltitudeMeters>1167.5999755859375</AltitudeMeters>
            <DistanceMeters>NAN</DistanceMeters>
          </Trackpoint>
          <Trackpoint>
            <Time>2021-08-03T11:18:10.000Z</Time>
            <Position>
              <LatitudeDegrees>-15.43336939997971057891845703125</LatitudeDegrees>
              <LongitudeDegrees>37.064451277256011962890625</LongitudeDegrees>
            </Position>
            <AltitudeMeters>1167.4000244140625</AltitudeMeters>
            <DistanceMeters>NAN</DistanceMeters>
          </Trackpoint>
          <Trackpoint>
            <Time>2021-08-03T11:18:21.000Z</Time>
            <Position>
              <LatitudeDegrees>-15.43349973857402801513671875</LatitudeDegrees>
              <LongitudeDegrees>37.06447533331811428070068359375</LongitudeDegrees>
            </Position>
            <AltitudeMeters>1167.5999755859375</AltitudeMeters>
            <DistanceMeters>NAN</DistanceMeters>
          </Trackpoint>
          <Trackpoint>
            <Time>2021-08-03T11:18:24.000Z</Time>
            <Position>
              <LatitudeDegrees>-15.43353418819606304168701171875</LatitudeDegrees>
              <LongitudeDegrees>37.0644859783351421356201171875</LongitudeDegrees>
            </Position>
            <AltitudeMeters>1167.5999755859375</AltitudeMeters>
            <DistanceMeters>NAN</DistanceMeters>
          </Trackpoint>
          <Trackpoint>
            <Time>2021-08-03T11:18:33.000Z</Time>
            <Position>
              <LatitudeDegrees>-15.43364189565181732177734375</LatitudeDegrees>
              <LongitudeDegrees>37.064523361623287200927734375</LongitudeDegrees>
            </Position>
            <AltitudeMeters>1168</AltitudeMeters>
            <DistanceMeters>NAN</DistanceMeters>
          </Trackpoint>
          <Trackpoint>
            <Time>2021-08-03T11:18:42.000Z</Time>
            <Position>
              <LatitudeDegrees>-15.43374708853662014007568359375</LatitudeDegrees>
              <LongitudeDegrees>37.0645563863217830657958984375</LongitudeDegrees>
            </Position>
            <AltitudeMeters>1167.4000244140625</AltitudeMeters>
            <DistanceMeters>NAN</DistanceMeters>
          </Trackpoint>
          <Trackpoint>
            <Time>2021-08-03T11:18:45.000Z</Time>
            <Position>
              <LatitudeDegrees>-15.4337895847856998443603515625</LatitudeDegrees>
              <LongitudeDegrees>37.0645677857100963592529296875</LongitudeDegrees>
            </Position>
            <AltitudeMeters>1167.199951171875</AltitudeMeters>
            <DistanceMeters>NAN</DistanceMeters>
          </Trackpoint>
          <Trackpoint>
            <Time>2021-08-03T11:18:50.000Z</Time>
            <Position>
              <LatitudeDegrees>-15.4338405467569828033447265625</LatitudeDegrees>
              <LongitudeDegrees>37.06458195112645626068115234375</LongitudeDegrees>
            </Position>
            <AltitudeMeters>1166.5999755859375</AltitudeMeters>
            <DistanceMeters>NAN</DistanceMeters>
          </Trackpoint>
          <Trackpoint>
            <Time>2021-08-03T11:18:54.000Z</Time>
            <Position>
              <LatitudeDegrees>-15.43388606049120426177978515625</LatitudeDegrees>
              <LongitudeDegrees>37.0645892433822154998779296875</LongitudeDegrees>
            </Position>
            <AltitudeMeters>1166.4000244140625</AltitudeMeters>
            <DistanceMeters>NAN</DistanceMeters>
          </Trackpoint>
          <Trackpoint>
            <Time>2021-08-03T11:18:57.000Z</Time>
            <Position>
              <LatitudeDegrees>-15.43392880819737911224365234375</LatitudeDegrees>
              <LongitudeDegrees>37.06460416316986083984375</LongitudeDegrees>
            </Position>
            <AltitudeMeters>1166.199951171875</AltitudeMeters>
            <DistanceMeters>NAN</DistanceMeters>
          </Trackpoint>
          <Trackpoint>
            <Time>2021-08-03T11:19:03.000Z</Time>
            <Position>
              <LatitudeDegrees>-15.43399284593760967254638671875</LatitudeDegrees>
              <LongitudeDegrees>37.0646334998309612274169921875</LongitudeDegrees>
            </Position>
            <AltitudeMeters>1165.5999755859375</AltitudeMeters>
            <DistanceMeters>NAN</DistanceMeters>
          </Trackpoint>
          <Trackpoint>
            <Time>2021-08-03T11:19:04.000Z</Time>
            <Position>
              <LatitudeDegrees>-15.434001982212066650390625</LatitudeDegrees>
              <LongitudeDegrees>37.0646351762115955352783203125</LongitudeDegrees>
            </Position>
            <AltitudeMeters>1165.5999755859375</AltitudeMeters>
            <DistanceMeters>NAN</DistanceMeters>
          </Trackpoint>
          <Trackpoint>
            <Time>2021-08-03T11:19:13.000Z</Time>
            <Position>
              <LatitudeDegrees>-15.43411798775196075439453125</LatitudeDegrees>
              <LongitudeDegrees>37.0646733976900577545166015625</LongitudeDegrees>
            </Position>
            <AltitudeMeters>1165.199951171875</AltitudeMeters>
            <DistanceMeters>NAN</DistanceMeters>
          </Trackpoint>
          <Trackpoint>
            <Time>2021-08-03T11:19:17.000Z</Time>
            <Position>
              <LatitudeDegrees>-15.434147156774997711181640625</LatitudeDegrees>
              <LongitudeDegrees>37.0646894909441471099853515625</LongitudeDegrees>
            </Position>
            <AltitudeMeters>1164.5999755859375</AltitudeMeters>
            <DistanceMeters>NAN</DistanceMeters>
          </Trackpoint>
          <Trackpoint>
            <Time>2021-08-03T11:19:18.000Z</Time>
            <Position>
              <LatitudeDegrees>-15.43415629304945468902587890625</LatitudeDegrees>
              <LongitudeDegrees>37.06469393335282802581787109375</LongitudeDegrees>
            </Position>
            <AltitudeMeters>1164.5999755859375</AltitudeMeters>
            <DistanceMeters>NAN</DistanceMeters>
          </Trackpoint>
          <Trackpoint>
            <Time>2021-08-03T11:19:20.000Z</Time>
            <Position>
              <LatitudeDegrees>-15.43417590670287609100341796875</LatitudeDegrees>
              <LongitudeDegrees>37.06470449455082416534423828125</LongitudeDegrees>
            </Position>
            <AltitudeMeters>1164.4000244140625</AltitudeMeters>
            <DistanceMeters>NAN</DistanceMeters>
          </Trackpoint>
          <Trackpoint>
            <Time>2021-08-03T11:19:24.000Z</Time>
            <Position>
              <LatitudeDegrees>-15.43422318063676357269287109375</LatitudeDegrees>
              <LongitudeDegrees>37.064729891717433929443359375</LongitudeDegrees>
            </Position>
            <AltitudeMeters>1163.4000244140625</AltitudeMeters>
            <DistanceMeters>NAN</DistanceMeters>
          </Trackpoint>
          <Trackpoint>
            <Time>2021-08-03T11:19:31.000Z</Time>
            <Position>
              <LatitudeDegrees>-15.43430498801171779632568359375</LatitudeDegrees>
              <LongitudeDegrees>37.06479703076183795928955078125</LongitudeDegrees>
            </Position>
            <AltitudeMeters>1162.5999755859375</AltitudeMeters>
            <DistanceMeters>NAN</DistanceMeters>
          </Trackpoint>
          <Trackpoint>
            <Time>2021-08-03T11:19:32.000Z</Time>
            <Position>
              <LatitudeDegrees>-15.43431538157165050506591796875</LatitudeDegrees>
              <LongitudeDegrees>37.0648054964840412139892578125</LongitudeDegrees>
            </Position>
            <AltitudeMeters>1162.5999755859375</AltitudeMeters>
            <DistanceMeters>NAN</DistanceMeters>
          </Trackpoint>
          <Trackpoint>
            <Time>2021-08-03T11:19:33.000Z</Time>
            <Position>
              <LatitudeDegrees>-15.434325523674488067626953125</LatitudeDegrees>
              <LongitudeDegrees>37.0648115314543247222900390625</LongitudeDegrees>
            </Position>
            <AltitudeMeters>1162.4000244140625</AltitudeMeters>
            <DistanceMeters>NAN</DistanceMeters>
          </Trackpoint>
          <Trackpoint>
            <Time>2021-08-03T11:19:38.000Z</Time>
            <Position>
              <LatitudeDegrees>-15.4343676008284091949462890625</LatitudeDegrees>
              <LongitudeDegrees>37.06484891474246978759765625</LongitudeDegrees>
            </Position>
            <AltitudeMeters>1161</AltitudeMeters>
            <DistanceMeters>NAN</DistanceMeters>
          </Trackpoint>
          <Trackpoint>
            <Time>2021-08-03T11:19:41.000Z</Time>
            <Position>
              <LatitudeDegrees>-15.434393249452114105224609375</LatitudeDegrees>
              <LongitudeDegrees>37.06486769020557403564453125</LongitudeDegrees>
            </Position>
            <AltitudeMeters>1161</AltitudeMeters>
            <DistanceMeters>NAN</DistanceMeters>
          </Trackpoint>
          <Trackpoint>
            <Time>2021-08-03T11:19:47.000Z</Time>
            <Position>
              <LatitudeDegrees>-15.43446063995361328125</LatitudeDegrees>
              <LongitudeDegrees>37.0649127848446369171142578125</LongitudeDegrees>
            </Position>
            <AltitudeMeters>1160</AltitudeMeters>
            <DistanceMeters>NAN</DistanceMeters>
          </Trackpoint>
          <Trackpoint>
            <Time>2021-08-03T11:19:49.000Z</Time>
            <Position>
              <LatitudeDegrees>-15.43448570184409618377685546875</LatitudeDegrees>
              <LongitudeDegrees>37.06493248231709003448486328125</LongitudeDegrees>
            </Position>
            <AltitudeMeters>1159.800048828125</AltitudeMeters>
            <DistanceMeters>NAN</DistanceMeters>
          </Trackpoint>
          <Trackpoint>
            <Time>2021-08-03T11:19:57.000Z</Time>
            <Position>
              <LatitudeDegrees>-15.43457253836095333099365234375</LatitudeDegrees>
              <LongitudeDegrees>37.0649999566376209259033203125</LongitudeDegrees>
            </Position>
            <AltitudeMeters>1158.800048828125</AltitudeMeters>
            <DistanceMeters>NAN</DistanceMeters>
          </Trackpoint>
          <Trackpoint>
            <Time>2021-08-03T11:19:59.000Z</Time>
            <Position>
              <LatitudeDegrees>-15.43458997271955013275146484375</LatitudeDegrees>
              <LongitudeDegrees>37.065014876425266265869140625</LongitudeDegrees>
            </Position>
            <AltitudeMeters>1158.199951171875</AltitudeMeters>
            <DistanceMeters>NAN</DistanceMeters>
          </Trackpoint>
          <Trackpoint>
            <Time>2021-08-03T11:20:02.000Z</Time>
            <Position>
              <LatitudeDegrees>-15.4346095025539398193359375</LatitudeDegrees>
              <LongitudeDegrees>37.06503507681190967559814453125</LongitudeDegrees>
            </Position>
            <AltitudeMeters>1157.800048828125</AltitudeMeters>
            <DistanceMeters>NAN</DistanceMeters>
          </Trackpoint>
          <Trackpoint>
            <Time>2021-08-03T11:20:08.000Z</Time>
            <Position>
              <LatitudeDegrees>-15.43465635739266872406005859375</LatitudeDegrees>
              <LongitudeDegrees>37.06507346592843532562255859375</LongitudeDegrees>
            </Position>
            <AltitudeMeters>1157</AltitudeMeters>
            <DistanceMeters>NAN</DistanceMeters>
          </Trackpoint>
          <Trackpoint>
            <Time>2021-08-03T11:20:10.000Z</Time>
            <Position>
              <LatitudeDegrees>-15.43467647396028041839599609375</LatitudeDegrees>
              <LongitudeDegrees>37.06508737988770008087158203125</LongitudeDegrees>
            </Position>
            <AltitudeMeters>1156.4000244140625</AltitudeMeters>
            <DistanceMeters>NAN</DistanceMeters>
          </Trackpoint>
          <Trackpoint>
            <Time>2021-08-03T11:20:19.000Z</Time>
            <Position>
              <LatitudeDegrees>-15.43477714061737060546875</LatitudeDegrees>
              <LongitudeDegrees>37.06518176011741161346435546875</LongitudeDegrees>
            </Position>
            <AltitudeMeters>1155.5999755859375</AltitudeMeters>
            <DistanceMeters>NAN</DistanceMeters>
          </Trackpoint>
          <Trackpoint>
            <Time>2021-08-03T11:20:23.000Z</Time>
            <Position>
              <LatitudeDegrees>-15.4348133504390716552734375</LatitudeDegrees>
              <LongitudeDegrees>37.0652168802917003631591796875</LongitudeDegrees>
            </Position>
            <AltitudeMeters>1155.199951171875</AltitudeMeters>
            <DistanceMeters>NAN</DistanceMeters>
          </Trackpoint>
          <Trackpoint>
            <Time>2021-08-03T11:20:24.000Z</Time>
            <Position>
              <LatitudeDegrees>-15.43482005596160888671875</LatitudeDegrees>
              <LongitudeDegrees>37.0652276091277599334716796875</LongitudeDegrees>
            </Position>
            <AltitudeMeters>1155.199951171875</AltitudeMeters>
            <DistanceMeters>NAN</DistanceMeters>
          </Trackpoint>
          <Trackpoint>
            <Time>2021-08-03T11:20:28.000Z</Time>
            <Position>
              <LatitudeDegrees>-15.4348503984510898590087890625</LatitudeDegrees>
              <LongitudeDegrees>37.06526222638785839080810546875</LongitudeDegrees>
            </Position>
            <AltitudeMeters>1154.199951171875</AltitudeMeters>
            <DistanceMeters>NAN</DistanceMeters>
          </Trackpoint>
          <Trackpoint>
            <Time>2021-08-03T11:20:29.000Z</Time>
            <Position>
              <LatitudeDegrees>-15.43485668487846851348876953125</LatitudeDegrees>
              <LongitudeDegrees>37.065271027386188507080078125</LongitudeDegrees>
            </Position>
            <AltitudeMeters>1154.199951171875</AltitudeMeters>
            <DistanceMeters>NAN</DistanceMeters>
          </Trackpoint>
          <Trackpoint>
            <Time>2021-08-03T11:20:36.000Z</Time>
            <Position>
              <LatitudeDegrees>-15.43492357246577739715576171875</LatitudeDegrees>
              <LongitudeDegrees>37.06533280201256275177001953125</LongitudeDegrees>
            </Position>
            <AltitudeMeters>1153</AltitudeMeters>
            <DistanceMeters>NAN</DistanceMeters>
          </Trackpoint>
          <Trackpoint>
            <Time>2021-08-03T11:20:41.000Z</Time>
            <Position>
              <LatitudeDegrees>-15.4349694214761257171630859375</LatitudeDegrees>
              <LongitudeDegrees>37.06537689082324504852294921875</LongitudeDegrees>
            </Position>
            <AltitudeMeters>1152.199951171875</AltitudeMeters>
            <DistanceMeters>NAN</DistanceMeters>
          </Trackpoint>
          <Trackpoint>
            <Time>2021-08-03T11:20:45.000Z</Time>
            <Position>
              <LatitudeDegrees>-15.43499850668013095855712890625</LatitudeDegrees>
              <LongitudeDegrees>37.065416872501373291015625</LongitudeDegrees>
            </Position>
            <AltitudeMeters>1151.800048828125</AltitudeMeters>
            <DistanceMeters>NAN</DistanceMeters>
          </Trackpoint>
          <Trackpoint>
            <Time>2021-08-03T11:20:52.000Z</Time>
            <Position>
              <LatitudeDegrees>-15.4350431822240352630615234375</LatitudeDegrees>
              <LongitudeDegrees>37.0654861070215702056884765625</LongitudeDegrees>
            </Position>
            <AltitudeMeters>1151.199951171875</AltitudeMeters>
            <DistanceMeters>NAN</DistanceMeters>
          </Trackpoint>
          <Trackpoint>
            <Time>2021-08-03T11:20:54.000Z</Time>
            <Position>
              <LatitudeDegrees>-15.43505718000233173370361328125</LatitudeDegrees>
              <LongitudeDegrees>37.06551276147365570068359375</LongitudeDegrees>
            </Position>
            <AltitudeMeters>1151.4000244140625</AltitudeMeters>
            <DistanceMeters>NAN</DistanceMeters>
          </Trackpoint>
          <Trackpoint>
            <Time>2021-08-03T11:20:58.000Z</Time>
            <Position>
              <LatitudeDegrees>-15.43508819304406642913818359375</LatitudeDegrees>
              <LongitudeDegrees>37.0655581913888454437255859375</LongitudeDegrees>
            </Position>
            <AltitudeMeters>1150.800048828125</AltitudeMeters>
            <DistanceMeters>NAN</DistanceMeters>
          </Trackpoint>
          <Trackpoint>
            <Time>2021-08-03T11:20:59.000Z</Time>
            <Position>
              <LatitudeDegrees>-15.43509724549949169158935546875</LatitudeDegrees>
              <LongitudeDegrees>37.0655702613294124603271484375</LongitudeDegrees>
            </Position>
            <AltitudeMeters>1150.5999755859375</AltitudeMeters>
            <DistanceMeters>NAN</DistanceMeters>
          </Trackpoint>
          <Trackpoint>
            <Time>2021-08-03T11:21:10.000Z</Time>
            <Position>
              <LatitudeDegrees>-15.43518743477761745452880859375</LatitudeDegrees>
              <LongitudeDegrees>37.06567947752773761749267578125</LongitudeDegrees>
            </Position>
            <AltitudeMeters>1150.4000244140625</AltitudeMeters>
            <DistanceMeters>NAN</DistanceMeters>
          </Trackpoint>
          <Trackpoint>
            <Time>2021-08-03T11:21:22.000Z</Time>
            <Position>
              <LatitudeDegrees>-15.4353258199989795684814453125</LatitudeDegrees>
              <LongitudeDegrees>37.06573395989835262298583984375</LongitudeDegrees>
            </Position>
            <AltitudeMeters>1150.5999755859375</AltitudeMeters>
            <DistanceMeters>NAN</DistanceMeters>
          </Trackpoint>
          <Trackpoint>
            <Time>2021-08-03T11:21:33.000Z</Time>
            <Position>
              <LatitudeDegrees>-15.43546051718294620513916015625</LatitudeDegrees>
              <LongitudeDegrees>37.065740413963794708251953125</LongitudeDegrees>
            </Position>
            <AltitudeMeters>1149.800048828125</AltitudeMeters>
            <DistanceMeters>NAN</DistanceMeters>
          </Trackpoint>
          <Trackpoint>
            <Time>2021-08-03T11:21:34.000Z</Time>
            <Position>
              <LatitudeDegrees>-15.43547384440898895263671875</LatitudeDegrees>
              <LongitudeDegrees>37.06574183888733386993408203125</LongitudeDegrees>
            </Position>
            <AltitudeMeters>1149.800048828125</AltitudeMeters>
            <DistanceMeters>NAN</DistanceMeters>
          </Trackpoint>
          <Trackpoint>
            <Time>2021-08-03T11:21:41.000Z</Time>
            <Position>
              <LatitudeDegrees>-15.43556646443903446197509765625</LatitudeDegrees>
              <LongitudeDegrees>37.0657382346689701080322265625</LongitudeDegrees>
            </Position>
            <AltitudeMeters>1149.5999755859375</AltitudeMeters>
            <DistanceMeters>NAN</DistanceMeters>
          </Trackpoint>
          <Trackpoint>
            <Time>2021-08-03T11:21:42.000Z</Time>
            <Position>
              <LatitudeDegrees>-15.43557669036090373992919921875</LatitudeDegrees>
              <LongitudeDegrees>37.06573932431638240814208984375</LongitudeDegrees>
            </Position>
            <AltitudeMeters>1149.800048828125</AltitudeMeters>
            <DistanceMeters>NAN</DistanceMeters>
          </Trackpoint>
          <Trackpoint>
            <Time>2021-08-03T11:21:46.000Z</Time>
            <Position>
              <LatitudeDegrees>-15.43562748469412326812744140625</LatitudeDegrees>
              <LongitudeDegrees>37.0657419227063655853271484375</LongitudeDegrees>
            </Position>
            <AltitudeMeters>1149.5999755859375</AltitudeMeters>
            <DistanceMeters>NAN</DistanceMeters>
          </Trackpoint>
          <Trackpoint>
            <Time>2021-08-03T11:21:50.000Z</Time>
            <Position>
              <LatitudeDegrees>-15.435687415301799774169921875</LatitudeDegrees>
              <LongitudeDegrees>37.065734378993511199951171875</LongitudeDegrees>
            </Position>
            <AltitudeMeters>1149.5999755859375</AltitudeMeters>
            <DistanceMeters>NAN</DistanceMeters>
          </Trackpoint>
          <Trackpoint>
            <Time>2021-08-03T11:21:58.000Z</Time>
            <Position>
              <LatitudeDegrees>-15.43577685020864009857177734375</LatitudeDegrees>
              <LongitudeDegrees>37.06567696295678615570068359375</LongitudeDegrees>
            </Position>
            <AltitudeMeters>1149.4000244140625</AltitudeMeters>
            <DistanceMeters>NAN</DistanceMeters>
          </Trackpoint>
          <Trackpoint>
            <Time>2021-08-03T11:22:07.000Z</Time>
            <Position>
              <LatitudeDegrees>-15.4358004033565521240234375</LatitudeDegrees>
              <LongitudeDegrees>37.06555073149502277374267578125</LongitudeDegrees>
            </Position>
            <AltitudeMeters>1149.4000244140625</AltitudeMeters>
            <DistanceMeters>NAN</DistanceMeters>
          </Trackpoint>
          <Trackpoint>
            <Time>2021-08-03T11:22:16.000Z</Time>
            <Position>
              <LatitudeDegrees>-15.43577718548476696014404296875</LatitudeDegrees>
              <LongitudeDegrees>37.06542961299419403076171875</LongitudeDegrees>
            </Position>
            <AltitudeMeters>1149.4000244140625</AltitudeMeters>
            <DistanceMeters>NAN</DistanceMeters>
          </Trackpoint>
          <Trackpoint>
            <Time>2021-08-03T11:22:27.000Z</Time>
            <Position>
              <LatitudeDegrees>-15.435759164392948150634765625</LatitudeDegrees>
              <LongitudeDegrees>37.06528988666832447052001953125</LongitudeDegrees>
            </Position>
            <AltitudeMeters>1149.4000244140625</AltitudeMeters>
            <DistanceMeters>NAN</DistanceMeters>
          </Trackpoint>
          <Trackpoint>
            <Time>2021-08-03T11:22:34.000Z</Time>
            <Position>
              <LatitudeDegrees>-15.4357804544270038604736328125</LatitudeDegrees>
              <LongitudeDegrees>37.0652091689407825469970703125</LongitudeDegrees>
            </Position>
            <AltitudeMeters>1149.4000244140625</AltitudeMeters>
            <DistanceMeters>NAN</DistanceMeters>
          </Trackpoint>
          <Trackpoint>
            <Time>2021-08-03T11:22:37.000Z</Time>
            <Position>
              <LatitudeDegrees>-15.4357965476810932159423828125</LatitudeDegrees>
              <LongitudeDegrees>37.06516969017684459686279296875</LongitudeDegrees>
            </Position>
            <AltitudeMeters>1149.199951171875</AltitudeMeters>
            <DistanceMeters>NAN</DistanceMeters>
          </Trackpoint>
          <Trackpoint>
            <Time>2021-08-03T11:22:44.000Z</Time>
            <Position>
              <LatitudeDegrees>-15.43583351187407970428466796875</LatitudeDegrees>
              <LongitudeDegrees>37.0650660060346126556396484375</LongitudeDegrees>
            </Position>
            <AltitudeMeters>1149</AltitudeMeters>
            <DistanceMeters>NAN</DistanceMeters>
          </Trackpoint>
          <Trackpoint>
            <Time>2021-08-03T11:22:53.000Z</Time>
            <Position>
              <LatitudeDegrees>-15.43589101172983646392822265625</LatitudeDegrees>
              <LongitudeDegrees>37.06496567465364933013916015625</LongitudeDegrees>
            </Position>
            <AltitudeMeters>1149.199951171875</AltitudeMeters>
            <DistanceMeters>NAN</DistanceMeters>
          </Trackpoint>
          <Trackpoint>
            <Time>2021-08-03T11:23:00.000Z</Time>
            <Position>
              <LatitudeDegrees>-15.43594993650913238525390625</LatitudeDegrees>
              <LongitudeDegrees>37.06488872878253459930419921875</LongitudeDegrees>
            </Position>
            <AltitudeMeters>1149</AltitudeMeters>
            <DistanceMeters>NAN</DistanceMeters>
          </Trackpoint>
          <Trackpoint>
            <Time>2021-08-03T11:23:04.000Z</Time>
            <Position>
              <LatitudeDegrees>-15.43598304502665996551513671875</LatitudeDegrees>
              <LongitudeDegrees>37.06485101021826267242431640625</LongitudeDegrees>
            </Position>
            <AltitudeMeters>1149.5999755859375</AltitudeMeters>
            <DistanceMeters>NAN</DistanceMeters>
          </Trackpoint>
          <Trackpoint>
            <Time>2021-08-03T11:23:10.000Z</Time>
            <Position>
              <LatitudeDegrees>-15.4360443167388439178466796875</LatitudeDegrees>
              <LongitudeDegrees>37.0648013055324554443359375</LongitudeDegrees>
            </Position>
            <AltitudeMeters>1148.800048828125</AltitudeMeters>
            <DistanceMeters>NAN</DistanceMeters>
          </Trackpoint>
          <Trackpoint>
            <Time>2021-08-03T11:23:15.000Z</Time>
            <Position>
              <LatitudeDegrees>-15.43609284795820713043212890625</LatitudeDegrees>
              <LongitudeDegrees>37.06474321894347667694091796875</LongitudeDegrees>
            </Position>
            <AltitudeMeters>1148.4000244140625</AltitudeMeters>
            <DistanceMeters>NAN</DistanceMeters>
          </Trackpoint>
          <Trackpoint>
            <Time>2021-08-03T11:23:24.000Z</Time>
            <Position>
              <LatitudeDegrees>-15.43615437112748622894287109375</LatitudeDegrees>
              <LongitudeDegrees>37.06465604715049266815185546875</LongitudeDegrees>
            </Position>
            <AltitudeMeters>1148.199951171875</AltitudeMeters>
            <DistanceMeters>NAN</DistanceMeters>
          </Trackpoint>
          <Trackpoint>
            <Time>2021-08-03T11:23:26.000Z</Time>
            <Position>
              <LatitudeDegrees>-15.43616451323032379150390625</LatitudeDegrees>
              <LongitudeDegrees>37.064633332192897796630859375</LongitudeDegrees>
            </Position>
            <AltitudeMeters>1148</AltitudeMeters>
            <DistanceMeters>NAN</DistanceMeters>
          </Trackpoint>
          <Trackpoint>
            <Time>2021-08-03T11:23:27.000Z</Time>
            <Position>
              <LatitudeDegrees>-15.43617063201963901519775390625</LatitudeDegrees>
              <LongitudeDegrees>37.06462369300425052642822265625</LongitudeDegrees>
            </Position>
            <AltitudeMeters>1147.4000244140625</AltitudeMeters>
            <DistanceMeters>NAN</DistanceMeters>
          </Trackpoint>
          <Trackpoint>
            <Time>2021-08-03T11:23:32.000Z</Time>
            <Position>
              <LatitudeDegrees>-15.4362119548022747039794921875</LatitudeDegrees>
              <LongitudeDegrees>37.06458429805934429168701171875</LongitudeDegrees>
            </Position>
            <AltitudeMeters>1146</AltitudeMeters>
            <DistanceMeters>NAN</DistanceMeters>
          </Trackpoint>
          <Trackpoint>
            <Time>2021-08-03T11:23:35.000Z</Time>
            <Position>
              <LatitudeDegrees>-15.43623232282698154449462890625</LatitudeDegrees>
              <LongitudeDegrees>37.06455445848405361175537109375</LongitudeDegrees>
            </Position>
            <AltitudeMeters>1145.800048828125</AltitudeMeters>
            <DistanceMeters>NAN</DistanceMeters>
          </Trackpoint>
          <Trackpoint>
            <Time>2021-08-03T11:23:40.000Z</Time>
            <Position>
              <LatitudeDegrees>-15.4362635873258113861083984375</LatitudeDegrees>
              <LongitudeDegrees>37.064492516219615936279296875</LongitudeDegrees>
            </Position>
            <AltitudeMeters>1145</AltitudeMeters>
            <DistanceMeters>NAN</DistanceMeters>
          </Trackpoint>
          <Trackpoint>
            <Time>2021-08-03T11:23:44.000Z</Time>
            <Position>
              <LatitudeDegrees>-15.43629116378724575042724609375</LatitudeDegrees>
              <LongitudeDegrees>37.06443560309708118438720703125</LongitudeDegrees>
            </Position>
            <AltitudeMeters>1144.800048828125</AltitudeMeters>
            <DistanceMeters>NAN</DistanceMeters>
          </Trackpoint>
          <Trackpoint>
            <Time>2021-08-03T11:23:45.000Z</Time>
            <Position>
              <LatitudeDegrees>-15.43629753403365612030029296875</LatitudeDegrees>
              <LongitudeDegrees>37.06442085094749927520751953125</LongitudeDegrees>
            </Position>
            <AltitudeMeters>1144.4000244140625</AltitudeMeters>
            <DistanceMeters>NAN</DistanceMeters>
          </Trackpoint>
          <Trackpoint>
            <Time>2021-08-03T11:23:47.000Z</Time>
            <Position>
              <LatitudeDegrees>-15.4363085143268108367919921875</LatitudeDegrees>
              <LongitudeDegrees>37.06439084373414516448974609375</LongitudeDegrees>
            </Position>
            <AltitudeMeters>1143.800048828125</AltitudeMeters>
            <DistanceMeters>NAN</DistanceMeters>
          </Trackpoint>
          <Trackpoint>
            <Time>2021-08-03T11:23:50.000Z</Time>
            <Position>
              <LatitudeDegrees>-15.4363249428570270538330078125</LatitudeDegrees>
              <LongitudeDegrees>37.06434021703898906707763671875</LongitudeDegrees>
            </Position>
            <AltitudeMeters>1144</AltitudeMeters>
            <DistanceMeters>NAN</DistanceMeters>
          </Trackpoint>
          <Trackpoint>
            <Time>2021-08-03T11:23:53.000Z</Time>
            <Position>
              <LatitudeDegrees>-15.4363417066633701324462890625</LatitudeDegrees>
              <LongitudeDegrees>37.06429746933281421661376953125</LongitudeDegrees>
            </Position>
            <AltitudeMeters>1144.4000244140625</AltitudeMeters>
            <DistanceMeters>NAN</DistanceMeters>
          </Trackpoint>
          <Trackpoint>
            <Time>2021-08-03T11:23:54.000Z</Time>
            <Position>
              <LatitudeDegrees>-15.436345227062702178955078125</LatitudeDegrees>
              <LongitudeDegrees>37.06428422592580318450927734375</LongitudeDegrees>
            </Position>
            <AltitudeMeters>1144.5999755859375</AltitudeMeters>
            <DistanceMeters>NAN</DistanceMeters>
          </Trackpoint>
          <Trackpoint>
            <Time>2021-08-03T11:23:55.000Z</Time>
            <Position>
              <LatitudeDegrees>-15.436349250376224517822265625</LatitudeDegrees>
              <LongitudeDegrees>37.0642757602035999298095703125</LongitudeDegrees>
            </Position>
            <AltitudeMeters>1145</AltitudeMeters>
            <DistanceMeters>NAN</DistanceMeters>
          </Trackpoint>
          <Trackpoint>
            <Time>2021-08-03T11:23:58.000Z</Time>
            <Position>
              <LatitudeDegrees>-15.4363641701638698577880859375</LatitudeDegrees>
              <LongitudeDegrees>37.0642429031431674957275390625</LongitudeDegrees>
            </Position>
            <AltitudeMeters>1145.4000244140625</AltitudeMeters>
            <DistanceMeters>NAN</DistanceMeters>
          </Trackpoint>
          <Trackpoint>
            <Time>2021-08-03T11:24:02.000Z</Time>
            <Position>
              <LatitudeDegrees>-15.43639191426336765289306640625</LatitudeDegrees>
              <LongitudeDegrees>37.06420409493148326873779296875</LongitudeDegrees>
            </Position>
            <AltitudeMeters>1145</AltitudeMeters>
            <DistanceMeters>NAN</DistanceMeters>
          </Trackpoint>
          <Trackpoint>
            <Time>2021-08-03T11:24:04.000Z</Time>
            <Position>
              <LatitudeDegrees>-15.43640281073749065399169921875</LatitudeDegrees>
              <LongitudeDegrees>37.06417576409876346588134765625</LongitudeDegrees>
            </Position>
            <AltitudeMeters>1143.5999755859375</AltitudeMeters>
            <DistanceMeters>NAN</DistanceMeters>
          </Trackpoint>
          <Trackpoint>
            <Time>2021-08-03T11:24:08.000Z</Time>
            <Position>
              <LatitudeDegrees>-15.4364315606653690338134765625</LatitudeDegrees>
              <LongitudeDegrees>37.0641151629388332366943359375</LongitudeDegrees>
            </Position>
            <AltitudeMeters>1142.5999755859375</AltitudeMeters>
            <DistanceMeters>NAN</DistanceMeters>
          </Trackpoint>
          <Trackpoint>
            <Time>2021-08-03T11:24:12.000Z</Time>
            <Position>
              <LatitudeDegrees>-15.43646248988807201385498046875</LatitudeDegrees>
              <LongitudeDegrees>37.06407132558524608612060546875</LongitudeDegrees>
            </Position>
            <AltitudeMeters>1144</AltitudeMeters>
            <DistanceMeters>NAN</DistanceMeters>
          </Trackpoint>
          <Trackpoint>
            <Time>2021-08-03T11:24:22.000Z</Time>
            <Position>
              <LatitudeDegrees>-15.4365244321525096893310546875</LatitudeDegrees>
              <LongitudeDegrees>37.0639619417488574981689453125</LongitudeDegrees>
            </Position>
            <AltitudeMeters>1142.5999755859375</AltitudeMeters>
            <DistanceMeters>NAN</DistanceMeters>
          </Trackpoint>
          <Trackpoint>
            <Time>2021-08-03T11:24:30.000Z</Time>
            <Position>
              <LatitudeDegrees>-15.43658855371177196502685546875</LatitudeDegrees>
              <LongitudeDegrees>37.0638704113662242889404296875</LongitudeDegrees>
            </Position>
            <AltitudeMeters>1143.199951171875</AltitudeMeters>
            <DistanceMeters>NAN</DistanceMeters>
          </Trackpoint>
          <Trackpoint>
            <Time>2021-08-03T11:24:39.000Z</Time>
            <Position>
              <LatitudeDegrees>-15.43667010962963104248046875</LatitudeDegrees>
              <LongitudeDegrees>37.06380955874919891357421875</LongitudeDegrees>
            </Position>
            <AltitudeMeters>1141.4000244140625</AltitudeMeters>
            <DistanceMeters>NAN</DistanceMeters>
          </Trackpoint>
          <Trackpoint>
            <Time>2021-08-03T11:24:40.000Z</Time>
            <Position>
              <LatitudeDegrees>-15.4366828501224517822265625</LatitudeDegrees>
              <LongitudeDegrees>37.06380109302699565887451171875</LongitudeDegrees>
            </Position>
            <AltitudeMeters>1141.199951171875</AltitudeMeters>
            <DistanceMeters>NAN</DistanceMeters>
          </Trackpoint>
          <Trackpoint>
            <Time>2021-08-03T11:24:46.000Z</Time>
            <Position>
              <LatitudeDegrees>-15.4367597959935665130615234375</LatitudeDegrees>
              <LongitudeDegrees>37.06376169808208942413330078125</LongitudeDegrees>
            </Position>
            <AltitudeMeters>1140.4000244140625</AltitudeMeters>
            <DistanceMeters>NAN</DistanceMeters>
          </Trackpoint>
          <Trackpoint>
            <Time>2021-08-03T11:24:51.000Z</Time>
            <Position>
              <LatitudeDegrees>-15.436821989715099334716796875</LatitudeDegrees>
              <LongitudeDegrees>37.06375365145504474639892578125</LongitudeDegrees>
            </Position>
            <AltitudeMeters>1139.4000244140625</AltitudeMeters>
            <DistanceMeters>NAN</DistanceMeters>
          </Trackpoint>
          <Trackpoint>
            <Time>2021-08-03T11:24:57.000Z</Time>
            <Position>
              <LatitudeDegrees>-15.4368942417204380035400390625</LatitudeDegrees>
              <LongitudeDegrees>37.0637463591992855072021484375</LongitudeDegrees>
            </Position>
            <AltitudeMeters>1139.5999755859375</AltitudeMeters>
            <DistanceMeters>NAN</DistanceMeters>
          </Trackpoint>
          <Trackpoint>
            <Time>2021-08-03T11:24:59.000Z</Time>
            <Position>
              <LatitudeDegrees>-15.43691528029739856719970703125</LatitudeDegrees>
              <LongitudeDegrees>37.06373470835387706756591796875</LongitudeDegrees>
            </Position>
            <AltitudeMeters>1139.199951171875</AltitudeMeters>
            <DistanceMeters>NAN</DistanceMeters>
          </Trackpoint>
          <Trackpoint>
            <Time>2021-08-03T11:25:00.000Z</Time>
            <Position>
              <LatitudeDegrees>-15.43692751787602901458740234375</LatitudeDegrees>
              <LongitudeDegrees>37.06372716464102268218994140625</LongitudeDegrees>
            </Position>
            <AltitudeMeters>1139.199951171875</AltitudeMeters>
            <DistanceMeters>NAN</DistanceMeters>
          </Trackpoint>
          <Trackpoint>
            <Time>2021-08-03T11:25:08.000Z</Time>
            <Position>
              <LatitudeDegrees>-15.436979234218597412109375</LatitudeDegrees>
              <LongitudeDegrees>37.0636065490543842315673828125</LongitudeDegrees>
            </Position>
            <AltitudeMeters>1138.5999755859375</AltitudeMeters>
            <DistanceMeters>NAN</DistanceMeters>
          </Trackpoint>
          <Trackpoint>
            <Time>2021-08-03T11:25:16.000Z</Time>
            <Position>
              <LatitudeDegrees>-15.4370075650513172149658203125</LatitudeDegrees>
              <LongitudeDegrees>37.06351979635655879974365234375</LongitudeDegrees>
            </Position>
            <AltitudeMeters>1139</AltitudeMeters>
            <DistanceMeters>NAN</DistanceMeters>
          </Trackpoint>
          <Trackpoint>
            <Time>2021-08-03T11:25:19.000Z</Time>
            <Position>
              <LatitudeDegrees>-15.43702575378119945526123046875</LatitudeDegrees>
              <LongitudeDegrees>37.06349439918994903564453125</LongitudeDegrees>
            </Position>
            <AltitudeMeters>1137.5999755859375</AltitudeMeters>
            <DistanceMeters>NAN</DistanceMeters>
          </Trackpoint>
          <Trackpoint>
            <Time>2021-08-03T11:25:21.000Z</Time>
            <Position>
              <LatitudeDegrees>-15.43704469688236713409423828125</LatitudeDegrees>
              <LongitudeDegrees>37.063469588756561279296875</LongitudeDegrees>
            </Position>
            <AltitudeMeters>1136.4000244140625</AltitudeMeters>
            <DistanceMeters>NAN</DistanceMeters>
          </Trackpoint>
          <Trackpoint>
            <Time>2021-08-03T11:25:25.000Z</Time>
            <Position>
              <LatitudeDegrees>-15.43707990087568759918212890625</LatitudeDegrees>
              <LongitudeDegrees>37.06343379803001880645751953125</LongitudeDegrees>
            </Position>
            <AltitudeMeters>1136.199951171875</AltitudeMeters>
            <DistanceMeters>NAN</DistanceMeters>
          </Trackpoint>
          <Trackpoint>
            <Time>2021-08-03T11:25:32.000Z</Time>
            <Position>
              <LatitudeDegrees>-15.4371520690619945526123046875</LatitudeDegrees>
              <LongitudeDegrees>37.06337906420230865478515625</LongitudeDegrees>
            </Position>
            <AltitudeMeters>1136.5999755859375</AltitudeMeters>
            <DistanceMeters>NAN</DistanceMeters>
          </Trackpoint>
          <Trackpoint>
            <Time>2021-08-03T11:25:37.000Z</Time>
            <Position>
              <LatitudeDegrees>-15.43720026500523090362548828125</LatitudeDegrees>
              <LongitudeDegrees>37.06335333175957202911376953125</LongitudeDegrees>
            </Position>
            <AltitudeMeters>1135.4000244140625</AltitudeMeters>
            <DistanceMeters>NAN</DistanceMeters>
          </Trackpoint>
          <Trackpoint>
            <Time>2021-08-03T11:25:40.000Z</Time>
            <Position>
              <LatitudeDegrees>-15.43723161332309246063232421875</LatitudeDegrees>
              <LongitudeDegrees>37.06333656795322895050048828125</LongitudeDegrees>
            </Position>
            <AltitudeMeters>1135.199951171875</AltitudeMeters>
            <DistanceMeters>NAN</DistanceMeters>
          </Trackpoint>
          <Trackpoint>
            <Time>2021-08-03T11:25:41.000Z</Time>
            <Position>
              <LatitudeDegrees>-15.4372399114072322845458984375</LatitudeDegrees>
              <LongitudeDegrees>37.063326425850391387939453125</LongitudeDegrees>
            </Position>
            <AltitudeMeters>1134.800048828125</AltitudeMeters>
            <DistanceMeters>NAN</DistanceMeters>
          </Trackpoint>
          <Trackpoint>
            <Time>2021-08-03T11:25:43.000Z</Time>
            <Position>
              <LatitudeDegrees>-15.43725474737584590911865234375</LatitudeDegrees>
              <LongitudeDegrees>37.06331293098628520965576171875</LongitudeDegrees>
            </Position>
            <AltitudeMeters>1134.4000244140625</AltitudeMeters>
            <DistanceMeters>NAN</DistanceMeters>
          </Trackpoint>
          <Trackpoint>
            <Time>2021-08-03T11:25:48.000Z</Time>
            <Position>
              <LatitudeDegrees>-15.43730386532843112945556640625</LatitudeDegrees>
              <LongitudeDegrees>37.06328007392585277557373046875</LongitudeDegrees>
            </Position>
            <AltitudeMeters>1133.4000244140625</AltitudeMeters>
            <DistanceMeters>NAN</DistanceMeters>
          </Trackpoint>
          <Trackpoint>
            <Time>2021-08-03T11:25:51.000Z</Time>
            <Position>
              <LatitudeDegrees>-15.4373374767601490020751953125</LatitudeDegrees>
              <LongitudeDegrees>37.06325576640665531158447265625</LongitudeDegrees>
            </Position>
            <AltitudeMeters>1132.5999755859375</AltitudeMeters>
            <DistanceMeters>NAN</DistanceMeters>
          </Trackpoint>
          <Trackpoint>
            <Time>2021-08-03T11:25:53.000Z</Time>
            <Position>
              <LatitudeDegrees>-15.437360443174839019775390625</LatitudeDegrees>
              <LongitudeDegrees>37.06323548220098018646240234375</LongitudeDegrees>
            </Position>
            <AltitudeMeters>1132.199951171875</AltitudeMeters>
            <DistanceMeters>NAN</DistanceMeters>
          </Trackpoint>
          <Trackpoint>
            <Time>2021-08-03T11:25:57.000Z</Time>
            <Position>
              <LatitudeDegrees>-15.43740226887166500091552734375</LatitudeDegrees>
              <LongitudeDegrees>37.06318904645740985870361328125</LongitudeDegrees>
            </Position>
            <AltitudeMeters>1131</AltitudeMeters>
            <DistanceMeters>NAN</DistanceMeters>
          </Trackpoint>
          <Trackpoint>
            <Time>2021-08-03T11:26:01.000Z</Time>
            <Position>
              <LatitudeDegrees>-15.43744786642491817474365234375</LatitudeDegrees>
              <LongitudeDegrees>37.0631408505141735076904296875</LongitudeDegrees>
            </Position>
            <AltitudeMeters>1130.5999755859375</AltitudeMeters>
            <DistanceMeters>NAN</DistanceMeters>
          </Trackpoint>
          <Trackpoint>
            <Time>2021-08-03T11:26:08.000Z</Time>
            <Position>
              <LatitudeDegrees>-15.437514670193195343017578125</LatitudeDegrees>
              <LongitudeDegrees>37.0630623959004878997802734375</LongitudeDegrees>
            </Position>
            <AltitudeMeters>1130</AltitudeMeters>
            <DistanceMeters>NAN</DistanceMeters>
          </Trackpoint>
          <Trackpoint>
            <Time>2021-08-03T11:26:12.000Z</Time>
            <Position>
              <LatitudeDegrees>-15.43754576705396175384521484375</LatitudeDegrees>
              <LongitudeDegrees>37.06303113140165805816650390625</LongitudeDegrees>
            </Position>
            <AltitudeMeters>1130</AltitudeMeters>
            <DistanceMeters>NAN</DistanceMeters>
          </Trackpoint>
          <Trackpoint>
            <Time>2021-08-03T11:26:16.000Z</Time>
            <Position>
              <LatitudeDegrees>-15.43757267296314239501953125</LatitudeDegrees>
              <LongitudeDegrees>37.06300078891217708587646484375</LongitudeDegrees>
            </Position>
            <AltitudeMeters>1129.800048828125</AltitudeMeters>
            <DistanceMeters>NAN</DistanceMeters>
          </Trackpoint>
          <Trackpoint>
            <Time>2021-08-03T11:26:19.000Z</Time>
            <Position>
              <LatitudeDegrees>-15.437590442597866058349609375</LatitudeDegrees>
              <LongitudeDegrees>37.06297807395458221435546875</LongitudeDegrees>
            </Position>
            <AltitudeMeters>1128.800048828125</AltitudeMeters>
            <DistanceMeters>NAN</DistanceMeters>
          </Trackpoint>
          <Trackpoint>
            <Time>2021-08-03T11:26:26.000Z</Time>
            <Position>
              <LatitudeDegrees>-15.43764668516814708709716796875</LatitudeDegrees>
              <LongitudeDegrees>37.0629108510911464691162109375</LongitudeDegrees>
            </Position>
            <AltitudeMeters>1127.5999755859375</AltitudeMeters>
            <DistanceMeters>NAN</DistanceMeters>
          </Trackpoint>
          <Trackpoint>
            <Time>2021-08-03T11:26:27.000Z</Time>
            <Position>
              <LatitudeDegrees>-15.43765355832874774932861328125</LatitudeDegrees>
              <LongitudeDegrees>37.0628977753221988677978515625</LongitudeDegrees>
            </Position>
            <AltitudeMeters>1126.4000244140625</AltitudeMeters>
            <DistanceMeters>NAN</DistanceMeters>
          </Trackpoint>
          <Trackpoint>
            <Time>2021-08-03T11:26:29.000Z</Time>
            <Position>
              <LatitudeDegrees>-15.437667556107044219970703125</LatitudeDegrees>
              <LongitudeDegrees>37.06286852248013019561767578125</LongitudeDegrees>
            </Position>
            <AltitudeMeters>1125.800048828125</AltitudeMeters>
            <DistanceMeters>NAN</DistanceMeters>
          </Trackpoint>
          <Trackpoint>
            <Time>2021-08-03T11:26:31.000Z</Time>
            <Position>
              <LatitudeDegrees>-15.437679626047611236572265625</LatitudeDegrees>
              <LongitudeDegrees>37.0628444664180278778076171875</LongitudeDegrees>
            </Position>
            <AltitudeMeters>1125.199951171875</AltitudeMeters>
            <DistanceMeters>NAN</DistanceMeters>
          </Trackpoint>
          <Trackpoint>
            <Time>2021-08-03T11:26:38.000Z</Time>
            <Position>
              <LatitudeDegrees>-15.43772958219051361083984375</LatitudeDegrees>
              <LongitudeDegrees>37.0627512596547603607177734375</LongitudeDegrees>
            </Position>
            <AltitudeMeters>1125.199951171875</AltitudeMeters>
            <DistanceMeters>NAN</DistanceMeters>
          </Trackpoint>
          <Trackpoint>
            <Time>2021-08-03T11:26:46.000Z</Time>
            <Position>
              <LatitudeDegrees>-15.4377662949264049530029296875</LatitudeDegrees>
              <LongitudeDegrees>37.06266366876661777496337890625</LongitudeDegrees>
            </Position>
            <AltitudeMeters>1125</AltitudeMeters>
            <DistanceMeters>NAN</DistanceMeters>
          </Trackpoint>
          <Trackpoint>
            <Time>2021-08-03T11:26:50.000Z</Time>
            <Position>
              <LatitudeDegrees>-15.437772162258625030517578125</LatitudeDegrees>
              <LongitudeDegrees>37.0626245252788066864013671875</LongitudeDegrees>
            </Position>
            <AltitudeMeters>1124.199951171875</AltitudeMeters>
            <DistanceMeters>NAN</DistanceMeters>
          </Trackpoint>
          <Trackpoint>
            <Time>2021-08-03T11:26:52.000Z</Time>
            <Position>
              <LatitudeDegrees>-15.43777610175311565399169921875</LatitudeDegrees>
              <LongitudeDegrees>37.06260231323540210723876953125</LongitudeDegrees>
            </Position>
            <AltitudeMeters>1123.199951171875</AltitudeMeters>
            <DistanceMeters>NAN</DistanceMeters>
          </Trackpoint>
          <Trackpoint>
            <Time>2021-08-03T11:26:57.000Z</Time>
            <Position>
              <LatitudeDegrees>-15.4378018341958522796630859375</LatitudeDegrees>
              <LongitudeDegrees>37.06253961659967899322509765625</LongitudeDegrees>
            </Position>
            <AltitudeMeters>1121.5999755859375</AltitudeMeters>
            <DistanceMeters>NAN</DistanceMeters>
          </Trackpoint>
          <Trackpoint>
            <Time>2021-08-03T11:27:01.000Z</Time>
            <Position>
              <LatitudeDegrees>-15.43781549669802188873291015625</LatitudeDegrees>
              <LongitudeDegrees>37.06248320639133453369140625</LongitudeDegrees>
            </Position>
            <AltitudeMeters>1120.5999755859375</AltitudeMeters>
            <DistanceMeters>NAN</DistanceMeters>
          </Trackpoint>
          <Trackpoint>
            <Time>2021-08-03T11:27:02.000Z</Time>
            <Position>
              <LatitudeDegrees>-15.4378206096589565277099609375</LatitudeDegrees>
              <LongitudeDegrees>37.062473483383655548095703125</LongitudeDegrees>
            </Position>
            <AltitudeMeters>1120.5999755859375</AltitudeMeters>
            <DistanceMeters>NAN</DistanceMeters>
          </Trackpoint>
          <Trackpoint>
            <Time>2021-08-03T11:27:12.000Z</Time>
            <Position>
              <LatitudeDegrees>-15.43788154609501361846923828125</LatitudeDegrees>
              <LongitudeDegrees>37.06235756166279315948486328125</LongitudeDegrees>
            </Position>
            <AltitudeMeters>1120.199951171875</AltitudeMeters>
            <DistanceMeters>NAN</DistanceMeters>
          </Trackpoint>
          <Trackpoint>
            <Time>2021-08-03T11:27:16.000Z</Time>
            <Position>
              <LatitudeDegrees>-15.43790535070002079010009765625</LatitudeDegrees>
              <LongitudeDegrees>37.062323950231075286865234375</LongitudeDegrees>
            </Position>
            <AltitudeMeters>1119.4000244140625</AltitudeMeters>
            <DistanceMeters>NAN</DistanceMeters>
          </Trackpoint>
          <Trackpoint>
            <Time>2021-08-03T11:27:21.000Z</Time>
            <Position>
              <LatitudeDegrees>-15.437935106456279754638671875</LatitudeDegrees>
              <LongitudeDegrees>37.0622751675546169281005859375</LongitudeDegrees>
            </Position>
            <AltitudeMeters>1118.800048828125</AltitudeMeters>
            <DistanceMeters>NAN</DistanceMeters>
          </Trackpoint>
          <Trackpoint>
            <Time>2021-08-03T11:27:23.000Z</Time>
            <Position>
              <LatitudeDegrees>-15.43795212171971797943115234375</LatitudeDegrees>
              <LongitudeDegrees>37.0622577331960201263427734375</LongitudeDegrees>
            </Position>
            <AltitudeMeters>1118</AltitudeMeters>
            <DistanceMeters>NAN</DistanceMeters>
          </Trackpoint>
          <Trackpoint>
            <Time>2021-08-03T11:27:26.000Z</Time>
            <Position>
              <LatitudeDegrees>-15.437975339591503143310546875</LatitudeDegrees>
              <LongitudeDegrees>37.0622366108000278472900390625</LongitudeDegrees>
            </Position>
            <AltitudeMeters>1117</AltitudeMeters>
            <DistanceMeters>NAN</DistanceMeters>
          </Trackpoint>
          <Trackpoint>
            <Time>2021-08-03T11:27:30.000Z</Time>
            <Position>
              <LatitudeDegrees>-15.43801045976579189300537109375</LatitudeDegrees>
              <LongitudeDegrees>37.06220836378633975982666015625</LongitudeDegrees>
            </Position>
            <AltitudeMeters>1116.5999755859375</AltitudeMeters>
            <DistanceMeters>NAN</DistanceMeters>
          </Trackpoint>
          <Trackpoint>
            <Time>2021-08-03T11:27:34.000Z</Time>
            <Position>
              <LatitudeDegrees>-15.4380439035594463348388671875</LatitudeDegrees>
              <LongitudeDegrees>37.06216729246079921722412109375</LongitudeDegrees>
            </Position>
            <AltitudeMeters>1115.800048828125</AltitudeMeters>
            <DistanceMeters>NAN</DistanceMeters>
          </Trackpoint>
          <Trackpoint>
            <Time>2021-08-03T11:27:36.000Z</Time>
            <Position>
              <LatitudeDegrees>-15.4380613379180431365966796875</LatitudeDegrees>
              <LongitudeDegrees>37.062144242227077484130859375</LongitudeDegrees>
            </Position>
            <AltitudeMeters>1114.800048828125</AltitudeMeters>
            <DistanceMeters>NAN</DistanceMeters>
          </Trackpoint>
          <Trackpoint>
            <Time>2021-08-03T11:27:38.000Z</Time>
            <Position>
              <LatitudeDegrees>-15.438080616295337677001953125</LatitudeDegrees>
              <LongitudeDegrees>37.062120772898197174072265625</LongitudeDegrees>
            </Position>
            <AltitudeMeters>1114.5999755859375</AltitudeMeters>
            <DistanceMeters>NAN</DistanceMeters>
          </Trackpoint>
          <Trackpoint>
            <Time>2021-08-03T11:27:42.000Z</Time>
            <Position>
              <LatitudeDegrees>-15.43811204843223094940185546875</LatitudeDegrees>
              <LongitudeDegrees>37.06208129413425922393798828125</LongitudeDegrees>
            </Position>
            <AltitudeMeters>1113.5999755859375</AltitudeMeters>
            <DistanceMeters>NAN</DistanceMeters>
          </Trackpoint>
          <Trackpoint>
            <Time>2021-08-03T11:27:46.000Z</Time>
            <Position>
              <LatitudeDegrees>-15.43813769705593585968017578125</LatitudeDegrees>
              <LongitudeDegrees>37.062032930552959442138671875</LongitudeDegrees>
            </Position>
            <AltitudeMeters>1113.800048828125</AltitudeMeters>
            <DistanceMeters>NAN</DistanceMeters>
          </Trackpoint>
          <Trackpoint>
            <Time>2021-08-03T11:27:47.000Z</Time>
            <Position>
              <LatitudeDegrees>-15.43814255855977535247802734375</LatitudeDegrees>
              <LongitudeDegrees>37.062021195888519287109375</LongitudeDegrees>
            </Position>
            <AltitudeMeters>1113.800048828125</AltitudeMeters>
            <DistanceMeters>NAN</DistanceMeters>
          </Trackpoint>
          <Trackpoint>
            <Time>2021-08-03T11:27:53.000Z</Time>
            <Position>
              <LatitudeDegrees>-15.438184551894664764404296875</LatitudeDegrees>
              <LongitudeDegrees>37.06195992417633533477783203125</LongitudeDegrees>
            </Position>
            <AltitudeMeters>1112.4000244140625</AltitudeMeters>
            <DistanceMeters>NAN</DistanceMeters>
          </Trackpoint>
          <Trackpoint>
            <Time>2021-08-03T11:27:57.000Z</Time>
            <Position>
              <LatitudeDegrees>-15.43821045197546482086181640625</LatitudeDegrees>
              <LongitudeDegrees>37.061914913356304168701171875</LongitudeDegrees>
            </Position>
            <AltitudeMeters>1111.800048828125</AltitudeMeters>
            <DistanceMeters>NAN</DistanceMeters>
          </Trackpoint>
          <Trackpoint>
            <Time>2021-08-03T11:28:01.000Z</Time>
            <Position>
              <LatitudeDegrees>-15.43823693878948688507080078125</LatitudeDegrees>
              <LongitudeDegrees>37.06186939962208271026611328125</LongitudeDegrees>
            </Position>
            <AltitudeMeters>1111.199951171875</AltitudeMeters>
            <DistanceMeters>NAN</DistanceMeters>
          </Trackpoint>
          <Trackpoint>
            <Time>2021-08-03T11:28:08.000Z</Time>
            <Position>
              <LatitudeDegrees>-15.43829611502587795257568359375</LatitudeDegrees>
              <LongitudeDegrees>37.06178340129554271697998046875</LongitudeDegrees>
            </Position>
            <AltitudeMeters>1111</AltitudeMeters>
            <DistanceMeters>NAN</DistanceMeters>
          </Trackpoint>
          <Trackpoint>
            <Time>2021-08-03T11:28:13.000Z</Time>
            <Position>
              <LatitudeDegrees>-15.43832905590534210205078125</LatitudeDegrees>
              <LongitudeDegrees>37.061729840934276580810546875</LongitudeDegrees>
            </Position>
            <AltitudeMeters>1110.199951171875</AltitudeMeters>
            <DistanceMeters>NAN</DistanceMeters>
          </Trackpoint>
          <Trackpoint>
            <Time>2021-08-03T11:28:17.000Z</Time>
            <Position>
              <LatitudeDegrees>-15.43836384080350399017333984375</LatitudeDegrees>
              <LongitudeDegrees>37.06170142628252506256103515625</LongitudeDegrees>
            </Position>
            <AltitudeMeters>1109.4000244140625</AltitudeMeters>
            <DistanceMeters>NAN</DistanceMeters>
          </Trackpoint>
          <Trackpoint>
            <Time>2021-08-03T11:28:19.000Z</Time>
            <Position>
              <LatitudeDegrees>-15.43838395737111568450927734375</LatitudeDegrees>
              <LongitudeDegrees>37.06168550066649913787841796875</LongitudeDegrees>
            </Position>
            <AltitudeMeters>1109.199951171875</AltitudeMeters>
            <DistanceMeters>NAN</DistanceMeters>
          </Trackpoint>
          <Trackpoint>
            <Time>2021-08-03T11:28:23.000Z</Time>
            <Position>
              <LatitudeDegrees>-15.438424609601497650146484375</LatitudeDegrees>
              <LongitudeDegrees>37.061659432947635650634765625</LongitudeDegrees>
            </Position>
            <AltitudeMeters>1107.800048828125</AltitudeMeters>
            <DistanceMeters>NAN</DistanceMeters>
          </Trackpoint>
          <Trackpoint>
            <Time>2021-08-03T11:28:25.000Z</Time>
            <Position>
              <LatitudeDegrees>-15.43844816274940967559814453125</LatitudeDegrees>
              <LongitudeDegrees>37.06164509989321231842041015625</LongitudeDegrees>
            </Position>
            <AltitudeMeters>1107.5999755859375</AltitudeMeters>
            <DistanceMeters>NAN</DistanceMeters>
          </Trackpoint>
          <Trackpoint>
            <Time>2021-08-03T11:28:33.000Z</Time>
            <Position>
              <LatitudeDegrees>-15.43854455463588237762451171875</LatitudeDegrees>
              <LongitudeDegrees>37.0616458542644977569580078125</LongitudeDegrees>
            </Position>
            <AltitudeMeters>1107.800048828125</AltitudeMeters>
            <DistanceMeters>NAN</DistanceMeters>
          </Trackpoint>
          <Trackpoint>
            <Time>2021-08-03T11:28:44.000Z</Time>
            <Position>
              <LatitudeDegrees>-15.43868117965757846832275390625</LatitudeDegrees>
              <LongitudeDegrees>37.06166555173695087432861328125</LongitudeDegrees>
            </Position>
            <AltitudeMeters>1107.199951171875</AltitudeMeters>
            <DistanceMeters>NAN</DistanceMeters>
          </Trackpoint>
          <Trackpoint>
            <Time>2021-08-03T11:28:54.000Z</Time>
            <Position>
              <LatitudeDegrees>-15.4387908987700939178466796875</LatitudeDegrees>
              <LongitudeDegrees>37.0616290904581546783447265625</LongitudeDegrees>
            </Position>
            <AltitudeMeters>1107</AltitudeMeters>
            <DistanceMeters>NAN</DistanceMeters>
          </Trackpoint>
          <Trackpoint>
            <Time>2021-08-03T11:29:00.000Z</Time>
            <Position>
              <LatitudeDegrees>-15.43883959762752056121826171875</LatitudeDegrees>
              <LongitudeDegrees>37.06158223561942577362060546875</LongitudeDegrees>
            </Position>
            <AltitudeMeters>1106.5999755859375</AltitudeMeters>
            <DistanceMeters>NAN</DistanceMeters>
          </Trackpoint>
          <Trackpoint>
            <Time>2021-08-03T11:29:03.000Z</Time>
            <Position>
              <LatitudeDegrees>-15.4388505779206752777099609375</LatitudeDegrees>
              <LongitudeDegrees>37.06154149957001209259033203125</LongitudeDegrees>
            </Position>
            <AltitudeMeters>1106.5999755859375</AltitudeMeters>
            <DistanceMeters>NAN</DistanceMeters>
          </Trackpoint>
          <Trackpoint>
            <Time>2021-08-03T11:29:07.000Z</Time>
            <Position>
              <LatitudeDegrees>-15.43884311802685260772705078125</LatitudeDegrees>
              <LongitudeDegrees>37.06148383207619190216064453125</LongitudeDegrees>
            </Position>
            <AltitudeMeters>1106.199951171875</AltitudeMeters>
            <DistanceMeters>NAN</DistanceMeters>
          </Trackpoint>
          <Trackpoint>
            <Time>2021-08-03T11:29:10.000Z</Time>
            <Position>
              <LatitudeDegrees>-15.43883322738111019134521484375</LatitudeDegrees>
              <LongitudeDegrees>37.061450891196727752685546875</LongitudeDegrees>
            </Position>
            <AltitudeMeters>1106.199951171875</AltitudeMeters>
            <DistanceMeters>NAN</DistanceMeters>
          </Trackpoint>
          <Trackpoint>
            <Time>2021-08-03T11:29:11.000Z</Time>
            <Position>
              <LatitudeDegrees>-15.438828952610492706298828125</LatitudeDegrees>
              <LongitudeDegrees>37.06144225783646106719970703125</LongitudeDegrees>
            </Position>
            <AltitudeMeters>1106.199951171875</AltitudeMeters>
            <DistanceMeters>NAN</DistanceMeters>
          </Trackpoint>
          <Trackpoint>
            <Time>2021-08-03T11:29:15.000Z</Time>
            <Position>
              <LatitudeDegrees>-15.43880523182451725006103515625</LatitudeDegrees>
              <LongitudeDegrees>37.061409316956996917724609375</LongitudeDegrees>
            </Position>
            <AltitudeMeters>1105.5999755859375</AltitudeMeters>
            <DistanceMeters>NAN</DistanceMeters>
          </Trackpoint>
          <Trackpoint>
            <Time>2021-08-03T11:29:19.000Z</Time>
            <Position>
              <LatitudeDegrees>-15.43877757154405117034912109375</LatitudeDegrees>
              <LongitudeDegrees>37.06136397086083889007568359375</LongitudeDegrees>
            </Position>
            <AltitudeMeters>1105</AltitudeMeters>
            <DistanceMeters>NAN</DistanceMeters>
          </Trackpoint>
          <Trackpoint>
            <Time>2021-08-03T11:29:22.000Z</Time>
            <Position>
              <LatitudeDegrees>-15.43876483105123043060302734375</LatitudeDegrees>
              <LongitudeDegrees>37.0613310299813747406005859375</LongitudeDegrees>
            </Position>
            <AltitudeMeters>1104.4000244140625</AltitudeMeters>
            <DistanceMeters>NAN</DistanceMeters>
          </Trackpoint>
          <Trackpoint>
            <Time>2021-08-03T11:29:24.000Z</Time>
            <Position>
              <LatitudeDegrees>-15.4387613944709300994873046875</LatitudeDegrees>
              <LongitudeDegrees>37.06131166778504848480224609375</LongitudeDegrees>
            </Position>
            <AltitudeMeters>1103.5999755859375</AltitudeMeters>
            <DistanceMeters>NAN</DistanceMeters>
          </Trackpoint>
          <Trackpoint>
            <Time>2021-08-03T11:29:25.000Z</Time>
            <Position>
              <LatitudeDegrees>-15.43875846080482006072998046875</LatitudeDegrees>
              <LongitudeDegrees>37.06129959784448146820068359375</LongitudeDegrees>
            </Position>
            <AltitudeMeters>1103</AltitudeMeters>
            <DistanceMeters>NAN</DistanceMeters>
          </Trackpoint>
          <Trackpoint>
            <Time>2021-08-03T11:29:28.000Z</Time>
            <Position>
              <LatitudeDegrees>-15.43875217437744140625</LatitudeDegrees>
              <LongitudeDegrees>37.06126288510859012603759765625</LongitudeDegrees>
            </Position>
            <AltitudeMeters>1102.199951171875</AltitudeMeters>
            <DistanceMeters>NAN</DistanceMeters>
          </Trackpoint>
          <Trackpoint>
            <Time>2021-08-03T11:29:29.000Z</Time>
            <Position>
              <LatitudeDegrees>-15.4387535154819488525390625</LatitudeDegrees>
              <LongitudeDegrees>37.06125500611960887908935546875</LongitudeDegrees>
            </Position>
            <AltitudeMeters>1101.800048828125</AltitudeMeters>
            <DistanceMeters>NAN</DistanceMeters>
          </Trackpoint>
          <Trackpoint>
            <Time>2021-08-03T11:29:34.000Z</Time>
            <Position>
              <LatitudeDegrees>-15.43877069838345050811767578125</LatitudeDegrees>
              <LongitudeDegrees>37.0612083189189434051513671875</LongitudeDegrees>
            </Position>
            <AltitudeMeters>1100.800048828125</AltitudeMeters>
            <DistanceMeters>NAN</DistanceMeters>
          </Trackpoint>
          <Trackpoint>
            <Time>2021-08-03T11:29:39.000Z</Time>
            <Position>
              <LatitudeDegrees>-15.43878762982785701751708984375</LatitudeDegrees>
              <LongitudeDegrees>37.06115945242345333099365234375</LongitudeDegrees>
            </Position>
            <AltitudeMeters>1099.5999755859375</AltitudeMeters>
            <DistanceMeters>NAN</DistanceMeters>
          </Trackpoint>
          <Trackpoint>
            <Time>2021-08-03T11:29:40.000Z</Time>
            <Position>
              <LatitudeDegrees>-15.43879215605556964874267578125</LatitudeDegrees>
              <LongitudeDegrees>37.061147801578044891357421875</LongitudeDegrees>
            </Position>
            <AltitudeMeters>1099.5999755859375</AltitudeMeters>
            <DistanceMeters>NAN</DistanceMeters>
          </Trackpoint>
          <Trackpoint>
            <Time>2021-08-03T11:29:44.000Z</Time>
            <Position>
              <LatitudeDegrees>-15.43881730176508426666259765625</LatitudeDegrees>
              <LongitudeDegrees>37.06109172664582729339599609375</LongitudeDegrees>
            </Position>
            <AltitudeMeters>1098.5999755859375</AltitudeMeters>
            <DistanceMeters>NAN</DistanceMeters>
          </Trackpoint>
          <Trackpoint>
            <Time>2021-08-03T11:29:46.000Z</Time>
            <Position>
              <LatitudeDegrees>-15.4388338141143321990966796875</LatitudeDegrees>
              <LongitudeDegrees>37.0610661618411540985107421875</LongitudeDegrees>
            </Position>
            <AltitudeMeters>1098.4000244140625</AltitudeMeters>
            <DistanceMeters>NAN</DistanceMeters>
          </Trackpoint>
          <Trackpoint>
            <Time>2021-08-03T11:29:50.000Z</Time>
            <Position>
              <LatitudeDegrees>-15.438864491879940032958984375</LatitudeDegrees>
              <LongitudeDegrees>37.06102215684950351715087890625</LongitudeDegrees>
            </Position>
            <AltitudeMeters>1097.199951171875</AltitudeMeters>
            <DistanceMeters>NAN</DistanceMeters>
          </Trackpoint>
          <Trackpoint>
            <Time>2021-08-03T11:29:54.000Z</Time>
            <Position>
              <LatitudeDegrees>-15.438900031149387359619140625</LatitudeDegrees>
              <LongitudeDegrees>37.0609860308468341827392578125</LongitudeDegrees>
            </Position>
            <AltitudeMeters>1097</AltitudeMeters>
            <DistanceMeters>NAN</DistanceMeters>
          </Trackpoint>
          <Trackpoint>
            <Time>2021-08-03T11:30:02.000Z</Time>
            <Position>
              <LatitudeDegrees>-15.43898644857108592987060546875</LatitudeDegrees>
              <LongitudeDegrees>37.06095032393932342529296875</LongitudeDegrees>
            </Position>
            <AltitudeMeters>1096.199951171875</AltitudeMeters>
            <DistanceMeters>NAN</DistanceMeters>
          </Trackpoint>
          <Trackpoint>
            <Time>2021-08-03T11:30:03.000Z</Time>
            <Position>
              <LatitudeDegrees>-15.43899650685489177703857421875</LatitudeDegrees>
              <LongitudeDegrees>37.06094705499708652496337890625</LongitudeDegrees>
            </Position>
            <AltitudeMeters>1096</AltitudeMeters>
            <DistanceMeters>NAN</DistanceMeters>
          </Trackpoint>
          <Trackpoint>
            <Time>2021-08-03T11:30:05.000Z</Time>
            <Position>
              <LatitudeDegrees>-15.43901360593736171722412109375</LatitudeDegrees>
              <LongitudeDegrees>37.06094051711261272430419921875</LongitudeDegrees>
            </Position>
            <AltitudeMeters>1094.800048828125</AltitudeMeters>
            <DistanceMeters>NAN</DistanceMeters>
          </Trackpoint>
          <Trackpoint>
            <Time>2021-08-03T11:30:08.000Z</Time>
            <Position>
              <LatitudeDegrees>-15.4390431940555572509765625</LatitudeDegrees>
              <LongitudeDegrees>37.060923837125301361083984375</LongitudeDegrees>
            </Position>
            <AltitudeMeters>1094.199951171875</AltitudeMeters>
            <DistanceMeters>NAN</DistanceMeters>
          </Trackpoint>
          <Trackpoint>
            <Time>2021-08-03T11:30:09.000Z</Time>
            <Position>
              <LatitudeDegrees>-15.43905165977776050567626953125</LatitudeDegrees>
              <LongitudeDegrees>37.06092090345919132232666015625</LongitudeDegrees>
            </Position>
            <AltitudeMeters>1094</AltitudeMeters>
            <DistanceMeters>NAN</DistanceMeters>
          </Trackpoint>
          <Trackpoint>
            <Time>2021-08-03T11:30:10.000Z</Time>
            <Position>
              <LatitudeDegrees>-15.43906490318477153778076171875</LatitudeDegrees>
              <LongitudeDegrees>37.06091771833598613739013671875</LongitudeDegrees>
            </Position>
            <AltitudeMeters>1093.800048828125</AltitudeMeters>
            <DistanceMeters>NAN</DistanceMeters>
          </Trackpoint>
          <Trackpoint>
            <Time>2021-08-03T11:30:16.000Z</Time>
            <Position>
              <LatitudeDegrees>-15.43914436362683773040771484375</LatitudeDegrees>
              <LongitudeDegrees>37.06088821403682231903076171875</LongitudeDegrees>
            </Position>
            <AltitudeMeters>1092.4000244140625</AltitudeMeters>
            <DistanceMeters>NAN</DistanceMeters>
          </Trackpoint>
          <Trackpoint>
            <Time>2021-08-03T11:30:19.000Z</Time>
            <Position>
              <LatitudeDegrees>-15.439184010028839111328125</LatitudeDegrees>
              <LongitudeDegrees>37.060878574848175048828125</LongitudeDegrees>
            </Position>
            <AltitudeMeters>1091.5999755859375</AltitudeMeters>
            <DistanceMeters>NAN</DistanceMeters>
          </Trackpoint>
          <Trackpoint>
            <Time>2021-08-03T11:30:20.000Z</Time>
            <Position>
              <LatitudeDegrees>-15.439201779663562774658203125</LatitudeDegrees>
              <LongitudeDegrees>37.060870863497257232666015625</LongitudeDegrees>
            </Position>
            <AltitudeMeters>1091.4000244140625</AltitudeMeters>
            <DistanceMeters>NAN</DistanceMeters>
          </Trackpoint>
          <Trackpoint>
            <Time>2021-08-03T11:30:24.000Z</Time>
            <Position>
              <LatitudeDegrees>-15.43924695812165737152099609375</LatitudeDegrees>
              <LongitudeDegrees>37.06086449325084686279296875</LongitudeDegrees>
            </Position>
            <AltitudeMeters>1090.5999755859375</AltitudeMeters>
            <DistanceMeters>NAN</DistanceMeters>
          </Trackpoint>
          <Trackpoint>
            <Time>2021-08-03T11:30:25.000Z</Time>
            <Position>
              <LatitudeDegrees>-15.4392589442431926727294921875</LatitudeDegrees>
              <LongitudeDegrees>37.06086575053632259368896484375</LongitudeDegrees>
            </Position>
            <AltitudeMeters>1090.5999755859375</AltitudeMeters>
            <DistanceMeters>NAN</DistanceMeters>
          </Trackpoint>
          <Trackpoint>
            <Time>2021-08-03T11:30:29.000Z</Time>
            <Position>
              <LatitudeDegrees>-15.43930194340646266937255859375</LatitudeDegrees>
              <LongitudeDegrees>37.0608670078217983245849609375</LongitudeDegrees>
            </Position>
            <AltitudeMeters>1089.800048828125</AltitudeMeters>
            <DistanceMeters>NAN</DistanceMeters>
          </Trackpoint>
          <Trackpoint>
            <Time>2021-08-03T11:30:33.000Z</Time>
            <Position>
              <LatitudeDegrees>-15.43933647684752941131591796875</LatitudeDegrees>
              <LongitudeDegrees>37.0608606375753879547119140625</LongitudeDegrees>
            </Position>
            <AltitudeMeters>1088.4000244140625</AltitudeMeters>
            <DistanceMeters>NAN</DistanceMeters>
          </Trackpoint>
          <Trackpoint>
            <Time>2021-08-03T11:30:37.000Z</Time>
            <Position>
              <LatitudeDegrees>-15.43935894034802913665771484375</LatitudeDegrees>
              <LongitudeDegrees>37.06083172000944614410400390625</LongitudeDegrees>
            </Position>
            <AltitudeMeters>1087.5999755859375</AltitudeMeters>
            <DistanceMeters>NAN</DistanceMeters>
          </Trackpoint>
          <Trackpoint>
            <Time>2021-08-03T11:30:38.000Z</Time>
            <Position>
              <LatitudeDegrees>-15.43936246074736118316650390625</LatitudeDegrees>
              <LongitudeDegrees>37.0608235895633697509765625</LongitudeDegrees>
            </Position>
            <AltitudeMeters>1087.4000244140625</AltitudeMeters>
            <DistanceMeters>NAN</DistanceMeters>
          </Trackpoint>
          <Trackpoint>
            <Time>2021-08-03T11:30:39.000Z</Time>
            <Position>
              <LatitudeDegrees>-15.43936598114669322967529296875</LatitudeDegrees>
              <LongitudeDegrees>37.06081830896437168121337890625</LongitudeDegrees>
            </Position>
            <AltitudeMeters>1087</AltitudeMeters>
            <DistanceMeters>NAN</DistanceMeters>
          </Trackpoint>
          <Trackpoint>
            <Time>2021-08-03T11:30:43.000Z</Time>
            <Position>
              <LatitudeDegrees>-15.43936179019510746002197265625</LatitudeDegrees>
              <LongitudeDegrees>37.06077841110527515411376953125</LongitudeDegrees>
            </Position>
            <AltitudeMeters>1086</AltitudeMeters>
            <DistanceMeters>NAN</DistanceMeters>
          </Trackpoint>
          <Trackpoint>
            <Time>2021-08-03T11:30:44.000Z</Time>
            <Position>
              <LatitudeDegrees>-15.43935759924352169036865234375</LatitudeDegrees>
              <LongitudeDegrees>37.06076659262180328369140625</LongitudeDegrees>
            </Position>
            <AltitudeMeters>1085.5999755859375</AltitudeMeters>
            <DistanceMeters>NAN</DistanceMeters>
          </Trackpoint>
          <Trackpoint>
            <Time>2021-08-03T11:30:47.000Z</Time>
            <Position>
              <LatitudeDegrees>-15.439346618950366973876953125</LatitudeDegrees>
              <LongitudeDegrees>37.06073708832263946533203125</LongitudeDegrees>
            </Position>
            <AltitudeMeters>1084</AltitudeMeters>
            <DistanceMeters>NAN</DistanceMeters>
          </Trackpoint>
          <Trackpoint>
            <Time>2021-08-03T11:30:51.000Z</Time>
            <Position>
              <LatitudeDegrees>-15.439332537353038787841796875</LatitudeDegrees>
              <LongitudeDegrees>37.06068838946521282196044921875</LongitudeDegrees>
            </Position>
            <AltitudeMeters>1083.199951171875</AltitudeMeters>
            <DistanceMeters>NAN</DistanceMeters>
          </Trackpoint>
          <Trackpoint>
            <Time>2021-08-03T11:30:52.000Z</Time>
            <Position>
              <LatitudeDegrees>-15.43932876549661159515380859375</LatitudeDegrees>
              <LongitudeDegrees>37.06067531369626522064208984375</LongitudeDegrees>
            </Position>
            <AltitudeMeters>1082.800048828125</AltitudeMeters>
            <DistanceMeters>NAN</DistanceMeters>
          </Trackpoint>
          <Trackpoint>
            <Time>2021-08-03T11:30:56.000Z</Time>
            <Position>
              <LatitudeDegrees>-15.4393115825951099395751953125</LatitudeDegrees>
              <LongitudeDegrees>37.06062284298241138458251953125</LongitudeDegrees>
            </Position>
            <AltitudeMeters>1082.800048828125</AltitudeMeters>
            <DistanceMeters>NAN</DistanceMeters>
          </Trackpoint>
          <Trackpoint>
            <Time>2021-08-03T11:30:59.000Z</Time>
            <Position>
              <LatitudeDegrees>-15.4393087327480316162109375</LatitudeDegrees>
              <LongitudeDegrees>37.0605937577784061431884765625</LongitudeDegrees>
            </Position>
            <AltitudeMeters>1082.4000244140625</AltitudeMeters>
            <DistanceMeters>NAN</DistanceMeters>
          </Trackpoint>
          <Trackpoint>
            <Time>2021-08-03T11:31:01.000Z</Time>
            <Position>
              <LatitudeDegrees>-15.43930663727223873138427734375</LatitudeDegrees>
              <LongitudeDegrees>37.0605763234198093414306640625</LongitudeDegrees>
            </Position>
            <AltitudeMeters>1081.800048828125</AltitudeMeters>
            <DistanceMeters>NAN</DistanceMeters>
          </Trackpoint>
          <Trackpoint>
            <Time>2021-08-03T11:31:03.000Z</Time>
            <Position>
              <LatitudeDegrees>-15.43930429033935070037841796875</LatitudeDegrees>
              <LongitudeDegrees>37.0605607330799102783203125</LongitudeDegrees>
            </Position>
            <AltitudeMeters>1081</AltitudeMeters>
            <DistanceMeters>NAN</DistanceMeters>
          </Trackpoint>
          <Trackpoint>
            <Time>2021-08-03T11:31:04.000Z</Time>
            <Position>
              <LatitudeDegrees>-15.4393035359680652618408203125</LatitudeDegrees>
              <LongitudeDegrees>37.06055109389126300811767578125</LongitudeDegrees>
            </Position>
            <AltitudeMeters>1080.5999755859375</AltitudeMeters>
            <DistanceMeters>NAN</DistanceMeters>
          </Trackpoint>
          <Trackpoint>
            <Time>2021-08-03T11:31:07.000Z</Time>
            <Position>
              <LatitudeDegrees>-15.43930060230195522308349609375</LatitudeDegrees>
              <LongitudeDegrees>37.06052410416305065155029296875</LongitudeDegrees>
            </Position>
            <AltitudeMeters>1079.800048828125</AltitudeMeters>
            <DistanceMeters>NAN</DistanceMeters>
          </Trackpoint>
          <Trackpoint>
            <Time>2021-08-03T11:31:11.000Z</Time>
            <Position>
              <LatitudeDegrees>-15.43930697254836559295654296875</LatitudeDegrees>
              <LongitudeDegrees>37.0604700408875942230224609375</LongitudeDegrees>
            </Position>
            <AltitudeMeters>1079.4000244140625</AltitudeMeters>
            <DistanceMeters>NAN</DistanceMeters>
          </Trackpoint>
          <Trackpoint>
            <Time>2021-08-03T11:31:13.000Z</Time>
            <Position>
              <LatitudeDegrees>-15.4393115825951099395751953125</LatitudeDegrees>
              <LongitudeDegrees>37.06044430844485759735107421875</LongitudeDegrees>
            </Position>
            <AltitudeMeters>1079.199951171875</AltitudeMeters>
            <DistanceMeters>NAN</DistanceMeters>
          </Trackpoint>
          <Trackpoint>
            <Time>2021-08-03T11:31:15.000Z</Time>
            <Position>
              <LatitudeDegrees>-15.4393192939460277557373046875</LatitudeDegrees>
              <LongitudeDegrees>37.0604117028415203094482421875</LongitudeDegrees>
            </Position>
            <AltitudeMeters>1078.199951171875</AltitudeMeters>
            <DistanceMeters>NAN</DistanceMeters>
          </Trackpoint>
          <Trackpoint>
            <Time>2021-08-03T11:31:24.000Z</Time>
            <Position>
              <LatitudeDegrees>-15.43934829533100128173828125</LatitudeDegrees>
              <LongitudeDegrees>37.060316987335681915283203125</LongitudeDegrees>
            </Position>
            <AltitudeMeters>1077.4000244140625</AltitudeMeters>
            <DistanceMeters>NAN</DistanceMeters>
          </Trackpoint>
          <Trackpoint>
            <Time>2021-08-03T11:31:25.000Z</Time>
            <Position>
              <LatitudeDegrees>-15.43935290537774562835693359375</LatitudeDegrees>
              <LongitudeDegrees>37.06030969507992267608642578125</LongitudeDegrees>
            </Position>
            <AltitudeMeters>1077.199951171875</AltitudeMeters>
            <DistanceMeters>NAN</DistanceMeters>
          </Trackpoint>
          <Trackpoint>
            <Time>2021-08-03T11:31:30.000Z</Time>
            <Position>
              <LatitudeDegrees>-15.439370088279247283935546875</LatitudeDegrees>
              <LongitudeDegrees>37.06025051884353160858154296875</LongitudeDegrees>
            </Position>
            <AltitudeMeters>1076.199951171875</AltitudeMeters>
            <DistanceMeters>NAN</DistanceMeters>
          </Trackpoint>
          <Trackpoint>
            <Time>2021-08-03T11:31:33.000Z</Time>
            <Position>
              <LatitudeDegrees>-15.439384169876575469970703125</LatitudeDegrees>
              <LongitudeDegrees>37.06020927987992763519287109375</LongitudeDegrees>
            </Position>
            <AltitudeMeters>1075.4000244140625</AltitudeMeters>
            <DistanceMeters>NAN</DistanceMeters>
          </Trackpoint>
          <Trackpoint>
            <Time>2021-08-03T11:31:34.000Z</Time>
            <Position>
              <LatitudeDegrees>-15.43938693590462207794189453125</LatitudeDegrees>
              <LongitudeDegrees>37.0601954497396945953369140625</LongitudeDegrees>
            </Position>
            <AltitudeMeters>1075.199951171875</AltitudeMeters>
            <DistanceMeters>NAN</DistanceMeters>
          </Trackpoint>
          <Trackpoint>
            <Time>2021-08-03T11:31:35.000Z</Time>
            <Position>
              <LatitudeDegrees>-15.43939364142715930938720703125</LatitudeDegrees>
              <LongitudeDegrees>37.0601823739707469940185546875</LongitudeDegrees>
            </Position>
            <AltitudeMeters>1075</AltitudeMeters>
            <DistanceMeters>NAN</DistanceMeters>
          </Trackpoint>
          <Trackpoint>
            <Time>2021-08-03T11:31:39.000Z</Time>
            <Position>
              <LatitudeDegrees>-15.439415015280246734619140625</LatitudeDegrees>
              <LongitudeDegrees>37.060143984854221343994140625</LongitudeDegrees>
            </Position>
            <AltitudeMeters>1074.5999755859375</AltitudeMeters>
            <DistanceMeters>NAN</DistanceMeters>
          </Trackpoint>
          <Trackpoint>
            <Time>2021-08-03T11:31:43.000Z</Time>
            <Position>
              <LatitudeDegrees>-15.4394259117543697357177734375</LatitudeDegrees>
              <LongitudeDegrees>37.06010970287024974822998046875</LongitudeDegrees>
            </Position>
            <AltitudeMeters>1074.199951171875</AltitudeMeters>
            <DistanceMeters>NAN</DistanceMeters>
          </Trackpoint>
          <Trackpoint>
            <Time>2021-08-03T11:31:46.000Z</Time>
            <Position>
              <LatitudeDegrees>-15.43943571858108043670654296875</LatitudeDegrees>
              <LongitudeDegrees>37.06008740700781345367431640625</LongitudeDegrees>
            </Position>
            <AltitudeMeters>1072.800048828125</AltitudeMeters>
            <DistanceMeters>NAN</DistanceMeters>
          </Trackpoint>
          <Trackpoint>
            <Time>2021-08-03T11:31:50.000Z</Time>
            <Position>
              <LatitudeDegrees>-15.43944217264652252197265625</LatitudeDegrees>
              <LongitudeDegrees>37.06004918552935123443603515625</LongitudeDegrees>
            </Position>
            <AltitudeMeters>1071.5999755859375</AltitudeMeters>
            <DistanceMeters>NAN</DistanceMeters>
          </Trackpoint>
          <Trackpoint>
            <Time>2021-08-03T11:31:56.000Z</Time>
            <Position>
              <LatitudeDegrees>-15.4394423402845859527587890625</LatitudeDegrees>
              <LongitudeDegrees>37.05997441895306110382080078125</LongitudeDegrees>
            </Position>
            <AltitudeMeters>1071</AltitudeMeters>
            <DistanceMeters>NAN</DistanceMeters>
          </Trackpoint>
          <Trackpoint>
            <Time>2021-08-03T11:31:57.000Z</Time>
            <Position>
              <LatitudeDegrees>-15.439443178474903106689453125</LatitudeDegrees>
              <LongitudeDegrees>37.05996201373636722564697265625</LongitudeDegrees>
            </Position>
            <AltitudeMeters>1070.4000244140625</AltitudeMeters>
            <DistanceMeters>NAN</DistanceMeters>
          </Trackpoint>
          <Trackpoint>
            <Time>2021-08-03T11:31:58.000Z</Time>
            <Position>
              <LatitudeDegrees>-15.43944058008491992950439453125</LatitudeDegrees>
              <LongitudeDegrees>37.05995229072868824005126953125</LongitudeDegrees>
            </Position>
            <AltitudeMeters>1070.199951171875</AltitudeMeters>
            <DistanceMeters>NAN</DistanceMeters>
          </Trackpoint>
          <Trackpoint>
            <Time>2021-08-03T11:32:03.000Z</Time>
            <Position>
              <LatitudeDegrees>-15.43943278491497039794921875</LatitudeDegrees>
              <LongitudeDegrees>37.05989479087293148040771484375</LongitudeDegrees>
            </Position>
            <AltitudeMeters>1069.800048828125</AltitudeMeters>
            <DistanceMeters>NAN</DistanceMeters>
          </Trackpoint>
          <Trackpoint>
            <Time>2021-08-03T11:32:06.000Z</Time>
            <Position>
              <LatitudeDegrees>-15.4394321143627166748046875</LatitudeDegrees>
              <LongitudeDegrees>37.059866376221179962158203125</LongitudeDegrees>
            </Position>
            <AltitudeMeters>1069</AltitudeMeters>
            <DistanceMeters>NAN</DistanceMeters>
          </Trackpoint>
          <Trackpoint>
            <Time>2021-08-03T11:32:10.000Z</Time>
            <Position>
              <LatitudeDegrees>-15.43942733667790889739990234375</LatitudeDegrees>
              <LongitudeDegrees>37.0598222874104976654052734375</LongitudeDegrees>
            </Position>
            <AltitudeMeters>1068</AltitudeMeters>
            <DistanceMeters>NAN</DistanceMeters>
          </Trackpoint>
          <Trackpoint>
            <Time>2021-08-03T11:32:13.000Z</Time>
            <Position>
              <LatitudeDegrees>-15.43941996060311794281005859375</LatitudeDegrees>
              <LongitudeDegrees>37.05978381447494029998779296875</LongitudeDegrees>
            </Position>
            <AltitudeMeters>1066.800048828125</AltitudeMeters>
            <DistanceMeters>NAN</DistanceMeters>
          </Trackpoint>
          <Trackpoint>
            <Time>2021-08-03T11:32:20.000Z</Time>
            <Position>
              <LatitudeDegrees>-15.43940654955804347991943359375</LatitudeDegrees>
              <LongitudeDegrees>37.0597109757363796234130859375</LongitudeDegrees>
            </Position>
            <AltitudeMeters>1066.199951171875</AltitudeMeters>
            <DistanceMeters>NAN</DistanceMeters>
          </Trackpoint>
          <Trackpoint>
            <Time>2021-08-03T11:32:22.000Z</Time>
            <Position>
              <LatitudeDegrees>-15.43940621428191661834716796875</LatitudeDegrees>
              <LongitudeDegrees>37.0596885122358798980712890625</LongitudeDegrees>
            </Position>
            <AltitudeMeters>1065.199951171875</AltitudeMeters>
            <DistanceMeters>NAN</DistanceMeters>
          </Trackpoint>
          <Trackpoint>
            <Time>2021-08-03T11:32:30.000Z</Time>
            <Position>
              <LatitudeDegrees>-15.4394185356795787811279296875</LatitudeDegrees>
              <LongitudeDegrees>37.0595946349203586578369140625</LongitudeDegrees>
            </Position>
            <AltitudeMeters>1064.4000244140625</AltitudeMeters>
            <DistanceMeters>NAN</DistanceMeters>
          </Trackpoint>
          <Trackpoint>
            <Time>2021-08-03T11:32:33.000Z</Time>
            <Position>
              <LatitudeDegrees>-15.43943135999143123626708984375</LatitudeDegrees>
              <LongitudeDegrees>37.05957141704857349395751953125</LongitudeDegrees>
            </Position>
            <AltitudeMeters>1064.4000244140625</AltitudeMeters>
            <DistanceMeters>NAN</DistanceMeters>
          </Trackpoint>
          <Trackpoint>
            <Time>2021-08-03T11:32:34.000Z</Time>
            <Position>
              <LatitudeDegrees>-15.4394356347620487213134765625</LatitudeDegrees>
              <LongitudeDegrees>37.0595611073076725006103515625</LongitudeDegrees>
            </Position>
            <AltitudeMeters>1064.4000244140625</AltitudeMeters>
            <DistanceMeters>NAN</DistanceMeters>
          </Trackpoint>
          <Trackpoint>
            <Time>2021-08-03T11:32:35.000Z</Time>
            <Position>
              <LatitudeDegrees>-15.43943881988525390625</LatitudeDegrees>
              <LongitudeDegrees>37.0595522224903106689453125</LongitudeDegrees>
            </Position>
            <AltitudeMeters>1063.5999755859375</AltitudeMeters>
            <DistanceMeters>NAN</DistanceMeters>
          </Trackpoint>
          <Trackpoint>
            <Time>2021-08-03T11:32:39.000Z</Time>
            <Position>
              <LatitudeDegrees>-15.4394550807774066925048828125</LatitudeDegrees>
              <LongitudeDegrees>37.05951341427862644195556640625</LongitudeDegrees>
            </Position>
            <AltitudeMeters>1062.4000244140625</AltitudeMeters>
            <DistanceMeters>NAN</DistanceMeters>
          </Trackpoint>
          <Trackpoint>
            <Time>2021-08-03T11:32:40.000Z</Time>
            <Position>
              <LatitudeDegrees>-15.43945918790996074676513671875</LatitudeDegrees>
              <LongitudeDegrees>37.05950503237545490264892578125</LongitudeDegrees>
            </Position>
            <AltitudeMeters>1061.800048828125</AltitudeMeters>
            <DistanceMeters>NAN</DistanceMeters>
          </Trackpoint>
          <Trackpoint>
            <Time>2021-08-03T11:32:43.000Z</Time>
            <Position>
              <LatitudeDegrees>-15.43947863392531871795654296875</LatitudeDegrees>
              <LongitudeDegrees>37.05947770737111568450927734375</LongitudeDegrees>
            </Position>
            <AltitudeMeters>1061.4000244140625</AltitudeMeters>
            <DistanceMeters>NAN</DistanceMeters>
          </Trackpoint>
          <Trackpoint>
            <Time>2021-08-03T11:32:47.000Z</Time>
            <Position>
              <LatitudeDegrees>-15.43951249681413173675537109375</LatitudeDegrees>
              <LongitudeDegrees>37.0594274997711181640625</LongitudeDegrees>
            </Position>
            <AltitudeMeters>1060.800048828125</AltitudeMeters>
            <DistanceMeters>NAN</DistanceMeters>
          </Trackpoint>
          <Trackpoint>
            <Time>2021-08-03T11:32:50.000Z</Time>
            <Position>
              <LatitudeDegrees>-15.439538396894931793212890625</LatitudeDegrees>
              <LongitudeDegrees>37.0593924634158611297607421875</LongitudeDegrees>
            </Position>
            <AltitudeMeters>1060.800048828125</AltitudeMeters>
            <DistanceMeters>NAN</DistanceMeters>
          </Trackpoint>
          <Trackpoint>
            <Time>2021-08-03T11:32:55.000Z</Time>
            <Position>
              <LatitudeDegrees>-15.43957033194601535797119140625</LatitudeDegrees>
              <LongitudeDegrees>37.059344686567783355712890625</LongitudeDegrees>
            </Position>
            <AltitudeMeters>1060.199951171875</AltitudeMeters>
            <DistanceMeters>NAN</DistanceMeters>
          </Trackpoint>
          <Trackpoint>
            <Time>2021-08-03T11:32:57.000Z</Time>
            <Position>
              <LatitudeDegrees>-15.4395801387727260589599609375</LatitudeDegrees>
              <LongitudeDegrees>37.0593341253697872161865234375</LongitudeDegrees>
            </Position>
            <AltitudeMeters>1059.199951171875</AltitudeMeters>
            <DistanceMeters>NAN</DistanceMeters>
          </Trackpoint>
          <Trackpoint>
            <Time>2021-08-03T11:32:58.000Z</Time>
            <Position>
              <LatitudeDegrees>-15.43958776630461215972900390625</LatitudeDegrees>
              <LongitudeDegrees>37.059325911104679107666015625</LongitudeDegrees>
            </Position>
            <AltitudeMeters>1059.199951171875</AltitudeMeters>
            <DistanceMeters>NAN</DistanceMeters>
          </Trackpoint>
          <Trackpoint>
            <Time>2021-08-03T11:33:02.000Z</Time>
            <Position>
              <LatitudeDegrees>-15.439617522060871124267578125</LatitudeDegrees>
              <LongitudeDegrees>37.059295065701007843017578125</LongitudeDegrees>
            </Position>
            <AltitudeMeters>1058</AltitudeMeters>
            <DistanceMeters>NAN</DistanceMeters>
          </Trackpoint>
          <Trackpoint>
            <Time>2021-08-03T11:33:06.000Z</Time>
            <Position>
              <LatitudeDegrees>-15.4396451823413372039794921875</LatitudeDegrees>
              <LongitudeDegrees>37.05926413647830486297607421875</LongitudeDegrees>
            </Position>
            <AltitudeMeters>1057.800048828125</AltitudeMeters>
            <DistanceMeters>NAN</DistanceMeters>
          </Trackpoint>
          <Trackpoint>
            <Time>2021-08-03T11:33:08.000Z</Time>
            <Position>
              <LatitudeDegrees>-15.43966286815702915191650390625</LatitudeDegrees>
              <LongitudeDegrees>37.059239409863948822021484375</LongitudeDegrees>
            </Position>
            <AltitudeMeters>1057.199951171875</AltitudeMeters>
            <DistanceMeters>NAN</DistanceMeters>
          </Trackpoint>
          <Trackpoint>
            <Time>2021-08-03T11:33:10.000Z</Time>
            <Position>
              <LatitudeDegrees>-15.439684577286243438720703125</LatitudeDegrees>
              <LongitudeDegrees>37.059219293296337127685546875</LongitudeDegrees>
            </Position>
            <AltitudeMeters>1056.5999755859375</AltitudeMeters>
            <DistanceMeters>NAN</DistanceMeters>
          </Trackpoint>
          <Trackpoint>
            <Time>2021-08-03T11:33:14.000Z</Time>
            <Position>
              <LatitudeDegrees>-15.43972187675535678863525390625</LatitudeDegrees>
              <LongitudeDegrees>37.05917880870401859283447265625</LongitudeDegrees>
            </Position>
            <AltitudeMeters>1055.5999755859375</AltitudeMeters>
            <DistanceMeters>NAN</DistanceMeters>
          </Trackpoint>
          <Trackpoint>
            <Time>2021-08-03T11:33:19.000Z</Time>
            <Position>
              <LatitudeDegrees>-15.43976261280477046966552734375</LatitudeDegrees>
              <LongitudeDegrees>37.0591359771788120269775390625</LongitudeDegrees>
            </Position>
            <AltitudeMeters>1054.800048828125</AltitudeMeters>
            <DistanceMeters>NAN</DistanceMeters>
          </Trackpoint>
          <Trackpoint>
            <Time>2021-08-03T11:33:23.000Z</Time>
            <Position>
              <LatitudeDegrees>-15.43979144655168056488037109375</LatitudeDegrees>
              <LongitudeDegrees>37.05911175347864627838134765625</LongitudeDegrees>
            </Position>
            <AltitudeMeters>1054.199951171875</AltitudeMeters>
            <DistanceMeters>NAN</DistanceMeters>
          </Trackpoint>
          <Trackpoint>
            <Time>2021-08-03T11:33:25.000Z</Time>
            <Position>
              <LatitudeDegrees>-15.43981106020510196685791015625</LatitudeDegrees>
              <LongitudeDegrees>37.05909934826195240020751953125</LongitudeDegrees>
            </Position>
            <AltitudeMeters>1053</AltitudeMeters>
            <DistanceMeters>NAN</DistanceMeters>
          </Trackpoint>
          <Trackpoint>
            <Time>2021-08-03T11:33:26.000Z</Time>
            <Position>
              <LatitudeDegrees>-15.4398181848227977752685546875</LatitudeDegrees>
              <LongitudeDegrees>37.05909867770969867706298828125</LongitudeDegrees>
            </Position>
            <AltitudeMeters>1052.5999755859375</AltitudeMeters>
            <DistanceMeters>NAN</DistanceMeters>
          </Trackpoint>
          <Trackpoint>
            <Time>2021-08-03T11:33:29.000Z</Time>
            <Position>
              <LatitudeDegrees>-15.43984509073197841644287109375</LatitudeDegrees>
              <LongitudeDegrees>37.0590900443494319915771484375</LongitudeDegrees>
            </Position>
            <AltitudeMeters>1052</AltitudeMeters>
            <DistanceMeters>NAN</DistanceMeters>
          </Trackpoint>
          <Trackpoint>
            <Time>2021-08-03T11:33:32.000Z</Time>
            <Position>
              <LatitudeDegrees>-15.43986688368022441864013671875</LatitudeDegrees>
              <LongitudeDegrees>37.059089206159114837646484375</LongitudeDegrees>
            </Position>
            <AltitudeMeters>1050.800048828125</AltitudeMeters>
            <DistanceMeters>NAN</DistanceMeters>
          </Trackpoint>
          <Trackpoint>
            <Time>2021-08-03T11:33:34.000Z</Time>
            <Position>
              <LatitudeDegrees>-15.43988649733364582061767578125</LatitudeDegrees>
              <LongitudeDegrees>37.05908023752272129058837890625</LongitudeDegrees>
            </Position>
            <AltitudeMeters>1050.4000244140625</AltitudeMeters>
            <DistanceMeters>NAN</DistanceMeters>
          </Trackpoint>
          <Trackpoint>
            <Time>2021-08-03T11:33:40.000Z</Time>
            <Position>
              <LatitudeDegrees>-15.4399516247212886810302734375</LatitudeDegrees>
              <LongitudeDegrees>37.059045620262622833251953125</LongitudeDegrees>
            </Position>
            <AltitudeMeters>1049.5999755859375</AltitudeMeters>
            <DistanceMeters>NAN</DistanceMeters>
          </Trackpoint>
          <Trackpoint>
            <Time>2021-08-03T11:33:43.000Z</Time>
            <Position>
              <LatitudeDegrees>-15.43998221866786479949951171875</LatitudeDegrees>
              <LongitudeDegrees>37.05902449786663055419921875</LongitudeDegrees>
            </Position>
            <AltitudeMeters>1048.5999755859375</AltitudeMeters>
            <DistanceMeters>NAN</DistanceMeters>
          </Trackpoint>
          <Trackpoint>
            <Time>2021-08-03T11:33:49.000Z</Time>
            <Position>
              <LatitudeDegrees>-15.44000317342579364776611328125</LatitudeDegrees>
              <LongitudeDegrees>37.05897730775177478790283203125</LongitudeDegrees>
            </Position>
            <AltitudeMeters>1047.800048828125</AltitudeMeters>
            <DistanceMeters>NAN</DistanceMeters>
          </Trackpoint>
          <Trackpoint>
            <Time>2021-08-03T11:33:50.000Z</Time>
            <Position>
              <LatitudeDegrees>-15.440003089606761932373046875</LatitudeDegrees>
              <LongitudeDegrees>37.05896825529634952545166015625</LongitudeDegrees>
            </Position>
            <AltitudeMeters>1046.800048828125</AltitudeMeters>
            <DistanceMeters>NAN</DistanceMeters>
          </Trackpoint>
          <Trackpoint>
            <Time>2021-08-03T11:33:51.000Z</Time>
            <Position>
              <LatitudeDegrees>-15.440000407397747039794921875</LatitudeDegrees>
              <LongitudeDegrees>37.05896138213574886322021484375</LongitudeDegrees>
            </Position>
            <AltitudeMeters>1046.800048828125</AltitudeMeters>
            <DistanceMeters>NAN</DistanceMeters>
          </Trackpoint>
          <Trackpoint>
            <Time>2021-08-03T11:33:54.000Z</Time>
            <Position>
              <LatitudeDegrees>-15.4399804584681987762451171875</LatitudeDegrees>
              <LongitudeDegrees>37.058936655521392822265625</LongitudeDegrees>
            </Position>
            <AltitudeMeters>1046.4000244140625</AltitudeMeters>
            <DistanceMeters>NAN</DistanceMeters>
          </Trackpoint>
          <Trackpoint>
            <Time>2021-08-03T11:33:56.000Z</Time>
            <Position>
              <LatitudeDegrees>-15.4399593360722064971923828125</LatitudeDegrees>
              <LongitudeDegrees>37.0589210651814937591552734375</LongitudeDegrees>
            </Position>
            <AltitudeMeters>1045.5999755859375</AltitudeMeters>
            <DistanceMeters>NAN</DistanceMeters>
          </Trackpoint>
          <Trackpoint>
            <Time>2021-08-03T11:33:59.000Z</Time>
            <Position>
              <LatitudeDegrees>-15.4399197734892368316650390625</LatitudeDegrees>
              <LongitudeDegrees>37.05890404991805553436279296875</LongitudeDegrees>
            </Position>
            <AltitudeMeters>1045</AltitudeMeters>
            <DistanceMeters>NAN</DistanceMeters>
          </Trackpoint>
          <Trackpoint>
            <Time>2021-08-03T11:34:00.000Z</Time>
            <Position>
              <LatitudeDegrees>-15.439908541738986968994140625</LatitudeDegrees>
              <LongitudeDegrees>37.0589002780616283416748046875</LongitudeDegrees>
            </Position>
            <AltitudeMeters>1045</AltitudeMeters>
            <DistanceMeters>NAN</DistanceMeters>
          </Trackpoint>
          <Trackpoint>
            <Time>2021-08-03T11:34:06.000Z</Time>
            <Position>
              <LatitudeDegrees>-15.4398490302264690399169921875</LatitudeDegrees>
              <LongitudeDegrees>37.0588923990726470947265625</LongitudeDegrees>
            </Position>
            <AltitudeMeters>1044.4000244140625</AltitudeMeters>
            <DistanceMeters>NAN</DistanceMeters>
          </Trackpoint>
          <Trackpoint>
            <Time>2021-08-03T11:34:11.000Z</Time>
            <Position>
              <LatitudeDegrees>-15.4397846572101116180419921875</LatitudeDegrees>
              <LongitudeDegrees>37.05888234078884124755859375</LongitudeDegrees>
            </Position>
            <AltitudeMeters>1043.800048828125</AltitudeMeters>
            <DistanceMeters>NAN</DistanceMeters>
          </Trackpoint>
          <Trackpoint>
            <Time>2021-08-03T11:34:12.000Z</Time>
            <Position>
              <LatitudeDegrees>-15.43976982124149799346923828125</LatitudeDegrees>
              <LongitudeDegrees>37.05888074822723865509033203125</LongitudeDegrees>
            </Position>
            <AltitudeMeters>1043.4000244140625</AltitudeMeters>
            <DistanceMeters>NAN</DistanceMeters>
          </Trackpoint>
          <Trackpoint>
            <Time>2021-08-03T11:34:22.000Z</Time>
            <Position>
              <LatitudeDegrees>-15.4396515525877475738525390625</LatitudeDegrees>
              <LongitudeDegrees>37.05886499024927616119384765625</LongitudeDegrees>
            </Position>
            <AltitudeMeters>1042.199951171875</AltitudeMeters>
            <DistanceMeters>NAN</DistanceMeters>
          </Trackpoint>
          <Trackpoint>
            <Time>2021-08-03T11:34:27.000Z</Time>
            <Position>
              <LatitudeDegrees>-15.4396064579486846923828125</LatitudeDegrees>
              <LongitudeDegrees>37.058856524527072906494140625</LongitudeDegrees>
            </Position>
            <AltitudeMeters>1041.199951171875</AltitudeMeters>
            <DistanceMeters>NAN</DistanceMeters>
          </Trackpoint>
          <Trackpoint>
            <Time>2021-08-03T11:34:30.000Z</Time>
            <Position>
              <LatitudeDegrees>-15.43956697918474674224853515625</LatitudeDegrees>
              <LongitudeDegrees>37.0588468015193939208984375</LongitudeDegrees>
            </Position>
            <AltitudeMeters>1040.800048828125</AltitudeMeters>
            <DistanceMeters>NAN</DistanceMeters>
          </Trackpoint>
          <Trackpoint>
            <Time>2021-08-03T11:34:36.000Z</Time>
            <Position>
              <LatitudeDegrees>-15.43949523009359836578369140625</LatitudeDegrees>
              <LongitudeDegrees>37.0588261820375919342041015625</LongitudeDegrees>
            </Position>
            <AltitudeMeters>1039.5999755859375</AltitudeMeters>
            <DistanceMeters>NAN</DistanceMeters>
          </Trackpoint>
          <Trackpoint>
            <Time>2021-08-03T11:34:39.000Z</Time>
            <Position>
              <LatitudeDegrees>-15.4394792206585407257080078125</LatitudeDegrees>
              <LongitudeDegrees>37.05881671048700809478759765625</LongitudeDegrees>
            </Position>
            <AltitudeMeters>1039.199951171875</AltitudeMeters>
            <DistanceMeters>NAN</DistanceMeters>
          </Trackpoint>
          <Trackpoint>
            <Time>2021-08-03T11:34:43.000Z</Time>
            <Position>
              <LatitudeDegrees>-15.4394678212702274322509765625</LatitudeDegrees>
              <LongitudeDegrees>37.05877840518951416015625</LongitudeDegrees>
            </Position>
            <AltitudeMeters>1037.800048828125</AltitudeMeters>
            <DistanceMeters>NAN</DistanceMeters>
          </Trackpoint>
          <Trackpoint>
            <Time>2021-08-03T11:34:46.000Z</Time>
            <Position>
              <LatitudeDegrees>-15.43947628699243068695068359375</LatitudeDegrees>
              <LongitudeDegrees>37.05875284038484096527099609375</LongitudeDegrees>
            </Position>
            <AltitudeMeters>1037.4000244140625</AltitudeMeters>
            <DistanceMeters>NAN</DistanceMeters>
          </Trackpoint>
          <Trackpoint>
            <Time>2021-08-03T11:34:50.000Z</Time>
            <Position>
              <LatitudeDegrees>-15.4394924640655517578125</LatitudeDegrees>
              <LongitudeDegrees>37.058714367449283599853515625</LongitudeDegrees>
            </Position>
            <AltitudeMeters>1036.5999755859375</AltitudeMeters>
            <DistanceMeters>NAN</DistanceMeters>
          </Trackpoint>
          <Trackpoint>
            <Time>2021-08-03T11:34:53.000Z</Time>
            <Position>
              <LatitudeDegrees>-15.43951333500444889068603515625</LatitudeDegrees>
              <LongitudeDegrees>37.05868117511272430419921875</LongitudeDegrees>
            </Position>
            <AltitudeMeters>1035.199951171875</AltitudeMeters>
            <DistanceMeters>NAN</DistanceMeters>
          </Trackpoint>
          <Trackpoint>
            <Time>2021-08-03T11:34:56.000Z</Time>
            <Position>
              <LatitudeDegrees>-15.43953412212431430816650390625</LatitudeDegrees>
              <LongitudeDegrees>37.0586511678993701934814453125</LongitudeDegrees>
            </Position>
            <AltitudeMeters>1034.4000244140625</AltitudeMeters>
            <DistanceMeters>NAN</DistanceMeters>
          </Trackpoint>
          <Trackpoint>
            <Time>2021-08-03T11:34:58.000Z</Time>
            <Position>
              <LatitudeDegrees>-15.439551137387752532958984375</LatitudeDegrees>
              <LongitudeDegrees>37.05862744711339473724365234375</LongitudeDegrees>
            </Position>
            <AltitudeMeters>1034</AltitudeMeters>
            <DistanceMeters>NAN</DistanceMeters>
          </Trackpoint>
          <Trackpoint>
            <Time>2021-08-03T11:35:06.000Z</Time>
            <Position>
              <LatitudeDegrees>-15.4396146722137928009033203125</LatitudeDegrees>
              <LongitudeDegrees>37.05856039188802242279052734375</LongitudeDegrees>
            </Position>
            <AltitudeMeters>1033.199951171875</AltitudeMeters>
            <DistanceMeters>NAN</DistanceMeters>
          </Trackpoint>
          <Trackpoint>
            <Time>2021-08-03T11:35:08.000Z</Time>
            <Position>
              <LatitudeDegrees>-15.43963118456304073333740234375</LatitudeDegrees>
              <LongitudeDegrees>37.0585482381284236907958984375</LongitudeDegrees>
            </Position>
            <AltitudeMeters>1032.800048828125</AltitudeMeters>
            <DistanceMeters>NAN</DistanceMeters>
          </Trackpoint>
          <Trackpoint>
            <Time>2021-08-03T11:35:11.000Z</Time>
            <Position>
              <LatitudeDegrees>-15.43965767137706279754638671875</LatitudeDegrees>
              <LongitudeDegrees>37.05853222869336605072021484375</LongitudeDegrees>
            </Position>
            <AltitudeMeters>1031.5999755859375</AltitudeMeters>
            <DistanceMeters>NAN</DistanceMeters>
          </Trackpoint>
          <Trackpoint>
            <Time>2021-08-03T11:35:14.000Z</Time>
            <Position>
              <LatitudeDegrees>-15.43968818150460720062255859375</LatitudeDegrees>
              <LongitudeDegrees>37.05852015875279903411865234375</LongitudeDegrees>
            </Position>
            <AltitudeMeters>1031.5999755859375</AltitudeMeters>
            <DistanceMeters>NAN</DistanceMeters>
          </Trackpoint>
          <Trackpoint>
            <Time>2021-08-03T11:35:17.000Z</Time>
            <Position>
              <LatitudeDegrees>-15.43971936218440532684326171875</LatitudeDegrees>
              <LongitudeDegrees>37.0585069991648197174072265625</LongitudeDegrees>
            </Position>
            <AltitudeMeters>1030.5999755859375</AltitudeMeters>
            <DistanceMeters>NAN</DistanceMeters>
          </Trackpoint>
          <Trackpoint>
            <Time>2021-08-03T11:35:18.000Z</Time>
            <Position>
              <LatitudeDegrees>-15.43973227031528949737548828125</LatitudeDegrees>
              <LongitudeDegrees>37.05850272439420223236083984375</LongitudeDegrees>
            </Position>
            <AltitudeMeters>1030.4000244140625</AltitudeMeters>
            <DistanceMeters>NAN</DistanceMeters>
          </Trackpoint>
          <Trackpoint>
            <Time>2021-08-03T11:35:24.000Z</Time>
            <Position>
              <LatitudeDegrees>-15.43980485759675502777099609375</LatitudeDegrees>
              <LongitudeDegrees>37.05848478712141513824462890625</LongitudeDegrees>
            </Position>
            <AltitudeMeters>1029.4000244140625</AltitudeMeters>
            <DistanceMeters>NAN</DistanceMeters>
          </Trackpoint>
          <Trackpoint>
            <Time>2021-08-03T11:35:30.000Z</Time>
            <Position>
              <LatitudeDegrees>-15.439881384372711181640625</LatitudeDegrees>
              <LongitudeDegrees>37.0584644190967082977294921875</LongitudeDegrees>
            </Position>
            <AltitudeMeters>1028.4000244140625</AltitudeMeters>
            <DistanceMeters>NAN</DistanceMeters>
          </Trackpoint>
          <Trackpoint>
            <Time>2021-08-03T11:35:31.000Z</Time>
            <Position>
              <LatitudeDegrees>-15.43989219702780246734619140625</LatitudeDegrees>
              <LongitudeDegrees>37.05846433527767658233642578125</LongitudeDegrees>
            </Position>
            <AltitudeMeters>1028.199951171875</AltitudeMeters>
            <DistanceMeters>NAN</DistanceMeters>
          </Trackpoint>
          <Trackpoint>
            <Time>2021-08-03T11:35:38.000Z</Time>
            <Position>
              <LatitudeDegrees>-15.439968220889568328857421875</LatitudeDegrees>
              <LongitudeDegrees>37.0584677718579769134521484375</LongitudeDegrees>
            </Position>
            <AltitudeMeters>1027.199951171875</AltitudeMeters>
            <DistanceMeters>NAN</DistanceMeters>
          </Trackpoint>
          <Trackpoint>
            <Time>2021-08-03T11:35:41.000Z</Time>
            <Position>
              <LatitudeDegrees>-15.44000350870192050933837890625</LatitudeDegrees>
              <LongitudeDegrees>37.05847187899053096771240234375</LongitudeDegrees>
            </Position>
            <AltitudeMeters>1027</AltitudeMeters>
            <DistanceMeters>NAN</DistanceMeters>
          </Trackpoint>
          <Trackpoint>
            <Time>2021-08-03T11:35:44.000Z</Time>
            <Position>
              <LatitudeDegrees>-15.44003837741911411285400390625</LatitudeDegrees>
              <LongitudeDegrees>37.05847422592341899871826171875</LongitudeDegrees>
            </Position>
            <AltitudeMeters>1026</AltitudeMeters>
            <DistanceMeters>NAN</DistanceMeters>
          </Trackpoint>
          <Trackpoint>
            <Time>2021-08-03T11:35:49.000Z</Time>
            <Position>
              <LatitudeDegrees>-15.44011146761476993560791015625</LatitudeDegrees>
              <LongitudeDegrees>37.0584768243134021759033203125</LongitudeDegrees>
            </Position>
            <AltitudeMeters>1024.800048828125</AltitudeMeters>
            <DistanceMeters>NAN</DistanceMeters>
          </Trackpoint>
          <Trackpoint>
            <Time>2021-08-03T11:35:51.000Z</Time>
            <Position>
              <LatitudeDegrees>-15.44014130719006061553955078125</LatitudeDegrees>
              <LongitudeDegrees>37.05847389064729213714599609375</LongitudeDegrees>
            </Position>
            <AltitudeMeters>1024.5999755859375</AltitudeMeters>
            <DistanceMeters>NAN</DistanceMeters>
          </Trackpoint>
          <Trackpoint>
            <Time>2021-08-03T11:35:58.000Z</Time>
            <Position>
              <LatitudeDegrees>-15.44019947759807109832763671875</LatitudeDegrees>
              <LongitudeDegrees>37.05843214876949787139892578125</LongitudeDegrees>
            </Position>
            <AltitudeMeters>1023.4000244140625</AltitudeMeters>
            <DistanceMeters>NAN</DistanceMeters>
          </Trackpoint>
          <Trackpoint>
            <Time>2021-08-03T11:36:05.000Z</Time>
            <Position>
              <LatitudeDegrees>-15.44022277928888797760009765625</LatitudeDegrees>
              <LongitudeDegrees>37.05835637636482715606689453125</LongitudeDegrees>
            </Position>
            <AltitudeMeters>1022</AltitudeMeters>
            <DistanceMeters>NAN</DistanceMeters>
          </Trackpoint>
          <Trackpoint>
            <Time>2021-08-03T11:36:06.000Z</Time>
            <Position>
              <LatitudeDegrees>-15.4402220249176025390625</LatitudeDegrees>
              <LongitudeDegrees>37.0583383552730083465576171875</LongitudeDegrees>
            </Position>
            <AltitudeMeters>1021.79998779296875</AltitudeMeters>
            <DistanceMeters>NAN</DistanceMeters>
          </Trackpoint>
          <Trackpoint>
            <Time>2021-08-03T11:36:14.000Z</Time>
            <Position>
              <LatitudeDegrees>-15.44016913510859012603759765625</LatitudeDegrees>
              <LongitudeDegrees>37.0582379400730133056640625</LongitudeDegrees>
            </Position>
            <AltitudeMeters>1021.4000244140625</AltitudeMeters>
            <DistanceMeters>NAN</DistanceMeters>
          </Trackpoint>
          <Trackpoint>
            <Time>2021-08-03T11:36:16.000Z</Time>
            <Position>
              <LatitudeDegrees>-15.44015295803546905517578125</LatitudeDegrees>
              <LongitudeDegrees>37.058220170438289642333984375</LongitudeDegrees>
            </Position>
            <AltitudeMeters>1020.79998779296875</AltitudeMeters>
            <DistanceMeters>NAN</DistanceMeters>
          </Trackpoint>
          <Trackpoint>
            <Time>2021-08-03T11:36:19.000Z</Time>
            <Position>
              <LatitudeDegrees>-15.4401348531246185302734375</LatitudeDegrees>
              <LongitudeDegrees>37.058204747736454010009765625</LongitudeDegrees>
            </Position>
            <AltitudeMeters>1020.4000244140625</AltitudeMeters>
            <DistanceMeters>NAN</DistanceMeters>
          </Trackpoint>
          <Trackpoint>
            <Time>2021-08-03T11:36:21.000Z</Time>
            <Position>
              <LatitudeDegrees>-15.44013292528688907623291015625</LatitudeDegrees>
              <LongitudeDegrees>37.05820214934647083282470703125</LongitudeDegrees>
            </Position>
            <AltitudeMeters>1020</AltitudeMeters>
            <DistanceMeters>NAN</DistanceMeters>
          </Trackpoint>
          <Trackpoint>
            <Time>2021-08-03T11:36:28.000Z</Time>
            <Position>
              <LatitudeDegrees>-15.44011808931827545166015625</LatitudeDegrees>
              <LongitudeDegrees>37.0581884868443012237548828125</LongitudeDegrees>
            </Position>
            <AltitudeMeters>1020</AltitudeMeters>
            <DistanceMeters>NAN</DistanceMeters>
          </Trackpoint>
          <Trackpoint>
            <Time>2021-08-03T11:36:29.000Z</Time>
            <Position>
              <LatitudeDegrees>-15.4401118867099285125732421875</LatitudeDegrees>
              <LongitudeDegrees>37.05818622373044490814208984375</LongitudeDegrees>
            </Position>
            <AltitudeMeters>1020</AltitudeMeters>
            <DistanceMeters>NAN</DistanceMeters>
          </Trackpoint>
          <Trackpoint>
            <Time>2021-08-03T11:36:31.000Z</Time>
            <Position>
              <LatitudeDegrees>-15.440091602504253387451171875</LatitudeDegrees>
              <LongitudeDegrees>37.05817289650440216064453125</LongitudeDegrees>
            </Position>
            <AltitudeMeters>1019.79998779296875</AltitudeMeters>
            <DistanceMeters>NAN</DistanceMeters>
          </Trackpoint>
          <Trackpoint>
            <Time>2021-08-03T11:36:37.000Z</Time>
            <Position>
              <LatitudeDegrees>-15.44002027250826358795166015625</LatitudeDegrees>
              <LongitudeDegrees>37.0581509359180927276611328125</LongitudeDegrees>
            </Position>
            <AltitudeMeters>1018.79998779296875</AltitudeMeters>
            <DistanceMeters>NAN</DistanceMeters>
          </Trackpoint>
          <Trackpoint>
            <Time>2021-08-03T11:36:38.000Z</Time>
            <Position>
              <LatitudeDegrees>-15.4400074481964111328125</LatitudeDegrees>
              <LongitudeDegrees>37.0581509359180927276611328125</LongitudeDegrees>
            </Position>
            <AltitudeMeters>1018.79998779296875</AltitudeMeters>
            <DistanceMeters>NAN</DistanceMeters>
          </Trackpoint>
          <Trackpoint>
            <Time>2021-08-03T11:36:43.000Z</Time>
            <Position>
              <LatitudeDegrees>-15.43993159197270870208740234375</LatitudeDegrees>
              <LongitudeDegrees>37.05814163200557231903076171875</LongitudeDegrees>
            </Position>
            <AltitudeMeters>1018.79998779296875</AltitudeMeters>
            <DistanceMeters>NAN</DistanceMeters>
          </Trackpoint>
          <Trackpoint>
            <Time>2021-08-03T11:36:45.000Z</Time>
            <Position>
              <LatitudeDegrees>-15.43990476988255977630615234375</LatitudeDegrees>
              <LongitudeDegrees>37.0581348426640033721923828125</LongitudeDegrees>
            </Position>
            <AltitudeMeters>1018.5999755859375</AltitudeMeters>
            <DistanceMeters>NAN</DistanceMeters>
          </Trackpoint>
          <Trackpoint>
            <Time>2021-08-03T11:36:48.000Z</Time>
            <Position>
              <LatitudeDegrees>-15.4398765228688716888427734375</LatitudeDegrees>
              <LongitudeDegrees>37.05813677050173282623291015625</LongitudeDegrees>
            </Position>
            <AltitudeMeters>1017.5999755859375</AltitudeMeters>
            <DistanceMeters>NAN</DistanceMeters>
          </Trackpoint>
          <Trackpoint>
            <Time>2021-08-03T11:36:52.000Z</Time>
            <Position>
              <LatitudeDegrees>-15.43983419425785541534423828125</LatitudeDegrees>
              <LongitudeDegrees>37.0581348426640033721923828125</LongitudeDegrees>
            </Position>
            <AltitudeMeters>1017.20001220703125</AltitudeMeters>
            <DistanceMeters>NAN</DistanceMeters>
          </Trackpoint>
          <Trackpoint>
            <Time>2021-08-03T11:36:56.000Z</Time>
            <Position>
              <LatitudeDegrees>-15.43977904133498668670654296875</LatitudeDegrees>
              <LongitudeDegrees>37.058126963675022125244140625</LongitudeDegrees>
            </Position>
            <AltitudeMeters>1016.4000244140625</AltitudeMeters>
            <DistanceMeters>NAN</DistanceMeters>
          </Trackpoint>
          <Trackpoint>
            <Time>2021-08-03T11:37:01.000Z</Time>
            <Position>
              <LatitudeDegrees>-15.43971030972898006439208984375</LatitudeDegrees>
              <LongitudeDegrees>37.0581199228763580322265625</LongitudeDegrees>
            </Position>
            <AltitudeMeters>1015.5999755859375</AltitudeMeters>
            <DistanceMeters>NAN</DistanceMeters>
          </Trackpoint>
          <Trackpoint>
            <Time>2021-08-03T11:37:04.000Z</Time>
            <Position>
              <LatitudeDegrees>-15.43968021869659423828125</LatitudeDegrees>
              <LongitudeDegrees>37.05810659565031528472900390625</LongitudeDegrees>
            </Position>
            <AltitudeMeters>1015.20001220703125</AltitudeMeters>
            <DistanceMeters>NAN</DistanceMeters>
          </Trackpoint>
          <Trackpoint>
            <Time>2021-08-03T11:37:08.000Z</Time>
            <Position>
              <LatitudeDegrees>-15.439634621143341064453125</LatitudeDegrees>
              <LongitudeDegrees>37.05809511244297027587890625</LongitudeDegrees>
            </Position>
            <AltitudeMeters>1014.79998779296875</AltitudeMeters>
            <DistanceMeters>NAN</DistanceMeters>
          </Trackpoint>
          <Trackpoint>
            <Time>2021-08-03T11:37:15.000Z</Time>
            <Position>
              <LatitudeDegrees>-15.43956027366220951080322265625</LatitudeDegrees>
              <LongitudeDegrees>37.05807608552277088165283203125</LongitudeDegrees>
            </Position>
            <AltitudeMeters>1014.5999755859375</AltitudeMeters>
            <DistanceMeters>NAN</DistanceMeters>
          </Trackpoint>
          <Trackpoint>
            <Time>2021-08-03T11:37:16.000Z</Time>
            <Position>
              <LatitudeDegrees>-15.43955876491963863372802734375</LatitudeDegrees>
              <LongitudeDegrees>37.05808362923562526702880859375</LongitudeDegrees>
            </Position>
            <AltitudeMeters>1014.5999755859375</AltitudeMeters>
            <DistanceMeters>NAN</DistanceMeters>
          </Trackpoint>
          <Trackpoint>
            <Time>2021-08-03T11:37:18.000Z</Time>
            <Position>
              <LatitudeDegrees>-15.43955625034868717193603515625</LatitudeDegrees>
              <LongitudeDegrees>37.0580942742526531219482421875</LongitudeDegrees>
            </Position>
            <AltitudeMeters>1014.5999755859375</AltitudeMeters>
            <DistanceMeters>NAN</DistanceMeters>
          </Trackpoint>
          <Trackpoint>
            <Time>2021-08-03T11:37:22.000Z</Time>
            <Position>
              <LatitudeDegrees>-15.43953747488558292388916015625</LatitudeDegrees>
              <LongitudeDegrees>37.05809720791876316070556640625</LongitudeDegrees>
            </Position>
            <AltitudeMeters>1014.4000244140625</AltitudeMeters>
            <DistanceMeters>NAN</DistanceMeters>
          </Trackpoint>
          <Trackpoint>
            <Time>2021-08-03T11:37:25.000Z</Time>
            <Position>
              <LatitudeDegrees>-15.43952574022114276885986328125</LatitudeDegrees>
              <LongitudeDegrees>37.05810156650841236114501953125</LongitudeDegrees>
            </Position>
            <AltitudeMeters>1014.20001220703125</AltitudeMeters>
            <DistanceMeters>NAN</DistanceMeters>
          </Trackpoint>
          <Trackpoint>
            <Time>2021-08-03T11:37:30.000Z</Time>
            <Position>
              <LatitudeDegrees>-15.43950562365353107452392578125</LatitudeDegrees>
              <LongitudeDegrees>37.05810441635549068450927734375</LongitudeDegrees>
            </Position>
            <AltitudeMeters>1013.79998779296875</AltitudeMeters>
            <DistanceMeters>NAN</DistanceMeters>
          </Trackpoint>
          <Trackpoint>
            <Time>2021-08-03T11:37:32.000Z</Time>
            <Position>
              <LatitudeDegrees>-15.43950579129159450531005859375</LatitudeDegrees>
              <LongitudeDegrees>37.058107852935791015625</LongitudeDegrees>
            </Position>
            <AltitudeMeters>1013</AltitudeMeters>
            <DistanceMeters>NAN</DistanceMeters>
          </Trackpoint>
          <Trackpoint>
            <Time>2021-08-03T11:37:37.000Z</Time>
            <Position>
              <LatitudeDegrees>-15.43950009159743785858154296875</LatitudeDegrees>
              <LongitudeDegrees>37.05811296589672565460205078125</LongitudeDegrees>
            </Position>
            <AltitudeMeters>1012.79998779296875</AltitudeMeters>
            <DistanceMeters>NAN</DistanceMeters>
          </Trackpoint>
          <Trackpoint>
            <Time>2021-08-03T11:37:47.000Z</Time>
            <Position>
              <LatitudeDegrees>-15.439492799341678619384765625</LatitudeDegrees>
              <LongitudeDegrees>37.05811497755348682403564453125</LongitudeDegrees>
            </Position>
            <AltitudeMeters>1012.5999755859375</AltitudeMeters>
            <DistanceMeters>NAN</DistanceMeters>
          </Trackpoint>
          <Trackpoint>
            <Time>2021-08-03T11:37:54.000Z</Time>
            <Position>
              <LatitudeDegrees>-15.439492799341678619384765625</LatitudeDegrees>
              <LongitudeDegrees>37.05811497755348682403564453125</LongitudeDegrees>
            </Position>
            <AltitudeMeters>1012.79998779296875</AltitudeMeters>
            <DistanceMeters>NAN</DistanceMeters>
          </Trackpoint>
          <Trackpoint>
            <Time>2021-08-03T11:37:59.000Z</Time>
            <Position>
              <LatitudeDegrees>-15.43949355371296405792236328125</LatitudeDegrees>
              <LongitudeDegrees>37.058115899562835693359375</LongitudeDegrees>
            </Position>
            <AltitudeMeters>1011.5999755859375</AltitudeMeters>
            <DistanceMeters>NAN</DistanceMeters>
          </Trackpoint>
          <Trackpoint>
            <Time>2021-08-03T11:38:03.000Z</Time>
            <Position>
              <LatitudeDegrees>-15.43949539773166179656982421875</LatitudeDegrees>
              <LongitudeDegrees>37.05811950378119945526123046875</LongitudeDegrees>
            </Position>
            <AltitudeMeters>1011.79998779296875</AltitudeMeters>
            <DistanceMeters>NAN</DistanceMeters>
          </Trackpoint>
          <Trackpoint>
            <Time>2021-08-03T11:38:07.000Z</Time>
            <Position>
              <LatitudeDegrees>-15.43949472717940807342529296875</LatitudeDegrees>
              <LongitudeDegrees>37.05812201835215091705322265625</LongitudeDegrees>
            </Position>
            <AltitudeMeters>1012.4000244140625</AltitudeMeters>
            <DistanceMeters>NAN</DistanceMeters>
          </Trackpoint>
          <Trackpoint>
            <Time>2021-08-03T11:38:10.000Z</Time>
            <Position>
              <LatitudeDegrees>-15.439495146274566650390625</LatitudeDegrees>
              <LongitudeDegrees>37.0581221021711826324462890625</LongitudeDegrees>
            </Position>
            <AltitudeMeters>1010.4000244140625</AltitudeMeters>
            <DistanceMeters>NAN</DistanceMeters>
          </Trackpoint>
          <Trackpoint>
            <Time>2021-08-03T11:38:15.000Z</Time>
            <Position>
              <LatitudeDegrees>-15.439496822655200958251953125</LatitudeDegrees>
              <LongitudeDegrees>37.0581221021711826324462890625</LongitudeDegrees>
            </Position>
            <AltitudeMeters>1009.20001220703125</AltitudeMeters>
            <DistanceMeters>NAN</DistanceMeters>
          </Trackpoint>
          <Trackpoint>
            <Time>2021-08-03T11:38:19.000Z</Time>
            <Position>
              <LatitudeDegrees>-15.43949875049293041229248046875</LatitudeDegrees>
              <LongitudeDegrees>37.05812201835215091705322265625</LongitudeDegrees>
            </Position>
            <AltitudeMeters>1007.79998779296875</AltitudeMeters>
            <DistanceMeters>NAN</DistanceMeters>
          </Trackpoint>
          <Trackpoint>
            <Time>2021-08-03T11:38:23.000Z</Time>
            <Position>
              <LatitudeDegrees>-15.43949992395937442779541015625</LatitudeDegrees>
              <LongitudeDegrees>37.058120928704738616943359375</LongitudeDegrees>
            </Position>
            <AltitudeMeters>1006.5999755859375</AltitudeMeters>
            <DistanceMeters>NAN</DistanceMeters>
          </Trackpoint>
          <Trackpoint>
            <Time>2021-08-03T11:38:25.000Z</Time>
            <Position>
              <LatitudeDegrees>-15.439500845968723297119140625</LatitudeDegrees>
              <LongitudeDegrees>37.0581199228763580322265625</LongitudeDegrees>
            </Position>
            <AltitudeMeters>1006.5999755859375</AltitudeMeters>
            <DistanceMeters>NAN</DistanceMeters>
          </Trackpoint>
          <Trackpoint>
            <Time>2021-08-03T11:38:30.000Z</Time>
            <Position>
              <LatitudeDegrees>-15.43951903469860553741455078125</LatitudeDegrees>
              <LongitudeDegrees>37.05810709856450557708740234375</LongitudeDegrees>
            </Position>
            <AltitudeMeters>1008</AltitudeMeters>
            <DistanceMeters>NAN</DistanceMeters>
          </Trackpoint>
          <Trackpoint>
            <Time>2021-08-03T11:38:32.000Z</Time>
            <Position>
              <LatitudeDegrees>-15.4395340383052825927734375</LatitudeDegrees>
              <LongitudeDegrees>37.0580904185771942138671875</LongitudeDegrees>
            </Position>
            <AltitudeMeters>1009.20001220703125</AltitudeMeters>
            <DistanceMeters>NAN</DistanceMeters>
          </Trackpoint>
          <Trackpoint>
            <Time>2021-08-03T11:38:34.000Z</Time>
            <Position>
              <LatitudeDegrees>-15.43953873217105865478515625</LatitudeDegrees>
              <LongitudeDegrees>37.05807826481759548187255859375</LongitudeDegrees>
            </Position>
            <AltitudeMeters>1009.79998779296875</AltitudeMeters>
            <DistanceMeters>NAN</DistanceMeters>
          </Trackpoint>
          <Trackpoint>
            <Time>2021-08-03T11:38:35.000Z</Time>
            <Position>
              <LatitudeDegrees>-15.43954350985586643218994140625</LatitudeDegrees>
              <LongitudeDegrees>37.0580761693418025970458984375</LongitudeDegrees>
            </Position>
            <AltitudeMeters>1009.79998779296875</AltitudeMeters>
            <DistanceMeters>NAN</DistanceMeters>
          </Trackpoint>
          <Trackpoint>
            <Time>2021-08-03T11:38:37.000Z</Time>
            <Position>
              <LatitudeDegrees>-15.4395603574812412261962890625</LatitudeDegrees>
              <LongitudeDegrees>37.05807365477085113525390625</LongitudeDegrees>
            </Position>
            <AltitudeMeters>1010.4000244140625</AltitudeMeters>
            <DistanceMeters>NAN</DistanceMeters>
          </Trackpoint>
          <Trackpoint>
            <Time>2021-08-03T11:38:38.000Z</Time>
            <Position>
              <LatitudeDegrees>-15.43956781737506389617919921875</LatitudeDegrees>
              <LongitudeDegrees>37.05807206220924854278564453125</LongitudeDegrees>
            </Position>
            <AltitudeMeters>1011.4000244140625</AltitudeMeters>
            <DistanceMeters>NAN</DistanceMeters>
          </Trackpoint>
          <Trackpoint>
            <Time>2021-08-03T11:38:40.000Z</Time>
            <Position>
              <LatitudeDegrees>-15.43957351706922054290771484375</LatitudeDegrees>
              <LongitudeDegrees>37.05807021819055080413818359375</LongitudeDegrees>
            </Position>
            <AltitudeMeters>1014.4000244140625</AltitudeMeters>
            <DistanceMeters>NAN</DistanceMeters>
          </Trackpoint>
          <Trackpoint>
            <Time>2021-08-03T11:38:41.000Z</Time>
            <Position>
              <LatitudeDegrees>-15.43958206661045551300048828125</LatitudeDegrees>
              <LongitudeDegrees>37.0580597408115863800048828125</LongitudeDegrees>
            </Position>
            <AltitudeMeters>1014.5999755859375</AltitudeMeters>
            <DistanceMeters>NAN</DistanceMeters>
          </Trackpoint>
          <Trackpoint>
            <Time>2021-08-03T11:38:57.000Z</Time>
            <Position>
              <LatitudeDegrees>-15.4395744390785694122314453125</LatitudeDegrees>
              <LongitudeDegrees>37.05806284211575984954833984375</LongitudeDegrees>
            </Position>
            <AltitudeMeters>1014.5999755859375</AltitudeMeters>
            <DistanceMeters>NAN</DistanceMeters>
          </Trackpoint>
          <Trackpoint>
            <Time>2021-08-03T11:39:09.000Z</Time>
            <Position>
              <LatitudeDegrees>-15.439575277268886566162109375</LatitudeDegrees>
              <LongitudeDegrees>37.0580651052296161651611328125</LongitudeDegrees>
            </Position>
            <AltitudeMeters>1014.5999755859375</AltitudeMeters>
            <DistanceMeters>NAN</DistanceMeters>
          </Trackpoint>
          <Trackpoint>
            <Time>2021-08-03T11:39:17.000Z</Time>
            <Position>
              <LatitudeDegrees>-15.43957368470728397369384765625</LatitudeDegrees>
              <LongitudeDegrees>37.05806368030607700347900390625</LongitudeDegrees>
            </Position>
            <AltitudeMeters>1014.5999755859375</AltitudeMeters>
            <DistanceMeters>NAN</DistanceMeters>
          </Trackpoint>
          <Trackpoint>
            <Time>2021-08-03T11:39:21.000Z</Time>
            <Position>
              <LatitudeDegrees>-15.4395502991974353790283203125</LatitudeDegrees>
              <LongitudeDegrees>37.05801439471542835235595703125</LongitudeDegrees>
            </Position>
            <AltitudeMeters>1014.5999755859375</AltitudeMeters>
            <DistanceMeters>NAN</DistanceMeters>
          </Trackpoint>
          <Trackpoint>
            <Time>2021-08-03T11:39:25.000Z</Time>
            <Position>
              <LatitudeDegrees>-15.439527668058872222900390625</LatitudeDegrees>
              <LongitudeDegrees>37.0579534582793712615966796875</LongitudeDegrees>
            </Position>
            <AltitudeMeters>1014.79998779296875</AltitudeMeters>
            <DistanceMeters>NAN</DistanceMeters>
          </Trackpoint>
          <Trackpoint>
            <Time>2021-08-03T11:39:27.000Z</Time>
            <Position>
              <LatitudeDegrees>-15.43951584957540035247802734375</LatitudeDegrees>
              <LongitudeDegrees>37.0579241216182708740234375</LongitudeDegrees>
            </Position>
            <AltitudeMeters>1015</AltitudeMeters>
            <DistanceMeters>NAN</DistanceMeters>
          </Trackpoint>
          <Trackpoint>
            <Time>2021-08-03T11:39:29.000Z</Time>
            <Position>
              <LatitudeDegrees>-15.439507551491260528564453125</LatitudeDegrees>
              <LongitudeDegrees>37.057901322841644287109375</LongitudeDegrees>
            </Position>
            <AltitudeMeters>1014.5999755859375</AltitudeMeters>
            <DistanceMeters>NAN</DistanceMeters>
          </Trackpoint>
          <Trackpoint>
            <Time>2021-08-03T11:39:30.000Z</Time>
            <Position>
              <LatitudeDegrees>-15.4395077191293239593505859375</LatitudeDegrees>
              <LongitudeDegrees>37.05789185129106044769287109375</LongitudeDegrees>
            </Position>
            <AltitudeMeters>1014.5999755859375</AltitudeMeters>
            <DistanceMeters>NAN</DistanceMeters>
          </Trackpoint>
          <Trackpoint>
            <Time>2021-08-03T11:39:35.000Z</Time>
            <Position>
              <LatitudeDegrees>-15.43950143270194530487060546875</LatitudeDegrees>
              <LongitudeDegrees>37.05784700810909271240234375</LongitudeDegrees>
            </Position>
            <AltitudeMeters>1014.4000244140625</AltitudeMeters>
            <DistanceMeters>NAN</DistanceMeters>
          </Trackpoint>
          <Trackpoint>
            <Time>2021-08-03T11:39:44.000Z</Time>
            <Position>
              <LatitudeDegrees>-15.43948181904852390289306640625</LatitudeDegrees>
              <LongitudeDegrees>37.057756818830966949462890625</LongitudeDegrees>
            </Position>
            <AltitudeMeters>1013.4000244140625</AltitudeMeters>
            <DistanceMeters>NAN</DistanceMeters>
          </Trackpoint>
          <Trackpoint>
            <Time>2021-08-03T11:39:47.000Z</Time>
            <Position>
              <LatitudeDegrees>-15.4394889436662197113037109375</LatitudeDegrees>
              <LongitudeDegrees>37.05772303976118564605712890625</LongitudeDegrees>
            </Position>
            <AltitudeMeters>1013</AltitudeMeters>
            <DistanceMeters>NAN</DistanceMeters>
          </Trackpoint>
          <Trackpoint>
            <Time>2021-08-03T11:39:52.000Z</Time>
            <Position>
              <LatitudeDegrees>-15.43951149098575115203857421875</LatitudeDegrees>
              <LongitudeDegrees>37.0576657913625240325927734375</LongitudeDegrees>
            </Position>
            <AltitudeMeters>1012.20001220703125</AltitudeMeters>
            <DistanceMeters>NAN</DistanceMeters>
          </Trackpoint>
          <Trackpoint>
            <Time>2021-08-03T11:40:02.000Z</Time>
            <Position>
              <LatitudeDegrees>-15.43954703025519847869873046875</LatitudeDegrees>
              <LongitudeDegrees>37.0575608499348163604736328125</LongitudeDegrees>
            </Position>
            <AltitudeMeters>1012</AltitudeMeters>
            <DistanceMeters>NAN</DistanceMeters>
          </Trackpoint>
          <Trackpoint>
            <Time>2021-08-03T11:40:06.000Z</Time>
            <Position>
              <LatitudeDegrees>-15.43956077657639980316162109375</LatitudeDegrees>
              <LongitudeDegrees>37.05753721296787261962890625</LongitudeDegrees>
            </Position>
            <AltitudeMeters>1010.5999755859375</AltitudeMeters>
            <DistanceMeters>NAN</DistanceMeters>
          </Trackpoint>
          <Trackpoint>
            <Time>2021-08-03T11:40:09.000Z</Time>
            <Position>
              <LatitudeDegrees>-15.439575612545013427734375</LatitudeDegrees>
              <LongitudeDegrees>37.05750636756420135498046875</LongitudeDegrees>
            </Position>
            <AltitudeMeters>1010.20001220703125</AltitudeMeters>
            <DistanceMeters>NAN</DistanceMeters>
          </Trackpoint>
          <Trackpoint>
            <Time>2021-08-03T11:40:13.000Z</Time>
            <Position>
              <LatitudeDegrees>-15.439585335552692413330078125</LatitudeDegrees>
              <LongitudeDegrees>37.05747761763632297515869140625</LongitudeDegrees>
            </Position>
            <AltitudeMeters>1010</AltitudeMeters>
            <DistanceMeters>NAN</DistanceMeters>
          </Trackpoint>
          <Trackpoint>
            <Time>2021-08-03T11:40:16.000Z</Time>
            <Position>
              <LatitudeDegrees>-15.43960268609225749969482421875</LatitudeDegrees>
              <LongitudeDegrees>37.05743721686303615570068359375</LongitudeDegrees>
            </Position>
            <AltitudeMeters>1010.20001220703125</AltitudeMeters>
            <DistanceMeters>NAN</DistanceMeters>
          </Trackpoint>
          <Trackpoint>
            <Time>2021-08-03T11:40:21.000Z</Time>
            <Position>
              <LatitudeDegrees>-15.43963219039142131805419921875</LatitudeDegrees>
              <LongitudeDegrees>37.0573787949979305267333984375</LongitudeDegrees>
            </Position>
            <AltitudeMeters>1009.5999755859375</AltitudeMeters>
            <DistanceMeters>NAN</DistanceMeters>
          </Trackpoint>
          <Trackpoint>
            <Time>2021-08-03T11:40:22.000Z</Time>
            <Position>
              <LatitudeDegrees>-15.4396384768187999725341796875</LatitudeDegrees>
              <LongitudeDegrees>37.0573707483708858489990234375</LongitudeDegrees>
            </Position>
            <AltitudeMeters>1009.5999755859375</AltitudeMeters>
            <DistanceMeters>NAN</DistanceMeters>
          </Trackpoint>
          <Trackpoint>
            <Time>2021-08-03T11:40:26.000Z</Time>
            <Position>
              <LatitudeDegrees>-15.43965674936771392822265625</LatitudeDegrees>
              <LongitudeDegrees>37.0573388971388339996337890625</LongitudeDegrees>
            </Position>
            <AltitudeMeters>1008.79998779296875</AltitudeMeters>
            <DistanceMeters>NAN</DistanceMeters>
          </Trackpoint>
          <Trackpoint>
            <Time>2021-08-03T11:40:27.000Z</Time>
            <Position>
              <LatitudeDegrees>-15.43966404162347316741943359375</LatitudeDegrees>
              <LongitudeDegrees>37.0573278330266475677490234375</LongitudeDegrees>
            </Position>
            <AltitudeMeters>1008.4000244140625</AltitudeMeters>
            <DistanceMeters>NAN</DistanceMeters>
          </Trackpoint>
          <Trackpoint>
            <Time>2021-08-03T11:40:38.000Z</Time>
            <Position>
              <LatitudeDegrees>-15.439744926989078521728515625</LatitudeDegrees>
              <LongitudeDegrees>37.0572218857705593109130859375</LongitudeDegrees>
            </Position>
            <AltitudeMeters>1007.4000244140625</AltitudeMeters>
            <DistanceMeters>NAN</DistanceMeters>
          </Trackpoint>
          <Trackpoint>
            <Time>2021-08-03T11:40:40.000Z</Time>
            <Position>
              <LatitudeDegrees>-15.43975825421512126922607421875</LatitudeDegrees>
              <LongitudeDegrees>37.05720738507807254791259765625</LongitudeDegrees>
            </Position>
            <AltitudeMeters>1007.4000244140625</AltitudeMeters>
            <DistanceMeters>NAN</DistanceMeters>
          </Trackpoint>
          <Trackpoint>
            <Time>2021-08-03T11:40:44.000Z</Time>
            <Position>
              <LatitudeDegrees>-15.4397849924862384796142578125</LatitudeDegrees>
              <LongitudeDegrees>37.05717234872281551361083984375</LongitudeDegrees>
            </Position>
            <AltitudeMeters>1006.79998779296875</AltitudeMeters>
            <DistanceMeters>NAN</DistanceMeters>
          </Trackpoint>
          <Trackpoint>
            <Time>2021-08-03T11:40:46.000Z</Time>
            <Position>
              <LatitudeDegrees>-15.4398047737777233123779296875</LatitudeDegrees>
              <LongitudeDegrees>37.05715633928775787353515625</LongitudeDegrees>
            </Position>
            <AltitudeMeters>1006.5999755859375</AltitudeMeters>
            <DistanceMeters>NAN</DistanceMeters>
          </Trackpoint>
          <Trackpoint>
            <Time>2021-08-03T11:40:51.000Z</Time>
            <Position>
              <LatitudeDegrees>-15.4398559033870697021484375</LatitudeDegrees>
              <LongitudeDegrees>37.05713345669209957122802734375</LongitudeDegrees>
            </Position>
            <AltitudeMeters>1006.20001220703125</AltitudeMeters>
            <DistanceMeters>NAN</DistanceMeters>
          </Trackpoint>
          <Trackpoint>
            <Time>2021-08-03T11:40:58.000Z</Time>
            <Position>
              <LatitudeDegrees>-15.43992069549858570098876953125</LatitudeDegrees>
              <LongitudeDegrees>37.05712457187473773956298828125</LongitudeDegrees>
            </Position>
            <AltitudeMeters>1005.79998779296875</AltitudeMeters>
            <DistanceMeters>NAN</DistanceMeters>
          </Trackpoint>
          <Trackpoint>
            <Time>2021-08-03T11:41:01.000Z</Time>
            <Position>
              <LatitudeDegrees>-15.439945422112941741943359375</LatitudeDegrees>
              <LongitudeDegrees>37.05713379196822643280029296875</LongitudeDegrees>
            </Position>
            <AltitudeMeters>1005.4000244140625</AltitudeMeters>
            <DistanceMeters>NAN</DistanceMeters>
          </Trackpoint>
          <Trackpoint>
            <Time>2021-08-03T11:41:04.000Z</Time>
            <Position>
              <LatitudeDegrees>-15.43997433967888355255126953125</LatitudeDegrees>
              <LongitudeDegrees>37.05714351497590541839599609375</LongitudeDegrees>
            </Position>
            <AltitudeMeters>1005.20001220703125</AltitudeMeters>
            <DistanceMeters>NAN</DistanceMeters>
          </Trackpoint>
          <Trackpoint>
            <Time>2021-08-03T11:41:06.000Z</Time>
            <Position>
              <LatitudeDegrees>-15.43999345041811466217041015625</LatitudeDegrees>
              <LongitudeDegrees>37.05714954994618892669677734375</LongitudeDegrees>
            </Position>
            <AltitudeMeters>1005</AltitudeMeters>
            <DistanceMeters>NAN</DistanceMeters>
          </Trackpoint>
          <Trackpoint>
            <Time>2021-08-03T11:41:11.000Z</Time>
            <Position>
              <LatitudeDegrees>-15.440039299428462982177734375</LatitudeDegrees>
              <LongitudeDegrees>37.05718006007373332977294921875</LongitudeDegrees>
            </Position>
            <AltitudeMeters>1004</AltitudeMeters>
            <DistanceMeters>NAN</DistanceMeters>
          </Trackpoint>
          <Trackpoint>
            <Time>2021-08-03T11:41:12.000Z</Time>
            <Position>
              <LatitudeDegrees>-15.44004877097904682159423828125</LatitudeDegrees>
              <LongitudeDegrees>37.05718592740595340728759765625</LongitudeDegrees>
            </Position>
            <AltitudeMeters>1003.79998779296875</AltitudeMeters>
            <DistanceMeters>NAN</DistanceMeters>
          </Trackpoint>
          <Trackpoint>
            <Time>2021-08-03T11:41:17.000Z</Time>
            <Position>
              <LatitudeDegrees>-15.44010560028254985809326171875</LatitudeDegrees>
              <LongitudeDegrees>37.05722180195152759552001953125</LongitudeDegrees>
            </Position>
            <AltitudeMeters>1003.4000244140625</AltitudeMeters>
            <DistanceMeters>NAN</DistanceMeters>
          </Trackpoint>
          <Trackpoint>
            <Time>2021-08-03T11:41:19.000Z</Time>
            <Position>
              <LatitudeDegrees>-15.44012320227921009063720703125</LatitudeDegrees>
              <LongitudeDegrees>37.057233788073062896728515625</LongitudeDegrees>
            </Position>
            <AltitudeMeters>1002.79998779296875</AltitudeMeters>
            <DistanceMeters>NAN</DistanceMeters>
          </Trackpoint>
          <Trackpoint>
            <Time>2021-08-03T11:41:23.000Z</Time>
            <Position>
              <LatitudeDegrees>-15.4401584900915622711181640625</LatitudeDegrees>
              <LongitudeDegrees>37.0572500489652156829833984375</LongitudeDegrees>
            </Position>
            <AltitudeMeters>1002.20001220703125</AltitudeMeters>
            <DistanceMeters>NAN</DistanceMeters>
          </Trackpoint>
          <Trackpoint>
            <Time>2021-08-03T11:41:25.000Z</Time>
            <Position>
              <LatitudeDegrees>-15.44017667882144451141357421875</LatitudeDegrees>
              <LongitudeDegrees>37.0572607778012752532958984375</LongitudeDegrees>
            </Position>
            <AltitudeMeters>1001.5999755859375</AltitudeMeters>
            <DistanceMeters>NAN</DistanceMeters>
          </Trackpoint>
          <Trackpoint>
            <Time>2021-08-03T11:41:32.000Z</Time>
            <Position>
              <LatitudeDegrees>-15.4402681253850460052490234375</LatitudeDegrees>
              <LongitudeDegrees>37.05726941116154193878173828125</LongitudeDegrees>
            </Position>
            <AltitudeMeters>1000.5999755859375</AltitudeMeters>
            <DistanceMeters>NAN</DistanceMeters>
          </Trackpoint>
          <Trackpoint>
            <Time>2021-08-03T11:41:33.000Z</Time>
            <Position>
              <LatitudeDegrees>-15.4402823746204376220703125</LatitudeDegrees>
              <LongitudeDegrees>37.05726438201963901519775390625</LongitudeDegrees>
            </Position>
            <AltitudeMeters>1000.5999755859375</AltitudeMeters>
            <DistanceMeters>NAN</DistanceMeters>
          </Trackpoint>
          <Trackpoint>
            <Time>2021-08-03T11:41:38.000Z</Time>
            <Position>
              <LatitudeDegrees>-15.44033694081008434295654296875</LatitudeDegrees>
              <LongitudeDegrees>37.057214342057704925537109375</LongitudeDegrees>
            </Position>
            <AltitudeMeters>999.5999755859375</AltitudeMeters>
            <DistanceMeters>NAN</DistanceMeters>
          </Trackpoint>
          <Trackpoint>
            <Time>2021-08-03T11:41:39.000Z</Time>
            <Position>
              <LatitudeDegrees>-15.4403455741703510284423828125</LatitudeDegrees>
              <LongitudeDegrees>37.05719925463199615478515625</LongitudeDegrees>
            </Position>
            <AltitudeMeters>999.5999755859375</AltitudeMeters>
            <DistanceMeters>NAN</DistanceMeters>
          </Trackpoint>
          <Trackpoint>
            <Time>2021-08-03T11:41:40.000Z</Time>
            <Position>
              <LatitudeDegrees>-15.44035336934030055999755859375</LatitudeDegrees>
              <LongitudeDegrees>37.05718508921563625335693359375</LongitudeDegrees>
            </Position>
            <AltitudeMeters>999.5999755859375</AltitudeMeters>
            <DistanceMeters>NAN</DistanceMeters>
          </Trackpoint>
          <Trackpoint>
            <Time>2021-08-03T11:41:46.000Z</Time>
            <Position>
              <LatitudeDegrees>-15.4403720609843730926513671875</LatitudeDegrees>
              <LongitudeDegrees>37.057121135294437408447265625</LongitudeDegrees>
            </Position>
            <AltitudeMeters>998</AltitudeMeters>
            <DistanceMeters>NAN</DistanceMeters>
          </Trackpoint>
          <Trackpoint>
            <Time>2021-08-03T11:41:48.000Z</Time>
            <Position>
              <LatitudeDegrees>-15.4403690434992313385009765625</LatitudeDegrees>
              <LongitudeDegrees>37.0571058802306652069091796875</LongitudeDegrees>
            </Position>
            <AltitudeMeters>997.4000244140625</AltitudeMeters>
            <DistanceMeters>NAN</DistanceMeters>
          </Trackpoint>
          <Trackpoint>
            <Time>2021-08-03T11:41:51.000Z</Time>
            <Position>
              <LatitudeDegrees>-15.44036108069121837615966796875</LatitudeDegrees>
              <LongitudeDegrees>37.0570658147335052490234375</LongitudeDegrees>
            </Position>
            <AltitudeMeters>996.79998779296875</AltitudeMeters>
            <DistanceMeters>NAN</DistanceMeters>
          </Trackpoint>
          <Trackpoint>
            <Time>2021-08-03T11:41:54.000Z</Time>
            <Position>
              <LatitudeDegrees>-15.44035546481609344482421875</LatitudeDegrees>
              <LongitudeDegrees>37.05702499486505985260009765625</LongitudeDegrees>
            </Position>
            <AltitudeMeters>995.79998779296875</AltitudeMeters>
            <DistanceMeters>NAN</DistanceMeters>
          </Trackpoint>
          <Trackpoint>
            <Time>2021-08-03T11:42:02.000Z</Time>
            <Position>
              <LatitudeDegrees>-15.4403495974838733673095703125</LatitudeDegrees>
              <LongitudeDegrees>37.0569402538239955902099609375</LongitudeDegrees>
            </Position>
            <AltitudeMeters>995.4000244140625</AltitudeMeters>
            <DistanceMeters>NAN</DistanceMeters>
          </Trackpoint>
          <Trackpoint>
            <Time>2021-08-03T11:42:03.000Z</Time>
            <Position>
              <LatitudeDegrees>-15.4403502680361270904541015625</LatitudeDegrees>
              <LongitudeDegrees>37.05693497322499752044677734375</LongitudeDegrees>
            </Position>
            <AltitudeMeters>994.5999755859375</AltitudeMeters>
            <DistanceMeters>NAN</DistanceMeters>
          </Trackpoint>
          <Trackpoint>
            <Time>2021-08-03T11:42:04.000Z</Time>
            <Position>
              <LatitudeDegrees>-15.4403532855212688446044921875</LatitudeDegrees>
              <LongitudeDegrees>37.05692525021731853485107421875</LongitudeDegrees>
            </Position>
            <AltitudeMeters>993.5999755859375</AltitudeMeters>
            <DistanceMeters>NAN</DistanceMeters>
          </Trackpoint>
          <Trackpoint>
            <Time>2021-08-03T11:42:10.000Z</Time>
            <Position>
              <LatitudeDegrees>-15.44035471044480800628662109375</LatitudeDegrees>
              <LongitudeDegrees>37.05687428824603557586669921875</LongitudeDegrees>
            </Position>
            <AltitudeMeters>992.5999755859375</AltitudeMeters>
            <DistanceMeters>NAN</DistanceMeters>
          </Trackpoint>
          <Trackpoint>
            <Time>2021-08-03T11:42:11.000Z</Time>
            <Position>
              <LatitudeDegrees>-15.44035554863512516021728515625</LatitudeDegrees>
              <LongitudeDegrees>37.05686003901064395904541015625</LongitudeDegrees>
            </Position>
            <AltitudeMeters>992.4000244140625</AltitudeMeters>
            <DistanceMeters>NAN</DistanceMeters>
          </Trackpoint>
          <Trackpoint>
            <Time>2021-08-03T11:42:14.000Z</Time>
            <Position>
              <LatitudeDegrees>-15.44036812148988246917724609375</LatitudeDegrees>
              <LongitudeDegrees>37.0568249188363552093505859375</LongitudeDegrees>
            </Position>
            <AltitudeMeters>991.20001220703125</AltitudeMeters>
            <DistanceMeters>NAN</DistanceMeters>
          </Trackpoint>
          <Trackpoint>
            <Time>2021-08-03T11:42:19.000Z</Time>
            <Position>
              <LatitudeDegrees>-15.44039293192327022552490234375</LatitudeDegrees>
              <LongitudeDegrees>37.056779153645038604736328125</LongitudeDegrees>
            </Position>
            <AltitudeMeters>990.20001220703125</AltitudeMeters>
            <DistanceMeters>NAN</DistanceMeters>
          </Trackpoint>
          <Trackpoint>
            <Time>2021-08-03T11:42:20.000Z</Time>
            <Position>
              <LatitudeDegrees>-15.44039796106517314910888671875</LatitudeDegrees>
              <LongitudeDegrees>37.05676733516156673431396484375</LongitudeDegrees>
            </Position>
            <AltitudeMeters>990.20001220703125</AltitudeMeters>
            <DistanceMeters>NAN</DistanceMeters>
          </Trackpoint>
          <Trackpoint>
            <Time>2021-08-03T11:42:24.000Z</Time>
            <Position>
              <LatitudeDegrees>-15.44042277149856090545654296875</LatitudeDegrees>
              <LongitudeDegrees>37.0567243359982967376708984375</LongitudeDegrees>
            </Position>
            <AltitudeMeters>990.20001220703125</AltitudeMeters>
            <DistanceMeters>NAN</DistanceMeters>
          </Trackpoint>
          <Trackpoint>
            <Time>2021-08-03T11:42:30.000Z</Time>
            <Position>
              <LatitudeDegrees>-15.44045395217835903167724609375</LatitudeDegrees>
              <LongitudeDegrees>37.05666423775255680084228515625</LongitudeDegrees>
            </Position>
            <AltitudeMeters>988.79998779296875</AltitudeMeters>
            <DistanceMeters>NAN</DistanceMeters>
          </Trackpoint>
          <Trackpoint>
            <Time>2021-08-03T11:42:35.000Z</Time>
            <Position>
              <LatitudeDegrees>-15.4404810257256031036376953125</LatitudeDegrees>
              <LongitudeDegrees>37.05661721527576446533203125</LongitudeDegrees>
            </Position>
            <AltitudeMeters>987.79998779296875</AltitudeMeters>
            <DistanceMeters>NAN</DistanceMeters>
          </Trackpoint>
          <Trackpoint>
            <Time>2021-08-03T11:42:39.000Z</Time>
            <Position>
              <LatitudeDegrees>-15.4404994659125804901123046875</LatitudeDegrees>
              <LongitudeDegrees>37.05657823942601680755615234375</LongitudeDegrees>
            </Position>
            <AltitudeMeters>986.79998779296875</AltitudeMeters>
            <DistanceMeters>NAN</DistanceMeters>
          </Trackpoint>
          <Trackpoint>
            <Time>2021-08-03T11:42:43.000Z</Time>
            <Position>
              <LatitudeDegrees>-15.440519414842128753662109375</LatitudeDegrees>
              <LongitudeDegrees>37.0565496571362018585205078125</LongitudeDegrees>
            </Position>
            <AltitudeMeters>985.79998779296875</AltitudeMeters>
            <DistanceMeters>NAN</DistanceMeters>
          </Trackpoint>
          <Trackpoint>
            <Time>2021-08-03T11:42:44.000Z</Time>
            <Position>
              <LatitudeDegrees>-15.44052519835531711578369140625</LatitudeDegrees>
              <LongitudeDegrees>37.05654211342334747314453125</LongitudeDegrees>
            </Position>
            <AltitudeMeters>985.5999755859375</AltitudeMeters>
            <DistanceMeters>NAN</DistanceMeters>
          </Trackpoint>
          <Trackpoint>
            <Time>2021-08-03T11:42:46.000Z</Time>
            <Position>
              <LatitudeDegrees>-15.44053659774363040924072265625</LatitudeDegrees>
              <LongitudeDegrees>37.05652912147343158721923828125</LongitudeDegrees>
            </Position>
            <AltitudeMeters>985.4000244140625</AltitudeMeters>
            <DistanceMeters>NAN</DistanceMeters>
          </Trackpoint>
          <Trackpoint>
            <Time>2021-08-03T11:42:51.000Z</Time>
            <Position>
              <LatitudeDegrees>-15.44055587612092494964599609375</LatitudeDegrees>
              <LongitudeDegrees>37.0564842782914638519287109375</LongitudeDegrees>
            </Position>
            <AltitudeMeters>984.5999755859375</AltitudeMeters>
            <DistanceMeters>NAN</DistanceMeters>
          </Trackpoint>
          <Trackpoint>
            <Time>2021-08-03T11:42:54.000Z</Time>
            <Position>
              <LatitudeDegrees>-15.44056643731892108917236328125</LatitudeDegrees>
              <LongitudeDegrees>37.05644865520298480987548828125</LongitudeDegrees>
            </Position>
            <AltitudeMeters>983</AltitudeMeters>
            <DistanceMeters>NAN</DistanceMeters>
          </Trackpoint>
          <Trackpoint>
            <Time>2021-08-03T11:42:56.000Z</Time>
            <Position>
              <LatitudeDegrees>-15.44057540595531463623046875</LatitudeDegrees>
              <LongitudeDegrees>37.05641663633286952972412109375</LongitudeDegrees>
            </Position>
            <AltitudeMeters>983</AltitudeMeters>
            <DistanceMeters>NAN</DistanceMeters>
          </Trackpoint>
          <Trackpoint>
            <Time>2021-08-03T11:43:04.000Z</Time>
            <Position>
              <LatitudeDegrees>-15.44059149920940399169921875</LatitudeDegrees>
              <LongitudeDegrees>37.05630750395357608795166015625</LongitudeDegrees>
            </Position>
            <AltitudeMeters>982.79998779296875</AltitudeMeters>
            <DistanceMeters>NAN</DistanceMeters>
          </Trackpoint>
          <Trackpoint>
            <Time>2021-08-03T11:43:07.000Z</Time>
            <Position>
              <LatitudeDegrees>-15.4405946843326091766357421875</LatitudeDegrees>
              <LongitudeDegrees>37.05628068186342716217041015625</LongitudeDegrees>
            </Position>
            <AltitudeMeters>981.4000244140625</AltitudeMeters>
            <DistanceMeters>NAN</DistanceMeters>
          </Trackpoint>
          <Trackpoint>
            <Time>2021-08-03T11:43:10.000Z</Time>
            <Position>
              <LatitudeDegrees>-15.44059610925614833831787109375</LatitudeDegrees>
              <LongitudeDegrees>37.0562422089278697967529296875</LongitudeDegrees>
            </Position>
            <AltitudeMeters>980.79998779296875</AltitudeMeters>
            <DistanceMeters>NAN</DistanceMeters>
          </Trackpoint>
          <Trackpoint>
            <Time>2021-08-03T11:43:13.000Z</Time>
            <Position>
              <LatitudeDegrees>-15.44060097075998783111572265625</LatitudeDegrees>
              <LongitudeDegrees>37.05620105378329753875732421875</LongitudeDegrees>
            </Position>
            <AltitudeMeters>980.20001220703125</AltitudeMeters>
            <DistanceMeters>NAN</DistanceMeters>
          </Trackpoint>
          <Trackpoint>
            <Time>2021-08-03T11:43:18.000Z</Time>
            <Position>
              <LatitudeDegrees>-15.44059325940907001495361328125</LatitudeDegrees>
              <LongitudeDegrees>37.056130729615688323974609375</LongitudeDegrees>
            </Position>
            <AltitudeMeters>978.5999755859375</AltitudeMeters>
            <DistanceMeters>NAN</DistanceMeters>
          </Trackpoint>
          <Trackpoint>
            <Time>2021-08-03T11:43:21.000Z</Time>
            <Position>
              <LatitudeDegrees>-15.4405908286571502685546875</LatitudeDegrees>
              <LongitudeDegrees>37.0560975372791290283203125</LongitudeDegrees>
            </Position>
            <AltitudeMeters>978.5999755859375</AltitudeMeters>
            <DistanceMeters>NAN</DistanceMeters>
          </Trackpoint>
          <Trackpoint>
            <Time>2021-08-03T11:43:26.000Z</Time>
            <Position>
              <LatitudeDegrees>-15.440583787858486175537109375</LatitudeDegrees>
              <LongitudeDegrees>37.056039869785308837890625</LongitudeDegrees>
            </Position>
            <AltitudeMeters>978.5999755859375</AltitudeMeters>
            <DistanceMeters>NAN</DistanceMeters>
          </Trackpoint>
          <Trackpoint>
            <Time>2021-08-03T11:43:31.000Z</Time>
            <Position>
              <LatitudeDegrees>-15.440562330186367034912109375</LatitudeDegrees>
              <LongitudeDegrees>37.055988572537899017333984375</LongitudeDegrees>
            </Position>
            <AltitudeMeters>978</AltitudeMeters>
            <DistanceMeters>NAN</DistanceMeters>
          </Trackpoint>
          <Trackpoint>
            <Time>2021-08-03T11:43:32.000Z</Time>
            <Position>
              <LatitudeDegrees>-15.4405541159212589263916015625</LatitudeDegrees>
              <LongitudeDegrees>37.05597792752087116241455078125</LongitudeDegrees>
            </Position>
            <AltitudeMeters>977.5999755859375</AltitudeMeters>
            <DistanceMeters>NAN</DistanceMeters>
          </Trackpoint>
          <Trackpoint>
            <Time>2021-08-03T11:43:34.000Z</Time>
            <Position>
              <LatitudeDegrees>-15.44054330326616764068603515625</LatitudeDegrees>
              <LongitudeDegrees>37.055961079895496368408203125</LongitudeDegrees>
            </Position>
            <AltitudeMeters>976.5999755859375</AltitudeMeters>
            <DistanceMeters>NAN</DistanceMeters>
          </Trackpoint>
          <Trackpoint>
            <Time>2021-08-03T11:43:37.000Z</Time>
            <Position>
              <LatitudeDegrees>-15.440533161163330078125</LatitudeDegrees>
              <LongitudeDegrees>37.05593434162437915802001953125</LongitudeDegrees>
            </Position>
            <AltitudeMeters>975.79998779296875</AltitudeMeters>
            <DistanceMeters>NAN</DistanceMeters>
          </Trackpoint>
          <Trackpoint>
            <Time>2021-08-03T11:43:38.000Z</Time>
            <Position>
              <LatitudeDegrees>-15.440533496439456939697265625</LatitudeDegrees>
              <LongitudeDegrees>37.05592629499733448028564453125</LongitudeDegrees>
            </Position>
            <AltitudeMeters>975.20001220703125</AltitudeMeters>
            <DistanceMeters>NAN</DistanceMeters>
          </Trackpoint>
          <Trackpoint>
            <Time>2021-08-03T11:43:40.000Z</Time>
            <Position>
              <LatitudeDegrees>-15.44053089804947376251220703125</LatitudeDegrees>
              <LongitudeDegrees>37.055907435715198516845703125</LongitudeDegrees>
            </Position>
            <AltitudeMeters>974.79998779296875</AltitudeMeters>
            <DistanceMeters>NAN</DistanceMeters>
          </Trackpoint>
          <Trackpoint>
            <Time>2021-08-03T11:43:41.000Z</Time>
            <Position>
              <LatitudeDegrees>-15.4405282996594905853271484375</LatitudeDegrees>
              <LongitudeDegrees>37.05589762888848781585693359375</LongitudeDegrees>
            </Position>
            <AltitudeMeters>974.20001220703125</AltitudeMeters>
            <DistanceMeters>NAN</DistanceMeters>
          </Trackpoint>
          <Trackpoint>
            <Time>2021-08-03T11:43:44.000Z</Time>
            <Position>
              <LatitudeDegrees>-15.44052050448954105377197265625</LatitudeDegrees>
              <LongitudeDegrees>37.05587734468281269073486328125</LongitudeDegrees>
            </Position>
            <AltitudeMeters>973</AltitudeMeters>
            <DistanceMeters>NAN</DistanceMeters>
          </Trackpoint>
          <Trackpoint>
            <Time>2021-08-03T11:43:48.000Z</Time>
            <Position>
              <LatitudeDegrees>-15.4405138827860355377197265625</LatitudeDegrees>
              <LongitudeDegrees>37.0558526180684566497802734375</LongitudeDegrees>
            </Position>
            <AltitudeMeters>972.5999755859375</AltitudeMeters>
            <DistanceMeters>NAN</DistanceMeters>
          </Trackpoint>
          <Trackpoint>
            <Time>2021-08-03T11:43:49.000Z</Time>
            <Position>
              <LatitudeDegrees>-15.4405179060995578765869140625</LatitudeDegrees>
              <LongitudeDegrees>37.05584549345076084136962890625</LongitudeDegrees>
            </Position>
            <AltitudeMeters>971.79998779296875</AltitudeMeters>
            <DistanceMeters>NAN</DistanceMeters>
          </Trackpoint>
          <Trackpoint>
            <Time>2021-08-03T11:43:52.000Z</Time>
            <Position>
              <LatitudeDegrees>-15.4405326582491397857666015625</LatitudeDegrees>
              <LongitudeDegrees>37.05582923255860805511474609375</LongitudeDegrees>
            </Position>
            <AltitudeMeters>970.5999755859375</AltitudeMeters>
            <DistanceMeters>NAN</DistanceMeters>
          </Trackpoint>
          <Trackpoint>
            <Time>2021-08-03T11:43:56.000Z</Time>
            <Position>
              <LatitudeDegrees>-15.44056593440473079681396484375</LatitudeDegrees>
              <LongitudeDegrees>37.0558159053325653076171875</LongitudeDegrees>
            </Position>
            <AltitudeMeters>969.79998779296875</AltitudeMeters>
            <DistanceMeters>NAN</DistanceMeters>
          </Trackpoint>
          <Trackpoint>
            <Time>2021-08-03T11:43:57.000Z</Time>
            <Position>
              <LatitudeDegrees>-15.44057599268853664398193359375</LatitudeDegrees>
              <LongitudeDegrees>37.05581389367580413818359375</LongitudeDegrees>
            </Position>
            <AltitudeMeters>969.79998779296875</AltitudeMeters>
            <DistanceMeters>NAN</DistanceMeters>
          </Trackpoint>
          <Trackpoint>
            <Time>2021-08-03T11:43:58.000Z</Time>
            <Position>
              <LatitudeDegrees>-15.4405832849442958831787109375</LatitudeDegrees>
              <LongitudeDegrees>37.05581188201904296875</LongitudeDegrees>
            </Position>
            <AltitudeMeters>969.5999755859375</AltitudeMeters>
            <DistanceMeters>NAN</DistanceMeters>
          </Trackpoint>
          <Trackpoint>
            <Time>2021-08-03T11:44:00.000Z</Time>
            <Position>
              <LatitudeDegrees>-15.440598540008068084716796875</LatitudeDegrees>
              <LongitudeDegrees>37.05581096000969409942626953125</LongitudeDegrees>
            </Position>
            <AltitudeMeters>969</AltitudeMeters>
            <DistanceMeters>NAN</DistanceMeters>
          </Trackpoint>
          <Trackpoint>
            <Time>2021-08-03T11:44:04.000Z</Time>
            <Position>
              <LatitudeDegrees>-15.44064288027584552764892578125</LatitudeDegrees>
              <LongitudeDegrees>37.05581783317029476165771484375</LongitudeDegrees>
            </Position>
            <AltitudeMeters>967.79998779296875</AltitudeMeters>
            <DistanceMeters>NAN</DistanceMeters>
          </Trackpoint>
          <Trackpoint>
            <Time>2021-08-03T11:44:08.000Z</Time>
            <Position>
              <LatitudeDegrees>-15.44068462215363979339599609375</LatitudeDegrees>
              <LongitudeDegrees>37.05582797527313232421875</LongitudeDegrees>
            </Position>
            <AltitudeMeters>967</AltitudeMeters>
            <DistanceMeters>NAN</DistanceMeters>
          </Trackpoint>
          <Trackpoint>
            <Time>2021-08-03T11:44:10.000Z</Time>
            <Position>
              <LatitudeDegrees>-15.44070121832191944122314453125</LatitudeDegrees>
              <LongitudeDegrees>37.05583124421536922454833984375</LongitudeDegrees>
            </Position>
            <AltitudeMeters>966.5999755859375</AltitudeMeters>
            <DistanceMeters>NAN</DistanceMeters>
          </Trackpoint>
          <Trackpoint>
            <Time>2021-08-03T11:44:17.000Z</Time>
            <Position>
              <LatitudeDegrees>-15.4407490789890289306640625</LatitudeDegrees>
              <LongitudeDegrees>37.0558499358594417572021484375</LongitudeDegrees>
            </Position>
            <AltitudeMeters>965.79998779296875</AltitudeMeters>
            <DistanceMeters>NAN</DistanceMeters>
          </Trackpoint>
          <Trackpoint>
            <Time>2021-08-03T11:44:21.000Z</Time>
            <Position>
              <LatitudeDegrees>-15.44075486250221729278564453125</LatitudeDegrees>
              <LongitudeDegrees>37.0558516122400760650634765625</LongitudeDegrees>
            </Position>
            <AltitudeMeters>965.5999755859375</AltitudeMeters>
            <DistanceMeters>NAN</DistanceMeters>
          </Trackpoint>
          <Trackpoint>
            <Time>2021-08-03T11:44:27.000Z</Time>
            <Position>
              <LatitudeDegrees>-15.44076156802475452423095703125</LatitudeDegrees>
              <LongitudeDegrees>37.05587734468281269073486328125</LongitudeDegrees>
            </Position>
            <AltitudeMeters>965.4000244140625</AltitudeMeters>
            <DistanceMeters>NAN</DistanceMeters>
          </Trackpoint>
          <Trackpoint>
            <Time>2021-08-03T11:44:32.000Z</Time>
            <Position>
              <LatitudeDegrees>-15.4407509230077266693115234375</LatitudeDegrees>
              <LongitudeDegrees>37.05586175434291362762451171875</LongitudeDegrees>
            </Position>
            <AltitudeMeters>965.5999755859375</AltitudeMeters>
            <DistanceMeters>NAN</DistanceMeters>
          </Trackpoint>
          <Trackpoint>
            <Time>2021-08-03T11:44:37.000Z</Time>
            <Position>
              <LatitudeDegrees>-15.44075754471123218536376953125</LatitudeDegrees>
              <LongitudeDegrees>37.05585504882037639617919921875</LongitudeDegrees>
            </Position>
            <AltitudeMeters>965.4000244140625</AltitudeMeters>
            <DistanceMeters>NAN</DistanceMeters>
          </Trackpoint>
          <Trackpoint>
            <Time>2021-08-03T11:44:52.000Z</Time>
            <Position>
              <LatitudeDegrees>-15.44075754471123218536376953125</LatitudeDegrees>
              <LongitudeDegrees>37.05585974268615245819091796875</LongitudeDegrees>
            </Position>
            <AltitudeMeters>965.5999755859375</AltitudeMeters>
            <DistanceMeters>NAN</DistanceMeters>
          </Trackpoint>
          <Trackpoint>
            <Time>2021-08-03T11:44:59.000Z</Time>
            <Position>
              <LatitudeDegrees>-15.44075234793126583099365234375</LatitudeDegrees>
              <LongitudeDegrees>37.05586108379065990447998046875</LongitudeDegrees>
            </Position>
            <AltitudeMeters>965.5999755859375</AltitudeMeters>
            <DistanceMeters>NAN</DistanceMeters>
          </Trackpoint>
          <Trackpoint>
            <Time>2021-08-03T11:45:02.000Z</Time>
            <Position>
              <LatitudeDegrees>-15.4407515935599803924560546875</LatitudeDegrees>
              <LongitudeDegrees>37.05586108379065990447998046875</LongitudeDegrees>
            </Position>
            <AltitudeMeters>965.5999755859375</AltitudeMeters>
            <DistanceMeters>NAN</DistanceMeters>
          </Trackpoint>
          <Trackpoint>
            <Time>2021-08-03T11:45:04.000Z</Time>
            <Position>
              <LatitudeDegrees>-15.44075519777834415435791015625</LatitudeDegrees>
              <LongitudeDegrees>37.0558626763522624969482421875</LongitudeDegrees>
            </Position>
            <AltitudeMeters>965.5999755859375</AltitudeMeters>
            <DistanceMeters>NAN</DistanceMeters>
          </Trackpoint>
          <Trackpoint>
            <Time>2021-08-03T11:45:06.000Z</Time>
            <Position>
              <LatitudeDegrees>-15.44077598489820957183837890625</LatitudeDegrees>
              <LongitudeDegrees>37.05586845986545085906982421875</LongitudeDegrees>
            </Position>
            <AltitudeMeters>965.5999755859375</AltitudeMeters>
            <DistanceMeters>NAN</DistanceMeters>
          </Trackpoint>
          <Trackpoint>
            <Time>2021-08-03T11:45:09.000Z</Time>
            <Position>
              <LatitudeDegrees>-15.44081588275730609893798828125</LatitudeDegrees>
              <LongitudeDegrees>37.05587248317897319793701171875</LongitudeDegrees>
            </Position>
            <AltitudeMeters>964.5999755859375</AltitudeMeters>
            <DistanceMeters>NAN</DistanceMeters>
          </Trackpoint>
          <Trackpoint>
            <Time>2021-08-03T11:45:10.000Z</Time>
            <Position>
              <LatitudeDegrees>-15.44082862325012683868408203125</LatitudeDegrees>
              <LongitudeDegrees>37.05587047152221202850341796875</LongitudeDegrees>
            </Position>
            <AltitudeMeters>964.20001220703125</AltitudeMeters>
            <DistanceMeters>NAN</DistanceMeters>
          </Trackpoint>
          <Trackpoint>
            <Time>2021-08-03T11:45:13.000Z</Time>
            <Position>
              <LatitudeDegrees>-15.440852679312229156494140625</LatitudeDegrees>
              <LongitudeDegrees>37.05586141906678676605224609375</LongitudeDegrees>
            </Position>
            <AltitudeMeters>963.5999755859375</AltitudeMeters>
            <DistanceMeters>NAN</DistanceMeters>
          </Trackpoint>
          <Trackpoint>
            <Time>2021-08-03T11:45:15.000Z</Time>
            <Position>
              <LatitudeDegrees>-15.44085427187383174896240234375</LatitudeDegrees>
              <LongitudeDegrees>37.05586217343807220458984375</LongitudeDegrees>
            </Position>
            <AltitudeMeters>963.5999755859375</AltitudeMeters>
            <DistanceMeters>NAN</DistanceMeters>
          </Trackpoint>
          <Trackpoint>
            <Time>2021-08-03T11:45:19.000Z</Time>
            <Position>
              <LatitudeDegrees>-15.44086399488151073455810546875</LatitudeDegrees>
              <LongitudeDegrees>37.0558673702180385589599609375</LongitudeDegrees>
            </Position>
            <AltitudeMeters>963.20001220703125</AltitudeMeters>
            <DistanceMeters>NAN</DistanceMeters>
          </Trackpoint>
          <Trackpoint>
            <Time>2021-08-03T11:45:22.000Z</Time>
            <Position>
              <LatitudeDegrees>-15.44086508452892303466796875</LatitudeDegrees>
              <LongitudeDegrees>37.0558666996657848358154296875</LongitudeDegrees>
            </Position>
            <AltitudeMeters>963</AltitudeMeters>
            <DistanceMeters>NAN</DistanceMeters>
          </Trackpoint>
          <Trackpoint>
            <Time>2021-08-03T11:45:31.000Z</Time>
            <Position>
              <LatitudeDegrees>-15.4408665932714939117431640625</LatitudeDegrees>
              <LongitudeDegrees>37.05586728639900684356689453125</LongitudeDegrees>
            </Position>
            <AltitudeMeters>962.79998779296875</AltitudeMeters>
            <DistanceMeters>NAN</DistanceMeters>
          </Trackpoint>
          <Trackpoint>
            <Time>2021-08-03T11:45:35.000Z</Time>
            <Position>
              <LatitudeDegrees>-15.4408665932714939117431640625</LatitudeDegrees>
              <LongitudeDegrees>37.05586728639900684356689453125</LongitudeDegrees>
            </Position>
            <AltitudeMeters>963</AltitudeMeters>
            <DistanceMeters>NAN</DistanceMeters>
          </Trackpoint>
          <Trackpoint>
            <Time>2021-08-03T11:45:36.000Z</Time>
            <Position>
              <LatitudeDegrees>-15.4408665932714939117431640625</LatitudeDegrees>
              <LongitudeDegrees>37.05586728639900684356689453125</LongitudeDegrees>
            </Position>
            <AltitudeMeters>963</AltitudeMeters>
            <DistanceMeters>NAN</DistanceMeters>
          </Trackpoint>
          <Trackpoint>
            <Time>2021-08-03T11:45:38.000Z</Time>
            <Position>
              <LatitudeDegrees>-15.4408665932714939117431640625</LatitudeDegrees>
              <LongitudeDegrees>37.05586728639900684356689453125</LongitudeDegrees>
            </Position>
            <AltitudeMeters>963</AltitudeMeters>
            <DistanceMeters>NAN</DistanceMeters>
          </Trackpoint>
          <Trackpoint>
            <Time>2021-08-03T11:45:40.000Z</Time>
            <Position>
              <LatitudeDegrees>-15.4408665932714939117431640625</LatitudeDegrees>
              <LongitudeDegrees>37.05586728639900684356689453125</LongitudeDegrees>
            </Position>
            <AltitudeMeters>962.79998779296875</AltitudeMeters>
            <DistanceMeters>NAN</DistanceMeters>
          </Trackpoint>
          <Trackpoint>
            <Time>2021-08-03T11:45:43.000Z</Time>
            <Position>
              <LatitudeDegrees>-15.4408665932714939117431640625</LatitudeDegrees>
              <LongitudeDegrees>37.05586728639900684356689453125</LongitudeDegrees>
            </Position>
            <AltitudeMeters>962.79998779296875</AltitudeMeters>
            <DistanceMeters>NAN</DistanceMeters>
          </Trackpoint>
          <Trackpoint>
            <Time>2021-08-03T11:45:45.000Z</Time>
            <Position>
              <LatitudeDegrees>-15.4408665932714939117431640625</LatitudeDegrees>
              <LongitudeDegrees>37.0558666996657848358154296875</LongitudeDegrees>
            </Position>
            <AltitudeMeters>962.79998779296875</AltitudeMeters>
            <DistanceMeters>NAN</DistanceMeters>
          </Trackpoint>
          <Trackpoint>
            <Time>2021-08-03T11:45:47.000Z</Time>
            <Position>
              <LatitudeDegrees>-15.4408665932714939117431640625</LatitudeDegrees>
              <LongitudeDegrees>37.05586544238030910491943359375</LongitudeDegrees>
            </Position>
            <AltitudeMeters>962.79998779296875</AltitudeMeters>
            <DistanceMeters>NAN</DistanceMeters>
          </Trackpoint>
          <Trackpoint>
            <Time>2021-08-03T11:45:49.000Z</Time>
            <Position>
              <LatitudeDegrees>-15.44086818583309650421142578125</LatitudeDegrees>
              <LongitudeDegrees>37.05586309544742107391357421875</LongitudeDegrees>
            </Position>
            <AltitudeMeters>962.79998779296875</AltitudeMeters>
            <DistanceMeters>NAN</DistanceMeters>
          </Trackpoint>
          <Trackpoint>
            <Time>2021-08-03T11:46:20.000Z</Time>
            <Position>
              <LatitudeDegrees>-15.44088385999202728271484375</LatitudeDegrees>
              <LongitudeDegrees>37.05585320480167865753173828125</LongitudeDegrees>
            </Position>
            <AltitudeMeters>962.79998779296875</AltitudeMeters>
            <DistanceMeters>NAN</DistanceMeters>
          </Trackpoint>
          <Trackpoint>
            <Time>2021-08-03T11:46:26.000Z</Time>
            <Position>
              <LatitudeDegrees>-15.44088243506848812103271484375</LatitudeDegrees>
              <LongitudeDegrees>37.0558526180684566497802734375</LongitudeDegrees>
            </Position>
            <AltitudeMeters>962.5999755859375</AltitudeMeters>
            <DistanceMeters>NAN</DistanceMeters>
          </Trackpoint>
          <Trackpoint>
            <Time>2021-08-03T11:46:41.000Z</Time>
            <Position>
              <LatitudeDegrees>-15.440883524715900421142578125</LatitudeDegrees>
              <LongitudeDegrees>37.05584901385009288787841796875</LongitudeDegrees>
            </Position>
            <AltitudeMeters>962.5999755859375</AltitudeMeters>
            <DistanceMeters>NAN</DistanceMeters>
          </Trackpoint>
          <Trackpoint>
            <Time>2021-08-03T11:47:02.000Z</Time>
            <Position>
              <LatitudeDegrees>-15.4408836923539638519287109375</LatitudeDegrees>
              <LongitudeDegrees>37.05584951676428318023681640625</LongitudeDegrees>
            </Position>
            <AltitudeMeters>962.5999755859375</AltitudeMeters>
            <DistanceMeters>NAN</DistanceMeters>
          </Trackpoint>
          <Trackpoint>
            <Time>2021-08-03T11:47:29.000Z</Time>
            <Position>
              <LatitudeDegrees>-15.44088159687817096710205078125</LatitudeDegrees>
              <LongitudeDegrees>37.05584499053657054901123046875</LongitudeDegrees>
            </Position>
            <AltitudeMeters>962.5999755859375</AltitudeMeters>
            <DistanceMeters>NAN</DistanceMeters>
          </Trackpoint>
          <Trackpoint>
            <Time>2021-08-03T11:47:39.000Z</Time>
            <Position>
              <LatitudeDegrees>-15.4408776573836803436279296875</LatitudeDegrees>
              <LongitudeDegrees>37.05584147013723850250244140625</LongitudeDegrees>
            </Position>
            <AltitudeMeters>962.5999755859375</AltitudeMeters>
            <DistanceMeters>NAN</DistanceMeters>
          </Trackpoint>
          <Trackpoint>
            <Time>2021-08-03T11:47:44.000Z</Time>
            <Position>
              <LatitudeDegrees>-15.44087740592658519744873046875</LatitudeDegrees>
              <LongitudeDegrees>37.05583895556628704071044921875</LongitudeDegrees>
            </Position>
            <AltitudeMeters>962.5999755859375</AltitudeMeters>
            <DistanceMeters>NAN</DistanceMeters>
          </Trackpoint>
          <Trackpoint>
            <Time>2021-08-03T11:47:48.000Z</Time>
            <Position>
              <LatitudeDegrees>-15.44087757356464862823486328125</LatitudeDegrees>
              <LongitudeDegrees>37.0558351837098598480224609375</LongitudeDegrees>
            </Position>
            <AltitudeMeters>962.5999755859375</AltitudeMeters>
            <DistanceMeters>NAN</DistanceMeters>
          </Trackpoint>
          <Trackpoint>
            <Time>2021-08-03T11:48:09.000Z</Time>
            <Position>
              <LatitudeDegrees>-15.44088226743042469024658203125</LatitudeDegrees>
              <LongitudeDegrees>37.055824287235736846923828125</LongitudeDegrees>
            </Position>
            <AltitudeMeters>962.5999755859375</AltitudeMeters>
            <DistanceMeters>NAN</DistanceMeters>
          </Trackpoint>
          <Trackpoint>
            <Time>2021-08-03T11:49:04.000Z</Time>
            <Position>
              <LatitudeDegrees>-15.440885536372661590576171875</LatitudeDegrees>
              <LongitudeDegrees>37.055814899504184722900390625</LongitudeDegrees>
            </Position>
            <AltitudeMeters>962.5999755859375</AltitudeMeters>
            <DistanceMeters>NAN</DistanceMeters>
          </Trackpoint>
          <Trackpoint>
            <Time>2021-08-03T11:49:06.000Z</Time>
            <Position>
              <LatitudeDegrees>-15.440885536372661590576171875</LatitudeDegrees>
              <LongitudeDegrees>37.05581498332321643829345703125</LongitudeDegrees>
            </Position>
            <AltitudeMeters>962.5999755859375</AltitudeMeters>
            <DistanceMeters>NAN</DistanceMeters>
          </Trackpoint>
          <Trackpoint>
            <Time>2021-08-03T11:49:16.000Z</Time>
            <Position>
              <LatitudeDegrees>-15.4408853687345981597900390625</LatitudeDegrees>
              <LongitudeDegrees>37.0558154024183750152587890625</LongitudeDegrees>
            </Position>
            <AltitudeMeters>962.5999755859375</AltitudeMeters>
            <DistanceMeters>NAN</DistanceMeters>
          </Trackpoint>
          <Trackpoint>
            <Time>2021-08-03T11:49:48.000Z</Time>
            <Position>
              <LatitudeDegrees>-15.44088478200137615203857421875</LatitudeDegrees>
              <LongitudeDegrees>37.05581649206578731536865234375</LongitudeDegrees>
            </Position>
            <AltitudeMeters>962.5999755859375</AltitudeMeters>
            <DistanceMeters>NAN</DistanceMeters>
          </Trackpoint>
          <Trackpoint>
            <Time>2021-08-03T11:50:00.000Z</Time>
            <Position>
              <LatitudeDegrees>-15.44089182280004024505615234375</LatitudeDegrees>
              <LongitudeDegrees>37.05581783317029476165771484375</LongitudeDegrees>
            </Position>
            <AltitudeMeters>962.5999755859375</AltitudeMeters>
            <DistanceMeters>NAN</DistanceMeters>
          </Trackpoint>
          <Trackpoint>
            <Time>2021-08-03T11:50:02.000Z</Time>
            <Position>
              <LatitudeDegrees>-15.44092149473726749420166015625</LatitudeDegrees>
              <LongitudeDegrees>37.0558040030300617218017578125</LongitudeDegrees>
            </Position>
            <AltitudeMeters>962.5999755859375</AltitudeMeters>
            <DistanceMeters>NAN</DistanceMeters>
          </Trackpoint>
          <Trackpoint>
            <Time>2021-08-03T11:50:03.000Z</Time>
            <Position>
              <LatitudeDegrees>-15.44093188829720020294189453125</LatitudeDegrees>
              <LongitudeDegrees>37.05579587258398532867431640625</LongitudeDegrees>
            </Position>
            <AltitudeMeters>962.5999755859375</AltitudeMeters>
            <DistanceMeters>NAN</DistanceMeters>
          </Trackpoint>
          <Trackpoint>
            <Time>2021-08-03T11:50:11.000Z</Time>
            <Position>
              <LatitudeDegrees>-15.44097010977566242218017578125</LatitudeDegrees>
              <LongitudeDegrees>37.055728733539581298828125</LongitudeDegrees>
            </Position>
            <AltitudeMeters>962.4000244140625</AltitudeMeters>
            <DistanceMeters>NAN</DistanceMeters>
          </Trackpoint>
          <Trackpoint>
            <Time>2021-08-03T11:50:14.000Z</Time>
            <Position>
              <LatitudeDegrees>-15.4409470595419406890869140625</LatitudeDegrees>
              <LongitudeDegrees>37.05569587647914886474609375</LongitudeDegrees>
            </Position>
            <AltitudeMeters>961.79998779296875</AltitudeMeters>
            <DistanceMeters>NAN</DistanceMeters>
          </Trackpoint>
          <Trackpoint>
            <Time>2021-08-03T11:50:17.000Z</Time>
            <Position>
              <LatitudeDegrees>-15.44092233292758464813232421875</LatitudeDegrees>
              <LongitudeDegrees>37.0556591637432575225830078125</LongitudeDegrees>
            </Position>
            <AltitudeMeters>960.4000244140625</AltitudeMeters>
            <DistanceMeters>NAN</DistanceMeters>
          </Trackpoint>
          <Trackpoint>
            <Time>2021-08-03T11:50:18.000Z</Time>
            <Position>
              <LatitudeDegrees>-15.4409135319292545318603515625</LatitudeDegrees>
              <LongitudeDegrees>37.05564566887915134429931640625</LongitudeDegrees>
            </Position>
            <AltitudeMeters>960.20001220703125</AltitudeMeters>
            <DistanceMeters>NAN</DistanceMeters>
          </Trackpoint>
          <Trackpoint>
            <Time>2021-08-03T11:50:22.000Z</Time>
            <Position>
              <LatitudeDegrees>-15.44088788330554962158203125</LatitudeDegrees>
              <LongitudeDegrees>37.05559420399367809295654296875</LongitudeDegrees>
            </Position>
            <AltitudeMeters>960</AltitudeMeters>
            <DistanceMeters>NAN</DistanceMeters>
          </Trackpoint>
          <Trackpoint>
            <Time>2021-08-03T11:50:28.000Z</Time>
            <Position>
              <LatitudeDegrees>-15.440860055387020111083984375</LatitudeDegrees>
              <LongitudeDegrees>37.0555320940911769866943359375</LongitudeDegrees>
            </Position>
            <AltitudeMeters>958.79998779296875</AltitudeMeters>
            <DistanceMeters>NAN</DistanceMeters>
          </Trackpoint>
          <Trackpoint>
            <Time>2021-08-03T11:50:35.000Z</Time>
            <Position>
              <LatitudeDegrees>-15.440836250782012939453125</LatitudeDegrees>
              <LongitudeDegrees>37.05547451041638851165771484375</LongitudeDegrees>
            </Position>
            <AltitudeMeters>957.5999755859375</AltitudeMeters>
            <DistanceMeters>NAN</DistanceMeters>
          </Trackpoint>
          <Trackpoint>
            <Time>2021-08-03T11:50:39.000Z</Time>
            <Position>
              <LatitudeDegrees>-15.44082510285079479217529296875</LatitudeDegrees>
              <LongitudeDegrees>37.05543863587081432342529296875</LongitudeDegrees>
            </Position>
            <AltitudeMeters>956.4000244140625</AltitudeMeters>
            <DistanceMeters>NAN</DistanceMeters>
          </Trackpoint>
          <Trackpoint>
            <Time>2021-08-03T11:50:40.000Z</Time>
            <Position>
              <LatitudeDegrees>-15.44082359410822391510009765625</LatitudeDegrees>
              <LongitudeDegrees>37.05542891286313533782958984375</LongitudeDegrees>
            </Position>
            <AltitudeMeters>956.4000244140625</AltitudeMeters>
            <DistanceMeters>NAN</DistanceMeters>
          </Trackpoint>
          <Trackpoint>
            <Time>2021-08-03T11:50:48.000Z</Time>
            <Position>
              <LatitudeDegrees>-15.4408213309943675994873046875</LatitudeDegrees>
              <LongitudeDegrees>37.0553627796471118927001953125</LongitudeDegrees>
            </Position>
            <AltitudeMeters>955.20001220703125</AltitudeMeters>
            <DistanceMeters>NAN</DistanceMeters>
          </Trackpoint>
          <Trackpoint>
            <Time>2021-08-03T11:50:50.000Z</Time>
            <Position>
              <LatitudeDegrees>-15.44082795269787311553955078125</LatitudeDegrees>
              <LongitudeDegrees>37.055348865687847137451171875</LongitudeDegrees>
            </Position>
            <AltitudeMeters>955</AltitudeMeters>
            <DistanceMeters>NAN</DistanceMeters>
          </Trackpoint>
          <Trackpoint>
            <Time>2021-08-03T11:50:54.000Z</Time>
            <Position>
              <LatitudeDegrees>-15.44084605760872364044189453125</LatitudeDegrees>
              <LongitudeDegrees>37.055317349731922149658203125</LongitudeDegrees>
            </Position>
            <AltitudeMeters>954</AltitudeMeters>
            <DistanceMeters>NAN</DistanceMeters>
          </Trackpoint>
          <Trackpoint>
            <Time>2021-08-03T11:50:57.000Z</Time>
            <Position>
              <LatitudeDegrees>-15.4408639110624790191650390625</LatitudeDegrees>
              <LongitudeDegrees>37.05529865808784961700439453125</LongitudeDegrees>
            </Position>
            <AltitudeMeters>953</AltitudeMeters>
            <DistanceMeters>NAN</DistanceMeters>
          </Trackpoint>
          <Trackpoint>
            <Time>2021-08-03T11:51:01.000Z</Time>
            <Position>
              <LatitudeDegrees>-15.44089299626648426055908203125</LatitudeDegrees>
              <LongitudeDegrees>37.05528172664344310760498046875</LongitudeDegrees>
            </Position>
            <AltitudeMeters>952.20001220703125</AltitudeMeters>
            <DistanceMeters>NAN</DistanceMeters>
          </Trackpoint>
          <Trackpoint>
            <Time>2021-08-03T11:51:04.000Z</Time>
            <Position>
              <LatitudeDegrees>-15.44092166237533092498779296875</LatitudeDegrees>
              <LongitudeDegrees>37.0552647113800048828125</LongitudeDegrees>
            </Position>
            <AltitudeMeters>952</AltitudeMeters>
            <DistanceMeters>NAN</DistanceMeters>
          </Trackpoint>
          <Trackpoint>
            <Time>2021-08-03T11:51:07.000Z</Time>
            <Position>
              <LatitudeDegrees>-15.44094580225646495819091796875</LatitudeDegrees>
              <LongitudeDegrees>37.0552633702754974365234375</LongitudeDegrees>
            </Position>
            <AltitudeMeters>951.20001220703125</AltitudeMeters>
            <DistanceMeters>NAN</DistanceMeters>
          </Trackpoint>
          <Trackpoint>
            <Time>2021-08-03T11:51:08.000Z</Time>
            <Position>
              <LatitudeDegrees>-15.44095317833125591278076171875</LatitudeDegrees>
              <LongitudeDegrees>37.055266387760639190673828125</LongitudeDegrees>
            </Position>
            <AltitudeMeters>951</AltitudeMeters>
            <DistanceMeters>NAN</DistanceMeters>
          </Trackpoint>
          <Trackpoint>
            <Time>2021-08-03T11:51:09.000Z</Time>
            <Position>
              <LatitudeDegrees>-15.44095954857766628265380859375</LatitudeDegrees>
              <LongitudeDegrees>37.055272422730922698974609375</LongitudeDegrees>
            </Position>
            <AltitudeMeters>951</AltitudeMeters>
            <DistanceMeters>NAN</DistanceMeters>
          </Trackpoint>
          <Trackpoint>
            <Time>2021-08-03T11:51:13.000Z</Time>
            <Position>
              <LatitudeDegrees>-15.4409899748861789703369140625</LatitudeDegrees>
              <LongitudeDegrees>37.0552950538694858551025390625</LongitudeDegrees>
            </Position>
            <AltitudeMeters>950</AltitudeMeters>
            <DistanceMeters>NAN</DistanceMeters>
          </Trackpoint>
          <Trackpoint>
            <Time>2021-08-03T11:51:17.000Z</Time>
            <Position>
              <LatitudeDegrees>-15.44101956300437450408935546875</LatitudeDegrees>
              <LongitudeDegrees>37.05532833002507686614990234375</LongitudeDegrees>
            </Position>
            <AltitudeMeters>949.5999755859375</AltitudeMeters>
            <DistanceMeters>NAN</DistanceMeters>
          </Trackpoint>
          <Trackpoint>
            <Time>2021-08-03T11:51:20.000Z</Time>
            <Position>
              <LatitudeDegrees>-15.441037751734256744384765625</LatitudeDegrees>
              <LongitudeDegrees>37.0553570799529552459716796875</LongitudeDegrees>
            </Position>
            <AltitudeMeters>948.5999755859375</AltitudeMeters>
            <DistanceMeters>NAN</DistanceMeters>
          </Trackpoint>
          <Trackpoint>
            <Time>2021-08-03T11:51:27.000Z</Time>
            <Position>
              <LatitudeDegrees>-15.44107890687882900238037109375</LatitudeDegrees>
              <LongitudeDegrees>37.055417597293853759765625</LongitudeDegrees>
            </Position>
            <AltitudeMeters>946.79998779296875</AltitudeMeters>
            <DistanceMeters>NAN</DistanceMeters>
          </Trackpoint>
          <Trackpoint>
            <Time>2021-08-03T11:51:34.000Z</Time>
            <Position>
              <LatitudeDegrees>-15.44116306118667125701904296875</LatitudeDegrees>
              <LongitudeDegrees>37.05549127422273159027099609375</LongitudeDegrees>
            </Position>
            <AltitudeMeters>946.79998779296875</AltitudeMeters>
            <DistanceMeters>NAN</DistanceMeters>
          </Trackpoint>
          <Trackpoint>
            <Time>2021-08-03T11:51:35.000Z</Time>
            <Position>
              <LatitudeDegrees>-15.4411782324314117431640625</LatitudeDegrees>
              <LongitudeDegrees>37.05549479462206363677978515625</LongitudeDegrees>
            </Position>
            <AltitudeMeters>946.79998779296875</AltitudeMeters>
            <DistanceMeters>NAN</DistanceMeters>
          </Trackpoint>
          <Trackpoint>
            <Time>2021-08-03T11:51:41.000Z</Time>
            <Position>
              <LatitudeDegrees>-15.441242940723896026611328125</LatitudeDegrees>
              <LongitudeDegrees>37.05547451041638851165771484375</LongitudeDegrees>
            </Position>
            <AltitudeMeters>945.79998779296875</AltitudeMeters>
            <DistanceMeters>NAN</DistanceMeters>
          </Trackpoint>
          <Trackpoint>
            <Time>2021-08-03T11:51:44.000Z</Time>
            <Position>
              <LatitudeDegrees>-15.44126532040536403656005859375</LatitudeDegrees>
              <LongitudeDegrees>37.05544383265078067779541015625</LongitudeDegrees>
            </Position>
            <AltitudeMeters>945.79998779296875</AltitudeMeters>
            <DistanceMeters>NAN</DistanceMeters>
          </Trackpoint>
          <Trackpoint>
            <Time>2021-08-03T11:51:49.000Z</Time>
            <Position>
              <LatitudeDegrees>-15.441295914351940155029296875</LatitudeDegrees>
              <LongitudeDegrees>37.05538566224277019500732421875</LongitudeDegrees>
            </Position>
            <AltitudeMeters>945.79998779296875</AltitudeMeters>
            <DistanceMeters>NAN</DistanceMeters>
          </Trackpoint>
          <Trackpoint>
            <Time>2021-08-03T11:51:57.000Z</Time>
            <Position>
              <LatitudeDegrees>-15.44132650829851627349853515625</LatitudeDegrees>
              <LongitudeDegrees>37.05530284903943538665771484375</LongitudeDegrees>
            </Position>
            <AltitudeMeters>945.20001220703125</AltitudeMeters>
            <DistanceMeters>NAN</DistanceMeters>
          </Trackpoint>
          <Trackpoint>
            <Time>2021-08-03T11:51:59.000Z</Time>
            <Position>
              <LatitudeDegrees>-15.4413359798491001129150390625</LatitudeDegrees>
              <LongitudeDegrees>37.0552756078541278839111328125</LongitudeDegrees>
            </Position>
            <AltitudeMeters>944.5999755859375</AltitudeMeters>
            <DistanceMeters>NAN</DistanceMeters>
          </Trackpoint>
          <Trackpoint>
            <Time>2021-08-03T11:52:06.000Z</Time>
            <Position>
              <LatitudeDegrees>-15.44137529097497463226318359375</LatitudeDegrees>
              <LongitudeDegrees>37.05518717877566814422607421875</LongitudeDegrees>
            </Position>
            <AltitudeMeters>944.20001220703125</AltitudeMeters>
            <DistanceMeters>NAN</DistanceMeters>
          </Trackpoint>
          <Trackpoint>
            <Time>2021-08-03T11:52:07.000Z</Time>
            <Position>
              <LatitudeDegrees>-15.44138316996395587921142578125</LatitudeDegrees>
              <LongitudeDegrees>37.05518114380538463592529296875</LongitudeDegrees>
            </Position>
            <AltitudeMeters>944.20001220703125</AltitudeMeters>
            <DistanceMeters>NAN</DistanceMeters>
          </Trackpoint>
          <Trackpoint>
            <Time>2021-08-03T11:52:11.000Z</Time>
            <Position>
              <LatitudeDegrees>-15.4414035379886627197265625</LatitudeDegrees>
              <LongitudeDegrees>37.05515499226748943328857421875</LongitudeDegrees>
            </Position>
            <AltitudeMeters>943.5999755859375</AltitudeMeters>
            <DistanceMeters>NAN</DistanceMeters>
          </Trackpoint>
          <Trackpoint>
            <Time>2021-08-03T11:52:12.000Z</Time>
            <Position>
              <LatitudeDegrees>-15.441405884921550750732421875</LatitudeDegrees>
              <LongitudeDegrees>37.05514878965914249420166015625</LongitudeDegrees>
            </Position>
            <AltitudeMeters>943.4000244140625</AltitudeMeters>
            <DistanceMeters>NAN</DistanceMeters>
          </Trackpoint>
          <Trackpoint>
            <Time>2021-08-03T11:52:13.000Z</Time>
            <Position>
              <LatitudeDegrees>-15.4414127580821514129638671875</LatitudeDegrees>
              <LongitudeDegrees>37.05514124594628810882568359375</LongitudeDegrees>
            </Position>
            <AltitudeMeters>943.4000244140625</AltitudeMeters>
            <DistanceMeters>NAN</DistanceMeters>
          </Trackpoint>
          <Trackpoint>
            <Time>2021-08-03T11:52:19.000Z</Time>
            <Position>
              <LatitudeDegrees>-15.4414774663746356964111328125</LatitudeDegrees>
              <LongitudeDegrees>37.0550804771482944488525390625</LongitudeDegrees>
            </Position>
            <AltitudeMeters>942.5999755859375</AltitudeMeters>
            <DistanceMeters>NAN</DistanceMeters>
          </Trackpoint>
          <Trackpoint>
            <Time>2021-08-03T11:52:21.000Z</Time>
            <Position>
              <LatitudeDegrees>-15.441493727266788482666015625</LatitudeDegrees>
              <LongitudeDegrees>37.05507117323577404022216796875</LongitudeDegrees>
            </Position>
            <AltitudeMeters>942.20001220703125</AltitudeMeters>
            <DistanceMeters>NAN</DistanceMeters>
          </Trackpoint>
          <Trackpoint>
            <Time>2021-08-03T11:52:25.000Z</Time>
            <Position>
              <LatitudeDegrees>-15.44153002090752124786376953125</LatitudeDegrees>
              <LongitudeDegrees>37.05506153404712677001953125</LongitudeDegrees>
            </Position>
            <AltitudeMeters>940.79998779296875</AltitudeMeters>
            <DistanceMeters>NAN</DistanceMeters>
          </Trackpoint>
          <Trackpoint>
            <Time>2021-08-03T11:52:27.000Z</Time>
            <Position>
              <LatitudeDegrees>-15.44155902229249477386474609375</LatitudeDegrees>
              <LongitudeDegrees>37.0550385676324367523193359375</LongitudeDegrees>
            </Position>
            <AltitudeMeters>940.5999755859375</AltitudeMeters>
            <DistanceMeters>NAN</DistanceMeters>
          </Trackpoint>
          <Trackpoint>
            <Time>2021-08-03T11:52:29.000Z</Time>
            <Position>
              <LatitudeDegrees>-15.44157645665109157562255859375</LatitudeDegrees>
              <LongitudeDegrees>37.05502708442509174346923828125</LongitudeDegrees>
            </Position>
            <AltitudeMeters>940.20001220703125</AltitudeMeters>
            <DistanceMeters>NAN</DistanceMeters>
          </Trackpoint>
          <Trackpoint>
            <Time>2021-08-03T11:52:35.000Z</Time>
            <Position>
              <LatitudeDegrees>-15.4416326992213726043701171875</LatitudeDegrees>
              <LongitudeDegrees>37.05498131923377513885498046875</LongitudeDegrees>
            </Position>
            <AltitudeMeters>940</AltitudeMeters>
            <DistanceMeters>NAN</DistanceMeters>
          </Trackpoint>
          <Trackpoint>
            <Time>2021-08-03T11:52:37.000Z</Time>
            <Position>
              <LatitudeDegrees>-15.44164971448481082916259765625</LatitudeDegrees>
              <LongitudeDegrees>37.05496841110289096832275390625</LongitudeDegrees>
            </Position>
            <AltitudeMeters>940</AltitudeMeters>
            <DistanceMeters>NAN</DistanceMeters>
          </Trackpoint>
          <Trackpoint>
            <Time>2021-08-03T11:52:38.000Z</Time>
            <Position>
              <LatitudeDegrees>-15.44166211970150470733642578125</LatitudeDegrees>
              <LongitudeDegrees>37.05495533533394336700439453125</LongitudeDegrees>
            </Position>
            <AltitudeMeters>939.79998779296875</AltitudeMeters>
            <DistanceMeters>NAN</DistanceMeters>
          </Trackpoint>
          <Trackpoint>
            <Time>2021-08-03T11:52:43.000Z</Time>
            <Position>
              <LatitudeDegrees>-15.44169791042804718017578125</LatitudeDegrees>
              <LongitudeDegrees>37.0549239031970500946044921875</LongitudeDegrees>
            </Position>
            <AltitudeMeters>938.79998779296875</AltitudeMeters>
            <DistanceMeters>NAN</DistanceMeters>
          </Trackpoint>
          <Trackpoint>
            <Time>2021-08-03T11:52:44.000Z</Time>
            <Position>
              <LatitudeDegrees>-15.4417066276073455810546875</LatitudeDegrees>
              <LongitudeDegrees>37.05491493456065654754638671875</LongitudeDegrees>
            </Position>
            <AltitudeMeters>938.4000244140625</AltitudeMeters>
            <DistanceMeters>NAN</DistanceMeters>
          </Trackpoint>
          <Trackpoint>
            <Time>2021-08-03T11:52:50.000Z</Time>
            <Position>
              <LatitudeDegrees>-15.441777370870113372802734375</LatitudeDegrees>
              <LongitudeDegrees>37.05487889237701892852783203125</LongitudeDegrees>
            </Position>
            <AltitudeMeters>938.5999755859375</AltitudeMeters>
            <DistanceMeters>NAN</DistanceMeters>
          </Trackpoint>
          <Trackpoint>
            <Time>2021-08-03T11:52:53.000Z</Time>
            <Position>
              <LatitudeDegrees>-15.44181517325341701507568359375</LatitudeDegrees>
              <LongitudeDegrees>37.05485860817134380340576171875</LongitudeDegrees>
            </Position>
            <AltitudeMeters>938.79998779296875</AltitudeMeters>
            <DistanceMeters>NAN</DistanceMeters>
          </Trackpoint>
          <Trackpoint>
            <Time>2021-08-03T11:52:57.000Z</Time>
            <Position>
              <LatitudeDegrees>-15.4418553225696086883544921875</LatitudeDegrees>
              <LongitudeDegrees>37.0548260025680065155029296875</LongitudeDegrees>
            </Position>
            <AltitudeMeters>938.20001220703125</AltitudeMeters>
            <DistanceMeters>NAN</DistanceMeters>
          </Trackpoint>
          <Trackpoint>
            <Time>2021-08-03T11:52:59.000Z</Time>
            <Position>
              <LatitudeDegrees>-15.44187015853822231292724609375</LatitudeDegrees>
              <LongitudeDegrees>37.0548119209706783294677734375</LongitudeDegrees>
            </Position>
            <AltitudeMeters>937.20001220703125</AltitudeMeters>
            <DistanceMeters>NAN</DistanceMeters>
          </Trackpoint>
          <Trackpoint>
            <Time>2021-08-03T11:53:02.000Z</Time>
            <Position>
              <LatitudeDegrees>-15.441898405551910400390625</LatitudeDegrees>
              <LongitudeDegrees>37.05479088239371776580810546875</LongitudeDegrees>
            </Position>
            <AltitudeMeters>937</AltitudeMeters>
            <DistanceMeters>NAN</DistanceMeters>
          </Trackpoint>
          <Trackpoint>
            <Time>2021-08-03T11:53:07.000Z</Time>
            <Position>
              <LatitudeDegrees>-15.44194593094289302825927734375</LatitudeDegrees>
              <LongitudeDegrees>37.0547441951930522918701171875</LongitudeDegrees>
            </Position>
            <AltitudeMeters>936.5999755859375</AltitudeMeters>
            <DistanceMeters>NAN</DistanceMeters>
          </Trackpoint>
          <Trackpoint>
            <Time>2021-08-03T11:53:08.000Z</Time>
            <Position>
              <LatitudeDegrees>-15.44195414520800113677978515625</LatitudeDegrees>
              <LongitudeDegrees>37.054737322032451629638671875</LongitudeDegrees>
            </Position>
            <AltitudeMeters>936</AltitudeMeters>
            <DistanceMeters>NAN</DistanceMeters>
          </Trackpoint>
          <Trackpoint>
            <Time>2021-08-03T11:53:20.000Z</Time>
            <Position>
              <LatitudeDegrees>-15.44207266531884670257568359375</LatitudeDegrees>
              <LongitudeDegrees>37.05461905337870121002197265625</LongitudeDegrees>
            </Position>
            <AltitudeMeters>935</AltitudeMeters>
            <DistanceMeters>NAN</DistanceMeters>
          </Trackpoint>
          <Trackpoint>
            <Time>2021-08-03T11:53:25.000Z</Time>
            <Position>
              <LatitudeDegrees>-15.442119352519512176513671875</LatitudeDegrees>
              <LongitudeDegrees>37.0545862801373004913330078125</LongitudeDegrees>
            </Position>
            <AltitudeMeters>933.79998779296875</AltitudeMeters>
            <DistanceMeters>NAN</DistanceMeters>
          </Trackpoint>
          <Trackpoint>
            <Time>2021-08-03T11:53:29.000Z</Time>
            <Position>
              <LatitudeDegrees>-15.44215145520865917205810546875</LatitudeDegrees>
              <LongitudeDegrees>37.05455585382878780364990234375</LongitudeDegrees>
            </Position>
            <AltitudeMeters>933</AltitudeMeters>
            <DistanceMeters>NAN</DistanceMeters>
          </Trackpoint>
          <Trackpoint>
            <Time>2021-08-03T11:53:33.000Z</Time>
            <Position>
              <LatitudeDegrees>-15.44218515045940876007080078125</LatitudeDegrees>
              <LongitudeDegrees>37.0545219071209430694580078125</LongitudeDegrees>
            </Position>
            <AltitudeMeters>933</AltitudeMeters>
            <DistanceMeters>NAN</DistanceMeters>
          </Trackpoint>
          <Trackpoint>
            <Time>2021-08-03T11:53:35.000Z</Time>
            <Position>
              <LatitudeDegrees>-15.442205183207988739013671875</LatitudeDegrees>
              <LongitudeDegrees>37.05449701286852359771728515625</LongitudeDegrees>
            </Position>
            <AltitudeMeters>932.79998779296875</AltitudeMeters>
            <DistanceMeters>NAN</DistanceMeters>
          </Trackpoint>
          <Trackpoint>
            <Time>2021-08-03T11:53:41.000Z</Time>
            <Position>
              <LatitudeDegrees>-15.44226226396858692169189453125</LatitudeDegrees>
              <LongitudeDegrees>37.0544196479022502899169921875</LongitudeDegrees>
            </Position>
            <AltitudeMeters>932.79998779296875</AltitudeMeters>
            <DistanceMeters>NAN</DistanceMeters>
          </Trackpoint>
          <Trackpoint>
            <Time>2021-08-03T11:53:42.000Z</Time>
            <Position>
              <LatitudeDegrees>-15.4422698915004730224609375</LatitudeDegrees>
              <LongitudeDegrees>37.05441067926585674285888671875</LongitudeDegrees>
            </Position>
            <AltitudeMeters>932.79998779296875</AltitudeMeters>
            <DistanceMeters>NAN</DistanceMeters>
          </Trackpoint>
          <Trackpoint>
            <Time>2021-08-03T11:53:48.000Z</Time>
            <Position>
              <LatitudeDegrees>-15.44230836443603038787841796875</LatitudeDegrees>
              <LongitudeDegrees>37.0543690212070941925048828125</LongitudeDegrees>
            </Position>
            <AltitudeMeters>931.79998779296875</AltitudeMeters>
            <DistanceMeters>NAN</DistanceMeters>
          </Trackpoint>
          <Trackpoint>
            <Time>2021-08-03T11:53:50.000Z</Time>
            <Position>
              <LatitudeDegrees>-15.442319847643375396728515625</LatitudeDegrees>
              <LongitudeDegrees>37.05435276031494140625</LongitudeDegrees>
            </Position>
            <AltitudeMeters>930.5999755859375</AltitudeMeters>
            <DistanceMeters>NAN</DistanceMeters>
          </Trackpoint>
          <Trackpoint>
            <Time>2021-08-03T11:53:51.000Z</Time>
            <Position>
              <LatitudeDegrees>-15.44232730753719806671142578125</LatitudeDegrees>
              <LongitudeDegrees>37.05434462986886501312255859375</LongitudeDegrees>
            </Position>
            <AltitudeMeters>930.4000244140625</AltitudeMeters>
            <DistanceMeters>NAN</DistanceMeters>
          </Trackpoint>
          <Trackpoint>
            <Time>2021-08-03T11:53:56.000Z</Time>
            <Position>
              <LatitudeDegrees>-15.44235262088477611541748046875</LatitudeDegrees>
              <LongitudeDegrees>37.05430137924849987030029296875</LongitudeDegrees>
            </Position>
            <AltitudeMeters>929.5999755859375</AltitudeMeters>
            <DistanceMeters>NAN</DistanceMeters>
          </Trackpoint>
          <Trackpoint>
            <Time>2021-08-03T11:54:00.000Z</Time>
            <Position>
              <LatitudeDegrees>-15.44236184097826480865478515625</LatitudeDegrees>
              <LongitudeDegrees>37.0542540214955806732177734375</LongitudeDegrees>
            </Position>
            <AltitudeMeters>928.5999755859375</AltitudeMeters>
            <DistanceMeters>NAN</DistanceMeters>
          </Trackpoint>
          <Trackpoint>
            <Time>2021-08-03T11:54:01.000Z</Time>
            <Position>
              <LatitudeDegrees>-15.4423656128346920013427734375</LatitudeDegrees>
              <LongitudeDegrees>37.05424077808856964111328125</LongitudeDegrees>
            </Position>
            <AltitudeMeters>928.4000244140625</AltitudeMeters>
            <DistanceMeters>NAN</DistanceMeters>
          </Trackpoint>
          <Trackpoint>
            <Time>2021-08-03T11:54:07.000Z</Time>
            <Position>
              <LatitudeDegrees>-15.4424004815518856048583984375</LatitudeDegrees>
              <LongitudeDegrees>37.0541433803737163543701171875</LongitudeDegrees>
            </Position>
            <AltitudeMeters>928.4000244140625</AltitudeMeters>
            <DistanceMeters>NAN</DistanceMeters>
          </Trackpoint>
          <Trackpoint>
            <Time>2021-08-03T11:54:12.000Z</Time>
            <Position>
              <LatitudeDegrees>-15.44241766445338726043701171875</LatitudeDegrees>
              <LongitudeDegrees>37.0540870539844036102294921875</LongitudeDegrees>
            </Position>
            <AltitudeMeters>927.4000244140625</AltitudeMeters>
            <DistanceMeters>NAN</DistanceMeters>
          </Trackpoint>
          <Trackpoint>
            <Time>2021-08-03T11:54:14.000Z</Time>
            <Position>
              <LatitudeDegrees>-15.4424232803285121917724609375</LatitudeDegrees>
              <LongitudeDegrees>37.054067440330982208251953125</LongitudeDegrees>
            </Position>
            <AltitudeMeters>927.20001220703125</AltitudeMeters>
            <DistanceMeters>NAN</DistanceMeters>
          </Trackpoint>
          <Trackpoint>
            <Time>2021-08-03T11:54:25.000Z</Time>
            <Position>
              <LatitudeDegrees>-15.4424370266497135162353515625</LatitudeDegrees>
              <LongitudeDegrees>37.053929977118968963623046875</LongitudeDegrees>
            </Position>
            <AltitudeMeters>926.5999755859375</AltitudeMeters>
            <DistanceMeters>NAN</DistanceMeters>
          </Trackpoint>
          <Trackpoint>
            <Time>2021-08-03T11:54:36.000Z</Time>
            <Position>
              <LatitudeDegrees>-15.4424335062503814697265625</LatitudeDegrees>
              <LongitudeDegrees>37.05380349420011043548583984375</LongitudeDegrees>
            </Position>
            <AltitudeMeters>926.5999755859375</AltitudeMeters>
            <DistanceMeters>NAN</DistanceMeters>
          </Trackpoint>
          <Trackpoint>
            <Time>2021-08-03T11:54:40.000Z</Time>
            <Position>
              <LatitudeDegrees>-15.44242571108043193817138671875</LatitudeDegrees>
              <LongitudeDegrees>37.0537551306188106536865234375</LongitudeDegrees>
            </Position>
            <AltitudeMeters>926.5999755859375</AltitudeMeters>
            <DistanceMeters>NAN</DistanceMeters>
          </Trackpoint>
          <Trackpoint>
            <Time>2021-08-03T11:54:42.000Z</Time>
            <Position>
              <LatitudeDegrees>-15.442425794899463653564453125</LatitudeDegrees>
              <LongitudeDegrees>37.0537346787750720977783203125</LongitudeDegrees>
            </Position>
            <AltitudeMeters>926</AltitudeMeters>
            <DistanceMeters>NAN</DistanceMeters>
          </Trackpoint>
          <Trackpoint>
            <Time>2021-08-03T11:54:44.000Z</Time>
            <Position>
              <LatitudeDegrees>-15.44242973439395427703857421875</LatitudeDegrees>
              <LongitudeDegrees>37.0537125505506992340087890625</LongitudeDegrees>
            </Position>
            <AltitudeMeters>925.79998779296875</AltitudeMeters>
            <DistanceMeters>NAN</DistanceMeters>
          </Trackpoint>
          <Trackpoint>
            <Time>2021-08-03T11:54:46.000Z</Time>
            <Position>
              <LatitudeDegrees>-15.4424309916794300079345703125</LatitudeDegrees>
              <LongitudeDegrees>37.0536900870501995086669921875</LongitudeDegrees>
            </Position>
            <AltitudeMeters>925.5999755859375</AltitudeMeters>
            <DistanceMeters>NAN</DistanceMeters>
          </Trackpoint>
          <Trackpoint>
            <Time>2021-08-03T11:54:52.000Z</Time>
            <Position>
              <LatitudeDegrees>-15.442446582019329071044921875</LatitudeDegrees>
              <LongitudeDegrees>37.0536277256906032562255859375</LongitudeDegrees>
            </Position>
            <AltitudeMeters>925.5999755859375</AltitudeMeters>
            <DistanceMeters>NAN</DistanceMeters>
          </Trackpoint>
          <Trackpoint>
            <Time>2021-08-03T11:54:59.000Z</Time>
            <Position>
              <LatitudeDegrees>-15.44251623563468456268310546875</LatitudeDegrees>
              <LongitudeDegrees>37.05358053557574748992919921875</LongitudeDegrees>
            </Position>
            <AltitudeMeters>925.4000244140625</AltitudeMeters>
            <DistanceMeters>NAN</DistanceMeters>
          </Trackpoint>
          <Trackpoint>
            <Time>2021-08-03T11:55:05.000Z</Time>
            <Position>
              <LatitudeDegrees>-15.44257993809878826141357421875</LatitudeDegrees>
              <LongitudeDegrees>37.05357366241514682769775390625</LongitudeDegrees>
            </Position>
            <AltitudeMeters>925.20001220703125</AltitudeMeters>
            <DistanceMeters>NAN</DistanceMeters>
          </Trackpoint>
          <Trackpoint>
            <Time>2021-08-03T11:55:07.000Z</Time>
            <Position>
              <LatitudeDegrees>-15.44259217567741870880126953125</LatitudeDegrees>
              <LongitudeDegrees>37.0535734109580516815185546875</LongitudeDegrees>
            </Position>
            <AltitudeMeters>925</AltitudeMeters>
            <DistanceMeters>NAN</DistanceMeters>
          </Trackpoint>
          <Trackpoint>
            <Time>2021-08-03T11:55:08.000Z</Time>
            <Position>
              <LatitudeDegrees>-15.44260106049478054046630859375</LatitudeDegrees>
              <LongitudeDegrees>37.053575254976749420166015625</LongitudeDegrees>
            </Position>
            <AltitudeMeters>925</AltitudeMeters>
            <DistanceMeters>NAN</DistanceMeters>
          </Trackpoint>
          <Trackpoint>
            <Time>2021-08-03T11:55:10.000Z</Time>
            <Position>
              <LatitudeDegrees>-15.442626960575580596923828125</LatitudeDegrees>
              <LongitudeDegrees>37.05357902683317661285400390625</LongitudeDegrees>
            </Position>
            <AltitudeMeters>924.4000244140625</AltitudeMeters>
            <DistanceMeters>NAN</DistanceMeters>
          </Trackpoint>
          <Trackpoint>
            <Time>2021-08-03T11:55:15.000Z</Time>
            <Position>
              <LatitudeDegrees>-15.4426623322069644927978515625</LatitudeDegrees>
              <LongitudeDegrees>37.0536124706268310546875</LongitudeDegrees>
            </Position>
            <AltitudeMeters>923.79998779296875</AltitudeMeters>
            <DistanceMeters>NAN</DistanceMeters>
          </Trackpoint>
          <Trackpoint>
            <Time>2021-08-03T11:55:17.000Z</Time>
            <Position>
              <LatitudeDegrees>-15.4426787607371807098388671875</LatitudeDegrees>
              <LongitudeDegrees>37.05362412147223949432373046875</LongitudeDegrees>
            </Position>
            <AltitudeMeters>923.4000244140625</AltitudeMeters>
            <DistanceMeters>NAN</DistanceMeters>
          </Trackpoint>
          <Trackpoint>
            <Time>2021-08-03T11:55:18.000Z</Time>
            <Position>
              <LatitudeDegrees>-15.4426858015358448028564453125</LatitudeDegrees>
              <LongitudeDegrees>37.05363049171864986419677734375</LongitudeDegrees>
            </Position>
            <AltitudeMeters>923.4000244140625</AltitudeMeters>
            <DistanceMeters>NAN</DistanceMeters>
          </Trackpoint>
          <Trackpoint>
            <Time>2021-08-03T11:55:23.000Z</Time>
            <Position>
              <LatitudeDegrees>-15.44272159226238727569580078125</LatitudeDegrees>
              <LongitudeDegrees>37.05367810092866420745849609375</LongitudeDegrees>
            </Position>
            <AltitudeMeters>922.5999755859375</AltitudeMeters>
            <DistanceMeters>NAN</DistanceMeters>
          </Trackpoint>
          <Trackpoint>
            <Time>2021-08-03T11:55:28.000Z</Time>
            <Position>
              <LatitudeDegrees>-15.44274288229644298553466796875</LatitudeDegrees>
              <LongitudeDegrees>37.05373518168926239013671875</LongitudeDegrees>
            </Position>
            <AltitudeMeters>921.79998779296875</AltitudeMeters>
            <DistanceMeters>NAN</DistanceMeters>
          </Trackpoint>
          <Trackpoint>
            <Time>2021-08-03T11:55:30.000Z</Time>
            <Position>
              <LatitudeDegrees>-15.44275629334151744842529296875</LatitudeDegrees>
              <LongitudeDegrees>37.05375739373266696929931640625</LongitudeDegrees>
            </Position>
            <AltitudeMeters>921.5999755859375</AltitudeMeters>
            <DistanceMeters>NAN</DistanceMeters>
          </Trackpoint>
          <Trackpoint>
            <Time>2021-08-03T11:55:35.000Z</Time>
            <Position>
              <LatitudeDegrees>-15.4427733086049556732177734375</LatitudeDegrees>
              <LongitudeDegrees>37.05380986444652080535888671875</LongitudeDegrees>
            </Position>
            <AltitudeMeters>921.4000244140625</AltitudeMeters>
            <DistanceMeters>NAN</DistanceMeters>
          </Trackpoint>
          <Trackpoint>
            <Time>2021-08-03T11:55:39.000Z</Time>
            <Position>
              <LatitudeDegrees>-15.44278244487941265106201171875</LatitudeDegrees>
              <LongitudeDegrees>37.0538520254194736480712890625</LongitudeDegrees>
            </Position>
            <AltitudeMeters>920.5999755859375</AltitudeMeters>
            <DistanceMeters>NAN</DistanceMeters>
          </Trackpoint>
          <Trackpoint>
            <Time>2021-08-03T11:55:43.000Z</Time>
            <Position>
              <LatitudeDegrees>-15.4427883960306644439697265625</LatitudeDegrees>
              <LongitudeDegrees>37.05389385111629962921142578125</LongitudeDegrees>
            </Position>
            <AltitudeMeters>920.4000244140625</AltitudeMeters>
            <DistanceMeters>NAN</DistanceMeters>
          </Trackpoint>
          <Trackpoint>
            <Time>2021-08-03T11:55:44.000Z</Time>
            <Position>
              <LatitudeDegrees>-15.44279065914452075958251953125</LatitudeDegrees>
              <LongitudeDegrees>37.05390684306621551513671875</LongitudeDegrees>
            </Position>
            <AltitudeMeters>920.20001220703125</AltitudeMeters>
            <DistanceMeters>NAN</DistanceMeters>
          </Trackpoint>
          <Trackpoint>
            <Time>2021-08-03T11:55:50.000Z</Time>
            <Position>
              <LatitudeDegrees>-15.44278898276388645172119140625</LatitudeDegrees>
              <LongitudeDegrees>37.05397163517773151397705078125</LongitudeDegrees>
            </Position>
            <AltitudeMeters>919.20001220703125</AltitudeMeters>
            <DistanceMeters>NAN</DistanceMeters>
          </Trackpoint>
          <Trackpoint>
            <Time>2021-08-03T11:55:55.000Z</Time>
            <Position>
              <LatitudeDegrees>-15.442797280848026275634765625</LatitudeDegrees>
              <LongitudeDegrees>37.05403290688991546630859375</LongitudeDegrees>
            </Position>
            <AltitudeMeters>918.79998779296875</AltitudeMeters>
            <DistanceMeters>NAN</DistanceMeters>
          </Trackpoint>
          <Trackpoint>
            <Time>2021-08-03T11:56:00.000Z</Time>
            <Position>
              <LatitudeDegrees>-15.4427956044673919677734375</LatitudeDegrees>
              <LongitudeDegrees>37.0541059970855712890625</LongitudeDegrees>
            </Position>
            <AltitudeMeters>918.20001220703125</AltitudeMeters>
            <DistanceMeters>NAN</DistanceMeters>
          </Trackpoint>
          <Trackpoint>
            <Time>2021-08-03T11:56:03.000Z</Time>
            <Position>
              <LatitudeDegrees>-15.44279602356255054473876953125</LatitudeDegrees>
              <LongitudeDegrees>37.05414882861077785491943359375</LongitudeDegrees>
            </Position>
            <AltitudeMeters>917.5999755859375</AltitudeMeters>
            <DistanceMeters>NAN</DistanceMeters>
          </Trackpoint>
          <Trackpoint>
            <Time>2021-08-03T11:56:11.000Z</Time>
            <Position>
              <LatitudeDegrees>-15.44282670132815837860107421875</LatitudeDegrees>
              <LongitudeDegrees>37.054239101707935333251953125</LongitudeDegrees>
            </Position>
            <AltitudeMeters>917</AltitudeMeters>
            <DistanceMeters>NAN</DistanceMeters>
          </Trackpoint>
          <Trackpoint>
            <Time>2021-08-03T11:56:16.000Z</Time>
            <Position>
              <LatitudeDegrees>-15.4428698681294918060302734375</LatitudeDegrees>
              <LongitudeDegrees>37.054287381470203399658203125</LongitudeDegrees>
            </Position>
            <AltitudeMeters>915.79998779296875</AltitudeMeters>
            <DistanceMeters>NAN</DistanceMeters>
          </Trackpoint>
          <Trackpoint>
            <Time>2021-08-03T11:56:19.000Z</Time>
            <Position>
              <LatitudeDegrees>-15.4428980313241481781005859375</LatitudeDegrees>
              <LongitudeDegrees>37.054301463067531585693359375</LongitudeDegrees>
            </Position>
            <AltitudeMeters>915.20001220703125</AltitudeMeters>
            <DistanceMeters>NAN</DistanceMeters>
          </Trackpoint>
          <Trackpoint>
            <Time>2021-08-03T11:56:20.000Z</Time>
            <Position>
              <LatitudeDegrees>-15.4429124481976032257080078125</LatitudeDegrees>
              <LongitudeDegrees>37.05430448055267333984375</LongitudeDegrees>
            </Position>
            <AltitudeMeters>915</AltitudeMeters>
            <DistanceMeters>NAN</DistanceMeters>
          </Trackpoint>
          <Trackpoint>
            <Time>2021-08-03T11:56:21.000Z</Time>
            <Position>
              <LatitudeDegrees>-15.44292611069977283477783203125</LatitudeDegrees>
              <LongitudeDegrees>37.05430774949491024017333984375</LongitudeDegrees>
            </Position>
            <AltitudeMeters>914.5999755859375</AltitudeMeters>
            <DistanceMeters>NAN</DistanceMeters>
          </Trackpoint>
          <Trackpoint>
            <Time>2021-08-03T11:56:26.000Z</Time>
            <Position>
              <LatitudeDegrees>-15.44299081899225711822509765625</LatitudeDegrees>
              <LongitudeDegrees>37.05430246889591217041015625</LongitudeDegrees>
            </Position>
            <AltitudeMeters>913.5999755859375</AltitudeMeters>
            <DistanceMeters>NAN</DistanceMeters>
          </Trackpoint>
          <Trackpoint>
            <Time>2021-08-03T11:56:28.000Z</Time>
            <Position>
              <LatitudeDegrees>-15.4430133663117885589599609375</LatitudeDegrees>
              <LongitudeDegrees>37.054288722574710845947265625</LongitudeDegrees>
            </Position>
            <AltitudeMeters>913</AltitudeMeters>
            <DistanceMeters>NAN</DistanceMeters>
          </Trackpoint>
          <Trackpoint>
            <Time>2021-08-03T11:56:32.000Z</Time>
            <Position>
              <LatitudeDegrees>-15.4430468939244747161865234375</LatitudeDegrees>
              <LongitudeDegrees>37.054252512753009796142578125</LongitudeDegrees>
            </Position>
            <AltitudeMeters>912.4000244140625</AltitudeMeters>
            <DistanceMeters>NAN</DistanceMeters>
          </Trackpoint>
          <Trackpoint>
            <Time>2021-08-03T11:56:37.000Z</Time>
            <Position>
              <LatitudeDegrees>-15.44308771379292011260986328125</LatitudeDegrees>
              <LongitudeDegrees>37.0541950128972530364990234375</LongitudeDegrees>
            </Position>
            <AltitudeMeters>911.5999755859375</AltitudeMeters>
            <DistanceMeters>NAN</DistanceMeters>
          </Trackpoint>
          <Trackpoint>
            <Time>2021-08-03T11:56:39.000Z</Time>
            <Position>
              <LatitudeDegrees>-15.44310028664767742156982421875</LatitudeDegrees>
              <LongitudeDegrees>37.05416835844516754150390625</LongitudeDegrees>
            </Position>
            <AltitudeMeters>911</AltitudeMeters>
            <DistanceMeters>NAN</DistanceMeters>
          </Trackpoint>
          <Trackpoint>
            <Time>2021-08-03T11:56:46.000Z</Time>
            <Position>
              <LatitudeDegrees>-15.443129204213619232177734375</LatitudeDegrees>
              <LongitudeDegrees>37.0540917478501796722412109375</LongitudeDegrees>
            </Position>
            <AltitudeMeters>910</AltitudeMeters>
            <DistanceMeters>NAN</DistanceMeters>
          </Trackpoint>
          <Trackpoint>
            <Time>2021-08-03T11:56:47.000Z</Time>
            <Position>
              <LatitudeDegrees>-15.44313599355518817901611328125</LatitudeDegrees>
              <LongitudeDegrees>37.05407825298607349395751953125</LongitudeDegrees>
            </Position>
            <AltitudeMeters>909.79998779296875</AltitudeMeters>
            <DistanceMeters>NAN</DistanceMeters>
          </Trackpoint>
          <Trackpoint>
            <Time>2021-08-03T11:56:48.000Z</Time>
            <Position>
              <LatitudeDegrees>-15.4431417770683765411376953125</LatitudeDegrees>
              <LongitudeDegrees>37.0540686137974262237548828125</LongitudeDegrees>
            </Position>
            <AltitudeMeters>909.5999755859375</AltitudeMeters>
            <DistanceMeters>NAN</DistanceMeters>
          </Trackpoint>
          <Trackpoint>
            <Time>2021-08-03T11:56:51.000Z</Time>
            <Position>
              <LatitudeDegrees>-15.44316113926470279693603515625</LatitudeDegrees>
              <LongitudeDegrees>37.054037936031818389892578125</LongitudeDegrees>
            </Position>
            <AltitudeMeters>908.4000244140625</AltitudeMeters>
            <DistanceMeters>NAN</DistanceMeters>
          </Trackpoint>
          <Trackpoint>
            <Time>2021-08-03T11:56:56.000Z</Time>
            <Position>
              <LatitudeDegrees>-15.44318385422229766845703125</LatitudeDegrees>
              <LongitudeDegrees>37.05398387275636196136474609375</LongitudeDegrees>
            </Position>
            <AltitudeMeters>908</AltitudeMeters>
            <DistanceMeters>NAN</DistanceMeters>
          </Trackpoint>
          <Trackpoint>
            <Time>2021-08-03T11:57:01.000Z</Time>
            <Position>
              <LatitudeDegrees>-15.443214364349842071533203125</LatitudeDegrees>
              <LongitudeDegrees>37.05392561852931976318359375</LongitudeDegrees>
            </Position>
            <AltitudeMeters>907.4000244140625</AltitudeMeters>
            <DistanceMeters>NAN</DistanceMeters>
          </Trackpoint>
          <Trackpoint>
            <Time>2021-08-03T11:57:02.000Z</Time>
            <Position>
              <LatitudeDegrees>-15.443223081529140472412109375</LatitudeDegrees>
              <LongitudeDegrees>37.05391396768391132354736328125</LongitudeDegrees>
            </Position>
            <AltitudeMeters>907.4000244140625</AltitudeMeters>
            <DistanceMeters>NAN</DistanceMeters>
          </Trackpoint>
          <Trackpoint>
            <Time>2021-08-03T11:57:05.000Z</Time>
            <Position>
              <LatitudeDegrees>-15.44323992915451526641845703125</LatitudeDegrees>
              <LongitudeDegrees>37.05388178117573261260986328125</LongitudeDegrees>
            </Position>
            <AltitudeMeters>906.79998779296875</AltitudeMeters>
            <DistanceMeters>NAN</DistanceMeters>
          </Trackpoint>
          <Trackpoint>
            <Time>2021-08-03T11:57:08.000Z</Time>
            <Position>
              <LatitudeDegrees>-15.443259291350841522216796875</LatitudeDegrees>
              <LongitudeDegrees>37.053844816982746124267578125</LongitudeDegrees>
            </Position>
            <AltitudeMeters>906</AltitudeMeters>
            <DistanceMeters>NAN</DistanceMeters>
          </Trackpoint>
          <Trackpoint>
            <Time>2021-08-03T11:57:12.000Z</Time>
            <Position>
              <LatitudeDegrees>-15.44329927302896976470947265625</LatitudeDegrees>
              <LongitudeDegrees>37.05379477702081203460693359375</LongitudeDegrees>
            </Position>
            <AltitudeMeters>905.5999755859375</AltitudeMeters>
            <DistanceMeters>NAN</DistanceMeters>
          </Trackpoint>
          <Trackpoint>
            <Time>2021-08-03T11:57:15.000Z</Time>
            <Position>
              <LatitudeDegrees>-15.4433328844606876373291015625</LatitudeDegrees>
              <LongitudeDegrees>37.0537532866001129150390625</LongitudeDegrees>
            </Position>
            <AltitudeMeters>905.20001220703125</AltitudeMeters>
            <DistanceMeters>NAN</DistanceMeters>
          </Trackpoint>
          <Trackpoint>
            <Time>2021-08-03T11:57:16.000Z</Time>
            <Position>
              <LatitudeDegrees>-15.44334453530609607696533203125</LatitudeDegrees>
              <LongitudeDegrees>37.05374163575470447540283203125</LongitudeDegrees>
            </Position>
            <AltitudeMeters>904.79998779296875</AltitudeMeters>
            <DistanceMeters>NAN</DistanceMeters>
          </Trackpoint>
          <Trackpoint>
            <Time>2021-08-03T11:57:20.000Z</Time>
            <Position>
              <LatitudeDegrees>-15.4433731175959110260009765625</LatitudeDegrees>
              <LongitudeDegrees>37.0537065155804157257080078125</LongitudeDegrees>
            </Position>
            <AltitudeMeters>904.20001220703125</AltitudeMeters>
            <DistanceMeters>NAN</DistanceMeters>
          </Trackpoint>
          <Trackpoint>
            <Time>2021-08-03T11:57:21.000Z</Time>
            <Position>
              <LatitudeDegrees>-15.44337571598589420318603515625</LatitudeDegrees>
              <LongitudeDegrees>37.05369704402983188629150390625</LongitudeDegrees>
            </Position>
            <AltitudeMeters>904.20001220703125</AltitudeMeters>
            <DistanceMeters>NAN</DistanceMeters>
          </Trackpoint>
          <Trackpoint>
            <Time>2021-08-03T11:57:24.000Z</Time>
            <Position>
              <LatitudeDegrees>-15.44339801184833049774169921875</LatitudeDegrees>
              <LongitudeDegrees>37.05367390997707843780517578125</LongitudeDegrees>
            </Position>
            <AltitudeMeters>903.5999755859375</AltitudeMeters>
            <DistanceMeters>NAN</DistanceMeters>
          </Trackpoint>
          <Trackpoint>
            <Time>2021-08-03T11:57:30.000Z</Time>
            <Position>
              <LatitudeDegrees>-15.44344746507704257965087890625</LatitudeDegrees>
              <LongitudeDegrees>37.0536280609667301177978515625</LongitudeDegrees>
            </Position>
            <AltitudeMeters>902.5999755859375</AltitudeMeters>
            <DistanceMeters>NAN</DistanceMeters>
          </Trackpoint>
          <Trackpoint>
            <Time>2021-08-03T11:57:31.000Z</Time>
            <Position>
              <LatitudeDegrees>-15.4434458725154399871826171875</LatitudeDegrees>
              <LongitudeDegrees>37.053626216948032379150390625</LongitudeDegrees>
            </Position>
            <AltitudeMeters>902.5999755859375</AltitudeMeters>
            <DistanceMeters>NAN</DistanceMeters>
          </Trackpoint>
          <Trackpoint>
            <Time>2021-08-03T11:57:32.000Z</Time>
            <Position>
              <LatitudeDegrees>-15.443461127579212188720703125</LatitudeDegrees>
              <LongitudeDegrees>37.05361322499811649322509765625</LongitudeDegrees>
            </Position>
            <AltitudeMeters>902.4000244140625</AltitudeMeters>
            <DistanceMeters>NAN</DistanceMeters>
          </Trackpoint>
          <Trackpoint>
            <Time>2021-08-03T11:57:33.000Z</Time>
            <Position>
              <LatitudeDegrees>-15.443473868072032928466796875</LatitudeDegrees>
              <LongitudeDegrees>37.0536042563617229461669921875</LongitudeDegrees>
            </Position>
            <AltitudeMeters>902</AltitudeMeters>
            <DistanceMeters>NAN</DistanceMeters>
          </Trackpoint>
          <Trackpoint>
            <Time>2021-08-03T11:57:35.000Z</Time>
            <Position>
              <LatitudeDegrees>-15.44349842704832553863525390625</LatitudeDegrees>
              <LongitudeDegrees>37.05358975566923618316650390625</LongitudeDegrees>
            </Position>
            <AltitudeMeters>901.79998779296875</AltitudeMeters>
            <DistanceMeters>NAN</DistanceMeters>
          </Trackpoint>
          <Trackpoint>
            <Time>2021-08-03T11:57:37.000Z</Time>
            <Position>
              <LatitudeDegrees>-15.44350395910441875457763671875</LatitudeDegrees>
              <LongitudeDegrees>37.05358372069895267486572265625</LongitudeDegrees>
            </Position>
            <AltitudeMeters>900.79998779296875</AltitudeMeters>
            <DistanceMeters>NAN</DistanceMeters>
          </Trackpoint>
          <Trackpoint>
            <Time>2021-08-03T11:57:43.000Z</Time>
            <Position>
              <LatitudeDegrees>-15.443557687103748321533203125</LatitudeDegrees>
              <LongitudeDegrees>37.05352907069027423858642578125</LongitudeDegrees>
            </Position>
            <AltitudeMeters>900.5999755859375</AltitudeMeters>
            <DistanceMeters>NAN</DistanceMeters>
          </Trackpoint>
          <Trackpoint>
            <Time>2021-08-03T11:57:50.000Z</Time>
            <Position>
              <LatitudeDegrees>-15.44361191801726818084716796875</LatitudeDegrees>
              <LongitudeDegrees>37.05345815978944301605224609375</LongitudeDegrees>
            </Position>
            <AltitudeMeters>899.5999755859375</AltitudeMeters>
            <DistanceMeters>NAN</DistanceMeters>
          </Trackpoint>
          <Trackpoint>
            <Time>2021-08-03T11:57:53.000Z</Time>
            <Position>
              <LatitudeDegrees>-15.4436289332807064056396484375</LatitudeDegrees>
              <LongitudeDegrees>37.05342538654804229736328125</LongitudeDegrees>
            </Position>
            <AltitudeMeters>899</AltitudeMeters>
            <DistanceMeters>NAN</DistanceMeters>
          </Trackpoint>
          <Trackpoint>
            <Time>2021-08-03T11:57:56.000Z</Time>
            <Position>
              <LatitudeDegrees>-15.443648882210254669189453125</LatitudeDegrees>
              <LongitudeDegrees>37.05339630134403705596923828125</LongitudeDegrees>
            </Position>
            <AltitudeMeters>898.5999755859375</AltitudeMeters>
            <DistanceMeters>NAN</DistanceMeters>
          </Trackpoint>
          <Trackpoint>
            <Time>2021-08-03T11:58:00.000Z</Time>
            <Position>
              <LatitudeDegrees>-15.4436725191771984100341796875</LatitudeDegrees>
              <LongitudeDegrees>37.05334919504821300506591796875</LongitudeDegrees>
            </Position>
            <AltitudeMeters>897.4000244140625</AltitudeMeters>
            <DistanceMeters>NAN</DistanceMeters>
          </Trackpoint>
          <Trackpoint>
            <Time>2021-08-03T11:58:02.000Z</Time>
            <Position>
              <LatitudeDegrees>-15.44368215836584568023681640625</LatitudeDegrees>
              <LongitudeDegrees>37.05333058722317218780517578125</LongitudeDegrees>
            </Position>
            <AltitudeMeters>897</AltitudeMeters>
            <DistanceMeters>NAN</DistanceMeters>
          </Trackpoint>
          <Trackpoint>
            <Time>2021-08-03T11:58:06.000Z</Time>
            <Position>
              <LatitudeDegrees>-15.4437187872827053070068359375</LatitudeDegrees>
              <LongitudeDegrees>37.05329152755439281463623046875</LongitudeDegrees>
            </Position>
            <AltitudeMeters>896.4000244140625</AltitudeMeters>
            <DistanceMeters>NAN</DistanceMeters>
          </Trackpoint>
          <Trackpoint>
            <Time>2021-08-03T11:58:09.000Z</Time>
            <Position>
              <LatitudeDegrees>-15.44372926466166973114013671875</LatitudeDegrees>
              <LongitudeDegrees>37.0532579161226749420166015625</LongitudeDegrees>
            </Position>
            <AltitudeMeters>895.20001220703125</AltitudeMeters>
            <DistanceMeters>NAN</DistanceMeters>
          </Trackpoint>
          <Trackpoint>
            <Time>2021-08-03T11:58:12.000Z</Time>
            <Position>
              <LatitudeDegrees>-15.4437435977160930633544921875</LatitudeDegrees>
              <LongitudeDegrees>37.0532230474054813385009765625</LongitudeDegrees>
            </Position>
            <AltitudeMeters>895</AltitudeMeters>
            <DistanceMeters>NAN</DistanceMeters>
          </Trackpoint>
          <Trackpoint>
            <Time>2021-08-03T11:58:19.000Z</Time>
            <Position>
              <LatitudeDegrees>-15.44377922080457210540771484375</LatitudeDegrees>
              <LongitudeDegrees>37.0531449280679225921630859375</LongitudeDegrees>
            </Position>
            <AltitudeMeters>894.4000244140625</AltitudeMeters>
            <DistanceMeters>NAN</DistanceMeters>
          </Trackpoint>
          <Trackpoint>
            <Time>2021-08-03T11:58:20.000Z</Time>
            <Position>
              <LatitudeDegrees>-15.44378466904163360595703125</LatitudeDegrees>
              <LongitudeDegrees>37.053134031593799591064453125</LongitudeDegrees>
            </Position>
            <AltitudeMeters>894</AltitudeMeters>
            <DistanceMeters>NAN</DistanceMeters>
          </Trackpoint>
          <Trackpoint>
            <Time>2021-08-03T11:58:22.000Z</Time>
            <Position>
              <LatitudeDegrees>-15.44379196129739284515380859375</LatitudeDegrees>
              <LongitudeDegrees>37.0531160943210124969482421875</LongitudeDegrees>
            </Position>
            <AltitudeMeters>893.5999755859375</AltitudeMeters>
            <DistanceMeters>NAN</DistanceMeters>
          </Trackpoint>
          <Trackpoint>
            <Time>2021-08-03T11:58:30.000Z</Time>
            <Position>
              <LatitudeDegrees>-15.4438228905200958251953125</LatitudeDegrees>
              <LongitudeDegrees>37.0530248992145061492919921875</LongitudeDegrees>
            </Position>
            <AltitudeMeters>892.79998779296875</AltitudeMeters>
            <DistanceMeters>NAN</DistanceMeters>
          </Trackpoint>
          <Trackpoint>
            <Time>2021-08-03T11:58:31.000Z</Time>
            <Position>
              <LatitudeDegrees>-15.44382984749972820281982421875</LatitudeDegrees>
              <LongitudeDegrees>37.0530168525874614715576171875</LongitudeDegrees>
            </Position>
            <AltitudeMeters>892.79998779296875</AltitudeMeters>
            <DistanceMeters>NAN</DistanceMeters>
          </Trackpoint>
          <Trackpoint>
            <Time>2021-08-03T11:58:32.000Z</Time>
            <Position>
              <LatitudeDegrees>-15.443836636841297149658203125</LatitudeDegrees>
              <LongitudeDegrees>37.05300218425691127777099609375</LongitudeDegrees>
            </Position>
            <AltitudeMeters>891.5999755859375</AltitudeMeters>
            <DistanceMeters>NAN</DistanceMeters>
          </Trackpoint>
          <Trackpoint>
            <Time>2021-08-03T11:58:39.000Z</Time>
            <Position>
              <LatitudeDegrees>-15.4438803903758525848388671875</LatitudeDegrees>
              <LongitudeDegrees>37.05292020924389362335205078125</LongitudeDegrees>
            </Position>
            <AltitudeMeters>890.5999755859375</AltitudeMeters>
            <DistanceMeters>NAN</DistanceMeters>
          </Trackpoint>
          <Trackpoint>
            <Time>2021-08-03T11:58:40.000Z</Time>
            <Position>
              <LatitudeDegrees>-15.4438860900700092315673828125</LatitudeDegrees>
              <LongitudeDegrees>37.05290612764656543731689453125</LongitudeDegrees>
            </Position>
            <AltitudeMeters>890.5999755859375</AltitudeMeters>
            <DistanceMeters>NAN</DistanceMeters>
          </Trackpoint>
          <Trackpoint>
            <Time>2021-08-03T11:58:41.000Z</Time>
            <Position>
              <LatitudeDegrees>-15.44389086775481700897216796875</LatitudeDegrees>
              <LongitudeDegrees>37.05289137549698352813720703125</LongitudeDegrees>
            </Position>
            <AltitudeMeters>890.20001220703125</AltitudeMeters>
            <DistanceMeters>NAN</DistanceMeters>
          </Trackpoint>
          <Trackpoint>
            <Time>2021-08-03T11:58:46.000Z</Time>
            <Position>
              <LatitudeDegrees>-15.44389924965798854827880859375</LatitudeDegrees>
              <LongitudeDegrees>37.052836976945400238037109375</LongitudeDegrees>
            </Position>
            <AltitudeMeters>889.5999755859375</AltitudeMeters>
            <DistanceMeters>NAN</DistanceMeters>
          </Trackpoint>
          <Trackpoint>
            <Time>2021-08-03T11:58:50.000Z</Time>
            <Position>
              <LatitudeDegrees>-15.4438953101634979248046875</LatitudeDegrees>
              <LongitudeDegrees>37.052797414362430572509765625</LongitudeDegrees>
            </Position>
            <AltitudeMeters>888.79998779296875</AltitudeMeters>
            <DistanceMeters>NAN</DistanceMeters>
          </Trackpoint>
          <Trackpoint>
            <Time>2021-08-03T11:58:52.000Z</Time>
            <Position>
              <LatitudeDegrees>-15.443904362618923187255859375</LatitudeDegrees>
              <LongitudeDegrees>37.05277034081518650054931640625</LongitudeDegrees>
            </Position>
            <AltitudeMeters>888.4000244140625</AltitudeMeters>
            <DistanceMeters>NAN</DistanceMeters>
          </Trackpoint>
          <Trackpoint>
            <Time>2021-08-03T11:58:56.000Z</Time>
            <Position>
              <LatitudeDegrees>-15.44391618110239505767822265625</LatitudeDegrees>
              <LongitudeDegrees>37.05271971412003040313720703125</LongitudeDegrees>
            </Position>
            <AltitudeMeters>887.79998779296875</AltitudeMeters>
            <DistanceMeters>NAN</DistanceMeters>
          </Trackpoint>
          <Trackpoint>
            <Time>2021-08-03T11:58:59.000Z</Time>
            <Position>
              <LatitudeDegrees>-15.44393696822226047515869140625</LatitudeDegrees>
              <LongitudeDegrees>37.0526731945574283599853515625</LongitudeDegrees>
            </Position>
            <AltitudeMeters>887.4000244140625</AltitudeMeters>
            <DistanceMeters>NAN</DistanceMeters>
          </Trackpoint>
          <Trackpoint>
            <Time>2021-08-03T11:59:04.000Z</Time>
            <Position>
              <LatitudeDegrees>-15.443944595754146575927734375</LatitudeDegrees>
              <LongitudeDegrees>37.052607648074626922607421875</LongitudeDegrees>
            </Position>
            <AltitudeMeters>886.20001220703125</AltitudeMeters>
            <DistanceMeters>NAN</DistanceMeters>
          </Trackpoint>
          <Trackpoint>
            <Time>2021-08-03T11:59:07.000Z</Time>
            <Position>
              <LatitudeDegrees>-15.44394099153578281402587890625</LatitudeDegrees>
              <LongitudeDegrees>37.05256833694875240325927734375</LongitudeDegrees>
            </Position>
            <AltitudeMeters>886.20001220703125</AltitudeMeters>
            <DistanceMeters>NAN</DistanceMeters>
          </Trackpoint>
          <Trackpoint>
            <Time>2021-08-03T11:59:11.000Z</Time>
            <Position>
              <LatitudeDegrees>-15.443934537470340728759765625</LatitudeDegrees>
              <LongitudeDegrees>37.05251687206327915191650390625</LongitudeDegrees>
            </Position>
            <AltitudeMeters>885.20001220703125</AltitudeMeters>
            <DistanceMeters>NAN</DistanceMeters>
          </Trackpoint>
          <Trackpoint>
            <Time>2021-08-03T11:59:13.000Z</Time>
            <Position>
              <LatitudeDegrees>-15.44393755495548248291015625</LatitudeDegrees>
              <LongitudeDegrees>37.05249625258147716522216796875</LongitudeDegrees>
            </Position>
            <AltitudeMeters>885.20001220703125</AltitudeMeters>
            <DistanceMeters>NAN</DistanceMeters>
          </Trackpoint>
          <Trackpoint>
            <Time>2021-08-03T11:59:16.000Z</Time>
            <Position>
              <LatitudeDegrees>-15.44392171315848827362060546875</LatitudeDegrees>
              <LongitudeDegrees>37.05245149321854114532470703125</LongitudeDegrees>
            </Position>
            <AltitudeMeters>884.20001220703125</AltitudeMeters>
            <DistanceMeters>NAN</DistanceMeters>
          </Trackpoint>
          <Trackpoint>
            <Time>2021-08-03T11:59:17.000Z</Time>
            <Position>
              <LatitudeDegrees>-15.44391886331140995025634765625</LatitudeDegrees>
              <LongitudeDegrees>37.05243942327797412872314453125</LongitudeDegrees>
            </Position>
            <AltitudeMeters>884.20001220703125</AltitudeMeters>
            <DistanceMeters>NAN</DistanceMeters>
          </Trackpoint>
          <Trackpoint>
            <Time>2021-08-03T11:59:23.000Z</Time>
            <Position>
              <LatitudeDegrees>-15.44390696100890636444091796875</LatitudeDegrees>
              <LongitudeDegrees>37.0523664169013500213623046875</LongitudeDegrees>
            </Position>
            <AltitudeMeters>883</AltitudeMeters>
            <DistanceMeters>NAN</DistanceMeters>
          </Trackpoint>
          <Trackpoint>
            <Time>2021-08-03T11:59:26.000Z</Time>
            <Position>
              <LatitudeDegrees>-15.4439006745815277099609375</LatitudeDegrees>
              <LongitudeDegrees>37.052334062755107879638671875</LongitudeDegrees>
            </Position>
            <AltitudeMeters>882</AltitudeMeters>
            <DistanceMeters>NAN</DistanceMeters>
          </Trackpoint>
          <Trackpoint>
            <Time>2021-08-03T11:59:29.000Z</Time>
            <Position>
              <LatitudeDegrees>-15.443890281021595001220703125</LatitudeDegrees>
              <LongitudeDegrees>37.0522956736385822296142578125</LongitudeDegrees>
            </Position>
            <AltitudeMeters>881.5999755859375</AltitudeMeters>
            <DistanceMeters>NAN</DistanceMeters>
          </Trackpoint>
          <Trackpoint>
            <Time>2021-08-03T11:59:36.000Z</Time>
            <Position>
              <LatitudeDegrees>-15.4438730143010616302490234375</LatitudeDegrees>
              <LongitudeDegrees>37.0522135309875011444091796875</LongitudeDegrees>
            </Position>
            <AltitudeMeters>880.4000244140625</AltitudeMeters>
            <DistanceMeters>NAN</DistanceMeters>
          </Trackpoint>
          <Trackpoint>
            <Time>2021-08-03T11:59:37.000Z</Time>
            <Position>
              <LatitudeDegrees>-15.44386873953044414520263671875</LatitudeDegrees>
              <LongitudeDegrees>37.0522064901888370513916015625</LongitudeDegrees>
            </Position>
            <AltitudeMeters>880.4000244140625</AltitudeMeters>
            <DistanceMeters>NAN</DistanceMeters>
          </Trackpoint>
          <Trackpoint>
            <Time>2021-08-03T11:59:42.000Z</Time>
            <Position>
              <LatitudeDegrees>-15.44385599903762340545654296875</LatitudeDegrees>
              <LongitudeDegrees>37.05214873887598514556884765625</LongitudeDegrees>
            </Position>
            <AltitudeMeters>879.4000244140625</AltitudeMeters>
            <DistanceMeters>NAN</DistanceMeters>
          </Trackpoint>
          <Trackpoint>
            <Time>2021-08-03T11:59:45.000Z</Time>
            <Position>
              <LatitudeDegrees>-15.44384107924997806549072265625</LatitudeDegrees>
              <LongitudeDegrees>37.0521129481494426727294921875</LongitudeDegrees>
            </Position>
            <AltitudeMeters>879.20001220703125</AltitudeMeters>
            <DistanceMeters>NAN</DistanceMeters>
          </Trackpoint>
          <Trackpoint>
            <Time>2021-08-03T11:59:51.000Z</Time>
            <Position>
              <LatitudeDegrees>-15.44380084611475467681884765625</LatitudeDegrees>
              <LongitudeDegrees>37.05204396508634090423583984375</LongitudeDegrees>
            </Position>
            <AltitudeMeters>878.20001220703125</AltitudeMeters>
            <DistanceMeters>NAN</DistanceMeters>
          </Trackpoint>
          <Trackpoint>
            <Time>2021-08-03T11:59:54.000Z</Time>
            <Position>
              <LatitudeDegrees>-15.443780981004238128662109375</LatitudeDegrees>
              <LongitudeDegrees>37.0520140416920185089111328125</LongitudeDegrees>
            </Position>
            <AltitudeMeters>877.4000244140625</AltitudeMeters>
            <DistanceMeters>NAN</DistanceMeters>
          </Trackpoint>
          <Trackpoint>
            <Time>2021-08-03T11:59:59.000Z</Time>
            <Position>
              <LatitudeDegrees>-15.44374234043061733245849609375</LatitudeDegrees>
              <LongitudeDegrees>37.05197137780487537384033203125</LongitudeDegrees>
            </Position>
            <AltitudeMeters>877.20001220703125</AltitudeMeters>
            <DistanceMeters>NAN</DistanceMeters>
          </Trackpoint>
          <Trackpoint>
            <Time>2021-08-03T12:00:02.000Z</Time>
            <Position>
              <LatitudeDegrees>-15.44372406788170337677001953125</LatitudeDegrees>
              <LongitudeDegrees>37.0519508421421051025390625</LongitudeDegrees>
            </Position>
            <AltitudeMeters>876</AltitudeMeters>
            <DistanceMeters>NAN</DistanceMeters>
          </Trackpoint>
          <Trackpoint>
            <Time>2021-08-03T12:00:07.000Z</Time>
            <Position>
              <LatitudeDegrees>-15.443708896636962890625</LatitudeDegrees>
              <LongitudeDegrees>37.051909603178501129150390625</LongitudeDegrees>
            </Position>
            <AltitudeMeters>875.4000244140625</AltitudeMeters>
            <DistanceMeters>NAN</DistanceMeters>
          </Trackpoint>
          <Trackpoint>
            <Time>2021-08-03T12:00:09.000Z</Time>
            <Position>
              <LatitudeDegrees>-15.44370864517986774444580078125</LatitudeDegrees>
              <LongitudeDegrees>37.05188889987766742706298828125</LongitudeDegrees>
            </Position>
            <AltitudeMeters>874.4000244140625</AltitudeMeters>
            <DistanceMeters>NAN</DistanceMeters>
          </Trackpoint>
          <Trackpoint>
            <Time>2021-08-03T12:00:10.000Z</Time>
            <Position>
              <LatitudeDegrees>-15.44370948337018489837646484375</LatitudeDegrees>
              <LongitudeDegrees>37.05187850631773471832275390625</LongitudeDegrees>
            </Position>
            <AltitudeMeters>874.4000244140625</AltitudeMeters>
            <DistanceMeters>NAN</DistanceMeters>
          </Trackpoint>
          <Trackpoint>
            <Time>2021-08-03T12:00:12.000Z</Time>
            <Position>
              <LatitudeDegrees>-15.44371501542627811431884765625</LatitudeDegrees>
              <LongitudeDegrees>37.0518557913601398468017578125</LongitudeDegrees>
            </Position>
            <AltitudeMeters>873.5999755859375</AltitudeMeters>
            <DistanceMeters>NAN</DistanceMeters>
          </Trackpoint>
          <Trackpoint>
            <Time>2021-08-03T12:00:13.000Z</Time>
            <Position>
              <LatitudeDegrees>-15.44371920637786388397216796875</LatitudeDegrees>
              <LongitudeDegrees>37.05184732563793659210205078125</LongitudeDegrees>
            </Position>
            <AltitudeMeters>873.20001220703125</AltitudeMeters>
            <DistanceMeters>NAN</DistanceMeters>
          </Trackpoint>
          <Trackpoint>
            <Time>2021-08-03T12:00:19.000Z</Time>
            <Position>
              <LatitudeDegrees>-15.44377000071108341217041015625</LatitudeDegrees>
              <LongitudeDegrees>37.051800303161144256591796875</LongitudeDegrees>
            </Position>
            <AltitudeMeters>872</AltitudeMeters>
            <DistanceMeters>NAN</DistanceMeters>
          </Trackpoint>
          <Trackpoint>
            <Time>2021-08-03T12:00:21.000Z</Time>
            <Position>
              <LatitudeDegrees>-15.4437818191945552825927734375</LatitudeDegrees>
              <LongitudeDegrees>37.0517914183437824249267578125</LongitudeDegrees>
            </Position>
            <AltitudeMeters>872</AltitudeMeters>
            <DistanceMeters>NAN</DistanceMeters>
          </Trackpoint>
          <Trackpoint>
            <Time>2021-08-03T12:00:22.000Z</Time>
            <Position>
              <LatitudeDegrees>-15.443789027631282806396484375</LatitudeDegrees>
              <LongitudeDegrees>37.05178462900221347808837890625</LongitudeDegrees>
            </Position>
            <AltitudeMeters>872</AltitudeMeters>
            <DistanceMeters>NAN</DistanceMeters>
          </Trackpoint>
          <Trackpoint>
            <Time>2021-08-03T12:00:24.000Z</Time>
            <Position>
              <LatitudeDegrees>-15.44380210340023040771484375</LatitudeDegrees>
              <LongitudeDegrees>37.0517763309180736541748046875</LongitudeDegrees>
            </Position>
            <AltitudeMeters>870.79998779296875</AltitudeMeters>
            <DistanceMeters>NAN</DistanceMeters>
          </Trackpoint>
          <Trackpoint>
            <Time>2021-08-03T12:00:29.000Z</Time>
            <Position>
              <LatitudeDegrees>-15.44384711422026157379150390625</LatitudeDegrees>
              <LongitudeDegrees>37.051739953458309173583984375</LongitudeDegrees>
            </Position>
            <AltitudeMeters>869.4000244140625</AltitudeMeters>
            <DistanceMeters>NAN</DistanceMeters>
          </Trackpoint>
          <Trackpoint>
            <Time>2021-08-03T12:00:30.000Z</Time>
            <Position>
              <LatitudeDegrees>-15.4438579268753528594970703125</LatitudeDegrees>
              <LongitudeDegrees>37.05173266120254993438720703125</LongitudeDegrees>
            </Position>
            <AltitudeMeters>868.79998779296875</AltitudeMeters>
            <DistanceMeters>NAN</DistanceMeters>
          </Trackpoint>
          <Trackpoint>
            <Time>2021-08-03T12:00:38.000Z</Time>
            <Position>
              <LatitudeDegrees>-15.4439471103250980377197265625</LatitudeDegrees>
              <LongitudeDegrees>37.05167901702225208282470703125</LongitudeDegrees>
            </Position>
            <AltitudeMeters>868.4000244140625</AltitudeMeters>
            <DistanceMeters>NAN</DistanceMeters>
          </Trackpoint>
          <Trackpoint>
            <Time>2021-08-03T12:00:39.000Z</Time>
            <Position>
              <LatitudeDegrees>-15.4439551569521427154541015625</LatitudeDegrees>
              <LongitudeDegrees>37.05167482607066631317138671875</LongitudeDegrees>
            </Position>
            <AltitudeMeters>868</AltitudeMeters>
            <DistanceMeters>NAN</DistanceMeters>
          </Trackpoint>
          <Trackpoint>
            <Time>2021-08-03T12:00:40.000Z</Time>
            <Position>
              <LatitudeDegrees>-15.44396211393177509307861328125</LatitudeDegrees>
              <LongitudeDegrees>37.0516710542142391204833984375</LongitudeDegrees>
            </Position>
            <AltitudeMeters>867.20001220703125</AltitudeMeters>
            <DistanceMeters>NAN</DistanceMeters>
          </Trackpoint>
          <Trackpoint>
            <Time>2021-08-03T12:00:41.000Z</Time>
            <Position>
              <LatitudeDegrees>-15.4439677298069000244140625</LatitudeDegrees>
              <LongitudeDegrees>37.051666863262653350830078125</LongitudeDegrees>
            </Position>
            <AltitudeMeters>866.5999755859375</AltitudeMeters>
            <DistanceMeters>NAN</DistanceMeters>
          </Trackpoint>
          <Trackpoint>
            <Time>2021-08-03T12:00:46.000Z</Time>
            <Position>
              <LatitudeDegrees>-15.44400502927601337432861328125</LatitudeDegrees>
              <LongitudeDegrees>37.05164012499153614044189453125</LongitudeDegrees>
            </Position>
            <AltitudeMeters>865.4000244140625</AltitudeMeters>
            <DistanceMeters>NAN</DistanceMeters>
          </Trackpoint>
          <Trackpoint>
            <Time>2021-08-03T12:00:47.000Z</Time>
            <Position>
              <LatitudeDegrees>-15.44401575811207294464111328125</LatitudeDegrees>
              <LongitudeDegrees>37.05163501203060150146484375</LongitudeDegrees>
            </Position>
            <AltitudeMeters>865.4000244140625</AltitudeMeters>
            <DistanceMeters>NAN</DistanceMeters>
          </Trackpoint>
          <Trackpoint>
            <Time>2021-08-03T12:00:50.000Z</Time>
            <Position>
              <LatitudeDegrees>-15.4440493695437908172607421875</LatitudeDegrees>
              <LongitudeDegrees>37.05160995014011859893798828125</LongitudeDegrees>
            </Position>
            <AltitudeMeters>864</AltitudeMeters>
            <DistanceMeters>NAN</DistanceMeters>
          </Trackpoint>
          <Trackpoint>
            <Time>2021-08-03T12:00:55.000Z</Time>
            <Position>
              <LatitudeDegrees>-15.4441120661795139312744140625</LatitudeDegrees>
              <LongitudeDegrees>37.05157189629971981048583984375</LongitudeDegrees>
            </Position>
            <AltitudeMeters>863.4000244140625</AltitudeMeters>
            <DistanceMeters>NAN</DistanceMeters>
          </Trackpoint>
          <Trackpoint>
            <Time>2021-08-03T12:00:58.000Z</Time>
            <Position>
              <LatitudeDegrees>-15.44414668343961238861083984375</LatitudeDegrees>
              <LongitudeDegrees>37.051548846065998077392578125</LongitudeDegrees>
            </Position>
            <AltitudeMeters>863</AltitudeMeters>
            <DistanceMeters>NAN</DistanceMeters>
          </Trackpoint>
          <Trackpoint>
            <Time>2021-08-03T12:01:02.000Z</Time>
            <Position>
              <LatitudeDegrees>-15.444189012050628662109375</LatitudeDegrees>
              <LongitudeDegrees>37.05152328126132488250732421875</LongitudeDegrees>
            </Position>
            <AltitudeMeters>862.79998779296875</AltitudeMeters>
            <DistanceMeters>NAN</DistanceMeters>
          </Trackpoint>
          <Trackpoint>
            <Time>2021-08-03T12:01:06.000Z</Time>
            <Position>
              <LatitudeDegrees>-15.44422228820621967315673828125</LatitudeDegrees>
              <LongitudeDegrees>37.05150266177952289581298828125</LongitudeDegrees>
            </Position>
            <AltitudeMeters>861.5999755859375</AltitudeMeters>
            <DistanceMeters>NAN</DistanceMeters>
          </Trackpoint>
          <Trackpoint>
            <Time>2021-08-03T12:01:11.000Z</Time>
            <Position>
              <LatitudeDegrees>-15.4442686401307582855224609375</LatitudeDegrees>
              <LongitudeDegrees>37.05147198401391506195068359375</LongitudeDegrees>
            </Position>
            <AltitudeMeters>861</AltitudeMeters>
            <DistanceMeters>NAN</DistanceMeters>
          </Trackpoint>
          <Trackpoint>
            <Time>2021-08-03T12:01:13.000Z</Time>
            <Position>
              <LatitudeDegrees>-15.44428967870771884918212890625</LatitudeDegrees>
              <LongitudeDegrees>37.05145790241658687591552734375</LongitudeDegrees>
            </Position>
            <AltitudeMeters>860</AltitudeMeters>
            <DistanceMeters>NAN</DistanceMeters>
          </Trackpoint>
          <Trackpoint>
            <Time>2021-08-03T12:01:14.000Z</Time>
            <Position>
              <LatitudeDegrees>-15.4443041794002056121826171875</LatitudeDegrees>
              <LongitudeDegrees>37.05144918523728847503662109375</LongitudeDegrees>
            </Position>
            <AltitudeMeters>859.79998779296875</AltitudeMeters>
            <DistanceMeters>NAN</DistanceMeters>
          </Trackpoint>
          <Trackpoint>
            <Time>2021-08-03T12:01:21.000Z</Time>
            <Position>
              <LatitudeDegrees>-15.44438187964260578155517578125</LatitudeDegrees>
              <LongitudeDegrees>37.05139788798987865447998046875</LongitudeDegrees>
            </Position>
            <AltitudeMeters>859.4000244140625</AltitudeMeters>
            <DistanceMeters>NAN</DistanceMeters>
          </Trackpoint>
          <Trackpoint>
            <Time>2021-08-03T12:01:23.000Z</Time>
            <Position>
              <LatitudeDegrees>-15.44440157711505889892578125</LatitudeDegrees>
              <LongitudeDegrees>37.05138213001191616058349609375</LongitudeDegrees>
            </Position>
            <AltitudeMeters>858.5999755859375</AltitudeMeters>
            <DistanceMeters>NAN</DistanceMeters>
          </Trackpoint>
          <Trackpoint>
            <Time>2021-08-03T12:01:29.000Z</Time>
            <Position>
              <LatitudeDegrees>-15.4444532096385955810546875</LatitudeDegrees>
              <LongitudeDegrees>37.0513500273227691650390625</LongitudeDegrees>
            </Position>
            <AltitudeMeters>858.20001220703125</AltitudeMeters>
            <DistanceMeters>NAN</DistanceMeters>
          </Trackpoint>
          <Trackpoint>
            <Time>2021-08-03T12:01:32.000Z</Time>
            <Position>
              <LatitudeDegrees>-15.44448933564126491546630859375</LatitudeDegrees>
              <LongitudeDegrees>37.05132429488003253936767578125</LongitudeDegrees>
            </Position>
            <AltitudeMeters>857.20001220703125</AltitudeMeters>
            <DistanceMeters>NAN</DistanceMeters>
          </Trackpoint>
          <Trackpoint>
            <Time>2021-08-03T12:01:38.000Z</Time>
            <Position>
              <LatitudeDegrees>-15.4445553012192249298095703125</LatitudeDegrees>
              <LongitudeDegrees>37.05127567984163761138916015625</LongitudeDegrees>
            </Position>
            <AltitudeMeters>856.79998779296875</AltitudeMeters>
            <DistanceMeters>NAN</DistanceMeters>
          </Trackpoint>
          <Trackpoint>
            <Time>2021-08-03T12:01:42.000Z</Time>
            <Position>
              <LatitudeDegrees>-15.44458975084125995635986328125</LatitudeDegrees>
              <LongitudeDegrees>37.0512502826750278472900390625</LongitudeDegrees>
            </Position>
            <AltitudeMeters>855.79998779296875</AltitudeMeters>
            <DistanceMeters>NAN</DistanceMeters>
          </Trackpoint>
          <Trackpoint>
            <Time>2021-08-03T12:01:47.000Z</Time>
            <Position>
              <LatitudeDegrees>-15.4446290619671344757080078125</LatitudeDegrees>
              <LongitudeDegrees>37.05122170038521289825439453125</LongitudeDegrees>
            </Position>
            <AltitudeMeters>855.20001220703125</AltitudeMeters>
            <DistanceMeters>NAN</DistanceMeters>
          </Trackpoint>
          <Trackpoint>
            <Time>2021-08-03T12:01:49.000Z</Time>
            <Position>
              <LatitudeDegrees>-15.44465378858149051666259765625</LatitudeDegrees>
              <LongitudeDegrees>37.05120242200791835784912109375</LongitudeDegrees>
            </Position>
            <AltitudeMeters>854.20001220703125</AltitudeMeters>
            <DistanceMeters>NAN</DistanceMeters>
          </Trackpoint>
          <Trackpoint>
            <Time>2021-08-03T12:01:54.000Z</Time>
            <Position>
              <LatitudeDegrees>-15.44470558874309062957763671875</LatitudeDegrees>
              <LongitudeDegrees>37.05115933902561664581298828125</LongitudeDegrees>
            </Position>
            <AltitudeMeters>854</AltitudeMeters>
            <DistanceMeters>NAN</DistanceMeters>
          </Trackpoint>
          <Trackpoint>
            <Time>2021-08-03T12:01:58.000Z</Time>
            <Position>
              <LatitudeDegrees>-15.4447303153574466705322265625</LatitudeDegrees>
              <LongitudeDegrees>37.05113050527870655059814453125</LongitudeDegrees>
            </Position>
            <AltitudeMeters>853.20001220703125</AltitudeMeters>
            <DistanceMeters>NAN</DistanceMeters>
          </Trackpoint>
          <Trackpoint>
            <Time>2021-08-03T12:01:59.000Z</Time>
            <Position>
              <LatitudeDegrees>-15.444736517965793609619140625</LatitudeDegrees>
              <LongitudeDegrees>37.0511233806610107421875</LongitudeDegrees>
            </Position>
            <AltitudeMeters>853</AltitudeMeters>
            <DistanceMeters>NAN</DistanceMeters>
          </Trackpoint>
          <Trackpoint>
            <Time>2021-08-03T12:02:04.000Z</Time>
            <Position>
              <LatitudeDegrees>-15.44477918185293674468994140625</LatitudeDegrees>
              <LongitudeDegrees>37.0510876737534999847412109375</LongitudeDegrees>
            </Position>
            <AltitudeMeters>852</AltitudeMeters>
            <DistanceMeters>NAN</DistanceMeters>
          </Trackpoint>
          <Trackpoint>
            <Time>2021-08-03T12:02:07.000Z</Time>
            <Position>
              <LatitudeDegrees>-15.44481572695076465606689453125</LatitudeDegrees>
              <LongitudeDegrees>37.0510544814169406890869140625</LongitudeDegrees>
            </Position>
            <AltitudeMeters>851.5999755859375</AltitudeMeters>
            <DistanceMeters>NAN</DistanceMeters>
          </Trackpoint>
          <Trackpoint>
            <Time>2021-08-03T12:02:11.000Z</Time>
            <Position>
              <LatitudeDegrees>-15.4448490031063556671142578125</LatitudeDegrees>
              <LongitudeDegrees>37.0510196126997470855712890625</LongitudeDegrees>
            </Position>
            <AltitudeMeters>851.5999755859375</AltitudeMeters>
            <DistanceMeters>NAN</DistanceMeters>
          </Trackpoint>
          <Trackpoint>
            <Time>2021-08-03T12:02:13.000Z</Time>
            <Position>
              <LatitudeDegrees>-15.44486031867563724517822265625</LatitudeDegrees>
              <LongitudeDegrees>37.05100628547370433807373046875</LongitudeDegrees>
            </Position>
            <AltitudeMeters>850.79998779296875</AltitudeMeters>
            <DistanceMeters>NAN</DistanceMeters>
          </Trackpoint>
          <Trackpoint>
            <Time>2021-08-03T12:02:17.000Z</Time>
            <Position>
              <LatitudeDegrees>-15.444877333939075469970703125</LatitudeDegrees>
              <LongitudeDegrees>37.0509656332433223724365234375</LongitudeDegrees>
            </Position>
            <AltitudeMeters>850</AltitudeMeters>
            <DistanceMeters>NAN</DistanceMeters>
          </Trackpoint>
          <Trackpoint>
            <Time>2021-08-03T12:02:19.000Z</Time>
            <Position>
              <LatitudeDegrees>-15.4448904097080230712890625</LatitudeDegrees>
              <LongitudeDegrees>37.0509388111531734466552734375</LongitudeDegrees>
            </Position>
            <AltitudeMeters>849.4000244140625</AltitudeMeters>
            <DistanceMeters>NAN</DistanceMeters>
          </Trackpoint>
          <Trackpoint>
            <Time>2021-08-03T12:02:24.000Z</Time>
            <Position>
              <LatitudeDegrees>-15.44491882435977458953857421875</LatitudeDegrees>
              <LongitudeDegrees>37.05086563713848590850830078125</LongitudeDegrees>
            </Position>
            <AltitudeMeters>848.79998779296875</AltitudeMeters>
            <DistanceMeters>NAN</DistanceMeters>
          </Trackpoint>
          <Trackpoint>
            <Time>2021-08-03T12:02:27.000Z</Time>
            <Position>
              <LatitudeDegrees>-15.44493474997580051422119140625</LatitudeDegrees>
              <LongitudeDegrees>37.05082900822162628173828125</LongitudeDegrees>
            </Position>
            <AltitudeMeters>848.4000244140625</AltitudeMeters>
            <DistanceMeters>NAN</DistanceMeters>
          </Trackpoint>
          <Trackpoint>
            <Time>2021-08-03T12:02:31.000Z</Time>
            <Position>
              <LatitudeDegrees>-15.4449521005153656005859375</LatitudeDegrees>
              <LongitudeDegrees>37.05078735016286373138427734375</LongitudeDegrees>
            </Position>
            <AltitudeMeters>847.20001220703125</AltitudeMeters>
            <DistanceMeters>NAN</DistanceMeters>
          </Trackpoint>
          <Trackpoint>
            <Time>2021-08-03T12:02:34.000Z</Time>
            <Position>
              <LatitudeDegrees>-15.44496894814074039459228515625</LatitudeDegrees>
              <LongitudeDegrees>37.05075658857822418212890625</LongitudeDegrees>
            </Position>
            <AltitudeMeters>846.5999755859375</AltitudeMeters>
            <DistanceMeters>NAN</DistanceMeters>
          </Trackpoint>
          <Trackpoint>
            <Time>2021-08-03T12:02:40.000Z</Time>
            <Position>
              <LatitudeDegrees>-15.44500214047729969024658203125</LatitudeDegrees>
              <LongitudeDegrees>37.05068022944033145904541015625</LongitudeDegrees>
            </Position>
            <AltitudeMeters>845.79998779296875</AltitudeMeters>
            <DistanceMeters>NAN</DistanceMeters>
          </Trackpoint>
          <Trackpoint>
            <Time>2021-08-03T12:02:45.000Z</Time>
            <Position>
              <LatitudeDegrees>-15.44504220597445964813232421875</LatitudeDegrees>
              <LongitudeDegrees>37.05060965381562709808349609375</LongitudeDegrees>
            </Position>
            <AltitudeMeters>846</AltitudeMeters>
            <DistanceMeters>NAN</DistanceMeters>
          </Trackpoint>
          <Trackpoint>
            <Time>2021-08-03T12:02:52.000Z</Time>
            <Position>
              <LatitudeDegrees>-15.44507481157779693603515625</LatitudeDegrees>
              <LongitudeDegrees>37.0505440235137939453125</LongitudeDegrees>
            </Position>
            <AltitudeMeters>844.79998779296875</AltitudeMeters>
            <DistanceMeters>NAN</DistanceMeters>
          </Trackpoint>
          <Trackpoint>
            <Time>2021-08-03T12:02:54.000Z</Time>
            <Position>
              <LatitudeDegrees>-15.44508478604257106781005859375</LatitudeDegrees>
              <LongitudeDegrees>37.05051242373883724212646484375</LongitudeDegrees>
            </Position>
            <AltitudeMeters>844.5999755859375</AltitudeMeters>
            <DistanceMeters>NAN</DistanceMeters>
          </Trackpoint>
          <Trackpoint>
            <Time>2021-08-03T12:02:57.000Z</Time>
            <Position>
              <LatitudeDegrees>-15.44510222040116786956787109375</LatitudeDegrees>
              <LongitudeDegrees>37.05047621391713619232177734375</LongitudeDegrees>
            </Position>
            <AltitudeMeters>844.20001220703125</AltitudeMeters>
            <DistanceMeters>NAN</DistanceMeters>
          </Trackpoint>
          <Trackpoint>
            <Time>2021-08-03T12:03:03.000Z</Time>
            <Position>
              <LatitudeDegrees>-15.44513105414807796478271484375</LatitudeDegrees>
              <LongitudeDegrees>37.05041117034852504730224609375</LongitudeDegrees>
            </Position>
            <AltitudeMeters>843.5999755859375</AltitudeMeters>
            <DistanceMeters>NAN</DistanceMeters>
          </Trackpoint>
          <Trackpoint>
            <Time>2021-08-03T12:03:04.000Z</Time>
            <Position>
              <LatitudeDegrees>-15.44513524509966373443603515625</LatitudeDegrees>
              <LongitudeDegrees>37.05040119588375091552734375</LongitudeDegrees>
            </Position>
            <AltitudeMeters>843.20001220703125</AltitudeMeters>
            <DistanceMeters>NAN</DistanceMeters>
          </Trackpoint>
          <Trackpoint>
            <Time>2021-08-03T12:03:11.000Z</Time>
            <Position>
              <LatitudeDegrees>-15.44515703804790973663330078125</LatitudeDegrees>
              <LongitudeDegrees>37.05030824057757854461669921875</LongitudeDegrees>
            </Position>
            <AltitudeMeters>842.20001220703125</AltitudeMeters>
            <DistanceMeters>NAN</DistanceMeters>
          </Trackpoint>
          <Trackpoint>
            <Time>2021-08-03T12:03:12.000Z</Time>
            <Position>
              <LatitudeDegrees>-15.44516189955174922943115234375</LatitudeDegrees>
              <LongitudeDegrees>37.05029566772282123565673828125</LongitudeDegrees>
            </Position>
            <AltitudeMeters>842.20001220703125</AltitudeMeters>
            <DistanceMeters>NAN</DistanceMeters>
          </Trackpoint>
          <Trackpoint>
            <Time>2021-08-03T12:03:21.000Z</Time>
            <Position>
              <LatitudeDegrees>-15.4452070780098438262939453125</LatitudeDegrees>
              <LongitudeDegrees>37.050187624990940093994140625</LongitudeDegrees>
            </Position>
            <AltitudeMeters>841</AltitudeMeters>
            <DistanceMeters>NAN</DistanceMeters>
          </Trackpoint>
          <Trackpoint>
            <Time>2021-08-03T12:03:22.000Z</Time>
            <Position>
              <LatitudeDegrees>-15.44521051459014415740966796875</LatitudeDegrees>
              <LongitudeDegrees>37.050178237259387969970703125</LongitudeDegrees>
            </Position>
            <AltitudeMeters>840.79998779296875</AltitudeMeters>
            <DistanceMeters>NAN</DistanceMeters>
          </Trackpoint>
          <Trackpoint>
            <Time>2021-08-03T12:03:30.000Z</Time>
            <Position>
              <LatitudeDegrees>-15.4452409408986568450927734375</LatitudeDegrees>
              <LongitudeDegrees>37.050057537853717803955078125</LongitudeDegrees>
            </Position>
            <AltitudeMeters>839.79998779296875</AltitudeMeters>
            <DistanceMeters>NAN</DistanceMeters>
          </Trackpoint>
          <Trackpoint>
            <Time>2021-08-03T12:03:33.000Z</Time>
            <Position>
              <LatitudeDegrees>-15.44524873606860637664794921875</LatitudeDegrees>
              <LongitudeDegrees>37.0500169694423675537109375</LongitudeDegrees>
            </Position>
            <AltitudeMeters>839.79998779296875</AltitudeMeters>
            <DistanceMeters>NAN</DistanceMeters>
          </Trackpoint>
          <Trackpoint>
            <Time>2021-08-03T12:03:38.000Z</Time>
            <Position>
              <LatitudeDegrees>-15.44526432640850543975830078125</LatitudeDegrees>
              <LongitudeDegrees>37.04997003078460693359375</LongitudeDegrees>
            </Position>
            <AltitudeMeters>838.79998779296875</AltitudeMeters>
            <DistanceMeters>NAN</DistanceMeters>
          </Trackpoint>
          <Trackpoint>
            <Time>2021-08-03T12:03:40.000Z</Time>
            <Position>
              <LatitudeDegrees>-15.4452684335410594940185546875</LatitudeDegrees>
              <LongitudeDegrees>37.0499470643699169158935546875</LongitudeDegrees>
            </Position>
            <AltitudeMeters>838.79998779296875</AltitudeMeters>
            <DistanceMeters>NAN</DistanceMeters>
          </Trackpoint>
          <Trackpoint>
            <Time>2021-08-03T12:03:50.000Z</Time>
            <Position>
              <LatitudeDegrees>-15.445313192903995513916015625</LatitudeDegrees>
              <LongitudeDegrees>37.049795687198638916015625</LongitudeDegrees>
            </Position>
            <AltitudeMeters>837.79998779296875</AltitudeMeters>
            <DistanceMeters>NAN</DistanceMeters>
          </Trackpoint>
          <Trackpoint>
            <Time>2021-08-03T12:03:51.000Z</Time>
            <Position>
              <LatitudeDegrees>-15.44531495310366153717041015625</LatitudeDegrees>
              <LongitudeDegrees>37.0497851260006427764892578125</LongitudeDegrees>
            </Position>
            <AltitudeMeters>837.79998779296875</AltitudeMeters>
            <DistanceMeters>NAN</DistanceMeters>
          </Trackpoint>
          <Trackpoint>
            <Time>2021-08-03T12:03:56.000Z</Time>
            <Position>
              <LatitudeDegrees>-15.445324592292308807373046875</LatitudeDegrees>
              <LongitudeDegrees>37.049732990562915802001953125</LongitudeDegrees>
            </Position>
            <AltitudeMeters>836.79998779296875</AltitudeMeters>
            <DistanceMeters>NAN</DistanceMeters>
          </Trackpoint>
          <Trackpoint>
            <Time>2021-08-03T12:03:57.000Z</Time>
            <Position>
              <LatitudeDegrees>-15.44532668776810169219970703125</LatitudeDegrees>
              <LongitudeDegrees>37.0497210882604122161865234375</LongitudeDegrees>
            </Position>
            <AltitudeMeters>836.5999755859375</AltitudeMeters>
            <DistanceMeters>NAN</DistanceMeters>
          </Trackpoint>
          <Trackpoint>
            <Time>2021-08-03T12:04:06.000Z</Time>
            <Position>
              <LatitudeDegrees>-15.44531947933137416839599609375</LatitudeDegrees>
              <LongitudeDegrees>37.04960751347243785858154296875</LongitudeDegrees>
            </Position>
            <AltitudeMeters>835.79998779296875</AltitudeMeters>
            <DistanceMeters>NAN</DistanceMeters>
          </Trackpoint>
          <Trackpoint>
            <Time>2021-08-03T12:04:07.000Z</Time>
            <Position>
              <LatitudeDegrees>-15.44531998224556446075439453125</LatitudeDegrees>
              <LongitudeDegrees>37.04959519207477569580078125</LongitudeDegrees>
            </Position>
            <AltitudeMeters>835.20001220703125</AltitudeMeters>
            <DistanceMeters>NAN</DistanceMeters>
          </Trackpoint>
          <Trackpoint>
            <Time>2021-08-03T12:04:15.000Z</Time>
            <Position>
              <LatitudeDegrees>-15.44531897641718387603759765625</LatitudeDegrees>
              <LongitudeDegrees>37.0494944415986537933349609375</LongitudeDegrees>
            </Position>
            <AltitudeMeters>834</AltitudeMeters>
            <DistanceMeters>NAN</DistanceMeters>
          </Trackpoint>
          <Trackpoint>
            <Time>2021-08-03T12:04:19.000Z</Time>
            <Position>
              <LatitudeDegrees>-15.44532023370265960693359375</LatitudeDegrees>
              <LongitudeDegrees>37.049442641437053680419921875</LongitudeDegrees>
            </Position>
            <AltitudeMeters>833.20001220703125</AltitudeMeters>
            <DistanceMeters>NAN</DistanceMeters>
          </Trackpoint>
          <Trackpoint>
            <Time>2021-08-03T12:04:24.000Z</Time>
            <Position>
              <LatitudeDegrees>-15.44531964696943759918212890625</LatitudeDegrees>
              <LongitudeDegrees>37.049386985599994659423828125</LongitudeDegrees>
            </Position>
            <AltitudeMeters>831.79998779296875</AltitudeMeters>
            <DistanceMeters>NAN</DistanceMeters>
          </Trackpoint>
          <Trackpoint>
            <Time>2021-08-03T12:04:30.000Z</Time>
            <Position>
              <LatitudeDegrees>-15.4453222453594207763671875</LatitudeDegrees>
              <LongitudeDegrees>37.0493303239345550537109375</LongitudeDegrees>
            </Position>
            <AltitudeMeters>831</AltitudeMeters>
            <DistanceMeters>NAN</DistanceMeters>
          </Trackpoint>
          <Trackpoint>
            <Time>2021-08-03T12:04:32.000Z</Time>
            <Position>
              <LatitudeDegrees>-15.44532132335007190704345703125</LatitudeDegrees>
              <LongitudeDegrees>37.04930811189115047454833984375</LongitudeDegrees>
            </Position>
            <AltitudeMeters>830.79998779296875</AltitudeMeters>
            <DistanceMeters>NAN</DistanceMeters>
          </Trackpoint>
          <Trackpoint>
            <Time>2021-08-03T12:04:35.000Z</Time>
            <Position>
              <LatitudeDegrees>-15.44530992396175861358642578125</LatitudeDegrees>
              <LongitudeDegrees>37.049273662269115447998046875</LongitudeDegrees>
            </Position>
            <AltitudeMeters>829.79998779296875</AltitudeMeters>
            <DistanceMeters>NAN</DistanceMeters>
          </Trackpoint>
          <Trackpoint>
            <Time>2021-08-03T12:04:38.000Z</Time>
            <Position>
              <LatitudeDegrees>-15.4452959261834621429443359375</LatitudeDegrees>
              <LongitudeDegrees>37.04924105666577816009521484375</LongitudeDegrees>
            </Position>
            <AltitudeMeters>828.79998779296875</AltitudeMeters>
            <DistanceMeters>NAN</DistanceMeters>
          </Trackpoint>
          <Trackpoint>
            <Time>2021-08-03T12:04:39.000Z</Time>
            <Position>
              <LatitudeDegrees>-15.445292405784130096435546875</LatitudeDegrees>
              <LongitudeDegrees>37.0492258854210376739501953125</LongitudeDegrees>
            </Position>
            <AltitudeMeters>828.5999755859375</AltitudeMeters>
            <DistanceMeters>NAN</DistanceMeters>
          </Trackpoint>
          <Trackpoint>
            <Time>2021-08-03T12:04:44.000Z</Time>
            <Position>
              <LatitudeDegrees>-15.44527824036777019500732421875</LatitudeDegrees>
              <LongitudeDegrees>37.049144916236400604248046875</LongitudeDegrees>
            </Position>
            <AltitudeMeters>827.4000244140625</AltitudeMeters>
            <DistanceMeters>NAN</DistanceMeters>
          </Trackpoint>
          <Trackpoint>
            <Time>2021-08-03T12:04:48.000Z</Time>
            <Position>
              <LatitudeDegrees>-15.44525829143822193145751953125</LatitudeDegrees>
              <LongitudeDegrees>37.0490823872387409210205078125</LongitudeDegrees>
            </Position>
            <AltitudeMeters>827.4000244140625</AltitudeMeters>
            <DistanceMeters>NAN</DistanceMeters>
          </Trackpoint>
          <Trackpoint>
            <Time>2021-08-03T12:04:54.000Z</Time>
            <Position>
              <LatitudeDegrees>-15.44522258453071117401123046875</LatitudeDegrees>
              <LongitudeDegrees>37.04901642166078090667724609375</LongitudeDegrees>
            </Position>
            <AltitudeMeters>826.79998779296875</AltitudeMeters>
            <DistanceMeters>NAN</DistanceMeters>
          </Trackpoint>
          <Trackpoint>
            <Time>2021-08-03T12:04:56.000Z</Time>
            <Position>
              <LatitudeDegrees>-15.44520850293338298797607421875</LatitudeDegrees>
              <LongitudeDegrees>37.0489995740354061126708984375</LongitudeDegrees>
            </Position>
            <AltitudeMeters>826.4000244140625</AltitudeMeters>
            <DistanceMeters>NAN</DistanceMeters>
          </Trackpoint>
          <Trackpoint>
            <Time>2021-08-03T12:04:57.000Z</Time>
            <Position>
              <LatitudeDegrees>-15.4452027194201946258544921875</LatitudeDegrees>
              <LongitudeDegrees>37.048992030322551727294921875</LongitudeDegrees>
            </Position>
            <AltitudeMeters>826.20001220703125</AltitudeMeters>
            <DistanceMeters>NAN</DistanceMeters>
          </Trackpoint>
          <Trackpoint>
            <Time>2021-08-03T12:05:00.000Z</Time>
            <Position>
              <LatitudeDegrees>-15.44518168084323406219482421875</LatitudeDegrees>
              <LongitudeDegrees>37.04896680079400539398193359375</LongitudeDegrees>
            </Position>
            <AltitudeMeters>826</AltitudeMeters>
            <DistanceMeters>NAN</DistanceMeters>
          </Trackpoint>
          <Trackpoint>
            <Time>2021-08-03T12:05:03.000Z</Time>
            <Position>
              <LatitudeDegrees>-15.44515234418213367462158203125</LatitudeDegrees>
              <LongitudeDegrees>37.04893209971487522125244140625</LongitudeDegrees>
            </Position>
            <AltitudeMeters>825.79998779296875</AltitudeMeters>
            <DistanceMeters>NAN</DistanceMeters>
          </Trackpoint>
          <Trackpoint>
            <Time>2021-08-03T12:05:05.000Z</Time>
            <Position>
              <LatitudeDegrees>-15.445135496556758880615234375</LatitudeDegrees>
              <LongitudeDegrees>37.048904858529567718505859375</LongitudeDegrees>
            </Position>
            <AltitudeMeters>825.5999755859375</AltitudeMeters>
            <DistanceMeters>NAN</DistanceMeters>
          </Trackpoint>
          <Trackpoint>
            <Time>2021-08-03T12:05:13.000Z</Time>
            <Position>
              <LatitudeDegrees>-15.4450969398021697998046875</LatitudeDegrees>
              <LongitudeDegrees>37.04880570061504840850830078125</LongitudeDegrees>
            </Position>
            <AltitudeMeters>825.4000244140625</AltitudeMeters>
            <DistanceMeters>NAN</DistanceMeters>
          </Trackpoint>
          <Trackpoint>
            <Time>2021-08-03T12:05:14.000Z</Time>
            <Position>
              <LatitudeDegrees>-15.44509492814540863037109375</LatitudeDegrees>
              <LongitudeDegrees>37.04879580996930599212646484375</LongitudeDegrees>
            </Position>
            <AltitudeMeters>825.4000244140625</AltitudeMeters>
            <DistanceMeters>NAN</DistanceMeters>
          </Trackpoint>
          <Trackpoint>
            <Time>2021-08-03T12:05:15.000Z</Time>
            <Position>
              <LatitudeDegrees>-15.44509434141218662261962890625</LatitudeDegrees>
              <LongitudeDegrees>37.048785500228404998779296875</LongitudeDegrees>
            </Position>
            <AltitudeMeters>825.20001220703125</AltitudeMeters>
            <DistanceMeters>NAN</DistanceMeters>
          </Trackpoint>
          <Trackpoint>
            <Time>2021-08-03T12:05:16.000Z</Time>
            <Position>
              <LatitudeDegrees>-15.44509383849799633026123046875</LatitudeDegrees>
              <LongitudeDegrees>37.04877267591655254364013671875</LongitudeDegrees>
            </Position>
            <AltitudeMeters>825.20001220703125</AltitudeMeters>
            <DistanceMeters>NAN</DistanceMeters>
          </Trackpoint>
          <Trackpoint>
            <Time>2021-08-03T12:05:18.000Z</Time>
            <Position>
              <LatitudeDegrees>-15.445096604526042938232421875</LatitudeDegrees>
              <LongitudeDegrees>37.04874786548316478729248046875</LongitudeDegrees>
            </Position>
            <AltitudeMeters>824.79998779296875</AltitudeMeters>
            <DistanceMeters>NAN</DistanceMeters>
          </Trackpoint>
          <Trackpoint>
            <Time>2021-08-03T12:05:22.000Z</Time>
            <Position>
              <LatitudeDegrees>-15.445118062198162078857421875</LatitudeDegrees>
              <LongitudeDegrees>37.04869262874126434326171875</LongitudeDegrees>
            </Position>
            <AltitudeMeters>824.79998779296875</AltitudeMeters>
            <DistanceMeters>NAN</DistanceMeters>
          </Trackpoint>
          <Trackpoint>
            <Time>2021-08-03T12:05:29.000Z</Time>
            <Position>
              <LatitudeDegrees>-15.4451551102101802825927734375</LatitudeDegrees>
              <LongitudeDegrees>37.04862884245812892913818359375</LongitudeDegrees>
            </Position>
            <AltitudeMeters>824.4000244140625</AltitudeMeters>
            <DistanceMeters>NAN</DistanceMeters>
          </Trackpoint>
          <Trackpoint>
            <Time>2021-08-03T12:05:32.000Z</Time>
            <Position>
              <LatitudeDegrees>-15.445181094110012054443359375</LatitudeDegrees>
              <LongitudeDegrees>37.04860009253025054931640625</LongitudeDegrees>
            </Position>
            <AltitudeMeters>824</AltitudeMeters>
            <DistanceMeters>NAN</DistanceMeters>
          </Trackpoint>
          <Trackpoint>
            <Time>2021-08-03T12:05:33.000Z</Time>
            <Position>
              <LatitudeDegrees>-15.445191152393817901611328125</LatitudeDegrees>
              <LongitudeDegrees>37.0485913753509521484375</LongitudeDegrees>
            </Position>
            <AltitudeMeters>823.79998779296875</AltitudeMeters>
            <DistanceMeters>NAN</DistanceMeters>
          </Trackpoint>
          <Trackpoint>
            <Time>2021-08-03T12:05:35.000Z</Time>
            <Position>
              <LatitudeDegrees>-15.445215292274951934814453125</LatitudeDegrees>
              <LongitudeDegrees>37.04856983385980129241943359375</LongitudeDegrees>
            </Position>
            <AltitudeMeters>822.5999755859375</AltitudeMeters>
            <DistanceMeters>NAN</DistanceMeters>
          </Trackpoint>
          <Trackpoint>
            <Time>2021-08-03T12:05:41.000Z</Time>
            <Position>
              <LatitudeDegrees>-15.4452949203550815582275390625</LatitudeDegrees>
              <LongitudeDegrees>37.04850227572023868560791015625</LongitudeDegrees>
            </Position>
            <AltitudeMeters>822.4000244140625</AltitudeMeters>
            <DistanceMeters>NAN</DistanceMeters>
          </Trackpoint>
          <Trackpoint>
            <Time>2021-08-03T12:05:47.000Z</Time>
            <Position>
              <LatitudeDegrees>-15.44535376131534576416015625</LatitudeDegrees>
              <LongitudeDegrees>37.04844930209219455718994140625</LongitudeDegrees>
            </Position>
            <AltitudeMeters>821.4000244140625</AltitudeMeters>
            <DistanceMeters>NAN</DistanceMeters>
          </Trackpoint>
          <Trackpoint>
            <Time>2021-08-03T12:05:50.000Z</Time>
            <Position>
              <LatitudeDegrees>-15.44537790119647979736328125</LatitudeDegrees>
              <LongitudeDegrees>37.0484292693436145782470703125</LongitudeDegrees>
            </Position>
            <AltitudeMeters>820.4000244140625</AltitudeMeters>
            <DistanceMeters>NAN</DistanceMeters>
          </Trackpoint>
          <Trackpoint>
            <Time>2021-08-03T12:05:57.000Z</Time>
            <Position>
              <LatitudeDegrees>-15.44543934054672718048095703125</LatitudeDegrees>
              <LongitudeDegrees>37.0483809895813465118408203125</LongitudeDegrees>
            </Position>
            <AltitudeMeters>819.4000244140625</AltitudeMeters>
            <DistanceMeters>NAN</DistanceMeters>
          </Trackpoint>
          <Trackpoint>
            <Time>2021-08-03T12:05:59.000Z</Time>
            <Position>
              <LatitudeDegrees>-15.4454645700752735137939453125</LatitudeDegrees>
              <LongitudeDegrees>37.0483638904988765716552734375</LongitudeDegrees>
            </Position>
            <AltitudeMeters>819</AltitudeMeters>
            <DistanceMeters>NAN</DistanceMeters>
          </Trackpoint>
          <Trackpoint>
            <Time>2021-08-03T12:06:05.000Z</Time>
            <Position>
              <LatitudeDegrees>-15.44553288258612155914306640625</LatitudeDegrees>
              <LongitudeDegrees>37.04831267707049846649169921875</LongitudeDegrees>
            </Position>
            <AltitudeMeters>818.5999755859375</AltitudeMeters>
            <DistanceMeters>NAN</DistanceMeters>
          </Trackpoint>
          <Trackpoint>
            <Time>2021-08-03T12:06:14.000Z</Time>
            <Position>
              <LatitudeDegrees>-15.44564352370798587799072265625</LatitudeDegrees>
              <LongitudeDegrees>37.04825098626315593719482421875</LongitudeDegrees>
            </Position>
            <AltitudeMeters>818</AltitudeMeters>
            <DistanceMeters>NAN</DistanceMeters>
          </Trackpoint>
          <Trackpoint>
            <Time>2021-08-03T12:06:18.000Z</Time>
            <Position>
              <LatitudeDegrees>-15.44568593613803386688232421875</LatitudeDegrees>
              <LongitudeDegrees>37.048227600753307342529296875</LongitudeDegrees>
            </Position>
            <AltitudeMeters>817.79998779296875</AltitudeMeters>
            <DistanceMeters>NAN</DistanceMeters>
          </Trackpoint>
          <Trackpoint>
            <Time>2021-08-03T12:06:27.000Z</Time>
            <Position>
              <LatitudeDegrees>-15.4457827471196651458740234375</LatitudeDegrees>
              <LongitudeDegrees>37.04815694130957126617431640625</LongitudeDegrees>
            </Position>
            <AltitudeMeters>817.4000244140625</AltitudeMeters>
            <DistanceMeters>NAN</DistanceMeters>
          </Trackpoint>
          <Trackpoint>
            <Time>2021-08-03T12:06:28.000Z</Time>
            <Position>
              <LatitudeDegrees>-15.44579255394637584686279296875</LatitudeDegrees>
              <LongitudeDegrees>37.048150487244129180908203125</LongitudeDegrees>
            </Position>
            <AltitudeMeters>817.4000244140625</AltitudeMeters>
            <DistanceMeters>NAN</DistanceMeters>
          </Trackpoint>
          <Trackpoint>
            <Time>2021-08-03T12:06:33.000Z</Time>
            <Position>
              <LatitudeDegrees>-15.44585407711565494537353515625</LatitudeDegrees>
              <LongitudeDegrees>37.0481231622397899627685546875</LongitudeDegrees>
            </Position>
            <AltitudeMeters>817</AltitudeMeters>
            <DistanceMeters>NAN</DistanceMeters>
          </Trackpoint>
          <Trackpoint>
            <Time>2021-08-03T12:06:38.000Z</Time>
            <Position>
              <LatitudeDegrees>-15.44591878540813922882080078125</LatitudeDegrees>
              <LongitudeDegrees>37.0481013692915439605712890625</LongitudeDegrees>
            </Position>
            <AltitudeMeters>816.79998779296875</AltitudeMeters>
            <DistanceMeters>NAN</DistanceMeters>
          </Trackpoint>
          <Trackpoint>
            <Time>2021-08-03T12:06:41.000Z</Time>
            <Position>
              <LatitudeDegrees>-15.445964299142360687255859375</LatitudeDegrees>
              <LongitudeDegrees>37.04808904789388179779052734375</LongitudeDegrees>
            </Position>
            <AltitudeMeters>816.79998779296875</AltitudeMeters>
            <DistanceMeters>NAN</DistanceMeters>
          </Trackpoint>
          <Trackpoint>
            <Time>2021-08-03T12:06:45.000Z</Time>
            <Position>
              <LatitudeDegrees>-15.4460046999156475067138671875</LatitudeDegrees>
              <LongitudeDegrees>37.04807580448687076568603515625</LongitudeDegrees>
            </Position>
            <AltitudeMeters>816.4000244140625</AltitudeMeters>
            <DistanceMeters>NAN</DistanceMeters>
          </Trackpoint>
          <Trackpoint>
            <Time>2021-08-03T12:06:51.000Z</Time>
            <Position>
              <LatitudeDegrees>-15.44606714509427547454833984375</LatitudeDegrees>
              <LongitudeDegrees>37.04803121276199817657470703125</LongitudeDegrees>
            </Position>
            <AltitudeMeters>817</AltitudeMeters>
            <DistanceMeters>NAN</DistanceMeters>
          </Trackpoint>
          <Trackpoint>
            <Time>2021-08-03T12:06:55.000Z</Time>
            <Position>
              <LatitudeDegrees>-15.44609011150896549224853515625</LatitudeDegrees>
              <LongitudeDegrees>37.048004977405071258544921875</LongitudeDegrees>
            </Position>
            <AltitudeMeters>816.5999755859375</AltitudeMeters>
            <DistanceMeters>NAN</DistanceMeters>
          </Trackpoint>
          <Trackpoint>
            <Time>2021-08-03T12:07:01.000Z</Time>
            <Position>
              <LatitudeDegrees>-15.44615783728659152984619140625</LatitudeDegrees>
              <LongitudeDegrees>37.04797388054430484771728515625</LongitudeDegrees>
            </Position>
            <AltitudeMeters>816.20001220703125</AltitudeMeters>
            <DistanceMeters>NAN</DistanceMeters>
          </Trackpoint>
          <Trackpoint>
            <Time>2021-08-03T12:07:03.000Z</Time>
            <Position>
              <LatitudeDegrees>-15.4461807198822498321533203125</LatitudeDegrees>
              <LongitudeDegrees>37.047968097031116485595703125</LongitudeDegrees>
            </Position>
            <AltitudeMeters>816</AltitudeMeters>
            <DistanceMeters>NAN</DistanceMeters>
          </Trackpoint>
          <Trackpoint>
            <Time>2021-08-03T12:07:06.000Z</Time>
            <Position>
              <LatitudeDegrees>-15.4462062008678913116455078125</LatitudeDegrees>
              <LongitudeDegrees>37.047953344881534576416015625</LongitudeDegrees>
            </Position>
            <AltitudeMeters>815.5999755859375</AltitudeMeters>
            <DistanceMeters>NAN</DistanceMeters>
          </Trackpoint>
          <Trackpoint>
            <Time>2021-08-03T12:07:09.000Z</Time>
            <Position>
              <LatitudeDegrees>-15.44623746536672115325927734375</LatitudeDegrees>
              <LongitudeDegrees>37.0479414425790309906005859375</LongitudeDegrees>
            </Position>
            <AltitudeMeters>815.20001220703125</AltitudeMeters>
            <DistanceMeters>NAN</DistanceMeters>
          </Trackpoint>
          <Trackpoint>
            <Time>2021-08-03T12:07:13.000Z</Time>
            <Position>
              <LatitudeDegrees>-15.4462796263396739959716796875</LatitudeDegrees>
              <LongitudeDegrees>37.04791420139372348785400390625</LongitudeDegrees>
            </Position>
            <AltitudeMeters>814.79998779296875</AltitudeMeters>
            <DistanceMeters>NAN</DistanceMeters>
          </Trackpoint>
          <Trackpoint>
            <Time>2021-08-03T12:07:20.000Z</Time>
            <Position>
              <LatitudeDegrees>-15.44636252336204051971435546875</LatitudeDegrees>
              <LongitudeDegrees>37.04786709509789943695068359375</LongitudeDegrees>
            </Position>
            <AltitudeMeters>814.5999755859375</AltitudeMeters>
            <DistanceMeters>NAN</DistanceMeters>
          </Trackpoint>
          <Trackpoint>
            <Time>2021-08-03T12:07:23.000Z</Time>
            <Position>
              <LatitudeDegrees>-15.4463956318795680999755859375</LatitudeDegrees>
              <LongitudeDegrees>37.04785645008087158203125</LongitudeDegrees>
            </Position>
            <AltitudeMeters>813.20001220703125</AltitudeMeters>
            <DistanceMeters>NAN</DistanceMeters>
          </Trackpoint>
          <Trackpoint>
            <Time>2021-08-03T12:07:26.000Z</Time>
            <Position>
              <LatitudeDegrees>-15.44642471708357334136962890625</LatitudeDegrees>
              <LongitudeDegrees>37.047839350998401641845703125</LongitudeDegrees>
            </Position>
            <AltitudeMeters>812.79998779296875</AltitudeMeters>
            <DistanceMeters>NAN</DistanceMeters>
          </Trackpoint>
          <Trackpoint>
            <Time>2021-08-03T12:07:29.000Z</Time>
            <Position>
              <LatitudeDegrees>-15.4464482702314853668212890625</LatitudeDegrees>
              <LongitudeDegrees>37.04782267101109027862548828125</LongitudeDegrees>
            </Position>
            <AltitudeMeters>811.79998779296875</AltitudeMeters>
            <DistanceMeters>NAN</DistanceMeters>
          </Trackpoint>
          <Trackpoint>
            <Time>2021-08-03T12:07:36.000Z</Time>
            <Position>
              <LatitudeDegrees>-15.44650434516370296478271484375</LatitudeDegrees>
              <LongitudeDegrees>37.04777271486818790435791015625</LongitudeDegrees>
            </Position>
            <AltitudeMeters>811.4000244140625</AltitudeMeters>
            <DistanceMeters>NAN</DistanceMeters>
          </Trackpoint>
          <Trackpoint>
            <Time>2021-08-03T12:07:40.000Z</Time>
            <Position>
              <LatitudeDegrees>-15.44654759578406810760498046875</LatitudeDegrees>
              <LongitudeDegrees>37.04774371348321437835693359375</LongitudeDegrees>
            </Position>
            <AltitudeMeters>810.79998779296875</AltitudeMeters>
            <DistanceMeters>NAN</DistanceMeters>
          </Trackpoint>
          <Trackpoint>
            <Time>2021-08-03T12:07:44.000Z</Time>
            <Position>
              <LatitudeDegrees>-15.4466016590595245361328125</LatitudeDegrees>
              <LongitudeDegrees>37.0477010495960712432861328125</LongitudeDegrees>
            </Position>
            <AltitudeMeters>810.20001220703125</AltitudeMeters>
            <DistanceMeters>NAN</DistanceMeters>
          </Trackpoint>
          <Trackpoint>
            <Time>2021-08-03T12:07:47.000Z</Time>
            <Position>
              <LatitudeDegrees>-15.44662001542747020721435546875</LatitudeDegrees>
              <LongitudeDegrees>37.0476708747446537017822265625</LongitudeDegrees>
            </Position>
            <AltitudeMeters>809.5999755859375</AltitudeMeters>
            <DistanceMeters>NAN</DistanceMeters>
          </Trackpoint>
          <Trackpoint>
            <Time>2021-08-03T12:07:52.000Z</Time>
            <Position>
              <LatitudeDegrees>-15.4466363601386547088623046875</LatitudeDegrees>
              <LongitudeDegrees>37.04760155640542507171630859375</LongitudeDegrees>
            </Position>
            <AltitudeMeters>808.4000244140625</AltitudeMeters>
            <DistanceMeters>NAN</DistanceMeters>
          </Trackpoint>
          <Trackpoint>
            <Time>2021-08-03T12:07:53.000Z</Time>
            <Position>
              <LatitudeDegrees>-15.44663585722446441650390625</LatitudeDegrees>
              <LongitudeDegrees>37.04758479259908199310302734375</LongitudeDegrees>
            </Position>
            <AltitudeMeters>808.4000244140625</AltitudeMeters>
            <DistanceMeters>NAN</DistanceMeters>
          </Trackpoint>
          <Trackpoint>
            <Time>2021-08-03T12:07:56.000Z</Time>
            <Position>
              <LatitudeDegrees>-15.44663694687187671661376953125</LatitudeDegrees>
              <LongitudeDegrees>37.04754439182579517364501953125</LongitudeDegrees>
            </Position>
            <AltitudeMeters>808.20001220703125</AltitudeMeters>
            <DistanceMeters>NAN</DistanceMeters>
          </Trackpoint>
          <Trackpoint>
            <Time>2021-08-03T12:08:01.000Z</Time>
            <Position>
              <LatitudeDegrees>-15.446634851396083831787109375</LatitudeDegrees>
              <LongitudeDegrees>37.047478593885898590087890625</LongitudeDegrees>
            </Position>
            <AltitudeMeters>807.79998779296875</AltitudeMeters>
            <DistanceMeters>NAN</DistanceMeters>
          </Trackpoint>
          <Trackpoint>
            <Time>2021-08-03T12:08:04.000Z</Time>
            <Position>
              <LatitudeDegrees>-15.4466330073773860931396484375</LatitudeDegrees>
              <LongitudeDegrees>37.04743442125618457794189453125</LongitudeDegrees>
            </Position>
            <AltitudeMeters>807.4000244140625</AltitudeMeters>
            <DistanceMeters>NAN</DistanceMeters>
          </Trackpoint>
          <Trackpoint>
            <Time>2021-08-03T12:08:05.000Z</Time>
            <Position>
              <LatitudeDegrees>-15.44663183391094207763671875</LatitudeDegrees>
              <LongitudeDegrees>37.04742084257304668426513671875</LongitudeDegrees>
            </Position>
            <AltitudeMeters>807.4000244140625</AltitudeMeters>
            <DistanceMeters>NAN</DistanceMeters>
          </Trackpoint>
          <Trackpoint>
            <Time>2021-08-03T12:08:06.000Z</Time>
            <Position>
              <LatitudeDegrees>-15.44663208536803722381591796875</LatitudeDegrees>
              <LongitudeDegrees>37.04740709625184535980224609375</LongitudeDegrees>
            </Position>
            <AltitudeMeters>806.79998779296875</AltitudeMeters>
            <DistanceMeters>NAN</DistanceMeters>
          </Trackpoint>
          <Trackpoint>
            <Time>2021-08-03T12:08:09.000Z</Time>
            <Position>
              <LatitudeDegrees>-15.446627140045166015625</LatitudeDegrees>
              <LongitudeDegrees>37.04736300744116306304931640625</LongitudeDegrees>
            </Position>
            <AltitudeMeters>806</AltitudeMeters>
            <DistanceMeters>NAN</DistanceMeters>
          </Trackpoint>
          <Trackpoint>
            <Time>2021-08-03T12:08:13.000Z</Time>
            <Position>
              <LatitudeDegrees>-15.4466182552278041839599609375</LatitudeDegrees>
              <LongitudeDegrees>37.0473106205463409423828125</LongitudeDegrees>
            </Position>
            <AltitudeMeters>805.5999755859375</AltitudeMeters>
            <DistanceMeters>NAN</DistanceMeters>
          </Trackpoint>
          <Trackpoint>
            <Time>2021-08-03T12:08:22.000Z</Time>
            <Position>
              <LatitudeDegrees>-15.44661951251327991485595703125</LatitudeDegrees>
              <LongitudeDegrees>37.04719469882547855377197265625</LongitudeDegrees>
            </Position>
            <AltitudeMeters>805.4000244140625</AltitudeMeters>
            <DistanceMeters>NAN</DistanceMeters>
          </Trackpoint>
          <Trackpoint>
            <Time>2021-08-03T12:08:24.000Z</Time>
            <Position>
              <LatitudeDegrees>-15.44660844840109348297119140625</LatitudeDegrees>
              <LongitudeDegrees>37.0471729896962642669677734375</LongitudeDegrees>
            </Position>
            <AltitudeMeters>805</AltitudeMeters>
            <DistanceMeters>NAN</DistanceMeters>
          </Trackpoint>
          <Trackpoint>
            <Time>2021-08-03T12:08:29.000Z</Time>
            <Position>
              <LatitudeDegrees>-15.446604676544666290283203125</LatitudeDegrees>
              <LongitudeDegrees>37.047109119594097137451171875</LongitudeDegrees>
            </Position>
            <AltitudeMeters>804.4000244140625</AltitudeMeters>
            <DistanceMeters>NAN</DistanceMeters>
          </Trackpoint>
          <Trackpoint>
            <Time>2021-08-03T12:08:32.000Z</Time>
            <Position>
              <LatitudeDegrees>-15.44660157524049282073974609375</LatitudeDegrees>
              <LongitudeDegrees>37.04706980846822261810302734375</LongitudeDegrees>
            </Position>
            <AltitudeMeters>804</AltitudeMeters>
            <DistanceMeters>NAN</DistanceMeters>
          </Trackpoint>
          <Trackpoint>
            <Time>2021-08-03T12:08:38.000Z</Time>
            <Position>
              <LatitudeDegrees>-15.44658489525318145751953125</LatitudeDegrees>
              <LongitudeDegrees>37.0469775237143039703369140625</LongitudeDegrees>
            </Position>
            <AltitudeMeters>803.79998779296875</AltitudeMeters>
            <DistanceMeters>NAN</DistanceMeters>
          </Trackpoint>
          <Trackpoint>
            <Time>2021-08-03T12:08:47.000Z</Time>
            <Position>
              <LatitudeDegrees>-15.44657978229224681854248046875</LatitudeDegrees>
              <LongitudeDegrees>37.046873755753040313720703125</LongitudeDegrees>
            </Position>
            <AltitudeMeters>803.4000244140625</AltitudeMeters>
            <DistanceMeters>NAN</DistanceMeters>
          </Trackpoint>
          <Trackpoint>
            <Time>2021-08-03T12:08:49.000Z</Time>
            <Position>
              <LatitudeDegrees>-15.4465760104358196258544921875</LatitudeDegrees>
              <LongitudeDegrees>37.04684617929160594940185546875</LongitudeDegrees>
            </Position>
            <AltitudeMeters>803.4000244140625</AltitudeMeters>
            <DistanceMeters>NAN</DistanceMeters>
          </Trackpoint>
          <Trackpoint>
            <Time>2021-08-03T12:08:52.000Z</Time>
            <Position>
              <LatitudeDegrees>-15.4465716518461704254150390625</LatitudeDegrees>
              <LongitudeDegrees>37.046810053288936614990234375</LongitudeDegrees>
            </Position>
            <AltitudeMeters>803.4000244140625</AltitudeMeters>
            <DistanceMeters>NAN</DistanceMeters>
          </Trackpoint>
          <Trackpoint>
            <Time>2021-08-03T12:08:53.000Z</Time>
            <Position>
              <LatitudeDegrees>-15.44657207094132900238037109375</LatitudeDegrees>
              <LongitudeDegrees>37.04679773189127445220947265625</LongitudeDegrees>
            </Position>
            <AltitudeMeters>803</AltitudeMeters>
            <DistanceMeters>NAN</DistanceMeters>
          </Trackpoint>
          <Trackpoint>
            <Time>2021-08-03T12:08:54.000Z</Time>
            <Position>
              <LatitudeDegrees>-15.44657148420810699462890625</LatitudeDegrees>
              <LongitudeDegrees>37.04678532667458057403564453125</LongitudeDegrees>
            </Position>
            <AltitudeMeters>802.79998779296875</AltitudeMeters>
            <DistanceMeters>NAN</DistanceMeters>
          </Trackpoint>
          <Trackpoint>
            <Time>2021-08-03T12:08:57.000Z</Time>
            <Position>
              <LatitudeDegrees>-15.44657039456069469451904296875</LatitudeDegrees>
              <LongitudeDegrees>37.0467465184628963470458984375</LongitudeDegrees>
            </Position>
            <AltitudeMeters>802.5999755859375</AltitudeMeters>
            <DistanceMeters>NAN</DistanceMeters>
          </Trackpoint>
          <Trackpoint>
            <Time>2021-08-03T12:09:01.000Z</Time>
            <Position>
              <LatitudeDegrees>-15.44657005928456783294677734375</LatitudeDegrees>
              <LongitudeDegrees>37.0466911979019641876220703125</LongitudeDegrees>
            </Position>
            <AltitudeMeters>802.20001220703125</AltitudeMeters>
            <DistanceMeters>NAN</DistanceMeters>
          </Trackpoint>
          <Trackpoint>
            <Time>2021-08-03T12:09:04.000Z</Time>
            <Position>
              <LatitudeDegrees>-15.44657148420810699462890625</LatitudeDegrees>
              <LongitudeDegrees>37.0466526411473751068115234375</LongitudeDegrees>
            </Position>
            <AltitudeMeters>801.5999755859375</AltitudeMeters>
            <DistanceMeters>NAN</DistanceMeters>
          </Trackpoint>
          <Trackpoint>
            <Time>2021-08-03T12:09:10.000Z</Time>
            <Position>
              <LatitudeDegrees>-15.4465850628912448883056640625</LatitudeDegrees>
              <LongitudeDegrees>37.04658038914203643798828125</LongitudeDegrees>
            </Position>
            <AltitudeMeters>801.20001220703125</AltitudeMeters>
            <DistanceMeters>NAN</DistanceMeters>
          </Trackpoint>
          <Trackpoint>
            <Time>2021-08-03T12:09:14.000Z</Time>
            <Position>
              <LatitudeDegrees>-15.44659051112830638885498046875</LatitudeDegrees>
              <LongitudeDegrees>37.04653101973235607147216796875</LongitudeDegrees>
            </Position>
            <AltitudeMeters>800.5999755859375</AltitudeMeters>
            <DistanceMeters>NAN</DistanceMeters>
          </Trackpoint>
          <Trackpoint>
            <Time>2021-08-03T12:09:15.000Z</Time>
            <Position>
              <LatitudeDegrees>-15.44659788720309734344482421875</LatitudeDegrees>
              <LongitudeDegrees>37.04651794396340847015380859375</LongitudeDegrees>
            </Position>
            <AltitudeMeters>800.5999755859375</AltitudeMeters>
            <DistanceMeters>NAN</DistanceMeters>
          </Trackpoint>
          <Trackpoint>
            <Time>2021-08-03T12:09:17.000Z</Time>
            <Position>
              <LatitudeDegrees>-15.446608364582061767578125</LatitudeDegrees>
              <LongitudeDegrees>37.04649321734905242919921875</LongitudeDegrees>
            </Position>
            <AltitudeMeters>800.5999755859375</AltitudeMeters>
            <DistanceMeters>NAN</DistanceMeters>
          </Trackpoint>
          <Trackpoint>
            <Time>2021-08-03T12:09:19.000Z</Time>
            <Position>
              <LatitudeDegrees>-15.446614734828472137451171875</LatitudeDegrees>
              <LongitudeDegrees>37.0464705862104892730712890625</LongitudeDegrees>
            </Position>
            <AltitudeMeters>800.20001220703125</AltitudeMeters>
            <DistanceMeters>NAN</DistanceMeters>
          </Trackpoint>
          <Trackpoint>
            <Time>2021-08-03T12:09:26.000Z</Time>
            <Position>
              <LatitudeDegrees>-15.44665723107755184173583984375</LatitudeDegrees>
              <LongitudeDegrees>37.0463917963206768035888671875</LongitudeDegrees>
            </Position>
            <AltitudeMeters>799.5999755859375</AltitudeMeters>
            <DistanceMeters>NAN</DistanceMeters>
          </Trackpoint>
          <Trackpoint>
            <Time>2021-08-03T12:09:29.000Z</Time>
            <Position>
              <LatitudeDegrees>-15.4466574825346469879150390625</LatitudeDegrees>
              <LongitudeDegrees>37.04635147936642169952392578125</LongitudeDegrees>
            </Position>
            <AltitudeMeters>799.4000244140625</AltitudeMeters>
            <DistanceMeters>NAN</DistanceMeters>
          </Trackpoint>
          <Trackpoint>
            <Time>2021-08-03T12:09:40.000Z</Time>
            <Position>
              <LatitudeDegrees>-15.44665723107755184173583984375</LatitudeDegrees>
              <LongitudeDegrees>37.0462073944509029388427734375</LongitudeDegrees>
            </Position>
            <AltitudeMeters>799.20001220703125</AltitudeMeters>
            <DistanceMeters>NAN</DistanceMeters>
          </Trackpoint>
          <Trackpoint>
            <Time>2021-08-03T12:09:43.000Z</Time>
            <Position>
              <LatitudeDegrees>-15.44667164795100688934326171875</LatitudeDegrees>
              <LongitudeDegrees>37.0461708493530750274658203125</LongitudeDegrees>
            </Position>
            <AltitudeMeters>799</AltitudeMeters>
            <DistanceMeters>NAN</DistanceMeters>
          </Trackpoint>
          <Trackpoint>
            <Time>2021-08-03T12:09:47.000Z</Time>
            <Position>
              <LatitudeDegrees>-15.44670081697404384613037109375</LatitudeDegrees>
              <LongitudeDegrees>37.0461277663707733154296875</LongitudeDegrees>
            </Position>
            <AltitudeMeters>799</AltitudeMeters>
            <DistanceMeters>NAN</DistanceMeters>
          </Trackpoint>
          <Trackpoint>
            <Time>2021-08-03T12:09:48.000Z</Time>
            <Position>
              <LatitudeDegrees>-15.44670836068689823150634765625</LatitudeDegrees>
              <LongitudeDegrees>37.04611502587795257568359375</LongitudeDegrees>
            </Position>
            <AltitudeMeters>799.20001220703125</AltitudeMeters>
            <DistanceMeters>NAN</DistanceMeters>
          </Trackpoint>
          <Trackpoint>
            <Time>2021-08-03T12:09:59.000Z</Time>
            <Position>
              <LatitudeDegrees>-15.446799136698246002197265625</LatitudeDegrees>
              <LongitudeDegrees>37.0460109226405620574951171875</LongitudeDegrees>
            </Position>
            <AltitudeMeters>799.20001220703125</AltitudeMeters>
            <DistanceMeters>NAN</DistanceMeters>
          </Trackpoint>
          <Trackpoint>
            <Time>2021-08-03T12:10:05.000Z</Time>
            <Position>
              <LatitudeDegrees>-15.44683492742478847503662109375</LatitudeDegrees>
              <LongitudeDegrees>37.045945040881633758544921875</LongitudeDegrees>
            </Position>
            <AltitudeMeters>800.20001220703125</AltitudeMeters>
            <DistanceMeters>NAN</DistanceMeters>
          </Trackpoint>
          <Trackpoint>
            <Time>2021-08-03T12:10:11.000Z</Time>
            <Position>
              <LatitudeDegrees>-15.44687465764582157135009765625</LatitudeDegrees>
              <LongitudeDegrees>37.0458912290632724761962890625</LongitudeDegrees>
            </Position>
            <AltitudeMeters>800.4000244140625</AltitudeMeters>
            <DistanceMeters>NAN</DistanceMeters>
          </Trackpoint>
          <Trackpoint>
            <Time>2021-08-03T12:10:21.000Z</Time>
            <Position>
              <LatitudeDegrees>-15.4469531960785388946533203125</LatitudeDegrees>
              <LongitudeDegrees>37.04578687436878681182861328125</LongitudeDegrees>
            </Position>
            <AltitudeMeters>800.20001220703125</AltitudeMeters>
            <DistanceMeters>NAN</DistanceMeters>
          </Trackpoint>
          <Trackpoint>
            <Time>2021-08-03T12:10:23.000Z</Time>
            <Position>
              <LatitudeDegrees>-15.446966774761676788330078125</LatitudeDegrees>
              <LongitudeDegrees>37.04576591961085796356201171875</LongitudeDegrees>
            </Position>
            <AltitudeMeters>800.20001220703125</AltitudeMeters>
            <DistanceMeters>NAN</DistanceMeters>
          </Trackpoint>
          <Trackpoint>
            <Time>2021-08-03T12:10:25.000Z</Time>
            <Position>
              <LatitudeDegrees>-15.44697758741676807403564453125</LatitudeDegrees>
              <LongitudeDegrees>37.04574513249099254608154296875</LongitudeDegrees>
            </Position>
            <AltitudeMeters>800.4000244140625</AltitudeMeters>
            <DistanceMeters>NAN</DistanceMeters>
          </Trackpoint>
          <Trackpoint>
            <Time>2021-08-03T12:10:28.000Z</Time>
            <Position>
              <LatitudeDegrees>-15.4469967819750308990478515625</LatitudeDegrees>
              <LongitudeDegrees>37.0457111857831478118896484375</LongitudeDegrees>
            </Position>
            <AltitudeMeters>800.4000244140625</AltitudeMeters>
            <DistanceMeters>NAN</DistanceMeters>
          </Trackpoint>
          <Trackpoint>
            <Time>2021-08-03T12:10:30.000Z</Time>
            <Position>
              <LatitudeDegrees>-15.44701480306684970855712890625</LatitudeDegrees>
              <LongitudeDegrees>37.04569182358682155609130859375</LongitudeDegrees>
            </Position>
            <AltitudeMeters>800.4000244140625</AltitudeMeters>
            <DistanceMeters>NAN</DistanceMeters>
          </Trackpoint>
          <Trackpoint>
            <Time>2021-08-03T12:10:37.000Z</Time>
            <Position>
              <LatitudeDegrees>-15.44706559740006923675537109375</LatitudeDegrees>
              <LongitudeDegrees>37.04563398845493793487548828125</LongitudeDegrees>
            </Position>
            <AltitudeMeters>800.5999755859375</AltitudeMeters>
            <DistanceMeters>NAN</DistanceMeters>
          </Trackpoint>
          <Trackpoint>
            <Time>2021-08-03T12:10:40.000Z</Time>
            <Position>
              <LatitudeDegrees>-15.4470765776932239532470703125</LatitudeDegrees>
              <LongitudeDegrees>37.04560942947864532470703125</LongitudeDegrees>
            </Position>
            <AltitudeMeters>800.5999755859375</AltitudeMeters>
            <DistanceMeters>NAN</DistanceMeters>
          </Trackpoint>
          <Trackpoint>
            <Time>2021-08-03T12:10:49.000Z</Time>
            <Position>
              <LatitudeDegrees>-15.4471275396645069122314453125</LatitudeDegrees>
              <LongitudeDegrees>37.04552200622856616973876953125</LongitudeDegrees>
            </Position>
            <AltitudeMeters>800.79998779296875</AltitudeMeters>
            <DistanceMeters>NAN</DistanceMeters>
          </Trackpoint>
          <Trackpoint>
            <Time>2021-08-03T12:10:50.000Z</Time>
            <Position>
              <LatitudeDegrees>-15.44713499955832958221435546875</LatitudeDegrees>
              <LongitudeDegrees>37.04551161266863346099853515625</LongitudeDegrees>
            </Position>
            <AltitudeMeters>801</AltitudeMeters>
            <DistanceMeters>NAN</DistanceMeters>
          </Trackpoint>
          <Trackpoint>
            <Time>2021-08-03T12:11:00.000Z</Time>
            <Position>
              <LatitudeDegrees>-15.4472116939723491668701171875</LatitudeDegrees>
              <LongitudeDegrees>37.0453876443207263946533203125</LongitudeDegrees>
            </Position>
            <AltitudeMeters>801.5999755859375</AltitudeMeters>
            <DistanceMeters>NAN</DistanceMeters>
          </Trackpoint>
          <Trackpoint>
            <Time>2021-08-03T12:11:04.000Z</Time>
            <Position>
              <LatitudeDegrees>-15.4472371749579906463623046875</LatitudeDegrees>
              <LongitudeDegrees>37.04533408395946025848388671875</LongitudeDegrees>
            </Position>
            <AltitudeMeters>802</AltitudeMeters>
            <DistanceMeters>NAN</DistanceMeters>
          </Trackpoint>
          <Trackpoint>
            <Time>2021-08-03T12:11:12.000Z</Time>
            <Position>
              <LatitudeDegrees>-15.447275228798389434814453125</LatitudeDegrees>
              <LongitudeDegrees>37.045235596597194671630859375</LongitudeDegrees>
            </Position>
            <AltitudeMeters>801.79998779296875</AltitudeMeters>
            <DistanceMeters>NAN</DistanceMeters>
          </Trackpoint>
          <Trackpoint>
            <Time>2021-08-03T12:11:13.000Z</Time>
            <Position>
              <LatitudeDegrees>-15.4472827725112438201904296875</LatitudeDegrees>
              <LongitudeDegrees>37.0452236942946910858154296875</LongitudeDegrees>
            </Position>
            <AltitudeMeters>801.79998779296875</AltitudeMeters>
            <DistanceMeters>NAN</DistanceMeters>
          </Trackpoint>
          <Trackpoint>
            <Time>2021-08-03T12:11:21.000Z</Time>
            <Position>
              <LatitudeDegrees>-15.44730045832693576812744140625</LatitudeDegrees>
              <LongitudeDegrees>37.0451381988823413848876953125</LongitudeDegrees>
            </Position>
            <AltitudeMeters>801.4000244140625</AltitudeMeters>
            <DistanceMeters>NAN</DistanceMeters>
          </Trackpoint>
          <Trackpoint>
            <Time>2021-08-03T12:11:24.000Z</Time>
            <Position>
              <LatitudeDegrees>-15.44731135480105876922607421875</LatitudeDegrees>
              <LongitudeDegrees>37.04509570263326168060302734375</LongitudeDegrees>
            </Position>
            <AltitudeMeters>800.5999755859375</AltitudeMeters>
            <DistanceMeters>NAN</DistanceMeters>
          </Trackpoint>
          <Trackpoint>
            <Time>2021-08-03T12:11:27.000Z</Time>
            <Position>
              <LatitudeDegrees>-15.4473213292658329010009765625</LatitudeDegrees>
              <LongitudeDegrees>37.04505027271807193756103515625</LongitudeDegrees>
            </Position>
            <AltitudeMeters>799.4000244140625</AltitudeMeters>
            <DistanceMeters>NAN</DistanceMeters>
          </Trackpoint>
          <Trackpoint>
            <Time>2021-08-03T12:11:31.000Z</Time>
            <Position>
              <LatitudeDegrees>-15.44732987880706787109375</LatitudeDegrees>
              <LongitudeDegrees>37.04499998129904270172119140625</LongitudeDegrees>
            </Position>
            <AltitudeMeters>799.20001220703125</AltitudeMeters>
            <DistanceMeters>NAN</DistanceMeters>
          </Trackpoint>
          <Trackpoint>
            <Time>2021-08-03T12:11:35.000Z</Time>
            <Position>
              <LatitudeDegrees>-15.4473488219082355499267578125</LatitudeDegrees>
              <LongitudeDegrees>37.04495136626064777374267578125</LongitudeDegrees>
            </Position>
            <AltitudeMeters>798.5999755859375</AltitudeMeters>
            <DistanceMeters>NAN</DistanceMeters>
          </Trackpoint>
          <Trackpoint>
            <Time>2021-08-03T12:11:36.000Z</Time>
            <Position>
              <LatitudeDegrees>-15.44735611416399478912353515625</LatitudeDegrees>
              <LongitudeDegrees>37.04493694938719272613525390625</LongitudeDegrees>
            </Position>
            <AltitudeMeters>798.20001220703125</AltitudeMeters>
            <DistanceMeters>NAN</DistanceMeters>
          </Trackpoint>
          <Trackpoint>
            <Time>2021-08-03T12:11:37.000Z</Time>
            <Position>
              <LatitudeDegrees>-15.447361059486865997314453125</LatitudeDegrees>
              <LongitudeDegrees>37.0449229516088962554931640625</LongitudeDegrees>
            </Position>
            <AltitudeMeters>798.20001220703125</AltitudeMeters>
            <DistanceMeters>NAN</DistanceMeters>
          </Trackpoint>
          <Trackpoint>
            <Time>2021-08-03T12:11:42.000Z</Time>
            <Position>
              <LatitudeDegrees>-15.4473766498267650604248046875</LatitudeDegrees>
              <LongitudeDegrees>37.0448612608015537261962890625</LongitudeDegrees>
            </Position>
            <AltitudeMeters>798.5999755859375</AltitudeMeters>
            <DistanceMeters>NAN</DistanceMeters>
          </Trackpoint>
          <Trackpoint>
            <Time>2021-08-03T12:11:45.000Z</Time>
            <Position>
              <LatitudeDegrees>-15.4473846964538097381591796875</LatitudeDegrees>
              <LongitudeDegrees>37.04482932575047016143798828125</LongitudeDegrees>
            </Position>
            <AltitudeMeters>798.79998779296875</AltitudeMeters>
            <DistanceMeters>NAN</DistanceMeters>
          </Trackpoint>
          <Trackpoint>
            <Time>2021-08-03T12:11:46.000Z</Time>
            <Position>
              <LatitudeDegrees>-15.4473907314240932464599609375</LatitudeDegrees>
              <LongitudeDegrees>37.04481943510472774505615234375</LongitudeDegrees>
            </Position>
            <AltitudeMeters>798.79998779296875</AltitudeMeters>
            <DistanceMeters>NAN</DistanceMeters>
          </Trackpoint>
          <Trackpoint>
            <Time>2021-08-03T12:11:48.000Z</Time>
            <Position>
              <LatitudeDegrees>-15.44740456156432628631591796875</LatitudeDegrees>
              <LongitudeDegrees>37.04480317421257495880126953125</LongitudeDegrees>
            </Position>
            <AltitudeMeters>798.79998779296875</AltitudeMeters>
            <DistanceMeters>NAN</DistanceMeters>
          </Trackpoint>
          <Trackpoint>
            <Time>2021-08-03T12:11:55.000Z</Time>
            <Position>
              <LatitudeDegrees>-15.4474799148738384246826171875</LatitudeDegrees>
              <LongitudeDegrees>37.04473913647234439849853515625</LongitudeDegrees>
            </Position>
            <AltitudeMeters>797.79998779296875</AltitudeMeters>
            <DistanceMeters>NAN</DistanceMeters>
          </Trackpoint>
          <Trackpoint>
            <Time>2021-08-03T12:11:58.000Z</Time>
            <Position>
              <LatitudeDegrees>-15.44750413857400417327880859375</LatitudeDegrees>
              <LongitudeDegrees>37.04470426775515079498291015625</LongitudeDegrees>
            </Position>
            <AltitudeMeters>798</AltitudeMeters>
            <DistanceMeters>NAN</DistanceMeters>
          </Trackpoint>
          <Trackpoint>
            <Time>2021-08-03T12:12:04.000Z</Time>
            <Position>
              <LatitudeDegrees>-15.44753448106348514556884765625</LatitudeDegrees>
              <LongitudeDegrees>37.044653557240962982177734375</LongitudeDegrees>
            </Position>
            <AltitudeMeters>797</AltitudeMeters>
            <DistanceMeters>NAN</DistanceMeters>
          </Trackpoint>
          <Trackpoint>
            <Time>2021-08-03T12:12:06.000Z</Time>
            <Position>
              <LatitudeDegrees>-15.44754370115697383880615234375</LatitudeDegrees>
              <LongitudeDegrees>37.04463788308203220367431640625</LongitudeDegrees>
            </Position>
            <AltitudeMeters>796.79998779296875</AltitudeMeters>
            <DistanceMeters>NAN</DistanceMeters>
          </Trackpoint>
          <Trackpoint>
            <Time>2021-08-03T12:12:14.000Z</Time>
            <Position>
              <LatitudeDegrees>-15.44761620461940765380859375</LatitudeDegrees>
              <LongitudeDegrees>37.04456144012510776519775390625</LongitudeDegrees>
            </Position>
            <AltitudeMeters>795.79998779296875</AltitudeMeters>
            <DistanceMeters>NAN</DistanceMeters>
          </Trackpoint>
          <Trackpoint>
            <Time>2021-08-03T12:12:16.000Z</Time>
            <Position>
              <LatitudeDegrees>-15.44763422571122646331787109375</LatitudeDegrees>
              <LongitudeDegrees>37.04455222003161907196044921875</LongitudeDegrees>
            </Position>
            <AltitudeMeters>795.79998779296875</AltitudeMeters>
            <DistanceMeters>NAN</DistanceMeters>
          </Trackpoint>
          <Trackpoint>
            <Time>2021-08-03T12:12:25.000Z</Time>
            <Position>
              <LatitudeDegrees>-15.44769809581339359283447265625</LatitudeDegrees>
              <LongitudeDegrees>37.04446136020123958587646484375</LongitudeDegrees>
            </Position>
            <AltitudeMeters>795.79998779296875</AltitudeMeters>
            <DistanceMeters>NAN</DistanceMeters>
          </Trackpoint>
          <Trackpoint>
            <Time>2021-08-03T12:12:32.000Z</Time>
            <Position>
              <LatitudeDegrees>-15.447764731943607330322265625</LatitudeDegrees>
              <LongitudeDegrees>37.0443791337311267852783203125</LongitudeDegrees>
            </Position>
            <AltitudeMeters>795.5999755859375</AltitudeMeters>
            <DistanceMeters>NAN</DistanceMeters>
          </Trackpoint>
          <Trackpoint>
            <Time>2021-08-03T12:12:34.000Z</Time>
            <Position>
              <LatitudeDegrees>-15.44778392650187015533447265625</LatitudeDegrees>
              <LongitudeDegrees>37.044364549219608306884765625</LongitudeDegrees>
            </Position>
            <AltitudeMeters>795.5999755859375</AltitudeMeters>
            <DistanceMeters>NAN</DistanceMeters>
          </Trackpoint>
          <Trackpoint>
            <Time>2021-08-03T12:12:35.000Z</Time>
            <Position>
              <LatitudeDegrees>-15.447788536548614501953125</LatitudeDegrees>
              <LongitudeDegrees>37.044356502592563629150390625</LongitudeDegrees>
            </Position>
            <AltitudeMeters>795.5999755859375</AltitudeMeters>
            <DistanceMeters>NAN</DistanceMeters>
          </Trackpoint>
          <Trackpoint>
            <Time>2021-08-03T12:12:42.000Z</Time>
            <Position>
              <LatitudeDegrees>-15.44785450212657451629638671875</LatitudeDegrees>
              <LongitudeDegrees>37.04428986646234989166259765625</LongitudeDegrees>
            </Position>
            <AltitudeMeters>794.79998779296875</AltitudeMeters>
            <DistanceMeters>NAN</DistanceMeters>
          </Trackpoint>
          <Trackpoint>
            <Time>2021-08-03T12:12:44.000Z</Time>
            <Position>
              <LatitudeDegrees>-15.4478772170841693878173828125</LatitudeDegrees>
              <LongitudeDegrees>37.04427142627537250518798828125</LongitudeDegrees>
            </Position>
            <AltitudeMeters>794.4000244140625</AltitudeMeters>
            <DistanceMeters>NAN</DistanceMeters>
          </Trackpoint>
          <Trackpoint>
            <Time>2021-08-03T12:12:53.000Z</Time>
            <Position>
              <LatitudeDegrees>-15.44798224233090877532958984375</LatitudeDegrees>
              <LongitudeDegrees>37.044186182320117950439453125</LongitudeDegrees>
            </Position>
            <AltitudeMeters>794.20001220703125</AltitudeMeters>
            <DistanceMeters>NAN</DistanceMeters>
          </Trackpoint>
          <Trackpoint>
            <Time>2021-08-03T12:12:55.000Z</Time>
            <Position>
              <LatitudeDegrees>-15.44799883849918842315673828125</LatitudeDegrees>
              <LongitudeDegrees>37.044173441827297210693359375</LongitudeDegrees>
            </Position>
            <AltitudeMeters>793.4000244140625</AltitudeMeters>
            <DistanceMeters>NAN</DistanceMeters>
          </Trackpoint>
          <Trackpoint>
            <Time>2021-08-03T12:13:04.000Z</Time>
            <Position>
              <LatitudeDegrees>-15.44808559119701385498046875</LatitudeDegrees>
              <LongitudeDegrees>37.04411384649574756622314453125</LongitudeDegrees>
            </Position>
            <AltitudeMeters>792.79998779296875</AltitudeMeters>
            <DistanceMeters>NAN</DistanceMeters>
          </Trackpoint>
          <Trackpoint>
            <Time>2021-08-03T12:13:05.000Z</Time>
            <Position>
              <LatitudeDegrees>-15.4481010138988494873046875</LatitudeDegrees>
              <LongitudeDegrees>37.0441095717251300811767578125</LongitudeDegrees>
            </Position>
            <AltitudeMeters>792.79998779296875</AltitudeMeters>
            <DistanceMeters>NAN</DistanceMeters>
          </Trackpoint>
          <Trackpoint>
            <Time>2021-08-03T12:13:12.000Z</Time>
            <Position>
              <LatitudeDegrees>-15.4481632076203823089599609375</LatitudeDegrees>
              <LongitudeDegrees>37.04405785538256168365478515625</LongitudeDegrees>
            </Position>
            <AltitudeMeters>793.4000244140625</AltitudeMeters>
            <DistanceMeters>NAN</DistanceMeters>
          </Trackpoint>
          <Trackpoint>
            <Time>2021-08-03T12:13:23.000Z</Time>
            <Position>
              <LatitudeDegrees>-15.4482755251228809356689453125</LatitudeDegrees>
              <LongitudeDegrees>37.043986357748508453369140625</LongitudeDegrees>
            </Position>
            <AltitudeMeters>793.5999755859375</AltitudeMeters>
            <DistanceMeters>NAN</DistanceMeters>
          </Trackpoint>
          <Trackpoint>
            <Time>2021-08-03T12:13:39.000Z</Time>
            <Position>
              <LatitudeDegrees>-15.4484652914106845855712890625</LatitudeDegrees>
              <LongitudeDegrees>37.04391561448574066162109375</LongitudeDegrees>
            </Position>
            <AltitudeMeters>793.79998779296875</AltitudeMeters>
            <DistanceMeters>NAN</DistanceMeters>
          </Trackpoint>
          <Trackpoint>
            <Time>2021-08-03T12:13:48.000Z</Time>
            <Position>
              <LatitudeDegrees>-15.4485692270100116729736328125</LatitudeDegrees>
              <LongitudeDegrees>37.04387538135051727294921875</LongitudeDegrees>
            </Position>
            <AltitudeMeters>794.20001220703125</AltitudeMeters>
            <DistanceMeters>NAN</DistanceMeters>
          </Trackpoint>
          <Trackpoint>
            <Time>2021-08-03T12:13:49.000Z</Time>
            <Position>
              <LatitudeDegrees>-15.44857618398964405059814453125</LatitudeDegrees>
              <LongitudeDegrees>37.04387345351278781890869140625</LongitudeDegrees>
            </Position>
            <AltitudeMeters>794.20001220703125</AltitudeMeters>
            <DistanceMeters>NAN</DistanceMeters>
          </Trackpoint>
          <Trackpoint>
            <Time>2021-08-03T12:13:53.000Z</Time>
            <Position>
              <LatitudeDegrees>-15.44861742295324802398681640625</LatitudeDegrees>
              <LongitudeDegrees>37.0438507385551929473876953125</LongitudeDegrees>
            </Position>
            <AltitudeMeters>794.5999755859375</AltitudeMeters>
            <DistanceMeters>NAN</DistanceMeters>
          </Trackpoint>
          <Trackpoint>
            <Time>2021-08-03T12:13:58.000Z</Time>
            <Position>
              <LatitudeDegrees>-15.4486577399075031280517578125</LatitudeDegrees>
              <LongitudeDegrees>37.043805308640003204345703125</LongitudeDegrees>
            </Position>
            <AltitudeMeters>794.4000244140625</AltitudeMeters>
            <DistanceMeters>NAN</DistanceMeters>
          </Trackpoint>
          <Trackpoint>
            <Time>2021-08-03T12:14:01.000Z</Time>
            <Position>
              <LatitudeDegrees>-15.44869168661534786224365234375</LatitudeDegrees>
              <LongitudeDegrees>37.043784521520137786865234375</LongitudeDegrees>
            </Position>
            <AltitudeMeters>794.20001220703125</AltitudeMeters>
            <DistanceMeters>NAN</DistanceMeters>
          </Trackpoint>
          <Trackpoint>
            <Time>2021-08-03T12:14:09.000Z</Time>
            <Position>
              <LatitudeDegrees>-15.4487757571041584014892578125</LatitudeDegrees>
              <LongitudeDegrees>37.04373515211045742034912109375</LongitudeDegrees>
            </Position>
            <AltitudeMeters>794.20001220703125</AltitudeMeters>
            <DistanceMeters>NAN</DistanceMeters>
          </Trackpoint>
          <Trackpoint>
            <Time>2021-08-03T12:14:21.000Z</Time>
            <Position>
              <LatitudeDegrees>-15.44891833327710628509521484375</LatitudeDegrees>
              <LongitudeDegrees>37.04366088844835758209228515625</LongitudeDegrees>
            </Position>
            <AltitudeMeters>794.79998779296875</AltitudeMeters>
            <DistanceMeters>NAN</DistanceMeters>
          </Trackpoint>
          <Trackpoint>
            <Time>2021-08-03T12:14:33.000Z</Time>
            <Position>
              <LatitudeDegrees>-15.4490352608263492584228515625</LatitudeDegrees>
              <LongitudeDegrees>37.04355619847774505615234375</LongitudeDegrees>
            </Position>
            <AltitudeMeters>795</AltitudeMeters>
            <DistanceMeters>NAN</DistanceMeters>
          </Trackpoint>
          <Trackpoint>
            <Time>2021-08-03T12:14:43.000Z</Time>
            <Position>
              <LatitudeDegrees>-15.44909602962434291839599609375</LatitudeDegrees>
              <LongitudeDegrees>37.04344597645103931427001953125</LongitudeDegrees>
            </Position>
            <AltitudeMeters>795.20001220703125</AltitudeMeters>
            <DistanceMeters>NAN</DistanceMeters>
          </Trackpoint>
          <Trackpoint>
            <Time>2021-08-03T12:14:50.000Z</Time>
            <Position>
              <LatitudeDegrees>-15.4491257853806018829345703125</LatitudeDegrees>
              <LongitudeDegrees>37.04336651600897312164306640625</LongitudeDegrees>
            </Position>
            <AltitudeMeters>795.4000244140625</AltitudeMeters>
            <DistanceMeters>NAN</DistanceMeters>
          </Trackpoint>
          <Trackpoint>
            <Time>2021-08-03T12:14:54.000Z</Time>
            <Position>
              <LatitudeDegrees>-15.44915000908076763153076171875</LatitudeDegrees>
              <LongitudeDegrees>37.04331220127642154693603515625</LongitudeDegrees>
            </Position>
            <AltitudeMeters>795.4000244140625</AltitudeMeters>
            <DistanceMeters>NAN</DistanceMeters>
          </Trackpoint>
          <Trackpoint>
            <Time>2021-08-03T12:14:58.000Z</Time>
            <Position>
              <LatitudeDegrees>-15.44917079620063304901123046875</LatitudeDegrees>
              <LongitudeDegrees>37.04327180050313472747802734375</LongitudeDegrees>
            </Position>
            <AltitudeMeters>795.5999755859375</AltitudeMeters>
            <DistanceMeters>NAN</DistanceMeters>
          </Trackpoint>
          <Trackpoint>
            <Time>2021-08-03T12:15:05.000Z</Time>
            <Position>
              <LatitudeDegrees>-15.44922812841832637786865234375</LatitudeDegrees>
              <LongitudeDegrees>37.04321363009512424468994140625</LongitudeDegrees>
            </Position>
            <AltitudeMeters>795.5999755859375</AltitudeMeters>
            <DistanceMeters>NAN</DistanceMeters>
          </Trackpoint>
          <Trackpoint>
            <Time>2021-08-03T12:15:14.000Z</Time>
            <Position>
              <LatitudeDegrees>-15.4493121989071369171142578125</LatitudeDegrees>
              <LongitudeDegrees>37.043150179088115692138671875</LongitudeDegrees>
            </Position>
            <AltitudeMeters>796</AltitudeMeters>
            <DistanceMeters>NAN</DistanceMeters>
          </Trackpoint>
          <Trackpoint>
            <Time>2021-08-03T12:15:16.000Z</Time>
            <Position>
              <LatitudeDegrees>-15.449332483112812042236328125</LatitudeDegrees>
              <LongitudeDegrees>37.0431446470320224761962890625</LongitudeDegrees>
            </Position>
            <AltitudeMeters>796.20001220703125</AltitudeMeters>
            <DistanceMeters>NAN</DistanceMeters>
          </Trackpoint>
          <Trackpoint>
            <Time>2021-08-03T12:15:20.000Z</Time>
            <Position>
              <LatitudeDegrees>-15.44937045313417911529541015625</LatitudeDegrees>
              <LongitudeDegrees>37.04313718713819980621337890625</LongitudeDegrees>
            </Position>
            <AltitudeMeters>796.4000244140625</AltitudeMeters>
            <DistanceMeters>NAN</DistanceMeters>
          </Trackpoint>
          <Trackpoint>
            <Time>2021-08-03T12:15:23.000Z</Time>
            <Position>
              <LatitudeDegrees>-15.44939585030078887939453125</LatitudeDegrees>
              <LongitudeDegrees>37.0431263744831085205078125</LongitudeDegrees>
            </Position>
            <AltitudeMeters>796.5999755859375</AltitudeMeters>
            <DistanceMeters>NAN</DistanceMeters>
          </Trackpoint>
          <Trackpoint>
            <Time>2021-08-03T12:15:33.000Z</Time>
            <Position>
              <LatitudeDegrees>-15.44949517585337162017822265625</LatitudeDegrees>
              <LongitudeDegrees>37.0430765859782695770263671875</LongitudeDegrees>
            </Position>
            <AltitudeMeters>797</AltitudeMeters>
            <DistanceMeters>NAN</DistanceMeters>
          </Trackpoint>
          <Trackpoint>
            <Time>2021-08-03T12:15:42.000Z</Time>
            <Position>
              <LatitudeDegrees>-15.4495911486446857452392578125</LatitudeDegrees>
              <LongitudeDegrees>37.043028809130191802978515625</LongitudeDegrees>
            </Position>
            <AltitudeMeters>797.4000244140625</AltitudeMeters>
            <DistanceMeters>NAN</DistanceMeters>
          </Trackpoint>
          <Trackpoint>
            <Time>2021-08-03T12:15:44.000Z</Time>
            <Position>
              <LatitudeDegrees>-15.4496137797832489013671875</LatitudeDegrees>
              <LongitudeDegrees>37.04301933757960796356201171875</LongitudeDegrees>
            </Position>
            <AltitudeMeters>797.5999755859375</AltitudeMeters>
            <DistanceMeters>NAN</DistanceMeters>
          </Trackpoint>
          <Trackpoint>
            <Time>2021-08-03T12:15:49.000Z</Time>
            <Position>
              <LatitudeDegrees>-15.44966432265937328338623046875</LatitudeDegrees>
              <LongitudeDegrees>37.0429920963943004608154296875</LongitudeDegrees>
            </Position>
            <AltitudeMeters>798.20001220703125</AltitudeMeters>
            <DistanceMeters>NAN</DistanceMeters>
          </Trackpoint>
          <Trackpoint>
            <Time>2021-08-03T12:15:53.000Z</Time>
            <Position>
              <LatitudeDegrees>-15.4497095011174678802490234375</LatitudeDegrees>
              <LongitudeDegrees>37.042977511882781982421875</LongitudeDegrees>
            </Position>
            <AltitudeMeters>798.79998779296875</AltitudeMeters>
            <DistanceMeters>NAN</DistanceMeters>
          </Trackpoint>
          <Trackpoint>
            <Time>2021-08-03T12:15:54.000Z</Time>
            <Position>
              <LatitudeDegrees>-15.44972115196287631988525390625</LatitudeDegrees>
              <LongitudeDegrees>37.04297105781733989715576171875</LongitudeDegrees>
            </Position>
            <AltitudeMeters>799</AltitudeMeters>
            <DistanceMeters>NAN</DistanceMeters>
          </Trackpoint>
          <Trackpoint>
            <Time>2021-08-03T12:15:59.000Z</Time>
            <Position>
              <LatitudeDegrees>-15.44977177865803241729736328125</LatitudeDegrees>
              <LongitudeDegrees>37.0429414696991443634033203125</LongitudeDegrees>
            </Position>
            <AltitudeMeters>799.79998779296875</AltitudeMeters>
            <DistanceMeters>NAN</DistanceMeters>
          </Trackpoint>
          <Trackpoint>
            <Time>2021-08-03T12:16:05.000Z</Time>
            <Position>
              <LatitudeDegrees>-15.4498365707695484161376953125</LatitudeDegrees>
              <LongitudeDegrees>37.042916826903820037841796875</LongitudeDegrees>
            </Position>
            <AltitudeMeters>800.79998779296875</AltitudeMeters>
            <DistanceMeters>NAN</DistanceMeters>
          </Trackpoint>
          <Trackpoint>
            <Time>2021-08-03T12:16:06.000Z</Time>
            <Position>
              <LatitudeDegrees>-15.44984285719692707061767578125</LatitudeDegrees>
              <LongitudeDegrees>37.04291020520031452178955078125</LongitudeDegrees>
            </Position>
            <AltitudeMeters>801</AltitudeMeters>
            <DistanceMeters>NAN</DistanceMeters>
          </Trackpoint>
          <Trackpoint>
            <Time>2021-08-03T12:16:08.000Z</Time>
            <Position>
              <LatitudeDegrees>-15.44985811226069927215576171875</LatitudeDegrees>
              <LongitudeDegrees>37.04290417023003101348876953125</LongitudeDegrees>
            </Position>
            <AltitudeMeters>801</AltitudeMeters>
            <DistanceMeters>NAN</DistanceMeters>
          </Trackpoint>
          <Trackpoint>
            <Time>2021-08-03T12:16:12.000Z</Time>
            <Position>
              <LatitudeDegrees>-15.4499049670994281768798828125</LatitudeDegrees>
              <LongitudeDegrees>37.04288958571851253509521484375</LongitudeDegrees>
            </Position>
            <AltitudeMeters>801.4000244140625</AltitudeMeters>
            <DistanceMeters>NAN</DistanceMeters>
          </Trackpoint>
          <Trackpoint>
            <Time>2021-08-03T12:16:19.000Z</Time>
            <Position>
              <LatitudeDegrees>-15.44997520744800567626953125</LatitudeDegrees>
              <LongitudeDegrees>37.04285019077360630035400390625</LongitudeDegrees>
            </Position>
            <AltitudeMeters>802.20001220703125</AltitudeMeters>
            <DistanceMeters>NAN</DistanceMeters>
          </Trackpoint>
          <Trackpoint>
            <Time>2021-08-03T12:16:21.000Z</Time>
            <Position>
              <LatitudeDegrees>-15.44998836703598499298095703125</LatitudeDegrees>
              <LongitudeDegrees>37.04283610917627811431884765625</LongitudeDegrees>
            </Position>
            <AltitudeMeters>802.4000244140625</AltitudeMeters>
            <DistanceMeters>NAN</DistanceMeters>
          </Trackpoint>
          <Trackpoint>
            <Time>2021-08-03T12:16:24.000Z</Time>
            <Position>
              <LatitudeDegrees>-15.45000982470810413360595703125</LatitudeDegrees>
              <LongitudeDegrees>37.04280945472419261932373046875</LongitudeDegrees>
            </Position>
            <AltitudeMeters>802.5999755859375</AltitudeMeters>
            <DistanceMeters>NAN</DistanceMeters>
          </Trackpoint>
          <Trackpoint>
            <Time>2021-08-03T12:16:29.000Z</Time>
            <Position>
              <LatitudeDegrees>-15.45004938729107379913330078125</LatitudeDegrees>
              <LongitudeDegrees>37.0427748374640941619873046875</LongitudeDegrees>
            </Position>
            <AltitudeMeters>802.5999755859375</AltitudeMeters>
            <DistanceMeters>NAN</DistanceMeters>
          </Trackpoint>
          <Trackpoint>
            <Time>2021-08-03T12:16:33.000Z</Time>
            <Position>
              <LatitudeDegrees>-15.4500823281705379486083984375</LatitudeDegrees>
              <LongitudeDegrees>37.04274541698396205902099609375</LongitudeDegrees>
            </Position>
            <AltitudeMeters>802.5999755859375</AltitudeMeters>
            <DistanceMeters>NAN</DistanceMeters>
          </Trackpoint>
          <Trackpoint>
            <Time>2021-08-03T12:16:36.000Z</Time>
            <Position>
              <LatitudeDegrees>-15.45011795125901699066162109375</LatitudeDegrees>
              <LongitudeDegrees>37.04273007810115814208984375</LongitudeDegrees>
            </Position>
            <AltitudeMeters>802.79998779296875</AltitudeMeters>
            <DistanceMeters>NAN</DistanceMeters>
          </Trackpoint>
          <Trackpoint>
            <Time>2021-08-03T12:16:44.000Z</Time>
            <Position>
              <LatitudeDegrees>-15.45020051300525665283203125</LatitudeDegrees>
              <LongitudeDegrees>37.04266461543738842010498046875</LongitudeDegrees>
            </Position>
            <AltitudeMeters>803</AltitudeMeters>
            <DistanceMeters>NAN</DistanceMeters>
          </Trackpoint>
          <Trackpoint>
            <Time>2021-08-03T12:16:47.000Z</Time>
            <Position>
              <LatitudeDegrees>-15.45024300925433635711669921875</LatitudeDegrees>
              <LongitudeDegrees>37.04264315776526927947998046875</LongitudeDegrees>
            </Position>
            <AltitudeMeters>803</AltitudeMeters>
            <DistanceMeters>NAN</DistanceMeters>
          </Trackpoint>
          <Trackpoint>
            <Time>2021-08-03T12:16:50.000Z</Time>
            <Position>
              <LatitudeDegrees>-15.45026899315416812896728515625</LatitudeDegrees>
              <LongitudeDegrees>37.04262547194957733154296875</LongitudeDegrees>
            </Position>
            <AltitudeMeters>803</AltitudeMeters>
            <DistanceMeters>NAN</DistanceMeters>
          </Trackpoint>
          <Trackpoint>
            <Time>2021-08-03T12:16:51.000Z</Time>
            <Position>
              <LatitudeDegrees>-15.450277291238307952880859375</LatitudeDegrees>
              <LongitudeDegrees>37.04262144863605499267578125</LongitudeDegrees>
            </Position>
            <AltitudeMeters>802.5999755859375</AltitudeMeters>
            <DistanceMeters>NAN</DistanceMeters>
          </Trackpoint>
          <Trackpoint>
            <Time>2021-08-03T12:16:54.000Z</Time>
            <Position>
              <LatitudeDegrees>-15.45030369423329830169677734375</LatitudeDegrees>
              <LongitudeDegrees>37.04260426573455333709716796875</LongitudeDegrees>
            </Position>
            <AltitudeMeters>802.5999755859375</AltitudeMeters>
            <DistanceMeters>NAN</DistanceMeters>
          </Trackpoint>
          <Trackpoint>
            <Time>2021-08-03T12:16:59.000Z</Time>
            <Position>
              <LatitudeDegrees>-15.45036680996417999267578125</LatitudeDegrees>
              <LongitudeDegrees>37.04256369732320308685302734375</LongitudeDegrees>
            </Position>
            <AltitudeMeters>802.4000244140625</AltitudeMeters>
            <DistanceMeters>NAN</DistanceMeters>
          </Trackpoint>
          <Trackpoint>
            <Time>2021-08-03T12:17:00.000Z</Time>
            <Position>
              <LatitudeDegrees>-15.4503810591995716094970703125</LatitudeDegrees>
              <LongitudeDegrees>37.04255640506744384765625</LongitudeDegrees>
            </Position>
            <AltitudeMeters>802.4000244140625</AltitudeMeters>
            <DistanceMeters>NAN</DistanceMeters>
          </Trackpoint>
          <Trackpoint>
            <Time>2021-08-03T12:17:12.000Z</Time>
            <Position>
              <LatitudeDegrees>-15.45050335116684436798095703125</LatitudeDegrees>
              <LongitudeDegrees>37.0424826443195343017578125</LongitudeDegrees>
            </Position>
            <AltitudeMeters>801</AltitudeMeters>
            <DistanceMeters>NAN</DistanceMeters>
          </Trackpoint>
          <Trackpoint>
            <Time>2021-08-03T12:17:20.000Z</Time>
            <Position>
              <LatitudeDegrees>-15.45059613883495330810546875</LatitudeDegrees>
              <LongitudeDegrees>37.04243713058531284332275390625</LongitudeDegrees>
            </Position>
            <AltitudeMeters>800.5999755859375</AltitudeMeters>
            <DistanceMeters>NAN</DistanceMeters>
          </Trackpoint>
          <Trackpoint>
            <Time>2021-08-03T12:17:21.000Z</Time>
            <Position>
              <LatitudeDegrees>-15.45060443691909313201904296875</LatitudeDegrees>
              <LongitudeDegrees>37.04243159852921962738037109375</LongitudeDegrees>
            </Position>
            <AltitudeMeters>800.5999755859375</AltitudeMeters>
            <DistanceMeters>NAN</DistanceMeters>
          </Trackpoint>
          <Trackpoint>
            <Time>2021-08-03T12:17:29.000Z</Time>
            <Position>
              <LatitudeDegrees>-15.45068800449371337890625</LatitudeDegrees>
              <LongitudeDegrees>37.0423932932317256927490234375</LongitudeDegrees>
            </Position>
            <AltitudeMeters>800</AltitudeMeters>
            <DistanceMeters>NAN</DistanceMeters>
          </Trackpoint>
          <Trackpoint>
            <Time>2021-08-03T12:17:34.000Z</Time>
            <Position>
              <LatitudeDegrees>-15.450749360024929046630859375</LatitudeDegrees>
              <LongitudeDegrees>37.04237426631152629852294921875</LongitudeDegrees>
            </Position>
            <AltitudeMeters>800.20001220703125</AltitudeMeters>
            <DistanceMeters>NAN</DistanceMeters>
          </Trackpoint>
          <Trackpoint>
            <Time>2021-08-03T12:17:43.000Z</Time>
            <Position>
              <LatitudeDegrees>-15.45083728618919849395751953125</LatitudeDegrees>
              <LongitudeDegrees>37.0423255674540996551513671875</LongitudeDegrees>
            </Position>
            <AltitudeMeters>799.79998779296875</AltitudeMeters>
            <DistanceMeters>NAN</DistanceMeters>
          </Trackpoint>
          <Trackpoint>
            <Time>2021-08-03T12:17:45.000Z</Time>
            <Position>
              <LatitudeDegrees>-15.450859330594539642333984375</LatitudeDegrees>
              <LongitudeDegrees>37.042318694293498992919921875</LongitudeDegrees>
            </Position>
            <AltitudeMeters>799.79998779296875</AltitudeMeters>
            <DistanceMeters>NAN</DistanceMeters>
          </Trackpoint>
          <Trackpoint>
            <Time>2021-08-03T12:17:46.000Z</Time>
            <Position>
              <LatitudeDegrees>-15.45086913742125034332275390625</LatitudeDegrees>
              <LongitudeDegrees>37.04231425188481807708740234375</LongitudeDegrees>
            </Position>
            <AltitudeMeters>799.79998779296875</AltitudeMeters>
            <DistanceMeters>NAN</DistanceMeters>
          </Trackpoint>
          <Trackpoint>
            <Time>2021-08-03T12:17:49.000Z</Time>
            <Position>
              <LatitudeDegrees>-15.4508985579013824462890625</LatitudeDegrees>
              <LongitudeDegrees>37.042296230792999267578125</LongitudeDegrees>
            </Position>
            <AltitudeMeters>798.4000244140625</AltitudeMeters>
            <DistanceMeters>NAN</DistanceMeters>
          </Trackpoint>
          <Trackpoint>
            <Time>2021-08-03T12:17:55.000Z</Time>
            <Position>
              <LatitudeDegrees>-15.45094884932041168212890625</LatitudeDegrees>
              <LongitudeDegrees>37.0422551594674587249755859375</LongitudeDegrees>
            </Position>
            <AltitudeMeters>797.79998779296875</AltitudeMeters>
            <DistanceMeters>NAN</DistanceMeters>
          </Trackpoint>
          <Trackpoint>
            <Time>2021-08-03T12:17:57.000Z</Time>
            <Position>
              <LatitudeDegrees>-15.4509644396603107452392578125</LatitudeDegrees>
              <LongitudeDegrees>37.042240910232067108154296875</LongitudeDegrees>
            </Position>
            <AltitudeMeters>797.79998779296875</AltitudeMeters>
            <DistanceMeters>NAN</DistanceMeters>
          </Trackpoint>
          <Trackpoint>
            <Time>2021-08-03T12:18:03.000Z</Time>
            <Position>
              <LatitudeDegrees>-15.45098464004695415496826171875</LatitudeDegrees>
              <LongitudeDegrees>37.04217427410185337066650390625</LongitudeDegrees>
            </Position>
            <AltitudeMeters>796.5999755859375</AltitudeMeters>
            <DistanceMeters>NAN</DistanceMeters>
          </Trackpoint>
          <Trackpoint>
            <Time>2021-08-03T12:18:05.000Z</Time>
            <Position>
              <LatitudeDegrees>-15.45098179019987583160400390625</LatitudeDegrees>
              <LongitudeDegrees>37.0421508885920047760009765625</LongitudeDegrees>
            </Position>
            <AltitudeMeters>796.4000244140625</AltitudeMeters>
            <DistanceMeters>NAN</DistanceMeters>
          </Trackpoint>
          <Trackpoint>
            <Time>2021-08-03T12:18:10.000Z</Time>
            <Position>
              <LatitudeDegrees>-15.45093409717082977294921875</LatitudeDegrees>
              <LongitudeDegrees>37.04210939817130565643310546875</LongitudeDegrees>
            </Position>
            <AltitudeMeters>796.20001220703125</AltitudeMeters>
            <DistanceMeters>NAN</DistanceMeters>
          </Trackpoint>
          <Trackpoint>
            <Time>2021-08-03T12:18:12.000Z</Time>
            <Position>
              <LatitudeDegrees>-15.45090870000422000885009765625</LatitudeDegrees>
              <LongitudeDegrees>37.04209146089851856231689453125</LongitudeDegrees>
            </Position>
            <AltitudeMeters>795.79998779296875</AltitudeMeters>
            <DistanceMeters>NAN</DistanceMeters>
          </Trackpoint>
          <Trackpoint>
            <Time>2021-08-03T12:18:13.000Z</Time>
            <Position>
              <LatitudeDegrees>-15.45089780353009700775146484375</LatitudeDegrees>
              <LongitudeDegrees>37.042081989347934722900390625</LongitudeDegrees>
            </Position>
            <AltitudeMeters>795.4000244140625</AltitudeMeters>
            <DistanceMeters>NAN</DistanceMeters>
          </Trackpoint>
          <Trackpoint>
            <Time>2021-08-03T12:18:21.000Z</Time>
            <Position>
              <LatitudeDegrees>-15.450814403593540191650390625</LatitudeDegrees>
              <LongitudeDegrees>37.0420197956264019012451171875</LongitudeDegrees>
            </Position>
            <AltitudeMeters>794.5999755859375</AltitudeMeters>
            <DistanceMeters>NAN</DistanceMeters>
          </Trackpoint>
          <Trackpoint>
            <Time>2021-08-03T12:18:22.000Z</Time>
            <Position>
              <LatitudeDegrees>-15.4508082009851932525634765625</LatitudeDegrees>
              <LongitudeDegrees>37.0420097373425960540771484375</LongitudeDegrees>
            </Position>
            <AltitudeMeters>794.20001220703125</AltitudeMeters>
            <DistanceMeters>NAN</DistanceMeters>
          </Trackpoint>
          <Trackpoint>
            <Time>2021-08-03T12:18:29.000Z</Time>
            <Position>
              <LatitudeDegrees>-15.450742654502391815185546875</LatitudeDegrees>
              <LongitudeDegrees>37.04193673096597194671630859375</LongitudeDegrees>
            </Position>
            <AltitudeMeters>793.4000244140625</AltitudeMeters>
            <DistanceMeters>NAN</DistanceMeters>
          </Trackpoint>
          <Trackpoint>
            <Time>2021-08-03T12:18:31.000Z</Time>
            <Position>
              <LatitudeDegrees>-15.4507250525057315826416015625</LatitudeDegrees>
              <LongitudeDegrees>37.04191326163709163665771484375</LongitudeDegrees>
            </Position>
            <AltitudeMeters>792.5999755859375</AltitudeMeters>
            <DistanceMeters>NAN</DistanceMeters>
          </Trackpoint>
          <Trackpoint>
            <Time>2021-08-03T12:18:37.000Z</Time>
            <Position>
              <LatitudeDegrees>-15.45068456791341304779052734375</LatitudeDegrees>
              <LongitudeDegrees>37.04184218309819698333740234375</LongitudeDegrees>
            </Position>
            <AltitudeMeters>792.20001220703125</AltitudeMeters>
            <DistanceMeters>NAN</DistanceMeters>
          </Trackpoint>
          <Trackpoint>
            <Time>2021-08-03T12:18:40.000Z</Time>
            <Position>
              <LatitudeDegrees>-15.4506818018853664398193359375</LatitudeDegrees>
              <LongitudeDegrees>37.04180832020938396453857421875</LongitudeDegrees>
            </Position>
            <AltitudeMeters>791.5999755859375</AltitudeMeters>
            <DistanceMeters>NAN</DistanceMeters>
          </Trackpoint>
          <Trackpoint>
            <Time>2021-08-03T12:18:42.000Z</Time>
            <Position>
              <LatitudeDegrees>-15.45067794620990753173828125</LatitudeDegrees>
              <LongitudeDegrees>37.04178552143275737762451171875</LongitudeDegrees>
            </Position>
            <AltitudeMeters>791.4000244140625</AltitudeMeters>
            <DistanceMeters>NAN</DistanceMeters>
          </Trackpoint>
          <Trackpoint>
            <Time>2021-08-03T12:18:45.000Z</Time>
            <Position>
              <LatitudeDegrees>-15.450672917068004608154296875</LatitudeDegrees>
              <LongitudeDegrees>37.041738666594028472900390625</LongitudeDegrees>
            </Position>
            <AltitudeMeters>791.5999755859375</AltitudeMeters>
            <DistanceMeters>NAN</DistanceMeters>
          </Trackpoint>
          <Trackpoint>
            <Time>2021-08-03T12:18:53.000Z</Time>
            <Position>
              <LatitudeDegrees>-15.4506935365498065948486328125</LatitudeDegrees>
              <LongitudeDegrees>37.04164755530655384063720703125</LongitudeDegrees>
            </Position>
            <AltitudeMeters>790.5999755859375</AltitudeMeters>
            <DistanceMeters>NAN</DistanceMeters>
          </Trackpoint>
          <Trackpoint>
            <Time>2021-08-03T12:18:55.000Z</Time>
            <Position>
              <LatitudeDegrees>-15.45070535503327846527099609375</LatitudeDegrees>
              <LongitudeDegrees>37.0416265167295932769775390625</LongitudeDegrees>
            </Position>
            <AltitudeMeters>790.79998779296875</AltitudeMeters>
            <DistanceMeters>NAN</DistanceMeters>
          </Trackpoint>
          <Trackpoint>
            <Time>2021-08-03T12:19:05.000Z</Time>
            <Position>
              <LatitudeDegrees>-15.4507632739841938018798828125</LatitudeDegrees>
              <LongitudeDegrees>37.04153104685246944427490234375</LongitudeDegrees>
            </Position>
            <AltitudeMeters>789.79998779296875</AltitudeMeters>
            <DistanceMeters>NAN</DistanceMeters>
          </Trackpoint>
          <Trackpoint>
            <Time>2021-08-03T12:19:07.000Z</Time>
            <Position>
              <LatitudeDegrees>-15.45078012160956859588623046875</LatitudeDegrees>
              <LongitudeDegrees>37.041500620543956756591796875</LongitudeDegrees>
            </Position>
            <AltitudeMeters>789.20001220703125</AltitudeMeters>
            <DistanceMeters>NAN</DistanceMeters>
          </Trackpoint>
          <Trackpoint>
            <Time>2021-08-03T12:19:16.000Z</Time>
            <Position>
              <LatitudeDegrees>-15.450844578444957733154296875</LatitudeDegrees>
              <LongitudeDegrees>37.04138117842376232147216796875</LongitudeDegrees>
            </Position>
            <AltitudeMeters>788.79998779296875</AltitudeMeters>
            <DistanceMeters>NAN</DistanceMeters>
          </Trackpoint>
          <Trackpoint>
            <Time>2021-08-03T12:19:18.000Z</Time>
            <Position>
              <LatitudeDegrees>-15.450855307281017303466796875</LatitudeDegrees>
              <LongitudeDegrees>37.041362486779689788818359375</LongitudeDegrees>
            </Position>
            <AltitudeMeters>788</AltitudeMeters>
            <DistanceMeters>NAN</DistanceMeters>
          </Trackpoint>
          <Trackpoint>
            <Time>2021-08-03T12:19:25.000Z</Time>
            <Position>
              <LatitudeDegrees>-15.45088338665664196014404296875</LatitudeDegrees>
              <LongitudeDegrees>37.041278667747974395751953125</LongitudeDegrees>
            </Position>
            <AltitudeMeters>787</AltitudeMeters>
            <DistanceMeters>NAN</DistanceMeters>
          </Trackpoint>
          <Trackpoint>
            <Time>2021-08-03T12:19:26.000Z</Time>
            <Position>
              <LatitudeDegrees>-15.45088740997016429901123046875</LatitudeDegrees>
              <LongitudeDegrees>37.04125821590423583984375</LongitudeDegrees>
            </Position>
            <AltitudeMeters>787</AltitudeMeters>
            <DistanceMeters>NAN</DistanceMeters>
          </Trackpoint>
          <Trackpoint>
            <Time>2021-08-03T12:19:32.000Z</Time>
            <Position>
              <LatitudeDegrees>-15.45091004110872745513916015625</LatitudeDegrees>
              <LongitudeDegrees>37.04117263667285442352294921875</LongitudeDegrees>
            </Position>
            <AltitudeMeters>785.79998779296875</AltitudeMeters>
            <DistanceMeters>NAN</DistanceMeters>
          </Trackpoint>
          <Trackpoint>
            <Time>2021-08-03T12:19:36.000Z</Time>
            <Position>
              <LatitudeDegrees>-15.4509215243160724639892578125</LatitudeDegrees>
              <LongitudeDegrees>37.0411366783082485198974609375</LongitudeDegrees>
            </Position>
            <AltitudeMeters>785.4000244140625</AltitudeMeters>
            <DistanceMeters>NAN</DistanceMeters>
          </Trackpoint>
          <Trackpoint>
            <Time>2021-08-03T12:19:41.000Z</Time>
            <Position>
              <LatitudeDegrees>-15.45093669556081295013427734375</LatitudeDegrees>
              <LongitudeDegrees>37.04107389785349369049072265625</LongitudeDegrees>
            </Position>
            <AltitudeMeters>784.5999755859375</AltitudeMeters>
            <DistanceMeters>NAN</DistanceMeters>
          </Trackpoint>
          <Trackpoint>
            <Time>2021-08-03T12:19:45.000Z</Time>
            <Position>
              <LatitudeDegrees>-15.4509459994733333587646484375</LatitudeDegrees>
              <LongitudeDegrees>37.04101606272161006927490234375</LongitudeDegrees>
            </Position>
            <AltitudeMeters>783.5999755859375</AltitudeMeters>
            <DistanceMeters>NAN</DistanceMeters>
          </Trackpoint>
          <Trackpoint>
            <Time>2021-08-03T12:19:47.000Z</Time>
            <Position>
              <LatitudeDegrees>-15.45095019042491912841796875</LatitudeDegrees>
              <LongitudeDegrees>37.0409891568124294281005859375</LongitudeDegrees>
            </Position>
            <AltitudeMeters>783.20001220703125</AltitudeMeters>
            <DistanceMeters>NAN</DistanceMeters>
          </Trackpoint>
          <Trackpoint>
            <Time>2021-08-03T12:19:49.000Z</Time>
            <Position>
              <LatitudeDegrees>-15.45095647685229778289794921875</LatitudeDegrees>
              <LongitudeDegrees>37.0409606583416461944580078125</LongitudeDegrees>
            </Position>
            <AltitudeMeters>782.5999755859375</AltitudeMeters>
            <DistanceMeters>NAN</DistanceMeters>
          </Trackpoint>
          <Trackpoint>
            <Time>2021-08-03T12:19:56.000Z</Time>
            <Position>
              <LatitudeDegrees>-15.4509951174259185791015625</LatitudeDegrees>
              <LongitudeDegrees>37.04087038524448871612548828125</LongitudeDegrees>
            </Position>
            <AltitudeMeters>782</AltitudeMeters>
            <DistanceMeters>NAN</DistanceMeters>
          </Trackpoint>
          <Trackpoint>
            <Time>2021-08-03T12:20:01.000Z</Time>
            <Position>
              <LatitudeDegrees>-15.4510130546987056732177734375</LatitudeDegrees>
              <LongitudeDegrees>37.04081229865550994873046875</LongitudeDegrees>
            </Position>
            <AltitudeMeters>781</AltitudeMeters>
            <DistanceMeters>NAN</DistanceMeters>
          </Trackpoint>
          <Trackpoint>
            <Time>2021-08-03T12:20:04.000Z</Time>
            <Position>
              <LatitudeDegrees>-15.4510224424302577972412109375</LatitudeDegrees>
              <LongitudeDegrees>37.04078011214733123779296875</LongitudeDegrees>
            </Position>
            <AltitudeMeters>780.4000244140625</AltitudeMeters>
            <DistanceMeters>NAN</DistanceMeters>
          </Trackpoint>
          <Trackpoint>
            <Time>2021-08-03T12:20:08.000Z</Time>
            <Position>
              <LatitudeDegrees>-15.451037697494029998779296875</LatitudeDegrees>
              <LongitudeDegrees>37.0407393760979175567626953125</LongitudeDegrees>
            </Position>
            <AltitudeMeters>780</AltitudeMeters>
            <DistanceMeters>NAN</DistanceMeters>
          </Trackpoint>
          <Trackpoint>
            <Time>2021-08-03T12:20:12.000Z</Time>
            <Position>
              <LatitudeDegrees>-15.4510744102299213409423828125</LatitudeDegrees>
              <LongitudeDegrees>37.04069302417337894439697265625</LongitudeDegrees>
            </Position>
            <AltitudeMeters>779.4000244140625</AltitudeMeters>
            <DistanceMeters>NAN</DistanceMeters>
          </Trackpoint>
          <Trackpoint>
            <Time>2021-08-03T12:20:13.000Z</Time>
            <Position>
              <LatitudeDegrees>-15.4510884918272495269775390625</LatitudeDegrees>
              <LongitudeDegrees>37.04068087041378021240234375</LongitudeDegrees>
            </Position>
            <AltitudeMeters>779.20001220703125</AltitudeMeters>
            <DistanceMeters>NAN</DistanceMeters>
          </Trackpoint>
          <Trackpoint>
            <Time>2021-08-03T12:20:20.000Z</Time>
            <Position>
              <LatitudeDegrees>-15.45115831308066844940185546875</LatitudeDegrees>
              <LongitudeDegrees>37.0406233705580234527587890625</LongitudeDegrees>
            </Position>
            <AltitudeMeters>779</AltitudeMeters>
            <DistanceMeters>NAN</DistanceMeters>
          </Trackpoint>
          <Trackpoint>
            <Time>2021-08-03T12:20:27.000Z</Time>
            <Position>
              <LatitudeDegrees>-15.45124213211238384246826171875</LatitudeDegrees>
              <LongitudeDegrees>37.04058104194700717926025390625</LongitudeDegrees>
            </Position>
            <AltitudeMeters>778.20001220703125</AltitudeMeters>
            <DistanceMeters>NAN</DistanceMeters>
          </Trackpoint>
          <Trackpoint>
            <Time>2021-08-03T12:20:30.000Z</Time>
            <Position>
              <LatitudeDegrees>-15.45128345489501953125</LatitudeDegrees>
              <LongitudeDegrees>37.0405700616538524627685546875</LongitudeDegrees>
            </Position>
            <AltitudeMeters>778.20001220703125</AltitudeMeters>
            <DistanceMeters>NAN</DistanceMeters>
          </Trackpoint>
          <Trackpoint>
            <Time>2021-08-03T12:20:37.000Z</Time>
            <Position>
              <LatitudeDegrees>-15.4513691179454326629638671875</LatitudeDegrees>
              <LongitudeDegrees>37.04055220820009708404541015625</LongitudeDegrees>
            </Position>
            <AltitudeMeters>777.79998779296875</AltitudeMeters>
            <DistanceMeters>NAN</DistanceMeters>
          </Trackpoint>
          <Trackpoint>
            <Time>2021-08-03T12:20:39.000Z</Time>
            <Position>
              <LatitudeDegrees>-15.45140122063457965850830078125</LatitudeDegrees>
              <LongitudeDegrees>37.04054499976336956024169921875</LongitudeDegrees>
            </Position>
            <AltitudeMeters>777.79998779296875</AltitudeMeters>
            <DistanceMeters>NAN</DistanceMeters>
          </Trackpoint>
          <Trackpoint>
            <Time>2021-08-03T12:20:47.000Z</Time>
            <Position>
              <LatitudeDegrees>-15.4515032283961772918701171875</LatitudeDegrees>
              <LongitudeDegrees>37.04053192399442195892333984375</LongitudeDegrees>
            </Position>
            <AltitudeMeters>777.4000244140625</AltitudeMeters>
            <DistanceMeters>NAN</DistanceMeters>
          </Trackpoint>
          <Trackpoint>
            <Time>2021-08-03T12:20:50.000Z</Time>
            <Position>
              <LatitudeDegrees>-15.4515434615314006805419921875</LatitudeDegrees>
              <LongitudeDegrees>37.04053334891796112060546875</LongitudeDegrees>
            </Position>
            <AltitudeMeters>777.20001220703125</AltitudeMeters>
            <DistanceMeters>NAN</DistanceMeters>
          </Trackpoint>
          <Trackpoint>
            <Time>2021-08-03T12:20:53.000Z</Time>
            <Position>
              <LatitudeDegrees>-15.45158377848565578460693359375</LatitudeDegrees>
              <LongitudeDegrees>37.04052018932998180389404296875</LongitudeDegrees>
            </Position>
            <AltitudeMeters>776.4000244140625</AltitudeMeters>
            <DistanceMeters>NAN</DistanceMeters>
          </Trackpoint>
          <Trackpoint>
            <Time>2021-08-03T12:20:56.000Z</Time>
            <Position>
              <LatitudeDegrees>-15.4516120254993438720703125</LatitudeDegrees>
              <LongitudeDegrees>37.0405036769807338714599609375</LongitudeDegrees>
            </Position>
            <AltitudeMeters>776.4000244140625</AltitudeMeters>
            <DistanceMeters>NAN</DistanceMeters>
          </Trackpoint>
          <Trackpoint>
            <Time>2021-08-03T12:21:00.000Z</Time>
            <Position>
              <LatitudeDegrees>-15.4516738839447498321533203125</LatitudeDegrees>
              <LongitudeDegrees>37.04048649407923221588134765625</LongitudeDegrees>
            </Position>
            <AltitudeMeters>776</AltitudeMeters>
            <DistanceMeters>NAN</DistanceMeters>
          </Trackpoint>
          <Trackpoint>
            <Time>2021-08-03T12:21:04.000Z</Time>
            <Position>
              <LatitudeDegrees>-15.45170716010034084320068359375</LatitudeDegrees>
              <LongitudeDegrees>37.0404560677707195281982421875</LongitudeDegrees>
            </Position>
            <AltitudeMeters>775.79998779296875</AltitudeMeters>
            <DistanceMeters>NAN</DistanceMeters>
          </Trackpoint>
          <Trackpoint>
            <Time>2021-08-03T12:21:06.000Z</Time>
            <Position>
              <LatitudeDegrees>-15.45172979123890399932861328125</LatitudeDegrees>
              <LongitudeDegrees>37.0404386334121227264404296875</LongitudeDegrees>
            </Position>
            <AltitudeMeters>775.5999755859375</AltitudeMeters>
            <DistanceMeters>NAN</DistanceMeters>
          </Trackpoint>
          <Trackpoint>
            <Time>2021-08-03T12:21:07.000Z</Time>
            <Position>
              <LatitudeDegrees>-15.45174010097980499267578125</LatitudeDegrees>
              <LongitudeDegrees>37.04042983241379261016845703125</LongitudeDegrees>
            </Position>
            <AltitudeMeters>775.4000244140625</AltitudeMeters>
            <DistanceMeters>NAN</DistanceMeters>
          </Trackpoint>
          <Trackpoint>
            <Time>2021-08-03T12:21:14.000Z</Time>
            <Position>
              <LatitudeDegrees>-15.4517855308949947357177734375</LatitudeDegrees>
              <LongitudeDegrees>37.04035825096070766448974609375</LongitudeDegrees>
            </Position>
            <AltitudeMeters>775.5999755859375</AltitudeMeters>
            <DistanceMeters>NAN</DistanceMeters>
          </Trackpoint>
          <Trackpoint>
            <Time>2021-08-03T12:21:24.000Z</Time>
            <Position>
              <LatitudeDegrees>-15.451857112348079681396484375</LatitudeDegrees>
              <LongitudeDegrees>37.04024861566722393035888671875</LongitudeDegrees>
            </Position>
            <AltitudeMeters>775.20001220703125</AltitudeMeters>
            <DistanceMeters>NAN</DistanceMeters>
          </Trackpoint>
          <Trackpoint>
            <Time>2021-08-03T12:21:33.000Z</Time>
            <Position>
              <LatitudeDegrees>-15.4519419372081756591796875</LatitudeDegrees>
              <LongitudeDegrees>37.04015390016138553619384765625</LongitudeDegrees>
            </Position>
            <AltitudeMeters>774.4000244140625</AltitudeMeters>
            <DistanceMeters>NAN</DistanceMeters>
          </Trackpoint>
          <Trackpoint>
            <Time>2021-08-03T12:21:36.000Z</Time>
            <Position>
              <LatitudeDegrees>-15.45196264050900936126708984375</LatitudeDegrees>
              <LongitudeDegrees>37.04012162983417510986328125</LongitudeDegrees>
            </Position>
            <AltitudeMeters>774</AltitudeMeters>
            <DistanceMeters>NAN</DistanceMeters>
          </Trackpoint>
          <Trackpoint>
            <Time>2021-08-03T12:21:40.000Z</Time>
            <Position>
              <LatitudeDegrees>-15.4519927315413951873779296875</LatitudeDegrees>
              <LongitudeDegrees>37.0400768704712390899658203125</LongitudeDegrees>
            </Position>
            <AltitudeMeters>773.79998779296875</AltitudeMeters>
            <DistanceMeters>NAN</DistanceMeters>
          </Trackpoint>
          <Trackpoint>
            <Time>2021-08-03T12:21:43.000Z</Time>
            <Position>
              <LatitudeDegrees>-15.4520108364522457122802734375</LatitudeDegrees>
              <LongitudeDegrees>37.04004577361047267913818359375</LongitudeDegrees>
            </Position>
            <AltitudeMeters>773.5999755859375</AltitudeMeters>
            <DistanceMeters>NAN</DistanceMeters>
          </Trackpoint>
          <Trackpoint>
            <Time>2021-08-03T12:21:44.000Z</Time>
            <Position>
              <LatitudeDegrees>-15.45201494358479976654052734375</LatitudeDegrees>
              <LongitudeDegrees>37.04003202728927135467529296875</LongitudeDegrees>
            </Position>
            <AltitudeMeters>773.5999755859375</AltitudeMeters>
            <DistanceMeters>NAN</DistanceMeters>
          </Trackpoint>
          <Trackpoint>
            <Time>2021-08-03T12:21:49.000Z</Time>
            <Position>
              <LatitudeDegrees>-15.45203690417110919952392578125</LatitudeDegrees>
              <LongitudeDegrees>37.03997075557708740234375</LongitudeDegrees>
            </Position>
            <AltitudeMeters>773.20001220703125</AltitudeMeters>
            <DistanceMeters>NAN</DistanceMeters>
          </Trackpoint>
          <Trackpoint>
            <Time>2021-08-03T12:21:50.000Z</Time>
            <Position>
              <LatitudeDegrees>-15.45204143039882183074951171875</LatitudeDegrees>
              <LongitudeDegrees>37.039952985942363739013671875</LongitudeDegrees>
            </Position>
            <AltitudeMeters>772.79998779296875</AltitudeMeters>
            <DistanceMeters>NAN</DistanceMeters>
          </Trackpoint>
          <Trackpoint>
            <Time>2021-08-03T12:21:54.000Z</Time>
            <Position>
              <LatitudeDegrees>-15.4520571045577526092529296875</LatitudeDegrees>
              <LongitudeDegrees>37.03989724628627300262451171875</LongitudeDegrees>
            </Position>
            <AltitudeMeters>771.5999755859375</AltitudeMeters>
            <DistanceMeters>NAN</DistanceMeters>
          </Trackpoint>
          <Trackpoint>
            <Time>2021-08-03T12:21:57.000Z</Time>
            <Position>
              <LatitudeDegrees>-15.45207143761217594146728515625</LatitudeDegrees>
              <LongitudeDegrees>37.03985885716974735260009765625</LongitudeDegrees>
            </Position>
            <AltitudeMeters>770.79998779296875</AltitudeMeters>
            <DistanceMeters>NAN</DistanceMeters>
          </Trackpoint>
          <Trackpoint>
            <Time>2021-08-03T12:21:59.000Z</Time>
            <Position>
              <LatitudeDegrees>-15.4520785622298717498779296875</LatitudeDegrees>
              <LongitudeDegrees>37.03983002342283725738525390625</LongitudeDegrees>
            </Position>
            <AltitudeMeters>770.4000244140625</AltitudeMeters>
            <DistanceMeters>NAN</DistanceMeters>
          </Trackpoint>
          <Trackpoint>
            <Time>2021-08-03T12:22:02.000Z</Time>
            <Position>
              <LatitudeDegrees>-15.452085100114345550537109375</LatitudeDegrees>
              <LongitudeDegrees>37.03979565761983394622802734375</LongitudeDegrees>
            </Position>
            <AltitudeMeters>770</AltitudeMeters>
            <DistanceMeters>NAN</DistanceMeters>
          </Trackpoint>
          <Trackpoint>
            <Time>2021-08-03T12:22:03.000Z</Time>
            <Position>
              <LatitudeDegrees>-15.4520879499614238739013671875</LatitudeDegrees>
              <LongitudeDegrees>37.039782665669918060302734375</LongitudeDegrees>
            </Position>
            <AltitudeMeters>769.20001220703125</AltitudeMeters>
            <DistanceMeters>NAN</DistanceMeters>
          </Trackpoint>
          <Trackpoint>
            <Time>2021-08-03T12:22:08.000Z</Time>
            <Position>
              <LatitudeDegrees>-15.45210781507194042205810546875</LatitudeDegrees>
              <LongitudeDegrees>37.0397047139704227447509765625</LongitudeDegrees>
            </Position>
            <AltitudeMeters>768</AltitudeMeters>
            <DistanceMeters>NAN</DistanceMeters>
          </Trackpoint>
          <Trackpoint>
            <Time>2021-08-03T12:22:15.000Z</Time>
            <Position>
              <LatitudeDegrees>-15.452133379876613616943359375</LatitudeDegrees>
              <LongitudeDegrees>37.03960505314171314239501953125</LongitudeDegrees>
            </Position>
            <AltitudeMeters>767.5999755859375</AltitudeMeters>
            <DistanceMeters>NAN</DistanceMeters>
          </Trackpoint>
          <Trackpoint>
            <Time>2021-08-03T12:22:22.000Z</Time>
            <Position>
              <LatitudeDegrees>-15.4521580226719379425048828125</LatitudeDegrees>
              <LongitudeDegrees>37.039523832499980926513671875</LongitudeDegrees>
            </Position>
            <AltitudeMeters>767</AltitudeMeters>
            <DistanceMeters>NAN</DistanceMeters>
          </Trackpoint>
          <Trackpoint>
            <Time>2021-08-03T12:22:26.000Z</Time>
            <Position>
              <LatitudeDegrees>-15.45216833241283893585205078125</LatitudeDegrees>
              <LongitudeDegrees>37.03947479836642742156982421875</LongitudeDegrees>
            </Position>
            <AltitudeMeters>766.20001220703125</AltitudeMeters>
            <DistanceMeters>NAN</DistanceMeters>
          </Trackpoint>
          <Trackpoint>
            <Time>2021-08-03T12:22:27.000Z</Time>
            <Position>
              <LatitudeDegrees>-15.45216967351734638214111328125</LatitudeDegrees>
              <LongitudeDegrees>37.0394656620919704437255859375</LongitudeDegrees>
            </Position>
            <AltitudeMeters>765.79998779296875</AltitudeMeters>
            <DistanceMeters>NAN</DistanceMeters>
          </Trackpoint>
          <Trackpoint>
            <Time>2021-08-03T12:22:32.000Z</Time>
            <Position>
              <LatitudeDegrees>-15.45217604376375675201416015625</LatitudeDegrees>
              <LongitudeDegrees>37.03941159881651401519775390625</LongitudeDegrees>
            </Position>
            <AltitudeMeters>764.5999755859375</AltitudeMeters>
            <DistanceMeters>NAN</DistanceMeters>
          </Trackpoint>
          <Trackpoint>
            <Time>2021-08-03T12:22:36.000Z</Time>
            <Position>
              <LatitudeDegrees>-15.45218727551400661468505859375</LatitudeDegrees>
              <LongitudeDegrees>37.039368264377117156982421875</LongitudeDegrees>
            </Position>
            <AltitudeMeters>763.79998779296875</AltitudeMeters>
            <DistanceMeters>NAN</DistanceMeters>
          </Trackpoint>
          <Trackpoint>
            <Time>2021-08-03T12:22:37.000Z</Time>
            <Position>
              <LatitudeDegrees>-15.45218844898045063018798828125</LatitudeDegrees>
              <LongitudeDegrees>37.0393573679029941558837890625</LongitudeDegrees>
            </Position>
            <AltitudeMeters>763.4000244140625</AltitudeMeters>
            <DistanceMeters>NAN</DistanceMeters>
          </Trackpoint>
          <Trackpoint>
            <Time>2021-08-03T12:22:45.000Z</Time>
            <Position>
              <LatitudeDegrees>-15.45219582505524158477783203125</LatitudeDegrees>
              <LongitudeDegrees>37.03924714587628841400146484375</LongitudeDegrees>
            </Position>
            <AltitudeMeters>762.4000244140625</AltitudeMeters>
            <DistanceMeters>NAN</DistanceMeters>
          </Trackpoint>
          <Trackpoint>
            <Time>2021-08-03T12:22:47.000Z</Time>
            <Position>
              <LatitudeDegrees>-15.45220018364489078521728515625</LatitudeDegrees>
              <LongitudeDegrees>37.039212696254253387451171875</LongitudeDegrees>
            </Position>
            <AltitudeMeters>761.4000244140625</AltitudeMeters>
            <DistanceMeters>NAN</DistanceMeters>
          </Trackpoint>
          <Trackpoint>
            <Time>2021-08-03T12:22:50.000Z</Time>
            <Position>
              <LatitudeDegrees>-15.4522079788148403167724609375</LatitudeDegrees>
              <LongitudeDegrees>37.039162404835224151611328125</LongitudeDegrees>
            </Position>
            <AltitudeMeters>760.79998779296875</AltitudeMeters>
            <DistanceMeters>NAN</DistanceMeters>
          </Trackpoint>
          <Trackpoint>
            <Time>2021-08-03T12:22:54.000Z</Time>
            <Position>
              <LatitudeDegrees>-15.4522177018225193023681640625</LatitudeDegrees>
              <LongitudeDegrees>37.03909970819950103759765625</LongitudeDegrees>
            </Position>
            <AltitudeMeters>760.20001220703125</AltitudeMeters>
            <DistanceMeters>NAN</DistanceMeters>
          </Trackpoint>
          <Trackpoint>
            <Time>2021-08-03T12:22:55.000Z</Time>
            <Position>
              <LatitudeDegrees>-15.452218540012836456298828125</LatitudeDegrees>
              <LongitudeDegrees>37.03908822499215602874755859375</LongitudeDegrees>
            </Position>
            <AltitudeMeters>760.20001220703125</AltitudeMeters>
            <DistanceMeters>NAN</DistanceMeters>
          </Trackpoint>
          <Trackpoint>
            <Time>2021-08-03T12:23:00.000Z</Time>
            <Position>
              <LatitudeDegrees>-15.4522240720689296722412109375</LatitudeDegrees>
              <LongitudeDegrees>37.03903692774474620819091796875</LongitudeDegrees>
            </Position>
            <AltitudeMeters>759.20001220703125</AltitudeMeters>
            <DistanceMeters>NAN</DistanceMeters>
          </Trackpoint>
          <Trackpoint>
            <Time>2021-08-03T12:23:05.000Z</Time>
            <Position>
              <LatitudeDegrees>-15.45222851447761058807373046875</LatitudeDegrees>
              <LongitudeDegrees>37.0389741472899913787841796875</LongitudeDegrees>
            </Position>
            <AltitudeMeters>758.5999755859375</AltitudeMeters>
            <DistanceMeters>NAN</DistanceMeters>
          </Trackpoint>
          <Trackpoint>
            <Time>2021-08-03T12:23:08.000Z</Time>
            <Position>
              <LatitudeDegrees>-15.4522342979907989501953125</LatitudeDegrees>
              <LongitudeDegrees>37.0389287173748016357421875</LongitudeDegrees>
            </Position>
            <AltitudeMeters>758.20001220703125</AltitudeMeters>
            <DistanceMeters>NAN</DistanceMeters>
          </Trackpoint>
          <Trackpoint>
            <Time>2021-08-03T12:23:12.000Z</Time>
            <Position>
              <LatitudeDegrees>-15.45223874039947986602783203125</LatitudeDegrees>
              <LongitudeDegrees>37.038864009082317352294921875</LongitudeDegrees>
            </Position>
            <AltitudeMeters>757.20001220703125</AltitudeMeters>
            <DistanceMeters>NAN</DistanceMeters>
          </Trackpoint>
          <Trackpoint>
            <Time>2021-08-03T12:23:16.000Z</Time>
            <Position>
              <LatitudeDegrees>-15.452248714864253997802734375</LatitudeDegrees>
              <LongitudeDegrees>37.038803659379482269287109375</LongitudeDegrees>
            </Position>
            <AltitudeMeters>756.79998779296875</AltitudeMeters>
            <DistanceMeters>NAN</DistanceMeters>
          </Trackpoint>
          <Trackpoint>
            <Time>2021-08-03T12:23:26.000Z</Time>
            <Position>
              <LatitudeDegrees>-15.45226707123219966888427734375</LatitudeDegrees>
              <LongitudeDegrees>37.03868907876312732696533203125</LongitudeDegrees>
            </Position>
            <AltitudeMeters>755.79998779296875</AltitudeMeters>
            <DistanceMeters>NAN</DistanceMeters>
          </Trackpoint>
          <Trackpoint>
            <Time>2021-08-03T12:23:35.000Z</Time>
            <Position>
              <LatitudeDegrees>-15.4522812366485595703125</LatitudeDegrees>
              <LongitudeDegrees>37.03856670297682285308837890625</LongitudeDegrees>
            </Position>
            <AltitudeMeters>755.4000244140625</AltitudeMeters>
            <DistanceMeters>NAN</DistanceMeters>
          </Trackpoint>
          <Trackpoint>
            <Time>2021-08-03T12:23:42.000Z</Time>
            <Position>
              <LatitudeDegrees>-15.45229238457977771759033203125</LatitudeDegrees>
              <LongitudeDegrees>37.038479112088680267333984375</LongitudeDegrees>
            </Position>
            <AltitudeMeters>754.79998779296875</AltitudeMeters>
            <DistanceMeters>NAN</DistanceMeters>
          </Trackpoint>
          <Trackpoint>
            <Time>2021-08-03T12:23:43.000Z</Time>
            <Position>
              <LatitudeDegrees>-15.45229439623653888702392578125</LatitudeDegrees>
              <LongitudeDegrees>37.038465030491352081298828125</LongitudeDegrees>
            </Position>
            <AltitudeMeters>754.79998779296875</AltitudeMeters>
            <DistanceMeters>NAN</DistanceMeters>
          </Trackpoint>
          <Trackpoint>
            <Time>2021-08-03T12:23:51.000Z</Time>
            <Position>
              <LatitudeDegrees>-15.45230914838612079620361328125</LatitudeDegrees>
              <LongitudeDegrees>37.03836168162524700164794921875</LongitudeDegrees>
            </Position>
            <AltitudeMeters>754.20001220703125</AltitudeMeters>
            <DistanceMeters>NAN</DistanceMeters>
          </Trackpoint>
          <Trackpoint>
            <Time>2021-08-03T12:23:53.000Z</Time>
            <Position>
              <LatitudeDegrees>-15.45231417752802371978759765625</LatitudeDegrees>
              <LongitudeDegrees>37.0383441634476184844970703125</LongitudeDegrees>
            </Position>
            <AltitudeMeters>754</AltitudeMeters>
            <DistanceMeters>NAN</DistanceMeters>
          </Trackpoint>
          <Trackpoint>
            <Time>2021-08-03T12:23:56.000Z</Time>
            <Position>
              <LatitudeDegrees>-15.4523216374218463897705078125</LatitudeDegrees>
              <LongitudeDegrees>37.038299404084682464599609375</LongitudeDegrees>
            </Position>
            <AltitudeMeters>753.4000244140625</AltitudeMeters>
            <DistanceMeters>NAN</DistanceMeters>
          </Trackpoint>
          <Trackpoint>
            <Time>2021-08-03T12:24:00.000Z</Time>
            <Position>
              <LatitudeDegrees>-15.45233161188662052154541015625</LatitudeDegrees>
              <LongitudeDegrees>37.03825120814144611358642578125</LongitudeDegrees>
            </Position>
            <AltitudeMeters>753.20001220703125</AltitudeMeters>
            <DistanceMeters>NAN</DistanceMeters>
          </Trackpoint>
          <Trackpoint>
            <Time>2021-08-03T12:24:03.000Z</Time>
            <Position>
              <LatitudeDegrees>-15.45234116725623607635498046875</LatitudeDegrees>
              <LongitudeDegrees>37.038212902843952178955078125</LongitudeDegrees>
            </Position>
            <AltitudeMeters>753.20001220703125</AltitudeMeters>
            <DistanceMeters>NAN</DistanceMeters>
          </Trackpoint>
          <Trackpoint>
            <Time>2021-08-03T12:24:05.000Z</Time>
            <Position>
              <LatitudeDegrees>-15.4523424245417118072509765625</LatitudeDegrees>
              <LongitudeDegrees>37.0381859131157398223876953125</LongitudeDegrees>
            </Position>
            <AltitudeMeters>753</AltitudeMeters>
            <DistanceMeters>NAN</DistanceMeters>
          </Trackpoint>
          <Trackpoint>
            <Time>2021-08-03T12:24:12.000Z</Time>
            <Position>
              <LatitudeDegrees>-15.45234720222651958465576171875</LatitudeDegrees>
              <LongitudeDegrees>37.03809279017150402069091796875</LongitudeDegrees>
            </Position>
            <AltitudeMeters>752.79998779296875</AltitudeMeters>
            <DistanceMeters>NAN</DistanceMeters>
          </Trackpoint>
          <Trackpoint>
            <Time>2021-08-03T12:24:15.000Z</Time>
            <Position>
              <LatitudeDegrees>-15.45235642232000827789306640625</LatitudeDegrees>
              <LongitudeDegrees>37.038052640855312347412109375</LongitudeDegrees>
            </Position>
            <AltitudeMeters>752.79998779296875</AltitudeMeters>
            <DistanceMeters>NAN</DistanceMeters>
          </Trackpoint>
          <Trackpoint>
            <Time>2021-08-03T12:24:20.000Z</Time>
            <Position>
              <LatitudeDegrees>-15.45236731879413127899169921875</LatitudeDegrees>
              <LongitudeDegrees>37.03799086622893810272216796875</LongitudeDegrees>
            </Position>
            <AltitudeMeters>753</AltitudeMeters>
            <DistanceMeters>NAN</DistanceMeters>
          </Trackpoint>
          <Trackpoint>
            <Time>2021-08-03T12:24:26.000Z</Time>
            <Position>
              <LatitudeDegrees>-15.45238114893436431884765625</LatitudeDegrees>
              <LongitudeDegrees>37.03790151514112949371337890625</LongitudeDegrees>
            </Position>
            <AltitudeMeters>752.79998779296875</AltitudeMeters>
            <DistanceMeters>NAN</DistanceMeters>
          </Trackpoint>
          <Trackpoint>
            <Time>2021-08-03T12:24:30.000Z</Time>
            <Position>
              <LatitudeDegrees>-15.4523927159607410430908203125</LatitudeDegrees>
              <LongitudeDegrees>37.03785776160657405853271484375</LongitudeDegrees>
            </Position>
            <AltitudeMeters>752.5999755859375</AltitudeMeters>
            <DistanceMeters>NAN</DistanceMeters>
          </Trackpoint>
          <Trackpoint>
            <Time>2021-08-03T12:24:32.000Z</Time>
            <Position>
              <LatitudeDegrees>-15.45239699073135852813720703125</LatitudeDegrees>
              <LongitudeDegrees>37.037837393581867218017578125</LongitudeDegrees>
            </Position>
            <AltitudeMeters>752.5999755859375</AltitudeMeters>
            <DistanceMeters>NAN</DistanceMeters>
          </Trackpoint>
          <Trackpoint>
            <Time>2021-08-03T12:24:33.000Z</Time>
            <Position>
              <LatitudeDegrees>-15.45239883475005626678466796875</LatitudeDegrees>
              <LongitudeDegrees>37.03782708384096622467041015625</LongitudeDegrees>
            </Position>
            <AltitudeMeters>752.4000244140625</AltitudeMeters>
            <DistanceMeters>NAN</DistanceMeters>
          </Trackpoint>
          <Trackpoint>
            <Time>2021-08-03T12:24:43.000Z</Time>
            <Position>
              <LatitudeDegrees>-15.45243253000080585479736328125</LatitudeDegrees>
              <LongitudeDegrees>37.0376970805227756500244140625</LongitudeDegrees>
            </Position>
            <AltitudeMeters>751.5999755859375</AltitudeMeters>
            <DistanceMeters>NAN</DistanceMeters>
          </Trackpoint>
          <Trackpoint>
            <Time>2021-08-03T12:24:49.000Z</Time>
            <Position>
              <LatitudeDegrees>-15.45246270485222339630126953125</LatitudeDegrees>
              <LongitudeDegrees>37.03762541525065898895263671875</LongitudeDegrees>
            </Position>
            <AltitudeMeters>751.5999755859375</AltitudeMeters>
            <DistanceMeters>NAN</DistanceMeters>
          </Trackpoint>
          <Trackpoint>
            <Time>2021-08-03T12:24:51.000Z</Time>
            <Position>
              <LatitudeDegrees>-15.4524745233356952667236328125</LatitudeDegrees>
              <LongitudeDegrees>37.03760513104498386383056640625</LongitudeDegrees>
            </Position>
            <AltitudeMeters>751.5999755859375</AltitudeMeters>
            <DistanceMeters>NAN</DistanceMeters>
          </Trackpoint>
          <Trackpoint>
            <Time>2021-08-03T12:24:58.000Z</Time>
            <Position>
              <LatitudeDegrees>-15.452517606317996978759765625</LatitudeDegrees>
              <LongitudeDegrees>37.03754394315183162689208984375</LongitudeDegrees>
            </Position>
            <AltitudeMeters>751.5999755859375</AltitudeMeters>
            <DistanceMeters>NAN</DistanceMeters>
          </Trackpoint>
          <Trackpoint>
            <Time>2021-08-03T12:25:05.000Z</Time>
            <Position>
              <LatitudeDegrees>-15.45256345532834529876708984375</LatitudeDegrees>
              <LongitudeDegrees>37.037478648126125335693359375</LongitudeDegrees>
            </Position>
            <AltitudeMeters>752.20001220703125</AltitudeMeters>
            <DistanceMeters>NAN</DistanceMeters>
          </Trackpoint>
          <Trackpoint>
            <Time>2021-08-03T12:25:09.000Z</Time>
            <Position>
              <LatitudeDegrees>-15.45260469429194927215576171875</LatitudeDegrees>
              <LongitudeDegrees>37.037441097199916839599609375</LongitudeDegrees>
            </Position>
            <AltitudeMeters>752.20001220703125</AltitudeMeters>
            <DistanceMeters>NAN</DistanceMeters>
          </Trackpoint>
          <Trackpoint>
            <Time>2021-08-03T12:25:14.000Z</Time>
            <Position>
              <LatitudeDegrees>-15.452640987932682037353515625</LatitudeDegrees>
              <LongitudeDegrees>37.0373996905982494354248046875</LongitudeDegrees>
            </Position>
            <AltitudeMeters>752.79998779296875</AltitudeMeters>
            <DistanceMeters>NAN</DistanceMeters>
          </Trackpoint>
          <Trackpoint>
            <Time>2021-08-03T12:25:22.000Z</Time>
            <Position>
              <LatitudeDegrees>-15.4527219571173191070556640625</LatitudeDegrees>
              <LongitudeDegrees>37.0373376645147800445556640625</LongitudeDegrees>
            </Position>
            <AltitudeMeters>753.20001220703125</AltitudeMeters>
            <DistanceMeters>NAN</DistanceMeters>
          </Trackpoint>
          <Trackpoint>
            <Time>2021-08-03T12:25:24.000Z</Time>
            <Position>
              <LatitudeDegrees>-15.4527465999126434326171875</LatitudeDegrees>
              <LongitudeDegrees>37.03732249327003955841064453125</LongitudeDegrees>
            </Position>
            <AltitudeMeters>753.5999755859375</AltitudeMeters>
            <DistanceMeters>NAN</DistanceMeters>
          </Trackpoint>
          <Trackpoint>
            <Time>2021-08-03T12:25:29.000Z</Time>
            <Position>
              <LatitudeDegrees>-15.4527734220027923583984375</LatitudeDegrees>
              <LongitudeDegrees>37.03728091903030872344970703125</LongitudeDegrees>
            </Position>
            <AltitudeMeters>753.5999755859375</AltitudeMeters>
            <DistanceMeters>NAN</DistanceMeters>
          </Trackpoint>
          <Trackpoint>
            <Time>2021-08-03T12:25:30.000Z</Time>
            <Position>
              <LatitudeDegrees>-15.45277945697307586669921875</LatitudeDegrees>
              <LongitudeDegrees>37.03727438114583492279052734375</LongitudeDegrees>
            </Position>
            <AltitudeMeters>754</AltitudeMeters>
            <DistanceMeters>NAN</DistanceMeters>
          </Trackpoint>
          <Trackpoint>
            <Time>2021-08-03T12:25:31.000Z</Time>
            <Position>
              <LatitudeDegrees>-15.45278959907591342926025390625</LatitudeDegrees>
              <LongitudeDegrees>37.0372665859758853912353515625</LongitudeDegrees>
            </Position>
            <AltitudeMeters>754.20001220703125</AltitudeMeters>
            <DistanceMeters>NAN</DistanceMeters>
          </Trackpoint>
          <Trackpoint>
            <Time>2021-08-03T12:25:32.000Z</Time>
            <Position>
              <LatitudeDegrees>-15.45279689133167266845703125</LatitudeDegrees>
              <LongitudeDegrees>37.03726013191044330596923828125</LongitudeDegrees>
            </Position>
            <AltitudeMeters>754.20001220703125</AltitudeMeters>
            <DistanceMeters>NAN</DistanceMeters>
          </Trackpoint>
          <Trackpoint>
            <Time>2021-08-03T12:25:33.000Z</Time>
            <Position>
              <LatitudeDegrees>-15.452801920473575592041015625</LatitudeDegrees>
              <LongitudeDegrees>37.03725275583565235137939453125</LongitudeDegrees>
            </Position>
            <AltitudeMeters>754.4000244140625</AltitudeMeters>
            <DistanceMeters>NAN</DistanceMeters>
          </Trackpoint>
          <Trackpoint>
            <Time>2021-08-03T12:25:34.000Z</Time>
            <Position>
              <LatitudeDegrees>-15.452808625996112823486328125</LatitudeDegrees>
              <LongitudeDegrees>37.0372457988560199737548828125</LongitudeDegrees>
            </Position>
            <AltitudeMeters>754.5999755859375</AltitudeMeters>
            <DistanceMeters>NAN</DistanceMeters>
          </Trackpoint>
          <Trackpoint>
            <Time>2021-08-03T12:25:36.000Z</Time>
            <Position>
              <LatitudeDegrees>-15.45282304286956787109375</LatitudeDegrees>
              <LongitudeDegrees>37.03723733313381671905517578125</LongitudeDegrees>
            </Position>
            <AltitudeMeters>754.5999755859375</AltitudeMeters>
            <DistanceMeters>NAN</DistanceMeters>
          </Trackpoint>
          <Trackpoint>
            <Time>2021-08-03T12:25:38.000Z</Time>
            <Position>
              <LatitudeDegrees>-15.4528352804481983184814453125</LatitudeDegrees>
              <LongitudeDegrees>37.0372240059077739715576171875</LongitudeDegrees>
            </Position>
            <AltitudeMeters>754.79998779296875</AltitudeMeters>
            <DistanceMeters>NAN</DistanceMeters>
          </Trackpoint>
          <Trackpoint>
            <Time>2021-08-03T12:25:39.000Z</Time>
            <Position>
              <LatitudeDegrees>-15.45284324325621128082275390625</LatitudeDegrees>
              <LongitudeDegrees>37.0372183062136173248291015625</LongitudeDegrees>
            </Position>
            <AltitudeMeters>754.79998779296875</AltitudeMeters>
            <DistanceMeters>NAN</DistanceMeters>
          </Trackpoint>
          <Trackpoint>
            <Time>2021-08-03T12:25:44.000Z</Time>
            <Position>
              <LatitudeDegrees>-15.452885739505290985107421875</LatitudeDegrees>
              <LongitudeDegrees>37.03718134202063083648681640625</LongitudeDegrees>
            </Position>
            <AltitudeMeters>755.5999755859375</AltitudeMeters>
            <DistanceMeters>NAN</DistanceMeters>
          </Trackpoint>
          <Trackpoint>
            <Time>2021-08-03T12:25:49.000Z</Time>
            <Position>
              <LatitudeDegrees>-15.45293368399143218994140625</LatitudeDegrees>
              <LongitudeDegrees>37.0371395163238048553466796875</LongitudeDegrees>
            </Position>
            <AltitudeMeters>756.20001220703125</AltitudeMeters>
            <DistanceMeters>NAN</DistanceMeters>
          </Trackpoint>
          <Trackpoint>
            <Time>2021-08-03T12:25:51.000Z</Time>
            <Position>
              <LatitudeDegrees>-15.4529549740254878997802734375</LatitudeDegrees>
              <LongitudeDegrees>37.03712384216487407684326171875</LongitudeDegrees>
            </Position>
            <AltitudeMeters>756.4000244140625</AltitudeMeters>
            <DistanceMeters>NAN</DistanceMeters>
          </Trackpoint>
          <Trackpoint>
            <Time>2021-08-03T12:25:56.000Z</Time>
            <Position>
              <LatitudeDegrees>-15.45298062264919281005859375</LatitudeDegrees>
              <LongitudeDegrees>37.03708469867706298828125</LongitudeDegrees>
            </Position>
            <AltitudeMeters>756.79998779296875</AltitudeMeters>
            <DistanceMeters>NAN</DistanceMeters>
          </Trackpoint>
          <Trackpoint>
            <Time>2021-08-03T12:25:57.000Z</Time>
            <Position>
              <LatitudeDegrees>-15.452986322343349456787109375</LatitudeDegrees>
              <LongitudeDegrees>37.03707522712647914886474609375</LongitudeDegrees>
            </Position>
            <AltitudeMeters>756.79998779296875</AltitudeMeters>
            <DistanceMeters>NAN</DistanceMeters>
          </Trackpoint>
          <Trackpoint>
            <Time>2021-08-03T12:25:58.000Z</Time>
            <Position>
              <LatitudeDegrees>-15.45299294404685497283935546875</LatitudeDegrees>
              <LongitudeDegrees>37.03706332482397556304931640625</LongitudeDegrees>
            </Position>
            <AltitudeMeters>757</AltitudeMeters>
            <DistanceMeters>NAN</DistanceMeters>
          </Trackpoint>
          <Trackpoint>
            <Time>2021-08-03T12:26:00.000Z</Time>
            <Position>
              <LatitudeDegrees>-15.45299897901713848114013671875</LatitudeDegrees>
              <LongitudeDegrees>37.037046812474727630615234375</LongitudeDegrees>
            </Position>
            <AltitudeMeters>758</AltitudeMeters>
            <DistanceMeters>NAN</DistanceMeters>
          </Trackpoint>
          <Trackpoint>
            <Time>2021-08-03T12:26:10.000Z</Time>
            <Position>
              <LatitudeDegrees>-15.45302479527890682220458984375</LatitudeDegrees>
              <LongitudeDegrees>37.03693474642932415008544921875</LongitudeDegrees>
            </Position>
            <AltitudeMeters>758.4000244140625</AltitudeMeters>
            <DistanceMeters>NAN</DistanceMeters>
          </Trackpoint>
          <Trackpoint>
            <Time>2021-08-03T12:26:20.000Z</Time>
            <Position>
              <LatitudeDegrees>-15.4530183412134647369384765625</LatitudeDegrees>
              <LongitudeDegrees>37.03681639395654201507568359375</LongitudeDegrees>
            </Position>
            <AltitudeMeters>759</AltitudeMeters>
            <DistanceMeters>NAN</DistanceMeters>
          </Trackpoint>
          <Trackpoint>
            <Time>2021-08-03T12:26:29.000Z</Time>
            <Position>
              <LatitudeDegrees>-15.4529982246458530426025390625</LatitudeDegrees>
              <LongitudeDegrees>37.036712206900119781494140625</LongitudeDegrees>
            </Position>
            <AltitudeMeters>758.79998779296875</AltitudeMeters>
            <DistanceMeters>NAN</DistanceMeters>
          </Trackpoint>
          <Trackpoint>
            <Time>2021-08-03T12:26:35.000Z</Time>
            <Position>
              <LatitudeDegrees>-15.452976934611797332763671875</LatitudeDegrees>
              <LongitudeDegrees>37.03663836233317852020263671875</LongitudeDegrees>
            </Position>
            <AltitudeMeters>759</AltitudeMeters>
            <DistanceMeters>NAN</DistanceMeters>
          </Trackpoint>
          <Trackpoint>
            <Time>2021-08-03T12:26:37.000Z</Time>
            <Position>
              <LatitudeDegrees>-15.45295891351997852325439453125</LatitudeDegrees>
              <LongitudeDegrees>37.03662528656423091888427734375</LongitudeDegrees>
            </Position>
            <AltitudeMeters>759.20001220703125</AltitudeMeters>
            <DistanceMeters>NAN</DistanceMeters>
          </Trackpoint>
          <Trackpoint>
            <Time>2021-08-03T12:26:44.000Z</Time>
            <Position>
              <LatitudeDegrees>-15.452935360372066497802734375</LatitudeDegrees>
              <LongitudeDegrees>37.0365457423031330108642578125</LongitudeDegrees>
            </Position>
            <AltitudeMeters>759.4000244140625</AltitudeMeters>
            <DistanceMeters>NAN</DistanceMeters>
          </Trackpoint>
          <Trackpoint>
            <Time>2021-08-03T12:26:50.000Z</Time>
            <Position>
              <LatitudeDegrees>-15.45291080139577388763427734375</LatitudeDegrees>
              <LongitudeDegrees>37.03647608868777751922607421875</LongitudeDegrees>
            </Position>
            <AltitudeMeters>759.5999755859375</AltitudeMeters>
            <DistanceMeters>NAN</DistanceMeters>
          </Trackpoint>
          <Trackpoint>
            <Time>2021-08-03T12:26:54.000Z</Time>
            <Position>
              <LatitudeDegrees>-15.45290359295904636383056640625</LatitudeDegrees>
              <LongitudeDegrees>37.0364300720393657684326171875</LongitudeDegrees>
            </Position>
            <AltitudeMeters>759.79998779296875</AltitudeMeters>
            <DistanceMeters>NAN</DistanceMeters>
          </Trackpoint>
          <Trackpoint>
            <Time>2021-08-03T12:26:55.000Z</Time>
            <Position>
              <LatitudeDegrees>-15.45290208421647548675537109375</LatitudeDegrees>
              <LongitudeDegrees>37.0364193432033061981201171875</LongitudeDegrees>
            </Position>
            <AltitudeMeters>759.79998779296875</AltitudeMeters>
            <DistanceMeters>NAN</DistanceMeters>
          </Trackpoint>
          <Trackpoint>
            <Time>2021-08-03T12:26:58.000Z</Time>
            <Position>
              <LatitudeDegrees>-15.4529021680355072021484375</LatitudeDegrees>
              <LongitudeDegrees>37.036386989057064056396484375</LongitudeDegrees>
            </Position>
            <AltitudeMeters>760</AltitudeMeters>
            <DistanceMeters>NAN</DistanceMeters>
          </Trackpoint>
          <Trackpoint>
            <Time>2021-08-03T12:27:03.000Z</Time>
            <Position>
              <LatitudeDegrees>-15.4528932832181453704833984375</LatitudeDegrees>
              <LongitudeDegrees>37.0363258011639118194580078125</LongitudeDegrees>
            </Position>
            <AltitudeMeters>760</AltitudeMeters>
            <DistanceMeters>NAN</DistanceMeters>
          </Trackpoint>
          <Trackpoint>
            <Time>2021-08-03T12:27:14.000Z</Time>
            <Position>
              <LatitudeDegrees>-15.452886410057544708251953125</LatitudeDegrees>
              <LongitudeDegrees>37.0362000726163387298583984375</LongitudeDegrees>
            </Position>
            <AltitudeMeters>760.20001220703125</AltitudeMeters>
            <DistanceMeters>NAN</DistanceMeters>
          </Trackpoint>
          <Trackpoint>
            <Time>2021-08-03T12:27:23.000Z</Time>
            <Position>
              <LatitudeDegrees>-15.4528902657330036163330078125</LatitudeDegrees>
              <LongitudeDegrees>37.03609186224639415740966796875</LongitudeDegrees>
            </Position>
            <AltitudeMeters>761.4000244140625</AltitudeMeters>
            <DistanceMeters>NAN</DistanceMeters>
          </Trackpoint>
          <Trackpoint>
            <Time>2021-08-03T12:27:31.000Z</Time>
            <Position>
              <LatitudeDegrees>-15.45287878252565860748291015625</LatitudeDegrees>
              <LongitudeDegrees>37.03602413646876811981201171875</LongitudeDegrees>
            </Position>
            <AltitudeMeters>762.4000244140625</AltitudeMeters>
            <DistanceMeters>NAN</DistanceMeters>
          </Trackpoint>
          <Trackpoint>
            <Time>2021-08-03T12:27:34.000Z</Time>
            <Position>
              <LatitudeDegrees>-15.4528835602104663848876953125</LatitudeDegrees>
              <LongitudeDegrees>37.03598910011351108551025390625</LongitudeDegrees>
            </Position>
            <AltitudeMeters>762.79998779296875</AltitudeMeters>
            <DistanceMeters>NAN</DistanceMeters>
          </Trackpoint>
          <Trackpoint>
            <Time>2021-08-03T12:27:41.000Z</Time>
            <Position>
              <LatitudeDegrees>-15.45286931097507476806640625</LatitudeDegrees>
              <LongitudeDegrees>37.0359170995652675628662109375</LongitudeDegrees>
            </Position>
            <AltitudeMeters>763.5999755859375</AltitudeMeters>
            <DistanceMeters>NAN</DistanceMeters>
          </Trackpoint>
          <Trackpoint>
            <Time>2021-08-03T12:27:42.000Z</Time>
            <Position>
              <LatitudeDegrees>-15.4528711549937725067138671875</LatitudeDegrees>
              <LongitudeDegrees>37.0359067060053348541259765625</LongitudeDegrees>
            </Position>
            <AltitudeMeters>763.79998779296875</AltitudeMeters>
            <DistanceMeters>NAN</DistanceMeters>
          </Trackpoint>
          <Trackpoint>
            <Time>2021-08-03T12:27:44.000Z</Time>
            <Position>
              <LatitudeDegrees>-15.45286855660378932952880859375</LatitudeDegrees>
              <LongitudeDegrees>37.03588047064840793609619140625</LongitudeDegrees>
            </Position>
            <AltitudeMeters>764</AltitudeMeters>
            <DistanceMeters>NAN</DistanceMeters>
          </Trackpoint>
          <Trackpoint>
            <Time>2021-08-03T12:27:48.000Z</Time>
            <Position>
              <LatitudeDegrees>-15.4528560675680637359619140625</LatitudeDegrees>
              <LongitudeDegrees>37.03584945760667324066162109375</LongitudeDegrees>
            </Position>
            <AltitudeMeters>764.79998779296875</AltitudeMeters>
            <DistanceMeters>NAN</DistanceMeters>
          </Trackpoint>
          <Trackpoint>
            <Time>2021-08-03T12:27:50.000Z</Time>
            <Position>
              <LatitudeDegrees>-15.45285615138709545135498046875</LatitudeDegrees>
              <LongitudeDegrees>37.03582942485809326171875</LongitudeDegrees>
            </Position>
            <AltitudeMeters>765</AltitudeMeters>
            <DistanceMeters>NAN</DistanceMeters>
          </Trackpoint>
          <Trackpoint>
            <Time>2021-08-03T12:27:57.000Z</Time>
            <Position>
              <LatitudeDegrees>-15.4528429917991161346435546875</LatitudeDegrees>
              <LongitudeDegrees>37.0357652194797992706298828125</LongitudeDegrees>
            </Position>
            <AltitudeMeters>765.79998779296875</AltitudeMeters>
            <DistanceMeters>NAN</DistanceMeters>
          </Trackpoint>
          <Trackpoint>
            <Time>2021-08-03T12:27:59.000Z</Time>
            <Position>
              <LatitudeDegrees>-15.45284005813300609588623046875</LatitudeDegrees>
              <LongitudeDegrees>37.03574652783572673797607421875</LongitudeDegrees>
            </Position>
            <AltitudeMeters>766.20001220703125</AltitudeMeters>
            <DistanceMeters>NAN</DistanceMeters>
          </Trackpoint>
          <Trackpoint>
            <Time>2021-08-03T12:28:04.000Z</Time>
            <Position>
              <LatitudeDegrees>-15.45283310115337371826171875</LatitudeDegrees>
              <LongitudeDegrees>37.0357038639485836029052734375</LongitudeDegrees>
            </Position>
            <AltitudeMeters>767</AltitudeMeters>
            <DistanceMeters>NAN</DistanceMeters>
          </Trackpoint>
          <Trackpoint>
            <Time>2021-08-03T12:28:08.000Z</Time>
            <Position>
              <LatitudeDegrees>-15.45283318497240543365478515625</LatitudeDegrees>
              <LongitudeDegrees>37.035650052130222320556640625</LongitudeDegrees>
            </Position>
            <AltitudeMeters>767.4000244140625</AltitudeMeters>
            <DistanceMeters>NAN</DistanceMeters>
          </Trackpoint>
          <Trackpoint>
            <Time>2021-08-03T12:28:12.000Z</Time>
            <Position>
              <LatitudeDegrees>-15.45283201150596141815185546875</LatitudeDegrees>
              <LongitudeDegrees>37.03561258502304553985595703125</LongitudeDegrees>
            </Position>
            <AltitudeMeters>767.79998779296875</AltitudeMeters>
            <DistanceMeters>NAN</DistanceMeters>
          </Trackpoint>
          <Trackpoint>
            <Time>2021-08-03T12:28:14.000Z</Time>
            <Position>
              <LatitudeDegrees>-15.45283041894435882568359375</LatitudeDegrees>
              <LongitudeDegrees>37.0355948992073535919189453125</LongitudeDegrees>
            </Position>
            <AltitudeMeters>768.20001220703125</AltitudeMeters>
            <DistanceMeters>NAN</DistanceMeters>
          </Trackpoint>
          <Trackpoint>
            <Time>2021-08-03T12:28:17.000Z</Time>
            <Position>
              <LatitudeDegrees>-15.4528272338211536407470703125</LatitudeDegrees>
              <LongitudeDegrees>37.03556229360401630401611328125</LongitudeDegrees>
            </Position>
            <AltitudeMeters>769</AltitudeMeters>
            <DistanceMeters>NAN</DistanceMeters>
          </Trackpoint>
          <Trackpoint>
            <Time>2021-08-03T12:28:18.000Z</Time>
            <Position>
              <LatitudeDegrees>-15.4528252221643924713134765625</LatitudeDegrees>
              <LongitudeDegrees>37.03555122949182987213134765625</LongitudeDegrees>
            </Position>
            <AltitudeMeters>769</AltitudeMeters>
            <DistanceMeters>NAN</DistanceMeters>
          </Trackpoint>
          <Trackpoint>
            <Time>2021-08-03T12:28:20.000Z</Time>
            <Position>
              <LatitudeDegrees>-15.45282312668859958648681640625</LatitudeDegrees>
              <LongitudeDegrees>37.03552901744842529296875</LongitudeDegrees>
            </Position>
            <AltitudeMeters>769.4000244140625</AltitudeMeters>
            <DistanceMeters>NAN</DistanceMeters>
          </Trackpoint>
          <Trackpoint>
            <Time>2021-08-03T12:28:22.000Z</Time>
            <Position>
              <LatitudeDegrees>-15.45282371342182159423828125</LatitudeDegrees>
              <LongitudeDegrees>37.0355067215859889984130859375</LongitudeDegrees>
            </Position>
            <AltitudeMeters>769.5999755859375</AltitudeMeters>
            <DistanceMeters>NAN</DistanceMeters>
          </Trackpoint>
          <Trackpoint>
            <Time>2021-08-03T12:28:28.000Z</Time>
            <Position>
              <LatitudeDegrees>-15.45283444225788116455078125</LatitudeDegrees>
              <LongitudeDegrees>37.0354520715773105621337890625</LongitudeDegrees>
            </Position>
            <AltitudeMeters>770.4000244140625</AltitudeMeters>
            <DistanceMeters>NAN</DistanceMeters>
          </Trackpoint>
          <Trackpoint>
            <Time>2021-08-03T12:28:31.000Z</Time>
            <Position>
              <LatitudeDegrees>-15.45284173451364040374755859375</LatitudeDegrees>
              <LongitudeDegrees>37.03542164526879787445068359375</LongitudeDegrees>
            </Position>
            <AltitudeMeters>770.5999755859375</AltitudeMeters>
            <DistanceMeters>NAN</DistanceMeters>
          </Trackpoint>
          <Trackpoint>
            <Time>2021-08-03T12:28:33.000Z</Time>
            <Position>
              <LatitudeDegrees>-15.45284693129360675811767578125</LatitudeDegrees>
              <LongitudeDegrees>37.03539901413023471832275390625</LongitudeDegrees>
            </Position>
            <AltitudeMeters>770.79998779296875</AltitudeMeters>
            <DistanceMeters>NAN</DistanceMeters>
          </Trackpoint>
          <Trackpoint>
            <Time>2021-08-03T12:28:34.000Z</Time>
            <Position>
              <LatitudeDegrees>-15.45285162515938282012939453125</LatitudeDegrees>
              <LongitudeDegrees>37.03538795001804828643798828125</LongitudeDegrees>
            </Position>
            <AltitudeMeters>770.79998779296875</AltitudeMeters>
            <DistanceMeters>NAN</DistanceMeters>
          </Trackpoint>
          <Trackpoint>
            <Time>2021-08-03T12:28:36.000Z</Time>
            <Position>
              <LatitudeDegrees>-15.4528592526912689208984375</LatitudeDegrees>
              <LongitudeDegrees>37.03536565415561199188232421875</LongitudeDegrees>
            </Position>
            <AltitudeMeters>770.5999755859375</AltitudeMeters>
            <DistanceMeters>NAN</DistanceMeters>
          </Trackpoint>
          <Trackpoint>
            <Time>2021-08-03T12:28:37.000Z</Time>
            <Position>
              <LatitudeDegrees>-15.45286352746188640594482421875</LatitudeDegrees>
              <LongitudeDegrees>37.03535358421504497528076171875</LongitudeDegrees>
            </Position>
            <AltitudeMeters>770.5999755859375</AltitudeMeters>
            <DistanceMeters>NAN</DistanceMeters>
          </Trackpoint>
          <Trackpoint>
            <Time>2021-08-03T12:28:38.000Z</Time>
            <Position>
              <LatitudeDegrees>-15.4528694786131381988525390625</LatitudeDegrees>
              <LongitudeDegrees>37.0353426039218902587890625</LongitudeDegrees>
            </Position>
            <AltitudeMeters>770.79998779296875</AltitudeMeters>
            <DistanceMeters>NAN</DistanceMeters>
          </Trackpoint>
          <Trackpoint>
            <Time>2021-08-03T12:28:40.000Z</Time>
            <Position>
              <LatitudeDegrees>-15.4528812132775783538818359375</LatitudeDegrees>
              <LongitudeDegrees>37.03532190062105655670166015625</LongitudeDegrees>
            </Position>
            <AltitudeMeters>771.20001220703125</AltitudeMeters>
            <DistanceMeters>NAN</DistanceMeters>
          </Trackpoint>
          <Trackpoint>
            <Time>2021-08-03T12:28:42.000Z</Time>
            <Position>
              <LatitudeDegrees>-15.45289504341781139373779296875</LatitudeDegrees>
              <LongitudeDegrees>37.03530044294893741607666015625</LongitudeDegrees>
            </Position>
            <AltitudeMeters>771.4000244140625</AltitudeMeters>
            <DistanceMeters>NAN</DistanceMeters>
          </Trackpoint>
          <Trackpoint>
            <Time>2021-08-03T12:28:50.000Z</Time>
            <Position>
              <LatitudeDegrees>-15.452947430312633514404296875</LatitudeDegrees>
              <LongitudeDegrees>37.03522299416363239288330078125</LongitudeDegrees>
            </Position>
            <AltitudeMeters>771.5999755859375</AltitudeMeters>
            <DistanceMeters>NAN</DistanceMeters>
          </Trackpoint>
          <Trackpoint>
            <Time>2021-08-03T12:29:03.000Z</Time>
            <Position>
              <LatitudeDegrees>-15.4530470073223114013671875</LatitudeDegrees>
              <LongitudeDegrees>37.0351147837936878204345703125</LongitudeDegrees>
            </Position>
            <AltitudeMeters>772.20001220703125</AltitudeMeters>
            <DistanceMeters>NAN</DistanceMeters>
          </Trackpoint>
          <Trackpoint>
            <Time>2021-08-03T12:29:09.000Z</Time>
            <Position>
              <LatitudeDegrees>-15.4531008191406726837158203125</LatitudeDegrees>
              <LongitudeDegrees>37.03506591729819774627685546875</LongitudeDegrees>
            </Position>
            <AltitudeMeters>772.20001220703125</AltitudeMeters>
            <DistanceMeters>NAN</DistanceMeters>
          </Trackpoint>
          <Trackpoint>
            <Time>2021-08-03T12:29:11.000Z</Time>
            <Position>
              <LatitudeDegrees>-15.4531149007380008697509765625</LatitudeDegrees>
              <LongitudeDegrees>37.035051248967647552490234375</LongitudeDegrees>
            </Position>
            <AltitudeMeters>772.20001220703125</AltitudeMeters>
            <DistanceMeters>NAN</DistanceMeters>
          </Trackpoint>
          <Trackpoint>
            <Time>2021-08-03T12:29:12.000Z</Time>
            <Position>
              <LatitudeDegrees>-15.453120768070220947265625</LatitudeDegrees>
              <LongitudeDegrees>37.0350448787212371826171875</LongitudeDegrees>
            </Position>
            <AltitudeMeters>772.20001220703125</AltitudeMeters>
            <DistanceMeters>NAN</DistanceMeters>
          </Trackpoint>
          <Trackpoint>
            <Time>2021-08-03T12:29:17.000Z</Time>
            <Position>
              <LatitudeDegrees>-15.45316494069993495941162109375</LatitudeDegrees>
              <LongitudeDegrees>37.03500674106180667877197265625</LongitudeDegrees>
            </Position>
            <AltitudeMeters>772.20001220703125</AltitudeMeters>
            <DistanceMeters>NAN</DistanceMeters>
          </Trackpoint>
          <Trackpoint>
            <Time>2021-08-03T12:29:20.000Z</Time>
            <Position>
              <LatitudeDegrees>-15.4531864821910858154296875</LatitudeDegrees>
              <LongitudeDegrees>37.03498494811356067657470703125</LongitudeDegrees>
            </Position>
            <AltitudeMeters>772.79998779296875</AltitudeMeters>
            <DistanceMeters>NAN</DistanceMeters>
          </Trackpoint>
          <Trackpoint>
            <Time>2021-08-03T12:29:23.000Z</Time>
            <Position>
              <LatitudeDegrees>-15.45320617966353893280029296875</LatitudeDegrees>
              <LongitudeDegrees>37.03495997004210948944091796875</LongitudeDegrees>
            </Position>
            <AltitudeMeters>773</AltitudeMeters>
            <DistanceMeters>NAN</DistanceMeters>
          </Trackpoint>
          <Trackpoint>
            <Time>2021-08-03T12:29:29.000Z</Time>
            <Position>
              <LatitudeDegrees>-15.45326032675802707672119140625</LatitudeDegrees>
              <LongitudeDegrees>37.0349116064608097076416015625</LongitudeDegrees>
            </Position>
            <AltitudeMeters>773.20001220703125</AltitudeMeters>
            <DistanceMeters>NAN</DistanceMeters>
          </Trackpoint>
          <Trackpoint>
            <Time>2021-08-03T12:29:32.000Z</Time>
            <Position>
              <LatitudeDegrees>-15.4532872326672077178955078125</LatitudeDegrees>
              <LongitudeDegrees>37.03488889150321483612060546875</LongitudeDegrees>
            </Position>
            <AltitudeMeters>773.20001220703125</AltitudeMeters>
            <DistanceMeters>NAN</DistanceMeters>
          </Trackpoint>
          <Trackpoint>
            <Time>2021-08-03T12:29:34.000Z</Time>
            <Position>
              <LatitudeDegrees>-15.45330676250159740447998046875</LatitudeDegrees>
              <LongitudeDegrees>37.03487179242074489593505859375</LongitudeDegrees>
            </Position>
            <AltitudeMeters>773.5999755859375</AltitudeMeters>
            <DistanceMeters>NAN</DistanceMeters>
          </Trackpoint>
          <Trackpoint>
            <Time>2021-08-03T12:29:39.000Z</Time>
            <Position>
              <LatitudeDegrees>-15.453353114426136016845703125</LatitudeDegrees>
              <LongitudeDegrees>37.0348351635038852691650390625</LongitudeDegrees>
            </Position>
            <AltitudeMeters>773.5999755859375</AltitudeMeters>
            <DistanceMeters>NAN</DistanceMeters>
          </Trackpoint>
          <Trackpoint>
            <Time>2021-08-03T12:29:43.000Z</Time>
            <Position>
              <LatitudeDegrees>-15.45338974334299564361572265625</LatitudeDegrees>
              <LongitudeDegrees>37.03480507247149944305419921875</LongitudeDegrees>
            </Position>
            <AltitudeMeters>773.5999755859375</AltitudeMeters>
            <DistanceMeters>NAN</DistanceMeters>
          </Trackpoint>
          <Trackpoint>
            <Time>2021-08-03T12:29:45.000Z</Time>
            <Position>
              <LatitudeDegrees>-15.453408099710941314697265625</LatitudeDegrees>
              <LongitudeDegrees>37.03479367308318614959716796875</LongitudeDegrees>
            </Position>
            <AltitudeMeters>773.5999755859375</AltitudeMeters>
            <DistanceMeters>NAN</DistanceMeters>
          </Trackpoint>
          <Trackpoint>
            <Time>2021-08-03T12:29:46.000Z</Time>
            <Position>
              <LatitudeDegrees>-15.4534196667373180389404296875</LatitudeDegrees>
              <LongitudeDegrees>37.0347895659506320953369140625</LongitudeDegrees>
            </Position>
            <AltitudeMeters>773.5999755859375</AltitudeMeters>
            <DistanceMeters>NAN</DistanceMeters>
          </Trackpoint>
          <Trackpoint>
            <Time>2021-08-03T12:29:48.000Z</Time>
            <Position>
              <LatitudeDegrees>-15.45344053767621517181396484375</LatitudeDegrees>
              <LongitudeDegrees>37.03477489762008190155029296875</LongitudeDegrees>
            </Position>
            <AltitudeMeters>773.79998779296875</AltitudeMeters>
            <DistanceMeters>NAN</DistanceMeters>
          </Trackpoint>
          <Trackpoint>
            <Time>2021-08-03T12:29:56.000Z</Time>
            <Position>
              <LatitudeDegrees>-15.4535175673663616180419921875</LatitudeDegrees>
              <LongitudeDegrees>37.03471840359270572662353515625</LongitudeDegrees>
            </Position>
            <AltitudeMeters>774.4000244140625</AltitudeMeters>
            <DistanceMeters>NAN</DistanceMeters>
          </Trackpoint>
          <Trackpoint>
            <Time>2021-08-03T12:30:08.000Z</Time>
            <Position>
              <LatitudeDegrees>-15.45363667421042919158935546875</LatitudeDegrees>
              <LongitudeDegrees>37.03462972305715084075927734375</LongitudeDegrees>
            </Position>
            <AltitudeMeters>774.5999755859375</AltitudeMeters>
            <DistanceMeters>NAN</DistanceMeters>
          </Trackpoint>
          <Trackpoint>
            <Time>2021-08-03T12:30:11.000Z</Time>
            <Position>
              <LatitudeDegrees>-15.4536681063473224639892578125</LatitudeDegrees>
              <LongitudeDegrees>37.034612037241458892822265625</LongitudeDegrees>
            </Position>
            <AltitudeMeters>774.5999755859375</AltitudeMeters>
            <DistanceMeters>NAN</DistanceMeters>
          </Trackpoint>
          <Trackpoint>
            <Time>2021-08-03T12:30:14.000Z</Time>
            <Position>
              <LatitudeDegrees>-15.45369945466518402099609375</LatitudeDegrees>
              <LongitudeDegrees>37.0345910824835300445556640625</LongitudeDegrees>
            </Position>
            <AltitudeMeters>774.79998779296875</AltitudeMeters>
            <DistanceMeters>NAN</DistanceMeters>
          </Trackpoint>
          <Trackpoint>
            <Time>2021-08-03T12:30:16.000Z</Time>
            <Position>
              <LatitudeDegrees>-15.45371915213763713836669921875</LatitudeDegrees>
              <LongitudeDegrees>37.03457482159137725830078125</LongitudeDegrees>
            </Position>
            <AltitudeMeters>774.79998779296875</AltitudeMeters>
            <DistanceMeters>NAN</DistanceMeters>
          </Trackpoint>
          <Trackpoint>
            <Time>2021-08-03T12:30:20.000Z</Time>
            <Position>
              <LatitudeDegrees>-15.4537569545209407806396484375</LatitudeDegrees>
              <LongitudeDegrees>37.03454573638737201690673828125</LongitudeDegrees>
            </Position>
            <AltitudeMeters>775</AltitudeMeters>
            <DistanceMeters>NAN</DistanceMeters>
          </Trackpoint>
          <Trackpoint>
            <Time>2021-08-03T12:30:25.000Z</Time>
            <Position>
              <LatitudeDegrees>-15.45381210744380950927734375</LatitudeDegrees>
              <LongitudeDegrees>37.034511454403400421142578125</LongitudeDegrees>
            </Position>
            <AltitudeMeters>775.20001220703125</AltitudeMeters>
            <DistanceMeters>NAN</DistanceMeters>
          </Trackpoint>
          <Trackpoint>
            <Time>2021-08-03T12:30:30.000Z</Time>
            <Position>
              <LatitudeDegrees>-15.45385493896901607513427734375</LatitudeDegrees>
              <LongitudeDegrees>37.03448069281876087188720703125</LongitudeDegrees>
            </Position>
            <AltitudeMeters>775.5999755859375</AltitudeMeters>
            <DistanceMeters>NAN</DistanceMeters>
          </Trackpoint>
          <Trackpoint>
            <Time>2021-08-03T12:30:35.000Z</Time>
            <Position>
              <LatitudeDegrees>-15.45390330255031585693359375</LatitudeDegrees>
              <LongitudeDegrees>37.03445051796734333038330078125</LongitudeDegrees>
            </Position>
            <AltitudeMeters>776.4000244140625</AltitudeMeters>
            <DistanceMeters>NAN</DistanceMeters>
          </Trackpoint>
          <Trackpoint>
            <Time>2021-08-03T12:30:41.000Z</Time>
            <Position>
              <LatitudeDegrees>-15.45396977104246616363525390625</LatitudeDegrees>
              <LongitudeDegrees>37.03442595899105072021484375</LongitudeDegrees>
            </Position>
            <AltitudeMeters>776.79998779296875</AltitudeMeters>
            <DistanceMeters>NAN</DistanceMeters>
          </Trackpoint>
          <Trackpoint>
            <Time>2021-08-03T12:30:45.000Z</Time>
            <Position>
              <LatitudeDegrees>-15.4540120996534824371337890625</LatitudeDegrees>
              <LongitudeDegrees>37.03440709970891475677490234375</LongitudeDegrees>
            </Position>
            <AltitudeMeters>777.4000244140625</AltitudeMeters>
            <DistanceMeters>NAN</DistanceMeters>
          </Trackpoint>
          <Trackpoint>
            <Time>2021-08-03T12:30:50.000Z</Time>
            <Position>
              <LatitudeDegrees>-15.45406012795865535736083984375</LatitudeDegrees>
              <LongitudeDegrees>37.03438648022711277008056640625</LongitudeDegrees>
            </Position>
            <AltitudeMeters>777.4000244140625</AltitudeMeters>
            <DistanceMeters>NAN</DistanceMeters>
          </Trackpoint>
          <Trackpoint>
            <Time>2021-08-03T12:30:51.000Z</Time>
            <Position>
              <LatitudeDegrees>-15.45407102443277835845947265625</LatitudeDegrees>
              <LongitudeDegrees>37.03438262455165386199951171875</LongitudeDegrees>
            </Position>
            <AltitudeMeters>777.5999755859375</AltitudeMeters>
            <DistanceMeters>NAN</DistanceMeters>
          </Trackpoint>
          <Trackpoint>
            <Time>2021-08-03T12:30:55.000Z</Time>
            <Position>
              <LatitudeDegrees>-15.454118214547634124755859375</LatitudeDegrees>
              <LongitudeDegrees>37.0343634299933910369873046875</LongitudeDegrees>
            </Position>
            <AltitudeMeters>777.79998779296875</AltitudeMeters>
            <DistanceMeters>NAN</DistanceMeters>
          </Trackpoint>
          <Trackpoint>
            <Time>2021-08-03T12:30:57.000Z</Time>
            <Position>
              <LatitudeDegrees>-15.454146377742290496826171875</LatitudeDegrees>
              <LongitudeDegrees>37.03435664065182209014892578125</LongitudeDegrees>
            </Position>
            <AltitudeMeters>778.20001220703125</AltitudeMeters>
            <DistanceMeters>NAN</DistanceMeters>
          </Trackpoint>
          <Trackpoint>
            <Time>2021-08-03T12:31:00.000Z</Time>
            <Position>
              <LatitudeDegrees>-15.454182922840118408203125</LatitudeDegrees>
              <LongitudeDegrees>37.0343480072915554046630859375</LongitudeDegrees>
            </Position>
            <AltitudeMeters>777.79998779296875</AltitudeMeters>
            <DistanceMeters>NAN</DistanceMeters>
          </Trackpoint>
          <Trackpoint>
            <Time>2021-08-03T12:31:02.000Z</Time>
            <Position>
              <LatitudeDegrees>-15.45420446433126926422119140625</LatitudeDegrees>
              <LongitudeDegrees>37.0343413017690181732177734375</LongitudeDegrees>
            </Position>
            <AltitudeMeters>777.5999755859375</AltitudeMeters>
            <DistanceMeters>NAN</DistanceMeters>
          </Trackpoint>
          <Trackpoint>
            <Time>2021-08-03T12:31:03.000Z</Time>
            <Position>
              <LatitudeDegrees>-15.4542149417102336883544921875</LatitudeDegrees>
              <LongitudeDegrees>37.034336440265178680419921875</LongitudeDegrees>
            </Position>
            <AltitudeMeters>777.5999755859375</AltitudeMeters>
            <DistanceMeters>NAN</DistanceMeters>
          </Trackpoint>
          <Trackpoint>
            <Time>2021-08-03T12:31:05.000Z</Time>
            <Position>
              <LatitudeDegrees>-15.454238243401050567626953125</LatitudeDegrees>
              <LongitudeDegrees>37.034325711429119110107421875</LongitudeDegrees>
            </Position>
            <AltitudeMeters>777</AltitudeMeters>
            <DistanceMeters>NAN</DistanceMeters>
          </Trackpoint>
          <Trackpoint>
            <Time>2021-08-03T12:31:07.000Z</Time>
            <Position>
              <LatitudeDegrees>-15.45425576157867908477783203125</LatitudeDegrees>
              <LongitudeDegrees>37.03431054018437862396240234375</LongitudeDegrees>
            </Position>
            <AltitudeMeters>776.79998779296875</AltitudeMeters>
            <DistanceMeters>NAN</DistanceMeters>
          </Trackpoint>
          <Trackpoint>
            <Time>2021-08-03T12:31:14.000Z</Time>
            <Position>
              <LatitudeDegrees>-15.454322732985019683837890625</LatitudeDegrees>
              <LongitudeDegrees>37.03423594124615192413330078125</LongitudeDegrees>
            </Position>
            <AltitudeMeters>776.4000244140625</AltitudeMeters>
            <DistanceMeters>NAN</DistanceMeters>
          </Trackpoint>
          <Trackpoint>
            <Time>2021-08-03T12:31:20.000Z</Time>
            <Position>
              <LatitudeDegrees>-15.45439037494361400604248046875</LatitudeDegrees>
              <LongitudeDegrees>37.0341696403920650482177734375</LongitudeDegrees>
            </Position>
            <AltitudeMeters>775.20001220703125</AltitudeMeters>
            <DistanceMeters>NAN</DistanceMeters>
          </Trackpoint>
          <Trackpoint>
            <Time>2021-08-03T12:31:23.000Z</Time>
            <Position>
              <LatitudeDegrees>-15.4544221423566341400146484375</LatitudeDegrees>
              <LongitudeDegrees>37.034135274589061737060546875</LongitudeDegrees>
            </Position>
            <AltitudeMeters>774.79998779296875</AltitudeMeters>
            <DistanceMeters>NAN</DistanceMeters>
          </Trackpoint>
          <Trackpoint>
            <Time>2021-08-03T12:31:24.000Z</Time>
            <Position>
              <LatitudeDegrees>-15.4544298537075519561767578125</LatitudeDegrees>
              <LongitudeDegrees>37.03412362374365329742431640625</LongitudeDegrees>
            </Position>
            <AltitudeMeters>774.5999755859375</AltitudeMeters>
            <DistanceMeters>NAN</DistanceMeters>
          </Trackpoint>
          <Trackpoint>
            <Time>2021-08-03T12:31:27.000Z</Time>
            <Position>
              <LatitudeDegrees>-15.45445994473993778228759765625</LatitudeDegrees>
              <LongitudeDegrees>37.03409738838672637939453125</LongitudeDegrees>
            </Position>
            <AltitudeMeters>774.20001220703125</AltitudeMeters>
            <DistanceMeters>NAN</DistanceMeters>
          </Trackpoint>
          <Trackpoint>
            <Time>2021-08-03T12:31:29.000Z</Time>
            <Position>
              <LatitudeDegrees>-15.45448006130754947662353515625</LatitudeDegrees>
              <LongitudeDegrees>37.03408355824649333953857421875</LongitudeDegrees>
            </Position>
            <AltitudeMeters>774.20001220703125</AltitudeMeters>
            <DistanceMeters>NAN</DistanceMeters>
          </Trackpoint>
          <Trackpoint>
            <Time>2021-08-03T12:31:30.000Z</Time>
            <Position>
              <LatitudeDegrees>-15.45448944903910160064697265625</LatitudeDegrees>
              <LongitudeDegrees>37.03407668508589267730712890625</LongitudeDegrees>
            </Position>
            <AltitudeMeters>774</AltitudeMeters>
            <DistanceMeters>NAN</DistanceMeters>
          </Trackpoint>
          <Trackpoint>
            <Time>2021-08-03T12:31:34.000Z</Time>
            <Position>
              <LatitudeDegrees>-15.45452599413692951202392578125</LatitudeDegrees>
              <LongitudeDegrees>37.034042738378047943115234375</LongitudeDegrees>
            </Position>
            <AltitudeMeters>773.20001220703125</AltitudeMeters>
            <DistanceMeters>NAN</DistanceMeters>
          </Trackpoint>
          <Trackpoint>
            <Time>2021-08-03T12:31:37.000Z</Time>
            <Position>
              <LatitudeDegrees>-15.4545495472848415374755859375</LatitudeDegrees>
              <LongitudeDegrees>37.0340201072394847869873046875</LongitudeDegrees>
            </Position>
            <AltitudeMeters>772.79998779296875</AltitudeMeters>
            <DistanceMeters>NAN</DistanceMeters>
          </Trackpoint>
          <Trackpoint>
            <Time>2021-08-03T12:31:39.000Z</Time>
            <Position>
              <LatitudeDegrees>-15.4545636288821697235107421875</LatitudeDegrees>
              <LongitudeDegrees>37.03400552272796630859375</LongitudeDegrees>
            </Position>
            <AltitudeMeters>772.20001220703125</AltitudeMeters>
            <DistanceMeters>NAN</DistanceMeters>
          </Trackpoint>
          <Trackpoint>
            <Time>2021-08-03T12:31:42.000Z</Time>
            <Position>
              <LatitudeDegrees>-15.4545820690691471099853515625</LatitudeDegrees>
              <LongitudeDegrees>37.03397744335234165191650390625</LongitudeDegrees>
            </Position>
            <AltitudeMeters>772</AltitudeMeters>
            <DistanceMeters>NAN</DistanceMeters>
          </Trackpoint>
          <Trackpoint>
            <Time>2021-08-03T12:31:44.000Z</Time>
            <Position>
              <LatitudeDegrees>-15.45460025779902935028076171875</LatitudeDegrees>
              <LongitudeDegrees>37.03395565040409564971923828125</LongitudeDegrees>
            </Position>
            <AltitudeMeters>771.79998779296875</AltitudeMeters>
            <DistanceMeters>NAN</DistanceMeters>
          </Trackpoint>
          <Trackpoint>
            <Time>2021-08-03T12:31:46.000Z</Time>
            <Position>
              <LatitudeDegrees>-15.4546166025102138519287109375</LatitudeDegrees>
              <LongitudeDegrees>37.03394140116870403289794921875</LongitudeDegrees>
            </Position>
            <AltitudeMeters>771.5999755859375</AltitudeMeters>
            <DistanceMeters>NAN</DistanceMeters>
          </Trackpoint>
          <Trackpoint>
            <Time>2021-08-03T12:31:51.000Z</Time>
            <Position>
              <LatitudeDegrees>-15.45465121977031230926513671875</LatitudeDegrees>
              <LongitudeDegrees>37.0338916964828968048095703125</LongitudeDegrees>
            </Position>
            <AltitudeMeters>770</AltitudeMeters>
            <DistanceMeters>NAN</DistanceMeters>
          </Trackpoint>
          <Trackpoint>
            <Time>2021-08-03T12:31:55.000Z</Time>
            <Position>
              <LatitudeDegrees>-15.45467653311789035797119140625</LatitudeDegrees>
              <LongitudeDegrees>37.0338524691760540008544921875</LongitudeDegrees>
            </Position>
            <AltitudeMeters>769</AltitudeMeters>
            <DistanceMeters>NAN</DistanceMeters>
          </Trackpoint>
          <Trackpoint>
            <Time>2021-08-03T12:31:56.000Z</Time>
            <Position>
              <LatitudeDegrees>-15.45468122698366641998291015625</LatitudeDegrees>
              <LongitudeDegrees>37.03383989632129669189453125</LongitudeDegrees>
            </Position>
            <AltitudeMeters>768.79998779296875</AltitudeMeters>
            <DistanceMeters>NAN</DistanceMeters>
          </Trackpoint>
          <Trackpoint>
            <Time>2021-08-03T12:32:02.000Z</Time>
            <Position>
              <LatitudeDegrees>-15.4547171853482723236083984375</LatitudeDegrees>
              <LongitudeDegrees>37.0337547361850738525390625</LongitudeDegrees>
            </Position>
            <AltitudeMeters>768</AltitudeMeters>
            <DistanceMeters>NAN</DistanceMeters>
          </Trackpoint>
          <Trackpoint>
            <Time>2021-08-03T12:32:05.000Z</Time>
            <Position>
              <LatitudeDegrees>-15.45472112484276294708251953125</LatitudeDegrees>
              <LongitudeDegrees>37.03370905481278896331787109375</LongitudeDegrees>
            </Position>
            <AltitudeMeters>767.4000244140625</AltitudeMeters>
            <DistanceMeters>NAN</DistanceMeters>
          </Trackpoint>
          <Trackpoint>
            <Time>2021-08-03T12:32:09.000Z</Time>
            <Position>
              <LatitudeDegrees>-15.45470394194126129150390625</LatitudeDegrees>
              <LongitudeDegrees>37.03365482389926910400390625</LongitudeDegrees>
            </Position>
            <AltitudeMeters>767</AltitudeMeters>
            <DistanceMeters>NAN</DistanceMeters>
          </Trackpoint>
          <Trackpoint>
            <Time>2021-08-03T12:32:11.000Z</Time>
            <Position>
              <LatitudeDegrees>-15.4546896927058696746826171875</LatitudeDegrees>
              <LongitudeDegrees>37.03363261185586452484130859375</LongitudeDegrees>
            </Position>
            <AltitudeMeters>765.20001220703125</AltitudeMeters>
            <DistanceMeters>NAN</DistanceMeters>
          </Trackpoint>
          <Trackpoint>
            <Time>2021-08-03T12:32:13.000Z</Time>
            <Position>
              <LatitudeDegrees>-15.4546796344220638275146484375</LatitudeDegrees>
              <LongitudeDegrees>37.03361433930695056915283203125</LongitudeDegrees>
            </Position>
            <AltitudeMeters>765.20001220703125</AltitudeMeters>
            <DistanceMeters>NAN</DistanceMeters>
          </Trackpoint>
          <Trackpoint>
            <Time>2021-08-03T12:32:18.000Z</Time>
            <Position>
              <LatitudeDegrees>-15.4546558298170566558837890625</LatitudeDegrees>
              <LongitudeDegrees>37.033562958240509033203125</LongitudeDegrees>
            </Position>
            <AltitudeMeters>764.4000244140625</AltitudeMeters>
            <DistanceMeters>NAN</DistanceMeters>
          </Trackpoint>
          <Trackpoint>
            <Time>2021-08-03T12:32:20.000Z</Time>
            <Position>
              <LatitudeDegrees>-15.45464350841939449310302734375</LatitudeDegrees>
              <LongitudeDegrees>37.0335446856915950775146484375</LongitudeDegrees>
            </Position>
            <AltitudeMeters>764.20001220703125</AltitudeMeters>
            <DistanceMeters>NAN</DistanceMeters>
          </Trackpoint>
          <Trackpoint>
            <Time>2021-08-03T12:32:25.000Z</Time>
            <Position>
              <LatitudeDegrees>-15.45461936853826045989990234375</LatitudeDegrees>
              <LongitudeDegrees>37.0334890298545360565185546875</LongitudeDegrees>
            </Position>
            <AltitudeMeters>763.20001220703125</AltitudeMeters>
            <DistanceMeters>NAN</DistanceMeters>
          </Trackpoint>
          <Trackpoint>
            <Time>2021-08-03T12:32:27.000Z</Time>
            <Position>
              <LatitudeDegrees>-15.454611741006374359130859375</LatitudeDegrees>
              <LongitudeDegrees>37.03346983529627323150634765625</LongitudeDegrees>
            </Position>
            <AltitudeMeters>762.4000244140625</AltitudeMeters>
            <DistanceMeters>NAN</DistanceMeters>
          </Trackpoint>
          <Trackpoint>
            <Time>2021-08-03T12:32:28.000Z</Time>
            <Position>
              <LatitudeDegrees>-15.45460713095963001251220703125</LatitudeDegrees>
              <LongitudeDegrees>37.0334596931934356689453125</LongitudeDegrees>
            </Position>
            <AltitudeMeters>762</AltitudeMeters>
            <DistanceMeters>NAN</DistanceMeters>
          </Trackpoint>
          <Trackpoint>
            <Time>2021-08-03T12:32:34.000Z</Time>
            <Position>
              <LatitudeDegrees>-15.4545773752033710479736328125</LatitudeDegrees>
              <LongitudeDegrees>37.03339196741580963134765625</LongitudeDegrees>
            </Position>
            <AltitudeMeters>761</AltitudeMeters>
            <DistanceMeters>NAN</DistanceMeters>
          </Trackpoint>
          <Trackpoint>
            <Time>2021-08-03T12:32:36.000Z</Time>
            <Position>
              <LatitudeDegrees>-15.45456522144377231597900390625</LatitudeDegrees>
              <LongitudeDegrees>37.0333663187921047210693359375</LongitudeDegrees>
            </Position>
            <AltitudeMeters>760.79998779296875</AltitudeMeters>
            <DistanceMeters>NAN</DistanceMeters>
          </Trackpoint>
          <Trackpoint>
            <Time>2021-08-03T12:32:41.000Z</Time>
            <Position>
              <LatitudeDegrees>-15.45452850870788097381591796875</LatitudeDegrees>
              <LongitudeDegrees>37.03330102376639842987060546875</LongitudeDegrees>
            </Position>
            <AltitudeMeters>760.5999755859375</AltitudeMeters>
            <DistanceMeters>NAN</DistanceMeters>
          </Trackpoint>
          <Trackpoint>
            <Time>2021-08-03T12:32:45.000Z</Time>
            <Position>
              <LatitudeDegrees>-15.45449581928551197052001953125</LatitudeDegrees>
              <LongitudeDegrees>37.03324268572032451629638671875</LongitudeDegrees>
            </Position>
            <AltitudeMeters>759.5999755859375</AltitudeMeters>
            <DistanceMeters>NAN</DistanceMeters>
          </Trackpoint>
          <Trackpoint>
            <Time>2021-08-03T12:32:48.000Z</Time>
            <Position>
              <LatitudeDegrees>-15.454472936689853668212890625</LatitudeDegrees>
              <LongitudeDegrees>37.03319356776773929595947265625</LongitudeDegrees>
            </Position>
            <AltitudeMeters>758.5999755859375</AltitudeMeters>
            <DistanceMeters>NAN</DistanceMeters>
          </Trackpoint>
          <Trackpoint>
            <Time>2021-08-03T12:32:51.000Z</Time>
            <Position>
              <LatitudeDegrees>-15.45445608906447887420654296875</LatitudeDegrees>
              <LongitudeDegrees>37.033148221671581268310546875</LongitudeDegrees>
            </Position>
            <AltitudeMeters>758.4000244140625</AltitudeMeters>
            <DistanceMeters>NAN</DistanceMeters>
          </Trackpoint>
          <Trackpoint>
            <Time>2021-08-03T12:32:57.000Z</Time>
            <Position>
              <LatitudeDegrees>-15.4544301889836788177490234375</LatitudeDegrees>
              <LongitudeDegrees>37.03308351337909698486328125</LongitudeDegrees>
            </Position>
            <AltitudeMeters>758</AltitudeMeters>
            <DistanceMeters>NAN</DistanceMeters>
          </Trackpoint>
          <Trackpoint>
            <Time>2021-08-03T12:32:59.000Z</Time>
            <Position>
              <LatitudeDegrees>-15.45442557893693447113037109375</LatitudeDegrees>
              <LongitudeDegrees>37.03306364826858043670654296875</LongitudeDegrees>
            </Position>
            <AltitudeMeters>757.20001220703125</AltitudeMeters>
            <DistanceMeters>NAN</DistanceMeters>
          </Trackpoint>
          <Trackpoint>
            <Time>2021-08-03T12:33:01.000Z</Time>
            <Position>
              <LatitudeDegrees>-15.45442499220371246337890625</LatitudeDegrees>
              <LongitudeDegrees>37.03304369933903217315673828125</LongitudeDegrees>
            </Position>
            <AltitudeMeters>757.20001220703125</AltitudeMeters>
            <DistanceMeters>NAN</DistanceMeters>
          </Trackpoint>
          <Trackpoint>
            <Time>2021-08-03T12:33:08.000Z</Time>
            <Position>
              <LatitudeDegrees>-15.4544149339199066162109375</LatitudeDegrees>
              <LongitudeDegrees>37.03294160775840282440185546875</LongitudeDegrees>
            </Position>
            <AltitudeMeters>756.4000244140625</AltitudeMeters>
            <DistanceMeters>NAN</DistanceMeters>
          </Trackpoint>
          <Trackpoint>
            <Time>2021-08-03T12:33:09.000Z</Time>
            <Position>
              <LatitudeDegrees>-15.45441535301506519317626953125</LatitudeDegrees>
              <LongitudeDegrees>37.03292769379913806915283203125</LongitudeDegrees>
            </Position>
            <AltitudeMeters>755.79998779296875</AltitudeMeters>
            <DistanceMeters>NAN</DistanceMeters>
          </Trackpoint>
          <Trackpoint>
            <Time>2021-08-03T12:33:14.000Z</Time>
            <Position>
              <LatitudeDegrees>-15.45442163944244384765625</LatitudeDegrees>
              <LongitudeDegrees>37.03286047093570232391357421875</LongitudeDegrees>
            </Position>
            <AltitudeMeters>755.79998779296875</AltitudeMeters>
            <DistanceMeters>NAN</DistanceMeters>
          </Trackpoint>
          <Trackpoint>
            <Time>2021-08-03T12:33:18.000Z</Time>
            <Position>
              <LatitudeDegrees>-15.4544318653643131256103515625</LatitudeDegrees>
              <LongitudeDegrees>37.03282124362885951995849609375</LongitudeDegrees>
            </Position>
            <AltitudeMeters>755</AltitudeMeters>
            <DistanceMeters>NAN</DistanceMeters>
          </Trackpoint>
          <Trackpoint>
            <Time>2021-08-03T12:33:19.000Z</Time>
            <Position>
              <LatitudeDegrees>-15.454432033002376556396484375</LatitudeDegrees>
              <LongitudeDegrees>37.03281202353537082672119140625</LongitudeDegrees>
            </Position>
            <AltitudeMeters>754.79998779296875</AltitudeMeters>
            <DistanceMeters>NAN</DistanceMeters>
          </Trackpoint>
          <Trackpoint>
            <Time>2021-08-03T12:33:28.000Z</Time>
            <Position>
              <LatitudeDegrees>-15.45443831942975521087646484375</LatitudeDegrees>
              <LongitudeDegrees>37.03268495388329029083251953125</LongitudeDegrees>
            </Position>
            <AltitudeMeters>753.5999755859375</AltitudeMeters>
            <DistanceMeters>NAN</DistanceMeters>
          </Trackpoint>
          <Trackpoint>
            <Time>2021-08-03T12:33:33.000Z</Time>
            <Position>
              <LatitudeDegrees>-15.45444519259035587310791015625</LatitudeDegrees>
              <LongitudeDegrees>37.03261286951601505279541015625</LongitudeDegrees>
            </Position>
            <AltitudeMeters>752.4000244140625</AltitudeMeters>
            <DistanceMeters>NAN</DistanceMeters>
          </Trackpoint>
          <Trackpoint>
            <Time>2021-08-03T12:33:39.000Z</Time>
            <Position>
              <LatitudeDegrees>-15.4544623754918575286865234375</LatitudeDegrees>
              <LongitudeDegrees>37.03252938576042652130126953125</LongitudeDegrees>
            </Position>
            <AltitudeMeters>752.20001220703125</AltitudeMeters>
            <DistanceMeters>NAN</DistanceMeters>
          </Trackpoint>
          <Trackpoint>
            <Time>2021-08-03T12:33:48.000Z</Time>
            <Position>
              <LatitudeDegrees>-15.45446782372891902923583984375</LatitudeDegrees>
              <LongitudeDegrees>37.0324231870472431182861328125</LongitudeDegrees>
            </Position>
            <AltitudeMeters>751.4000244140625</AltitudeMeters>
            <DistanceMeters>NAN</DistanceMeters>
          </Trackpoint>
          <Trackpoint>
            <Time>2021-08-03T12:33:50.000Z</Time>
            <Position>
              <LatitudeDegrees>-15.4544674046337604522705078125</LatitudeDegrees>
              <LongitudeDegrees>37.03239158727228641510009765625</LongitudeDegrees>
            </Position>
            <AltitudeMeters>751.20001220703125</AltitudeMeters>
            <DistanceMeters>NAN</DistanceMeters>
          </Trackpoint>
          <Trackpoint>
            <Time>2021-08-03T12:33:58.000Z</Time>
            <Position>
              <LatitudeDegrees>-15.45449347235262393951416015625</LatitudeDegrees>
              <LongitudeDegrees>37.03229234553873538970947265625</LongitudeDegrees>
            </Position>
            <AltitudeMeters>751</AltitudeMeters>
            <DistanceMeters>NAN</DistanceMeters>
          </Trackpoint>
          <Trackpoint>
            <Time>2021-08-03T12:34:00.000Z</Time>
            <Position>
              <LatitudeDegrees>-15.45451157726347446441650390625</LatitudeDegrees>
              <LongitudeDegrees>37.03227139078080654144287109375</LongitudeDegrees>
            </Position>
            <AltitudeMeters>751</AltitudeMeters>
            <DistanceMeters>NAN</DistanceMeters>
          </Trackpoint>
          <Trackpoint>
            <Time>2021-08-03T12:34:07.000Z</Time>
            <Position>
              <LatitudeDegrees>-15.45457662083208560943603515625</LatitudeDegrees>
              <LongitudeDegrees>37.0322183333337306976318359375</LongitudeDegrees>
            </Position>
            <AltitudeMeters>750.79998779296875</AltitudeMeters>
            <DistanceMeters>NAN</DistanceMeters>
          </Trackpoint>
          <Trackpoint>
            <Time>2021-08-03T12:34:15.000Z</Time>
            <Position>
              <LatitudeDegrees>-15.454647950828075408935546875</LatitudeDegrees>
              <LongitudeDegrees>37.0321633480489253997802734375</LongitudeDegrees>
            </Position>
            <AltitudeMeters>751.20001220703125</AltitudeMeters>
            <DistanceMeters>NAN</DistanceMeters>
          </Trackpoint>
          <Trackpoint>
            <Time>2021-08-03T12:34:18.000Z</Time>
            <Position>
              <LatitudeDegrees>-15.45467955060303211212158203125</LatitudeDegrees>
              <LongitudeDegrees>37.0321422256529331207275390625</LongitudeDegrees>
            </Position>
            <AltitudeMeters>750.79998779296875</AltitudeMeters>
            <DistanceMeters>NAN</DistanceMeters>
          </Trackpoint>
          <Trackpoint>
            <Time>2021-08-03T12:34:23.000Z</Time>
            <Position>
              <LatitudeDegrees>-15.45471911318600177764892578125</LatitudeDegrees>
              <LongitudeDegrees>37.0320976339280605316162109375</LongitudeDegrees>
            </Position>
            <AltitudeMeters>751.4000244140625</AltitudeMeters>
            <DistanceMeters>NAN</DistanceMeters>
          </Trackpoint>
          <Trackpoint>
            <Time>2021-08-03T12:34:27.000Z</Time>
            <Position>
              <LatitudeDegrees>-15.4547557421028614044189453125</LatitudeDegrees>
              <LongitudeDegrees>37.03206486068665981292724609375</LongitudeDegrees>
            </Position>
            <AltitudeMeters>751.5999755859375</AltitudeMeters>
            <DistanceMeters>NAN</DistanceMeters>
          </Trackpoint>
          <Trackpoint>
            <Time>2021-08-03T12:34:31.000Z</Time>
            <Position>
              <LatitudeDegrees>-15.4547958076000213623046875</LatitudeDegrees>
              <LongitudeDegrees>37.03202563337981700897216796875</LongitudeDegrees>
            </Position>
            <AltitudeMeters>751.4000244140625</AltitudeMeters>
            <DistanceMeters>NAN</DistanceMeters>
          </Trackpoint>
          <Trackpoint>
            <Time>2021-08-03T12:34:42.000Z</Time>
            <Position>
              <LatitudeDegrees>-15.454890690743923187255859375</LatitudeDegrees>
              <LongitudeDegrees>37.03193007968366146087646484375</LongitudeDegrees>
            </Position>
            <AltitudeMeters>751.4000244140625</AltitudeMeters>
            <DistanceMeters>NAN</DistanceMeters>
          </Trackpoint>
          <Trackpoint>
            <Time>2021-08-03T12:34:53.000Z</Time>
            <Position>
              <LatitudeDegrees>-15.4549921117722988128662109375</LatitudeDegrees>
              <LongitudeDegrees>37.0318341068923473358154296875</LongitudeDegrees>
            </Position>
            <AltitudeMeters>751.5999755859375</AltitudeMeters>
            <DistanceMeters>NAN</DistanceMeters>
          </Trackpoint>
          <Trackpoint>
            <Time>2021-08-03T12:34:55.000Z</Time>
            <Position>
              <LatitudeDegrees>-15.45501315034925937652587890625</LatitudeDegrees>
              <LongitudeDegrees>37.03181390650570392608642578125</LongitudeDegrees>
            </Position>
            <AltitudeMeters>751.5999755859375</AltitudeMeters>
            <DistanceMeters>NAN</DistanceMeters>
          </Trackpoint>
          <Trackpoint>
            <Time>2021-08-03T12:34:57.000Z</Time>
            <Position>
              <LatitudeDegrees>-15.4550387151539325714111328125</LatitudeDegrees>
              <LongitudeDegrees>37.031803429126739501953125</LongitudeDegrees>
            </Position>
            <AltitudeMeters>751.5999755859375</AltitudeMeters>
            <DistanceMeters>NAN</DistanceMeters>
          </Trackpoint>
          <Trackpoint>
            <Time>2021-08-03T12:35:01.000Z</Time>
            <Position>
              <LatitudeDegrees>-15.4550873301923274993896484375</LatitudeDegrees>
              <LongitudeDegrees>37.03176730312407016754150390625</LongitudeDegrees>
            </Position>
            <AltitudeMeters>751.5999755859375</AltitudeMeters>
            <DistanceMeters>NAN</DistanceMeters>
          </Trackpoint>
          <Trackpoint>
            <Time>2021-08-03T12:35:10.000Z</Time>
            <Position>
              <LatitudeDegrees>-15.455179028213024139404296875</LatitudeDegrees>
              <LongitudeDegrees>37.03169974498450756072998046875</LongitudeDegrees>
            </Position>
            <AltitudeMeters>752</AltitudeMeters>
            <DistanceMeters>NAN</DistanceMeters>
          </Trackpoint>
          <Trackpoint>
            <Time>2021-08-03T12:35:22.000Z</Time>
            <Position>
              <LatitudeDegrees>-15.45530718751251697540283203125</LatitudeDegrees>
              <LongitudeDegrees>37.03161634504795074462890625</LongitudeDegrees>
            </Position>
            <AltitudeMeters>751.79998779296875</AltitudeMeters>
            <DistanceMeters>NAN</DistanceMeters>
          </Trackpoint>
          <Trackpoint>
            <Time>2021-08-03T12:35:30.000Z</Time>
            <Position>
              <LatitudeDegrees>-15.45539938844740390777587890625</LatitudeDegrees>
              <LongitudeDegrees>37.03157267533242702484130859375</LongitudeDegrees>
            </Position>
            <AltitudeMeters>750.79998779296875</AltitudeMeters>
            <DistanceMeters>NAN</DistanceMeters>
          </Trackpoint>
          <Trackpoint>
            <Time>2021-08-03T12:35:40.000Z</Time>
            <Position>
              <LatitudeDegrees>-15.4554960317909717559814453125</LatitudeDegrees>
              <LongitudeDegrees>37.03152087517082691192626953125</LongitudeDegrees>
            </Position>
            <AltitudeMeters>751</AltitudeMeters>
            <DistanceMeters>NAN</DistanceMeters>
          </Trackpoint>
          <Trackpoint>
            <Time>2021-08-03T12:35:43.000Z</Time>
            <Position>
              <LatitudeDegrees>-15.45552712865173816680908203125</LatitudeDegrees>
              <LongitudeDegrees>37.03150637447834014892578125</LongitudeDegrees>
            </Position>
            <AltitudeMeters>750.79998779296875</AltitudeMeters>
            <DistanceMeters>NAN</DistanceMeters>
          </Trackpoint>
          <Trackpoint>
            <Time>2021-08-03T12:35:44.000Z</Time>
            <Position>
              <LatitudeDegrees>-15.45553567819297313690185546875</LatitudeDegrees>
              <LongitudeDegrees>37.03149824403226375579833984375</LongitudeDegrees>
            </Position>
            <AltitudeMeters>750.79998779296875</AltitudeMeters>
            <DistanceMeters>NAN</DistanceMeters>
          </Trackpoint>
          <Trackpoint>
            <Time>2021-08-03T12:35:47.000Z</Time>
            <Position>
              <LatitudeDegrees>-15.45555730350315570831298828125</LatitudeDegrees>
              <LongitudeDegrees>37.03145935200154781341552734375</LongitudeDegrees>
            </Position>
            <AltitudeMeters>750.79998779296875</AltitudeMeters>
            <DistanceMeters>NAN</DistanceMeters>
          </Trackpoint>
          <Trackpoint>
            <Time>2021-08-03T12:35:50.000Z</Time>
            <Position>
              <LatitudeDegrees>-15.45556250028312206268310546875</LatitudeDegrees>
              <LongitudeDegrees>37.03141274861991405487060546875</LongitudeDegrees>
            </Position>
            <AltitudeMeters>750.79998779296875</AltitudeMeters>
            <DistanceMeters>NAN</DistanceMeters>
          </Trackpoint>
          <Trackpoint>
            <Time>2021-08-03T12:35:54.000Z</Time>
            <Position>
              <LatitudeDegrees>-15.4555548727512359619140625</LatitudeDegrees>
              <LongitudeDegrees>37.03136262483894824981689453125</LongitudeDegrees>
            </Position>
            <AltitudeMeters>750.79998779296875</AltitudeMeters>
            <DistanceMeters>NAN</DistanceMeters>
          </Trackpoint>
          <Trackpoint>
            <Time>2021-08-03T12:35:57.000Z</Time>
            <Position>
              <LatitudeDegrees>-15.45555126853287220001220703125</LatitudeDegrees>
              <LongitudeDegrees>37.031327001750469207763671875</LongitudeDegrees>
            </Position>
            <AltitudeMeters>750.79998779296875</AltitudeMeters>
            <DistanceMeters>NAN</DistanceMeters>
          </Trackpoint>
          <Trackpoint>
            <Time>2021-08-03T12:36:03.000Z</Time>
            <Position>
              <LatitudeDegrees>-15.4555253684520721435546875</LatitudeDegrees>
              <LongitudeDegrees>37.0312631316483020782470703125</LongitudeDegrees>
            </Position>
            <AltitudeMeters>751.4000244140625</AltitudeMeters>
            <DistanceMeters>NAN</DistanceMeters>
          </Trackpoint>
          <Trackpoint>
            <Time>2021-08-03T12:36:07.000Z</Time>
            <Position>
              <LatitudeDegrees>-15.45550717972218990325927734375</LatitudeDegrees>
              <LongitudeDegrees>37.031213343143463134765625</LongitudeDegrees>
            </Position>
            <AltitudeMeters>752</AltitudeMeters>
            <DistanceMeters>NAN</DistanceMeters>
          </Trackpoint>
          <Trackpoint>
            <Time>2021-08-03T12:36:14.000Z</Time>
            <Position>
              <LatitudeDegrees>-15.4554896615445613861083984375</LatitudeDegrees>
              <LongitudeDegrees>37.03112591989338397979736328125</LongitudeDegrees>
            </Position>
            <AltitudeMeters>752.4000244140625</AltitudeMeters>
            <DistanceMeters>NAN</DistanceMeters>
          </Trackpoint>
          <Trackpoint>
            <Time>2021-08-03T12:36:18.000Z</Time>
            <Position>
              <LatitudeDegrees>-15.45548605732619762420654296875</LatitudeDegrees>
              <LongitudeDegrees>37.0310760475695133209228515625</LongitudeDegrees>
            </Position>
            <AltitudeMeters>752.5999755859375</AltitudeMeters>
            <DistanceMeters>NAN</DistanceMeters>
          </Trackpoint>
          <Trackpoint>
            <Time>2021-08-03T12:36:21.000Z</Time>
            <Position>
              <LatitudeDegrees>-15.45548890717327594757080078125</LatitudeDegrees>
              <LongitudeDegrees>37.0310354791581630706787109375</LongitudeDegrees>
            </Position>
            <AltitudeMeters>752.79998779296875</AltitudeMeters>
            <DistanceMeters>NAN</DistanceMeters>
          </Trackpoint>
          <Trackpoint>
            <Time>2021-08-03T12:36:23.000Z</Time>
            <Position>
              <LatitudeDegrees>-15.45549427159130573272705078125</LatitudeDegrees>
              <LongitudeDegrees>37.03101284801959991455078125</LongitudeDegrees>
            </Position>
            <AltitudeMeters>752.79998779296875</AltitudeMeters>
            <DistanceMeters>NAN</DistanceMeters>
          </Trackpoint>
          <Trackpoint>
            <Time>2021-08-03T12:36:26.000Z</Time>
            <Position>
              <LatitudeDegrees>-15.455504246056079864501953125</LatitudeDegrees>
              <LongitudeDegrees>37.03097420744597911834716796875</LongitudeDegrees>
            </Position>
            <AltitudeMeters>752.79998779296875</AltitudeMeters>
            <DistanceMeters>NAN</DistanceMeters>
          </Trackpoint>
          <Trackpoint>
            <Time>2021-08-03T12:36:28.000Z</Time>
            <Position>
              <LatitudeDegrees>-15.455508939921855926513671875</LatitudeDegrees>
              <LongitudeDegrees>37.03094847500324249267578125</LongitudeDegrees>
            </Position>
            <AltitudeMeters>752.5999755859375</AltitudeMeters>
            <DistanceMeters>NAN</DistanceMeters>
          </Trackpoint>
          <Trackpoint>
            <Time>2021-08-03T12:36:30.000Z</Time>
            <Position>
              <LatitudeDegrees>-15.45551690272986888885498046875</LatitudeDegrees>
              <LongitudeDegrees>37.03091888688504695892333984375</LongitudeDegrees>
            </Position>
            <AltitudeMeters>752.5999755859375</AltitudeMeters>
            <DistanceMeters>NAN</DistanceMeters>
          </Trackpoint>
          <Trackpoint>
            <Time>2021-08-03T12:36:31.000Z</Time>
            <Position>
              <LatitudeDegrees>-15.45552067458629608154296875</LatitudeDegrees>
              <LongitudeDegrees>37.0309100858867168426513671875</LongitudeDegrees>
            </Position>
            <AltitudeMeters>752.5999755859375</AltitudeMeters>
            <DistanceMeters>NAN</DistanceMeters>
          </Trackpoint>
          <Trackpoint>
            <Time>2021-08-03T12:36:38.000Z</Time>
            <Position>
              <LatitudeDegrees>-15.455555878579616546630859375</LatitudeDegrees>
              <LongitudeDegrees>37.0308373309671878814697265625</LongitudeDegrees>
            </Position>
            <AltitudeMeters>753.20001220703125</AltitudeMeters>
            <DistanceMeters>NAN</DistanceMeters>
          </Trackpoint>
          <Trackpoint>
            <Time>2021-08-03T12:36:44.000Z</Time>
            <Position>
              <LatitudeDegrees>-15.45558798126876354217529296875</LatitudeDegrees>
              <LongitudeDegrees>37.03076818026602268218994140625</LongitudeDegrees>
            </Position>
            <AltitudeMeters>753.5999755859375</AltitudeMeters>
            <DistanceMeters>NAN</DistanceMeters>
          </Trackpoint>
          <Trackpoint>
            <Time>2021-08-03T12:36:47.000Z</Time>
            <Position>
              <LatitudeDegrees>-15.45559753663837909698486328125</LatitudeDegrees>
              <LongitudeDegrees>37.030732221901416778564453125</LongitudeDegrees>
            </Position>
            <AltitudeMeters>753.79998779296875</AltitudeMeters>
            <DistanceMeters>NAN</DistanceMeters>
          </Trackpoint>
          <Trackpoint>
            <Time>2021-08-03T12:36:57.000Z</Time>
            <Position>
              <LatitudeDegrees>-15.45563626103103160858154296875</LatitudeDegrees>
              <LongitudeDegrees>37.0306187309324741363525390625</LongitudeDegrees>
            </Position>
            <AltitudeMeters>754.20001220703125</AltitudeMeters>
            <DistanceMeters>NAN</DistanceMeters>
          </Trackpoint>
          <Trackpoint>
            <Time>2021-08-03T12:37:10.000Z</Time>
            <Position>
              <LatitudeDegrees>-15.4556757397949695587158203125</LatitudeDegrees>
              <LongitudeDegrees>37.03046928159892559051513671875</LongitudeDegrees>
            </Position>
            <AltitudeMeters>754</AltitudeMeters>
            <DistanceMeters>NAN</DistanceMeters>
          </Trackpoint>
          <Trackpoint>
            <Time>2021-08-03T12:37:19.000Z</Time>
            <Position>
              <LatitudeDegrees>-15.4556889832019805908203125</LatitudeDegrees>
              <LongitudeDegrees>37.03034631907939910888671875</LongitudeDegrees>
            </Position>
            <AltitudeMeters>753.4000244140625</AltitudeMeters>
            <DistanceMeters>NAN</DistanceMeters>
          </Trackpoint>
          <Trackpoint>
            <Time>2021-08-03T12:37:28.000Z</Time>
            <Position>
              <LatitudeDegrees>-15.45568001456558704376220703125</LatitudeDegrees>
              <LongitudeDegrees>37.03022838570177555084228515625</LongitudeDegrees>
            </Position>
            <AltitudeMeters>752.5999755859375</AltitudeMeters>
            <DistanceMeters>NAN</DistanceMeters>
          </Trackpoint>
          <Trackpoint>
            <Time>2021-08-03T12:37:29.000Z</Time>
            <Position>
              <LatitudeDegrees>-15.4556794278323650360107421875</LatitudeDegrees>
              <LongitudeDegrees>37.03021489083766937255859375</LongitudeDegrees>
            </Position>
            <AltitudeMeters>752.5999755859375</AltitudeMeters>
            <DistanceMeters>NAN</DistanceMeters>
          </Trackpoint>
          <Trackpoint>
            <Time>2021-08-03T12:37:37.000Z</Time>
            <Position>
              <LatitudeDegrees>-15.4556710459291934967041015625</LatitudeDegrees>
              <LongitudeDegrees>37.03011003322899341583251953125</LongitudeDegrees>
            </Position>
            <AltitudeMeters>752.4000244140625</AltitudeMeters>
            <DistanceMeters>NAN</DistanceMeters>
          </Trackpoint>
          <Trackpoint>
            <Time>2021-08-03T12:37:39.000Z</Time>
            <Position>
              <LatitudeDegrees>-15.4556653462350368499755859375</LatitudeDegrees>
              <LongitudeDegrees>37.03008882701396942138671875</LongitudeDegrees>
            </Position>
            <AltitudeMeters>752.20001220703125</AltitudeMeters>
            <DistanceMeters>NAN</DistanceMeters>
          </Trackpoint>
          <Trackpoint>
            <Time>2021-08-03T12:37:44.000Z</Time>
            <Position>
              <LatitudeDegrees>-15.455673225224018096923828125</LatitudeDegrees>
              <LongitudeDegrees>37.03002177178859710693359375</LongitudeDegrees>
            </Position>
            <AltitudeMeters>751.79998779296875</AltitudeMeters>
            <DistanceMeters>NAN</DistanceMeters>
          </Trackpoint>
          <Trackpoint>
            <Time>2021-08-03T12:37:54.000Z</Time>
            <Position>
              <LatitudeDegrees>-15.45566224493086338043212890625</LatitudeDegrees>
              <LongitudeDegrees>37.02988523058593273162841796875</LongitudeDegrees>
            </Position>
            <AltitudeMeters>752.20001220703125</AltitudeMeters>
            <DistanceMeters>NAN</DistanceMeters>
          </Trackpoint>
          <Trackpoint>
            <Time>2021-08-03T12:37:58.000Z</Time>
            <Position>
              <LatitudeDegrees>-15.4556660167872905731201171875</LatitudeDegrees>
              <LongitudeDegrees>37.02984273433685302734375</LongitudeDegrees>
            </Position>
            <AltitudeMeters>752</AltitudeMeters>
            <DistanceMeters>NAN</DistanceMeters>
          </Trackpoint>
          <Trackpoint>
            <Time>2021-08-03T12:38:00.000Z</Time>
            <Position>
              <LatitudeDegrees>-15.45566710643470287322998046875</LatitudeDegrees>
              <LongitudeDegrees>37.0298207737505435943603515625</LongitudeDegrees>
            </Position>
            <AltitudeMeters>751.5999755859375</AltitudeMeters>
            <DistanceMeters>NAN</DistanceMeters>
          </Trackpoint>
          <Trackpoint>
            <Time>2021-08-03T12:38:02.000Z</Time>
            <Position>
              <LatitudeDegrees>-15.45566660352051258087158203125</LatitudeDegrees>
              <LongitudeDegrees>37.02979939989745616912841796875</LongitudeDegrees>
            </Position>
            <AltitudeMeters>751.4000244140625</AltitudeMeters>
            <DistanceMeters>NAN</DistanceMeters>
          </Trackpoint>
          <Trackpoint>
            <Time>2021-08-03T12:38:03.000Z</Time>
            <Position>
              <LatitudeDegrees>-15.45566911809146404266357421875</LatitudeDegrees>
              <LongitudeDegrees>37.02978716231882572174072265625</LongitudeDegrees>
            </Position>
            <AltitudeMeters>751.20001220703125</AltitudeMeters>
            <DistanceMeters>NAN</DistanceMeters>
          </Trackpoint>
          <Trackpoint>
            <Time>2021-08-03T12:38:04.000Z</Time>
            <Position>
              <LatitudeDegrees>-15.45567314140498638153076171875</LatitudeDegrees>
              <LongitudeDegrees>37.0297741703689098358154296875</LongitudeDegrees>
            </Position>
            <AltitudeMeters>751</AltitudeMeters>
            <DistanceMeters>NAN</DistanceMeters>
          </Trackpoint>
          <Trackpoint>
            <Time>2021-08-03T12:38:06.000Z</Time>
            <Position>
              <LatitudeDegrees>-15.45568018220365047454833984375</LatitudeDegrees>
              <LongitudeDegrees>37.0297433249652385711669921875</LongitudeDegrees>
            </Position>
            <AltitudeMeters>750.79998779296875</AltitudeMeters>
            <DistanceMeters>NAN</DistanceMeters>
          </Trackpoint>
          <Trackpoint>
            <Time>2021-08-03T12:38:08.000Z</Time>
            <Position>
              <LatitudeDegrees>-15.45568873174488544464111328125</LatitudeDegrees>
              <LongitudeDegrees>37.0297201909124851226806640625</LongitudeDegrees>
            </Position>
            <AltitudeMeters>750.79998779296875</AltitudeMeters>
            <DistanceMeters>NAN</DistanceMeters>
          </Trackpoint>
          <Trackpoint>
            <Time>2021-08-03T12:38:11.000Z</Time>
            <Position>
              <LatitudeDegrees>-15.455712787806987762451171875</LatitudeDegrees>
              <LongitudeDegrees>37.02969026751816272735595703125</LongitudeDegrees>
            </Position>
            <AltitudeMeters>750.79998779296875</AltitudeMeters>
            <DistanceMeters>NAN</DistanceMeters>
          </Trackpoint>
          <Trackpoint>
            <Time>2021-08-03T12:38:18.000Z</Time>
            <Position>
              <LatitudeDegrees>-15.4557716287672519683837890625</LatitudeDegrees>
              <LongitudeDegrees>37.02962220646440982818603515625</LongitudeDegrees>
            </Position>
            <AltitudeMeters>750.4000244140625</AltitudeMeters>
            <DistanceMeters>NAN</DistanceMeters>
          </Trackpoint>
          <Trackpoint>
            <Time>2021-08-03T12:38:22.000Z</Time>
            <Position>
              <LatitudeDegrees>-15.45580121688544750213623046875</LatitudeDegrees>
              <LongitudeDegrees>37.02957778237760066986083984375</LongitudeDegrees>
            </Position>
            <AltitudeMeters>750.4000244140625</AltitudeMeters>
            <DistanceMeters>NAN</DistanceMeters>
          </Trackpoint>
          <Trackpoint>
            <Time>2021-08-03T12:38:25.000Z</Time>
            <Position>
              <LatitudeDegrees>-15.45581848360598087310791015625</LatitudeDegrees>
              <LongitudeDegrees>37.02954442240297794342041015625</LongitudeDegrees>
            </Position>
            <AltitudeMeters>750.20001220703125</AltitudeMeters>
            <DistanceMeters>NAN</DistanceMeters>
          </Trackpoint>
          <Trackpoint>
            <Time>2021-08-03T12:38:35.000Z</Time>
            <Position>
              <LatitudeDegrees>-15.45588486827909946441650390625</LatitudeDegrees>
              <LongitudeDegrees>37.0294281654059886932373046875</LongitudeDegrees>
            </Position>
            <AltitudeMeters>749.5999755859375</AltitudeMeters>
            <DistanceMeters>NAN</DistanceMeters>
          </Trackpoint>
          <Trackpoint>
            <Time>2021-08-03T12:38:38.000Z</Time>
            <Position>
              <LatitudeDegrees>-15.4559037275612354278564453125</LatitudeDegrees>
              <LongitudeDegrees>37.02939949929714202880859375</LongitudeDegrees>
            </Position>
            <AltitudeMeters>749.79998779296875</AltitudeMeters>
            <DistanceMeters>NAN</DistanceMeters>
          </Trackpoint>
          <Trackpoint>
            <Time>2021-08-03T12:38:41.000Z</Time>
            <Position>
              <LatitudeDegrees>-15.45592702925205230712890625</LatitudeDegrees>
              <LongitudeDegrees>37.02936421148478984832763671875</LongitudeDegrees>
            </Position>
            <AltitudeMeters>750</AltitudeMeters>
            <DistanceMeters>NAN</DistanceMeters>
          </Trackpoint>
          <Trackpoint>
            <Time>2021-08-03T12:38:45.000Z</Time>
            <Position>
              <LatitudeDegrees>-15.45595158822834491729736328125</LatitudeDegrees>
              <LongitudeDegrees>37.02932280488312244415283203125</LongitudeDegrees>
            </Position>
            <AltitudeMeters>749.79998779296875</AltitudeMeters>
            <DistanceMeters>NAN</DistanceMeters>
          </Trackpoint>
          <Trackpoint>
            <Time>2021-08-03T12:38:46.000Z</Time>
            <Position>
              <LatitudeDegrees>-15.455956868827342987060546875</LatitudeDegrees>
              <LongitudeDegrees>37.02931375242769718170166015625</LongitudeDegrees>
            </Position>
            <AltitudeMeters>749.79998779296875</AltitudeMeters>
            <DistanceMeters>NAN</DistanceMeters>
          </Trackpoint>
          <Trackpoint>
            <Time>2021-08-03T12:38:54.000Z</Time>
            <Position>
              <LatitudeDegrees>-15.45600875280797481536865234375</LatitudeDegrees>
              <LongitudeDegrees>37.02923026867210865020751953125</LongitudeDegrees>
            </Position>
            <AltitudeMeters>750</AltitudeMeters>
            <DistanceMeters>NAN</DistanceMeters>
          </Trackpoint>
          <Trackpoint>
            <Time>2021-08-03T12:39:04.000Z</Time>
            <Position>
              <LatitudeDegrees>-15.456081591546535491943359375</LatitudeDegrees>
              <LongitudeDegrees>37.0291280932724475860595703125</LongitudeDegrees>
            </Position>
            <AltitudeMeters>749.79998779296875</AltitudeMeters>
            <DistanceMeters>NAN</DistanceMeters>
          </Trackpoint>
          <Trackpoint>
            <Time>2021-08-03T12:39:05.000Z</Time>
            <Position>
              <LatitudeDegrees>-15.45609290711581707000732421875</LatitudeDegrees>
              <LongitudeDegrees>37.029118202626705169677734375</LongitudeDegrees>
            </Position>
            <AltitudeMeters>749.79998779296875</AltitudeMeters>
            <DistanceMeters>NAN</DistanceMeters>
          </Trackpoint>
          <Trackpoint>
            <Time>2021-08-03T12:39:07.000Z</Time>
            <Position>
              <LatitudeDegrees>-15.45611478388309478759765625</LatitudeDegrees>
              <LongitudeDegrees>37.0291029475629329681396484375</LongitudeDegrees>
            </Position>
            <AltitudeMeters>749.79998779296875</AltitudeMeters>
            <DistanceMeters>NAN</DistanceMeters>
          </Trackpoint>
          <Trackpoint>
            <Time>2021-08-03T12:39:10.000Z</Time>
            <Position>
              <LatitudeDegrees>-15.45613733120262622833251953125</LatitudeDegrees>
              <LongitudeDegrees>37.02907335944473743438720703125</LongitudeDegrees>
            </Position>
            <AltitudeMeters>749.5999755859375</AltitudeMeters>
            <DistanceMeters>NAN</DistanceMeters>
          </Trackpoint>
          <Trackpoint>
            <Time>2021-08-03T12:39:13.000Z</Time>
            <Position>
              <LatitudeDegrees>-15.4561565257608890533447265625</LatitudeDegrees>
              <LongitudeDegrees>37.0290452800691127777099609375</LongitudeDegrees>
            </Position>
            <AltitudeMeters>749.4000244140625</AltitudeMeters>
            <DistanceMeters>NAN</DistanceMeters>
          </Trackpoint>
          <Trackpoint>
            <Time>2021-08-03T12:39:14.000Z</Time>
            <Position>
              <LatitudeDegrees>-15.45616750605404376983642578125</LatitudeDegrees>
              <LongitudeDegrees>37.0290375687181949615478515625</LongitudeDegrees>
            </Position>
            <AltitudeMeters>749.20001220703125</AltitudeMeters>
            <DistanceMeters>NAN</DistanceMeters>
          </Trackpoint>
          <Trackpoint>
            <Time>2021-08-03T12:39:21.000Z</Time>
            <Position>
              <LatitudeDegrees>-15.45626163482666015625</LatitudeDegrees>
              <LongitudeDegrees>37.02900278382003307342529296875</LongitudeDegrees>
            </Position>
            <AltitudeMeters>749</AltitudeMeters>
            <DistanceMeters>NAN</DistanceMeters>
          </Trackpoint>
          <Trackpoint>
            <Time>2021-08-03T12:39:28.000Z</Time>
            <Position>
              <LatitudeDegrees>-15.45631460845470428466796875</LatitudeDegrees>
              <LongitudeDegrees>37.02894846908748149871826171875</LongitudeDegrees>
            </Position>
            <AltitudeMeters>748.79998779296875</AltitudeMeters>
            <DistanceMeters>NAN</DistanceMeters>
          </Trackpoint>
          <Trackpoint>
            <Time>2021-08-03T12:39:35.000Z</Time>
            <Position>
              <LatitudeDegrees>-15.4564078152179718017578125</LatitudeDegrees>
              <LongitudeDegrees>37.02888946048915386199951171875</LongitudeDegrees>
            </Position>
            <AltitudeMeters>748.5999755859375</AltitudeMeters>
            <DistanceMeters>NAN</DistanceMeters>
          </Trackpoint>
          <Trackpoint>
            <Time>2021-08-03T12:39:37.000Z</Time>
            <Position>
              <LatitudeDegrees>-15.45642784796655178070068359375</LatitudeDegrees>
              <LongitudeDegrees>37.02887102030217647552490234375</LongitudeDegrees>
            </Position>
            <AltitudeMeters>748.4000244140625</AltitudeMeters>
            <DistanceMeters>NAN</DistanceMeters>
          </Trackpoint>
          <Trackpoint>
            <Time>2021-08-03T12:39:41.000Z</Time>
            <Position>
              <LatitudeDegrees>-15.45645467005670070648193359375</LatitudeDegrees>
              <LongitudeDegrees>37.028824500739574432373046875</LongitudeDegrees>
            </Position>
            <AltitudeMeters>748.20001220703125</AltitudeMeters>
            <DistanceMeters>NAN</DistanceMeters>
          </Trackpoint>
          <Trackpoint>
            <Time>2021-08-03T12:39:42.000Z</Time>
            <Position>
              <LatitudeDegrees>-15.45646254904568195343017578125</LatitudeDegrees>
              <LongitudeDegrees>37.0288141071796417236328125</LongitudeDegrees>
            </Position>
            <AltitudeMeters>748.20001220703125</AltitudeMeters>
            <DistanceMeters>NAN</DistanceMeters>
          </Trackpoint>
          <Trackpoint>
            <Time>2021-08-03T12:39:45.000Z</Time>
            <Position>
              <LatitudeDegrees>-15.456474535167217254638671875</LatitudeDegrees>
              <LongitudeDegrees>37.02877999283373355865478515625</LongitudeDegrees>
            </Position>
            <AltitudeMeters>747.79998779296875</AltitudeMeters>
            <DistanceMeters>NAN</DistanceMeters>
          </Trackpoint>
          <Trackpoint>
            <Time>2021-08-03T12:39:52.000Z</Time>
            <Position>
              <LatitudeDegrees>-15.4564968310296535491943359375</LatitudeDegrees>
              <LongitudeDegrees>37.028699778020381927490234375</LongitudeDegrees>
            </Position>
            <AltitudeMeters>747.20001220703125</AltitudeMeters>
            <DistanceMeters>NAN</DistanceMeters>
          </Trackpoint>
          <Trackpoint>
            <Time>2021-08-03T12:39:54.000Z</Time>
            <Position>
              <LatitudeDegrees>-15.45650579966604709625244140625</LatitudeDegrees>
              <LongitudeDegrees>37.028678320348262786865234375</LongitudeDegrees>
            </Position>
            <AltitudeMeters>746.79998779296875</AltitudeMeters>
            <DistanceMeters>NAN</DistanceMeters>
          </Trackpoint>
          <Trackpoint>
            <Time>2021-08-03T12:39:58.000Z</Time>
            <Position>
              <LatitudeDegrees>-15.4565233178436756134033203125</LatitudeDegrees>
              <LongitudeDegrees>37.02864051796495914459228515625</LongitudeDegrees>
            </Position>
            <AltitudeMeters>746.20001220703125</AltitudeMeters>
            <DistanceMeters>NAN</DistanceMeters>
          </Trackpoint>
          <Trackpoint>
            <Time>2021-08-03T12:40:01.000Z</Time>
            <Position>
              <LatitudeDegrees>-15.45653815381228923797607421875</LatitudeDegrees>
              <LongitudeDegrees>37.02861185185611248016357421875</LongitudeDegrees>
            </Position>
            <AltitudeMeters>745.5999755859375</AltitudeMeters>
            <DistanceMeters>NAN</DistanceMeters>
          </Trackpoint>
          <Trackpoint>
            <Time>2021-08-03T12:40:03.000Z</Time>
            <Position>
              <LatitudeDegrees>-15.45654519461095333099365234375</LatitudeDegrees>
              <LongitudeDegrees>37.02858637087047100067138671875</LongitudeDegrees>
            </Position>
            <AltitudeMeters>745.20001220703125</AltitudeMeters>
            <DistanceMeters>NAN</DistanceMeters>
          </Trackpoint>
          <Trackpoint>
            <Time>2021-08-03T12:40:04.000Z</Time>
            <Position>
              <LatitudeDegrees>-15.45655005611479282379150390625</LatitudeDegrees>
              <LongitudeDegrees>37.028573043644428253173828125</LongitudeDegrees>
            </Position>
            <AltitudeMeters>744.79998779296875</AltitudeMeters>
            <DistanceMeters>NAN</DistanceMeters>
          </Trackpoint>
          <Trackpoint>
            <Time>2021-08-03T12:40:08.000Z</Time>
            <Position>
              <LatitudeDegrees>-15.45656380243599414825439453125</LatitudeDegrees>
              <LongitudeDegrees>37.0285302959382534027099609375</LongitudeDegrees>
            </Position>
            <AltitudeMeters>743.5999755859375</AltitudeMeters>
            <DistanceMeters>NAN</DistanceMeters>
          </Trackpoint>
          <Trackpoint>
            <Time>2021-08-03T12:40:12.000Z</Time>
            <Position>
              <LatitudeDegrees>-15.4565799795091152191162109375</LatitudeDegrees>
              <LongitudeDegrees>37.0284810103476047515869140625</LongitudeDegrees>
            </Position>
            <AltitudeMeters>743</AltitudeMeters>
            <DistanceMeters>NAN</DistanceMeters>
          </Trackpoint>
          <Trackpoint>
            <Time>2021-08-03T12:40:16.000Z</Time>
            <Position>
              <LatitudeDegrees>-15.45659632422029972076416015625</LatitudeDegrees>
              <LongitudeDegrees>37.02843499369919300079345703125</LongitudeDegrees>
            </Position>
            <AltitudeMeters>742.20001220703125</AltitudeMeters>
            <DistanceMeters>NAN</DistanceMeters>
          </Trackpoint>
          <Trackpoint>
            <Time>2021-08-03T12:40:20.000Z</Time>
            <Position>
              <LatitudeDegrees>-15.4566088132560253143310546875</LatitudeDegrees>
              <LongitudeDegrees>37.028379254043102264404296875</LongitudeDegrees>
            </Position>
            <AltitudeMeters>741.20001220703125</AltitudeMeters>
            <DistanceMeters>NAN</DistanceMeters>
          </Trackpoint>
          <Trackpoint>
            <Time>2021-08-03T12:40:25.000Z</Time>
            <Position>
              <LatitudeDegrees>-15.4566232301294803619384765625</LatitudeDegrees>
              <LongitudeDegrees>37.02831496484577655792236328125</LongitudeDegrees>
            </Position>
            <AltitudeMeters>739.79998779296875</AltitudeMeters>
            <DistanceMeters>NAN</DistanceMeters>
          </Trackpoint>
          <Trackpoint>
            <Time>2021-08-03T12:40:27.000Z</Time>
            <Position>
              <LatitudeDegrees>-15.45663437806069850921630859375</LatitudeDegrees>
              <LongitudeDegrees>37.0282888971269130706787109375</LongitudeDegrees>
            </Position>
            <AltitudeMeters>739.79998779296875</AltitudeMeters>
            <DistanceMeters>NAN</DistanceMeters>
          </Trackpoint>
          <Trackpoint>
            <Time>2021-08-03T12:40:28.000Z</Time>
            <Position>
              <LatitudeDegrees>-15.45663706026971340179443359375</LatitudeDegrees>
              <LongitudeDegrees>37.028275318443775177001953125</LongitudeDegrees>
            </Position>
            <AltitudeMeters>739.5999755859375</AltitudeMeters>
            <DistanceMeters>NAN</DistanceMeters>
          </Trackpoint>
          <Trackpoint>
            <Time>2021-08-03T12:40:33.000Z</Time>
            <Position>
              <LatitudeDegrees>-15.4566460289061069488525390625</LatitudeDegrees>
              <LongitudeDegrees>37.02820667065680027008056640625</LongitudeDegrees>
            </Position>
            <AltitudeMeters>738.5999755859375</AltitudeMeters>
            <DistanceMeters>NAN</DistanceMeters>
          </Trackpoint>
          <Trackpoint>
            <Time>2021-08-03T12:40:38.000Z</Time>
            <Position>
              <LatitudeDegrees>-15.456669330596923828125</LatitudeDegrees>
              <LongitudeDegrees>37.02814497984945774078369140625</LongitudeDegrees>
            </Position>
            <AltitudeMeters>737.79998779296875</AltitudeMeters>
            <DistanceMeters>NAN</DistanceMeters>
          </Trackpoint>
          <Trackpoint>
            <Time>2021-08-03T12:40:42.000Z</Time>
            <Position>
              <LatitudeDegrees>-15.4566849209368228912353515625</LatitudeDegrees>
              <LongitudeDegrees>37.02809787355363368988037109375</LongitudeDegrees>
            </Position>
            <AltitudeMeters>737.4000244140625</AltitudeMeters>
            <DistanceMeters>NAN</DistanceMeters>
          </Trackpoint>
          <Trackpoint>
            <Time>2021-08-03T12:40:47.000Z</Time>
            <Position>
              <LatitudeDegrees>-15.45670009218156337738037109375</LatitudeDegrees>
              <LongitudeDegrees>37.02804758213460445404052734375</LongitudeDegrees>
            </Position>
            <AltitudeMeters>736.5999755859375</AltitudeMeters>
            <DistanceMeters>NAN</DistanceMeters>
          </Trackpoint>
          <Trackpoint>
            <Time>2021-08-03T12:40:53.000Z</Time>
            <Position>
              <LatitudeDegrees>-15.45673026703298091888427734375</LatitudeDegrees>
              <LongitudeDegrees>37.0279814489185810089111328125</LongitudeDegrees>
            </Position>
            <AltitudeMeters>736</AltitudeMeters>
            <DistanceMeters>NAN</DistanceMeters>
          </Trackpoint>
          <Trackpoint>
            <Time>2021-08-03T12:40:56.000Z</Time>
            <Position>
              <LatitudeDegrees>-15.45674518682062625885009765625</LatitudeDegrees>
              <LongitudeDegrees>37.0279452390968799591064453125</LongitudeDegrees>
            </Position>
            <AltitudeMeters>736</AltitudeMeters>
            <DistanceMeters>NAN</DistanceMeters>
          </Trackpoint>
          <Trackpoint>
            <Time>2021-08-03T12:41:02.000Z</Time>
            <Position>
              <LatitudeDegrees>-15.45676790177822113037109375</LatitudeDegrees>
              <LongitudeDegrees>37.027860581874847412109375</LongitudeDegrees>
            </Position>
            <AltitudeMeters>735.5999755859375</AltitudeMeters>
            <DistanceMeters>NAN</DistanceMeters>
          </Trackpoint>
          <Trackpoint>
            <Time>2021-08-03T12:41:06.000Z</Time>
            <Position>
              <LatitudeDegrees>-15.4567901976406574249267578125</LatitudeDegrees>
              <LongitudeDegrees>37.0278104580938816070556640625</LongitudeDegrees>
            </Position>
            <AltitudeMeters>735.5999755859375</AltitudeMeters>
            <DistanceMeters>NAN</DistanceMeters>
          </Trackpoint>
          <Trackpoint>
            <Time>2021-08-03T12:41:08.000Z</Time>
            <Position>
              <LatitudeDegrees>-15.45679195784032344818115234375</LatitudeDegrees>
              <LongitudeDegrees>37.02778615057468414306640625</LongitudeDegrees>
            </Position>
            <AltitudeMeters>735.5999755859375</AltitudeMeters>
            <DistanceMeters>NAN</DistanceMeters>
          </Trackpoint>
          <Trackpoint>
            <Time>2021-08-03T12:41:14.000Z</Time>
            <Position>
              <LatitudeDegrees>-15.45680947601795196533203125</LatitudeDegrees>
              <LongitudeDegrees>37.0277299918234348297119140625</LongitudeDegrees>
            </Position>
            <AltitudeMeters>735.20001220703125</AltitudeMeters>
            <DistanceMeters>NAN</DistanceMeters>
          </Trackpoint>
          <Trackpoint>
            <Time>2021-08-03T12:41:16.000Z</Time>
            <Position>
              <LatitudeDegrees>-15.45681894756853580474853515625</LatitudeDegrees>
              <LongitudeDegrees>37.02770568430423736572265625</LongitudeDegrees>
            </Position>
            <AltitudeMeters>735</AltitudeMeters>
            <DistanceMeters>NAN</DistanceMeters>
          </Trackpoint>
          <Trackpoint>
            <Time>2021-08-03T12:41:17.000Z</Time>
            <Position>
              <LatitudeDegrees>-15.45682515017688274383544921875</LatitudeDegrees>
              <LongitudeDegrees>37.02769386582076549530029296875</LongitudeDegrees>
            </Position>
            <AltitudeMeters>734.79998779296875</AltitudeMeters>
            <DistanceMeters>NAN</DistanceMeters>
          </Trackpoint>
          <Trackpoint>
            <Time>2021-08-03T12:41:25.000Z</Time>
            <Position>
              <LatitudeDegrees>-15.45686035417020320892333984375</LatitudeDegrees>
              <LongitudeDegrees>37.0276022516191005706787109375</LongitudeDegrees>
            </Position>
            <AltitudeMeters>733.79998779296875</AltitudeMeters>
            <DistanceMeters>NAN</DistanceMeters>
          </Trackpoint>
          <Trackpoint>
            <Time>2021-08-03T12:41:27.000Z</Time>
            <Position>
              <LatitudeDegrees>-15.45686001889407634735107421875</LatitudeDegrees>
              <LongitudeDegrees>37.02758339233696460723876953125</LongitudeDegrees>
            </Position>
            <AltitudeMeters>733.5999755859375</AltitudeMeters>
            <DistanceMeters>NAN</DistanceMeters>
          </Trackpoint>
          <Trackpoint>
            <Time>2021-08-03T12:41:33.000Z</Time>
            <Position>
              <LatitudeDegrees>-15.45686253346502780914306640625</LatitudeDegrees>
              <LongitudeDegrees>37.02751248143613338470458984375</LongitudeDegrees>
            </Position>
            <AltitudeMeters>732.5999755859375</AltitudeMeters>
            <DistanceMeters>NAN</DistanceMeters>
          </Trackpoint>
          <Trackpoint>
            <Time>2021-08-03T12:41:35.000Z</Time>
            <Position>
              <LatitudeDegrees>-15.45685783959925174713134765625</LatitudeDegrees>
              <LongitudeDegrees>37.0274859108030796051025390625</LongitudeDegrees>
            </Position>
            <AltitudeMeters>732.5999755859375</AltitudeMeters>
            <DistanceMeters>NAN</DistanceMeters>
          </Trackpoint>
          <Trackpoint>
            <Time>2021-08-03T12:41:42.000Z</Time>
            <Position>
              <LatitudeDegrees>-15.45684845186769962310791015625</LatitudeDegrees>
              <LongitudeDegrees>37.02740536071360111236572265625</LongitudeDegrees>
            </Position>
            <AltitudeMeters>731.5999755859375</AltitudeMeters>
            <DistanceMeters>NAN</DistanceMeters>
          </Trackpoint>
          <Trackpoint>
            <Time>2021-08-03T12:41:44.000Z</Time>
            <Position>
              <LatitudeDegrees>-15.45684434473514556884765625</LatitudeDegrees>
              <LongitudeDegrees>37.027377784252166748046875</LongitudeDegrees>
            </Position>
            <AltitudeMeters>731.5999755859375</AltitudeMeters>
            <DistanceMeters>NAN</DistanceMeters>
          </Trackpoint>
          <Trackpoint>
            <Time>2021-08-03T12:41:50.000Z</Time>
            <Position>
              <LatitudeDegrees>-15.45684241689741611480712890625</LatitudeDegrees>
              <LongitudeDegrees>37.0273015089333057403564453125</LongitudeDegrees>
            </Position>
            <AltitudeMeters>730.4000244140625</AltitudeMeters>
            <DistanceMeters>NAN</DistanceMeters>
          </Trackpoint>
          <Trackpoint>
            <Time>2021-08-03T12:41:54.000Z</Time>
            <Position>
              <LatitudeDegrees>-15.4568539001047611236572265625</LatitudeDegrees>
              <LongitudeDegrees>37.02724677510559558868408203125</LongitudeDegrees>
            </Position>
            <AltitudeMeters>730.20001220703125</AltitudeMeters>
            <DistanceMeters>NAN</DistanceMeters>
          </Trackpoint>
          <Trackpoint>
            <Time>2021-08-03T12:42:03.000Z</Time>
            <Position>
              <LatitudeDegrees>-15.4568840749561786651611328125</LatitudeDegrees>
              <LongitudeDegrees>37.027132697403430938720703125</LongitudeDegrees>
            </Position>
            <AltitudeMeters>729.79998779296875</AltitudeMeters>
            <DistanceMeters>NAN</DistanceMeters>
          </Trackpoint>
          <Trackpoint>
            <Time>2021-08-03T12:42:09.000Z</Time>
            <Position>
              <LatitudeDegrees>-15.45691139996051788330078125</LatitudeDegrees>
              <LongitudeDegrees>37.02705734409391880035400390625</LongitudeDegrees>
            </Position>
            <AltitudeMeters>729.20001220703125</AltitudeMeters>
            <DistanceMeters>NAN</DistanceMeters>
          </Trackpoint>
          <Trackpoint>
            <Time>2021-08-03T12:42:13.000Z</Time>
            <Position>
              <LatitudeDegrees>-15.45693017542362213134765625</LatitudeDegrees>
              <LongitudeDegrees>37.02700722031295299530029296875</LongitudeDegrees>
            </Position>
            <AltitudeMeters>728.4000244140625</AltitudeMeters>
            <DistanceMeters>NAN</DistanceMeters>
          </Trackpoint>
          <Trackpoint>
            <Time>2021-08-03T12:42:21.000Z</Time>
            <Position>
              <LatitudeDegrees>-15.4569796286523342132568359375</LatitudeDegrees>
              <LongitudeDegrees>37.02693345956504344940185546875</LongitudeDegrees>
            </Position>
            <AltitudeMeters>728.20001220703125</AltitudeMeters>
            <DistanceMeters>NAN</DistanceMeters>
          </Trackpoint>
          <Trackpoint>
            <Time>2021-08-03T12:42:29.000Z</Time>
            <Position>
              <LatitudeDegrees>-15.45704894699156284332275390625</LatitudeDegrees>
              <LongitudeDegrees>37.02686238102614879608154296875</LongitudeDegrees>
            </Position>
            <AltitudeMeters>727.20001220703125</AltitudeMeters>
            <DistanceMeters>NAN</DistanceMeters>
          </Trackpoint>
          <Trackpoint>
            <Time>2021-08-03T12:42:32.000Z</Time>
            <Position>
              <LatitudeDegrees>-15.45707660727202892303466796875</LatitudeDegrees>
              <LongitudeDegrees>37.02682985924184322357177734375</LongitudeDegrees>
            </Position>
            <AltitudeMeters>727</AltitudeMeters>
            <DistanceMeters>NAN</DistanceMeters>
          </Trackpoint>
          <Trackpoint>
            <Time>2021-08-03T12:42:38.000Z</Time>
            <Position>
              <LatitudeDegrees>-15.4571264795958995819091796875</LatitudeDegrees>
              <LongitudeDegrees>37.02677738852798938751220703125</LongitudeDegrees>
            </Position>
            <AltitudeMeters>725.79998779296875</AltitudeMeters>
            <DistanceMeters>NAN</DistanceMeters>
          </Trackpoint>
          <Trackpoint>
            <Time>2021-08-03T12:42:40.000Z</Time>
            <Position>
              <LatitudeDegrees>-15.45714969746768474578857421875</LatitudeDegrees>
              <LongitudeDegrees>37.02675576321780681610107421875</LongitudeDegrees>
            </Position>
            <AltitudeMeters>725.5999755859375</AltitudeMeters>
            <DistanceMeters>NAN</DistanceMeters>
          </Trackpoint>
          <Trackpoint>
            <Time>2021-08-03T12:42:50.000Z</Time>
            <Position>
              <LatitudeDegrees>-15.4572558961808681488037109375</LatitudeDegrees>
              <LongitudeDegrees>37.02666758559644222259521484375</LongitudeDegrees>
            </Position>
            <AltitudeMeters>725.20001220703125</AltitudeMeters>
            <DistanceMeters>NAN</DistanceMeters>
          </Trackpoint>
          <Trackpoint>
            <Time>2021-08-03T12:42:51.000Z</Time>
            <Position>
              <LatitudeDegrees>-15.45726553536951541900634765625</LatitudeDegrees>
              <LongitudeDegrees>37.026660628616809844970703125</LongitudeDegrees>
            </Position>
            <AltitudeMeters>725.20001220703125</AltitudeMeters>
            <DistanceMeters>NAN</DistanceMeters>
          </Trackpoint>
          <Trackpoint>
            <Time>2021-08-03T12:42:54.000Z</Time>
            <Position>
              <LatitudeDegrees>-15.4572904296219348907470703125</LatitudeDegrees>
              <LongitudeDegrees>37.02664528973400592803955078125</LongitudeDegrees>
            </Position>
            <AltitudeMeters>724.5999755859375</AltitudeMeters>
            <DistanceMeters>NAN</DistanceMeters>
          </Trackpoint>
          <Trackpoint>
            <Time>2021-08-03T12:42:58.000Z</Time>
            <Position>
              <LatitudeDegrees>-15.45733250677585601806640625</LatitudeDegrees>
              <LongitudeDegrees>37.02662634663283824920654296875</LongitudeDegrees>
            </Position>
            <AltitudeMeters>724</AltitudeMeters>
            <DistanceMeters>NAN</DistanceMeters>
          </Trackpoint>
          <Trackpoint>
            <Time>2021-08-03T12:43:07.000Z</Time>
            <Position>
              <LatitudeDegrees>-15.45742847956717014312744140625</LatitudeDegrees>
              <LongitudeDegrees>37.0265377499163150787353515625</LongitudeDegrees>
            </Position>
            <AltitudeMeters>723.4000244140625</AltitudeMeters>
            <DistanceMeters>NAN</DistanceMeters>
          </Trackpoint>
          <Trackpoint>
            <Time>2021-08-03T12:43:15.000Z</Time>
            <Position>
              <LatitudeDegrees>-15.45751011930406093597412109375</LatitudeDegrees>
              <LongitudeDegrees>37.0264841057360172271728515625</LongitudeDegrees>
            </Position>
            <AltitudeMeters>722.79998779296875</AltitudeMeters>
            <DistanceMeters>NAN</DistanceMeters>
          </Trackpoint>
          <Trackpoint>
            <Time>2021-08-03T12:43:23.000Z</Time>
            <Position>
              <LatitudeDegrees>-15.457603745162487030029296875</LatitudeDegrees>
              <LongitudeDegrees>37.02643523924052715301513671875</LongitudeDegrees>
            </Position>
            <AltitudeMeters>722.5999755859375</AltitudeMeters>
            <DistanceMeters>NAN</DistanceMeters>
          </Trackpoint>
          <Trackpoint>
            <Time>2021-08-03T12:43:24.000Z</Time>
            <Position>
              <LatitudeDegrees>-15.4576169885694980621337890625</LatitudeDegrees>
              <LongitudeDegrees>37.02643171884119510650634765625</LongitudeDegrees>
            </Position>
            <AltitudeMeters>722.4000244140625</AltitudeMeters>
            <DistanceMeters>NAN</DistanceMeters>
          </Trackpoint>
          <Trackpoint>
            <Time>2021-08-03T12:43:26.000Z</Time>
            <Position>
              <LatitudeDegrees>-15.457637608051300048828125</LatitudeDegrees>
              <LongitudeDegrees>37.0264230854809284210205078125</LongitudeDegrees>
            </Position>
            <AltitudeMeters>722.20001220703125</AltitudeMeters>
            <DistanceMeters>NAN</DistanceMeters>
          </Trackpoint>
          <Trackpoint>
            <Time>2021-08-03T12:43:27.000Z</Time>
            <Position>
              <LatitudeDegrees>-15.4576471634209156036376953125</LatitudeDegrees>
              <LongitudeDegrees>37.02641562558710575103759765625</LongitudeDegrees>
            </Position>
            <AltitudeMeters>722.20001220703125</AltitudeMeters>
            <DistanceMeters>NAN</DistanceMeters>
          </Trackpoint>
          <Trackpoint>
            <Time>2021-08-03T12:43:31.000Z</Time>
            <Position>
              <LatitudeDegrees>-15.45768228359520435333251953125</LatitudeDegrees>
              <LongitudeDegrees>37.026388384401798248291015625</LongitudeDegrees>
            </Position>
            <AltitudeMeters>722.20001220703125</AltitudeMeters>
            <DistanceMeters>NAN</DistanceMeters>
          </Trackpoint>
          <Trackpoint>
            <Time>2021-08-03T12:43:41.000Z</Time>
            <Position>
              <LatitudeDegrees>-15.4577866382896900177001953125</LatitudeDegrees>
              <LongitudeDegrees>37.02631236054003238677978515625</LongitudeDegrees>
            </Position>
            <AltitudeMeters>721.79998779296875</AltitudeMeters>
            <DistanceMeters>NAN</DistanceMeters>
          </Trackpoint>
          <Trackpoint>
            <Time>2021-08-03T12:43:45.000Z</Time>
            <Position>
              <LatitudeDegrees>-15.4578463174402713775634765625</LatitudeDegrees>
              <LongitudeDegrees>37.0262846164405345916748046875</LongitudeDegrees>
            </Position>
            <AltitudeMeters>721.4000244140625</AltitudeMeters>
            <DistanceMeters>NAN</DistanceMeters>
          </Trackpoint>
          <Trackpoint>
            <Time>2021-08-03T12:43:50.000Z</Time>
            <Position>
              <LatitudeDegrees>-15.4579096846282482147216796875</LatitudeDegrees>
              <LongitudeDegrees>37.0262539386749267578125</LongitudeDegrees>
            </Position>
            <AltitudeMeters>721.4000244140625</AltitudeMeters>
            <DistanceMeters>NAN</DistanceMeters>
          </Trackpoint>
          <Trackpoint>
            <Time>2021-08-03T12:43:58.000Z</Time>
            <Position>
              <LatitudeDegrees>-15.45798269100487232208251953125</LatitudeDegrees>
              <LongitudeDegrees>37.02622585929930210113525390625</LongitudeDegrees>
            </Position>
            <AltitudeMeters>720.4000244140625</AltitudeMeters>
            <DistanceMeters>NAN</DistanceMeters>
          </Trackpoint>
          <Trackpoint>
            <Time>2021-08-03T12:43:59.000Z</Time>
            <Position>
              <LatitudeDegrees>-15.45799509622156620025634765625</LatitudeDegrees>
              <LongitudeDegrees>37.02622217126190662384033203125</LongitudeDegrees>
            </Position>
            <AltitudeMeters>720.4000244140625</AltitudeMeters>
            <DistanceMeters>NAN</DistanceMeters>
          </Trackpoint>
          <Trackpoint>
            <Time>2021-08-03T12:44:08.000Z</Time>
            <Position>
              <LatitudeDegrees>-15.458113364875316619873046875</LatitudeDegrees>
              <LongitudeDegrees>37.02620138414204120635986328125</LongitudeDegrees>
            </Position>
            <AltitudeMeters>719.4000244140625</AltitudeMeters>
            <DistanceMeters>NAN</DistanceMeters>
          </Trackpoint>
          <Trackpoint>
            <Time>2021-08-03T12:44:09.000Z</Time>
            <Position>
              <LatitudeDegrees>-15.4581272788345813751220703125</LatitudeDegrees>
              <LongitudeDegrees>37.02620021067559719085693359375</LongitudeDegrees>
            </Position>
            <AltitudeMeters>719.20001220703125</AltitudeMeters>
            <DistanceMeters>NAN</DistanceMeters>
          </Trackpoint>
          <Trackpoint>
            <Time>2021-08-03T12:44:17.000Z</Time>
            <Position>
              <LatitudeDegrees>-15.4582509957253932952880859375</LatitudeDegrees>
              <LongitudeDegrees>37.026211358606815338134765625</LongitudeDegrees>
            </Position>
            <AltitudeMeters>718.5999755859375</AltitudeMeters>
            <DistanceMeters>NAN</DistanceMeters>
          </Trackpoint>
          <Trackpoint>
            <Time>2021-08-03T12:44:20.000Z</Time>
            <Position>
              <LatitudeDegrees>-15.45828158967196941375732421875</LatitudeDegrees>
              <LongitudeDegrees>37.0262175612151622772216796875</LongitudeDegrees>
            </Position>
            <AltitudeMeters>718</AltitudeMeters>
            <DistanceMeters>NAN</DistanceMeters>
          </Trackpoint>
          <Trackpoint>
            <Time>2021-08-03T12:44:28.000Z</Time>
            <Position>
              <LatitudeDegrees>-15.45835769735276699066162109375</LatitudeDegrees>
              <LongitudeDegrees>37.02620758675038814544677734375</LongitudeDegrees>
            </Position>
            <AltitudeMeters>716.79998779296875</AltitudeMeters>
            <DistanceMeters>NAN</DistanceMeters>
          </Trackpoint>
          <Trackpoint>
            <Time>2021-08-03T12:44:32.000Z</Time>
            <Position>
              <LatitudeDegrees>-15.45839357189834117889404296875</LatitudeDegrees>
              <LongitudeDegrees>37.0262061618268489837646484375</LongitudeDegrees>
            </Position>
            <AltitudeMeters>715.5999755859375</AltitudeMeters>
            <DistanceMeters>NAN</DistanceMeters>
          </Trackpoint>
          <Trackpoint>
            <Time>2021-08-03T12:44:36.000Z</Time>
            <Position>
              <LatitudeDegrees>-15.45844696462154388427734375</LatitudeDegrees>
              <LongitudeDegrees>37.0262078382074832916259765625</LongitudeDegrees>
            </Position>
            <AltitudeMeters>714.5999755859375</AltitudeMeters>
            <DistanceMeters>NAN</DistanceMeters>
          </Trackpoint>
          <Trackpoint>
            <Time>2021-08-03T12:44:37.000Z</Time>
            <Position>
              <LatitudeDegrees>-15.4584610462188720703125</LatitudeDegrees>
              <LongitudeDegrees>37.0262070000171661376953125</LongitudeDegrees>
            </Position>
            <AltitudeMeters>714.4000244140625</AltitudeMeters>
            <DistanceMeters>NAN</DistanceMeters>
          </Trackpoint>
          <Trackpoint>
            <Time>2021-08-03T12:44:44.000Z</Time>
            <Position>
              <LatitudeDegrees>-15.4585560970008373260498046875</LatitudeDegrees>
              <LongitudeDegrees>37.02621571719646453857421875</LongitudeDegrees>
            </Position>
            <AltitudeMeters>713.79998779296875</AltitudeMeters>
            <DistanceMeters>NAN</DistanceMeters>
          </Trackpoint>
          <Trackpoint>
            <Time>2021-08-03T12:44:45.000Z</Time>
            <Position>
              <LatitudeDegrees>-15.45857327990233898162841796875</LatitudeDegrees>
              <LongitudeDegrees>37.02621513046324253082275390625</LongitudeDegrees>
            </Position>
            <AltitudeMeters>713.4000244140625</AltitudeMeters>
            <DistanceMeters>NAN</DistanceMeters>
          </Trackpoint>
          <Trackpoint>
            <Time>2021-08-03T12:44:49.000Z</Time>
            <Position>
              <LatitudeDegrees>-15.45864050276577472686767578125</LatitudeDegrees>
              <LongitudeDegrees>37.0262115262448787689208984375</LongitudeDegrees>
            </Position>
            <AltitudeMeters>712.20001220703125</AltitudeMeters>
            <DistanceMeters>NAN</DistanceMeters>
          </Trackpoint>
          <Trackpoint>
            <Time>2021-08-03T12:44:53.000Z</Time>
            <Position>
              <LatitudeDegrees>-15.458702780306339263916015625</LatitudeDegrees>
              <LongitudeDegrees>37.02619082294404506683349609375</LongitudeDegrees>
            </Position>
            <AltitudeMeters>711.4000244140625</AltitudeMeters>
            <DistanceMeters>NAN</DistanceMeters>
          </Trackpoint>
          <Trackpoint>
            <Time>2021-08-03T12:44:56.000Z</Time>
            <Position>
              <LatitudeDegrees>-15.4587404988706111907958984375</LatitudeDegrees>
              <LongitudeDegrees>37.02616668306291103363037109375</LongitudeDegrees>
            </Position>
            <AltitudeMeters>711.20001220703125</AltitudeMeters>
            <DistanceMeters>NAN</DistanceMeters>
          </Trackpoint>
          <Trackpoint>
            <Time>2021-08-03T12:45:02.000Z</Time>
            <Position>
              <LatitudeDegrees>-15.458774864673614501953125</LatitudeDegrees>
              <LongitudeDegrees>37.0261075906455516815185546875</LongitudeDegrees>
            </Position>
            <AltitudeMeters>711</AltitudeMeters>
            <DistanceMeters>NAN</DistanceMeters>
          </Trackpoint>
          <Trackpoint>
            <Time>2021-08-03T12:45:12.000Z</Time>
            <Position>
              <LatitudeDegrees>-15.45879833400249481201171875</LatitudeDegrees>
              <LongitudeDegrees>37.02598613686859607696533203125</LongitudeDegrees>
            </Position>
            <AltitudeMeters>710.79998779296875</AltitudeMeters>
            <DistanceMeters>NAN</DistanceMeters>
          </Trackpoint>
          <Trackpoint>
            <Time>2021-08-03T12:45:13.000Z</Time>
            <Position>
              <LatitudeDegrees>-15.4588001780211925506591796875</LatitudeDegrees>
              <LongitudeDegrees>37.02597021125257015228271484375</LongitudeDegrees>
            </Position>
            <AltitudeMeters>710.5999755859375</AltitudeMeters>
            <DistanceMeters>NAN</DistanceMeters>
          </Trackpoint>
          <Trackpoint>
            <Time>2021-08-03T12:45:22.000Z</Time>
            <Position>
              <LatitudeDegrees>-15.45880596153438091278076171875</LatitudeDegrees>
              <LongitudeDegrees>37.0258407108485698699951171875</LongitudeDegrees>
            </Position>
            <AltitudeMeters>710.4000244140625</AltitudeMeters>
            <DistanceMeters>NAN</DistanceMeters>
          </Trackpoint>
          <Trackpoint>
            <Time>2021-08-03T12:45:32.000Z</Time>
            <Position>
              <LatitudeDegrees>-15.458789952099323272705078125</LatitudeDegrees>
              <LongitudeDegrees>37.02569981105625629425048828125</LongitudeDegrees>
            </Position>
            <AltitudeMeters>710.20001220703125</AltitudeMeters>
            <DistanceMeters>NAN</DistanceMeters>
          </Trackpoint>
          <Trackpoint>
            <Time>2021-08-03T12:45:36.000Z</Time>
            <Position>
              <LatitudeDegrees>-15.45878366567194461822509765625</LatitudeDegrees>
              <LongitudeDegrees>37.02565756626427173614501953125</LongitudeDegrees>
            </Position>
            <AltitudeMeters>710.20001220703125</AltitudeMeters>
            <DistanceMeters>NAN</DistanceMeters>
          </Trackpoint>
          <Trackpoint>
            <Time>2021-08-03T12:45:41.000Z</Time>
            <Position>
              <LatitudeDegrees>-15.4587659798562526702880859375</LatitudeDegrees>
              <LongitudeDegrees>37.02559118159115314483642578125</LongitudeDegrees>
            </Position>
            <AltitudeMeters>710.20001220703125</AltitudeMeters>
            <DistanceMeters>NAN</DistanceMeters>
          </Trackpoint>
          <Trackpoint>
            <Time>2021-08-03T12:45:52.000Z</Time>
            <Position>
              <LatitudeDegrees>-15.4587250761687755584716796875</LatitudeDegrees>
              <LongitudeDegrees>37.02545690350234508514404296875</LongitudeDegrees>
            </Position>
            <AltitudeMeters>710</AltitudeMeters>
            <DistanceMeters>NAN</DistanceMeters>
          </Trackpoint>
          <Trackpoint>
            <Time>2021-08-03T12:45:56.000Z</Time>
            <Position>
              <LatitudeDegrees>-15.45870839618146419525146484375</LatitudeDegrees>
              <LongitudeDegrees>37.025406360626220703125</LongitudeDegrees>
            </Position>
            <AltitudeMeters>709.5999755859375</AltitudeMeters>
            <DistanceMeters>NAN</DistanceMeters>
          </Trackpoint>
          <Trackpoint>
            <Time>2021-08-03T12:45:59.000Z</Time>
            <Position>
              <LatitudeDegrees>-15.45869515277445316314697265625</LatitudeDegrees>
              <LongitudeDegrees>37.02537459321320056915283203125</LongitudeDegrees>
            </Position>
            <AltitudeMeters>709.4000244140625</AltitudeMeters>
            <DistanceMeters>NAN</DistanceMeters>
          </Trackpoint>
          <Trackpoint>
            <Time>2021-08-03T12:46:00.000Z</Time>
            <Position>
              <LatitudeDegrees>-15.45868911780416965484619140625</LatitudeDegrees>
              <LongitudeDegrees>37.02536688186228275299072265625</LongitudeDegrees>
            </Position>
            <AltitudeMeters>709.4000244140625</AltitudeMeters>
            <DistanceMeters>NAN</DistanceMeters>
          </Trackpoint>
          <Trackpoint>
            <Time>2021-08-03T12:46:03.000Z</Time>
            <Position>
              <LatitudeDegrees>-15.458676628768444061279296875</LatitudeDegrees>
              <LongitudeDegrees>37.02533335424959659576416015625</LongitudeDegrees>
            </Position>
            <AltitudeMeters>709.4000244140625</AltitudeMeters>
            <DistanceMeters>NAN</DistanceMeters>
          </Trackpoint>
          <Trackpoint>
            <Time>2021-08-03T12:46:08.000Z</Time>
            <Position>
              <LatitudeDegrees>-15.4586593620479106903076171875</LatitudeDegrees>
              <LongitudeDegrees>37.02529060654342174530029296875</LongitudeDegrees>
            </Position>
            <AltitudeMeters>709.4000244140625</AltitudeMeters>
            <DistanceMeters>NAN</DistanceMeters>
          </Trackpoint>
          <Trackpoint>
            <Time>2021-08-03T12:46:12.000Z</Time>
            <Position>
              <LatitudeDegrees>-15.4586670733988285064697265625</LatitudeDegrees>
              <LongitudeDegrees>37.02527635730803012847900390625</LongitudeDegrees>
            </Position>
            <AltitudeMeters>709.20001220703125</AltitudeMeters>
            <DistanceMeters>NAN</DistanceMeters>
          </Trackpoint>
          <Trackpoint>
            <Time>2021-08-03T12:46:20.000Z</Time>
            <Position>
              <LatitudeDegrees>-15.45867034234106540679931640625</LatitudeDegrees>
              <LongitudeDegrees>37.02526864595711231231689453125</LongitudeDegrees>
            </Position>
            <AltitudeMeters>709</AltitudeMeters>
            <DistanceMeters>NAN</DistanceMeters>
          </Trackpoint>
          <Trackpoint>
            <Time>2021-08-03T12:46:23.000Z</Time>
            <Position>
              <LatitudeDegrees>-15.4586717672646045684814453125</LatitudeDegrees>
              <LongitudeDegrees>37.02526797540485858917236328125</LongitudeDegrees>
            </Position>
            <AltitudeMeters>709</AltitudeMeters>
            <DistanceMeters>NAN</DistanceMeters>
          </Trackpoint>
          <Trackpoint>
            <Time>2021-08-03T12:46:25.000Z</Time>
            <Position>
              <LatitudeDegrees>-15.4586717672646045684814453125</LatitudeDegrees>
              <LongitudeDegrees>37.02526797540485858917236328125</LongitudeDegrees>
            </Position>
            <AltitudeMeters>709</AltitudeMeters>
            <DistanceMeters>NAN</DistanceMeters>
          </Trackpoint>
          <Trackpoint>
            <Time>2021-08-03T12:46:27.000Z</Time>
            <Position>
              <LatitudeDegrees>-15.4586717672646045684814453125</LatitudeDegrees>
              <LongitudeDegrees>37.02526797540485858917236328125</LongitudeDegrees>
            </Position>
            <AltitudeMeters>709</AltitudeMeters>
            <DistanceMeters>NAN</DistanceMeters>
          </Trackpoint>
          <Trackpoint>
            <Time>2021-08-03T12:46:29.000Z</Time>
            <Position>
              <LatitudeDegrees>-15.4586717672646045684814453125</LatitudeDegrees>
              <LongitudeDegrees>37.02526797540485858917236328125</LongitudeDegrees>
            </Position>
            <AltitudeMeters>709</AltitudeMeters>
            <DistanceMeters>NAN</DistanceMeters>
          </Trackpoint>
          <Trackpoint>
            <Time>2021-08-03T12:46:31.000Z</Time>
            <Position>
              <LatitudeDegrees>-15.4586717672646045684814453125</LatitudeDegrees>
              <LongitudeDegrees>37.02526797540485858917236328125</LongitudeDegrees>
            </Position>
            <AltitudeMeters>708.79998779296875</AltitudeMeters>
            <DistanceMeters>NAN</DistanceMeters>
          </Trackpoint>
          <Trackpoint>
            <Time>2021-08-03T12:46:32.000Z</Time>
            <Position>
              <LatitudeDegrees>-15.4586717672646045684814453125</LatitudeDegrees>
              <LongitudeDegrees>37.02526797540485858917236328125</LongitudeDegrees>
            </Position>
            <AltitudeMeters>708.79998779296875</AltitudeMeters>
            <DistanceMeters>NAN</DistanceMeters>
          </Trackpoint>
          <Trackpoint>
            <Time>2021-08-03T12:46:34.000Z</Time>
            <Position>
              <LatitudeDegrees>-15.45867369510233402252197265625</LatitudeDegrees>
              <LongitudeDegrees>37.02526797540485858917236328125</LongitudeDegrees>
            </Position>
            <AltitudeMeters>708.79998779296875</AltitudeMeters>
            <DistanceMeters>NAN</DistanceMeters>
          </Trackpoint>
          <Trackpoint>
            <Time>2021-08-03T12:46:36.000Z</Time>
            <Position>
              <LatitudeDegrees>-15.45867570675909519195556640625</LatitudeDegrees>
              <LongitudeDegrees>37.02526747249066829681396484375</LongitudeDegrees>
            </Position>
            <AltitudeMeters>708.79998779296875</AltitudeMeters>
            <DistanceMeters>NAN</DistanceMeters>
          </Trackpoint>
          <Trackpoint>
            <Time>2021-08-03T12:46:40.000Z</Time>
            <Position>
              <LatitudeDegrees>-15.4586794786155223846435546875</LatitudeDegrees>
              <LongitudeDegrees>37.02526696957647800445556640625</LongitudeDegrees>
            </Position>
            <AltitudeMeters>708.79998779296875</AltitudeMeters>
            <DistanceMeters>NAN</DistanceMeters>
          </Trackpoint>
          <Trackpoint>
            <Time>2021-08-03T12:47:00.000Z</Time>
            <Position>
              <LatitudeDegrees>-15.45867302455008029937744140625</LatitudeDegrees>
              <LongitudeDegrees>37.0252610184252262115478515625</LongitudeDegrees>
            </Position>
            <AltitudeMeters>708.5999755859375</AltitudeMeters>
            <DistanceMeters>NAN</DistanceMeters>
          </Trackpoint>
          <Trackpoint>
            <Time>2021-08-03T12:47:05.000Z</Time>
            <Position>
              <LatitudeDegrees>-15.45866556465625762939453125</LatitudeDegrees>
              <LongitudeDegrees>37.0252610184252262115478515625</LongitudeDegrees>
            </Position>
            <AltitudeMeters>708.5999755859375</AltitudeMeters>
            <DistanceMeters>NAN</DistanceMeters>
          </Trackpoint>
          <Trackpoint>
            <Time>2021-08-03T12:52:23.000Z</Time>
            <Position>
              <LatitudeDegrees>-15.45971095561981201171875</LatitudeDegrees>
              <LongitudeDegrees>37.02310443855822086334228515625</LongitudeDegrees>
            </Position>
            <AltitudeMeters>682.5999755859375</AltitudeMeters>
            <DistanceMeters>NAN</DistanceMeters>
          </Trackpoint>
          <Trackpoint>
            <Time>2021-08-03T12:52:24.000Z</Time>
            <Position>
              <LatitudeDegrees>-15.45971187762916088104248046875</LatitudeDegrees>
              <LongitudeDegrees>37.02310527674853801727294921875</LongitudeDegrees>
            </Position>
            <AltitudeMeters>682.5999755859375</AltitudeMeters>
            <DistanceMeters>NAN</DistanceMeters>
          </Trackpoint>
          <Trackpoint>
            <Time>2021-08-03T12:52:26.000Z</Time>
            <Position>
              <LatitudeDegrees>-15.459715314209461212158203125</LatitudeDegrees>
              <LongitudeDegrees>37.0230921171605587005615234375</LongitudeDegrees>
            </Position>
            <AltitudeMeters>682.5999755859375</AltitudeMeters>
            <DistanceMeters>NAN</DistanceMeters>
          </Trackpoint>
          <Trackpoint>
            <Time>2021-08-03T12:52:27.000Z</Time>
            <Position>
              <LatitudeDegrees>-15.4597154818475246429443359375</LatitudeDegrees>
              <LongitudeDegrees>37.02308331616222858428955078125</LongitudeDegrees>
            </Position>
            <AltitudeMeters>682.5999755859375</AltitudeMeters>
            <DistanceMeters>NAN</DistanceMeters>
          </Trackpoint>
          <Trackpoint>
            <Time>2021-08-03T12:52:32.000Z</Time>
            <Position>
              <LatitudeDegrees>-15.45971556566655635833740234375</LatitudeDegrees>
              <LongitudeDegrees>37.0230901055037975311279296875</LongitudeDegrees>
            </Position>
            <AltitudeMeters>683</AltitudeMeters>
            <DistanceMeters>NAN</DistanceMeters>
          </Trackpoint>
          <Trackpoint>
            <Time>2021-08-03T12:52:35.000Z</Time>
            <Position>
              <LatitudeDegrees>-15.45971590094268321990966796875</LatitudeDegrees>
              <LongitudeDegrees>37.023081220686435699462890625</LongitudeDegrees>
            </Position>
            <AltitudeMeters>683</AltitudeMeters>
            <DistanceMeters>NAN</DistanceMeters>
          </Trackpoint>
          <Trackpoint>
            <Time>2021-08-03T12:52:37.000Z</Time>
            <Position>
              <LatitudeDegrees>-15.45972176827490329742431640625</LatitudeDegrees>
              <LongitudeDegrees>37.02306680381298065185546875</LongitudeDegrees>
            </Position>
            <AltitudeMeters>683</AltitudeMeters>
            <DistanceMeters>NAN</DistanceMeters>
          </Trackpoint>
          <Trackpoint>
            <Time>2021-08-03T12:52:41.000Z</Time>
            <Position>
              <LatitudeDegrees>-15.45971405692398548126220703125</LatitudeDegrees>
              <LongitudeDegrees>37.02307107858359813690185546875</LongitudeDegrees>
            </Position>
            <AltitudeMeters>682.79998779296875</AltitudeMeters>
            <DistanceMeters>NAN</DistanceMeters>
          </Trackpoint>
          <Trackpoint>
            <Time>2021-08-03T12:52:46.000Z</Time>
            <Position>
              <LatitudeDegrees>-15.45971321873366832733154296875</LatitudeDegrees>
              <LongitudeDegrees>37.023069150745868682861328125</LongitudeDegrees>
            </Position>
            <AltitudeMeters>683</AltitudeMeters>
            <DistanceMeters>NAN</DistanceMeters>
          </Trackpoint>
          <Trackpoint>
            <Time>2021-08-03T12:52:47.000Z</Time>
            <Position>
              <LatitudeDegrees>-15.4597131349146366119384765625</LatitudeDegrees>
              <LongitudeDegrees>37.023060433566570281982421875</LongitudeDegrees>
            </Position>
            <AltitudeMeters>683</AltitudeMeters>
            <DistanceMeters>NAN</DistanceMeters>
          </Trackpoint>
          <Trackpoint>
            <Time>2021-08-03T12:52:54.000Z</Time>
            <Position>
              <LatitudeDegrees>-15.4597241990268230438232421875</LatitudeDegrees>
              <LongitudeDegrees>37.02297368086874485015869140625</LongitudeDegrees>
            </Position>
            <AltitudeMeters>683.4000244140625</AltitudeMeters>
            <DistanceMeters>NAN</DistanceMeters>
          </Trackpoint>
          <Trackpoint>
            <Time>2021-08-03T12:52:55.000Z</Time>
            <Position>
              <LatitudeDegrees>-15.4597208462655544281005859375</LatitudeDegrees>
              <LongitudeDegrees>37.0229613594710826873779296875</LongitudeDegrees>
            </Position>
            <AltitudeMeters>683.4000244140625</AltitudeMeters>
            <DistanceMeters>NAN</DistanceMeters>
          </Trackpoint>
          <Trackpoint>
            <Time>2021-08-03T12:52:59.000Z</Time>
            <Position>
              <LatitudeDegrees>-15.45971975661814212799072265625</LatitudeDegrees>
              <LongitudeDegrees>37.0229214616119861602783203125</LongitudeDegrees>
            </Position>
            <AltitudeMeters>683.4000244140625</AltitudeMeters>
            <DistanceMeters>NAN</DistanceMeters>
          </Trackpoint>
          <Trackpoint>
            <Time>2021-08-03T12:53:02.000Z</Time>
            <Position>
              <LatitudeDegrees>-15.45972830615937709808349609375</LatitudeDegrees>
              <LongitudeDegrees>37.0228872634470462799072265625</LongitudeDegrees>
            </Position>
            <AltitudeMeters>683.20001220703125</AltitudeMeters>
            <DistanceMeters>NAN</DistanceMeters>
          </Trackpoint>
          <Trackpoint>
            <Time>2021-08-03T12:53:03.000Z</Time>
            <Position>
              <LatitudeDegrees>-15.4597332514822483062744140625</LatitudeDegrees>
              <LongitudeDegrees>37.02287594787776470184326171875</LongitudeDegrees>
            </Position>
            <AltitudeMeters>683.20001220703125</AltitudeMeters>
            <DistanceMeters>NAN</DistanceMeters>
          </Trackpoint>
          <Trackpoint>
            <Time>2021-08-03T12:53:07.000Z</Time>
            <Position>
              <LatitudeDegrees>-15.459751524031162261962890625</LatitudeDegrees>
              <LongitudeDegrees>37.022827751934528350830078125</LongitudeDegrees>
            </Position>
            <AltitudeMeters>683.4000244140625</AltitudeMeters>
            <DistanceMeters>NAN</DistanceMeters>
          </Trackpoint>
          <Trackpoint>
            <Time>2021-08-03T12:53:12.000Z</Time>
            <Position>
              <LatitudeDegrees>-15.4597610794007778167724609375</LatitudeDegrees>
              <LongitudeDegrees>37.0227657258510589599609375</LongitudeDegrees>
            </Position>
            <AltitudeMeters>683.4000244140625</AltitudeMeters>
            <DistanceMeters>NAN</DistanceMeters>
          </Trackpoint>
          <Trackpoint>
            <Time>2021-08-03T12:53:16.000Z</Time>
            <Position>
              <LatitudeDegrees>-15.45975345186889171600341796875</LatitudeDegrees>
              <LongitudeDegrees>37.0227149315178394317626953125</LongitudeDegrees>
            </Position>
            <AltitudeMeters>683.20001220703125</AltitudeMeters>
            <DistanceMeters>NAN</DistanceMeters>
          </Trackpoint>
          <Trackpoint>
            <Time>2021-08-03T12:53:20.000Z</Time>
            <Position>
              <LatitudeDegrees>-15.459750853478908538818359375</LatitudeDegrees>
              <LongitudeDegrees>37.02267679385840892791748046875</LongitudeDegrees>
            </Position>
            <AltitudeMeters>683.20001220703125</AltitudeMeters>
            <DistanceMeters>NAN</DistanceMeters>
          </Trackpoint>
          <Trackpoint>
            <Time>2021-08-03T12:53:28.000Z</Time>
            <Position>
              <LatitudeDegrees>-15.459750182926654815673828125</LatitudeDegrees>
              <LongitudeDegrees>37.0225798152387142181396484375</LongitudeDegrees>
            </Position>
            <AltitudeMeters>683.5999755859375</AltitudeMeters>
            <DistanceMeters>NAN</DistanceMeters>
          </Trackpoint>
          <Trackpoint>
            <Time>2021-08-03T12:53:31.000Z</Time>
            <Position>
              <LatitudeDegrees>-15.459759570658206939697265625</LatitudeDegrees>
              <LongitudeDegrees>37.02255156822502613067626953125</LongitudeDegrees>
            </Position>
            <AltitudeMeters>683.79998779296875</AltitudeMeters>
            <DistanceMeters>NAN</DistanceMeters>
          </Trackpoint>
          <Trackpoint>
            <Time>2021-08-03T12:53:38.000Z</Time>
            <Position>
              <LatitudeDegrees>-15.4597765021026134490966796875</LatitudeDegrees>
              <LongitudeDegrees>37.02247914858162403106689453125</LongitudeDegrees>
            </Position>
            <AltitudeMeters>684.5999755859375</AltitudeMeters>
            <DistanceMeters>NAN</DistanceMeters>
          </Trackpoint>
          <Trackpoint>
            <Time>2021-08-03T12:53:41.000Z</Time>
            <Position>
              <LatitudeDegrees>-15.45977926813066005706787109375</LatitudeDegrees>
              <LongitudeDegrees>37.02245484106242656707763671875</LongitudeDegrees>
            </Position>
            <AltitudeMeters>685</AltitudeMeters>
            <DistanceMeters>NAN</DistanceMeters>
          </Trackpoint>
          <Trackpoint>
            <Time>2021-08-03T12:53:42.000Z</Time>
            <Position>
              <LatitudeDegrees>-15.45978630892932415008544921875</LatitudeDegrees>
              <LongitudeDegrees>37.022446878254413604736328125</LongitudeDegrees>
            </Position>
            <AltitudeMeters>685</AltitudeMeters>
            <DistanceMeters>NAN</DistanceMeters>
          </Trackpoint>
          <Trackpoint>
            <Time>2021-08-03T12:53:47.000Z</Time>
            <Position>
              <LatitudeDegrees>-15.45981950126588344573974609375</LatitudeDegrees>
              <LongitudeDegrees>37.02239030040800571441650390625</LongitudeDegrees>
            </Position>
            <AltitudeMeters>685.5999755859375</AltitudeMeters>
            <DistanceMeters>NAN</DistanceMeters>
          </Trackpoint>
          <Trackpoint>
            <Time>2021-08-03T12:53:48.000Z</Time>
            <Position>
              <LatitudeDegrees>-15.459824614226818084716796875</LatitudeDegrees>
              <LongitudeDegrees>37.02238275669515132904052734375</LongitudeDegrees>
            </Position>
            <AltitudeMeters>685.5999755859375</AltitudeMeters>
            <DistanceMeters>NAN</DistanceMeters>
          </Trackpoint>
          <Trackpoint>
            <Time>2021-08-03T12:53:50.000Z</Time>
            <Position>
              <LatitudeDegrees>-15.45983458869159221649169921875</LatitudeDegrees>
              <LongitudeDegrees>37.02236230485141277313232421875</LongitudeDegrees>
            </Position>
            <AltitudeMeters>685.79998779296875</AltitudeMeters>
            <DistanceMeters>NAN</DistanceMeters>
          </Trackpoint>
          <Trackpoint>
            <Time>2021-08-03T12:53:55.000Z</Time>
            <Position>
              <LatitudeDegrees>-15.459847748279571533203125</LatitudeDegrees>
              <LongitudeDegrees>37.022323496639728546142578125</LongitudeDegrees>
            </Position>
            <AltitudeMeters>686.20001220703125</AltitudeMeters>
            <DistanceMeters>NAN</DistanceMeters>
          </Trackpoint>
          <Trackpoint>
            <Time>2021-08-03T12:53:58.000Z</Time>
            <Position>
              <LatitudeDegrees>-15.4598764143884181976318359375</LatitudeDegrees>
              <LongitudeDegrees>37.02229642309248447418212890625</LongitudeDegrees>
            </Position>
            <AltitudeMeters>686.4000244140625</AltitudeMeters>
            <DistanceMeters>NAN</DistanceMeters>
          </Trackpoint>
          <Trackpoint>
            <Time>2021-08-03T12:54:02.000Z</Time>
            <Position>
              <LatitudeDegrees>-15.45992712490260601043701171875</LatitudeDegrees>
              <LongitudeDegrees>37.02224764041602611541748046875</LongitudeDegrees>
            </Position>
            <AltitudeMeters>686.5999755859375</AltitudeMeters>
            <DistanceMeters>NAN</DistanceMeters>
          </Trackpoint>
          <Trackpoint>
            <Time>2021-08-03T12:54:03.000Z</Time>
            <Position>
              <LatitudeDegrees>-15.4599370993673801422119140625</LatitudeDegrees>
              <LongitudeDegrees>37.02223598957061767578125</LongitudeDegrees>
            </Position>
            <AltitudeMeters>686.79998779296875</AltitudeMeters>
            <DistanceMeters>NAN</DistanceMeters>
          </Trackpoint>
          <Trackpoint>
            <Time>2021-08-03T12:54:05.000Z</Time>
            <Position>
              <LatitudeDegrees>-15.459952019155025482177734375</LatitudeDegrees>
              <LongitudeDegrees>37.02221813611686229705810546875</LongitudeDegrees>
            </Position>
            <AltitudeMeters>686.79998779296875</AltitudeMeters>
            <DistanceMeters>NAN</DistanceMeters>
          </Trackpoint>
          <Trackpoint>
            <Time>2021-08-03T12:54:06.000Z</Time>
            <Position>
              <LatitudeDegrees>-15.45996216125786304473876953125</LatitudeDegrees>
              <LongitudeDegrees>37.0222110114991664886474609375</LongitudeDegrees>
            </Position>
            <AltitudeMeters>687</AltitudeMeters>
            <DistanceMeters>NAN</DistanceMeters>
          </Trackpoint>
          <Trackpoint>
            <Time>2021-08-03T12:54:09.000Z</Time>
            <Position>
              <LatitudeDegrees>-15.4599776677787303924560546875</LatitudeDegrees>
              <LongitudeDegrees>37.0221905596554279327392578125</LongitudeDegrees>
            </Position>
            <AltitudeMeters>687.20001220703125</AltitudeMeters>
            <DistanceMeters>NAN</DistanceMeters>
          </Trackpoint>
          <Trackpoint>
            <Time>2021-08-03T12:54:13.000Z</Time>
            <Position>
              <LatitudeDegrees>-15.4600279591977596282958984375</LatitudeDegrees>
              <LongitudeDegrees>37.022171281278133392333984375</LongitudeDegrees>
            </Position>
            <AltitudeMeters>687.4000244140625</AltitudeMeters>
            <DistanceMeters>NAN</DistanceMeters>
          </Trackpoint>
          <Trackpoint>
            <Time>2021-08-03T12:54:22.000Z</Time>
            <Position>
              <LatitudeDegrees>-15.46011320315301418304443359375</LatitudeDegrees>
              <LongitudeDegrees>37.0220990292727947235107421875</LongitudeDegrees>
            </Position>
            <AltitudeMeters>687.79998779296875</AltitudeMeters>
            <DistanceMeters>NAN</DistanceMeters>
          </Trackpoint>
          <Trackpoint>
            <Time>2021-08-03T12:54:27.000Z</Time>
            <Position>
              <LatitudeDegrees>-15.46017455868422985076904296875</LatitudeDegrees>
              <LongitudeDegrees>37.0220601372420787811279296875</LongitudeDegrees>
            </Position>
            <AltitudeMeters>687.79998779296875</AltitudeMeters>
            <DistanceMeters>NAN</DistanceMeters>
          </Trackpoint>
          <Trackpoint>
            <Time>2021-08-03T12:54:29.000Z</Time>
            <Position>
              <LatitudeDegrees>-15.460200123488903045654296875</LatitudeDegrees>
              <LongitudeDegrees>37.02204697765409946441650390625</LongitudeDegrees>
            </Position>
            <AltitudeMeters>688</AltitudeMeters>
            <DistanceMeters>NAN</DistanceMeters>
          </Trackpoint>
          <Trackpoint>
            <Time>2021-08-03T12:54:30.000Z</Time>
            <Position>
              <LatitudeDegrees>-15.46021076850593090057373046875</LatitudeDegrees>
              <LongitudeDegrees>37.022047229111194610595703125</LongitudeDegrees>
            </Position>
            <AltitudeMeters>688</AltitudeMeters>
            <DistanceMeters>NAN</DistanceMeters>
          </Trackpoint>
          <Trackpoint>
            <Time>2021-08-03T12:54:37.000Z</Time>
            <Position>
              <LatitudeDegrees>-15.46029794029891490936279296875</LatitudeDegrees>
              <LongitudeDegrees>37.02203775756061077117919921875</LongitudeDegrees>
            </Position>
            <AltitudeMeters>687.79998779296875</AltitudeMeters>
            <DistanceMeters>NAN</DistanceMeters>
          </Trackpoint>
          <Trackpoint>
            <Time>2021-08-03T12:54:40.000Z</Time>
            <Position>
              <LatitudeDegrees>-15.46033934690058231353759765625</LatitudeDegrees>
              <LongitudeDegrees>37.02202719636261463165283203125</LongitudeDegrees>
            </Position>
            <AltitudeMeters>688.20001220703125</AltitudeMeters>
            <DistanceMeters>NAN</DistanceMeters>
          </Trackpoint>
          <Trackpoint>
            <Time>2021-08-03T12:54:48.000Z</Time>
            <Position>
              <LatitudeDegrees>-15.46043154783546924591064453125</LatitudeDegrees>
              <LongitudeDegrees>37.0220120251178741455078125</LongitudeDegrees>
            </Position>
            <AltitudeMeters>688</AltitudeMeters>
            <DistanceMeters>NAN</DistanceMeters>
          </Trackpoint>
          <Trackpoint>
            <Time>2021-08-03T12:54:57.000Z</Time>
            <Position>
              <LatitudeDegrees>-15.46050312928855419158935546875</LatitudeDegrees>
              <LongitudeDegrees>37.0219417847692966461181640625</LongitudeDegrees>
            </Position>
            <AltitudeMeters>687.79998779296875</AltitudeMeters>
            <DistanceMeters>NAN</DistanceMeters>
          </Trackpoint>
          <Trackpoint>
            <Time>2021-08-03T12:54:58.000Z</Time>
            <Position>
              <LatitudeDegrees>-15.46050815843045711517333984375</LatitudeDegrees>
              <LongitudeDegrees>37.02193491160869598388671875</LongitudeDegrees>
            </Position>
            <AltitudeMeters>688</AltitudeMeters>
            <DistanceMeters>NAN</DistanceMeters>
          </Trackpoint>
          <Trackpoint>
            <Time>2021-08-03T12:55:06.000Z</Time>
            <Position>
              <LatitudeDegrees>-15.46060077846050262451171875</LatitudeDegrees>
              <LongitudeDegrees>37.02189333736896514892578125</LongitudeDegrees>
            </Position>
            <AltitudeMeters>687.4000244140625</AltitudeMeters>
            <DistanceMeters>NAN</DistanceMeters>
          </Trackpoint>
          <Trackpoint>
            <Time>2021-08-03T12:55:12.000Z</Time>
            <Position>
              <LatitudeDegrees>-15.46066070906817913055419921875</LatitudeDegrees>
              <LongitudeDegrees>37.0218636654317378997802734375</LongitudeDegrees>
            </Position>
            <AltitudeMeters>687.4000244140625</AltitudeMeters>
            <DistanceMeters>NAN</DistanceMeters>
          </Trackpoint>
          <Trackpoint>
            <Time>2021-08-03T12:55:15.000Z</Time>
            <Position>
              <LatitudeDegrees>-15.46069197356700897216796875</LatitudeDegrees>
              <LongitudeDegrees>37.02184530906379222869873046875</LongitudeDegrees>
            </Position>
            <AltitudeMeters>687.4000244140625</AltitudeMeters>
            <DistanceMeters>NAN</DistanceMeters>
          </Trackpoint>
          <Trackpoint>
            <Time>2021-08-03T12:55:16.000Z</Time>
            <Position>
              <LatitudeDegrees>-15.4607018642127513885498046875</LatitudeDegrees>
              <LongitudeDegrees>37.021838016808032989501953125</LongitudeDegrees>
            </Position>
            <AltitudeMeters>687.4000244140625</AltitudeMeters>
            <DistanceMeters>NAN</DistanceMeters>
          </Trackpoint>
          <Trackpoint>
            <Time>2021-08-03T12:55:18.000Z</Time>
            <Position>
              <LatitudeDegrees>-15.46072550117969512939453125</LatitudeDegrees>
              <LongitudeDegrees>37.02182368375360965728759765625</LongitudeDegrees>
            </Position>
            <AltitudeMeters>687.4000244140625</AltitudeMeters>
            <DistanceMeters>NAN</DistanceMeters>
          </Trackpoint>
          <Trackpoint>
            <Time>2021-08-03T12:55:21.000Z</Time>
            <Position>
              <LatitudeDegrees>-15.460762046277523040771484375</LatitudeDegrees>
              <LongitudeDegrees>37.02180323190987110137939453125</LongitudeDegrees>
            </Position>
            <AltitudeMeters>687.20001220703125</AltitudeMeters>
            <DistanceMeters>NAN</DistanceMeters>
          </Trackpoint>
          <Trackpoint>
            <Time>2021-08-03T12:55:26.000Z</Time>
            <Position>
              <LatitudeDegrees>-15.46082180924713611602783203125</LatitudeDegrees>
              <LongitudeDegrees>37.0217862166464328765869140625</LongitudeDegrees>
            </Position>
            <AltitudeMeters>687</AltitudeMeters>
            <DistanceMeters>NAN</DistanceMeters>
          </Trackpoint>
          <Trackpoint>
            <Time>2021-08-03T12:55:31.000Z</Time>
            <Position>
              <LatitudeDegrees>-15.46086975373327732086181640625</LatitudeDegrees>
              <LongitudeDegrees>37.02175612561404705047607421875</LongitudeDegrees>
            </Position>
            <AltitudeMeters>686.5999755859375</AltitudeMeters>
            <DistanceMeters>NAN</DistanceMeters>
          </Trackpoint>
          <Trackpoint>
            <Time>2021-08-03T12:55:35.000Z</Time>
            <Position>
              <LatitudeDegrees>-15.4609003476798534393310546875</LatitudeDegrees>
              <LongitudeDegrees>37.02173785306513309478759765625</LongitudeDegrees>
            </Position>
            <AltitudeMeters>686.79998779296875</AltitudeMeters>
            <DistanceMeters>NAN</DistanceMeters>
          </Trackpoint>
          <Trackpoint>
            <Time>2021-08-03T12:55:36.000Z</Time>
            <Position>
              <LatitudeDegrees>-15.46090126968920230865478515625</LatitudeDegrees>
              <LongitudeDegrees>37.0217295549809932708740234375</LongitudeDegrees>
            </Position>
            <AltitudeMeters>686.79998779296875</AltitudeMeters>
            <DistanceMeters>NAN</DistanceMeters>
          </Trackpoint>
          <Trackpoint>
            <Time>2021-08-03T12:55:41.000Z</Time>
            <Position>
              <LatitudeDegrees>-15.46090361662209033966064453125</LatitudeDegrees>
              <LongitudeDegrees>37.021720670163631439208984375</LongitudeDegrees>
            </Position>
            <AltitudeMeters>686.5999755859375</AltitudeMeters>
            <DistanceMeters>NAN</DistanceMeters>
          </Trackpoint>
          <Trackpoint>
            <Time>2021-08-03T12:55:44.000Z</Time>
            <Position>
              <LatitudeDegrees>-15.46088836155831813812255859375</LatitudeDegrees>
              <LongitudeDegrees>37.021719329059123992919921875</LongitudeDegrees>
            </Position>
            <AltitudeMeters>686.5999755859375</AltitudeMeters>
            <DistanceMeters>NAN</DistanceMeters>
          </Trackpoint>
          <Trackpoint>
            <Time>2021-08-03T12:55:47.000Z</Time>
            <Position>
              <LatitudeDegrees>-15.46087034046649932861328125</LatitudeDegrees>
              <LongitudeDegrees>37.021715641021728515625</LongitudeDegrees>
            </Position>
            <AltitudeMeters>686.5999755859375</AltitudeMeters>
            <DistanceMeters>NAN</DistanceMeters>
          </Trackpoint>
          <Trackpoint>
            <Time>2021-08-03T12:55:48.000Z</Time>
            <Position>
              <LatitudeDegrees>-15.46087511815130710601806640625</LatitudeDegrees>
              <LongitudeDegrees>37.021721340715885162353515625</LongitudeDegrees>
            </Position>
            <AltitudeMeters>686.5999755859375</AltitudeMeters>
            <DistanceMeters>NAN</DistanceMeters>
          </Trackpoint>
          <Trackpoint>
            <Time>2021-08-03T12:55:52.000Z</Time>
            <Position>
              <LatitudeDegrees>-15.4608839191496372222900390625</LatitudeDegrees>
              <LongitudeDegrees>37.02171756885945796966552734375</LongitudeDegrees>
            </Position>
            <AltitudeMeters>686</AltitudeMeters>
            <DistanceMeters>NAN</DistanceMeters>
          </Trackpoint>
          <Trackpoint>
            <Time>2021-08-03T12:55:53.000Z</Time>
            <Position>
              <LatitudeDegrees>-15.4608839191496372222900390625</LatitudeDegrees>
              <LongitudeDegrees>37.02171756885945796966552734375</LongitudeDegrees>
            </Position>
            <AltitudeMeters>686</AltitudeMeters>
            <DistanceMeters>NAN</DistanceMeters>
          </Trackpoint>
          <Trackpoint>
            <Time>2021-08-03T12:55:54.000Z</Time>
            <Position>
              <LatitudeDegrees>-15.4608839191496372222900390625</LatitudeDegrees>
              <LongitudeDegrees>37.02171756885945796966552734375</LongitudeDegrees>
            </Position>
            <AltitudeMeters>685.79998779296875</AltitudeMeters>
            <DistanceMeters>NAN</DistanceMeters>
          </Trackpoint>
          <Trackpoint>
            <Time>2021-08-03T12:55:56.000Z</Time>
            <Position>
              <LatitudeDegrees>-15.4608839191496372222900390625</LatitudeDegrees>
              <LongitudeDegrees>37.02171756885945796966552734375</LongitudeDegrees>
            </Position>
            <AltitudeMeters>685.79998779296875</AltitudeMeters>
            <DistanceMeters>NAN</DistanceMeters>
          </Trackpoint>
          <Trackpoint>
            <Time>2021-08-03T12:55:59.000Z</Time>
            <Position>
              <LatitudeDegrees>-15.4608839191496372222900390625</LatitudeDegrees>
              <LongitudeDegrees>37.02171756885945796966552734375</LongitudeDegrees>
            </Position>
            <AltitudeMeters>685.79998779296875</AltitudeMeters>
            <DistanceMeters>NAN</DistanceMeters>
          </Trackpoint>
          <Trackpoint>
            <Time>2021-08-03T12:56:14.000Z</Time>
            <Position>
              <LatitudeDegrees>-15.46088148839771747589111328125</LatitudeDegrees>
              <LongitudeDegrees>37.0217303931713104248046875</LongitudeDegrees>
            </Position>
            <AltitudeMeters>685.5999755859375</AltitudeMeters>
            <DistanceMeters>NAN</DistanceMeters>
          </Trackpoint>
          <Trackpoint>
            <Time>2021-08-03T12:56:18.000Z</Time>
            <Position>
              <LatitudeDegrees>-15.4608715139329433441162109375</LatitudeDegrees>
              <LongitudeDegrees>37.02172947116196155548095703125</LongitudeDegrees>
            </Position>
            <AltitudeMeters>686.79998779296875</AltitudeMeters>
            <DistanceMeters>NAN</DistanceMeters>
          </Trackpoint>
          <Trackpoint>
            <Time>2021-08-03T12:56:20.000Z</Time>
            <Position>
              <LatitudeDegrees>-15.460865311324596405029296875</LatitudeDegrees>
              <LongitudeDegrees>37.02170214615762233734130859375</LongitudeDegrees>
            </Position>
            <AltitudeMeters>686.5999755859375</AltitudeMeters>
            <DistanceMeters>NAN</DistanceMeters>
          </Trackpoint>
          <Trackpoint>
            <Time>2021-08-03T12:56:22.000Z</Time>
            <Position>
              <LatitudeDegrees>-15.46087411232292652130126953125</LatitudeDegrees>
              <LongitudeDegrees>37.0216718874871730804443359375</LongitudeDegrees>
            </Position>
            <AltitudeMeters>686.5999755859375</AltitudeMeters>
            <DistanceMeters>NAN</DistanceMeters>
          </Trackpoint>
          <Trackpoint>
            <Time>2021-08-03T12:56:27.000Z</Time>
            <Position>
              <LatitudeDegrees>-15.460878722369670867919921875</LatitudeDegrees>
              <LongitudeDegrees>37.02166937291622161865234375</LongitudeDegrees>
            </Position>
            <AltitudeMeters>686.5999755859375</AltitudeMeters>
            <DistanceMeters>NAN</DistanceMeters>
          </Trackpoint>
          <Trackpoint>
            <Time>2021-08-03T12:56:37.000Z</Time>
            <Position>
              <LatitudeDegrees>-15.4609073884785175323486328125</LatitudeDegrees>
              <LongitudeDegrees>37.02169795520603656768798828125</LongitudeDegrees>
            </Position>
            <AltitudeMeters>686.4000244140625</AltitudeMeters>
            <DistanceMeters>NAN</DistanceMeters>
          </Trackpoint>
          <Trackpoint>
            <Time>2021-08-03T12:56:51.000Z</Time>
            <Position>
              <LatitudeDegrees>-15.46090998686850070953369140625</LatitudeDegrees>
              <LongitudeDegrees>37.021699883043766021728515625</LongitudeDegrees>
            </Position>
            <AltitudeMeters>686.4000244140625</AltitudeMeters>
            <DistanceMeters>NAN</DistanceMeters>
          </Trackpoint>
          <Trackpoint>
            <Time>2021-08-03T12:57:08.000Z</Time>
            <Position>
              <LatitudeDegrees>-15.46090663410723209381103515625</LatitudeDegrees>
              <LongitudeDegrees>37.021711952984333038330078125</LongitudeDegrees>
            </Position>
            <AltitudeMeters>686.4000244140625</AltitudeMeters>
            <DistanceMeters>NAN</DistanceMeters>
          </Trackpoint>
          <Trackpoint>
            <Time>2021-08-03T12:57:19.000Z</Time>
            <Position>
              <LatitudeDegrees>-15.4609315283596515655517578125</LatitudeDegrees>
              <LongitudeDegrees>37.0216829515993595123291015625</LongitudeDegrees>
            </Position>
            <AltitudeMeters>686.4000244140625</AltitudeMeters>
            <DistanceMeters>NAN</DistanceMeters>
          </Trackpoint>
          <Trackpoint>
            <Time>2021-08-03T12:57:24.000Z</Time>
            <Position>
              <LatitudeDegrees>-15.46092800796031951904296875</LatitudeDegrees>
              <LongitudeDegrees>37.02169753611087799072265625</LongitudeDegrees>
            </Position>
            <AltitudeMeters>686.4000244140625</AltitudeMeters>
            <DistanceMeters>NAN</DistanceMeters>
          </Trackpoint>
          <Trackpoint>
            <Time>2021-08-03T12:57:27.000Z</Time>
            <Position>
              <LatitudeDegrees>-15.46092532575130462646484375</LatitudeDegrees>
              <LongitudeDegrees>37.02170147560536861419677734375</LongitudeDegrees>
            </Position>
            <AltitudeMeters>686.4000244140625</AltitudeMeters>
            <DistanceMeters>NAN</DistanceMeters>
          </Trackpoint>
          <Trackpoint>
            <Time>2021-08-03T12:57:48.000Z</Time>
            <Position>
              <LatitudeDegrees>-15.46091501601040363311767578125</LatitudeDegrees>
              <LongitudeDegrees>37.0217057503759860992431640625</LongitudeDegrees>
            </Position>
            <AltitudeMeters>686.4000244140625</AltitudeMeters>
            <DistanceMeters>NAN</DistanceMeters>
          </Trackpoint>
          <Trackpoint>
            <Time>2021-08-03T12:57:51.000Z</Time>
            <Position>
              <LatitudeDegrees>-15.46091199852526187896728515625</LatitudeDegrees>
              <LongitudeDegrees>37.02170960605144500732421875</LongitudeDegrees>
            </Position>
            <AltitudeMeters>686.4000244140625</AltitudeMeters>
            <DistanceMeters>NAN</DistanceMeters>
          </Trackpoint>
          <Trackpoint>
            <Time>2021-08-03T12:57:54.000Z</Time>
            <Position>
              <LatitudeDegrees>-15.4609104059636592864990234375</LatitudeDegrees>
              <LongitudeDegrees>37.02171002514660358428955078125</LongitudeDegrees>
            </Position>
            <AltitudeMeters>686.4000244140625</AltitudeMeters>
            <DistanceMeters>NAN</DistanceMeters>
          </Trackpoint>
          <Trackpoint>
            <Time>2021-08-03T12:57:56.000Z</Time>
            <Position>
              <LatitudeDegrees>-15.46091032214462757110595703125</LatitudeDegrees>
              <LongitudeDegrees>37.02171362936496734619140625</LongitudeDegrees>
            </Position>
            <AltitudeMeters>686.4000244140625</AltitudeMeters>
            <DistanceMeters>NAN</DistanceMeters>
          </Trackpoint>
          <Trackpoint>
            <Time>2021-08-03T12:58:01.000Z</Time>
            <Position>
              <LatitudeDegrees>-15.46091032214462757110595703125</LatitudeDegrees>
              <LongitudeDegrees>37.021715641021728515625</LongitudeDegrees>
            </Position>
            <AltitudeMeters>686.4000244140625</AltitudeMeters>
            <DistanceMeters>NAN</DistanceMeters>
          </Trackpoint>
          <Trackpoint>
            <Time>2021-08-03T12:58:21.000Z</Time>
            <Position>
              <LatitudeDegrees>-15.46090093441307544708251953125</LatitudeDegrees>
              <LongitudeDegrees>37.02171890996396541595458984375</LongitudeDegrees>
            </Position>
            <AltitudeMeters>686.4000244140625</AltitudeMeters>
            <DistanceMeters>NAN</DistanceMeters>
          </Trackpoint>
          <Trackpoint>
            <Time>2021-08-03T12:58:27.000Z</Time>
            <Position>
              <LatitudeDegrees>-15.46089909039437770843505859375</LatitudeDegrees>
              <LongitudeDegrees>37.02171899378299713134765625</LongitudeDegrees>
            </Position>
            <AltitudeMeters>686.4000244140625</AltitudeMeters>
            <DistanceMeters>NAN</DistanceMeters>
          </Trackpoint>
          <Trackpoint>
            <Time>2021-08-03T12:58:30.000Z</Time>
            <Position>
              <LatitudeDegrees>-15.4608978331089019775390625</LatitudeDegrees>
              <LongitudeDegrees>37.02171899378299713134765625</LongitudeDegrees>
            </Position>
            <AltitudeMeters>686.4000244140625</AltitudeMeters>
            <DistanceMeters>NAN</DistanceMeters>
          </Trackpoint>
          <Trackpoint>
            <Time>2021-08-03T12:58:33.000Z</Time>
            <Position>
              <LatitudeDegrees>-15.46089582145214080810546875</LatitudeDegrees>
              <LongitudeDegrees>37.02171974815428256988525390625</LongitudeDegrees>
            </Position>
            <AltitudeMeters>686.4000244140625</AltitudeMeters>
            <DistanceMeters>NAN</DistanceMeters>
          </Trackpoint>
          <Trackpoint>
            <Time>2021-08-03T12:58:46.000Z</Time>
            <Position>
              <LatitudeDegrees>-15.4608953185379505157470703125</LatitudeDegrees>
              <LongitudeDegrees>37.021736092865467071533203125</LongitudeDegrees>
            </Position>
            <AltitudeMeters>686.4000244140625</AltitudeMeters>
            <DistanceMeters>NAN</DistanceMeters>
          </Trackpoint>
          <Trackpoint>
            <Time>2021-08-03T12:58:49.000Z</Time>
            <Position>
              <LatitudeDegrees>-15.46089758165180683135986328125</LatitudeDegrees>
              <LongitudeDegrees>37.021736763417720794677734375</LongitudeDegrees>
            </Position>
            <AltitudeMeters>686.4000244140625</AltitudeMeters>
            <DistanceMeters>NAN</DistanceMeters>
          </Trackpoint>
          <Trackpoint>
            <Time>2021-08-03T12:59:15.000Z</Time>
            <Position>
              <LatitudeDegrees>-15.46091702766716480255126953125</LatitudeDegrees>
              <LongitudeDegrees>37.021729387342929840087890625</LongitudeDegrees>
            </Position>
            <AltitudeMeters>686.4000244140625</AltitudeMeters>
            <DistanceMeters>NAN</DistanceMeters>
          </Trackpoint>
          <Trackpoint>
            <Time>2021-08-03T12:59:18.000Z</Time>
            <Position>
              <LatitudeDegrees>-15.46091702766716480255126953125</LatitudeDegrees>
              <LongitudeDegrees>37.02172930352389812469482421875</LongitudeDegrees>
            </Position>
            <AltitudeMeters>686.4000244140625</AltitudeMeters>
            <DistanceMeters>NAN</DistanceMeters>
          </Trackpoint>
          <Trackpoint>
            <Time>2021-08-03T12:59:24.000Z</Time>
            <Position>
              <LatitudeDegrees>-15.46090479008853435516357421875</LatitudeDegrees>
              <LongitudeDegrees>37.0217285491526126861572265625</LongitudeDegrees>
            </Position>
            <AltitudeMeters>686.4000244140625</AltitudeMeters>
            <DistanceMeters>NAN</DistanceMeters>
          </Trackpoint>
          <Trackpoint>
            <Time>2021-08-03T12:59:26.000Z</Time>
            <Position>
              <LatitudeDegrees>-15.4608986712992191314697265625</LatitudeDegrees>
              <LongitudeDegrees>37.0217282138764858245849609375</LongitudeDegrees>
            </Position>
            <AltitudeMeters>686.4000244140625</AltitudeMeters>
            <DistanceMeters>NAN</DistanceMeters>
          </Trackpoint>
          <Trackpoint>
            <Time>2021-08-03T12:59:31.000Z</Time>
            <Position>
              <LatitudeDegrees>-15.46089489944279193878173828125</LatitudeDegrees>
              <LongitudeDegrees>37.02172813005745410919189453125</LongitudeDegrees>
            </Position>
            <AltitudeMeters>686.4000244140625</AltitudeMeters>
            <DistanceMeters>NAN</DistanceMeters>
          </Trackpoint>
          <Trackpoint>
            <Time>2021-08-03T12:59:38.000Z</Time>
            <Position>
              <LatitudeDegrees>-15.46089439652860164642333984375</LatitudeDegrees>
              <LongitudeDegrees>37.0217295549809932708740234375</LongitudeDegrees>
            </Position>
            <AltitudeMeters>686.4000244140625</AltitudeMeters>
            <DistanceMeters>NAN</DistanceMeters>
          </Trackpoint>
          <Trackpoint>
            <Time>2021-08-03T12:59:44.000Z</Time>
            <Position>
              <LatitudeDegrees>-15.4608933068811893463134765625</LatitudeDegrees>
              <LongitudeDegrees>37.02173064462840557098388671875</LongitudeDegrees>
            </Position>
            <AltitudeMeters>686.4000244140625</AltitudeMeters>
            <DistanceMeters>NAN</DistanceMeters>
          </Trackpoint>
          <Trackpoint>
            <Time>2021-08-03T12:59:53.000Z</Time>
            <Position>
              <LatitudeDegrees>-15.4608933068811893463134765625</LatitudeDegrees>
              <LongitudeDegrees>37.02173483557999134063720703125</LongitudeDegrees>
            </Position>
            <AltitudeMeters>686.4000244140625</AltitudeMeters>
            <DistanceMeters>NAN</DistanceMeters>
          </Trackpoint>
          <Trackpoint>
            <Time>2021-08-03T12:59:56.000Z</Time>
            <Position>
              <LatitudeDegrees>-15.4608929716050624847412109375</LatitudeDegrees>
              <LongitudeDegrees>37.0217352546751499176025390625</LongitudeDegrees>
            </Position>
            <AltitudeMeters>686.4000244140625</AltitudeMeters>
            <DistanceMeters>NAN</DistanceMeters>
          </Trackpoint>
          <Trackpoint>
            <Time>2021-08-03T13:00:14.000Z</Time>
            <Position>
              <LatitudeDegrees>-15.46088735572993755340576171875</LatitudeDegrees>
              <LongitudeDegrees>37.0217332430183887481689453125</LongitudeDegrees>
            </Position>
            <AltitudeMeters>686.4000244140625</AltitudeMeters>
            <DistanceMeters>NAN</DistanceMeters>
          </Trackpoint>
          <Trackpoint>
            <Time>2021-08-03T13:00:19.000Z</Time>
            <Position>
              <LatitudeDegrees>-15.46088668517768383026123046875</LatitudeDegrees>
              <LongitudeDegrees>37.0217292197048664093017578125</LongitudeDegrees>
            </Position>
            <AltitudeMeters>686.4000244140625</AltitudeMeters>
            <DistanceMeters>NAN</DistanceMeters>
          </Trackpoint>
          <Trackpoint>
            <Time>2021-08-03T13:00:26.000Z</Time>
            <Position>
              <LatitudeDegrees>-15.46088634990155696868896484375</LatitudeDegrees>
              <LongitudeDegrees>37.02172611840069293975830078125</LongitudeDegrees>
            </Position>
            <AltitudeMeters>686.4000244140625</AltitudeMeters>
            <DistanceMeters>NAN</DistanceMeters>
          </Trackpoint>
          <Trackpoint>
            <Time>2021-08-03T13:00:30.000Z</Time>
            <Position>
              <LatitudeDegrees>-15.46088651753962039947509765625</LatitudeDegrees>
              <LongitudeDegrees>37.021725364029407501220703125</LongitudeDegrees>
            </Position>
            <AltitudeMeters>686.4000244140625</AltitudeMeters>
            <DistanceMeters>NAN</DistanceMeters>
          </Trackpoint>
          <Trackpoint>
            <Time>2021-08-03T13:00:35.000Z</Time>
            <Position>
              <LatitudeDegrees>-15.46088752336800098419189453125</LatitudeDegrees>
              <LongitudeDegrees>37.02172494493424892425537109375</LongitudeDegrees>
            </Position>
            <AltitudeMeters>686.4000244140625</AltitudeMeters>
            <DistanceMeters>NAN</DistanceMeters>
          </Trackpoint>
          <Trackpoint>
            <Time>2021-08-03T13:00:43.000Z</Time>
            <Position>
              <LatitudeDegrees>-15.46088819392025470733642578125</LatitudeDegrees>
              <LongitudeDegrees>37.021725364029407501220703125</LongitudeDegrees>
            </Position>
            <AltitudeMeters>686.4000244140625</AltitudeMeters>
            <DistanceMeters>NAN</DistanceMeters>
          </Trackpoint>
          <Trackpoint>
            <Time>2021-08-03T13:00:45.000Z</Time>
            <Position>
              <LatitudeDegrees>-15.4608882777392864227294921875</LatitudeDegrees>
              <LongitudeDegrees>37.0217255316674709320068359375</LongitudeDegrees>
            </Position>
            <AltitudeMeters>686.4000244140625</AltitudeMeters>
            <DistanceMeters>NAN</DistanceMeters>
          </Trackpoint>
          <Trackpoint>
            <Time>2021-08-03T13:00:55.000Z</Time>
            <Position>
              <LatitudeDegrees>-15.46088836155831813812255859375</LatitudeDegrees>
              <LongitudeDegrees>37.02172569930553436279296875</LongitudeDegrees>
            </Position>
            <AltitudeMeters>686.4000244140625</AltitudeMeters>
            <DistanceMeters>NAN</DistanceMeters>
          </Trackpoint>
          <Trackpoint>
            <Time>2021-08-03T13:01:13.000Z</Time>
            <Position>
              <LatitudeDegrees>-15.460888780653476715087890625</LatitudeDegrees>
              <LongitudeDegrees>37.02172578312456607818603515625</LongitudeDegrees>
            </Position>
            <AltitudeMeters>686.4000244140625</AltitudeMeters>
            <DistanceMeters>NAN</DistanceMeters>
          </Trackpoint>
          <Trackpoint>
            <Time>2021-08-03T13:01:21.000Z</Time>
            <Position>
              <LatitudeDegrees>-15.46088911592960357666015625</LatitudeDegrees>
              <LongitudeDegrees>37.02172578312456607818603515625</LongitudeDegrees>
            </Position>
            <AltitudeMeters>686.4000244140625</AltitudeMeters>
            <DistanceMeters>NAN</DistanceMeters>
          </Trackpoint>
          <Trackpoint>
            <Time>2021-08-03T13:01:32.000Z</Time>
            <Position>
              <LatitudeDegrees>-15.4608896188437938690185546875</LatitudeDegrees>
              <LongitudeDegrees>37.02172578312456607818603515625</LongitudeDegrees>
            </Position>
            <AltitudeMeters>686.4000244140625</AltitudeMeters>
            <DistanceMeters>NAN</DistanceMeters>
          </Trackpoint>
          <Trackpoint>
            <Time>2021-08-03T13:01:48.000Z</Time>
            <Position>
              <LatitudeDegrees>-15.4608902893960475921630859375</LatitudeDegrees>
              <LongitudeDegrees>37.02172569930553436279296875</LongitudeDegrees>
            </Position>
            <AltitudeMeters>686.4000244140625</AltitudeMeters>
            <DistanceMeters>NAN</DistanceMeters>
          </Trackpoint>
          <Trackpoint>
            <Time>2021-08-03T13:02:13.000Z</Time>
            <Position>
              <LatitudeDegrees>-15.46089104376733303070068359375</LatitudeDegrees>
              <LongitudeDegrees>37.02172561548650264739990234375</LongitudeDegrees>
            </Position>
            <AltitudeMeters>686.4000244140625</AltitudeMeters>
            <DistanceMeters>NAN</DistanceMeters>
          </Trackpoint>
          <Trackpoint>
            <Time>2021-08-03T13:02:33.000Z</Time>
            <Position>
              <LatitudeDegrees>-15.46089154668152332305908203125</LatitudeDegrees>
              <LongitudeDegrees>37.02172561548650264739990234375</LongitudeDegrees>
            </Position>
            <AltitudeMeters>686.4000244140625</AltitudeMeters>
            <DistanceMeters>NAN</DistanceMeters>
          </Trackpoint>
          <Trackpoint>
            <Time>2021-08-03T13:02:40.000Z</Time>
            <Position>
              <LatitudeDegrees>-15.46089154668152332305908203125</LatitudeDegrees>
              <LongitudeDegrees>37.02172561548650264739990234375</LongitudeDegrees>
            </Position>
            <AltitudeMeters>686.4000244140625</AltitudeMeters>
            <DistanceMeters>NAN</DistanceMeters>
          </Trackpoint>
          <Trackpoint>
            <Time>2021-08-03T13:02:54.000Z</Time>
            <Position>
              <LatitudeDegrees>-15.460891462862491607666015625</LatitudeDegrees>
              <LongitudeDegrees>37.0217255316674709320068359375</LongitudeDegrees>
            </Position>
            <AltitudeMeters>686.4000244140625</AltitudeMeters>
            <DistanceMeters>NAN</DistanceMeters>
          </Trackpoint>
          <Trackpoint>
            <Time>2021-08-03T13:02:57.000Z</Time>
            <Position>
              <LatitudeDegrees>-15.46089137904345989227294921875</LatitudeDegrees>
              <LongitudeDegrees>37.02172544784843921661376953125</LongitudeDegrees>
            </Position>
            <AltitudeMeters>686.4000244140625</AltitudeMeters>
            <DistanceMeters>NAN</DistanceMeters>
          </Trackpoint>
          <Trackpoint>
            <Time>2021-08-03T13:03:00.000Z</Time>
            <Position>
              <LatitudeDegrees>-15.4608912952244281768798828125</LatitudeDegrees>
              <LongitudeDegrees>37.02172544784843921661376953125</LongitudeDegrees>
            </Position>
            <AltitudeMeters>686.4000244140625</AltitudeMeters>
            <DistanceMeters>NAN</DistanceMeters>
          </Trackpoint>
          <Trackpoint>
            <Time>2021-08-03T13:03:40.000Z</Time>
            <Position>
              <LatitudeDegrees>-15.4608959890902042388916015625</LatitudeDegrees>
              <LongitudeDegrees>37.02172343619167804718017578125</LongitudeDegrees>
            </Position>
            <AltitudeMeters>686.4000244140625</AltitudeMeters>
            <DistanceMeters>NAN</DistanceMeters>
          </Trackpoint>
          <Trackpoint>
            <Time>2021-08-03T13:03:44.000Z</Time>
            <Position>
              <LatitudeDegrees>-15.46095977537333965301513671875</LatitudeDegrees>
              <LongitudeDegrees>37.021696530282497406005859375</LongitudeDegrees>
            </Position>
            <AltitudeMeters>686.20001220703125</AltitudeMeters>
            <DistanceMeters>NAN</DistanceMeters>
          </Trackpoint>
          <Trackpoint>
            <Time>2021-08-03T13:03:50.000Z</Time>
            <Position>
              <LatitudeDegrees>-15.461054407060146331787109375</LatitudeDegrees>
              <LongitudeDegrees>37.02166409231722354888916015625</LongitudeDegrees>
            </Position>
            <AltitudeMeters>686.4000244140625</AltitudeMeters>
            <DistanceMeters>NAN</DistanceMeters>
          </Trackpoint>
          <Trackpoint>
            <Time>2021-08-03T13:03:53.000Z</Time>
            <Position>
              <LatitudeDegrees>-15.46108701266348361968994140625</LatitudeDegrees>
              <LongitudeDegrees>37.02164682559669017791748046875</LongitudeDegrees>
            </Position>
            <AltitudeMeters>686.4000244140625</AltitudeMeters>
            <DistanceMeters>NAN</DistanceMeters>
          </Trackpoint>
          <Trackpoint>
            <Time>2021-08-03T13:04:00.000Z</Time>
            <Position>
              <LatitudeDegrees>-15.46118977479636669158935546875</LatitudeDegrees>
              <LongitudeDegrees>37.0216222666203975677490234375</LongitudeDegrees>
            </Position>
            <AltitudeMeters>686.4000244140625</AltitudeMeters>
            <DistanceMeters>NAN</DistanceMeters>
          </Trackpoint>
          <Trackpoint>
            <Time>2021-08-03T13:04:03.000Z</Time>
            <Position>
              <LatitudeDegrees>-15.46121793799102306365966796875</LatitudeDegrees>
              <LongitudeDegrees>37.0216135494410991668701171875</LongitudeDegrees>
            </Position>
            <AltitudeMeters>686.4000244140625</AltitudeMeters>
            <DistanceMeters>NAN</DistanceMeters>
          </Trackpoint>
          <Trackpoint>
            <Time>2021-08-03T13:04:13.000Z</Time>
            <Position>
              <LatitudeDegrees>-15.4613261483609676361083984375</LatitudeDegrees>
              <LongitudeDegrees>37.02156610786914825439453125</LongitudeDegrees>
            </Position>
            <AltitudeMeters>686.5999755859375</AltitudeMeters>
            <DistanceMeters>NAN</DistanceMeters>
          </Trackpoint>
          <Trackpoint>
            <Time>2021-08-03T13:04:23.000Z</Time>
            <Position>
              <LatitudeDegrees>-15.461435951292514801025390625</LatitudeDegrees>
              <LongitudeDegrees>37.021535597741603851318359375</LongitudeDegrees>
            </Position>
            <AltitudeMeters>686.4000244140625</AltitudeMeters>
            <DistanceMeters>NAN</DistanceMeters>
          </Trackpoint>
          <Trackpoint>
            <Time>2021-08-03T13:04:33.000Z</Time>
            <Position>
              <LatitudeDegrees>-15.4615434072911739349365234375</LatitudeDegrees>
              <LongitudeDegrees>37.02149544842541217803955078125</LongitudeDegrees>
            </Position>
            <AltitudeMeters>686.20001220703125</AltitudeMeters>
            <DistanceMeters>NAN</DistanceMeters>
          </Trackpoint>
          <Trackpoint>
            <Time>2021-08-03T13:04:40.000Z</Time>
            <Position>
              <LatitudeDegrees>-15.4616128094494342803955078125</LatitudeDegrees>
              <LongitudeDegrees>37.02144448645412921905517578125</LongitudeDegrees>
            </Position>
            <AltitudeMeters>686.5999755859375</AltitudeMeters>
            <DistanceMeters>NAN</DistanceMeters>
          </Trackpoint>
          <Trackpoint>
            <Time>2021-08-03T13:04:49.000Z</Time>
            <Position>
              <LatitudeDegrees>-15.46170760877430438995361328125</LatitudeDegrees>
              <LongitudeDegrees>37.02141146175563335418701171875</LongitudeDegrees>
            </Position>
            <AltitudeMeters>686.4000244140625</AltitudeMeters>
            <DistanceMeters>NAN</DistanceMeters>
          </Trackpoint>
          <Trackpoint>
            <Time>2021-08-03T13:04:58.000Z</Time>
            <Position>
              <LatitudeDegrees>-15.46181187964975833892822265625</LatitudeDegrees>
              <LongitudeDegrees>37.02136720530688762664794921875</LongitudeDegrees>
            </Position>
            <AltitudeMeters>686.79998779296875</AltitudeMeters>
            <DistanceMeters>NAN</DistanceMeters>
          </Trackpoint>
          <Trackpoint>
            <Time>2021-08-03T13:04:59.000Z</Time>
            <Position>
              <LatitudeDegrees>-15.46182244084775447845458984375</LatitudeDegrees>
              <LongitudeDegrees>37.0213629305362701416015625</LongitudeDegrees>
            </Position>
            <AltitudeMeters>686.79998779296875</AltitudeMeters>
            <DistanceMeters>NAN</DistanceMeters>
          </Trackpoint>
          <Trackpoint>
            <Time>2021-08-03T13:05:08.000Z</Time>
            <Position>
              <LatitudeDegrees>-15.46191908419132232666015625</LatitudeDegrees>
              <LongitudeDegrees>37.02131574042141437530517578125</LongitudeDegrees>
            </Position>
            <AltitudeMeters>686.5999755859375</AltitudeMeters>
            <DistanceMeters>NAN</DistanceMeters>
          </Trackpoint>
          <Trackpoint>
            <Time>2021-08-03T13:05:15.000Z</Time>
            <Position>
              <LatitudeDegrees>-15.4619940184056758880615234375</LatitudeDegrees>
              <LongitudeDegrees>37.021282128989696502685546875</LongitudeDegrees>
            </Position>
            <AltitudeMeters>686.79998779296875</AltitudeMeters>
            <DistanceMeters>NAN</DistanceMeters>
          </Trackpoint>
          <Trackpoint>
            <Time>2021-08-03T13:05:23.000Z</Time>
            <Position>
              <LatitudeDegrees>-15.46207062900066375732421875</LatitudeDegrees>
              <LongitudeDegrees>37.02124700881540775299072265625</LongitudeDegrees>
            </Position>
            <AltitudeMeters>686.79998779296875</AltitudeMeters>
            <DistanceMeters>NAN</DistanceMeters>
          </Trackpoint>
          <Trackpoint>
            <Time>2021-08-03T13:05:36.000Z</Time>
            <Position>
              <LatitudeDegrees>-15.4622153006494045257568359375</LatitudeDegrees>
              <LongitudeDegrees>37.02117073349654674530029296875</LongitudeDegrees>
            </Position>
            <AltitudeMeters>687</AltitudeMeters>
            <DistanceMeters>NAN</DistanceMeters>
          </Trackpoint>
          <Trackpoint>
            <Time>2021-08-03T13:05:44.000Z</Time>
            <Position>
              <LatitudeDegrees>-15.462298952043056488037109375</LatitudeDegrees>
              <LongitudeDegrees>37.021134607493877410888671875</LongitudeDegrees>
            </Position>
            <AltitudeMeters>687.4000244140625</AltitudeMeters>
            <DistanceMeters>NAN</DistanceMeters>
          </Trackpoint>
          <Trackpoint>
            <Time>2021-08-03T13:05:45.000Z</Time>
            <Position>
              <LatitudeDegrees>-15.46230934560298919677734375</LatitudeDegrees>
              <LongitudeDegrees>37.021130584180355072021484375</LongitudeDegrees>
            </Position>
            <AltitudeMeters>687.4000244140625</AltitudeMeters>
            <DistanceMeters>NAN</DistanceMeters>
          </Trackpoint>
          <Trackpoint>
            <Time>2021-08-03T13:05:48.000Z</Time>
            <Position>
              <LatitudeDegrees>-15.462347902357578277587890625</LatitudeDegrees>
              <LongitudeDegrees>37.02111859805881977081298828125</LongitudeDegrees>
            </Position>
            <AltitudeMeters>687.4000244140625</AltitudeMeters>
            <DistanceMeters>NAN</DistanceMeters>
          </Trackpoint>
          <Trackpoint>
            <Time>2021-08-03T13:05:55.000Z</Time>
            <Position>
              <LatitudeDegrees>-15.46242468059062957763671875</LatitudeDegrees>
              <LongitudeDegrees>37.0210851542651653289794921875</LongitudeDegrees>
            </Position>
            <AltitudeMeters>687.79998779296875</AltitudeMeters>
            <DistanceMeters>NAN</DistanceMeters>
          </Trackpoint>
          <Trackpoint>
            <Time>2021-08-03T13:05:57.000Z</Time>
            <Position>
              <LatitudeDegrees>-15.462447144091129302978515625</LatitudeDegrees>
              <LongitudeDegrees>37.021082974970340728759765625</LongitudeDegrees>
            </Position>
            <AltitudeMeters>688</AltitudeMeters>
            <DistanceMeters>NAN</DistanceMeters>
          </Trackpoint>
          <Trackpoint>
            <Time>2021-08-03T13:06:04.000Z</Time>
            <Position>
              <LatitudeDegrees>-15.462521575391292572021484375</LatitudeDegrees>
              <LongitudeDegrees>37.02106730081140995025634765625</LongitudeDegrees>
            </Position>
            <AltitudeMeters>688.20001220703125</AltitudeMeters>
            <DistanceMeters>NAN</DistanceMeters>
          </Trackpoint>
          <Trackpoint>
            <Time>2021-08-03T13:06:15.000Z</Time>
            <Position>
              <LatitudeDegrees>-15.46262945048511028289794921875</LatitudeDegrees>
              <LongitudeDegrees>37.02102170325815677642822265625</LongitudeDegrees>
            </Position>
            <AltitudeMeters>688.79998779296875</AltitudeMeters>
            <DistanceMeters>NAN</DistanceMeters>
          </Trackpoint>
          <Trackpoint>
            <Time>2021-08-03T13:06:17.000Z</Time>
            <Position>
              <LatitudeDegrees>-15.46264671720564365386962890625</LatitudeDegrees>
              <LongitudeDegrees>37.0210087113082408905029296875</LongitudeDegrees>
            </Position>
            <AltitudeMeters>689</AltitudeMeters>
            <DistanceMeters>NAN</DistanceMeters>
          </Trackpoint>
          <Trackpoint>
            <Time>2021-08-03T13:06:20.000Z</Time>
            <Position>
              <LatitudeDegrees>-15.46267571859061717987060546875</LatitudeDegrees>
              <LongitudeDegrees>37.02098649926483631134033203125</LongitudeDegrees>
            </Position>
            <AltitudeMeters>689</AltitudeMeters>
            <DistanceMeters>NAN</DistanceMeters>
          </Trackpoint>
          <Trackpoint>
            <Time>2021-08-03T13:06:27.000Z</Time>
            <Position>
              <LatitudeDegrees>-15.46274763531982898712158203125</LatitudeDegrees>
              <LongitudeDegrees>37.02092640101909637451171875</LongitudeDegrees>
            </Position>
            <AltitudeMeters>688.5999755859375</AltitudeMeters>
            <DistanceMeters>NAN</DistanceMeters>
          </Trackpoint>
          <Trackpoint>
            <Time>2021-08-03T13:06:35.000Z</Time>
            <Position>
              <LatitudeDegrees>-15.46280044130980968475341796875</LatitudeDegrees>
              <LongitudeDegrees>37.02083864249289035797119140625</LongitudeDegrees>
            </Position>
            <AltitudeMeters>688</AltitudeMeters>
            <DistanceMeters>NAN</DistanceMeters>
          </Trackpoint>
          <Trackpoint>
            <Time>2021-08-03T13:06:36.000Z</Time>
            <Position>
              <LatitudeDegrees>-15.46280513517558574676513671875</LatitudeDegrees>
              <LongitudeDegrees>37.02082254923880100250244140625</LongitudeDegrees>
            </Position>
            <AltitudeMeters>687.79998779296875</AltitudeMeters>
            <DistanceMeters>NAN</DistanceMeters>
          </Trackpoint>
          <Trackpoint>
            <Time>2021-08-03T13:06:44.000Z</Time>
            <Position>
              <LatitudeDegrees>-15.46281368471682071685791015625</LatitudeDegrees>
              <LongitudeDegrees>37.02070704661309719085693359375</LongitudeDegrees>
            </Position>
            <AltitudeMeters>687.20001220703125</AltitudeMeters>
            <DistanceMeters>NAN</DistanceMeters>
          </Trackpoint>
          <Trackpoint>
            <Time>2021-08-03T13:06:49.000Z</Time>
            <Position>
              <LatitudeDegrees>-15.46279884874820709228515625</LatitudeDegrees>
              <LongitudeDegrees>37.02065541408956050872802734375</LongitudeDegrees>
            </Position>
            <AltitudeMeters>687</AltitudeMeters>
            <DistanceMeters>NAN</DistanceMeters>
          </Trackpoint>
          <Trackpoint>
            <Time>2021-08-03T13:06:50.000Z</Time>
            <Position>
              <LatitudeDegrees>-15.46279675327241420745849609375</LatitudeDegrees>
              <LongitudeDegrees>37.02064351178705692291259765625</LongitudeDegrees>
            </Position>
            <AltitudeMeters>686.5999755859375</AltitudeMeters>
            <DistanceMeters>NAN</DistanceMeters>
          </Trackpoint>
          <Trackpoint>
            <Time>2021-08-03T13:06:53.000Z</Time>
            <Position>
              <LatitudeDegrees>-15.46278703026473522186279296875</LatitudeDegrees>
              <LongitudeDegrees>37.0206047035753726959228515625</LongitudeDegrees>
            </Position>
            <AltitudeMeters>686.20001220703125</AltitudeMeters>
            <DistanceMeters>NAN</DistanceMeters>
          </Trackpoint>
          <Trackpoint>
            <Time>2021-08-03T13:07:00.000Z</Time>
            <Position>
              <LatitudeDegrees>-15.4627403430640697479248046875</LatitudeDegrees>
              <LongitudeDegrees>37.020511329174041748046875</LongitudeDegrees>
            </Position>
            <AltitudeMeters>686</AltitudeMeters>
            <DistanceMeters>NAN</DistanceMeters>
          </Trackpoint>
          <Trackpoint>
            <Time>2021-08-03T13:07:01.000Z</Time>
            <Position>
              <LatitudeDegrees>-15.46273539774119853973388671875</LatitudeDegrees>
              <LongitudeDegrees>37.02049858868122100830078125</LongitudeDegrees>
            </Position>
            <AltitudeMeters>686</AltitudeMeters>
            <DistanceMeters>NAN</DistanceMeters>
          </Trackpoint>
          <Trackpoint>
            <Time>2021-08-03T13:07:11.000Z</Time>
            <Position>
              <LatitudeDegrees>-15.46269080601632595062255859375</LatitudeDegrees>
              <LongitudeDegrees>37.02037462033331394195556640625</LongitudeDegrees>
            </Position>
            <AltitudeMeters>685.5999755859375</AltitudeMeters>
            <DistanceMeters>NAN</DistanceMeters>
          </Trackpoint>
          <Trackpoint>
            <Time>2021-08-03T13:07:12.000Z</Time>
            <Position>
              <LatitudeDegrees>-15.462685860693454742431640625</LatitudeDegrees>
              <LongitudeDegrees>37.02036372385919094085693359375</LongitudeDegrees>
            </Position>
            <AltitudeMeters>685.4000244140625</AltitudeMeters>
            <DistanceMeters>NAN</DistanceMeters>
          </Trackpoint>
          <Trackpoint>
            <Time>2021-08-03T13:07:20.000Z</Time>
            <Position>
              <LatitudeDegrees>-15.46265208162367343902587890625</LatitudeDegrees>
              <LongitudeDegrees>37.020280659198760986328125</LongitudeDegrees>
            </Position>
            <AltitudeMeters>685.20001220703125</AltitudeMeters>
            <DistanceMeters>NAN</DistanceMeters>
          </Trackpoint>
          <Trackpoint>
            <Time>2021-08-03T13:07:27.000Z</Time>
            <Position>
              <LatitudeDegrees>-15.46263523399829864501953125</LatitudeDegrees>
              <LongitudeDegrees>37.020189464092254638671875</LongitudeDegrees>
            </Position>
            <AltitudeMeters>685.4000244140625</AltitudeMeters>
            <DistanceMeters>NAN</DistanceMeters>
          </Trackpoint>
          <Trackpoint>
            <Time>2021-08-03T13:07:30.000Z</Time>
            <Position>
              <LatitudeDegrees>-15.46261805109679698944091796875</LatitudeDegrees>
              <LongitudeDegrees>37.0201621390879154205322265625</LongitudeDegrees>
            </Position>
            <AltitudeMeters>685.4000244140625</AltitudeMeters>
            <DistanceMeters>NAN</DistanceMeters>
          </Trackpoint>
          <Trackpoint>
            <Time>2021-08-03T13:07:34.000Z</Time>
            <Position>
              <LatitudeDegrees>-15.462591648101806640625</LatitudeDegrees>
              <LongitudeDegrees>37.02011444605886936187744140625</LongitudeDegrees>
            </Position>
            <AltitudeMeters>685</AltitudeMeters>
            <DistanceMeters>NAN</DistanceMeters>
          </Trackpoint>
          <Trackpoint>
            <Time>2021-08-03T13:07:38.000Z</Time>
            <Position>
              <LatitudeDegrees>-15.46256625093519687652587890625</LatitudeDegrees>
              <LongitudeDegrees>37.02005979605019092559814453125</LongitudeDegrees>
            </Position>
            <AltitudeMeters>685</AltitudeMeters>
            <DistanceMeters>NAN</DistanceMeters>
          </Trackpoint>
          <Trackpoint>
            <Time>2021-08-03T13:07:40.000Z</Time>
            <Position>
              <LatitudeDegrees>-15.4625566117465496063232421875</LatitudeDegrees>
              <LongitudeDegrees>37.020033560693264007568359375</LongitudeDegrees>
            </Position>
            <AltitudeMeters>685</AltitudeMeters>
            <DistanceMeters>NAN</DistanceMeters>
          </Trackpoint>
          <Trackpoint>
            <Time>2021-08-03T13:07:47.000Z</Time>
            <Position>
              <LatitudeDegrees>-15.462526939809322357177734375</LatitudeDegrees>
              <LongitudeDegrees>37.01995133422315120697021484375</LongitudeDegrees>
            </Position>
            <AltitudeMeters>684.20001220703125</AltitudeMeters>
            <DistanceMeters>NAN</DistanceMeters>
          </Trackpoint>
          <Trackpoint>
            <Time>2021-08-03T13:07:48.000Z</Time>
            <Position>
              <LatitudeDegrees>-15.462518893182277679443359375</LatitudeDegrees>
              <LongitudeDegrees>37.0199408568441867828369140625</LongitudeDegrees>
            </Position>
            <AltitudeMeters>684.20001220703125</AltitudeMeters>
            <DistanceMeters>NAN</DistanceMeters>
          </Trackpoint>
          <Trackpoint>
            <Time>2021-08-03T13:07:54.000Z</Time>
            <Position>
              <LatitudeDegrees>-15.46249483712017536163330078125</LatitudeDegrees>
              <LongitudeDegrees>37.019867263734340667724609375</LongitudeDegrees>
            </Position>
            <AltitudeMeters>684.4000244140625</AltitudeMeters>
            <DistanceMeters>NAN</DistanceMeters>
          </Trackpoint>
          <Trackpoint>
            <Time>2021-08-03T13:07:59.000Z</Time>
            <Position>
              <LatitudeDegrees>-15.46245778910815715789794921875</LatitudeDegrees>
              <LongitudeDegrees>37.0197973586618900299072265625</LongitudeDegrees>
            </Position>
            <AltitudeMeters>684</AltitudeMeters>
            <DistanceMeters>NAN</DistanceMeters>
          </Trackpoint>
          <Trackpoint>
            <Time>2021-08-03T13:08:08.000Z</Time>
            <Position>
              <LatitudeDegrees>-15.46241990290582180023193359375</LatitudeDegrees>
              <LongitudeDegrees>37.01969124376773834228515625</LongitudeDegrees>
            </Position>
            <AltitudeMeters>684.4000244140625</AltitudeMeters>
            <DistanceMeters>NAN</DistanceMeters>
          </Trackpoint>
          <Trackpoint>
            <Time>2021-08-03T13:08:09.000Z</Time>
            <Position>
              <LatitudeDegrees>-15.462416969239711761474609375</LatitudeDegrees>
              <LongitudeDegrees>37.0196806825697422027587890625</LongitudeDegrees>
            </Position>
            <AltitudeMeters>684</AltitudeMeters>
            <DistanceMeters>NAN</DistanceMeters>
          </Trackpoint>
          <Trackpoint>
            <Time>2021-08-03T13:08:17.000Z</Time>
            <Position>
              <LatitudeDegrees>-15.4623785801231861114501953125</LatitudeDegrees>
              <LongitudeDegrees>37.0195765793323516845703125</LongitudeDegrees>
            </Position>
            <AltitudeMeters>683.20001220703125</AltitudeMeters>
            <DistanceMeters>NAN</DistanceMeters>
          </Trackpoint>
          <Trackpoint>
            <Time>2021-08-03T13:08:20.000Z</Time>
            <Position>
              <LatitudeDegrees>-15.46236072666943073272705078125</LatitudeDegrees>
              <LongitudeDegrees>37.01953475363552570343017578125</LongitudeDegrees>
            </Position>
            <AltitudeMeters>682.5999755859375</AltitudeMeters>
            <DistanceMeters>NAN</DistanceMeters>
          </Trackpoint>
          <Trackpoint>
            <Time>2021-08-03T13:08:32.000Z</Time>
            <Position>
              <LatitudeDegrees>-15.4623162187635898590087890625</LatitudeDegrees>
              <LongitudeDegrees>37.0194024033844470977783203125</LongitudeDegrees>
            </Position>
            <AltitudeMeters>682.20001220703125</AltitudeMeters>
            <DistanceMeters>NAN</DistanceMeters>
          </Trackpoint>
          <Trackpoint>
            <Time>2021-08-03T13:08:38.000Z</Time>
            <Position>
              <LatitudeDegrees>-15.46229216270148754119873046875</LatitudeDegrees>
              <LongitudeDegrees>37.01932000927627086639404296875</LongitudeDegrees>
            </Position>
            <AltitudeMeters>681.79998779296875</AltitudeMeters>
            <DistanceMeters>NAN</DistanceMeters>
          </Trackpoint>
          <Trackpoint>
            <Time>2021-08-03T13:08:40.000Z</Time>
            <Position>
              <LatitudeDegrees>-15.462287552654743194580078125</LatitudeDegrees>
              <LongitudeDegrees>37.019288241863250732421875</LongitudeDegrees>
            </Position>
            <AltitudeMeters>681.5999755859375</AltitudeMeters>
            <DistanceMeters>NAN</DistanceMeters>
          </Trackpoint>
          <Trackpoint>
            <Time>2021-08-03T13:08:49.000Z</Time>
            <Position>
              <LatitudeDegrees>-15.46224220655858516693115234375</LatitudeDegrees>
              <LongitudeDegrees>37.01917827129364013671875</LongitudeDegrees>
            </Position>
            <AltitudeMeters>681.4000244140625</AltitudeMeters>
            <DistanceMeters>NAN</DistanceMeters>
          </Trackpoint>
          <Trackpoint>
            <Time>2021-08-03T13:08:50.000Z</Time>
            <Position>
              <LatitudeDegrees>-15.462234579026699066162109375</LatitudeDegrees>
              <LongitudeDegrees>37.0191670395433902740478515625</LongitudeDegrees>
            </Position>
            <AltitudeMeters>681</AltitudeMeters>
            <DistanceMeters>NAN</DistanceMeters>
          </Trackpoint>
          <Trackpoint>
            <Time>2021-08-03T13:08:57.000Z</Time>
            <Position>
              <LatitudeDegrees>-15.462213121354579925537109375</LatitudeDegrees>
              <LongitudeDegrees>37.0190838910639286041259765625</LongitudeDegrees>
            </Position>
            <AltitudeMeters>680.79998779296875</AltitudeMeters>
            <DistanceMeters>NAN</DistanceMeters>
          </Trackpoint>
          <Trackpoint>
            <Time>2021-08-03T13:09:00.000Z</Time>
            <Position>
              <LatitudeDegrees>-15.4622015543282032012939453125</LatitudeDegrees>
              <LongitudeDegrees>37.0190610922873020172119140625</LongitudeDegrees>
            </Position>
            <AltitudeMeters>680.79998779296875</AltitudeMeters>
            <DistanceMeters>NAN</DistanceMeters>
          </Trackpoint>
          <Trackpoint>
            <Time>2021-08-03T13:09:03.000Z</Time>
            <Position>
              <LatitudeDegrees>-15.4621888138353824615478515625</LatitudeDegrees>
              <LongitudeDegrees>37.019027061760425567626953125</LongitudeDegrees>
            </Position>
            <AltitudeMeters>680.79998779296875</AltitudeMeters>
            <DistanceMeters>NAN</DistanceMeters>
          </Trackpoint>
          <Trackpoint>
            <Time>2021-08-03T13:09:04.000Z</Time>
            <Position>
              <LatitudeDegrees>-15.46218730509281158447265625</LatitudeDegrees>
              <LongitudeDegrees>37.01901524327695369720458984375</LongitudeDegrees>
            </Position>
            <AltitudeMeters>680.79998779296875</AltitudeMeters>
            <DistanceMeters>NAN</DistanceMeters>
          </Trackpoint>
          <Trackpoint>
            <Time>2021-08-03T13:09:08.000Z</Time>
            <Position>
              <LatitudeDegrees>-15.46216844581067562103271484375</LatitudeDegrees>
              <LongitudeDegrees>37.0189704000949859619140625</LongitudeDegrees>
            </Position>
            <AltitudeMeters>680.79998779296875</AltitudeMeters>
            <DistanceMeters>NAN</DistanceMeters>
          </Trackpoint>
          <Trackpoint>
            <Time>2021-08-03T13:09:10.000Z</Time>
            <Position>
              <LatitudeDegrees>-15.46216375194489955902099609375</LatitudeDegrees>
              <LongitudeDegrees>37.01895103789865970611572265625</LongitudeDegrees>
            </Position>
            <AltitudeMeters>680.5999755859375</AltitudeMeters>
            <DistanceMeters>NAN</DistanceMeters>
          </Trackpoint>
          <Trackpoint>
            <Time>2021-08-03T13:09:13.000Z</Time>
            <Position>
              <LatitudeDegrees>-15.46215754933655261993408203125</LatitudeDegrees>
              <LongitudeDegrees>37.0189199410378932952880859375</LongitudeDegrees>
            </Position>
            <AltitudeMeters>680.4000244140625</AltitudeMeters>
            <DistanceMeters>NAN</DistanceMeters>
          </Trackpoint>
          <Trackpoint>
            <Time>2021-08-03T13:09:14.000Z</Time>
            <Position>
              <LatitudeDegrees>-15.46215302310883998870849609375</LatitudeDegrees>
              <LongitudeDegrees>37.01890761964023113250732421875</LongitudeDegrees>
            </Position>
            <AltitudeMeters>680.4000244140625</AltitudeMeters>
            <DistanceMeters>NAN</DistanceMeters>
          </Trackpoint>
          <Trackpoint>
            <Time>2021-08-03T13:09:19.000Z</Time>
            <Position>
              <LatitudeDegrees>-15.4621210880577564239501953125</LatitudeDegrees>
              <LongitudeDegrees>37.018846683204174041748046875</LongitudeDegrees>
            </Position>
            <AltitudeMeters>680.4000244140625</AltitudeMeters>
            <DistanceMeters>NAN</DistanceMeters>
          </Trackpoint>
          <Trackpoint>
            <Time>2021-08-03T13:09:21.000Z</Time>
            <Position>
              <LatitudeDegrees>-15.46210843138396739959716796875</LatitudeDegrees>
              <LongitudeDegrees>37.01882581226527690887451171875</LongitudeDegrees>
            </Position>
            <AltitudeMeters>680.4000244140625</AltitudeMeters>
            <DistanceMeters>NAN</DistanceMeters>
          </Trackpoint>
          <Trackpoint>
            <Time>2021-08-03T13:09:29.000Z</Time>
            <Position>
              <LatitudeDegrees>-15.462075658142566680908203125</LatitudeDegrees>
              <LongitudeDegrees>37.0187271572649478912353515625</LongitudeDegrees>
            </Position>
            <AltitudeMeters>680.5999755859375</AltitudeMeters>
            <DistanceMeters>NAN</DistanceMeters>
          </Trackpoint>
          <Trackpoint>
            <Time>2021-08-03T13:09:32.000Z</Time>
            <Position>
              <LatitudeDegrees>-15.46206534840166568756103515625</LatitudeDegrees>
              <LongitudeDegrees>37.018691785633563995361328125</LongitudeDegrees>
            </Position>
            <AltitudeMeters>680.79998779296875</AltitudeMeters>
            <DistanceMeters>NAN</DistanceMeters>
          </Trackpoint>
          <Trackpoint>
            <Time>2021-08-03T13:09:35.000Z</Time>
            <Position>
              <LatitudeDegrees>-15.4620459862053394317626953125</LatitudeDegrees>
              <LongitudeDegrees>37.018661610782146453857421875</LongitudeDegrees>
            </Position>
            <AltitudeMeters>681</AltitudeMeters>
            <DistanceMeters>NAN</DistanceMeters>
          </Trackpoint>
          <Trackpoint>
            <Time>2021-08-03T13:09:46.000Z</Time>
            <Position>
              <LatitudeDegrees>-15.46199418604373931884765625</LatitudeDegrees>
              <LongitudeDegrees>37.01854786835610866546630859375</LongitudeDegrees>
            </Position>
            <AltitudeMeters>681.20001220703125</AltitudeMeters>
            <DistanceMeters>NAN</DistanceMeters>
          </Trackpoint>
          <Trackpoint>
            <Time>2021-08-03T13:09:53.000Z</Time>
            <Position>
              <LatitudeDegrees>-15.46195856295526027679443359375</LatitudeDegrees>
              <LongitudeDegrees>37.0184787176549434661865234375</LongitudeDegrees>
            </Position>
            <AltitudeMeters>681.5999755859375</AltitudeMeters>
            <DistanceMeters>NAN</DistanceMeters>
          </Trackpoint>
          <Trackpoint>
            <Time>2021-08-03T13:09:54.000Z</Time>
            <Position>
              <LatitudeDegrees>-15.46195554547011852264404296875</LatitudeDegrees>
              <LongitudeDegrees>37.01846589334309101104736328125</LongitudeDegrees>
            </Position>
            <AltitudeMeters>681.5999755859375</AltitudeMeters>
            <DistanceMeters>NAN</DistanceMeters>
          </Trackpoint>
          <Trackpoint>
            <Time>2021-08-03T13:10:06.000Z</Time>
            <Position>
              <LatitudeDegrees>-15.4619024880230426788330078125</LatitudeDegrees>
              <LongitudeDegrees>37.01832608319818973541259765625</LongitudeDegrees>
            </Position>
            <AltitudeMeters>682</AltitudeMeters>
            <DistanceMeters>NAN</DistanceMeters>
          </Trackpoint>
          <Trackpoint>
            <Time>2021-08-03T13:10:08.000Z</Time>
            <Position>
              <LatitudeDegrees>-15.46188916079699993133544921875</LatitudeDegrees>
              <LongitudeDegrees>37.01830848120152950286865234375</LongitudeDegrees>
            </Position>
            <AltitudeMeters>682</AltitudeMeters>
            <DistanceMeters>NAN</DistanceMeters>
          </Trackpoint>
          <Trackpoint>
            <Time>2021-08-03T13:10:19.000Z</Time>
            <Position>
              <LatitudeDegrees>-15.46184490434825420379638671875</LatitudeDegrees>
              <LongitudeDegrees>37.01819348149001598358154296875</LongitudeDegrees>
            </Position>
            <AltitudeMeters>682.4000244140625</AltitudeMeters>
            <DistanceMeters>NAN</DistanceMeters>
          </Trackpoint>
          <Trackpoint>
            <Time>2021-08-03T13:10:29.000Z</Time>
            <Position>
              <LatitudeDegrees>-15.4618015699088573455810546875</LatitudeDegrees>
              <LongitudeDegrees>37.0180924795567989349365234375</LongitudeDegrees>
            </Position>
            <AltitudeMeters>683</AltitudeMeters>
            <DistanceMeters>NAN</DistanceMeters>
          </Trackpoint>
          <Trackpoint>
            <Time>2021-08-03T13:10:32.000Z</Time>
            <Position>
              <LatitudeDegrees>-15.46178438700735569000244140625</LatitudeDegrees>
              <LongitudeDegrees>37.01806289143860340118408203125</LongitudeDegrees>
            </Position>
            <AltitudeMeters>683.20001220703125</AltitudeMeters>
            <DistanceMeters>NAN</DistanceMeters>
          </Trackpoint>
          <Trackpoint>
            <Time>2021-08-03T13:10:36.000Z</Time>
            <Position>
              <LatitudeDegrees>-15.46176812611520290374755859375</LatitudeDegrees>
              <LongitudeDegrees>37.01802634634077548980712890625</LongitudeDegrees>
            </Position>
            <AltitudeMeters>683.5999755859375</AltitudeMeters>
            <DistanceMeters>NAN</DistanceMeters>
          </Trackpoint>
          <Trackpoint>
            <Time>2021-08-03T13:10:38.000Z</Time>
            <Position>
              <LatitudeDegrees>-15.46176292933523654937744140625</LatitudeDegrees>
              <LongitudeDegrees>37.018009163439273834228515625</LongitudeDegrees>
            </Position>
            <AltitudeMeters>683.79998779296875</AltitudeMeters>
            <DistanceMeters>NAN</DistanceMeters>
          </Trackpoint>
          <Trackpoint>
            <Time>2021-08-03T13:10:41.000Z</Time>
            <Position>
              <LatitudeDegrees>-15.4617536254227161407470703125</LatitudeDegrees>
              <LongitudeDegrees>37.01798242516815662384033203125</LongitudeDegrees>
            </Position>
            <AltitudeMeters>684.4000244140625</AltitudeMeters>
            <DistanceMeters>NAN</DistanceMeters>
          </Trackpoint>
          <Trackpoint>
            <Time>2021-08-03T13:10:46.000Z</Time>
            <Position>
              <LatitudeDegrees>-15.46173828653991222381591796875</LatitudeDegrees>
              <LongitudeDegrees>37.01793372631072998046875</LongitudeDegrees>
            </Position>
            <AltitudeMeters>684.79998779296875</AltitudeMeters>
            <DistanceMeters>NAN</DistanceMeters>
          </Trackpoint>
          <Trackpoint>
            <Time>2021-08-03T13:10:48.000Z</Time>
            <Position>
              <LatitudeDegrees>-15.46172655187547206878662109375</LatitudeDegrees>
              <LongitudeDegrees>37.0179134421050548553466796875</LongitudeDegrees>
            </Position>
            <AltitudeMeters>685</AltitudeMeters>
            <DistanceMeters>NAN</DistanceMeters>
          </Trackpoint>
          <Trackpoint>
            <Time>2021-08-03T13:10:52.000Z</Time>
            <Position>
              <LatitudeDegrees>-15.46171129681169986724853515625</LatitudeDegrees>
              <LongitudeDegrees>37.017872035503387451171875</LongitudeDegrees>
            </Position>
            <AltitudeMeters>685.5999755859375</AltitudeMeters>
            <DistanceMeters>NAN</DistanceMeters>
          </Trackpoint>
          <Trackpoint>
            <Time>2021-08-03T13:10:56.000Z</Time>
            <Position>
              <LatitudeDegrees>-15.46169369481503963470458984375</LatitudeDegrees>
              <LongitudeDegrees>37.0178390108048915863037109375</LongitudeDegrees>
            </Position>
            <AltitudeMeters>685.79998779296875</AltitudeMeters>
            <DistanceMeters>NAN</DistanceMeters>
          </Trackpoint>
          <Trackpoint>
            <Time>2021-08-03T13:10:58.000Z</Time>
            <Position>
              <LatitudeDegrees>-15.46168732456862926483154296875</LatitudeDegrees>
              <LongitudeDegrees>37.0178266055881977081298828125</LongitudeDegrees>
            </Position>
            <AltitudeMeters>686.20001220703125</AltitudeMeters>
            <DistanceMeters>NAN</DistanceMeters>
          </Trackpoint>
          <Trackpoint>
            <Time>2021-08-03T13:11:02.000Z</Time>
            <Position>
              <LatitudeDegrees>-15.461669974029064178466796875</LatitudeDegrees>
              <LongitudeDegrees>37.01779383234679698944091796875</LongitudeDegrees>
            </Position>
            <AltitudeMeters>686.79998779296875</AltitudeMeters>
            <DistanceMeters>NAN</DistanceMeters>
          </Trackpoint>
          <Trackpoint>
            <Time>2021-08-03T13:11:03.000Z</Time>
            <Position>
              <LatitudeDegrees>-15.4616657830774784088134765625</LatitudeDegrees>
              <LongitudeDegrees>37.01778477989137172698974609375</LongitudeDegrees>
            </Position>
            <AltitudeMeters>686.79998779296875</AltitudeMeters>
            <DistanceMeters>NAN</DistanceMeters>
          </Trackpoint>
          <Trackpoint>
            <Time>2021-08-03T13:11:06.000Z</Time>
            <Position>
              <LatitudeDegrees>-15.46166284941136837005615234375</LatitudeDegrees>
              <LongitudeDegrees>37.01776097528636455535888671875</LongitudeDegrees>
            </Position>
            <AltitudeMeters>687.20001220703125</AltitudeMeters>
            <DistanceMeters>NAN</DistanceMeters>
          </Trackpoint>
          <Trackpoint>
            <Time>2021-08-03T13:11:09.000Z</Time>
            <Position>
              <LatitudeDegrees>-15.46165446750819683074951171875</LatitudeDegrees>
              <LongitudeDegrees>37.01773532666265964508056640625</LongitudeDegrees>
            </Position>
            <AltitudeMeters>687.79998779296875</AltitudeMeters>
            <DistanceMeters>NAN</DistanceMeters>
          </Trackpoint>
          <Trackpoint>
            <Time>2021-08-03T13:11:12.000Z</Time>
            <Position>
              <LatitudeDegrees>-15.461641810834407806396484375</LatitudeDegrees>
              <LongitudeDegrees>37.01771286316215991973876953125</LongitudeDegrees>
            </Position>
            <AltitudeMeters>688</AltitudeMeters>
            <DistanceMeters>NAN</DistanceMeters>
          </Trackpoint>
          <Trackpoint>
            <Time>2021-08-03T13:11:20.000Z</Time>
            <Position>
              <LatitudeDegrees>-15.4616278968751430511474609375</LatitudeDegrees>
              <LongitudeDegrees>37.01763331890106201171875</LongitudeDegrees>
            </Position>
            <AltitudeMeters>688.79998779296875</AltitudeMeters>
            <DistanceMeters>NAN</DistanceMeters>
          </Trackpoint>
          <Trackpoint>
            <Time>2021-08-03T13:11:21.000Z</Time>
            <Position>
              <LatitudeDegrees>-15.4616252146661281585693359375</LatitudeDegrees>
              <LongitudeDegrees>37.01762460172176361083984375</LongitudeDegrees>
            </Position>
            <AltitudeMeters>689</AltitudeMeters>
            <DistanceMeters>NAN</DistanceMeters>
          </Trackpoint>
          <Trackpoint>
            <Time>2021-08-03T13:11:22.000Z</Time>
            <Position>
              <LatitudeDegrees>-15.4616215266287326812744140625</LatitudeDegrees>
              <LongitudeDegrees>37.01761663891375064849853515625</LongitudeDegrees>
            </Position>
            <AltitudeMeters>689</AltitudeMeters>
            <DistanceMeters>NAN</DistanceMeters>
          </Trackpoint>
          <Trackpoint>
            <Time>2021-08-03T13:11:27.000Z</Time>
            <Position>
              <LatitudeDegrees>-15.461604930460453033447265625</LatitudeDegrees>
              <LongitudeDegrees>37.01757221482694149017333984375</LongitudeDegrees>
            </Position>
            <AltitudeMeters>689.5999755859375</AltitudeMeters>
            <DistanceMeters>NAN</DistanceMeters>
          </Trackpoint>
          <Trackpoint>
            <Time>2021-08-03T13:11:30.000Z</Time>
            <Position>
              <LatitudeDegrees>-15.4615967161953449249267578125</LatitudeDegrees>
              <LongitudeDegrees>37.0175456441938877105712890625</LongitudeDegrees>
            </Position>
            <AltitudeMeters>690</AltitudeMeters>
            <DistanceMeters>NAN</DistanceMeters>
          </Trackpoint>
          <Trackpoint>
            <Time>2021-08-03T13:11:31.000Z</Time>
            <Position>
              <LatitudeDegrees>-15.461591519415378570556640625</LatitudeDegrees>
              <LongitudeDegrees>37.01753650791943073272705078125</LongitudeDegrees>
            </Position>
            <AltitudeMeters>690.20001220703125</AltitudeMeters>
            <DistanceMeters>NAN</DistanceMeters>
          </Trackpoint>
          <Trackpoint>
            <Time>2021-08-03T13:11:34.000Z</Time>
            <Position>
              <LatitudeDegrees>-15.461568720638751983642578125</LatitudeDegrees>
              <LongitudeDegrees>37.0175211690366268157958984375</LongitudeDegrees>
            </Position>
            <AltitudeMeters>690.5999755859375</AltitudeMeters>
            <DistanceMeters>NAN</DistanceMeters>
          </Trackpoint>
          <Trackpoint>
            <Time>2021-08-03T13:11:39.000Z</Time>
            <Position>
              <LatitudeDegrees>-15.46154533512890338897705078125</LatitudeDegrees>
              <LongitudeDegrees>37.01746643520891666412353515625</LongitudeDegrees>
            </Position>
            <AltitudeMeters>691.20001220703125</AltitudeMeters>
            <DistanceMeters>NAN</DistanceMeters>
          </Trackpoint>
          <Trackpoint>
            <Time>2021-08-03T13:11:41.000Z</Time>
            <Position>
              <LatitudeDegrees>-15.46153577975928783416748046875</LatitudeDegrees>
              <LongitudeDegrees>37.01744933612644672393798828125</LongitudeDegrees>
            </Position>
            <AltitudeMeters>691.20001220703125</AltitudeMeters>
            <DistanceMeters>NAN</DistanceMeters>
          </Trackpoint>
          <Trackpoint>
            <Time>2021-08-03T13:11:46.000Z</Time>
            <Position>
              <LatitudeDegrees>-15.46151733957231044769287109375</LatitudeDegrees>
              <LongitudeDegrees>37.01740340329706668853759765625</LongitudeDegrees>
            </Position>
            <AltitudeMeters>691.5999755859375</AltitudeMeters>
            <DistanceMeters>NAN</DistanceMeters>
          </Trackpoint>
          <Trackpoint>
            <Time>2021-08-03T13:11:51.000Z</Time>
            <Position>
              <LatitudeDegrees>-15.46151130460202693939208984375</LatitudeDegrees>
              <LongitudeDegrees>37.01735244132578372955322265625</LongitudeDegrees>
            </Position>
            <AltitudeMeters>692</AltitudeMeters>
            <DistanceMeters>NAN</DistanceMeters>
          </Trackpoint>
          <Trackpoint>
            <Time>2021-08-03T13:11:53.000Z</Time>
            <Position>
              <LatitudeDegrees>-15.46150275506079196929931640625</LatitudeDegrees>
              <LongitudeDegrees>37.017333246767520904541015625</LongitudeDegrees>
            </Position>
            <AltitudeMeters>692.20001220703125</AltitudeMeters>
            <DistanceMeters>NAN</DistanceMeters>
          </Trackpoint>
          <Trackpoint>
            <Time>2021-08-03T13:12:01.000Z</Time>
            <Position>
              <LatitudeDegrees>-15.461474172770977020263671875</LatitudeDegrees>
              <LongitudeDegrees>37.017249763011932373046875</LongitudeDegrees>
            </Position>
            <AltitudeMeters>693</AltitudeMeters>
            <DistanceMeters>NAN</DistanceMeters>
          </Trackpoint>
          <Trackpoint>
            <Time>2021-08-03T13:12:03.000Z</Time>
            <Position>
              <LatitudeDegrees>-15.46146855689585208892822265625</LatitudeDegrees>
              <LongitudeDegrees>37.0172323286533355712890625</LongitudeDegrees>
            </Position>
            <AltitudeMeters>693.4000244140625</AltitudeMeters>
            <DistanceMeters>NAN</DistanceMeters>
          </Trackpoint>
          <Trackpoint>
            <Time>2021-08-03T13:12:10.000Z</Time>
            <Position>
              <LatitudeDegrees>-15.46144257299602031707763671875</LatitudeDegrees>
              <LongitudeDegrees>37.017183043062686920166015625</LongitudeDegrees>
            </Position>
            <AltitudeMeters>694</AltitudeMeters>
            <DistanceMeters>NAN</DistanceMeters>
          </Trackpoint>
          <Trackpoint>
            <Time>2021-08-03T13:12:12.000Z</Time>
            <Position>
              <LatitudeDegrees>-15.46143519692122936248779296875</LatitudeDegrees>
              <LongitudeDegrees>37.0171671174466609954833984375</LongitudeDegrees>
            </Position>
            <AltitudeMeters>694.20001220703125</AltitudeMeters>
            <DistanceMeters>NAN</DistanceMeters>
          </Trackpoint>
          <Trackpoint>
            <Time>2021-08-03T13:12:15.000Z</Time>
            <Position>
              <LatitudeDegrees>-15.4614351131021976470947265625</LatitudeDegrees>
              <LongitudeDegrees>37.01713635586202144622802734375</LongitudeDegrees>
            </Position>
            <AltitudeMeters>694.4000244140625</AltitudeMeters>
            <DistanceMeters>NAN</DistanceMeters>
          </Trackpoint>
          <Trackpoint>
            <Time>2021-08-03T13:12:18.000Z</Time>
            <Position>
              <LatitudeDegrees>-15.46143000014126300811767578125</LatitudeDegrees>
              <LongitudeDegrees>37.01710919849574565887451171875</LongitudeDegrees>
            </Position>
            <AltitudeMeters>694.5999755859375</AltitudeMeters>
            <DistanceMeters>NAN</DistanceMeters>
          </Trackpoint>
          <Trackpoint>
            <Time>2021-08-03T13:12:25.000Z</Time>
            <Position>
              <LatitudeDegrees>-15.461399741470813751220703125</LatitudeDegrees>
              <LongitudeDegrees>37.01703996397554874420166015625</LongitudeDegrees>
            </Position>
            <AltitudeMeters>695.4000244140625</AltitudeMeters>
            <DistanceMeters>NAN</DistanceMeters>
          </Trackpoint>
          <Trackpoint>
            <Time>2021-08-03T13:12:27.000Z</Time>
            <Position>
              <LatitudeDegrees>-15.461391694843769073486328125</LatitudeDegrees>
              <LongitudeDegrees>37.017022110521793365478515625</LongitudeDegrees>
            </Position>
            <AltitudeMeters>695.5999755859375</AltitudeMeters>
            <DistanceMeters>NAN</DistanceMeters>
          </Trackpoint>
          <Trackpoint>
            <Time>2021-08-03T13:12:29.000Z</Time>
            <Position>
              <LatitudeDegrees>-15.4613844864070415496826171875</LatitudeDegrees>
              <LongitudeDegrees>37.017002999782562255859375</LongitudeDegrees>
            </Position>
            <AltitudeMeters>696</AltitudeMeters>
            <DistanceMeters>NAN</DistanceMeters>
          </Trackpoint>
          <Trackpoint>
            <Time>2021-08-03T13:12:32.000Z</Time>
            <Position>
              <LatitudeDegrees>-15.46137803234159946441650390625</LatitudeDegrees>
              <LongitudeDegrees>37.01697391457855701446533203125</LongitudeDegrees>
            </Position>
            <AltitudeMeters>696.20001220703125</AltitudeMeters>
            <DistanceMeters>NAN</DistanceMeters>
          </Trackpoint>
          <Trackpoint>
            <Time>2021-08-03T13:12:35.000Z</Time>
            <Position>
              <LatitudeDegrees>-15.461373589932918548583984375</LatitudeDegrees>
              <LongitudeDegrees>37.0169448293745517730712890625</LongitudeDegrees>
            </Position>
            <AltitudeMeters>696.5999755859375</AltitudeMeters>
            <DistanceMeters>NAN</DistanceMeters>
          </Trackpoint>
          <Trackpoint>
            <Time>2021-08-03T13:12:38.000Z</Time>
            <Position>
              <LatitudeDegrees>-15.46137115918099880218505859375</LatitudeDegrees>
              <LongitudeDegrees>37.016919516026973724365234375</LongitudeDegrees>
            </Position>
            <AltitudeMeters>696.79998779296875</AltitudeMeters>
            <DistanceMeters>NAN</DistanceMeters>
          </Trackpoint>
          <Trackpoint>
            <Time>2021-08-03T13:12:41.000Z</Time>
            <Position>
              <LatitudeDegrees>-15.46135657466948032379150390625</LatitudeDegrees>
              <LongitudeDegrees>37.0168983936309814453125</LongitudeDegrees>
            </Position>
            <AltitudeMeters>697.5999755859375</AltitudeMeters>
            <DistanceMeters>NAN</DistanceMeters>
          </Trackpoint>
          <Trackpoint>
            <Time>2021-08-03T13:12:42.000Z</Time>
            <Position>
              <LatitudeDegrees>-15.46135271899402141571044921875</LatitudeDegrees>
              <LongitudeDegrees>37.0168891735374927520751953125</LongitudeDegrees>
            </Position>
            <AltitudeMeters>697.5999755859375</AltitudeMeters>
            <DistanceMeters>NAN</DistanceMeters>
          </Trackpoint>
          <Trackpoint>
            <Time>2021-08-03T13:12:44.000Z</Time>
            <Position>
              <LatitudeDegrees>-15.461348779499530792236328125</LatitudeDegrees>
              <LongitudeDegrees>37.01686914078891277313232421875</LongitudeDegrees>
            </Position>
            <AltitudeMeters>697.79998779296875</AltitudeMeters>
            <DistanceMeters>NAN</DistanceMeters>
          </Trackpoint>
          <Trackpoint>
            <Time>2021-08-03T13:12:46.000Z</Time>
            <Position>
              <LatitudeDegrees>-15.46134031377732753753662109375</LatitudeDegrees>
              <LongitudeDegrees>37.01685204170644283294677734375</LongitudeDegrees>
            </Position>
            <AltitudeMeters>698</AltitudeMeters>
            <DistanceMeters>NAN</DistanceMeters>
          </Trackpoint>
          <Trackpoint>
            <Time>2021-08-03T13:12:50.000Z</Time>
            <Position>
              <LatitudeDegrees>-15.4613278247416019439697265625</LatitudeDegrees>
              <LongitudeDegrees>37.016813568770885467529296875</LongitudeDegrees>
            </Position>
            <AltitudeMeters>698.4000244140625</AltitudeMeters>
            <DistanceMeters>NAN</DistanceMeters>
          </Trackpoint>
          <Trackpoint>
            <Time>2021-08-03T13:12:52.000Z</Time>
            <Position>
              <LatitudeDegrees>-15.46132220886647701263427734375</LatitudeDegrees>
              <LongitudeDegrees>37.0167942903935909271240234375</LongitudeDegrees>
            </Position>
            <AltitudeMeters>698.79998779296875</AltitudeMeters>
            <DistanceMeters>NAN</DistanceMeters>
          </Trackpoint>
          <Trackpoint>
            <Time>2021-08-03T13:12:54.000Z</Time>
            <Position>
              <LatitudeDegrees>-15.46131399460136890411376953125</LatitudeDegrees>
              <LongitudeDegrees>37.01677660457789897918701171875</LongitudeDegrees>
            </Position>
            <AltitudeMeters>699</AltitudeMeters>
            <DistanceMeters>NAN</DistanceMeters>
          </Trackpoint>
          <Trackpoint>
            <Time>2021-08-03T13:12:59.000Z</Time>
            <Position>
              <LatitudeDegrees>-15.4612869210541248321533203125</LatitudeDegrees>
              <LongitudeDegrees>37.01673033647239208221435546875</LongitudeDegrees>
            </Position>
            <AltitudeMeters>699.5999755859375</AltitudeMeters>
            <DistanceMeters>NAN</DistanceMeters>
          </Trackpoint>
          <Trackpoint>
            <Time>2021-08-03T13:13:01.000Z</Time>
            <Position>
              <LatitudeDegrees>-15.46127711422741413116455078125</LatitudeDegrees>
              <LongitudeDegrees>37.01671374030411243438720703125</LongitudeDegrees>
            </Position>
            <AltitudeMeters>699.79998779296875</AltitudeMeters>
            <DistanceMeters>NAN</DistanceMeters>
          </Trackpoint>
          <Trackpoint>
            <Time>2021-08-03T13:13:06.000Z</Time>
            <Position>
              <LatitudeDegrees>-15.461250208318233489990234375</LatitudeDegrees>
              <LongitudeDegrees>37.016668058931827545166015625</LongitudeDegrees>
            </Position>
            <AltitudeMeters>700.5999755859375</AltitudeMeters>
            <DistanceMeters>NAN</DistanceMeters>
          </Trackpoint>
          <Trackpoint>
            <Time>2021-08-03T13:13:08.000Z</Time>
            <Position>
              <LatitudeDegrees>-15.46124425716698169708251953125</LatitudeDegrees>
              <LongitudeDegrees>37.01664634980261325836181640625</LongitudeDegrees>
            </Position>
            <AltitudeMeters>700.79998779296875</AltitudeMeters>
            <DistanceMeters>NAN</DistanceMeters>
          </Trackpoint>
          <Trackpoint>
            <Time>2021-08-03T13:13:09.000Z</Time>
            <Position>
              <LatitudeDegrees>-15.46124182641506195068359375</LatitudeDegrees>
              <LongitudeDegrees>37.0166380517184734344482421875</LongitudeDegrees>
            </Position>
            <AltitudeMeters>701</AltitudeMeters>
            <DistanceMeters>NAN</DistanceMeters>
          </Trackpoint>
          <Trackpoint>
            <Time>2021-08-03T13:13:10.000Z</Time>
            <Position>
              <LatitudeDegrees>-15.46123788692057132720947265625</LatitudeDegrees>
              <LongitudeDegrees>37.0166286639869213104248046875</LongitudeDegrees>
            </Position>
            <AltitudeMeters>701</AltitudeMeters>
            <DistanceMeters>NAN</DistanceMeters>
          </Trackpoint>
          <Trackpoint>
            <Time>2021-08-03T13:13:15.000Z</Time>
            <Position>
              <LatitudeDegrees>-15.46122397296130657196044921875</LatitudeDegrees>
              <LongitudeDegrees>37.0165797136723995208740234375</LongitudeDegrees>
            </Position>
            <AltitudeMeters>702</AltitudeMeters>
            <DistanceMeters>NAN</DistanceMeters>
          </Trackpoint>
          <Trackpoint>
            <Time>2021-08-03T13:13:18.000Z</Time>
            <Position>
              <LatitudeDegrees>-15.46121441759169101715087890625</LatitudeDegrees>
              <LongitudeDegrees>37.01655331067740917205810546875</LongitudeDegrees>
            </Position>
            <AltitudeMeters>702</AltitudeMeters>
            <DistanceMeters>NAN</DistanceMeters>
          </Trackpoint>
          <Trackpoint>
            <Time>2021-08-03T13:13:20.000Z</Time>
            <Position>
              <LatitudeDegrees>-15.461215674877166748046875</LatitudeDegrees>
              <LongitudeDegrees>37.01653403230011463165283203125</LongitudeDegrees>
            </Position>
            <AltitudeMeters>702.20001220703125</AltitudeMeters>
            <DistanceMeters>NAN</DistanceMeters>
          </Trackpoint>
          <Trackpoint>
            <Time>2021-08-03T13:13:23.000Z</Time>
            <Position>
              <LatitudeDegrees>-15.4612178541719913482666015625</LatitudeDegrees>
              <LongitudeDegrees>37.01650201342999935150146484375</LongitudeDegrees>
            </Position>
            <AltitudeMeters>702.5999755859375</AltitudeMeters>
            <DistanceMeters>NAN</DistanceMeters>
          </Trackpoint>
          <Trackpoint>
            <Time>2021-08-03T13:13:26.000Z</Time>
            <Position>
              <LatitudeDegrees>-15.46120821498334407806396484375</LatitudeDegrees>
              <LongitudeDegrees>37.0164692401885986328125</LongitudeDegrees>
            </Position>
            <AltitudeMeters>702.79998779296875</AltitudeMeters>
            <DistanceMeters>NAN</DistanceMeters>
          </Trackpoint>
          <Trackpoint>
            <Time>2021-08-03T13:13:28.000Z</Time>
            <Position>
              <LatitudeDegrees>-15.461210310459136962890625</LatitudeDegrees>
              <LongitudeDegrees>37.01644250191748142242431640625</LongitudeDegrees>
            </Position>
            <AltitudeMeters>702.79998779296875</AltitudeMeters>
            <DistanceMeters>NAN</DistanceMeters>
          </Trackpoint>
          <Trackpoint>
            <Time>2021-08-03T13:13:30.000Z</Time>
            <Position>
              <LatitudeDegrees>-15.461213998496532440185546875</LatitudeDegrees>
              <LongitudeDegrees>37.01642096042633056640625</LongitudeDegrees>
            </Position>
            <AltitudeMeters>702.79998779296875</AltitudeMeters>
            <DistanceMeters>NAN</DistanceMeters>
          </Trackpoint>
          <Trackpoint>
            <Time>2021-08-03T13:13:35.000Z</Time>
            <Position>
              <LatitudeDegrees>-15.461215674877166748046875</LatitudeDegrees>
              <LongitudeDegrees>37.0163621194660663604736328125</LongitudeDegrees>
            </Position>
            <AltitudeMeters>703</AltitudeMeters>
            <DistanceMeters>NAN</DistanceMeters>
          </Trackpoint>
          <Trackpoint>
            <Time>2021-08-03T13:13:37.000Z</Time>
            <Position>
              <LatitudeDegrees>-15.46121458522975444793701171875</LatitudeDegrees>
              <LongitudeDegrees>37.016340829432010650634765625</LongitudeDegrees>
            </Position>
            <AltitudeMeters>703</AltitudeMeters>
            <DistanceMeters>NAN</DistanceMeters>
          </Trackpoint>
          <Trackpoint>
            <Time>2021-08-03T13:13:41.000Z</Time>
            <Position>
              <LatitudeDegrees>-15.46121039427816867828369140625</LatitudeDegrees>
              <LongitudeDegrees>37.0162964053452014923095703125</LongitudeDegrees>
            </Position>
            <AltitudeMeters>703</AltitudeMeters>
            <DistanceMeters>NAN</DistanceMeters>
          </Trackpoint>
          <Trackpoint>
            <Time>2021-08-03T13:13:44.000Z</Time>
            <Position>
              <LatitudeDegrees>-15.4612077958881855010986328125</LatitudeDegrees>
              <LongitudeDegrees>37.016265392303466796875</LongitudeDegrees>
            </Position>
            <AltitudeMeters>703.20001220703125</AltitudeMeters>
            <DistanceMeters>NAN</DistanceMeters>
          </Trackpoint>
          <Trackpoint>
            <Time>2021-08-03T13:13:46.000Z</Time>
            <Position>
              <LatitudeDegrees>-15.4612017609179019927978515625</LatitudeDegrees>
              <LongitudeDegrees>37.01624326407909393310546875</LongitudeDegrees>
            </Position>
            <AltitudeMeters>703.4000244140625</AltitudeMeters>
            <DistanceMeters>NAN</DistanceMeters>
          </Trackpoint>
          <Trackpoint>
            <Time>2021-08-03T13:13:48.000Z</Time>
            <Position>
              <LatitudeDegrees>-15.4612000845372676849365234375</LatitudeDegrees>
              <LongitudeDegrees>37.01622138731181621551513671875</LongitudeDegrees>
            </Position>
            <AltitudeMeters>703.5999755859375</AltitudeMeters>
            <DistanceMeters>NAN</DistanceMeters>
          </Trackpoint>
          <Trackpoint>
            <Time>2021-08-03T13:13:50.000Z</Time>
            <Position>
              <LatitudeDegrees>-15.46119756996631622314453125</LatitudeDegrees>
              <LongitudeDegrees>37.016203701496124267578125</LongitudeDegrees>
            </Position>
            <AltitudeMeters>703.5999755859375</AltitudeMeters>
            <DistanceMeters>NAN</DistanceMeters>
          </Trackpoint>
          <Trackpoint>
            <Time>2021-08-03T13:13:56.000Z</Time>
            <Position>
              <LatitudeDegrees>-15.461194217205047607421875</LatitudeDegrees>
              <LongitudeDegrees>37.01613907702267169952392578125</LongitudeDegrees>
            </Position>
            <AltitudeMeters>703.4000244140625</AltitudeMeters>
            <DistanceMeters>NAN</DistanceMeters>
          </Trackpoint>
          <Trackpoint>
            <Time>2021-08-03T13:14:00.000Z</Time>
            <Position>
              <LatitudeDegrees>-15.46119681559503078460693359375</LatitudeDegrees>
              <LongitudeDegrees>37.01608744449913501739501953125</LongitudeDegrees>
            </Position>
            <AltitudeMeters>703.20001220703125</AltitudeMeters>
            <DistanceMeters>NAN</DistanceMeters>
          </Trackpoint>
          <Trackpoint>
            <Time>2021-08-03T13:14:08.000Z</Time>
            <Position>
              <LatitudeDegrees>-15.46120586805045604705810546875</LatitudeDegrees>
              <LongitudeDegrees>37.01598384417593479156494140625</LongitudeDegrees>
            </Position>
            <AltitudeMeters>703</AltitudeMeters>
            <DistanceMeters>NAN</DistanceMeters>
          </Trackpoint>
          <Trackpoint>
            <Time>2021-08-03T13:14:11.000Z</Time>
            <Position>
              <LatitudeDegrees>-15.46122045256197452545166015625</LatitudeDegrees>
              <LongitudeDegrees>37.01595065183937549591064453125</LongitudeDegrees>
            </Position>
            <AltitudeMeters>703</AltitudeMeters>
            <DistanceMeters>NAN</DistanceMeters>
          </Trackpoint>
          <Trackpoint>
            <Time>2021-08-03T13:14:13.000Z</Time>
            <Position>
              <LatitudeDegrees>-15.46122916974127292633056640625</LatitudeDegrees>
              <LongitudeDegrees>37.015931122004985809326171875</LongitudeDegrees>
            </Position>
            <AltitudeMeters>703.20001220703125</AltitudeMeters>
            <DistanceMeters>NAN</DistanceMeters>
          </Trackpoint>
          <Trackpoint>
            <Time>2021-08-03T13:14:21.000Z</Time>
            <Position>
              <LatitudeDegrees>-15.46129538677632808685302734375</LatitudeDegrees>
              <LongitudeDegrees>37.0158511586487293243408203125</LongitudeDegrees>
            </Position>
            <AltitudeMeters>703.20001220703125</AltitudeMeters>
            <DistanceMeters>NAN</DistanceMeters>
          </Trackpoint>
          <Trackpoint>
            <Time>2021-08-03T13:14:33.000Z</Time>
            <Position>
              <LatitudeDegrees>-15.4614280723035335540771484375</LatitudeDegrees>
              <LongitudeDegrees>37.0157866179943084716796875</LongitudeDegrees>
            </Position>
            <AltitudeMeters>703.79998779296875</AltitudeMeters>
            <DistanceMeters>NAN</DistanceMeters>
          </Trackpoint>
          <Trackpoint>
            <Time>2021-08-03T13:14:36.000Z</Time>
            <Position>
              <LatitudeDegrees>-15.46146252192556858062744140625</LatitudeDegrees>
              <LongitudeDegrees>37.01577111147344112396240234375</LongitudeDegrees>
            </Position>
            <AltitudeMeters>703.79998779296875</AltitudeMeters>
            <DistanceMeters>NAN</DistanceMeters>
          </Trackpoint>
          <Trackpoint>
            <Time>2021-08-03T13:14:40.000Z</Time>
            <Position>
              <LatitudeDegrees>-15.4615041799843311309814453125</LatitudeDegrees>
              <LongitudeDegrees>37.015764154493808746337890625</LongitudeDegrees>
            </Position>
            <AltitudeMeters>704</AltitudeMeters>
            <DistanceMeters>NAN</DistanceMeters>
          </Trackpoint>
          <Trackpoint>
            <Time>2021-08-03T13:14:45.000Z</Time>
            <Position>
              <LatitudeDegrees>-15.46156913973391056060791015625</LatitudeDegrees>
              <LongitudeDegrees>37.01573942787945270538330078125</LongitudeDegrees>
            </Position>
            <AltitudeMeters>704</AltitudeMeters>
            <DistanceMeters>NAN</DistanceMeters>
          </Trackpoint>
          <Trackpoint>
            <Time>2021-08-03T13:14:50.000Z</Time>
            <Position>
              <LatitudeDegrees>-15.46162211336195468902587890625</LatitudeDegrees>
              <LongitudeDegrees>37.015724591910839080810546875</LongitudeDegrees>
            </Position>
            <AltitudeMeters>704</AltitudeMeters>
            <DistanceMeters>NAN</DistanceMeters>
          </Trackpoint>
          <Trackpoint>
            <Time>2021-08-03T13:14:51.000Z</Time>
            <Position>
              <LatitudeDegrees>-15.46163233928382396697998046875</LatitudeDegrees>
              <LongitudeDegrees>37.01572249643504619598388671875</LongitudeDegrees>
            </Position>
            <AltitudeMeters>704</AltitudeMeters>
            <DistanceMeters>NAN</DistanceMeters>
          </Trackpoint>
          <Trackpoint>
            <Time>2021-08-03T13:14:56.000Z</Time>
            <Position>
              <LatitudeDegrees>-15.46168480999767780303955078125</LatitudeDegrees>
              <LongitudeDegrees>37.015703804790973663330078125</LongitudeDegrees>
            </Position>
            <AltitudeMeters>704.79998779296875</AltitudeMeters>
            <DistanceMeters>NAN</DistanceMeters>
          </Trackpoint>
          <Trackpoint>
            <Time>2021-08-03T13:15:00.000Z</Time>
            <Position>
              <LatitudeDegrees>-15.46172286383807659149169921875</LatitudeDegrees>
              <LongitudeDegrees>37.015689052641391754150390625</LongitudeDegrees>
            </Position>
            <AltitudeMeters>705</AltitudeMeters>
            <DistanceMeters>NAN</DistanceMeters>
          </Trackpoint>
          <Trackpoint>
            <Time>2021-08-03T13:15:03.000Z</Time>
            <Position>
              <LatitudeDegrees>-15.4617559723556041717529296875</LatitudeDegrees>
              <LongitudeDegrees>37.0156771503388881683349609375</LongitudeDegrees>
            </Position>
            <AltitudeMeters>705.20001220703125</AltitudeMeters>
            <DistanceMeters>NAN</DistanceMeters>
          </Trackpoint>
          <Trackpoint>
            <Time>2021-08-03T13:15:09.000Z</Time>
            <Position>
              <LatitudeDegrees>-15.46181875281035900115966796875</LatitudeDegrees>
              <LongitudeDegrees>37.01564756222069263458251953125</LongitudeDegrees>
            </Position>
            <AltitudeMeters>705.79998779296875</AltitudeMeters>
            <DistanceMeters>NAN</DistanceMeters>
          </Trackpoint>
          <Trackpoint>
            <Time>2021-08-03T13:15:12.000Z</Time>
            <Position>
              <LatitudeDegrees>-15.46185093931853771209716796875</LatitudeDegrees>
              <LongitudeDegrees>37.01563398353755474090576171875</LongitudeDegrees>
            </Position>
            <AltitudeMeters>705.79998779296875</AltitudeMeters>
            <DistanceMeters>NAN</DistanceMeters>
          </Trackpoint>
          <Trackpoint>
            <Time>2021-08-03T13:15:13.000Z</Time>
            <Position>
              <LatitudeDegrees>-15.46186116524040699005126953125</LatitudeDegrees>
              <LongitudeDegrees>37.0156261883676052093505859375</LongitudeDegrees>
            </Position>
            <AltitudeMeters>706</AltitudeMeters>
            <DistanceMeters>NAN</DistanceMeters>
          </Trackpoint>
          <Trackpoint>
            <Time>2021-08-03T13:15:20.000Z</Time>
            <Position>
              <LatitudeDegrees>-15.4619276337325572967529296875</LatitudeDegrees>
              <LongitudeDegrees>37.01558805070817470550537109375</LongitudeDegrees>
            </Position>
            <AltitudeMeters>706.20001220703125</AltitudeMeters>
            <DistanceMeters>NAN</DistanceMeters>
          </Trackpoint>
          <Trackpoint>
            <Time>2021-08-03T13:15:34.000Z</Time>
            <Position>
              <LatitudeDegrees>-15.462040789425373077392578125</LatitudeDegrees>
              <LongitudeDegrees>37.01546081341803073883056640625</LongitudeDegrees>
            </Position>
            <AltitudeMeters>706.5999755859375</AltitudeMeters>
            <DistanceMeters>NAN</DistanceMeters>
          </Trackpoint>
          <Trackpoint>
            <Time>2021-08-03T13:15:35.000Z</Time>
            <Position>
              <LatitudeDegrees>-15.4620485007762908935546875</LatitudeDegrees>
              <LongitudeDegrees>37.01545159332454204559326171875</LongitudeDegrees>
            </Position>
            <AltitudeMeters>707</AltitudeMeters>
            <DistanceMeters>NAN</DistanceMeters>
          </Trackpoint>
          <Trackpoint>
            <Time>2021-08-03T13:15:36.000Z</Time>
            <Position>
              <LatitudeDegrees>-15.46205227263271808624267578125</LatitudeDegrees>
              <LongitudeDegrees>37.0154411159455776214599609375</LongitudeDegrees>
            </Position>
            <AltitudeMeters>707</AltitudeMeters>
            <DistanceMeters>NAN</DistanceMeters>
          </Trackpoint>
          <Trackpoint>
            <Time>2021-08-03T13:15:42.000Z</Time>
            <Position>
              <LatitudeDegrees>-15.4620873928070068359375</LatitudeDegrees>
              <LongitudeDegrees>37.0153693668544292449951171875</LongitudeDegrees>
            </Position>
            <AltitudeMeters>707.20001220703125</AltitudeMeters>
            <DistanceMeters>NAN</DistanceMeters>
          </Trackpoint>
          <Trackpoint>
            <Time>2021-08-03T13:15:43.000Z</Time>
            <Position>
              <LatitudeDegrees>-15.46209208667278289794921875</LatitudeDegrees>
              <LongitudeDegrees>37.0153583027422428131103515625</LongitudeDegrees>
            </Position>
            <AltitudeMeters>707.20001220703125</AltitudeMeters>
            <DistanceMeters>NAN</DistanceMeters>
          </Trackpoint>
          <Trackpoint>
            <Time>2021-08-03T13:15:51.000Z</Time>
            <Position>
              <LatitudeDegrees>-15.46214765869081020355224609375</LatitudeDegrees>
              <LongitudeDegrees>37.015283368527889251708984375</LongitudeDegrees>
            </Position>
            <AltitudeMeters>707</AltitudeMeters>
            <DistanceMeters>NAN</DistanceMeters>
          </Trackpoint>
          <Trackpoint>
            <Time>2021-08-03T13:15:55.000Z</Time>
            <Position>
              <LatitudeDegrees>-15.46217431314289569854736328125</LatitudeDegrees>
              <LongitudeDegrees>37.01524120755493640899658203125</LongitudeDegrees>
            </Position>
            <AltitudeMeters>707</AltitudeMeters>
            <DistanceMeters>NAN</DistanceMeters>
          </Trackpoint>
          <Trackpoint>
            <Time>2021-08-03T13:15:58.000Z</Time>
            <Position>
              <LatitudeDegrees>-15.46219266951084136962890625</LatitudeDegrees>
              <LongitudeDegrees>37.0152091048657894134521484375</LongitudeDegrees>
            </Position>
            <AltitudeMeters>706.79998779296875</AltitudeMeters>
            <DistanceMeters>NAN</DistanceMeters>
          </Trackpoint>
          <Trackpoint>
            <Time>2021-08-03T13:16:00.000Z</Time>
            <Position>
              <LatitudeDegrees>-15.46220700256526470184326171875</LatitudeDegrees>
              <LongitudeDegrees>37.01519049704074859619140625</LongitudeDegrees>
            </Position>
            <AltitudeMeters>706.79998779296875</AltitudeMeters>
            <DistanceMeters>NAN</DistanceMeters>
          </Trackpoint>
          <Trackpoint>
            <Time>2021-08-03T13:16:08.000Z</Time>
            <Position>
              <LatitudeDegrees>-15.4622551985085010528564453125</LatitudeDegrees>
              <LongitudeDegrees>37.01511883176863193511962890625</LongitudeDegrees>
            </Position>
            <AltitudeMeters>707.20001220703125</AltitudeMeters>
            <DistanceMeters>NAN</DistanceMeters>
          </Trackpoint>
          <Trackpoint>
            <Time>2021-08-03T13:16:10.000Z</Time>
            <Position>
              <LatitudeDegrees>-15.4622689448297023773193359375</LatitudeDegrees>
              <LongitudeDegrees>37.0150927640497684478759765625</LongitudeDegrees>
            </Position>
            <AltitudeMeters>707.20001220703125</AltitudeMeters>
            <DistanceMeters>NAN</DistanceMeters>
          </Trackpoint>
          <Trackpoint>
            <Time>2021-08-03T13:16:21.000Z</Time>
            <Position>
              <LatitudeDegrees>-15.46234664507210254669189453125</LatitudeDegrees>
              <LongitudeDegrees>37.0149744115769863128662109375</LongitudeDegrees>
            </Position>
            <AltitudeMeters>706.79998779296875</AltitudeMeters>
            <DistanceMeters>NAN</DistanceMeters>
          </Trackpoint>
          <Trackpoint>
            <Time>2021-08-03T13:16:28.000Z</Time>
            <Position>
              <LatitudeDegrees>-15.46239291317760944366455078125</LatitudeDegrees>
              <LongitudeDegrees>37.01489805243909358978271484375</LongitudeDegrees>
            </Position>
            <AltitudeMeters>706.5999755859375</AltitudeMeters>
            <DistanceMeters>NAN</DistanceMeters>
          </Trackpoint>
          <Trackpoint>
            <Time>2021-08-03T13:16:34.000Z</Time>
            <Position>
              <LatitudeDegrees>-15.4624352417886257171630859375</LatitudeDegrees>
              <LongitudeDegrees>37.01484239660203456878662109375</LongitudeDegrees>
            </Position>
            <AltitudeMeters>706.79998779296875</AltitudeMeters>
            <DistanceMeters>NAN</DistanceMeters>
          </Trackpoint>
          <Trackpoint>
            <Time>2021-08-03T13:16:45.000Z</Time>
            <Position>
              <LatitudeDegrees>-15.46251310966908931732177734375</LatitudeDegrees>
              <LongitudeDegrees>37.01473628170788288116455078125</LongitudeDegrees>
            </Position>
            <AltitudeMeters>706.5999755859375</AltitudeMeters>
            <DistanceMeters>NAN</DistanceMeters>
          </Trackpoint>
          <Trackpoint>
            <Time>2021-08-03T13:16:53.000Z</Time>
            <Position>
              <LatitudeDegrees>-15.46257597394287586212158203125</LatitudeDegrees>
              <LongitudeDegrees>37.0146555639803409576416015625</LongitudeDegrees>
            </Position>
            <AltitudeMeters>706.79998779296875</AltitudeMeters>
            <DistanceMeters>NAN</DistanceMeters>
          </Trackpoint>
          <Trackpoint>
            <Time>2021-08-03T13:16:57.000Z</Time>
            <Position>
              <LatitudeDegrees>-15.46261067502200603485107421875</LatitudeDegrees>
              <LongitudeDegrees>37.01461256481707096099853515625</LongitudeDegrees>
            </Position>
            <AltitudeMeters>706.79998779296875</AltitudeMeters>
            <DistanceMeters>NAN</DistanceMeters>
          </Trackpoint>
          <Trackpoint>
            <Time>2021-08-03T13:17:05.000Z</Time>
            <Position>
              <LatitudeDegrees>-15.4626734554767608642578125</LatitudeDegrees>
              <LongitudeDegrees>37.01452799141407012939453125</LongitudeDegrees>
            </Position>
            <AltitudeMeters>706.79998779296875</AltitudeMeters>
            <DistanceMeters>NAN</DistanceMeters>
          </Trackpoint>
          <Trackpoint>
            <Time>2021-08-03T13:17:08.000Z</Time>
            <Position>
              <LatitudeDegrees>-15.46269432641565799713134765625</LatitudeDegrees>
              <LongitudeDegrees>37.0144969783723354339599609375</LongitudeDegrees>
            </Position>
            <AltitudeMeters>706.5999755859375</AltitudeMeters>
            <DistanceMeters>NAN</DistanceMeters>
          </Trackpoint>
          <Trackpoint>
            <Time>2021-08-03T13:17:20.000Z</Time>
            <Position>
              <LatitudeDegrees>-15.4627648182213306427001953125</LatitudeDegrees>
              <LongitudeDegrees>37.014372088015079498291015625</LongitudeDegrees>
            </Position>
            <AltitudeMeters>706.79998779296875</AltitudeMeters>
            <DistanceMeters>NAN</DistanceMeters>
          </Trackpoint>
          <Trackpoint>
            <Time>2021-08-03T13:17:30.000Z</Time>
            <Position>
              <LatitudeDegrees>-15.4628258384764194488525390625</LatitudeDegrees>
              <LongitudeDegrees>37.01426940970122814178466796875</LongitudeDegrees>
            </Position>
            <AltitudeMeters>707</AltitudeMeters>
            <DistanceMeters>NAN</DistanceMeters>
          </Trackpoint>
          <Trackpoint>
            <Time>2021-08-03T13:17:35.000Z</Time>
            <Position>
              <LatitudeDegrees>-15.46285844407975673675537109375</LatitudeDegrees>
              <LongitudeDegrees>37.014215178787708282470703125</LongitudeDegrees>
            </Position>
            <AltitudeMeters>706.79998779296875</AltitudeMeters>
            <DistanceMeters>NAN</DistanceMeters>
          </Trackpoint>
          <Trackpoint>
            <Time>2021-08-03T13:17:43.000Z</Time>
            <Position>
              <LatitudeDegrees>-15.46291711740195751190185546875</LatitudeDegrees>
              <LongitudeDegrees>37.0141362212598323822021484375</LongitudeDegrees>
            </Position>
            <AltitudeMeters>707</AltitudeMeters>
            <DistanceMeters>NAN</DistanceMeters>
          </Trackpoint>
          <Trackpoint>
            <Time>2021-08-03T13:17:45.000Z</Time>
            <Position>
              <LatitudeDegrees>-15.4629341326653957366943359375</LatitudeDegrees>
              <LongitudeDegrees>37.01411752961575984954833984375</LongitudeDegrees>
            </Position>
            <AltitudeMeters>707</AltitudeMeters>
            <DistanceMeters>NAN</DistanceMeters>
          </Trackpoint>
          <Trackpoint>
            <Time>2021-08-03T13:17:52.000Z</Time>
            <Position>
              <LatitudeDegrees>-15.4629800654947757720947265625</LatitudeDegrees>
              <LongitudeDegrees>37.01404762454330921173095703125</LongitudeDegrees>
            </Position>
            <AltitudeMeters>707</AltitudeMeters>
            <DistanceMeters>NAN</DistanceMeters>
          </Trackpoint>
          <Trackpoint>
            <Time>2021-08-03T13:17:58.000Z</Time>
            <Position>
              <LatitudeDegrees>-15.46302038244903087615966796875</LatitudeDegrees>
              <LongitudeDegrees>37.01398258097469806671142578125</LongitudeDegrees>
            </Position>
            <AltitudeMeters>707.4000244140625</AltitudeMeters>
            <DistanceMeters>NAN</DistanceMeters>
          </Trackpoint>
          <Trackpoint>
            <Time>2021-08-03T13:18:06.000Z</Time>
            <Position>
              <LatitudeDegrees>-15.4630746133625507354736328125</LatitudeDegrees>
              <LongitudeDegrees>37.01390798203647136688232421875</LongitudeDegrees>
            </Position>
            <AltitudeMeters>707.4000244140625</AltitudeMeters>
            <DistanceMeters>NAN</DistanceMeters>
          </Trackpoint>
          <Trackpoint>
            <Time>2021-08-03T13:18:10.000Z</Time>
            <Position>
              <LatitudeDegrees>-15.46310772188007831573486328125</LatitudeDegrees>
              <LongitudeDegrees>37.0138653181493282318115234375</LongitudeDegrees>
            </Position>
            <AltitudeMeters>707.5999755859375</AltitudeMeters>
            <DistanceMeters>NAN</DistanceMeters>
          </Trackpoint>
          <Trackpoint>
            <Time>2021-08-03T13:18:18.000Z</Time>
            <Position>
              <LatitudeDegrees>-15.4631637968122959136962890625</LatitudeDegrees>
              <LongitudeDegrees>37.013792060315608978271484375</LongitudeDegrees>
            </Position>
            <AltitudeMeters>707.5999755859375</AltitudeMeters>
            <DistanceMeters>NAN</DistanceMeters>
          </Trackpoint>
          <Trackpoint>
            <Time>2021-08-03T13:18:24.000Z</Time>
            <Position>
              <LatitudeDegrees>-15.4631990008056163787841796875</LatitudeDegrees>
              <LongitudeDegrees>37.013741433620452880859375</LongitudeDegrees>
            </Position>
            <AltitudeMeters>708</AltitudeMeters>
            <DistanceMeters>NAN</DistanceMeters>
          </Trackpoint>
          <Trackpoint>
            <Time>2021-08-03T13:18:26.000Z</Time>
            <Position>
              <LatitudeDegrees>-15.46321325004100799560546875</LatitudeDegrees>
              <LongitudeDegrees>37.01372140087187290191650390625</LongitudeDegrees>
            </Position>
            <AltitudeMeters>708.20001220703125</AltitudeMeters>
            <DistanceMeters>NAN</DistanceMeters>
          </Trackpoint>
          <Trackpoint>
            <Time>2021-08-03T13:18:29.000Z</Time>
            <Position>
              <LatitudeDegrees>-15.46323311515152454376220703125</LatitudeDegrees>
              <LongitudeDegrees>37.0136929862201213836669921875</LongitudeDegrees>
            </Position>
            <AltitudeMeters>708.20001220703125</AltitudeMeters>
            <DistanceMeters>NAN</DistanceMeters>
          </Trackpoint>
          <Trackpoint>
            <Time>2021-08-03T13:18:33.000Z</Time>
            <Position>
              <LatitudeDegrees>-15.463254489004611968994140625</LatitudeDegrees>
              <LongitudeDegrees>37.01364780776202678680419921875</LongitudeDegrees>
            </Position>
            <AltitudeMeters>708.20001220703125</AltitudeMeters>
            <DistanceMeters>NAN</DistanceMeters>
          </Trackpoint>
          <Trackpoint>
            <Time>2021-08-03T13:18:43.000Z</Time>
            <Position>
              <LatitudeDegrees>-15.463313162326812744140625</LatitudeDegrees>
              <LongitudeDegrees>37.01355778612196445465087890625</LongitudeDegrees>
            </Position>
            <AltitudeMeters>708.4000244140625</AltitudeMeters>
            <DistanceMeters>NAN</DistanceMeters>
          </Trackpoint>
          <Trackpoint>
            <Time>2021-08-03T13:18:55.000Z</Time>
            <Position>
              <LatitudeDegrees>-15.463389940559864044189453125</LatitudeDegrees>
              <LongitudeDegrees>37.013431973755359649658203125</LongitudeDegrees>
            </Position>
            <AltitudeMeters>708.79998779296875</AltitudeMeters>
            <DistanceMeters>NAN</DistanceMeters>
          </Trackpoint>
          <Trackpoint>
            <Time>2021-08-03T13:18:56.000Z</Time>
            <Position>
              <LatitudeDegrees>-15.463395975530147552490234375</LatitudeDegrees>
              <LongitudeDegrees>37.0134209096431732177734375</LongitudeDegrees>
            </Position>
            <AltitudeMeters>708.4000244140625</AltitudeMeters>
            <DistanceMeters>NAN</DistanceMeters>
          </Trackpoint>
          <Trackpoint>
            <Time>2021-08-03T13:19:03.000Z</Time>
            <Position>
              <LatitudeDegrees>-15.46344718895852565765380859375</LatitudeDegrees>
              <LongitudeDegrees>37.0133543573319911956787109375</LongitudeDegrees>
            </Position>
            <AltitudeMeters>708.4000244140625</AltitudeMeters>
            <DistanceMeters>NAN</DistanceMeters>
          </Trackpoint>
          <Trackpoint>
            <Time>2021-08-03T13:19:06.000Z</Time>
            <Position>
              <LatitudeDegrees>-15.46346663497388362884521484375</LatitudeDegrees>
              <LongitudeDegrees>37.013322673738002777099609375</LongitudeDegrees>
            </Position>
            <AltitudeMeters>708.4000244140625</AltitudeMeters>
            <DistanceMeters>NAN</DistanceMeters>
          </Trackpoint>
          <Trackpoint>
            <Time>2021-08-03T13:19:09.000Z</Time>
            <Position>
              <LatitudeDegrees>-15.46348323114216327667236328125</LatitudeDegrees>
              <LongitudeDegrees>37.0132916606962680816650390625</LongitudeDegrees>
            </Position>
            <AltitudeMeters>708.4000244140625</AltitudeMeters>
            <DistanceMeters>NAN</DistanceMeters>
          </Trackpoint>
          <Trackpoint>
            <Time>2021-08-03T13:19:15.000Z</Time>
            <Position>
              <LatitudeDegrees>-15.46350896358489990234375</LatitudeDegrees>
              <LongitudeDegrees>37.013228125870227813720703125</LongitudeDegrees>
            </Position>
            <AltitudeMeters>708</AltitudeMeters>
            <DistanceMeters>NAN</DistanceMeters>
          </Trackpoint>
          <Trackpoint>
            <Time>2021-08-03T13:19:25.000Z</Time>
            <Position>
              <LatitudeDegrees>-15.46355045400559902191162109375</LatitudeDegrees>
              <LongitudeDegrees>37.01310901902616024017333984375</LongitudeDegrees>
            </Position>
            <AltitudeMeters>707.79998779296875</AltitudeMeters>
            <DistanceMeters>NAN</DistanceMeters>
          </Trackpoint>
          <Trackpoint>
            <Time>2021-08-03T13:19:29.000Z</Time>
            <Position>
              <LatitudeDegrees>-15.46356059610843658447265625</LatitudeDegrees>
              <LongitudeDegrees>37.013070546090602874755859375</LongitudeDegrees>
            </Position>
            <AltitudeMeters>707.20001220703125</AltitudeMeters>
            <DistanceMeters>NAN</DistanceMeters>
          </Trackpoint>
          <Trackpoint>
            <Time>2021-08-03T13:19:32.000Z</Time>
            <Position>
              <LatitudeDegrees>-15.46355900354683399200439453125</LatitudeDegrees>
              <LongitudeDegrees>37.01303877867758274078369140625</LongitudeDegrees>
            </Position>
            <AltitudeMeters>706.79998779296875</AltitudeMeters>
            <DistanceMeters>NAN</DistanceMeters>
          </Trackpoint>
          <Trackpoint>
            <Time>2021-08-03T13:19:37.000Z</Time>
            <Position>
              <LatitudeDegrees>-15.4635639488697052001953125</LatitudeDegrees>
              <LongitudeDegrees>37.0129701308906078338623046875</LongitudeDegrees>
            </Position>
            <AltitudeMeters>706</AltitudeMeters>
            <DistanceMeters>NAN</DistanceMeters>
          </Trackpoint>
          <Trackpoint>
            <Time>2021-08-03T13:19:42.000Z</Time>
            <Position>
              <LatitudeDegrees>-15.46357073821127414703369140625</LatitudeDegrees>
              <LongitudeDegrees>37.012901566922664642333984375</LongitudeDegrees>
            </Position>
            <AltitudeMeters>705.79998779296875</AltitudeMeters>
            <DistanceMeters>NAN</DistanceMeters>
          </Trackpoint>
          <Trackpoint>
            <Time>2021-08-03T13:19:46.000Z</Time>
            <Position>
              <LatitudeDegrees>-15.46357576735317707061767578125</LatitudeDegrees>
              <LongitudeDegrees>37.012850940227508544921875</LongitudeDegrees>
            </Position>
            <AltitudeMeters>705.20001220703125</AltitudeMeters>
            <DistanceMeters>NAN</DistanceMeters>
          </Trackpoint>
          <Trackpoint>
            <Time>2021-08-03T13:19:52.000Z</Time>
            <Position>
              <LatitudeDegrees>-15.46357191167771816253662109375</LatitudeDegrees>
              <LongitudeDegrees>37.012771479785442352294921875</LongitudeDegrees>
            </Position>
            <AltitudeMeters>705</AltitudeMeters>
            <DistanceMeters>NAN</DistanceMeters>
          </Trackpoint>
          <Trackpoint>
            <Time>2021-08-03T13:19:53.000Z</Time>
            <Position>
              <LatitudeDegrees>-15.46356788836419582366943359375</LatitudeDegrees>
              <LongitudeDegrees>37.012756727635860443115234375</LongitudeDegrees>
            </Position>
            <AltitudeMeters>704.79998779296875</AltitudeMeters>
            <DistanceMeters>NAN</DistanceMeters>
          </Trackpoint>
          <Trackpoint>
            <Time>2021-08-03T13:20:01.000Z</Time>
            <Position>
              <LatitudeDegrees>-15.46355120837688446044921875</LatitudeDegrees>
              <LongitudeDegrees>37.0126479305326938629150390625</LongitudeDegrees>
            </Position>
            <AltitudeMeters>704</AltitudeMeters>
            <DistanceMeters>NAN</DistanceMeters>
          </Trackpoint>
          <Trackpoint>
            <Time>2021-08-03T13:20:03.000Z</Time>
            <Position>
              <LatitudeDegrees>-15.4635480232536792755126953125</LatitudeDegrees>
              <LongitudeDegrees>37.01262555085122585296630859375</LongitudeDegrees>
            </Position>
            <AltitudeMeters>703.5999755859375</AltitudeMeters>
            <DistanceMeters>NAN</DistanceMeters>
          </Trackpoint>
          <Trackpoint>
            <Time>2021-08-03T13:20:08.000Z</Time>
            <Position>
              <LatitudeDegrees>-15.463549196720123291015625</LatitudeDegrees>
              <LongitudeDegrees>37.0125708170235157012939453125</LongitudeDegrees>
            </Position>
            <AltitudeMeters>703.20001220703125</AltitudeMeters>
            <DistanceMeters>NAN</DistanceMeters>
          </Trackpoint>
          <Trackpoint>
            <Time>2021-08-03T13:20:09.000Z</Time>
            <Position>
              <LatitudeDegrees>-15.463547520339488983154296875</LatitudeDegrees>
              <LongitudeDegrees>37.01256033964455127716064453125</LongitudeDegrees>
            </Position>
            <AltitudeMeters>703</AltitudeMeters>
            <DistanceMeters>NAN</DistanceMeters>
          </Trackpoint>
          <Trackpoint>
            <Time>2021-08-03T13:20:14.000Z</Time>
            <Position>
              <LatitudeDegrees>-15.463541485369205474853515625</LatitudeDegrees>
              <LongitudeDegrees>37.01249579899013042449951171875</LongitudeDegrees>
            </Position>
            <AltitudeMeters>702.4000244140625</AltitudeMeters>
            <DistanceMeters>NAN</DistanceMeters>
          </Trackpoint>
          <Trackpoint>
            <Time>2021-08-03T13:20:16.000Z</Time>
            <Position>
              <LatitudeDegrees>-15.463533438742160797119140625</LatitudeDegrees>
              <LongitudeDegrees>37.0124658755958080291748046875</LongitudeDegrees>
            </Position>
            <AltitudeMeters>702.20001220703125</AltitudeMeters>
            <DistanceMeters>NAN</DistanceMeters>
          </Trackpoint>
          <Trackpoint>
            <Time>2021-08-03T13:20:19.000Z</Time>
            <Position>
              <LatitudeDegrees>-15.46352614648640155792236328125</LatitudeDegrees>
              <LongitudeDegrees>37.01243050396442413330078125</LongitudeDegrees>
            </Position>
            <AltitudeMeters>702</AltitudeMeters>
            <DistanceMeters>NAN</DistanceMeters>
          </Trackpoint>
          <Trackpoint>
            <Time>2021-08-03T13:20:22.000Z</Time>
            <Position>
              <LatitudeDegrees>-15.4635309241712093353271484375</LatitudeDegrees>
              <LongitudeDegrees>37.01239429414272308349609375</LongitudeDegrees>
            </Position>
            <AltitudeMeters>701.4000244140625</AltitudeMeters>
            <DistanceMeters>NAN</DistanceMeters>
          </Trackpoint>
          <Trackpoint>
            <Time>2021-08-03T13:20:26.000Z</Time>
            <Position>
              <LatitudeDegrees>-15.463530756533145904541015625</LatitudeDegrees>
              <LongitudeDegrees>37.012345679104328155517578125</LongitudeDegrees>
            </Position>
            <AltitudeMeters>701.20001220703125</AltitudeMeters>
            <DistanceMeters>NAN</DistanceMeters>
          </Trackpoint>
          <Trackpoint>
            <Time>2021-08-03T13:20:28.000Z</Time>
            <Position>
              <LatitudeDegrees>-15.4635279066860675811767578125</LatitudeDegrees>
              <LongitudeDegrees>37.01232162304222583770751953125</LongitudeDegrees>
            </Position>
            <AltitudeMeters>701.20001220703125</AltitudeMeters>
            <DistanceMeters>NAN</DistanceMeters>
          </Trackpoint>
          <Trackpoint>
            <Time>2021-08-03T13:20:31.000Z</Time>
            <Position>
              <LatitudeDegrees>-15.46352262608706951141357421875</LatitudeDegrees>
              <LongitudeDegrees>37.01227895915508270263671875</LongitudeDegrees>
            </Position>
            <AltitudeMeters>701.20001220703125</AltitudeMeters>
            <DistanceMeters>NAN</DistanceMeters>
          </Trackpoint>
          <Trackpoint>
            <Time>2021-08-03T13:20:33.000Z</Time>
            <Position>
              <LatitudeDegrees>-15.46352304518222808837890625</LatitudeDegrees>
              <LongitudeDegrees>37.0122603513300418853759765625</LongitudeDegrees>
            </Position>
            <AltitudeMeters>701</AltitudeMeters>
            <DistanceMeters>NAN</DistanceMeters>
          </Trackpoint>
          <Trackpoint>
            <Time>2021-08-03T13:20:35.000Z</Time>
            <Position>
              <LatitudeDegrees>-15.46352044679224491119384765625</LatitudeDegrees>
              <LongitudeDegrees>37.012228332459926605224609375</LongitudeDegrees>
            </Position>
            <AltitudeMeters>700.4000244140625</AltitudeMeters>
            <DistanceMeters>NAN</DistanceMeters>
          </Trackpoint>
          <Trackpoint>
            <Time>2021-08-03T13:20:37.000Z</Time>
            <Position>
              <LatitudeDegrees>-15.4635188542306423187255859375</LatitudeDegrees>
              <LongitudeDegrees>37.012202851474285125732421875</LongitudeDegrees>
            </Position>
            <AltitudeMeters>700.20001220703125</AltitudeMeters>
            <DistanceMeters>NAN</DistanceMeters>
          </Trackpoint>
          <Trackpoint>
            <Time>2021-08-03T13:20:43.000Z</Time>
            <Position>
              <LatitudeDegrees>-15.4635171778500080108642578125</LatitudeDegrees>
              <LongitudeDegrees>37.01213319785892963409423828125</LongitudeDegrees>
            </Position>
            <AltitudeMeters>699.79998779296875</AltitudeMeters>
            <DistanceMeters>NAN</DistanceMeters>
          </Trackpoint>
          <Trackpoint>
            <Time>2021-08-03T13:20:51.000Z</Time>
            <Position>
              <LatitudeDegrees>-15.46352162025868892669677734375</LatitudeDegrees>
              <LongitudeDegrees>37.0120286755263805389404296875</LongitudeDegrees>
            </Position>
            <AltitudeMeters>699.4000244140625</AltitudeMeters>
            <DistanceMeters>NAN</DistanceMeters>
          </Trackpoint>
          <Trackpoint>
            <Time>2021-08-03T13:20:58.000Z</Time>
            <Position>
              <LatitudeDegrees>-15.46351231634616851806640625</LatitudeDegrees>
              <LongitudeDegrees>37.01193890534341335296630859375</LongitudeDegrees>
            </Position>
            <AltitudeMeters>699</AltitudeMeters>
            <DistanceMeters>NAN</DistanceMeters>
          </Trackpoint>
          <Trackpoint>
            <Time>2021-08-03T13:20:59.000Z</Time>
            <Position>
              <LatitudeDegrees>-15.4635128192603588104248046875</LatitudeDegrees>
              <LongitudeDegrees>37.01192448846995830535888671875</LongitudeDegrees>
            </Position>
            <AltitudeMeters>698.79998779296875</AltitudeMeters>
            <DistanceMeters>NAN</DistanceMeters>
          </Trackpoint>
          <Trackpoint>
            <Time>2021-08-03T13:21:07.000Z</Time>
            <Position>
              <LatitudeDegrees>-15.4635108076035976409912109375</LatitudeDegrees>
              <LongitudeDegrees>37.01181015931069850921630859375</LongitudeDegrees>
            </Position>
            <AltitudeMeters>698.4000244140625</AltitudeMeters>
            <DistanceMeters>NAN</DistanceMeters>
          </Trackpoint>
          <Trackpoint>
            <Time>2021-08-03T13:21:10.000Z</Time>
            <Position>
              <LatitudeDegrees>-15.463510639965534210205078125</LatitudeDegrees>
              <LongitudeDegrees>37.0117768831551074981689453125</LongitudeDegrees>
            </Position>
            <AltitudeMeters>698</AltitudeMeters>
            <DistanceMeters>NAN</DistanceMeters>
          </Trackpoint>
          <Trackpoint>
            <Time>2021-08-03T13:21:20.000Z</Time>
            <Position>
              <LatitudeDegrees>-15.4635500349104404449462890625</LatitudeDegrees>
              <LongitudeDegrees>37.01165174134075641632080078125</LongitudeDegrees>
            </Position>
            <AltitudeMeters>698</AltitudeMeters>
            <DistanceMeters>NAN</DistanceMeters>
          </Trackpoint>
          <Trackpoint>
            <Time>2021-08-03T13:21:22.000Z</Time>
            <Position>
              <LatitudeDegrees>-15.4635600931942462921142578125</LatitudeDegrees>
              <LongitudeDegrees>37.0116291940212249755859375</LongitudeDegrees>
            </Position>
            <AltitudeMeters>697.79998779296875</AltitudeMeters>
            <DistanceMeters>NAN</DistanceMeters>
          </Trackpoint>
          <Trackpoint>
            <Time>2021-08-03T13:21:26.000Z</Time>
            <Position>
              <LatitudeDegrees>-15.46358129940927028656005859375</LatitudeDegrees>
              <LongitudeDegrees>37.01158200390636920928955078125</LongitudeDegrees>
            </Position>
            <AltitudeMeters>697.5999755859375</AltitudeMeters>
            <DistanceMeters>NAN</DistanceMeters>
          </Trackpoint>
          <Trackpoint>
            <Time>2021-08-03T13:21:31.000Z</Time>
            <Position>
              <LatitudeDegrees>-15.463613905012607574462890625</LatitudeDegrees>
              <LongitudeDegrees>37.01152215711772441864013671875</LongitudeDegrees>
            </Position>
            <AltitudeMeters>697.5999755859375</AltitudeMeters>
            <DistanceMeters>NAN</DistanceMeters>
          </Trackpoint>
          <Trackpoint>
            <Time>2021-08-03T13:21:39.000Z</Time>
            <Position>
              <LatitudeDegrees>-15.46365707181394100189208984375</LatitudeDegrees>
              <LongitudeDegrees>37.01144923456013202667236328125</LongitudeDegrees>
            </Position>
            <AltitudeMeters>697.5999755859375</AltitudeMeters>
            <DistanceMeters>NAN</DistanceMeters>
          </Trackpoint>
          <Trackpoint>
            <Time>2021-08-03T13:21:45.000Z</Time>
            <Position>
              <LatitudeDegrees>-15.463697724044322967529296875</LatitudeDegrees>
              <LongitudeDegrees>37.01138033531606197357177734375</LongitudeDegrees>
            </Position>
            <AltitudeMeters>697.5999755859375</AltitudeMeters>
            <DistanceMeters>NAN</DistanceMeters>
          </Trackpoint>
          <Trackpoint>
            <Time>2021-08-03T13:21:51.000Z</Time>
            <Position>
              <LatitudeDegrees>-15.4637431539595127105712890625</LatitudeDegrees>
              <LongitudeDegrees>37.0113207399845123291015625</LongitudeDegrees>
            </Position>
            <AltitudeMeters>697</AltitudeMeters>
            <DistanceMeters>NAN</DistanceMeters>
          </Trackpoint>
          <Trackpoint>
            <Time>2021-08-03T13:21:52.000Z</Time>
            <Position>
              <LatitudeDegrees>-15.4637491889297962188720703125</LatitudeDegrees>
              <LongitudeDegrees>37.01130925677716732025146484375</LongitudeDegrees>
            </Position>
            <AltitudeMeters>697</AltitudeMeters>
            <DistanceMeters>NAN</DistanceMeters>
          </Trackpoint>
          <Trackpoint>
            <Time>2021-08-03T13:21:55.000Z</Time>
            <Position>
              <LatitudeDegrees>-15.4637602530419826507568359375</LatitudeDegrees>
              <LongitudeDegrees>37.0112778246402740478515625</LongitudeDegrees>
            </Position>
            <AltitudeMeters>696.5999755859375</AltitudeMeters>
            <DistanceMeters>NAN</DistanceMeters>
          </Trackpoint>
          <Trackpoint>
            <Time>2021-08-03T13:21:59.000Z</Time>
            <Position>
              <LatitudeDegrees>-15.46378129161894321441650390625</LatitudeDegrees>
              <LongitudeDegrees>37.0112360827624797821044921875</LongitudeDegrees>
            </Position>
            <AltitudeMeters>696.5999755859375</AltitudeMeters>
            <DistanceMeters>NAN</DistanceMeters>
          </Trackpoint>
          <Trackpoint>
            <Time>2021-08-03T13:22:03.000Z</Time>
            <Position>
              <LatitudeDegrees>-15.46379889361560344696044921875</LatitudeDegrees>
              <LongitudeDegrees>37.01119677163660526275634765625</LongitudeDegrees>
            </Position>
            <AltitudeMeters>696.5999755859375</AltitudeMeters>
            <DistanceMeters>NAN</DistanceMeters>
          </Trackpoint>
          <Trackpoint>
            <Time>2021-08-03T13:22:07.000Z</Time>
            <Position>
              <LatitudeDegrees>-15.46382169239223003387451171875</LatitudeDegrees>
              <LongitudeDegrees>37.01114949770271778106689453125</LongitudeDegrees>
            </Position>
            <AltitudeMeters>696.79998779296875</AltitudeMeters>
            <DistanceMeters>NAN</DistanceMeters>
          </Trackpoint>
          <Trackpoint>
            <Time>2021-08-03T13:22:12.000Z</Time>
            <Position>
              <LatitudeDegrees>-15.4638509452342987060546875</LatitudeDegrees>
              <LongitudeDegrees>37.01109652407467365264892578125</LongitudeDegrees>
            </Position>
            <AltitudeMeters>696.79998779296875</AltitudeMeters>
            <DistanceMeters>NAN</DistanceMeters>
          </Trackpoint>
          <Trackpoint>
            <Time>2021-08-03T13:22:13.000Z</Time>
            <Position>
              <LatitudeDegrees>-15.46385639347136020660400390625</LatitudeDegrees>
              <LongitudeDegrees>37.011085040867328643798828125</LongitudeDegrees>
            </Position>
            <AltitudeMeters>697.20001220703125</AltitudeMeters>
            <DistanceMeters>NAN</DistanceMeters>
          </Trackpoint>
          <Trackpoint>
            <Time>2021-08-03T13:22:16.000Z</Time>
            <Position>
              <LatitudeDegrees>-15.46387617476284503936767578125</LatitudeDegrees>
              <LongitudeDegrees>37.01105914078652858734130859375</LongitudeDegrees>
            </Position>
            <AltitudeMeters>697.20001220703125</AltitudeMeters>
            <DistanceMeters>NAN</DistanceMeters>
          </Trackpoint>
          <Trackpoint>
            <Time>2021-08-03T13:22:28.000Z</Time>
            <Position>
              <LatitudeDegrees>-15.4639456607401371002197265625</LatitudeDegrees>
              <LongitudeDegrees>37.01093559153378009796142578125</LongitudeDegrees>
            </Position>
            <AltitudeMeters>697.20001220703125</AltitudeMeters>
            <DistanceMeters>NAN</DistanceMeters>
          </Trackpoint>
          <Trackpoint>
            <Time>2021-08-03T13:22:36.000Z</Time>
            <Position>
              <LatitudeDegrees>-15.4639922641217708587646484375</LatitudeDegrees>
              <LongitudeDegrees>37.0108515210449695587158203125</LongitudeDegrees>
            </Position>
            <AltitudeMeters>697.4000244140625</AltitudeMeters>
            <DistanceMeters>NAN</DistanceMeters>
          </Trackpoint>
          <Trackpoint>
            <Time>2021-08-03T13:22:39.000Z</Time>
            <Position>
              <LatitudeDegrees>-15.464012883603572845458984375</LatitudeDegrees>
              <LongitudeDegrees>37.01081824488937854766845703125</LongitudeDegrees>
            </Position>
            <AltitudeMeters>697.20001220703125</AltitudeMeters>
            <DistanceMeters>NAN</DistanceMeters>
          </Trackpoint>
          <Trackpoint>
            <Time>2021-08-03T13:22:41.000Z</Time>
            <Position>
              <LatitudeDegrees>-15.4640306532382965087890625</LatitudeDegrees>
              <LongitudeDegrees>37.01079980470240116119384765625</LongitudeDegrees>
            </Position>
            <AltitudeMeters>697.4000244140625</AltitudeMeters>
            <DistanceMeters>NAN</DistanceMeters>
          </Trackpoint>
          <Trackpoint>
            <Time>2021-08-03T13:22:52.000Z</Time>
            <Position>
              <LatitudeDegrees>-15.4641143046319484710693359375</LatitudeDegrees>
              <LongitudeDegrees>37.0107038319110870361328125</LongitudeDegrees>
            </Position>
            <AltitudeMeters>697.5999755859375</AltitudeMeters>
            <DistanceMeters>NAN</DistanceMeters>
          </Trackpoint>
          <Trackpoint>
            <Time>2021-08-03T13:22:59.000Z</Time>
            <Position>
              <LatitudeDegrees>-15.46415009535849094390869140625</LatitudeDegrees>
              <LongitudeDegrees>37.01063920743763446807861328125</LongitudeDegrees>
            </Position>
            <AltitudeMeters>697.4000244140625</AltitudeMeters>
            <DistanceMeters>NAN</DistanceMeters>
          </Trackpoint>
          <Trackpoint>
            <Time>2021-08-03T13:23:01.000Z</Time>
            <Position>
              <LatitudeDegrees>-15.46416233293712139129638671875</LatitudeDegrees>
              <LongitudeDegrees>37.0106153190135955810546875</LongitudeDegrees>
            </Position>
            <AltitudeMeters>697.5999755859375</AltitudeMeters>
            <DistanceMeters>NAN</DistanceMeters>
          </Trackpoint>
          <Trackpoint>
            <Time>2021-08-03T13:23:04.000Z</Time>
            <Position>
              <LatitudeDegrees>-15.46417725272476673126220703125</LatitudeDegrees>
              <LongitudeDegrees>37.01058824546635150909423828125</LongitudeDegrees>
            </Position>
            <AltitudeMeters>698.20001220703125</AltitudeMeters>
            <DistanceMeters>NAN</DistanceMeters>
          </Trackpoint>
          <Trackpoint>
            <Time>2021-08-03T13:23:08.000Z</Time>
            <Position>
              <LatitudeDegrees>-15.4642078466713428497314453125</LatitudeDegrees>
              <LongitudeDegrees>37.01053845696151256561279296875</LongitudeDegrees>
            </Position>
            <AltitudeMeters>698.20001220703125</AltitudeMeters>
            <DistanceMeters>NAN</DistanceMeters>
          </Trackpoint>
          <Trackpoint>
            <Time>2021-08-03T13:23:12.000Z</Time>
            <Position>
              <LatitudeDegrees>-15.4642331600189208984375</LatitudeDegrees>
              <LongitudeDegrees>37.01049151830375194549560546875</LongitudeDegrees>
            </Position>
            <AltitudeMeters>698</AltitudeMeters>
            <DistanceMeters>NAN</DistanceMeters>
          </Trackpoint>
          <Trackpoint>
            <Time>2021-08-03T13:23:14.000Z</Time>
            <Position>
              <LatitudeDegrees>-15.46424447558820247650146484375</LatitudeDegrees>
              <LongitudeDegrees>37.0104703120887279510498046875</LongitudeDegrees>
            </Position>
            <AltitudeMeters>698</AltitudeMeters>
            <DistanceMeters>NAN</DistanceMeters>
          </Trackpoint>
          <Trackpoint>
            <Time>2021-08-03T13:23:19.000Z</Time>
            <Position>
              <LatitudeDegrees>-15.4642745666205883026123046875</LatitudeDegrees>
              <LongitudeDegrees>37.01042865402996540069580078125</LongitudeDegrees>
            </Position>
            <AltitudeMeters>698.20001220703125</AltitudeMeters>
            <DistanceMeters>NAN</DistanceMeters>
          </Trackpoint>
          <Trackpoint>
            <Time>2021-08-03T13:23:30.000Z</Time>
            <Position>
              <LatitudeDegrees>-15.464348495006561279296875</LatitudeDegrees>
              <LongitudeDegrees>37.010314576327800750732421875</LongitudeDegrees>
            </Position>
            <AltitudeMeters>698.79998779296875</AltitudeMeters>
            <DistanceMeters>NAN</DistanceMeters>
          </Trackpoint>
          <Trackpoint>
            <Time>2021-08-03T13:23:31.000Z</Time>
            <Position>
              <LatitudeDegrees>-15.46435411088168621063232421875</LatitudeDegrees>
              <LongitudeDegrees>37.01030552387237548828125</LongitudeDegrees>
            </Position>
            <AltitudeMeters>699</AltitudeMeters>
            <DistanceMeters>NAN</DistanceMeters>
          </Trackpoint>
          <Trackpoint>
            <Time>2021-08-03T13:23:35.000Z</Time>
            <Position>
              <LatitudeDegrees>-15.4643925838172435760498046875</LatitudeDegrees>
              <LongitudeDegrees>37.0102684758603572845458984375</LongitudeDegrees>
            </Position>
            <AltitudeMeters>699.20001220703125</AltitudeMeters>
            <DistanceMeters>NAN</DistanceMeters>
          </Trackpoint>
          <Trackpoint>
            <Time>2021-08-03T13:23:41.000Z</Time>
            <Position>
              <LatitudeDegrees>-15.4644415341317653656005859375</LatitudeDegrees>
              <LongitudeDegrees>37.0102165080606937408447265625</LongitudeDegrees>
            </Position>
            <AltitudeMeters>699</AltitudeMeters>
            <DistanceMeters>NAN</DistanceMeters>
          </Trackpoint>
          <Trackpoint>
            <Time>2021-08-03T13:23:48.000Z</Time>
            <Position>
              <LatitudeDegrees>-15.46450783498585224151611328125</LatitudeDegrees>
              <LongitudeDegrees>37.0101593434810638427734375</LongitudeDegrees>
            </Position>
            <AltitudeMeters>699.4000244140625</AltitudeMeters>
            <DistanceMeters>NAN</DistanceMeters>
          </Trackpoint>
          <Trackpoint>
            <Time>2021-08-03T13:23:57.000Z</Time>
            <Position>
              <LatitudeDegrees>-15.4645960964262485504150390625</LatitudeDegrees>
              <LongitudeDegrees>37.01009756885468959808349609375</LongitudeDegrees>
            </Position>
            <AltitudeMeters>699.79998779296875</AltitudeMeters>
            <DistanceMeters>NAN</DistanceMeters>
          </Trackpoint>
          <Trackpoint>
            <Time>2021-08-03T13:24:06.000Z</Time>
            <Position>
              <LatitudeDegrees>-15.46470631845295429229736328125</LatitudeDegrees>
              <LongitudeDegrees>37.01005029492080211639404296875</LongitudeDegrees>
            </Position>
            <AltitudeMeters>699</AltitudeMeters>
            <DistanceMeters>NAN</DistanceMeters>
          </Trackpoint>
          <Trackpoint>
            <Time>2021-08-03T13:24:08.000Z</Time>
            <Position>
              <LatitudeDegrees>-15.46472869813442230224609375</LatitudeDegrees>
              <LongitudeDegrees>37.01004174537956714630126953125</LongitudeDegrees>
            </Position>
            <AltitudeMeters>699</AltitudeMeters>
            <DistanceMeters>NAN</DistanceMeters>
          </Trackpoint>
          <Trackpoint>
            <Time>2021-08-03T13:24:16.000Z</Time>
            <Position>
              <LatitudeDegrees>-15.4647977650165557861328125</LatitudeDegrees>
              <LongitudeDegrees>37.00998860411345958709716796875</LongitudeDegrees>
            </Position>
            <AltitudeMeters>699.5999755859375</AltitudeMeters>
            <DistanceMeters>NAN</DistanceMeters>
          </Trackpoint>
          <Trackpoint>
            <Time>2021-08-03T13:24:22.000Z</Time>
            <Position>
              <LatitudeDegrees>-15.4648073203861713409423828125</LatitudeDegrees>
              <LongitudeDegrees>37.0099134184420108795166015625</LongitudeDegrees>
            </Position>
            <AltitudeMeters>699.20001220703125</AltitudeMeters>
            <DistanceMeters>NAN</DistanceMeters>
          </Trackpoint>
          <Trackpoint>
            <Time>2021-08-03T13:24:24.000Z</Time>
            <Position>
              <LatitudeDegrees>-15.464805476367473602294921875</LatitudeDegrees>
              <LongitudeDegrees>37.00988315977156162261962890625</LongitudeDegrees>
            </Position>
            <AltitudeMeters>699</AltitudeMeters>
            <DistanceMeters>NAN</DistanceMeters>
          </Trackpoint>
          <Trackpoint>
            <Time>2021-08-03T13:24:30.000Z</Time>
            <Position>
              <LatitudeDegrees>-15.46480715274810791015625</LatitudeDegrees>
              <LongitudeDegrees>37.0098024420440196990966796875</LongitudeDegrees>
            </Position>
            <AltitudeMeters>698</AltitudeMeters>
            <DistanceMeters>NAN</DistanceMeters>
          </Trackpoint>
          <Trackpoint>
            <Time>2021-08-03T13:24:35.000Z</Time>
            <Position>
              <LatitudeDegrees>-15.4648063145577907562255859375</LatitudeDegrees>
              <LongitudeDegrees>37.00974569655954837799072265625</LongitudeDegrees>
            </Position>
            <AltitudeMeters>697.79998779296875</AltitudeMeters>
            <DistanceMeters>NAN</DistanceMeters>
          </Trackpoint>
          <Trackpoint>
            <Time>2021-08-03T13:24:38.000Z</Time>
            <Position>
              <LatitudeDegrees>-15.46481125988066196441650390625</LatitudeDegrees>
              <LongitudeDegrees>37.00971015729010105133056640625</LongitudeDegrees>
            </Position>
            <AltitudeMeters>696.79998779296875</AltitudeMeters>
            <DistanceMeters>NAN</DistanceMeters>
          </Trackpoint>
          <Trackpoint>
            <Time>2021-08-03T13:24:42.000Z</Time>
            <Position>
              <LatitudeDegrees>-15.46481645666062831878662109375</LatitudeDegrees>
              <LongitudeDegrees>37.00966338627040386199951171875</LongitudeDegrees>
            </Position>
            <AltitudeMeters>696.5999755859375</AltitudeMeters>
            <DistanceMeters>NAN</DistanceMeters>
          </Trackpoint>
          <Trackpoint>
            <Time>2021-08-03T13:24:44.000Z</Time>
            <Position>
              <LatitudeDegrees>-15.464820899069309234619140625</LatitudeDegrees>
              <LongitudeDegrees>37.009635306894779205322265625</LongitudeDegrees>
            </Position>
            <AltitudeMeters>695.5999755859375</AltitudeMeters>
            <DistanceMeters>NAN</DistanceMeters>
          </Trackpoint>
          <Trackpoint>
            <Time>2021-08-03T13:24:50.000Z</Time>
            <Position>
              <LatitudeDegrees>-15.46480556018650531768798828125</LatitudeDegrees>
              <LongitudeDegrees>37.00956833548843860626220703125</LongitudeDegrees>
            </Position>
            <AltitudeMeters>694.5999755859375</AltitudeMeters>
            <DistanceMeters>NAN</DistanceMeters>
          </Trackpoint>
          <Trackpoint>
            <Time>2021-08-03T13:24:54.000Z</Time>
            <Position>
              <LatitudeDegrees>-15.4647955857217311859130859375</LatitudeDegrees>
              <LongitudeDegrees>37.00952433049678802490234375</LongitudeDegrees>
            </Position>
            <AltitudeMeters>693.4000244140625</AltitudeMeters>
            <DistanceMeters>NAN</DistanceMeters>
          </Trackpoint>
          <Trackpoint>
            <Time>2021-08-03T13:24:57.000Z</Time>
            <Position>
              <LatitudeDegrees>-15.46479483135044574737548828125</LatitudeDegrees>
              <LongitudeDegrees>37.00949206016957759857177734375</LongitudeDegrees>
            </Position>
            <AltitudeMeters>692.4000244140625</AltitudeMeters>
            <DistanceMeters>NAN</DistanceMeters>
          </Trackpoint>
          <Trackpoint>
            <Time>2021-08-03T13:25:01.000Z</Time>
            <Position>
              <LatitudeDegrees>-15.46479441225528717041015625</LatitudeDegrees>
              <LongitudeDegrees>37.009439505636692047119140625</LongitudeDegrees>
            </Position>
            <AltitudeMeters>691.20001220703125</AltitudeMeters>
            <DistanceMeters>NAN</DistanceMeters>
          </Trackpoint>
          <Trackpoint>
            <Time>2021-08-03T13:25:03.000Z</Time>
            <Position>
              <LatitudeDegrees>-15.4648012854158878326416015625</LatitudeDegrees>
              <LongitudeDegrees>37.00941746123135089874267578125</LongitudeDegrees>
            </Position>
            <AltitudeMeters>690.5999755859375</AltitudeMeters>
            <DistanceMeters>NAN</DistanceMeters>
          </Trackpoint>
          <Trackpoint>
            <Time>2021-08-03T13:25:04.000Z</Time>
            <Position>
              <LatitudeDegrees>-15.4648031294345855712890625</LatitudeDegrees>
              <LongitudeDegrees>37.009406648576259613037109375</LongitudeDegrees>
            </Position>
            <AltitudeMeters>690</AltitudeMeters>
            <DistanceMeters>NAN</DistanceMeters>
          </Trackpoint>
          <Trackpoint>
            <Time>2021-08-03T13:25:07.000Z</Time>
            <Position>
              <LatitudeDegrees>-15.464810170233249664306640625</LatitudeDegrees>
              <LongitudeDegrees>37.00937747955322265625</LongitudeDegrees>
            </Position>
            <AltitudeMeters>688.79998779296875</AltitudeMeters>
            <DistanceMeters>NAN</DistanceMeters>
          </Trackpoint>
          <Trackpoint>
            <Time>2021-08-03T13:25:12.000Z</Time>
            <Position>
              <LatitudeDegrees>-15.46480924822390079498291015625</LatitudeDegrees>
              <LongitudeDegrees>37.00933230109512805938720703125</LongitudeDegrees>
            </Position>
            <AltitudeMeters>687.79998779296875</AltitudeMeters>
            <DistanceMeters>NAN</DistanceMeters>
          </Trackpoint>
          <Trackpoint>
            <Time>2021-08-03T13:25:15.000Z</Time>
            <Position>
              <LatitudeDegrees>-15.46481310389935970306396484375</LatitudeDegrees>
              <LongitudeDegrees>37.0093018747866153717041015625</LongitudeDegrees>
            </Position>
            <AltitudeMeters>686.5999755859375</AltitudeMeters>
            <DistanceMeters>NAN</DistanceMeters>
          </Trackpoint>
          <Trackpoint>
            <Time>2021-08-03T13:25:17.000Z</Time>
            <Position>
              <LatitudeDegrees>-15.46481578610837459564208984375</LatitudeDegrees>
              <LongitudeDegrees>37.00928871519863605499267578125</LongitudeDegrees>
            </Position>
            <AltitudeMeters>685.79998779296875</AltitudeMeters>
            <DistanceMeters>NAN</DistanceMeters>
          </Trackpoint>
          <Trackpoint>
            <Time>2021-08-03T13:25:19.000Z</Time>
            <Position>
              <LatitudeDegrees>-15.46481855213642120361328125</LatitudeDegrees>
              <LongitudeDegrees>37.00927530415356159210205078125</LongitudeDegrees>
            </Position>
            <AltitudeMeters>685.20001220703125</AltitudeMeters>
            <DistanceMeters>NAN</DistanceMeters>
          </Trackpoint>
          <Trackpoint>
            <Time>2021-08-03T13:25:20.000Z</Time>
            <Position>
              <LatitudeDegrees>-15.46482282690703868865966796875</LatitudeDegrees>
              <LongitudeDegrees>37.00926683843135833740234375</LongitudeDegrees>
            </Position>
            <AltitudeMeters>685</AltitudeMeters>
            <DistanceMeters>NAN</DistanceMeters>
          </Trackpoint>
          <Trackpoint>
            <Time>2021-08-03T13:25:24.000Z</Time>
            <Position>
              <LatitudeDegrees>-15.46483523212373256683349609375</LatitudeDegrees>
              <LongitudeDegrees>37.0092240907251834869384765625</LongitudeDegrees>
            </Position>
            <AltitudeMeters>683.4000244140625</AltitudeMeters>
            <DistanceMeters>NAN</DistanceMeters>
          </Trackpoint>
          <Trackpoint>
            <Time>2021-08-03T13:25:27.000Z</Time>
            <Position>
              <LatitudeDegrees>-15.46485342085361480712890625</LatitudeDegrees>
              <LongitudeDegrees>37.0091996155679225921630859375</LongitudeDegrees>
            </Position>
            <AltitudeMeters>682.5999755859375</AltitudeMeters>
            <DistanceMeters>NAN</DistanceMeters>
          </Trackpoint>
          <Trackpoint>
            <Time>2021-08-03T13:25:28.000Z</Time>
            <Position>
              <LatitudeDegrees>-15.46485953964293003082275390625</LatitudeDegrees>
              <LongitudeDegrees>37.0091922394931316375732421875</LongitudeDegrees>
            </Position>
            <AltitudeMeters>682.4000244140625</AltitudeMeters>
            <DistanceMeters>NAN</DistanceMeters>
          </Trackpoint>
          <Trackpoint>
            <Time>2021-08-03T13:25:29.000Z</Time>
            <Position>
              <LatitudeDegrees>-15.464863814413547515869140625</LatitudeDegrees>
              <LongitudeDegrees>37.0091858692467212677001953125</LongitudeDegrees>
            </Position>
            <AltitudeMeters>682.20001220703125</AltitudeMeters>
            <DistanceMeters>NAN</DistanceMeters>
          </Trackpoint>
          <Trackpoint>
            <Time>2021-08-03T13:25:31.000Z</Time>
            <Position>
              <LatitudeDegrees>-15.46487026847898960113525390625</LatitudeDegrees>
              <LongitudeDegrees>37.009167261421680450439453125</LongitudeDegrees>
            </Position>
            <AltitudeMeters>681.5999755859375</AltitudeMeters>
            <DistanceMeters>NAN</DistanceMeters>
          </Trackpoint>
          <Trackpoint>
            <Time>2021-08-03T13:25:32.000Z</Time>
            <Position>
              <LatitudeDegrees>-15.46487043611705303192138671875</LatitudeDegrees>
              <LongitudeDegrees>37.00915594585239887237548828125</LongitudeDegrees>
            </Position>
            <AltitudeMeters>681.20001220703125</AltitudeMeters>
            <DistanceMeters>NAN</DistanceMeters>
          </Trackpoint>
          <Trackpoint>
            <Time>2021-08-03T13:25:36.000Z</Time>
            <Position>
              <LatitudeDegrees>-15.46486674807965755462646484375</LatitudeDegrees>
              <LongitudeDegrees>37.0091208256781101226806640625</LongitudeDegrees>
            </Position>
            <AltitudeMeters>679.79998779296875</AltitudeMeters>
            <DistanceMeters>NAN</DistanceMeters>
          </Trackpoint>
          <Trackpoint>
            <Time>2021-08-03T13:25:37.000Z</Time>
            <Position>
              <LatitudeDegrees>-15.4648701846599578857421875</LatitudeDegrees>
              <LongitudeDegrees>37.00910951010882854461669921875</LongitudeDegrees>
            </Position>
            <AltitudeMeters>679.5999755859375</AltitudeMeters>
            <DistanceMeters>NAN</DistanceMeters>
          </Trackpoint>
          <Trackpoint>
            <Time>2021-08-03T13:25:38.000Z</Time>
            <Position>
              <LatitudeDegrees>-15.46487496234476566314697265625</LatitudeDegrees>
              <LongitudeDegrees>37.00910146348178386688232421875</LongitudeDegrees>
            </Position>
            <AltitudeMeters>679.4000244140625</AltitudeMeters>
            <DistanceMeters>NAN</DistanceMeters>
          </Trackpoint>
          <Trackpoint>
            <Time>2021-08-03T13:25:39.000Z</Time>
            <Position>
              <LatitudeDegrees>-15.46488099731504917144775390625</LatitudeDegrees>
              <LongitudeDegrees>37.0090913213789463043212890625</LongitudeDegrees>
            </Position>
            <AltitudeMeters>679.20001220703125</AltitudeMeters>
            <DistanceMeters>NAN</DistanceMeters>
          </Trackpoint>
          <Trackpoint>
            <Time>2021-08-03T13:25:41.000Z</Time>
            <Position>
              <LatitudeDegrees>-15.46489239670336246490478515625</LatitudeDegrees>
              <LongitudeDegrees>37.0090691931545734405517578125</LongitudeDegrees>
            </Position>
            <AltitudeMeters>678.5999755859375</AltitudeMeters>
            <DistanceMeters>NAN</DistanceMeters>
          </Trackpoint>
          <Trackpoint>
            <Time>2021-08-03T13:25:43.000Z</Time>
            <Position>
              <LatitudeDegrees>-15.4649115912616252899169921875</LatitudeDegrees>
              <LongitudeDegrees>37.0090587995946407318115234375</LongitudeDegrees>
            </Position>
            <AltitudeMeters>678</AltitudeMeters>
            <DistanceMeters>NAN</DistanceMeters>
          </Trackpoint>
          <Trackpoint>
            <Time>2021-08-03T13:25:44.000Z</Time>
            <Position>
              <LatitudeDegrees>-15.46492139808833599090576171875</LatitudeDegrees>
              <LongitudeDegrees>37.0090507529675960540771484375</LongitudeDegrees>
            </Position>
            <AltitudeMeters>677.79998779296875</AltitudeMeters>
            <DistanceMeters>NAN</DistanceMeters>
          </Trackpoint>
          <Trackpoint>
            <Time>2021-08-03T13:25:45.000Z</Time>
            <Position>
              <LatitudeDegrees>-15.4649291932582855224609375</LatitudeDegrees>
              <LongitudeDegrees>37.00904396362602710723876953125</LongitudeDegrees>
            </Position>
            <AltitudeMeters>677.20001220703125</AltitudeMeters>
            <DistanceMeters>NAN</DistanceMeters>
          </Trackpoint>
          <Trackpoint>
            <Time>2021-08-03T13:25:46.000Z</Time>
            <Position>
              <LatitudeDegrees>-15.4649364016950130462646484375</LatitudeDegrees>
              <LongitudeDegrees>37.00903457589447498321533203125</LongitudeDegrees>
            </Position>
            <AltitudeMeters>677</AltitudeMeters>
            <DistanceMeters>NAN</DistanceMeters>
          </Trackpoint>
          <Trackpoint>
            <Time>2021-08-03T13:25:48.000Z</Time>
            <Position>
              <LatitudeDegrees>-15.46494956128299236297607421875</LatitudeDegrees>
              <LongitudeDegrees>37.0090152136981487274169921875</LongitudeDegrees>
            </Position>
            <AltitudeMeters>676</AltitudeMeters>
            <DistanceMeters>NAN</DistanceMeters>
          </Trackpoint>
          <Trackpoint>
            <Time>2021-08-03T13:25:51.000Z</Time>
            <Position>
              <LatitudeDegrees>-15.4649667441844940185546875</LatitudeDegrees>
              <LongitudeDegrees>37.008986882865428924560546875</LongitudeDegrees>
            </Position>
            <AltitudeMeters>675.79998779296875</AltitudeMeters>
            <DistanceMeters>NAN</DistanceMeters>
          </Trackpoint>
          <Trackpoint>
            <Time>2021-08-03T13:25:54.000Z</Time>
            <Position>
              <LatitudeDegrees>-15.46499163843691349029541015625</LatitudeDegrees>
              <LongitudeDegrees>37.00896106660366058349609375</LongitudeDegrees>
            </Position>
            <AltitudeMeters>674.5999755859375</AltitudeMeters>
            <DistanceMeters>NAN</DistanceMeters>
          </Trackpoint>
          <Trackpoint>
            <Time>2021-08-03T13:25:56.000Z</Time>
            <Position>
              <LatitudeDegrees>-15.46500069089233875274658203125</LatitudeDegrees>
              <LongitudeDegrees>37.0089404471218585968017578125</LongitudeDegrees>
            </Position>
            <AltitudeMeters>674.4000244140625</AltitudeMeters>
            <DistanceMeters>NAN</DistanceMeters>
          </Trackpoint>
          <Trackpoint>
            <Time>2021-08-03T13:25:58.000Z</Time>
            <Position>
              <LatitudeDegrees>-15.46501326374709606170654296875</LatitudeDegrees>
              <LongitudeDegrees>37.008923850953578948974609375</LongitudeDegrees>
            </Position>
            <AltitudeMeters>673.5999755859375</AltitudeMeters>
            <DistanceMeters>NAN</DistanceMeters>
          </Trackpoint>
          <Trackpoint>
            <Time>2021-08-03T13:26:04.000Z</Time>
            <Position>
              <LatitudeDegrees>-15.46506263315677642822265625</LatitudeDegrees>
              <LongitudeDegrees>37.008885629475116729736328125</LongitudeDegrees>
            </Position>
            <AltitudeMeters>672.79998779296875</AltitudeMeters>
            <DistanceMeters>NAN</DistanceMeters>
          </Trackpoint>
          <Trackpoint>
            <Time>2021-08-03T13:26:05.000Z</Time>
            <Position>
              <LatitudeDegrees>-15.4650686681270599365234375</LatitudeDegrees>
              <LongitudeDegrees>37.00887800194323062896728515625</LongitudeDegrees>
            </Position>
            <AltitudeMeters>672.5999755859375</AltitudeMeters>
            <DistanceMeters>NAN</DistanceMeters>
          </Trackpoint>
          <Trackpoint>
            <Time>2021-08-03T13:26:09.000Z</Time>
            <Position>
              <LatitudeDegrees>-15.46510496176779270172119140625</LatitudeDegrees>
              <LongitudeDegrees>37.00885067693889141082763671875</LongitudeDegrees>
            </Position>
            <AltitudeMeters>671.4000244140625</AltitudeMeters>
            <DistanceMeters>NAN</DistanceMeters>
          </Trackpoint>
          <Trackpoint>
            <Time>2021-08-03T13:26:12.000Z</Time>
            <Position>
              <LatitudeDegrees>-15.465122647583484649658203125</LatitudeDegrees>
              <LongitudeDegrees>37.00882737524807453155517578125</LongitudeDegrees>
            </Position>
            <AltitudeMeters>670.4000244140625</AltitudeMeters>
            <DistanceMeters>NAN</DistanceMeters>
          </Trackpoint>
          <Trackpoint>
            <Time>2021-08-03T13:26:14.000Z</Time>
            <Position>
              <LatitudeDegrees>-15.465133376419544219970703125</LatitudeDegrees>
              <LongitudeDegrees>37.0088088512420654296875</LongitudeDegrees>
            </Position>
            <AltitudeMeters>669.79998779296875</AltitudeMeters>
            <DistanceMeters>NAN</DistanceMeters>
          </Trackpoint>
          <Trackpoint>
            <Time>2021-08-03T13:26:18.000Z</Time>
            <Position>
              <LatitudeDegrees>-15.4651590250432491302490234375</LatitudeDegrees>
              <LongitudeDegrees>37.0087699592113494873046875</LongitudeDegrees>
            </Position>
            <AltitudeMeters>669.20001220703125</AltitudeMeters>
            <DistanceMeters>NAN</DistanceMeters>
          </Trackpoint>
          <Trackpoint>
            <Time>2021-08-03T13:26:21.000Z</Time>
            <Position>
              <LatitudeDegrees>-15.46518760733306407928466796875</LatitudeDegrees>
              <LongitudeDegrees>37.0087292231619358062744140625</LongitudeDegrees>
            </Position>
            <AltitudeMeters>668.20001220703125</AltitudeMeters>
            <DistanceMeters>NAN</DistanceMeters>
          </Trackpoint>
          <Trackpoint>
            <Time>2021-08-03T13:26:24.000Z</Time>
            <Position>
              <LatitudeDegrees>-15.46521761454641819000244140625</LatitudeDegrees>
              <LongitudeDegrees>37.008697204291820526123046875</LongitudeDegrees>
            </Position>
            <AltitudeMeters>667.79998779296875</AltitudeMeters>
            <DistanceMeters>NAN</DistanceMeters>
          </Trackpoint>
          <Trackpoint>
            <Time>2021-08-03T13:26:29.000Z</Time>
            <Position>
              <LatitudeDegrees>-15.46526111662387847900390625</LatitudeDegrees>
              <LongitudeDegrees>37.00864247046411037445068359375</LongitudeDegrees>
            </Position>
            <AltitudeMeters>666.79998779296875</AltitudeMeters>
            <DistanceMeters>NAN</DistanceMeters>
          </Trackpoint>
          <Trackpoint>
            <Time>2021-08-03T13:26:33.000Z</Time>
            <Position>
              <LatitudeDegrees>-15.4653025232255458831787109375</LatitudeDegrees>
              <LongitudeDegrees>37.00861246325075626373291015625</LongitudeDegrees>
            </Position>
            <AltitudeMeters>666.79998779296875</AltitudeMeters>
            <DistanceMeters>NAN</DistanceMeters>
          </Trackpoint>
          <Trackpoint>
            <Time>2021-08-03T13:26:40.000Z</Time>
            <Position>
              <LatitudeDegrees>-15.4653400741517543792724609375</LatitudeDegrees>
              <LongitudeDegrees>37.00854666531085968017578125</LongitudeDegrees>
            </Position>
            <AltitudeMeters>666</AltitudeMeters>
            <DistanceMeters>NAN</DistanceMeters>
          </Trackpoint>
          <Trackpoint>
            <Time>2021-08-03T13:26:41.000Z</Time>
            <Position>
              <LatitudeDegrees>-15.46534384600818157196044921875</LatitudeDegrees>
              <LongitudeDegrees>37.0085324160754680633544921875</LongitudeDegrees>
            </Position>
            <AltitudeMeters>666</AltitudeMeters>
            <DistanceMeters>NAN</DistanceMeters>
          </Trackpoint>
          <Trackpoint>
            <Time>2021-08-03T13:26:42.000Z</Time>
            <Position>
              <LatitudeDegrees>-15.465345270931720733642578125</LatitudeDegrees>
              <LongitudeDegrees>37.00852093286812305450439453125</LongitudeDegrees>
            </Position>
            <AltitudeMeters>664.4000244140625</AltitudeMeters>
            <DistanceMeters>NAN</DistanceMeters>
          </Trackpoint>
          <Trackpoint>
            <Time>2021-08-03T13:26:45.000Z</Time>
            <Position>
              <LatitudeDegrees>-15.46534937806427478790283203125</LatitudeDegrees>
              <LongitudeDegrees>37.00848631560802459716796875</LongitudeDegrees>
            </Position>
            <AltitudeMeters>664.4000244140625</AltitudeMeters>
            <DistanceMeters>NAN</DistanceMeters>
          </Trackpoint>
          <Trackpoint>
            <Time>2021-08-03T13:26:46.000Z</Time>
            <Position>
              <LatitudeDegrees>-15.46535407193005084991455078125</LatitudeDegrees>
              <LongitudeDegrees>37.00847617350518703460693359375</LongitudeDegrees>
            </Position>
            <AltitudeMeters>664.4000244140625</AltitudeMeters>
            <DistanceMeters>NAN</DistanceMeters>
          </Trackpoint>
          <Trackpoint>
            <Time>2021-08-03T13:26:49.000Z</Time>
            <Position>
              <LatitudeDegrees>-15.4653843306005001068115234375</LatitudeDegrees>
              <LongitudeDegrees>37.00844666920602321624755859375</LongitudeDegrees>
            </Position>
            <AltitudeMeters>663.20001220703125</AltitudeMeters>
            <DistanceMeters>NAN</DistanceMeters>
          </Trackpoint>
          <Trackpoint>
            <Time>2021-08-03T13:26:51.000Z</Time>
            <Position>
              <LatitudeDegrees>-15.46541039831936359405517578125</LatitudeDegrees>
              <LongitudeDegrees>37.0084341801702976226806640625</LongitudeDegrees>
            </Position>
            <AltitudeMeters>663.20001220703125</AltitudeMeters>
            <DistanceMeters>NAN</DistanceMeters>
          </Trackpoint>
          <Trackpoint>
            <Time>2021-08-03T13:26:54.000Z</Time>
            <Position>
              <LatitudeDegrees>-15.4654389806091785430908203125</LatitudeDegrees>
              <LongitudeDegrees>37.0084204338490962982177734375</LongitudeDegrees>
            </Position>
            <AltitudeMeters>663.20001220703125</AltitudeMeters>
            <DistanceMeters>NAN</DistanceMeters>
          </Trackpoint>
          <Trackpoint>
            <Time>2021-08-03T13:26:59.000Z</Time>
            <Position>
              <LatitudeDegrees>-15.46548197977244853973388671875</LatitudeDegrees>
              <LongitudeDegrees>37.0083922706544399261474609375</LongitudeDegrees>
            </Position>
            <AltitudeMeters>663</AltitudeMeters>
            <DistanceMeters>NAN</DistanceMeters>
          </Trackpoint>
          <Trackpoint>
            <Time>2021-08-03T13:27:07.000Z</Time>
            <Position>
              <LatitudeDegrees>-15.4655549861490726470947265625</LatitudeDegrees>
              <LongitudeDegrees>37.00832144357264041900634765625</LongitudeDegrees>
            </Position>
            <AltitudeMeters>662.20001220703125</AltitudeMeters>
            <DistanceMeters>NAN</DistanceMeters>
          </Trackpoint>
          <Trackpoint>
            <Time>2021-08-03T13:27:09.000Z</Time>
            <Position>
              <LatitudeDegrees>-15.4655687324702739715576171875</LatitudeDegrees>
              <LongitudeDegrees>37.00830803252756595611572265625</LongitudeDegrees>
            </Position>
            <AltitudeMeters>662.20001220703125</AltitudeMeters>
            <DistanceMeters>NAN</DistanceMeters>
          </Trackpoint>
          <Trackpoint>
            <Time>2021-08-03T13:27:10.000Z</Time>
            <Position>
              <LatitudeDegrees>-15.46557820402085781097412109375</LatitudeDegrees>
              <LongitudeDegrees>37.00829923152923583984375</LongitudeDegrees>
            </Position>
            <AltitudeMeters>662</AltitudeMeters>
            <DistanceMeters>NAN</DistanceMeters>
          </Trackpoint>
          <Trackpoint>
            <Time>2021-08-03T13:27:13.000Z</Time>
            <Position>
              <LatitudeDegrees>-15.4655965603888034820556640625</LatitudeDegrees>
              <LongitudeDegrees>37.008274085819721221923828125</LongitudeDegrees>
            </Position>
            <AltitudeMeters>661.79998779296875</AltitudeMeters>
            <DistanceMeters>NAN</DistanceMeters>
          </Trackpoint>
          <Trackpoint>
            <Time>2021-08-03T13:27:18.000Z</Time>
            <Position>
              <LatitudeDegrees>-15.4656317643821239471435546875</LatitudeDegrees>
              <LongitudeDegrees>37.0082306675612926483154296875</LongitudeDegrees>
            </Position>
            <AltitudeMeters>662</AltitudeMeters>
            <DistanceMeters>NAN</DistanceMeters>
          </Trackpoint>
          <Trackpoint>
            <Time>2021-08-03T13:27:19.000Z</Time>
            <Position>
              <LatitudeDegrees>-15.46563939191401004791259765625</LatitudeDegrees>
              <LongitudeDegrees>37.00822404585778713226318359375</LongitudeDegrees>
            </Position>
            <AltitudeMeters>662</AltitudeMeters>
            <DistanceMeters>NAN</DistanceMeters>
          </Trackpoint>
          <Trackpoint>
            <Time>2021-08-03T13:27:23.000Z</Time>
            <Position>
              <LatitudeDegrees>-15.4656659625470638275146484375</LatitudeDegrees>
              <LongitudeDegrees>37.00818934477865695953369140625</LongitudeDegrees>
            </Position>
            <AltitudeMeters>662.20001220703125</AltitudeMeters>
            <DistanceMeters>NAN</DistanceMeters>
          </Trackpoint>
          <Trackpoint>
            <Time>2021-08-03T13:27:31.000Z</Time>
            <Position>
              <LatitudeDegrees>-15.46574215404689311981201171875</LatitudeDegrees>
              <LongitudeDegrees>37.00811223126947879791259765625</LongitudeDegrees>
            </Position>
            <AltitudeMeters>662.20001220703125</AltitudeMeters>
            <DistanceMeters>NAN</DistanceMeters>
          </Trackpoint>
          <Trackpoint>
            <Time>2021-08-03T13:27:39.000Z</Time>
            <Position>
              <LatitudeDegrees>-15.46580887399613857269287109375</LatitudeDegrees>
              <LongitudeDegrees>37.00804316438734531402587890625</LongitudeDegrees>
            </Position>
            <AltitudeMeters>661.5999755859375</AltitudeMeters>
            <DistanceMeters>NAN</DistanceMeters>
          </Trackpoint>
          <Trackpoint>
            <Time>2021-08-03T13:27:40.000Z</Time>
            <Position>
              <LatitudeDegrees>-15.4658175073564052581787109375</LatitudeDegrees>
              <LongitudeDegrees>37.0080308429896831512451171875</LongitudeDegrees>
            </Position>
            <AltitudeMeters>661.5999755859375</AltitudeMeters>
            <DistanceMeters>NAN</DistanceMeters>
          </Trackpoint>
          <Trackpoint>
            <Time>2021-08-03T13:27:48.000Z</Time>
            <Position>
              <LatitudeDegrees>-15.4658889211714267730712890625</LatitudeDegrees>
              <LongitudeDegrees>37.00796387158334255218505859375</LongitudeDegrees>
            </Position>
            <AltitudeMeters>661.20001220703125</AltitudeMeters>
            <DistanceMeters>NAN</DistanceMeters>
          </Trackpoint>
          <Trackpoint>
            <Time>2021-08-03T13:27:49.000Z</Time>
            <Position>
              <LatitudeDegrees>-15.46589604578912258148193359375</LatitudeDegrees>
              <LongitudeDegrees>37.00795766897499561309814453125</LongitudeDegrees>
            </Position>
            <AltitudeMeters>661</AltitudeMeters>
            <DistanceMeters>NAN</DistanceMeters>
          </Trackpoint>
          <Trackpoint>
            <Time>2021-08-03T13:28:00.000Z</Time>
            <Position>
              <LatitudeDegrees>-15.46599126420915126800537109375</LatitudeDegrees>
              <LongitudeDegrees>37.00785306282341480255126953125</LongitudeDegrees>
            </Position>
            <AltitudeMeters>660.4000244140625</AltitudeMeters>
            <DistanceMeters>NAN</DistanceMeters>
          </Trackpoint>
          <Trackpoint>
            <Time>2021-08-03T13:28:11.000Z</Time>
            <Position>
              <LatitudeDegrees>-15.46609452925622463226318359375</LatitudeDegrees>
              <LongitudeDegrees>37.00776346027851104736328125</LongitudeDegrees>
            </Position>
            <AltitudeMeters>660.4000244140625</AltitudeMeters>
            <DistanceMeters>NAN</DistanceMeters>
          </Trackpoint>
          <Trackpoint>
            <Time>2021-08-03T13:28:22.000Z</Time>
            <Position>
              <LatitudeDegrees>-15.46620600856840610504150390625</LatitudeDegrees>
              <LongitudeDegrees>37.00769363902509212493896484375</LongitudeDegrees>
            </Position>
            <AltitudeMeters>660.79998779296875</AltitudeMeters>
            <DistanceMeters>NAN</DistanceMeters>
          </Trackpoint>
          <Trackpoint>
            <Time>2021-08-03T13:28:27.000Z</Time>
            <Position>
              <LatitudeDegrees>-15.4662595689296722412109375</LatitudeDegrees>
              <LongitudeDegrees>37.0076422579586505889892578125</LongitudeDegrees>
            </Position>
            <AltitudeMeters>660.4000244140625</AltitudeMeters>
            <DistanceMeters>NAN</DistanceMeters>
          </Trackpoint>
          <Trackpoint>
            <Time>2021-08-03T13:28:33.000Z</Time>
            <Position>
              <LatitudeDegrees>-15.466320253908634185791015625</LatitudeDegrees>
              <LongitudeDegrees>37.0075862668454647064208984375</LongitudeDegrees>
            </Position>
            <AltitudeMeters>660.4000244140625</AltitudeMeters>
            <DistanceMeters>NAN</DistanceMeters>
          </Trackpoint>
          <Trackpoint>
            <Time>2021-08-03T13:28:38.000Z</Time>
            <Position>
              <LatitudeDegrees>-15.46634296886622905731201171875</LatitudeDegrees>
              <LongitudeDegrees>37.007532455027103424072265625</LongitudeDegrees>
            </Position>
            <AltitudeMeters>660</AltitudeMeters>
            <DistanceMeters>NAN</DistanceMeters>
          </Trackpoint>
          <Trackpoint>
            <Time>2021-08-03T13:28:41.000Z</Time>
            <Position>
              <LatitudeDegrees>-15.466341711580753326416015625</LatitudeDegrees>
              <LongitudeDegrees>37.0074887014925479888916015625</LongitudeDegrees>
            </Position>
            <AltitudeMeters>660</AltitudeMeters>
            <DistanceMeters>NAN</DistanceMeters>
          </Trackpoint>
          <Trackpoint>
            <Time>2021-08-03T13:28:49.000Z</Time>
            <Position>
              <LatitudeDegrees>-15.46631514094769954681396484375</LatitudeDegrees>
              <LongitudeDegrees>37.0074290223419666290283203125</LongitudeDegrees>
            </Position>
            <AltitudeMeters>660.79998779296875</AltitudeMeters>
            <DistanceMeters>NAN</DistanceMeters>
          </Trackpoint>
          <Trackpoint>
            <Time>2021-08-03T13:28:52.000Z</Time>
            <Position>
              <LatitudeDegrees>-15.4662944376468658447265625</LatitudeDegrees>
              <LongitudeDegrees>37.00742240063846111297607421875</LongitudeDegrees>
            </Position>
            <AltitudeMeters>660.5999755859375</AltitudeMeters>
            <DistanceMeters>NAN</DistanceMeters>
          </Trackpoint>
          <Trackpoint>
            <Time>2021-08-03T13:28:56.000Z</Time>
            <Position>
              <LatitudeDegrees>-15.4662724770605564117431640625</LatitudeDegrees>
              <LongitudeDegrees>37.0073971711099147796630859375</LongitudeDegrees>
            </Position>
            <AltitudeMeters>660.4000244140625</AltitudeMeters>
            <DistanceMeters>NAN</DistanceMeters>
          </Trackpoint>
          <Trackpoint>
            <Time>2021-08-03T13:28:58.000Z</Time>
            <Position>
              <LatitudeDegrees>-15.46626132912933826446533203125</LatitudeDegrees>
              <LongitudeDegrees>37.007383592426776885986328125</LongitudeDegrees>
            </Position>
            <AltitudeMeters>660.4000244140625</AltitudeMeters>
            <DistanceMeters>NAN</DistanceMeters>
          </Trackpoint>
          <Trackpoint>
            <Time>2021-08-03T13:29:03.000Z</Time>
            <Position>
              <LatitudeDegrees>-15.46626049093902111053466796875</LatitudeDegrees>
              <LongitudeDegrees>37.0073287747800350189208984375</LongitudeDegrees>
            </Position>
            <AltitudeMeters>660.20001220703125</AltitudeMeters>
            <DistanceMeters>NAN</DistanceMeters>
          </Trackpoint>
          <Trackpoint>
            <Time>2021-08-03T13:29:15.000Z</Time>
            <Position>
              <LatitudeDegrees>-15.46633592806756496429443359375</LatitudeDegrees>
              <LongitudeDegrees>37.00719256885349750518798828125</LongitudeDegrees>
            </Position>
            <AltitudeMeters>660.4000244140625</AltitudeMeters>
            <DistanceMeters>NAN</DistanceMeters>
          </Trackpoint>
          <Trackpoint>
            <Time>2021-08-03T13:29:18.000Z</Time>
            <Position>
              <LatitudeDegrees>-15.46635637991130352020263671875</LatitudeDegrees>
              <LongitudeDegrees>37.0071530900895595550537109375</LongitudeDegrees>
            </Position>
            <AltitudeMeters>660.20001220703125</AltitudeMeters>
            <DistanceMeters>NAN</DistanceMeters>
          </Trackpoint>
          <Trackpoint>
            <Time>2021-08-03T13:29:20.000Z</Time>
            <Position>
              <LatitudeDegrees>-15.46636442653834819793701171875</LatitudeDegrees>
              <LongitudeDegrees>37.0071296207606792449951171875</LongitudeDegrees>
            </Position>
            <AltitudeMeters>660.20001220703125</AltitudeMeters>
            <DistanceMeters>NAN</DistanceMeters>
          </Trackpoint>
          <Trackpoint>
            <Time>2021-08-03T13:29:25.000Z</Time>
            <Position>
              <LatitudeDegrees>-15.46639191918075084686279296875</LatitudeDegrees>
              <LongitudeDegrees>37.00707740150392055511474609375</LongitudeDegrees>
            </Position>
            <AltitudeMeters>659.79998779296875</AltitudeMeters>
            <DistanceMeters>NAN</DistanceMeters>
          </Trackpoint>
          <Trackpoint>
            <Time>2021-08-03T13:29:35.000Z</Time>
            <Position>
              <LatitudeDegrees>-15.466482527554035186767578125</LatitudeDegrees>
              <LongitudeDegrees>37.0069847814738750457763671875</LongitudeDegrees>
            </Position>
            <AltitudeMeters>660.4000244140625</AltitudeMeters>
            <DistanceMeters>NAN</DistanceMeters>
          </Trackpoint>
          <Trackpoint>
            <Time>2021-08-03T13:29:42.000Z</Time>
            <Position>
              <LatitudeDegrees>-15.46653826721012592315673828125</LatitudeDegrees>
              <LongitudeDegrees>37.0069245994091033935546875</LongitudeDegrees>
            </Position>
            <AltitudeMeters>660.79998779296875</AltitudeMeters>
            <DistanceMeters>NAN</DistanceMeters>
          </Trackpoint>
          <Trackpoint>
            <Time>2021-08-03T13:29:47.000Z</Time>
            <Position>
              <LatitudeDegrees>-15.46657145954668521881103515625</LatitudeDegrees>
              <LongitudeDegrees>37.00688361190259456634521484375</LongitudeDegrees>
            </Position>
            <AltitudeMeters>661</AltitudeMeters>
            <DistanceMeters>NAN</DistanceMeters>
          </Trackpoint>
          <Trackpoint>
            <Time>2021-08-03T13:29:50.000Z</Time>
            <Position>
              <LatitudeDegrees>-15.466596186161041259765625</LatitudeDegrees>
              <LongitudeDegrees>37.0068660937249660491943359375</LongitudeDegrees>
            </Position>
            <AltitudeMeters>661.20001220703125</AltitudeMeters>
            <DistanceMeters>NAN</DistanceMeters>
          </Trackpoint>
          <Trackpoint>
            <Time>2021-08-03T13:29:52.000Z</Time>
            <Position>
              <LatitudeDegrees>-15.466615296900272369384765625</LatitudeDegrees>
              <LongitudeDegrees>37.00685687363147735595703125</LongitudeDegrees>
            </Position>
            <AltitudeMeters>661.5999755859375</AltitudeMeters>
            <DistanceMeters>NAN</DistanceMeters>
          </Trackpoint>
          <Trackpoint>
            <Time>2021-08-03T13:29:57.000Z</Time>
            <Position>
              <LatitudeDegrees>-15.4666511714458465576171875</LatitudeDegrees>
              <LongitudeDegrees>37.00682912953197956085205078125</LongitudeDegrees>
            </Position>
            <AltitudeMeters>662.4000244140625</AltitudeMeters>
            <DistanceMeters>NAN</DistanceMeters>
          </Trackpoint>
          <Trackpoint>
            <Time>2021-08-03T13:30:00.000Z</Time>
            <Position>
              <LatitudeDegrees>-15.46667505986988544464111328125</LatitudeDegrees>
              <LongitudeDegrees>37.00680901296436786651611328125</LongitudeDegrees>
            </Position>
            <AltitudeMeters>662.5999755859375</AltitudeMeters>
            <DistanceMeters>NAN</DistanceMeters>
          </Trackpoint>
          <Trackpoint>
            <Time>2021-08-03T13:30:04.000Z</Time>
            <Position>
              <LatitudeDegrees>-15.46671210788190364837646484375</LatitudeDegrees>
              <LongitudeDegrees>37.00677431188523769378662109375</LongitudeDegrees>
            </Position>
            <AltitudeMeters>663.4000244140625</AltitudeMeters>
            <DistanceMeters>NAN</DistanceMeters>
          </Trackpoint>
          <Trackpoint>
            <Time>2021-08-03T13:30:10.000Z</Time>
            <Position>
              <LatitudeDegrees>-15.46676323749125003814697265625</LatitudeDegrees>
              <LongitudeDegrees>37.00673617422580718994140625</LongitudeDegrees>
            </Position>
            <AltitudeMeters>663.79998779296875</AltitudeMeters>
            <DistanceMeters>NAN</DistanceMeters>
          </Trackpoint>
          <Trackpoint>
            <Time>2021-08-03T13:30:11.000Z</Time>
            <Position>
              <LatitudeDegrees>-15.46677178703248500823974609375</LatitudeDegrees>
              <LongitudeDegrees>37.006730139255523681640625</LongitudeDegrees>
            </Position>
            <AltitudeMeters>664</AltitudeMeters>
            <DistanceMeters>NAN</DistanceMeters>
          </Trackpoint>
          <Trackpoint>
            <Time>2021-08-03T13:30:13.000Z</Time>
            <Position>
              <LatitudeDegrees>-15.46679089777171611785888671875</LatitudeDegrees>
              <LongitudeDegrees>37.006714381277561187744140625</LongitudeDegrees>
            </Position>
            <AltitudeMeters>664.20001220703125</AltitudeMeters>
            <DistanceMeters>NAN</DistanceMeters>
          </Trackpoint>
          <Trackpoint>
            <Time>2021-08-03T13:30:14.000Z</Time>
            <Position>
              <LatitudeDegrees>-15.46679877676069736480712890625</LatitudeDegrees>
              <LongitudeDegrees>37.006707005202770233154296875</LongitudeDegrees>
            </Position>
            <AltitudeMeters>664.5999755859375</AltitudeMeters>
            <DistanceMeters>NAN</DistanceMeters>
          </Trackpoint>
          <Trackpoint>
            <Time>2021-08-03T13:30:18.000Z</Time>
            <Position>
              <LatitudeDegrees>-15.4668337292969226837158203125</LatitudeDegrees>
              <LongitudeDegrees>37.0066793449223041534423828125</LongitudeDegrees>
            </Position>
            <AltitudeMeters>665.20001220703125</AltitudeMeters>
            <DistanceMeters>NAN</DistanceMeters>
          </Trackpoint>
          <Trackpoint>
            <Time>2021-08-03T13:30:23.000Z</Time>
            <Position>
              <LatitudeDegrees>-15.46687270514667034149169921875</LatitudeDegrees>
              <LongitudeDegrees>37.0066402852535247802734375</LongitudeDegrees>
            </Position>
            <AltitudeMeters>665.79998779296875</AltitudeMeters>
            <DistanceMeters>NAN</DistanceMeters>
          </Trackpoint>
          <Trackpoint>
            <Time>2021-08-03T13:30:24.000Z</Time>
            <Position>
              <LatitudeDegrees>-15.4668806679546833038330078125</LatitudeDegrees>
              <LongitudeDegrees>37.0066327415406703948974609375</LongitudeDegrees>
            </Position>
            <AltitudeMeters>665.79998779296875</AltitudeMeters>
            <DistanceMeters>NAN</DistanceMeters>
          </Trackpoint>
          <Trackpoint>
            <Time>2021-08-03T13:30:34.000Z</Time>
            <Position>
              <LatitudeDegrees>-15.46695166267454624176025390625</LatitudeDegrees>
              <LongitudeDegrees>37.00655470602214336395263671875</LongitudeDegrees>
            </Position>
            <AltitudeMeters>666.5999755859375</AltitudeMeters>
            <DistanceMeters>NAN</DistanceMeters>
          </Trackpoint>
          <Trackpoint>
            <Time>2021-08-03T13:30:36.000Z</Time>
            <Position>
              <LatitudeDegrees>-15.46696473844349384307861328125</LatitudeDegrees>
              <LongitudeDegrees>37.00653710402548313140869140625</LongitudeDegrees>
            </Position>
            <AltitudeMeters>666.79998779296875</AltitudeMeters>
            <DistanceMeters>NAN</DistanceMeters>
          </Trackpoint>
          <Trackpoint>
            <Time>2021-08-03T13:30:41.000Z</Time>
            <Position>
              <LatitudeDegrees>-15.46699591912329196929931640625</LatitudeDegrees>
              <LongitudeDegrees>37.0065003074705600738525390625</LongitudeDegrees>
            </Position>
            <AltitudeMeters>667.20001220703125</AltitudeMeters>
            <DistanceMeters>NAN</DistanceMeters>
          </Trackpoint>
          <Trackpoint>
            <Time>2021-08-03T13:30:47.000Z</Time>
            <Position>
              <LatitudeDegrees>-15.46703296713531017303466796875</LatitudeDegrees>
              <LongitudeDegrees>37.0064605772495269775390625</LongitudeDegrees>
            </Position>
            <AltitudeMeters>668</AltitudeMeters>
            <DistanceMeters>NAN</DistanceMeters>
          </Trackpoint>
          <Trackpoint>
            <Time>2021-08-03T13:30:51.000Z</Time>
            <Position>
              <LatitudeDegrees>-15.467053167521953582763671875</LatitudeDegrees>
              <LongitudeDegrees>37.00642847456037998199462890625</LongitudeDegrees>
            </Position>
            <AltitudeMeters>668.4000244140625</AltitudeMeters>
            <DistanceMeters>NAN</DistanceMeters>
          </Trackpoint>
          <Trackpoint>
            <Time>2021-08-03T13:30:53.000Z</Time>
            <Position>
              <LatitudeDegrees>-15.46706850640475749969482421875</LatitudeDegrees>
              <LongitudeDegrees>37.00641221366822719573974609375</LongitudeDegrees>
            </Position>
            <AltitudeMeters>668.5999755859375</AltitudeMeters>
            <DistanceMeters>NAN</DistanceMeters>
          </Trackpoint>
          <Trackpoint>
            <Time>2021-08-03T13:30:55.000Z</Time>
            <Position>
              <LatitudeDegrees>-15.46708208508789539337158203125</LatitudeDegrees>
              <LongitudeDegrees>37.0063930191099643707275390625</LongitudeDegrees>
            </Position>
            <AltitudeMeters>668.79998779296875</AltitudeMeters>
            <DistanceMeters>NAN</DistanceMeters>
          </Trackpoint>
          <Trackpoint>
            <Time>2021-08-03T13:30:58.000Z</Time>
            <Position>
              <LatitudeDegrees>-15.46710672788321971893310546875</LatitudeDegrees>
              <LongitudeDegrees>37.00636879540979862213134765625</LongitudeDegrees>
            </Position>
            <AltitudeMeters>669</AltitudeMeters>
            <DistanceMeters>NAN</DistanceMeters>
          </Trackpoint>
          <Trackpoint>
            <Time>2021-08-03T13:30:59.000Z</Time>
            <Position>
              <LatitudeDegrees>-15.4671143554151058197021484375</LatitudeDegrees>
              <LongitudeDegrees>37.006358988583087921142578125</LongitudeDegrees>
            </Position>
            <AltitudeMeters>669.20001220703125</AltitudeMeters>
            <DistanceMeters>NAN</DistanceMeters>
          </Trackpoint>
          <Trackpoint>
            <Time>2021-08-03T13:31:00.000Z</Time>
            <Position>
              <LatitudeDegrees>-15.46712164767086505889892578125</LatitudeDegrees>
              <LongitudeDegrees>37.00635236687958240509033203125</LongitudeDegrees>
            </Position>
            <AltitudeMeters>669.20001220703125</AltitudeMeters>
            <DistanceMeters>NAN</DistanceMeters>
          </Trackpoint>
          <Trackpoint>
            <Time>2021-08-03T13:31:01.000Z</Time>
            <Position>
              <LatitudeDegrees>-15.46712952665984630584716796875</LatitudeDegrees>
              <LongitudeDegrees>37.00634331442415714263916015625</LongitudeDegrees>
            </Position>
            <AltitudeMeters>669.4000244140625</AltitudeMeters>
            <DistanceMeters>NAN</DistanceMeters>
          </Trackpoint>
          <Trackpoint>
            <Time>2021-08-03T13:31:02.000Z</Time>
            <Position>
              <LatitudeDegrees>-15.46713723801076412200927734375</LatitudeDegrees>
              <LongitudeDegrees>37.006334848701953887939453125</LongitudeDegrees>
            </Position>
            <AltitudeMeters>669.5999755859375</AltitudeMeters>
            <DistanceMeters>NAN</DistanceMeters>
          </Trackpoint>
          <Trackpoint>
            <Time>2021-08-03T13:31:03.000Z</Time>
            <Position>
              <LatitudeDegrees>-15.46714528463780879974365234375</LatitudeDegrees>
              <LongitudeDegrees>37.00632655061781406402587890625</LongitudeDegrees>
            </Position>
            <AltitudeMeters>669.5999755859375</AltitudeMeters>
            <DistanceMeters>NAN</DistanceMeters>
          </Trackpoint>
          <Trackpoint>
            <Time>2021-08-03T13:31:04.000Z</Time>
            <Position>
              <LatitudeDegrees>-15.4671527445316314697265625</LatitudeDegrees>
              <LongitudeDegrees>37.00631682761013507843017578125</LongitudeDegrees>
            </Position>
            <AltitudeMeters>669.5999755859375</AltitudeMeters>
            <DistanceMeters>NAN</DistanceMeters>
          </Trackpoint>
          <Trackpoint>
            <Time>2021-08-03T13:31:05.000Z</Time>
            <Position>
              <LatitudeDegrees>-15.4671616293489933013916015625</LatitudeDegrees>
              <LongitudeDegrees>37.0063085295259952545166015625</LongitudeDegrees>
            </Position>
            <AltitudeMeters>669.5999755859375</AltitudeMeters>
            <DistanceMeters>NAN</DistanceMeters>
          </Trackpoint>
          <Trackpoint>
            <Time>2021-08-03T13:31:06.000Z</Time>
            <Position>
              <LatitudeDegrees>-15.46717110089957714080810546875</LatitudeDegrees>
              <LongitudeDegrees>37.00630241073668003082275390625</LongitudeDegrees>
            </Position>
            <AltitudeMeters>670</AltitudeMeters>
            <DistanceMeters>NAN</DistanceMeters>
          </Trackpoint>
          <Trackpoint>
            <Time>2021-08-03T13:31:08.000Z</Time>
            <Position>
              <LatitudeDegrees>-15.46718719415366649627685546875</LatitudeDegrees>
              <LongitudeDegrees>37.00628933496773242950439453125</LongitudeDegrees>
            </Position>
            <AltitudeMeters>670.20001220703125</AltitudeMeters>
            <DistanceMeters>NAN</DistanceMeters>
          </Trackpoint>
          <Trackpoint>
            <Time>2021-08-03T13:31:10.000Z</Time>
            <Position>
              <LatitudeDegrees>-15.46720697544515132904052734375</LatitudeDegrees>
              <LongitudeDegrees>37.0062783546745777130126953125</LongitudeDegrees>
            </Position>
            <AltitudeMeters>670.4000244140625</AltitudeMeters>
            <DistanceMeters>NAN</DistanceMeters>
          </Trackpoint>
          <Trackpoint>
            <Time>2021-08-03T13:31:16.000Z</Time>
            <Position>
              <LatitudeDegrees>-15.46725642867386341094970703125</LatitudeDegrees>
              <LongitudeDegrees>37.00622127391397953033447265625</LongitudeDegrees>
            </Position>
            <AltitudeMeters>671.20001220703125</AltitudeMeters>
            <DistanceMeters>NAN</DistanceMeters>
          </Trackpoint>
          <Trackpoint>
            <Time>2021-08-03T13:31:17.000Z</Time>
            <Position>
              <LatitudeDegrees>-15.467261709272861480712890625</LatitudeDegrees>
              <LongitudeDegrees>37.00621456839144229888916015625</LongitudeDegrees>
            </Position>
            <AltitudeMeters>671.20001220703125</AltitudeMeters>
            <DistanceMeters>NAN</DistanceMeters>
          </Trackpoint>
          <Trackpoint>
            <Time>2021-08-03T13:31:18.000Z</Time>
            <Position>
              <LatitudeDegrees>-15.4672705940902233123779296875</LatitudeDegrees>
              <LongitudeDegrees>37.00620710849761962890625</LongitudeDegrees>
            </Position>
            <AltitudeMeters>671.4000244140625</AltitudeMeters>
            <DistanceMeters>NAN</DistanceMeters>
          </Trackpoint>
          <Trackpoint>
            <Time>2021-08-03T13:31:21.000Z</Time>
            <Position>
              <LatitudeDegrees>-15.4672900401055812835693359375</LatitudeDegrees>
              <LongitudeDegrees>37.00618523173034191131591796875</LongitudeDegrees>
            </Position>
            <AltitudeMeters>671.5999755859375</AltitudeMeters>
            <DistanceMeters>NAN</DistanceMeters>
          </Trackpoint>
          <Trackpoint>
            <Time>2021-08-03T13:31:30.000Z</Time>
            <Position>
              <LatitudeDegrees>-15.4673493839800357818603515625</LatitudeDegrees>
              <LongitudeDegrees>37.00611256062984466552734375</LongitudeDegrees>
            </Position>
            <AltitudeMeters>672.4000244140625</AltitudeMeters>
            <DistanceMeters>NAN</DistanceMeters>
          </Trackpoint>
          <Trackpoint>
            <Time>2021-08-03T13:31:32.000Z</Time>
            <Position>
              <LatitudeDegrees>-15.46736069954931735992431640625</LatitudeDegrees>
              <LongitudeDegrees>37.0060999877750873565673828125</LongitudeDegrees>
            </Position>
            <AltitudeMeters>672.5999755859375</AltitudeMeters>
            <DistanceMeters>NAN</DistanceMeters>
          </Trackpoint>
          <Trackpoint>
            <Time>2021-08-03T13:31:40.000Z</Time>
            <Position>
              <LatitudeDegrees>-15.4674214683473110198974609375</LatitudeDegrees>
              <LongitudeDegrees>37.00602765195071697235107421875</LongitudeDegrees>
            </Position>
            <AltitudeMeters>673.4000244140625</AltitudeMeters>
            <DistanceMeters>NAN</DistanceMeters>
          </Trackpoint>
          <Trackpoint>
            <Time>2021-08-03T13:31:41.000Z</Time>
            <Position>
              <LatitudeDegrees>-15.46742834150791168212890625</LatitudeDegrees>
              <LongitudeDegrees>37.0060171745717525482177734375</LongitudeDegrees>
            </Position>
            <AltitudeMeters>673.4000244140625</AltitudeMeters>
            <DistanceMeters>NAN</DistanceMeters>
          </Trackpoint>
          <Trackpoint>
            <Time>2021-08-03T13:31:43.000Z</Time>
            <Position>
              <LatitudeDegrees>-15.4674435965716838836669921875</LatitudeDegrees>
              <LongitudeDegrees>37.0059990696609020233154296875</LongitudeDegrees>
            </Position>
            <AltitudeMeters>673.79998779296875</AltitudeMeters>
            <DistanceMeters>NAN</DistanceMeters>
          </Trackpoint>
          <Trackpoint>
            <Time>2021-08-03T13:31:50.000Z</Time>
            <Position>
              <LatitudeDegrees>-15.4674925468862056732177734375</LatitudeDegrees>
              <LongitudeDegrees>37.00592891313135623931884765625</LongitudeDegrees>
            </Position>
            <AltitudeMeters>674</AltitudeMeters>
            <DistanceMeters>NAN</DistanceMeters>
          </Trackpoint>
          <Trackpoint>
            <Time>2021-08-03T13:32:01.000Z</Time>
            <Position>
              <LatitudeDegrees>-15.4675606079399585723876953125</LatitudeDegrees>
              <LongitudeDegrees>37.00581525452435016632080078125</LongitudeDegrees>
            </Position>
            <AltitudeMeters>674.79998779296875</AltitudeMeters>
            <DistanceMeters>NAN</DistanceMeters>
          </Trackpoint>
          <Trackpoint>
            <Time>2021-08-03T13:32:12.000Z</Time>
            <Position>
              <LatitudeDegrees>-15.46762757934629917144775390625</LatitudeDegrees>
              <LongitudeDegrees>37.0057020150125026702880859375</LongitudeDegrees>
            </Position>
            <AltitudeMeters>675.5999755859375</AltitudeMeters>
            <DistanceMeters>NAN</DistanceMeters>
          </Trackpoint>
          <Trackpoint>
            <Time>2021-08-03T13:32:16.000Z</Time>
            <Position>
              <LatitudeDegrees>-15.467649288475513458251953125</LatitudeDegrees>
              <LongitudeDegrees>37.00566655956208705902099609375</LongitudeDegrees>
            </Position>
            <AltitudeMeters>676</AltitudeMeters>
            <DistanceMeters>NAN</DistanceMeters>
          </Trackpoint>
          <Trackpoint>
            <Time>2021-08-03T13:32:23.000Z</Time>
            <Position>
              <LatitudeDegrees>-15.46768407337367534637451171875</LatitudeDegrees>
              <LongitudeDegrees>37.00560738332569599151611328125</LongitudeDegrees>
            </Position>
            <AltitudeMeters>676.79998779296875</AltitudeMeters>
            <DistanceMeters>NAN</DistanceMeters>
          </Trackpoint>
          <Trackpoint>
            <Time>2021-08-03T13:32:28.000Z</Time>
            <Position>
              <LatitudeDegrees>-15.46771022491157054901123046875</LatitudeDegrees>
              <LongitudeDegrees>37.00556061230599880218505859375</LongitudeDegrees>
            </Position>
            <AltitudeMeters>677</AltitudeMeters>
            <DistanceMeters>NAN</DistanceMeters>
          </Trackpoint>
          <Trackpoint>
            <Time>2021-08-03T13:32:36.000Z</Time>
            <Position>
              <LatitudeDegrees>-15.46775531955063343048095703125</LatitudeDegrees>
              <LongitudeDegrees>37.00548064894974231719970703125</LongitudeDegrees>
            </Position>
            <AltitudeMeters>677.5999755859375</AltitudeMeters>
            <DistanceMeters>NAN</DistanceMeters>
          </Trackpoint>
          <Trackpoint>
            <Time>2021-08-03T13:32:39.000Z</Time>
            <Position>
              <LatitudeDegrees>-15.46777761541306972503662109375</LatitudeDegrees>
              <LongitudeDegrees>37.0054493844509124755859375</LongitudeDegrees>
            </Position>
            <AltitudeMeters>678</AltitudeMeters>
            <DistanceMeters>NAN</DistanceMeters>
          </Trackpoint>
          <Trackpoint>
            <Time>2021-08-03T13:32:45.000Z</Time>
            <Position>
              <LatitudeDegrees>-15.46780577860772609710693359375</LatitudeDegrees>
              <LongitudeDegrees>37.00539146549999713897705078125</LongitudeDegrees>
            </Position>
            <AltitudeMeters>678.79998779296875</AltitudeMeters>
            <DistanceMeters>NAN</DistanceMeters>
          </Trackpoint>
          <Trackpoint>
            <Time>2021-08-03T13:32:49.000Z</Time>
            <Position>
              <LatitudeDegrees>-15.46781416051089763641357421875</LatitudeDegrees>
              <LongitudeDegrees>37.005357854068279266357421875</LongitudeDegrees>
            </Position>
            <AltitudeMeters>679</AltitudeMeters>
            <DistanceMeters>NAN</DistanceMeters>
          </Trackpoint>
          <Trackpoint>
            <Time>2021-08-03T13:32:55.000Z</Time>
            <Position>
              <LatitudeDegrees>-15.4678442515432834625244140625</LatitudeDegrees>
              <LongitudeDegrees>37.00529574416577816009521484375</LongitudeDegrees>
            </Position>
            <AltitudeMeters>679.5999755859375</AltitudeMeters>
            <DistanceMeters>NAN</DistanceMeters>
          </Trackpoint>
          <Trackpoint>
            <Time>2021-08-03T13:32:59.000Z</Time>
            <Position>
              <LatitudeDegrees>-15.4678657092154026031494140625</LatitudeDegrees>
              <LongitudeDegrees>37.00525182299315929412841796875</LongitudeDegrees>
            </Position>
            <AltitudeMeters>680.20001220703125</AltitudeMeters>
            <DistanceMeters>NAN</DistanceMeters>
          </Trackpoint>
          <Trackpoint>
            <Time>2021-08-03T13:33:05.000Z</Time>
            <Position>
              <LatitudeDegrees>-15.46788741834461688995361328125</LatitudeDegrees>
              <LongitudeDegrees>37.0051799900829792022705078125</LongitudeDegrees>
            </Position>
            <AltitudeMeters>680.5999755859375</AltitudeMeters>
            <DistanceMeters>NAN</DistanceMeters>
          </Trackpoint>
          <Trackpoint>
            <Time>2021-08-03T13:33:11.000Z</Time>
            <Position>
              <LatitudeDegrees>-15.4679025895893573760986328125</LatitudeDegrees>
              <LongitudeDegrees>37.005118466913700103759765625</LongitudeDegrees>
            </Position>
            <AltitudeMeters>681.20001220703125</AltitudeMeters>
            <DistanceMeters>NAN</DistanceMeters>
          </Trackpoint>
          <Trackpoint>
            <Time>2021-08-03T13:33:15.000Z</Time>
            <Position>
              <LatitudeDegrees>-15.467913150787353515625</LatitudeDegrees>
              <LongitudeDegrees>37.00506909750401973724365234375</LongitudeDegrees>
            </Position>
            <AltitudeMeters>681.5999755859375</AltitudeMeters>
            <DistanceMeters>NAN</DistanceMeters>
          </Trackpoint>
          <Trackpoint>
            <Time>2021-08-03T13:33:19.000Z</Time>
            <Position>
              <LatitudeDegrees>-15.46792396344244480133056640625</LatitudeDegrees>
              <LongitudeDegrees>37.00502718798816204071044921875</LongitudeDegrees>
            </Position>
            <AltitudeMeters>681.5999755859375</AltitudeMeters>
            <DistanceMeters>NAN</DistanceMeters>
          </Trackpoint>
          <Trackpoint>
            <Time>2021-08-03T13:33:22.000Z</Time>
            <Position>
              <LatitudeDegrees>-15.4679227061569690704345703125</LatitudeDegrees>
              <LongitudeDegrees>37.0049972645938396453857421875</LongitudeDegrees>
            </Position>
            <AltitudeMeters>682.20001220703125</AltitudeMeters>
            <DistanceMeters>NAN</DistanceMeters>
          </Trackpoint>
          <Trackpoint>
            <Time>2021-08-03T13:33:26.000Z</Time>
            <Position>
              <LatitudeDegrees>-15.46793402172625064849853515625</LatitudeDegrees>
              <LongitudeDegrees>37.00495376251637935638427734375</LongitudeDegrees>
            </Position>
            <AltitudeMeters>682.5999755859375</AltitudeMeters>
            <DistanceMeters>NAN</DistanceMeters>
          </Trackpoint>
          <Trackpoint>
            <Time>2021-08-03T13:33:30.000Z</Time>
            <Position>
              <LatitudeDegrees>-15.4679386317729949951171875</LatitudeDegrees>
              <LongitudeDegrees>37.00491202063858509063720703125</LongitudeDegrees>
            </Position>
            <AltitudeMeters>682.5999755859375</AltitudeMeters>
            <DistanceMeters>NAN</DistanceMeters>
          </Trackpoint>
          <Trackpoint>
            <Time>2021-08-03T13:33:32.000Z</Time>
            <Position>
              <LatitudeDegrees>-15.4679418168962001800537109375</LatitudeDegrees>
              <LongitudeDegrees>37.00489240698516368865966796875</LongitudeDegrees>
            </Position>
            <AltitudeMeters>683</AltitudeMeters>
            <DistanceMeters>NAN</DistanceMeters>
          </Trackpoint>
          <Trackpoint>
            <Time>2021-08-03T13:33:35.000Z</Time>
            <Position>
              <LatitudeDegrees>-15.4679461754858493804931640625</LatitudeDegrees>
              <LongitudeDegrees>37.00486139394342899322509765625</LongitudeDegrees>
            </Position>
            <AltitudeMeters>683.20001220703125</AltitudeMeters>
            <DistanceMeters>NAN</DistanceMeters>
          </Trackpoint>
          <Trackpoint>
            <Time>2021-08-03T13:33:40.000Z</Time>
            <Position>
              <LatitudeDegrees>-15.46795262955129146575927734375</LatitudeDegrees>
              <LongitudeDegrees>37.00480741448700428009033203125</LongitudeDegrees>
            </Position>
            <AltitudeMeters>683.4000244140625</AltitudeMeters>
            <DistanceMeters>NAN</DistanceMeters>
          </Trackpoint>
          <Trackpoint>
            <Time>2021-08-03T13:33:41.000Z</Time>
            <Position>
              <LatitudeDegrees>-15.46795413829386234283447265625</LatitudeDegrees>
              <LongitudeDegrees>37.00479635037481784820556640625</LongitudeDegrees>
            </Position>
            <AltitudeMeters>683.4000244140625</AltitudeMeters>
            <DistanceMeters>NAN</DistanceMeters>
          </Trackpoint>
          <Trackpoint>
            <Time>2021-08-03T13:33:48.000Z</Time>
            <Position>
              <LatitudeDegrees>-15.46798146329820156097412109375</LatitudeDegrees>
              <LongitudeDegrees>37.004721499979496002197265625</LongitudeDegrees>
            </Position>
            <AltitudeMeters>684.20001220703125</AltitudeMeters>
            <DistanceMeters>NAN</DistanceMeters>
          </Trackpoint>
          <Trackpoint>
            <Time>2021-08-03T13:33:51.000Z</Time>
            <Position>
              <LatitudeDegrees>-15.46799537725746631622314453125</LatitudeDegrees>
              <LongitudeDegrees>37.0046935044229030609130859375</LongitudeDegrees>
            </Position>
            <AltitudeMeters>684.4000244140625</AltitudeMeters>
            <DistanceMeters>NAN</DistanceMeters>
          </Trackpoint>
          <Trackpoint>
            <Time>2021-08-03T13:33:56.000Z</Time>
            <Position>
              <LatitudeDegrees>-15.468013398349285125732421875</LatitudeDegrees>
              <LongitudeDegrees>37.00464765541255474090576171875</LongitudeDegrees>
            </Position>
            <AltitudeMeters>684.5999755859375</AltitudeMeters>
            <DistanceMeters>NAN</DistanceMeters>
          </Trackpoint>
          <Trackpoint>
            <Time>2021-08-03T13:33:57.000Z</Time>
            <Position>
              <LatitudeDegrees>-15.46801415272057056427001953125</LatitudeDegrees>
              <LongitudeDegrees>37.00464279390871524810791015625</LongitudeDegrees>
            </Position>
            <AltitudeMeters>684.5999755859375</AltitudeMeters>
            <DistanceMeters>NAN</DistanceMeters>
          </Trackpoint>
          <Trackpoint>
            <Time>2021-08-03T13:34:00.000Z</Time>
            <Position>
              <LatitudeDegrees>-15.46802739612758159637451171875</LatitudeDegrees>
              <LongitudeDegrees>37.00462971813976764678955078125</LongitudeDegrees>
            </Position>
            <AltitudeMeters>684.5999755859375</AltitudeMeters>
            <DistanceMeters>NAN</DistanceMeters>
          </Trackpoint>
          <Trackpoint>
            <Time>2021-08-03T13:34:03.000Z</Time>
            <Position>
              <LatitudeDegrees>-15.46804483048617839813232421875</LatitudeDegrees>
              <LongitudeDegrees>37.004598118364810943603515625</LongitudeDegrees>
            </Position>
            <AltitudeMeters>684.5999755859375</AltitudeMeters>
            <DistanceMeters>NAN</DistanceMeters>
          </Trackpoint>
          <Trackpoint>
            <Time>2021-08-03T13:34:05.000Z</Time>
            <Position>
              <LatitudeDegrees>-15.4680561460554599761962890625</LatitudeDegrees>
              <LongitudeDegrees>37.0045748166739940643310546875</LongitudeDegrees>
            </Position>
            <AltitudeMeters>684.4000244140625</AltitudeMeters>
            <DistanceMeters>NAN</DistanceMeters>
          </Trackpoint>
          <Trackpoint>
            <Time>2021-08-03T13:34:08.000Z</Time>
            <Position>
              <LatitudeDegrees>-15.46807332895696163177490234375</LatitudeDegrees>
              <LongitudeDegrees>37.00454925186932086944580078125</LongitudeDegrees>
            </Position>
            <AltitudeMeters>684.4000244140625</AltitudeMeters>
            <DistanceMeters>NAN</DistanceMeters>
          </Trackpoint>
          <Trackpoint>
            <Time>2021-08-03T13:34:09.000Z</Time>
            <Position>
              <LatitudeDegrees>-15.4680799506604671478271484375</LatitudeDegrees>
              <LongitudeDegrees>37.004537768661975860595703125</LongitudeDegrees>
            </Position>
            <AltitudeMeters>684.4000244140625</AltitudeMeters>
            <DistanceMeters>NAN</DistanceMeters>
          </Trackpoint>
          <Trackpoint>
            <Time>2021-08-03T13:34:11.000Z</Time>
            <Position>
              <LatitudeDegrees>-15.468092523515224456787109375</LatitudeDegrees>
              <LongitudeDegrees>37.00451773591339588165283203125</LongitudeDegrees>
            </Position>
            <AltitudeMeters>684.4000244140625</AltitudeMeters>
            <DistanceMeters>NAN</DistanceMeters>
          </Trackpoint>
          <Trackpoint>
            <Time>2021-08-03T13:34:13.000Z</Time>
            <Position>
              <LatitudeDegrees>-15.46810803003609180450439453125</LatitudeDegrees>
              <LongitudeDegrees>37.00449627824127674102783203125</LongitudeDegrees>
            </Position>
            <AltitudeMeters>684.4000244140625</AltitudeMeters>
            <DistanceMeters>NAN</DistanceMeters>
          </Trackpoint>
          <Trackpoint>
            <Time>2021-08-03T13:34:16.000Z</Time>
            <Position>
              <LatitudeDegrees>-15.46812412329018115997314453125</LatitudeDegrees>
              <LongitudeDegrees>37.00446300208568572998046875</LongitudeDegrees>
            </Position>
            <AltitudeMeters>684.4000244140625</AltitudeMeters>
            <DistanceMeters>NAN</DistanceMeters>
          </Trackpoint>
          <Trackpoint>
            <Time>2021-08-03T13:34:27.000Z</Time>
            <Position>
              <LatitudeDegrees>-15.46817810274660587310791015625</LatitudeDegrees>
              <LongitudeDegrees>37.0043280534446239471435546875</LongitudeDegrees>
            </Position>
            <AltitudeMeters>684.4000244140625</AltitudeMeters>
            <DistanceMeters>NAN</DistanceMeters>
          </Trackpoint>
          <Trackpoint>
            <Time>2021-08-03T13:34:41.000Z</Time>
            <Position>
              <LatitudeDegrees>-15.4681939445436000823974609375</LatitudeDegrees>
              <LongitudeDegrees>37.004152871668338775634765625</LongitudeDegrees>
            </Position>
            <AltitudeMeters>683.79998779296875</AltitudeMeters>
            <DistanceMeters>NAN</DistanceMeters>
          </Trackpoint>
          <Trackpoint>
            <Time>2021-08-03T13:34:51.000Z</Time>
            <Position>
              <LatitudeDegrees>-15.4681842215359210968017578125</LatitudeDegrees>
              <LongitudeDegrees>37.00402152724564075469970703125</LongitudeDegrees>
            </Position>
            <AltitudeMeters>683.4000244140625</AltitudeMeters>
            <DistanceMeters>NAN</DistanceMeters>
          </Trackpoint>
          <Trackpoint>
            <Time>2021-08-03T13:35:00.000Z</Time>
            <Position>
              <LatitudeDegrees>-15.46816888265311717987060546875</LatitudeDegrees>
              <LongitudeDegrees>37.00390937738120555877685546875</LongitudeDegrees>
            </Position>
            <AltitudeMeters>683.4000244140625</AltitudeMeters>
            <DistanceMeters>NAN</DistanceMeters>
          </Trackpoint>
          <Trackpoint>
            <Time>2021-08-03T13:35:02.000Z</Time>
            <Position>
              <LatitudeDegrees>-15.46816100366413593292236328125</LatitudeDegrees>
              <LongitudeDegrees>37.0038861595094203948974609375</LongitudeDegrees>
            </Position>
            <AltitudeMeters>683.20001220703125</AltitudeMeters>
            <DistanceMeters>NAN</DistanceMeters>
          </Trackpoint>
          <Trackpoint>
            <Time>2021-08-03T13:35:10.000Z</Time>
            <Position>
              <LatitudeDegrees>-15.4681071080267429351806640625</LatitudeDegrees>
              <LongitudeDegrees>37.00377945788204669952392578125</LongitudeDegrees>
            </Position>
            <AltitudeMeters>683.4000244140625</AltitudeMeters>
            <DistanceMeters>NAN</DistanceMeters>
          </Trackpoint>
          <Trackpoint>
            <Time>2021-08-03T13:35:16.000Z</Time>
            <Position>
              <LatitudeDegrees>-15.46806930564343929290771484375</LatitudeDegrees>
              <LongitudeDegrees>37.003718353807926177978515625</LongitudeDegrees>
            </Position>
            <AltitudeMeters>683.4000244140625</AltitudeMeters>
            <DistanceMeters>NAN</DistanceMeters>
          </Trackpoint>
          <Trackpoint>
            <Time>2021-08-03T13:35:19.000Z</Time>
            <Position>
              <LatitudeDegrees>-15.4680551402270793914794921875</LatitudeDegrees>
              <LongitudeDegrees>37.003684155642986297607421875</LongitudeDegrees>
            </Position>
            <AltitudeMeters>683.20001220703125</AltitudeMeters>
            <DistanceMeters>NAN</DistanceMeters>
          </Trackpoint>
          <Trackpoint>
            <Time>2021-08-03T13:35:21.000Z</Time>
            <Position>
              <LatitudeDegrees>-15.468042232096195220947265625</LatitudeDegrees>
              <LongitudeDegrees>37.00365842320024967193603515625</LongitudeDegrees>
            </Position>
            <AltitudeMeters>683.4000244140625</AltitudeMeters>
            <DistanceMeters>NAN</DistanceMeters>
          </Trackpoint>
          <Trackpoint>
            <Time>2021-08-03T13:35:22.000Z</Time>
            <Position>
              <LatitudeDegrees>-15.46803510747849941253662109375</LatitudeDegrees>
              <LongitudeDegrees>37.0036511309444904327392578125</LongitudeDegrees>
            </Position>
            <AltitudeMeters>683.4000244140625</AltitudeMeters>
            <DistanceMeters>NAN</DistanceMeters>
          </Trackpoint>
          <Trackpoint>
            <Time>2021-08-03T13:35:25.000Z</Time>
            <Position>
              <LatitudeDegrees>-15.4680145718157291412353515625</LatitudeDegrees>
              <LongitudeDegrees>37.0036142505705356597900390625</LongitudeDegrees>
            </Position>
            <AltitudeMeters>683</AltitudeMeters>
            <DistanceMeters>NAN</DistanceMeters>
          </Trackpoint>
          <Trackpoint>
            <Time>2021-08-03T13:35:27.000Z</Time>
            <Position>
              <LatitudeDegrees>-15.46800476498901844024658203125</LatitudeDegrees>
              <LongitudeDegrees>37.00359203852713108062744140625</LongitudeDegrees>
            </Position>
            <AltitudeMeters>683</AltitudeMeters>
            <DistanceMeters>NAN</DistanceMeters>
          </Trackpoint>
          <Trackpoint>
            <Time>2021-08-03T13:35:31.000Z</Time>
            <Position>
              <LatitudeDegrees>-15.46798699535429477691650390625</LatitudeDegrees>
              <LongitudeDegrees>37.00354392640292644500732421875</LongitudeDegrees>
            </Position>
            <AltitudeMeters>682.4000244140625</AltitudeMeters>
            <DistanceMeters>NAN</DistanceMeters>
          </Trackpoint>
          <Trackpoint>
            <Time>2021-08-03T13:35:32.000Z</Time>
            <Position>
              <LatitudeDegrees>-15.46798087656497955322265625</LatitudeDegrees>
              <LongitudeDegrees>37.003532946109771728515625</LongitudeDegrees>
            </Position>
            <AltitudeMeters>682.20001220703125</AltitudeMeters>
            <DistanceMeters>NAN</DistanceMeters>
          </Trackpoint>
          <Trackpoint>
            <Time>2021-08-03T13:35:39.000Z</Time>
            <Position>
              <LatitudeDegrees>-15.46793268062174320220947265625</LatitudeDegrees>
              <LongitudeDegrees>37.003467567265033721923828125</LongitudeDegrees>
            </Position>
            <AltitudeMeters>681.79998779296875</AltitudeMeters>
            <DistanceMeters>NAN</DistanceMeters>
          </Trackpoint>
          <Trackpoint>
            <Time>2021-08-03T13:35:44.000Z</Time>
            <Position>
              <LatitudeDegrees>-15.4679035954177379608154296875</LatitudeDegrees>
              <LongitudeDegrees>37.0034144259989261627197265625</LongitudeDegrees>
            </Position>
            <AltitudeMeters>681.79998779296875</AltitudeMeters>
            <DistanceMeters>NAN</DistanceMeters>
          </Trackpoint>
          <Trackpoint>
            <Time>2021-08-03T13:35:49.000Z</Time>
            <Position>
              <LatitudeDegrees>-15.46787082217633724212646484375</LatitudeDegrees>
              <LongitudeDegrees>37.00334963388741016387939453125</LongitudeDegrees>
            </Position>
            <AltitudeMeters>681.79998779296875</AltitudeMeters>
            <DistanceMeters>NAN</DistanceMeters>
          </Trackpoint>
          <Trackpoint>
            <Time>2021-08-03T13:35:56.000Z</Time>
            <Position>
              <LatitudeDegrees>-15.4678340256214141845703125</LatitudeDegrees>
              <LongitudeDegrees>37.0032746158540248870849609375</LongitudeDegrees>
            </Position>
            <AltitudeMeters>681.20001220703125</AltitudeMeters>
            <DistanceMeters>NAN</DistanceMeters>
          </Trackpoint>
          <Trackpoint>
            <Time>2021-08-03T13:35:59.000Z</Time>
            <Position>
              <LatitudeDegrees>-15.4678110592067241668701171875</LatitudeDegrees>
              <LongitudeDegrees>37.003238908946514129638671875</LongitudeDegrees>
            </Position>
            <AltitudeMeters>681</AltitudeMeters>
            <DistanceMeters>NAN</DistanceMeters>
          </Trackpoint>
          <Trackpoint>
            <Time>2021-08-03T13:36:10.000Z</Time>
            <Position>
              <LatitudeDegrees>-15.467770993709564208984375</LatitudeDegrees>
              <LongitudeDegrees>37.00310287065804004669189453125</LongitudeDegrees>
            </Position>
            <AltitudeMeters>680.79998779296875</AltitudeMeters>
            <DistanceMeters>NAN</DistanceMeters>
          </Trackpoint>
          <Trackpoint>
            <Time>2021-08-03T13:36:19.000Z</Time>
            <Position>
              <LatitudeDegrees>-15.46773277223110198974609375</LatitudeDegrees>
              <LongitudeDegrees>37.00299046933650970458984375</LongitudeDegrees>
            </Position>
            <AltitudeMeters>680.4000244140625</AltitudeMeters>
            <DistanceMeters>NAN</DistanceMeters>
          </Trackpoint>
          <Trackpoint>
            <Time>2021-08-03T13:36:27.000Z</Time>
            <Position>
              <LatitudeDegrees>-15.46772816218435764312744140625</LatitudeDegrees>
              <LongitudeDegrees>37.0028873719274997711181640625</LongitudeDegrees>
            </Position>
            <AltitudeMeters>680.20001220703125</AltitudeMeters>
            <DistanceMeters>NAN</DistanceMeters>
          </Trackpoint>
          <Trackpoint>
            <Time>2021-08-03T13:36:31.000Z</Time>
            <Position>
              <LatitudeDegrees>-15.467727743089199066162109375</LatitudeDegrees>
              <LongitudeDegrees>37.00284722261130809783935546875</LongitudeDegrees>
            </Position>
            <AltitudeMeters>679.79998779296875</AltitudeMeters>
            <DistanceMeters>NAN</DistanceMeters>
          </Trackpoint>
          <Trackpoint>
            <Time>2021-08-03T13:36:40.000Z</Time>
            <Position>
              <LatitudeDegrees>-15.46770519576966762542724609375</LatitudeDegrees>
              <LongitudeDegrees>37.00271881185472011566162109375</LongitudeDegrees>
            </Position>
            <AltitudeMeters>679.20001220703125</AltitudeMeters>
            <DistanceMeters>NAN</DistanceMeters>
          </Trackpoint>
          <Trackpoint>
            <Time>2021-08-03T13:36:43.000Z</Time>
            <Position>
              <LatitudeDegrees>-15.46770217828452587127685546875</LatitudeDegrees>
              <LongitudeDegrees>37.0026852004230022430419921875</LongitudeDegrees>
            </Position>
            <AltitudeMeters>679.20001220703125</AltitudeMeters>
            <DistanceMeters>NAN</DistanceMeters>
          </Trackpoint>
          <Trackpoint>
            <Time>2021-08-03T13:36:44.000Z</Time>
            <Position>
              <LatitudeDegrees>-15.46769999898970127105712890625</LatitudeDegrees>
              <LongitudeDegrees>37.00266986154019832611083984375</LongitudeDegrees>
            </Position>
            <AltitudeMeters>679</AltitudeMeters>
            <DistanceMeters>NAN</DistanceMeters>
          </Trackpoint>
          <Trackpoint>
            <Time>2021-08-03T13:36:46.000Z</Time>
            <Position>
              <LatitudeDegrees>-15.467696227133274078369140625</LatitudeDegrees>
              <LongitudeDegrees>37.002644799649715423583984375</LongitudeDegrees>
            </Position>
            <AltitudeMeters>678.4000244140625</AltitudeMeters>
            <DistanceMeters>NAN</DistanceMeters>
          </Trackpoint>
          <Trackpoint>
            <Time>2021-08-03T13:36:47.000Z</Time>
            <Position>
              <LatitudeDegrees>-15.4676950536668300628662109375</LatitudeDegrees>
              <LongitudeDegrees>37.00263113714754581451416015625</LongitudeDegrees>
            </Position>
            <AltitudeMeters>678.4000244140625</AltitudeMeters>
            <DistanceMeters>NAN</DistanceMeters>
          </Trackpoint>
          <Trackpoint>
            <Time>2021-08-03T13:36:54.000Z</Time>
            <Position>
              <LatitudeDegrees>-15.4676772840321063995361328125</LatitudeDegrees>
              <LongitudeDegrees>37.0025432109832763671875</LongitudeDegrees>
            </Position>
            <AltitudeMeters>678</AltitudeMeters>
            <DistanceMeters>NAN</DistanceMeters>
          </Trackpoint>
          <Trackpoint>
            <Time>2021-08-03T13:36:56.000Z</Time>
            <Position>
              <LatitudeDegrees>-15.46767418272793292999267578125</LatitudeDegrees>
              <LongitudeDegrees>37.002515383064746856689453125</LongitudeDegrees>
            </Position>
            <AltitudeMeters>678</AltitudeMeters>
            <DistanceMeters>NAN</DistanceMeters>
          </Trackpoint>
          <Trackpoint>
            <Time>2021-08-03T13:36:58.000Z</Time>
            <Position>
              <LatitudeDegrees>-15.46767435036599636077880859375</LatitudeDegrees>
              <LongitudeDegrees>37.00249300338327884674072265625</LongitudeDegrees>
            </Position>
            <AltitudeMeters>678</AltitudeMeters>
            <DistanceMeters>NAN</DistanceMeters>
          </Trackpoint>
          <Trackpoint>
            <Time>2021-08-03T13:37:08.000Z</Time>
            <Position>
              <LatitudeDegrees>-15.46766345389187335968017578125</LatitudeDegrees>
              <LongitudeDegrees>37.0023683644831180572509765625</LongitudeDegrees>
            </Position>
            <AltitudeMeters>677.20001220703125</AltitudeMeters>
            <DistanceMeters>NAN</DistanceMeters>
          </Trackpoint>
          <Trackpoint>
            <Time>2021-08-03T13:37:10.000Z</Time>
            <Position>
              <LatitudeDegrees>-15.46766228042542934417724609375</LatitudeDegrees>
              <LongitudeDegrees>37.0023334957659244537353515625</LongitudeDegrees>
            </Position>
            <AltitudeMeters>677</AltitudeMeters>
            <DistanceMeters>NAN</DistanceMeters>
          </Trackpoint>
          <Trackpoint>
            <Time>2021-08-03T13:37:19.000Z</Time>
            <Position>
              <LatitudeDegrees>-15.46766026876866817474365234375</LatitudeDegrees>
              <LongitudeDegrees>37.0022252015769481658935546875</LongitudeDegrees>
            </Position>
            <AltitudeMeters>676.79998779296875</AltitudeMeters>
            <DistanceMeters>NAN</DistanceMeters>
          </Trackpoint>
          <Trackpoint>
            <Time>2021-08-03T13:37:27.000Z</Time>
            <Position>
              <LatitudeDegrees>-15.467655658721923828125</LatitudeDegrees>
              <LongitudeDegrees>37.00211833231151103973388671875</LongitudeDegrees>
            </Position>
            <AltitudeMeters>675.79998779296875</AltitudeMeters>
            <DistanceMeters>NAN</DistanceMeters>
          </Trackpoint>
          <Trackpoint>
            <Time>2021-08-03T13:37:30.000Z</Time>
            <Position>
              <LatitudeDegrees>-15.46764953993260860443115234375</LatitudeDegrees>
              <LongitudeDegrees>37.00207675807178020477294921875</LongitudeDegrees>
            </Position>
            <AltitudeMeters>675.79998779296875</AltitudeMeters>
            <DistanceMeters>NAN</DistanceMeters>
          </Trackpoint>
          <Trackpoint>
            <Time>2021-08-03T13:37:43.000Z</Time>
            <Position>
              <LatitudeDegrees>-15.46762607060372829437255859375</LatitudeDegrees>
              <LongitudeDegrees>37.00190627016127109527587890625</LongitudeDegrees>
            </Position>
            <AltitudeMeters>675</AltitudeMeters>
            <DistanceMeters>NAN</DistanceMeters>
          </Trackpoint>
          <Trackpoint>
            <Time>2021-08-03T13:37:45.000Z</Time>
            <Position>
              <LatitudeDegrees>-15.467610396444797515869140625</LatitudeDegrees>
              <LongitudeDegrees>37.00187911279499530792236328125</LongitudeDegrees>
            </Position>
            <AltitudeMeters>674.79998779296875</AltitudeMeters>
            <DistanceMeters>NAN</DistanceMeters>
          </Trackpoint>
          <Trackpoint>
            <Time>2021-08-03T13:37:50.000Z</Time>
            <Position>
              <LatitudeDegrees>-15.4675857536494731903076171875</LatitudeDegrees>
              <LongitudeDegrees>37.00182395987212657928466796875</LongitudeDegrees>
            </Position>
            <AltitudeMeters>674.79998779296875</AltitudeMeters>
            <DistanceMeters>NAN</DistanceMeters>
          </Trackpoint>
          <Trackpoint>
            <Time>2021-08-03T13:37:51.000Z</Time>
            <Position>
              <LatitudeDegrees>-15.467582233250141143798828125</LatitudeDegrees>
              <LongitudeDegrees>37.0018148235976696014404296875</LongitudeDegrees>
            </Position>
            <AltitudeMeters>674.79998779296875</AltitudeMeters>
            <DistanceMeters>NAN</DistanceMeters>
          </Trackpoint>
          <Trackpoint>
            <Time>2021-08-03T13:38:02.000Z</Time>
            <Position>
              <LatitudeDegrees>-15.46749279834330081939697265625</LatitudeDegrees>
              <LongitudeDegrees>37.001699991524219512939453125</LongitudeDegrees>
            </Position>
            <AltitudeMeters>674.20001220703125</AltitudeMeters>
            <DistanceMeters>NAN</DistanceMeters>
          </Trackpoint>
          <Trackpoint>
            <Time>2021-08-03T13:38:08.000Z</Time>
            <Position>
              <LatitudeDegrees>-15.4674518108367919921875</LatitudeDegrees>
              <LongitudeDegrees>37.00164307840168476104736328125</LongitudeDegrees>
            </Position>
            <AltitudeMeters>673.79998779296875</AltitudeMeters>
            <DistanceMeters>NAN</DistanceMeters>
          </Trackpoint>
          <Trackpoint>
            <Time>2021-08-03T13:38:10.000Z</Time>
            <Position>
              <LatitudeDegrees>-15.46743462793529033660888671875</LatitudeDegrees>
              <LongitudeDegrees>37.00162732042372226715087890625</LongitudeDegrees>
            </Position>
            <AltitudeMeters>673.5999755859375</AltitudeMeters>
            <DistanceMeters>NAN</DistanceMeters>
          </Trackpoint>
          <Trackpoint>
            <Time>2021-08-03T13:38:13.000Z</Time>
            <Position>
              <LatitudeDegrees>-15.46740897931158542633056640625</LatitudeDegrees>
              <LongitudeDegrees>37.0015995763242244720458984375</LongitudeDegrees>
            </Position>
            <AltitudeMeters>673.4000244140625</AltitudeMeters>
            <DistanceMeters>NAN</DistanceMeters>
          </Trackpoint>
          <Trackpoint>
            <Time>2021-08-03T13:38:17.000Z</Time>
            <Position>
              <LatitudeDegrees>-15.46740797348320484161376953125</LatitudeDegrees>
              <LongitudeDegrees>37.00158574618399143218994140625</LongitudeDegrees>
            </Position>
            <AltitudeMeters>673.20001220703125</AltitudeMeters>
            <DistanceMeters>NAN</DistanceMeters>
          </Trackpoint>
          <Trackpoint>
            <Time>2021-08-03T13:38:20.000Z</Time>
            <Position>
              <LatitudeDegrees>-15.46740847639739513397216796875</LatitudeDegrees>
              <LongitudeDegrees>37.00155825354158878326416015625</LongitudeDegrees>
            </Position>
            <AltitudeMeters>673</AltitudeMeters>
            <DistanceMeters>NAN</DistanceMeters>
          </Trackpoint>
          <Trackpoint>
            <Time>2021-08-03T13:38:21.000Z</Time>
            <Position>
              <LatitudeDegrees>-15.46740931458771228790283203125</LatitudeDegrees>
              <LongitudeDegrees>37.00154869817197322845458984375</LongitudeDegrees>
            </Position>
            <AltitudeMeters>672.5999755859375</AltitudeMeters>
            <DistanceMeters>NAN</DistanceMeters>
          </Trackpoint>
          <Trackpoint>
            <Time>2021-08-03T13:38:23.000Z</Time>
            <Position>
              <LatitudeDegrees>-15.46740998513996601104736328125</LatitudeDegrees>
              <LongitudeDegrees>37.00153377838432788848876953125</LongitudeDegrees>
            </Position>
            <AltitudeMeters>672.4000244140625</AltitudeMeters>
            <DistanceMeters>NAN</DistanceMeters>
          </Trackpoint>
          <Trackpoint>
            <Time>2021-08-03T13:38:26.000Z</Time>
            <Position>
              <LatitudeDegrees>-15.467411912977695465087890625</LatitudeDegrees>
              <LongitudeDegrees>37.0015170983970165252685546875</LongitudeDegrees>
            </Position>
            <AltitudeMeters>672</AltitudeMeters>
            <DistanceMeters>NAN</DistanceMeters>
          </Trackpoint>
          <Trackpoint>
            <Time>2021-08-03T13:38:28.000Z</Time>
            <Position>
              <LatitudeDegrees>-15.4674207977950572967529296875</LatitudeDegrees>
              <LongitudeDegrees>37.00149782001972198486328125</LongitudeDegrees>
            </Position>
            <AltitudeMeters>671.4000244140625</AltitudeMeters>
            <DistanceMeters>NAN</DistanceMeters>
          </Trackpoint>
          <Trackpoint>
            <Time>2021-08-03T13:38:32.000Z</Time>
            <Position>
              <LatitudeDegrees>-15.467433035373687744140625</LatitudeDegrees>
              <LongitudeDegrees>37.001451216638088226318359375</LongitudeDegrees>
            </Position>
            <AltitudeMeters>670.79998779296875</AltitudeMeters>
            <DistanceMeters>NAN</DistanceMeters>
          </Trackpoint>
          <Trackpoint>
            <Time>2021-08-03T13:38:33.000Z</Time>
            <Position>
              <LatitudeDegrees>-15.46743462793529033660888671875</LatitudeDegrees>
              <LongitudeDegrees>37.00143805705010890960693359375</LongitudeDegrees>
            </Position>
            <AltitudeMeters>670.79998779296875</AltitudeMeters>
            <DistanceMeters>NAN</DistanceMeters>
          </Trackpoint>
          <Trackpoint>
            <Time>2021-08-03T13:38:34.000Z</Time>
            <Position>
              <LatitudeDegrees>-15.46743479557335376739501953125</LatitudeDegrees>
              <LongitudeDegrees>37.00142271816730499267578125</LongitudeDegrees>
            </Position>
            <AltitudeMeters>670.4000244140625</AltitudeMeters>
            <DistanceMeters>NAN</DistanceMeters>
          </Trackpoint>
          <Trackpoint>
            <Time>2021-08-03T13:38:36.000Z</Time>
            <Position>
              <LatitudeDegrees>-15.4674399085342884063720703125</LatitudeDegrees>
              <LongitudeDegrees>37.00140117667615413665771484375</LongitudeDegrees>
            </Position>
            <AltitudeMeters>670</AltitudeMeters>
            <DistanceMeters>NAN</DistanceMeters>
          </Trackpoint>
          <Trackpoint>
            <Time>2021-08-03T13:38:39.000Z</Time>
            <Position>
              <LatitudeDegrees>-15.4674516431987285614013671875</LatitudeDegrees>
              <LongitudeDegrees>37.0013786293566226959228515625</LongitudeDegrees>
            </Position>
            <AltitudeMeters>669.79998779296875</AltitudeMeters>
            <DistanceMeters>NAN</DistanceMeters>
          </Trackpoint>
          <Trackpoint>
            <Time>2021-08-03T13:38:41.000Z</Time>
            <Position>
              <LatitudeDegrees>-15.46746228821575641632080078125</LatitudeDegrees>
              <LongitudeDegrees>37.00136463157832622528076171875</LongitudeDegrees>
            </Position>
            <AltitudeMeters>669.20001220703125</AltitudeMeters>
            <DistanceMeters>NAN</DistanceMeters>
          </Trackpoint>
          <Trackpoint>
            <Time>2021-08-03T13:38:46.000Z</Time>
            <Position>
              <LatitudeDegrees>-15.46748542226850986480712890625</LatitudeDegrees>
              <LongitudeDegrees>37.001323811709880828857421875</LongitudeDegrees>
            </Position>
            <AltitudeMeters>667.79998779296875</AltitudeMeters>
            <DistanceMeters>NAN</DistanceMeters>
          </Trackpoint>
          <Trackpoint>
            <Time>2021-08-03T13:38:47.000Z</Time>
            <Position>
              <LatitudeDegrees>-15.4674865119159221649169921875</LatitudeDegrees>
              <LongitudeDegrees>37.00131199322640895843505859375</LongitudeDegrees>
            </Position>
            <AltitudeMeters>667.79998779296875</AltitudeMeters>
            <DistanceMeters>NAN</DistanceMeters>
          </Trackpoint>
          <Trackpoint>
            <Time>2021-08-03T13:38:54.000Z</Time>
            <Position>
              <LatitudeDegrees>-15.46745206229388713836669921875</LatitudeDegrees>
              <LongitudeDegrees>37.00124342925846576690673828125</LongitudeDegrees>
            </Position>
            <AltitudeMeters>667</AltitudeMeters>
            <DistanceMeters>NAN</DistanceMeters>
          </Trackpoint>
          <Trackpoint>
            <Time>2021-08-03T13:38:55.000Z</Time>
            <Position>
              <LatitudeDegrees>-15.46744720079004764556884765625</LatitudeDegrees>
              <LongitudeDegrees>37.00123504735529422760009765625</LongitudeDegrees>
            </Position>
            <AltitudeMeters>667</AltitudeMeters>
            <DistanceMeters>NAN</DistanceMeters>
          </Trackpoint>
          <Trackpoint>
            <Time>2021-08-03T13:38:57.000Z</Time>
            <Position>
              <LatitudeDegrees>-15.46743915416300296783447265625</LatitudeDegrees>
              <LongitudeDegrees>37.00121887028217315673828125</LongitudeDegrees>
            </Position>
            <AltitudeMeters>666.5999755859375</AltitudeMeters>
            <DistanceMeters>NAN</DistanceMeters>
          </Trackpoint>
          <Trackpoint>
            <Time>2021-08-03T13:39:09.000Z</Time>
            <Position>
              <LatitudeDegrees>-15.467358939349651336669921875</LatitudeDegrees>
              <LongitudeDegrees>37.001095153391361236572265625</LongitudeDegrees>
            </Position>
            <AltitudeMeters>665.5999755859375</AltitudeMeters>
            <DistanceMeters>NAN</DistanceMeters>
          </Trackpoint>
          <Trackpoint>
            <Time>2021-08-03T13:39:10.000Z</Time>
            <Position>
              <LatitudeDegrees>-15.4673513956367969512939453125</LatitudeDegrees>
              <LongitudeDegrees>37.00108400546014308929443359375</LongitudeDegrees>
            </Position>
            <AltitudeMeters>665.5999755859375</AltitudeMeters>
            <DistanceMeters>NAN</DistanceMeters>
          </Trackpoint>
          <Trackpoint>
            <Time>2021-08-03T13:39:17.000Z</Time>
            <Position>
              <LatitudeDegrees>-15.46730202622711658477783203125</LatitudeDegrees>
              <LongitudeDegrees>37.00101527385413646697998046875</LongitudeDegrees>
            </Position>
            <AltitudeMeters>664.4000244140625</AltitudeMeters>
            <DistanceMeters>NAN</DistanceMeters>
          </Trackpoint>
          <Trackpoint>
            <Time>2021-08-03T13:39:20.000Z</Time>
            <Position>
              <LatitudeDegrees>-15.46728459186851978302001953125</LatitudeDegrees>
              <LongitudeDegrees>37.000989206135272979736328125</LongitudeDegrees>
            </Position>
            <AltitudeMeters>663.79998779296875</AltitudeMeters>
            <DistanceMeters>NAN</DistanceMeters>
          </Trackpoint>
          <Trackpoint>
            <Time>2021-08-03T13:39:24.000Z</Time>
            <Position>
              <LatitudeDegrees>-15.4672625474631786346435546875</LatitudeDegrees>
              <LongitudeDegrees>37.0009488053619861602783203125</LongitudeDegrees>
            </Position>
            <AltitudeMeters>663.20001220703125</AltitudeMeters>
            <DistanceMeters>NAN</DistanceMeters>
          </Trackpoint>
          <Trackpoint>
            <Time>2021-08-03T13:39:26.000Z</Time>
            <Position>
              <LatitudeDegrees>-15.46725173480808734893798828125</LatitudeDegrees>
              <LongitudeDegrees>37.000931203365325927734375</LongitudeDegrees>
            </Position>
            <AltitudeMeters>662.79998779296875</AltitudeMeters>
            <DistanceMeters>NAN</DistanceMeters>
          </Trackpoint>
          <Trackpoint>
            <Time>2021-08-03T13:39:28.000Z</Time>
            <Position>
              <LatitudeDegrees>-15.46724796295166015625</LatitudeDegrees>
              <LongitudeDegrees>37.00091309845447540283203125</LongitudeDegrees>
            </Position>
            <AltitudeMeters>662.4000244140625</AltitudeMeters>
            <DistanceMeters>NAN</DistanceMeters>
          </Trackpoint>
          <Trackpoint>
            <Time>2021-08-03T13:39:30.000Z</Time>
            <Position>
              <LatitudeDegrees>-15.467248298227787017822265625</LatitudeDegrees>
              <LongitudeDegrees>37.00089222751557826995849609375</LongitudeDegrees>
            </Position>
            <AltitudeMeters>662.20001220703125</AltitudeMeters>
            <DistanceMeters>NAN</DistanceMeters>
          </Trackpoint>
          <Trackpoint>
            <Time>2021-08-03T13:39:34.000Z</Time>
            <Position>
              <LatitudeDegrees>-15.467231534421443939208984375</LatitudeDegrees>
              <LongitudeDegrees>37.00086389668285846710205078125</LongitudeDegrees>
            </Position>
            <AltitudeMeters>661.20001220703125</AltitudeMeters>
            <DistanceMeters>NAN</DistanceMeters>
          </Trackpoint>
          <Trackpoint>
            <Time>2021-08-03T13:39:37.000Z</Time>
            <Position>
              <LatitudeDegrees>-15.4672197997570037841796875</LatitudeDegrees>
              <LongitudeDegrees>37.00084445066750049591064453125</LongitudeDegrees>
            </Position>
            <AltitudeMeters>660.4000244140625</AltitudeMeters>
            <DistanceMeters>NAN</DistanceMeters>
          </Trackpoint>
          <Trackpoint>
            <Time>2021-08-03T13:39:39.000Z</Time>
            <Position>
              <LatitudeDegrees>-15.46721653081476688385009765625</LatitudeDegrees>
              <LongitudeDegrees>37.00083254836499691009521484375</LongitudeDegrees>
            </Position>
            <AltitudeMeters>660</AltitudeMeters>
            <DistanceMeters>NAN</DistanceMeters>
          </Trackpoint>
          <Trackpoint>
            <Time>2021-08-03T13:39:41.000Z</Time>
            <Position>
              <LatitudeDegrees>-15.46721083112061023712158203125</LatitudeDegrees>
              <LongitudeDegrees>37.0008225739002227783203125</LongitudeDegrees>
            </Position>
            <AltitudeMeters>659.79998779296875</AltitudeMeters>
            <DistanceMeters>NAN</DistanceMeters>
          </Trackpoint>
          <Trackpoint>
            <Time>2021-08-03T13:39:43.000Z</Time>
            <Position>
              <LatitudeDegrees>-15.46720546670258045196533203125</LatitudeDegrees>
              <LongitudeDegrees>37.0008126832544803619384765625</LongitudeDegrees>
            </Position>
            <AltitudeMeters>659.5999755859375</AltitudeMeters>
            <DistanceMeters>NAN</DistanceMeters>
          </Trackpoint>
          <Trackpoint>
            <Time>2021-08-03T13:39:45.000Z</Time>
            <Position>
              <LatitudeDegrees>-15.4671975038945674896240234375</LatitudeDegrees>
              <LongitudeDegrees>37.00079818256199359893798828125</LongitudeDegrees>
            </Position>
            <AltitudeMeters>659</AltitudeMeters>
            <DistanceMeters>NAN</DistanceMeters>
          </Trackpoint>
          <Trackpoint>
            <Time>2021-08-03T13:39:46.000Z</Time>
            <Position>
              <LatitudeDegrees>-15.46719205565750598907470703125</LatitudeDegrees>
              <LongitudeDegrees>37.00078913010656833648681640625</LongitudeDegrees>
            </Position>
            <AltitudeMeters>658.5999755859375</AltitudeMeters>
            <DistanceMeters>NAN</DistanceMeters>
          </Trackpoint>
          <Trackpoint>
            <Time>2021-08-03T13:39:50.000Z</Time>
            <Position>
              <LatitudeDegrees>-15.46717110089957714080810546875</LatitudeDegrees>
              <LongitudeDegrees>37.0007556863129138946533203125</LongitudeDegrees>
            </Position>
            <AltitudeMeters>657.79998779296875</AltitudeMeters>
            <DistanceMeters>NAN</DistanceMeters>
          </Trackpoint>
          <Trackpoint>
            <Time>2021-08-03T13:39:54.000Z</Time>
            <Position>
              <LatitudeDegrees>-15.46713371761143207550048828125</LatitudeDegrees>
              <LongitudeDegrees>37.00072458945214748382568359375</LongitudeDegrees>
            </Position>
            <AltitudeMeters>657.20001220703125</AltitudeMeters>
            <DistanceMeters>NAN</DistanceMeters>
          </Trackpoint>
          <Trackpoint>
            <Time>2021-08-03T13:40:02.000Z</Time>
            <Position>
              <LatitudeDegrees>-15.46706548891961574554443359375</LatitudeDegrees>
              <LongitudeDegrees>37.0006544329226016998291015625</LongitudeDegrees>
            </Position>
            <AltitudeMeters>656.79998779296875</AltitudeMeters>
            <DistanceMeters>NAN</DistanceMeters>
          </Trackpoint>
          <Trackpoint>
            <Time>2021-08-03T13:40:05.000Z</Time>
            <Position>
              <LatitudeDegrees>-15.46704788692295551300048828125</LatitudeDegrees>
              <LongitudeDegrees>37.0006219111382961273193359375</LongitudeDegrees>
            </Position>
            <AltitudeMeters>656.79998779296875</AltitudeMeters>
            <DistanceMeters>NAN</DistanceMeters>
          </Trackpoint>
          <Trackpoint>
            <Time>2021-08-03T13:40:16.000Z</Time>
            <Position>
              <LatitudeDegrees>-15.46698175370693206787109375</LatitudeDegrees>
              <LongitudeDegrees>37.0004985295236110687255859375</LongitudeDegrees>
            </Position>
            <AltitudeMeters>656</AltitudeMeters>
            <DistanceMeters>NAN</DistanceMeters>
          </Trackpoint>
          <Trackpoint>
            <Time>2021-08-03T13:40:23.000Z</Time>
            <Position>
              <LatitudeDegrees>-15.46695065684616565704345703125</LatitudeDegrees>
              <LongitudeDegrees>37.00042317621409893035888671875</LongitudeDegrees>
            </Position>
            <AltitudeMeters>655.5999755859375</AltitudeMeters>
            <DistanceMeters>NAN</DistanceMeters>
          </Trackpoint>
          <Trackpoint>
            <Time>2021-08-03T13:40:26.000Z</Time>
            <Position>
              <LatitudeDegrees>-15.46693506650626659393310546875</LatitudeDegrees>
              <LongitudeDegrees>37.00039534829556941986083984375</LongitudeDegrees>
            </Position>
            <AltitudeMeters>655.5999755859375</AltitudeMeters>
            <DistanceMeters>NAN</DistanceMeters>
          </Trackpoint>
          <Trackpoint>
            <Time>2021-08-03T13:40:28.000Z</Time>
            <Position>
              <LatitudeDegrees>-15.46693607233464717864990234375</LatitudeDegrees>
              <LongitudeDegrees>37.00038897804915904998779296875</LongitudeDegrees>
            </Position>
            <AltitudeMeters>655.5999755859375</AltitudeMeters>
            <DistanceMeters>NAN</DistanceMeters>
          </Trackpoint>
          <Trackpoint>
            <Time>2021-08-03T13:40:31.000Z</Time>
            <Position>
              <LatitudeDegrees>-15.46695602126419544219970703125</LatitudeDegrees>
              <LongitudeDegrees>37.000376991927623748779296875</LongitudeDegrees>
            </Position>
            <AltitudeMeters>655.79998779296875</AltitudeMeters>
            <DistanceMeters>NAN</DistanceMeters>
          </Trackpoint>
          <Trackpoint>
            <Time>2021-08-03T13:40:35.000Z</Time>
            <Position>
              <LatitudeDegrees>-15.466979406774044036865234375</LatitudeDegrees>
              <LongitudeDegrees>37.00035880319774150848388671875</LongitudeDegrees>
            </Position>
            <AltitudeMeters>656</AltitudeMeters>
            <DistanceMeters>NAN</DistanceMeters>
          </Trackpoint>
          <Trackpoint>
            <Time>2021-08-03T13:40:37.000Z</Time>
            <Position>
              <LatitudeDegrees>-15.46697680838406085968017578125</LatitudeDegrees>
              <LongitudeDegrees>37.0003523491322994232177734375</LongitudeDegrees>
            </Position>
            <AltitudeMeters>656</AltitudeMeters>
            <DistanceMeters>NAN</DistanceMeters>
          </Trackpoint>
          <Trackpoint>
            <Time>2021-08-03T13:40:48.000Z</Time>
            <Position>
              <LatitudeDegrees>-15.4669918119907379150390625</LatitudeDegrees>
              <LongitudeDegrees>37.00037003494799137115478515625</LongitudeDegrees>
            </Position>
            <AltitudeMeters>656</AltitudeMeters>
            <DistanceMeters>NAN</DistanceMeters>
          </Trackpoint>
          <Trackpoint>
            <Time>2021-08-03T13:40:50.000Z</Time>
            <Position>
              <LatitudeDegrees>-15.46701368875801563262939453125</LatitudeDegrees>
              <LongitudeDegrees>37.00038512237370014190673828125</LongitudeDegrees>
            </Position>
            <AltitudeMeters>655.79998779296875</AltitudeMeters>
            <DistanceMeters>NAN</DistanceMeters>
          </Trackpoint>
          <Trackpoint>
            <Time>2021-08-03T13:40:51.000Z</Time>
            <Position>
              <LatitudeDegrees>-15.4670266807079315185546875</LatitudeDegrees>
              <LongitudeDegrees>37.00038847513496875762939453125</LongitudeDegrees>
            </Position>
            <AltitudeMeters>655.79998779296875</AltitudeMeters>
            <DistanceMeters>NAN</DistanceMeters>
          </Trackpoint>
          <Trackpoint>
            <Time>2021-08-03T13:40:52.000Z</Time>
            <Position>
              <LatitudeDegrees>-15.4670385830104351043701171875</LatitudeDegrees>
              <LongitudeDegrees>37.00039166025817394256591796875</LongitudeDegrees>
            </Position>
            <AltitudeMeters>655.79998779296875</AltitudeMeters>
            <DistanceMeters>NAN</DistanceMeters>
          </Trackpoint>
          <Trackpoint>
            <Time>2021-08-03T13:40:54.000Z</Time>
            <Position>
              <LatitudeDegrees>-15.467060543596744537353515625</LatitudeDegrees>
              <LongitudeDegrees>37.0003949292004108428955078125</LongitudeDegrees>
            </Position>
            <AltitudeMeters>655.79998779296875</AltitudeMeters>
            <DistanceMeters>NAN</DistanceMeters>
          </Trackpoint>
          <Trackpoint>
            <Time>2021-08-03T13:40:55.000Z</Time>
            <Position>
              <LatitudeDegrees>-15.467075295746326446533203125</LatitudeDegrees>
              <LongitudeDegrees>37.000391744077205657958984375</LongitudeDegrees>
            </Position>
            <AltitudeMeters>655.79998779296875</AltitudeMeters>
            <DistanceMeters>NAN</DistanceMeters>
          </Trackpoint>
          <Trackpoint>
            <Time>2021-08-03T13:40:58.000Z</Time>
            <Position>
              <LatitudeDegrees>-15.46711276285350322723388671875</LatitudeDegrees>
              <LongitudeDegrees>37.00038411654531955718994140625</LongitudeDegrees>
            </Position>
            <AltitudeMeters>655.79998779296875</AltitudeMeters>
            <DistanceMeters>NAN</DistanceMeters>
          </Trackpoint>
          <Trackpoint>
            <Time>2021-08-03T13:41:01.000Z</Time>
            <Position>
              <LatitudeDegrees>-15.46714427880942821502685546875</LatitudeDegrees>
              <LongitudeDegrees>37.000389732420444488525390625</LongitudeDegrees>
            </Position>
            <AltitudeMeters>655.4000244140625</AltitudeMeters>
            <DistanceMeters>NAN</DistanceMeters>
          </Trackpoint>
          <Trackpoint>
            <Time>2021-08-03T13:41:03.000Z</Time>
            <Position>
              <LatitudeDegrees>-15.467167831957340240478515625</LatitudeDegrees>
              <LongitudeDegrees>37.000397108495235443115234375</LongitudeDegrees>
            </Position>
            <AltitudeMeters>655.5999755859375</AltitudeMeters>
            <DistanceMeters>NAN</DistanceMeters>
          </Trackpoint>
          <Trackpoint>
            <Time>2021-08-03T13:41:09.000Z</Time>
            <Position>
              <LatitudeDegrees>-15.46721468679606914520263671875</LatitudeDegrees>
              <LongitudeDegrees>37.00043834745883941650390625</LongitudeDegrees>
            </Position>
            <AltitudeMeters>655.5999755859375</AltitudeMeters>
            <DistanceMeters>NAN</DistanceMeters>
          </Trackpoint>
          <Trackpoint>
            <Time>2021-08-03T13:41:10.000Z</Time>
            <Position>
              <LatitudeDegrees>-15.46722206287086009979248046875</LatitudeDegrees>
              <LongitudeDegrees>37.00044773519039154052734375</LongitudeDegrees>
            </Position>
            <AltitudeMeters>655.5999755859375</AltitudeMeters>
            <DistanceMeters>NAN</DistanceMeters>
          </Trackpoint>
          <Trackpoint>
            <Time>2021-08-03T13:41:18.000Z</Time>
            <Position>
              <LatitudeDegrees>-15.467288196086883544921875</LatitudeDegrees>
              <LongitudeDegrees>37.0005069114267826080322265625</LongitudeDegrees>
            </Position>
            <AltitudeMeters>655.4000244140625</AltitudeMeters>
            <DistanceMeters>NAN</DistanceMeters>
          </Trackpoint>
          <Trackpoint>
            <Time>2021-08-03T13:41:25.000Z</Time>
            <Position>
              <LatitudeDegrees>-15.46735432930290699005126953125</LatitudeDegrees>
              <LongitudeDegrees>37.00050565414130687713623046875</LongitudeDegrees>
            </Position>
            <AltitudeMeters>655.5999755859375</AltitudeMeters>
            <DistanceMeters>NAN</DistanceMeters>
          </Trackpoint>
          <Trackpoint>
            <Time>2021-08-03T13:41:27.000Z</Time>
            <Position>
              <LatitudeDegrees>-15.46737394295632839202880859375</LatitudeDegrees>
              <LongitudeDegrees>37.0004968531429767608642578125</LongitudeDegrees>
            </Position>
            <AltitudeMeters>655.79998779296875</AltitudeMeters>
            <DistanceMeters>NAN</DistanceMeters>
          </Trackpoint>
          <Trackpoint>
            <Time>2021-08-03T13:41:28.000Z</Time>
            <Position>
              <LatitudeDegrees>-15.4673834145069122314453125</LatitudeDegrees>
              <LongitudeDegrees>37.0004931651055812835693359375</LongitudeDegrees>
            </Position>
            <AltitudeMeters>655.79998779296875</AltitudeMeters>
            <DistanceMeters>NAN</DistanceMeters>
          </Trackpoint>
          <Trackpoint>
            <Time>2021-08-03T13:41:30.000Z</Time>
            <Position>
              <LatitudeDegrees>-15.467395819723606109619140625</LatitudeDegrees>
              <LongitudeDegrees>37.00049106962978839874267578125</LongitudeDegrees>
            </Position>
            <AltitudeMeters>656</AltitudeMeters>
            <DistanceMeters>NAN</DistanceMeters>
          </Trackpoint>
          <Trackpoint>
            <Time>2021-08-03T13:41:31.000Z</Time>
            <Position>
              <LatitudeDegrees>-15.46739925630390644073486328125</LatitudeDegrees>
              <LongitudeDegrees>37.0004914887249469757080078125</LongitudeDegrees>
            </Position>
            <AltitudeMeters>656</AltitudeMeters>
            <DistanceMeters>NAN</DistanceMeters>
          </Trackpoint>
          <Trackpoint>
            <Time>2021-08-03T13:41:32.000Z</Time>
            <Position>
              <LatitudeDegrees>-15.4674021899700164794921875</LatitudeDegrees>
              <LongitudeDegrees>37.00049190782010555267333984375</LongitudeDegrees>
            </Position>
            <AltitudeMeters>656</AltitudeMeters>
            <DistanceMeters>NAN</DistanceMeters>
          </Trackpoint>
          <Trackpoint>
            <Time>2021-08-03T13:41:33.000Z</Time>
            <Position>
              <LatitudeDegrees>-15.46740260906517505645751953125</LatitudeDegrees>
              <LongitudeDegrees>37.0004918240010738372802734375</LongitudeDegrees>
            </Position>
            <AltitudeMeters>656</AltitudeMeters>
            <DistanceMeters>NAN</DistanceMeters>
          </Trackpoint>
          <Trackpoint>
            <Time>2021-08-03T13:41:35.000Z</Time>
            <Position>
              <LatitudeDegrees>-15.467403195798397064208984375</LatitudeDegrees>
              <LongitudeDegrees>37.000490985810756683349609375</LongitudeDegrees>
            </Position>
            <AltitudeMeters>655.79998779296875</AltitudeMeters>
            <DistanceMeters>NAN</DistanceMeters>
          </Trackpoint>
          <Trackpoint>
            <Time>2021-08-03T13:41:37.000Z</Time>
            <Position>
              <LatitudeDegrees>-15.467403195798397064208984375</LatitudeDegrees>
              <LongitudeDegrees>37.00048637576401233673095703125</LongitudeDegrees>
            </Position>
            <AltitudeMeters>655.79998779296875</AltitudeMeters>
            <DistanceMeters>NAN</DistanceMeters>
          </Trackpoint>
          <Trackpoint>
            <Time>2021-08-03T13:41:40.000Z</Time>
            <Position>
              <LatitudeDegrees>-15.46740478835999965667724609375</LatitudeDegrees>
              <LongitudeDegrees>37.00048184953629970550537109375</LongitudeDegrees>
            </Position>
            <AltitudeMeters>656.20001220703125</AltitudeMeters>
            <DistanceMeters>NAN</DistanceMeters>
          </Trackpoint>
          <Trackpoint>
            <Time>2021-08-03T13:41:43.000Z</Time>
            <Position>
              <LatitudeDegrees>-15.4674070514738559722900390625</LatitudeDegrees>
              <LongitudeDegrees>37.00047983787953853607177734375</LongitudeDegrees>
            </Position>
            <AltitudeMeters>656.20001220703125</AltitudeMeters>
            <DistanceMeters>NAN</DistanceMeters>
          </Trackpoint>
          <Trackpoint>
            <Time>2021-08-03T13:41:53.000Z</Time>
            <Position>
              <LatitudeDegrees>-15.4674070514738559722900390625</LatitudeDegrees>
              <LongitudeDegrees>37.0004817657172679901123046875</LongitudeDegrees>
            </Position>
            <AltitudeMeters>656.20001220703125</AltitudeMeters>
            <DistanceMeters>NAN</DistanceMeters>
          </Trackpoint>
          <Trackpoint>
            <Time>2021-08-03T13:41:57.000Z</Time>
            <Position>
              <LatitudeDegrees>-15.4674070514738559722900390625</LatitudeDegrees>
              <LongitudeDegrees>37.00048369355499744415283203125</LongitudeDegrees>
            </Position>
            <AltitudeMeters>656.20001220703125</AltitudeMeters>
            <DistanceMeters>NAN</DistanceMeters>
          </Trackpoint>
          <Trackpoint>
            <Time>2021-08-03T13:42:23.000Z</Time>
            <Position>
              <LatitudeDegrees>-15.4674321971833705902099609375</LatitudeDegrees>
              <LongitudeDegrees>37.00050179846584796905517578125</LongitudeDegrees>
            </Position>
            <AltitudeMeters>656.20001220703125</AltitudeMeters>
            <DistanceMeters>NAN</DistanceMeters>
          </Trackpoint>
          <Trackpoint>
            <Time>2021-08-03T13:42:27.000Z</Time>
            <Position>
              <LatitudeDegrees>-15.4674335382878780364990234375</LatitudeDegrees>
              <LongitudeDegrees>37.00049743987619876861572265625</LongitudeDegrees>
            </Position>
            <AltitudeMeters>656.20001220703125</AltitudeMeters>
            <DistanceMeters>NAN</DistanceMeters>
          </Trackpoint>
          <Trackpoint>
            <Time>2021-08-03T13:42:33.000Z</Time>
            <Position>
              <LatitudeDegrees>-15.46743043698370456695556640625</LatitudeDegrees>
              <LongitudeDegrees>37.0004881359636783599853515625</LongitudeDegrees>
            </Position>
            <AltitudeMeters>656.20001220703125</AltitudeMeters>
            <DistanceMeters>NAN</DistanceMeters>
          </Trackpoint>
          <Trackpoint>
            <Time>2021-08-03T13:42:35.000Z</Time>
            <Position>
              <LatitudeDegrees>-15.46740076504647731781005859375</LatitudeDegrees>
              <LongitudeDegrees>37.00048771686851978302001953125</LongitudeDegrees>
            </Position>
            <AltitudeMeters>656.20001220703125</AltitudeMeters>
            <DistanceMeters>NAN</DistanceMeters>
          </Trackpoint>
          <Trackpoint>
            <Time>2021-08-03T13:42:36.000Z</Time>
            <Position>
              <LatitudeDegrees>-15.46737226657569408416748046875</LatitudeDegrees>
              <LongitudeDegrees>37.000487633049488067626953125</LongitudeDegrees>
            </Position>
            <AltitudeMeters>656.20001220703125</AltitudeMeters>
            <DistanceMeters>NAN</DistanceMeters>
          </Trackpoint>
          <Trackpoint>
            <Time>2021-08-03T13:42:46.000Z</Time>
            <Position>
              <LatitudeDegrees>-15.4672414250671863555908203125</LatitudeDegrees>
              <LongitudeDegrees>37.0004492439329624176025390625</LongitudeDegrees>
            </Position>
            <AltitudeMeters>656</AltitudeMeters>
            <DistanceMeters>NAN</DistanceMeters>
          </Trackpoint>
          <Trackpoint>
            <Time>2021-08-03T13:42:53.000Z</Time>
            <Position>
              <LatitudeDegrees>-15.4671814106404781341552734375</LatitudeDegrees>
              <LongitudeDegrees>37.00038344599306583404541015625</LongitudeDegrees>
            </Position>
            <AltitudeMeters>656.20001220703125</AltitudeMeters>
            <DistanceMeters>NAN</DistanceMeters>
          </Trackpoint>
          <Trackpoint>
            <Time>2021-08-03T13:43:01.000Z</Time>
            <Position>
              <LatitudeDegrees>-15.4670898802578449249267578125</LatitudeDegrees>
              <LongitudeDegrees>37.00036366470158100128173828125</LongitudeDegrees>
            </Position>
            <AltitudeMeters>656.4000244140625</AltitudeMeters>
            <DistanceMeters>NAN</DistanceMeters>
          </Trackpoint>
          <Trackpoint>
            <Time>2021-08-03T13:43:08.000Z</Time>
            <Position>
              <LatitudeDegrees>-15.4670167900621891021728515625</LatitudeDegrees>
              <LongitudeDegrees>37.00037799775600433349609375</LongitudeDegrees>
            </Position>
            <AltitudeMeters>656.5999755859375</AltitudeMeters>
            <DistanceMeters>NAN</DistanceMeters>
          </Trackpoint>
          <Trackpoint>
            <Time>2021-08-03T13:43:09.000Z</Time>
            <Position>
              <LatitudeDegrees>-15.4670167900621891021728515625</LatitudeDegrees>
              <LongitudeDegrees>37.00037799775600433349609375</LongitudeDegrees>
            </Position>
            <AltitudeMeters>656.5999755859375</AltitudeMeters>
            <DistanceMeters>NAN</DistanceMeters>
          </Trackpoint>
          <Trackpoint>
            <Time>2021-08-03T13:43:12.000Z</Time>
            <Position>
              <LatitudeDegrees>-15.4669933207333087921142578125</LatitudeDegrees>
              <LongitudeDegrees>37.00037187896668910980224609375</LongitudeDegrees>
            </Position>
            <AltitudeMeters>656.5999755859375</AltitudeMeters>
            <DistanceMeters>NAN</DistanceMeters>
          </Trackpoint>
          <Trackpoint>
            <Time>2021-08-03T13:43:16.000Z</Time>
            <Position>
              <LatitudeDegrees>-15.4669664986431598663330078125</LatitudeDegrees>
              <LongitudeDegrees>37.00034690089523792266845703125</LongitudeDegrees>
            </Position>
            <AltitudeMeters>656.20001220703125</AltitudeMeters>
            <DistanceMeters>NAN</DistanceMeters>
          </Trackpoint>
          <Trackpoint>
            <Time>2021-08-03T13:43:20.000Z</Time>
            <Position>
              <LatitudeDegrees>-15.46695032157003879547119140625</LatitudeDegrees>
              <LongitudeDegrees>37.000336088240146636962890625</LongitudeDegrees>
            </Position>
            <AltitudeMeters>656</AltitudeMeters>
            <DistanceMeters>NAN</DistanceMeters>
          </Trackpoint>
          <Trackpoint>
            <Time>2021-08-03T13:43:21.000Z</Time>
            <Position>
              <LatitudeDegrees>-15.46694219112396240234375</LatitudeDegrees>
              <LongitudeDegrees>37.0003332383930683135986328125</LongitudeDegrees>
            </Position>
            <AltitudeMeters>656</AltitudeMeters>
            <DistanceMeters>NAN</DistanceMeters>
          </Trackpoint>
          <Trackpoint>
            <Time>2021-08-03T13:43:22.000Z</Time>
            <Position>
              <LatitudeDegrees>-15.4669242538511753082275390625</LatitudeDegrees>
              <LongitudeDegrees>37.00031764805316925048828125</LongitudeDegrees>
            </Position>
            <AltitudeMeters>656</AltitudeMeters>
            <DistanceMeters>NAN</DistanceMeters>
          </Trackpoint>
          <Trackpoint>
            <Time>2021-08-03T13:43:29.000Z</Time>
            <Position>
              <LatitudeDegrees>-15.4668551869690418243408203125</LatitudeDegrees>
              <LongitudeDegrees>37.00027163140475749969482421875</LongitudeDegrees>
            </Position>
            <AltitudeMeters>656.4000244140625</AltitudeMeters>
            <DistanceMeters>NAN</DistanceMeters>
          </Trackpoint>
          <Trackpoint>
            <Time>2021-08-03T13:43:37.000Z</Time>
            <Position>
              <LatitudeDegrees>-15.46679106540977954864501953125</LatitudeDegrees>
              <LongitudeDegrees>37.00022603385150432586669921875</LongitudeDegrees>
            </Position>
            <AltitudeMeters>656.79998779296875</AltitudeMeters>
            <DistanceMeters>NAN</DistanceMeters>
          </Trackpoint>
          <Trackpoint>
            <Time>2021-08-03T13:43:40.000Z</Time>
            <Position>
              <LatitudeDegrees>-15.46676675789058208465576171875</LatitudeDegrees>
              <LongitudeDegrees>37.00019359588623046875</LongitudeDegrees>
            </Position>
            <AltitudeMeters>656.79998779296875</AltitudeMeters>
            <DistanceMeters>NAN</DistanceMeters>
          </Trackpoint>
          <Trackpoint>
            <Time>2021-08-03T13:43:46.000Z</Time>
            <Position>
              <LatitudeDegrees>-15.46672669239342212677001953125</LatitudeDegrees>
              <LongitudeDegrees>37.00011908076703548431396484375</LongitudeDegrees>
            </Position>
            <AltitudeMeters>657</AltitudeMeters>
            <DistanceMeters>NAN</DistanceMeters>
          </Trackpoint>
          <Trackpoint>
            <Time>2021-08-03T13:43:47.000Z</Time>
            <Position>
              <LatitudeDegrees>-15.4667194001376628875732421875</LatitudeDegrees>
              <LongitudeDegrees>37.00010516680777072906494140625</LongitudeDegrees>
            </Position>
            <AltitudeMeters>657</AltitudeMeters>
            <DistanceMeters>NAN</DistanceMeters>
          </Trackpoint>
          <Trackpoint>
            <Time>2021-08-03T13:43:50.000Z</Time>
            <Position>
              <LatitudeDegrees>-15.466697104275226593017578125</LatitudeDegrees>
              <LongitudeDegrees>37.00007683597505092620849609375</LongitudeDegrees>
            </Position>
            <AltitudeMeters>657</AltitudeMeters>
            <DistanceMeters>NAN</DistanceMeters>
          </Trackpoint>
          <Trackpoint>
            <Time>2021-08-03T13:43:52.000Z</Time>
            <Position>
              <LatitudeDegrees>-15.4666942544281482696533203125</LatitudeDegrees>
              <LongitudeDegrees>37.00006744824349880218505859375</LongitudeDegrees>
            </Position>
            <AltitudeMeters>657</AltitudeMeters>
            <DistanceMeters>NAN</DistanceMeters>
          </Trackpoint>
          <Trackpoint>
            <Time>2021-08-03T13:43:56.000Z</Time>
            <Position>
              <LatitudeDegrees>-15.46666718088090419769287109375</LatitudeDegrees>
              <LongitudeDegrees>37.00002453289926052093505859375</LongitudeDegrees>
            </Position>
            <AltitudeMeters>657.4000244140625</AltitudeMeters>
            <DistanceMeters>NAN</DistanceMeters>
          </Trackpoint>
          <Trackpoint>
            <Time>2021-08-03T13:44:00.000Z</Time>
            <Position>
              <LatitudeDegrees>-15.46663801185786724090576171875</LatitudeDegrees>
              <LongitudeDegrees>36.99997122399508953094482421875</LongitudeDegrees>
            </Position>
            <AltitudeMeters>657.79998779296875</AltitudeMeters>
            <DistanceMeters>NAN</DistanceMeters>
          </Trackpoint>
          <Trackpoint>
            <Time>2021-08-03T13:44:08.000Z</Time>
            <Position>
              <LatitudeDegrees>-15.4666027240455150604248046875</LatitudeDegrees>
              <LongitudeDegrees>36.9999003969132900238037109375</LongitudeDegrees>
            </Position>
            <AltitudeMeters>658.79998779296875</AltitudeMeters>
            <DistanceMeters>NAN</DistanceMeters>
          </Trackpoint>
          <Trackpoint>
            <Time>2021-08-03T13:44:09.000Z</Time>
            <Position>
              <LatitudeDegrees>-15.466595180332660675048828125</LatitudeDegrees>
              <LongitudeDegrees>36.9998916797339916229248046875</LongitudeDegrees>
            </Position>
            <AltitudeMeters>659.20001220703125</AltitudeMeters>
            <DistanceMeters>NAN</DistanceMeters>
          </Trackpoint>
          <Trackpoint>
            <Time>2021-08-03T13:44:13.000Z</Time>
            <Position>
              <LatitudeDegrees>-15.46657808125019073486328125</LatitudeDegrees>
              <LongitudeDegrees>36.99986494146287441253662109375</LongitudeDegrees>
            </Position>
            <AltitudeMeters>660.20001220703125</AltitudeMeters>
            <DistanceMeters>NAN</DistanceMeters>
          </Trackpoint>
          <Trackpoint>
            <Time>2021-08-03T13:44:16.000Z</Time>
            <Position>
              <LatitudeDegrees>-15.46656659804284572601318359375</LatitudeDegrees>
              <LongitudeDegrees>36.999839879572391510009765625</LongitudeDegrees>
            </Position>
            <AltitudeMeters>660.79998779296875</AltitudeMeters>
            <DistanceMeters>NAN</DistanceMeters>
          </Trackpoint>
          <Trackpoint>
            <Time>2021-08-03T13:44:19.000Z</Time>
            <Position>
              <LatitudeDegrees>-15.4665505886077880859375</LatitudeDegrees>
              <LongitudeDegrees>36.999819092452526092529296875</LongitudeDegrees>
            </Position>
            <AltitudeMeters>661.4000244140625</AltitudeMeters>
            <DistanceMeters>NAN</DistanceMeters>
          </Trackpoint>
          <Trackpoint>
            <Time>2021-08-03T13:44:22.000Z</Time>
            <Position>
              <LatitudeDegrees>-15.4665339924395084381103515625</LatitudeDegrees>
              <LongitudeDegrees>36.99980090372264385223388671875</LongitudeDegrees>
            </Position>
            <AltitudeMeters>662</AltitudeMeters>
            <DistanceMeters>NAN</DistanceMeters>
          </Trackpoint>
          <Trackpoint>
            <Time>2021-08-03T13:45:01.000Z</Time>
            <Position>
              <LatitudeDegrees>-15.46652955003082752227783203125</LatitudeDegrees>
              <LongitudeDegrees>36.9997703097760677337646484375</LongitudeDegrees>
            </Position>
            <AltitudeMeters>658.20001220703125</AltitudeMeters>
            <DistanceMeters>NAN</DistanceMeters>
          </Trackpoint>
          <Trackpoint>
            <Time>2021-08-03T13:45:06.000Z</Time>
            <Position>
              <LatitudeDegrees>-15.4665346629917621612548828125</LatitudeDegrees>
              <LongitudeDegrees>36.99976888485252857208251953125</LongitudeDegrees>
            </Position>
            <AltitudeMeters>658.4000244140625</AltitudeMeters>
            <DistanceMeters>NAN</DistanceMeters>
          </Trackpoint>
          <Trackpoint>
            <Time>2021-08-03T13:45:07.000Z</Time>
            <Position>
              <LatitudeDegrees>-15.4665447212755680084228515625</LatitudeDegrees>
              <LongitudeDegrees>36.99976301752030849456787109375</LongitudeDegrees>
            </Position>
            <AltitudeMeters>659.4000244140625</AltitudeMeters>
            <DistanceMeters>NAN</DistanceMeters>
          </Trackpoint>
          <Trackpoint>
            <Time>2021-08-03T13:45:10.000Z</Time>
            <Position>
              <LatitudeDegrees>-15.4665802605450153350830078125</LatitudeDegrees>
              <LongitudeDegrees>36.999746002256870269775390625</LongitudeDegrees>
            </Position>
            <AltitudeMeters>660</AltitudeMeters>
            <DistanceMeters>NAN</DistanceMeters>
          </Trackpoint>
          <Trackpoint>
            <Time>2021-08-03T13:45:14.000Z</Time>
            <Position>
              <LatitudeDegrees>-15.466614626348018646240234375</LatitudeDegrees>
              <LongitudeDegrees>36.99972261674702167510986328125</LongitudeDegrees>
            </Position>
            <AltitudeMeters>660.79998779296875</AltitudeMeters>
            <DistanceMeters>NAN</DistanceMeters>
          </Trackpoint>
          <Trackpoint>
            <Time>2021-08-03T13:45:18.000Z</Time>
            <Position>
              <LatitudeDegrees>-15.46663583256304264068603515625</LatitudeDegrees>
              <LongitudeDegrees>36.999706439673900604248046875</LongitudeDegrees>
            </Position>
            <AltitudeMeters>661.79998779296875</AltitudeMeters>
            <DistanceMeters>NAN</DistanceMeters>
          </Trackpoint>
          <Trackpoint>
            <Time>2021-08-03T13:45:19.000Z</Time>
            <Position>
              <LatitudeDegrees>-15.4666399396955966949462890625</LatitudeDegrees>
              <LongitudeDegrees>36.999702416360378265380859375</LongitudeDegrees>
            </Position>
            <AltitudeMeters>662</AltitudeMeters>
            <DistanceMeters>NAN</DistanceMeters>
          </Trackpoint>
          <Trackpoint>
            <Time>2021-08-03T13:45:22.000Z</Time>
            <Position>
              <LatitudeDegrees>-15.4666704498231410980224609375</LatitudeDegrees>
              <LongitudeDegrees>36.99969043023884296417236328125</LongitudeDegrees>
            </Position>
            <AltitudeMeters>662.79998779296875</AltitudeMeters>
            <DistanceMeters>NAN</DistanceMeters>
          </Trackpoint>
          <Trackpoint>
            <Time>2021-08-03T13:45:24.000Z</Time>
            <Position>
              <LatitudeDegrees>-15.4666888900101184844970703125</LatitudeDegrees>
              <LongitudeDegrees>36.99967525899410247802734375</LongitudeDegrees>
            </Position>
            <AltitudeMeters>663.20001220703125</AltitudeMeters>
            <DistanceMeters>NAN</DistanceMeters>
          </Trackpoint>
          <Trackpoint>
            <Time>2021-08-03T13:45:25.000Z</Time>
            <Position>
              <LatitudeDegrees>-15.46669735573232173919677734375</LatitudeDegrees>
              <LongitudeDegrees>36.99967266060411930084228515625</LongitudeDegrees>
            </Position>
            <AltitudeMeters>663.20001220703125</AltitudeMeters>
            <DistanceMeters>NAN</DistanceMeters>
          </Trackpoint>
          <Trackpoint>
            <Time>2021-08-03T13:45:29.000Z</Time>
            <Position>
              <LatitudeDegrees>-15.46673239208757877349853515625</LatitudeDegrees>
              <LongitudeDegrees>36.99964986182749271392822265625</LongitudeDegrees>
            </Position>
            <AltitudeMeters>664.20001220703125</AltitudeMeters>
            <DistanceMeters>NAN</DistanceMeters>
          </Trackpoint>
          <Trackpoint>
            <Time>2021-08-03T13:45:34.000Z</Time>
            <Position>
              <LatitudeDegrees>-15.46677228994667530059814453125</LatitudeDegrees>
              <LongitudeDegrees>36.99962505139410495758056640625</LongitudeDegrees>
            </Position>
            <AltitudeMeters>665.4000244140625</AltitudeMeters>
            <DistanceMeters>NAN</DistanceMeters>
          </Trackpoint>
          <Trackpoint>
            <Time>2021-08-03T13:45:35.000Z</Time>
            <Position>
              <LatitudeDegrees>-15.46678067184984683990478515625</LatitudeDegrees>
              <LongitudeDegrees>36.99961834587156772613525390625</LongitudeDegrees>
            </Position>
            <AltitudeMeters>665.5999755859375</AltitudeMeters>
            <DistanceMeters>NAN</DistanceMeters>
          </Trackpoint>
          <Trackpoint>
            <Time>2021-08-03T13:45:40.000Z</Time>
            <Position>
              <LatitudeDegrees>-15.4668176360428333282470703125</LatitudeDegrees>
              <LongitudeDegrees>36.99959881603717803955078125</LongitudeDegrees>
            </Position>
            <AltitudeMeters>666.4000244140625</AltitudeMeters>
            <DistanceMeters>NAN</DistanceMeters>
          </Trackpoint>
          <Trackpoint>
            <Time>2021-08-03T13:45:45.000Z</Time>
            <Position>
              <LatitudeDegrees>-15.4668585397303104400634765625</LatitudeDegrees>
              <LongitudeDegrees>36.9995724968612194061279296875</LongitudeDegrees>
            </Position>
            <AltitudeMeters>667.4000244140625</AltitudeMeters>
            <DistanceMeters>NAN</DistanceMeters>
          </Trackpoint>
          <Trackpoint>
            <Time>2021-08-03T13:45:50.000Z</Time>
            <Position>
              <LatitudeDegrees>-15.466896258294582366943359375</LatitudeDegrees>
              <LongitudeDegrees>36.9995513744652271270751953125</LongitudeDegrees>
            </Position>
            <AltitudeMeters>668.5999755859375</AltitudeMeters>
            <DistanceMeters>NAN</DistanceMeters>
          </Trackpoint>
          <Trackpoint>
            <Time>2021-08-03T13:45:53.000Z</Time>
            <Position>
              <LatitudeDegrees>-15.46691712923347949981689453125</LatitudeDegrees>
              <LongitudeDegrees>36.99953268282115459442138671875</LongitudeDegrees>
            </Position>
            <AltitudeMeters>669</AltitudeMeters>
            <DistanceMeters>NAN</DistanceMeters>
          </Trackpoint>
          <Trackpoint>
            <Time>2021-08-03T13:45:55.000Z</Time>
            <Position>
              <LatitudeDegrees>-15.4669326357543468475341796875</LatitudeDegrees>
              <LongitudeDegrees>36.999520361423492431640625</LongitudeDegrees>
            </Position>
            <AltitudeMeters>669.5999755859375</AltitudeMeters>
            <DistanceMeters>NAN</DistanceMeters>
          </Trackpoint>
          <Trackpoint>
            <Time>2021-08-03T13:46:03.000Z</Time>
            <Position>
              <LatitudeDegrees>-15.4669990204274654388427734375</LatitudeDegrees>
              <LongitudeDegrees>36.99947685934603214263916015625</LongitudeDegrees>
            </Position>
            <AltitudeMeters>670.79998779296875</AltitudeMeters>
            <DistanceMeters>NAN</DistanceMeters>
          </Trackpoint>
          <Trackpoint>
            <Time>2021-08-03T13:46:05.000Z</Time>
            <Position>
              <LatitudeDegrees>-15.4670177958905696868896484375</LatitudeDegrees>
              <LongitudeDegrees>36.999465040862560272216796875</LongitudeDegrees>
            </Position>
            <AltitudeMeters>671</AltitudeMeters>
            <DistanceMeters>NAN</DistanceMeters>
          </Trackpoint>
          <Trackpoint>
            <Time>2021-08-03T13:46:09.000Z</Time>
            <Position>
              <LatitudeDegrees>-15.46705744229257106781005859375</LatitudeDegrees>
              <LongitudeDegrees>36.99944400228559970855712890625</LongitudeDegrees>
            </Position>
            <AltitudeMeters>672</AltitudeMeters>
            <DistanceMeters>NAN</DistanceMeters>
          </Trackpoint>
          <Trackpoint>
            <Time>2021-08-03T13:46:16.000Z</Time>
            <Position>
              <LatitudeDegrees>-15.4671200551092624664306640625</LatitudeDegrees>
              <LongitudeDegrees>36.99940041638910770416259765625</LongitudeDegrees>
            </Position>
            <AltitudeMeters>672.20001220703125</AltitudeMeters>
            <DistanceMeters>NAN</DistanceMeters>
          </Trackpoint>
          <Trackpoint>
            <Time>2021-08-03T13:46:25.000Z</Time>
            <Position>
              <LatitudeDegrees>-15.4671968333423137664794921875</LatitudeDegrees>
              <LongitudeDegrees>36.999345682561397552490234375</LongitudeDegrees>
            </Position>
            <AltitudeMeters>673</AltitudeMeters>
            <DistanceMeters>NAN</DistanceMeters>
          </Trackpoint>
          <Trackpoint>
            <Time>2021-08-03T13:46:31.000Z</Time>
            <Position>
              <LatitudeDegrees>-15.46721485443413257598876953125</LatitudeDegrees>
              <LongitudeDegrees>36.99929438531398773193359375</LongitudeDegrees>
            </Position>
            <AltitudeMeters>674.20001220703125</AltitudeMeters>
            <DistanceMeters>NAN</DistanceMeters>
          </Trackpoint>
          <Trackpoint>
            <Time>2021-08-03T13:46:33.000Z</Time>
            <Position>
              <LatitudeDegrees>-15.46721803955733776092529296875</LatitudeDegrees>
              <LongitudeDegrees>36.99927519075572490692138671875</LongitudeDegrees>
            </Position>
            <AltitudeMeters>674.5999755859375</AltitudeMeters>
            <DistanceMeters>NAN</DistanceMeters>
          </Trackpoint>
          <Trackpoint>
            <Time>2021-08-03T13:46:34.000Z</Time>
            <Position>
              <LatitudeDegrees>-15.467216782271862030029296875</LatitudeDegrees>
              <LongitudeDegrees>36.99926412664353847503662109375</LongitudeDegrees>
            </Position>
            <AltitudeMeters>674.79998779296875</AltitudeMeters>
            <DistanceMeters>NAN</DistanceMeters>
          </Trackpoint>
          <Trackpoint>
            <Time>2021-08-03T13:46:38.000Z</Time>
            <Position>
              <LatitudeDegrees>-15.46721284277737140655517578125</LatitudeDegrees>
              <LongitudeDegrees>36.9992365501821041107177734375</LongitudeDegrees>
            </Position>
            <AltitudeMeters>675.20001220703125</AltitudeMeters>
            <DistanceMeters>NAN</DistanceMeters>
          </Trackpoint>
          <Trackpoint>
            <Time>2021-08-03T13:46:42.000Z</Time>
            <Position>
              <LatitudeDegrees>-15.467213429510593414306640625</LatitudeDegrees>
              <LongitudeDegrees>36.999196149408817291259765625</LongitudeDegrees>
            </Position>
            <AltitudeMeters>675.79998779296875</AltitudeMeters>
            <DistanceMeters>NAN</DistanceMeters>
          </Trackpoint>
          <Trackpoint>
            <Time>2021-08-03T13:46:47.000Z</Time>
            <Position>
              <LatitudeDegrees>-15.4672293551266193389892578125</LatitudeDegrees>
              <LongitudeDegrees>36.9991487078368663787841796875</LongitudeDegrees>
            </Position>
            <AltitudeMeters>676.4000244140625</AltitudeMeters>
            <DistanceMeters>NAN</DistanceMeters>
          </Trackpoint>
          <Trackpoint>
            <Time>2021-08-03T13:46:48.000Z</Time>
            <Position>
              <LatitudeDegrees>-15.46723186969757080078125</LatitudeDegrees>
              <LongitudeDegrees>36.99913906864821910858154296875</LongitudeDegrees>
            </Position>
            <AltitudeMeters>676.5999755859375</AltitudeMeters>
            <DistanceMeters>NAN</DistanceMeters>
          </Trackpoint>
          <Trackpoint>
            <Time>2021-08-03T13:46:56.000Z</Time>
            <Position>
              <LatitudeDegrees>-15.467236228287220001220703125</LatitudeDegrees>
              <LongitudeDegrees>36.99905843473970890045166015625</LongitudeDegrees>
            </Position>
            <AltitudeMeters>677.5999755859375</AltitudeMeters>
            <DistanceMeters>NAN</DistanceMeters>
          </Trackpoint>
          <Trackpoint>
            <Time>2021-08-03T13:46:57.000Z</Time>
            <Position>
              <LatitudeDegrees>-15.467238239943981170654296875</LatitudeDegrees>
              <LongitudeDegrees>36.99904904700815677642822265625</LongitudeDegrees>
            </Position>
            <AltitudeMeters>677.5999755859375</AltitudeMeters>
            <DistanceMeters>NAN</DistanceMeters>
          </Trackpoint>
          <Trackpoint>
            <Time>2021-08-03T13:47:04.000Z</Time>
            <Position>
              <LatitudeDegrees>-15.46724385581910610198974609375</LatitudeDegrees>
              <LongitudeDegrees>36.9989800639450550079345703125</LongitudeDegrees>
            </Position>
            <AltitudeMeters>678.20001220703125</AltitudeMeters>
            <DistanceMeters>NAN</DistanceMeters>
          </Trackpoint>
          <Trackpoint>
            <Time>2021-08-03T13:47:07.000Z</Time>
            <Position>
              <LatitudeDegrees>-15.4672397486865520477294921875</LatitudeDegrees>
              <LongitudeDegrees>36.9989569298923015594482421875</LongitudeDegrees>
            </Position>
            <AltitudeMeters>678.79998779296875</AltitudeMeters>
            <DistanceMeters>NAN</DistanceMeters>
          </Trackpoint>
          <Trackpoint>
            <Time>2021-08-03T13:47:16.000Z</Time>
            <Position>
              <LatitudeDegrees>-15.46725324355065822601318359375</LatitudeDegrees>
              <LongitudeDegrees>36.9988744519650936126708984375</LongitudeDegrees>
            </Position>
            <AltitudeMeters>679.4000244140625</AltitudeMeters>
            <DistanceMeters>NAN</DistanceMeters>
          </Trackpoint>
          <Trackpoint>
            <Time>2021-08-03T13:47:19.000Z</Time>
            <Position>
              <LatitudeDegrees>-15.46725139953196048736572265625</LatitudeDegrees>
              <LongitudeDegrees>36.99884754605591297149658203125</LongitudeDegrees>
            </Position>
            <AltitudeMeters>679.5999755859375</AltitudeMeters>
            <DistanceMeters>NAN</DistanceMeters>
          </Trackpoint>
          <Trackpoint>
            <Time>2021-08-03T13:47:21.000Z</Time>
            <Position>
              <LatitudeDegrees>-15.4672627151012420654296875</LatitudeDegrees>
              <LongitudeDegrees>36.99883212335407733917236328125</LongitudeDegrees>
            </Position>
            <AltitudeMeters>679.5999755859375</AltitudeMeters>
            <DistanceMeters>NAN</DistanceMeters>
          </Trackpoint>
          <Trackpoint>
            <Time>2021-08-03T13:47:23.000Z</Time>
            <Position>
              <LatitudeDegrees>-15.46728190965950489044189453125</LatitudeDegrees>
              <LongitudeDegrees>36.9988189637660980224609375</LongitudeDegrees>
            </Position>
            <AltitudeMeters>679.79998779296875</AltitudeMeters>
            <DistanceMeters>NAN</DistanceMeters>
          </Trackpoint>
          <Trackpoint>
            <Time>2021-08-03T13:47:26.000Z</Time>
            <Position>
              <LatitudeDegrees>-15.46730454079806804656982421875</LatitudeDegrees>
              <LongitudeDegrees>36.99880060739815235137939453125</LongitudeDegrees>
            </Position>
            <AltitudeMeters>679.79998779296875</AltitudeMeters>
            <DistanceMeters>NAN</DistanceMeters>
          </Trackpoint>
          <Trackpoint>
            <Time>2021-08-03T13:47:31.000Z</Time>
            <Position>
              <LatitudeDegrees>-15.46731811948120594024658203125</LatitudeDegrees>
              <LongitudeDegrees>36.9987400062382221221923828125</LongitudeDegrees>
            </Position>
            <AltitudeMeters>679.79998779296875</AltitudeMeters>
            <DistanceMeters>NAN</DistanceMeters>
          </Trackpoint>
          <Trackpoint>
            <Time>2021-08-03T13:47:39.000Z</Time>
            <Position>
              <LatitudeDegrees>-15.46735432930290699005126953125</LatitudeDegrees>
              <LongitudeDegrees>36.99864788912236690521240234375</LongitudeDegrees>
            </Position>
            <AltitudeMeters>679.5999755859375</AltitudeMeters>
            <DistanceMeters>NAN</DistanceMeters>
          </Trackpoint>
          <Trackpoint>
            <Time>2021-08-03T13:47:49.000Z</Time>
            <Position>
              <LatitudeDegrees>-15.46739590354263782501220703125</LatitudeDegrees>
              <LongitudeDegrees>36.99854009784758090972900390625</LongitudeDegrees>
            </Position>
            <AltitudeMeters>680.20001220703125</AltitudeMeters>
            <DistanceMeters>NAN</DistanceMeters>
          </Trackpoint>
          <Trackpoint>
            <Time>2021-08-03T13:47:51.000Z</Time>
            <Position>
              <LatitudeDegrees>-15.46740495599806308746337890625</LatitudeDegrees>
              <LongitudeDegrees>36.99851713143289089202880859375</LongitudeDegrees>
            </Position>
            <AltitudeMeters>680.20001220703125</AltitudeMeters>
            <DistanceMeters>NAN</DistanceMeters>
          </Trackpoint>
          <Trackpoint>
            <Time>2021-08-03T13:48:00.000Z</Time>
            <Position>
              <LatitudeDegrees>-15.46741937287151813507080078125</LatitudeDegrees>
              <LongitudeDegrees>36.99841168709099292755126953125</LongitudeDegrees>
            </Position>
            <AltitudeMeters>680.20001220703125</AltitudeMeters>
            <DistanceMeters>NAN</DistanceMeters>
          </Trackpoint>
          <Trackpoint>
            <Time>2021-08-03T13:48:10.000Z</Time>
            <Position>
              <LatitudeDegrees>-15.467403195798397064208984375</LatitudeDegrees>
              <LongitudeDegrees>36.99830540455877780914306640625</LongitudeDegrees>
            </Position>
            <AltitudeMeters>680.79998779296875</AltitudeMeters>
            <DistanceMeters>NAN</DistanceMeters>
          </Trackpoint>
          <Trackpoint>
            <Time>2021-08-03T13:48:22.000Z</Time>
            <Position>
              <LatitudeDegrees>-15.46741115860641002655029296875</LatitudeDegrees>
              <LongitudeDegrees>36.99817263521254062652587890625</LongitudeDegrees>
            </Position>
            <AltitudeMeters>680.5999755859375</AltitudeMeters>
            <DistanceMeters>NAN</DistanceMeters>
          </Trackpoint>
          <Trackpoint>
            <Time>2021-08-03T13:48:27.000Z</Time>
            <Position>
              <LatitudeDegrees>-15.46740830875933170318603515625</LatitudeDegrees>
              <LongitudeDegrees>36.99812569655478000640869140625</LongitudeDegrees>
            </Position>
            <AltitudeMeters>680.4000244140625</AltitudeMeters>
            <DistanceMeters>NAN</DistanceMeters>
          </Trackpoint>
          <Trackpoint>
            <Time>2021-08-03T13:48:31.000Z</Time>
            <Position>
              <LatitudeDegrees>-15.46741400845348834991455078125</LatitudeDegrees>
              <LongitudeDegrees>36.99807825498282909393310546875</LongitudeDegrees>
            </Position>
            <AltitudeMeters>679.5999755859375</AltitudeMeters>
            <DistanceMeters>NAN</DistanceMeters>
          </Trackpoint>
          <Trackpoint>
            <Time>2021-08-03T13:48:38.000Z</Time>
            <Position>
              <LatitudeDegrees>-15.4674509726464748382568359375</LatitudeDegrees>
              <LongitudeDegrees>36.9980124570429325103759765625</LongitudeDegrees>
            </Position>
            <AltitudeMeters>678.5999755859375</AltitudeMeters>
            <DistanceMeters>NAN</DistanceMeters>
          </Trackpoint>
          <Trackpoint>
            <Time>2021-08-03T13:48:48.000Z</Time>
            <Position>
              <LatitudeDegrees>-15.467492043972015380859375</LatitudeDegrees>
              <LongitudeDegrees>36.99789988808333873748779296875</LongitudeDegrees>
            </Position>
            <AltitudeMeters>678</AltitudeMeters>
            <DistanceMeters>NAN</DistanceMeters>
          </Trackpoint>
          <Trackpoint>
            <Time>2021-08-03T13:48:51.000Z</Time>
            <Position>
              <LatitudeDegrees>-15.4675094783306121826171875</LatitudeDegrees>
              <LongitudeDegrees>36.9978759996592998504638671875</LongitudeDegrees>
            </Position>
            <AltitudeMeters>678</AltitudeMeters>
            <DistanceMeters>NAN</DistanceMeters>
          </Trackpoint>
          <Trackpoint>
            <Time>2021-08-03T13:48:53.000Z</Time>
            <Position>
              <LatitudeDegrees>-15.46751375310122966766357421875</LatitudeDegrees>
              <LongitudeDegrees>36.9978528656065464019775390625</LongitudeDegrees>
            </Position>
            <AltitudeMeters>678</AltitudeMeters>
            <DistanceMeters>NAN</DistanceMeters>
          </Trackpoint>
          <Trackpoint>
            <Time>2021-08-03T13:48:55.000Z</Time>
            <Position>
              <LatitudeDegrees>-15.4675156809389591217041015625</LatitudeDegrees>
              <LongitudeDegrees>36.99783065356314182281494140625</LongitudeDegrees>
            </Position>
            <AltitudeMeters>677.79998779296875</AltitudeMeters>
            <DistanceMeters>NAN</DistanceMeters>
          </Trackpoint>
          <Trackpoint>
            <Time>2021-08-03T13:48:56.000Z</Time>
            <Position>
              <LatitudeDegrees>-15.4675193689763545989990234375</LatitudeDegrees>
              <LongitudeDegrees>36.99781791307032108306884765625</LongitudeDegrees>
            </Position>
            <AltitudeMeters>677.5999755859375</AltitudeMeters>
            <DistanceMeters>NAN</DistanceMeters>
          </Trackpoint>
          <Trackpoint>
            <Time>2021-08-03T13:48:59.000Z</Time>
            <Position>
              <LatitudeDegrees>-15.46751475892961025238037109375</LatitudeDegrees>
              <LongitudeDegrees>36.997775919735431671142578125</LongitudeDegrees>
            </Position>
            <AltitudeMeters>677.20001220703125</AltitudeMeters>
            <DistanceMeters>NAN</DistanceMeters>
          </Trackpoint>
          <Trackpoint>
            <Time>2021-08-03T13:49:01.000Z</Time>
            <Position>
              <LatitudeDegrees>-15.4675083048641681671142578125</LatitudeDegrees>
              <LongitudeDegrees>36.99775136075913906097412109375</LongitudeDegrees>
            </Position>
            <AltitudeMeters>677</AltitudeMeters>
            <DistanceMeters>NAN</DistanceMeters>
          </Trackpoint>
          <Trackpoint>
            <Time>2021-08-03T13:49:03.000Z</Time>
            <Position>
              <LatitudeDegrees>-15.467496402561664581298828125</LatitudeDegrees>
              <LongitudeDegrees>36.9977301545441150665283203125</LongitudeDegrees>
            </Position>
            <AltitudeMeters>677</AltitudeMeters>
            <DistanceMeters>NAN</DistanceMeters>
          </Trackpoint>
          <Trackpoint>
            <Time>2021-08-03T13:49:10.000Z</Time>
            <Position>
              <LatitudeDegrees>-15.46745474450290203094482421875</LatitudeDegrees>
              <LongitudeDegrees>36.99766167439520359039306640625</LongitudeDegrees>
            </Position>
            <AltitudeMeters>676.5999755859375</AltitudeMeters>
            <DistanceMeters>NAN</DistanceMeters>
          </Trackpoint>
          <Trackpoint>
            <Time>2021-08-03T13:49:11.000Z</Time>
            <Position>
              <LatitudeDegrees>-15.4674482904374599456787109375</LatitudeDegrees>
              <LongitudeDegrees>36.9976527057588100433349609375</LongitudeDegrees>
            </Position>
            <AltitudeMeters>676.20001220703125</AltitudeMeters>
            <DistanceMeters>NAN</DistanceMeters>
          </Trackpoint>
          <Trackpoint>
            <Time>2021-08-03T13:49:12.000Z</Time>
            <Position>
              <LatitudeDegrees>-15.4674402438104152679443359375</LatitudeDegrees>
              <LongitudeDegrees>36.9976449944078922271728515625</LongitudeDegrees>
            </Position>
            <AltitudeMeters>675.79998779296875</AltitudeMeters>
            <DistanceMeters>NAN</DistanceMeters>
          </Trackpoint>
          <Trackpoint>
            <Time>2021-08-03T13:49:14.000Z</Time>
            <Position>
              <LatitudeDegrees>-15.467427670955657958984375</LatitudeDegrees>
              <LongitudeDegrees>36.99762797914445400238037109375</LongitudeDegrees>
            </Position>
            <AltitudeMeters>675.4000244140625</AltitudeMeters>
            <DistanceMeters>NAN</DistanceMeters>
          </Trackpoint>
          <Trackpoint>
            <Time>2021-08-03T13:49:16.000Z</Time>
            <Position>
              <LatitudeDegrees>-15.46741317026317119598388671875</LatitudeDegrees>
              <LongitudeDegrees>36.99760920368134975433349609375</LongitudeDegrees>
            </Position>
            <AltitudeMeters>675.20001220703125</AltitudeMeters>
            <DistanceMeters>NAN</DistanceMeters>
          </Trackpoint>
          <Trackpoint>
            <Time>2021-08-03T13:49:17.000Z</Time>
            <Position>
              <LatitudeDegrees>-15.46740554273128509521484375</LatitudeDegrees>
              <LongitudeDegrees>36.99759730137884616851806640625</LongitudeDegrees>
            </Position>
            <AltitudeMeters>675.20001220703125</AltitudeMeters>
            <DistanceMeters>NAN</DistanceMeters>
          </Trackpoint>
          <Trackpoint>
            <Time>2021-08-03T13:49:19.000Z</Time>
            <Position>
              <LatitudeDegrees>-15.4673899523913860321044921875</LatitudeDegrees>
              <LongitudeDegrees>36.9975765980780124664306640625</LongitudeDegrees>
            </Position>
            <AltitudeMeters>675</AltitudeMeters>
            <DistanceMeters>NAN</DistanceMeters>
          </Trackpoint>
          <Trackpoint>
            <Time>2021-08-03T13:49:21.000Z</Time>
            <Position>
              <LatitudeDegrees>-15.4673755355179309844970703125</LatitudeDegrees>
              <LongitudeDegrees>36.9975527934730052947998046875</LongitudeDegrees>
            </Position>
            <AltitudeMeters>674.4000244140625</AltitudeMeters>
            <DistanceMeters>NAN</DistanceMeters>
          </Trackpoint>
          <Trackpoint>
            <Time>2021-08-03T13:49:22.000Z</Time>
            <Position>
              <LatitudeDegrees>-15.467368662357330322265625</LatitudeDegrees>
              <LongitudeDegrees>36.99754063971340656280517578125</LongitudeDegrees>
            </Position>
            <AltitudeMeters>673.4000244140625</AltitudeMeters>
            <DistanceMeters>NAN</DistanceMeters>
          </Trackpoint>
          <Trackpoint>
            <Time>2021-08-03T13:49:24.000Z</Time>
            <Position>
              <LatitudeDegrees>-15.46735952608287334442138671875</LatitudeDegrees>
              <LongitudeDegrees>36.99751834385097026824951171875</LongitudeDegrees>
            </Position>
            <AltitudeMeters>673</AltitudeMeters>
            <DistanceMeters>NAN</DistanceMeters>
          </Trackpoint>
          <Trackpoint>
            <Time>2021-08-03T13:49:29.000Z</Time>
            <Position>
              <LatitudeDegrees>-15.467331111431121826171875</LatitudeDegrees>
              <LongitudeDegrees>36.99746201746165752410888671875</LongitudeDegrees>
            </Position>
            <AltitudeMeters>672.20001220703125</AltitudeMeters>
            <DistanceMeters>NAN</DistanceMeters>
          </Trackpoint>
          <Trackpoint>
            <Time>2021-08-03T13:49:34.000Z</Time>
            <Position>
              <LatitudeDegrees>-15.46729288995265960693359375</LatitudeDegrees>
              <LongitudeDegrees>36.99740854091942310333251953125</LongitudeDegrees>
            </Position>
            <AltitudeMeters>672.20001220703125</AltitudeMeters>
            <DistanceMeters>NAN</DistanceMeters>
          </Trackpoint>
          <Trackpoint>
            <Time>2021-08-03T13:49:39.000Z</Time>
            <Position>
              <LatitudeDegrees>-15.4672749526798725128173828125</LatitudeDegrees>
              <LongitudeDegrees>36.9973606802523136138916015625</LongitudeDegrees>
            </Position>
            <AltitudeMeters>670.79998779296875</AltitudeMeters>
            <DistanceMeters>NAN</DistanceMeters>
          </Trackpoint>
          <Trackpoint>
            <Time>2021-08-03T13:49:44.000Z</Time>
            <Position>
              <LatitudeDegrees>-15.4672340489923954010009765625</LatitudeDegrees>
              <LongitudeDegrees>36.9973046891391277313232421875</LongitudeDegrees>
            </Position>
            <AltitudeMeters>670.5999755859375</AltitudeMeters>
            <DistanceMeters>NAN</DistanceMeters>
          </Trackpoint>
          <Trackpoint>
            <Time>2021-08-03T13:49:45.000Z</Time>
            <Position>
              <LatitudeDegrees>-15.4672249965369701385498046875</LatitudeDegrees>
              <LongitudeDegrees>36.99729203246533870697021484375</LongitudeDegrees>
            </Position>
            <AltitudeMeters>670.5999755859375</AltitudeMeters>
            <DistanceMeters>NAN</DistanceMeters>
          </Trackpoint>
          <Trackpoint>
            <Time>2021-08-03T13:49:54.000Z</Time>
            <Position>
              <LatitudeDegrees>-15.4671646468341350555419921875</LatitudeDegrees>
              <LongitudeDegrees>36.99718038551509380340576171875</LongitudeDegrees>
            </Position>
            <AltitudeMeters>670.20001220703125</AltitudeMeters>
            <DistanceMeters>NAN</DistanceMeters>
          </Trackpoint>
          <Trackpoint>
            <Time>2021-08-03T13:50:02.000Z</Time>
            <Position>
              <LatitudeDegrees>-15.46709968708455562591552734375</LatitudeDegrees>
              <LongitudeDegrees>36.9970954768359661102294921875</LongitudeDegrees>
            </Position>
            <AltitudeMeters>670.4000244140625</AltitudeMeters>
            <DistanceMeters>NAN</DistanceMeters>
          </Trackpoint>
          <Trackpoint>
            <Time>2021-08-03T13:50:06.000Z</Time>
            <Position>
              <LatitudeDegrees>-15.46707135625183582305908203125</LatitudeDegrees>
              <LongitudeDegrees>36.99705515988171100616455078125</LongitudeDegrees>
            </Position>
            <AltitudeMeters>670.5999755859375</AltitudeMeters>
            <DistanceMeters>NAN</DistanceMeters>
          </Trackpoint>
          <Trackpoint>
            <Time>2021-08-03T13:50:08.000Z</Time>
            <Position>
              <LatitudeDegrees>-15.46705861575901508331298828125</LatitudeDegrees>
              <LongitudeDegrees>36.9970374740660190582275390625</LongitudeDegrees>
            </Position>
            <AltitudeMeters>670.79998779296875</AltitudeMeters>
            <DistanceMeters>NAN</DistanceMeters>
          </Trackpoint>
          <Trackpoint>
            <Time>2021-08-03T13:50:10.000Z</Time>
            <Position>
              <LatitudeDegrees>-15.4670409299433231353759765625</LatitudeDegrees>
              <LongitudeDegrees>36.99701526202261447906494140625</LongitudeDegrees>
            </Position>
            <AltitudeMeters>671.20001220703125</AltitudeMeters>
            <DistanceMeters>NAN</DistanceMeters>
          </Trackpoint>
          <Trackpoint>
            <Time>2021-08-03T13:50:12.000Z</Time>
            <Position>
              <LatitudeDegrees>-15.46702693216502666473388671875</LatitudeDegrees>
              <LongitudeDegrees>36.99699983932077884674072265625</LongitudeDegrees>
            </Position>
            <AltitudeMeters>671.4000244140625</AltitudeMeters>
            <DistanceMeters>NAN</DistanceMeters>
          </Trackpoint>
          <Trackpoint>
            <Time>2021-08-03T13:50:13.000Z</Time>
            <Position>
              <LatitudeDegrees>-15.46702307648956775665283203125</LatitudeDegrees>
              <LongitudeDegrees>36.996992714703083038330078125</LongitudeDegrees>
            </Position>
            <AltitudeMeters>671.4000244140625</AltitudeMeters>
            <DistanceMeters>NAN</DistanceMeters>
          </Trackpoint>
          <Trackpoint>
            <Time>2021-08-03T13:50:16.000Z</Time>
            <Position>
              <LatitudeDegrees>-15.46700145117938518524169921875</LatitudeDegrees>
              <LongitudeDegrees>36.99695860035717487335205078125</LongitudeDegrees>
            </Position>
            <AltitudeMeters>672</AltitudeMeters>
            <DistanceMeters>NAN</DistanceMeters>
          </Trackpoint>
          <Trackpoint>
            <Time>2021-08-03T13:50:18.000Z</Time>
            <Position>
              <LatitudeDegrees>-15.4669892974197864532470703125</LatitudeDegrees>
              <LongitudeDegrees>36.99694016017019748687744140625</LongitudeDegrees>
            </Position>
            <AltitudeMeters>672</AltitudeMeters>
            <DistanceMeters>NAN</DistanceMeters>
          </Trackpoint>
          <Trackpoint>
            <Time>2021-08-03T13:50:19.000Z</Time>
            <Position>
              <LatitudeDegrees>-15.4669869504868984222412109375</LatitudeDegrees>
              <LongitudeDegrees>36.99693144299089908599853515625</LongitudeDegrees>
            </Position>
            <AltitudeMeters>672</AltitudeMeters>
            <DistanceMeters>NAN</DistanceMeters>
          </Trackpoint>
          <Trackpoint>
            <Time>2021-08-03T13:50:21.000Z</Time>
            <Position>
              <LatitudeDegrees>-15.46697949059307575225830078125</LatitudeDegrees>
              <LongitudeDegrees>36.9969107396900653839111328125</LongitudeDegrees>
            </Position>
            <AltitudeMeters>672.5999755859375</AltitudeMeters>
            <DistanceMeters>NAN</DistanceMeters>
          </Trackpoint>
          <Trackpoint>
            <Time>2021-08-03T13:50:24.000Z</Time>
            <Position>
              <LatitudeDegrees>-15.46696289442479610443115234375</LatitudeDegrees>
              <LongitudeDegrees>36.99688500724732875823974609375</LongitudeDegrees>
            </Position>
            <AltitudeMeters>673.20001220703125</AltitudeMeters>
            <DistanceMeters>NAN</DistanceMeters>
          </Trackpoint>
          <Trackpoint>
            <Time>2021-08-03T13:50:34.000Z</Time>
            <Position>
              <LatitudeDegrees>-15.46689583919942378997802734375</LatitudeDegrees>
              <LongitudeDegrees>36.996794231235980987548828125</LongitudeDegrees>
            </Position>
            <AltitudeMeters>674.20001220703125</AltitudeMeters>
            <DistanceMeters>NAN</DistanceMeters>
          </Trackpoint>
          <Trackpoint>
            <Time>2021-08-03T13:50:37.000Z</Time>
            <Position>
              <LatitudeDegrees>-15.466885529458522796630859375</LatitudeDegrees>
              <LongitudeDegrees>36.996767409145832061767578125</LongitudeDegrees>
            </Position>
            <AltitudeMeters>674.79998779296875</AltitudeMeters>
            <DistanceMeters>NAN</DistanceMeters>
          </Trackpoint>
          <Trackpoint>
            <Time>2021-08-03T13:50:40.000Z</Time>
            <Position>
              <LatitudeDegrees>-15.4668655805289745330810546875</LatitudeDegrees>
              <LongitudeDegrees>36.99673689901828765869140625</LongitudeDegrees>
            </Position>
            <AltitudeMeters>674.79998779296875</AltitudeMeters>
            <DistanceMeters>NAN</DistanceMeters>
          </Trackpoint>
          <Trackpoint>
            <Time>2021-08-03T13:50:42.000Z</Time>
            <Position>
              <LatitudeDegrees>-15.4668577015399932861328125</LatitudeDegrees>
              <LongitudeDegrees>36.99671653099358081817626953125</LongitudeDegrees>
            </Position>
            <AltitudeMeters>675.5999755859375</AltitudeMeters>
            <DistanceMeters>NAN</DistanceMeters>
          </Trackpoint>
          <Trackpoint>
            <Time>2021-08-03T13:50:46.000Z</Time>
            <Position>
              <LatitudeDegrees>-15.46682895161211490631103515625</LatitudeDegrees>
              <LongitudeDegrees>36.99668032117187976837158203125</LongitudeDegrees>
            </Position>
            <AltitudeMeters>676</AltitudeMeters>
            <DistanceMeters>NAN</DistanceMeters>
          </Trackpoint>
          <Trackpoint>
            <Time>2021-08-03T13:50:50.000Z</Time>
            <Position>
              <LatitudeDegrees>-15.4668040573596954345703125</LatitudeDegrees>
              <LongitudeDegrees>36.996640004217624664306640625</LongitudeDegrees>
            </Position>
            <AltitudeMeters>676.5999755859375</AltitudeMeters>
            <DistanceMeters>NAN</DistanceMeters>
          </Trackpoint>
          <Trackpoint>
            <Time>2021-08-03T13:50:54.000Z</Time>
            <Position>
              <LatitudeDegrees>-15.4667844437062740325927734375</LatitudeDegrees>
              <LongitudeDegrees>36.9966042973101139068603515625</LongitudeDegrees>
            </Position>
            <AltitudeMeters>677.20001220703125</AltitudeMeters>
            <DistanceMeters>NAN</DistanceMeters>
          </Trackpoint>
          <Trackpoint>
            <Time>2021-08-03T13:50:56.000Z</Time>
            <Position>
              <LatitudeDegrees>-15.4667717032134532928466796875</LatitudeDegrees>
              <LongitudeDegrees>36.99658510275185108184814453125</LongitudeDegrees>
            </Position>
            <AltitudeMeters>677.4000244140625</AltitudeMeters>
            <DistanceMeters>NAN</DistanceMeters>
          </Trackpoint>
          <Trackpoint>
            <Time>2021-08-03T13:50:57.000Z</Time>
            <Position>
              <LatitudeDegrees>-15.46676625497639179229736328125</LatitudeDegrees>
              <LongitudeDegrees>36.996575631201267242431640625</LongitudeDegrees>
            </Position>
            <AltitudeMeters>677.5999755859375</AltitudeMeters>
            <DistanceMeters>NAN</DistanceMeters>
          </Trackpoint>
          <Trackpoint>
            <Time>2021-08-03T13:51:06.000Z</Time>
            <Position>
              <LatitudeDegrees>-15.4667183943092823028564453125</LatitudeDegrees>
              <LongitudeDegrees>36.99649793095886707305908203125</LongitudeDegrees>
            </Position>
            <AltitudeMeters>678.5999755859375</AltitudeMeters>
            <DistanceMeters>NAN</DistanceMeters>
          </Trackpoint>
          <Trackpoint>
            <Time>2021-08-03T13:51:07.000Z</Time>
            <Position>
              <LatitudeDegrees>-15.46671462245285511016845703125</LatitudeDegrees>
              <LongitudeDegrees>36.99649122543632984161376953125</LongitudeDegrees>
            </Position>
            <AltitudeMeters>678.79998779296875</AltitudeMeters>
            <DistanceMeters>NAN</DistanceMeters>
          </Trackpoint>
          <Trackpoint>
            <Time>2021-08-03T13:51:18.000Z</Time>
            <Position>
              <LatitudeDegrees>-15.46665544621646404266357421875</LatitudeDegrees>
              <LongitudeDegrees>36.99638687074184417724609375</LongitudeDegrees>
            </Position>
            <AltitudeMeters>679.79998779296875</AltitudeMeters>
            <DistanceMeters>NAN</DistanceMeters>
          </Trackpoint>
          <Trackpoint>
            <Time>2021-08-03T13:51:21.000Z</Time>
            <Position>
              <LatitudeDegrees>-15.46664421446621417999267578125</LatitudeDegrees>
              <LongitudeDegrees>36.996357031166553497314453125</LongitudeDegrees>
            </Position>
            <AltitudeMeters>679.79998779296875</AltitudeMeters>
            <DistanceMeters>NAN</DistanceMeters>
          </Trackpoint>
          <Trackpoint>
            <Time>2021-08-03T13:51:22.000Z</Time>
            <Position>
              <LatitudeDegrees>-15.46663901768624782562255859375</LatitudeDegrees>
              <LongitudeDegrees>36.99635057710111141204833984375</LongitudeDegrees>
            </Position>
            <AltitudeMeters>680.20001220703125</AltitudeMeters>
            <DistanceMeters>NAN</DistanceMeters>
          </Trackpoint>
          <Trackpoint>
            <Time>2021-08-03T13:51:26.000Z</Time>
            <Position>
              <LatitudeDegrees>-15.46661286614835262298583984375</LatitudeDegrees>
              <LongitudeDegrees>36.996318139135837554931640625</LongitudeDegrees>
            </Position>
            <AltitudeMeters>680.5999755859375</AltitudeMeters>
            <DistanceMeters>NAN</DistanceMeters>
          </Trackpoint>
          <Trackpoint>
            <Time>2021-08-03T13:51:27.000Z</Time>
            <Position>
              <LatitudeDegrees>-15.46660901047289371490478515625</LatitudeDegrees>
              <LongitudeDegrees>36.99631721712648868560791015625</LongitudeDegrees>
            </Position>
            <AltitudeMeters>680.5999755859375</AltitudeMeters>
            <DistanceMeters>NAN</DistanceMeters>
          </Trackpoint>
          <Trackpoint>
            <Time>2021-08-03T13:51:29.000Z</Time>
            <Position>
              <LatitudeDegrees>-15.46660498715937137603759765625</LatitudeDegrees>
              <LongitudeDegrees>36.99631637893617153167724609375</LongitudeDegrees>
            </Position>
            <AltitudeMeters>680.5999755859375</AltitudeMeters>
            <DistanceMeters>NAN</DistanceMeters>
          </Trackpoint>
          <Trackpoint>
            <Time>2021-08-03T13:51:33.000Z</Time>
            <Position>
              <LatitudeDegrees>-15.46658922918140888214111328125</LatitudeDegrees>
              <LongitudeDegrees>36.99630028568208217620849609375</LongitudeDegrees>
            </Position>
            <AltitudeMeters>680.5999755859375</AltitudeMeters>
            <DistanceMeters>NAN</DistanceMeters>
          </Trackpoint>
          <Trackpoint>
            <Time>2021-08-03T13:51:34.000Z</Time>
            <Position>
              <LatitudeDegrees>-15.4665826074779033660888671875</LatitudeDegrees>
              <LongitudeDegrees>36.9962931610643863677978515625</LongitudeDegrees>
            </Position>
            <AltitudeMeters>680.5999755859375</AltitudeMeters>
            <DistanceMeters>NAN</DistanceMeters>
          </Trackpoint>
          <Trackpoint>
            <Time>2021-08-03T13:51:39.000Z</Time>
            <Position>
              <LatitudeDegrees>-15.4665588028728961944580078125</LatitudeDegrees>
              <LongitudeDegrees>36.99624915607273578643798828125</LongitudeDegrees>
            </Position>
            <AltitudeMeters>681.20001220703125</AltitudeMeters>
            <DistanceMeters>NAN</DistanceMeters>
          </Trackpoint>
          <Trackpoint>
            <Time>2021-08-03T13:51:45.000Z</Time>
            <Position>
              <LatitudeDegrees>-15.46652770601212978363037109375</LatitudeDegrees>
              <LongitudeDegrees>36.99619383551180362701416015625</LongitudeDegrees>
            </Position>
            <AltitudeMeters>681.5999755859375</AltitudeMeters>
            <DistanceMeters>NAN</DistanceMeters>
          </Trackpoint>
          <Trackpoint>
            <Time>2021-08-03T13:51:51.000Z</Time>
            <Position>
              <LatitudeDegrees>-15.4664947651326656341552734375</LatitudeDegrees>
              <LongitudeDegrees>36.99614639393985271453857421875</LongitudeDegrees>
            </Position>
            <AltitudeMeters>682.4000244140625</AltitudeMeters>
            <DistanceMeters>NAN</DistanceMeters>
          </Trackpoint>
          <Trackpoint>
            <Time>2021-08-03T13:51:54.000Z</Time>
            <Position>
              <LatitudeDegrees>-15.46647749841213226318359375</LatitudeDegrees>
              <LongitudeDegrees>36.996114291250705718994140625</LongitudeDegrees>
            </Position>
            <AltitudeMeters>682.4000244140625</AltitudeMeters>
            <DistanceMeters>NAN</DistanceMeters>
          </Trackpoint>
          <Trackpoint>
            <Time>2021-08-03T13:51:58.000Z</Time>
            <Position>
              <LatitudeDegrees>-15.46645738184452056884765625</LatitudeDegrees>
              <LongitudeDegrees>36.99607246555387973785400390625</LongitudeDegrees>
            </Position>
            <AltitudeMeters>682.5999755859375</AltitudeMeters>
            <DistanceMeters>NAN</DistanceMeters>
          </Trackpoint>
          <Trackpoint>
            <Time>2021-08-03T13:52:00.000Z</Time>
            <Position>
              <LatitudeDegrees>-15.46644472517073154449462890625</LatitudeDegrees>
              <LongitudeDegrees>36.99605084024369716644287109375</LongitudeDegrees>
            </Position>
            <AltitudeMeters>682.79998779296875</AltitudeMeters>
            <DistanceMeters>NAN</DistanceMeters>
          </Trackpoint>
          <Trackpoint>
            <Time>2021-08-03T13:52:05.000Z</Time>
            <Position>
              <LatitudeDegrees>-15.46641756780445575714111328125</LatitudeDegrees>
              <LongitudeDegrees>36.9960028119385242462158203125</LongitudeDegrees>
            </Position>
            <AltitudeMeters>683.20001220703125</AltitudeMeters>
            <DistanceMeters>NAN</DistanceMeters>
          </Trackpoint>
          <Trackpoint>
            <Time>2021-08-03T13:52:06.000Z</Time>
            <Position>
              <LatitudeDegrees>-15.46641044318675994873046875</LatitudeDegrees>
              <LongitudeDegrees>36.99599334038794040679931640625</LongitudeDegrees>
            </Position>
            <AltitudeMeters>683.4000244140625</AltitudeMeters>
            <DistanceMeters>NAN</DistanceMeters>
          </Trackpoint>
          <Trackpoint>
            <Time>2021-08-03T13:52:10.000Z</Time>
            <Position>
              <LatitudeDegrees>-15.46637766994535923004150390625</LatitudeDegrees>
              <LongitudeDegrees>36.99596098624169826507568359375</LongitudeDegrees>
            </Position>
            <AltitudeMeters>683.5999755859375</AltitudeMeters>
            <DistanceMeters>NAN</DistanceMeters>
          </Trackpoint>
          <Trackpoint>
            <Time>2021-08-03T13:52:14.000Z</Time>
            <Position>
              <LatitudeDegrees>-15.4663561284542083740234375</LatitudeDegrees>
              <LongitudeDegrees>36.99591572396457195281982421875</LongitudeDegrees>
            </Position>
            <AltitudeMeters>683.79998779296875</AltitudeMeters>
            <DistanceMeters>NAN</DistanceMeters>
          </Trackpoint>
          <Trackpoint>
            <Time>2021-08-03T13:52:25.000Z</Time>
            <Position>
              <LatitudeDegrees>-15.4662868939340114593505859375</LatitudeDegrees>
              <LongitudeDegrees>36.9958103634417057037353515625</LongitudeDegrees>
            </Position>
            <AltitudeMeters>684.20001220703125</AltitudeMeters>
            <DistanceMeters>NAN</DistanceMeters>
          </Trackpoint>
          <Trackpoint>
            <Time>2021-08-03T13:52:29.000Z</Time>
            <Position>
              <LatitudeDegrees>-15.466259233653545379638671875</LatitudeDegrees>
              <LongitudeDegrees>36.99577524326741695404052734375</LongitudeDegrees>
            </Position>
            <AltitudeMeters>684.5999755859375</AltitudeMeters>
            <DistanceMeters>NAN</DistanceMeters>
          </Trackpoint>
          <Trackpoint>
            <Time>2021-08-03T13:52:35.000Z</Time>
            <Position>
              <LatitudeDegrees>-15.46623098663985729217529296875</LatitudeDegrees>
              <LongitudeDegrees>36.9957174919545650482177734375</LongitudeDegrees>
            </Position>
            <AltitudeMeters>685</AltitudeMeters>
            <DistanceMeters>NAN</DistanceMeters>
          </Trackpoint>
          <Trackpoint>
            <Time>2021-08-03T13:52:39.000Z</Time>
            <Position>
              <LatitudeDegrees>-15.4662081040441989898681640625</LatitudeDegrees>
              <LongitudeDegrees>36.99567818082869052886962890625</LongitudeDegrees>
            </Position>
            <AltitudeMeters>685</AltitudeMeters>
            <DistanceMeters>NAN</DistanceMeters>
          </Trackpoint>
          <Trackpoint>
            <Time>2021-08-03T13:52:42.000Z</Time>
            <Position>
              <LatitudeDegrees>-15.46618823893368244171142578125</LatitudeDegrees>
              <LongitudeDegrees>36.9956494309008121490478515625</LongitudeDegrees>
            </Position>
            <AltitudeMeters>685.5999755859375</AltitudeMeters>
            <DistanceMeters>NAN</DistanceMeters>
          </Trackpoint>
          <Trackpoint>
            <Time>2021-08-03T13:52:45.000Z</Time>
            <Position>
              <LatitudeDegrees>-15.466171391308307647705078125</LatitudeDegrees>
              <LongitudeDegrees>36.99562286026775836944580078125</LongitudeDegrees>
            </Position>
            <AltitudeMeters>686</AltitudeMeters>
            <DistanceMeters>NAN</DistanceMeters>
          </Trackpoint>
          <Trackpoint>
            <Time>2021-08-03T13:52:50.000Z</Time>
            <Position>
              <LatitudeDegrees>-15.466150604188442230224609375</LatitudeDegrees>
              <LongitudeDegrees>36.9955753348767757415771484375</LongitudeDegrees>
            </Position>
            <AltitudeMeters>686.5999755859375</AltitudeMeters>
            <DistanceMeters>NAN</DistanceMeters>
          </Trackpoint>
          <Trackpoint>
            <Time>2021-08-03T13:52:57.000Z</Time>
            <Position>
              <LatitudeDegrees>-15.46611833386123180389404296875</LatitudeDegrees>
              <LongitudeDegrees>36.9955225288867950439453125</LongitudeDegrees>
            </Position>
            <AltitudeMeters>687.79998779296875</AltitudeMeters>
            <DistanceMeters>NAN</DistanceMeters>
          </Trackpoint>
          <Trackpoint>
            <Time>2021-08-03T13:52:58.000Z</Time>
            <Position>
              <LatitudeDegrees>-15.46611716039478778839111328125</LatitudeDegrees>
              <LongitudeDegrees>36.99551917612552642822265625</LongitudeDegrees>
            </Position>
            <AltitudeMeters>687.79998779296875</AltitudeMeters>
            <DistanceMeters>NAN</DistanceMeters>
          </Trackpoint>
          <Trackpoint>
            <Time>2021-08-03T13:53:01.000Z</Time>
            <Position>
              <LatitudeDegrees>-15.466103665530681610107421875</LatitudeDegrees>
              <LongitudeDegrees>36.9954968802630901336669921875</LongitudeDegrees>
            </Position>
            <AltitudeMeters>688</AltitudeMeters>
            <DistanceMeters>NAN</DistanceMeters>
          </Trackpoint>
          <Trackpoint>
            <Time>2021-08-03T13:53:05.000Z</Time>
            <Position>
              <LatitudeDegrees>-15.46608187258243560791015625</LatitudeDegrees>
              <LongitudeDegrees>36.99546075426042079925537109375</LongitudeDegrees>
            </Position>
            <AltitudeMeters>688.4000244140625</AltitudeMeters>
            <DistanceMeters>NAN</DistanceMeters>
          </Trackpoint>
          <Trackpoint>
            <Time>2021-08-03T13:53:07.000Z</Time>
            <Position>
              <LatitudeDegrees>-15.466065108776092529296875</LatitudeDegrees>
              <LongitudeDegrees>36.99544533155858516693115234375</LongitudeDegrees>
            </Position>
            <AltitudeMeters>688.79998779296875</AltitudeMeters>
            <DistanceMeters>NAN</DistanceMeters>
          </Trackpoint>
          <Trackpoint>
            <Time>2021-08-03T13:53:13.000Z</Time>
            <Position>
              <LatitudeDegrees>-15.46603820286691188812255859375</LatitudeDegrees>
              <LongitudeDegrees>36.99539001099765300750732421875</LongitudeDegrees>
            </Position>
            <AltitudeMeters>689.5999755859375</AltitudeMeters>
            <DistanceMeters>NAN</DistanceMeters>
          </Trackpoint>
          <Trackpoint>
            <Time>2021-08-03T13:53:16.000Z</Time>
            <Position>
              <LatitudeDegrees>-15.46602529473602771759033203125</LatitudeDegrees>
              <LongitudeDegrees>36.9953615963459014892578125</LongitudeDegrees>
            </Position>
            <AltitudeMeters>689.79998779296875</AltitudeMeters>
            <DistanceMeters>NAN</DistanceMeters>
          </Trackpoint>
          <Trackpoint>
            <Time>2021-08-03T13:53:18.000Z</Time>
            <Position>
              <LatitudeDegrees>-15.46601590700447559356689453125</LatitudeDegrees>
              <LongitudeDegrees>36.99534323997795581817626953125</LongitudeDegrees>
            </Position>
            <AltitudeMeters>690.20001220703125</AltitudeMeters>
            <DistanceMeters>NAN</DistanceMeters>
          </Trackpoint>
          <Trackpoint>
            <Time>2021-08-03T13:53:24.000Z</Time>
            <Position>
              <LatitudeDegrees>-15.46598690561950206756591796875</LatitudeDegrees>
              <LongitudeDegrees>36.995286159217357635498046875</LongitudeDegrees>
            </Position>
            <AltitudeMeters>691.20001220703125</AltitudeMeters>
            <DistanceMeters>NAN</DistanceMeters>
          </Trackpoint>
          <Trackpoint>
            <Time>2021-08-03T13:53:26.000Z</Time>
            <Position>
              <LatitudeDegrees>-15.465975590050220489501953125</LatitudeDegrees>
              <LongitudeDegrees>36.995266713201999664306640625</LongitudeDegrees>
            </Position>
            <AltitudeMeters>691.4000244140625</AltitudeMeters>
            <DistanceMeters>NAN</DistanceMeters>
          </Trackpoint>
          <Trackpoint>
            <Time>2021-08-03T13:53:28.000Z</Time>
            <Position>
              <LatitudeDegrees>-15.46596444211900234222412109375</LatitudeDegrees>
              <LongitudeDegrees>36.99525103904306888580322265625</LongitudeDegrees>
            </Position>
            <AltitudeMeters>691.5999755859375</AltitudeMeters>
            <DistanceMeters>NAN</DistanceMeters>
          </Trackpoint>
          <Trackpoint>
            <Time>2021-08-03T13:53:35.000Z</Time>
            <Position>
              <LatitudeDegrees>-15.46591565944254398345947265625</LatitudeDegrees>
              <LongitudeDegrees>36.99518926441669464111328125</LongitudeDegrees>
            </Position>
            <AltitudeMeters>692</AltitudeMeters>
            <DistanceMeters>NAN</DistanceMeters>
          </Trackpoint>
          <Trackpoint>
            <Time>2021-08-03T13:53:38.000Z</Time>
            <Position>
              <LatitudeDegrees>-15.4658974707126617431640625</LatitudeDegrees>
              <LongitudeDegrees>36.9951585866510868072509765625</LongitudeDegrees>
            </Position>
            <AltitudeMeters>692.20001220703125</AltitudeMeters>
            <DistanceMeters>NAN</DistanceMeters>
          </Trackpoint>
          <Trackpoint>
            <Time>2021-08-03T13:53:40.000Z</Time>
            <Position>
              <LatitudeDegrees>-15.46588229946792125701904296875</LatitudeDegrees>
              <LongitudeDegrees>36.99514090083539485931396484375</LongitudeDegrees>
            </Position>
            <AltitudeMeters>692.20001220703125</AltitudeMeters>
            <DistanceMeters>NAN</DistanceMeters>
          </Trackpoint>
          <Trackpoint>
            <Time>2021-08-03T13:53:44.000Z</Time>
            <Position>
              <LatitudeDegrees>-15.46586033888161182403564453125</LatitudeDegrees>
              <LongitudeDegrees>36.9951150007545948028564453125</LongitudeDegrees>
            </Position>
            <AltitudeMeters>692.79998779296875</AltitudeMeters>
            <DistanceMeters>NAN</DistanceMeters>
          </Trackpoint>
          <Trackpoint>
            <Time>2021-08-03T13:53:50.000Z</Time>
            <Position>
              <LatitudeDegrees>-15.46584055759012699127197265625</LatitudeDegrees>
              <LongitudeDegrees>36.99510133825242519378662109375</LongitudeDegrees>
            </Position>
            <AltitudeMeters>693</AltitudeMeters>
            <DistanceMeters>NAN</DistanceMeters>
          </Trackpoint>
          <Trackpoint>
            <Time>2021-08-03T13:53:51.000Z</Time>
            <Position>
              <LatitudeDegrees>-15.4658372886478900909423828125</LatitudeDegrees>
              <LongitudeDegrees>36.99509379453957080841064453125</LongitudeDegrees>
            </Position>
            <AltitudeMeters>693.20001220703125</AltitudeMeters>
            <DistanceMeters>NAN</DistanceMeters>
          </Trackpoint>
          <Trackpoint>
            <Time>2021-08-03T13:53:52.000Z</Time>
            <Position>
              <LatitudeDegrees>-15.46583469025790691375732421875</LatitudeDegrees>
              <LongitudeDegrees>36.9950826466083526611328125</LongitudeDegrees>
            </Position>
            <AltitudeMeters>693.20001220703125</AltitudeMeters>
            <DistanceMeters>NAN</DistanceMeters>
          </Trackpoint>
          <Trackpoint>
            <Time>2021-08-03T13:53:54.000Z</Time>
            <Position>
              <LatitudeDegrees>-15.465828739106655120849609375</LatitudeDegrees>
              <LongitudeDegrees>36.99506110511720180511474609375</LongitudeDegrees>
            </Position>
            <AltitudeMeters>693.20001220703125</AltitudeMeters>
            <DistanceMeters>NAN</DistanceMeters>
          </Trackpoint>
          <Trackpoint>
            <Time>2021-08-03T13:53:58.000Z</Time>
            <Position>
              <LatitudeDegrees>-15.46580283902585506439208984375</LatitudeDegrees>
              <LongitudeDegrees>36.99502506293356418609619140625</LongitudeDegrees>
            </Position>
            <AltitudeMeters>693.5999755859375</AltitudeMeters>
            <DistanceMeters>NAN</DistanceMeters>
          </Trackpoint>
          <Trackpoint>
            <Time>2021-08-03T13:54:02.000Z</Time>
            <Position>
              <LatitudeDegrees>-15.46578121371567249298095703125</LatitudeDegrees>
              <LongitudeDegrees>36.9949842430651187896728515625</LongitudeDegrees>
            </Position>
            <AltitudeMeters>693.79998779296875</AltitudeMeters>
            <DistanceMeters>NAN</DistanceMeters>
          </Trackpoint>
          <Trackpoint>
            <Time>2021-08-03T13:54:05.000Z</Time>
            <Position>
              <LatitudeDegrees>-15.46575975604355335235595703125</LatitudeDegrees>
              <LongitudeDegrees>36.9949570856988430023193359375</LongitudeDegrees>
            </Position>
            <AltitudeMeters>694</AltitudeMeters>
            <DistanceMeters>NAN</DistanceMeters>
          </Trackpoint>
          <Trackpoint>
            <Time>2021-08-03T13:54:06.000Z</Time>
            <Position>
              <LatitudeDegrees>-15.465754307806491851806640625</LatitudeDegrees>
              <LongitudeDegrees>36.994945518672466278076171875</LongitudeDegrees>
            </Position>
            <AltitudeMeters>694.20001220703125</AltitudeMeters>
            <DistanceMeters>NAN</DistanceMeters>
          </Trackpoint>
          <Trackpoint>
            <Time>2021-08-03T13:54:08.000Z</Time>
            <Position>
              <LatitudeDegrees>-15.465738885104656219482421875</LatitudeDegrees>
              <LongitudeDegrees>36.99492506682872772216796875</LongitudeDegrees>
            </Position>
            <AltitudeMeters>694.4000244140625</AltitudeMeters>
            <DistanceMeters>NAN</DistanceMeters>
          </Trackpoint>
          <Trackpoint>
            <Time>2021-08-03T13:54:11.000Z</Time>
            <Position>
              <LatitudeDegrees>-15.4657236300408840179443359375</LatitudeDegrees>
              <LongitudeDegrees>36.994898580014705657958984375</LongitudeDegrees>
            </Position>
            <AltitudeMeters>694.4000244140625</AltitudeMeters>
            <DistanceMeters>NAN</DistanceMeters>
          </Trackpoint>
          <Trackpoint>
            <Time>2021-08-03T13:54:14.000Z</Time>
            <Position>
              <LatitudeDegrees>-15.46569923870265483856201171875</LatitudeDegrees>
              <LongitudeDegrees>36.994861699640750885009765625</LongitudeDegrees>
            </Position>
            <AltitudeMeters>694.5999755859375</AltitudeMeters>
            <DistanceMeters>NAN</DistanceMeters>
          </Trackpoint>
          <Trackpoint>
            <Time>2021-08-03T13:54:16.000Z</Time>
            <Position>
              <LatitudeDegrees>-15.465687252581119537353515625</LatitudeDegrees>
              <LongitudeDegrees>36.994844935834407806396484375</LongitudeDegrees>
            </Position>
            <AltitudeMeters>694.5999755859375</AltitudeMeters>
            <DistanceMeters>NAN</DistanceMeters>
          </Trackpoint>
          <Trackpoint>
            <Time>2021-08-03T13:54:18.000Z</Time>
            <Position>
              <LatitudeDegrees>-15.4656736738979816436767578125</LatitudeDegrees>
              <LongitudeDegrees>36.994825489819049835205078125</LongitudeDegrees>
            </Position>
            <AltitudeMeters>694.5999755859375</AltitudeMeters>
            <DistanceMeters>NAN</DistanceMeters>
          </Trackpoint>
          <Trackpoint>
            <Time>2021-08-03T13:54:20.000Z</Time>
            <Position>
              <LatitudeDegrees>-15.46566034667193889617919921875</LatitudeDegrees>
              <LongitudeDegrees>36.99480445124208927154541015625</LongitudeDegrees>
            </Position>
            <AltitudeMeters>694.79998779296875</AltitudeMeters>
            <DistanceMeters>NAN</DistanceMeters>
          </Trackpoint>
          <Trackpoint>
            <Time>2021-08-03T13:54:23.000Z</Time>
            <Position>
              <LatitudeDegrees>-15.46563687734305858612060546875</LatitudeDegrees>
              <LongitudeDegrees>36.99476941488683223724365234375</LongitudeDegrees>
            </Position>
            <AltitudeMeters>694.79998779296875</AltitudeMeters>
            <DistanceMeters>NAN</DistanceMeters>
          </Trackpoint>
          <Trackpoint>
            <Time>2021-08-03T13:54:27.000Z</Time>
            <Position>
              <LatitudeDegrees>-15.46561122871935367584228515625</LatitudeDegrees>
              <LongitudeDegrees>36.99473286978900432586669921875</LongitudeDegrees>
            </Position>
            <AltitudeMeters>695</AltitudeMeters>
            <DistanceMeters>NAN</DistanceMeters>
          </Trackpoint>
          <Trackpoint>
            <Time>2021-08-03T13:54:30.000Z</Time>
            <Position>
              <LatitudeDegrees>-15.46558960340917110443115234375</LatitudeDegrees>
              <LongitudeDegrees>36.99469699524343013763427734375</LongitudeDegrees>
            </Position>
            <AltitudeMeters>694.79998779296875</AltitudeMeters>
            <DistanceMeters>NAN</DistanceMeters>
          </Trackpoint>
          <Trackpoint>
            <Time>2021-08-03T13:54:39.000Z</Time>
            <Position>
              <LatitudeDegrees>-15.46553310938179492950439453125</LatitudeDegrees>
              <LongitudeDegrees>36.9946087338030338287353515625</LongitudeDegrees>
            </Position>
            <AltitudeMeters>695.20001220703125</AltitudeMeters>
            <DistanceMeters>NAN</DistanceMeters>
          </Trackpoint>
          <Trackpoint>
            <Time>2021-08-03T13:54:42.000Z</Time>
            <Position>
              <LatitudeDegrees>-15.46551165170967578887939453125</LatitudeDegrees>
              <LongitudeDegrees>36.994584761559963226318359375</LongitudeDegrees>
            </Position>
            <AltitudeMeters>695.20001220703125</AltitudeMeters>
            <DistanceMeters>NAN</DistanceMeters>
          </Trackpoint>
          <Trackpoint>
            <Time>2021-08-03T13:54:45.000Z</Time>
            <Position>
              <LatitudeDegrees>-15.46549103222787380218505859375</LatitudeDegrees>
              <LongitudeDegrees>36.99455089867115020751953125</LongitudeDegrees>
            </Position>
            <AltitudeMeters>695</AltitudeMeters>
            <DistanceMeters>NAN</DistanceMeters>
          </Trackpoint>
          <Trackpoint>
            <Time>2021-08-03T13:54:49.000Z</Time>
            <Position>
              <LatitudeDegrees>-15.4654644615948200225830078125</LatitudeDegrees>
              <LongitudeDegrees>36.99450890533626079559326171875</LongitudeDegrees>
            </Position>
            <AltitudeMeters>695.4000244140625</AltitudeMeters>
            <DistanceMeters>NAN</DistanceMeters>
          </Trackpoint>
          <Trackpoint>
            <Time>2021-08-03T13:54:53.000Z</Time>
            <Position>
              <LatitudeDegrees>-15.46543973498046398162841796875</LatitudeDegrees>
              <LongitudeDegrees>36.994474120438098907470703125</LongitudeDegrees>
            </Position>
            <AltitudeMeters>695.4000244140625</AltitudeMeters>
            <DistanceMeters>NAN</DistanceMeters>
          </Trackpoint>
          <Trackpoint>
            <Time>2021-08-03T13:54:55.000Z</Time>
            <Position>
              <LatitudeDegrees>-15.465436466038227081298828125</LatitudeDegrees>
              <LongitudeDegrees>36.9944699294865131378173828125</LongitudeDegrees>
            </Position>
            <AltitudeMeters>695.4000244140625</AltitudeMeters>
            <DistanceMeters>NAN</DistanceMeters>
          </Trackpoint>
          <Trackpoint>
            <Time>2021-08-03T13:54:56.000Z</Time>
            <Position>
              <LatitudeDegrees>-15.46543571166694164276123046875</LatitudeDegrees>
              <LongitudeDegrees>36.99446481652557849884033203125</LongitudeDegrees>
            </Position>
            <AltitudeMeters>695.4000244140625</AltitudeMeters>
            <DistanceMeters>NAN</DistanceMeters>
          </Trackpoint>
          <Trackpoint>
            <Time>2021-08-03T13:55:03.000Z</Time>
            <Position>
              <LatitudeDegrees>-15.46539313159883022308349609375</LatitudeDegrees>
              <LongitudeDegrees>36.99439323507249355316162109375</LongitudeDegrees>
            </Position>
            <AltitudeMeters>695.5999755859375</AltitudeMeters>
            <DistanceMeters>NAN</DistanceMeters>
          </Trackpoint>
          <Trackpoint>
            <Time>2021-08-03T13:55:05.000Z</Time>
            <Position>
              <LatitudeDegrees>-15.46538189984858036041259765625</LatitudeDegrees>
              <LongitudeDegrees>36.994372867047786712646484375</LongitudeDegrees>
            </Position>
            <AltitudeMeters>695.5999755859375</AltitudeMeters>
            <DistanceMeters>NAN</DistanceMeters>
          </Trackpoint>
          <Trackpoint>
            <Time>2021-08-03T13:55:15.000Z</Time>
            <Position>
              <LatitudeDegrees>-15.46532305888831615447998046875</LatitudeDegrees>
              <LongitudeDegrees>36.9942704401910305023193359375</LongitudeDegrees>
            </Position>
            <AltitudeMeters>696</AltitudeMeters>
            <DistanceMeters>NAN</DistanceMeters>
          </Trackpoint>
          <Trackpoint>
            <Time>2021-08-03T13:55:22.000Z</Time>
            <Position>
              <LatitudeDegrees>-15.46527863480150699615478515625</LatitudeDegrees>
              <LongitudeDegrees>36.99420615099370479583740234375</LongitudeDegrees>
            </Position>
            <AltitudeMeters>696.4000244140625</AltitudeMeters>
            <DistanceMeters>NAN</DistanceMeters>
          </Trackpoint>
          <Trackpoint>
            <Time>2021-08-03T13:55:27.000Z</Time>
            <Position>
              <LatitudeDegrees>-15.4652461968362331390380859375</LatitudeDegrees>
              <LongitudeDegrees>36.994148232042789459228515625</LongitudeDegrees>
            </Position>
            <AltitudeMeters>696.4000244140625</AltitudeMeters>
            <DistanceMeters>NAN</DistanceMeters>
          </Trackpoint>
          <Trackpoint>
            <Time>2021-08-03T13:55:31.000Z</Time>
            <Position>
              <LatitudeDegrees>-15.465217530727386474609375</LatitudeDegrees>
              <LongitudeDegrees>36.99410791508853435516357421875</LongitudeDegrees>
            </Position>
            <AltitudeMeters>696.4000244140625</AltitudeMeters>
            <DistanceMeters>NAN</DistanceMeters>
          </Trackpoint>
          <Trackpoint>
            <Time>2021-08-03T13:55:35.000Z</Time>
            <Position>
              <LatitudeDegrees>-15.46519146300852298736572265625</LatitudeDegrees>
              <LongitudeDegrees>36.99407472275197505950927734375</LongitudeDegrees>
            </Position>
            <AltitudeMeters>696.4000244140625</AltitudeMeters>
            <DistanceMeters>NAN</DistanceMeters>
          </Trackpoint>
          <Trackpoint>
            <Time>2021-08-03T13:55:37.000Z</Time>
            <Position>
              <LatitudeDegrees>-15.46518006362020969390869140625</LatitudeDegrees>
              <LongitudeDegrees>36.99405427090823650360107421875</LongitudeDegrees>
            </Position>
            <AltitudeMeters>696.4000244140625</AltitudeMeters>
            <DistanceMeters>NAN</DistanceMeters>
          </Trackpoint>
          <Trackpoint>
            <Time>2021-08-03T13:55:44.000Z</Time>
            <Position>
              <LatitudeDegrees>-15.46514712274074554443359375</LatitudeDegrees>
              <LongitudeDegrees>36.993994675576686859130859375</LongitudeDegrees>
            </Position>
            <AltitudeMeters>696</AltitudeMeters>
            <DistanceMeters>NAN</DistanceMeters>
          </Trackpoint>
          <Trackpoint>
            <Time>2021-08-03T13:55:45.000Z</Time>
            <Position>
              <LatitudeDegrees>-15.46514603309333324432373046875</LatitudeDegrees>
              <LongitudeDegrees>36.99398905970156192779541015625</LongitudeDegrees>
            </Position>
            <AltitudeMeters>696</AltitudeMeters>
            <DistanceMeters>NAN</DistanceMeters>
          </Trackpoint>
          <Trackpoint>
            <Time>2021-08-03T13:55:52.000Z</Time>
            <Position>
              <LatitudeDegrees>-15.46514117158949375152587890625</LatitudeDegrees>
              <LongitudeDegrees>36.99392435140907764434814453125</LongitudeDegrees>
            </Position>
            <AltitudeMeters>695.5999755859375</AltitudeMeters>
            <DistanceMeters>NAN</DistanceMeters>
          </Trackpoint>
          <Trackpoint>
            <Time>2021-08-03T13:55:55.000Z</Time>
            <Position>
              <LatitudeDegrees>-15.46514335088431835174560546875</LatitudeDegrees>
              <LongitudeDegrees>36.99391119182109832763671875</LongitudeDegrees>
            </Position>
            <AltitudeMeters>695.4000244140625</AltitudeMeters>
            <DistanceMeters>NAN</DistanceMeters>
          </Trackpoint>
          <Trackpoint>
            <Time>2021-08-03T13:55:57.000Z</Time>
            <Position>
              <LatitudeDegrees>-15.46514368616044521331787109375</LatitudeDegrees>
              <LongitudeDegrees>36.9939143769443035125732421875</LongitudeDegrees>
            </Position>
            <AltitudeMeters>695.4000244140625</AltitudeMeters>
            <DistanceMeters>NAN</DistanceMeters>
          </Trackpoint>
          <Trackpoint>
            <Time>2021-08-03T13:56:04.000Z</Time>
            <Position>
              <LatitudeDegrees>-15.465172268450260162353515625</LatitudeDegrees>
              <LongitudeDegrees>36.9938912428915500640869140625</LongitudeDegrees>
            </Position>
            <AltitudeMeters>695.5999755859375</AltitudeMeters>
            <DistanceMeters>NAN</DistanceMeters>
          </Trackpoint>
          <Trackpoint>
            <Time>2021-08-03T13:56:05.000Z</Time>
            <Position>
              <LatitudeDegrees>-15.46518039889633655548095703125</LatitudeDegrees>
              <LongitudeDegrees>36.9938852079212665557861328125</LongitudeDegrees>
            </Position>
            <AltitudeMeters>695.5999755859375</AltitudeMeters>
            <DistanceMeters>NAN</DistanceMeters>
          </Trackpoint>
          <Trackpoint>
            <Time>2021-08-03T13:56:13.000Z</Time>
            <Position>
              <LatitudeDegrees>-15.46526807360351085662841796875</LatitudeDegrees>
              <LongitudeDegrees>36.99383181519806385040283203125</LongitudeDegrees>
            </Position>
            <AltitudeMeters>695.79998779296875</AltitudeMeters>
            <DistanceMeters>NAN</DistanceMeters>
          </Trackpoint>
          <Trackpoint>
            <Time>2021-08-03T13:56:21.000Z</Time>
            <Position>
              <LatitudeDegrees>-15.465352647006511688232421875</LatitudeDegrees>
              <LongitudeDegrees>36.9937795959413051605224609375</LongitudeDegrees>
            </Position>
            <AltitudeMeters>695.4000244140625</AltitudeMeters>
            <DistanceMeters>NAN</DistanceMeters>
          </Trackpoint>
          <Trackpoint>
            <Time>2021-08-03T13:56:26.000Z</Time>
            <Position>
              <LatitudeDegrees>-15.465406961739063262939453125</LatitudeDegrees>
              <LongitudeDegrees>36.99374749325215816497802734375</LongitudeDegrees>
            </Position>
            <AltitudeMeters>695.4000244140625</AltitudeMeters>
            <DistanceMeters>NAN</DistanceMeters>
          </Trackpoint>
          <Trackpoint>
            <Time>2021-08-03T13:56:31.000Z</Time>
            <Position>
              <LatitudeDegrees>-15.4654577560722827911376953125</LatitudeDegrees>
              <LongitudeDegrees>36.99370826594531536102294921875</LongitudeDegrees>
            </Position>
            <AltitudeMeters>695.5999755859375</AltitudeMeters>
            <DistanceMeters>NAN</DistanceMeters>
          </Trackpoint>
          <Trackpoint>
            <Time>2021-08-03T13:56:36.000Z</Time>
            <Position>
              <LatitudeDegrees>-15.46550863422453403472900390625</LatitudeDegrees>
              <LongitudeDegrees>36.99367356486618518829345703125</LongitudeDegrees>
            </Position>
            <AltitudeMeters>696.20001220703125</AltitudeMeters>
            <DistanceMeters>NAN</DistanceMeters>
          </Trackpoint>
          <Trackpoint>
            <Time>2021-08-03T13:56:39.000Z</Time>
            <Position>
              <LatitudeDegrees>-15.46554383821785449981689453125</LatitudeDegrees>
              <LongitudeDegrees>36.9936530292034149169921875</LongitudeDegrees>
            </Position>
            <AltitudeMeters>696.20001220703125</AltitudeMeters>
            <DistanceMeters>NAN</DistanceMeters>
          </Trackpoint>
          <Trackpoint>
            <Time>2021-08-03T13:56:41.000Z</Time>
            <Position>
              <LatitudeDegrees>-15.4655677266418933868408203125</LatitudeDegrees>
              <LongitudeDegrees>36.9936414621770381927490234375</LongitudeDegrees>
            </Position>
            <AltitudeMeters>696.5999755859375</AltitudeMeters>
            <DistanceMeters>NAN</DistanceMeters>
          </Trackpoint>
          <Trackpoint>
            <Time>2021-08-03T13:56:45.000Z</Time>
            <Position>
              <LatitudeDegrees>-15.4656076245009899139404296875</LatitudeDegrees>
              <LongitudeDegrees>36.9936216808855533599853515625</LongitudeDegrees>
            </Position>
            <AltitudeMeters>696.79998779296875</AltitudeMeters>
            <DistanceMeters>NAN</DistanceMeters>
          </Trackpoint>
          <Trackpoint>
            <Time>2021-08-03T13:56:47.000Z</Time>
            <Position>
              <LatitudeDegrees>-15.46563201583921909332275390625</LatitudeDegrees>
              <LongitudeDegrees>36.9936059229075908660888671875</LongitudeDegrees>
            </Position>
            <AltitudeMeters>696.79998779296875</AltitudeMeters>
            <DistanceMeters>NAN</DistanceMeters>
          </Trackpoint>
          <Trackpoint>
            <Time>2021-08-03T13:56:50.000Z</Time>
            <Position>
              <LatitudeDegrees>-15.46566009521484375</LatitudeDegrees>
              <LongitudeDegrees>36.99358521960675716400146484375</LongitudeDegrees>
            </Position>
            <AltitudeMeters>697.20001220703125</AltitudeMeters>
            <DistanceMeters>NAN</DistanceMeters>
          </Trackpoint>
          <Trackpoint>
            <Time>2021-08-03T13:56:54.000Z</Time>
            <Position>
              <LatitudeDegrees>-15.46570192091166973114013671875</LatitudeDegrees>
              <LongitudeDegrees>36.99357247911393642425537109375</LongitudeDegrees>
            </Position>
            <AltitudeMeters>697.5999755859375</AltitudeMeters>
            <DistanceMeters>NAN</DistanceMeters>
          </Trackpoint>
          <Trackpoint>
            <Time>2021-08-03T13:56:55.000Z</Time>
            <Position>
              <LatitudeDegrees>-15.46570979990065097808837890625</LatitudeDegrees>
              <LongitudeDegrees>36.9935730658471584320068359375</LongitudeDegrees>
            </Position>
            <AltitudeMeters>697.5999755859375</AltitudeMeters>
            <DistanceMeters>NAN</DistanceMeters>
          </Trackpoint>
          <Trackpoint>
            <Time>2021-08-03T13:57:00.000Z</Time>
            <Position>
              <LatitudeDegrees>-15.46575824730098247528076171875</LatitudeDegrees>
              <LongitudeDegrees>36.99356946162879467010498046875</LongitudeDegrees>
            </Position>
            <AltitudeMeters>698.20001220703125</AltitudeMeters>
            <DistanceMeters>NAN</DistanceMeters>
          </Trackpoint>
          <Trackpoint>
            <Time>2021-08-03T13:57:03.000Z</Time>
            <Position>
              <LatitudeDegrees>-15.46578909270465373992919921875</LatitudeDegrees>
              <LongitudeDegrees>36.99356476776301860809326171875</LongitudeDegrees>
            </Position>
            <AltitudeMeters>698.4000244140625</AltitudeMeters>
            <DistanceMeters>NAN</DistanceMeters>
          </Trackpoint>
          <Trackpoint>
            <Time>2021-08-03T13:57:05.000Z</Time>
            <Position>
              <LatitudeDegrees>-15.46580920927226543426513671875</LatitudeDegrees>
              <LongitudeDegrees>36.9935563020408153533935546875</LongitudeDegrees>
            </Position>
            <AltitudeMeters>698.79998779296875</AltitudeMeters>
            <DistanceMeters>NAN</DistanceMeters>
          </Trackpoint>
          <Trackpoint>
            <Time>2021-08-03T13:57:06.000Z</Time>
            <Position>
              <LatitudeDegrees>-15.465818010270595550537109375</LatitudeDegrees>
              <LongitudeDegrees>36.9935516081750392913818359375</LongitudeDegrees>
            </Position>
            <AltitudeMeters>698.79998779296875</AltitudeMeters>
            <DistanceMeters>NAN</DistanceMeters>
          </Trackpoint>
          <Trackpoint>
            <Time>2021-08-03T13:57:13.000Z</Time>
            <Position>
              <LatitudeDegrees>-15.46588816680014133453369140625</LatitudeDegrees>
              <LongitudeDegrees>36.993523277342319488525390625</LongitudeDegrees>
            </Position>
            <AltitudeMeters>699.79998779296875</AltitudeMeters>
            <DistanceMeters>NAN</DistanceMeters>
          </Trackpoint>
          <Trackpoint>
            <Time>2021-08-03T13:57:17.000Z</Time>
            <Position>
              <LatitudeDegrees>-15.46593108214437961578369140625</LatitudeDegrees>
              <LongitudeDegrees>36.99350240640342235565185546875</LongitudeDegrees>
            </Position>
            <AltitudeMeters>700</AltitudeMeters>
            <DistanceMeters>NAN</DistanceMeters>
          </Trackpoint>
          <Trackpoint>
            <Time>2021-08-03T13:57:19.000Z</Time>
            <Position>
              <LatitudeDegrees>-15.46594415791332721710205078125</LatitudeDegrees>
              <LongitudeDegrees>36.99347927235066890716552734375</LongitudeDegrees>
            </Position>
            <AltitudeMeters>700</AltitudeMeters>
            <DistanceMeters>NAN</DistanceMeters>
          </Trackpoint>
          <Trackpoint>
            <Time>2021-08-03T13:57:25.000Z</Time>
            <Position>
              <LatitudeDegrees>-15.46597299166023731231689453125</LatitudeDegrees>
              <LongitudeDegrees>36.99340903200209140777587890625</LongitudeDegrees>
            </Position>
            <AltitudeMeters>700</AltitudeMeters>
            <DistanceMeters>NAN</DistanceMeters>
          </Trackpoint>
          <Trackpoint>
            <Time>2021-08-03T13:57:27.000Z</Time>
            <Position>
              <LatitudeDegrees>-15.46599201858043670654296875</LatitudeDegrees>
              <LongitudeDegrees>36.99339780025184154510498046875</LongitudeDegrees>
            </Position>
            <AltitudeMeters>700</AltitudeMeters>
            <DistanceMeters>NAN</DistanceMeters>
          </Trackpoint>
          <Trackpoint>
            <Time>2021-08-03T13:57:31.000Z</Time>
            <Position>
              <LatitudeDegrees>-15.46602814458310604095458984375</LatitudeDegrees>
              <LongitudeDegrees>36.9933713972568511962890625</LongitudeDegrees>
            </Position>
            <AltitudeMeters>700</AltitudeMeters>
            <DistanceMeters>NAN</DistanceMeters>
          </Trackpoint>
          <Trackpoint>
            <Time>2021-08-03T13:57:36.000Z</Time>
            <Position>
              <LatitudeDegrees>-15.46607784926891326904296875</LatitudeDegrees>
              <LongitudeDegrees>36.9933350197970867156982421875</LongitudeDegrees>
            </Position>
            <AltitudeMeters>699.4000244140625</AltitudeMeters>
            <DistanceMeters>NAN</DistanceMeters>
          </Trackpoint>
          <Trackpoint>
            <Time>2021-08-03T13:57:42.000Z</Time>
            <Position>
              <LatitudeDegrees>-15.466128475964069366455078125</LatitudeDegrees>
              <LongitudeDegrees>36.993290595710277557373046875</LongitudeDegrees>
            </Position>
            <AltitudeMeters>698.79998779296875</AltitudeMeters>
            <DistanceMeters>NAN</DistanceMeters>
          </Trackpoint>
          <Trackpoint>
            <Time>2021-08-03T13:57:44.000Z</Time>
            <Position>
              <LatitudeDegrees>-15.4661293141543865203857421875</LatitudeDegrees>
              <LongitudeDegrees>36.9932706467807292938232421875</LongitudeDegrees>
            </Position>
            <AltitudeMeters>699</AltitudeMeters>
            <DistanceMeters>NAN</DistanceMeters>
          </Trackpoint>
          <Trackpoint>
            <Time>2021-08-03T13:57:50.000Z</Time>
            <Position>
              <LatitudeDegrees>-15.46612185426056385040283203125</LatitudeDegrees>
              <LongitudeDegrees>36.9931952096521854400634765625</LongitudeDegrees>
            </Position>
            <AltitudeMeters>699.20001220703125</AltitudeMeters>
            <DistanceMeters>NAN</DistanceMeters>
          </Trackpoint>
          <Trackpoint>
            <Time>2021-08-03T13:57:54.000Z</Time>
            <Position>
              <LatitudeDegrees>-15.4661108739674091339111328125</LatitudeDegrees>
              <LongitudeDegrees>36.99314835481345653533935546875</LongitudeDegrees>
            </Position>
            <AltitudeMeters>699.4000244140625</AltitudeMeters>
            <DistanceMeters>NAN</DistanceMeters>
          </Trackpoint>
          <Trackpoint>
            <Time>2021-08-03T13:58:01.000Z</Time>
            <Position>
              <LatitudeDegrees>-15.4660776816308498382568359375</LatitudeDegrees>
              <LongitudeDegrees>36.9930580817162990570068359375</LongitudeDegrees>
            </Position>
            <AltitudeMeters>699.79998779296875</AltitudeMeters>
            <DistanceMeters>NAN</DistanceMeters>
          </Trackpoint>
          <Trackpoint>
            <Time>2021-08-03T13:58:05.000Z</Time>
            <Position>
              <LatitudeDegrees>-15.466060750186443328857421875</LatitudeDegrees>
              <LongitudeDegrees>36.99301457963883876800537109375</LongitudeDegrees>
            </Position>
            <AltitudeMeters>699.79998779296875</AltitudeMeters>
            <DistanceMeters>NAN</DistanceMeters>
          </Trackpoint>
          <Trackpoint>
            <Time>2021-08-03T13:58:07.000Z</Time>
            <Position>
              <LatitudeDegrees>-15.46605236828327178955078125</LatitudeDegrees>
              <LongitudeDegrees>36.99298985302448272705078125</LongitudeDegrees>
            </Position>
            <AltitudeMeters>699.5999755859375</AltitudeMeters>
            <DistanceMeters>NAN</DistanceMeters>
          </Trackpoint>
          <Trackpoint>
            <Time>2021-08-03T13:58:15.000Z</Time>
            <Position>
              <LatitudeDegrees>-15.46601724810898303985595703125</LatitudeDegrees>
              <LongitudeDegrees>36.992890946567058563232421875</LongitudeDegrees>
            </Position>
            <AltitudeMeters>699.20001220703125</AltitudeMeters>
            <DistanceMeters>NAN</DistanceMeters>
          </Trackpoint>
          <Trackpoint>
            <Time>2021-08-03T13:58:20.000Z</Time>
            <Position>
              <LatitudeDegrees>-15.4659940302371978759765625</LatitudeDegrees>
              <LongitudeDegrees>36.992829255759716033935546875</LongitudeDegrees>
            </Position>
            <AltitudeMeters>699.4000244140625</AltitudeMeters>
            <DistanceMeters>NAN</DistanceMeters>
          </Trackpoint>
          <Trackpoint>
            <Time>2021-08-03T13:58:29.000Z</Time>
            <Position>
              <LatitudeDegrees>-15.46594776213169097900390625</LatitudeDegrees>
              <LongitudeDegrees>36.99272054247558116912841796875</LongitudeDegrees>
            </Position>
            <AltitudeMeters>699.4000244140625</AltitudeMeters>
            <DistanceMeters>NAN</DistanceMeters>
          </Trackpoint>
          <Trackpoint>
            <Time>2021-08-03T13:58:32.000Z</Time>
            <Position>
              <LatitudeDegrees>-15.46593477018177509307861328125</LatitudeDegrees>
              <LongitudeDegrees>36.99268584139645099639892578125</LongitudeDegrees>
            </Position>
            <AltitudeMeters>699.4000244140625</AltitudeMeters>
            <DistanceMeters>NAN</DistanceMeters>
          </Trackpoint>
          <Trackpoint>
            <Time>2021-08-03T13:58:40.000Z</Time>
            <Position>
              <LatitudeDegrees>-15.46590275131165981292724609375</LatitudeDegrees>
              <LongitudeDegrees>36.99258944950997829437255859375</LongitudeDegrees>
            </Position>
            <AltitudeMeters>700</AltitudeMeters>
            <DistanceMeters>NAN</DistanceMeters>
          </Trackpoint>
          <Trackpoint>
            <Time>2021-08-03T13:58:43.000Z</Time>
            <Position>
              <LatitudeDegrees>-15.4658894240856170654296875</LatitudeDegrees>
              <LongitudeDegrees>36.99255357496440410614013671875</LongitudeDegrees>
            </Position>
            <AltitudeMeters>700.20001220703125</AltitudeMeters>
            <DistanceMeters>NAN</DistanceMeters>
          </Trackpoint>
          <Trackpoint>
            <Time>2021-08-03T13:58:49.000Z</Time>
            <Position>
              <LatitudeDegrees>-15.465854890644550323486328125</LatitudeDegrees>
              <LongitudeDegrees>36.99247310869395732879638671875</LongitudeDegrees>
            </Position>
            <AltitudeMeters>700.4000244140625</AltitudeMeters>
            <DistanceMeters>NAN</DistanceMeters>
          </Trackpoint>
          <Trackpoint>
            <Time>2021-08-03T13:58:51.000Z</Time>
            <Position>
              <LatitudeDegrees>-15.4658483527600765228271484375</LatitudeDegrees>
              <LongitudeDegrees>36.99245131574571132659912109375</LongitudeDegrees>
            </Position>
            <AltitudeMeters>700.4000244140625</AltitudeMeters>
            <DistanceMeters>NAN</DistanceMeters>
          </Trackpoint>
          <Trackpoint>
            <Time>2021-08-03T13:58:53.000Z</Time>
            <Position>
              <LatitudeDegrees>-15.46583971939980983734130859375</LatitudeDegrees>
              <LongitudeDegrees>36.9924287684261798858642578125</LongitudeDegrees>
            </Position>
            <AltitudeMeters>700.5999755859375</AltitudeMeters>
            <DistanceMeters>NAN</DistanceMeters>
          </Trackpoint>
          <Trackpoint>
            <Time>2021-08-03T13:58:56.000Z</Time>
            <Position>
              <LatitudeDegrees>-15.4658191837370395660400390625</LatitudeDegrees>
              <LongitudeDegrees>36.9923841767013072967529296875</LongitudeDegrees>
            </Position>
            <AltitudeMeters>700.5999755859375</AltitudeMeters>
            <DistanceMeters>NAN</DistanceMeters>
          </Trackpoint>
          <Trackpoint>
            <Time>2021-08-03T13:58:57.000Z</Time>
            <Position>
              <LatitudeDegrees>-15.465813986957073211669921875</LatitudeDegrees>
              <LongitudeDegrees>36.9923744536936283111572265625</LongitudeDegrees>
            </Position>
            <AltitudeMeters>700.79998779296875</AltitudeMeters>
            <DistanceMeters>NAN</DistanceMeters>
          </Trackpoint>
          <Trackpoint>
            <Time>2021-08-03T13:58:59.000Z</Time>
            <Position>
              <LatitudeDegrees>-15.4657970555126667022705078125</LatitudeDegrees>
              <LongitudeDegrees>36.99235324747860431671142578125</LongitudeDegrees>
            </Position>
            <AltitudeMeters>700.79998779296875</AltitudeMeters>
            <DistanceMeters>NAN</DistanceMeters>
          </Trackpoint>
          <Trackpoint>
            <Time>2021-08-03T13:59:00.000Z</Time>
            <Position>
              <LatitudeDegrees>-15.4657916910946369171142578125</LatitudeDegrees>
              <LongitudeDegrees>36.99234469793736934661865234375</LongitudeDegrees>
            </Position>
            <AltitudeMeters>700.79998779296875</AltitudeMeters>
            <DistanceMeters>NAN</DistanceMeters>
          </Trackpoint>
          <Trackpoint>
            <Time>2021-08-03T13:59:01.000Z</Time>
            <Position>
              <LatitudeDegrees>-15.46578842215240001678466796875</LatitudeDegrees>
              <LongitudeDegrees>36.9923338852822780609130859375</LongitudeDegrees>
            </Position>
            <AltitudeMeters>700.79998779296875</AltitudeMeters>
            <DistanceMeters>NAN</DistanceMeters>
          </Trackpoint>
          <Trackpoint>
            <Time>2021-08-03T13:59:03.000Z</Time>
            <Position>
              <LatitudeDegrees>-15.46577551402151584625244140625</LatitudeDegrees>
              <LongitudeDegrees>36.99231150560081005096435546875</LongitudeDegrees>
            </Position>
            <AltitudeMeters>700.5999755859375</AltitudeMeters>
            <DistanceMeters>NAN</DistanceMeters>
          </Trackpoint>
          <Trackpoint>
            <Time>2021-08-03T13:59:05.000Z</Time>
            <Position>
              <LatitudeDegrees>-15.46576134860515594482421875</LatitudeDegrees>
              <LongitudeDegrees>36.99227998964488506317138671875</LongitudeDegrees>
            </Position>
            <AltitudeMeters>700.5999755859375</AltitudeMeters>
            <DistanceMeters>NAN</DistanceMeters>
          </Trackpoint>
          <Trackpoint>
            <Time>2021-08-03T13:59:16.000Z</Time>
            <Position>
              <LatitudeDegrees>-15.46570259146392345428466796875</LatitudeDegrees>
              <LongitudeDegrees>36.9921488128602504730224609375</LongitudeDegrees>
            </Position>
            <AltitudeMeters>700.79998779296875</AltitudeMeters>
            <DistanceMeters>NAN</DistanceMeters>
          </Trackpoint>
          <Trackpoint>
            <Time>2021-08-03T13:59:24.000Z</Time>
            <Position>
              <LatitudeDegrees>-15.46567325480282306671142578125</LatitudeDegrees>
              <LongitudeDegrees>36.9920445419847965240478515625</LongitudeDegrees>
            </Position>
            <AltitudeMeters>700.79998779296875</AltitudeMeters>
            <DistanceMeters>NAN</DistanceMeters>
          </Trackpoint>
          <Trackpoint>
            <Time>2021-08-03T13:59:33.000Z</Time>
            <Position>
              <LatitudeDegrees>-15.46561759896576404571533203125</LatitudeDegrees>
              <LongitudeDegrees>36.9919365830719470977783203125</LongitudeDegrees>
            </Position>
            <AltitudeMeters>701.79998779296875</AltitudeMeters>
            <DistanceMeters>NAN</DistanceMeters>
          </Trackpoint>
          <Trackpoint>
            <Time>2021-08-03T13:59:35.000Z</Time>
            <Position>
              <LatitudeDegrees>-15.46560443937778472900390625</LatitudeDegrees>
              <LongitudeDegrees>36.9919121079146862030029296875</LongitudeDegrees>
            </Position>
            <AltitudeMeters>702</AltitudeMeters>
            <DistanceMeters>NAN</DistanceMeters>
          </Trackpoint>
          <Trackpoint>
            <Time>2021-08-03T13:59:43.000Z</Time>
            <Position>
              <LatitudeDegrees>-15.465551130473613739013671875</LatitudeDegrees>
              <LongitudeDegrees>36.99182820506393909454345703125</LongitudeDegrees>
            </Position>
            <AltitudeMeters>702.20001220703125</AltitudeMeters>
            <DistanceMeters>NAN</DistanceMeters>
          </Trackpoint>
          <Trackpoint>
            <Time>2021-08-03T13:59:48.000Z</Time>
            <Position>
              <LatitudeDegrees>-15.465519614517688751220703125</LatitudeDegrees>
              <LongitudeDegrees>36.99176282621920108795166015625</LongitudeDegrees>
            </Position>
            <AltitudeMeters>701.79998779296875</AltitudeMeters>
            <DistanceMeters>NAN</DistanceMeters>
          </Trackpoint>
          <Trackpoint>
            <Time>2021-08-03T13:59:57.000Z</Time>
            <Position>
              <LatitudeDegrees>-15.46546018682420253753662109375</LatitudeDegrees>
              <LongitudeDegrees>36.9916733913123607635498046875</LongitudeDegrees>
            </Position>
            <AltitudeMeters>701.79998779296875</AltitudeMeters>
            <DistanceMeters>NAN</DistanceMeters>
          </Trackpoint>
          <Trackpoint>
            <Time>2021-08-03T14:00:00.000Z</Time>
            <Position>
              <LatitudeDegrees>-15.46543822623789310455322265625</LatitudeDegrees>
              <LongitudeDegrees>36.99163592420518398284912109375</LongitudeDegrees>
            </Position>
            <AltitudeMeters>702</AltitudeMeters>
            <DistanceMeters>NAN</DistanceMeters>
          </Trackpoint>
          <Trackpoint>
            <Time>2021-08-03T14:00:06.000Z</Time>
            <Position>
              <LatitudeDegrees>-15.4654021002352237701416015625</LatitudeDegrees>
              <LongitudeDegrees>36.99155914597213268280029296875</LongitudeDegrees>
            </Position>
            <AltitudeMeters>702.4000244140625</AltitudeMeters>
            <DistanceMeters>NAN</DistanceMeters>
          </Trackpoint>
          <Trackpoint>
            <Time>2021-08-03T14:00:14.000Z</Time>
            <Position>
              <LatitudeDegrees>-15.4653363861143589019775390625</LatitudeDegrees>
              <LongitudeDegrees>36.9914863072335720062255859375</LongitudeDegrees>
            </Position>
            <AltitudeMeters>702.20001220703125</AltitudeMeters>
            <DistanceMeters>NAN</DistanceMeters>
          </Trackpoint>
          <Trackpoint>
            <Time>2021-08-03T14:00:20.000Z</Time>
            <Position>
              <LatitudeDegrees>-15.4652713425457477569580078125</LatitudeDegrees>
              <LongitudeDegrees>36.99144221842288970947265625</LongitudeDegrees>
            </Position>
            <AltitudeMeters>702.5999755859375</AltitudeMeters>
            <DistanceMeters>NAN</DistanceMeters>
          </Trackpoint>
          <Trackpoint>
            <Time>2021-08-03T14:00:24.000Z</Time>
            <Position>
              <LatitudeDegrees>-15.46523907221853733062744140625</LatitudeDegrees>
              <LongitudeDegrees>36.99139435775578022003173828125</LongitudeDegrees>
            </Position>
            <AltitudeMeters>702.5999755859375</AltitudeMeters>
            <DistanceMeters>NAN</DistanceMeters>
          </Trackpoint>
          <Trackpoint>
            <Time>2021-08-03T14:00:25.000Z</Time>
            <Position>
              <LatitudeDegrees>-15.4652290977537631988525390625</LatitudeDegrees>
              <LongitudeDegrees>36.9913840480148792266845703125</LongitudeDegrees>
            </Position>
            <AltitudeMeters>702.79998779296875</AltitudeMeters>
            <DistanceMeters>NAN</DistanceMeters>
          </Trackpoint>
          <Trackpoint>
            <Time>2021-08-03T14:00:31.000Z</Time>
            <Position>
              <LatitudeDegrees>-15.4651813209056854248046875</LatitudeDegrees>
              <LongitudeDegrees>36.9913381151854991912841796875</LongitudeDegrees>
            </Position>
            <AltitudeMeters>703</AltitudeMeters>
            <DistanceMeters>NAN</DistanceMeters>
          </Trackpoint>
          <Trackpoint>
            <Time>2021-08-03T14:00:41.000Z</Time>
            <Position>
              <LatitudeDegrees>-15.4650668241083621978759765625</LatitudeDegrees>
              <LongitudeDegrees>36.991252116858959197998046875</LongitudeDegrees>
            </Position>
            <AltitudeMeters>703.5999755859375</AltitudeMeters>
            <DistanceMeters>NAN</DistanceMeters>
          </Trackpoint>
          <Trackpoint>
            <Time>2021-08-03T14:00:44.000Z</Time>
            <Position>
              <LatitudeDegrees>-15.46503840945661067962646484375</LatitudeDegrees>
              <LongitudeDegrees>36.99123610742390155792236328125</LongitudeDegrees>
            </Position>
            <AltitudeMeters>703.79998779296875</AltitudeMeters>
            <DistanceMeters>NAN</DistanceMeters>
          </Trackpoint>
          <Trackpoint>
            <Time>2021-08-03T14:00:52.000Z</Time>
            <Position>
              <LatitudeDegrees>-15.46497051604092121124267578125</LatitudeDegrees>
              <LongitudeDegrees>36.99122085236012935638427734375</LongitudeDegrees>
            </Position>
            <AltitudeMeters>703.79998779296875</AltitudeMeters>
            <DistanceMeters>NAN</DistanceMeters>
          </Trackpoint>
          <Trackpoint>
            <Time>2021-08-03T14:00:58.000Z</Time>
            <Position>
              <LatitudeDegrees>-15.4649404250085353851318359375</LatitudeDegrees>
              <LongitudeDegrees>36.991187743842601776123046875</LongitudeDegrees>
            </Position>
            <AltitudeMeters>703.5999755859375</AltitudeMeters>
            <DistanceMeters>NAN</DistanceMeters>
          </Trackpoint>
          <Trackpoint>
            <Time>2021-08-03T14:00:59.000Z</Time>
            <Position>
              <LatitudeDegrees>-15.464933216571807861328125</LatitudeDegrees>
              <LongitudeDegrees>36.9911815412342548370361328125</LongitudeDegrees>
            </Position>
            <AltitudeMeters>703.5999755859375</AltitudeMeters>
            <DistanceMeters>NAN</DistanceMeters>
          </Trackpoint>
          <Trackpoint>
            <Time>2021-08-03T14:01:02.000Z</Time>
            <Position>
              <LatitudeDegrees>-15.4649048857390880584716796875</LatitudeDegrees>
              <LongitudeDegrees>36.991155557334423065185546875</LongitudeDegrees>
            </Position>
            <AltitudeMeters>703.79998779296875</AltitudeMeters>
            <DistanceMeters>NAN</DistanceMeters>
          </Trackpoint>
          <Trackpoint>
            <Time>2021-08-03T14:01:04.000Z</Time>
            <Position>
              <LatitudeDegrees>-15.46488719992339611053466796875</LatitudeDegrees>
              <LongitudeDegrees>36.99113854207098484039306640625</LongitudeDegrees>
            </Position>
            <AltitudeMeters>703.79998779296875</AltitudeMeters>
            <DistanceMeters>NAN</DistanceMeters>
          </Trackpoint>
          <Trackpoint>
            <Time>2021-08-03T14:01:07.000Z</Time>
            <Position>
              <LatitudeDegrees>-15.46485099010169506072998046875</LatitudeDegrees>
              <LongitudeDegrees>36.99112680740654468536376953125</LongitudeDegrees>
            </Position>
            <AltitudeMeters>703.79998779296875</AltitudeMeters>
            <DistanceMeters>NAN</DistanceMeters>
          </Trackpoint>
          <Trackpoint>
            <Time>2021-08-03T14:01:09.000Z</Time>
            <Position>
              <LatitudeDegrees>-15.4648271016776561737060546875</LatitudeDegrees>
              <LongitudeDegrees>36.99112311936914920806884765625</LongitudeDegrees>
            </Position>
            <AltitudeMeters>704</AltitudeMeters>
            <DistanceMeters>NAN</DistanceMeters>
          </Trackpoint>
          <Trackpoint>
            <Time>2021-08-03T14:01:13.000Z</Time>
            <Position>
              <LatitudeDegrees>-15.46477354131639003753662109375</LatitudeDegrees>
              <LongitudeDegrees>36.99110132642090320587158203125</LongitudeDegrees>
            </Position>
            <AltitudeMeters>704</AltitudeMeters>
            <DistanceMeters>NAN</DistanceMeters>
          </Trackpoint>
          <Trackpoint>
            <Time>2021-08-03T14:01:18.000Z</Time>
            <Position>
              <LatitudeDegrees>-15.4647211544215679168701171875</LatitudeDegrees>
              <LongitudeDegrees>36.991069726645946502685546875</LongitudeDegrees>
            </Position>
            <AltitudeMeters>704.4000244140625</AltitudeMeters>
            <DistanceMeters>NAN</DistanceMeters>
          </Trackpoint>
          <Trackpoint>
            <Time>2021-08-03T14:01:26.000Z</Time>
            <Position>
              <LatitudeDegrees>-15.4646272771060466766357421875</LatitudeDegrees>
              <LongitudeDegrees>36.99103376828134059906005859375</LongitudeDegrees>
            </Position>
            <AltitudeMeters>704.4000244140625</AltitudeMeters>
            <DistanceMeters>NAN</DistanceMeters>
          </Trackpoint>
          <Trackpoint>
            <Time>2021-08-03T14:01:27.000Z</Time>
            <Position>
              <LatitudeDegrees>-15.46461797319352626800537109375</LatitudeDegrees>
              <LongitudeDegrees>36.9910266436636447906494140625</LongitudeDegrees>
            </Position>
            <AltitudeMeters>704.4000244140625</AltitudeMeters>
            <DistanceMeters>NAN</DistanceMeters>
          </Trackpoint>
          <Trackpoint>
            <Time>2021-08-03T14:01:35.000Z</Time>
            <Position>
              <LatitudeDegrees>-15.464532561600208282470703125</LatitudeDegrees>
              <LongitudeDegrees>36.990971826016902923583984375</LongitudeDegrees>
            </Position>
            <AltitudeMeters>704.5999755859375</AltitudeMeters>
            <DistanceMeters>NAN</DistanceMeters>
          </Trackpoint>
          <Trackpoint>
            <Time>2021-08-03T14:01:36.000Z</Time>
            <Position>
              <LatitudeDegrees>-15.46452309004962444305419921875</LatitudeDegrees>
              <LongitudeDegrees>36.9909629411995410919189453125</LongitudeDegrees>
            </Position>
            <AltitudeMeters>704.79998779296875</AltitudeMeters>
            <DistanceMeters>NAN</DistanceMeters>
          </Trackpoint>
          <Trackpoint>
            <Time>2021-08-03T14:01:40.000Z</Time>
            <Position>
              <LatitudeDegrees>-15.4644824378192424774169921875</LatitudeDegrees>
              <LongitudeDegrees>36.9909374602138996124267578125</LongitudeDegrees>
            </Position>
            <AltitudeMeters>705</AltitudeMeters>
            <DistanceMeters>NAN</DistanceMeters>
          </Trackpoint>
          <Trackpoint>
            <Time>2021-08-03T14:01:41.000Z</Time>
            <Position>
              <LatitudeDegrees>-15.4644723795354366302490234375</LatitudeDegrees>
              <LongitudeDegrees>36.99092966504395008087158203125</LongitudeDegrees>
            </Position>
            <AltitudeMeters>705</AltitudeMeters>
            <DistanceMeters>NAN</DistanceMeters>
          </Trackpoint>
          <Trackpoint>
            <Time>2021-08-03T14:01:51.000Z</Time>
            <Position>
              <LatitudeDegrees>-15.464359223842620849609375</LatitudeDegrees>
              <LongitudeDegrees>36.99087602086365222930908203125</LongitudeDegrees>
            </Position>
            <AltitudeMeters>705.20001220703125</AltitudeMeters>
            <DistanceMeters>NAN</DistanceMeters>
          </Trackpoint>
          <Trackpoint>
            <Time>2021-08-03T14:02:00.000Z</Time>
            <Position>
              <LatitudeDegrees>-15.46426190994679927825927734375</LatitudeDegrees>
              <LongitudeDegrees>36.99081466533243656158447265625</LongitudeDegrees>
            </Position>
            <AltitudeMeters>705.4000244140625</AltitudeMeters>
            <DistanceMeters>NAN</DistanceMeters>
          </Trackpoint>
          <Trackpoint>
            <Time>2021-08-03T14:02:11.000Z</Time>
            <Position>
              <LatitudeDegrees>-15.464128889143466949462890625</LatitudeDegrees>
              <LongitudeDegrees>36.9907476939260959625244140625</LongitudeDegrees>
            </Position>
            <AltitudeMeters>705.79998779296875</AltitudeMeters>
            <DistanceMeters>NAN</DistanceMeters>
          </Trackpoint>
          <Trackpoint>
            <Time>2021-08-03T14:02:13.000Z</Time>
            <Position>
              <LatitudeDegrees>-15.46410919167101383209228515625</LatitudeDegrees>
              <LongitudeDegrees>36.9907322712242603302001953125</LongitudeDegrees>
            </Position>
            <AltitudeMeters>706</AltitudeMeters>
            <DistanceMeters>NAN</DistanceMeters>
          </Trackpoint>
          <Trackpoint>
            <Time>2021-08-03T14:02:16.000Z</Time>
            <Position>
              <LatitudeDegrees>-15.4640730656683444976806640625</LatitudeDegrees>
              <LongitudeDegrees>36.9907134957611560821533203125</LongitudeDegrees>
            </Position>
            <AltitudeMeters>706</AltitudeMeters>
            <DistanceMeters>NAN</DistanceMeters>
          </Trackpoint>
          <Trackpoint>
            <Time>2021-08-03T14:02:21.000Z</Time>
            <Position>
              <LatitudeDegrees>-15.4640224389731884002685546875</LatitudeDegrees>
              <LongitudeDegrees>36.99068290181457996368408203125</LongitudeDegrees>
            </Position>
            <AltitudeMeters>706.4000244140625</AltitudeMeters>
            <DistanceMeters>NAN</DistanceMeters>
          </Trackpoint>
          <Trackpoint>
            <Time>2021-08-03T14:02:30.000Z</Time>
            <Position>
              <LatitudeDegrees>-15.46390668489038944244384765625</LatitudeDegrees>
              <LongitudeDegrees>36.99067351408302783966064453125</LongitudeDegrees>
            </Position>
            <AltitudeMeters>706.79998779296875</AltitudeMeters>
            <DistanceMeters>NAN</DistanceMeters>
          </Trackpoint>
          <Trackpoint>
            <Time>2021-08-03T14:02:31.000Z</Time>
            <Position>
              <LatitudeDegrees>-15.46389520168304443359375</LatitudeDegrees>
              <LongitudeDegrees>36.9906759448349475860595703125</LongitudeDegrees>
            </Position>
            <AltitudeMeters>707</AltitudeMeters>
            <DistanceMeters>NAN</DistanceMeters>
          </Trackpoint>
          <Trackpoint>
            <Time>2021-08-03T14:02:40.000Z</Time>
            <Position>
              <LatitudeDegrees>-15.46378447674214839935302734375</LatitudeDegrees>
              <LongitudeDegrees>36.99069446884095668792724609375</LongitudeDegrees>
            </Position>
            <AltitudeMeters>707.5999755859375</AltitudeMeters>
            <DistanceMeters>NAN</DistanceMeters>
          </Trackpoint>
          <Trackpoint>
            <Time>2021-08-03T14:02:50.000Z</Time>
            <Position>
              <LatitudeDegrees>-15.46365983784198760986328125</LatitudeDegrees>
              <LongitudeDegrees>36.99069321155548095703125</LongitudeDegrees>
            </Position>
            <AltitudeMeters>707.79998779296875</AltitudeMeters>
            <DistanceMeters>NAN</DistanceMeters>
          </Trackpoint>
          <Trackpoint>
            <Time>2021-08-03T14:02:57.000Z</Time>
            <Position>
              <LatitudeDegrees>-15.46361499466001987457275390625</LatitudeDegrees>
              <LongitudeDegrees>36.9906715862452983856201171875</LongitudeDegrees>
            </Position>
            <AltitudeMeters>708.20001220703125</AltitudeMeters>
            <DistanceMeters>NAN</DistanceMeters>
          </Trackpoint>
          <Trackpoint>
            <Time>2021-08-03T14:03:05.000Z</Time>
            <Position>
              <LatitudeDegrees>-15.463618934154510498046875</LatitudeDegrees>
              <LongitudeDegrees>36.990671418607234954833984375</LongitudeDegrees>
            </Position>
            <AltitudeMeters>708</AltitudeMeters>
            <DistanceMeters>NAN</DistanceMeters>
          </Trackpoint>
          <Trackpoint>
            <Time>2021-08-03T14:03:08.000Z</Time>
            <Position>
              <LatitudeDegrees>-15.4636083729565143585205078125</LatitudeDegrees>
              <LongitudeDegrees>36.99068072251975536346435546875</LongitudeDegrees>
            </Position>
            <AltitudeMeters>708</AltitudeMeters>
            <DistanceMeters>NAN</DistanceMeters>
          </Trackpoint>
          <Trackpoint>
            <Time>2021-08-03T14:03:13.000Z</Time>
            <Position>
              <LatitudeDegrees>-15.4635765217244625091552734375</LatitudeDegrees>
              <LongitudeDegrees>36.99070167727768421173095703125</LongitudeDegrees>
            </Position>
            <AltitudeMeters>707.79998779296875</AltitudeMeters>
            <DistanceMeters>NAN</DistanceMeters>
          </Trackpoint>
          <Trackpoint>
            <Time>2021-08-03T14:03:15.000Z</Time>
            <Position>
              <LatitudeDegrees>-15.46356059610843658447265625</LatitudeDegrees>
              <LongitudeDegrees>36.99070301838219165802001953125</LongitudeDegrees>
            </Position>
            <AltitudeMeters>707.5999755859375</AltitudeMeters>
            <DistanceMeters>NAN</DistanceMeters>
          </Trackpoint>
          <Trackpoint>
            <Time>2021-08-03T14:03:16.000Z</Time>
            <Position>
              <LatitudeDegrees>-15.46354877762496471405029296875</LatitudeDegrees>
              <LongitudeDegrees>36.9906999170780181884765625</LongitudeDegrees>
            </Position>
            <AltitudeMeters>707.5999755859375</AltitudeMeters>
            <DistanceMeters>NAN</DistanceMeters>
          </Trackpoint>
          <Trackpoint>
            <Time>2021-08-03T14:03:19.000Z</Time>
            <Position>
              <LatitudeDegrees>-15.46352170407772064208984375</LatitudeDegrees>
              <LongitudeDegrees>36.9907041080296039581298828125</LongitudeDegrees>
            </Position>
            <AltitudeMeters>707.79998779296875</AltitudeMeters>
            <DistanceMeters>NAN</DistanceMeters>
          </Trackpoint>
          <Trackpoint>
            <Time>2021-08-03T14:03:20.000Z</Time>
            <Position>
              <LatitudeDegrees>-15.4635103046894073486328125</LatitudeDegrees>
              <LongitudeDegrees>36.99070871807634830474853515625</LongitudeDegrees>
            </Position>
            <AltitudeMeters>707.79998779296875</AltitudeMeters>
            <DistanceMeters>NAN</DistanceMeters>
          </Trackpoint>
          <Trackpoint>
            <Time>2021-08-03T14:03:24.000Z</Time>
            <Position>
              <LatitudeDegrees>-15.4634735919535160064697265625</LatitudeDegrees>
              <LongitudeDegrees>36.99072875082492828369140625</LongitudeDegrees>
            </Position>
            <AltitudeMeters>707.79998779296875</AltitudeMeters>
            <DistanceMeters>NAN</DistanceMeters>
          </Trackpoint>
          <Trackpoint>
            <Time>2021-08-03T14:03:27.000Z</Time>
            <Position>
              <LatitudeDegrees>-15.4634459316730499267578125</LatitudeDegrees>
              <LongitudeDegrees>36.9907543994486331939697265625</LongitudeDegrees>
            </Position>
            <AltitudeMeters>708</AltitudeMeters>
            <DistanceMeters>NAN</DistanceMeters>
          </Trackpoint>
          <Trackpoint>
            <Time>2021-08-03T14:03:30.000Z</Time>
            <Position>
              <LatitudeDegrees>-15.46342086978256702423095703125</LatitudeDegrees>
              <LongitudeDegrees>36.99077996425330638885498046875</LongitudeDegrees>
            </Position>
            <AltitudeMeters>707.79998779296875</AltitudeMeters>
            <DistanceMeters>NAN</DistanceMeters>
          </Trackpoint>
          <Trackpoint>
            <Time>2021-08-03T14:03:35.000Z</Time>
            <Position>
              <LatitudeDegrees>-15.4633894376456737518310546875</LatitudeDegrees>
              <LongitudeDegrees>36.9908117316663265228271484375</LongitudeDegrees>
            </Position>
            <AltitudeMeters>707.5999755859375</AltitudeMeters>
            <DistanceMeters>NAN</DistanceMeters>
          </Trackpoint>
          <Trackpoint>
            <Time>2021-08-03T14:03:36.000Z</Time>
            <Position>
              <LatitudeDegrees>-15.46338398940861225128173828125</LatitudeDegrees>
              <LongitudeDegrees>36.99081315658986568450927734375</LongitudeDegrees>
            </Position>
            <AltitudeMeters>707.79998779296875</AltitudeMeters>
            <DistanceMeters>NAN</DistanceMeters>
          </Trackpoint>
          <Trackpoint>
            <Time>2021-08-03T14:03:41.000Z</Time>
            <Position>
              <LatitudeDegrees>-15.46338600106537342071533203125</LatitudeDegrees>
              <LongitudeDegrees>36.99080628342926502227783203125</LongitudeDegrees>
            </Position>
            <AltitudeMeters>707.5999755859375</AltitudeMeters>
            <DistanceMeters>NAN</DistanceMeters>
          </Trackpoint>
          <Trackpoint>
            <Time>2021-08-03T14:03:49.000Z</Time>
            <Position>
              <LatitudeDegrees>-15.463381893932819366455078125</LatitudeDegrees>
              <LongitudeDegrees>36.990812234580516815185546875</LongitudeDegrees>
            </Position>
            <AltitudeMeters>707.79998779296875</AltitudeMeters>
            <DistanceMeters>NAN</DistanceMeters>
          </Trackpoint>
          <Trackpoint>
            <Time>2021-08-03T14:03:54.000Z</Time>
            <Position>
              <LatitudeDegrees>-15.463381893932819366455078125</LatitudeDegrees>
              <LongitudeDegrees>36.990812234580516815185546875</LongitudeDegrees>
            </Position>
            <AltitudeMeters>707.79998779296875</AltitudeMeters>
            <DistanceMeters>NAN</DistanceMeters>
          </Trackpoint>
          <Trackpoint>
            <Time>2021-08-03T14:03:58.000Z</Time>
            <Position>
              <LatitudeDegrees>-15.463381893932819366455078125</LatitudeDegrees>
              <LongitudeDegrees>36.990812234580516815185546875</LongitudeDegrees>
            </Position>
            <AltitudeMeters>707.79998779296875</AltitudeMeters>
            <DistanceMeters>NAN</DistanceMeters>
          </Trackpoint>
          <Trackpoint>
            <Time>2021-08-03T14:04:02.000Z</Time>
            <Position>
              <LatitudeDegrees>-15.46337929554283618927001953125</LatitudeDegrees>
              <LongitudeDegrees>36.9908113963901996612548828125</LongitudeDegrees>
            </Position>
            <AltitudeMeters>707.5999755859375</AltitudeMeters>
            <DistanceMeters>NAN</DistanceMeters>
          </Trackpoint>
          <Trackpoint>
            <Time>2021-08-03T14:04:12.000Z</Time>
            <Position>
              <LatitudeDegrees>-15.4633681476116180419921875</LatitudeDegrees>
              <LongitudeDegrees>36.99080653488636016845703125</LongitudeDegrees>
            </Position>
            <AltitudeMeters>707.5999755859375</AltitudeMeters>
            <DistanceMeters>NAN</DistanceMeters>
          </Trackpoint>
          <Trackpoint>
            <Time>2021-08-03T14:04:29.000Z</Time>
            <Position>
              <LatitudeDegrees>-15.4633626155555248260498046875</LatitudeDegrees>
              <LongitudeDegrees>36.9908063672482967376708984375</LongitudeDegrees>
            </Position>
            <AltitudeMeters>707.5999755859375</AltitudeMeters>
            <DistanceMeters>NAN</DistanceMeters>
          </Trackpoint>
          <Trackpoint>
            <Time>2021-08-03T14:04:37.000Z</Time>
            <Position>
              <LatitudeDegrees>-15.463363118469715118408203125</LatitudeDegrees>
              <LongitudeDegrees>36.99080762453377246856689453125</LongitudeDegrees>
            </Position>
            <AltitudeMeters>707.5999755859375</AltitudeMeters>
            <DistanceMeters>NAN</DistanceMeters>
          </Trackpoint>
          <Trackpoint>
            <Time>2021-08-03T14:04:39.000Z</Time>
            <Position>
              <LatitudeDegrees>-15.4633696563541889190673828125</LatitudeDegrees>
              <LongitudeDegrees>36.99080712161958217620849609375</LongitudeDegrees>
            </Position>
            <AltitudeMeters>707.5999755859375</AltitudeMeters>
            <DistanceMeters>NAN</DistanceMeters>
          </Trackpoint>
          <Trackpoint>
            <Time>2021-08-03T14:04:42.000Z</Time>
            <Position>
              <LatitudeDegrees>-15.46341709792613983154296875</LatitudeDegrees>
              <LongitudeDegrees>36.990778036415576934814453125</LongitudeDegrees>
            </Position>
            <AltitudeMeters>707.5999755859375</AltitudeMeters>
            <DistanceMeters>NAN</DistanceMeters>
          </Trackpoint>
          <Trackpoint>
            <Time>2021-08-03T14:04:52.000Z</Time>
            <Position>
              <LatitudeDegrees>-15.46355791389942169189453125</LatitudeDegrees>
              <LongitudeDegrees>36.99071173556149005889892578125</LongitudeDegrees>
            </Position>
            <AltitudeMeters>707.79998779296875</AltitudeMeters>
            <DistanceMeters>NAN</DistanceMeters>
          </Trackpoint>
          <Trackpoint>
            <Time>2021-08-03T14:04:57.000Z</Time>
            <Position>
              <LatitudeDegrees>-15.46356034465134143829345703125</LatitudeDegrees>
              <LongitudeDegrees>36.99071156792342662811279296875</LongitudeDegrees>
            </Position>
            <AltitudeMeters>707.79998779296875</AltitudeMeters>
            <DistanceMeters>NAN</DistanceMeters>
          </Trackpoint>
          <Trackpoint>
            <Time>2021-08-03T14:05:04.000Z</Time>
            <Position>
              <LatitudeDegrees>-15.46356260776519775390625</LatitudeDegrees>
              <LongitudeDegrees>36.9906890206038951873779296875</LongitudeDegrees>
            </Position>
            <AltitudeMeters>707.5999755859375</AltitudeMeters>
            <DistanceMeters>NAN</DistanceMeters>
          </Trackpoint>
          <Trackpoint>
            <Time>2021-08-03T14:05:07.000Z</Time>
            <Position>
              <LatitudeDegrees>-15.46356570906937122344970703125</LatitudeDegrees>
              <LongitudeDegrees>36.99068793095648288726806640625</LongitudeDegrees>
            </Position>
            <AltitudeMeters>707.5999755859375</AltitudeMeters>
            <DistanceMeters>NAN</DistanceMeters>
          </Trackpoint>
          <Trackpoint>
            <Time>2021-08-03T14:05:11.000Z</Time>
            <Position>
              <LatitudeDegrees>-15.4635654576122760772705078125</LatitudeDegrees>
              <LongitudeDegrees>36.9906883500516414642333984375</LongitudeDegrees>
            </Position>
            <AltitudeMeters>707.5999755859375</AltitudeMeters>
            <DistanceMeters>NAN</DistanceMeters>
          </Trackpoint>
          <Trackpoint>
            <Time>2021-08-03T14:05:16.000Z</Time>
            <Position>
              <LatitudeDegrees>-15.4635654576122760772705078125</LatitudeDegrees>
              <LongitudeDegrees>36.9906883500516414642333984375</LongitudeDegrees>
            </Position>
            <AltitudeMeters>707.4000244140625</AltitudeMeters>
            <DistanceMeters>NAN</DistanceMeters>
          </Trackpoint>
          <Trackpoint>
            <Time>2021-08-03T14:05:21.000Z</Time>
            <Position>
              <LatitudeDegrees>-15.46356051228940486907958984375</LatitudeDegrees>
              <LongitudeDegrees>36.9906846620142459869384765625</LongitudeDegrees>
            </Position>
            <AltitudeMeters>707.4000244140625</AltitudeMeters>
            <DistanceMeters>NAN</DistanceMeters>
          </Trackpoint>
          <Trackpoint>
            <Time>2021-08-03T14:05:24.000Z</Time>
            <Position>
              <LatitudeDegrees>-15.46352681703865528106689453125</LatitudeDegrees>
              <LongitudeDegrees>36.9906611926853656768798828125</LongitudeDegrees>
            </Position>
            <AltitudeMeters>707.79998779296875</AltitudeMeters>
            <DistanceMeters>NAN</DistanceMeters>
          </Trackpoint>
          <Trackpoint>
            <Time>2021-08-03T14:05:26.000Z</Time>
            <Position>
              <LatitudeDegrees>-15.463517345488071441650390625</LatitudeDegrees>
              <LongitudeDegrees>36.99065574444830417633056640625</LongitudeDegrees>
            </Position>
            <AltitudeMeters>707.79998779296875</AltitudeMeters>
            <DistanceMeters>NAN</DistanceMeters>
          </Trackpoint>
          <Trackpoint>
            <Time>2021-08-03T14:05:29.000Z</Time>
            <Position>
              <LatitudeDegrees>-15.46350737102329730987548828125</LatitudeDegrees>
              <LongitudeDegrees>36.99064753018319606781005859375</LongitudeDegrees>
            </Position>
            <AltitudeMeters>707.20001220703125</AltitudeMeters>
            <DistanceMeters>NAN</DistanceMeters>
          </Trackpoint>
          <Trackpoint>
            <Time>2021-08-03T14:05:35.000Z</Time>
            <Position>
              <LatitudeDegrees>-15.463531427085399627685546875</LatitudeDegrees>
              <LongitudeDegrees>36.99067904613912105560302734375</LongitudeDegrees>
            </Position>
            <AltitudeMeters>707.4000244140625</AltitudeMeters>
            <DistanceMeters>NAN</DistanceMeters>
          </Trackpoint>
          <Trackpoint>
            <Time>2021-08-03T14:05:41.000Z</Time>
            <Position>
              <LatitudeDegrees>-15.46353721059858798980712890625</LatitudeDegrees>
              <LongitudeDegrees>36.99067376554012298583984375</LongitudeDegrees>
            </Position>
            <AltitudeMeters>707.5999755859375</AltitudeMeters>
            <DistanceMeters>NAN</DistanceMeters>
          </Trackpoint>
          <Trackpoint>
            <Time>2021-08-03T14:05:45.000Z</Time>
            <Position>
              <LatitudeDegrees>-15.46353721059858798980712890625</LatitudeDegrees>
              <LongitudeDegrees>36.99067376554012298583984375</LongitudeDegrees>
            </Position>
            <AltitudeMeters>707.4000244140625</AltitudeMeters>
            <DistanceMeters>NAN</DistanceMeters>
          </Trackpoint>
          <Trackpoint>
            <Time>2021-08-03T14:05:46.000Z</Time>
            <Position>
              <LatitudeDegrees>-15.46353721059858798980712890625</LatitudeDegrees>
              <LongitudeDegrees>36.99067376554012298583984375</LongitudeDegrees>
            </Position>
            <AltitudeMeters>707.4000244140625</AltitudeMeters>
            <DistanceMeters>NAN</DistanceMeters>
          </Trackpoint>
          <Trackpoint>
            <Time>2021-08-03T14:06:19.000Z</Time>
            <Position>
              <LatitudeDegrees>-15.46354609541594982147216796875</LatitudeDegrees>
              <LongitudeDegrees>36.99069849215447902679443359375</LongitudeDegrees>
            </Position>
            <AltitudeMeters>707.5999755859375</AltitudeMeters>
            <DistanceMeters>NAN</DistanceMeters>
          </Trackpoint>
          <Trackpoint>
            <Time>2021-08-03T14:06:36.000Z</Time>
            <Position>
              <LatitudeDegrees>-15.4635486938059329986572265625</LatitudeDegrees>
              <LongitudeDegrees>36.9907024316489696502685546875</LongitudeDegrees>
            </Position>
            <AltitudeMeters>707.5999755859375</AltitudeMeters>
            <DistanceMeters>NAN</DistanceMeters>
          </Trackpoint>
          <Trackpoint>
            <Time>2021-08-03T14:06:39.000Z</Time>
            <Position>
              <LatitudeDegrees>-15.46355112455785274505615234375</LatitudeDegrees>
              <LongitudeDegrees>36.99070335365831851959228515625</LongitudeDegrees>
            </Position>
            <AltitudeMeters>707.5999755859375</AltitudeMeters>
            <DistanceMeters>NAN</DistanceMeters>
          </Trackpoint>
          <Trackpoint>
            <Time>2021-08-03T14:07:09.000Z</Time>
            <Position>
              <LatitudeDegrees>-15.4635577462613582611083984375</LatitudeDegrees>
              <LongitudeDegrees>36.9906999170780181884765625</LongitudeDegrees>
            </Position>
            <AltitudeMeters>707.5999755859375</AltitudeMeters>
            <DistanceMeters>NAN</DistanceMeters>
          </Trackpoint>
          <Trackpoint>
            <Time>2021-08-03T14:07:27.000Z</Time>
            <Position>
              <LatitudeDegrees>-15.46357023529708385467529296875</LatitudeDegrees>
              <LongitudeDegrees>36.99065842665731906890869140625</LongitudeDegrees>
            </Position>
            <AltitudeMeters>707.5999755859375</AltitudeMeters>
            <DistanceMeters>NAN</DistanceMeters>
          </Trackpoint>
          <Trackpoint>
            <Time>2021-08-03T14:07:30.000Z</Time>
            <Position>
              <LatitudeDegrees>-15.463563613593578338623046875</LatitudeDegrees>
              <LongitudeDegrees>36.99066127650439739227294921875</LongitudeDegrees>
            </Position>
            <AltitudeMeters>707.5999755859375</AltitudeMeters>
            <DistanceMeters>NAN</DistanceMeters>
          </Trackpoint>
          <Trackpoint>
            <Time>2021-08-03T14:07:33.000Z</Time>
            <Position>
              <LatitudeDegrees>-15.46355850063264369964599609375</LatitudeDegrees>
              <LongitudeDegrees>36.9906293414533138275146484375</LongitudeDegrees>
            </Position>
            <AltitudeMeters>708</AltitudeMeters>
            <DistanceMeters>NAN</DistanceMeters>
          </Trackpoint>
          <Trackpoint>
            <Time>2021-08-03T14:07:35.000Z</Time>
            <Position>
              <LatitudeDegrees>-15.46356596052646636962890625</LatitudeDegrees>
              <LongitudeDegrees>36.9905953109264373779296875</LongitudeDegrees>
            </Position>
            <AltitudeMeters>708</AltitudeMeters>
            <DistanceMeters>NAN</DistanceMeters>
          </Trackpoint>
          <Trackpoint>
            <Time>2021-08-03T14:07:40.000Z</Time>
            <Position>
              <LatitudeDegrees>-15.46359756030142307281494140625</LatitudeDegrees>
              <LongitudeDegrees>36.9904640503227710723876953125</LongitudeDegrees>
            </Position>
            <AltitudeMeters>708</AltitudeMeters>
            <DistanceMeters>NAN</DistanceMeters>
          </Trackpoint>
          <Trackpoint>
            <Time>2021-08-03T14:07:45.000Z</Time>
            <Position>
              <LatitudeDegrees>-15.46358481980860233306884765625</LatitudeDegrees>
              <LongitudeDegrees>36.9903405010700225830078125</LongitudeDegrees>
            </Position>
            <AltitudeMeters>708</AltitudeMeters>
            <DistanceMeters>NAN</DistanceMeters>
          </Trackpoint>
          <Trackpoint>
            <Time>2021-08-03T14:07:47.000Z</Time>
            <Position>
              <LatitudeDegrees>-15.46352983452379703521728515625</LatitudeDegrees>
              <LongitudeDegrees>36.99026699177920818328857421875</LongitudeDegrees>
            </Position>
            <AltitudeMeters>708.4000244140625</AltitudeMeters>
            <DistanceMeters>NAN</DistanceMeters>
          </Trackpoint>
          <Trackpoint>
            <Time>2021-08-03T14:07:48.000Z</Time>
            <Position>
              <LatitudeDegrees>-15.46348993666470050811767578125</LatitudeDegrees>
              <LongitudeDegrees>36.99022851884365081787109375</LongitudeDegrees>
            </Position>
            <AltitudeMeters>708.79998779296875</AltitudeMeters>
            <DistanceMeters>NAN</DistanceMeters>
          </Trackpoint>
          <Trackpoint>
            <Time>2021-08-03T14:07:49.000Z</Time>
            <Position>
              <LatitudeDegrees>-15.46343361027538776397705078125</LatitudeDegrees>
              <LongitudeDegrees>36.99017889797687530517578125</LongitudeDegrees>
            </Position>
            <AltitudeMeters>709.4000244140625</AltitudeMeters>
            <DistanceMeters>NAN</DistanceMeters>
          </Trackpoint>
          <Trackpoint>
            <Time>2021-08-03T14:07:52.000Z</Time>
            <Position>
              <LatitudeDegrees>-15.463264547288417816162109375</LatitudeDegrees>
              <LongitudeDegrees>36.9900258444249629974365234375</LongitudeDegrees>
            </Position>
            <AltitudeMeters>710.20001220703125</AltitudeMeters>
            <DistanceMeters>NAN</DistanceMeters>
          </Trackpoint>
          <Trackpoint>
            <Time>2021-08-03T14:07:53.000Z</Time>
            <Position>
              <LatitudeDegrees>-15.4631966538727283477783203125</LatitudeDegrees>
              <LongitudeDegrees>36.9899621419608592987060546875</LongitudeDegrees>
            </Position>
            <AltitudeMeters>711</AltitudeMeters>
            <DistanceMeters>NAN</DistanceMeters>
          </Trackpoint>
          <Trackpoint>
            <Time>2021-08-03T14:07:58.000Z</Time>
            <Position>
              <LatitudeDegrees>-15.46285877935588359832763671875</LatitudeDegrees>
              <LongitudeDegrees>36.98961295187473297119140625</LongitudeDegrees>
            </Position>
            <AltitudeMeters>712.20001220703125</AltitudeMeters>
            <DistanceMeters>NAN</DistanceMeters>
          </Trackpoint>
          <Trackpoint>
            <Time>2021-08-03T14:08:01.000Z</Time>
            <Position>
              <LatitudeDegrees>-15.462646968662738800048828125</LatitudeDegrees>
              <LongitudeDegrees>36.9893516041338443756103515625</LongitudeDegrees>
            </Position>
            <AltitudeMeters>713.5999755859375</AltitudeMeters>
            <DistanceMeters>NAN</DistanceMeters>
          </Trackpoint>
          <Trackpoint>
            <Time>2021-08-03T14:08:03.000Z</Time>
            <Position>
              <LatitudeDegrees>-15.462494082748889923095703125</LatitudeDegrees>
              <LongitudeDegrees>36.9891568087041378021240234375</LongitudeDegrees>
            </Position>
            <AltitudeMeters>713.5999755859375</AltitudeMeters>
            <DistanceMeters>NAN</DistanceMeters>
          </Trackpoint>
          <Trackpoint>
            <Time>2021-08-03T14:08:07.000Z</Time>
            <Position>
              <LatitudeDegrees>-15.46220197342336177825927734375</LatitudeDegrees>
              <LongitudeDegrees>36.9887611828744411468505859375</LongitudeDegrees>
            </Position>
            <AltitudeMeters>713</AltitudeMeters>
            <DistanceMeters>NAN</DistanceMeters>
          </Trackpoint>
          <Trackpoint>
            <Time>2021-08-03T14:08:10.000Z</Time>
            <Position>
              <LatitudeDegrees>-15.462004579603672027587890625</LatitudeDegrees>
              <LongitudeDegrees>36.98843772523105144500732421875</LongitudeDegrees>
            </Position>
            <AltitudeMeters>712.5999755859375</AltitudeMeters>
            <DistanceMeters>NAN</DistanceMeters>
          </Trackpoint>
          <Trackpoint>
            <Time>2021-08-03T14:08:12.000Z</Time>
            <Position>
              <LatitudeDegrees>-15.46192302368581295013427734375</LatitudeDegrees>
              <LongitudeDegrees>36.9882304407656192779541015625</LongitudeDegrees>
            </Position>
            <AltitudeMeters>712.4000244140625</AltitudeMeters>
            <DistanceMeters>NAN</DistanceMeters>
          </Trackpoint>
          <Trackpoint>
            <Time>2021-08-03T14:08:13.000Z</Time>
            <Position>
              <LatitudeDegrees>-15.46190022490918636322021484375</LatitudeDegrees>
              <LongitudeDegrees>36.988122649490833282470703125</LongitudeDegrees>
            </Position>
            <AltitudeMeters>712.20001220703125</AltitudeMeters>
            <DistanceMeters>NAN</DistanceMeters>
          </Trackpoint>
          <Trackpoint>
            <Time>2021-08-03T14:08:16.000Z</Time>
            <Position>
              <LatitudeDegrees>-15.4618848860263824462890625</LatitudeDegrees>
              <LongitudeDegrees>36.987812519073486328125</LongitudeDegrees>
            </Position>
            <AltitudeMeters>712.4000244140625</AltitudeMeters>
            <DistanceMeters>NAN</DistanceMeters>
          </Trackpoint>
          <Trackpoint>
            <Time>2021-08-03T14:08:17.000Z</Time>
            <Position>
              <LatitudeDegrees>-15.46189486049115657806396484375</LatitudeDegrees>
              <LongitudeDegrees>36.98771000839769840240478515625</LongitudeDegrees>
            </Position>
            <AltitudeMeters>712.4000244140625</AltitudeMeters>
            <DistanceMeters>NAN</DistanceMeters>
          </Trackpoint>
          <Trackpoint>
            <Time>2021-08-03T14:08:22.000Z</Time>
            <Position>
              <LatitudeDegrees>-15.46195856295526027679443359375</LatitudeDegrees>
              <LongitudeDegrees>36.987182199954986572265625</LongitudeDegrees>
            </Position>
            <AltitudeMeters>712.5999755859375</AltitudeMeters>
            <DistanceMeters>NAN</DistanceMeters>
          </Trackpoint>
          <Trackpoint>
            <Time>2021-08-03T14:08:23.000Z</Time>
            <Position>
              <LatitudeDegrees>-15.461974404752254486083984375</LatitudeDegrees>
              <LongitudeDegrees>36.987083293497562408447265625</LongitudeDegrees>
            </Position>
            <AltitudeMeters>713.20001220703125</AltitudeMeters>
            <DistanceMeters>NAN</DistanceMeters>
          </Trackpoint>
          <Trackpoint>
            <Time>2021-08-03T14:08:24.000Z</Time>
            <Position>
              <LatitudeDegrees>-15.4619990475475788116455078125</LatitudeDegrees>
              <LongitudeDegrees>36.98693216778337955474853515625</LongitudeDegrees>
            </Position>
            <AltitudeMeters>714.4000244140625</AltitudeMeters>
            <DistanceMeters>NAN</DistanceMeters>
          </Trackpoint>
          <Trackpoint>
            <Time>2021-08-03T14:08:26.000Z</Time>
            <Position>
              <LatitudeDegrees>-15.46204053796827793121337890625</LatitudeDegrees>
              <LongitudeDegrees>36.98667635209858417510986328125</LongitudeDegrees>
            </Position>
            <AltitudeMeters>716</AltitudeMeters>
            <DistanceMeters>NAN</DistanceMeters>
          </Trackpoint>
          <Trackpoint>
            <Time>2021-08-03T14:08:27.000Z</Time>
            <Position>
              <LatitudeDegrees>-15.46205830760300159454345703125</LatitudeDegrees>
              <LongitudeDegrees>36.98655380867421627044677734375</LongitudeDegrees>
            </Position>
            <AltitudeMeters>716.79998779296875</AltitudeMeters>
            <DistanceMeters>NAN</DistanceMeters>
          </Trackpoint>
          <Trackpoint>
            <Time>2021-08-03T14:08:30.000Z</Time>
            <Position>
              <LatitudeDegrees>-15.4621029831469058990478515625</LatitudeDegrees>
              <LongitudeDegrees>36.98620445095002651214599609375</LongitudeDegrees>
            </Position>
            <AltitudeMeters>718.5999755859375</AltitudeMeters>
            <DistanceMeters>NAN</DistanceMeters>
          </Trackpoint>
          <Trackpoint>
            <Time>2021-08-03T14:08:33.000Z</Time>
            <Position>
              <LatitudeDegrees>-15.46214640140533447265625</LatitudeDegrees>
              <LongitudeDegrees>36.98587805964052677154541015625</LongitudeDegrees>
            </Position>
            <AltitudeMeters>720</AltitudeMeters>
            <DistanceMeters>NAN</DistanceMeters>
          </Trackpoint>
          <Trackpoint>
            <Time>2021-08-03T14:08:34.000Z</Time>
            <Position>
              <LatitudeDegrees>-15.46216408722102642059326171875</LatitudeDegrees>
              <LongitudeDegrees>36.98578082956373691558837890625</LongitudeDegrees>
            </Position>
            <AltitudeMeters>720.4000244140625</AltitudeMeters>
            <DistanceMeters>NAN</DistanceMeters>
          </Trackpoint>
          <Trackpoint>
            <Time>2021-08-03T14:08:36.000Z</Time>
            <Position>
              <LatitudeDegrees>-15.46220331452786922454833984375</LatitudeDegrees>
              <LongitudeDegrees>36.9855968467891216278076171875</LongitudeDegrees>
            </Position>
            <AltitudeMeters>721.79998779296875</AltitudeMeters>
            <DistanceMeters>NAN</DistanceMeters>
          </Trackpoint>
          <Trackpoint>
            <Time>2021-08-03T14:08:39.000Z</Time>
            <Position>
              <LatitudeDegrees>-15.46225897036492824554443359375</LatitudeDegrees>
              <LongitudeDegrees>36.98534580878913402557373046875</LongitudeDegrees>
            </Position>
            <AltitudeMeters>723.20001220703125</AltitudeMeters>
            <DistanceMeters>NAN</DistanceMeters>
          </Trackpoint>
          <Trackpoint>
            <Time>2021-08-03T14:08:40.000Z</Time>
            <Position>
              <LatitudeDegrees>-15.46228076331317424774169921875</LatitudeDegrees>
              <LongitudeDegrees>36.98526316322386264801025390625</LongitudeDegrees>
            </Position>
            <AltitudeMeters>723.4000244140625</AltitudeMeters>
            <DistanceMeters>NAN</DistanceMeters>
          </Trackpoint>
          <Trackpoint>
            <Time>2021-08-03T14:08:45.000Z</Time>
            <Position>
              <LatitudeDegrees>-15.46242476440966129302978515625</LatitudeDegrees>
              <LongitudeDegrees>36.984768547117710113525390625</LongitudeDegrees>
            </Position>
            <AltitudeMeters>724.5999755859375</AltitudeMeters>
            <DistanceMeters>NAN</DistanceMeters>
          </Trackpoint>
          <Trackpoint>
            <Time>2021-08-03T14:08:49.000Z</Time>
            <Position>
              <LatitudeDegrees>-15.46255610883235931396484375</LatitudeDegrees>
              <LongitudeDegrees>36.98431634344160556793212890625</LongitudeDegrees>
            </Position>
            <AltitudeMeters>724.79998779296875</AltitudeMeters>
            <DistanceMeters>NAN</DistanceMeters>
          </Trackpoint>
          <Trackpoint>
            <Time>2021-08-03T14:08:50.000Z</Time>
            <Position>
              <LatitudeDegrees>-15.4625884629786014556884765625</LatitudeDegrees>
              <LongitudeDegrees>36.9842047803103923797607421875</LongitudeDegrees>
            </Position>
            <AltitudeMeters>724.79998779296875</AltitudeMeters>
            <DistanceMeters>NAN</DistanceMeters>
          </Trackpoint>
          <Trackpoint>
            <Time>2021-08-03T14:08:54.000Z</Time>
            <Position>
              <LatitudeDegrees>-15.46271628700196743011474609375</LatitudeDegrees>
              <LongitudeDegrees>36.98374335654079914093017578125</LongitudeDegrees>
            </Position>
            <AltitudeMeters>724.5999755859375</AltitudeMeters>
            <DistanceMeters>NAN</DistanceMeters>
          </Trackpoint>
          <Trackpoint>
            <Time>2021-08-03T14:08:58.000Z</Time>
            <Position>
              <LatitudeDegrees>-15.4628472961485385894775390625</LatitudeDegrees>
              <LongitudeDegrees>36.98328184895217418670654296875</LongitudeDegrees>
            </Position>
            <AltitudeMeters>724.79998779296875</AltitudeMeters>
            <DistanceMeters>NAN</DistanceMeters>
          </Trackpoint>
          <Trackpoint>
            <Time>2021-08-03T14:09:03.000Z</Time>
            <Position>
              <LatitudeDegrees>-15.46300009824335575103759765625</LatitudeDegrees>
              <LongitudeDegrees>36.98272830806672573089599609375</LongitudeDegrees>
            </Position>
            <AltitudeMeters>724.4000244140625</AltitudeMeters>
            <DistanceMeters>NAN</DistanceMeters>
          </Trackpoint>
          <Trackpoint>
            <Time>2021-08-03T14:09:06.000Z</Time>
            <Position>
              <LatitudeDegrees>-15.46308374963700771331787109375</LatitudeDegrees>
              <LongitudeDegrees>36.98242865502834320068359375</LongitudeDegrees>
            </Position>
            <AltitudeMeters>723.20001220703125</AltitudeMeters>
            <DistanceMeters>NAN</DistanceMeters>
          </Trackpoint>
          <Trackpoint>
            <Time>2021-08-03T14:09:07.000Z</Time>
            <Position>
              <LatitudeDegrees>-15.46310319565236568450927734375</LatitudeDegrees>
              <LongitudeDegrees>36.98236285708844661712646484375</LongitudeDegrees>
            </Position>
            <AltitudeMeters>722.4000244140625</AltitudeMeters>
            <DistanceMeters>NAN</DistanceMeters>
          </Trackpoint>
          <Trackpoint>
            <Time>2021-08-03T14:09:08.000Z</Time>
            <Position>
              <LatitudeDegrees>-15.4631195403635501861572265625</LatitudeDegrees>
              <LongitudeDegrees>36.9823124818503856658935546875</LongitudeDegrees>
            </Position>
            <AltitudeMeters>722</AltitudeMeters>
            <DistanceMeters>NAN</DistanceMeters>
          </Trackpoint>
          <Trackpoint>
            <Time>2021-08-03T14:09:10.000Z</Time>
            <Position>
              <LatitudeDegrees>-15.46314862556755542755126953125</LatitudeDegrees>
              <LongitudeDegrees>36.98222757317125797271728515625</LongitudeDegrees>
            </Position>
            <AltitudeMeters>721</AltitudeMeters>
            <DistanceMeters>NAN</DistanceMeters>
          </Trackpoint>
          <Trackpoint>
            <Time>2021-08-03T14:09:11.000Z</Time>
            <Position>
              <LatitudeDegrees>-15.4631669819355010986328125</LatitudeDegrees>
              <LongitudeDegrees>36.98218381963670253753662109375</LongitudeDegrees>
            </Position>
            <AltitudeMeters>721</AltitudeMeters>
            <DistanceMeters>NAN</DistanceMeters>
          </Trackpoint>
          <Trackpoint>
            <Time>2021-08-03T14:09:12.000Z</Time>
            <Position>
              <LatitudeDegrees>-15.46318936161696910858154296875</LatitudeDegrees>
              <LongitudeDegrees>36.9821394793689250946044921875</LongitudeDegrees>
            </Position>
            <AltitudeMeters>721</AltitudeMeters>
            <DistanceMeters>NAN</DistanceMeters>
          </Trackpoint>
          <Trackpoint>
            <Time>2021-08-03T14:09:14.000Z</Time>
            <Position>
              <LatitudeDegrees>-15.463253147900104522705078125</LatitudeDegrees>
              <LongitudeDegrees>36.98205641470849514007568359375</LongitudeDegrees>
            </Position>
            <AltitudeMeters>721</AltitudeMeters>
            <DistanceMeters>NAN</DistanceMeters>
          </Trackpoint>
          <Trackpoint>
            <Time>2021-08-03T14:09:15.000Z</Time>
            <Position>
              <LatitudeDegrees>-15.46329078264534473419189453125</LatitudeDegrees>
              <LongitudeDegrees>36.98202188126742839813232421875</LongitudeDegrees>
            </Position>
            <AltitudeMeters>721.20001220703125</AltitudeMeters>
            <DistanceMeters>NAN</DistanceMeters>
          </Trackpoint>
          <Trackpoint>
            <Time>2021-08-03T14:09:16.000Z</Time>
            <Position>
              <LatitudeDegrees>-15.463330261409282684326171875</LatitudeDegrees>
              <LongitudeDegrees>36.9819939695298671722412109375</LongitudeDegrees>
            </Position>
            <AltitudeMeters>721.20001220703125</AltitudeMeters>
            <DistanceMeters>NAN</DistanceMeters>
          </Trackpoint>
          <Trackpoint>
            <Time>2021-08-03T14:09:19.000Z</Time>
            <Position>
              <LatitudeDegrees>-15.46342992223799228668212890625</LatitudeDegrees>
              <LongitudeDegrees>36.98194962926208972930908203125</LongitudeDegrees>
            </Position>
            <AltitudeMeters>721</AltitudeMeters>
            <DistanceMeters>NAN</DistanceMeters>
          </Trackpoint>
          <Trackpoint>
            <Time>2021-08-03T14:09:23.000Z</Time>
            <Position>
              <LatitudeDegrees>-15.4634960554540157318115234375</LatitudeDegrees>
              <LongitudeDegrees>36.98193353600800037384033203125</LongitudeDegrees>
            </Position>
            <AltitudeMeters>720.5999755859375</AltitudeMeters>
            <DistanceMeters>NAN</DistanceMeters>
          </Trackpoint>
          <Trackpoint>
            <Time>2021-08-03T14:09:29.000Z</Time>
            <Position>
              <LatitudeDegrees>-15.4635272361338138580322265625</LatitudeDegrees>
              <LongitudeDegrees>36.98192096315324306488037109375</LongitudeDegrees>
            </Position>
            <AltitudeMeters>720.5999755859375</AltitudeMeters>
            <DistanceMeters>NAN</DistanceMeters>
          </Trackpoint>
          <Trackpoint>
            <Time>2021-08-03T14:09:38.000Z</Time>
            <Position>
              <LatitudeDegrees>-15.46351055614650249481201171875</LatitudeDegrees>
              <LongitudeDegrees>36.98193856514990329742431640625</LongitudeDegrees>
            </Position>
            <AltitudeMeters>720.4000244140625</AltitudeMeters>
            <DistanceMeters>NAN</DistanceMeters>
          </Trackpoint>
          <Trackpoint>
            <Time>2021-08-03T14:09:49.000Z</Time>
            <Position>
              <LatitudeDegrees>-15.4634970612823963165283203125</LatitudeDegrees>
              <LongitudeDegrees>36.98194409720599651336669921875</LongitudeDegrees>
            </Position>
            <AltitudeMeters>720.5999755859375</AltitudeMeters>
            <DistanceMeters>NAN</DistanceMeters>
          </Trackpoint>
          <Trackpoint>
            <Time>2021-08-03T14:09:59.000Z</Time>
            <Position>
              <LatitudeDegrees>-15.46349043957889080047607421875</LatitudeDegrees>
              <LongitudeDegrees>36.9819470308721065521240234375</LongitudeDegrees>
            </Position>
            <AltitudeMeters>720.5999755859375</AltitudeMeters>
            <DistanceMeters>NAN</DistanceMeters>
          </Trackpoint>
          <Trackpoint>
            <Time>2021-08-03T14:10:04.000Z</Time>
            <Position>
              <LatitudeDegrees>-15.46348926611244678497314453125</LatitudeDegrees>
              <LongitudeDegrees>36.98194996453821659088134765625</LongitudeDegrees>
            </Position>
            <AltitudeMeters>720.5999755859375</AltitudeMeters>
            <DistanceMeters>NAN</DistanceMeters>
          </Trackpoint>
          <Trackpoint>
            <Time>2021-08-03T14:10:07.000Z</Time>
            <Position>
              <LatitudeDegrees>-15.46348926611244678497314453125</LatitudeDegrees>
              <LongitudeDegrees>36.98195113800466060638427734375</LongitudeDegrees>
            </Position>
            <AltitudeMeters>720.5999755859375</AltitudeMeters>
            <DistanceMeters>NAN</DistanceMeters>
          </Trackpoint>
          <Trackpoint>
            <Time>2021-08-03T14:10:22.000Z</Time>
            <Position>
              <LatitudeDegrees>-15.46349446289241313934326171875</LatitudeDegrees>
              <LongitudeDegrees>36.98195524513721466064453125</LongitudeDegrees>
            </Position>
            <AltitudeMeters>720.4000244140625</AltitudeMeters>
            <DistanceMeters>NAN</DistanceMeters>
          </Trackpoint>
          <Trackpoint>
            <Time>2021-08-03T14:10:24.000Z</Time>
            <Position>
              <LatitudeDegrees>-15.46349446289241313934326171875</LatitudeDegrees>
              <LongitudeDegrees>36.98195524513721466064453125</LongitudeDegrees>
            </Position>
            <AltitudeMeters>720.4000244140625</AltitudeMeters>
            <DistanceMeters>NAN</DistanceMeters>
          </Trackpoint>
        </Track>
      </Lap>
    </Activity>
  </Activities>
</TrainingCenterDatabase>
